<?xml version='1.0' encoding='UTF-8'?><gpx version="1.1" creator="JPX - https://github.com/jenetics/jpx" xmlns="http://www.topografix.com/GPX/1/1"><trk><trkseg><trkpt lat="38.17044066136235" lon="15.652951695013988"><ele>27.0</ele><time>2026-04-11T06:46:53Z</time></trkpt><trkpt lat="38.17035627696269" lon="15.65297901374914"><ele>27.0</ele><time>2026-04-11T06:47:04Z</time></trkpt><trkpt lat="38.17030940333588" lon="15.652923293303624"><ele>27.0</ele><time>2026-04-11T06:49:16Z</time></trkpt><trkpt lat="38.17027539188698" lon="15.653001166207696"><ele>27.0</ele><time>2026-04-11T06:49:19Z</time></trkpt><trkpt lat="38.17030656594885" lon="15.652901776836348"><ele>27.0</ele><time>2026-04-11T06:49:47Z</time></trkpt><trkpt lat="38.17035506299284" lon="15.652837503169462"><ele>27.0</ele><time>2026-04-11T06:49:48Z</time></trkpt><trkpt lat="38.17039455616198" lon="15.652765542554155"><ele>27.0</ele><time>2026-04-11T06:49:49Z</time></trkpt><trkpt lat="38.17042749080204" lon="15.652676944746513"><ele>26.6</ele><time>2026-04-11T06:49:51Z</time></trkpt><trkpt lat="38.17042901585718" lon="15.652574240897858"><ele>26.200000000000003</ele><time>2026-04-11T06:49:53Z</time></trkpt><trkpt lat="38.17044159139564" lon="15.652465299728583"><ele>25.8</ele><time>2026-04-11T06:49:56Z</time></trkpt><trkpt lat="38.17045576379691" lon="15.652380980317634"><ele>25.4</ele><time>2026-04-11T06:50:02Z</time></trkpt><trkpt lat="38.17044292588394" lon="15.652236391654705"><ele>25.0</ele><time>2026-04-11T06:50:05Z</time></trkpt><trkpt lat="38.17040140648356" lon="15.652069538325222"><ele>25.000000000000004</ele><time>2026-04-11T06:50:07Z</time></trkpt><trkpt lat="38.17038676338457" lon="15.65197313175113"><ele>25.0</ele><time>2026-04-11T06:50:08Z</time></trkpt><trkpt lat="38.17035781037202" lon="15.651898145454041"><ele>25.0</ele><time>2026-04-11T06:50:09Z</time></trkpt><trkpt lat="38.170316570941054" lon="15.651831323412988"><ele>25.0</ele><time>2026-04-11T06:50:10Z</time></trkpt><trkpt lat="38.17021261875661" lon="15.651776528625591"><ele>25.000000000000004</ele><time>2026-04-11T06:50:12Z</time></trkpt><trkpt lat="38.17011754653493" lon="15.651773056496129"><ele>25.0</ele><time>2026-04-11T06:50:14Z</time></trkpt><trkpt lat="38.17005113235982" lon="15.651792243601871"><ele>24.8</ele><time>2026-04-11T06:50:15Z</time></trkpt><trkpt lat="38.16995192866197" lon="15.651866316822545"><ele>24.6</ele><time>2026-04-11T06:50:17Z</time></trkpt><trkpt lat="38.16985345031345" lon="15.651840351621587"><ele>24.4</ele><time>2026-04-11T06:50:19Z</time></trkpt><trkpt lat="38.169823363505486" lon="15.651754131518006"><ele>24.2</ele><time>2026-04-11T06:50:22Z</time></trkpt><trkpt lat="38.16990411283641" lon="15.651683034115381"><ele>24.0</ele><time>2026-04-11T06:50:25Z</time></trkpt><trkpt lat="38.16997305595521" lon="15.651644032452872"><ele>23.833333333333332</ele><time>2026-04-11T06:50:26Z</time></trkpt><trkpt lat="38.17005758710009" lon="15.65162559428953"><ele>23.666666666666668</ele><time>2026-04-11T06:50:27Z</time></trkpt><trkpt lat="38.17013545924402" lon="15.651614835001181"><ele>23.5</ele><time>2026-04-11T06:50:28Z</time></trkpt><trkpt lat="38.17020618049801" lon="15.651617934278224"><ele>23.333333333333336</ele><time>2026-04-11T06:50:29Z</time></trkpt><trkpt lat="38.17033732206733" lon="15.651688884280905"><ele>23.166666666666668</ele><time>2026-04-11T06:50:31Z</time></trkpt><trkpt lat="38.17039786312441" lon="15.651714145813575"><ele>23.0</ele><time>2026-04-11T06:50:32Z</time></trkpt><trkpt lat="38.17044825520152" lon="15.651784033983157"><ele>23.0</ele><time>2026-04-11T06:50:32.999Z</time></trkpt><trkpt lat="38.1704949408962" lon="15.651847599919183"><ele>23.0</ele><time>2026-04-11T06:50:33.999Z</time></trkpt><trkpt lat="38.170552739385116" lon="15.651908791875126"><ele>23.0</ele><time>2026-04-11T06:50:34.999Z</time></trkpt><trkpt lat="38.17060165604342" lon="15.651982030178178"><ele>23.0</ele><time>2026-04-11T06:50:35.999Z</time></trkpt><trkpt lat="38.17060535219544" lon="15.652090531495741"><ele>23.0</ele><time>2026-04-11T06:50:36.999Z</time></trkpt><trkpt lat="38.17063394788912" lon="15.652165508228572"><ele>23.0</ele><time>2026-04-11T06:50:37.999Z</time></trkpt><trkpt lat="38.17067503548331" lon="15.652309088343067"><ele>23.4</ele><time>2026-04-11T06:50:39.999Z</time></trkpt><trkpt lat="38.170649600533686" lon="15.65239689723726"><ele>23.799999999999997</ele><time>2026-04-11T06:50:40.999Z</time></trkpt><trkpt lat="38.170640011365364" lon="15.652548357128813"><ele>24.2</ele><time>2026-04-11T06:50:42.999Z</time></trkpt><trkpt lat="38.170620255219006" lon="15.652667270221944"><ele>24.6</ele><time>2026-04-11T06:50:44.999Z</time></trkpt><trkpt lat="38.17062198099986" lon="15.652783803909895"><ele>25.0</ele><time>2026-04-11T06:50:46.999Z</time></trkpt><trkpt lat="38.17063503458073" lon="15.652918658484277"><ele>25.28571428571429</ele><time>2026-04-11T06:50:48.999Z</time></trkpt><trkpt lat="38.1706514199399" lon="15.653003771613173"><ele>25.571428571428573</ele><time>2026-04-11T06:50:49.999Z</time></trkpt><trkpt lat="38.17066683593689" lon="15.653096947634522"><ele>25.857142857142858</ele><time>2026-04-11T06:50:50.999Z</time></trkpt><trkpt lat="38.170683448634705" lon="15.653182631664937"><ele>26.142857142857146</ele><time>2026-04-11T06:50:51.999Z</time></trkpt><trkpt lat="38.17069959713138" lon="15.65326555350561"><ele>26.428571428571427</ele><time>2026-04-11T06:50:52.999Z</time></trkpt><trkpt lat="38.17071495168011" lon="15.653347895425451"><ele>26.714285714285715</ele><time>2026-04-11T06:50:53.999Z</time></trkpt><trkpt lat="38.17074244701863" lon="15.653430294297275"><ele>27.0</ele><time>2026-04-11T06:50:54.999Z</time></trkpt><trkpt lat="38.170766575798254" lon="15.653517405447156"><ele>27.200000000000003</ele><time>2026-04-11T06:50:55.999Z</time></trkpt><trkpt lat="38.17079348303928" lon="15.653609926921444"><ele>27.400000000000002</ele><time>2026-04-11T06:50:56.999Z</time></trkpt><trkpt lat="38.17082287752426" lon="15.653715639723908"><ele>27.599999999999998</ele><time>2026-04-11T06:50:57.999Z</time></trkpt><trkpt lat="38.170850225768504" lon="15.65381550710238"><ele>27.799999999999997</ele><time>2026-04-11T06:50:58.999Z</time></trkpt><trkpt lat="38.17090303756266" lon="15.654015395792971"><ele>28.0</ele><time>2026-04-11T06:51:00.999Z</time></trkpt><trkpt lat="38.17093130053791" lon="15.654115367976502"><ele>28.2</ele><time>2026-04-11T06:51:01.999Z</time></trkpt><trkpt lat="38.17095897246218" lon="15.654221404852835"><ele>28.4</ele><time>2026-04-11T06:51:02.999Z</time></trkpt><trkpt lat="38.17098910533993" lon="15.654335627677915"><ele>28.599999999999998</ele><time>2026-04-11T06:51:03.999Z</time></trkpt><trkpt lat="38.171020200191286" lon="15.6544440797373"><ele>28.799999999999997</ele><time>2026-04-11T06:51:04.999Z</time></trkpt><trkpt lat="38.17105262073805" lon="15.654557497934274"><ele>29.0</ele><time>2026-04-11T06:51:05.999Z</time></trkpt><trkpt lat="38.17108014769962" lon="15.654667855681536"><ele>29.6</ele><time>2026-04-11T06:51:06.999Z</time></trkpt><trkpt lat="38.17111200224472" lon="15.654784909516474"><ele>30.2</ele><time>2026-04-11T06:51:07.999Z</time></trkpt><trkpt lat="38.17114152512256" lon="15.654900578241554"><ele>30.800000000000004</ele><time>2026-04-11T06:51:08.999Z</time></trkpt><trkpt lat="38.17116278547098" lon="15.655005665780276"><ele>31.400000000000002</ele><time>2026-04-11T06:51:09.999Z</time></trkpt><trkpt lat="38.17121954761023" lon="15.655130523429731"><ele>32.0</ele><time>2026-04-11T06:51:10.999Z</time></trkpt><trkpt lat="38.17126202466731" lon="15.655265036787387"><ele>32.75</ele><time>2026-04-11T06:51:12Z</time></trkpt><trkpt lat="38.17129684918113" lon="15.655386188203813"><ele>33.5</ele><time>2026-04-11T06:51:13Z</time></trkpt><trkpt lat="38.171368059459084" lon="15.655580092989435"><ele>34.25</ele><time>2026-04-11T06:51:14Z</time></trkpt><trkpt lat="38.17143793957536" lon="15.655734273787656"><ele>35.0</ele><time>2026-04-11T06:51:15Z</time></trkpt><trkpt lat="38.17151490703718" lon="15.655881007211434"><ele>35.0</ele><time>2026-04-11T06:51:16Z</time></trkpt><trkpt lat="38.17160167451658" lon="15.656011802438048"><ele>35.0</ele><time>2026-04-11T06:51:17Z</time></trkpt><trkpt lat="38.17169117477495" lon="15.656128416881018"><ele>35.0</ele><time>2026-04-11T06:51:18Z</time></trkpt><trkpt lat="38.17177991951771" lon="15.656219602685919"><ele>35.0</ele><time>2026-04-11T06:51:19Z</time></trkpt><trkpt lat="38.171892984723954" lon="15.656342035710134"><ele>35.0</ele><time>2026-04-11T06:51:20Z</time></trkpt><trkpt lat="38.17200894174797" lon="15.656439867601346"><ele>35.0</ele><time>2026-04-11T06:51:21Z</time></trkpt><trkpt lat="38.17212688927637" lon="15.656526156569836"><ele>35.0</ele><time>2026-04-11T06:51:22Z</time></trkpt><trkpt lat="38.172257418823904" lon="15.656604374299334"><ele>35.0</ele><time>2026-04-11T06:51:23Z</time></trkpt><trkpt lat="38.17239469355836" lon="15.656669578160685"><ele>35.666666666666664</ele><time>2026-04-11T06:51:24Z</time></trkpt><trkpt lat="38.172545971364485" lon="15.656728467599415"><ele>36.333333333333336</ele><time>2026-04-11T06:51:25Z</time></trkpt><trkpt lat="38.1727074433371" lon="15.656785409680547"><ele>37.0</ele><time>2026-04-11T06:51:26Z</time></trkpt><trkpt lat="38.17288039029248" lon="15.6568376932381"><ele>37.0</ele><time>2026-04-11T06:51:27Z</time></trkpt><trkpt lat="38.173056234128246" lon="15.656903186263854"><ele>37.0</ele><time>2026-04-11T06:51:28Z</time></trkpt><trkpt lat="38.17322924487658" lon="15.656965118379636"><ele>37.0</ele><time>2026-04-11T06:51:29Z</time></trkpt><trkpt lat="38.17338868109741" lon="15.657020702627142"><ele>38.66666666666667</ele><time>2026-04-11T06:51:30Z</time></trkpt><trkpt lat="38.17354755080874" lon="15.657077429987247"><ele>40.333333333333336</ele><time>2026-04-11T06:51:31Z</time></trkpt><trkpt lat="38.17369345215935" lon="15.65713144349957"><ele>42.0</ele><time>2026-04-11T06:51:32Z</time></trkpt><trkpt lat="38.17383955829486" lon="15.657183008798434"><ele>42.0</ele><time>2026-04-11T06:51:33Z</time></trkpt><trkpt lat="38.1739633082504" lon="15.657231266415957"><ele>42.0</ele><time>2026-04-11T06:51:34Z</time></trkpt><trkpt lat="38.17411019416225" lon="15.657279812041693"><ele>42.0</ele><time>2026-04-11T06:51:35Z</time></trkpt><trkpt lat="38.174264508963034" lon="15.65733340580147"><ele>42.0</ele><time>2026-04-11T06:51:36Z</time></trkpt><trkpt lat="38.174416619533766" lon="15.65738979799843"><ele>42.25</ele><time>2026-04-11T06:51:37Z</time></trkpt><trkpt lat="38.174558836518685" lon="15.65745949315372"><ele>42.5</ele><time>2026-04-11T06:51:38Z</time></trkpt><trkpt lat="38.1746953763132" lon="15.657541804045271"><ele>42.75</ele><time>2026-04-11T06:51:39Z</time></trkpt><trkpt lat="38.17482285851327" lon="15.657631824615477"><ele>43.0</ele><time>2026-04-11T06:51:40Z</time></trkpt><trkpt lat="38.17495021995077" lon="15.657728160950196"><ele>44.0</ele><time>2026-04-11T06:51:41Z</time></trkpt><trkpt lat="38.17507712325838" lon="15.657825050530287"><ele>45.0</ele><time>2026-04-11T06:51:42Z</time></trkpt><trkpt lat="38.17519902739592" lon="15.657926649532932"><ele>46.0</ele><time>2026-04-11T06:51:43Z</time></trkpt><trkpt lat="38.175308867218" lon="15.658036405773"><ele>47.0</ele><time>2026-04-11T06:51:44Z</time></trkpt><trkpt lat="38.17542126930265" lon="15.658154221051394"><ele>47.0</ele><time>2026-04-11T06:51:45Z</time></trkpt><trkpt lat="38.17552291836688" lon="15.658274878687447"><ele>47.0</ele><time>2026-04-11T06:51:46Z</time></trkpt><trkpt lat="38.17562306260941" lon="15.658407380605707"><ele>47.0</ele><time>2026-04-11T06:51:47Z</time></trkpt><trkpt lat="38.17572618639661" lon="15.658555890113718"><ele>47.0</ele><time>2026-04-11T06:51:48Z</time></trkpt><trkpt lat="38.17582478881032" lon="15.658706598121746"><ele>48.0</ele><time>2026-04-11T06:51:49Z</time></trkpt><trkpt lat="38.17591930287398" lon="15.65885691312982"><ele>49.0</ele><time>2026-04-11T06:51:50Z</time></trkpt><trkpt lat="38.17601614201208" lon="15.659006141108934"><ele>50.0</ele><time>2026-04-11T06:51:51Z</time></trkpt><trkpt lat="38.1761300309394" lon="15.659168241224275"><ele>50.0</ele><time>2026-04-11T06:51:52Z</time></trkpt><trkpt lat="38.17624109013066" lon="15.659338313173924"><ele>50.0</ele><time>2026-04-11T06:51:53Z</time></trkpt><trkpt lat="38.17635757582178" lon="15.659511758122195"><ele>50.0</ele><time>2026-04-11T06:51:54Z</time></trkpt><trkpt lat="38.176474893089264" lon="15.659683953367184"><ele>51.333333333333336</ele><time>2026-04-11T06:51:55Z</time></trkpt><trkpt lat="38.17659228709785" lon="15.659856138703747"><ele>52.66666666666667</ele><time>2026-04-11T06:51:56Z</time></trkpt><trkpt lat="38.176714021285285" lon="15.660034286856517"><ele>54.0</ele><time>2026-04-11T06:51:57Z</time></trkpt><trkpt lat="38.176831939491166" lon="15.660214862305324"><ele>54.66666666666667</ele><time>2026-04-11T06:51:58Z</time></trkpt><trkpt lat="38.176957164178475" lon="15.660405943006102"><ele>55.333333333333336</ele><time>2026-04-11T06:51:59Z</time></trkpt><trkpt lat="38.17708220090956" lon="15.660595361394357"><ele>56.0</ele><time>2026-04-11T06:52:00Z</time></trkpt><trkpt lat="38.17720393316656" lon="15.660782343296335"><ele>56.0</ele><time>2026-04-11T06:52:01Z</time></trkpt><trkpt lat="38.17732858713731" lon="15.660970327392986"><ele>56.0</ele><time>2026-04-11T06:52:02Z</time></trkpt><trkpt lat="38.17745249600346" lon="15.661155482341252"><ele>56.0</ele><time>2026-04-11T06:52:03Z</time></trkpt><trkpt lat="38.17757480794371" lon="15.661335712913264"><ele>56.66666666666667</ele><time>2026-04-11T06:52:04Z</time></trkpt><trkpt lat="38.17769426071282" lon="15.661520582016372"><ele>57.33333333333333</ele><time>2026-04-11T06:52:05Z</time></trkpt><trkpt lat="38.177819055804314" lon="15.66170190221719"><ele>58.0</ele><time>2026-04-11T06:52:06Z</time></trkpt><trkpt lat="38.177944652830185" lon="15.66188287724012"><ele>58.666666666666664</ele><time>2026-04-11T06:52:07Z</time></trkpt><trkpt lat="38.17806895617329" lon="15.66207166335361"><ele>59.33333333333333</ele><time>2026-04-11T06:52:08Z</time></trkpt><trkpt lat="38.178196609594174" lon="15.662266667989986"><ele>60.0</ele><time>2026-04-11T06:52:09Z</time></trkpt><trkpt lat="38.178333327545715" lon="15.662467747844032"><ele>62.5</ele><time>2026-04-11T06:52:10Z</time></trkpt><trkpt lat="38.178481171292475" lon="15.662679615910681"><ele>65.0</ele><time>2026-04-11T06:52:11Z</time></trkpt><trkpt lat="38.17862832824937" lon="15.662905232392896"><ele>66.0</ele><time>2026-04-11T06:52:12Z</time></trkpt><trkpt lat="38.17876277673461" lon="15.663123752582223"><ele>67.0</ele><time>2026-04-11T06:52:13Z</time></trkpt><trkpt lat="38.178884452889925" lon="15.66333072179829"><ele>68.0</ele><time>2026-04-11T06:52:14Z</time></trkpt><trkpt lat="38.17900274670403" lon="15.663533198327908"><ele>68.0</ele><time>2026-04-11T06:52:15Z</time></trkpt><trkpt lat="38.17912023847684" lon="15.663742514272151"><ele>68.0</ele><time>2026-04-11T06:52:16Z</time></trkpt><trkpt lat="38.179237836097116" lon="15.663955840102835"><ele>68.0</ele><time>2026-04-11T06:52:17Z</time></trkpt><trkpt lat="38.1793499597233" lon="15.664165089208426"><ele>68.0</ele><time>2026-04-11T06:52:18Z</time></trkpt><trkpt lat="38.179439544212094" lon="15.664339470556058"><ele>68.0</ele><time>2026-04-11T06:52:19Z</time></trkpt><trkpt lat="38.179511749961755" lon="15.664493637524176"><ele>68.0</ele><time>2026-04-11T06:52:20Z</time></trkpt><trkpt lat="38.17957786443515" lon="15.66463289242883"><ele>68.0</ele><time>2026-04-11T06:52:21Z</time></trkpt><trkpt lat="38.17963684207507" lon="15.664756246447775"><ele>68.0</ele><time>2026-04-11T06:52:22Z</time></trkpt><trkpt lat="38.17968827314806" lon="15.66486560445463"><ele>68.0</ele><time>2026-04-11T06:52:23Z</time></trkpt><trkpt lat="38.17974138332769" lon="15.664974242885334"><ele>68.0</ele><time>2026-04-11T06:52:24Z</time></trkpt><trkpt lat="38.17980405387223" lon="15.665095344685483"><ele>68.0</ele><time>2026-04-11T06:52:25Z</time></trkpt><trkpt lat="38.17986981095467" lon="15.665225586835689"><ele>68.0</ele><time>2026-04-11T06:52:26Z</time></trkpt><trkpt lat="38.179940130756385" lon="15.665371762069864"><ele>69.5</ele><time>2026-04-11T06:52:27Z</time></trkpt><trkpt lat="38.18001401108217" lon="15.66552547087556"><ele>71.0</ele><time>2026-04-11T06:52:28Z</time></trkpt><trkpt lat="38.18009043354207" lon="15.665677115111068"><ele>72.5</ele><time>2026-04-11T06:52:29Z</time></trkpt><trkpt lat="38.180167427913005" lon="15.665830265153359"><ele>74.0</ele><time>2026-04-11T06:52:30Z</time></trkpt><trkpt lat="38.180244417733334" lon="15.66598074932736"><ele>73.75</ele><time>2026-04-11T06:52:31Z</time></trkpt><trkpt lat="38.180323959985515" lon="15.66613788463937"><ele>73.5</ele><time>2026-04-11T06:52:32Z</time></trkpt><trkpt lat="38.180405168641045" lon="15.666298217157298"><ele>73.25</ele><time>2026-04-11T06:52:33Z</time></trkpt><trkpt lat="38.18048341768616" lon="15.666459997214268"><ele>73.0</ele><time>2026-04-11T06:52:34Z</time></trkpt><trkpt lat="38.18056044305262" lon="15.666626133874027"><ele>73.0</ele><time>2026-04-11T06:52:35Z</time></trkpt><trkpt lat="38.18064664301246" lon="15.666791840853767"><ele>73.0</ele><time>2026-04-11T06:52:36Z</time></trkpt><trkpt lat="38.18074160773814" lon="15.666978706817257"><ele>73.0</ele><time>2026-04-11T06:52:37Z</time></trkpt><trkpt lat="38.180838203965095" lon="15.667175954659465"><ele>74.0</ele><time>2026-04-11T06:52:38Z</time></trkpt><trkpt lat="38.18093686113588" lon="15.667374400601586"><ele>75.0</ele><time>2026-04-11T06:52:38.998Z</time></trkpt><trkpt lat="38.18103511053021" lon="15.667564056009432"><ele>76.0</ele><time>2026-04-11T06:52:39.998Z</time></trkpt><trkpt lat="38.18113087286246" lon="15.667755478246084"><ele>76.66666666666666</ele><time>2026-04-11T06:52:40.998Z</time></trkpt><trkpt lat="38.18122731346454" lon="15.667945020954534"><ele>77.33333333333333</ele><time>2026-04-11T06:52:41.998Z</time></trkpt><trkpt lat="38.18132279711857" lon="15.668140102013595"><ele>78.0</ele><time>2026-04-11T06:52:42.998Z</time></trkpt><trkpt lat="38.181409728471806" lon="15.668322153463928"><ele>78.0</ele><time>2026-04-11T06:52:43.998Z</time></trkpt><trkpt lat="38.181494296821846" lon="15.66849777693347"><ele>78.0</ele><time>2026-04-11T06:52:44.998Z</time></trkpt><trkpt lat="38.181576471749786" lon="15.668671153068937"><ele>78.0</ele><time>2026-04-11T06:52:45.998Z</time></trkpt><trkpt lat="38.18165506904351" lon="15.66883283721411"><ele>79.0</ele><time>2026-04-11T06:52:46.998Z</time></trkpt><trkpt lat="38.18172880502188" lon="15.668990694402556"><ele>80.0</ele><time>2026-04-11T06:52:47.998Z</time></trkpt><trkpt lat="38.181787252569215" lon="15.669132076838087"><ele>81.0</ele><time>2026-04-11T06:52:48.998Z</time></trkpt><trkpt lat="38.181838731567225" lon="15.669265013247333"><ele>82.0</ele><time>2026-04-11T06:52:49.998Z</time></trkpt><trkpt lat="38.18189194414952" lon="15.669402200710401"><ele>82.33333333333333</ele><time>2026-04-11T06:52:50.998Z</time></trkpt><trkpt lat="38.18197008789871" lon="15.66955750845096"><ele>82.66666666666667</ele><time>2026-04-11T06:52:51.998Z</time></trkpt><trkpt lat="38.182071366923196" lon="15.669735265153577"><ele>83.0</ele><time>2026-04-11T06:52:52.999Z</time></trkpt><trkpt lat="38.182198470513924" lon="15.669894312656854"><ele>83.0</ele><time>2026-04-11T06:52:53.999Z</time></trkpt><trkpt lat="38.18227937598933" lon="15.670085873956317"><ele>83.0</ele><time>2026-04-11T06:52:54.999Z</time></trkpt><trkpt lat="38.18235829722436" lon="15.670230511286269"><ele>83.0</ele><time>2026-04-11T06:52:55.999Z</time></trkpt><trkpt lat="38.18243536966215" lon="15.670373973361924"><ele>83.0</ele><time>2026-04-11T06:52:56.999Z</time></trkpt><trkpt lat="38.18251785478572" lon="15.670532651442107"><ele>84.33333333333334</ele><time>2026-04-11T06:52:57.999Z</time></trkpt><trkpt lat="38.18260902065878" lon="15.670706451657896"><ele>85.66666666666667</ele><time>2026-04-11T06:52:58.999Z</time></trkpt><trkpt lat="38.182702482482824" lon="15.670888674743004"><ele>87.0</ele><time>2026-04-11T06:52:59.999Z</time></trkpt><trkpt lat="38.18279930296845" lon="15.671072593342219"><ele>87.0</ele><time>2026-04-11T06:53:00.999Z</time></trkpt><trkpt lat="38.18289610788941" lon="15.671259598891554"><ele>87.0</ele><time>2026-04-11T06:53:01.999Z</time></trkpt><trkpt lat="38.18299559467647" lon="15.67145095173897"><ele>87.0</ele><time>2026-04-11T06:53:02.999Z</time></trkpt><trkpt lat="38.183095428724315" lon="15.671643916256365"><ele>87.66666666666667</ele><time>2026-04-11T06:53:03.999Z</time></trkpt><trkpt lat="38.183194491518236" lon="15.671830439196937"><ele>88.33333333333334</ele><time>2026-04-11T06:53:04.999Z</time></trkpt><trkpt lat="38.18329858915461" lon="15.67202275570029"><ele>89.0</ele><time>2026-04-11T06:53:05.999Z</time></trkpt><trkpt lat="38.18340145068733" lon="15.67221309484637"><ele>89.66666666666667</ele><time>2026-04-11T06:53:06.999Z</time></trkpt><trkpt lat="38.1835025312978" lon="15.672408488993629"><ele>90.33333333333333</ele><time>2026-04-11T06:53:07.999Z</time></trkpt><trkpt lat="38.18360435957126" lon="15.67260815418594"><ele>91.0</ele><time>2026-04-11T06:53:08.999Z</time></trkpt><trkpt lat="38.18370739374393" lon="15.67280763812008"><ele>91.33333333333333</ele><time>2026-04-11T06:53:09.999Z</time></trkpt><trkpt lat="38.18381415266592" lon="15.673011386754736"><ele>91.66666666666667</ele><time>2026-04-11T06:53:10.999Z</time></trkpt><trkpt lat="38.18392150316989" lon="15.673211385504656"><ele>92.0</ele><time>2026-04-11T06:53:11.999Z</time></trkpt><trkpt lat="38.18403150851" lon="15.673420281320402"><ele>92.66666666666667</ele><time>2026-04-11T06:53:12.999Z</time></trkpt><trkpt lat="38.184143473852004" lon="15.673636685735753"><ele>93.33333333333333</ele><time>2026-04-11T06:53:13.999Z</time></trkpt><trkpt lat="38.1842554084214" lon="15.673850999850734"><ele>94.0</ele><time>2026-04-11T06:53:14.999Z</time></trkpt><trkpt lat="38.18436758469924" lon="15.674071720678326"><ele>94.0</ele><time>2026-04-11T06:53:15.999Z</time></trkpt><trkpt lat="38.18448229602225" lon="15.674288303162818"><ele>94.0</ele><time>2026-04-11T06:53:16.999Z</time></trkpt><trkpt lat="38.18458952177823" lon="15.674487428775633"><ele>94.0</ele><time>2026-04-11T06:53:17.999Z</time></trkpt><trkpt lat="38.184685741497994" lon="15.674674114943688"><ele>94.66666666666666</ele><time>2026-04-11T06:53:18.999Z</time></trkpt><trkpt lat="38.18478173262218" lon="15.674853940579236"><ele>95.33333333333333</ele><time>2026-04-11T06:53:20Z</time></trkpt><trkpt lat="38.18487945301614" lon="15.675038374356483"><ele>96.0</ele><time>2026-04-11T06:53:21Z</time></trkpt><trkpt lat="38.18497417992884" lon="15.675226470168935"><ele>97.66666666666666</ele><time>2026-04-11T06:53:22Z</time></trkpt><trkpt lat="38.18506115056782" lon="15.675418379953515"><ele>99.33333333333333</ele><time>2026-04-11T06:53:23Z</time></trkpt><trkpt lat="38.18514241382489" lon="15.67561249498062"><ele>101.0</ele><time>2026-04-11T06:53:24Z</time></trkpt><trkpt lat="38.18521682978293" lon="15.675808750978494"><ele>101.0</ele><time>2026-04-11T06:53:25Z</time></trkpt><trkpt lat="38.185284529193076" lon="15.67599175286498"><ele>101.0</ele><time>2026-04-11T06:53:26Z</time></trkpt><trkpt lat="38.18534975032917" lon="15.67624006680461"><ele>101.0</ele><time>2026-04-11T06:53:27Z</time></trkpt><trkpt lat="38.18541457844379" lon="15.676472248675921"><ele>101.66666666666666</ele><time>2026-04-11T06:53:28Z</time></trkpt><trkpt lat="38.1854791420108" lon="15.676709959443835"><ele>102.33333333333334</ele><time>2026-04-11T06:53:29Z</time></trkpt><trkpt lat="38.18553284322023" lon="15.676957244244585"><ele>103.0</ele><time>2026-04-11T06:53:30Z</time></trkpt><trkpt lat="38.185573927022936" lon="15.677210590441673"><ele>104.0</ele><time>2026-04-11T06:53:31Z</time></trkpt><trkpt lat="38.185609767943276" lon="15.6774699061527"><ele>105.0</ele><time>2026-04-11T06:53:32Z</time></trkpt><trkpt lat="38.185637934981614" lon="15.677730871343499"><ele>106.0</ele><time>2026-04-11T06:53:33Z</time></trkpt><trkpt lat="38.185658076377955" lon="15.677990642481541"><ele>106.33333333333334</ele><time>2026-04-11T06:53:34Z</time></trkpt><trkpt lat="38.18567495723776" lon="15.678244148387774"><ele>106.66666666666666</ele><time>2026-04-11T06:53:35Z</time></trkpt><trkpt lat="38.185687568018665" lon="15.678495478380224"><ele>107.0</ele><time>2026-04-11T06:53:36Z</time></trkpt><trkpt lat="38.185690449990844" lon="15.678741430480974"><ele>108.66666666666666</ele><time>2026-04-11T06:53:37Z</time></trkpt><trkpt lat="38.18569235626137" lon="15.678988360152992"><ele>110.33333333333334</ele><time>2026-04-11T06:53:38Z</time></trkpt><trkpt lat="38.18570087758992" lon="15.679227259615935"><ele>112.0</ele><time>2026-04-11T06:53:39Z</time></trkpt><trkpt lat="38.185707299605355" lon="15.679428432594584"><ele>113.0</ele><time>2026-04-11T06:53:40Z</time></trkpt><trkpt lat="38.185713694832124" lon="15.679650697010391"><ele>114.0</ele><time>2026-04-11T06:53:41Z</time></trkpt><trkpt lat="38.18571408315281" lon="15.679861142517089"><ele>115.0</ele><time>2026-04-11T06:53:42Z</time></trkpt><trkpt lat="38.185718258033056" lon="15.680078089963333"><ele>115.0</ele><time>2026-04-11T06:53:43Z</time></trkpt><trkpt lat="38.185722896671365" lon="15.680296803008511"><ele>115.0</ele><time>2026-04-11T06:53:44Z</time></trkpt><trkpt lat="38.1857226336574" lon="15.680516219366211"><ele>115.0</ele><time>2026-04-11T06:53:45Z</time></trkpt><trkpt lat="38.18572285947228" lon="15.680742174835109"><ele>115.0</ele><time>2026-04-11T06:53:46Z</time></trkpt><trkpt lat="38.18574164583865" lon="15.680985680226467"><ele>115.0</ele><time>2026-04-11T06:53:47Z</time></trkpt><trkpt lat="38.185753662733" lon="15.681231824076958"><ele>115.0</ele><time>2026-04-11T06:53:48Z</time></trkpt><trkpt lat="38.18575367899094" lon="15.68148669332178"><ele>115.0</ele><time>2026-04-11T06:53:49Z</time></trkpt><trkpt lat="38.185763934212204" lon="15.681736199458607"><ele>115.0</ele><time>2026-04-11T06:53:50Z</time></trkpt><trkpt lat="38.185775706323426" lon="15.681984798583551"><ele>115.0</ele><time>2026-04-11T06:53:51Z</time></trkpt><trkpt lat="38.18577395715352" lon="15.68224800040348"><ele>115.66666666666667</ele><time>2026-04-11T06:53:52Z</time></trkpt><trkpt lat="38.185782469733105" lon="15.68250532154242"><ele>116.33333333333334</ele><time>2026-04-11T06:53:53Z</time></trkpt><trkpt lat="38.185784734719796" lon="15.682786120074638"><ele>117.0</ele><time>2026-04-11T06:53:54Z</time></trkpt><trkpt lat="38.185796829577434" lon="15.683019542433769"><ele>118.0</ele><time>2026-04-11T06:53:55Z</time></trkpt><trkpt lat="38.18580172896525" lon="15.683273970300357"><ele>119.0</ele><time>2026-04-11T06:53:56Z</time></trkpt><trkpt lat="38.185804703373115" lon="15.683518653312596"><ele>120.0</ele><time>2026-04-11T06:53:57Z</time></trkpt><trkpt lat="38.185806918268604" lon="15.683765371942709"><ele>120.66666666666666</ele><time>2026-04-11T06:53:58Z</time></trkpt><trkpt lat="38.18581241231212" lon="15.683998877169529"><ele>121.33333333333333</ele><time>2026-04-11T06:53:59Z</time></trkpt><trkpt lat="38.18581440987999" lon="15.68423026804143"><ele>122.0</ele><time>2026-04-11T06:54:00Z</time></trkpt><trkpt lat="38.18582050843625" lon="15.68445973058153"><ele>122.33333333333333</ele><time>2026-04-11T06:54:01Z</time></trkpt><trkpt lat="38.1858284474086" lon="15.684681918073332"><ele>122.66666666666666</ele><time>2026-04-11T06:54:02Z</time></trkpt><trkpt lat="38.1858356383968" lon="15.684905080598647"><ele>123.0</ele><time>2026-04-11T06:54:03Z</time></trkpt><trkpt lat="38.18583916827156" lon="15.68512654235256"><ele>124.0</ele><time>2026-04-11T06:54:04Z</time></trkpt><trkpt lat="38.18584154599157" lon="15.685349957294076"><ele>125.0</ele><time>2026-04-11T06:54:05Z</time></trkpt><trkpt lat="38.18584493416201" lon="15.685574251764645"><ele>126.0</ele><time>2026-04-11T06:54:06Z</time></trkpt><trkpt lat="38.185858721453776" lon="15.685807558151671"><ele>126.0</ele><time>2026-04-11T06:54:07Z</time></trkpt><trkpt lat="38.18586141129916" lon="15.68602251375626"><ele>126.0</ele><time>2026-04-11T06:54:08Z</time></trkpt><trkpt lat="38.185862073043126" lon="15.68623842593803"><ele>126.0</ele><time>2026-04-11T06:54:09Z</time></trkpt><trkpt lat="38.185867433701034" lon="15.686457611788027"><ele>127.0</ele><time>2026-04-11T06:54:10Z</time></trkpt><trkpt lat="38.18587116347199" lon="15.686674674849806"><ele>128.0</ele><time>2026-04-11T06:54:11Z</time></trkpt><trkpt lat="38.185865401917304" lon="15.686893306258229"><ele>129.0</ele><time>2026-04-11T06:54:12Z</time></trkpt><trkpt lat="38.18585576668247" lon="15.687116744098674"><ele>130.33333333333334</ele><time>2026-04-11T06:54:13Z</time></trkpt><trkpt lat="38.18583762253856" lon="15.687342544151226"><ele>131.66666666666669</ele><time>2026-04-11T06:54:14Z</time></trkpt><trkpt lat="38.185817298403805" lon="15.687567154723396"><ele>133.0</ele><time>2026-04-11T06:54:15Z</time></trkpt><trkpt lat="38.185801770608506" lon="15.687791734929815"><ele>133.0</ele><time>2026-04-11T06:54:16Z</time></trkpt><trkpt lat="38.185784865159334" lon="15.688018531174441"><ele>133.0</ele><time>2026-04-11T06:54:17Z</time></trkpt><trkpt lat="38.18577152415073" lon="15.688250604294907"><ele>133.0</ele><time>2026-04-11T06:54:18Z</time></trkpt><trkpt lat="38.18576284098248" lon="15.688482509308106"><ele>134.0</ele><time>2026-04-11T06:54:19Z</time></trkpt><trkpt lat="38.185749459074486" lon="15.688713378322957"><ele>135.0</ele><time>2026-04-11T06:54:20Z</time></trkpt><trkpt lat="38.185738240713256" lon="15.688942380299167"><ele>136.0</ele><time>2026-04-11T06:54:21Z</time></trkpt><trkpt lat="38.18573066287402" lon="15.689173779109757"><ele>136.0</ele><time>2026-04-11T06:54:22.001Z</time></trkpt><trkpt lat="38.18572003124284" lon="15.689401307410767"><ele>136.0</ele><time>2026-04-11T06:54:23.001Z</time></trkpt><trkpt lat="38.185715994471586" lon="15.689632906726255"><ele>136.0</ele><time>2026-04-11T06:54:24.001Z</time></trkpt><trkpt lat="38.185716609567145" lon="15.689866227324824"><ele>136.66666666666669</ele><time>2026-04-11T06:54:25.001Z</time></trkpt><trkpt lat="38.185724868937164" lon="15.690090386946833"><ele>137.33333333333334</ele><time>2026-04-11T06:54:26.001Z</time></trkpt><trkpt lat="38.185744651172165" lon="15.69032954826457"><ele>138.0</ele><time>2026-04-11T06:54:27.001Z</time></trkpt><trkpt lat="38.185769698111166" lon="15.690557139951936"><ele>138.0</ele><time>2026-04-11T06:54:28.001Z</time></trkpt><trkpt lat="38.1857950382235" lon="15.690779542461529"><ele>138.0</ele><time>2026-04-11T06:54:29.001Z</time></trkpt><trkpt lat="38.18582157564836" lon="15.691008792129104"><ele>138.0</ele><time>2026-04-11T06:54:30.001Z</time></trkpt><trkpt lat="38.185845487931886" lon="15.691236755935845"><ele>138.66666666666666</ele><time>2026-04-11T06:54:31.001Z</time></trkpt><trkpt lat="38.185864755438516" lon="15.691464818919771"><ele>139.33333333333331</ele><time>2026-04-11T06:54:32.001Z</time></trkpt><trkpt lat="38.185885173113874" lon="15.691701147373418"><ele>140.0</ele><time>2026-04-11T06:54:33.001Z</time></trkpt><trkpt lat="38.18590806305874" lon="15.691939733674756"><ele>141.33333333333331</ele><time>2026-04-11T06:54:34.001Z</time></trkpt><trkpt lat="38.18592952600804" lon="15.69217287164427"><ele>142.66666666666666</ele><time>2026-04-11T06:54:35.001Z</time></trkpt><trkpt lat="38.1859493865397" lon="15.692400545557904"><ele>144.0</ele><time>2026-04-11T06:54:36.001Z</time></trkpt><trkpt lat="38.185969211534356" lon="15.692620597460651"><ele>144.33333333333334</ele><time>2026-04-11T06:54:37.001Z</time></trkpt><trkpt lat="38.185982714122645" lon="15.692845179586728"><ele>144.66666666666669</ele><time>2026-04-11T06:54:38.001Z</time></trkpt><trkpt lat="38.18599261556472" lon="15.693076459887935"><ele>145.0</ele><time>2026-04-11T06:54:39.001Z</time></trkpt><trkpt lat="38.185995381800105" lon="15.693312461319367"><ele>145.0</ele><time>2026-04-11T06:54:40.001Z</time></trkpt><trkpt lat="38.18599362866158" lon="15.693563705552943"><ele>145.0</ele><time>2026-04-11T06:54:41.001Z</time></trkpt><trkpt lat="38.185977673744894" lon="15.693820577524818"><ele>145.0</ele><time>2026-04-11T06:54:42.001Z</time></trkpt><trkpt lat="38.18595262083434" lon="15.694086257221125"><ele>145.0</ele><time>2026-04-11T06:54:43.001Z</time></trkpt><trkpt lat="38.185915345309795" lon="15.694353890626303"><ele>145.0</ele><time>2026-04-11T06:54:44.001Z</time></trkpt><trkpt lat="38.18587121364887" lon="15.694619022712024"><ele>145.0</ele><time>2026-04-11T06:54:44.999Z</time></trkpt><trkpt lat="38.18581722078932" lon="15.694880781569237"><ele>147.5</ele><time>2026-04-11T06:54:45.999Z</time></trkpt><trkpt lat="38.18574998336674" lon="15.695149917812655"><ele>150.0</ele><time>2026-04-11T06:54:46.999Z</time></trkpt><trkpt lat="38.185667140117424" lon="15.695425380809988"><ele>165.5</ele><time>2026-04-11T06:54:47.999Z</time></trkpt><trkpt lat="38.18557369234249" lon="15.695698944504747"><ele>181.0</ele><time>2026-04-11T06:54:48.999Z</time></trkpt><trkpt lat="38.18547210986664" lon="15.695960165370163"><ele>174.0</ele><time>2026-04-11T06:54:49.999Z</time></trkpt><trkpt lat="38.185370248951465" lon="15.696220444425085"><ele>167.0</ele><time>2026-04-11T06:54:50.999Z</time></trkpt><trkpt lat="38.1852641338416" lon="15.696481620103631"><ele>167.0</ele><time>2026-04-11T06:54:51.999Z</time></trkpt><trkpt lat="38.18515791836721" lon="15.696750725731734"><ele>167.0</ele><time>2026-04-11T06:54:52.999Z</time></trkpt><trkpt lat="38.185047262834686" lon="15.697027235183613"><ele>162.5</ele><time>2026-04-11T06:54:53.999Z</time></trkpt><trkpt lat="38.18493928208714" lon="15.697299795658209"><ele>158.0</ele><time>2026-04-11T06:54:54.999Z</time></trkpt><trkpt lat="38.184840549090055" lon="15.697548112517019"><ele>163.66666666666666</ele><time>2026-04-11T06:54:55.999Z</time></trkpt><trkpt lat="38.18473904935506" lon="15.697798841575864"><ele>169.33333333333334</ele><time>2026-04-11T06:54:56.999Z</time></trkpt><trkpt lat="38.18464690917642" lon="15.698025989748471"><ele>175.0</ele><time>2026-04-11T06:54:57.999Z</time></trkpt><trkpt lat="38.184557479173066" lon="15.698255207061093"><ele>175.0</ele><time>2026-04-11T06:54:58.999Z</time></trkpt><trkpt lat="38.18446960588493" lon="15.698478384473155"><ele>175.0</ele><time>2026-04-11T06:55:00Z</time></trkpt><trkpt lat="38.184380584410114" lon="15.698701261811927"><ele>175.0</ele><time>2026-04-11T06:55:01Z</time></trkpt><trkpt lat="38.1842932062188" lon="15.69892924230036"><ele>173.0</ele><time>2026-04-11T06:55:02Z</time></trkpt><trkpt lat="38.18420459282441" lon="15.699156790530997"><ele>171.0</ele><time>2026-04-11T06:55:03Z</time></trkpt><trkpt lat="38.18410591912997" lon="15.699390020071997"><ele>169.0</ele><time>2026-04-11T06:55:04Z</time></trkpt><trkpt lat="38.18400953836797" lon="15.699630859180765"><ele>169.0</ele><time>2026-04-11T06:55:05Z</time></trkpt><trkpt lat="38.18390833275904" lon="15.699881181766496"><ele>169.0</ele><time>2026-04-11T06:55:06Z</time></trkpt><trkpt lat="38.18380551598781" lon="15.700140414247592"><ele>169.0</ele><time>2026-04-11T06:55:07Z</time></trkpt><trkpt lat="38.18370439634305" lon="15.70040347809158"><ele>169.0</ele><time>2026-04-11T06:55:08Z</time></trkpt><trkpt lat="38.18359885707227" lon="15.700667800384814"><ele>169.0</ele><time>2026-04-11T06:55:09Z</time></trkpt><trkpt lat="38.18349213427308" lon="15.70093396404577"><ele>168.5</ele><time>2026-04-11T06:55:10Z</time></trkpt><trkpt lat="38.183382738112584" lon="15.70120555898883"><ele>168.0</ele><time>2026-04-11T06:55:11Z</time></trkpt><trkpt lat="38.18327564918202" lon="15.701468969997716"><ele>172.33333333333334</ele><time>2026-04-11T06:55:12Z</time></trkpt><trkpt lat="38.18317058599056" lon="15.701718221458199"><ele>176.66666666666669</ele><time>2026-04-11T06:55:13Z</time></trkpt><trkpt lat="38.183056781854965" lon="15.701964568379445"><ele>181.0</ele><time>2026-04-11T06:55:14Z</time></trkpt><trkpt lat="38.182933007767275" lon="15.70221544036683"><ele>181.0</ele><time>2026-04-11T06:55:15Z</time></trkpt><trkpt lat="38.18279990526734" lon="15.7024573088318"><ele>181.0</ele><time>2026-04-11T06:55:16Z</time></trkpt><trkpt lat="38.18265487001891" lon="15.702700186652061"><ele>181.0</ele><time>2026-04-11T06:55:17Z</time></trkpt><trkpt lat="38.18250795712387" lon="15.702932780389732"><ele>181.0</ele><time>2026-04-11T06:55:18Z</time></trkpt><trkpt lat="38.182365468980905" lon="15.703155249644718"><ele>185.33333333333334</ele><time>2026-04-11T06:55:19Z</time></trkpt><trkpt lat="38.18222195598934" lon="15.703377105435605"><ele>189.66666666666669</ele><time>2026-04-11T06:55:20Z</time></trkpt><trkpt lat="38.18208981519693" lon="15.703599517225419"><ele>194.0</ele><time>2026-04-11T06:55:21Z</time></trkpt><trkpt lat="38.181960021108466" lon="15.703831040787165"><ele>194.0</ele><time>2026-04-11T06:55:22Z</time></trkpt><trkpt lat="38.18183840943435" lon="15.704062931789723"><ele>194.0</ele><time>2026-04-11T06:55:23Z</time></trkpt><trkpt lat="38.181722071225224" lon="15.704290284501015"><ele>194.0</ele><time>2026-04-11T06:55:24Z</time></trkpt><trkpt lat="38.181601931244295" lon="15.70451636612807"><ele>189.66666666666669</ele><time>2026-04-11T06:55:25Z</time></trkpt><trkpt lat="38.18152348176506" lon="15.70472251314735"><ele>185.33333333333334</ele><time>2026-04-11T06:55:26Z</time></trkpt><trkpt lat="38.18143170600592" lon="15.704952147793678"><ele>181.0</ele><time>2026-04-11T06:55:27Z</time></trkpt><trkpt lat="38.181353876562646" lon="15.705163144958146"><ele>185.33333333333334</ele><time>2026-04-11T06:55:28Z</time></trkpt><trkpt lat="38.18127573035984" lon="15.705372863974558"><ele>189.66666666666669</ele><time>2026-04-11T06:55:29Z</time></trkpt><trkpt lat="38.18119069910866" lon="15.705586114677187"><ele>194.0</ele><time>2026-04-11T06:55:30Z</time></trkpt><trkpt lat="38.18111532795262" lon="15.705804903918349"><ele>194.0</ele><time>2026-04-11T06:55:31Z</time></trkpt><trkpt lat="38.181035970039986" lon="15.706020823481175"><ele>194.0</ele><time>2026-04-11T06:55:32Z</time></trkpt><trkpt lat="38.18095668056765" lon="15.706238395725883"><ele>194.0</ele><time>2026-04-11T06:55:33Z</time></trkpt><trkpt lat="38.18088538434304" lon="15.706447342485264"><ele>192.0</ele><time>2026-04-11T06:55:34Z</time></trkpt><trkpt lat="38.180819045902176" lon="15.70666414148655"><ele>190.0</ele><time>2026-04-11T06:55:35Z</time></trkpt><trkpt lat="38.180725677226974" lon="15.706883993446166"><ele>188.0</ele><time>2026-04-11T06:55:36Z</time></trkpt><trkpt lat="38.18068515182776" lon="15.707156970666487"><ele>196.0</ele><time>2026-04-11T06:55:37Z</time></trkpt><trkpt lat="38.18063494294781" lon="15.707414583814803"><ele>204.0</ele><time>2026-04-11T06:55:38Z</time></trkpt><trkpt lat="38.18057143254488" lon="15.70772748466463"><ele>205.0</ele><time>2026-04-11T06:55:39Z</time></trkpt><trkpt lat="38.18050924146945" lon="15.70801570120988"><ele>206.0</ele><time>2026-04-11T06:55:40Z</time></trkpt><trkpt lat="38.18043659294575" lon="15.70830929619621"><ele>206.66666666666669</ele><time>2026-04-11T06:55:41Z</time></trkpt><trkpt lat="38.18036755319121" lon="15.70857871441951"><ele>207.33333333333331</ele><time>2026-04-11T06:55:42Z</time></trkpt><trkpt lat="38.1803035744612" lon="15.708817781763624"><ele>208.0</ele><time>2026-04-11T06:55:43Z</time></trkpt><trkpt lat="38.180233001688784" lon="15.709043633302468"><ele>208.0</ele><time>2026-04-11T06:55:44Z</time></trkpt><trkpt lat="38.180153273100544" lon="15.709258614597891"><ele>208.0</ele><time>2026-04-11T06:55:45Z</time></trkpt><trkpt lat="38.18006009034349" lon="15.709458330826143"><ele>208.0</ele><time>2026-04-11T06:55:46Z</time></trkpt><trkpt lat="38.179956997482044" lon="15.709647027005664"><ele>206.33333333333331</ele><time>2026-04-11T06:55:47Z</time></trkpt><trkpt lat="38.17984605697467" lon="15.70982536828386"><ele>204.66666666666669</ele><time>2026-04-11T06:55:48.001Z</time></trkpt><trkpt lat="38.17974053765985" lon="15.710000881396562"><ele>203.0</ele><time>2026-04-11T06:55:49.001Z</time></trkpt><trkpt lat="38.17965083692414" lon="15.710154603383016"><ele>202.4</ele><time>2026-04-11T06:55:50.001Z</time></trkpt><trkpt lat="38.179567765395866" lon="15.710275695662636"><ele>201.8</ele><time>2026-04-11T06:55:51.001Z</time></trkpt><trkpt lat="38.17949757762469" lon="15.710385639172527"><ele>201.2</ele><time>2026-04-11T06:55:52.001Z</time></trkpt><trkpt lat="38.179436135087194" lon="15.710485850567204"><ele>200.6</ele><time>2026-04-11T06:55:53.001Z</time></trkpt><trkpt lat="38.17938578837513" lon="15.71057286603617"><ele>200.0</ele><time>2026-04-11T06:55:54.001Z</time></trkpt><trkpt lat="38.17932371317458" lon="15.710667330735033"><ele>200.00000000000003</ele><time>2026-04-11T06:55:56.001Z</time></trkpt><trkpt lat="38.17931296114609" lon="15.710770365583807"><ele>200.0</ele><time>2026-04-11T06:56:00.001Z</time></trkpt><trkpt lat="38.17937935118248" lon="15.710839546164534"><ele>200.0</ele><time>2026-04-11T06:56:04.001Z</time></trkpt><trkpt lat="38.17945969928548" lon="15.710874105080954"><ele>200.0</ele><time>2026-04-11T06:56:07.001Z</time></trkpt><trkpt lat="38.17953121202" lon="15.710966475171265"><ele>200.00000000000003</ele><time>2026-04-11T06:56:09.001Z</time></trkpt><trkpt lat="38.179583384175174" lon="15.711019881298428"><ele>200.0</ele><time>2026-04-11T06:56:11.001Z</time></trkpt><trkpt lat="38.179642276079015" lon="15.71106150940878"><ele>200.0</ele><time>2026-04-11T06:56:14.001Z</time></trkpt><trkpt lat="38.17969100671234" lon="15.711006075859741"><ele>200.0</ele><time>2026-04-11T06:56:16.001Z</time></trkpt><trkpt lat="38.17971941140053" lon="15.71093240464747"><ele>200.0</ele><time>2026-04-11T06:56:19.001Z</time></trkpt><trkpt lat="38.17974783616652" lon="15.710850535711248"><ele>200.0</ele><time>2026-04-11T06:57:05.001Z</time></trkpt><trkpt lat="38.179861057970044" lon="15.710723138420489"><ele>200.0</ele><time>2026-04-11T06:57:07.001Z</time></trkpt><trkpt lat="38.17994153468486" lon="15.710583177583226"><ele>200.16666666666669</ele><time>2026-04-11T06:57:08.001Z</time></trkpt><trkpt lat="38.18000216308536" lon="15.710484197718813"><ele>200.33333333333334</ele><time>2026-04-11T06:57:09.001Z</time></trkpt><trkpt lat="38.18005810311562" lon="15.710388734449081"><ele>200.5</ele><time>2026-04-11T06:57:10.001Z</time></trkpt><trkpt lat="38.18011033350358" lon="15.71031141893067"><ele>200.66666666666669</ele><time>2026-04-11T06:57:11.001Z</time></trkpt><trkpt lat="38.180174209444736" lon="15.710305382842453"><ele>200.83333333333334</ele><time>2026-04-11T06:57:13.001Z</time></trkpt><trkpt lat="38.180269616104766" lon="15.710349726374679"><ele>201.0</ele><time>2026-04-11T06:57:15.001Z</time></trkpt><trkpt lat="38.18031447953798" lon="15.710451755531436"><ele>201.0</ele><time>2026-04-11T06:57:16.001Z</time></trkpt><trkpt lat="38.18038494777799" lon="15.710511666144845"><ele>201.0</ele><time>2026-04-11T06:57:17.001Z</time></trkpt><trkpt lat="38.1804791362142" lon="15.710579779124258"><ele>201.0</ele><time>2026-04-11T06:57:18.001Z</time></trkpt><trkpt lat="38.180562694653496" lon="15.710713706115422"><ele>201.0</ele><time>2026-04-11T06:57:19.001Z</time></trkpt><trkpt lat="38.18065165810222" lon="15.710831289864322"><ele>202.25</ele><time>2026-04-11T06:57:20.001Z</time></trkpt><trkpt lat="38.18074563297368" lon="15.710944473208729"><ele>203.5</ele><time>2026-04-11T06:57:21.001Z</time></trkpt><trkpt lat="38.18084870643641" lon="15.711064459159497"><ele>204.75</ele><time>2026-04-11T06:57:22.001Z</time></trkpt><trkpt lat="38.18093142198519" lon="15.711173518204157"><ele>206.0</ele><time>2026-04-11T06:57:23.001Z</time></trkpt><trkpt lat="38.181009037467526" lon="15.711262529618995"><ele>208.60000000000002</ele><time>2026-04-11T06:57:24.001Z</time></trkpt><trkpt lat="38.181083102642624" lon="15.711350603672285"><ele>211.2</ele><time>2026-04-11T06:57:25.001Z</time></trkpt><trkpt lat="38.181159840970196" lon="15.711437301670752"><ele>213.79999999999998</ele><time>2026-04-11T06:57:26.001Z</time></trkpt><trkpt lat="38.181227022899115" lon="15.711517205629287"><ele>216.39999999999998</ele><time>2026-04-11T06:57:27.001Z</time></trkpt><trkpt lat="38.181306513968664" lon="15.711612256380638"><ele>219.0</ele><time>2026-04-11T06:57:28.001Z</time></trkpt><trkpt lat="38.18137906354782" lon="15.711715801915558"><ele>219.0</ele><time>2026-04-11T06:57:29.001Z</time></trkpt><trkpt lat="38.18144867998356" lon="15.7118107508933"><ele>218.99999999999997</ele><time>2026-04-11T06:57:30.001Z</time></trkpt><trkpt lat="38.181514315860085" lon="15.711903615973903"><ele>218.99999999999997</ele><time>2026-04-11T06:57:31.001Z</time></trkpt><trkpt lat="38.181583040160845" lon="15.711985755865033"><ele>219.0</ele><time>2026-04-11T06:57:32.001Z</time></trkpt><trkpt lat="38.181680578088226" lon="15.712087462381925"><ele>219.0</ele><time>2026-04-11T06:57:33.001Z</time></trkpt><trkpt lat="38.18179449733238" lon="15.71220816237775"><ele>220.2</ele><time>2026-04-11T06:57:34.001Z</time></trkpt><trkpt lat="38.181882209273" lon="15.71230192473966"><ele>221.39999999999998</ele><time>2026-04-11T06:57:35.001Z</time></trkpt><trkpt lat="38.18195412796143" lon="15.71238670839044"><ele>222.6</ele><time>2026-04-11T06:57:36.001Z</time></trkpt><trkpt lat="38.1820222992388" lon="15.712485512126582"><ele>223.8</ele><time>2026-04-11T06:57:37.001Z</time></trkpt><trkpt lat="38.182085872524" lon="15.71257119690171"><ele>225.0</ele><time>2026-04-11T06:57:38.001Z</time></trkpt><trkpt lat="38.182187451156054" lon="15.712663399863223"><ele>227.33333333333331</ele><time>2026-04-11T06:57:39.001Z</time></trkpt><trkpt lat="38.18231425490703" lon="15.712775053373198"><ele>229.66666666666666</ele><time>2026-04-11T06:57:40.001Z</time></trkpt><trkpt lat="38.18243240366295" lon="15.712891323932748"><ele>232.0</ele><time>2026-04-11T06:57:41.001Z</time></trkpt><trkpt lat="38.18255317878665" lon="15.71302219589928"><ele>232.0</ele><time>2026-04-11T06:57:42.001Z</time></trkpt><trkpt lat="38.18266908250954" lon="15.713137354423488"><ele>232.0</ele><time>2026-04-11T06:57:43.001Z</time></trkpt><trkpt lat="38.18275651661736" lon="15.713238969133698"><ele>232.0</ele><time>2026-04-11T06:57:44.001Z</time></trkpt><trkpt lat="38.182834207438276" lon="15.713321225415056"><ele>232.0</ele><time>2026-04-11T06:57:45.001Z</time></trkpt><trkpt lat="38.18290885296191" lon="15.713389444812261"><ele>232.0</ele><time>2026-04-11T06:57:46.001Z</time></trkpt><trkpt lat="38.182977096047196" lon="15.713430266088869"><ele>232.0</ele><time>2026-04-11T06:57:47.001Z</time></trkpt><trkpt lat="38.183068406038124" lon="15.713494782926093"><ele>232.0</ele><time>2026-04-11T06:57:48.001Z</time></trkpt><trkpt lat="38.18318675554603" lon="15.713587298943327"><ele>232.0</ele><time>2026-04-11T06:57:49.001Z</time></trkpt><trkpt lat="38.18333887908783" lon="15.713663610340777"><ele>236.5</ele><time>2026-04-11T06:57:50.001Z</time></trkpt><trkpt lat="38.18346525541718" lon="15.713732998945781"><ele>241.0</ele><time>2026-04-11T06:57:51.001Z</time></trkpt><trkpt lat="38.18358208752372" lon="15.713812475007266"><ele>245.5</ele><time>2026-04-11T06:57:52.001Z</time></trkpt><trkpt lat="38.18367326834945" lon="15.713896930309408"><ele>250.0</ele><time>2026-04-11T06:57:53.001Z</time></trkpt><trkpt lat="38.18374048213819" lon="15.713973887362641"><ele>250.0</ele><time>2026-04-11T06:57:54.001Z</time></trkpt><trkpt lat="38.183808297606646" lon="15.714070003807116"><ele>250.0</ele><time>2026-04-11T06:57:55.001Z</time></trkpt><trkpt lat="38.18387613712207" lon="15.714195383191258"><ele>250.0</ele><time>2026-04-11T06:57:56.001Z</time></trkpt><trkpt lat="38.183947488389784" lon="15.714354400299834"><ele>250.0</ele><time>2026-04-11T06:57:57.001Z</time></trkpt><trkpt lat="38.18401574975285" lon="15.714530849534762"><ele>253.75</ele><time>2026-04-11T06:57:58.001Z</time></trkpt><trkpt lat="38.18402984397503" lon="15.71467823831936"><ele>257.5</ele><time>2026-04-11T06:57:59.001Z</time></trkpt><trkpt lat="38.18403480588829" lon="15.714811035195442"><ele>261.25</ele><time>2026-04-11T06:58:00.001Z</time></trkpt><trkpt lat="38.18401108198808" lon="15.714938906070614"><ele>265.0</ele><time>2026-04-11T06:58:01.001Z</time></trkpt><trkpt lat="38.183968857719485" lon="15.715099996703355"><ele>266.3333333333333</ele><time>2026-04-11T06:58:02.001Z</time></trkpt><trkpt lat="38.183931646992825" lon="15.715235832132173"><ele>267.66666666666663</ele><time>2026-04-11T06:58:03.001Z</time></trkpt><trkpt lat="38.18391938913227" lon="15.715357671265714"><ele>269.0</ele><time>2026-04-11T06:58:04.001Z</time></trkpt><trkpt lat="38.183898584019694" lon="15.71544381582056"><ele>270.3333333333333</ele><time>2026-04-11T06:58:05.001Z</time></trkpt><trkpt lat="38.183942268720145" lon="15.715509739835175"><ele>271.6666666666667</ele><time>2026-04-11T06:58:06.001Z</time></trkpt><trkpt lat="38.1840092193845" lon="15.715539424153656"><ele>273.0</ele><time>2026-04-11T06:58:07.001Z</time></trkpt><trkpt lat="38.184137401531466" lon="15.715516858725872"><ele>273.0</ele><time>2026-04-11T06:58:08.001Z</time></trkpt><trkpt lat="38.18425154887288" lon="15.715526407704711"><ele>273.0</ele><time>2026-04-11T06:58:09.001Z</time></trkpt><trkpt lat="38.18430884494273" lon="15.715574397295955"><ele>273.0</ele><time>2026-04-11T06:58:10.001Z</time></trkpt><trkpt lat="38.1843333101953" lon="15.715690277711795"><ele>273.0</ele><time>2026-04-11T06:58:11.001Z</time></trkpt><trkpt lat="38.18440170744755" lon="15.71583188958948"><ele>273.0</ele><time>2026-04-11T06:58:12.001Z</time></trkpt><trkpt lat="38.18446662820712" lon="15.71603838406028"><ele>278.0</ele><time>2026-04-11T06:58:13.001Z</time></trkpt><trkpt lat="38.1845132406136" lon="15.716274637493157"><ele>283.0</ele><time>2026-04-11T06:58:14.001Z</time></trkpt><trkpt lat="38.18455221373384" lon="15.716444324311851"><ele>288.0</ele><time>2026-04-11T06:58:15.001Z</time></trkpt><trkpt lat="38.18459377340936" lon="15.716512672384635"><ele>293.0</ele><time>2026-04-11T06:58:16.001Z</time></trkpt><trkpt lat="38.18467690949338" lon="15.716497675295935"><ele>293.0</ele><time>2026-04-11T06:58:18.001Z</time></trkpt><trkpt lat="38.184736201838646" lon="15.71640925428579"><ele>293.0</ele><time>2026-04-11T06:58:19.001Z</time></trkpt><trkpt lat="38.18472260832903" lon="15.716258300488203"><ele>293.0</ele><time>2026-04-11T06:58:20.001Z</time></trkpt><trkpt lat="38.184682462112704" lon="15.716094465171874"><ele>293.0</ele><time>2026-04-11T06:58:21.001Z</time></trkpt><trkpt lat="38.18464270250845" lon="15.715902340288068"><ele>288.0</ele><time>2026-04-11T06:58:22.001Z</time></trkpt><trkpt lat="38.184605861041995" lon="15.715708676575888"><ele>283.0</ele><time>2026-04-11T06:58:23.001Z</time></trkpt><trkpt lat="38.18458624427593" lon="15.715535463443269"><ele>278.0</ele><time>2026-04-11T06:58:24.001Z</time></trkpt><trkpt lat="38.184606778253226" lon="15.715400133352642"><ele>273.0</ele><time>2026-04-11T06:58:25.001Z</time></trkpt><trkpt lat="38.18465450037048" lon="15.71523092268912"><ele>271.4</ele><time>2026-04-11T06:58:26.001Z</time></trkpt><trkpt lat="38.18466241539053" lon="15.715089677580659"><ele>269.8</ele><time>2026-04-11T06:58:27.002Z</time></trkpt><trkpt lat="38.184596556782715" lon="15.714966952464987"><ele>268.2</ele><time>2026-04-11T06:58:28.002Z</time></trkpt><trkpt lat="38.18458685383525" lon="15.714864388044989"><ele>266.6</ele><time>2026-04-11T06:58:29.002Z</time></trkpt><trkpt lat="38.184627689450934" lon="15.71478849748627"><ele>265.0</ele><time>2026-04-11T06:58:30.002Z</time></trkpt><trkpt lat="38.18470297181712" lon="15.714749162966703"><ele>265.0</ele><time>2026-04-11T06:58:31.002Z</time></trkpt><trkpt lat="38.18482685906073" lon="15.71473031651776"><ele>265.0</ele><time>2026-04-11T06:58:32.002Z</time></trkpt><trkpt lat="38.18497940607707" lon="15.714698276647573"><ele>265.0</ele><time>2026-04-11T06:58:33.002Z</time></trkpt><trkpt lat="38.18509577266684" lon="15.714663784485655"><ele>265.0</ele><time>2026-04-11T06:58:34.002Z</time></trkpt><trkpt lat="38.185181947755076" lon="15.714617634104638"><ele>268.3333333333333</ele><time>2026-04-11T06:58:35.002Z</time></trkpt><trkpt lat="38.1852707092395" lon="15.714546524863541"><ele>271.66666666666663</ele><time>2026-04-11T06:58:36.002Z</time></trkpt><trkpt lat="38.18534716369653" lon="15.714485397377855"><ele>275.0</ele><time>2026-04-11T06:58:37.002Z</time></trkpt><trkpt lat="38.185404311985316" lon="15.714442410642"><ele>278.3333333333333</ele><time>2026-04-11T06:58:38.002Z</time></trkpt><trkpt lat="38.18546221429854" lon="15.714397765621564"><ele>281.6666666666667</ele><time>2026-04-11T06:58:39.002Z</time></trkpt><trkpt lat="38.185544027456224" lon="15.714340106744915"><ele>285.0</ele><time>2026-04-11T06:58:41.002Z</time></trkpt><trkpt lat="38.18563150902402" lon="15.71429421444679"><ele>285.0</ele><time>2026-04-11T06:58:43.002Z</time></trkpt><trkpt lat="38.185686464844835" lon="15.71425336535325"><ele>285.0</ele><time>2026-04-11T06:58:44.002Z</time></trkpt><trkpt lat="38.185747605327705" lon="15.714181336690423"><ele>285.0</ele><time>2026-04-11T06:58:46.002Z</time></trkpt><trkpt lat="38.18575974158958" lon="15.714063427511894"><ele>285.0</ele><time>2026-04-11T06:58:57.001Z</time></trkpt><trkpt lat="38.18569706267668" lon="15.713966335279789"><ele>285.0</ele><time>2026-04-11T06:58:58.001Z</time></trkpt><trkpt lat="38.185631852604224" lon="15.713919332258737"><ele>285.0</ele><time>2026-04-11T06:58:59.001Z</time></trkpt><trkpt lat="38.185565466990596" lon="15.713875165416608"><ele>285.0</ele><time>2026-04-11T06:59:00.001Z</time></trkpt><trkpt lat="38.18549944102111" lon="15.713832309251941"><ele>285.0</ele><time>2026-04-11T06:59:02.001Z</time></trkpt><trkpt lat="38.18539716330151" lon="15.713765922814241"><ele>285.0</ele><time>2026-04-11T06:59:04.001Z</time></trkpt><trkpt lat="38.18528272151133" lon="15.71370200940368"><ele>285.0</ele><time>2026-04-11T06:59:06.001Z</time></trkpt><trkpt lat="38.18521966684869" lon="15.713635395656427"><ele>285.0</ele><time>2026-04-11T06:59:07.001Z</time></trkpt><trkpt lat="38.18515241501459" lon="15.713577757881554"><ele>288.2</ele><time>2026-04-11T06:59:08.001Z</time></trkpt><trkpt lat="38.1850791660553" lon="15.713514980006211"><ele>291.4</ele><time>2026-04-11T06:59:09.001Z</time></trkpt><trkpt lat="38.18499804375046" lon="15.71345709206473"><ele>294.6</ele><time>2026-04-11T06:59:10.001Z</time></trkpt><trkpt lat="38.18494075677886" lon="15.713312800220384"><ele>297.8</ele><time>2026-04-11T06:59:11.001Z</time></trkpt><trkpt lat="38.18485785183149" lon="15.713185693935005"><ele>301.0</ele><time>2026-04-11T06:59:12.001Z</time></trkpt><trkpt lat="38.184818926994424" lon="15.71307670831507"><ele>301.0</ele><time>2026-04-11T06:59:13.001Z</time></trkpt><trkpt lat="38.184830086153156" lon="15.712989933644883"><ele>301.0</ele><time>2026-04-11T06:59:14.001Z</time></trkpt><trkpt lat="38.18488020114099" lon="15.712895411442199"><ele>301.0</ele><time>2026-04-11T06:59:15.001Z</time></trkpt><trkpt lat="38.18499939030085" lon="15.712813261716333"><ele>301.0</ele><time>2026-04-11T06:59:16.001Z</time></trkpt><trkpt lat="38.18512061213156" lon="15.712709795149667"><ele>301.0</ele><time>2026-04-11T06:59:17.001Z</time></trkpt><trkpt lat="38.18524597690753" lon="15.712660973423674"><ele>301.2</ele><time>2026-04-11T06:59:18.001Z</time></trkpt><trkpt lat="38.18530432195632" lon="15.712587415674655"><ele>301.40000000000003</ele><time>2026-04-11T06:59:19.001Z</time></trkpt><trkpt lat="38.18532410774729" lon="15.712444864560393"><ele>301.6</ele><time>2026-04-11T06:59:21.001Z</time></trkpt><trkpt lat="38.185281183400036" lon="15.712330896199985"><ele>301.8</ele><time>2026-04-11T06:59:22.001Z</time></trkpt><trkpt lat="38.18524693548831" lon="15.712247691521448"><ele>302.0</ele><time>2026-04-11T06:59:23.001Z</time></trkpt><trkpt lat="38.18518382970188" lon="15.712080184010398"><ele>302.0</ele><time>2026-04-11T06:59:25.001Z</time></trkpt><trkpt lat="38.185121297612284" lon="15.711964259190212"><ele>302.0</ele><time>2026-04-11T06:59:26.001Z</time></trkpt><trkpt lat="38.18511207511205" lon="15.711848171155822"><ele>302.0</ele><time>2026-04-11T06:59:27.001Z</time></trkpt><trkpt lat="38.185082739283374" lon="15.711683332490496"><ele>302.0</ele><time>2026-04-11T06:59:28.001Z</time></trkpt><trkpt lat="38.185033332499245" lon="15.711571190914784"><ele>302.0</ele><time>2026-04-11T06:59:29.001Z</time></trkpt><trkpt lat="38.18493812881629" lon="15.711522968607525"><ele>303.75</ele><time>2026-04-11T06:59:30.001Z</time></trkpt><trkpt lat="38.18482026522853" lon="15.711487886788284"><ele>305.5</ele><time>2026-04-11T06:59:31.001Z</time></trkpt><trkpt lat="38.18468538544174" lon="15.711458741155887"><ele>307.25</ele><time>2026-04-11T06:59:32.001Z</time></trkpt><trkpt lat="38.18456452709174" lon="15.71143258236766"><ele>309.0</ele><time>2026-04-11T06:59:33.001Z</time></trkpt><trkpt lat="38.1844896897688" lon="15.711377852798483"><ele>309.0</ele><time>2026-04-11T06:59:34.001Z</time></trkpt><trkpt lat="38.184395176283566" lon="15.711291356957823"><ele>309.0</ele><time>2026-04-11T06:59:35.001Z</time></trkpt><trkpt lat="38.184321643463896" lon="15.711166856215476"><ele>309.0</ele><time>2026-04-11T06:59:36.001Z</time></trkpt><trkpt lat="38.18421780546332" lon="15.711021544467805"><ele>309.0</ele><time>2026-04-11T06:59:37.001Z</time></trkpt><trkpt lat="38.18409776520621" lon="15.710874057262794"><ele>309.8</ele><time>2026-04-11T06:59:38.001Z</time></trkpt><trkpt lat="38.184012911682615" lon="15.710772960586453"><ele>310.59999999999997</ele><time>2026-04-11T06:59:39.001Z</time></trkpt><trkpt lat="38.18393263936026" lon="15.710666809364254"><ele>311.4</ele><time>2026-04-11T06:59:40.001Z</time></trkpt><trkpt lat="38.183900284990656" lon="15.71054318161301"><ele>312.2</ele><time>2026-04-11T06:59:41.001Z</time></trkpt><trkpt lat="38.18385169342577" lon="15.71043567896451"><ele>313.0</ele><time>2026-04-11T06:59:42.001Z</time></trkpt><trkpt lat="38.18381270026605" lon="15.710350088791193"><ele>313.0</ele><time>2026-04-11T06:59:43.001Z</time></trkpt><trkpt lat="38.18376456136938" lon="15.710270288917936"><ele>313.0</ele><time>2026-04-11T06:59:44.001Z</time></trkpt><trkpt lat="38.18385817130399" lon="15.710197577680635"><ele>313.0</ele><time>2026-04-11T06:59:48.001Z</time></trkpt><trkpt lat="38.18393432069733" lon="15.71016084144899"><ele>313.0</ele><time>2026-04-11T06:59:49.001Z</time></trkpt><trkpt lat="38.18400669109316" lon="15.710130868097467"><ele>313.0</ele><time>2026-04-11T06:59:50.001Z</time></trkpt><trkpt lat="38.18408454771921" lon="15.710115582844413"><ele>313.0</ele><time>2026-04-11T06:59:51.001Z</time></trkpt><trkpt lat="38.184155208583306" lon="15.710116770885616"><ele>316.6</ele><time>2026-04-11T06:59:52.001Z</time></trkpt><trkpt lat="38.18425389082876" lon="15.710138320425298"><ele>320.20000000000005</ele><time>2026-04-11T06:59:53.001Z</time></trkpt><trkpt lat="38.184345040550056" lon="15.710212828411407"><ele>323.8</ele><time>2026-04-11T06:59:54.001Z</time></trkpt><trkpt lat="38.18442594531279" lon="15.71029875226599"><ele>327.40000000000003</ele><time>2026-04-11T06:59:55.001Z</time></trkpt><trkpt lat="38.18450534258355" lon="15.7103512863097"><ele>331.0</ele><time>2026-04-11T06:59:56.001Z</time></trkpt><trkpt lat="38.18459131960352" lon="15.710396015180855"><ele>331.0</ele><time>2026-04-11T06:59:57.001Z</time></trkpt><trkpt lat="38.184706139411425" lon="15.710416629503579"><ele>331.0</ele><time>2026-04-11T06:59:58.001Z</time></trkpt><trkpt lat="38.184837770720875" lon="15.710433229163542"><ele>331.0</ele><time>2026-04-11T06:59:59.001Z</time></trkpt><trkpt lat="38.18496114318882" lon="15.710493943604664"><ele>331.0</ele><time>2026-04-11T07:00:00.001Z</time></trkpt><trkpt lat="38.18510510165125" lon="15.710554128365809"><ele>336.5</ele><time>2026-04-11T07:00:01.001Z</time></trkpt><trkpt lat="38.18526070216813" lon="15.71059603224267"><ele>342.0</ele><time>2026-04-11T07:00:02.001Z</time></trkpt><trkpt lat="38.18538423728384" lon="15.710599948898109"><ele>347.5</ele><time>2026-04-11T07:00:03.001Z</time></trkpt><trkpt lat="38.18550208541261" lon="15.710624560146028"><ele>353.0</ele><time>2026-04-11T07:00:04.001Z</time></trkpt><trkpt lat="38.185599989362665" lon="15.71065634660814"><ele>356.79999999999995</ele><time>2026-04-11T07:00:05.001Z</time></trkpt><trkpt lat="38.185690394865574" lon="15.7107330588432"><ele>360.6</ele><time>2026-04-11T07:00:06.001Z</time></trkpt><trkpt lat="38.18578969975347" lon="15.710812118334008"><ele>364.4</ele><time>2026-04-11T07:00:07.001Z</time></trkpt><trkpt lat="38.1858497637792" lon="15.710861886318371"><ele>368.20000000000005</ele><time>2026-04-11T07:00:08.001Z</time></trkpt><trkpt lat="38.18593453233244" lon="15.710921164907656"><ele>372.0</ele><time>2026-04-11T07:00:10.001Z</time></trkpt><trkpt lat="38.18599179185745" lon="15.710985585405952"><ele>369.0</ele><time>2026-04-11T07:00:11.001Z</time></trkpt><trkpt lat="38.1860387300159" lon="15.71112030083371"><ele>366.0</ele><time>2026-04-11T07:00:12.001Z</time></trkpt><trkpt lat="38.18607872290739" lon="15.71129890993748"><ele>363.0</ele><time>2026-04-11T07:00:13.001Z</time></trkpt><trkpt lat="38.18608475666322" lon="15.71145246512609"><ele>360.0</ele><time>2026-04-11T07:00:14.001Z</time></trkpt><trkpt lat="38.18608803489413" lon="15.711602945880145"><ele>360.0</ele><time>2026-04-11T07:00:15.001Z</time></trkpt><trkpt lat="38.186091130021985" lon="15.711762968821498"><ele>360.0</ele><time>2026-04-11T07:00:16.001Z</time></trkpt><trkpt lat="38.18609002546698" lon="15.711911640859535"><ele>360.0</ele><time>2026-04-11T07:00:17.001Z</time></trkpt><trkpt lat="38.186110567560895" lon="15.712065637879386"><ele>360.0</ele><time>2026-04-11T07:00:18.001Z</time></trkpt><trkpt lat="38.186164981479145" lon="15.712234244985758"><ele>357.25</ele><time>2026-04-11T07:00:19.001Z</time></trkpt><trkpt lat="38.18623478852255" lon="15.712407801000115"><ele>354.5</ele><time>2026-04-11T07:00:20.001Z</time></trkpt><trkpt lat="38.18632275217468" lon="15.712569901837815"><ele>351.75</ele><time>2026-04-11T07:00:21.001Z</time></trkpt><trkpt lat="38.186402149379084" lon="15.712704824261376"><ele>349.0</ele><time>2026-04-11T07:00:22.001Z</time></trkpt><trkpt lat="38.186444220990744" lon="15.712850056905818"><ele>346.0</ele><time>2026-04-11T07:00:23.001Z</time></trkpt><trkpt lat="38.18648501022932" lon="15.713010076762664"><ele>343.0</ele><time>2026-04-11T07:00:24.001Z</time></trkpt><trkpt lat="38.1865643963566" lon="15.713149788831632"><ele>340.0</ele><time>2026-04-11T07:00:25.001Z</time></trkpt><trkpt lat="38.18662844747231" lon="15.71326003143801"><ele>337.0</ele><time>2026-04-11T07:00:26.001Z</time></trkpt><trkpt lat="38.18674770614666" lon="15.713394361485815"><ele>343.66666666666663</ele><time>2026-04-11T07:00:27.001Z</time></trkpt><trkpt lat="38.186834705652046" lon="15.71354756661307"><ele>350.3333333333333</ele><time>2026-04-11T07:00:28.001Z</time></trkpt><trkpt lat="38.186900442314425" lon="15.713719217322582"><ele>357.0</ele><time>2026-04-11T07:00:29.001Z</time></trkpt><trkpt lat="38.18695354776278" lon="15.713911675360857"><ele>357.0</ele><time>2026-04-11T07:00:30.001Z</time></trkpt><trkpt lat="38.18699658549073" lon="15.71410957420627"><ele>357.0</ele><time>2026-04-11T07:00:31.001Z</time></trkpt><trkpt lat="38.187034609968265" lon="15.71428796471032"><ele>357.0</ele><time>2026-04-11T07:00:32.001Z</time></trkpt><trkpt lat="38.18705599786788" lon="15.714457476218001"><ele>357.0</ele><time>2026-04-11T07:00:33.001Z</time></trkpt><trkpt lat="38.18704996751118" lon="15.714639814934213"><ele>359.6666666666667</ele><time>2026-04-11T07:00:34.001Z</time></trkpt><trkpt lat="38.18702521286091" lon="15.714860723301802"><ele>362.33333333333337</ele><time>2026-04-11T07:00:35.001Z</time></trkpt><trkpt lat="38.18699250509305" lon="15.715101448401702"><ele>365.0</ele><time>2026-04-11T07:00:36.001Z</time></trkpt><trkpt lat="38.18696845769953" lon="15.715320576567628"><ele>367.33333333333337</ele><time>2026-04-11T07:00:37.001Z</time></trkpt><trkpt lat="38.18694018526184" lon="15.715545960052095"><ele>369.6666666666667</ele><time>2026-04-11T07:00:38.002Z</time></trkpt><trkpt lat="38.18690804759089" lon="15.715786569399985"><ele>372.0</ele><time>2026-04-11T07:00:39.002Z</time></trkpt><trkpt lat="38.186876741862605" lon="15.716013134491988"><ele>371.3333333333333</ele><time>2026-04-11T07:00:40.002Z</time></trkpt><trkpt lat="38.18688062784533" lon="15.716223546169749"><ele>370.66666666666663</ele><time>2026-04-11T07:00:41.002Z</time></trkpt><trkpt lat="38.18687945168595" lon="15.716437914148507"><ele>370.0</ele><time>2026-04-11T07:00:42.002Z</time></trkpt><trkpt lat="38.18685704638674" lon="15.716674621188323"><ele>371.3333333333333</ele><time>2026-04-11T07:00:43.002Z</time></trkpt><trkpt lat="38.18681209144849" lon="15.716943796338326"><ele>372.6666666666667</ele><time>2026-04-11T07:00:44.002Z</time></trkpt><trkpt lat="38.186758657550506" lon="15.717219209519362"><ele>374.0</ele><time>2026-04-11T07:00:45.002Z</time></trkpt><trkpt lat="38.18670372027902" lon="15.717458162594994"><ele>374.0</ele><time>2026-04-11T07:00:46.002Z</time></trkpt><trkpt lat="38.18665405472398" lon="15.717656159299896"><ele>374.0</ele><time>2026-04-11T07:00:47.002Z</time></trkpt><trkpt lat="38.18660715850929" lon="15.717829258538176"><ele>374.0</ele><time>2026-04-11T07:00:48.002Z</time></trkpt><trkpt lat="38.18656517273834" lon="15.7179678874789"><ele>374.0</ele><time>2026-04-11T07:00:49.002Z</time></trkpt><trkpt lat="38.186546643629114" lon="15.718098119456442"><ele>377.25</ele><time>2026-04-11T07:00:50.002Z</time></trkpt><trkpt lat="38.18655213436536" lon="15.718263124794458"><ele>380.5</ele><time>2026-04-11T07:00:51.002Z</time></trkpt><trkpt lat="38.186562959765425" lon="15.718414225132927"><ele>383.75</ele><time>2026-04-11T07:00:52.002Z</time></trkpt><trkpt lat="38.186533991922985" lon="15.718550864913075"><ele>387.0</ele><time>2026-04-11T07:00:53.002Z</time></trkpt><trkpt lat="38.186482005735414" lon="15.718669681511436"><ele>390.8</ele><time>2026-04-11T07:00:54.002Z</time></trkpt><trkpt lat="38.186418306032174" lon="15.718722917297391"><ele>394.6</ele><time>2026-04-11T07:00:55.002Z</time></trkpt><trkpt lat="38.186330377729114" lon="15.71876623039397"><ele>398.40000000000003</ele><time>2026-04-11T07:00:56.002Z</time></trkpt><trkpt lat="38.18623371788054" lon="15.71881905058152"><ele>402.20000000000005</ele><time>2026-04-11T07:00:57.002Z</time></trkpt><trkpt lat="38.18613292300047" lon="15.718879380569133"><ele>406.0</ele><time>2026-04-11T07:00:58.002Z</time></trkpt><trkpt lat="38.186014117348094" lon="15.718950307071868"><ele>406.0</ele><time>2026-04-11T07:00:59.002Z</time></trkpt><trkpt lat="38.18590922623698" lon="15.719023627498784"><ele>406.0</ele><time>2026-04-11T07:01:00.002Z</time></trkpt><trkpt lat="38.18579773770214" lon="15.719103439965759"><ele>406.0</ele><time>2026-04-11T07:01:01.002Z</time></trkpt><trkpt lat="38.1856827451443" lon="15.719158920302409"><ele>406.0</ele><time>2026-04-11T07:01:02.002Z</time></trkpt><trkpt lat="38.18557597458363" lon="15.719201357017006"><ele>402.20000000000005</ele><time>2026-04-11T07:01:03.001Z</time></trkpt><trkpt lat="38.18549973099166" lon="15.719258319975076"><ele>398.40000000000003</ele><time>2026-04-11T07:01:04.001Z</time></trkpt><trkpt lat="38.185467788933316" lon="15.719340158321218"><ele>394.6</ele><time>2026-04-11T07:01:05.001Z</time></trkpt><trkpt lat="38.18539789331329" lon="15.719425836199902"><ele>390.8</ele><time>2026-04-11T07:01:06.001Z</time></trkpt><trkpt lat="38.185348929563894" lon="15.719507383063355"><ele>387.0</ele><time>2026-04-11T07:01:07.001Z</time></trkpt><trkpt lat="38.18525429253027" lon="15.719605207849527"><ele>397.5</ele><time>2026-04-11T07:01:08.001Z</time></trkpt><trkpt lat="38.18512948255403" lon="15.71966029465844"><ele>408.0</ele><time>2026-04-11T07:01:09.001Z</time></trkpt><trkpt lat="38.18499693346223" lon="15.71969938306026"><ele>418.5</ele><time>2026-04-11T07:01:10.001Z</time></trkpt><trkpt lat="38.18484861584818" lon="15.719765798565936"><ele>429.0</ele><time>2026-04-11T07:01:11.001Z</time></trkpt><trkpt lat="38.18466011078666" lon="15.71978981183267"><ele>429.0</ele><time>2026-04-11T07:01:12.001Z</time></trkpt><trkpt lat="38.18450540628224" lon="15.719810854050966"><ele>429.0</ele><time>2026-04-11T07:01:13.001Z</time></trkpt><trkpt lat="38.184360566341006" lon="15.719790168099426"><ele>429.0</ele><time>2026-04-11T07:01:14.001Z</time></trkpt><trkpt lat="38.1842573337337" lon="15.719755511215306"><ele>429.0</ele><time>2026-04-11T07:01:15.001Z</time></trkpt><trkpt lat="38.18417814164245" lon="15.719788245984347"><ele>429.0</ele><time>2026-04-11T07:01:17.001Z</time></trkpt><trkpt lat="38.184186158455624" lon="15.719911394145827"><ele>429.0</ele><time>2026-04-11T07:01:19.001Z</time></trkpt><trkpt lat="38.184275296937805" lon="15.7199546198811"><ele>429.0</ele><time>2026-04-11T07:01:21.001Z</time></trkpt><trkpt lat="38.18434235997072" lon="15.719971948727862"><ele>429.0</ele><time>2026-04-11T07:01:23.001Z</time></trkpt><trkpt lat="38.18442713671813" lon="15.719995739399979"><ele>429.0</ele><time>2026-04-11T07:01:25.001Z</time></trkpt><trkpt lat="38.18449722978656" lon="15.72001366501117"><ele>429.0</ele><time>2026-04-11T07:01:27.001Z</time></trkpt><trkpt lat="38.18456535759588" lon="15.720034134928856"><ele>429.0</ele><time>2026-04-11T07:01:48.001Z</time></trkpt><trkpt lat="38.18464284478411" lon="15.720056765559153"><ele>429.0</ele><time>2026-04-11T07:03:15.001Z</time></trkpt><trkpt lat="38.18479947331221" lon="15.7200670744995"><ele>429.0</ele><time>2026-04-11T07:03:17.001Z</time></trkpt><trkpt lat="38.18493036034709" lon="15.720058108363157"><ele>429.0</ele><time>2026-04-11T07:03:18.001Z</time></trkpt><trkpt lat="38.18507056254501" lon="15.720025755985281"><ele>429.0</ele><time>2026-04-11T07:03:19.001Z</time></trkpt><trkpt lat="38.185215507797075" lon="15.719990221103895"><ele>429.0</ele><time>2026-04-11T07:03:20.001Z</time></trkpt><trkpt lat="38.18535991030091" lon="15.7199437478114"><ele>429.0</ele><time>2026-04-11T07:03:21.001Z</time></trkpt><trkpt lat="38.185502542448546" lon="15.719896017326441"><ele>429.0</ele><time>2026-04-11T07:03:22.001Z</time></trkpt><trkpt lat="38.185628384726115" lon="15.719818607807417"><ele>434.0</ele><time>2026-04-11T07:03:23.001Z</time></trkpt><trkpt lat="38.185743143068734" lon="15.719690722453315"><ele>439.0</ele><time>2026-04-11T07:03:24.001Z</time></trkpt><trkpt lat="38.185822336298514" lon="15.719586631872755"><ele>444.0</ele><time>2026-04-11T07:03:25.001Z</time></trkpt><trkpt lat="38.18590229308386" lon="15.719545307536428"><ele>449.0</ele><time>2026-04-11T07:03:26.001Z</time></trkpt><trkpt lat="38.18602722117739" lon="15.719541027765015"><ele>449.0</ele><time>2026-04-11T07:03:27.001Z</time></trkpt><trkpt lat="38.186181207407216" lon="15.719531785997905"><ele>449.0</ele><time>2026-04-11T07:03:28.001Z</time></trkpt><trkpt lat="38.18633013276079" lon="15.719509976846151"><ele>449.0</ele><time>2026-04-11T07:03:29.001Z</time></trkpt><trkpt lat="38.18647365957098" lon="15.719494138506803"><ele>449.0</ele><time>2026-04-11T07:03:30.001Z</time></trkpt><trkpt lat="38.1865976598215" lon="15.719470527016323"><ele>451.0</ele><time>2026-04-11T07:03:31.001Z</time></trkpt><trkpt lat="38.18668282072643" lon="15.719468038239711"><ele>453.0</ele><time>2026-04-11T07:03:32.001Z</time></trkpt><trkpt lat="38.18676854624104" lon="15.719513456360232"><ele>455.0</ele><time>2026-04-11T07:03:33.001Z</time></trkpt><trkpt lat="38.18686344314433" lon="15.719625205315582"><ele>457.0</ele><time>2026-04-11T07:03:34.001Z</time></trkpt><trkpt lat="38.186960890048105" lon="15.719749008131306"><ele>459.0</ele><time>2026-04-11T07:03:35.001Z</time></trkpt><trkpt lat="38.18704143308108" lon="15.719850534521482"><ele>459.0</ele><time>2026-04-11T07:03:36.001Z</time></trkpt><trkpt lat="38.18710805733653" lon="15.719970008038025"><ele>459.0</ele><time>2026-04-11T07:03:37.001Z</time></trkpt><trkpt lat="38.18714638101514" lon="15.720108017112997"><ele>459.0</ele><time>2026-04-11T07:03:38.001Z</time></trkpt><trkpt lat="38.18718138126663" lon="15.720271739662675"><ele>459.0</ele><time>2026-04-11T07:03:39.001Z</time></trkpt><trkpt lat="38.187195243310356" lon="15.72042385059509"><ele>466.0</ele><time>2026-04-11T07:03:40.001Z</time></trkpt><trkpt lat="38.18721507986741" lon="15.720588973370717"><ele>473.0</ele><time>2026-04-11T07:03:41.001Z</time></trkpt><trkpt lat="38.18719242721547" lon="15.720775039468146"><ele>480.0</ele><time>2026-04-11T07:03:42.001Z</time></trkpt><trkpt lat="38.18715720702376" lon="15.720916511556482"><ele>487.0</ele><time>2026-04-11T07:03:43.001Z</time></trkpt><trkpt lat="38.18710903240568" lon="15.72106104176212"><ele>484.8</ele><time>2026-04-11T07:03:44.001Z</time></trkpt><trkpt lat="38.18705504952954" lon="15.72119500292438"><ele>482.6</ele><time>2026-04-11T07:03:45.001Z</time></trkpt><trkpt lat="38.18699790682228" lon="15.721301161059793"><ele>480.40000000000003</ele><time>2026-04-11T07:03:46.001Z</time></trkpt><trkpt lat="38.18693001105051" lon="15.721395686495738"><ele>478.20000000000005</ele><time>2026-04-11T07:03:47.001Z</time></trkpt><trkpt lat="38.18686575798628" lon="15.721503514614596"><ele>476.0</ele><time>2026-04-11T07:03:48.001Z</time></trkpt><trkpt lat="38.186784444754664" lon="15.721641312839058"><ele>476.0</ele><time>2026-04-11T07:03:49.001Z</time></trkpt><trkpt lat="38.18669182582678" lon="15.721800871537376"><ele>476.0</ele><time>2026-04-11T07:03:50.001Z</time></trkpt><trkpt lat="38.186566965655736" lon="15.721985992760855"><ele>476.0</ele><time>2026-04-11T07:03:51.001Z</time></trkpt><trkpt lat="38.18644641931401" lon="15.722168443598392"><ele>480.25</ele><time>2026-04-11T07:03:52.001Z</time></trkpt><trkpt lat="38.18634927301139" lon="15.722314371494294"><ele>484.5</ele><time>2026-04-11T07:03:53.001Z</time></trkpt><trkpt lat="38.186258284068224" lon="15.72244865023917"><ele>488.75</ele><time>2026-04-11T07:03:54.001Z</time></trkpt><trkpt lat="38.1861928316074" lon="15.722561464773074"><ele>493.0</ele><time>2026-04-11T07:03:55.001Z</time></trkpt><trkpt lat="38.18614620839394" lon="15.72265389014318"><ele>491.2</ele><time>2026-04-11T07:03:56.001Z</time></trkpt><trkpt lat="38.186063514131654" lon="15.722770780220415"><ele>489.4</ele><time>2026-04-11T07:03:58.001Z</time></trkpt><trkpt lat="38.18604029164249" lon="15.722848686865332"><ele>487.59999999999997</ele><time>2026-04-11T07:04:01.001Z</time></trkpt><trkpt lat="38.18608716245426" lon="15.722940517347942"><ele>485.79999999999995</ele><time>2026-04-11T07:04:19.001Z</time></trkpt><trkpt lat="38.18611934321091" lon="15.72304792947512"><ele>484.0</ele><time>2026-04-11T07:04:20.001Z</time></trkpt><trkpt lat="38.18616410383511" lon="15.723182120777205"><ele>484.0</ele><time>2026-04-11T07:04:21.001Z</time></trkpt><trkpt lat="38.186215565823865" lon="15.723321564038569"><ele>484.0</ele><time>2026-04-11T07:04:22.001Z</time></trkpt><trkpt lat="38.186268617692136" lon="15.723459315549196"><ele>484.0</ele><time>2026-04-11T07:04:23.001Z</time></trkpt><trkpt lat="38.18628518468667" lon="15.723545544774513"><ele>484.0</ele><time>2026-04-11T07:04:24.001Z</time></trkpt><trkpt lat="38.18624256123636" lon="15.723701961947048"><ele>484.0</ele><time>2026-04-11T07:04:26.001Z</time></trkpt><trkpt lat="38.18617508011902" lon="15.723824668319002"><ele>485.00000000000006</ele><time>2026-04-11T07:04:27.001Z</time></trkpt><trkpt lat="38.18610103449025" lon="15.723934147310953"><ele>486.0</ele><time>2026-04-11T07:04:28.001Z</time></trkpt><trkpt lat="38.186055270664646" lon="15.72399908075115"><ele>487.0</ele><time>2026-04-11T07:04:29.001Z</time></trkpt><trkpt lat="38.18604826486469" lon="15.724084582804432"><ele>488.0</ele><time>2026-04-11T07:04:34.001Z</time></trkpt><trkpt lat="38.18610622520365" lon="15.723986595725684"><ele>489.00000000000006</ele><time>2026-04-11T07:13:28Z</time></trkpt><trkpt lat="38.186130163096806" lon="15.723869490530834"><ele>490.0</ele><time>2026-04-11T07:13:29Z</time></trkpt><trkpt lat="38.1861989051315" lon="15.723854626942108"><ele>490.0</ele><time>2026-04-11T07:13:30Z</time></trkpt><trkpt lat="38.18624730924686" lon="15.723774555924717"><ele>490.0</ele><time>2026-04-11T07:13:31Z</time></trkpt><trkpt lat="38.18630598556932" lon="15.723742091617648"><ele>490.0</ele><time>2026-04-11T07:13:33Z</time></trkpt><trkpt lat="38.186428788207046" lon="15.723777177515792"><ele>490.0</ele><time>2026-04-11T07:13:35Z</time></trkpt><trkpt lat="38.186487236233766" lon="15.723870578351187"><ele>490.0</ele><time>2026-04-11T07:13:36Z</time></trkpt><trkpt lat="38.18657484963044" lon="15.723881407587244"><ele>489.33333333333337</ele><time>2026-04-11T07:13:37Z</time></trkpt><trkpt lat="38.18664990440866" lon="15.723855830705618"><ele>488.6666666666667</ele><time>2026-04-11T07:13:38Z</time></trkpt><trkpt lat="38.186709658429365" lon="15.723785185428628"><ele>488.0</ele><time>2026-04-11T07:13:39Z</time></trkpt><trkpt lat="38.18675739267506" lon="15.723678246340384"><ele>487.33333333333337</ele><time>2026-04-11T07:13:40Z</time></trkpt><trkpt lat="38.18682271887348" lon="15.723590932651792"><ele>486.6666666666667</ele><time>2026-04-11T07:13:41Z</time></trkpt><trkpt lat="38.18688759389594" lon="15.723505916515297"><ele>486.0</ele><time>2026-04-11T07:13:42Z</time></trkpt><trkpt lat="38.1869674130314" lon="15.723411955430624"><ele>486.0</ele><time>2026-04-11T07:13:43Z</time></trkpt><trkpt lat="38.1870431086956" lon="15.723301380227937"><ele>486.0</ele><time>2026-04-11T07:13:44Z</time></trkpt><trkpt lat="38.18708564263226" lon="15.723241693216414"><ele>486.0</ele><time>2026-04-11T07:13:45Z</time></trkpt><trkpt lat="38.18716743830562" lon="15.723207430984209"><ele>486.0</ele><time>2026-04-11T07:13:47Z</time></trkpt><trkpt lat="38.18721587421937" lon="15.723345286899711"><ele>486.0</ele><time>2026-04-11T07:13:50Z</time></trkpt><trkpt lat="38.18718939084577" lon="15.72341919203214"><ele>486.0</ele><time>2026-04-11T07:13:51Z</time></trkpt><trkpt lat="38.187119907899955" lon="15.723525838048324"><ele>491.0</ele><time>2026-04-11T07:13:52Z</time></trkpt><trkpt lat="38.187056415862834" lon="15.723643957653435"><ele>496.0</ele><time>2026-04-11T07:13:53Z</time></trkpt><trkpt lat="38.18695104754448" lon="15.723778415254795"><ele>501.0</ele><time>2026-04-11T07:13:54Z</time></trkpt><trkpt lat="38.186855538333134" lon="15.723923993572091"><ele>506.0</ele><time>2026-04-11T07:13:55Z</time></trkpt><trkpt lat="38.18678895344931" lon="15.724058349999188"><ele>506.0</ele><time>2026-04-11T07:13:56Z</time></trkpt><trkpt lat="38.1867526785188" lon="15.724197158430027"><ele>506.0</ele><time>2026-04-11T07:13:57Z</time></trkpt><trkpt lat="38.1867061016863" lon="15.724327533611056"><ele>506.0</ele><time>2026-04-11T07:13:58Z</time></trkpt><trkpt lat="38.186652843864685" lon="15.724462107044916"><ele>506.0</ele><time>2026-04-11T07:13:59Z</time></trkpt><trkpt lat="38.186574622622075" lon="15.724604496314255"><ele>503.75</ele><time>2026-04-11T07:14:00Z</time></trkpt><trkpt lat="38.18648019778632" lon="15.72473320333666"><ele>501.5</ele><time>2026-04-11T07:14:01Z</time></trkpt><trkpt lat="38.18640550255587" lon="15.724864812990786"><ele>499.25</ele><time>2026-04-11T07:14:02Z</time></trkpt><trkpt lat="38.186351155448506" lon="15.724984876946463"><ele>497.0</ele><time>2026-04-11T07:14:03Z</time></trkpt><trkpt lat="38.18632818393261" lon="15.725139218411213"><ele>497.75</ele><time>2026-04-11T07:14:04Z</time></trkpt><trkpt lat="38.186307553211535" lon="15.725327138905678"><ele>498.5</ele><time>2026-04-11T07:14:05Z</time></trkpt><trkpt lat="38.1862658628439" lon="15.725511943653466"><ele>499.25</ele><time>2026-04-11T07:14:06Z</time></trkpt><trkpt lat="38.1862522989574" lon="15.725669197883544"><ele>500.0</ele><time>2026-04-11T07:14:07Z</time></trkpt><trkpt lat="38.18621525521748" lon="15.725805757123362"><ele>499.99999999999994</ele><time>2026-04-11T07:14:08Z</time></trkpt><trkpt lat="38.18618605713621" lon="15.725930151471957"><ele>500.0</ele><time>2026-04-11T07:14:09Z</time></trkpt><trkpt lat="38.186183675150836" lon="15.72603910466814"><ele>500.0</ele><time>2026-04-11T07:14:10Z</time></trkpt><trkpt lat="38.18620739028674" lon="15.72614331229385"><ele>500.0</ele><time>2026-04-11T07:14:11Z</time></trkpt><trkpt lat="38.18624672273308" lon="15.726234938975148"><ele>499.99999999999994</ele><time>2026-04-11T07:14:12Z</time></trkpt><trkpt lat="38.18630212693098" lon="15.726287545180526"><ele>500.0</ele><time>2026-04-11T07:14:13Z</time></trkpt><trkpt lat="38.18638511317532" lon="15.72632139704205"><ele>498.8</ele><time>2026-04-11T07:14:14Z</time></trkpt><trkpt lat="38.1864800699452" lon="15.726241195004834"><ele>497.6</ele><time>2026-04-11T07:14:15Z</time></trkpt><trkpt lat="38.18653557346964" lon="15.726170330086479"><ele>496.4</ele><time>2026-04-11T07:14:16Z</time></trkpt><trkpt lat="38.1866036604548" lon="15.726058169915234"><ele>495.2</ele><time>2026-04-11T07:14:17Z</time></trkpt><trkpt lat="38.1866946301955" lon="15.725933825628578"><ele>494.0</ele><time>2026-04-11T07:14:18Z</time></trkpt><trkpt lat="38.1867608145078" lon="15.72583996638105"><ele>503.25</ele><time>2026-04-11T07:14:19Z</time></trkpt><trkpt lat="38.18684842553677" lon="15.725755752795656"><ele>512.5</ele><time>2026-04-11T07:14:21Z</time></trkpt><trkpt lat="38.18691156440787" lon="15.725652516856748"><ele>521.75</ele><time>2026-04-11T07:14:22Z</time></trkpt><trkpt lat="38.186996726055696" lon="15.725606881087892"><ele>531.0</ele><time>2026-04-11T07:14:23Z</time></trkpt><trkpt lat="38.18708702276684" lon="15.725961083162264"><ele>527.75</ele><time>2026-04-11T07:14:24Z</time></trkpt><trkpt lat="38.187170895142806" lon="15.726077201102699"><ele>524.5</ele><time>2026-04-11T07:14:25Z</time></trkpt><trkpt lat="38.187252641988" lon="15.72621693262894"><ele>521.25</ele><time>2026-04-11T07:14:26Z</time></trkpt><trkpt lat="38.18731938816326" lon="15.726372381417551"><ele>518.0</ele><time>2026-04-11T07:14:27Z</time></trkpt><trkpt lat="38.187374108238586" lon="15.726519388831347"><ele>521.8</ele><time>2026-04-11T07:14:28Z</time></trkpt><trkpt lat="38.18741664202663" lon="15.72663796247733"><ele>525.5999999999999</ele><time>2026-04-11T07:14:29Z</time></trkpt><trkpt lat="38.18745240034049" lon="15.726740343670338"><ele>529.4000000000001</ele><time>2026-04-11T07:14:30Z</time></trkpt><trkpt lat="38.18748492067448" lon="15.726855107760391"><ele>533.2</ele><time>2026-04-11T07:14:31Z</time></trkpt><trkpt lat="38.187473523124176" lon="15.726995386595814"><ele>537.0</ele><time>2026-04-11T07:14:32Z</time></trkpt><trkpt lat="38.18743386073838" lon="15.727140492903406"><ele>537.0</ele><time>2026-04-11T07:14:33Z</time></trkpt><trkpt lat="38.187433881903196" lon="15.727266950056022"><ele>537.0</ele><time>2026-04-11T07:14:34Z</time></trkpt><trkpt lat="38.187465738068866" lon="15.727378537185928"><ele>537.0</ele><time>2026-04-11T07:14:35Z</time></trkpt><trkpt lat="38.18754647181211" lon="15.727468063813195"><ele>537.0</ele><time>2026-04-11T07:14:36Z</time></trkpt><trkpt lat="38.18760959104417" lon="15.727582165646657"><ele>537.0</ele><time>2026-04-11T07:14:37Z</time></trkpt><trkpt lat="38.18769026210794" lon="15.727694009677549"><ele>532.25</ele><time>2026-04-11T07:14:38Z</time></trkpt><trkpt lat="38.18778075866414" lon="15.727819555457149"><ele>527.5</ele><time>2026-04-11T07:14:39Z</time></trkpt><trkpt lat="38.187862753600626" lon="15.727939154136774"><ele>522.75</ele><time>2026-04-11T07:14:40Z</time></trkpt><trkpt lat="38.18795057450772" lon="15.728040673132007"><ele>518.0</ele><time>2026-04-11T07:14:41Z</time></trkpt><trkpt lat="38.18802514506321" lon="15.728148608520213"><ele>518.0</ele><time>2026-04-11T07:14:42Z</time></trkpt><trkpt lat="38.18812553636582" lon="15.72820162957646"><ele>518.0</ele><time>2026-04-11T07:14:43Z</time></trkpt><trkpt lat="38.18820433847956" lon="15.728265875284498"><ele>518.0</ele><time>2026-04-11T07:14:44Z</time></trkpt><trkpt lat="38.188263762093115" lon="15.728315337492985"><ele>518.0</ele><time>2026-04-11T07:14:45Z</time></trkpt><trkpt lat="38.188317640998314" lon="15.728362739740174"><ele>518.0</ele><time>2026-04-11T07:14:46Z</time></trkpt><trkpt lat="38.1883410802476" lon="15.7284647160583"><ele>518.0</ele><time>2026-04-11T07:14:47Z</time></trkpt><trkpt lat="38.18833828943909" lon="15.728603660614805"><ele>523.6</ele><time>2026-04-11T07:14:48Z</time></trkpt><trkpt lat="38.18837714066241" lon="15.728737540254947"><ele>529.1999999999999</ele><time>2026-04-11T07:14:49Z</time></trkpt><trkpt lat="38.188397210406364" lon="15.728840809640698"><ele>534.8</ele><time>2026-04-11T07:14:50Z</time></trkpt><trkpt lat="38.18848153795334" lon="15.72891656911736"><ele>540.4</ele><time>2026-04-11T07:14:51Z</time></trkpt><trkpt lat="38.1885739308384" lon="15.728991720306864"><ele>546.0</ele><time>2026-04-11T07:14:52Z</time></trkpt><trkpt lat="38.18864897636391" lon="15.729060805944524"><ele>546.0</ele><time>2026-04-11T07:14:53Z</time></trkpt><trkpt lat="38.188776247403965" lon="15.729120772875326"><ele>546.0</ele><time>2026-04-11T07:14:54Z</time></trkpt><trkpt lat="38.18887317154154" lon="15.729168128116699"><ele>546.0</ele><time>2026-04-11T07:14:55Z</time></trkpt><trkpt lat="38.18894162693739" lon="15.729184306137123"><ele>546.0</ele><time>2026-04-11T07:14:56Z</time></trkpt><trkpt lat="38.18902500205236" lon="15.729204135645855"><ele>546.0</ele><time>2026-04-11T07:14:58Z</time></trkpt><trkpt lat="38.1890561209645" lon="15.72936639840201"><ele>545.8333333333334</ele><time>2026-04-11T07:15:01Z</time></trkpt><trkpt lat="38.18904648564683" lon="15.729450650006937"><ele>545.6666666666666</ele><time>2026-04-11T07:15:02Z</time></trkpt><trkpt lat="38.18903398585098" lon="15.729541130640898"><ele>545.5</ele><time>2026-04-11T07:15:03Z</time></trkpt><trkpt lat="38.18901797365309" lon="15.729704655503667"><ele>545.3333333333333</ele><time>2026-04-11T07:15:05Z</time></trkpt><trkpt lat="38.18900709567464" lon="15.729804652807111"><ele>545.1666666666666</ele><time>2026-04-11T07:15:06Z</time></trkpt><trkpt lat="38.18898928064047" lon="15.729894784009634"><ele>545.0</ele><time>2026-04-11T07:15:07Z</time></trkpt><trkpt lat="38.188958387772615" lon="15.729986584861612"><ele>543.1666666666666</ele><time>2026-04-11T07:15:08Z</time></trkpt><trkpt lat="38.18889742944447" lon="15.730082847202294"><ele>541.3333333333333</ele><time>2026-04-11T07:15:09Z</time></trkpt><trkpt lat="38.188834843128376" lon="15.730182099254687"><ele>539.5</ele><time>2026-04-11T07:15:10Z</time></trkpt><trkpt lat="38.18880152993978" lon="15.730277433846355"><ele>537.6666666666666</ele><time>2026-04-11T07:15:11Z</time></trkpt><trkpt lat="38.1887965078389" lon="15.730370789344251"><ele>535.8333333333334</ele><time>2026-04-11T07:15:12Z</time></trkpt><trkpt lat="38.188819442296456" lon="15.730478538218453"><ele>534.0</ele><time>2026-04-11T07:15:13Z</time></trkpt><trkpt lat="38.188865160079835" lon="15.730585106899587"><ele>538.5</ele><time>2026-04-11T07:15:14Z</time></trkpt><trkpt lat="38.18893743543859" lon="15.730661904700703"><ele>543.0</ele><time>2026-04-11T07:15:15Z</time></trkpt><trkpt lat="38.18903260957716" lon="15.730697381108532"><ele>547.5</ele><time>2026-04-11T07:15:16Z</time></trkpt><trkpt lat="38.18915668721631" lon="15.73071581006316"><ele>552.0</ele><time>2026-04-11T07:15:17Z</time></trkpt><trkpt lat="38.18929758407433" lon="15.730727201847806"><ele>552.0</ele><time>2026-04-11T07:15:18Z</time></trkpt><trkpt lat="38.18944590329754" lon="15.730754015021532"><ele>552.0</ele><time>2026-04-11T07:15:19Z</time></trkpt><trkpt lat="38.18957675234316" lon="15.730765279877861"><ele>552.0</ele><time>2026-04-11T07:15:20Z</time></trkpt><trkpt lat="38.18970854186045" lon="15.730774461934505"><ele>552.0</ele><time>2026-04-11T07:15:21Z</time></trkpt><trkpt lat="38.189852615615976" lon="15.730784327187688"><ele>553.5</ele><time>2026-04-11T07:15:22Z</time></trkpt><trkpt lat="38.19001275122067" lon="15.730797072945913"><ele>555.0</ele><time>2026-04-11T07:15:23Z</time></trkpt><trkpt lat="38.19014271367329" lon="15.730806654583033"><ele>556.5</ele><time>2026-04-11T07:15:24Z</time></trkpt><trkpt lat="38.19025324134408" lon="15.730798452082775"><ele>558.0</ele><time>2026-04-11T07:15:25Z</time></trkpt><trkpt lat="38.19034283231174" lon="15.730820390201526"><ele>558.0</ele><time>2026-04-11T07:15:26Z</time></trkpt><trkpt lat="38.190420760039174" lon="15.73086500374134"><ele>558.0</ele><time>2026-04-11T07:15:27Z</time></trkpt><trkpt lat="38.19048586268365" lon="15.730913008098195"><ele>558.0</ele><time>2026-04-11T07:15:28Z</time></trkpt><trkpt lat="38.19051666181744" lon="15.731032600930796"><ele>558.0</ele><time>2026-04-11T07:15:30Z</time></trkpt><trkpt lat="38.19043444725923" lon="15.73115206918628"><ele>558.0</ele><time>2026-04-11T07:15:32Z</time></trkpt><trkpt lat="38.19036008238778" lon="15.731151523932605"><ele>558.0</ele><time>2026-04-11T07:15:33Z</time></trkpt><trkpt lat="38.190279479655594" lon="15.731089429220262"><ele>558.0</ele><time>2026-04-11T07:15:34Z</time></trkpt><trkpt lat="38.190168723739895" lon="15.731006352040845"><ele>558.0</ele><time>2026-04-11T07:15:35Z</time></trkpt><trkpt lat="38.1900751469892" lon="15.730976969301855"><ele>558.0</ele><time>2026-04-11T07:15:36Z</time></trkpt><trkpt lat="38.18998333928102" lon="15.730994233053192"><ele>558.0</ele><time>2026-04-11T07:15:37Z</time></trkpt><trkpt lat="38.18990036526977" lon="15.731061609833391"><ele>560.3333333333334</ele><time>2026-04-11T07:15:38Z</time></trkpt><trkpt lat="38.18984310376411" lon="15.731140565226148"><ele>562.6666666666666</ele><time>2026-04-11T07:15:39Z</time></trkpt><trkpt lat="38.189756105845206" lon="15.73120876132787"><ele>565.0</ele><time>2026-04-11T07:15:40Z</time></trkpt><trkpt lat="38.18964667727944" lon="15.731201500694864"><ele>567.3333333333333</ele><time>2026-04-11T07:15:41Z</time></trkpt><trkpt lat="38.18956888304907" lon="15.73124339264649"><ele>569.6666666666666</ele><time>2026-04-11T07:15:42Z</time></trkpt><trkpt lat="38.18950548499795" lon="15.73127256176187"><ele>572.0</ele><time>2026-04-11T07:15:43Z</time></trkpt><trkpt lat="38.189475510542366" lon="15.731351047619077"><ele>572.0</ele><time>2026-04-11T07:15:44Z</time></trkpt><trkpt lat="38.18946485215906" lon="15.731441351256079"><ele>572.0</ele><time>2026-04-11T07:15:44.999Z</time></trkpt><trkpt lat="38.18956157260352" lon="15.731580793018958"><ele>572.0</ele><time>2026-04-11T07:15:46.999Z</time></trkpt><trkpt lat="38.189642373908065" lon="15.731572828142074"><ele>572.0</ele><time>2026-04-11T07:15:47.999Z</time></trkpt><trkpt lat="38.189710489471814" lon="15.731565086644748"><ele>572.0</ele><time>2026-04-11T07:15:48.999Z</time></trkpt><trkpt lat="38.18977989244824" lon="15.731490867620986"><ele>577.5</ele><time>2026-04-11T07:15:49.999Z</time></trkpt><trkpt lat="38.18989886960403" lon="15.731424256168461"><ele>583.0</ele><time>2026-04-11T07:15:50.999Z</time></trkpt><trkpt lat="38.19001182397182" lon="15.731341665085065"><ele>588.5</ele><time>2026-04-11T07:15:51.999Z</time></trkpt><trkpt lat="38.19011616113401" lon="15.731284182199316"><ele>594.0</ele><time>2026-04-11T07:15:52.999Z</time></trkpt><trkpt lat="38.19020601303456" lon="15.731280970147694"><ele>594.0</ele><time>2026-04-11T07:15:53.999Z</time></trkpt><trkpt lat="38.19030217871714" lon="15.731318546886827"><ele>594.0</ele><time>2026-04-11T07:15:54.999Z</time></trkpt><trkpt lat="38.190426248143474" lon="15.731366497163041"><ele>594.0</ele><time>2026-04-11T07:15:55.999Z</time></trkpt><trkpt lat="38.19057413893358" lon="15.731424771814076"><ele>594.0</ele><time>2026-04-11T07:15:56.999Z</time></trkpt><trkpt lat="38.19070125806591" lon="15.73148299924368"><ele>592.5</ele><time>2026-04-11T07:15:57.999Z</time></trkpt><trkpt lat="38.19082704752334" lon="15.731554815633444"><ele>591.0</ele><time>2026-04-11T07:15:58.999Z</time></trkpt><trkpt lat="38.19093458550221" lon="15.73162828187249"><ele>589.5</ele><time>2026-04-11T07:15:59.999Z</time></trkpt><trkpt lat="38.19102744253729" lon="15.731708584174529"><ele>588.0</ele><time>2026-04-11T07:16:01Z</time></trkpt><trkpt lat="38.19109875484142" lon="15.731792221249673"><ele>588.0</ele><time>2026-04-11T07:16:02Z</time></trkpt><trkpt lat="38.191168370033374" lon="15.731863488982965"><ele>588.0</ele><time>2026-04-11T07:16:03Z</time></trkpt><trkpt lat="38.19120142057674" lon="15.73197200477039"><ele>588.0</ele><time>2026-04-11T07:16:04Z</time></trkpt><trkpt lat="38.191216041109115" lon="15.732116936904081"><ele>588.0</ele><time>2026-04-11T07:16:05Z</time></trkpt><trkpt lat="38.19119173048338" lon="15.732242028217348"><ele>588.0</ele><time>2026-04-11T07:16:06Z</time></trkpt><trkpt lat="38.191143683982354" lon="15.732380999721626"><ele>590.3333333333334</ele><time>2026-04-11T07:16:07Z</time></trkpt><trkpt lat="38.19105668774732" lon="15.732526299667011"><ele>592.6666666666667</ele><time>2026-04-11T07:16:08Z</time></trkpt><trkpt lat="38.19097553266327" lon="15.732706118340236"><ele>595.0</ele><time>2026-04-11T07:16:09Z</time></trkpt><trkpt lat="38.19089092935742" lon="15.732889828365826"><ele>595.0</ele><time>2026-04-11T07:16:10Z</time></trkpt><trkpt lat="38.19080306541725" lon="15.73307506079281"><ele>595.0</ele><time>2026-04-11T07:16:11Z</time></trkpt><trkpt lat="38.19070804579893" lon="15.733229662925504"><ele>595.0</ele><time>2026-04-11T07:16:12Z</time></trkpt><trkpt lat="38.190611210683464" lon="15.7333884895975"><ele>600.5</ele><time>2026-04-11T07:16:13Z</time></trkpt><trkpt lat="38.19050964022376" lon="15.733556853919447"><ele>606.0</ele><time>2026-04-11T07:16:14Z</time></trkpt><trkpt lat="38.19041051877068" lon="15.73367416873436"><ele>611.5</ele><time>2026-04-11T07:16:15Z</time></trkpt><trkpt lat="38.190324607886296" lon="15.733797901941362"><ele>617.0</ele><time>2026-04-11T07:16:16Z</time></trkpt><trkpt lat="38.1902405959623" lon="15.733891201700906"><ele>617.0</ele><time>2026-04-11T07:16:17Z</time></trkpt><trkpt lat="38.1901781152962" lon="15.733966812034051"><ele>617.0</ele><time>2026-04-11T07:16:18Z</time></trkpt><trkpt lat="38.190114009801675" lon="15.734019005488857"><ele>617.0</ele><time>2026-04-11T07:16:19Z</time></trkpt><trkpt lat="38.1899862641639" lon="15.7340178479202"><ele>617.0</ele><time>2026-04-11T07:16:21Z</time></trkpt><trkpt lat="38.18993167895025" lon="15.733929407974317"><ele>617.0</ele><time>2026-04-11T07:16:22Z</time></trkpt><trkpt lat="38.18995743068789" lon="15.733833261034386"><ele>617.0</ele><time>2026-04-11T07:16:23Z</time></trkpt><trkpt lat="38.19000369972644" lon="15.733755601819611"><ele>617.0</ele><time>2026-04-11T07:16:24Z</time></trkpt><trkpt lat="38.190074340518024" lon="15.733651287119267"><ele>617.0</ele><time>2026-04-11T07:16:25Z</time></trkpt><trkpt lat="38.19015834909795" lon="15.733539712208186"><ele>617.0</ele><time>2026-04-11T07:16:26Z</time></trkpt><trkpt lat="38.190255902333696" lon="15.733410945548153"><ele>617.0</ele><time>2026-04-11T07:16:27Z</time></trkpt><trkpt lat="38.19035485256697" lon="15.733280817489659"><ele>618.25</ele><time>2026-04-11T07:16:28Z</time></trkpt><trkpt lat="38.19043203361686" lon="15.733150193638977"><ele>619.5</ele><time>2026-04-11T07:16:29Z</time></trkpt><trkpt lat="38.190511716134175" lon="15.733041027648714"><ele>620.75</ele><time>2026-04-11T07:16:30Z</time></trkpt><trkpt lat="38.190559515467186" lon="15.73291128901178"><ele>622.0</ele><time>2026-04-11T07:16:31Z</time></trkpt><trkpt lat="38.19057420934729" lon="15.732738050706127"><ele>621.75</ele><time>2026-04-11T07:16:32Z</time></trkpt><trkpt lat="38.19058497608077" lon="15.732556770792385"><ele>621.5</ele><time>2026-04-11T07:16:33Z</time></trkpt><trkpt lat="38.19063742294016" lon="15.732376234501514"><ele>621.25</ele><time>2026-04-11T07:16:34Z</time></trkpt><trkpt lat="38.19067259677187" lon="15.732232806810895"><ele>621.0</ele><time>2026-04-11T07:16:35Z</time></trkpt><trkpt lat="38.19068594003545" lon="15.732102736177435"><ele>621.0</ele><time>2026-04-11T07:16:36Z</time></trkpt><trkpt lat="38.190652931828296" lon="15.731984404871389"><ele>621.0</ele><time>2026-04-11T07:16:37Z</time></trkpt><trkpt lat="38.19058321011745" lon="15.731893406991531"><ele>621.0</ele><time>2026-04-11T07:16:38Z</time></trkpt><trkpt lat="38.19049405873301" lon="15.731875834925633"><ele>621.0</ele><time>2026-04-11T07:16:39Z</time></trkpt><trkpt lat="38.19039744219749" lon="15.731884798648704"><ele>621.0</ele><time>2026-04-11T07:16:40Z</time></trkpt><trkpt lat="38.19030442120532" lon="15.73194771527099"><ele>621.0</ele><time>2026-04-11T07:16:41Z</time></trkpt><trkpt lat="38.190208721008375" lon="15.732059105571201"><ele>621.0</ele><time>2026-04-11T07:16:42Z</time></trkpt><trkpt lat="38.1901029815829" lon="15.732191706385649"><ele>621.0</ele><time>2026-04-11T07:16:43Z</time></trkpt><trkpt lat="38.18999471826753" lon="15.732263970407283"><ele>621.0</ele><time>2026-04-11T07:16:44Z</time></trkpt><trkpt lat="38.18993053456999" lon="15.732393672750113"><ele>621.0</ele><time>2026-04-11T07:16:45Z</time></trkpt><trkpt lat="38.18987764993554" lon="15.732573187709178"><ele>621.0</ele><time>2026-04-11T07:16:46Z</time></trkpt><trkpt lat="38.189829440540365" lon="15.732771678236553"><ele>621.0</ele><time>2026-04-11T07:16:47Z</time></trkpt><trkpt lat="38.189791294314816" lon="15.73291499325567"><ele>621.0</ele><time>2026-04-11T07:16:48Z</time></trkpt><trkpt lat="38.18976116552784" lon="15.733038586068012"><ele>624.8</ele><time>2026-04-11T07:16:49Z</time></trkpt><trkpt lat="38.18969086138757" lon="15.733120849969811"><ele>628.6</ele><time>2026-04-11T07:16:50Z</time></trkpt><trkpt lat="38.18960365900773" lon="15.733177602427393"><ele>632.4</ele><time>2026-04-11T07:16:51Z</time></trkpt><trkpt lat="38.18951310710905" lon="15.733196123071986"><ele>636.2</ele><time>2026-04-11T07:16:52Z</time></trkpt><trkpt lat="38.189410119601646" lon="15.733158675850591"><ele>640.0</ele><time>2026-04-11T07:16:53Z</time></trkpt><trkpt lat="38.18928536929078" lon="15.733115140170575"><ele>640.0</ele><time>2026-04-11T07:16:54Z</time></trkpt><trkpt lat="38.189163723266155" lon="15.733083360961276"><ele>640.0</ele><time>2026-04-11T07:16:55Z</time></trkpt><trkpt lat="38.18906182219879" lon="15.73308691443225"><ele>640.0</ele><time>2026-04-11T07:16:56Z</time></trkpt><trkpt lat="38.18897170961748" lon="15.733142081817379"><ele>640.0</ele><time>2026-04-11T07:16:57Z</time></trkpt><trkpt lat="38.188910776530214" lon="15.733234482531701"><ele>640.0</ele><time>2026-04-11T07:16:58Z</time></trkpt><trkpt lat="38.188841800092874" lon="15.733401583740946"><ele>643.75</ele><time>2026-04-11T07:16:59Z</time></trkpt><trkpt lat="38.18876521025772" lon="15.733535934967758"><ele>647.5</ele><time>2026-04-11T07:17:00Z</time></trkpt><trkpt lat="38.188668313544305" lon="15.73359145370178"><ele>651.25</ele><time>2026-04-11T07:17:01Z</time></trkpt><trkpt lat="38.18856107409164" lon="15.733615617217612"><ele>655.0</ele><time>2026-04-11T07:17:02Z</time></trkpt><trkpt lat="38.18844004754061" lon="15.733683448278423"><ele>655.0</ele><time>2026-04-11T07:17:03Z</time></trkpt><trkpt lat="38.188332772551256" lon="15.7337629945719"><ele>655.0</ele><time>2026-04-11T07:17:04Z</time></trkpt><trkpt lat="38.188217855397575" lon="15.733887102750218"><ele>655.0</ele><time>2026-04-11T07:17:05Z</time></trkpt><trkpt lat="38.18816116150886" lon="15.734054043257945"><ele>655.0</ele><time>2026-04-11T07:17:06Z</time></trkpt><trkpt lat="38.18810215075371" lon="15.734221329037284"><ele>655.75</ele><time>2026-04-11T07:17:07Z</time></trkpt><trkpt lat="38.188061446194226" lon="15.734393665942353"><ele>656.5</ele><time>2026-04-11T07:17:08Z</time></trkpt><trkpt lat="38.18798657346728" lon="15.73453909124695"><ele>657.25</ele><time>2026-04-11T07:17:09Z</time></trkpt><trkpt lat="38.18788121259793" lon="15.734679286305518"><ele>658.0</ele><time>2026-04-11T07:17:10Z</time></trkpt><trkpt lat="38.187766154112104" lon="15.73486132581697"><ele>658.0</ele><time>2026-04-11T07:17:11Z</time></trkpt><trkpt lat="38.187702263577215" lon="15.735054278867022"><ele>658.0</ele><time>2026-04-11T07:17:12Z</time></trkpt><trkpt lat="38.187623036958136" lon="15.735172647586301"><ele>658.0</ele><time>2026-04-11T07:17:13Z</time></trkpt><trkpt lat="38.18755851324371" lon="15.735253971877913"><ele>658.0</ele><time>2026-04-11T07:17:14Z</time></trkpt><trkpt lat="38.18750585419962" lon="15.735300537885072"><ele>658.0</ele><time>2026-04-11T07:17:15Z</time></trkpt><trkpt lat="38.187400033420175" lon="15.735244879881053"><ele>656.2</ele><time>2026-04-11T07:17:16Z</time></trkpt><trkpt lat="38.18733656913625" lon="15.735164554265506"><ele>654.4</ele><time>2026-04-11T07:17:17Z</time></trkpt><trkpt lat="38.18725375512715" lon="15.735105955900195"><ele>652.6</ele><time>2026-04-11T07:17:18Z</time></trkpt><trkpt lat="38.18716448273559" lon="15.735076193380637"><ele>650.8000000000001</ele><time>2026-04-11T07:17:19Z</time></trkpt><trkpt lat="38.18707124903535" lon="15.735104620997584"><ele>649.0</ele><time>2026-04-11T07:17:20Z</time></trkpt><trkpt lat="38.18701848430035" lon="15.735210022718519"><ele>655.4000000000001</ele><time>2026-04-11T07:17:21Z</time></trkpt><trkpt lat="38.18703127170474" lon="15.735325399935487"><ele>661.8</ele><time>2026-04-11T07:17:22Z</time></trkpt><trkpt lat="38.18709483761472" lon="15.735428535181377"><ele>668.2</ele><time>2026-04-11T07:17:23Z</time></trkpt><trkpt lat="38.18717375044099" lon="15.735484935325655"><ele>674.5999999999999</ele><time>2026-04-11T07:17:24Z</time></trkpt><trkpt lat="38.187278633063336" lon="15.735490311119218"><ele>681.0</ele><time>2026-04-11T07:17:25Z</time></trkpt><trkpt lat="38.18742482757652" lon="15.735477467380933"><ele>682.75</ele><time>2026-04-11T07:17:26Z</time></trkpt><trkpt lat="38.18757196418924" lon="15.735461592122174"><ele>684.5</ele><time>2026-04-11T07:17:27Z</time></trkpt><trkpt lat="38.187676438959905" lon="15.735411149287092"><ele>686.25</ele><time>2026-04-11T07:17:28Z</time></trkpt><trkpt lat="38.18777412163522" lon="15.735316696321854"><ele>688.0</ele><time>2026-04-11T07:17:29Z</time></trkpt><trkpt lat="38.18783886611567" lon="15.735205850667723"><ele>686.0</ele><time>2026-04-11T07:17:30Z</time></trkpt><trkpt lat="38.18788577652751" lon="15.735108974281433"><ele>684.0</ele><time>2026-04-11T07:17:31Z</time></trkpt><trkpt lat="38.18795329443719" lon="15.73504693359862"><ele>682.0</ele><time>2026-04-11T07:17:32Z</time></trkpt><trkpt lat="38.18801341704434" lon="15.734989211016075"><ele>680.0</ele><time>2026-04-11T07:17:33Z</time></trkpt><trkpt lat="38.1880935041769" lon="15.734929224176119"><ele>678.0</ele><time>2026-04-11T07:17:34Z</time></trkpt><trkpt lat="38.188199857027" lon="15.73484667240417"><ele>678.0</ele><time>2026-04-11T07:17:35Z</time></trkpt><trkpt lat="38.18830430153311" lon="15.734701389025199"><ele>678.0</ele><time>2026-04-11T07:17:36Z</time></trkpt><trkpt lat="38.18838726405159" lon="15.734531331700166"><ele>678.0</ele><time>2026-04-11T07:17:37Z</time></trkpt><trkpt lat="38.18845679551878" lon="15.734407851188644"><ele>678.0</ele><time>2026-04-11T07:17:38Z</time></trkpt><trkpt lat="38.18852750685235" lon="15.734319867347107"><ele>678.0</ele><time>2026-04-11T07:17:39Z</time></trkpt><trkpt lat="38.188612462628576" lon="15.73425288752849"><ele>678.0</ele><time>2026-04-11T07:17:40Z</time></trkpt><trkpt lat="38.18870892099974" lon="15.73424331088076"><ele>678.0</ele><time>2026-04-11T07:17:41Z</time></trkpt><trkpt lat="38.18880081001511" lon="15.73423712148135"><ele>678.0</ele><time>2026-04-11T07:17:42Z</time></trkpt><trkpt lat="38.18889502145034" lon="15.734298771604989"><ele>678.0</ele><time>2026-04-11T07:17:43Z</time></trkpt><trkpt lat="38.18897197296742" lon="15.734404317990712"><ele>678.0</ele><time>2026-04-11T07:17:44Z</time></trkpt><trkpt lat="38.189008289957535" lon="15.73453203769579"><ele>678.0</ele><time>2026-04-11T07:17:45Z</time></trkpt><trkpt lat="38.18898453514188" lon="15.734680667269483"><ele>678.0</ele><time>2026-04-11T07:17:46Z</time></trkpt><trkpt lat="38.1889926267208" lon="15.734839801441344"><ele>678.0</ele><time>2026-04-11T07:17:47Z</time></trkpt><trkpt lat="38.188972696738645" lon="15.73496685535982"><ele>678.0</ele><time>2026-04-11T07:17:48Z</time></trkpt><trkpt lat="38.188932448115075" lon="15.735065116590789"><ele>678.0</ele><time>2026-04-11T07:17:49Z</time></trkpt><trkpt lat="38.188858613007966" lon="15.735146935681815"><ele>678.0</ele><time>2026-04-11T07:17:50Z</time></trkpt><trkpt lat="38.18877548165878" lon="15.735177684997362"><ele>678.0</ele><time>2026-04-11T07:17:50.999Z</time></trkpt><trkpt lat="38.18869472127528" lon="15.735227933629965"><ele>678.0</ele><time>2026-04-11T07:17:51.999Z</time></trkpt><trkpt lat="38.188618047814614" lon="15.735311511015402"><ele>680.0</ele><time>2026-04-11T07:17:52.999Z</time></trkpt><trkpt lat="38.18852027562378" lon="15.7353979817865"><ele>682.0</ele><time>2026-04-11T07:17:53.999Z</time></trkpt><trkpt lat="38.18841604321646" lon="15.73552405689693"><ele>684.0</ele><time>2026-04-11T07:17:54.999Z</time></trkpt><trkpt lat="38.18833044686835" lon="15.73567568504061"><ele>686.0</ele><time>2026-04-11T07:17:55.999Z</time></trkpt><trkpt lat="38.18825682455851" lon="15.735782072275347"><ele>686.5</ele><time>2026-04-11T07:17:56.999Z</time></trkpt><trkpt lat="38.18815722959057" lon="15.73590924278408"><ele>687.0</ele><time>2026-04-11T07:17:57.999Z</time></trkpt><trkpt lat="38.18806280489914" lon="15.735979119902682"><ele>687.5</ele><time>2026-04-11T07:17:58.999Z</time></trkpt><trkpt lat="38.18794340259018" lon="15.735988495805783"><ele>688.0</ele><time>2026-04-11T07:17:59.999Z</time></trkpt><trkpt lat="38.18780011992932" lon="15.736035366647846"><ele>690.75</ele><time>2026-04-11T07:18:00.999Z</time></trkpt><trkpt lat="38.18763803212955" lon="15.736073120318393"><ele>693.5</ele><time>2026-04-11T07:18:01.999Z</time></trkpt><trkpt lat="38.18751282362938" lon="15.736127706830825"><ele>696.25</ele><time>2026-04-11T07:18:02.999Z</time></trkpt><trkpt lat="38.18739929515284" lon="15.736217345042943"><ele>699.0</ele><time>2026-04-11T07:18:03.999Z</time></trkpt><trkpt lat="38.187302910771834" lon="15.736345887800399"><ele>701.6666666666666</ele><time>2026-04-11T07:18:04.999Z</time></trkpt><trkpt lat="38.18721140255182" lon="15.736502363921113"><ele>704.3333333333333</ele><time>2026-04-11T07:18:05.999Z</time></trkpt><trkpt lat="38.18709256493175" lon="15.736633102043"><ele>707.0</ele><time>2026-04-11T07:18:06.999Z</time></trkpt><trkpt lat="38.18698675906339" lon="15.736775345312527"><ele>711.0</ele><time>2026-04-11T07:18:07.999Z</time></trkpt><trkpt lat="38.1868631439242" lon="15.736922098670172"><ele>715.0</ele><time>2026-04-11T07:18:08.999Z</time></trkpt><trkpt lat="38.18673382684864" lon="15.73703751688593"><ele>719.0</ele><time>2026-04-11T07:18:09.999Z</time></trkpt><trkpt lat="38.18661228032104" lon="15.737135812936899"><ele>719.0</ele><time>2026-04-11T07:18:10.999Z</time></trkpt><trkpt lat="38.186512268868235" lon="15.737215403285376"><ele>719.0</ele><time>2026-04-11T07:18:11.999Z</time></trkpt><trkpt lat="38.18644457483096" lon="15.73729184156156"><ele>719.0</ele><time>2026-04-11T07:18:12.999Z</time></trkpt><trkpt lat="38.186317549603345" lon="15.737317036225473"><ele>719.0</ele><time>2026-04-11T07:18:14Z</time></trkpt><trkpt lat="38.186173819543505" lon="15.737324429409558"><ele>718.6666666666666</ele><time>2026-04-11T07:18:15Z</time></trkpt><trkpt lat="38.185992315706415" lon="15.737299543519033"><ele>718.3333333333334</ele><time>2026-04-11T07:18:16Z</time></trkpt><trkpt lat="38.18581531334233" lon="15.737270169279817"><ele>718.0</ele><time>2026-04-11T07:18:17Z</time></trkpt><trkpt lat="38.18564585041233" lon="15.737226813675317"><ele>718.0</ele><time>2026-04-11T07:18:18Z</time></trkpt><trkpt lat="38.18550598927222" lon="15.737240754005233"><ele>718.0</ele><time>2026-04-11T07:18:19Z</time></trkpt><trkpt lat="38.18539350005001" lon="15.737225841146609"><ele>718.0</ele><time>2026-04-11T07:18:20Z</time></trkpt><trkpt lat="38.18532261813269" lon="15.737238634021821"><ele>718.0</ele><time>2026-04-11T07:18:21Z</time></trkpt><trkpt lat="38.18522922571756" lon="15.737326316866517"><ele>718.0</ele><time>2026-04-11T07:18:23Z</time></trkpt><trkpt lat="38.185244363514975" lon="15.737478775627105"><ele>718.0</ele><time>2026-04-11T07:18:25Z</time></trkpt><trkpt lat="38.18532503853098" lon="15.737567945486122"><ele>718.0</ele><time>2026-04-11T07:18:27Z</time></trkpt><trkpt lat="38.185409664914246" lon="15.737587866112152"><ele>718.0</ele><time>2026-04-11T07:18:28Z</time></trkpt><trkpt lat="38.1855041164727" lon="15.737611962833318"><ele>718.0</ele><time>2026-04-11T07:18:29Z</time></trkpt><trkpt lat="38.18560945055185" lon="15.737618191724087"><ele>718.0</ele><time>2026-04-11T07:18:30Z</time></trkpt><trkpt lat="38.18569371829176" lon="15.737619600291996"><ele>719.3333333333334</ele><time>2026-04-11T07:18:31Z</time></trkpt><trkpt lat="38.1857742881133" lon="15.737620947049514"><ele>720.6666666666667</ele><time>2026-04-11T07:18:32Z</time></trkpt><trkpt lat="38.185841921562904" lon="15.737623205331907"><ele>722.0</ele><time>2026-04-11T07:18:33Z</time></trkpt><trkpt lat="38.18595934389176" lon="15.737640844265911"><ele>723.3333333333334</ele><time>2026-04-11T07:18:35Z</time></trkpt><trkpt lat="38.186018775997425" lon="15.73767219988421"><ele>724.6666666666666</ele><time>2026-04-11T07:18:36Z</time></trkpt><trkpt lat="38.186071725085924" lon="15.737721430514586"><ele>726.0</ele><time>2026-04-11T07:18:37Z</time></trkpt><trkpt lat="38.186118145820245" lon="15.737799338561475"><ele>731.1999999999999</ele><time>2026-04-11T07:18:38Z</time></trkpt><trkpt lat="38.18615715802962" lon="15.737897253841082"><ele>736.4</ele><time>2026-04-11T07:18:39Z</time></trkpt><trkpt lat="38.18619322146206" lon="15.737999675030153"><ele>741.6</ele><time>2026-04-11T07:18:40Z</time></trkpt><trkpt lat="38.18622838212094" lon="15.738132030068959"><ele>746.8</ele><time>2026-04-11T07:18:41Z</time></trkpt><trkpt lat="38.186263751738785" lon="15.738266340720847"><ele>752.0</ele><time>2026-04-11T07:18:42Z</time></trkpt><trkpt lat="38.18631754976932" lon="15.738363587848646"><ele>752.0</ele><time>2026-04-11T07:18:43Z</time></trkpt><trkpt lat="38.1863715390723" lon="15.738461620752464"><ele>752.0</ele><time>2026-04-11T07:18:44Z</time></trkpt><trkpt lat="38.186456587249715" lon="15.738541351310554"><ele>752.0</ele><time>2026-04-11T07:18:45Z</time></trkpt><trkpt lat="38.18658223303879" lon="15.738604158882149"><ele>752.0</ele><time>2026-04-11T07:18:46Z</time></trkpt><trkpt lat="38.18671303165403" lon="15.738680035514447"><ele>753.25</ele><time>2026-04-11T07:18:47Z</time></trkpt><trkpt lat="38.18682787309009" lon="15.738750277704534"><ele>754.5</ele><time>2026-04-11T07:18:48Z</time></trkpt><trkpt lat="38.18692716183142" lon="15.738826899229672"><ele>755.75</ele><time>2026-04-11T07:18:49Z</time></trkpt><trkpt lat="38.18701945481315" lon="15.738917456612286"><ele>757.0</ele><time>2026-04-11T07:18:50Z</time></trkpt><trkpt lat="38.18711026780658" lon="15.739021755085442"><ele>757.0</ele><time>2026-04-11T07:18:51Z</time></trkpt><trkpt lat="38.18719169465748" lon="15.739135138331065"><ele>757.0</ele><time>2026-04-11T07:18:52Z</time></trkpt><trkpt lat="38.187276935475296" lon="15.7392513063484"><ele>757.0</ele><time>2026-04-11T07:18:53Z</time></trkpt><trkpt lat="38.18731303631813" lon="15.739377889289296"><ele>757.0</ele><time>2026-04-11T07:18:54Z</time></trkpt><trkpt lat="38.18737180660143" lon="15.739499182247425"><ele>756.2</ele><time>2026-04-11T07:18:55Z</time></trkpt><trkpt lat="38.187374889009156" lon="15.739671545991326"><ele>755.4000000000001</ele><time>2026-04-11T07:18:56Z</time></trkpt><trkpt lat="38.18739736837155" lon="15.739831062118247"><ele>754.5999999999999</ele><time>2026-04-11T07:18:57Z</time></trkpt><trkpt lat="38.187432069431004" lon="15.739945899262135"><ele>753.8</ele><time>2026-04-11T07:18:58Z</time></trkpt><trkpt lat="38.18746489490922" lon="15.740030591980558"><ele>753.0</ele><time>2026-04-11T07:18:59Z</time></trkpt><trkpt lat="38.18753507114225" lon="15.740093956775151"><ele>753.0</ele><time>2026-04-11T07:19:00Z</time></trkpt><trkpt lat="38.187645736194646" lon="15.740160902063261"><ele>753.0</ele><time>2026-04-11T07:19:01Z</time></trkpt><trkpt lat="38.18776137263173" lon="15.740221277635127"><ele>753.0</ele><time>2026-04-11T07:19:02Z</time></trkpt><trkpt lat="38.18783718623704" lon="15.74030332490727"><ele>753.0</ele><time>2026-04-11T07:19:03Z</time></trkpt><trkpt lat="38.187904430587494" lon="15.740354412804269"><ele>753.0</ele><time>2026-04-11T07:19:04Z</time></trkpt><trkpt lat="38.18795171903499" lon="15.740492748018402"><ele>755.8</ele><time>2026-04-11T07:19:05Z</time></trkpt><trkpt lat="38.188007499679934" lon="15.740616099130175"><ele>758.5999999999999</ele><time>2026-04-11T07:19:06Z</time></trkpt><trkpt lat="38.18804957900582" lon="15.740719265821477"><ele>761.4000000000001</ele><time>2026-04-11T07:19:07Z</time></trkpt><trkpt lat="38.188027755584436" lon="15.740837752727074"><ele>764.2</ele><time>2026-04-11T07:19:08Z</time></trkpt><trkpt lat="38.18802625075612" lon="15.740983185237017"><ele>767.0</ele><time>2026-04-11T07:19:09Z</time></trkpt><trkpt lat="38.188024160803984" lon="15.741108690847398"><ele>768.0</ele><time>2026-04-11T07:19:10Z</time></trkpt><trkpt lat="38.18806716202119" lon="15.74121374068913"><ele>769.0</ele><time>2026-04-11T07:19:11Z</time></trkpt><trkpt lat="38.188156245712754" lon="15.741315770773763"><ele>770.0</ele><time>2026-04-11T07:19:12Z</time></trkpt><trkpt lat="38.188261601457036" lon="15.741436558743004"><ele>771.0</ele><time>2026-04-11T07:19:13Z</time></trkpt><trkpt lat="38.18835090586843" lon="15.741554637595032"><ele>770.1999999999999</ele><time>2026-04-11T07:19:14Z</time></trkpt><trkpt lat="38.18844110718099" lon="15.741651256426492"><ele>769.4</ele><time>2026-04-11T07:19:15Z</time></trkpt><trkpt lat="38.18850745448168" lon="15.74172497170579"><ele>768.6</ele><time>2026-04-11T07:19:16Z</time></trkpt><trkpt lat="38.18857252896168" lon="15.741785560559466"><ele>767.8</ele><time>2026-04-11T07:19:17Z</time></trkpt><trkpt lat="38.1885848892248" lon="15.741936251516712"><ele>767.0</ele><time>2026-04-11T07:19:19Z</time></trkpt><trkpt lat="38.18853928449509" lon="15.742009494285814"><ele>767.0</ele><time>2026-04-11T07:19:20Z</time></trkpt><trkpt lat="38.18846498924229" lon="15.742029311248004"><ele>767.0</ele><time>2026-04-11T07:19:21Z</time></trkpt><trkpt lat="38.188366432301706" lon="15.741948085005589"><ele>767.0</ele><time>2026-04-11T07:19:23Z</time></trkpt><trkpt lat="38.188315665146455" lon="15.741883974530726"><ele>767.0</ele><time>2026-04-11T07:19:24Z</time></trkpt><trkpt lat="38.188231186879314" lon="15.741795592799328"><ele>767.0</ele><time>2026-04-11T07:19:25Z</time></trkpt><trkpt lat="38.18812388468559" lon="15.741682785497405"><ele>768.0</ele><time>2026-04-11T07:19:26Z</time></trkpt><trkpt lat="38.18799884265485" lon="15.74157706212108"><ele>769.0</ele><time>2026-04-11T07:19:27Z</time></trkpt><trkpt lat="38.18789326910129" lon="15.741480360445182"><ele>770.0</ele><time>2026-04-11T07:19:28Z</time></trkpt><trkpt lat="38.18775360483264" lon="15.741394781167442"><ele>771.0</ele><time>2026-04-11T07:19:29Z</time></trkpt><trkpt lat="38.18757777163829" lon="15.741316410118424"><ele>771.0</ele><time>2026-04-11T07:19:30Z</time></trkpt><trkpt lat="38.18737468190788" lon="15.741228315783092"><ele>771.0</ele><time>2026-04-11T07:19:31Z</time></trkpt><trkpt lat="38.18719692069886" lon="15.741147325371989"><ele>771.0</ele><time>2026-04-11T07:19:32Z</time></trkpt><trkpt lat="38.18702603808622" lon="15.741092298842892"><ele>770.6666666666667</ele><time>2026-04-11T07:19:33Z</time></trkpt><trkpt lat="38.18686662082849" lon="15.741008201624345"><ele>770.3333333333334</ele><time>2026-04-11T07:19:34Z</time></trkpt><trkpt lat="38.1866979272255" lon="15.740924290782502"><ele>770.0</ele><time>2026-04-11T07:19:35Z</time></trkpt><trkpt lat="38.18654397241066" lon="15.740847817857475"><ele>769.75</ele><time>2026-04-11T07:19:36Z</time></trkpt><trkpt lat="38.186407910439215" lon="15.740781740313695"><ele>769.5</ele><time>2026-04-11T07:19:37Z</time></trkpt><trkpt lat="38.18629358432698" lon="15.740742449196006"><ele>769.25</ele><time>2026-04-11T07:19:38Z</time></trkpt><trkpt lat="38.18619829930274" lon="15.740682412833122"><ele>769.0</ele><time>2026-04-11T07:19:39Z</time></trkpt><trkpt lat="38.18610818401729" lon="15.740664998912628"><ele>768.9999999999999</ele><time>2026-04-11T07:19:40Z</time></trkpt><trkpt lat="38.186008451915036" lon="15.740715636148757"><ele>769.0</ele><time>2026-04-11T07:19:41Z</time></trkpt><trkpt lat="38.18593550853545" lon="15.740747531959377"><ele>769.0</ele><time>2026-04-11T07:19:42Z</time></trkpt><trkpt lat="38.18589902608155" lon="15.740831248385716"><ele>769.0</ele><time>2026-04-11T07:19:43Z</time></trkpt><trkpt lat="38.18589032040399" lon="15.740933099565048"><ele>768.9999999999999</ele><time>2026-04-11T07:19:44Z</time></trkpt><trkpt lat="38.18588996000136" lon="15.741056678592864"><ele>769.0</ele><time>2026-04-11T07:19:45Z</time></trkpt><trkpt lat="38.18589946589422" lon="15.741214286783062"><ele>770.75</ele><time>2026-04-11T07:19:46Z</time></trkpt><trkpt lat="38.18589989774535" lon="15.741398971278068"><ele>772.5</ele><time>2026-04-11T07:19:47Z</time></trkpt><trkpt lat="38.185907458308805" lon="15.741578229043022"><ele>774.25</ele><time>2026-04-11T07:19:48Z</time></trkpt><trkpt lat="38.18591529763454" lon="15.741733646828273"><ele>776.0</ele><time>2026-04-11T07:19:49Z</time></trkpt><trkpt lat="38.18592903843957" lon="15.741893514610101"><ele>777.0</ele><time>2026-04-11T07:19:50Z</time></trkpt><trkpt lat="38.1859362076316" lon="15.742048054206093"><ele>778.0</ele><time>2026-04-11T07:19:51Z</time></trkpt><trkpt lat="38.185923420153024" lon="15.742213285485636"><ele>779.0</ele><time>2026-04-11T07:19:52Z</time></trkpt><trkpt lat="38.18592467893647" lon="15.742326650768355"><ele>780.0</ele><time>2026-04-11T07:19:53Z</time></trkpt><trkpt lat="38.185926919246576" lon="15.742455534473073"><ele>781.0</ele><time>2026-04-11T07:19:54Z</time></trkpt><trkpt lat="38.185926333944565" lon="15.742589896245688"><ele>782.8</ele><time>2026-04-11T07:19:55Z</time></trkpt><trkpt lat="38.18592313848876" lon="15.742725434932106"><ele>784.5999999999999</ele><time>2026-04-11T07:19:56Z</time></trkpt><trkpt lat="38.18592515725905" lon="15.74287138432752"><ele>786.4</ele><time>2026-04-11T07:19:56.999Z</time></trkpt><trkpt lat="38.185928645661456" lon="15.743004324012105"><ele>788.2</ele><time>2026-04-11T07:19:57.999Z</time></trkpt><trkpt lat="38.18592496771383" lon="15.743134897959058"><ele>790.0</ele><time>2026-04-11T07:19:58.999Z</time></trkpt><trkpt lat="38.18593111477319" lon="15.743286435415614"><ele>790.0</ele><time>2026-04-11T07:19:59.999Z</time></trkpt><trkpt lat="38.18594240023122" lon="15.743454171913166"><ele>790.0</ele><time>2026-04-11T07:20:00.999Z</time></trkpt><trkpt lat="38.18593509657176" lon="15.743630194547832"><ele>790.0</ele><time>2026-04-11T07:20:01.999Z</time></trkpt><trkpt lat="38.18592972239364" lon="15.74380345508884"><ele>790.0</ele><time>2026-04-11T07:20:02.999Z</time></trkpt><trkpt lat="38.185924490793916" lon="15.743927074252015"><ele>791.2</ele><time>2026-04-11T07:20:03.999Z</time></trkpt><trkpt lat="38.18591994014181" lon="15.744060537572334"><ele>792.4</ele><time>2026-04-11T07:20:04.999Z</time></trkpt><trkpt lat="38.18591961280062" lon="15.74418483010822"><ele>793.5999999999999</ele><time>2026-04-11T07:20:05.999Z</time></trkpt><trkpt lat="38.18591922001357" lon="15.74430922254588"><ele>794.8</ele><time>2026-04-11T07:20:06.999Z</time></trkpt><trkpt lat="38.185923471919736" lon="15.744455713143848"><ele>796.0</ele><time>2026-04-11T07:20:07.999Z</time></trkpt><trkpt lat="38.185919711144024" lon="15.744581273683691"><ele>796.0</ele><time>2026-04-11T07:20:08.999Z</time></trkpt><trkpt lat="38.1859260276741" lon="15.744713537146968"><ele>796.0</ele><time>2026-04-11T07:20:09.999Z</time></trkpt><trkpt lat="38.18592673538181" lon="15.744888875634912"><ele>796.0</ele><time>2026-04-11T07:20:10.999Z</time></trkpt><trkpt lat="38.18594062875574" lon="15.745046449028266"><ele>796.0</ele><time>2026-04-11T07:20:11.999Z</time></trkpt><trkpt lat="38.18594067655829" lon="15.745186538865589"><ele>796.4</ele><time>2026-04-11T07:20:12.999Z</time></trkpt><trkpt lat="38.18595584994483" lon="15.745315116476256"><ele>796.8</ele><time>2026-04-11T07:20:13.999Z</time></trkpt><trkpt lat="38.185978979485725" lon="15.74543574214734"><ele>797.1999999999999</ele><time>2026-04-11T07:20:15Z</time></trkpt><trkpt lat="38.185978431315945" lon="15.74553628063931"><ele>797.5999999999999</ele><time>2026-04-11T07:20:16Z</time></trkpt><trkpt lat="38.18596309984021" lon="15.745675708610085"><ele>798.0</ele><time>2026-04-11T07:20:18Z</time></trkpt><trkpt lat="38.18595893542479" lon="15.745798397365048"><ele>798.0</ele><time>2026-04-11T07:20:39Z</time></trkpt><trkpt lat="38.185967598856" lon="15.745906428428203"><ele>798.0</ele><time>2026-04-11T07:20:40Z</time></trkpt><trkpt lat="38.18597766793053" lon="15.746035896494499"><ele>798.0</ele><time>2026-04-11T07:20:41Z</time></trkpt><trkpt lat="38.18599160056415" lon="15.746179534673406"><ele>798.0</ele><time>2026-04-11T07:20:42Z</time></trkpt><trkpt lat="38.186008194921776" lon="15.746330628077681"><ele>798.0</ele><time>2026-04-11T07:20:43Z</time></trkpt><trkpt lat="38.18602405980422" lon="15.746471348242023"><ele>796.8</ele><time>2026-04-11T07:20:44Z</time></trkpt><trkpt lat="38.186039306510516" lon="15.746601562058645"><ele>795.5999999999999</ele><time>2026-04-11T07:20:45Z</time></trkpt><trkpt lat="38.186054829707665" lon="15.746727044154706"><ele>794.4000000000001</ele><time>2026-04-11T07:20:46Z</time></trkpt><trkpt lat="38.186075652509516" lon="15.74685617819676"><ele>793.2</ele><time>2026-04-11T07:20:47Z</time></trkpt><trkpt lat="38.186097305454815" lon="15.747016703023746"><ele>792.0</ele><time>2026-04-11T07:20:48Z</time></trkpt><trkpt lat="38.18609031279774" lon="15.747197639718841"><ele>791.5</ele><time>2026-04-11T07:20:49Z</time></trkpt><trkpt lat="38.18609388876811" lon="15.747357176006163"><ele>791.0</ele><time>2026-04-11T07:20:50Z</time></trkpt><trkpt lat="38.18609953118293" lon="15.747499516159651"><ele>790.5</ele><time>2026-04-11T07:20:51Z</time></trkpt><trkpt lat="38.186098056465305" lon="15.747638619354055"><ele>790.0</ele><time>2026-04-11T07:20:52Z</time></trkpt><trkpt lat="38.186062231582675" lon="15.747774230877104"><ele>792.5</ele><time>2026-04-11T07:20:53Z</time></trkpt><trkpt lat="38.18602277819359" lon="15.747939100069434"><ele>795.0</ele><time>2026-04-11T07:20:54Z</time></trkpt><trkpt lat="38.18598659313382" lon="15.748126480978568"><ele>797.5</ele><time>2026-04-11T07:20:55Z</time></trkpt><trkpt lat="38.1859720045141" lon="15.748252066457635"><ele>800.0</ele><time>2026-04-11T07:20:56Z</time></trkpt><trkpt lat="38.18596714394869" lon="15.74836357522471"><ele>800.0</ele><time>2026-04-11T07:20:57Z</time></trkpt><trkpt lat="38.18598752711631" lon="15.748506006768991"><ele>800.0</ele><time>2026-04-11T07:20:58Z</time></trkpt><trkpt lat="38.18600923822925" lon="15.748673899889871"><ele>800.0</ele><time>2026-04-11T07:20:59Z</time></trkpt><trkpt lat="38.185996425070925" lon="15.748861650915668"><ele>800.0</ele><time>2026-04-11T07:21:00Z</time></trkpt><trkpt lat="38.185971830695976" lon="15.749022541858734"><ele>802.8</ele><time>2026-04-11T07:21:01Z</time></trkpt><trkpt lat="38.185954582542045" lon="15.749176743006354"><ele>805.6</ele><time>2026-04-11T07:21:02Z</time></trkpt><trkpt lat="38.18593933506905" lon="15.749290751245553"><ele>808.4000000000001</ele><time>2026-04-11T07:21:03Z</time></trkpt><trkpt lat="38.185937711485884" lon="15.749379178375545"><ele>811.2</ele><time>2026-04-11T07:21:04Z</time></trkpt><trkpt lat="38.18589259759024" lon="15.749461906842264"><ele>814.0</ele><time>2026-04-11T07:21:05Z</time></trkpt><trkpt lat="38.18577837840543" lon="15.749567368160774"><ele>811.4000000000001</ele><time>2026-04-11T07:21:07Z</time></trkpt><trkpt lat="38.185691767296994" lon="15.749620158013032"><ele>808.8</ele><time>2026-04-11T07:21:08Z</time></trkpt><trkpt lat="38.18558492672133" lon="15.749696808404789"><ele>806.2</ele><time>2026-04-11T07:21:09Z</time></trkpt><trkpt lat="38.18550924579905" lon="15.74978244789097"><ele>803.5999999999999</ele><time>2026-04-11T07:21:11Z</time></trkpt><trkpt lat="38.18554470171882" lon="15.749879416502976"><ele>801.0</ele><time>2026-04-11T07:21:12Z</time></trkpt><trkpt lat="38.18554952040597" lon="15.749975219903162"><ele>801.0</ele><time>2026-04-11T07:21:13Z</time></trkpt><trkpt lat="38.18554907889077" lon="15.750076706774966"><ele>801.0</ele><time>2026-04-11T07:21:14Z</time></trkpt><trkpt lat="38.185557950553196" lon="15.750185158809977"><ele>801.0</ele><time>2026-04-11T07:21:15Z</time></trkpt><trkpt lat="38.18555069160893" lon="15.750334470392984"><ele>801.0</ele><time>2026-04-11T07:21:16Z</time></trkpt><trkpt lat="38.18558719225063" lon="15.750483125514984"><ele>801.0</ele><time>2026-04-11T07:21:17Z</time></trkpt><trkpt lat="38.185604839965045" lon="15.750583728415355"><ele>799.5</ele><time>2026-04-11T07:21:18Z</time></trkpt><trkpt lat="38.18567432544499" lon="15.750710735242155"><ele>798.0</ele><time>2026-04-11T07:21:20Z</time></trkpt><trkpt lat="38.18577731649104" lon="15.750839022273144"><ele>796.5</ele><time>2026-04-11T07:21:21Z</time></trkpt><trkpt lat="38.18585845293988" lon="15.750958309894205"><ele>795.0</ele><time>2026-04-11T07:21:22Z</time></trkpt><trkpt lat="38.18591982487929" lon="15.751076023807538"><ele>801.0</ele><time>2026-04-11T07:21:23Z</time></trkpt><trkpt lat="38.18597682514805" lon="15.751247202770278"><ele>807.0</ele><time>2026-04-11T07:21:24Z</time></trkpt><trkpt lat="38.18601732972503" lon="15.751437836393361"><ele>813.0</ele><time>2026-04-11T07:21:25Z</time></trkpt><trkpt lat="38.186097000786795" lon="15.75156081050221"><ele>819.0</ele><time>2026-04-11T07:21:26Z</time></trkpt><trkpt lat="38.18616459703056" lon="15.751670297852302"><ele>819.0</ele><time>2026-04-11T07:21:27Z</time></trkpt><trkpt lat="38.18622372139072" lon="15.751798857620573"><ele>819.0</ele><time>2026-04-11T07:21:28Z</time></trkpt><trkpt lat="38.18627056773803" lon="15.751915380138314"><ele>819.0</ele><time>2026-04-11T07:21:29Z</time></trkpt><trkpt lat="38.18632878268355" lon="15.752066963129538"><ele>819.0</ele><time>2026-04-11T07:21:30Z</time></trkpt><trkpt lat="38.18640274769633" lon="15.752190781692553"><ele>820.0</ele><time>2026-04-11T07:21:31Z</time></trkpt><trkpt lat="38.18646855897026" lon="15.752304016933637"><ele>821.0</ele><time>2026-04-11T07:21:32Z</time></trkpt><trkpt lat="38.18650317358413" lon="15.752426169793777"><ele>822.0</ele><time>2026-04-11T07:21:33Z</time></trkpt><trkpt lat="38.18653916685249" lon="15.752528386782446"><ele>823.0</ele><time>2026-04-11T07:21:34Z</time></trkpt><trkpt lat="38.18648147835278" lon="15.752646228425705"><ele>824.0</ele><time>2026-04-11T07:21:37Z</time></trkpt><trkpt lat="38.18645012647187" lon="15.752731505147896"><ele>829.6</ele><time>2026-04-11T07:21:38Z</time></trkpt><trkpt lat="38.18638418481624" lon="15.752802523135166"><ele>835.2</ele><time>2026-04-11T07:21:39Z</time></trkpt><trkpt lat="38.18628838535243" lon="15.752816819780167"><ele>840.8000000000001</ele><time>2026-04-11T07:21:40Z</time></trkpt><trkpt lat="38.186184333766775" lon="15.752896614535574"><ele>846.4000000000001</ele><time>2026-04-11T07:21:41Z</time></trkpt><trkpt lat="38.18606930906734" lon="15.752966183394792"><ele>852.0</ele><time>2026-04-11T07:21:42Z</time></trkpt><trkpt lat="38.18595942220409" lon="15.753014166544354"><ele>852.0</ele><time>2026-04-11T07:21:43Z</time></trkpt><trkpt lat="38.18588147741644" lon="15.75304710684329"><ele>852.0</ele><time>2026-04-11T07:21:44Z</time></trkpt><trkpt lat="38.1858218470078" lon="15.753098397142727"><ele>852.0</ele><time>2026-04-11T07:21:45Z</time></trkpt><trkpt lat="38.18579797328224" lon="15.753180379998263"><ele>852.0</ele><time>2026-04-11T07:21:46Z</time></trkpt><trkpt lat="38.185754148376546" lon="15.753280136515016"><ele>852.0</ele><time>2026-04-11T07:21:47Z</time></trkpt><trkpt lat="38.18572168964523" lon="15.753378425843497"><ele>852.0</ele><time>2026-04-11T07:21:48Z</time></trkpt><trkpt lat="38.1856759147177" lon="15.75348639804536"><ele>853.3333333333334</ele><time>2026-04-11T07:21:49Z</time></trkpt><trkpt lat="38.18567796621278" lon="15.75357003175779"><ele>854.6666666666667</ele><time>2026-04-11T07:21:50Z</time></trkpt><trkpt lat="38.18570518976365" lon="15.75366737360497"><ele>856.0</ele><time>2026-04-11T07:21:51Z</time></trkpt><trkpt lat="38.18574720624406" lon="15.753777687673445"><ele>857.3333333333334</ele><time>2026-04-11T07:21:52Z</time></trkpt><trkpt lat="38.185837415184174" lon="15.75385910010987"><ele>858.6666666666667</ele><time>2026-04-11T07:21:53.001Z</time></trkpt><trkpt lat="38.18587899964042" lon="15.753946814919658"><ele>860.0</ele><time>2026-04-11T07:21:54.001Z</time></trkpt><trkpt lat="38.1858832302908" lon="15.754068273554678"><ele>860.0</ele><time>2026-04-11T07:21:55.001Z</time></trkpt><trkpt lat="38.18593798958165" lon="15.75418846138183"><ele>860.0</ele><time>2026-04-11T07:21:56.001Z</time></trkpt><trkpt lat="38.18595202182354" lon="15.75429597720973"><ele>860.0</ele><time>2026-04-11T07:21:57.001Z</time></trkpt><trkpt lat="38.185917273210606" lon="15.754386950292345"><ele>860.0</ele><time>2026-04-11T07:21:59.001Z</time></trkpt><trkpt lat="38.18579590598816" lon="15.754418312290422"><ele>860.0</ele><time>2026-04-11T07:22:01.001Z</time></trkpt><trkpt lat="38.18573783939696" lon="15.754456583612404"><ele>860.5000000000001</ele><time>2026-04-11T07:22:02.001Z</time></trkpt><trkpt lat="38.18565699722059" lon="15.754544448219196"><ele>861.0</ele><time>2026-04-11T07:22:04Z</time></trkpt><trkpt lat="38.18561723408001" lon="15.754622398893597"><ele>861.5</ele><time>2026-04-11T07:22:18Z</time></trkpt><trkpt lat="38.18563636580988" lon="15.754768647072822"><ele>862.0</ele><time>2026-04-11T07:22:23Z</time></trkpt><trkpt lat="38.18567238466301" lon="15.754841683094169"><ele>862.5000000000001</ele><time>2026-04-11T07:22:24Z</time></trkpt><trkpt lat="38.18571234682993" lon="15.754914606727088"><ele>863.0</ele><time>2026-04-11T07:22:25Z</time></trkpt><trkpt lat="38.18576230526663" lon="15.755005771773941"><ele>863.0</ele><time>2026-04-11T07:22:26Z</time></trkpt><trkpt lat="38.18583500560644" lon="15.75509533194065"><ele>863.0</ele><time>2026-04-11T07:22:27Z</time></trkpt><trkpt lat="38.18586197991142" lon="15.755237249388847"><ele>863.0</ele><time>2026-04-11T07:22:28Z</time></trkpt><trkpt lat="38.18588805193372" lon="15.755371270083819"><ele>863.0</ele><time>2026-04-11T07:22:29Z</time></trkpt><trkpt lat="38.18591328862385" lon="15.755475958745626"><ele>863.0</ele><time>2026-04-11T07:22:30Z</time></trkpt><trkpt lat="38.18592806824849" lon="15.755572758151207"><ele>864.2</ele><time>2026-04-11T07:22:31Z</time></trkpt><trkpt lat="38.185943601415104" lon="15.7556810110509"><ele>865.4</ele><time>2026-04-11T07:22:32Z</time></trkpt><trkpt lat="38.18596247632385" lon="15.755806830614539"><ele>866.6000000000001</ele><time>2026-04-11T07:22:34Z</time></trkpt><trkpt lat="38.18584587818802" lon="15.755904489678517"><ele>867.8000000000001</ele><time>2026-04-11T07:22:36Z</time></trkpt><trkpt lat="38.185767172727324" lon="15.755999476808208"><ele>869.0</ele><time>2026-04-11T07:22:37Z</time></trkpt><trkpt lat="38.18571226657987" lon="15.75608113741888"><ele>871.0</ele><time>2026-04-11T07:22:38Z</time></trkpt><trkpt lat="38.185654867214204" lon="15.756259581245262"><ele>873.0000000000001</ele><time>2026-04-11T07:22:40Z</time></trkpt><trkpt lat="38.1856015398316" lon="15.756343871599162"><ele>875.0000000000001</ele><time>2026-04-11T07:22:41Z</time></trkpt><trkpt lat="38.18552763885839" lon="15.756378456209262"><ele>877.0</ele><time>2026-04-11T07:22:42Z</time></trkpt><trkpt lat="38.18544560040495" lon="15.756430961092201"><ele>879.0</ele><time>2026-04-11T07:22:43Z</time></trkpt><trkpt lat="38.18536929910945" lon="15.75649748009309"><ele>879.0</ele><time>2026-04-11T07:22:44Z</time></trkpt><trkpt lat="38.18529489266577" lon="15.75660799157911"><ele>879.0000000000001</ele><time>2026-04-11T07:22:45Z</time></trkpt><trkpt lat="38.18521386164463" lon="15.756712790617446"><ele>879.0000000000001</ele><time>2026-04-11T07:22:46Z</time></trkpt><trkpt lat="38.185145079217065" lon="15.756793960075287"><ele>879.0</ele><time>2026-04-11T07:22:47Z</time></trkpt><trkpt lat="38.18507793102713" lon="15.756836402133846"><ele>879.0</ele><time>2026-04-11T07:22:48Z</time></trkpt><trkpt lat="38.18499365688415" lon="15.756868386490728"><ele>879.0</ele><time>2026-04-11T07:22:49Z</time></trkpt><trkpt lat="38.184883867594586" lon="15.756868776378159"><ele>879.0</ele><time>2026-04-11T07:22:50Z</time></trkpt><trkpt lat="38.18474873150018" lon="15.756877257893192"><ele>879.0</ele><time>2026-04-11T07:22:51Z</time></trkpt><trkpt lat="38.184630218750534" lon="15.756887615040329"><ele>879.0</ele><time>2026-04-11T07:22:52Z</time></trkpt><trkpt lat="38.184544547743656" lon="15.75689314350321"><ele>879.1666666666666</ele><time>2026-04-11T07:22:53Z</time></trkpt><trkpt lat="38.18446596482243" lon="15.756887909434951"><ele>879.3333333333333</ele><time>2026-04-11T07:22:54Z</time></trkpt><trkpt lat="38.18438688366634" lon="15.756862712453547"><ele>879.5</ele><time>2026-04-11T07:22:55Z</time></trkpt><trkpt lat="38.18432670628292" lon="15.75680202985316"><ele>879.6666666666666</ele><time>2026-04-11T07:22:56Z</time></trkpt><trkpt lat="38.18424213253426" lon="15.756734793890748"><ele>879.8333333333333</ele><time>2026-04-11T07:22:57Z</time></trkpt><trkpt lat="38.18415783912256" lon="15.756671733179724"><ele>880.0</ele><time>2026-04-11T07:22:58Z</time></trkpt><trkpt lat="38.184088796288776" lon="15.756648192806985"><ele>878.9999999999999</ele><time>2026-04-11T07:22:59Z</time></trkpt><trkpt lat="38.18400736504359" lon="15.756635273080596"><ele>878.0</ele><time>2026-04-11T07:23:00Z</time></trkpt><trkpt lat="38.18393470744797" lon="15.756684946966908"><ele>877.0</ele><time>2026-04-11T07:23:01Z</time></trkpt><trkpt lat="38.183841795715935" lon="15.756731969590863"><ele>876.0</ele><time>2026-04-11T07:23:02Z</time></trkpt><trkpt lat="38.18376064485199" lon="15.756787156708866"><ele>874.9999999999999</ele><time>2026-04-11T07:23:03Z</time></trkpt><trkpt lat="38.18368034406742" lon="15.756845062875229"><ele>874.0</ele><time>2026-04-11T07:23:05Z</time></trkpt><trkpt lat="38.18360286289245" lon="15.756990746828782"><ele>873.9999999999999</ele><time>2026-04-11T07:23:44.001Z</time></trkpt><trkpt lat="38.18355707864377" lon="15.757121108279025"><ele>874.0</ele><time>2026-04-11T07:23:45.001Z</time></trkpt><trkpt lat="38.18351276687601" lon="15.75721518913794"><ele>874.0</ele><time>2026-04-11T07:23:46.001Z</time></trkpt><trkpt lat="38.18346612546929" lon="15.757294134854577"><ele>874.0</ele><time>2026-04-11T07:23:47.001Z</time></trkpt><trkpt lat="38.18341623051785" lon="15.757365455384562"><ele>873.9999999999999</ele><time>2026-04-11T07:23:48.001Z</time></trkpt><trkpt lat="38.18336869012524" lon="15.757431750219709"><ele>874.0</ele><time>2026-04-11T07:23:49.001Z</time></trkpt><trkpt lat="38.18332099344519" lon="15.757500959265544"><ele>873.9999999999999</ele><time>2026-04-11T07:23:50.001Z</time></trkpt><trkpt lat="38.18329166934316" lon="15.757580495410494"><ele>874.0</ele><time>2026-04-11T07:23:51.001Z</time></trkpt><trkpt lat="38.18323492601849" lon="15.757633731055172"><ele>874.0</ele><time>2026-04-11T07:23:52.001Z</time></trkpt><trkpt lat="38.18316855928481" lon="15.75768098590477"><ele>874.0</ele><time>2026-04-11T07:23:53.001Z</time></trkpt><trkpt lat="38.18309145487977" lon="15.757709651018347"><ele>873.9999999999999</ele><time>2026-04-11T07:23:54.001Z</time></trkpt><trkpt lat="38.18302572006435" lon="15.757737342685774"><ele>874.0</ele><time>2026-04-11T07:23:55.001Z</time></trkpt><trkpt lat="38.18294293889289" lon="15.757806859077588"><ele>873.1666666666666</ele><time>2026-04-11T07:23:57.001Z</time></trkpt><trkpt lat="38.18291384734118" lon="15.757887853582552"><ele>872.3333333333333</ele><time>2026-04-11T07:23:59.001Z</time></trkpt><trkpt lat="38.182951446812545" lon="15.757969373470196"><ele>871.5</ele><time>2026-04-11T07:24:01.001Z</time></trkpt><trkpt lat="38.18304278174018" lon="15.75796097984535"><ele>870.6666666666667</ele><time>2026-04-11T07:24:03.001Z</time></trkpt><trkpt lat="38.183131090473616" lon="15.75790034635364"><ele>869.8333333333334</ele><time>2026-04-11T07:24:05.001Z</time></trkpt><trkpt lat="38.18319112375681" lon="15.75787313068458"><ele>869.0</ele><time>2026-04-11T07:24:06.001Z</time></trkpt><trkpt lat="38.183259590926276" lon="15.757836415290738"><ele>869.0000000000001</ele><time>2026-04-11T07:24:07.001Z</time></trkpt><trkpt lat="38.1833374623766" lon="15.757810933674257"><ele>869.0</ele><time>2026-04-11T07:24:08.001Z</time></trkpt><trkpt lat="38.18341307120347" lon="15.75780310680963"><ele>869.0</ele><time>2026-04-11T07:24:09Z</time></trkpt><trkpt lat="38.183492363503326" lon="15.757799025974078"><ele>869.0</ele><time>2026-04-11T07:24:10Z</time></trkpt><trkpt lat="38.18356899506419" lon="15.757802695263862"><ele>869.0000000000001</ele><time>2026-04-11T07:24:11Z</time></trkpt><trkpt lat="38.18364896547448" lon="15.757802738481828"><ele>869.0</ele><time>2026-04-11T07:24:12Z</time></trkpt><trkpt lat="38.183720723459224" lon="15.757802482766033"><ele>869.0</ele><time>2026-04-11T07:24:13Z</time></trkpt><trkpt lat="38.18385587853943" lon="15.757790042060547"><ele>869.0000000000001</ele><time>2026-04-11T07:24:15Z</time></trkpt><trkpt lat="38.183936082408444" lon="15.757879026330146"><ele>869.0000000000001</ele><time>2026-04-11T07:24:17Z</time></trkpt><trkpt lat="38.18402611059885" lon="15.757991685866978"><ele>869.0</ele><time>2026-04-11T07:24:19Z</time></trkpt><trkpt lat="38.184071586644286" lon="15.758070746631695"><ele>869.0</ele><time>2026-04-11T07:24:20Z</time></trkpt><trkpt lat="38.18411188088866" lon="15.758152965755247"><ele>873.6</ele><time>2026-04-11T07:24:21Z</time></trkpt><trkpt lat="38.18415728172846" lon="15.758244178783746"><ele>878.2</ele><time>2026-04-11T07:24:22Z</time></trkpt><trkpt lat="38.18420146698124" lon="15.758352574758208"><ele>882.8000000000001</ele><time>2026-04-11T07:24:23Z</time></trkpt><trkpt lat="38.18423919223995" lon="15.758434236719856"><ele>887.4000000000001</ele><time>2026-04-11T07:24:24Z</time></trkpt><trkpt lat="38.18431476996299" lon="15.758534215299031"><ele>892.0</ele><time>2026-04-11T07:24:26Z</time></trkpt><trkpt lat="38.18445402649241" lon="15.75852713889527"><ele>891.9999999999999</ele><time>2026-04-11T07:24:28Z</time></trkpt><trkpt lat="38.18453437418335" lon="15.758513610351377"><ele>892.0</ele><time>2026-04-11T07:24:29Z</time></trkpt><trkpt lat="38.18462707484142" lon="15.758521080368514"><ele>892.0</ele><time>2026-04-11T07:24:30Z</time></trkpt><trkpt lat="38.18469327875202" lon="15.758519847322406"><ele>892.0</ele><time>2026-04-11T07:24:31Z</time></trkpt><trkpt lat="38.18477696964733" lon="15.758539853609163"><ele>891.9999999999999</ele><time>2026-04-11T07:24:32Z</time></trkpt><trkpt lat="38.184837030277436" lon="15.758610451135175"><ele>892.0</ele><time>2026-04-11T07:24:33Z</time></trkpt><trkpt lat="38.18492493357852" lon="15.758639938345189"><ele>887.8333333333333</ele><time>2026-04-11T07:24:34Z</time></trkpt><trkpt lat="38.18500405700954" lon="15.758639038662876"><ele>883.6666666666666</ele><time>2026-04-11T07:24:35Z</time></trkpt><trkpt lat="38.18507495347802" lon="15.75864171161132"><ele>879.5</ele><time>2026-04-11T07:24:36Z</time></trkpt><trkpt lat="38.18516448977814" lon="15.75866248279904"><ele>875.3333333333333</ele><time>2026-04-11T07:24:37Z</time></trkpt><trkpt lat="38.185244671032464" lon="15.758696393015638"><ele>871.1666666666666</ele><time>2026-04-11T07:24:38Z</time></trkpt><trkpt lat="38.18530241557057" lon="15.758752181310452"><ele>867.0</ele><time>2026-04-11T07:24:39Z</time></trkpt><trkpt lat="38.18536333703819" lon="15.758827521057746"><ele>867.0</ele><time>2026-04-11T07:24:40Z</time></trkpt><trkpt lat="38.185409783885824" lon="15.758896506931306"><ele>867.0</ele><time>2026-04-11T07:24:41Z</time></trkpt><trkpt lat="38.185443948280785" lon="15.758969998964146"><ele>867.0</ele><time>2026-04-11T07:24:42Z</time></trkpt><trkpt lat="38.185465833327235" lon="15.759061237889929"><ele>867.0</ele><time>2026-04-11T07:24:43Z</time></trkpt><trkpt lat="38.185492039794696" lon="15.759179216002314"><ele>867.0</ele><time>2026-04-11T07:24:44Z</time></trkpt><trkpt lat="38.18552304744502" lon="15.759309927780786"><ele>867.0</ele><time>2026-04-11T07:24:45Z</time></trkpt><trkpt lat="38.18556558001832" lon="15.759420034235168"><ele>862.2</ele><time>2026-04-11T07:24:46Z</time></trkpt><trkpt lat="38.18560676137032" lon="15.75950737705101"><ele>857.4000000000001</ele><time>2026-04-11T07:24:47Z</time></trkpt><trkpt lat="38.18565302358998" lon="15.759569592946118"><ele>852.5999999999999</ele><time>2026-04-11T07:24:48Z</time></trkpt><trkpt lat="38.1856774339804" lon="15.759679056021602"><ele>847.8</ele><time>2026-04-11T07:24:50Z</time></trkpt><trkpt lat="38.185587513227944" lon="15.759830567413635"><ele>843.0</ele><time>2026-04-11T07:24:52Z</time></trkpt><trkpt lat="38.185526215907636" lon="15.75991589606609"><ele>843.0</ele><time>2026-04-11T07:24:53Z</time></trkpt><trkpt lat="38.185474882948995" lon="15.76001558671187"><ele>843.0</ele><time>2026-04-11T07:24:54Z</time></trkpt><trkpt lat="38.185444674196745" lon="15.760128649788221"><ele>843.0</ele><time>2026-04-11T07:24:55Z</time></trkpt><trkpt lat="38.18542505362458" lon="15.760251870396802"><ele>843.0</ele><time>2026-04-11T07:24:56Z</time></trkpt><trkpt lat="38.185425328349424" lon="15.760357003894331"><ele>843.0</ele><time>2026-04-11T07:24:57Z</time></trkpt><trkpt lat="38.18542925612193" lon="15.760486289854844"><ele>842.1666666666666</ele><time>2026-04-11T07:24:58Z</time></trkpt><trkpt lat="38.18543543289335" lon="15.760603072814348"><ele>841.3333333333333</ele><time>2026-04-11T07:24:59Z</time></trkpt><trkpt lat="38.185445292735324" lon="15.76070470706609"><ele>840.5</ele><time>2026-04-11T07:25:00Z</time></trkpt><trkpt lat="38.185514158166754" lon="15.760786301977992"><ele>839.6666666666666</ele><time>2026-04-11T07:25:02Z</time></trkpt><trkpt lat="38.185598812136256" lon="15.760808971036713"><ele>838.8333333333333</ele><time>2026-04-11T07:25:03Z</time></trkpt><trkpt lat="38.1856842963252" lon="15.76081953384531"><ele>838.0</ele><time>2026-04-11T07:25:04Z</time></trkpt><trkpt lat="38.18577428867075" lon="15.76079741837932"><ele>843.5999999999999</ele><time>2026-04-11T07:25:05Z</time></trkpt><trkpt lat="38.1858641867979" lon="15.760767672308512"><ele>849.1999999999999</ele><time>2026-04-11T07:25:06Z</time></trkpt><trkpt lat="38.18599591055163" lon="15.760743703048787"><ele>854.8</ele><time>2026-04-11T07:25:07Z</time></trkpt><trkpt lat="38.18611034281648" lon="15.760713309369752"><ele>860.4</ele><time>2026-04-11T07:25:08Z</time></trkpt><trkpt lat="38.18619503053198" lon="15.760704097371981"><ele>866.0</ele><time>2026-04-11T07:25:09Z</time></trkpt><trkpt lat="38.1862843206282" lon="15.760732736672301"><ele>866.0</ele><time>2026-04-11T07:25:10Z</time></trkpt><trkpt lat="38.18636618632178" lon="15.760783347367349"><ele>865.9999999999999</ele><time>2026-04-11T07:25:11Z</time></trkpt><trkpt lat="38.18644901276804" lon="15.760860600426092"><ele>865.9999999999999</ele><time>2026-04-11T07:25:12Z</time></trkpt><trkpt lat="38.18654416518908" lon="15.760967337954888"><ele>866.0</ele><time>2026-04-11T07:25:13Z</time></trkpt><trkpt lat="38.18664018754728" lon="15.76104179975223"><ele>866.0</ele><time>2026-04-11T07:25:14Z</time></trkpt><trkpt lat="38.18670151780275" lon="15.76108151863024"><ele>864.5000000000001</ele><time>2026-04-11T07:25:15Z</time></trkpt><trkpt lat="38.186769313530355" lon="15.76107544814673"><ele>863.0</ele><time>2026-04-11T07:25:16Z</time></trkpt><trkpt lat="38.18685483070909" lon="15.761048079458636"><ele>861.5</ele><time>2026-04-11T07:25:17Z</time></trkpt><trkpt lat="38.18695032045811" lon="15.761011631681555"><ele>860.0</ele><time>2026-04-11T07:25:18Z</time></trkpt><trkpt lat="38.18701669552554" lon="15.760995227485013"><ele>858.5000000000001</ele><time>2026-04-11T07:25:19Z</time></trkpt><trkpt lat="38.187078665376866" lon="15.761021059468565"><ele>857.0</ele><time>2026-04-11T07:25:20Z</time></trkpt><trkpt lat="38.18714304692633" lon="15.761030825700631"><ele>857.0</ele><time>2026-04-11T07:25:23Z</time></trkpt><trkpt lat="38.187170041530365" lon="15.7611527740087"><ele>857.0</ele><time>2026-04-11T07:25:25Z</time></trkpt><trkpt lat="38.18717741746251" lon="15.761311545629008"><ele>857.0</ele><time>2026-04-11T07:25:27.001Z</time></trkpt><trkpt lat="38.18718866255708" lon="15.761402201046273"><ele>857.0</ele><time>2026-04-11T07:25:28.001Z</time></trkpt><trkpt lat="38.18720082852258" lon="15.761513012215078"><ele>857.0</ele><time>2026-04-11T07:25:29.001Z</time></trkpt><trkpt lat="38.18724589531065" lon="15.761640023908225"><ele>857.0000000000001</ele><time>2026-04-11T07:25:31.001Z</time></trkpt><trkpt lat="38.18730865972177" lon="15.761717409622033"><ele>857.0</ele><time>2026-04-11T07:25:32.001Z</time></trkpt><trkpt lat="38.18737828086156" lon="15.761805487117272"><ele>857.0</ele><time>2026-04-11T07:25:33.001Z</time></trkpt><trkpt lat="38.187399541158804" lon="15.761895502568432"><ele>857.0</ele><time>2026-04-11T07:25:34.001Z</time></trkpt><trkpt lat="38.18738956111518" lon="15.76198294332022"><ele>857.0000000000001</ele><time>2026-04-11T07:25:35.001Z</time></trkpt><trkpt lat="38.18736620033356" lon="15.762103249761772"><ele>857.0</ele><time>2026-04-11T07:25:36.001Z</time></trkpt><trkpt lat="38.187372042638614" lon="15.762203061706847"><ele>859.8</ele><time>2026-04-11T07:25:37.001Z</time></trkpt><trkpt lat="38.187416787522466" lon="15.762289002291467"><ele>862.6</ele><time>2026-04-11T07:25:38.001Z</time></trkpt><trkpt lat="38.187474901416316" lon="15.762381714565649"><ele>865.3999999999999</ele><time>2026-04-11T07:25:39.001Z</time></trkpt><trkpt lat="38.18740671915391" lon="15.76247966719046"><ele>868.1999999999999</ele><time>2026-04-11T07:25:42.001Z</time></trkpt><trkpt lat="38.18734738949828" lon="15.762606894077399"><ele>871.0</ele><time>2026-04-11T07:25:43.001Z</time></trkpt><trkpt lat="38.18727383345103" lon="15.76270091660477"><ele>871.0</ele><time>2026-04-11T07:25:44.001Z</time></trkpt><trkpt lat="38.18720068523096" lon="15.762722540281892"><ele>870.9999999999999</ele><time>2026-04-11T07:25:45.001Z</time></trkpt><trkpt lat="38.18710116849993" lon="15.762738874499469"><ele>870.9999999999999</ele><time>2026-04-11T07:25:46.001Z</time></trkpt><trkpt lat="38.18702013697428" lon="15.7627774923351"><ele>871.0</ele><time>2026-04-11T07:25:47.001Z</time></trkpt><trkpt lat="38.186955471122424" lon="15.762861488500851"><ele>871.0</ele><time>2026-04-11T07:25:48.001Z</time></trkpt><trkpt lat="38.186882181550494" lon="15.762971441783877"><ele>871.0</ele><time>2026-04-11T07:25:49.001Z</time></trkpt><trkpt lat="38.18677801274583" lon="15.763065727730863"><ele>870.9999999999999</ele><time>2026-04-11T07:25:50.001Z</time></trkpt><trkpt lat="38.186714660505835" lon="15.763159090441038"><ele>870.9999999999999</ele><time>2026-04-11T07:25:51.001Z</time></trkpt><trkpt lat="38.18668376529947" lon="15.763232006806943"><ele>871.0</ele><time>2026-04-11T07:25:52.001Z</time></trkpt><trkpt lat="38.1867122562713" lon="15.763372561628321"><ele>871.0</ele><time>2026-04-11T07:25:54.001Z</time></trkpt><trkpt lat="38.18674575340785" lon="15.763466978928275"><ele>873.4</ele><time>2026-04-11T07:25:55.001Z</time></trkpt><trkpt lat="38.18679512739548" lon="15.763591477755702"><ele>875.8</ele><time>2026-04-11T07:25:56.001Z</time></trkpt><trkpt lat="38.18683872155224" lon="15.76373374671453"><ele>878.1999999999999</ele><time>2026-04-11T07:25:57.001Z</time></trkpt><trkpt lat="38.18687278521424" lon="15.763861777897935"><ele>880.5999999999999</ele><time>2026-04-11T07:25:58.001Z</time></trkpt><trkpt lat="38.18689438652197" lon="15.76397165232432"><ele>883.0</ele><time>2026-04-11T07:25:59.001Z</time></trkpt><trkpt lat="38.186926340358866" lon="15.764094274113265"><ele>883.0</ele><time>2026-04-11T07:26:01.001Z</time></trkpt><trkpt lat="38.18688471738055" lon="15.764177296796998"><ele>883.0</ele><time>2026-04-11T07:26:04.001Z</time></trkpt><trkpt lat="38.186947401719756" lon="15.76426295796255"><ele>883.0</ele><time>2026-04-11T07:26:35Z</time></trkpt><trkpt lat="38.18696247814826" lon="15.764361365002213"><ele>883.0</ele><time>2026-04-11T07:26:37Z</time></trkpt><trkpt lat="38.186931408263014" lon="15.76450075118551"><ele>883.0</ele><time>2026-04-11T07:26:39Z</time></trkpt><trkpt lat="38.18691963780807" lon="15.76475772092879"><ele>886.25</ele><time>2026-04-11T07:26:41Z</time></trkpt><trkpt lat="38.186912246619166" lon="15.764925681080873"><ele>889.5</ele><time>2026-04-11T07:26:42Z</time></trkpt><trkpt lat="38.186939267382016" lon="15.765079515046407"><ele>892.75</ele><time>2026-04-11T07:26:43Z</time></trkpt><trkpt lat="38.187034399013186" lon="15.76518254550507"><ele>896.0</ele><time>2026-04-11T07:26:44Z</time></trkpt><trkpt lat="38.187091468729506" lon="15.7653203931555"><ele>900.25</ele><time>2026-04-11T07:26:45Z</time></trkpt><trkpt lat="38.18712720524635" lon="15.765500894417663"><ele>904.5</ele><time>2026-04-11T07:26:46Z</time></trkpt><trkpt lat="38.18715836740421" lon="15.76563018764335"><ele>908.75</ele><time>2026-04-11T07:26:47Z</time></trkpt><trkpt lat="38.1871735580358" lon="15.765737070309997"><ele>913.0</ele><time>2026-04-11T07:26:48Z</time></trkpt><trkpt lat="38.18722684791335" lon="15.765902497541274"><ele>913.2</ele><time>2026-04-11T07:26:49Z</time></trkpt><trkpt lat="38.18721486508702" lon="15.76604483360251"><ele>913.4</ele><time>2026-04-11T07:26:50Z</time></trkpt><trkpt lat="38.18721308011855" lon="15.76612645433933"><ele>913.6000000000001</ele><time>2026-04-11T07:26:51Z</time></trkpt><trkpt lat="38.1872345194364" lon="15.766217779941575"><ele>913.8000000000001</ele><time>2026-04-11T07:26:52Z</time></trkpt><trkpt lat="38.187280864864356" lon="15.7663420713147"><ele>914.0</ele><time>2026-04-11T07:26:53Z</time></trkpt><trkpt lat="38.18735817430548" lon="15.766496715951737"><ele>914.0</ele><time>2026-04-11T07:26:54Z</time></trkpt><trkpt lat="38.187459068264474" lon="15.766549649450047"><ele>914.0</ele><time>2026-04-11T07:26:55Z</time></trkpt><trkpt lat="38.18752316416327" lon="15.766645427618938"><ele>914.0</ele><time>2026-04-11T07:26:56Z</time></trkpt><trkpt lat="38.18759578241707" lon="15.766776946086283"><ele>914.0</ele><time>2026-04-11T07:26:57Z</time></trkpt><trkpt lat="38.18762375477768" lon="15.766926617944137"><ele>917.6</ele><time>2026-04-11T07:26:58Z</time></trkpt><trkpt lat="38.18765549921663" lon="15.767022348871686"><ele>921.2</ele><time>2026-04-11T07:26:59Z</time></trkpt><trkpt lat="38.18769948838136" lon="15.76713690393434"><ele>924.8000000000001</ele><time>2026-04-11T07:27:00Z</time></trkpt><trkpt lat="38.18774908810165" lon="15.767248631827313"><ele>928.4000000000001</ele><time>2026-04-11T07:27:01Z</time></trkpt><trkpt lat="38.18776578511835" lon="15.767373862060918"><ele>932.0</ele><time>2026-04-11T07:27:02Z</time></trkpt><trkpt lat="38.1877690807987" lon="15.767524995762937"><ele>934.75</ele><time>2026-04-11T07:27:03Z</time></trkpt><trkpt lat="38.1877778135693" lon="15.767701429980697"><ele>937.5</ele><time>2026-04-11T07:27:04Z</time></trkpt><trkpt lat="38.18777840615417" lon="15.767862578068545"><ele>940.25</ele><time>2026-04-11T07:27:05Z</time></trkpt><trkpt lat="38.18777999286496" lon="15.768006419823573"><ele>943.0</ele><time>2026-04-11T07:27:06Z</time></trkpt><trkpt lat="38.187784389181594" lon="15.768123955656867"><ele>942.9999999999999</ele><time>2026-04-11T07:27:07Z</time></trkpt><trkpt lat="38.187772427846184" lon="15.768241525376137"><ele>943.0</ele><time>2026-04-11T07:27:08Z</time></trkpt><trkpt lat="38.18779738772873" lon="15.768343283618094"><ele>943.0</ele><time>2026-04-11T07:27:09Z</time></trkpt><trkpt lat="38.18780054835161" lon="15.768430343731996"><ele>943.0</ele><time>2026-04-11T07:27:11Z</time></trkpt><trkpt lat="38.187716163740085" lon="15.768403154501497"><ele>942.9999999999999</ele><time>2026-04-11T07:27:14Z</time></trkpt><trkpt lat="38.18767488156787" lon="15.76833794989584"><ele>943.0</ele><time>2026-04-11T07:27:18Z</time></trkpt><trkpt lat="38.187665520917975" lon="15.768248086367121"><ele>942.9999999999999</ele><time>2026-04-11T07:27:20Z</time></trkpt><trkpt lat="38.18765257727996" lon="15.768155696830709"><ele>943.0</ele><time>2026-04-11T07:27:22Z</time></trkpt><trkpt lat="38.18760814136192" lon="15.768058464876635"><ele>943.0</ele><time>2026-04-11T07:27:25Z</time></trkpt><trkpt lat="38.18757744051204" lon="15.767980257243885"><ele>943.0</ele><time>2026-04-11T07:27:27Z</time></trkpt><trkpt lat="38.18753717172723" lon="15.767881746625884"><ele>942.9999999999999</ele><time>2026-04-11T07:27:29Z</time></trkpt><trkpt lat="38.18749262946806" lon="15.767802919763012"><ele>943.0</ele><time>2026-04-11T07:27:31Z</time></trkpt><trkpt lat="38.187447532964555" lon="15.767680878351063"><ele>944.5</ele><time>2026-04-11T07:27:33Z</time></trkpt><trkpt lat="38.18736813194705" lon="15.767540590580289"><ele>946.0</ele><time>2026-04-11T07:27:35Z</time></trkpt><trkpt lat="38.1872985209554" lon="15.767421493531236"><ele>947.5</ele><time>2026-04-11T07:27:36Z</time></trkpt><trkpt lat="38.1872349248997" lon="15.767285515869034"><ele>949.0</ele><time>2026-04-11T07:27:37Z</time></trkpt><trkpt lat="38.187171293047655" lon="15.76714084495712"><ele>949.0</ele><time>2026-04-11T07:27:38Z</time></trkpt><trkpt lat="38.18708729821719" lon="15.76701505299247"><ele>949.0000000000001</ele><time>2026-04-11T07:27:39Z</time></trkpt><trkpt lat="38.187038108093745" lon="15.766919313739225"><ele>949.0000000000001</ele><time>2026-04-11T07:27:40Z</time></trkpt><trkpt lat="38.18697478824608" lon="15.766881990668553"><ele>949.0</ele><time>2026-04-11T07:27:41Z</time></trkpt><trkpt lat="38.186907749014175" lon="15.766876953580791"><ele>949.0</ele><time>2026-04-11T07:27:42Z</time></trkpt><trkpt lat="38.1868096333807" lon="15.766879456829377"><ele>949.0</ele><time>2026-04-11T07:27:43Z</time></trkpt><trkpt lat="38.18670606801397" lon="15.76691606473809"><ele>949.0000000000001</ele><time>2026-04-11T07:27:44Z</time></trkpt><trkpt lat="38.18663697490266" lon="15.766934756516273"><ele>949.0000000000001</ele><time>2026-04-11T07:27:45Z</time></trkpt><trkpt lat="38.186581320760865" lon="15.766981613151238"><ele>949.0</ele><time>2026-04-11T07:27:47Z</time></trkpt><trkpt lat="38.18654722994178" lon="15.767128378892318"><ele>949.0</ele><time>2026-04-11T07:27:49Z</time></trkpt><trkpt lat="38.186515479801784" lon="15.767270509310375"><ele>942.0</ele><time>2026-04-11T07:27:50Z</time></trkpt><trkpt lat="38.18649901235427" lon="15.767407519502296"><ele>935.0</ele><time>2026-04-11T07:27:51Z</time></trkpt><trkpt lat="38.186482618298356" lon="15.767547752199901"><ele>928.0</ele><time>2026-04-11T07:27:52Z</time></trkpt><trkpt lat="38.186460377246476" lon="15.767699409053737"><ele>921.0</ele><time>2026-04-11T07:27:53.001Z</time></trkpt><trkpt lat="38.186438764259705" lon="15.767907114523574"><ele>921.0</ele><time>2026-04-11T07:27:54.001Z</time></trkpt><trkpt lat="38.186442446869755" lon="15.768105151369113"><ele>921.0</ele><time>2026-04-11T07:27:55.001Z</time></trkpt><trkpt lat="38.18644767709613" lon="15.76826530097126"><ele>921.0</ele><time>2026-04-11T07:27:56.001Z</time></trkpt><trkpt lat="38.1864303688227" lon="15.768380190720917"><ele>921.0</ele><time>2026-04-11T07:27:57.001Z</time></trkpt><trkpt lat="38.186405852310884" lon="15.768538532364694"><ele>928.0</ele><time>2026-04-11T07:27:58.001Z</time></trkpt><trkpt lat="38.186357296727316" lon="15.768689788985823"><ele>935.0</ele><time>2026-04-11T07:27:59.001Z</time></trkpt><trkpt lat="38.18631993846086" lon="15.76885397870451"><ele>942.0</ele><time>2026-04-11T07:28:00.001Z</time></trkpt><trkpt lat="38.18627766967812" lon="15.76899496389551"><ele>949.0</ele><time>2026-04-11T07:28:01.001Z</time></trkpt><trkpt lat="38.186238335267376" lon="15.769104621274229"><ele>949.0</ele><time>2026-04-11T07:28:02.001Z</time></trkpt><trkpt lat="38.18616377460829" lon="15.76923154646651"><ele>949.0000000000001</ele><time>2026-04-11T07:28:03.001Z</time></trkpt><trkpt lat="38.186105598732226" lon="15.76935081728944"><ele>949.0000000000001</ele><time>2026-04-11T07:28:04.001Z</time></trkpt><trkpt lat="38.18607231711118" lon="15.769462345330906"><ele>949.0</ele><time>2026-04-11T07:28:05.001Z</time></trkpt><trkpt lat="38.18603840513929" lon="15.769558262119988"><ele>949.0</ele><time>2026-04-11T07:28:06.001Z</time></trkpt><trkpt lat="38.18598803426871" lon="15.769628687522921"><ele>948.6</ele><time>2026-04-11T07:28:07.001Z</time></trkpt><trkpt lat="38.18591794572349" lon="15.769662965036199"><ele>948.2</ele><time>2026-04-11T07:28:08.001Z</time></trkpt><trkpt lat="38.1858311916883" lon="15.769657039066267"><ele>947.8000000000001</ele><time>2026-04-11T07:28:09.001Z</time></trkpt><trkpt lat="38.18574501186222" lon="15.76965711482713"><ele>947.4000000000001</ele><time>2026-04-11T07:28:10.001Z</time></trkpt><trkpt lat="38.18565836366039" lon="15.76973862325335"><ele>947.0</ele><time>2026-04-11T07:28:12.001Z</time></trkpt><trkpt lat="38.18561059237195" lon="15.769932521642916"><ele>947.0</ele><time>2026-04-11T07:28:14.001Z</time></trkpt><trkpt lat="38.18559695538969" lon="15.770069326868917"><ele>947.0</ele><time>2026-04-11T07:28:15.001Z</time></trkpt><trkpt lat="38.1855951530784" lon="15.770189898078012"><ele>947.0</ele><time>2026-04-11T07:28:16.001Z</time></trkpt><trkpt lat="38.18560145238534" lon="15.770310485036685"><ele>947.0</ele><time>2026-04-11T07:28:17.001Z</time></trkpt><trkpt lat="38.185610163295095" lon="15.770412862820901"><ele>947.0</ele><time>2026-04-11T07:28:18.001Z</time></trkpt><trkpt lat="38.18561943251059" lon="15.77053273948315"><ele>954.1666666666667</ele><time>2026-04-11T07:28:19.001Z</time></trkpt><trkpt lat="38.18563917478915" lon="15.770647819293098"><ele>961.3333333333334</ele><time>2026-04-11T07:28:20.001Z</time></trkpt><trkpt lat="38.185641292492235" lon="15.770741329622954"><ele>968.5</ele><time>2026-04-11T07:28:21Z</time></trkpt><trkpt lat="38.18565338152783" lon="15.770820467297323"><ele>975.6666666666667</ele><time>2026-04-11T07:28:22Z</time></trkpt><trkpt lat="38.18560808278047" lon="15.770906163592164"><ele>982.8333333333334</ele><time>2026-04-11T07:28:23Z</time></trkpt><trkpt lat="38.18555268187118" lon="15.770979548185913"><ele>990.0</ele><time>2026-04-11T07:28:24Z</time></trkpt><trkpt lat="38.18549491548258" lon="15.771071074540405"><ele>997.6</ele><time>2026-04-11T07:28:25Z</time></trkpt><trkpt lat="38.18540775392737" lon="15.771144855682987"><ele>1005.2</ele><time>2026-04-11T07:28:26Z</time></trkpt><trkpt lat="38.18532603732675" lon="15.77117827165523"><ele>1012.8</ele><time>2026-04-11T07:28:27Z</time></trkpt><trkpt lat="38.18521677899819" lon="15.771197825666867"><ele>1020.4</ele><time>2026-04-11T07:28:28Z</time></trkpt><trkpt lat="38.18512621494282" lon="15.771228265289183"><ele>1028.0</ele><time>2026-04-11T07:28:29Z</time></trkpt><trkpt lat="38.185045049429355" lon="15.771254352720634"><ele>1028.0</ele><time>2026-04-11T07:28:30Z</time></trkpt><trkpt lat="38.18489734401763" lon="15.771244384585268"><ele>1028.0</ele><time>2026-04-11T07:28:31Z</time></trkpt><trkpt lat="38.18481417847867" lon="15.771216034837911"><ele>1028.0</ele><time>2026-04-11T07:28:32Z</time></trkpt><trkpt lat="38.18472613892524" lon="15.77117954144591"><ele>1028.0</ele><time>2026-04-11T07:28:33Z</time></trkpt><trkpt lat="38.18462201992809" lon="15.771142774744487"><ele>1028.0</ele><time>2026-04-11T07:28:34Z</time></trkpt><trkpt lat="38.18450940710546" lon="15.771134554015013"><ele>1028.25</ele><time>2026-04-11T07:28:35Z</time></trkpt><trkpt lat="38.1843825822076" lon="15.771176664703317"><ele>1028.5</ele><time>2026-04-11T07:28:36Z</time></trkpt><trkpt lat="38.18425694540444" lon="15.77123026932816"><ele>1028.75</ele><time>2026-04-11T07:28:37Z</time></trkpt><trkpt lat="38.184109595780676" lon="15.771268062014789"><ele>1029.0</ele><time>2026-04-11T07:28:38Z</time></trkpt><trkpt lat="38.18397516350808" lon="15.771290787876817"><ele>1026.5</ele><time>2026-04-11T07:28:39Z</time></trkpt><trkpt lat="38.18386229576422" lon="15.771304382347635"><ele>1024.0</ele><time>2026-04-11T07:28:40Z</time></trkpt><trkpt lat="38.18379427052328" lon="15.771359201404444"><ele>1021.5</ele><time>2026-04-11T07:28:41Z</time></trkpt><trkpt lat="38.1836981595116" lon="15.771450657352453"><ele>1019.0</ele><time>2026-04-11T07:28:42Z</time></trkpt><trkpt lat="38.1835474929274" lon="15.771528448521794"><ele>1019.0</ele><time>2026-04-11T07:28:43Z</time></trkpt><trkpt lat="38.18339658070763" lon="15.771550218330583"><ele>1019.0</ele><time>2026-04-11T07:28:44Z</time></trkpt><trkpt lat="38.183246613703545" lon="15.77157947030341"><ele>1019.0</ele><time>2026-04-11T07:28:45Z</time></trkpt><trkpt lat="38.183112947481185" lon="15.771612850072207"><ele>1019.0</ele><time>2026-04-11T07:28:46Z</time></trkpt><trkpt lat="38.18299278341336" lon="15.77163982977208"><ele>1020.5000000000001</ele><time>2026-04-11T07:28:47Z</time></trkpt><trkpt lat="38.18290796264783" lon="15.771661029127763"><ele>1022.0</ele><time>2026-04-11T07:28:48Z</time></trkpt><trkpt lat="38.18283911704993" lon="15.771690848332002"><ele>1023.5</ele><time>2026-04-11T07:28:50Z</time></trkpt><trkpt lat="38.182887636221096" lon="15.771756011140626"><ele>1025.0</ele><time>2026-04-11T07:28:53Z</time></trkpt><trkpt lat="38.18298384015267" lon="15.771836368055181"><ele>1026.5</ele><time>2026-04-11T07:28:55Z</time></trkpt><trkpt lat="38.18304637467785" lon="15.77185580985905"><ele>1028.0</ele><time>2026-04-11T07:28:56Z</time></trkpt><trkpt lat="38.1831102055213" lon="15.771864852476845"><ele>1026.2</ele><time>2026-04-11T07:28:57Z</time></trkpt><trkpt lat="38.18318731765539" lon="15.771834595287848"><ele>1024.4</ele><time>2026-04-11T07:28:58Z</time></trkpt><trkpt lat="38.1832775709791" lon="15.771824417086826"><ele>1022.6000000000001</ele><time>2026-04-11T07:28:59Z</time></trkpt><trkpt lat="38.18335107531772" lon="15.7718359326198"><ele>1020.8000000000001</ele><time>2026-04-11T07:29:00Z</time></trkpt><trkpt lat="38.183474181648144" lon="15.771777897849445"><ele>1019.0</ele><time>2026-04-11T07:29:02Z</time></trkpt><trkpt lat="38.183587699111015" lon="15.77170373698755"><ele>1019.0000000000001</ele><time>2026-04-11T07:29:04Z</time></trkpt><trkpt lat="38.183675917730824" lon="15.771707206213119"><ele>1019.0</ele><time>2026-04-11T07:29:05Z</time></trkpt><trkpt lat="38.18378162647699" lon="15.771697651119625"><ele>1019.0</ele><time>2026-04-11T07:29:06Z</time></trkpt><trkpt lat="38.18385185473946" lon="15.771691056027601"><ele>1019.0</ele><time>2026-04-11T07:29:07Z</time></trkpt><trkpt lat="38.183926327573786" lon="15.771652132141421"><ele>1019.0000000000001</ele><time>2026-04-11T07:29:08Z</time></trkpt><trkpt lat="38.18401112099186" lon="15.771623996038945"><ele>1019.0</ele><time>2026-04-11T07:29:09Z</time></trkpt><trkpt lat="38.18409886188662" lon="15.77161452717129"><ele>1020.4285714285716</ele><time>2026-04-11T07:29:10Z</time></trkpt><trkpt lat="38.184177837076355" lon="15.771613319809155"><ele>1021.8571428571429</ele><time>2026-04-11T07:29:11Z</time></trkpt><trkpt lat="38.18424315559292" lon="15.771618605480315"><ele>1023.2857142857143</ele><time>2026-04-11T07:29:12Z</time></trkpt><trkpt lat="38.18434508827121" lon="15.771602258217515"><ele>1024.7142857142858</ele><time>2026-04-11T07:29:14Z</time></trkpt><trkpt lat="38.18441270708839" lon="15.77162750337264"><ele>1026.142857142857</ele><time>2026-04-11T07:29:15Z</time></trkpt><trkpt lat="38.1844760483946" lon="15.771658488039389"><ele>1027.5714285714287</ele><time>2026-04-11T07:29:16Z</time></trkpt><trkpt lat="38.184531518620226" lon="15.771698746058668"><ele>1029.0</ele><time>2026-04-11T07:29:17Z</time></trkpt><trkpt lat="38.18461112797482" lon="15.771819649901245"><ele>1032.1666666666667</ele><time>2026-04-11T07:29:19Z</time></trkpt><trkpt lat="38.18465698291063" lon="15.771874564980262"><ele>1035.3333333333333</ele><time>2026-04-11T07:29:21Z</time></trkpt><trkpt lat="38.184773176434184" lon="15.77191672253651"><ele>1038.5</ele><time>2026-04-11T07:29:23Z</time></trkpt><trkpt lat="38.184858677755855" lon="15.771992736024703"><ele>1041.6666666666665</ele><time>2026-04-11T07:29:25Z</time></trkpt><trkpt lat="38.18489591358316" lon="15.77206880708939"><ele>1044.8333333333333</ele><time>2026-04-11T07:29:26Z</time></trkpt><trkpt lat="38.18494447554308" lon="15.772133993845724"><ele>1048.0</ele><time>2026-04-11T07:29:27Z</time></trkpt><trkpt lat="38.185022359201355" lon="15.772207623855836"><ele>1048.0</ele><time>2026-04-11T07:29:29Z</time></trkpt><trkpt lat="38.18513023680837" lon="15.772254668518087"><ele>1048.0</ele><time>2026-04-11T07:29:31Z</time></trkpt><trkpt lat="38.18520872776008" lon="15.772287623795554"><ele>1048.0</ele><time>2026-04-11T07:29:32Z</time></trkpt><trkpt lat="38.18531127478911" lon="15.772287655555921"><ele>1048.0</ele><time>2026-04-11T07:29:33Z</time></trkpt><trkpt lat="38.18539983135877" lon="15.772289755775073"><ele>1048.0</ele><time>2026-04-11T07:29:34Z</time></trkpt><trkpt lat="38.1854708120211" lon="15.772284572275113"><ele>1048.0</ele><time>2026-04-11T07:29:35Z</time></trkpt><trkpt lat="38.18554755045731" lon="15.772283909625544"><ele>1048.0</ele><time>2026-04-11T07:29:36.001Z</time></trkpt><trkpt lat="38.18558583618108" lon="15.772375846320154"><ele>1048.0</ele><time>2026-04-11T07:29:38.001Z</time></trkpt><trkpt lat="38.18557893322227" lon="15.772469453701186"><ele>1048.0</ele><time>2026-04-11T07:29:40.001Z</time></trkpt><trkpt lat="38.1855883843587" lon="15.772554264328306"><ele>1048.0</ele><time>2026-04-11T07:29:41.001Z</time></trkpt><trkpt lat="38.185541450041484" lon="15.772649586397351"><ele>1048.0</ele><time>2026-04-11T07:29:43.001Z</time></trkpt><trkpt lat="38.18542459548095" lon="15.772758445122316"><ele>1048.0</ele><time>2026-04-11T07:29:45.001Z</time></trkpt><trkpt lat="38.18536815996398" lon="15.772854685504045"><ele>1048.0</ele><time>2026-04-11T07:29:46.001Z</time></trkpt><trkpt lat="38.18529450770551" lon="15.772946261230778"><ele>1048.0</ele><time>2026-04-11T07:29:47.001Z</time></trkpt><trkpt lat="38.18522881659119" lon="15.773031774251884"><ele>1048.0</ele><time>2026-04-11T07:29:48.001Z</time></trkpt><trkpt lat="38.18517045137353" lon="15.773091940958812"><ele>1048.0</ele><time>2026-04-11T07:29:49.001Z</time></trkpt><trkpt lat="38.18511676519892" lon="15.773161416961878"><ele>1048.0</ele><time>2026-04-11T07:29:50.001Z</time></trkpt><trkpt lat="38.18508911179046" lon="15.773233966782808"><ele>1048.0</ele><time>2026-04-11T07:29:51.001Z</time></trkpt><trkpt lat="38.18498996918217" lon="15.773376204453376"><ele>1048.0</ele><time>2026-04-11T07:29:53.001Z</time></trkpt><trkpt lat="38.18494362976392" lon="15.773452543230468"><ele>1048.0</ele><time>2026-04-11T07:29:54.001Z</time></trkpt><trkpt lat="38.18492747306825" lon="15.773539171380898"><ele>1048.0</ele><time>2026-04-11T07:29:55.001Z</time></trkpt><trkpt lat="38.18482998316065" lon="15.773673254920205"><ele>1048.0</ele><time>2026-04-11T07:29:57.001Z</time></trkpt><trkpt lat="38.184785304175556" lon="15.773767491990826"><ele>1049.3333333333333</ele><time>2026-04-11T07:29:58.001Z</time></trkpt><trkpt lat="38.1847584699129" lon="15.773861113129815"><ele>1050.6666666666665</ele><time>2026-04-11T07:29:59.001Z</time></trkpt><trkpt lat="38.1847152902734" lon="15.773979343339933"><ele>1052.0</ele><time>2026-04-11T07:30:00.001Z</time></trkpt><trkpt lat="38.184680571189865" lon="15.774069748393229"><ele>1053.3333333333333</ele><time>2026-04-11T07:30:01.001Z</time></trkpt><trkpt lat="38.18465869487789" lon="15.774195961450577"><ele>1054.6666666666667</ele><time>2026-04-11T07:30:02.001Z</time></trkpt><trkpt lat="38.18464715830352" lon="15.774306681674128"><ele>1056.0</ele><time>2026-04-11T07:30:03.001Z</time></trkpt><trkpt lat="38.18461318341365" lon="15.774440489373786"><ele>1056.75</ele><time>2026-04-11T07:30:04.001Z</time></trkpt><trkpt lat="38.184562208904865" lon="15.77460174010751"><ele>1057.5</ele><time>2026-04-11T07:30:05.001Z</time></trkpt><trkpt lat="38.18457428912563" lon="15.774716878760499"><ele>1058.25</ele><time>2026-04-11T07:30:06.001Z</time></trkpt><trkpt lat="38.184557513364076" lon="15.774881776847632"><ele>1059.0</ele><time>2026-04-11T07:30:07.001Z</time></trkpt><trkpt lat="38.18454198974877" lon="15.775011491295118"><ele>1059.0</ele><time>2026-04-11T07:30:08.001Z</time></trkpt><trkpt lat="38.184509512293886" lon="15.775147845146115"><ele>1059.0</ele><time>2026-04-11T07:30:09.001Z</time></trkpt><trkpt lat="38.184468094476934" lon="15.77530180232039"><ele>1059.0</ele><time>2026-04-11T07:30:10.001Z</time></trkpt><trkpt lat="38.18442649318394" lon="15.775445727598067"><ele>1059.0</ele><time>2026-04-11T07:30:11.001Z</time></trkpt><trkpt lat="38.18438546265889" lon="15.775580173743707"><ele>1060.25</ele><time>2026-04-11T07:30:12.001Z</time></trkpt><trkpt lat="38.18434267716467" lon="15.775725370926866"><ele>1061.5</ele><time>2026-04-11T07:30:13.001Z</time></trkpt><trkpt lat="38.18429292611629" lon="15.775880744391962"><ele>1062.75</ele><time>2026-04-11T07:30:14.001Z</time></trkpt><trkpt lat="38.18424849823405" lon="15.776015765646905"><ele>1064.0</ele><time>2026-04-11T07:30:15.001Z</time></trkpt><trkpt lat="38.18421547522518" lon="15.776116671202152"><ele>1064.2</ele><time>2026-04-11T07:30:16.001Z</time></trkpt><trkpt lat="38.184173882715584" lon="15.776241520098866"><ele>1064.4</ele><time>2026-04-11T07:30:17.001Z</time></trkpt><trkpt lat="38.18411383544913" lon="15.776406364991512"><ele>1064.6</ele><time>2026-04-11T07:30:18.001Z</time></trkpt><trkpt lat="38.18406211143205" lon="15.776496838820956"><ele>1064.8</ele><time>2026-04-11T07:30:19.001Z</time></trkpt><trkpt lat="38.18404484090374" lon="15.776610766295343"><ele>1065.0</ele><time>2026-04-11T07:30:20.001Z</time></trkpt><trkpt lat="38.18397579938629" lon="15.776787624228763"><ele>1064.2</ele><time>2026-04-11T07:30:21.001Z</time></trkpt><trkpt lat="38.18392970334538" lon="15.77692171982975"><ele>1063.4</ele><time>2026-04-11T07:30:22.001Z</time></trkpt><trkpt lat="38.183898700344166" lon="15.77704741644248"><ele>1062.6</ele><time>2026-04-11T07:30:23.001Z</time></trkpt><trkpt lat="38.18386800993408" lon="15.777177667017721"><ele>1061.8</ele><time>2026-04-11T07:30:24.001Z</time></trkpt><trkpt lat="38.18382445787248" lon="15.77725275407579"><ele>1061.0</ele><time>2026-04-11T07:30:25.001Z</time></trkpt><trkpt lat="38.183762654481505" lon="15.777364928253698"><ele>1061.0</ele><time>2026-04-11T07:30:26.001Z</time></trkpt><trkpt lat="38.183717461078515" lon="15.777493993208214"><ele>1061.0</ele><time>2026-04-11T07:30:27Z</time></trkpt><trkpt lat="38.18371862975286" lon="15.77758919576966"><ele>1061.0</ele><time>2026-04-11T07:30:28Z</time></trkpt><trkpt lat="38.18368720754061" lon="15.777701862947692"><ele>1061.0</ele><time>2026-04-11T07:30:30Z</time></trkpt><trkpt lat="38.18369425542461" lon="15.777843032566052"><ele>1061.0</ele><time>2026-04-11T07:30:32Z</time></trkpt><trkpt lat="38.18367286025619" lon="15.777945212432376"><ele>1060.0</ele><time>2026-04-11T07:30:33Z</time></trkpt><trkpt lat="38.18364777501972" lon="15.778046455140588"><ele>1059.0</ele><time>2026-04-11T07:30:34Z</time></trkpt><trkpt lat="38.183611943296285" lon="15.778129777948903"><ele>1058.0</ele><time>2026-04-11T07:30:35Z</time></trkpt><trkpt lat="38.183597486596916" lon="15.778238242047516"><ele>1057.0</ele><time>2026-04-11T07:30:36Z</time></trkpt><trkpt lat="38.18357335712065" lon="15.778351387670781"><ele>1056.0</ele><time>2026-04-11T07:30:37Z</time></trkpt><trkpt lat="38.18356897691725" lon="15.778444344793481"><ele>1055.0</ele><time>2026-04-11T07:30:38Z</time></trkpt><trkpt lat="38.18356378383906" lon="15.778531557996779"><ele>1053.2</ele><time>2026-04-11T07:30:39Z</time></trkpt><trkpt lat="38.18361335236285" lon="15.778662396571962"><ele>1051.4</ele><time>2026-04-11T07:30:41Z</time></trkpt><trkpt lat="38.18366203576614" lon="15.778733495024639"><ele>1049.6</ele><time>2026-04-11T07:30:42Z</time></trkpt><trkpt lat="38.18369531052529" lon="15.778802997746915"><ele>1047.8</ele><time>2026-04-11T07:30:44Z</time></trkpt><trkpt lat="38.18372150347282" lon="15.778884244837647"><ele>1046.0</ele><time>2026-04-11T07:30:48Z</time></trkpt><trkpt lat="38.18378803524059" lon="15.779032840880198"><ele>1046.0</ele><time>2026-04-11T07:30:50Z</time></trkpt><trkpt lat="38.183807504170964" lon="15.779113386876487"><ele>1046.0</ele><time>2026-04-11T07:30:51Z</time></trkpt><trkpt lat="38.18381445944232" lon="15.77921026499748"><ele>1046.0</ele><time>2026-04-11T07:30:52Z</time></trkpt><trkpt lat="38.183798470137006" lon="15.77930350358789"><ele>1046.0</ele><time>2026-04-11T07:30:53Z</time></trkpt><trkpt lat="38.18378893243262" lon="15.779414443039524"><ele>1046.0</ele><time>2026-04-11T07:30:54Z</time></trkpt><trkpt lat="38.18375545274391" lon="15.77954689055851"><ele>1046.0</ele><time>2026-04-11T07:30:55Z</time></trkpt><trkpt lat="38.1837177258002" lon="15.779652721890457"><ele>1046.0</ele><time>2026-04-11T07:30:56Z</time></trkpt><trkpt lat="38.18369404254436" lon="15.779732957982658"><ele>1046.0</ele><time>2026-04-11T07:30:57Z</time></trkpt><trkpt lat="38.18366606845795" lon="15.7798213251701"><ele>1046.0</ele><time>2026-04-11T07:30:58Z</time></trkpt><trkpt lat="38.183621100463846" lon="15.77989774587396"><ele>1046.0</ele><time>2026-04-11T07:30:59Z</time></trkpt><trkpt lat="38.18358551027089" lon="15.77999380759215"><ele>1046.0</ele><time>2026-04-11T07:31:00Z</time></trkpt><trkpt lat="38.18357401860612" lon="15.780097176809264"><ele>1046.0</ele><time>2026-04-11T07:31:01Z</time></trkpt><trkpt lat="38.18355825049685" lon="15.780196737327541"><ele>1045.8</ele><time>2026-04-11T07:31:02Z</time></trkpt><trkpt lat="38.18352199146694" lon="15.780311794122627"><ele>1045.6</ele><time>2026-04-11T07:31:03Z</time></trkpt><trkpt lat="38.18349851257211" lon="15.780395297251506"><ele>1045.4</ele><time>2026-04-11T07:31:04Z</time></trkpt><trkpt lat="38.18345990702271" lon="15.780534599551839"><ele>1045.2</ele><time>2026-04-11T07:31:05Z</time></trkpt><trkpt lat="38.18341999230639" lon="15.780673228701184"><ele>1045.0</ele><time>2026-04-11T07:31:06Z</time></trkpt><trkpt lat="38.183393148600125" lon="15.780804580713056"><ele>1045.0</ele><time>2026-04-11T07:31:07Z</time></trkpt><trkpt lat="38.18336848964433" lon="15.780920820253176"><ele>1045.0</ele><time>2026-04-11T07:31:08Z</time></trkpt><trkpt lat="38.18339074248652" lon="15.78101447550587"><ele>1045.0</ele><time>2026-04-11T07:31:09Z</time></trkpt><trkpt lat="38.18334575072705" lon="15.78113526711897"><ele>1045.0</ele><time>2026-04-11T07:31:10Z</time></trkpt><trkpt lat="38.18327083752531" lon="15.781259265396203"><ele>1045.0</ele><time>2026-04-11T07:31:11Z</time></trkpt><trkpt lat="38.18322263319789" lon="15.781418653529306"><ele>1043.0</ele><time>2026-04-11T07:31:12Z</time></trkpt><trkpt lat="38.183179806995604" lon="15.781559642090912"><ele>1041.0</ele><time>2026-04-11T07:31:13Z</time></trkpt><trkpt lat="38.18313478973072" lon="15.781690878624802"><ele>1039.0</ele><time>2026-04-11T07:31:14Z</time></trkpt><trkpt lat="38.18308655629066" lon="15.781811900555589"><ele>1037.0</ele><time>2026-04-11T07:31:15Z</time></trkpt><trkpt lat="38.183043999303415" lon="15.781887576064275"><ele>1035.0</ele><time>2026-04-11T07:31:16Z</time></trkpt><trkpt lat="38.18300447318175" lon="15.78201177970293"><ele>1033.6</ele><time>2026-04-11T07:31:17Z</time></trkpt><trkpt lat="38.18296698133515" lon="15.782157337059889"><ele>1032.2</ele><time>2026-04-11T07:31:18Z</time></trkpt><trkpt lat="38.1829335788376" lon="15.78227630649427"><ele>1030.8</ele><time>2026-04-11T07:31:19Z</time></trkpt><trkpt lat="38.18290486463345" lon="15.782391359071383"><ele>1029.4</ele><time>2026-04-11T07:31:20Z</time></trkpt><trkpt lat="38.18288603901782" lon="15.782495397168054"><ele>1028.0</ele><time>2026-04-11T07:31:21Z</time></trkpt><trkpt lat="38.1828594591317" lon="15.782630684610837"><ele>1027.6</ele><time>2026-04-11T07:31:22Z</time></trkpt><trkpt lat="38.18281296416212" lon="15.782766962970998"><ele>1027.1999999999998</ele><time>2026-04-11T07:31:23Z</time></trkpt><trkpt lat="38.18276143832326" lon="15.782879156047091"><ele>1026.8</ele><time>2026-04-11T07:31:24Z</time></trkpt><trkpt lat="38.18273574076673" lon="15.782998774744993"><ele>1026.3999999999999</ele><time>2026-04-11T07:31:25Z</time></trkpt><trkpt lat="38.18269836267943" lon="15.783106635404312"><ele>1026.0</ele><time>2026-04-11T07:31:27Z</time></trkpt><trkpt lat="38.182668465146826" lon="15.78318335125955"><ele>1026.0</ele><time>2026-04-11T07:31:29Z</time></trkpt><trkpt lat="38.18262319651969" lon="15.783270525789877"><ele>1026.0</ele><time>2026-04-11T07:33:26.001Z</time></trkpt><trkpt lat="38.182558862060326" lon="15.783344446290046"><ele>1026.0</ele><time>2026-04-11T07:33:28.001Z</time></trkpt><trkpt lat="38.18250446804662" lon="15.783423443110157"><ele>1026.0</ele><time>2026-04-11T07:33:30.001Z</time></trkpt><trkpt lat="38.18243170431045" lon="15.783548647238858"><ele>1026.0</ele><time>2026-04-11T07:33:32.001Z</time></trkpt><trkpt lat="38.182387044774295" lon="15.783629552016265"><ele>1025.5</ele><time>2026-04-11T07:33:33.001Z</time></trkpt><trkpt lat="38.182312259594305" lon="15.783750649832502"><ele>1025.0</ele><time>2026-04-11T07:33:35.001Z</time></trkpt><trkpt lat="38.18226906469589" lon="15.783830950887882"><ele>1024.5</ele><time>2026-04-11T07:33:36.001Z</time></trkpt><trkpt lat="38.18222921582159" lon="15.783897461615313"><ele>1024.0</ele><time>2026-04-11T07:33:37.001Z</time></trkpt><trkpt lat="38.18219402675909" lon="15.783965712356483"><ele>1023.5</ele><time>2026-04-11T07:33:38.001Z</time></trkpt><trkpt lat="38.18211823937309" lon="15.784085995790024"><ele>1023.0</ele><time>2026-04-11T07:33:40.001Z</time></trkpt><trkpt lat="38.18207423693857" lon="15.78417187950641"><ele>1023.0</ele><time>2026-04-11T07:33:41.001Z</time></trkpt><trkpt lat="38.18202598189482" lon="15.7842757161317"><ele>1023.0</ele><time>2026-04-11T07:33:43.001Z</time></trkpt><trkpt lat="38.181993865485246" lon="15.784348319808824"><ele>1023.0</ele><time>2026-04-11T07:33:44.001Z</time></trkpt><trkpt lat="38.1819436187873" lon="15.784438713458284"><ele>1023.0</ele><time>2026-04-11T07:33:45.001Z</time></trkpt><trkpt lat="38.18187360106035" lon="15.78454193549867"><ele>1023.0</ele><time>2026-04-11T07:33:46.001Z</time></trkpt><trkpt lat="38.18180128555247" lon="15.784660315770196"><ele>1022.4</ele><time>2026-04-11T07:33:47.001Z</time></trkpt><trkpt lat="38.181742661073145" lon="15.784778700180416"><ele>1021.8</ele><time>2026-04-11T07:33:48.001Z</time></trkpt><trkpt lat="38.181679734691286" lon="15.784881366912874"><ele>1021.2</ele><time>2026-04-11T07:33:49.001Z</time></trkpt><trkpt lat="38.181629740226924" lon="15.784986954508222"><ele>1020.6</ele><time>2026-04-11T07:33:50.001Z</time></trkpt><trkpt lat="38.1815813592864" lon="15.785092306228222"><ele>1020.0</ele><time>2026-04-11T07:33:51.001Z</time></trkpt><trkpt lat="38.18153743544073" lon="15.78521215208803"><ele>1018.6666666666666</ele><time>2026-04-11T07:33:52.001Z</time></trkpt><trkpt lat="38.18148051091086" lon="15.785298185811985"><ele>1017.3333333333333</ele><time>2026-04-11T07:33:53.001Z</time></trkpt><trkpt lat="38.18143756091575" lon="15.785370109469852"><ele>1016.0</ele><time>2026-04-11T07:33:54.001Z</time></trkpt><trkpt lat="38.181388284507804" lon="15.785448422373413"><ele>1014.6666666666666</ele><time>2026-04-11T07:33:56.001Z</time></trkpt><trkpt lat="38.1813547407106" lon="15.785535275901221"><ele>1013.3333333333333</ele><time>2026-04-11T07:33:58.001Z</time></trkpt><trkpt lat="38.181295968457796" lon="15.785676087905063"><ele>1012.0</ele><time>2026-04-11T07:34:00.001Z</time></trkpt><trkpt lat="38.181251808708126" lon="15.785777986755487"><ele>1012.0</ele><time>2026-04-11T07:34:01.001Z</time></trkpt><trkpt lat="38.18120260194883" lon="15.785902602063766"><ele>1012.0</ele><time>2026-04-11T07:34:02.001Z</time></trkpt><trkpt lat="38.18115912605908" lon="15.78599145525137"><ele>1012.0</ele><time>2026-04-11T07:34:03.001Z</time></trkpt><trkpt lat="38.18109093291406" lon="15.786077748560563"><ele>1012.0</ele><time>2026-04-11T07:34:04.001Z</time></trkpt><trkpt lat="38.1810486121209" lon="15.786172253504336"><ele>1012.0</ele><time>2026-04-11T07:34:05.001Z</time></trkpt><trkpt lat="38.18101421318575" lon="15.786270933835816"><ele>1014.3333333333333</ele><time>2026-04-11T07:34:06.001Z</time></trkpt><trkpt lat="38.18097878826131" lon="15.786358087241446"><ele>1016.6666666666666</ele><time>2026-04-11T07:34:07.001Z</time></trkpt><trkpt lat="38.18094938398702" lon="15.786454357647871"><ele>1019.0</ele><time>2026-04-11T07:34:08.001Z</time></trkpt><trkpt lat="38.18090978794954" lon="15.786554548359357"><ele>1021.3333333333333</ele><time>2026-04-11T07:34:09.001Z</time></trkpt><trkpt lat="38.180872529132195" lon="15.786647417934633"><ele>1023.6666666666666</ele><time>2026-04-11T07:34:11.001Z</time></trkpt><trkpt lat="38.18082448820789" lon="15.786774353561515"><ele>1026.0</ele><time>2026-04-11T07:34:14.001Z</time></trkpt><trkpt lat="38.180793160597474" lon="15.786852752868628"><ele>1026.2</ele><time>2026-04-11T07:34:15.001Z</time></trkpt><trkpt lat="38.18076361370749" lon="15.78693527889644"><ele>1026.3999999999999</ele><time>2026-04-11T07:34:16.001Z</time></trkpt><trkpt lat="38.18072093001161" lon="15.787071832193535"><ele>1026.6</ele><time>2026-04-11T07:34:18.001Z</time></trkpt><trkpt lat="38.18069931460751" lon="15.78717804940939"><ele>1026.8</ele><time>2026-04-11T07:34:19.001Z</time></trkpt><trkpt lat="38.18065778390604" lon="15.787285945937311"><ele>1027.0</ele><time>2026-04-11T07:34:20.001Z</time></trkpt><trkpt lat="38.18061053386121" lon="15.787440188643027"><ele>1027.4</ele><time>2026-04-11T07:34:21.001Z</time></trkpt><trkpt lat="38.18057279562876" lon="15.787580185481469"><ele>1027.8000000000002</ele><time>2026-04-11T07:34:22.001Z</time></trkpt><trkpt lat="38.18053515150478" lon="15.7877043537019"><ele>1028.2</ele><time>2026-04-11T07:34:23.001Z</time></trkpt><trkpt lat="38.18050965379182" lon="15.787835817255356"><ele>1028.6000000000001</ele><time>2026-04-11T07:34:24.001Z</time></trkpt><trkpt lat="38.18048244517792" lon="15.787952050648906"><ele>1029.0</ele><time>2026-04-11T07:34:25.001Z</time></trkpt><trkpt lat="38.18044605402751" lon="15.788039402205765"><ele>1029.0</ele><time>2026-04-11T07:34:26.001Z</time></trkpt><trkpt lat="38.18041892656954" lon="15.788134091868091"><ele>1029.0</ele><time>2026-04-11T07:34:27.001Z</time></trkpt><trkpt lat="38.18038435604407" lon="15.78822307547162"><ele>1029.0</ele><time>2026-04-11T07:34:28.001Z</time></trkpt><trkpt lat="38.180356560438646" lon="15.78832167186904"><ele>1029.0</ele><time>2026-04-11T07:34:29.001Z</time></trkpt><trkpt lat="38.18033415199002" lon="15.788414244099437"><ele>1029.0</ele><time>2026-04-11T07:34:30.001Z</time></trkpt><trkpt lat="38.180290963835255" lon="15.788518638674374"><ele>1029.0</ele><time>2026-04-11T07:34:32.001Z</time></trkpt><trkpt lat="38.1802607325999" lon="15.788611428823616"><ele>1030.6666666666667</ele><time>2026-04-11T07:34:33.001Z</time></trkpt><trkpt lat="38.18021013233721" lon="15.788700286326764"><ele>1032.3333333333333</ele><time>2026-04-11T07:34:34.001Z</time></trkpt><trkpt lat="38.18020491986985" lon="15.78882112610312"><ele>1034.0</ele><time>2026-04-11T07:34:36.001Z</time></trkpt><trkpt lat="38.180195319487744" lon="15.788943890120276"><ele>1035.6666666666665</ele><time>2026-04-11T07:34:37.001Z</time></trkpt><trkpt lat="38.1801842364071" lon="15.789031962982948"><ele>1037.3333333333333</ele><time>2026-04-11T07:34:38.001Z</time></trkpt><trkpt lat="38.180149871176326" lon="15.789122037079796"><ele>1039.0</ele><time>2026-04-11T07:34:39.001Z</time></trkpt><trkpt lat="38.180104863941004" lon="15.789217946352665"><ele>1041.5</ele><time>2026-04-11T07:34:40.001Z</time></trkpt><trkpt lat="38.18004196305369" lon="15.789361992464945"><ele>1044.0</ele><time>2026-04-11T07:34:41.001Z</time></trkpt><trkpt lat="38.180004749215655" lon="15.789485948238607"><ele>1046.5</ele><time>2026-04-11T07:34:42.001Z</time></trkpt><trkpt lat="38.17996408631166" lon="15.789632827874776"><ele>1049.0</ele><time>2026-04-11T07:34:43.001Z</time></trkpt><trkpt lat="38.179924938088895" lon="15.789759851399259"><ele>1049.0</ele><time>2026-04-11T07:34:44.001Z</time></trkpt><trkpt lat="38.17987773615001" lon="15.789878601825531"><ele>1049.0</ele><time>2026-04-11T07:34:45.001Z</time></trkpt><trkpt lat="38.17982353186081" lon="15.78999629092222"><ele>1049.0</ele><time>2026-04-11T07:34:46.001Z</time></trkpt><trkpt lat="38.1797543141214" lon="15.790126823083051"><ele>1049.0</ele><time>2026-04-11T07:34:47.001Z</time></trkpt><trkpt lat="38.17969907733264" lon="15.790274359064238"><ele>1050.8333333333335</ele><time>2026-04-11T07:34:48.001Z</time></trkpt><trkpt lat="38.17965692839741" lon="15.790386920707478"><ele>1052.6666666666667</ele><time>2026-04-11T07:34:49.001Z</time></trkpt><trkpt lat="38.17962764384286" lon="15.790492506759966"><ele>1054.5</ele><time>2026-04-11T07:34:50.001Z</time></trkpt><trkpt lat="38.179573541049606" lon="15.790582334612987"><ele>1056.3333333333333</ele><time>2026-04-11T07:34:51Z</time></trkpt><trkpt lat="38.179534621442635" lon="15.790653293316035"><ele>1058.1666666666665</ele><time>2026-04-11T07:34:52Z</time></trkpt><trkpt lat="38.1794987285777" lon="15.79073646283956"><ele>1060.0</ele><time>2026-04-11T07:34:53Z</time></trkpt><trkpt lat="38.17944909958254" lon="15.790926822351812"><ele>1061.0</ele><time>2026-04-11T07:34:55Z</time></trkpt><trkpt lat="38.179439062236604" lon="15.791050083268027"><ele>1062.0</ele><time>2026-04-11T07:34:56Z</time></trkpt><trkpt lat="38.1794223042933" lon="15.79115142411884"><ele>1063.0</ele><time>2026-04-11T07:34:57Z</time></trkpt><trkpt lat="38.179406233065386" lon="15.791260229720633"><ele>1064.0</ele><time>2026-04-11T07:34:58Z</time></trkpt><trkpt lat="38.17938532620444" lon="15.791366465161124"><ele>1065.0</ele><time>2026-04-11T07:34:59Z</time></trkpt><trkpt lat="38.179361827422305" lon="15.79146083749116"><ele>1066.0</ele><time>2026-04-11T07:35:00Z</time></trkpt><trkpt lat="38.179352158610165" lon="15.791556543962683"><ele>1066.0</ele><time>2026-04-11T07:35:01Z</time></trkpt><trkpt lat="38.179366826890714" lon="15.791638887505494"><ele>1066.0</ele><time>2026-04-11T07:35:02Z</time></trkpt><trkpt lat="38.179342369859384" lon="15.791775948189287"><ele>1066.0</ele><time>2026-04-11T07:35:04Z</time></trkpt><trkpt lat="38.179320862394626" lon="15.791936003422856"><ele>1066.0</ele><time>2026-04-11T07:35:06Z</time></trkpt><trkpt lat="38.17931911985045" lon="15.792061224145966"><ele>1066.0</ele><time>2026-04-11T07:35:07Z</time></trkpt><trkpt lat="38.17929706099754" lon="15.79216491215119"><ele>1067.0</ele><time>2026-04-11T07:35:08Z</time></trkpt><trkpt lat="38.17922574260944" lon="15.7922747950752"><ele>1068.0</ele><time>2026-04-11T07:35:10Z</time></trkpt><trkpt lat="38.17917298993182" lon="15.792389615063648"><ele>1069.0</ele><time>2026-04-11T07:35:11Z</time></trkpt><trkpt lat="38.17913856589681" lon="15.792548545499919"><ele>1070.0</ele><time>2026-04-11T07:35:12Z</time></trkpt><trkpt lat="38.17910683088631" lon="15.792634035529193"><ele>1071.0</ele><time>2026-04-11T07:35:13Z</time></trkpt><trkpt lat="38.17908030656422" lon="15.792744522538028"><ele>1071.0</ele><time>2026-04-11T07:35:14Z</time></trkpt><trkpt lat="38.179049453858276" lon="15.792823429181334"><ele>1071.0</ele><time>2026-04-11T07:35:15Z</time></trkpt><trkpt lat="38.179021169631035" lon="15.79293356113348"><ele>1071.0</ele><time>2026-04-11T07:35:16Z</time></trkpt><trkpt lat="38.179003881155104" lon="15.793025388299515"><ele>1071.0</ele><time>2026-04-11T07:35:17Z</time></trkpt><trkpt lat="38.17898832857058" lon="15.793108916714015"><ele>1071.0</ele><time>2026-04-11T07:35:18Z</time></trkpt><trkpt lat="38.178954040961266" lon="15.79320525847701"><ele>1071.0</ele><time>2026-04-11T07:35:19Z</time></trkpt><trkpt lat="38.1789431540781" lon="15.793337025350967"><ele>1072.0</ele><time>2026-04-11T07:35:20Z</time></trkpt><trkpt lat="38.17891703062784" lon="15.793453296724664"><ele>1073.0</ele><time>2026-04-11T07:35:21Z</time></trkpt><trkpt lat="38.178880398138965" lon="15.79360023265826"><ele>1074.0</ele><time>2026-04-11T07:35:22Z</time></trkpt><trkpt lat="38.17884066823961" lon="15.7937734109279"><ele>1075.0</ele><time>2026-04-11T07:35:23Z</time></trkpt><trkpt lat="38.1788037183271" lon="15.79391712892294"><ele>1075.6</ele><time>2026-04-11T07:35:24Z</time></trkpt><trkpt lat="38.17876901484556" lon="15.794048776040256"><ele>1076.2</ele><time>2026-04-11T07:35:25Z</time></trkpt><trkpt lat="38.17872069747031" lon="15.79416226956387"><ele>1076.8</ele><time>2026-04-11T07:35:26Z</time></trkpt><trkpt lat="38.178666336564305" lon="15.794279038656766"><ele>1077.4</ele><time>2026-04-11T07:35:27Z</time></trkpt><trkpt lat="38.17861564574661" lon="15.794397851655267"><ele>1078.0</ele><time>2026-04-11T07:35:28Z</time></trkpt><trkpt lat="38.17855798904756" lon="15.794548161300817"><ele>1078.6</ele><time>2026-04-11T07:35:29Z</time></trkpt><trkpt lat="38.17852009734344" lon="15.794671427917644"><ele>1079.1999999999998</ele><time>2026-04-11T07:35:30Z</time></trkpt><trkpt lat="38.178477681733554" lon="15.794774242893736"><ele>1079.8</ele><time>2026-04-11T07:35:31Z</time></trkpt><trkpt lat="38.178438507959726" lon="15.794923305872103"><ele>1080.3999999999999</ele><time>2026-04-11T07:35:32Z</time></trkpt><trkpt lat="38.17839058317597" lon="15.795057520287708"><ele>1081.0</ele><time>2026-04-11T07:35:33Z</time></trkpt><trkpt lat="38.17835925122626" lon="15.79517509175472"><ele>1081.5</ele><time>2026-04-11T07:35:34Z</time></trkpt><trkpt lat="38.178329469903325" lon="15.795309737015815"><ele>1082.0</ele><time>2026-04-11T07:35:35Z</time></trkpt><trkpt lat="38.178303462512815" lon="15.79545159356553"><ele>1082.5</ele><time>2026-04-11T07:35:36Z</time></trkpt><trkpt lat="38.17824851792877" lon="15.795583870915827"><ele>1083.0</ele><time>2026-04-11T07:35:37Z</time></trkpt><trkpt lat="38.17821810838716" lon="15.79571665327084"><ele>1083.0</ele><time>2026-04-11T07:35:38Z</time></trkpt><trkpt lat="38.17819741951949" lon="15.795843784707243"><ele>1083.0</ele><time>2026-04-11T07:35:39Z</time></trkpt><trkpt lat="38.178179448549436" lon="15.795947603023283"><ele>1083.0</ele><time>2026-04-11T07:35:40Z</time></trkpt><trkpt lat="38.17816114648029" lon="15.796027318954598"><ele>1083.0</ele><time>2026-04-11T07:35:41Z</time></trkpt><trkpt lat="38.178133649400046" lon="15.796117256936261"><ele>1083.0</ele><time>2026-04-11T07:35:42Z</time></trkpt><trkpt lat="38.17808554882845" lon="15.796188265454358"><ele>1083.0</ele><time>2026-04-11T07:35:43Z</time></trkpt><trkpt lat="38.178031138380454" lon="15.79627221513259"><ele>1084.0</ele><time>2026-04-11T07:35:44Z</time></trkpt><trkpt lat="38.17799918996893" lon="15.796354880163985"><ele>1085.0</ele><time>2026-04-11T07:35:45Z</time></trkpt><trkpt lat="38.17793837347443" lon="15.796491756247722"><ele>1086.0</ele><time>2026-04-11T07:35:47Z</time></trkpt><trkpt lat="38.177900176239014" lon="15.796584862841472"><ele>1087.0</ele><time>2026-04-11T07:35:48Z</time></trkpt><trkpt lat="38.17788871489367" lon="15.796668697159838"><ele>1088.0</ele><time>2026-04-11T07:35:49Z</time></trkpt><trkpt lat="38.17788325584833" lon="15.796766125667034"><ele>1089.0</ele><time>2026-04-11T07:35:50Z</time></trkpt><trkpt lat="38.17786944595169" lon="15.7968685702662"><ele>1089.0</ele><time>2026-04-11T07:35:51Z</time></trkpt><trkpt lat="38.177846636131605" lon="15.796952541528498"><ele>1089.0</ele><time>2026-04-11T07:35:52.001Z</time></trkpt><trkpt lat="38.17781875814838" lon="15.79707367320097"><ele>1089.0</ele><time>2026-04-11T07:35:54.001Z</time></trkpt><trkpt lat="38.17779163959819" lon="15.797148919445556"><ele>1089.0</ele><time>2026-04-11T07:35:55.001Z</time></trkpt><trkpt lat="38.177774882560634" lon="15.79727986977031"><ele>1089.0</ele><time>2026-04-11T07:35:57.001Z</time></trkpt><trkpt lat="38.17778079666661" lon="15.797365615101182"><ele>1089.0</ele><time>2026-04-11T07:35:59.001Z</time></trkpt><trkpt lat="38.17780788048662" lon="15.797502757979514"><ele>1089.0000000000002</ele><time>2026-04-11T07:36:01.001Z</time></trkpt><trkpt lat="38.17783572074012" lon="15.797574740585539"><ele>1089.0</ele><time>2026-04-11T07:36:02.001Z</time></trkpt><trkpt lat="38.1778683602615" lon="15.797663333819385"><ele>1089.0</ele><time>2026-04-11T07:36:03.001Z</time></trkpt><trkpt lat="38.17789132253869" lon="15.79775405681746"><ele>1089.0</ele><time>2026-04-11T07:36:04.001Z</time></trkpt><trkpt lat="38.17791220523563" lon="15.797833864897033"><ele>1089.0</ele><time>2026-04-11T07:36:05.001Z</time></trkpt><trkpt lat="38.17793342969297" lon="15.797919052162229"><ele>1089.0000000000002</ele><time>2026-04-11T07:36:06.001Z</time></trkpt><trkpt lat="38.177940053479944" lon="15.79801652256402"><ele>1089.0</ele><time>2026-04-11T07:36:07.001Z</time></trkpt><trkpt lat="38.17791973965957" lon="15.798155521181387"><ele>1089.8</ele><time>2026-04-11T07:36:09.001Z</time></trkpt><trkpt lat="38.17793953896209" lon="15.798321920200395"><ele>1090.6000000000001</ele><time>2026-04-11T07:36:11.001Z</time></trkpt><trkpt lat="38.17794849092109" lon="15.798403430237014"><ele>1091.4</ele><time>2026-04-11T07:36:12.001Z</time></trkpt><trkpt lat="38.177955975774296" lon="15.798512719246034"><ele>1092.2</ele><time>2026-04-11T07:36:14.001Z</time></trkpt><trkpt lat="38.17797464383097" lon="15.798662743142398"><ele>1093.0</ele><time>2026-04-11T07:36:16.001Z</time></trkpt><trkpt lat="38.17802886490507" lon="15.798774212462662"><ele>1093.75</ele><time>2026-04-11T07:36:17.001Z</time></trkpt><trkpt lat="38.178060107341864" lon="15.798958166065058"><ele>1094.5</ele><time>2026-04-11T07:36:18.001Z</time></trkpt><trkpt lat="38.178076135852955" lon="15.79913031149441"><ele>1095.25</ele><time>2026-04-11T07:36:19.001Z</time></trkpt><trkpt lat="38.17808405928445" lon="15.799253382435023"><ele>1096.0</ele><time>2026-04-11T07:36:20.001Z</time></trkpt><trkpt lat="38.17811949454726" lon="15.799383686793472"><ele>1098.25</ele><time>2026-04-11T07:36:21.001Z</time></trkpt><trkpt lat="38.17818766914345" lon="15.799543814140172"><ele>1100.5</ele><time>2026-04-11T07:36:22.001Z</time></trkpt><trkpt lat="38.17824660858714" lon="15.799630389277741"><ele>1102.75</ele><time>2026-04-11T07:36:23.001Z</time></trkpt><trkpt lat="38.17827892660697" lon="15.79979501148182"><ele>1105.0</ele><time>2026-04-11T07:36:24.001Z</time></trkpt><trkpt lat="38.17834104901244" lon="15.799978061946565"><ele>1105.3333333333333</ele><time>2026-04-11T07:36:25.001Z</time></trkpt><trkpt lat="38.17838877870107" lon="15.800208973732339"><ele>1105.6666666666667</ele><time>2026-04-11T07:36:26.001Z</time></trkpt><trkpt lat="38.17844748581734" lon="15.80038962926856"><ele>1106.0</ele><time>2026-04-11T07:36:27.001Z</time></trkpt><trkpt lat="38.17851664365004" lon="15.80054047583868"><ele>1106.0</ele><time>2026-04-11T07:36:28.001Z</time></trkpt><trkpt lat="38.17858231175261" lon="15.800716065239666"><ele>1106.0</ele><time>2026-04-11T07:36:29.001Z</time></trkpt><trkpt lat="38.178595744515135" lon="15.800809950163794"><ele>1106.0</ele><time>2026-04-11T07:36:30.001Z</time></trkpt><trkpt lat="38.17854022504943" lon="15.800929246964285"><ele>1106.0</ele><time>2026-04-11T07:36:31.001Z</time></trkpt><trkpt lat="38.17860446643103" lon="15.801068190778203"><ele>1105.75</ele><time>2026-04-11T07:36:32.001Z</time></trkpt><trkpt lat="38.17864090849138" lon="15.801204530516193"><ele>1105.5</ele><time>2026-04-11T07:36:33.001Z</time></trkpt><trkpt lat="38.17866421459672" lon="15.801384792325045"><ele>1105.25</ele><time>2026-04-11T07:36:35.001Z</time></trkpt><trkpt lat="38.178678225405626" lon="15.8015238686014"><ele>1105.0</ele><time>2026-04-11T07:36:36.001Z</time></trkpt><trkpt lat="38.178691256500926" lon="15.801656007119572"><ele>1105.0</ele><time>2026-04-11T07:36:37.001Z</time></trkpt><trkpt lat="38.178714744286985" lon="15.801761873008235"><ele>1105.0</ele><time>2026-04-11T07:36:38.001Z</time></trkpt><trkpt lat="38.178724084072805" lon="15.80186176871385"><ele>1105.0</ele><time>2026-04-11T07:36:39.001Z</time></trkpt><trkpt lat="38.178740638645216" lon="15.801953091348615"><ele>1105.0</ele><time>2026-04-11T07:36:40.001Z</time></trkpt><trkpt lat="38.1787493127132" lon="15.802041520923616"><ele>1105.0</ele><time>2026-04-11T07:36:41.001Z</time></trkpt><trkpt lat="38.17876050920673" lon="15.802165929849611"><ele>1105.0</ele><time>2026-04-11T07:36:42.001Z</time></trkpt><trkpt lat="38.17878573374717" lon="15.80229442251646"><ele>1106.5</ele><time>2026-04-11T07:36:43.001Z</time></trkpt><trkpt lat="38.17883425026475" lon="15.802487983777107"><ele>1108.0</ele><time>2026-04-11T07:36:45Z</time></trkpt><trkpt lat="38.17885231169575" lon="15.802608340538157"><ele>1109.5</ele><time>2026-04-11T07:36:47Z</time></trkpt><trkpt lat="38.17888676747952" lon="15.802748747502699"><ele>1111.0</ele><time>2026-04-11T07:36:48Z</time></trkpt><trkpt lat="38.178894721249385" lon="15.802913193857664"><ele>1113.0</ele><time>2026-04-11T07:36:49Z</time></trkpt><trkpt lat="38.178906575526995" lon="15.803041400540675"><ele>1115.0</ele><time>2026-04-11T07:36:50Z</time></trkpt><trkpt lat="38.17894949678941" lon="15.80317798901862"><ele>1117.0</ele><time>2026-04-11T07:36:51Z</time></trkpt><trkpt lat="38.178966336281825" lon="15.803350604901723"><ele>1119.0</ele><time>2026-04-11T07:36:52Z</time></trkpt><trkpt lat="38.17899685331991" lon="15.803477754130244"><ele>1120.3333333333333</ele><time>2026-04-11T07:36:53Z</time></trkpt><trkpt lat="38.17901750131968" lon="15.803602262212527"><ele>1121.6666666666667</ele><time>2026-04-11T07:36:54Z</time></trkpt><trkpt lat="38.178996183988254" lon="15.803691921435624"><ele>1123.0</ele><time>2026-04-11T07:36:55Z</time></trkpt><trkpt lat="38.17902136276483" lon="15.803782866824399"><ele>1124.3333333333335</ele><time>2026-04-11T07:36:56Z</time></trkpt><trkpt lat="38.17903815832449" lon="15.803883588576761"><ele>1125.6666666666667</ele><time>2026-04-11T07:36:57Z</time></trkpt><trkpt lat="38.179017433625184" lon="15.804015403643525"><ele>1127.0</ele><time>2026-04-11T07:36:58Z</time></trkpt><trkpt lat="38.17902518141759" lon="15.804176114603399"><ele>1129.3333333333335</ele><time>2026-04-11T07:36:59Z</time></trkpt><trkpt lat="38.17900506490563" lon="15.804419878375745"><ele>1131.6666666666667</ele><time>2026-04-11T07:37:00Z</time></trkpt><trkpt lat="38.1789323148314" lon="15.804616422479485"><ele>1134.0</ele><time>2026-04-11T07:37:01Z</time></trkpt><trkpt lat="38.17888306823964" lon="15.804750287961912"><ele>1134.0</ele><time>2026-04-11T07:37:02Z</time></trkpt><trkpt lat="38.178826852793975" lon="15.80486548443973"><ele>1134.0</ele><time>2026-04-11T07:37:03Z</time></trkpt><trkpt lat="38.178793758493775" lon="15.80495826869004"><ele>1134.0</ele><time>2026-04-11T07:37:04Z</time></trkpt><trkpt lat="38.17875979934393" lon="15.805050108686325"><ele>1134.0</ele><time>2026-04-11T07:37:05Z</time></trkpt><trkpt lat="38.178695544017" lon="15.805143671692434"><ele>1134.0</ele><time>2026-04-11T07:37:06Z</time></trkpt><trkpt lat="38.1785338002545" lon="15.805258477612982"><ele>1133.25</ele><time>2026-04-11T07:37:07Z</time></trkpt><trkpt lat="38.17844093588898" lon="15.805380509219887"><ele>1132.5</ele><time>2026-04-11T07:37:08Z</time></trkpt><trkpt lat="38.17835339026638" lon="15.805450983562972"><ele>1131.75</ele><time>2026-04-11T07:37:09Z</time></trkpt><trkpt lat="38.17826335634937" lon="15.805524265525746"><ele>1131.0</ele><time>2026-04-11T07:37:10Z</time></trkpt><trkpt lat="38.1781832990781" lon="15.80563180029666"><ele>1131.0</ele><time>2026-04-11T07:37:11Z</time></trkpt><trkpt lat="38.178120947824745" lon="15.80572837658068"><ele>1131.0</ele><time>2026-04-11T07:37:12Z</time></trkpt><trkpt lat="38.17805920333886" lon="15.805761931340317"><ele>1131.0</ele><time>2026-04-11T07:37:14Z</time></trkpt><trkpt lat="38.178083013265955" lon="15.805887069453224"><ele>1131.0</ele><time>2026-04-11T07:37:15Z</time></trkpt><trkpt lat="38.17807542165123" lon="15.806017199946083"><ele>1131.0</ele><time>2026-04-11T07:37:16Z</time></trkpt><trkpt lat="38.17806070440247" lon="15.806174708219261"><ele>1131.3999999999999</ele><time>2026-04-11T07:37:17Z</time></trkpt><trkpt lat="38.17802792735832" lon="15.806298577158495"><ele>1131.8</ele><time>2026-04-11T07:37:18Z</time></trkpt><trkpt lat="38.17798999790251" lon="15.806421157788993"><ele>1132.1999999999998</ele><time>2026-04-11T07:37:19Z</time></trkpt><trkpt lat="38.17794696043891" lon="15.806523830089374"><ele>1132.6</ele><time>2026-04-11T07:37:20Z</time></trkpt><trkpt lat="38.1778685848853" lon="15.806600229453013"><ele>1133.0</ele><time>2026-04-11T07:37:21Z</time></trkpt><trkpt lat="38.177743406183055" lon="15.806639883256215"><ele>1133.0</ele><time>2026-04-11T07:37:22Z</time></trkpt><trkpt lat="38.17762194889383" lon="15.806682327470226"><ele>1133.0</ele><time>2026-04-11T07:37:23Z</time></trkpt><trkpt lat="38.177480429625966" lon="15.80672248959487"><ele>1133.0</ele><time>2026-04-11T07:37:24Z</time></trkpt><trkpt lat="38.17735479681953" lon="15.806728973631149"><ele>1133.0</ele><time>2026-04-11T07:37:25Z</time></trkpt><trkpt lat="38.177292602516914" lon="15.80675386262312"><ele>1132.3333333333335</ele><time>2026-04-11T07:37:27Z</time></trkpt><trkpt lat="38.17730868052775" lon="15.806834825212182"><ele>1131.6666666666667</ele><time>2026-04-11T07:37:31Z</time></trkpt><trkpt lat="38.17729552299965" lon="15.806917737920648"><ele>1131.0</ele><time>2026-04-11T07:38:01Z</time></trkpt><trkpt lat="38.17725933612842" lon="15.807061815976551"><ele>1130.3333333333333</ele><time>2026-04-11T07:38:03Z</time></trkpt><trkpt lat="38.17724407409551" lon="15.807149677350935"><ele>1129.6666666666665</ele><time>2026-04-11T07:38:04Z</time></trkpt><trkpt lat="38.177225555933646" lon="15.807246161052392"><ele>1129.0</ele><time>2026-04-11T07:38:05Z</time></trkpt><trkpt lat="38.17720535246059" lon="15.807339485427097"><ele>1129.0</ele><time>2026-04-11T07:38:06Z</time></trkpt><trkpt lat="38.17717808563528" lon="15.807452719207237"><ele>1129.0</ele><time>2026-04-11T07:38:07Z</time></trkpt><trkpt lat="38.17714187818504" lon="15.807576389033468"><ele>1129.0</ele><time>2026-04-11T07:38:08Z</time></trkpt><trkpt lat="38.17710213309324" lon="15.807721595599867"><ele>1129.0</ele><time>2026-04-11T07:38:09Z</time></trkpt><trkpt lat="38.17707328292811" lon="15.807874044393529"><ele>1129.0</ele><time>2026-04-11T07:38:10Z</time></trkpt><trkpt lat="38.17703564860293" lon="15.80802471689838"><ele>1130.25</ele><time>2026-04-11T07:38:11Z</time></trkpt><trkpt lat="38.17699051222057" lon="15.808187434267827"><ele>1131.5</ele><time>2026-04-11T07:38:12Z</time></trkpt><trkpt lat="38.17692456295266" lon="15.808361735676465"><ele>1132.75</ele><time>2026-04-11T07:38:13Z</time></trkpt><trkpt lat="38.176864656078955" lon="15.808531801305907"><ele>1134.0</ele><time>2026-04-11T07:38:14Z</time></trkpt><trkpt lat="38.17680209440603" lon="15.808708065606261"><ele>1136.5</ele><time>2026-04-11T07:38:15Z</time></trkpt><trkpt lat="38.17674207092144" lon="15.808870675901542"><ele>1139.0</ele><time>2026-04-11T07:38:16Z</time></trkpt><trkpt lat="38.1766814560164" lon="15.809019593690023"><ele>1141.5</ele><time>2026-04-11T07:38:17Z</time></trkpt><trkpt lat="38.17663103100328" lon="15.809173487411849"><ele>1144.0</ele><time>2026-04-11T07:38:18Z</time></trkpt><trkpt lat="38.17657716983412" lon="15.809331555253209"><ele>1144.25</ele><time>2026-04-11T07:38:19Z</time></trkpt><trkpt lat="38.17653385081428" lon="15.809480335156886"><ele>1144.5</ele><time>2026-04-11T07:38:20Z</time></trkpt><trkpt lat="38.176500374411376" lon="15.809586584665375"><ele>1144.75</ele><time>2026-04-11T07:38:21Z</time></trkpt><trkpt lat="38.17646410959663" lon="15.809727682184993"><ele>1145.0</ele><time>2026-04-11T07:38:22Z</time></trkpt><trkpt lat="38.1764173592139" lon="15.809870351681578"><ele>1142.2</ele><time>2026-04-11T07:38:23Z</time></trkpt><trkpt lat="38.17638306892395" lon="15.810029686586812"><ele>1139.4</ele><time>2026-04-11T07:38:24Z</time></trkpt><trkpt lat="38.176371107999955" lon="15.810159096290773"><ele>1136.6</ele><time>2026-04-11T07:38:25Z</time></trkpt><trkpt lat="38.176366860462714" lon="15.810272186972645"><ele>1133.8</ele><time>2026-04-11T07:38:26Z</time></trkpt><trkpt lat="38.17633042884118" lon="15.810407018088647"><ele>1131.0</ele><time>2026-04-11T07:38:27Z</time></trkpt><trkpt lat="38.17631997440589" lon="15.810548145388518"><ele>1131.0</ele><time>2026-04-11T07:38:28Z</time></trkpt><trkpt lat="38.17631071670643" lon="15.810681006425453"><ele>1131.0</ele><time>2026-04-11T07:38:29Z</time></trkpt><trkpt lat="38.176326423243346" lon="15.810841328001455"><ele>1131.0</ele><time>2026-04-11T07:38:30Z</time></trkpt><trkpt lat="38.17633333343274" lon="15.81100814811312"><ele>1131.0</ele><time>2026-04-11T07:38:31Z</time></trkpt><trkpt lat="38.17631899130127" lon="15.811152623179517"><ele>1131.3999999999999</ele><time>2026-04-11T07:38:32Z</time></trkpt><trkpt lat="38.17630573168971" lon="15.811277245067016"><ele>1131.8</ele><time>2026-04-11T07:38:33Z</time></trkpt><trkpt lat="38.176291452929384" lon="15.811410451919533"><ele>1132.1999999999998</ele><time>2026-04-11T07:38:34Z</time></trkpt><trkpt lat="38.176265377423654" lon="15.811551697927465"><ele>1132.6</ele><time>2026-04-11T07:38:35Z</time></trkpt><trkpt lat="38.17623557158798" lon="15.811699896847838"><ele>1133.0</ele><time>2026-04-11T07:38:36Z</time></trkpt><trkpt lat="38.176192517242036" lon="15.811832195735283"><ele>1134.0</ele><time>2026-04-11T07:38:37Z</time></trkpt><trkpt lat="38.176160116864054" lon="15.811959891225966"><ele>1135.0</ele><time>2026-04-11T07:38:38Z</time></trkpt><trkpt lat="38.17613249601786" lon="15.812124204137886"><ele>1136.0</ele><time>2026-04-11T07:38:39Z</time></trkpt><trkpt lat="38.176088450543126" lon="15.812286395238171"><ele>1137.0</ele><time>2026-04-11T07:38:40Z</time></trkpt><trkpt lat="38.17604778268802" lon="15.812421466087127"><ele>1137.0</ele><time>2026-04-11T07:38:41Z</time></trkpt><trkpt lat="38.17599880077767" lon="15.812562537103393"><ele>1137.0</ele><time>2026-04-11T07:38:42Z</time></trkpt><trkpt lat="38.175957157019134" lon="15.812678081798577"><ele>1137.0</ele><time>2026-04-11T07:38:43Z</time></trkpt><trkpt lat="38.175923100794535" lon="15.812788706650899"><ele>1137.0</ele><time>2026-04-11T07:38:44.001Z</time></trkpt><trkpt lat="38.17584433193002" lon="15.812904905867866"><ele>1137.0</ele><time>2026-04-11T07:38:45.001Z</time></trkpt><trkpt lat="38.17576523839209" lon="15.812967145535689"><ele>1137.5</ele><time>2026-04-11T07:38:46.001Z</time></trkpt><trkpt lat="38.175695529288824" lon="15.813074360044888"><ele>1138.0</ele><time>2026-04-11T07:38:47.001Z</time></trkpt><trkpt lat="38.17561805379523" lon="15.813188321570331"><ele>1138.5</ele><time>2026-04-11T07:38:48.001Z</time></trkpt><trkpt lat="38.17554342842403" lon="15.813309543177652"><ele>1139.0</ele><time>2026-04-11T07:38:49.001Z</time></trkpt><trkpt lat="38.17546217846821" lon="15.813430418947197"><ele>1139.5</ele><time>2026-04-11T07:38:50.001Z</time></trkpt><trkpt lat="38.175392481209215" lon="15.813549863788548"><ele>1140.0</ele><time>2026-04-11T07:38:51Z</time></trkpt><trkpt lat="38.17531381339253" lon="15.813672399085982"><ele>1140.5</ele><time>2026-04-11T07:38:52Z</time></trkpt><trkpt lat="38.175216313018936" lon="15.8138003927391"><ele>1141.0</ele><time>2026-04-11T07:38:53Z</time></trkpt><trkpt lat="38.1751374747391" lon="15.813871275005713"><ele>1141.0</ele><time>2026-04-11T07:38:54Z</time></trkpt><trkpt lat="38.17503343201666" lon="15.813978137227618"><ele>1141.0</ele><time>2026-04-11T07:38:55Z</time></trkpt><trkpt lat="38.17498440311883" lon="15.814072979485264"><ele>1141.0</ele><time>2026-04-11T07:38:56Z</time></trkpt><trkpt lat="38.174916446521976" lon="15.81414746811452"><ele>1141.0</ele><time>2026-04-11T07:38:57Z</time></trkpt><trkpt lat="38.17483286303698" lon="15.814197984137548"><ele>1141.0</ele><time>2026-04-11T07:38:58Z</time></trkpt><trkpt lat="38.17472676958919" lon="15.814232734735798"><ele>1143.5</ele><time>2026-04-11T07:38:59Z</time></trkpt><trkpt lat="38.17463611654773" lon="15.81433789099345"><ele>1146.0</ele><time>2026-04-11T07:39:00Z</time></trkpt><trkpt lat="38.17456286330712" lon="15.814429388313291"><ele>1148.5</ele><time>2026-04-11T07:39:01Z</time></trkpt><trkpt lat="38.174484335988055" lon="15.81451886541798"><ele>1151.0</ele><time>2026-04-11T07:39:02Z</time></trkpt><trkpt lat="38.17440864555382" lon="15.814636540772579"><ele>1151.0</ele><time>2026-04-11T07:39:03Z</time></trkpt><trkpt lat="38.174345544232345" lon="15.814740463601007"><ele>1151.0</ele><time>2026-04-11T07:39:04Z</time></trkpt><trkpt lat="38.17428095574442" lon="15.814879895843019"><ele>1151.0</ele><time>2026-04-11T07:39:05Z</time></trkpt><trkpt lat="38.17422035961669" lon="15.814966972953123"><ele>1151.0</ele><time>2026-04-11T07:39:06Z</time></trkpt><trkpt lat="38.174154485257375" lon="15.815041015099586"><ele>1151.0</ele><time>2026-04-11T07:39:07Z</time></trkpt><trkpt lat="38.17408135702516" lon="15.815148206387073"><ele>1151.8</ele><time>2026-04-11T07:39:08Z</time></trkpt><trkpt lat="38.17401464311611" lon="15.815239785229778"><ele>1152.6</ele><time>2026-04-11T07:39:09Z</time></trkpt><trkpt lat="38.17394222368627" lon="15.815355166672019"><ele>1153.4</ele><time>2026-04-11T07:39:10Z</time></trkpt><trkpt lat="38.17388628704361" lon="15.815462890316343"><ele>1154.2</ele><time>2026-04-11T07:39:11Z</time></trkpt><trkpt lat="38.17383155679282" lon="15.81559162188667"><ele>1155.0</ele><time>2026-04-11T07:39:12Z</time></trkpt><trkpt lat="38.17375057801928" lon="15.815743587971442"><ele>1155.0</ele><time>2026-04-11T07:39:13Z</time></trkpt><trkpt lat="38.173649991226206" lon="15.81594743653308"><ele>1155.0</ele><time>2026-04-11T07:39:14Z</time></trkpt><trkpt lat="38.17356511279812" lon="15.816108802516577"><ele>1155.0</ele><time>2026-04-11T07:39:15Z</time></trkpt><trkpt lat="38.17349085410495" lon="15.816244415407384"><ele>1156.25</ele><time>2026-04-11T07:39:16Z</time></trkpt><trkpt lat="38.17341805941138" lon="15.816361871911255"><ele>1157.5</ele><time>2026-04-11T07:39:17Z</time></trkpt><trkpt lat="38.17334690856589" lon="15.816482942464988"><ele>1158.75</ele><time>2026-04-11T07:39:18Z</time></trkpt><trkpt lat="38.173278031849335" lon="15.81660848116142"><ele>1160.0</ele><time>2026-04-11T07:39:19Z</time></trkpt><trkpt lat="38.1731979147675" lon="15.816782090441247"><ele>1161.25</ele><time>2026-04-11T07:39:20Z</time></trkpt><trkpt lat="38.17312184732689" lon="15.816929518069573"><ele>1162.5</ele><time>2026-04-11T07:39:21Z</time></trkpt><trkpt lat="38.17303605979105" lon="15.817060373178817"><ele>1163.75</ele><time>2026-04-11T07:39:22Z</time></trkpt><trkpt lat="38.17294927889708" lon="15.817185462870444"><ele>1165.0</ele><time>2026-04-11T07:39:23Z</time></trkpt><trkpt lat="38.17288848195702" lon="15.817334889491203"><ele>1165.0</ele><time>2026-04-11T07:39:24Z</time></trkpt><trkpt lat="38.172822812473484" lon="15.817451277508134"><ele>1165.0</ele><time>2026-04-11T07:39:25Z</time></trkpt><trkpt lat="38.172753235417765" lon="15.817587884239918"><ele>1165.0</ele><time>2026-04-11T07:39:26Z</time></trkpt><trkpt lat="38.1726684291889" lon="15.81774764423129"><ele>1165.0</ele><time>2026-04-11T07:39:27Z</time></trkpt><trkpt lat="38.17260773353425" lon="15.817964591578987"><ele>1165.5</ele><time>2026-04-11T07:39:28Z</time></trkpt><trkpt lat="38.17256380717306" lon="15.818160762142385"><ele>1166.0</ele><time>2026-04-11T07:39:29Z</time></trkpt><trkpt lat="38.172507043381636" lon="15.818318586210722"><ele>1166.5</ele><time>2026-04-11T07:39:30Z</time></trkpt><trkpt lat="38.17246186949539" lon="15.818473963414965"><ele>1167.0</ele><time>2026-04-11T07:39:31Z</time></trkpt><trkpt lat="38.17242494830863" lon="15.818629665367492"><ele>1167.3333333333333</ele><time>2026-04-11T07:39:32Z</time></trkpt><trkpt lat="38.17237547451194" lon="15.818822073728095"><ele>1167.6666666666665</ele><time>2026-04-11T07:39:33Z</time></trkpt><trkpt lat="38.17231319536538" lon="15.819012584909252"><ele>1168.0</ele><time>2026-04-11T07:39:34Z</time></trkpt><trkpt lat="38.172254203497246" lon="15.819186667119693"><ele>1167.75</ele><time>2026-04-11T07:39:35Z</time></trkpt><trkpt lat="38.172200696237" lon="15.819340180628679"><ele>1167.5</ele><time>2026-04-11T07:39:36Z</time></trkpt><trkpt lat="38.17215157959251" lon="15.819487026667195"><ele>1167.25</ele><time>2026-04-11T07:39:37Z</time></trkpt><trkpt lat="38.17209301336311" lon="15.819600474186755"><ele>1167.0</ele><time>2026-04-11T07:39:38Z</time></trkpt><trkpt lat="38.172049543156064" lon="15.819717608493633"><ele>1167.0</ele><time>2026-04-11T07:39:39Z</time></trkpt><trkpt lat="38.17202566799807" lon="15.819825111564219"><ele>1167.0</ele><time>2026-04-11T07:39:40Z</time></trkpt><trkpt lat="38.17198308909281" lon="15.819945124095343"><ele>1167.0</ele><time>2026-04-11T07:39:42Z</time></trkpt><trkpt lat="38.17195952094728" lon="15.82002298450399"><ele>1167.0</ele><time>2026-04-11T07:39:43Z</time></trkpt><trkpt lat="38.17190605073108" lon="15.820089652208612"><ele>1167.0</ele><time>2026-04-11T07:39:44Z</time></trkpt><trkpt lat="38.171854252074404" lon="15.82016294672325"><ele>1167.0</ele><time>2026-04-11T07:39:45Z</time></trkpt><trkpt lat="38.17179512636275" lon="15.820264666622604"><ele>1167.0</ele><time>2026-04-11T07:39:46Z</time></trkpt><trkpt lat="38.17173788868766" lon="15.820402958124728"><ele>1167.0</ele><time>2026-04-11T07:39:47Z</time></trkpt><trkpt lat="38.171718757456894" lon="15.820619675700538"><ele>1167.0</ele><time>2026-04-11T07:39:48Z</time></trkpt><trkpt lat="38.17167848005732" lon="15.820823799303648"><ele>1169.6666666666667</ele><time>2026-04-11T07:39:49Z</time></trkpt><trkpt lat="38.171601168841605" lon="15.821023893109203"><ele>1172.3333333333335</ele><time>2026-04-11T07:39:50Z</time></trkpt><trkpt lat="38.17154025261785" lon="15.821265919507274"><ele>1175.0</ele><time>2026-04-11T07:39:51Z</time></trkpt><trkpt lat="38.171486496093415" lon="15.821508491964035"><ele>1169.0</ele><time>2026-04-11T07:39:52Z</time></trkpt><trkpt lat="38.17143769071712" lon="15.821741306396486"><ele>1163.0</ele><time>2026-04-11T07:39:53Z</time></trkpt><trkpt lat="38.17138966249986" lon="15.821972106412234"><ele>1157.0</ele><time>2026-04-11T07:39:54Z</time></trkpt><trkpt lat="38.17133586166229" lon="15.822196712697947"><ele>1157.0</ele><time>2026-04-11T07:39:55Z</time></trkpt><trkpt lat="38.17128336972678" lon="15.822415656865019"><ele>1157.0</ele><time>2026-04-11T07:39:56Z</time></trkpt><trkpt lat="38.17123557537981" lon="15.822628416582388"><ele>1157.0</ele><time>2026-04-11T07:39:57Z</time></trkpt><trkpt lat="38.171188827960414" lon="15.822836199763259"><ele>1163.3333333333335</ele><time>2026-04-11T07:39:58Z</time></trkpt><trkpt lat="38.17115005615837" lon="15.823050726615783"><ele>1169.6666666666667</ele><time>2026-04-11T07:39:59Z</time></trkpt><trkpt lat="38.171126272704754" lon="15.823269056190078"><ele>1176.0</ele><time>2026-04-11T07:40:00Z</time></trkpt><trkpt lat="38.171089590068036" lon="15.823487839159041"><ele>1180.3333333333333</ele><time>2026-04-11T07:40:01Z</time></trkpt><trkpt lat="38.171126335251394" lon="15.823771324940232"><ele>1184.6666666666665</ele><time>2026-04-11T07:40:02Z</time></trkpt><trkpt lat="38.17110386251875" lon="15.824005388533864"><ele>1189.0</ele><time>2026-04-11T07:40:03Z</time></trkpt><trkpt lat="38.17109491609114" lon="15.824240519027724"><ele>1192.3333333333333</ele><time>2026-04-11T07:40:04Z</time></trkpt><trkpt lat="38.17108477833355" lon="15.824482598822147"><ele>1195.6666666666667</ele><time>2026-04-11T07:40:05Z</time></trkpt><trkpt lat="38.17105106919773" lon="15.824720284251873"><ele>1199.0</ele><time>2026-04-11T07:40:06Z</time></trkpt><trkpt lat="38.17102259119472" lon="15.824956370191979"><ele>1202.6666666666667</ele><time>2026-04-11T07:40:07Z</time></trkpt><trkpt lat="38.17098362548456" lon="15.82517191231938"><ele>1206.3333333333333</ele><time>2026-04-11T07:40:08Z</time></trkpt><trkpt lat="38.170971399367915" lon="15.825342687846652"><ele>1210.0</ele><time>2026-04-11T07:40:09Z</time></trkpt><trkpt lat="38.17093362581075" lon="15.82554216080621"><ele>1210.0</ele><time>2026-04-11T07:40:10Z</time></trkpt><trkpt lat="38.17088740597218" lon="15.825754874151123"><ele>1210.0</ele><time>2026-04-11T07:40:11Z</time></trkpt><trkpt lat="38.17082962559772" lon="15.825958288405603"><ele>1210.0</ele><time>2026-04-11T07:40:12Z</time></trkpt><trkpt lat="38.17076886396059" lon="15.826188445361169"><ele>1207.0</ele><time>2026-04-11T07:40:13Z</time></trkpt><trkpt lat="38.170671105787655" lon="15.826392431583287"><ele>1204.0</ele><time>2026-04-11T07:40:14Z</time></trkpt><trkpt lat="38.17060604728799" lon="15.826574241372109"><ele>1201.0</ele><time>2026-04-11T07:40:15Z</time></trkpt><trkpt lat="38.17053726551995" lon="15.826742540688224"><ele>1204.0</ele><time>2026-04-11T07:40:16Z</time></trkpt><trkpt lat="38.17047593178715" lon="15.826873873538808"><ele>1207.0</ele><time>2026-04-11T07:40:17Z</time></trkpt><trkpt lat="38.17042828349352" lon="15.826984052026361"><ele>1210.0</ele><time>2026-04-11T07:40:18Z</time></trkpt><trkpt lat="38.170399313212705" lon="15.827063653338335"><ele>1213.0</ele><time>2026-04-11T07:40:19Z</time></trkpt><trkpt lat="38.17036172970143" lon="15.827174001699676"><ele>1216.0</ele><time>2026-04-11T07:40:21Z</time></trkpt><trkpt lat="38.17035847260067" lon="15.827278134073705"><ele>1216.0</ele><time>2026-04-11T07:40:23Z</time></trkpt><trkpt lat="38.17040740771953" lon="15.827362995980009"><ele>1216.0</ele><time>2026-04-11T07:40:24Z</time></trkpt><trkpt lat="38.170483533937876" lon="15.827459413958023"><ele>1216.0</ele><time>2026-04-11T07:40:25Z</time></trkpt><trkpt lat="38.17056744677141" lon="15.827580228236927"><ele>1216.0</ele><time>2026-04-11T07:40:26Z</time></trkpt><trkpt lat="38.1707030126007" lon="15.827617720276885"><ele>1218.0</ele><time>2026-04-11T07:40:28Z</time></trkpt><trkpt lat="38.17076902494656" lon="15.82765333799217"><ele>1220.0</ele><time>2026-04-11T07:40:29Z</time></trkpt><trkpt lat="38.1707343906319" lon="15.827840389196165"><ele>1222.0</ele><time>2026-04-11T07:40:31Z</time></trkpt><trkpt lat="38.17063488304862" lon="15.82790337806608"><ele>1224.0</ele><time>2026-04-11T07:40:33Z</time></trkpt><trkpt lat="38.17053214212737" lon="15.827900133799792"><ele>1226.0</ele><time>2026-04-11T07:40:34Z</time></trkpt><trkpt lat="38.17043669244329" lon="15.827926848543289"><ele>1228.25</ele><time>2026-04-11T07:40:35Z</time></trkpt><trkpt lat="38.1703190611851" lon="15.827966573978921"><ele>1230.5</ele><time>2026-04-11T07:40:36Z</time></trkpt><trkpt lat="38.170220481319895" lon="15.827982003605616"><ele>1232.75</ele><time>2026-04-11T07:40:37Z</time></trkpt><trkpt lat="38.17010551884284" lon="15.828024753572764"><ele>1235.0</ele><time>2026-04-11T07:40:38Z</time></trkpt><trkpt lat="38.169994577909925" lon="15.82804043407922"><ele>1235.0</ele><time>2026-04-11T07:40:39Z</time></trkpt><trkpt lat="38.16988592682837" lon="15.82804864548384"><ele>1235.0</ele><time>2026-04-11T07:40:40Z</time></trkpt><trkpt lat="38.16977143175554" lon="15.828085326140643"><ele>1235.0</ele><time>2026-04-11T07:40:41Z</time></trkpt><trkpt lat="38.169668576344826" lon="15.828133872709891"><ele>1235.0</ele><time>2026-04-11T07:40:42Z</time></trkpt><trkpt lat="38.16960684802422" lon="15.82816028983905"><ele>1235.0</ele><time>2026-04-11T07:40:43Z</time></trkpt><trkpt lat="38.16964151270595" lon="15.828337668513345"><ele>1237.2</ele><time>2026-04-11T07:40:45Z</time></trkpt><trkpt lat="38.16968157994447" lon="15.828441554648032"><ele>1239.4</ele><time>2026-04-11T07:40:46Z</time></trkpt><trkpt lat="38.169766992323694" lon="15.828494550734904"><ele>1241.6</ele><time>2026-04-11T07:40:47Z</time></trkpt><trkpt lat="38.169833989220294" lon="15.828550222701528"><ele>1243.8</ele><time>2026-04-11T07:40:48Z</time></trkpt><trkpt lat="38.16990931196849" lon="15.828614536607772"><ele>1246.0</ele><time>2026-04-11T07:40:49Z</time></trkpt><trkpt lat="38.16999675373898" lon="15.828690960878621"><ele>1248.0</ele><time>2026-04-11T07:40:50Z</time></trkpt><trkpt lat="38.170079398536096" lon="15.828838409089904"><ele>1250.0</ele><time>2026-04-11T07:40:51Z</time></trkpt><trkpt lat="38.170129826151566" lon="15.829069623339453"><ele>1252.0</ele><time>2026-04-11T07:40:52Z</time></trkpt><trkpt lat="38.170286207396586" lon="15.828544647419394"><ele>1252.0</ele><time>2026-04-11T07:40:53Z</time></trkpt><trkpt lat="38.1702708847721" lon="15.828630576137344"><ele>1252.0</ele><time>2026-04-11T07:40:54Z</time></trkpt><trkpt lat="38.1702140831496" lon="15.82869092368526"><ele>1252.0</ele><time>2026-04-11T07:40:55Z</time></trkpt><trkpt lat="38.17012194522962" lon="15.828738089995966"><ele>1252.0</ele><time>2026-04-11T07:40:56Z</time></trkpt><trkpt lat="38.169992274688106" lon="15.828762638155148"><ele>1252.0</ele><time>2026-04-11T07:40:57Z</time></trkpt><trkpt lat="38.16985747261954" lon="15.828834142533847"><ele>1256.25</ele><time>2026-04-11T07:40:58Z</time></trkpt><trkpt lat="38.16972774624111" lon="15.82891088008682"><ele>1260.5</ele><time>2026-04-11T07:40:59Z</time></trkpt><trkpt lat="38.16962667755722" lon="15.829031593223185"><ele>1264.75</ele><time>2026-04-11T07:41:00Z</time></trkpt><trkpt lat="38.16955861934424" lon="15.829179920265695"><ele>1269.0</ele><time>2026-04-11T07:41:01Z</time></trkpt><trkpt lat="38.16946997275569" lon="15.829337991102578"><ele>1269.0</ele><time>2026-04-11T07:41:02Z</time></trkpt><trkpt lat="38.1694218962905" lon="15.82955389948895"><ele>1269.0</ele><time>2026-04-11T07:41:03Z</time></trkpt><trkpt lat="38.169387530546025" lon="15.82974097449042"><ele>1269.0</ele><time>2026-04-11T07:41:04Z</time></trkpt><trkpt lat="38.169348327436616" lon="15.829881397006906"><ele>1269.0</ele><time>2026-04-11T07:41:05Z</time></trkpt><trkpt lat="38.16931842373808" lon="15.829998265573135"><ele>1269.0</ele><time>2026-04-11T07:41:06Z</time></trkpt><trkpt lat="38.16926260454926" lon="15.830078832853076"><ele>1269.0</ele><time>2026-04-11T07:41:07Z</time></trkpt><trkpt lat="38.16917383484029" lon="15.83011866503749"><ele>1269.0</ele><time>2026-04-11T07:41:09Z</time></trkpt><trkpt lat="38.16909465870893" lon="15.830189044284387"><ele>1269.0</ele><time>2026-04-11T07:41:10Z</time></trkpt><trkpt lat="38.16901285672658" lon="15.83023929092088"><ele>1269.0</ele><time>2026-04-11T07:41:12Z</time></trkpt><trkpt lat="38.16893638851588" lon="15.83034355506282"><ele>1270.75</ele><time>2026-04-11T07:41:14Z</time></trkpt><trkpt lat="38.1688767834821" lon="15.830424153058365"><ele>1272.5</ele><time>2026-04-11T07:41:15Z</time></trkpt><trkpt lat="38.168736790653455" lon="15.830618755681463"><ele>1274.25</ele><time>2026-04-11T07:41:16Z</time></trkpt><trkpt lat="38.16865192312869" lon="15.830748852248435"><ele>1276.0</ele><time>2026-04-11T07:41:17Z</time></trkpt><trkpt lat="38.168579051476364" lon="15.830860559911072"><ele>1276.0</ele><time>2026-04-11T07:41:18Z</time></trkpt><trkpt lat="38.16851786033144" lon="15.830957253244529"><ele>1276.0</ele><time>2026-04-11T07:41:19Z</time></trkpt><trkpt lat="38.168477707945826" lon="15.831039913979769"><ele>1276.0</ele><time>2026-04-11T07:41:20Z</time></trkpt><trkpt lat="38.16843296482653" lon="15.831111561287216"><ele>1276.0</ele><time>2026-04-11T07:41:21Z</time></trkpt><trkpt lat="38.168365698088756" lon="15.831269582447995"><ele>1276.0</ele><time>2026-04-11T07:41:22Z</time></trkpt><trkpt lat="38.16831770118232" lon="15.831433236030136"><ele>1279.6666666666665</ele><time>2026-04-11T07:41:23Z</time></trkpt><trkpt lat="38.16826426491858" lon="15.831612868262589"><ele>1283.3333333333333</ele><time>2026-04-11T07:41:24Z</time></trkpt><trkpt lat="38.1681996270305" lon="15.831840661154242"><ele>1287.0</ele><time>2026-04-11T07:41:25Z</time></trkpt><trkpt lat="38.1681600418047" lon="15.832009233473741"><ele>1290.25</ele><time>2026-04-11T07:41:26Z</time></trkpt><trkpt lat="38.16812448139626" lon="15.832159876108543"><ele>1293.5</ele><time>2026-04-11T07:41:27Z</time></trkpt><trkpt lat="38.16809996160552" lon="15.832258415054248"><ele>1296.75</ele><time>2026-04-11T07:41:28Z</time></trkpt><trkpt lat="38.168060770482924" lon="15.83237239901628"><ele>1300.0</ele><time>2026-04-11T07:41:30Z</time></trkpt><trkpt lat="38.168156196419304" lon="15.832562523662974"><ele>1301.3333333333333</ele><time>2026-04-11T07:41:31Z</time></trkpt><trkpt lat="38.16820452937059" lon="15.832751767418227"><ele>1302.6666666666667</ele><time>2026-04-11T07:41:32Z</time></trkpt><trkpt lat="38.168253849441996" lon="15.832968453310222"><ele>1304.0</ele><time>2026-04-11T07:41:33Z</time></trkpt><trkpt lat="38.16829732469351" lon="15.833200490134839"><ele>1304.0</ele><time>2026-04-11T07:41:34Z</time></trkpt><trkpt lat="38.16837299234959" lon="15.833463555708605"><ele>1304.0</ele><time>2026-04-11T07:41:35Z</time></trkpt><trkpt lat="38.16842587970565" lon="15.833689318609455"><ele>1304.0</ele><time>2026-04-11T07:41:36Z</time></trkpt><trkpt lat="38.16847461244071" lon="15.833904986001253"><ele>1305.25</ele><time>2026-04-11T07:41:37Z</time></trkpt><trkpt lat="38.168503269648625" lon="15.834097618135658"><ele>1306.5</ele><time>2026-04-11T07:41:38Z</time></trkpt><trkpt lat="38.16851382814847" lon="15.834267056515525"><ele>1307.75</ele><time>2026-04-11T07:41:39Z</time></trkpt><trkpt lat="38.168521547377956" lon="15.834438613442426"><ele>1309.0</ele><time>2026-04-11T07:41:40Z</time></trkpt><trkpt lat="38.168499465630866" lon="15.834637214012137"><ele>1309.3333333333333</ele><time>2026-04-11T07:41:41Z</time></trkpt><trkpt lat="38.168454139979374" lon="15.834827921965722"><ele>1309.6666666666667</ele><time>2026-04-11T07:41:42Z</time></trkpt><trkpt lat="38.168370225866354" lon="15.83499530152825"><ele>1310.0</ele><time>2026-04-11T07:41:43Z</time></trkpt><trkpt lat="38.168297110505925" lon="15.835203634299173"><ele>1310.0</ele><time>2026-04-11T07:41:44Z</time></trkpt><trkpt lat="38.1682078426873" lon="15.835362090052229"><ele>1310.0</ele><time>2026-04-11T07:41:45Z</time></trkpt><trkpt lat="38.16812853154779" lon="15.835491064895477"><ele>1310.0</ele><time>2026-04-11T07:41:46Z</time></trkpt><trkpt lat="38.168037930831645" lon="15.835573081288304"><ele>1310.0</ele><time>2026-04-11T07:41:47Z</time></trkpt><trkpt lat="38.167915129334254" lon="15.835627736199957"><ele>1312.3333333333335</ele><time>2026-04-11T07:41:48Z</time></trkpt><trkpt lat="38.16775829543659" lon="15.835719268825983"><ele>1314.6666666666667</ele><time>2026-04-11T07:41:49Z</time></trkpt><trkpt lat="38.167608213297456" lon="15.835826029383936"><ele>1317.0</ele><time>2026-04-11T07:41:50Z</time></trkpt><trkpt lat="38.16748765751758" lon="15.835868816521723"><ele>1317.0</ele><time>2026-04-11T07:41:51Z</time></trkpt><trkpt lat="38.167408759976375" lon="15.835931876102503"><ele>1317.0</ele><time>2026-04-11T07:41:52Z</time></trkpt><trkpt lat="38.16730603447347" lon="15.835976433628689"><ele>1317.0</ele><time>2026-04-11T07:41:54Z</time></trkpt><trkpt lat="38.16722908384609" lon="15.836059928514642"><ele>1317.0</ele><time>2026-04-11T07:41:56Z</time></trkpt><trkpt lat="38.16716528486739" lon="15.83612522701433"><ele>1317.0</ele><time>2026-04-11T07:41:57Z</time></trkpt><trkpt lat="38.16711444339563" lon="15.836196529554554"><ele>1317.8</ele><time>2026-04-11T07:41:58Z</time></trkpt><trkpt lat="38.16706097101622" lon="15.836255571974666"><ele>1318.6</ele><time>2026-04-11T07:42:00Z</time></trkpt><trkpt lat="38.167092911035866" lon="15.836447434549868"><ele>1319.3999999999999</ele><time>2026-04-11T07:42:01Z</time></trkpt><trkpt lat="38.167169919699305" lon="15.836457087036164"><ele>1320.1999999999998</ele><time>2026-04-11T07:42:02Z</time></trkpt><trkpt lat="38.167244870914104" lon="15.836479309245926"><ele>1321.0</ele><time>2026-04-11T07:45:50Z</time></trkpt><trkpt lat="38.16729285683472" lon="15.836554562788162"><ele>1321.0</ele><time>2026-04-11T07:45:53Z</time></trkpt><trkpt lat="38.167320191562155" lon="15.8366517817138"><ele>1321.0</ele><time>2026-04-11T07:45:56Z</time></trkpt><trkpt lat="38.167344589567726" lon="15.836742249223526"><ele>1321.0</ele><time>2026-04-11T07:45:59Z</time></trkpt><trkpt lat="38.167431748595334" lon="15.836717315695944"><ele>1321.0</ele><time>2026-04-11T07:48:03Z</time></trkpt><trkpt lat="38.167463685683416" lon="15.83680565803458"><ele>1321.0</ele><time>2026-04-11T07:49:24Z</time></trkpt><trkpt lat="38.16750160422021" lon="15.83708980122193"><ele>1320.25</ele><time>2026-04-11T07:51:13Z</time></trkpt><trkpt lat="38.16739382369815" lon="15.836800360168878"><ele>1319.5</ele><time>2026-04-11T07:51:17Z</time></trkpt><trkpt lat="38.16739027958775" lon="15.836708843781185"><ele>1318.75</ele><time>2026-04-11T07:52:12Z</time></trkpt><trkpt lat="38.16744094464768" lon="15.836770244254128"><ele>1318.0</ele><time>2026-04-11T07:52:38Z</time></trkpt><trkpt lat="38.16737440596963" lon="15.836748382030482"><ele>1318.0</ele><time>2026-04-11T07:56:21Z</time></trkpt><trkpt lat="38.16740405019182" lon="15.83682294639758"><ele>1318.0</ele><time>2026-04-11T07:57:41Z</time></trkpt><trkpt lat="38.16739570208962" lon="15.836713577484096"><ele>1318.0</ele><time>2026-04-11T07:58:20Z</time></trkpt><trkpt lat="38.16736657707051" lon="15.837050907575836"><ele>1318.0</ele><time>2026-04-11T07:58:39Z</time></trkpt><trkpt lat="38.16740331623666" lon="15.836732748784833"><ele>1318.0</ele><time>2026-04-11T07:58:43Z</time></trkpt><trkpt lat="38.167368669615094" lon="15.836650807773912"><ele>1318.0</ele><time>2026-04-11T07:59:17Z</time></trkpt><trkpt lat="38.1673791168518" lon="15.836571038159594"><ele>1318.0</ele><time>2026-04-11T07:59:24Z</time></trkpt><trkpt lat="38.167375538530706" lon="15.836489145353939"><ele>1318.0</ele><time>2026-04-11T07:59:27Z</time></trkpt><trkpt lat="38.167376254088495" lon="15.83640782610239"><ele>1318.0</ele><time>2026-04-11T07:59:30Z</time></trkpt><trkpt lat="38.167359321413876" lon="15.836118003368224"><ele>1317.5</ele><time>2026-04-11T07:59:31Z</time></trkpt><trkpt lat="38.16757737662488" lon="15.835949443295442"><ele>1317.0</ele><time>2026-04-11T07:59:36Z</time></trkpt><trkpt lat="38.16735713370507" lon="15.836672781536434"><ele>1317.1666666666667</ele><time>2026-04-11T07:59:39Z</time></trkpt><trkpt lat="38.167385391346905" lon="15.836747888974758"><ele>1317.3333333333333</ele><time>2026-04-11T08:06:30Z</time></trkpt><trkpt lat="38.16727680977064" lon="15.83677661097493"><ele>1317.5</ele><time>2026-04-11T08:07:23Z</time></trkpt><trkpt lat="38.16735402744877" lon="15.836775390633894"><ele>1317.6666666666665</ele><time>2026-04-11T08:07:31Z</time></trkpt><trkpt lat="38.16742419198116" lon="15.83672474873516"><ele>1317.8333333333333</ele><time>2026-04-11T08:08:16Z</time></trkpt><trkpt lat="38.16736608118689" lon="15.836758931101212"><ele>1318.0</ele><time>2026-04-11T08:09:11Z</time></trkpt><trkpt lat="38.16744711791839" lon="15.836689767629226"><ele>1318.0</ele><time>2026-04-11T08:12:54Z</time></trkpt><trkpt lat="38.16751707956651" lon="15.836708112867372"><ele>1318.0</ele><time>2026-04-11T08:12:56Z</time></trkpt><trkpt lat="38.16757929179386" lon="15.83683365347146"><ele>1318.0</ele><time>2026-04-11T08:13:08Z</time></trkpt><trkpt lat="38.16761184798172" lon="15.836934606568715"><ele>1318.0</ele><time>2026-04-11T08:13:09Z</time></trkpt><trkpt lat="38.16765791970322" lon="15.837059656505032"><ele>1318.0</ele><time>2026-04-11T08:13:10Z</time></trkpt><trkpt lat="38.167711782647004" lon="15.837224838989544"><ele>1318.0</ele><time>2026-04-11T08:13:11Z</time></trkpt><trkpt lat="38.167698766347435" lon="15.837361747089753"><ele>1318.0</ele><time>2026-04-11T08:13:12Z</time></trkpt><trkpt lat="38.16771503172533" lon="15.837455676720307"><ele>1318.0</ele><time>2026-04-11T08:13:13Z</time></trkpt><trkpt lat="38.16769966613357" lon="15.837553065934687"><ele>1318.0</ele><time>2026-04-11T08:13:14Z</time></trkpt><trkpt lat="38.16767171212579" lon="15.837676773742183"><ele>1318.0</ele><time>2026-04-11T08:13:15Z</time></trkpt><trkpt lat="38.16756704704021" lon="15.837815600123003"><ele>1317.8333333333333</ele><time>2026-04-11T08:13:16Z</time></trkpt><trkpt lat="38.16751398280613" lon="15.837915755307389"><ele>1317.6666666666665</ele><time>2026-04-11T08:13:17Z</time></trkpt><trkpt lat="38.167471048925535" lon="15.838002977507793"><ele>1317.5</ele><time>2026-04-11T08:13:19Z</time></trkpt><trkpt lat="38.16744191590745" lon="15.838084678883417"><ele>1317.3333333333333</ele><time>2026-04-11T08:21:40Z</time></trkpt><trkpt lat="38.16740165260581" lon="15.838189780755773"><ele>1317.1666666666667</ele><time>2026-04-11T08:21:44Z</time></trkpt><trkpt lat="38.1673658492978" lon="15.83829309034684"><ele>1317.0</ele><time>2026-04-11T08:21:47Z</time></trkpt><trkpt lat="38.16746285527305" lon="15.838412138707543"><ele>1317.0</ele><time>2026-04-11T08:21:48Z</time></trkpt><trkpt lat="38.167519907988336" lon="15.838459862628774"><ele>1317.0</ele><time>2026-04-11T08:21:50Z</time></trkpt><trkpt lat="38.16757789787358" lon="15.838570082764234"><ele>1317.0</ele><time>2026-04-11T08:21:53Z</time></trkpt><trkpt lat="38.16763816333945" lon="15.838657067807246"><ele>1317.0</ele><time>2026-04-11T08:21:55Z</time></trkpt><trkpt lat="38.167713256486806" lon="15.83873924028523"><ele>1317.0</ele><time>2026-04-11T08:21:57Z</time></trkpt><trkpt lat="38.16776754426668" lon="15.838839837009417"><ele>1318.5</ele><time>2026-04-11T08:21:59Z</time></trkpt><trkpt lat="38.16780262107755" lon="15.838921148059965"><ele>1320.0</ele><time>2026-04-11T08:22:01Z</time></trkpt><trkpt lat="38.1680312199955" lon="15.838776576324461"><ele>1321.5</ele><time>2026-04-11T08:22:04Z</time></trkpt><trkpt lat="38.16807662171865" lon="15.838680253516163"><ele>1323.0</ele><time>2026-04-11T08:22:05Z</time></trkpt><trkpt lat="38.1681238130168" lon="15.838583392285367"><ele>1323.0</ele><time>2026-04-11T08:22:06Z</time></trkpt><trkpt lat="38.16816440337062" lon="15.838518149024889"><ele>1323.0</ele><time>2026-04-11T08:22:07Z</time></trkpt><trkpt lat="38.168244429862064" lon="15.838428325918409"><ele>1323.0</ele><time>2026-04-11T08:22:09Z</time></trkpt><trkpt lat="38.16830130032277" lon="15.838376757865682"><ele>1323.0</ele><time>2026-04-11T08:22:10Z</time></trkpt><trkpt lat="38.168382226017194" lon="15.838350071362074"><ele>1323.0</ele><time>2026-04-11T08:22:11Z</time></trkpt><trkpt lat="38.16846480986224" lon="15.838335095455212"><ele>1323.0</ele><time>2026-04-11T08:22:12Z</time></trkpt><trkpt lat="38.168533965600275" lon="15.838340684640652"><ele>1322.2</ele><time>2026-04-11T08:22:13Z</time></trkpt><trkpt lat="38.16863209224329" lon="15.838358632488161"><ele>1321.4</ele><time>2026-04-11T08:22:14Z</time></trkpt><trkpt lat="38.16873001055062" lon="15.83841227441635"><ele>1320.6000000000001</ele><time>2026-04-11T08:22:15Z</time></trkpt><trkpt lat="38.16879740156619" lon="15.838485286233732"><ele>1319.8000000000002</ele><time>2026-04-11T08:22:16Z</time></trkpt><trkpt lat="38.16887381144613" lon="15.838587891853921"><ele>1319.0</ele><time>2026-04-11T08:22:17Z</time></trkpt><trkpt lat="38.16894098168806" lon="15.838685389368617"><ele>1321.4</ele><time>2026-04-11T08:22:18Z</time></trkpt><trkpt lat="38.16899151714994" lon="15.83876716444574"><ele>1323.8000000000002</ele><time>2026-04-11T08:22:19Z</time></trkpt><trkpt lat="38.16904707626354" lon="15.838847850203022"><ele>1326.1999999999998</ele><time>2026-04-11T08:22:20Z</time></trkpt><trkpt lat="38.16909585947147" lon="15.839000304115212"><ele>1328.6</ele><time>2026-04-11T08:22:21Z</time></trkpt><trkpt lat="38.16914614920374" lon="15.839092651329764"><ele>1331.0</ele><time>2026-04-11T08:22:22Z</time></trkpt><trkpt lat="38.16917748081056" lon="15.839200446033358"><ele>1333.4</ele><time>2026-04-11T08:22:23Z</time></trkpt><trkpt lat="38.16918999963218" lon="15.839306355404293"><ele>1335.8</ele><time>2026-04-11T08:22:24Z</time></trkpt><trkpt lat="38.16925551594175" lon="15.839410135401158"><ele>1338.2</ele><time>2026-04-11T08:22:25Z</time></trkpt><trkpt lat="38.169284784734174" lon="15.839525060414008"><ele>1340.6000000000001</ele><time>2026-04-11T08:22:26Z</time></trkpt><trkpt lat="38.169352517827974" lon="15.839614919577867"><ele>1343.0</ele><time>2026-04-11T08:22:27Z</time></trkpt><trkpt lat="38.169507432290814" lon="15.839754453901365"><ele>1343.0</ele><time>2026-04-11T08:22:28Z</time></trkpt><trkpt lat="38.16957200583253" lon="15.839873517049668"><ele>1343.0</ele><time>2026-04-11T08:22:29Z</time></trkpt><trkpt lat="38.16961803418859" lon="15.840007748871113"><ele>1343.0</ele><time>2026-04-11T08:22:30Z</time></trkpt><trkpt lat="38.1696697084792" lon="15.840154000968509"><ele>1343.0</ele><time>2026-04-11T08:22:31Z</time></trkpt><trkpt lat="38.16968991415883" lon="15.840333935736004"><ele>1343.5</ele><time>2026-04-11T08:22:32Z</time></trkpt><trkpt lat="38.16971740858558" lon="15.840498153726434"><ele>1344.0</ele><time>2026-04-11T08:22:33Z</time></trkpt><trkpt lat="38.16977471050819" lon="15.840631620083233"><ele>1344.5</ele><time>2026-04-11T08:22:34Z</time></trkpt><trkpt lat="38.16985838227336" lon="15.840699074322313"><ele>1345.0</ele><time>2026-04-11T08:22:35Z</time></trkpt><trkpt lat="38.16998923774014" lon="15.840714241091225"><ele>1343.75</ele><time>2026-04-11T08:22:36Z</time></trkpt><trkpt lat="38.17011751916788" lon="15.84068558611157"><ele>1342.5</ele><time>2026-04-11T08:22:37Z</time></trkpt><trkpt lat="38.17023541123134" lon="15.840654878902276"><ele>1341.25</ele><time>2026-04-11T08:22:38Z</time></trkpt><trkpt lat="38.17034470889346" lon="15.840624846633604"><ele>1340.0</ele><time>2026-04-11T08:22:39Z</time></trkpt><trkpt lat="38.17044846647482" lon="15.840616849767708"><ele>1340.0</ele><time>2026-04-11T08:22:40Z</time></trkpt><trkpt lat="38.1705430201953" lon="15.840639513389771"><ele>1340.0</ele><time>2026-04-11T08:22:41Z</time></trkpt><trkpt lat="38.17062926320184" lon="15.840750813801737"><ele>1340.0</ele><time>2026-04-11T08:22:42Z</time></trkpt><trkpt lat="38.17071855415083" lon="15.840877294339727"><ele>1340.0</ele><time>2026-04-11T08:22:43Z</time></trkpt><trkpt lat="38.17080742387019" lon="15.841010490263153"><ele>1342.25</ele><time>2026-04-11T08:22:44Z</time></trkpt><trkpt lat="38.170906964394895" lon="15.841137340082888"><ele>1344.5</ele><time>2026-04-11T08:22:45Z</time></trkpt><trkpt lat="38.17099846805873" lon="15.841274794707235"><ele>1346.75</ele><time>2026-04-11T08:22:46Z</time></trkpt><trkpt lat="38.17109729960085" lon="15.841410888976615"><ele>1349.0</ele><time>2026-04-11T08:22:47Z</time></trkpt><trkpt lat="38.171194310180645" lon="15.841550540189921"><ele>1349.0</ele><time>2026-04-11T08:22:48Z</time></trkpt><trkpt lat="38.171312061692205" lon="15.84170961837918"><ele>1349.0</ele><time>2026-04-11T08:22:49Z</time></trkpt><trkpt lat="38.17141829582185" lon="15.841873709758593"><ele>1349.0</ele><time>2026-04-11T08:22:50Z</time></trkpt><trkpt lat="38.17151705836048" lon="15.8420236294674"><ele>1348.6666666666667</ele><time>2026-04-11T08:22:51Z</time></trkpt><trkpt lat="38.17163403606287" lon="15.842171776314615"><ele>1348.3333333333333</ele><time>2026-04-11T08:22:52Z</time></trkpt><trkpt lat="38.17173602915672" lon="15.842311204346851"><ele>1348.0</ele><time>2026-04-11T08:22:53Z</time></trkpt><trkpt lat="38.17182904246446" lon="15.842472992185971"><ele>1348.0</ele><time>2026-04-11T08:22:54Z</time></trkpt><trkpt lat="38.171925564203036" lon="15.842615736460425"><ele>1348.0</ele><time>2026-04-11T08:22:55Z</time></trkpt><trkpt lat="38.17203072494046" lon="15.84274869255259"><ele>1348.0</ele><time>2026-04-11T08:22:56Z</time></trkpt><trkpt lat="38.17211561337301" lon="15.842896796790711"><ele>1348.0</ele><time>2026-04-11T08:22:57Z</time></trkpt><trkpt lat="38.17219206361166" lon="15.843009857681176"><ele>1348.3333333333333</ele><time>2026-04-11T08:22:58Z</time></trkpt><trkpt lat="38.172281688583084" lon="15.84314240245017"><ele>1348.6666666666667</ele><time>2026-04-11T08:22:59Z</time></trkpt><trkpt lat="38.17237371960887" lon="15.843278505490138"><ele>1349.0</ele><time>2026-04-11T08:23:00Z</time></trkpt><trkpt lat="38.17248723015984" lon="15.843446374209586"><ele>1350.25</ele><time>2026-04-11T08:23:01Z</time></trkpt><trkpt lat="38.1725914662428" lon="15.843597331197769"><ele>1351.5</ele><time>2026-04-11T08:23:02Z</time></trkpt><trkpt lat="38.17269488540941" lon="15.843746572936974"><ele>1352.75</ele><time>2026-04-11T08:23:03Z</time></trkpt><trkpt lat="38.172782827375194" lon="15.843873479906073"><ele>1354.0</ele><time>2026-04-11T08:23:04Z</time></trkpt><trkpt lat="38.1728812332572" lon="15.844015487108647"><ele>1354.0</ele><time>2026-04-11T08:23:05Z</time></trkpt><trkpt lat="38.17297406111497" lon="15.84414946466207"><ele>1354.0</ele><time>2026-04-11T08:23:06Z</time></trkpt><trkpt lat="38.17306996109817" lon="15.844288070109942"><ele>1354.0</ele><time>2026-04-11T08:23:07Z</time></trkpt><trkpt lat="38.17317004024721" lon="15.844432715752895"><ele>1354.0</ele><time>2026-04-11T08:23:08Z</time></trkpt><trkpt lat="38.17326357556982" lon="15.844567903514259"><ele>1352.3333333333333</ele><time>2026-04-11T08:23:09Z</time></trkpt><trkpt lat="38.17336145496374" lon="15.844710900793213"><ele>1350.6666666666667</ele><time>2026-04-11T08:23:10Z</time></trkpt><trkpt lat="38.17346734603867" lon="15.84487038015671"><ele>1349.0</ele><time>2026-04-11T08:23:11Z</time></trkpt><trkpt lat="38.17355548085988" lon="15.845003117354622"><ele>1349.0</ele><time>2026-04-11T08:23:12Z</time></trkpt><trkpt lat="38.173633003172185" lon="15.84511983299995"><ele>1349.0</ele><time>2026-04-11T08:23:13Z</time></trkpt><trkpt lat="38.17370976630439" lon="15.845235355077106"><ele>1349.0</ele><time>2026-04-11T08:23:14Z</time></trkpt><trkpt lat="38.173786066286574" lon="15.84534752428898"><ele>1349.0</ele><time>2026-04-11T08:23:15Z</time></trkpt><trkpt lat="38.173861982672136" lon="15.845439649462493"><ele>1349.25</ele><time>2026-04-11T08:23:16Z</time></trkpt><trkpt lat="38.173984249994014" lon="15.845539382652568"><ele>1349.5</ele><time>2026-04-11T08:23:17Z</time></trkpt><trkpt lat="38.17409389067593" lon="15.84556758329239"><ele>1349.75</ele><time>2026-04-11T08:23:18Z</time></trkpt><trkpt lat="38.17420959410176" lon="15.845609601561437"><ele>1350.0</ele><time>2026-04-11T08:23:19Z</time></trkpt><trkpt lat="38.17433013500773" lon="15.84563762867671"><ele>1350.0</ele><time>2026-04-11T08:23:20Z</time></trkpt><trkpt lat="38.17441403618049" lon="15.845659711870125"><ele>1350.0</ele><time>2026-04-11T08:23:21Z</time></trkpt><trkpt lat="38.17452381122606" lon="15.845673533277248"><ele>1350.0</ele><time>2026-04-11T08:23:22Z</time></trkpt><trkpt lat="38.174687476797125" lon="15.845769786975447"><ele>1350.0</ele><time>2026-04-11T08:23:23Z</time></trkpt><trkpt lat="38.17482074614787" lon="15.845878421148955"><ele>1346.0</ele><time>2026-04-11T08:23:24Z</time></trkpt><trkpt lat="38.174942752046" lon="15.846026436437668"><ele>1342.0</ele><time>2026-04-11T08:23:25Z</time></trkpt><trkpt lat="38.17500887751983" lon="15.846165146546285"><ele>1338.0</ele><time>2026-04-11T08:23:26Z</time></trkpt><trkpt lat="38.17503711317065" lon="15.846301139211223"><ele>1334.0</ele><time>2026-04-11T08:23:27Z</time></trkpt><trkpt lat="38.17505367808974" lon="15.846444449765453"><ele>1334.0</ele><time>2026-04-11T08:23:28Z</time></trkpt><trkpt lat="38.175051409778064" lon="15.846582147008197"><ele>1334.0</ele><time>2026-04-11T08:23:29Z</time></trkpt><trkpt lat="38.17499414797519" lon="15.84671716812364"><ele>1334.0</ele><time>2026-04-11T08:23:30Z</time></trkpt><trkpt lat="38.17491173055815" lon="15.846873507198056"><ele>1334.0</ele><time>2026-04-11T08:23:31Z</time></trkpt><trkpt lat="38.17480380195393" lon="15.847020614227555"><ele>1338.5</ele><time>2026-04-11T08:23:32Z</time></trkpt><trkpt lat="38.17473010118911" lon="15.84715228671692"><ele>1343.0</ele><time>2026-04-11T08:23:33Z</time></trkpt><trkpt lat="38.17467314268732" lon="15.84726249423027"><ele>1347.5</ele><time>2026-04-11T08:23:34Z</time></trkpt><trkpt lat="38.17466436600594" lon="15.847424378980831"><ele>1352.0</ele><time>2026-04-11T08:23:35Z</time></trkpt><trkpt lat="38.174678368762045" lon="15.84761831195157"><ele>1352.3333333333335</ele><time>2026-04-11T08:23:36Z</time></trkpt><trkpt lat="38.17470240832069" lon="15.847803962193755"><ele>1352.6666666666667</ele><time>2026-04-11T08:23:37Z</time></trkpt><trkpt lat="38.17473490452956" lon="15.847993284371324"><ele>1353.0</ele><time>2026-04-11T08:23:38Z</time></trkpt><trkpt lat="38.174779844946855" lon="15.848175633693605"><ele>1346.25</ele><time>2026-04-11T08:23:39Z</time></trkpt><trkpt lat="38.17485453723323" lon="15.848354373201179"><ele>1339.5</ele><time>2026-04-11T08:23:40Z</time></trkpt><trkpt lat="38.17497008206624" lon="15.848482656446292"><ele>1332.75</ele><time>2026-04-11T08:23:41Z</time></trkpt><trkpt lat="38.17508790670251" lon="15.848561859585136"><ele>1326.0</ele><time>2026-04-11T08:23:42Z</time></trkpt><trkpt lat="38.175165370021524" lon="15.848619421213755"><ele>1326.0</ele><time>2026-04-11T08:23:43Z</time></trkpt><trkpt lat="38.17516751590219" lon="15.848779530298582"><ele>1326.0</ele><time>2026-04-11T08:23:45Z</time></trkpt><trkpt lat="38.1751205639721" lon="15.84887684669595"><ele>1326.0</ele><time>2026-04-11T08:23:46Z</time></trkpt><trkpt lat="38.175051731247244" lon="15.84899714122791"><ele>1326.0</ele><time>2026-04-11T08:23:47Z</time></trkpt><trkpt lat="38.1750263707444" lon="15.849153428412368"><ele>1326.6</ele><time>2026-04-11T08:23:48Z</time></trkpt><trkpt lat="38.17506286805718" lon="15.849315968162628"><ele>1327.1999999999998</ele><time>2026-04-11T08:23:49Z</time></trkpt><trkpt lat="38.175114204470944" lon="15.8494410645541"><ele>1327.8000000000002</ele><time>2026-04-11T08:23:50Z</time></trkpt><trkpt lat="38.17516385504898" lon="15.84956092226426"><ele>1328.4</ele><time>2026-04-11T08:23:51Z</time></trkpt><trkpt lat="38.175225253307545" lon="15.84965310364398"><ele>1329.0</ele><time>2026-04-11T08:23:52Z</time></trkpt><trkpt lat="38.17532129267443" lon="15.849718723481594"><ele>1329.0</ele><time>2026-04-11T08:23:53Z</time></trkpt><trkpt lat="38.17545424944469" lon="15.849691552962689"><ele>1329.0</ele><time>2026-04-11T08:23:54Z</time></trkpt><trkpt lat="38.17553752676447" lon="15.849666446863598"><ele>1329.0</ele><time>2026-04-11T08:23:55Z</time></trkpt><trkpt lat="38.175682222211016" lon="15.84962462951217"><ele>1329.0</ele><time>2026-04-11T08:23:56Z</time></trkpt><trkpt lat="38.17579761198043" lon="15.849591368602646"><ele>1328.0</ele><time>2026-04-11T08:23:57Z</time></trkpt><trkpt lat="38.17592681125629" lon="15.849554127131716"><ele>1327.0</ele><time>2026-04-11T08:23:58Z</time></trkpt><trkpt lat="38.17605693719843" lon="15.849516618543236"><ele>1326.0</ele><time>2026-04-11T08:23:59Z</time></trkpt><trkpt lat="38.176192005903" lon="15.849457442853735"><ele>1325.0</ele><time>2026-04-11T08:24:00Z</time></trkpt><trkpt lat="38.17631723100574" lon="15.849386758882849"><ele>1326.5</ele><time>2026-04-11T08:24:01Z</time></trkpt><trkpt lat="38.17641648306787" lon="15.84927987423485"><ele>1328.0</ele><time>2026-04-11T08:24:02Z</time></trkpt><trkpt lat="38.176497625454836" lon="15.849142538575107"><ele>1329.5</ele><time>2026-04-11T08:24:03Z</time></trkpt><trkpt lat="38.17658345669454" lon="15.84898398166592"><ele>1331.0</ele><time>2026-04-11T08:24:04Z</time></trkpt><trkpt lat="38.176677203819246" lon="15.848828651229399"><ele>1331.0</ele><time>2026-04-11T08:24:05Z</time></trkpt><trkpt lat="38.17675532727777" lon="15.848651586948568"><ele>1331.0</ele><time>2026-04-11T08:24:06Z</time></trkpt><trkpt lat="38.176794051626125" lon="15.848469662109489"><ele>1331.0</ele><time>2026-04-11T08:24:07Z</time></trkpt><trkpt lat="38.176826932639855" lon="15.848305728193818"><ele>1331.0</ele><time>2026-04-11T08:24:08Z</time></trkpt><trkpt lat="38.17683453982504" lon="15.848140366549995"><ele>1328.0</ele><time>2026-04-11T08:24:09Z</time></trkpt><trkpt lat="38.17691252302024" lon="15.848020850310968"><ele>1325.0</ele><time>2026-04-11T08:24:10Z</time></trkpt><trkpt lat="38.176968657555534" lon="15.847879359520679"><ele>1322.0</ele><time>2026-04-11T08:24:11Z</time></trkpt><trkpt lat="38.17707771414839" lon="15.84775509479445"><ele>1319.0</ele><time>2026-04-11T08:24:12Z</time></trkpt><trkpt lat="38.17717757768883" lon="15.84760999619864"><ele>1314.6666666666667</ele><time>2026-04-11T08:24:13Z</time></trkpt><trkpt lat="38.17725355615815" lon="15.847434656889963"><ele>1310.3333333333333</ele><time>2026-04-11T08:24:14Z</time></trkpt><trkpt lat="38.177296151449205" lon="15.84722828500434"><ele>1306.0</ele><time>2026-04-11T08:24:15Z</time></trkpt><trkpt lat="38.177334306020676" lon="15.847068304855847"><ele>1311.0</ele><time>2026-04-11T08:24:16Z</time></trkpt><trkpt lat="38.17737836059617" lon="15.846938539593536"><ele>1316.0</ele><time>2026-04-11T08:24:17Z</time></trkpt><trkpt lat="38.17742457327837" lon="15.846808600644131"><ele>1321.0</ele><time>2026-04-11T08:24:18Z</time></trkpt><trkpt lat="38.17750217610908" lon="15.846669691714478"><ele>1326.0</ele><time>2026-04-11T08:24:19Z</time></trkpt><trkpt lat="38.177589640170474" lon="15.846536214063011"><ele>1326.0</ele><time>2026-04-11T08:24:20Z</time></trkpt><trkpt lat="38.17767658903628" lon="15.846388608610534"><ele>1326.0</ele><time>2026-04-11T08:24:21Z</time></trkpt><trkpt lat="38.177754185325966" lon="15.846226449145433"><ele>1326.0</ele><time>2026-04-11T08:24:22Z</time></trkpt><trkpt lat="38.1778131787879" lon="15.846061589059728"><ele>1326.0</ele><time>2026-04-11T08:24:23Z</time></trkpt><trkpt lat="38.177860940301535" lon="15.84590212044187"><ele>1322.5</ele><time>2026-04-11T08:24:24Z</time></trkpt><trkpt lat="38.17790023982857" lon="15.845738559255906"><ele>1319.0</ele><time>2026-04-11T08:24:25Z</time></trkpt><trkpt lat="38.17796102249021" lon="15.845576460966054"><ele>1315.5</ele><time>2026-04-11T08:24:26Z</time></trkpt><trkpt lat="38.17802437121085" lon="15.845453764749571"><ele>1312.0</ele><time>2026-04-11T08:24:27Z</time></trkpt><trkpt lat="38.17809556216655" lon="15.845310735469953"><ele>1312.0</ele><time>2026-04-11T08:24:28Z</time></trkpt><trkpt lat="38.17816961318512" lon="15.845218495204689"><ele>1312.0</ele><time>2026-04-11T08:24:29Z</time></trkpt><trkpt lat="38.17823589406402" lon="15.845139511346188"><ele>1312.0</ele><time>2026-04-11T08:24:30Z</time></trkpt><trkpt lat="38.178315760899764" lon="15.84506373567568"><ele>1312.0</ele><time>2026-04-11T08:24:31Z</time></trkpt><trkpt lat="38.17838443827255" lon="15.844989277095825"><ele>1312.0</ele><time>2026-04-11T08:24:32Z</time></trkpt><trkpt lat="38.17845703335094" lon="15.844937109117385"><ele>1313.8333333333333</ele><time>2026-04-11T08:24:33Z</time></trkpt><trkpt lat="38.1785161549719" lon="15.844880744730657"><ele>1315.6666666666665</ele><time>2026-04-11T08:24:34Z</time></trkpt><trkpt lat="38.17856876444417" lon="15.844831022366222"><ele>1317.5</ele><time>2026-04-11T08:24:35Z</time></trkpt><trkpt lat="38.17863147778034" lon="15.844767248245306"><ele>1319.3333333333333</ele><time>2026-04-11T08:24:37Z</time></trkpt><trkpt lat="38.17872132464397" lon="15.844839617879186"><ele>1321.1666666666667</ele><time>2026-04-11T08:24:44Z</time></trkpt><trkpt lat="38.17871748867224" lon="15.844922994553963"><ele>1323.0</ele><time>2026-04-11T08:24:52Z</time></trkpt><trkpt lat="38.17870658226101" lon="15.845019240296615"><ele>1323.8000000000002</ele><time>2026-04-11T08:24:54Z</time></trkpt><trkpt lat="38.17868500830334" lon="15.845152770145758"><ele>1324.6</ele><time>2026-04-11T08:24:56Z</time></trkpt><trkpt lat="38.17864693614218" lon="15.8452229723595"><ele>1325.4</ele><time>2026-04-11T08:24:57Z</time></trkpt><trkpt lat="38.17860982835822" lon="15.845316831408013"><ele>1326.1999999999998</ele><time>2026-04-11T08:24:58Z</time></trkpt><trkpt lat="38.178562710844545" lon="15.845425657219357"><ele>1327.0</ele><time>2026-04-11T08:24:59Z</time></trkpt><trkpt lat="38.17850935199176" lon="15.845539158745217"><ele>1327.0</ele><time>2026-04-11T08:25:00Z</time></trkpt><trkpt lat="38.17846389457277" lon="15.845634351134146"><ele>1327.0</ele><time>2026-04-11T08:25:01Z</time></trkpt><trkpt lat="38.17842339409831" lon="15.84571916318528"><ele>1327.0</ele><time>2026-04-11T08:25:02Z</time></trkpt><trkpt lat="38.17837726278955" lon="15.845818472813523"><ele>1327.0</ele><time>2026-04-11T08:25:03Z</time></trkpt><trkpt lat="38.17831633843598" lon="15.845954571035346"><ele>1327.0</ele><time>2026-04-11T08:25:04Z</time></trkpt><trkpt lat="38.178271137791214" lon="15.846097080027425"><ele>1326.75</ele><time>2026-04-11T08:25:05Z</time></trkpt><trkpt lat="38.178201094842706" lon="15.846237683450598"><ele>1326.5</ele><time>2026-04-11T08:25:06Z</time></trkpt><trkpt lat="38.178132828240834" lon="15.84639977573466"><ele>1326.25</ele><time>2026-04-11T08:25:07Z</time></trkpt><trkpt lat="38.178067859931964" lon="15.846567955268508"><ele>1326.0</ele><time>2026-04-11T08:25:08Z</time></trkpt><trkpt lat="38.177998810339595" lon="15.846719392108044"><ele>1327.5</ele><time>2026-04-11T08:25:09Z</time></trkpt><trkpt lat="38.17794447278848" lon="15.846864984596184"><ele>1329.0</ele><time>2026-04-11T08:25:10Z</time></trkpt><trkpt lat="38.1778851690933" lon="15.847047614669394"><ele>1330.5</ele><time>2026-04-11T08:25:11Z</time></trkpt><trkpt lat="38.17783079426743" lon="15.847227768766174"><ele>1332.0</ele><time>2026-04-11T08:25:12Z</time></trkpt><trkpt lat="38.17778193436169" lon="15.847391688495794"><ele>1332.0</ele><time>2026-04-11T08:25:13Z</time></trkpt><trkpt lat="38.17773418876884" lon="15.847551621554354"><ele>1332.0</ele><time>2026-04-11T08:25:14Z</time></trkpt><trkpt lat="38.17768189730714" lon="15.847715860877429"><ele>1332.0</ele><time>2026-04-11T08:25:15Z</time></trkpt><trkpt lat="38.17763495294252" lon="15.84786945851646"><ele>1332.0</ele><time>2026-04-11T08:25:16Z</time></trkpt><trkpt lat="38.17760354838818" lon="15.848006949027258"><ele>1333.25</ele><time>2026-04-11T08:25:17Z</time></trkpt><trkpt lat="38.17756536233771" lon="15.848150461667789"><ele>1334.5</ele><time>2026-04-11T08:25:18Z</time></trkpt><trkpt lat="38.17754193356148" lon="15.848327116185217"><ele>1335.75</ele><time>2026-04-11T08:25:19Z</time></trkpt><trkpt lat="38.17751470580828" lon="15.848468497216645"><ele>1337.0</ele><time>2026-04-11T08:25:20Z</time></trkpt><trkpt lat="38.177481706908715" lon="15.8486005456455"><ele>1338.0</ele><time>2026-04-11T08:25:21Z</time></trkpt><trkpt lat="38.1774618386498" lon="15.848746469245189"><ele>1339.0</ele><time>2026-04-11T08:25:22Z</time></trkpt><trkpt lat="38.17749179626894" lon="15.848853678792196"><ele>1340.0</ele><time>2026-04-11T08:25:23Z</time></trkpt><trkpt lat="38.17755926250228" lon="15.848959931503215"><ele>1341.0</ele><time>2026-04-11T08:25:24.999Z</time></trkpt><trkpt lat="38.17762618345259" lon="15.849036831388402"><ele>1342.0</ele><time>2026-04-11T08:25:26.999Z</time></trkpt><trkpt lat="38.17774782345491" lon="15.849153196678873"><ele>1342.0</ele><time>2026-04-11T08:25:28.999Z</time></trkpt><trkpt lat="38.17782989618307" lon="15.849237267244385"><ele>1342.0</ele><time>2026-04-11T08:25:29.999Z</time></trkpt><trkpt lat="38.17790274592993" lon="15.849288229422385"><ele>1342.0</ele><time>2026-04-11T08:25:30.999Z</time></trkpt><trkpt lat="38.17795775675771" lon="15.849355684692114"><ele>1342.0</ele><time>2026-04-11T08:25:33.999Z</time></trkpt><trkpt lat="38.17803378390843" lon="15.84942291747808"><ele>1342.0</ele><time>2026-04-11T08:25:36.999Z</time></trkpt><trkpt lat="38.178110662972" lon="15.849490903278909"><ele>1343.8333333333333</ele><time>2026-04-11T08:25:39Z</time></trkpt><trkpt lat="38.178179188855395" lon="15.849557486858915"><ele>1345.6666666666665</ele><time>2026-04-11T08:25:41Z</time></trkpt><trkpt lat="38.1782454542587" lon="15.849626064597226"><ele>1347.5</ele><time>2026-04-11T08:25:43Z</time></trkpt><trkpt lat="38.17831236766009" lon="15.849696653660594"><ele>1349.3333333333333</ele><time>2026-04-11T08:25:46Z</time></trkpt><trkpt lat="38.178382131257294" lon="15.849770752568212"><ele>1351.1666666666667</ele><time>2026-04-11T08:25:47Z</time></trkpt><trkpt lat="38.178445076261326" lon="15.849827052205075"><ele>1353.0</ele><time>2026-04-11T08:25:48Z</time></trkpt><trkpt lat="38.1785339470577" lon="15.84989504686872"><ele>1353.1666666666667</ele><time>2026-04-11T08:25:51Z</time></trkpt><trkpt lat="38.17858987790771" lon="15.849937839375423"><ele>1353.3333333333333</ele><time>2026-04-11T08:25:53Z</time></trkpt><trkpt lat="38.17869919970127" lon="15.849996114654486"><ele>1353.5</ele><time>2026-04-11T08:25:56Z</time></trkpt><trkpt lat="38.17880332498618" lon="15.850014171548652"><ele>1353.6666666666665</ele><time>2026-04-11T08:25:58Z</time></trkpt><trkpt lat="38.17888028560782" lon="15.850030531998788"><ele>1353.8333333333333</ele><time>2026-04-11T08:25:59Z</time></trkpt><trkpt lat="38.17886453149271" lon="15.849935044344425"><ele>1354.0</ele><time>2026-04-11T08:26:03Z</time></trkpt><trkpt lat="38.178971414307775" lon="15.85007636008527"><ele>1354.4</ele><time>2026-04-11T08:26:16Z</time></trkpt><trkpt lat="38.1790178183136" lon="15.850132202383714"><ele>1354.8000000000002</ele><time>2026-04-11T08:26:17Z</time></trkpt><trkpt lat="38.17911407009927" lon="15.85026250022661"><ele>1355.1999999999998</ele><time>2026-04-11T08:26:19Z</time></trkpt><trkpt lat="38.17917119047032" lon="15.850330767463435"><ele>1355.6</ele><time>2026-04-11T08:26:20Z</time></trkpt><trkpt lat="38.17926659359402" lon="15.850408657456972"><ele>1356.0</ele><time>2026-04-11T08:26:21Z</time></trkpt><trkpt lat="38.179339347569936" lon="15.85048020681897"><ele>1356.0</ele><time>2026-04-11T08:26:22Z</time></trkpt><trkpt lat="38.179388869142244" lon="15.850600083046801"><ele>1356.0</ele><time>2026-04-11T08:26:24Z</time></trkpt><trkpt lat="38.17944323120569" lon="15.850678572499966"><ele>1356.0</ele><time>2026-04-11T08:26:25Z</time></trkpt><trkpt lat="38.17951096854399" lon="15.850719248329735"><ele>1356.0</ele><time>2026-04-11T08:26:26Z</time></trkpt><trkpt lat="38.17954951509232" lon="15.850790966224066"><ele>1356.0</ele><time>2026-04-11T08:26:29Z</time></trkpt><trkpt lat="38.179599363277916" lon="15.850853449190518"><ele>1356.0</ele><time>2026-04-11T08:26:30Z</time></trkpt><trkpt lat="38.17968347661722" lon="15.850913516437133"><ele>1356.6666666666667</ele><time>2026-04-11T08:26:32Z</time></trkpt><trkpt lat="38.17974198093535" lon="15.850958872645519"><ele>1357.3333333333333</ele><time>2026-04-11T08:26:35Z</time></trkpt><trkpt lat="38.179813484167596" lon="15.850999836164712"><ele>1358.0</ele><time>2026-04-11T08:26:38Z</time></trkpt><trkpt lat="38.17990556448763" lon="15.851047904677614"><ele>1358.6666666666665</ele><time>2026-04-11T08:26:40Z</time></trkpt><trkpt lat="38.17997300366045" lon="15.851087943625501"><ele>1359.3333333333333</ele><time>2026-04-11T08:26:43Z</time></trkpt><trkpt lat="38.1800613577143" lon="15.851136736479164"><ele>1360.0</ele><time>2026-04-11T08:26:46Z</time></trkpt><trkpt lat="38.18010705870692" lon="15.85119295099015"><ele>1360.0</ele><time>2026-04-11T08:26:48Z</time></trkpt><trkpt lat="38.18020572624852" lon="15.851231875661881"><ele>1360.0</ele><time>2026-04-11T08:26:50Z</time></trkpt><trkpt lat="38.180285155820535" lon="15.851290007077967"><ele>1360.0</ele><time>2026-04-11T08:26:52Z</time></trkpt><trkpt lat="38.18038020270678" lon="15.8513390414614"><ele>1360.0</ele><time>2026-04-11T08:26:55Z</time></trkpt><trkpt lat="38.18046488100058" lon="15.851465588744977"><ele>1360.0</ele><time>2026-04-11T08:26:57Z</time></trkpt><trkpt lat="38.18050134523521" lon="15.85155099865032"><ele>1360.0</ele><time>2026-04-11T08:26:58Z</time></trkpt><trkpt lat="38.18054771805302" lon="15.85171133449656"><ele>1360.0</ele><time>2026-04-11T08:27:00Z</time></trkpt><trkpt lat="38.18057517067604" lon="15.851793813065733"><ele>1360.0</ele><time>2026-04-11T08:27:01Z</time></trkpt><trkpt lat="38.18066549229741" lon="15.851770682252894"><ele>1360.0</ele><time>2026-04-11T08:27:03Z</time></trkpt><trkpt lat="38.180806592687276" lon="15.851799002388459"><ele>1360.0</ele><time>2026-04-11T08:27:05Z</time></trkpt><trkpt lat="38.18089053031079" lon="15.851787814540653"><ele>1360.0</ele><time>2026-04-11T08:27:06Z</time></trkpt><trkpt lat="38.18099639064756" lon="15.851781531857538"><ele>1360.0</ele><time>2026-04-11T08:27:07Z</time></trkpt><trkpt lat="38.18111624323886" lon="15.851759019769364"><ele>1360.0</ele><time>2026-04-11T08:27:08Z</time></trkpt><trkpt lat="38.18120904510428" lon="15.851701377454555"><ele>1360.0</ele><time>2026-04-11T08:27:09Z</time></trkpt><trkpt lat="38.18131515872033" lon="15.851722385200212"><ele>1360.0</ele><time>2026-04-11T08:27:10Z</time></trkpt><trkpt lat="38.181413333755536" lon="15.851793684710556"><ele>1359.8</ele><time>2026-04-11T08:27:12Z</time></trkpt><trkpt lat="38.1815185258636" lon="15.851857626378965"><ele>1359.6</ele><time>2026-04-11T08:27:13Z</time></trkpt><trkpt lat="38.18161235089938" lon="15.85189426517076"><ele>1359.4</ele><time>2026-04-11T08:27:14Z</time></trkpt><trkpt lat="38.181723953823294" lon="15.851955734033687"><ele>1359.2</ele><time>2026-04-11T08:27:15Z</time></trkpt><trkpt lat="38.18181937726042" lon="15.852009910007931"><ele>1359.0</ele><time>2026-04-11T08:27:16Z</time></trkpt><trkpt lat="38.18190755513137" lon="15.852102256716229"><ele>1359.0</ele><time>2026-04-11T08:27:17Z</time></trkpt><trkpt lat="38.181983007497095" lon="15.852152032037264"><ele>1359.0</ele><time>2026-04-11T08:27:18Z</time></trkpt><trkpt lat="38.182083095935816" lon="15.852175608249443"><ele>1359.0</ele><time>2026-04-11T08:27:19Z</time></trkpt><trkpt lat="38.18218264491685" lon="15.852205043099827"><ele>1359.0</ele><time>2026-04-11T08:27:20Z</time></trkpt><trkpt lat="38.182292918598755" lon="15.852268620929342"><ele>1359.0</ele><time>2026-04-11T08:27:21Z</time></trkpt><trkpt lat="38.182412638687545" lon="15.852366890662669"><ele>1357.75</ele><time>2026-04-11T08:27:22Z</time></trkpt><trkpt lat="38.18253204700072" lon="15.85247202691372"><ele>1356.5</ele><time>2026-04-11T08:27:23Z</time></trkpt><trkpt lat="38.182648659852006" lon="15.852555572882197"><ele>1355.25</ele><time>2026-04-11T08:27:24Z</time></trkpt><trkpt lat="38.18279152465797" lon="15.852633581623195"><ele>1354.0</ele><time>2026-04-11T08:27:25Z</time></trkpt><trkpt lat="38.182922796829764" lon="15.852701193929729"><ele>1355.0</ele><time>2026-04-11T08:27:26Z</time></trkpt><trkpt lat="38.183020809453" lon="15.8527678807521"><ele>1356.0</ele><time>2026-04-11T08:27:27Z</time></trkpt><trkpt lat="38.18312187843278" lon="15.852852230286935"><ele>1357.0</ele><time>2026-04-11T08:27:28Z</time></trkpt><trkpt lat="38.1832300808664" lon="15.85294308642635"><ele>1358.0</ele><time>2026-04-11T08:27:29Z</time></trkpt><trkpt lat="38.183300276638136" lon="15.852988336274436"><ele>1359.0</ele><time>2026-04-11T08:27:30Z</time></trkpt><trkpt lat="38.183384170644466" lon="15.853028182684746"><ele>1359.0</ele><time>2026-04-11T08:27:30.999Z</time></trkpt><trkpt lat="38.183452958691845" lon="15.853086039927575"><ele>1359.0</ele><time>2026-04-11T08:27:31.999Z</time></trkpt><trkpt lat="38.18348140256778" lon="15.853193226149688"><ele>1359.0</ele><time>2026-04-11T08:27:32.999Z</time></trkpt><trkpt lat="38.183542102185704" lon="15.853304596982412"><ele>1359.0</ele><time>2026-04-11T08:27:33.999Z</time></trkpt><trkpt lat="38.183574688231836" lon="15.85340424871907"><ele>1359.0</ele><time>2026-04-11T08:27:34.999Z</time></trkpt><trkpt lat="38.18359149134716" lon="15.853495272648225"><ele>1359.0</ele><time>2026-04-11T08:27:36Z</time></trkpt><trkpt lat="38.183600505442925" lon="15.85360322708212"><ele>1360.5</ele><time>2026-04-11T08:27:38Z</time></trkpt><trkpt lat="38.18368353177651" lon="15.853700666810461"><ele>1362.0</ele><time>2026-04-11T08:27:40Z</time></trkpt><trkpt lat="38.183772715119325" lon="15.85375996082843"><ele>1363.5</ele><time>2026-04-11T08:27:41Z</time></trkpt><trkpt lat="38.183867917032536" lon="15.853808316707463"><ele>1365.0</ele><time>2026-04-11T08:27:42Z</time></trkpt><trkpt lat="38.1839837191288" lon="15.853924684576068"><ele>1363.0</ele><time>2026-04-11T08:27:44Z</time></trkpt><trkpt lat="38.18402200496783" lon="15.854029726404985"><ele>1361.0</ele><time>2026-04-11T08:27:45Z</time></trkpt><trkpt lat="38.18407541698871" lon="15.854122316805187"><ele>1359.0</ele><time>2026-04-11T08:27:46Z</time></trkpt><trkpt lat="38.184105302773496" lon="15.854196304905901"><ele>1357.0</ele><time>2026-04-11T08:27:47Z</time></trkpt><trkpt lat="38.18420798898433" lon="15.854214138915903"><ele>1355.0</ele><time>2026-04-11T08:27:49Z</time></trkpt><trkpt lat="38.18435644756187" lon="15.85428331160688"><ele>1355.6</ele><time>2026-04-11T08:27:51Z</time></trkpt><trkpt lat="38.1844672353081" lon="15.854297250679329"><ele>1356.2</ele><time>2026-04-11T08:27:52Z</time></trkpt><trkpt lat="38.18458026336813" lon="15.854326941978153"><ele>1356.8000000000002</ele><time>2026-04-11T08:27:53Z</time></trkpt><trkpt lat="38.18466528026752" lon="15.85432886250385"><ele>1357.4</ele><time>2026-04-11T08:27:54Z</time></trkpt><trkpt lat="38.1847931989495" lon="15.854375438871545"><ele>1358.0</ele><time>2026-04-11T08:27:55Z</time></trkpt><trkpt lat="38.18487808902028" lon="15.854446786702304"><ele>1358.2</ele><time>2026-04-11T08:27:56Z</time></trkpt><trkpt lat="38.1849552475961" lon="15.854503367098518"><ele>1358.4</ele><time>2026-04-11T08:27:57Z</time></trkpt><trkpt lat="38.18501472025914" lon="15.854595068529635"><ele>1358.6000000000001</ele><time>2026-04-11T08:27:58Z</time></trkpt><trkpt lat="38.18508173703524" lon="15.854735823020652"><ele>1358.8000000000002</ele><time>2026-04-11T08:27:59Z</time></trkpt><trkpt lat="38.18517455896419" lon="15.854856139623847"><ele>1359.0</ele><time>2026-04-11T08:28:00Z</time></trkpt><trkpt lat="38.185262827499294" lon="15.85496302228456"><ele>1359.0</ele><time>2026-04-11T08:28:01Z</time></trkpt><trkpt lat="38.18533114837394" lon="15.85504810179895"><ele>1359.0</ele><time>2026-04-11T08:28:02Z</time></trkpt><trkpt lat="38.18539686757435" lon="15.85513887484626"><ele>1359.0</ele><time>2026-04-11T08:28:03Z</time></trkpt><trkpt lat="38.185463141575084" lon="15.855218434904044"><ele>1359.0</ele><time>2026-04-11T08:28:04Z</time></trkpt><trkpt lat="38.185552737610536" lon="15.855291080933942"><ele>1359.0</ele><time>2026-04-11T08:28:05Z</time></trkpt><trkpt lat="38.185651825433155" lon="15.85544231042565"><ele>1358.3333333333333</ele><time>2026-04-11T08:28:06Z</time></trkpt><trkpt lat="38.185718403395555" lon="15.855559616970424"><ele>1357.6666666666667</ele><time>2026-04-11T08:28:07Z</time></trkpt><trkpt lat="38.18578269759226" lon="15.855654581973656"><ele>1357.0</ele><time>2026-04-11T08:28:08Z</time></trkpt><trkpt lat="38.18581999642653" lon="15.855751882045224"><ele>1356.3333333333335</ele><time>2026-04-11T08:28:09Z</time></trkpt><trkpt lat="38.18585661033008" lon="15.855825828307488"><ele>1355.6666666666667</ele><time>2026-04-11T08:28:10Z</time></trkpt><trkpt lat="38.18583125799544" lon="15.855919163868485"><ele>1355.0</ele><time>2026-04-11T08:28:12Z</time></trkpt><trkpt lat="38.18588757466905" lon="15.855993240080409"><ele>1354.8</ele><time>2026-04-11T08:28:13Z</time></trkpt><trkpt lat="38.18596577083378" lon="15.856059839300151"><ele>1354.6</ele><time>2026-04-11T08:28:14Z</time></trkpt><trkpt lat="38.18602985743119" lon="15.856115376819544"><ele>1354.4</ele><time>2026-04-11T08:28:15Z</time></trkpt><trkpt lat="38.18609628322246" lon="15.85618327426058"><ele>1354.2</ele><time>2026-04-11T08:28:16Z</time></trkpt><trkpt lat="38.186178095418875" lon="15.856281872314236"><ele>1354.0</ele><time>2026-04-11T08:28:17Z</time></trkpt><trkpt lat="38.18624926919582" lon="15.856398796278606"><ele>1354.0</ele><time>2026-04-11T08:28:18Z</time></trkpt><trkpt lat="38.18631618044105" lon="15.856505343190923"><ele>1354.0</ele><time>2026-04-11T08:28:19Z</time></trkpt><trkpt lat="38.18637063031266" lon="15.85659700230143"><ele>1354.0</ele><time>2026-04-11T08:28:20Z</time></trkpt><trkpt lat="38.1864180011634" lon="15.856676188156937"><ele>1354.0</ele><time>2026-04-11T08:28:21Z</time></trkpt><trkpt lat="38.186479600141695" lon="15.85676946462655"><ele>1354.0</ele><time>2026-04-11T08:28:23Z</time></trkpt><trkpt lat="38.18654806316357" lon="15.85687234244852"><ele>1353.5</ele><time>2026-04-11T08:28:25Z</time></trkpt><trkpt lat="38.18657826006068" lon="15.85694310054868"><ele>1353.0</ele><time>2026-04-11T08:28:26Z</time></trkpt><trkpt lat="38.18663575730073" lon="15.856995942045419"><ele>1352.5</ele><time>2026-04-11T08:28:27Z</time></trkpt><trkpt lat="38.18671300272815" lon="15.857094752689243"><ele>1352.0</ele><time>2026-04-11T08:28:29Z</time></trkpt><trkpt lat="38.186733181158" lon="15.857240595430925"><ele>1351.5</ele><time>2026-04-11T08:28:32Z</time></trkpt><trkpt lat="38.18674089224961" lon="15.857330133481947"><ele>1351.0</ele><time>2026-04-11T08:28:34Z</time></trkpt><trkpt lat="38.186713757885855" lon="15.857427670584356"><ele>1351.0</ele><time>2026-04-11T08:28:35Z</time></trkpt><trkpt lat="38.186632715170745" lon="15.857526989696053"><ele>1351.0</ele><time>2026-04-11T08:28:37Z</time></trkpt><trkpt lat="38.186624627324356" lon="15.85771859351449"><ele>1351.0</ele><time>2026-04-11T08:28:39Z</time></trkpt><trkpt lat="38.18664953435333" lon="15.857848977820739"><ele>1351.0</ele><time>2026-04-11T08:28:41Z</time></trkpt><trkpt lat="38.186591441818294" lon="15.857966994021844"><ele>1350.8</ele><time>2026-04-11T08:28:42Z</time></trkpt><trkpt lat="38.18654317148672" lon="15.858080784421002"><ele>1350.6</ele><time>2026-04-11T08:28:44Z</time></trkpt><trkpt lat="38.18648967505912" lon="15.858215600628734"><ele>1350.4</ele><time>2026-04-11T08:28:46Z</time></trkpt><trkpt lat="38.18643270499558" lon="15.858278627072663"><ele>1350.2</ele><time>2026-04-11T08:28:47Z</time></trkpt><trkpt lat="38.18637178266829" lon="15.85833571435159"><ele>1350.0</ele><time>2026-04-11T08:28:48Z</time></trkpt><trkpt lat="38.186329748425074" lon="15.858436266992863"><ele>1347.6</ele><time>2026-04-11T08:28:49Z</time></trkpt><trkpt lat="38.18628575276992" lon="15.858514427713079"><ele>1345.2</ele><time>2026-04-11T08:28:50Z</time></trkpt><trkpt lat="38.1862309443174" lon="15.858631044041472"><ele>1342.8000000000002</ele><time>2026-04-11T08:28:51Z</time></trkpt><trkpt lat="38.186195698546975" lon="15.85873086111659"><ele>1340.4</ele><time>2026-04-11T08:28:52Z</time></trkpt><trkpt lat="38.186157854768844" lon="15.8588536383564"><ele>1338.0</ele><time>2026-04-11T08:28:53Z</time></trkpt><trkpt lat="38.18612385144671" lon="15.858955658704868"><ele>1338.0</ele><time>2026-04-11T08:28:54Z</time></trkpt><trkpt lat="38.186087274917966" lon="15.859056887420197"><ele>1338.0</ele><time>2026-04-11T08:28:55Z</time></trkpt><trkpt lat="38.18608637040117" lon="15.859146427556865"><ele>1338.0</ele><time>2026-04-11T08:28:56Z</time></trkpt><trkpt lat="38.1860759484659" lon="15.859249403508725"><ele>1338.0</ele><time>2026-04-11T08:28:58Z</time></trkpt><trkpt lat="38.18602022433521" lon="15.859325508913152"><ele>1338.0</ele><time>2026-04-11T08:29:00Z</time></trkpt><trkpt lat="38.1859731686157" lon="15.859391249926093"><ele>1338.0</ele><time>2026-04-11T08:29:03Z</time></trkpt><trkpt lat="38.18602736487029" lon="15.8594737216158"><ele>1340.0</ele><time>2026-04-11T08:29:05Z</time></trkpt><trkpt lat="38.18615136630767" lon="15.859527368368232"><ele>1342.0</ele><time>2026-04-11T08:29:08Z</time></trkpt><trkpt lat="38.18627120537419" lon="15.859491822627804"><ele>1344.0</ele><time>2026-04-11T08:29:10Z</time></trkpt><trkpt lat="38.18636795469448" lon="15.859433353648269"><ele>1346.0</ele><time>2026-04-11T08:29:11Z</time></trkpt><trkpt lat="38.186472255590814" lon="15.8593459521752"><ele>1346.8</ele><time>2026-04-11T08:29:12Z</time></trkpt><trkpt lat="38.186563992462105" lon="15.85931524094734"><ele>1347.6</ele><time>2026-04-11T08:29:13Z</time></trkpt><trkpt lat="38.18663665272285" lon="15.859296595824645"><ele>1348.4</ele><time>2026-04-11T08:29:14Z</time></trkpt><trkpt lat="38.18673006051483" lon="15.8593126775853"><ele>1349.2</ele><time>2026-04-11T08:29:15Z</time></trkpt><trkpt lat="38.1868447966012" lon="15.859337352736974"><ele>1350.0</ele><time>2026-04-11T08:29:16Z</time></trkpt><trkpt lat="38.18695512273639" lon="15.859374329302607"><ele>1350.0</ele><time>2026-04-11T08:29:17Z</time></trkpt><trkpt lat="38.18704230968272" lon="15.8593684705867"><ele>1350.0</ele><time>2026-04-11T08:29:18Z</time></trkpt><trkpt lat="38.18711754025711" lon="15.859377452606275"><ele>1350.0</ele><time>2026-04-11T08:29:19Z</time></trkpt><trkpt lat="38.187200363786374" lon="15.859429082165505"><ele>1350.0</ele><time>2026-04-11T08:29:20Z</time></trkpt><trkpt lat="38.187295302140015" lon="15.859532787843495"><ele>1350.0</ele><time>2026-04-11T08:29:21Z</time></trkpt><trkpt lat="38.187382401249835" lon="15.859626662844159"><ele>1350.8</ele><time>2026-04-11T08:29:22Z</time></trkpt><trkpt lat="38.187472285536735" lon="15.859699612972172"><ele>1351.6</ele><time>2026-04-11T08:29:23Z</time></trkpt><trkpt lat="38.18753267912205" lon="15.859811935653388"><ele>1352.4</ele><time>2026-04-11T08:29:24Z</time></trkpt><trkpt lat="38.187583016893015" lon="15.859911279175844"><ele>1353.2</ele><time>2026-04-11T08:29:25Z</time></trkpt><trkpt lat="38.18765573624823" lon="15.860007702193112"><ele>1354.0</ele><time>2026-04-11T08:29:26Z</time></trkpt><trkpt lat="38.18775882752162" lon="15.86006336118684"><ele>1356.25</ele><time>2026-04-11T08:29:27Z</time></trkpt><trkpt lat="38.18787669007091" lon="15.860144461888732"><ele>1358.5</ele><time>2026-04-11T08:29:28Z</time></trkpt><trkpt lat="38.1879928796757" lon="15.860222813673186"><ele>1360.75</ele><time>2026-04-11T08:29:29Z</time></trkpt><trkpt lat="38.18809051957061" lon="15.860288774514604"><ele>1363.0</ele><time>2026-04-11T08:29:30Z</time></trkpt><trkpt lat="38.188199087287046" lon="15.860348688138291"><ele>1363.0</ele><time>2026-04-11T08:29:31Z</time></trkpt><trkpt lat="38.188253095799055" lon="15.860401207941477"><ele>1363.0</ele><time>2026-04-11T08:29:32Z</time></trkpt><trkpt lat="38.18829627096922" lon="15.86048072409555"><ele>1363.0</ele><time>2026-04-11T08:29:33Z</time></trkpt><trkpt lat="38.18835523204196" lon="15.860600556625512"><ele>1363.0</ele><time>2026-04-11T08:29:34Z</time></trkpt><trkpt lat="38.18840037585152" lon="15.860712855794748"><ele>1363.0</ele><time>2026-04-11T08:29:35Z</time></trkpt><trkpt lat="38.188420579715675" lon="15.860805457893134"><ele>1363.0</ele><time>2026-04-11T08:29:36Z</time></trkpt><trkpt lat="38.18848896960222" lon="15.860869295815746"><ele>1364.3333333333333</ele><time>2026-04-11T08:29:37Z</time></trkpt><trkpt lat="38.188521284079656" lon="15.860963065857163"><ele>1365.6666666666665</ele><time>2026-04-11T08:29:38Z</time></trkpt><trkpt lat="38.188600491319164" lon="15.86097499268417"><ele>1367.0</ele><time>2026-04-11T08:29:39Z</time></trkpt><trkpt lat="38.18869636236725" lon="15.861027768365583"><ele>1368.3333333333333</ele><time>2026-04-11T08:29:40Z</time></trkpt><trkpt lat="38.188764664183836" lon="15.861050791197483"><ele>1369.6666666666667</ele><time>2026-04-11T08:29:41Z</time></trkpt><trkpt lat="38.188835791726355" lon="15.861045530820645"><ele>1371.0</ele><time>2026-04-11T08:29:42Z</time></trkpt><trkpt lat="38.1889358420924" lon="15.861059824855738"><ele>1371.0</ele><time>2026-04-11T08:29:44Z</time></trkpt><trkpt lat="38.18900824163247" lon="15.861152508788821"><ele>1371.0</ele><time>2026-04-11T08:30:36Z</time></trkpt><trkpt lat="38.18910656712237" lon="15.861226279790165"><ele>1371.0</ele><time>2026-04-11T08:30:38Z</time></trkpt><trkpt lat="38.18918661361764" lon="15.861301691570278"><ele>1371.0</ele><time>2026-04-11T08:30:39Z</time></trkpt><trkpt lat="38.1892400988816" lon="15.861385357427809"><ele>1371.0</ele><time>2026-04-11T08:30:40Z</time></trkpt><trkpt lat="38.189274396175136" lon="15.861496973138033"><ele>1370.8</ele><time>2026-04-11T08:30:41Z</time></trkpt><trkpt lat="38.18929592845012" lon="15.861592422426327"><ele>1370.6</ele><time>2026-04-11T08:30:42Z</time></trkpt><trkpt lat="38.18932567797805" lon="15.86169846539773"><ele>1370.4</ele><time>2026-04-11T08:30:43Z</time></trkpt><trkpt lat="38.1893555507259" lon="15.861829095654326"><ele>1370.2</ele><time>2026-04-11T08:30:44Z</time></trkpt><trkpt lat="38.1894816402543" lon="15.861913419920086"><ele>1370.0</ele><time>2026-04-11T08:30:45Z</time></trkpt><trkpt lat="38.189560984798725" lon="15.861949881807627"><ele>1370.6666666666667</ele><time>2026-04-11T08:30:46Z</time></trkpt><trkpt lat="38.189620188972704" lon="15.861998178090413"><ele>1371.3333333333335</ele><time>2026-04-11T08:30:47Z</time></trkpt><trkpt lat="38.18968247654917" lon="15.862032453847021"><ele>1372.0</ele><time>2026-04-11T08:30:48Z</time></trkpt><trkpt lat="38.189736183684325" lon="15.862112134213028"><ele>1372.6666666666667</ele><time>2026-04-11T08:30:49Z</time></trkpt><trkpt lat="38.18979701768756" lon="15.862142022089037"><ele>1373.3333333333333</ele><time>2026-04-11T08:30:52Z</time></trkpt><trkpt lat="38.18987044776058" lon="15.862073832825912"><ele>1374.0</ele><time>2026-04-11T08:31:05Z</time></trkpt><trkpt lat="38.18990908750327" lon="15.861993799552796"><ele>1374.0</ele><time>2026-04-11T08:31:06Z</time></trkpt><trkpt lat="38.1899394359559" lon="15.861894430113692"><ele>1374.0</ele><time>2026-04-11T08:31:07Z</time></trkpt><trkpt lat="38.189968832793" lon="15.8617832891122"><ele>1374.0</ele><time>2026-04-11T08:31:08Z</time></trkpt><trkpt lat="38.18998971000713" lon="15.861666396030074"><ele>1374.0</ele><time>2026-04-11T08:31:09Z</time></trkpt><trkpt lat="38.190030834863" lon="15.861560258192302"><ele>1374.0</ele><time>2026-04-11T08:31:10Z</time></trkpt><trkpt lat="38.19007182967424" lon="15.86145628172083"><ele>1372.6</ele><time>2026-04-11T08:31:11Z</time></trkpt><trkpt lat="38.19010075645008" lon="15.861342215615842"><ele>1371.2</ele><time>2026-04-11T08:31:12Z</time></trkpt><trkpt lat="38.19012849195453" lon="15.861241749260246"><ele>1369.8</ele><time>2026-04-11T08:31:13Z</time></trkpt><trkpt lat="38.19016802320358" lon="15.86111391507768"><ele>1368.3999999999999</ele><time>2026-04-11T08:31:14Z</time></trkpt><trkpt lat="38.19019758707905" lon="15.860991949669373"><ele>1367.0</ele><time>2026-04-11T08:31:15Z</time></trkpt><trkpt lat="38.19023302361176" lon="15.860870123434482"><ele>1365.3999999999999</ele><time>2026-04-11T08:31:16Z</time></trkpt><trkpt lat="38.190254536782334" lon="15.86077348230815"><ele>1363.8</ele><time>2026-04-11T08:31:17Z</time></trkpt><trkpt lat="38.19029384305544" lon="15.860657465724286"><ele>1362.2</ele><time>2026-04-11T08:31:18Z</time></trkpt><trkpt lat="38.1903612255071" lon="15.860551194659033"><ele>1360.6</ele><time>2026-04-11T08:31:19Z</time></trkpt><trkpt lat="38.19045022921934" lon="15.8604500226515"><ele>1359.0</ele><time>2026-04-11T08:31:20Z</time></trkpt><trkpt lat="38.19051997530607" lon="15.860353957677475"><ele>1359.0</ele><time>2026-04-11T08:31:21Z</time></trkpt><trkpt lat="38.190575680018064" lon="15.860255251643936"><ele>1359.0</ele><time>2026-04-11T08:31:22Z</time></trkpt><trkpt lat="38.190619642867006" lon="15.860169054594303"><ele>1359.0</ele><time>2026-04-11T08:31:23Z</time></trkpt><trkpt lat="38.19068162097176" lon="15.860097293661992"><ele>1359.0</ele><time>2026-04-11T08:31:24Z</time></trkpt><trkpt lat="38.19076892941811" lon="15.860040286424166"><ele>1359.0</ele><time>2026-04-11T08:31:25Z</time></trkpt><trkpt lat="38.19085690475044" lon="15.859980140806906"><ele>1359.0</ele><time>2026-04-11T08:31:26Z</time></trkpt><trkpt lat="38.19093923486036" lon="15.859924010267973"><ele>1359.0</ele><time>2026-04-11T08:31:27Z</time></trkpt><trkpt lat="38.19100680825755" lon="15.859876314165273"><ele>1359.0</ele><time>2026-04-11T08:31:28Z</time></trkpt><trkpt lat="38.19106735300841" lon="15.859803232101614"><ele>1359.0</ele><time>2026-04-11T08:31:29Z</time></trkpt><trkpt lat="38.19108830372225" lon="15.859645054784785"><ele>1359.0</ele><time>2026-04-11T08:31:30Z</time></trkpt><trkpt lat="38.191120432018515" lon="15.859482101312317"><ele>1359.0</ele><time>2026-04-11T08:31:31Z</time></trkpt><trkpt lat="38.191149202157355" lon="15.859406104885354"><ele>1359.0</ele><time>2026-04-11T08:31:32Z</time></trkpt><trkpt lat="38.19119241272379" lon="15.85932780047652"><ele>1359.0</ele><time>2026-04-11T08:31:33Z</time></trkpt><trkpt lat="38.191157172284974" lon="15.859230437708703"><ele>1359.0</ele><time>2026-04-11T08:31:34Z</time></trkpt><trkpt lat="38.191158281033104" lon="15.859133140602017"><ele>1359.0</ele><time>2026-04-11T08:31:35Z</time></trkpt><trkpt lat="38.19115577466028" lon="15.858999487600238"><ele>1359.0</ele><time>2026-04-11T08:31:36Z</time></trkpt><trkpt lat="38.191206836709945" lon="15.858932680916988"><ele>1358.2</ele><time>2026-04-11T08:31:37Z</time></trkpt><trkpt lat="38.191261256098606" lon="15.858839353982845"><ele>1357.4</ele><time>2026-04-11T08:31:38Z</time></trkpt><trkpt lat="38.19132053904873" lon="15.858727547713292"><ele>1356.6</ele><time>2026-04-11T08:31:40Z</time></trkpt><trkpt lat="38.19139044264769" lon="15.8587369155083"><ele>1355.8</ele><time>2026-04-11T08:31:43Z</time></trkpt><trkpt lat="38.191514377419836" lon="15.858726347584476"><ele>1355.0</ele><time>2026-04-11T08:32:50Z</time></trkpt><trkpt lat="38.19157246491304" lon="15.858796547318274"><ele>1356.6</ele><time>2026-04-11T08:32:52Z</time></trkpt><trkpt lat="38.191600961147095" lon="15.85887892302309"><ele>1358.2</ele><time>2026-04-11T08:32:53Z</time></trkpt><trkpt lat="38.19165385726481" lon="15.858944700460695"><ele>1359.8000000000002</ele><time>2026-04-11T08:32:54Z</time></trkpt><trkpt lat="38.19161351908494" lon="15.859035757422888"><ele>1361.4</ele><time>2026-04-11T08:32:56Z</time></trkpt><trkpt lat="38.191740073375726" lon="15.85905278683894"><ele>1363.0</ele><time>2026-04-11T08:33:18Z</time></trkpt><trkpt lat="38.191841936722774" lon="15.859078911087098"><ele>1363.0</ele><time>2026-04-11T08:33:19Z</time></trkpt><trkpt lat="38.1919203178091" lon="15.859089813740463"><ele>1363.0</ele><time>2026-04-11T08:33:20.001Z</time></trkpt><trkpt lat="38.19198816839754" lon="15.859113800610908"><ele>1363.0</ele><time>2026-04-11T08:33:21.001Z</time></trkpt><trkpt lat="38.19204876025261" lon="15.859145445193475"><ele>1363.0</ele><time>2026-04-11T08:33:22.001Z</time></trkpt><trkpt lat="38.19210746558941" lon="15.859190668106823"><ele>1363.0</ele><time>2026-04-11T08:33:23.001Z</time></trkpt><trkpt lat="38.19216107720857" lon="15.859262307938067"><ele>1363.0</ele><time>2026-04-11T08:33:24.001Z</time></trkpt><trkpt lat="38.19220307315777" lon="15.85932782019953"><ele>1363.0</ele><time>2026-04-11T08:33:25.001Z</time></trkpt><trkpt lat="38.192255669620906" lon="15.859379181115502"><ele>1363.6000000000001</ele><time>2026-04-11T08:33:27.001Z</time></trkpt><trkpt lat="38.19233507608623" lon="15.859469967610485"><ele>1364.2</ele><time>2026-04-11T08:33:29.001Z</time></trkpt><trkpt lat="38.19244796179674" lon="15.859538854782217"><ele>1364.8</ele><time>2026-04-11T08:33:31.001Z</time></trkpt><trkpt lat="38.19253973557481" lon="15.8595699434799"><ele>1365.4</ele><time>2026-04-11T08:33:32.001Z</time></trkpt><trkpt lat="38.1926127175832" lon="15.859590361146966"><ele>1366.0</ele><time>2026-04-11T08:33:33.001Z</time></trkpt><trkpt lat="38.1926944155726" lon="15.859599212025925"><ele>1365.0</ele><time>2026-04-11T08:33:34.001Z</time></trkpt><trkpt lat="38.19279541407132" lon="15.859687616368946"><ele>1364.0</ele><time>2026-04-11T08:33:36.001Z</time></trkpt><trkpt lat="38.192834289962214" lon="15.859754477256546"><ele>1363.0</ele><time>2026-04-11T08:33:37.001Z</time></trkpt><trkpt lat="38.19290022757182" lon="15.859808700902898"><ele>1362.0</ele><time>2026-04-11T08:33:38.001Z</time></trkpt><trkpt lat="38.19295401665968" lon="15.859856422496502"><ele>1361.0</ele><time>2026-04-11T08:33:39.001Z</time></trkpt><trkpt lat="38.193021712610374" lon="15.859932716521161"><ele>1360.0</ele><time>2026-04-11T08:33:40.001Z</time></trkpt><trkpt lat="38.1930968944653" lon="15.860011315199097"><ele>1360.0</ele><time>2026-04-11T08:33:41.001Z</time></trkpt><trkpt lat="38.19314793208847" lon="15.860063525477193"><ele>1360.0</ele><time>2026-04-11T08:33:42.001Z</time></trkpt><trkpt lat="38.19321656178328" lon="15.86007869064754"><ele>1360.0</ele><time>2026-04-11T08:33:44.001Z</time></trkpt><trkpt lat="38.193269537209005" lon="15.860171855345119"><ele>1360.0</ele><time>2026-04-11T08:33:48.001Z</time></trkpt><trkpt lat="38.193328475343165" lon="15.8602318521585"><ele>1360.0</ele><time>2026-04-11T08:33:51Z</time></trkpt><trkpt lat="38.19339506051793" lon="15.860359073470295"><ele>1360.0</ele><time>2026-04-11T08:33:52Z</time></trkpt><trkpt lat="38.193453656722006" lon="15.86043401804407"><ele>1358.5</ele><time>2026-04-11T08:33:53Z</time></trkpt><trkpt lat="38.193546736678336" lon="15.860448873029068"><ele>1357.0</ele><time>2026-04-11T08:33:55Z</time></trkpt><trkpt lat="38.19363738853551" lon="15.860489173332834"><ele>1355.5</ele><time>2026-04-11T08:33:57Z</time></trkpt><trkpt lat="38.19370080164847" lon="15.86049602644757"><ele>1354.0</ele><time>2026-04-11T08:34:02Z</time></trkpt><trkpt lat="38.19375829534675" lon="15.860461784175566"><ele>1352.5</ele><time>2026-04-11T08:34:05Z</time></trkpt><trkpt lat="38.19382133405241" lon="15.860424875166938"><ele>1351.0</ele><time>2026-04-11T08:34:07Z</time></trkpt><trkpt lat="38.19393451247938" lon="15.860403946596891"><ele>1349.1666666666665</ele><time>2026-04-11T08:34:09Z</time></trkpt><trkpt lat="38.19403220517582" lon="15.860375373057911"><ele>1347.3333333333333</ele><time>2026-04-11T08:34:11Z</time></trkpt><trkpt lat="38.194099051317615" lon="15.860339484948012"><ele>1345.5</ele><time>2026-04-11T08:34:12Z</time></trkpt><trkpt lat="38.194168724581395" lon="15.860264592033175"><ele>1343.6666666666667</ele><time>2026-04-11T08:34:13Z</time></trkpt><trkpt lat="38.19425527315043" lon="15.860192672477886"><ele>1341.8333333333335</ele><time>2026-04-11T08:34:15Z</time></trkpt><trkpt lat="38.1943039521627" lon="15.860123180183825"><ele>1340.0</ele><time>2026-04-11T08:34:17Z</time></trkpt><trkpt lat="38.19439412870245" lon="15.860077454247232"><ele>1340.0</ele><time>2026-04-11T08:34:21Z</time></trkpt><trkpt lat="38.19447287494619" lon="15.860120361984011"><ele>1340.0</ele><time>2026-04-11T08:34:23Z</time></trkpt><trkpt lat="38.19454129386141" lon="15.860123408189919"><ele>1340.0</ele><time>2026-04-11T08:34:26Z</time></trkpt><trkpt lat="38.19466667656561" lon="15.860075046240008"><ele>1340.0</ele><time>2026-04-11T08:34:28Z</time></trkpt><trkpt lat="38.19476325573217" lon="15.86002478625542"><ele>1340.0</ele><time>2026-04-11T08:34:30Z</time></trkpt><trkpt lat="38.19488116245646" lon="15.859984654631939"><ele>1337.8333333333335</ele><time>2026-04-11T08:34:32Z</time></trkpt><trkpt lat="38.194941551087126" lon="15.859935137985618"><ele>1335.6666666666667</ele><time>2026-04-11T08:34:33Z</time></trkpt><trkpt lat="38.195052015810035" lon="15.859895285988243"><ele>1333.5</ele><time>2026-04-11T08:34:35Z</time></trkpt><trkpt lat="38.195143107179895" lon="15.859886835139859"><ele>1331.3333333333333</ele><time>2026-04-11T08:34:37Z</time></trkpt><trkpt lat="38.195098677008346" lon="15.859822632801718"><ele>1329.1666666666665</ele><time>2026-04-11T08:34:39Z</time></trkpt><trkpt lat="38.19517439373279" lon="15.859733210634145"><ele>1327.0</ele><time>2026-04-11T08:34:41Z</time></trkpt><trkpt lat="38.19516453802322" lon="15.859646718001446"><ele>1327.0</ele><time>2026-04-11T08:34:43Z</time></trkpt><trkpt lat="38.19509769440667" lon="15.859540664827163"><ele>1327.0</ele><time>2026-04-11T08:34:45Z</time></trkpt><trkpt lat="38.19510053204675" lon="15.85943100764915"><ele>1327.0</ele><time>2026-04-11T08:34:47Z</time></trkpt><trkpt lat="38.19508038873722" lon="15.859302929544752"><ele>1327.0</ele><time>2026-04-11T08:34:49Z</time></trkpt><trkpt lat="38.195092648910865" lon="15.859163174000132"><ele>1327.0</ele><time>2026-04-11T08:34:51Z</time></trkpt><trkpt lat="38.19511614251593" lon="15.859046558796434"><ele>1327.6</ele><time>2026-04-11T08:34:53Z</time></trkpt><trkpt lat="38.19515860075365" lon="15.858960828679438"><ele>1328.1999999999998</ele><time>2026-04-11T08:34:56Z</time></trkpt><trkpt lat="38.19522041204166" lon="15.858835552437112"><ele>1328.8</ele><time>2026-04-11T08:35:25.001Z</time></trkpt><trkpt lat="38.19529819081934" lon="15.85877537968084"><ele>1329.4</ele><time>2026-04-11T08:35:27.001Z</time></trkpt><trkpt lat="38.19538740109756" lon="15.858752345464481"><ele>1330.0</ele><time>2026-04-11T08:35:29.001Z</time></trkpt><trkpt lat="38.19548135522942" lon="15.858730305208795"><ele>1330.0</ele><time>2026-04-11T08:35:31.001Z</time></trkpt><trkpt lat="38.195585936984976" lon="15.858699640547208"><ele>1330.0</ele><time>2026-04-11T08:35:33.001Z</time></trkpt><trkpt lat="38.19569650253209" lon="15.858724424416081"><ele>1330.0</ele><time>2026-04-11T08:35:35.001Z</time></trkpt><trkpt lat="38.195783965762594" lon="15.858736438975296"><ele>1330.0</ele><time>2026-04-11T08:35:37.001Z</time></trkpt><trkpt lat="38.19587782458762" lon="15.858721833395341"><ele>1330.0</ele><time>2026-04-11T08:35:39.001Z</time></trkpt><trkpt lat="38.195964272458355" lon="15.858723940841223"><ele>1327.8</ele><time>2026-04-11T08:35:40.001Z</time></trkpt><trkpt lat="38.196076988987606" lon="15.858722322565125"><ele>1325.6</ele><time>2026-04-11T08:35:42.001Z</time></trkpt><trkpt lat="38.19616424943546" lon="15.858661005144148"><ele>1323.4</ele><time>2026-04-11T08:35:44.001Z</time></trkpt><trkpt lat="38.19622554943523" lon="15.858632111261754"><ele>1321.2</ele><time>2026-04-11T08:35:45.001Z</time></trkpt><trkpt lat="38.19631027068628" lon="15.85855641071261"><ele>1319.0</ele><time>2026-04-11T08:35:47.001Z</time></trkpt><trkpt lat="38.19637528414623" lon="15.858490553657068"><ele>1319.5</ele><time>2026-04-11T08:35:48.001Z</time></trkpt><trkpt lat="38.196412428665724" lon="15.85840255929062"><ele>1320.0</ele><time>2026-04-11T08:35:49.001Z</time></trkpt><trkpt lat="38.19645833176496" lon="15.858338092434723"><ele>1320.5</ele><time>2026-04-11T08:35:50.001Z</time></trkpt><trkpt lat="38.19653583479137" lon="15.858237654650486"><ele>1321.0</ele><time>2026-04-11T08:35:52.001Z</time></trkpt><trkpt lat="38.19658073927699" lon="15.858180659977908"><ele>1321.5</ele><time>2026-04-11T08:35:53.001Z</time></trkpt><trkpt lat="38.19659607472539" lon="15.858082491633754"><ele>1322.0</ele><time>2026-04-11T08:35:54.001Z</time></trkpt><trkpt lat="38.19665484524192" lon="15.857936210228173"><ele>1319.1999999999998</ele><time>2026-04-11T08:35:56Z</time></trkpt><trkpt lat="38.19673350088954" lon="15.857800483777268"><ele>1316.4</ele><time>2026-04-11T08:35:58Z</time></trkpt><trkpt lat="38.19678648060417" lon="15.857751537223624"><ele>1313.6</ele><time>2026-04-11T08:35:59Z</time></trkpt><trkpt lat="38.19686836542803" lon="15.85773347413086"><ele>1310.8000000000002</ele><time>2026-04-11T08:36:02Z</time></trkpt><trkpt lat="38.19694323370292" lon="15.857787122161282"><ele>1308.0</ele><time>2026-04-11T08:36:04Z</time></trkpt><trkpt lat="38.19700539150449" lon="15.857908661198884"><ele>1308.0</ele><time>2026-04-11T08:36:06Z</time></trkpt><trkpt lat="38.197064907863165" lon="15.857941662805338"><ele>1308.0</ele><time>2026-04-11T08:36:08Z</time></trkpt><trkpt lat="38.19706183802859" lon="15.85803225751995"><ele>1308.0</ele><time>2026-04-11T08:36:14Z</time></trkpt><trkpt lat="38.19703716055973" lon="15.85812318626987"><ele>1308.0</ele><time>2026-04-11T08:36:22Z</time></trkpt><trkpt lat="38.197047530133716" lon="15.858213910906345"><ele>1308.0</ele><time>2026-04-11T08:36:26Z</time></trkpt><trkpt lat="38.197071138225645" lon="15.858297584376723"><ele>1308.0</ele><time>2026-04-11T08:36:37Z</time></trkpt><trkpt lat="38.19704208904257" lon="15.858428784814464"><ele>1306.4</ele><time>2026-04-11T08:36:39Z</time></trkpt><trkpt lat="38.19703049479403" lon="15.858518417423628"><ele>1304.8000000000002</ele><time>2026-04-11T08:36:40Z</time></trkpt><trkpt lat="38.1970306905817" lon="15.858603264889666"><ele>1303.2</ele><time>2026-04-11T08:36:41Z</time></trkpt><trkpt lat="38.19700572377506" lon="15.858789396451105"><ele>1301.6</ele><time>2026-04-11T08:36:43Z</time></trkpt><trkpt lat="38.1969600301015" lon="15.858946202507466"><ele>1300.0</ele><time>2026-04-11T08:36:45Z</time></trkpt><trkpt lat="38.19694893737275" lon="15.85907609250524"><ele>1300.0</ele><time>2026-04-11T08:36:47Z</time></trkpt><trkpt lat="38.196932498909646" lon="15.859154729259428"><ele>1300.0</ele><time>2026-04-11T08:36:49Z</time></trkpt><trkpt lat="38.19699918861276" lon="15.85922628936155"><ele>1300.0</ele><time>2026-04-11T08:36:51Z</time></trkpt><trkpt lat="38.19704654365462" lon="15.859163335390226"><ele>1300.0</ele><time>2026-04-11T08:36:53Z</time></trkpt><trkpt lat="38.1971244161653" lon="15.859094772651423"><ele>1300.0</ele><time>2026-04-11T08:36:55Z</time></trkpt><trkpt lat="38.19722554411922" lon="15.859091035158592"><ele>1300.0</ele><time>2026-04-11T08:36:57Z</time></trkpt><trkpt lat="38.19729749252697" lon="15.859070151803058"><ele>1300.0</ele><time>2026-04-11T08:37:00Z</time></trkpt><trkpt lat="38.19729609509721" lon="15.85917316672078"><ele>1300.0</ele><time>2026-04-11T08:37:02Z</time></trkpt><trkpt lat="38.19733771797979" lon="15.859277377112846"><ele>1300.0</ele><time>2026-04-11T08:37:03Z</time></trkpt><trkpt lat="38.197312150450536" lon="15.859421461760814"><ele>1300.0</ele><time>2026-04-11T08:37:06Z</time></trkpt><trkpt lat="38.19725098958268" lon="15.859481137301243"><ele>1300.0</ele><time>2026-04-11T08:37:07Z</time></trkpt><trkpt lat="38.19716642688493" lon="15.85953701077734"><ele>1297.0</ele><time>2026-04-11T08:37:09Z</time></trkpt><trkpt lat="38.197087869578084" lon="15.85956732438581"><ele>1294.0</ele><time>2026-04-11T08:37:11Z</time></trkpt><trkpt lat="38.19702150466533" lon="15.859571739957142"><ele>1291.0</ele><time>2026-04-11T08:37:13Z</time></trkpt><trkpt lat="38.196965156666224" lon="15.859613284293713"><ele>1288.0</ele><time>2026-04-11T08:37:15Z</time></trkpt><trkpt lat="38.196921168844895" lon="15.859742615733873"><ele>1285.0</ele><time>2026-04-11T08:37:17Z</time></trkpt><trkpt lat="38.19689889745788" lon="15.859826505034627"><ele>1282.0</ele><time>2026-04-11T08:37:18Z</time></trkpt><trkpt lat="38.19681867833869" lon="15.85987788236907"><ele>1282.0</ele><time>2026-04-11T08:37:21Z</time></trkpt><trkpt lat="38.196676047691184" lon="15.859905488219383"><ele>1282.0</ele><time>2026-04-11T08:37:22Z</time></trkpt><trkpt lat="38.19663293411896" lon="15.859983386208247"><ele>1282.0</ele><time>2026-04-11T08:37:23Z</time></trkpt><trkpt lat="38.19660066212178" lon="15.860139842340207"><ele>1282.0</ele><time>2026-04-11T08:37:50.001Z</time></trkpt><trkpt lat="38.19664277721176" lon="15.860056762223786"><ele>1282.0</ele><time>2026-04-11T08:38:10Z</time></trkpt><trkpt lat="38.196609976656816" lon="15.859962330395323"><ele>1282.0</ele><time>2026-04-11T08:38:11Z</time></trkpt><trkpt lat="38.196564373934635" lon="15.859864231539536"><ele>1282.0</ele><time>2026-04-11T08:38:12Z</time></trkpt><trkpt lat="38.196527274535875" lon="15.859760814418154"><ele>1282.0</ele><time>2026-04-11T08:38:13Z</time></trkpt><trkpt lat="38.19667281978847" lon="15.860005477761264"><ele>1282.0</ele><time>2026-04-11T08:38:14Z</time></trkpt><trkpt lat="38.196702704282075" lon="15.859925774068264"><ele>1282.0</ele><time>2026-04-11T08:38:37Z</time></trkpt><trkpt lat="38.19676741242399" lon="15.85986138739961"><ele>1282.0</ele><time>2026-04-11T08:38:39Z</time></trkpt><trkpt lat="38.19682765883416" lon="15.859811305343653"><ele>1282.0</ele><time>2026-04-11T08:38:40Z</time></trkpt><trkpt lat="38.196893684047296" lon="15.859701588189266"><ele>1282.0</ele><time>2026-04-11T08:38:42Z</time></trkpt><trkpt lat="38.19692645415212" lon="15.859589241175513"><ele>1282.0</ele><time>2026-04-11T08:38:44Z</time></trkpt><trkpt lat="38.196966287689314" lon="15.859495882853306"><ele>1282.0</ele><time>2026-04-11T08:38:46Z</time></trkpt><trkpt lat="38.19707435999852" lon="15.85951043307606"><ele>1282.0</ele><time>2026-04-11T08:38:49Z</time></trkpt><trkpt lat="38.1971343767018" lon="15.859475336189389"><ele>1282.0</ele><time>2026-04-11T08:38:51Z</time></trkpt><trkpt lat="38.1972319925882" lon="15.859372684739194"><ele>1282.0</ele><time>2026-04-11T08:38:53Z</time></trkpt><trkpt lat="38.19728946805553" lon="15.859299041733061"><ele>1282.0</ele><time>2026-04-11T08:38:54Z</time></trkpt><trkpt lat="38.197325930714086" lon="15.859215094500472"><ele>1282.0</ele><time>2026-04-11T08:38:56Z</time></trkpt><trkpt lat="38.19736443309985" lon="15.859117882723583"><ele>1282.0</ele><time>2026-04-11T08:38:58Z</time></trkpt><trkpt lat="38.1973229943502" lon="15.859050453403508"><ele>1284.5714285714287</ele><time>2026-04-11T08:39:47.001Z</time></trkpt><trkpt lat="38.19727138874555" lon="15.85898716916386"><ele>1287.142857142857</ele><time>2026-04-11T08:40:03.001Z</time></trkpt><trkpt lat="38.197223097646415" lon="15.859054832251354"><ele>1289.7142857142858</ele><time>2026-04-11T08:40:10Z</time></trkpt><trkpt lat="38.19716239748057" lon="15.85908552596719"><ele>1292.2857142857142</ele><time>2026-04-11T08:40:14Z</time></trkpt><trkpt lat="38.19710188677929" lon="15.859179829566115"><ele>1294.857142857143</ele><time>2026-04-11T08:40:20Z</time></trkpt><trkpt lat="38.19704377886888" lon="15.859239551750173"><ele>1297.4285714285713</ele><time>2026-04-11T08:40:22Z</time></trkpt><trkpt lat="38.196977139751766" lon="15.85923321122942"><ele>1300.0</ele><time>2026-04-11T08:40:25Z</time></trkpt><trkpt lat="38.19692410105307" lon="15.859110528401953"><ele>1300.0</ele><time>2026-04-11T08:40:27Z</time></trkpt><trkpt lat="38.196948829302144" lon="15.85899929109635"><ele>1300.0</ele><time>2026-04-11T08:40:29Z</time></trkpt><trkpt lat="38.19698356504397" lon="15.858870533251267"><ele>1300.0</ele><time>2026-04-11T08:40:31Z</time></trkpt><trkpt lat="38.19702184610497" lon="15.858773812155114"><ele>1300.0</ele><time>2026-04-11T08:40:32Z</time></trkpt><trkpt lat="38.19703209103723" lon="15.858692674405628"><ele>1300.0</ele><time>2026-04-11T08:40:33Z</time></trkpt><trkpt lat="38.19705638101628" lon="15.858612633606015"><ele>1300.0</ele><time>2026-04-11T08:40:34Z</time></trkpt><trkpt lat="38.19707397783112" lon="15.858514113900306"><ele>1301.6</ele><time>2026-04-11T08:40:35Z</time></trkpt><trkpt lat="38.197082056440344" lon="15.85841940115304"><ele>1303.2</ele><time>2026-04-11T08:40:36Z</time></trkpt><trkpt lat="38.197076767508115" lon="15.85833927332522"><ele>1304.8000000000002</ele><time>2026-04-11T08:40:37Z</time></trkpt><trkpt lat="38.19705710541547" lon="15.858150147230367"><ele>1306.4</ele><time>2026-04-11T08:40:39Z</time></trkpt><trkpt lat="38.19704208607763" lon="15.8580527506714"><ele>1308.0</ele><time>2026-04-11T08:40:41Z</time></trkpt><trkpt lat="38.197013874666666" lon="15.857913499205567"><ele>1308.0</ele><time>2026-04-11T08:40:43Z</time></trkpt><trkpt lat="38.19697424086511" lon="15.857834254830065"><ele>1308.0</ele><time>2026-04-11T08:40:45Z</time></trkpt><trkpt lat="38.19691492013647" lon="15.85780649262204"><ele>1308.0</ele><time>2026-04-11T08:40:46Z</time></trkpt><trkpt lat="38.196854706668496" lon="15.857841822912928"><ele>1308.0</ele><time>2026-04-11T08:40:49Z</time></trkpt><trkpt lat="38.196785817878414" lon="15.857891231167361"><ele>1308.0</ele><time>2026-04-11T08:40:50Z</time></trkpt><trkpt lat="38.19671053342142" lon="15.8580202761834"><ele>1308.0</ele><time>2026-04-11T08:40:52Z</time></trkpt><trkpt lat="38.19669337524332" lon="15.858100720078724"><ele>1308.0</ele><time>2026-04-11T08:40:53Z</time></trkpt><trkpt lat="38.1966600416084" lon="15.858168843389059"><ele>1308.0</ele><time>2026-04-11T08:40:54Z</time></trkpt><trkpt lat="38.19660130783337" lon="15.858199091886023"><ele>1308.0</ele><time>2026-04-11T08:40:55Z</time></trkpt><trkpt lat="38.196560500455305" lon="15.858281229713894"><ele>1308.0</ele><time>2026-04-11T08:40:56Z</time></trkpt><trkpt lat="38.19652739033925" lon="15.858360498044146"><ele>1308.0</ele><time>2026-04-11T08:40:57Z</time></trkpt><trkpt lat="38.19648504995245" lon="15.858425740363968"><ele>1308.0</ele><time>2026-04-11T08:40:58Z</time></trkpt><trkpt lat="38.196414465494406" lon="15.8585139237215"><ele>1308.0</ele><time>2026-04-11T08:40:59Z</time></trkpt><trkpt lat="38.19636973770816" lon="15.858595254704106"><ele>1309.8333333333333</ele><time>2026-04-11T08:41:00Z</time></trkpt><trkpt lat="38.19628968495131" lon="15.858674874814515"><ele>1311.6666666666667</ele><time>2026-04-11T08:41:01Z</time></trkpt><trkpt lat="38.1961822556883" lon="15.858700663467717"><ele>1313.5</ele><time>2026-04-11T08:41:03Z</time></trkpt><trkpt lat="38.19612527186596" lon="15.858737739624864"><ele>1315.3333333333335</ele><time>2026-04-11T08:41:04Z</time></trkpt><trkpt lat="38.19606170321857" lon="15.858741061824803"><ele>1317.1666666666667</ele><time>2026-04-11T08:41:05Z</time></trkpt><trkpt lat="38.195977221561954" lon="15.85874062609298"><ele>1319.0</ele><time>2026-04-11T08:41:06Z</time></trkpt><trkpt lat="38.19589293018745" lon="15.858759695053093"><ele>1319.0</ele><time>2026-04-11T08:41:07Z</time></trkpt><trkpt lat="38.19577708449881" lon="15.85877713374182"><ele>1319.0</ele><time>2026-04-11T08:41:08Z</time></trkpt><trkpt lat="38.195659696278035" lon="15.858783707850296"><ele>1319.0</ele><time>2026-04-11T08:41:09Z</time></trkpt><trkpt lat="38.19556120988463" lon="15.85879074393844"><ele>1319.0</ele><time>2026-04-11T08:41:10Z</time></trkpt><trkpt lat="38.19547867795293" lon="15.858802344137857"><ele>1319.0</ele><time>2026-04-11T08:41:11Z</time></trkpt><trkpt lat="38.19537635947332" lon="15.858811201508233"><ele>1320.6</ele><time>2026-04-11T08:41:13Z</time></trkpt><trkpt lat="38.19527879397798" lon="15.858893244986435"><ele>1322.2</ele><time>2026-04-11T08:41:15Z</time></trkpt><trkpt lat="38.19522864113529" lon="15.858959240781719"><ele>1323.8</ele><time>2026-04-11T08:41:16Z</time></trkpt><trkpt lat="38.19517421433455" lon="15.859077322892988"><ele>1325.3999999999999</ele><time>2026-04-11T08:41:18Z</time></trkpt><trkpt lat="38.195169523278366" lon="15.859206987839473"><ele>1327.0</ele><time>2026-04-11T08:41:20Z</time></trkpt><trkpt lat="38.195183397135956" lon="15.859331752222845"><ele>1327.0</ele><time>2026-04-11T08:41:21Z</time></trkpt><trkpt lat="38.195193173239886" lon="15.859428258484982"><ele>1327.0</ele><time>2026-04-11T08:41:22Z</time></trkpt><trkpt lat="38.19520463655536" lon="15.859528399819975"><ele>1327.0</ele><time>2026-04-11T08:41:24Z</time></trkpt><trkpt lat="38.1952746692402" lon="15.859645975604098"><ele>1327.0</ele><time>2026-04-11T08:41:26Z</time></trkpt><trkpt lat="38.19531642250903" lon="15.859736869083754"><ele>1327.0</ele><time>2026-04-11T08:41:28Z</time></trkpt><trkpt lat="38.195308321247516" lon="15.8598396754383"><ele>1327.0</ele><time>2026-04-11T08:42:29Z</time></trkpt><trkpt lat="38.19525957802986" lon="15.859902294177237"><ele>1327.0</ele><time>2026-04-11T08:42:32Z</time></trkpt><trkpt lat="38.195181752729674" lon="15.859901400349619"><ele>1327.0</ele><time>2026-04-11T08:42:36Z</time></trkpt><trkpt lat="38.195063599179115" lon="15.859956879004573"><ele>1327.0</ele><time>2026-04-11T08:42:38Z</time></trkpt><trkpt lat="38.19500062659685" lon="15.859970332149704"><ele>1327.0</ele><time>2026-04-11T08:42:39Z</time></trkpt><trkpt lat="38.194926796840505" lon="15.859998997537172"><ele>1327.0</ele><time>2026-04-11T08:42:40Z</time></trkpt><trkpt lat="38.19484721325428" lon="15.860033334754643"><ele>1327.0</ele><time>2026-04-11T08:42:41Z</time></trkpt><trkpt lat="38.19477770174042" lon="15.860065473545788"><ele>1328.0</ele><time>2026-04-11T08:42:42Z</time></trkpt><trkpt lat="38.19466939227454" lon="15.860116087467022"><ele>1329.0</ele><time>2026-04-11T08:42:44Z</time></trkpt><trkpt lat="38.194600150074415" lon="15.860124579060416"><ele>1330.0</ele><time>2026-04-11T08:42:45Z</time></trkpt><trkpt lat="38.19452389961297" lon="15.860129137041476"><ele>1331.0</ele><time>2026-04-11T08:42:48Z</time></trkpt><trkpt lat="38.19442559279629" lon="15.860118396858892"><ele>1332.0</ele><time>2026-04-11T08:42:51Z</time></trkpt><trkpt lat="38.19430935061771" lon="15.860153621748626"><ele>1332.0</ele><time>2026-04-11T08:42:54Z</time></trkpt><trkpt lat="38.1942128793041" lon="15.860216372181728"><ele>1332.0</ele><time>2026-04-11T08:42:56Z</time></trkpt><trkpt lat="38.19416206140892" lon="15.860276458110313"><ele>1332.0</ele><time>2026-04-11T08:42:57Z</time></trkpt><trkpt lat="38.194131098567894" lon="15.860354954133378"><ele>1332.0</ele><time>2026-04-11T08:42:58Z</time></trkpt><trkpt lat="38.19405425379966" lon="15.8604165323957"><ele>1332.0</ele><time>2026-04-11T08:42:59Z</time></trkpt><trkpt lat="38.1939806848317" lon="15.860432651747733"><ele>1332.0</ele><time>2026-04-11T08:43:00Z</time></trkpt><trkpt lat="38.193900867185576" lon="15.860463890851076"><ele>1335.8</ele><time>2026-04-11T08:43:01Z</time></trkpt><trkpt lat="38.19379675551636" lon="15.86050917714331"><ele>1339.6</ele><time>2026-04-11T08:43:03Z</time></trkpt><trkpt lat="38.19370364327428" lon="15.860551332573234"><ele>1343.3999999999999</ele><time>2026-04-11T08:43:05Z</time></trkpt><trkpt lat="38.19360787955482" lon="15.860571557434092"><ele>1347.1999999999998</ele><time>2026-04-11T08:43:08Z</time></trkpt><trkpt lat="38.19351180608042" lon="15.860525371866018"><ele>1351.0</ele><time>2026-04-11T08:43:11Z</time></trkpt><trkpt lat="38.19343416406356" lon="15.86046449842196"><ele>1351.0</ele><time>2026-04-11T08:43:14Z</time></trkpt><trkpt lat="38.193379312246684" lon="15.860389215568546"><ele>1351.0</ele><time>2026-04-11T08:43:16Z</time></trkpt><trkpt lat="38.19333094787018" lon="15.860293120891427"><ele>1351.0</ele><time>2026-04-11T08:43:18Z</time></trkpt><trkpt lat="38.19329281171173" lon="15.860229030160937"><ele>1351.0</ele><time>2026-04-11T08:43:22Z</time></trkpt><trkpt lat="38.193204840930846" lon="15.860144596095775"><ele>1351.0</ele><time>2026-04-11T08:43:25Z</time></trkpt><trkpt lat="38.19315961977045" lon="15.86008660297183"><ele>1351.0</ele><time>2026-04-11T08:43:26Z</time></trkpt><trkpt lat="38.193044948444104" lon="15.859988085451619"><ele>1352.8</ele><time>2026-04-11T08:43:29Z</time></trkpt><trkpt lat="38.192952828413745" lon="15.85992325838866"><ele>1354.6</ele><time>2026-04-11T08:43:30Z</time></trkpt><trkpt lat="38.192885800570785" lon="15.859883371163898"><ele>1356.4</ele><time>2026-04-11T08:43:31Z</time></trkpt><trkpt lat="38.19278925657225" lon="15.85979987746765"><ele>1358.2</ele><time>2026-04-11T08:43:33Z</time></trkpt><trkpt lat="38.192706700108516" lon="15.859725561214475"><ele>1360.0</ele><time>2026-04-11T08:43:35Z</time></trkpt><trkpt lat="38.19261345268057" lon="15.859662851090036"><ele>1360.0</ele><time>2026-04-11T08:43:36Z</time></trkpt><trkpt lat="38.192519941790074" lon="15.85962391145866"><ele>1360.0</ele><time>2026-04-11T08:43:37Z</time></trkpt><trkpt lat="38.19242564123117" lon="15.859604609923352"><ele>1360.0</ele><time>2026-04-11T08:43:38Z</time></trkpt><trkpt lat="38.19236140540397" lon="15.859554614291559"><ele>1360.0</ele><time>2026-04-11T08:43:39Z</time></trkpt><trkpt lat="38.192301075993726" lon="15.859480242104771"><ele>1360.0</ele><time>2026-04-11T08:43:41Z</time></trkpt><trkpt lat="38.192232358352186" lon="15.859432937398799"><ele>1360.0</ele><time>2026-04-11T08:43:42Z</time></trkpt><trkpt lat="38.19217132846219" lon="15.859369545415039"><ele>1360.5</ele><time>2026-04-11T08:43:43Z</time></trkpt><trkpt lat="38.19211672203024" lon="15.859324127763005"><ele>1361.0</ele><time>2026-04-11T08:43:44Z</time></trkpt><trkpt lat="38.19204707281976" lon="15.859256485851521"><ele>1361.5</ele><time>2026-04-11T08:43:45Z</time></trkpt><trkpt lat="38.191952719609986" lon="15.8592081553978"><ele>1362.0</ele><time>2026-04-11T08:43:46Z</time></trkpt><trkpt lat="38.19189273582894" lon="15.859166572067803"><ele>1362.5</ele><time>2026-04-11T08:43:47Z</time></trkpt><trkpt lat="38.191813576118825" lon="15.859135775990241"><ele>1363.0</ele><time>2026-04-11T08:43:48Z</time></trkpt><trkpt lat="38.191728667274255" lon="15.859108314150268"><ele>1363.0</ele><time>2026-04-11T08:43:49Z</time></trkpt><trkpt lat="38.19163259561417" lon="15.859044768448461"><ele>1363.0</ele><time>2026-04-11T08:43:51Z</time></trkpt><trkpt lat="38.1916129857211" lon="15.858945945467438"><ele>1363.0</ele><time>2026-04-11T08:43:52Z</time></trkpt><trkpt lat="38.191570243541214" lon="15.858876763665757"><ele>1363.0</ele><time>2026-04-11T08:43:53Z</time></trkpt><trkpt lat="38.19153248251699" lon="15.858790923249076"><ele>1363.0</ele><time>2026-04-11T08:43:54Z</time></trkpt><trkpt lat="38.19148642570338" lon="15.8587266137687"><ele>1363.0</ele><time>2026-04-11T08:43:55Z</time></trkpt><trkpt lat="38.19148528882793" lon="15.858638464135199"><ele>1361.4</ele><time>2026-04-11T08:43:58Z</time></trkpt><trkpt lat="38.19138958906394" lon="15.858546154171464"><ele>1359.8000000000002</ele><time>2026-04-11T08:45:11Z</time></trkpt><trkpt lat="38.191398213179845" lon="15.85842877620137"><ele>1358.2</ele><time>2026-04-11T08:45:13Z</time></trkpt><trkpt lat="38.19139705806767" lon="15.858328906601878"><ele>1356.6</ele><time>2026-04-11T08:45:14Z</time></trkpt><trkpt lat="38.19144431227981" lon="15.858237122506456"><ele>1355.0</ele><time>2026-04-11T08:45:15Z</time></trkpt><trkpt lat="38.19148945250485" lon="15.858111687159228"><ele>1355.2</ele><time>2026-04-11T08:45:16Z</time></trkpt><trkpt lat="38.19154852637209" lon="15.857990255713117"><ele>1355.4</ele><time>2026-04-11T08:45:17Z</time></trkpt><trkpt lat="38.19163322770145" lon="15.857914145743583"><ele>1355.6</ele><time>2026-04-11T08:45:18Z</time></trkpt><trkpt lat="38.191693982678686" lon="15.857809915796762"><ele>1355.8</ele><time>2026-04-11T08:45:19Z</time></trkpt><trkpt lat="38.191720903329625" lon="15.85766312382638"><ele>1356.0</ele><time>2026-04-11T08:45:25Z</time></trkpt><trkpt lat="38.191776127481326" lon="15.857521708315783"><ele>1355.0</ele><time>2026-04-11T08:45:26Z</time></trkpt><trkpt lat="38.19174459909501" lon="15.857437218713786"><ele>1354.0</ele><time>2026-04-11T08:45:27Z</time></trkpt><trkpt lat="38.1917612450235" lon="15.857324461057681"><ele>1353.0</ele><time>2026-04-11T08:45:28Z</time></trkpt><trkpt lat="38.191805809539574" lon="15.857263432402188"><ele>1352.0</ele><time>2026-04-11T08:45:29Z</time></trkpt><trkpt lat="38.19185475916506" lon="15.857079636085313"><ele>1351.0</ele><time>2026-04-11T08:45:31Z</time></trkpt><trkpt lat="38.19188194515251" lon="15.856984486834094"><ele>1351.0</ele><time>2026-04-11T08:45:32Z</time></trkpt><trkpt lat="38.19192641786904" lon="15.856902316641802"><ele>1351.0</ele><time>2026-04-11T08:45:33Z</time></trkpt><trkpt lat="38.19199693544277" lon="15.856902146749128"><ele>1351.0</ele><time>2026-04-11T08:45:34Z</time></trkpt><trkpt lat="38.192073871893776" lon="15.8568721179282"><ele>1351.0</ele><time>2026-04-11T08:45:35Z</time></trkpt><trkpt lat="38.19213141599685" lon="15.856787456340879"><ele>1351.0</ele><time>2026-04-11T08:45:36Z</time></trkpt><trkpt lat="38.19225221613728" lon="15.856676656510974"><ele>1350.6666666666665</ele><time>2026-04-11T08:45:38Z</time></trkpt><trkpt lat="38.192289402623835" lon="15.856608463102848"><ele>1350.3333333333333</ele><time>2026-04-11T08:45:39Z</time></trkpt><trkpt lat="38.192307644443694" lon="15.856522629205395"><ele>1350.0</ele><time>2026-04-11T08:45:40Z</time></trkpt><trkpt lat="38.19237022479619" lon="15.856471281469492"><ele>1349.6666666666667</ele><time>2026-04-11T08:45:41Z</time></trkpt><trkpt lat="38.192397304295085" lon="15.85637048048724"><ele>1349.3333333333335</ele><time>2026-04-11T08:45:42Z</time></trkpt><trkpt lat="38.19247253984454" lon="15.856271433206748"><ele>1349.0</ele><time>2026-04-11T08:45:44Z</time></trkpt><trkpt lat="38.19255635316871" lon="15.856236274564502"><ele>1349.0</ele><time>2026-04-11T08:45:46Z</time></trkpt><trkpt lat="38.19265256579183" lon="15.856205054317417"><ele>1349.0</ele><time>2026-04-11T08:45:47Z</time></trkpt><trkpt lat="38.1927225720317" lon="15.856154892162762"><ele>1349.0</ele><time>2026-04-11T08:45:48Z</time></trkpt><trkpt lat="38.192805730018556" lon="15.856117474674994"><ele>1349.0</ele><time>2026-04-11T08:45:49Z</time></trkpt><trkpt lat="38.19289486964828" lon="15.856096529216305"><ele>1349.0</ele><time>2026-04-11T08:45:50Z</time></trkpt><trkpt lat="38.19296647334802" lon="15.856032738472296"><ele>1349.0</ele><time>2026-04-11T08:45:51Z</time></trkpt><trkpt lat="38.19307359389149" lon="15.855957468261554"><ele>1347.8000000000002</ele><time>2026-04-11T08:45:53Z</time></trkpt><trkpt lat="38.1931284654737" lon="15.85587170788726"><ele>1346.6000000000001</ele><time>2026-04-11T08:45:55Z</time></trkpt><trkpt lat="38.19321918601781" lon="15.855859811054936"><ele>1345.4</ele><time>2026-04-11T08:45:57Z</time></trkpt><trkpt lat="38.1933240811256" lon="15.855819848413041"><ele>1344.2</ele><time>2026-04-11T08:45:59Z</time></trkpt><trkpt lat="38.193397081981736" lon="15.855785887219477"><ele>1343.0</ele><time>2026-04-11T08:46:01Z</time></trkpt><trkpt lat="38.193502095960255" lon="15.855738085288188"><ele>1342.2</ele><time>2026-04-11T08:46:03Z</time></trkpt><trkpt lat="38.19361189786671" lon="15.855679771098464"><ele>1341.4</ele><time>2026-04-11T08:46:05Z</time></trkpt><trkpt lat="38.19367845768949" lon="15.855654680054107"><ele>1340.6000000000001</ele><time>2026-04-11T08:46:06Z</time></trkpt><trkpt lat="38.19376922317847" lon="15.85569619212202"><ele>1339.8000000000002</ele><time>2026-04-11T08:46:08.001Z</time></trkpt><trkpt lat="38.19386738354713" lon="15.855766096521785"><ele>1339.0</ele><time>2026-04-11T08:46:10.001Z</time></trkpt><trkpt lat="38.193917102314096" lon="15.855818211611204"><ele>1339.0</ele><time>2026-04-11T08:46:11.001Z</time></trkpt><trkpt lat="38.19394013654746" lon="15.855909876060696"><ele>1339.0</ele><time>2026-04-11T08:46:13.001Z</time></trkpt><trkpt lat="38.19397816670927" lon="15.855991224406859"><ele>1339.0</ele><time>2026-04-11T08:46:16.001Z</time></trkpt><trkpt lat="38.19404005167636" lon="15.856076844332556"><ele>1339.0</ele><time>2026-04-11T08:46:18.001Z</time></trkpt><trkpt lat="38.19413077001651" lon="15.856117684348282"><ele>1339.0</ele><time>2026-04-11T08:46:20.001Z</time></trkpt><trkpt lat="38.19423038556103" lon="15.85616026528647"><ele>1339.0</ele><time>2026-04-11T08:46:22.001Z</time></trkpt><trkpt lat="38.194321002648934" lon="15.856136785978823"><ele>1337.6666666666665</ele><time>2026-04-11T08:46:24.001Z</time></trkpt><trkpt lat="38.194387717666416" lon="15.856110603577859"><ele>1336.3333333333333</ele><time>2026-04-11T08:46:25Z</time></trkpt><trkpt lat="38.194486189870815" lon="15.856052734095638"><ele>1335.0</ele><time>2026-04-11T08:46:27Z</time></trkpt><trkpt lat="38.1945509807336" lon="15.8560155613979"><ele>1333.6666666666667</ele><time>2026-04-11T08:46:29Z</time></trkpt><trkpt lat="38.19459788902888" lon="15.855961503522256"><ele>1332.3333333333335</ele><time>2026-04-11T08:46:35Z</time></trkpt><trkpt lat="38.19464919504726" lon="15.855890714355585"><ele>1331.0</ele><time>2026-04-11T08:46:43Z</time></trkpt><trkpt lat="38.19470663651643" lon="15.855846398506761"><ele>1329.8333333333335</ele><time>2026-04-11T08:46:55Z</time></trkpt><trkpt lat="38.194768187315795" lon="15.855814761361488"><ele>1328.6666666666667</ele><time>2026-04-11T08:46:58Z</time></trkpt><trkpt lat="38.19481668321093" lon="15.855724853056483"><ele>1327.5</ele><time>2026-04-11T08:47:02Z</time></trkpt><trkpt lat="38.194831799458726" lon="15.855641946411358"><ele>1326.3333333333333</ele><time>2026-04-11T08:47:07Z</time></trkpt><trkpt lat="38.194914622294995" lon="15.855626459645801"><ele>1325.1666666666665</ele><time>2026-04-11T08:47:12Z</time></trkpt><trkpt lat="38.19499988996381" lon="15.855590023703556"><ele>1324.0</ele><time>2026-04-11T08:47:16Z</time></trkpt><trkpt lat="38.19504748800452" lon="15.85553040500037"><ele>1322.7142857142858</ele><time>2026-04-11T08:47:20Z</time></trkpt><trkpt lat="38.195103718705106" lon="15.855440130799245"><ele>1321.4285714285713</ele><time>2026-04-11T08:47:22Z</time></trkpt><trkpt lat="38.19514522032115" lon="15.855374201996064"><ele>1320.142857142857</ele><time>2026-04-11T08:47:25Z</time></trkpt><trkpt lat="38.19521105432993" lon="15.855378268783516"><ele>1318.857142857143</ele><time>2026-04-11T08:47:27Z</time></trkpt><trkpt lat="38.1952680144634" lon="15.85533991208835"><ele>1317.5714285714287</ele><time>2026-04-11T08:47:28Z</time></trkpt><trkpt lat="38.19532744852825" lon="15.855270177903211"><ele>1316.2857142857142</ele><time>2026-04-11T08:47:30Z</time></trkpt><trkpt lat="38.19536874504765" lon="15.855199253257368"><ele>1315.0</ele><time>2026-04-11T08:47:34Z</time></trkpt><trkpt lat="38.19543582567271" lon="15.855177245191877"><ele>1315.0</ele><time>2026-04-11T08:47:36Z</time></trkpt><trkpt lat="38.19551319391039" lon="15.855151636804859"><ele>1315.0</ele><time>2026-04-11T08:47:40Z</time></trkpt><trkpt lat="38.19554413045535" lon="15.855080550942473"><ele>1315.0</ele><time>2026-04-11T08:47:47Z</time></trkpt><trkpt lat="38.19563132930822" lon="15.855048275933711"><ele>1315.0</ele><time>2026-04-11T08:47:51Z</time></trkpt><trkpt lat="38.195691625816266" lon="15.855008412706958"><ele>1315.0</ele><time>2026-04-11T08:47:58Z</time></trkpt><trkpt lat="38.19583424187406" lon="15.85504283561924"><ele>1315.0</ele><time>2026-04-11T08:48:08.001Z</time></trkpt><trkpt lat="38.19590165017184" lon="15.855062707898682"><ele>1314.5</ele><time>2026-04-11T08:48:12.001Z</time></trkpt><trkpt lat="38.19597082742635" lon="15.855070530958086"><ele>1314.0</ele><time>2026-04-11T08:48:19.001Z</time></trkpt><trkpt lat="38.19603297371349" lon="15.855084122942984"><ele>1313.5</ele><time>2026-04-11T08:48:24.001Z</time></trkpt><trkpt lat="38.196109374491634" lon="15.855084187036075"><ele>1313.0</ele><time>2026-04-11T08:48:29.001Z</time></trkpt><trkpt lat="38.196183870057446" lon="15.85511593553295"><ele>1312.5</ele><time>2026-04-11T08:55:38Z</time></trkpt><trkpt lat="38.196254279503165" lon="15.855141053740981"><ele>1312.0</ele><time>2026-04-11T08:55:41Z</time></trkpt><trkpt lat="38.196348896033356" lon="15.855206612643162"><ele>1312.0</ele><time>2026-04-11T08:55:43Z</time></trkpt><trkpt lat="38.19642885403764" lon="15.855235604987966"><ele>1312.0</ele><time>2026-04-11T08:55:44Z</time></trkpt><trkpt lat="38.19651671350135" lon="15.855283951361796"><ele>1312.0</ele><time>2026-04-11T08:55:45Z</time></trkpt><trkpt lat="38.1965851709568" lon="15.855374304486004"><ele>1312.0</ele><time>2026-04-11T08:55:49Z</time></trkpt><trkpt lat="38.19667556584912" lon="15.855453254310852"><ele>1312.0</ele><time>2026-04-11T08:55:51Z</time></trkpt><trkpt lat="38.196746597681695" lon="15.855455963753238"><ele>1307.8</ele><time>2026-04-11T08:55:53Z</time></trkpt><trkpt lat="38.19685465419556" lon="15.855468799376332"><ele>1303.6</ele><time>2026-04-11T08:55:55Z</time></trkpt><trkpt lat="38.19698994661509" lon="15.855418645266091"><ele>1299.3999999999999</ele><time>2026-04-11T08:55:57Z</time></trkpt><trkpt lat="38.19707682384303" lon="15.85548290959804"><ele>1295.1999999999998</ele><time>2026-04-11T08:55:59Z</time></trkpt><trkpt lat="38.197143113263735" lon="15.855484995605337"><ele>1291.0</ele><time>2026-04-11T08:56:00Z</time></trkpt><trkpt lat="38.19723701685511" lon="15.855463594679442"><ele>1290.9999999999998</ele><time>2026-04-11T08:56:02Z</time></trkpt><trkpt lat="38.19729793758752" lon="15.855418417039697"><ele>1291.0</ele><time>2026-04-11T08:56:04Z</time></trkpt><trkpt lat="38.19736508750028" lon="15.855359250962692"><ele>1291.0</ele><time>2026-04-11T08:56:07Z</time></trkpt><trkpt lat="38.19740793795676" lon="15.855299528938481"><ele>1291.0</ele><time>2026-04-11T08:56:09Z</time></trkpt><trkpt lat="38.19746081758634" lon="15.855251443939517"><ele>1291.0</ele><time>2026-04-11T08:56:11Z</time></trkpt><trkpt lat="38.19754046464839" lon="15.855232938257519"><ele>1290.9999999999998</ele><time>2026-04-11T08:56:14Z</time></trkpt><trkpt lat="38.197589121981736" lon="15.85517212184883"><ele>1291.0</ele><time>2026-04-11T08:56:18Z</time></trkpt><trkpt lat="38.197678933385305" lon="15.855145890840264"><ele>1286.5</ele><time>2026-04-11T08:56:21Z</time></trkpt><trkpt lat="38.197762391067485" lon="15.855169307844628"><ele>1282.0</ele><time>2026-04-11T08:56:24Z</time></trkpt><trkpt lat="38.19782028546229" lon="15.855135170479324"><ele>1277.5</ele><time>2026-04-11T08:56:30Z</time></trkpt><trkpt lat="38.19788485765873" lon="15.85512723160533"><ele>1273.0</ele><time>2026-04-11T08:56:32Z</time></trkpt><trkpt lat="38.197983893834184" lon="15.855132182387276"><ele>1268.5</ele><time>2026-04-11T08:56:35Z</time></trkpt><trkpt lat="38.19805783350503" lon="15.855137197160824"><ele>1264.0</ele><time>2026-04-11T08:56:37Z</time></trkpt><trkpt lat="38.19814190759825" lon="15.855127642378896"><ele>1260.1666666666665</ele><time>2026-04-11T08:56:40Z</time></trkpt><trkpt lat="38.19820859567758" lon="15.855123882682651"><ele>1256.3333333333333</ele><time>2026-04-11T08:56:41Z</time></trkpt><trkpt lat="38.19828376388958" lon="15.855087829498682"><ele>1252.5</ele><time>2026-04-11T08:56:43Z</time></trkpt><trkpt lat="38.19837121544569" lon="15.85509006643157"><ele>1248.6666666666667</ele><time>2026-04-11T08:56:44.001Z</time></trkpt><trkpt lat="38.19845676555517" lon="15.855097423904063"><ele>1244.8333333333335</ele><time>2026-04-11T08:56:46.001Z</time></trkpt><trkpt lat="38.19853547930035" lon="15.855101648424302"><ele>1241.0</ele><time>2026-04-11T08:56:49.001Z</time></trkpt><trkpt lat="38.19860114966118" lon="15.855097607729892"><ele>1240.7142857142858</ele><time>2026-04-11T08:56:51.001Z</time></trkpt><trkpt lat="38.19868607313086" lon="15.855081710016842"><ele>1240.4285714285713</ele><time>2026-04-11T08:56:54.001Z</time></trkpt><trkpt lat="38.19875699178088" lon="15.855061060583274"><ele>1240.142857142857</ele><time>2026-04-11T08:56:57Z</time></trkpt><trkpt lat="38.19882340159538" lon="15.855043518137368"><ele>1239.857142857143</ele><time>2026-04-11T08:56:59Z</time></trkpt><trkpt lat="38.198885227630974" lon="15.855009640283205"><ele>1239.5714285714284</ele><time>2026-04-11T08:57:00Z</time></trkpt><trkpt lat="38.198962869509145" lon="15.854968907413378"><ele>1239.2857142857142</ele><time>2026-04-11T08:57:01Z</time></trkpt><trkpt lat="38.199022133306855" lon="15.854919190310392"><ele>1239.0</ele><time>2026-04-11T08:57:02Z</time></trkpt><trkpt lat="38.19908173044223" lon="15.854864302874091"><ele>1237.142857142857</ele><time>2026-04-11T08:57:05Z</time></trkpt><trkpt lat="38.19915637144224" lon="15.854815640423514"><ele>1235.2857142857142</ele><time>2026-04-11T08:57:07Z</time></trkpt><trkpt lat="38.19923067260157" lon="15.854826847163304"><ele>1233.4285714285716</ele><time>2026-04-11T08:57:08Z</time></trkpt><trkpt lat="38.19928896005361" lon="15.854865927814494"><ele>1231.5714285714284</ele><time>2026-04-11T08:57:09Z</time></trkpt><trkpt lat="38.19934069781886" lon="15.854923376313018"><ele>1229.7142857142858</ele><time>2026-04-11T08:57:11Z</time></trkpt><trkpt lat="38.199408901378945" lon="15.854976220038768"><ele>1227.857142857143</ele><time>2026-04-11T08:57:14Z</time></trkpt><trkpt lat="38.1994786498196" lon="15.85496841384993"><ele>1226.0</ele><time>2026-04-11T08:57:17Z</time></trkpt><trkpt lat="38.19956296397882" lon="15.854968788941678"><ele>1226.0</ele><time>2026-04-11T08:57:21Z</time></trkpt><trkpt lat="38.19967146380353" lon="15.854976691400843"><ele>1226.0</ele><time>2026-04-11T08:57:23Z</time></trkpt><trkpt lat="38.19977079541869" lon="15.854951637922078"><ele>1226.0</ele><time>2026-04-11T08:57:25Z</time></trkpt><trkpt lat="38.19984034284513" lon="15.854927890213055"><ele>1226.0</ele><time>2026-04-11T08:57:28Z</time></trkpt><trkpt lat="38.19988448303408" lon="15.854867685275625"><ele>1226.0</ele><time>2026-04-11T08:57:30Z</time></trkpt><trkpt lat="38.19989621595341" lon="15.854739877840872"><ele>1226.0</ele><time>2026-04-11T08:57:33Z</time></trkpt><trkpt lat="38.19991080919467" lon="15.854617473578628"><ele>1224.0</ele><time>2026-04-11T08:57:35Z</time></trkpt><trkpt lat="38.19987052965164" lon="15.854544806870408"><ele>1222.0</ele><time>2026-04-11T08:57:38Z</time></trkpt><trkpt lat="38.19987242785228" lon="15.854396892401683"><ele>1220.0</ele><time>2026-04-11T08:57:42Z</time></trkpt><trkpt lat="38.19986150459435" lon="15.854278998899005"><ele>1218.0</ele><time>2026-04-11T08:57:44Z</time></trkpt><trkpt lat="38.19982124388461" lon="15.854171175828892"><ele>1216.0</ele><time>2026-04-11T08:57:45Z</time></trkpt><trkpt lat="38.19978504852393" lon="15.85407282871134"><ele>1216.0</ele><time>2026-04-11T08:57:46Z</time></trkpt><trkpt lat="38.199734307389356" lon="15.853949681371017"><ele>1216.0</ele><time>2026-04-11T08:57:48Z</time></trkpt><trkpt lat="38.19967130786582" lon="15.85380869438301"><ele>1216.0</ele><time>2026-04-11T08:57:50Z</time></trkpt><trkpt lat="38.199616706998384" lon="15.853688237558659"><ele>1216.0</ele><time>2026-04-11T08:57:54Z</time></trkpt><trkpt lat="38.19955281196707" lon="15.853618567493195"><ele>1216.0</ele><time>2026-04-11T08:57:55Z</time></trkpt><trkpt lat="38.19945810427889" lon="15.853557716408435"><ele>1216.0</ele><time>2026-04-11T08:57:56Z</time></trkpt><trkpt lat="38.199399831949854" lon="15.853504696488224"><ele>1216.0</ele><time>2026-04-11T08:57:57Z</time></trkpt><trkpt lat="38.19934043786253" lon="15.853455295028441"><ele>1216.0</ele><time>2026-04-11T08:57:59Z</time></trkpt><trkpt lat="38.19926433958111" lon="15.853378735276769"><ele>1216.0</ele><time>2026-04-11T08:58:03Z</time></trkpt><trkpt lat="38.199189747525445" lon="15.853274617550543"><ele>1216.0</ele><time>2026-04-11T08:58:24Z</time></trkpt><trkpt lat="38.19910845789322" lon="15.853257628776625"><ele>1216.0</ele><time>2026-04-11T08:58:26Z</time></trkpt><trkpt lat="38.19907711296161" lon="15.853168238377078"><ele>1213.6</ele><time>2026-04-11T08:58:30Z</time></trkpt><trkpt lat="38.19916028902272" lon="15.853123710006539"><ele>1211.1999999999998</ele><time>2026-04-11T08:58:33Z</time></trkpt><trkpt lat="38.19922842545443" lon="15.853095945768924"><ele>1208.8000000000002</ele><time>2026-04-11T08:58:34Z</time></trkpt><trkpt lat="38.199291457885884" lon="15.853094310500046"><ele>1206.4</ele><time>2026-04-11T08:58:35Z</time></trkpt><trkpt lat="38.19939349566913" lon="15.853153974509203"><ele>1204.0</ele><time>2026-04-11T08:58:38Z</time></trkpt><trkpt lat="38.199511679941125" lon="15.853217227176405"><ele>1204.0</ele><time>2026-04-11T08:58:40Z</time></trkpt><trkpt lat="38.19956327773692" lon="15.85327589945919"><ele>1204.0</ele><time>2026-04-11T08:58:41Z</time></trkpt><trkpt lat="38.19966693583271" lon="15.853349209238933"><ele>1204.0</ele><time>2026-04-11T08:58:42Z</time></trkpt><trkpt lat="38.19975558235051" lon="15.853423748893976"><ele>1204.0</ele><time>2026-04-11T08:58:43Z</time></trkpt><trkpt lat="38.19982253733658" lon="15.853476416180483"><ele>1204.0</ele><time>2026-04-11T08:58:44Z</time></trkpt><trkpt lat="38.19988063929692" lon="15.85353052115807"><ele>1204.0</ele><time>2026-04-11T08:58:45Z</time></trkpt><trkpt lat="38.199936044721376" lon="15.853570198982766"><ele>1203.8</ele><time>2026-04-11T08:58:46Z</time></trkpt><trkpt lat="38.20000965225364" lon="15.853604928668792"><ele>1203.6000000000001</ele><time>2026-04-11T08:58:47Z</time></trkpt><trkpt lat="38.200100584864174" lon="15.853705609573014"><ele>1203.4</ele><time>2026-04-11T08:58:49Z</time></trkpt><trkpt lat="38.20013828716208" lon="15.853795541657371"><ele>1203.2</ele><time>2026-04-11T08:58:51Z</time></trkpt><trkpt lat="38.200145162824725" lon="15.853895808453306"><ele>1203.0</ele><time>2026-04-11T08:58:55Z</time></trkpt><trkpt lat="38.200199846250094" lon="15.854016530430346"><ele>1203.0</ele><time>2026-04-11T08:58:58Z</time></trkpt><trkpt lat="38.200256698752625" lon="15.854144004905168"><ele>1203.0</ele><time>2026-04-11T08:59:00Z</time></trkpt><trkpt lat="38.20038186673961" lon="15.854219617959332"><ele>1203.0</ele><time>2026-04-11T08:59:02Z</time></trkpt><trkpt lat="38.20046203519728" lon="15.854281671623337"><ele>1203.0</ele><time>2026-04-11T08:59:04Z</time></trkpt><trkpt lat="38.200542133597374" lon="15.85422054234427"><ele>1203.0</ele><time>2026-04-11T08:59:07Z</time></trkpt><trkpt lat="38.20060700407656" lon="15.854188006891182"><ele>1200.0</ele><time>2026-04-11T08:59:08Z</time></trkpt><trkpt lat="38.20067730820357" lon="15.854149021265881"><ele>1197.0</ele><time>2026-04-11T08:59:10Z</time></trkpt><trkpt lat="38.200745382463516" lon="15.854096645401894"><ele>1194.0</ele><time>2026-04-11T08:59:13Z</time></trkpt><trkpt lat="38.200802347963396" lon="15.854028667376783"><ele>1191.0</ele><time>2026-04-11T09:02:11Z</time></trkpt><trkpt lat="38.20087378106324" lon="15.853959740853755"><ele>1188.0</ele><time>2026-04-11T09:02:14Z</time></trkpt><trkpt lat="38.20095236880991" lon="15.853895443690716"><ele>1185.0</ele><time>2026-04-11T09:02:16Z</time></trkpt><trkpt lat="38.201023458286286" lon="15.853933267994604"><ele>1185.0</ele><time>2026-04-11T09:02:17Z</time></trkpt><trkpt lat="38.20109137417379" lon="15.853927034194465"><ele>1185.0</ele><time>2026-04-11T09:02:19Z</time></trkpt><trkpt lat="38.20116006891467" lon="15.853898859301438"><ele>1185.0</ele><time>2026-04-11T09:02:21Z</time></trkpt><trkpt lat="38.20124264230416" lon="15.853883436541388"><ele>1185.0</ele><time>2026-04-11T09:02:23Z</time></trkpt><trkpt lat="38.20130793572603" lon="15.853933546277752"><ele>1185.0</ele><time>2026-04-11T09:02:25Z</time></trkpt><trkpt lat="38.20137416254537" lon="15.853926261696452"><ele>1185.0</ele><time>2026-04-11T09:02:27Z</time></trkpt><trkpt lat="38.20146759549455" lon="15.853886325038564"><ele>1182.0</ele><time>2026-04-11T09:02:30Z</time></trkpt><trkpt lat="38.20154211480108" lon="15.853953922540287"><ele>1179.0</ele><time>2026-04-11T09:02:32Z</time></trkpt><trkpt lat="38.20163853255996" lon="15.854007686086659"><ele>1176.0</ele><time>2026-04-11T09:02:34Z</time></trkpt><trkpt lat="38.201708124059394" lon="15.854081366591002"><ele>1173.0</ele><time>2026-04-11T09:02:36Z</time></trkpt><trkpt lat="38.201772793606736" lon="15.85406328434204"><ele>1170.0</ele><time>2026-04-11T09:02:37Z</time></trkpt><trkpt lat="38.20185418570395" lon="15.854112325409885"><ele>1167.0</ele><time>2026-04-11T09:02:40Z</time></trkpt><trkpt lat="38.2019178629415" lon="15.854188592926102"><ele>1167.0</ele><time>2026-04-11T09:02:42Z</time></trkpt><trkpt lat="38.201969292056894" lon="15.854284768489183"><ele>1167.0</ele><time>2026-04-11T09:02:46Z</time></trkpt><trkpt lat="38.2019674062247" lon="15.854368027982874"><ele>1167.0</ele><time>2026-04-11T09:02:53Z</time></trkpt><trkpt lat="38.201906850306294" lon="15.854404556758102"><ele>1167.0</ele><time>2026-04-11T09:02:56Z</time></trkpt><trkpt lat="38.20184134390863" lon="15.854402014900575"><ele>1167.0</ele><time>2026-04-11T09:02:59Z</time></trkpt><trkpt lat="38.2017774951326" lon="15.854423807080554"><ele>1167.0</ele><time>2026-04-11T09:03:02Z</time></trkpt><trkpt lat="38.20176106405871" lon="15.854511450316545"><ele>1167.0</ele><time>2026-04-11T09:03:12.999Z</time></trkpt><trkpt lat="38.201813131250354" lon="15.854562873970764"><ele>1167.1666666666667</ele><time>2026-04-11T09:03:14.999Z</time></trkpt><trkpt lat="38.20188807108159" lon="15.854598497584677"><ele>1167.3333333333333</ele><time>2026-04-11T09:03:16.999Z</time></trkpt><trkpt lat="38.20197253846362" lon="15.854653918439958"><ele>1167.5</ele><time>2026-04-11T09:03:17.999Z</time></trkpt><trkpt lat="38.20202203044361" lon="15.854740119697567"><ele>1167.6666666666665</ele><time>2026-04-11T09:03:22.999Z</time></trkpt><trkpt lat="38.202029451680694" lon="15.854831830409914"><ele>1167.8333333333333</ele><time>2026-04-11T09:03:27.999Z</time></trkpt><trkpt lat="38.202115122136625" lon="15.854832679962186"><ele>1168.0</ele><time>2026-04-11T09:03:44Z</time></trkpt><trkpt lat="38.202193586685446" lon="15.854851189819689"><ele>1168.0</ele><time>2026-04-11T09:03:47Z</time></trkpt><trkpt lat="38.20215271144528" lon="15.854926660944278"><ele>1168.0</ele><time>2026-04-11T09:05:15Z</time></trkpt><trkpt lat="38.20221674706062" lon="15.854902977287349"><ele>1168.0</ele><time>2026-04-11T09:06:10Z</time></trkpt><trkpt lat="38.20227185266177" lon="15.854849782232098"><ele>1168.0</ele><time>2026-04-11T09:06:16Z</time></trkpt><trkpt lat="38.20220213323086" lon="15.854888344042656"><ele>1168.0</ele><time>2026-04-11T09:06:25Z</time></trkpt><trkpt lat="38.20213395406621" lon="15.85492355843203"><ele>1168.0</ele><time>2026-04-11T09:06:27Z</time></trkpt><trkpt lat="38.202198606608405" lon="15.854857979674025"><ele>1168.0</ele><time>2026-04-11T09:06:39Z</time></trkpt><trkpt lat="38.20222271165977" lon="15.8547282827902"><ele>1168.0</ele><time>2026-04-11T09:07:18Z</time></trkpt><trkpt lat="38.20231165007715" lon="15.854731100423951"><ele>1168.0</ele><time>2026-04-11T09:07:20Z</time></trkpt><trkpt lat="38.20238855495468" lon="15.854744782477505"><ele>1168.0</ele><time>2026-04-11T09:07:22Z</time></trkpt><trkpt lat="38.20248767853505" lon="15.854837513277579"><ele>1168.0</ele><time>2026-04-11T09:07:24.001Z</time></trkpt><trkpt lat="38.20254975871526" lon="15.854912997803094"><ele>1168.0</ele><time>2026-04-11T09:07:24.999Z</time></trkpt><trkpt lat="38.20263329672588" lon="15.85503560435974"><ele>1166.8</ele><time>2026-04-11T09:07:26.999Z</time></trkpt><trkpt lat="38.20274775009958" lon="15.85506381364375"><ele>1165.6</ele><time>2026-04-11T09:07:28.999Z</time></trkpt><trkpt lat="38.20283459881784" lon="15.855079370965449"><ele>1164.4</ele><time>2026-04-11T09:07:29.999Z</time></trkpt><trkpt lat="38.20290110452575" lon="15.855085824142014"><ele>1163.2</ele><time>2026-04-11T09:07:30.999Z</time></trkpt><trkpt lat="38.20299143085419" lon="15.855053566144433"><ele>1162.0</ele><time>2026-04-11T09:07:32.999Z</time></trkpt><trkpt lat="38.20311057577889" lon="15.85507956372935"><ele>1162.8333333333333</ele><time>2026-04-11T09:07:34.999Z</time></trkpt><trkpt lat="38.2031903332425" lon="15.855107569443536"><ele>1163.6666666666665</ele><time>2026-04-11T09:07:35.999Z</time></trkpt><trkpt lat="38.2032584742286" lon="15.85509811371356"><ele>1164.5</ele><time>2026-04-11T09:07:36.999Z</time></trkpt><trkpt lat="38.20332460932428" lon="15.855114798441708"><ele>1165.3333333333333</ele><time>2026-04-11T09:07:37.999Z</time></trkpt><trkpt lat="38.2034545332335" lon="15.85513163317308"><ele>1166.1666666666667</ele><time>2026-04-11T09:07:38.999Z</time></trkpt><trkpt lat="38.203543573232594" lon="15.855130663855428"><ele>1167.0</ele><time>2026-04-11T09:07:39.999Z</time></trkpt><trkpt lat="38.20364528665427" lon="15.855155429350404"><ele>1167.0</ele><time>2026-04-11T09:07:41Z</time></trkpt><trkpt lat="38.20373324066993" lon="15.855169060946912"><ele>1167.0</ele><time>2026-04-11T09:07:42Z</time></trkpt><trkpt lat="38.203813868551606" lon="15.855165263608969"><ele>1167.0</ele><time>2026-04-11T09:07:43Z</time></trkpt><trkpt lat="38.20389021693238" lon="15.855140090812107"><ele>1167.0</ele><time>2026-04-11T09:07:44Z</time></trkpt><trkpt lat="38.204025558337584" lon="15.855141847676018"><ele>1167.0</ele><time>2026-04-11T09:07:46Z</time></trkpt><trkpt lat="38.204118541060815" lon="15.85521510576463"><ele>1165.6666666666667</ele><time>2026-04-11T09:07:48Z</time></trkpt><trkpt lat="38.204152439552466" lon="15.855286763970849"><ele>1164.3333333333333</ele><time>2026-04-11T09:07:52Z</time></trkpt><trkpt lat="38.204231937731805" lon="15.855279666524067"><ele>1163.0</ele><time>2026-04-11T09:08:13Z</time></trkpt><trkpt lat="38.204197769406164" lon="15.855354152781532"><ele>1161.6666666666665</ele><time>2026-04-11T09:09:26.001Z</time></trkpt><trkpt lat="38.2042660516663" lon="15.85538991425823"><ele>1160.3333333333333</ele><time>2026-04-11T09:10:52.001Z</time></trkpt><trkpt lat="38.204331976105514" lon="15.85547797170534"><ele>1159.0</ele><time>2026-04-11T09:10:54.001Z</time></trkpt><trkpt lat="38.20444472933162" lon="15.85558507941209"><ele>1159.0</ele><time>2026-04-11T09:10:56.001Z</time></trkpt><trkpt lat="38.204526045299815" lon="15.855636378011667"><ele>1159.0</ele><time>2026-04-11T09:10:57.001Z</time></trkpt><trkpt lat="38.20464019537601" lon="15.855683010148583"><ele>1159.0</ele><time>2026-04-11T09:10:58.001Z</time></trkpt><trkpt lat="38.2047932523134" lon="15.855695996140442"><ele>1159.0</ele><time>2026-04-11T09:10:59.001Z</time></trkpt><trkpt lat="38.20485621300532" lon="15.855664074188322"><ele>1159.0</ele><time>2026-04-11T09:11:00.001Z</time></trkpt><trkpt lat="38.204980080909166" lon="15.855661987681527"><ele>1157.3333333333333</ele><time>2026-04-11T09:11:01.001Z</time></trkpt><trkpt lat="38.20506073518839" lon="15.855661910139544"><ele>1155.6666666666665</ele><time>2026-04-11T09:11:02.001Z</time></trkpt><trkpt lat="38.20515263911336" lon="15.85565649294985"><ele>1154.0</ele><time>2026-04-11T09:11:03.001Z</time></trkpt><trkpt lat="38.20524581737175" lon="15.855678663136894"><ele>1152.3333333333333</ele><time>2026-04-11T09:11:04.001Z</time></trkpt><trkpt lat="38.20529692544771" lon="15.855733497821198"><ele>1150.6666666666667</ele><time>2026-04-11T09:11:05.001Z</time></trkpt><trkpt lat="38.20539298367156" lon="15.855774347609062"><ele>1149.0</ele><time>2026-04-11T09:11:07.001Z</time></trkpt><trkpt lat="38.20546727394441" lon="15.855833419131926"><ele>1149.0</ele><time>2026-04-11T09:11:09.001Z</time></trkpt><trkpt lat="38.20557049862801" lon="15.855739537928374"><ele>1149.0</ele><time>2026-04-11T09:11:11.001Z</time></trkpt><trkpt lat="38.20565039918806" lon="15.855641863594549"><ele>1149.0</ele><time>2026-04-11T09:11:13.001Z</time></trkpt><trkpt lat="38.20570417364379" lon="15.85558792949086"><ele>1149.0</ele><time>2026-04-11T09:11:14.001Z</time></trkpt><trkpt lat="38.20577938280077" lon="15.855516228120255"><ele>1149.0</ele><time>2026-04-11T09:11:16.001Z</time></trkpt><trkpt lat="38.20579737596743" lon="15.855377943601624"><ele>1149.0</ele><time>2026-04-11T09:11:18.001Z</time></trkpt><trkpt lat="38.205746334434444" lon="15.855309853088078"><ele>1149.0</ele><time>2026-04-11T09:11:20.001Z</time></trkpt><trkpt lat="38.205656913572575" lon="15.855265308085842"><ele>1149.0</ele><time>2026-04-11T09:11:22.001Z</time></trkpt><trkpt lat="38.20559467697947" lon="15.855230336568383"><ele>1149.0</ele><time>2026-04-11T09:11:23.001Z</time></trkpt><trkpt lat="38.205516288584136" lon="15.855195943627088"><ele>1149.0</ele><time>2026-04-11T09:11:24.001Z</time></trkpt><trkpt lat="38.20544355197778" lon="15.855180387173956"><ele>1149.0</ele><time>2026-04-11T09:11:25.001Z</time></trkpt><trkpt lat="38.205327632396454" lon="15.855167097713231"><ele>1149.0</ele><time>2026-04-11T09:11:26.001Z</time></trkpt><trkpt lat="38.20525943066399" lon="15.855141968923784"><ele>1149.0</ele><time>2026-04-11T09:11:27.001Z</time></trkpt><trkpt lat="38.20516438876454" lon="15.85509527739797"><ele>1149.0</ele><time>2026-04-11T09:11:29.001Z</time></trkpt><trkpt lat="38.205193338189716" lon="15.854953840239345"><ele>1149.0</ele><time>2026-04-11T09:11:32.001Z</time></trkpt><trkpt lat="38.20528059355187" lon="15.854873263974055"><ele>1149.0</ele><time>2026-04-11T09:11:34.001Z</time></trkpt><trkpt lat="38.205342347948516" lon="15.854828507354759"><ele>1146.8333333333333</ele><time>2026-04-11T09:11:35.001Z</time></trkpt><trkpt lat="38.20540421398287" lon="15.854766404374908"><ele>1144.6666666666667</ele><time>2026-04-11T09:11:37.001Z</time></trkpt><trkpt lat="38.205463552785" lon="15.854705798262904"><ele>1142.5</ele><time>2026-04-11T09:11:39.001Z</time></trkpt><trkpt lat="38.2055115095404" lon="15.85463744611066"><ele>1140.3333333333335</ele><time>2026-04-11T09:11:42.001Z</time></trkpt><trkpt lat="38.205591813049" lon="15.854631118536119"><ele>1138.1666666666667</ele><time>2026-04-11T09:11:53.001Z</time></trkpt><trkpt lat="38.205594540656186" lon="15.85453910888245"><ele>1136.0</ele><time>2026-04-11T09:16:29Z</time></trkpt><trkpt lat="38.205690965063354" lon="15.854516514202894"><ele>1134.8333333333335</ele><time>2026-04-11T09:17:24.001Z</time></trkpt><trkpt lat="38.205798086940284" lon="15.854478964024139"><ele>1133.6666666666667</ele><time>2026-04-11T09:17:26.001Z</time></trkpt><trkpt lat="38.205870780934035" lon="15.85446903219303"><ele>1132.5</ele><time>2026-04-11T09:17:27.001Z</time></trkpt><trkpt lat="38.205941628259055" lon="15.854489247993731"><ele>1131.3333333333333</ele><time>2026-04-11T09:17:28.001Z</time></trkpt><trkpt lat="38.206030663685155" lon="15.854456156778209"><ele>1130.1666666666665</ele><time>2026-04-11T09:17:29.001Z</time></trkpt><trkpt lat="38.206097213619884" lon="15.854431354607225"><ele>1129.0</ele><time>2026-04-11T09:17:30.001Z</time></trkpt><trkpt lat="38.20617891039355" lon="15.854397157743271"><ele>1129.0</ele><time>2026-04-11T09:17:31.001Z</time></trkpt><trkpt lat="38.206270975571314" lon="15.854358275475116"><ele>1129.0</ele><time>2026-04-11T09:17:32.001Z</time></trkpt><trkpt lat="38.20636163187689" lon="15.854320351236897"><ele>1129.0</ele><time>2026-04-11T09:17:33.001Z</time></trkpt><trkpt lat="38.20645971274062" lon="15.85426087739003"><ele>1129.0</ele><time>2026-04-11T09:17:34.001Z</time></trkpt><trkpt lat="38.20657348268173" lon="15.854223545837497"><ele>1129.0</ele><time>2026-04-11T09:17:35.001Z</time></trkpt><trkpt lat="38.20668553038111" lon="15.854178101290547"><ele>1126.4</ele><time>2026-04-11T09:17:36.001Z</time></trkpt><trkpt lat="38.20679376532297" lon="15.854147325222945"><ele>1123.8000000000002</ele><time>2026-04-11T09:17:37.001Z</time></trkpt><trkpt lat="38.206908371351716" lon="15.854146314615667"><ele>1121.1999999999998</ele><time>2026-04-11T09:17:38.001Z</time></trkpt><trkpt lat="38.20700409933578" lon="15.85414431826935"><ele>1118.6</ele><time>2026-04-11T09:17:39.001Z</time></trkpt><trkpt lat="38.20712634024502" lon="15.854154771378491"><ele>1116.0</ele><time>2026-04-11T09:17:40.001Z</time></trkpt><trkpt lat="38.20724897538211" lon="15.854170953433655"><ele>1115.0</ele><time>2026-04-11T09:17:41.001Z</time></trkpt><trkpt lat="38.20738796304925" lon="15.854193132318803"><ele>1114.0</ele><time>2026-04-11T09:17:42.001Z</time></trkpt><trkpt lat="38.20751083153461" lon="15.85421079012397"><ele>1113.0</ele><time>2026-04-11T09:17:43.001Z</time></trkpt><trkpt lat="38.20762687042654" lon="15.854209245495179"><ele>1112.0</ele><time>2026-04-11T09:17:44.001Z</time></trkpt><trkpt lat="38.20773928368583" lon="15.854217510859291"><ele>1112.0</ele><time>2026-04-11T09:17:45.001Z</time></trkpt><trkpt lat="38.20784882582674" lon="15.854220220489358"><ele>1112.0</ele><time>2026-04-11T09:17:46.001Z</time></trkpt><trkpt lat="38.20796475335809" lon="15.854267540995531"><ele>1112.0</ele><time>2026-04-11T09:17:47.001Z</time></trkpt><trkpt lat="38.20808627739149" lon="15.85431876836693"><ele>1112.0</ele><time>2026-04-11T09:17:48.001Z</time></trkpt><trkpt lat="38.20822029407869" lon="15.854423470663132"><ele>1112.25</ele><time>2026-04-11T09:17:49.001Z</time></trkpt><trkpt lat="38.208346416423254" lon="15.854494019393645"><ele>1112.5</ele><time>2026-04-11T09:17:50.001Z</time></trkpt><trkpt lat="38.20848227596131" lon="15.854573920636879"><ele>1112.75</ele><time>2026-04-11T09:17:51.001Z</time></trkpt><trkpt lat="38.20861071809519" lon="15.854649459578285"><ele>1113.0</ele><time>2026-04-11T09:17:52.001Z</time></trkpt><trkpt lat="38.2087334251726" lon="15.854720238989211"><ele>1113.0</ele><time>2026-04-11T09:17:53.001Z</time></trkpt><trkpt lat="38.20885945340829" lon="15.854792245449957"><ele>1113.0</ele><time>2026-04-11T09:17:54.001Z</time></trkpt><trkpt lat="38.208961250675166" lon="15.854864065913938"><ele>1113.0</ele><time>2026-04-11T09:17:55Z</time></trkpt><trkpt lat="38.20902722597444" lon="15.854939465928183"><ele>1113.0</ele><time>2026-04-11T09:17:56Z</time></trkpt><trkpt lat="38.20908397970517" lon="15.855033706770254"><ele>1113.0</ele><time>2026-04-11T09:17:57Z</time></trkpt><trkpt lat="38.209145198182554" lon="15.855131527542447"><ele>1113.0</ele><time>2026-04-11T09:17:58Z</time></trkpt><trkpt lat="38.20909218467719" lon="15.855254628673796"><ele>1113.0</ele><time>2026-04-11T09:17:59Z</time></trkpt><trkpt lat="38.20906744806333" lon="15.855374547441889"><ele>1113.0</ele><time>2026-04-11T09:18:00Z</time></trkpt><trkpt lat="38.20903291761132" lon="15.855561165941303"><ele>1113.0</ele><time>2026-04-11T09:18:01Z</time></trkpt><trkpt lat="38.20897996663118" lon="15.855725243957385"><ele>1114.3333333333333</ele><time>2026-04-11T09:18:02Z</time></trkpt><trkpt lat="38.208942017814714" lon="15.85590361130985"><ele>1115.6666666666665</ele><time>2026-04-11T09:18:03Z</time></trkpt><trkpt lat="38.20890380946971" lon="15.856072100897924"><ele>1117.0</ele><time>2026-04-11T09:18:04Z</time></trkpt><trkpt lat="38.20883246131468" lon="15.85630112091623"><ele>1118.3333333333333</ele><time>2026-04-11T09:18:05Z</time></trkpt><trkpt lat="38.20877798885403" lon="15.856505782383596"><ele>1119.6666666666667</ele><time>2026-04-11T09:18:06Z</time></trkpt><trkpt lat="38.20874536515559" lon="15.856705314414723"><ele>1121.0</ele><time>2026-04-11T09:18:07Z</time></trkpt><trkpt lat="38.2087076756979" lon="15.856904402471159"><ele>1121.75</ele><time>2026-04-11T09:18:08Z</time></trkpt><trkpt lat="38.20868033136342" lon="15.85710303213732"><ele>1122.5</ele><time>2026-04-11T09:18:09Z</time></trkpt><trkpt lat="38.20869626291762" lon="15.85728635121017"><ele>1123.25</ele><time>2026-04-11T09:18:10Z</time></trkpt><trkpt lat="38.20869147566244" lon="15.857455849698926"><ele>1124.0</ele><time>2026-04-11T09:18:11Z</time></trkpt><trkpt lat="38.20869023628969" lon="15.85761363386203"><ele>1124.4</ele><time>2026-04-11T09:18:12Z</time></trkpt><trkpt lat="38.208719603462" lon="15.857770511377856"><ele>1124.8000000000002</ele><time>2026-04-11T09:18:13Z</time></trkpt><trkpt lat="38.20872344805678" lon="15.857912701290763"><ele>1125.1999999999998</ele><time>2026-04-11T09:18:14Z</time></trkpt><trkpt lat="38.20875499324502" lon="15.858016147991096"><ele>1125.6</ele><time>2026-04-11T09:18:15Z</time></trkpt><trkpt lat="38.208865760602755" lon="15.858064540728897"><ele>1126.0</ele><time>2026-04-11T09:18:16Z</time></trkpt><trkpt lat="38.20902635774961" lon="15.858083019598261"><ele>1121.0</ele><time>2026-04-11T09:18:17Z</time></trkpt><trkpt lat="38.209127873169614" lon="15.858060282999615"><ele>1116.0</ele><time>2026-04-11T09:18:18Z</time></trkpt><trkpt lat="38.20934222500511" lon="15.8580070724222"><ele>1111.0</ele><time>2026-04-11T09:18:19Z</time></trkpt><trkpt lat="38.209522274168755" lon="15.858002373050022"><ele>1111.0</ele><time>2026-04-11T09:18:20Z</time></trkpt><trkpt lat="38.20969228226184" lon="15.858022847314626"><ele>1111.0</ele><time>2026-04-11T09:18:21Z</time></trkpt><trkpt lat="38.20990357918619" lon="15.858039953036531"><ele>1111.0</ele><time>2026-04-11T09:18:22Z</time></trkpt><trkpt lat="38.21008599172858" lon="15.858026612688015"><ele>1106.3333333333333</ele><time>2026-04-11T09:18:23Z</time></trkpt><trkpt lat="38.210271037409335" lon="15.85802631374601"><ele>1101.6666666666667</ele><time>2026-04-11T09:18:24Z</time></trkpt><trkpt lat="38.210465490638" lon="15.858028348486034"><ele>1097.0</ele><time>2026-04-11T09:18:25Z</time></trkpt><trkpt lat="38.210662660766744" lon="15.858023967747984"><ele>1095.6666666666667</ele><time>2026-04-11T09:18:26Z</time></trkpt><trkpt lat="38.21085454036782" lon="15.858003617473283"><ele>1094.3333333333333</ele><time>2026-04-11T09:18:27Z</time></trkpt><trkpt lat="38.21103171601071" lon="15.857980878773857"><ele>1093.0</ele><time>2026-04-11T09:18:28Z</time></trkpt><trkpt lat="38.21120304372999" lon="15.857956732152527"><ele>1093.0</ele><time>2026-04-11T09:18:29Z</time></trkpt><trkpt lat="38.211352189423536" lon="15.8579322867754"><ele>1093.0</ele><time>2026-04-11T09:18:30Z</time></trkpt><trkpt lat="38.21148844475429" lon="15.857938719514783"><ele>1093.0</ele><time>2026-04-11T09:18:31Z</time></trkpt><trkpt lat="38.211599048472614" lon="15.857960065032733"><ele>1093.0</ele><time>2026-04-11T09:18:32Z</time></trkpt><trkpt lat="38.21171324416291" lon="15.858010741820644"><ele>1093.25</ele><time>2026-04-11T09:18:33Z</time></trkpt><trkpt lat="38.21181645221487" lon="15.858097223607547"><ele>1093.5</ele><time>2026-04-11T09:18:34Z</time></trkpt><trkpt lat="38.211912178517764" lon="15.858183394267915"><ele>1093.75</ele><time>2026-04-11T09:18:35Z</time></trkpt><trkpt lat="38.212024291505934" lon="15.858283709654172"><ele>1094.0</ele><time>2026-04-11T09:18:36Z</time></trkpt><trkpt lat="38.21216553033211" lon="15.85841008504814"><ele>1093.3333333333335</ele><time>2026-04-11T09:18:37Z</time></trkpt><trkpt lat="38.21232034574372" lon="15.858527910843591"><ele>1092.6666666666667</ele><time>2026-04-11T09:18:38Z</time></trkpt><trkpt lat="38.21246715806372" lon="15.858687844975456"><ele>1092.0</ele><time>2026-04-11T09:18:39Z</time></trkpt><trkpt lat="38.212596533579685" lon="15.85880681183756"><ele>1091.5</ele><time>2026-04-11T09:18:40Z</time></trkpt><trkpt lat="38.212717005211495" lon="15.858913175643144"><ele>1091.0</ele><time>2026-04-11T09:18:41Z</time></trkpt><trkpt lat="38.212833555845684" lon="15.85901220278182"><ele>1090.5</ele><time>2026-04-11T09:18:42Z</time></trkpt><trkpt lat="38.21294320804788" lon="15.859114978794905"><ele>1090.0</ele><time>2026-04-11T09:18:43Z</time></trkpt><trkpt lat="38.21305054585296" lon="15.859211006651359"><ele>1089.75</ele><time>2026-04-11T09:18:44Z</time></trkpt><trkpt lat="38.21315320853983" lon="15.859304289666497"><ele>1089.5</ele><time>2026-04-11T09:18:45Z</time></trkpt><trkpt lat="38.21322590209945" lon="15.859373149103419"><ele>1089.25</ele><time>2026-04-11T09:18:46Z</time></trkpt><trkpt lat="38.213324798996894" lon="15.85946896054129"><ele>1089.0</ele><time>2026-04-11T09:18:47Z</time></trkpt><trkpt lat="38.21336308804255" lon="15.859614339403008"><ele>1088.5</ele><time>2026-04-11T09:18:48Z</time></trkpt><trkpt lat="38.21337559334001" lon="15.85977426596803"><ele>1088.0</ele><time>2026-04-11T09:18:49Z</time></trkpt><trkpt lat="38.21335364571564" lon="15.85994044079607"><ele>1087.5</ele><time>2026-04-11T09:18:50Z</time></trkpt><trkpt lat="38.21331370438352" lon="15.860107959780041"><ele>1087.0</ele><time>2026-04-11T09:18:51Z</time></trkpt><trkpt lat="38.21325921939639" lon="15.860271814803523"><ele>1086.0</ele><time>2026-04-11T09:18:52Z</time></trkpt><trkpt lat="38.2132191419556" lon="15.860467381021518"><ele>1085.0</ele><time>2026-04-11T09:18:53Z</time></trkpt><trkpt lat="38.213186817012975" lon="15.860641049442297"><ele>1084.0</ele><time>2026-04-11T09:18:54Z</time></trkpt><trkpt lat="38.21316298476529" lon="15.86077290489825"><ele>1083.0</ele><time>2026-04-11T09:18:55Z</time></trkpt><trkpt lat="38.213128019981696" lon="15.860882137892975"><ele>1082.4</ele><time>2026-04-11T09:18:56Z</time></trkpt><trkpt lat="38.21307223019519" lon="15.86097061888709"><ele>1081.8</ele><time>2026-04-11T09:18:57Z</time></trkpt><trkpt lat="38.21300220855739" lon="15.86101953190292"><ele>1081.2</ele><time>2026-04-11T09:18:58Z</time></trkpt><trkpt lat="38.21290895891925" lon="15.861022306387827"><ele>1080.6</ele><time>2026-04-11T09:18:59Z</time></trkpt><trkpt lat="38.21279518647853" lon="15.860989512052981"><ele>1080.0</ele><time>2026-04-11T09:19:00Z</time></trkpt><trkpt lat="38.21268412393717" lon="15.860959475682543"><ele>1080.0</ele><time>2026-04-11T09:19:01Z</time></trkpt><trkpt lat="38.212569697530206" lon="15.861012489758352"><ele>1080.0</ele><time>2026-04-11T09:19:02Z</time></trkpt><trkpt lat="38.21249273822705" lon="15.861100258587264"><ele>1080.0</ele><time>2026-04-11T09:19:03Z</time></trkpt><trkpt lat="38.212447502796536" lon="15.861223036769935"><ele>1080.0</ele><time>2026-04-11T09:19:04Z</time></trkpt><trkpt lat="38.21241522442627" lon="15.861364182543653"><ele>1080.0</ele><time>2026-04-11T09:19:05Z</time></trkpt><trkpt lat="38.212391331082394" lon="15.861510518627604"><ele>1080.0</ele><time>2026-04-11T09:19:06Z</time></trkpt><trkpt lat="38.212391299995495" lon="15.861627916668388"><ele>1080.0</ele><time>2026-04-11T09:19:07Z</time></trkpt><trkpt lat="38.212439333205275" lon="15.861723349718869"><ele>1080.0</ele><time>2026-04-11T09:19:08Z</time></trkpt><trkpt lat="38.21250106464095" lon="15.86181966948566"><ele>1080.0</ele><time>2026-04-11T09:19:09Z</time></trkpt><trkpt lat="38.212610817615314" lon="15.861888609219724"><ele>1080.0</ele><time>2026-04-11T09:19:10Z</time></trkpt><trkpt lat="38.21273818618525" lon="15.861950724703426"><ele>1080.5</ele><time>2026-04-11T09:19:11Z</time></trkpt><trkpt lat="38.21287253485859" lon="15.862025162411712"><ele>1081.0</ele><time>2026-04-11T09:19:12Z</time></trkpt><trkpt lat="38.212996931961065" lon="15.862109094376898"><ele>1081.5</ele><time>2026-04-11T09:19:13Z</time></trkpt><trkpt lat="38.2130800070496" lon="15.862219658695368"><ele>1082.0</ele><time>2026-04-11T09:19:14Z</time></trkpt><trkpt lat="38.21315767442553" lon="15.862326346228931"><ele>1081.5</ele><time>2026-04-11T09:19:15Z</time></trkpt><trkpt lat="38.21317619421845" lon="15.86248909151828"><ele>1081.0</ele><time>2026-04-11T09:19:16Z</time></trkpt><trkpt lat="38.21318639420326" lon="15.862677594410732"><ele>1080.5</ele><time>2026-04-11T09:19:17Z</time></trkpt><trkpt lat="38.21320480713713" lon="15.862893221908866"><ele>1080.0</ele><time>2026-04-11T09:19:18Z</time></trkpt><trkpt lat="38.21319740520023" lon="15.863120433832714"><ele>1080.0</ele><time>2026-04-11T09:19:19Z</time></trkpt><trkpt lat="38.2132076190384" lon="15.863355117034153"><ele>1080.0</ele><time>2026-04-11T09:19:20Z</time></trkpt><trkpt lat="38.213221828501005" lon="15.86360257524409"><ele>1080.0</ele><time>2026-04-11T09:19:21Z</time></trkpt><trkpt lat="38.21323241077942" lon="15.863866934387021"><ele>1080.0</ele><time>2026-04-11T09:19:22Z</time></trkpt><trkpt lat="38.21324492213191" lon="15.864127988303515"><ele>1080.0</ele><time>2026-04-11T09:19:23Z</time></trkpt><trkpt lat="38.213252331278696" lon="15.864358156205656"><ele>1080.0</ele><time>2026-04-11T09:19:24Z</time></trkpt><trkpt lat="38.21325498731828" lon="15.86457304880538"><ele>1080.0</ele><time>2026-04-11T09:19:25Z</time></trkpt><trkpt lat="38.21327170743674" lon="15.864783428335754"><ele>1080.0</ele><time>2026-04-11T09:19:26Z</time></trkpt><trkpt lat="38.21333019498306" lon="15.864988160856157"><ele>1080.0</ele><time>2026-04-11T09:19:27Z</time></trkpt><trkpt lat="38.213421571262785" lon="15.865196909031377"><ele>1079.6666666666667</ele><time>2026-04-11T09:19:28Z</time></trkpt><trkpt lat="38.2135287403207" lon="15.865388931497606"><ele>1079.3333333333335</ele><time>2026-04-11T09:19:29Z</time></trkpt><trkpt lat="38.21364493461517" lon="15.865566581858527"><ele>1079.0</ele><time>2026-04-11T09:19:30Z</time></trkpt><trkpt lat="38.213747945927786" lon="15.865748357605705"><ele>1079.0</ele><time>2026-04-11T09:19:31Z</time></trkpt><trkpt lat="38.21385579229524" lon="15.865944941401402"><ele>1079.0</ele><time>2026-04-11T09:19:32Z</time></trkpt><trkpt lat="38.213961084212414" lon="15.866148100273605"><ele>1079.0</ele><time>2026-04-11T09:19:33Z</time></trkpt><trkpt lat="38.21406651070296" lon="15.866354116825011"><ele>1077.3333333333335</ele><time>2026-04-11T09:19:34Z</time></trkpt><trkpt lat="38.214181478497714" lon="15.866563636330032"><ele>1075.6666666666667</ele><time>2026-04-11T09:19:35Z</time></trkpt><trkpt lat="38.21429616948003" lon="15.866779988965542"><ele>1074.0</ele><time>2026-04-11T09:19:36Z</time></trkpt><trkpt lat="38.2144237076014" lon="15.867005324310707"><ele>1073.6666666666667</ele><time>2026-04-11T09:19:37Z</time></trkpt><trkpt lat="38.21453473272536" lon="15.867244736589779"><ele>1073.3333333333335</ele><time>2026-04-11T09:19:38Z</time></trkpt><trkpt lat="38.21467039334778" lon="15.86746562045626"><ele>1073.0</ele><time>2026-04-11T09:19:39Z</time></trkpt><trkpt lat="38.21478900544418" lon="15.86769097230851"><ele>1071.3333333333335</ele><time>2026-04-11T09:19:40Z</time></trkpt><trkpt lat="38.2149090603936" lon="15.867912658301481"><ele>1069.6666666666667</ele><time>2026-04-11T09:19:41Z</time></trkpt><trkpt lat="38.215023769005064" lon="15.868110776250994"><ele>1068.0</ele><time>2026-04-11T09:19:42Z</time></trkpt><trkpt lat="38.215113067798505" lon="15.868314418315695"><ele>1067.6666666666667</ele><time>2026-04-11T09:19:43Z</time></trkpt><trkpt lat="38.21522825667966" lon="15.868504742107898"><ele>1067.3333333333335</ele><time>2026-04-11T09:19:44Z</time></trkpt><trkpt lat="38.21532676745311" lon="15.868715512576978"><ele>1067.0</ele><time>2026-04-11T09:19:45Z</time></trkpt><trkpt lat="38.21541784556069" lon="15.868937616693113"><ele>1067.0</ele><time>2026-04-11T09:19:46Z</time></trkpt><trkpt lat="38.21551348225103" lon="15.86916516913157"><ele>1067.0</ele><time>2026-04-11T09:19:47Z</time></trkpt><trkpt lat="38.215611047305366" lon="15.86938636297222"><ele>1067.0</ele><time>2026-04-11T09:19:48Z</time></trkpt><trkpt lat="38.21570488800599" lon="15.869598159873545"><ele>1066.3333333333335</ele><time>2026-04-11T09:19:49Z</time></trkpt><trkpt lat="38.21580195604856" lon="15.869811765824371"><ele>1065.6666666666667</ele><time>2026-04-11T09:19:50Z</time></trkpt><trkpt lat="38.21589132442417" lon="15.870035432675598"><ele>1065.0</ele><time>2026-04-11T09:19:51Z</time></trkpt><trkpt lat="38.21597648608416" lon="15.870281127866564"><ele>1063.6666666666667</ele><time>2026-04-11T09:19:52Z</time></trkpt><trkpt lat="38.21604743984438" lon="15.870538254048276"><ele>1062.3333333333335</ele><time>2026-04-11T09:19:53Z</time></trkpt><trkpt lat="38.21614843671453" lon="15.870788255139232"><ele>1061.0</ele><time>2026-04-11T09:19:54Z</time></trkpt><trkpt lat="38.216225360136214" lon="15.87103983658757"><ele>1060.6666666666667</ele><time>2026-04-11T09:19:55Z</time></trkpt><trkpt lat="38.21629872682438" lon="15.871276675571709"><ele>1060.3333333333333</ele><time>2026-04-11T09:19:56Z</time></trkpt><trkpt lat="38.2163706488391" lon="15.871496719535894"><ele>1060.0</ele><time>2026-04-11T09:19:57Z</time></trkpt><trkpt lat="38.21644181746736" lon="15.871728709909902"><ele>1057.0</ele><time>2026-04-11T09:19:58Z</time></trkpt><trkpt lat="38.216523496815526" lon="15.871958457174255"><ele>1054.0</ele><time>2026-04-11T09:19:59Z</time></trkpt><trkpt lat="38.21660210947732" lon="15.872195356525719"><ele>1051.0</ele><time>2026-04-11T09:20:00Z</time></trkpt><trkpt lat="38.21667664074941" lon="15.87243191233896"><ele>1049.6666666666665</ele><time>2026-04-11T09:20:00.999Z</time></trkpt><trkpt lat="38.21674274308205" lon="15.872652619315344"><ele>1048.3333333333333</ele><time>2026-04-11T09:20:01.999Z</time></trkpt><trkpt lat="38.216803911280735" lon="15.872843053722704"><ele>1047.0</ele><time>2026-04-11T09:20:02.999Z</time></trkpt><trkpt lat="38.21685192142859" lon="15.873000011806653"><ele>1047.0</ele><time>2026-04-11T09:20:03.999Z</time></trkpt><trkpt lat="38.216881877837764" lon="15.87312254213516"><ele>1047.0</ele><time>2026-04-11T09:20:04.999Z</time></trkpt><trkpt lat="38.21688607230781" lon="15.873223186687483"><ele>1047.0</ele><time>2026-04-11T09:20:05.999Z</time></trkpt><trkpt lat="38.216850050949" lon="15.873306763977219"><ele>1047.0</ele><time>2026-04-11T09:20:06.999Z</time></trkpt><trkpt lat="38.216758446182055" lon="15.873323661465534"><ele>1047.0</ele><time>2026-04-11T09:20:07.999Z</time></trkpt><trkpt lat="38.21667351108041" lon="15.87334656583434"><ele>1047.0</ele><time>2026-04-11T09:20:08.999Z</time></trkpt><trkpt lat="38.21656314093556" lon="15.873323013152808"><ele>1047.6666666666667</ele><time>2026-04-11T09:20:09.999Z</time></trkpt><trkpt lat="38.21646164713008" lon="15.873290133884144"><ele>1048.3333333333333</ele><time>2026-04-11T09:20:10.999Z</time></trkpt><trkpt lat="38.21639187187339" lon="15.873257570188148"><ele>1049.0</ele><time>2026-04-11T09:20:11.999Z</time></trkpt><trkpt lat="38.21631906278959" lon="15.873245443320847"><ele>1049.6666666666665</ele><time>2026-04-11T09:20:12.999Z</time></trkpt><trkpt lat="38.21620628724022" lon="15.87329061103285"><ele>1050.3333333333333</ele><time>2026-04-11T09:20:14.999Z</time></trkpt><trkpt lat="38.2161587871581" lon="15.873348123281515"><ele>1051.0</ele><time>2026-04-11T09:20:15.999Z</time></trkpt><trkpt lat="38.216118187451436" lon="15.873423838532375"><ele>1051.0</ele><time>2026-04-11T09:20:16.999Z</time></trkpt><trkpt lat="38.21607036157468" lon="15.87351103240416"><ele>1051.0</ele><time>2026-04-11T09:20:17.999Z</time></trkpt><trkpt lat="38.216015867526295" lon="15.873574680890934"><ele>1051.0</ele><time>2026-04-11T09:20:18.999Z</time></trkpt><trkpt lat="38.215968530656845" lon="15.873693719796199"><ele>1051.0</ele><time>2026-04-11T09:20:19.999Z</time></trkpt><trkpt lat="38.215938767514665" lon="15.873804346259213"><ele>1051.0</ele><time>2026-04-11T09:20:20.999Z</time></trkpt><trkpt lat="38.21597916245897" lon="15.873928469821028"><ele>1051.0</ele><time>2026-04-11T09:20:21.999Z</time></trkpt><trkpt lat="38.21604650826672" lon="15.87402517033719"><ele>1051.0</ele><time>2026-04-11T09:20:22.999Z</time></trkpt><trkpt lat="38.21613970867248" lon="15.874089743562564"><ele>1051.0</ele><time>2026-04-11T09:20:23.999Z</time></trkpt><trkpt lat="38.2162524983184" lon="15.874118909935904"><ele>1051.0</ele><time>2026-04-11T09:20:24.999Z</time></trkpt><trkpt lat="38.21637847491208" lon="15.874142969217639"><ele>1048.5</ele><time>2026-04-11T09:20:26Z</time></trkpt><trkpt lat="38.216513731508826" lon="15.874174747721554"><ele>1046.0</ele><time>2026-04-11T09:20:27Z</time></trkpt><trkpt lat="38.21664920204723" lon="15.874208107725577"><ele>1043.5</ele><time>2026-04-11T09:20:28Z</time></trkpt><trkpt lat="38.216774214960076" lon="15.874248918377164"><ele>1041.0</ele><time>2026-04-11T09:20:29Z</time></trkpt><trkpt lat="38.21685854325976" lon="15.874357118969515"><ele>1040.5</ele><time>2026-04-11T09:20:30Z</time></trkpt><trkpt lat="38.216910491517694" lon="15.874487867458562"><ele>1040.0</ele><time>2026-04-11T09:20:31Z</time></trkpt><trkpt lat="38.21697587707474" lon="15.874646584569565"><ele>1039.5</ele><time>2026-04-11T09:20:32Z</time></trkpt><trkpt lat="38.21704323046011" lon="15.874822355276569"><ele>1039.0</ele><time>2026-04-11T09:20:33Z</time></trkpt><trkpt lat="38.217119174212236" lon="15.875014680364602"><ele>1038.6666666666665</ele><time>2026-04-11T09:20:34Z</time></trkpt><trkpt lat="38.21720067716647" lon="15.875221083921655"><ele>1038.3333333333333</ele><time>2026-04-11T09:20:35Z</time></trkpt><trkpt lat="38.217300617524565" lon="15.875426085452156"><ele>1038.0</ele><time>2026-04-11T09:20:36Z</time></trkpt><trkpt lat="38.21738814294657" lon="15.875646072793108"><ele>1036.3333333333333</ele><time>2026-04-11T09:20:37Z</time></trkpt><trkpt lat="38.217474237656155" lon="15.875859925261286"><ele>1034.6666666666665</ele><time>2026-04-11T09:20:38Z</time></trkpt><trkpt lat="38.217559670399055" lon="15.876068068424011"><ele>1033.0</ele><time>2026-04-11T09:20:39Z</time></trkpt><trkpt lat="38.21764273247568" lon="15.876264418540144"><ele>1032.6666666666665</ele><time>2026-04-11T09:20:40Z</time></trkpt><trkpt lat="38.217704099199516" lon="15.876458990384752"><ele>1032.3333333333333</ele><time>2026-04-11T09:20:41Z</time></trkpt><trkpt lat="38.217772243051726" lon="15.876632237068023"><ele>1032.0</ele><time>2026-04-11T09:20:42Z</time></trkpt><trkpt lat="38.217834921404304" lon="15.876790137083173"><ele>1030.25</ele><time>2026-04-11T09:20:43Z</time></trkpt><trkpt lat="38.21790621761727" lon="15.876936293261675"><ele>1028.5</ele><time>2026-04-11T09:20:44Z</time></trkpt><trkpt lat="38.21791514720999" lon="15.877107611492683"><ele>1026.75</ele><time>2026-04-11T09:20:45Z</time></trkpt><trkpt lat="38.2179201982963" lon="15.877281425431375"><ele>1025.0</ele><time>2026-04-11T09:20:46Z</time></trkpt><trkpt lat="38.21790872733109" lon="15.877475965503436"><ele>1024.0</ele><time>2026-04-11T09:20:47Z</time></trkpt><trkpt lat="38.21788959076291" lon="15.877660330481794"><ele>1023.0</ele><time>2026-04-11T09:20:48Z</time></trkpt><trkpt lat="38.21785346553291" lon="15.877816984218882"><ele>1022.0</ele><time>2026-04-11T09:20:49Z</time></trkpt><trkpt lat="38.2177769207452" lon="15.877931740784417"><ele>1021.0</ele><time>2026-04-11T09:20:50Z</time></trkpt><trkpt lat="38.217691545064596" lon="15.878073694188844"><ele>1021.0</ele><time>2026-04-11T09:20:51Z</time></trkpt><trkpt lat="38.217579259451746" lon="15.87819611949652"><ele>1021.0</ele><time>2026-04-11T09:20:52Z</time></trkpt><trkpt lat="38.217467404703214" lon="15.878299820642338"><ele>1021.0</ele><time>2026-04-11T09:20:53Z</time></trkpt><trkpt lat="38.217348501011976" lon="15.878344770698895"><ele>1021.0</ele><time>2026-04-11T09:20:54Z</time></trkpt><trkpt lat="38.217212827746394" lon="15.878341774795793"><ele>1021.0</ele><time>2026-04-11T09:20:55Z</time></trkpt><trkpt lat="38.21707191544501" lon="15.878372678813399"><ele>1021.0</ele><time>2026-04-11T09:20:56Z</time></trkpt><trkpt lat="38.21692846834797" lon="15.878423734173362"><ele>1021.0</ele><time>2026-04-11T09:20:57Z</time></trkpt><trkpt lat="38.21680388237363" lon="15.878511419798828"><ele>1021.0</ele><time>2026-04-11T09:20:58Z</time></trkpt><trkpt lat="38.216713604599875" lon="15.878608830404314"><ele>1019.75</ele><time>2026-04-11T09:20:59Z</time></trkpt><trkpt lat="38.216641980727076" lon="15.878724397444724"><ele>1018.5</ele><time>2026-04-11T09:21:00Z</time></trkpt><trkpt lat="38.216579780054744" lon="15.87884193928135"><ele>1017.25</ele><time>2026-04-11T09:21:01Z</time></trkpt><trkpt lat="38.21651346499575" lon="15.87896341280639"><ele>1016.0</ele><time>2026-04-11T09:21:02Z</time></trkpt><trkpt lat="38.216445870416294" lon="15.879101255503755"><ele>1016.0</ele><time>2026-04-11T09:21:03Z</time></trkpt><trkpt lat="38.216405158810055" lon="15.879221548089541"><ele>1016.0</ele><time>2026-04-11T09:21:04Z</time></trkpt><trkpt lat="38.21640211821017" lon="15.879345204125531"><ele>1016.0</ele><time>2026-04-11T09:21:05Z</time></trkpt><trkpt lat="38.216451239387986" lon="15.879482755435939"><ele>1016.0</ele><time>2026-04-11T09:21:06Z</time></trkpt><trkpt lat="38.2165511579058" lon="15.879597482654095"><ele>1015.0</ele><time>2026-04-11T09:21:07Z</time></trkpt><trkpt lat="38.216677313780096" lon="15.879698701034044"><ele>1014.0</ele><time>2026-04-11T09:21:08Z</time></trkpt><trkpt lat="38.21682626150609" lon="15.87978443500759"><ele>1013.0</ele><time>2026-04-11T09:21:09Z</time></trkpt><trkpt lat="38.21697598209731" lon="15.879886180876891"><ele>1013.0</ele><time>2026-04-11T09:21:10Z</time></trkpt><trkpt lat="38.21710429065157" lon="15.87997906328634"><ele>1013.0</ele><time>2026-04-11T09:21:11Z</time></trkpt><trkpt lat="38.21723256269564" lon="15.880063894905428"><ele>1013.0</ele><time>2026-04-11T09:21:12Z</time></trkpt><trkpt lat="38.21737647218691" lon="15.88012387683494"><ele>1013.0</ele><time>2026-04-11T09:21:13Z</time></trkpt><trkpt lat="38.21753759933165" lon="15.880132850158883"><ele>1012.0</ele><time>2026-04-11T09:21:14Z</time></trkpt><trkpt lat="38.217690793480756" lon="15.880096300434182"><ele>1011.0</ele><time>2026-04-11T09:21:15Z</time></trkpt><trkpt lat="38.21782112645057" lon="15.880070687483569"><ele>1010.0</ele><time>2026-04-11T09:21:16Z</time></trkpt><trkpt lat="38.217947843090485" lon="15.880113274309986"><ele>1009.0</ele><time>2026-04-11T09:21:17Z</time></trkpt><trkpt lat="38.21808005305146" lon="15.880209974509809"><ele>1006.0</ele><time>2026-04-11T09:21:18Z</time></trkpt><trkpt lat="38.218226384456095" lon="15.880319591911132"><ele>1003.0</ele><time>2026-04-11T09:21:19Z</time></trkpt><trkpt lat="38.2183875645673" lon="15.880428843568628"><ele>1000.0</ele><time>2026-04-11T09:21:20Z</time></trkpt><trkpt lat="38.21852198649421" lon="15.88053339023906"><ele>1000.0</ele><time>2026-04-11T09:21:21Z</time></trkpt><trkpt lat="38.21864414833121" lon="15.880606366213165"><ele>1000.0</ele><time>2026-04-11T09:21:22Z</time></trkpt><trkpt lat="38.218786716534055" lon="15.880629928138788"><ele>1000.0</ele><time>2026-04-11T09:21:23Z</time></trkpt><trkpt lat="38.21895179460267" lon="15.880581787594906"><ele>1000.0</ele><time>2026-04-11T09:21:24Z</time></trkpt><trkpt lat="38.219110955378824" lon="15.880506351466682"><ele>1001.25</ele><time>2026-04-11T09:21:25Z</time></trkpt><trkpt lat="38.21923966723958" lon="15.8804489575865"><ele>1002.5</ele><time>2026-04-11T09:21:26Z</time></trkpt><trkpt lat="38.21935718806727" lon="15.880454479833205"><ele>1003.75</ele><time>2026-04-11T09:21:27Z</time></trkpt><trkpt lat="38.219483955782536" lon="15.880478225402534"><ele>1005.0</ele><time>2026-04-11T09:21:28Z</time></trkpt><trkpt lat="38.21962132805125" lon="15.88053129841166"><ele>1005.0</ele><time>2026-04-11T09:21:29Z</time></trkpt><trkpt lat="38.21978929583415" lon="15.880573911507362"><ele>1005.0</ele><time>2026-04-11T09:21:30Z</time></trkpt><trkpt lat="38.21994667076694" lon="15.880581687873924"><ele>1005.0</ele><time>2026-04-11T09:21:31Z</time></trkpt><trkpt lat="38.22015331392611" lon="15.880563706256945"><ele>1004.5</ele><time>2026-04-11T09:21:32Z</time></trkpt><trkpt lat="38.22030428875662" lon="15.880521895574418"><ele>1004.0</ele><time>2026-04-11T09:21:33Z</time></trkpt><trkpt lat="38.22043965376786" lon="15.880455381601333"><ele>1003.5</ele><time>2026-04-11T09:21:34Z</time></trkpt><trkpt lat="38.22055194415101" lon="15.880397421222439"><ele>1003.0</ele><time>2026-04-11T09:21:35Z</time></trkpt><trkpt lat="38.22063858923241" lon="15.880371031145131"><ele>1000.5999999999999</ele><time>2026-04-11T09:21:36Z</time></trkpt><trkpt lat="38.22071555812159" lon="15.88038381603646"><ele>998.1999999999999</ele><time>2026-04-11T09:21:37Z</time></trkpt><trkpt lat="38.22077686578132" lon="15.8804399988198"><ele>995.8</ele><time>2026-04-11T09:21:38Z</time></trkpt><trkpt lat="38.220792984146286" lon="15.880569230536837"><ele>993.4</ele><time>2026-04-11T09:21:39Z</time></trkpt><trkpt lat="38.22073900943276" lon="15.880706440049089"><ele>991.0</ele><time>2026-04-11T09:21:40Z</time></trkpt><trkpt lat="38.220666602026114" lon="15.880849002541861"><ele>993.6666666666666</ele><time>2026-04-11T09:21:41Z</time></trkpt><trkpt lat="38.220587603071785" lon="15.881003551318539"><ele>996.3333333333333</ele><time>2026-04-11T09:21:42Z</time></trkpt><trkpt lat="38.22051310680132" lon="15.881182350374031"><ele>999.0</ele><time>2026-04-11T09:21:43Z</time></trkpt><trkpt lat="38.22043773274314" lon="15.881366064354063"><ele>999.0</ele><time>2026-04-11T09:21:44Z</time></trkpt><trkpt lat="38.22036439117663" lon="15.88152405155093"><ele>999.0</ele><time>2026-04-11T09:21:45Z</time></trkpt><trkpt lat="38.22028367754615" lon="15.881644849110213"><ele>999.0</ele><time>2026-04-11T09:21:46Z</time></trkpt><trkpt lat="38.220180973515404" lon="15.881728027673843"><ele>999.0</ele><time>2026-04-11T09:21:47Z</time></trkpt><trkpt lat="38.22003575792117" lon="15.88177617950868"><ele>996.5</ele><time>2026-04-11T09:21:48Z</time></trkpt><trkpt lat="38.21989704481989" lon="15.881879075344568"><ele>994.0</ele><time>2026-04-11T09:21:49Z</time></trkpt><trkpt lat="38.2197974726785" lon="15.88201396193273"><ele>991.5</ele><time>2026-04-11T09:21:50Z</time></trkpt><trkpt lat="38.219721988142226" lon="15.88215817627442"><ele>989.0</ele><time>2026-04-11T09:21:51Z</time></trkpt><trkpt lat="38.21964052227224" lon="15.882269371791589"><ele>989.0</ele><time>2026-04-11T09:21:52Z</time></trkpt><trkpt lat="38.219502807145396" lon="15.882362725118554"><ele>989.0</ele><time>2026-04-11T09:21:53Z</time></trkpt><trkpt lat="38.21932844162436" lon="15.882425018690839"><ele>989.0</ele><time>2026-04-11T09:21:54Z</time></trkpt><trkpt lat="38.21916580108754" lon="15.88249705153425"><ele>989.0</ele><time>2026-04-11T09:21:55Z</time></trkpt><trkpt lat="38.219017608605476" lon="15.882557967769074"><ele>989.0</ele><time>2026-04-11T09:21:56Z</time></trkpt><trkpt lat="38.21886304049094" lon="15.882574502965696"><ele>989.0</ele><time>2026-04-11T09:21:57Z</time></trkpt><trkpt lat="38.21871208905606" lon="15.88257794986709"><ele>985.0</ele><time>2026-04-11T09:21:58Z</time></trkpt><trkpt lat="38.21861196680013" lon="15.882588986936259"><ele>981.0</ele><time>2026-04-11T09:21:59Z</time></trkpt><trkpt lat="38.21849230047578" lon="15.88257982978344"><ele>977.0</ele><time>2026-04-11T09:22:00Z</time></trkpt><trkpt lat="38.218348100179476" lon="15.882551053832026"><ele>973.0</ele><time>2026-04-11T09:22:01Z</time></trkpt><trkpt lat="38.21824577372446" lon="15.882475354029522"><ele>973.0</ele><time>2026-04-11T09:22:02Z</time></trkpt><trkpt lat="38.2181846847493" lon="15.882336406651755"><ele>973.0</ele><time>2026-04-11T09:22:03Z</time></trkpt><trkpt lat="38.21815442729652" lon="15.882166533753962"><ele>973.0</ele><time>2026-04-11T09:22:04Z</time></trkpt><trkpt lat="38.218120820178235" lon="15.881957298159163"><ele>973.0</ele><time>2026-04-11T09:22:05Z</time></trkpt><trkpt lat="38.218083722159605" lon="15.881789234516598"><ele>969.75</ele><time>2026-04-11T09:22:06Z</time></trkpt><trkpt lat="38.21799740290775" lon="15.881639904557217"><ele>966.5</ele><time>2026-04-11T09:22:06.999Z</time></trkpt><trkpt lat="38.21788078053269" lon="15.881510949751082"><ele>963.25</ele><time>2026-04-11T09:22:07.999Z</time></trkpt><trkpt lat="38.21776888550611" lon="15.881409290995583"><ele>960.0</ele><time>2026-04-11T09:22:08.999Z</time></trkpt><trkpt lat="38.217656768232146" lon="15.881316138384122"><ele>960.0</ele><time>2026-04-11T09:22:09.999Z</time></trkpt><trkpt lat="38.217523506051464" lon="15.881246987910822"><ele>960.0</ele><time>2026-04-11T09:22:10.999Z</time></trkpt><trkpt lat="38.21738136436852" lon="15.881241219721884"><ele>960.0</ele><time>2026-04-11T09:22:11.999Z</time></trkpt><trkpt lat="38.21724335262682" lon="15.881243963840344"><ele>960.0</ele><time>2026-04-11T09:22:12.999Z</time></trkpt><trkpt lat="38.21712531824806" lon="15.881241698783548"><ele>961.2</ele><time>2026-04-11T09:22:13.999Z</time></trkpt><trkpt lat="38.21701966099971" lon="15.88124161797143"><ele>962.4</ele><time>2026-04-11T09:22:14.999Z</time></trkpt><trkpt lat="38.216933153795345" lon="15.881266041462096"><ele>963.5999999999999</ele><time>2026-04-11T09:22:15.999Z</time></trkpt><trkpt lat="38.2168545720991" lon="15.881331297321035"><ele>964.8</ele><time>2026-04-11T09:22:16.999Z</time></trkpt><trkpt lat="38.21680069246891" lon="15.881423477062027"><ele>966.0</ele><time>2026-04-11T09:22:17.999Z</time></trkpt><trkpt lat="38.21675686604577" lon="15.881523040132114"><ele>966.0</ele><time>2026-04-11T09:22:18.999Z</time></trkpt><trkpt lat="38.21671376769211" lon="15.881616575260296"><ele>965.9999999999999</ele><time>2026-04-11T09:22:19.999Z</time></trkpt><trkpt lat="38.21664143651983" lon="15.881760637660024"><ele>965.9999999999999</ele><time>2026-04-11T09:22:21.999Z</time></trkpt><trkpt lat="38.21658283842292" lon="15.881869845352815"><ele>966.0</ele><time>2026-04-11T09:22:22.999Z</time></trkpt><trkpt lat="38.21652279210733" lon="15.881967870013641"><ele>966.0</ele><time>2026-04-11T09:22:23.999Z</time></trkpt><trkpt lat="38.216463371243556" lon="15.882081778542856"><ele>960.4</ele><time>2026-04-11T09:22:24.999Z</time></trkpt><trkpt lat="38.216412668856925" lon="15.882200769343346"><ele>954.8</ele><time>2026-04-11T09:22:26Z</time></trkpt><trkpt lat="38.21632758070308" lon="15.882256023123576"><ele>949.1999999999999</ele><time>2026-04-11T09:22:27Z</time></trkpt><trkpt lat="38.21623683033319" lon="15.88230225218662"><ele>943.5999999999999</ele><time>2026-04-11T09:22:28Z</time></trkpt><trkpt lat="38.21612284439515" lon="15.882312844910805"><ele>938.0</ele><time>2026-04-11T09:22:29Z</time></trkpt><trkpt lat="38.21601298904574" lon="15.882306256360494"><ele>938.0</ele><time>2026-04-11T09:22:30Z</time></trkpt><trkpt lat="38.21591958788475" lon="15.882289954254828"><ele>938.0</ele><time>2026-04-11T09:22:31Z</time></trkpt><trkpt lat="38.21584759801441" lon="15.882190533692883"><ele>938.0</ele><time>2026-04-11T09:22:32Z</time></trkpt><trkpt lat="38.215789120200235" lon="15.882067504667804"><ele>938.0</ele><time>2026-04-11T09:22:33Z</time></trkpt><trkpt lat="38.21572372095766" lon="15.881940154043056"><ele>938.0</ele><time>2026-04-11T09:22:34Z</time></trkpt><trkpt lat="38.21564155257351" lon="15.881826469473452"><ele>937.25</ele><time>2026-04-11T09:22:35Z</time></trkpt><trkpt lat="38.215557681998476" lon="15.881730894763757"><ele>936.5</ele><time>2026-04-11T09:22:36Z</time></trkpt><trkpt lat="38.21548432466599" lon="15.881627476210582"><ele>935.75</ele><time>2026-04-11T09:22:37Z</time></trkpt><trkpt lat="38.21540304634646" lon="15.881515689103871"><ele>935.0</ele><time>2026-04-11T09:22:38Z</time></trkpt><trkpt lat="38.21531646738418" lon="15.881421417165823"><ele>935.0</ele><time>2026-04-11T09:22:39Z</time></trkpt><trkpt lat="38.215213982472115" lon="15.881343424947953"><ele>935.0</ele><time>2026-04-11T09:22:40Z</time></trkpt><trkpt lat="38.21507707054427" lon="15.881243273686122"><ele>935.0</ele><time>2026-04-11T09:22:41Z</time></trkpt><trkpt lat="38.214954443392095" lon="15.881172734742728"><ele>935.0</ele><time>2026-04-11T09:22:42Z</time></trkpt><trkpt lat="38.214838506295045" lon="15.881135431993851"><ele>934.5</ele><time>2026-04-11T09:22:43Z</time></trkpt><trkpt lat="38.21472713932641" lon="15.881146057601171"><ele>934.0</ele><time>2026-04-11T09:22:44Z</time></trkpt><trkpt lat="38.21458569904397" lon="15.881200321949027"><ele>933.5</ele><time>2026-04-11T09:22:45Z</time></trkpt><trkpt lat="38.21445346909206" lon="15.881235787504474"><ele>933.0</ele><time>2026-04-11T09:22:46Z</time></trkpt><trkpt lat="38.21430413994891" lon="15.881279674630145"><ele>933.0</ele><time>2026-04-11T09:22:47Z</time></trkpt><trkpt lat="38.21415182835109" lon="15.881330645180105"><ele>933.0</ele><time>2026-04-11T09:22:48Z</time></trkpt><trkpt lat="38.21402268837272" lon="15.88142559379317"><ele>933.0</ele><time>2026-04-11T09:22:49Z</time></trkpt><trkpt lat="38.21390264477868" lon="15.881513854184508"><ele>933.0</ele><time>2026-04-11T09:22:50Z</time></trkpt><trkpt lat="38.213781548557755" lon="15.881590581108771"><ele>933.5</ele><time>2026-04-11T09:22:51Z</time></trkpt><trkpt lat="38.21365444518605" lon="15.881648121214718"><ele>934.0</ele><time>2026-04-11T09:22:52Z</time></trkpt><trkpt lat="38.21353198109816" lon="15.88170172686581"><ele>934.5</ele><time>2026-04-11T09:22:53Z</time></trkpt><trkpt lat="38.21341158681904" lon="15.881690013194552"><ele>935.0</ele><time>2026-04-11T09:22:54Z</time></trkpt><trkpt lat="38.21330097391234" lon="15.881673615580763"><ele>935.0000000000001</ele><time>2026-04-11T09:22:55Z</time></trkpt><trkpt lat="38.21321624204744" lon="15.881615458089529"><ele>935.0</ele><time>2026-04-11T09:22:56Z</time></trkpt><trkpt lat="38.21312485026628" lon="15.881565926352314"><ele>935.0</ele><time>2026-04-11T09:22:57Z</time></trkpt><trkpt lat="38.21306028655119" lon="15.881524530476645"><ele>935.0</ele><time>2026-04-11T09:22:58Z</time></trkpt><trkpt lat="38.212979371271445" lon="15.881515659960149"><ele>935.0000000000001</ele><time>2026-04-11T09:22:59Z</time></trkpt><trkpt lat="38.212906577738785" lon="15.881537137949692"><ele>935.0</ele><time>2026-04-11T09:23:00Z</time></trkpt><trkpt lat="38.21283137353541" lon="15.88157436186217"><ele>935.6</ele><time>2026-04-11T09:23:01Z</time></trkpt><trkpt lat="38.212748072648466" lon="15.881621602007929"><ele>936.2</ele><time>2026-04-11T09:23:03Z</time></trkpt><trkpt lat="38.212628990058" lon="15.881690379228855"><ele>936.8</ele><time>2026-04-11T09:23:05Z</time></trkpt><trkpt lat="38.21255053106488" lon="15.881737568431733"><ele>937.4</ele><time>2026-04-11T09:23:06Z</time></trkpt><trkpt lat="38.212498038878266" lon="15.881799244493674"><ele>938.0</ele><time>2026-04-11T09:23:07Z</time></trkpt><trkpt lat="38.21244290851921" lon="15.88187443746477"><ele>938.0</ele><time>2026-04-11T09:23:08Z</time></trkpt><trkpt lat="38.21241578221055" lon="15.881971250895567"><ele>938.0</ele><time>2026-04-11T09:23:09Z</time></trkpt><trkpt lat="38.212411804012994" lon="15.882098285545885"><ele>938.0</ele><time>2026-04-11T09:23:10Z</time></trkpt><trkpt lat="38.21243467827904" lon="15.882250830201794"><ele>938.0</ele><time>2026-04-11T09:23:11Z</time></trkpt><trkpt lat="38.21246865849264" lon="15.882408601816495"><ele>938.0</ele><time>2026-04-11T09:23:12Z</time></trkpt><trkpt lat="38.21251863065304" lon="15.882586075356361"><ele>942.5</ele><time>2026-04-11T09:23:13Z</time></trkpt><trkpt lat="38.21256754010633" lon="15.88275975936704"><ele>947.0</ele><time>2026-04-11T09:23:14Z</time></trkpt><trkpt lat="38.212615456381556" lon="15.882929868625679"><ele>951.5</ele><time>2026-04-11T09:23:15Z</time></trkpt><trkpt lat="38.21266051830835" lon="15.883089844556253"><ele>956.0</ele><time>2026-04-11T09:23:16Z</time></trkpt><trkpt lat="38.212712184046694" lon="15.883251583659822"><ele>956.0</ele><time>2026-04-11T09:23:17Z</time></trkpt><trkpt lat="38.21278155289235" lon="15.883414179536615"><ele>956.0</ele><time>2026-04-11T09:23:18Z</time></trkpt><trkpt lat="38.21289491047841" lon="15.883547261122509"><ele>956.0</ele><time>2026-04-11T09:23:19Z</time></trkpt><trkpt lat="38.21300121259893" lon="15.88370254896487"><ele>956.5999999999999</ele><time>2026-04-11T09:23:20Z</time></trkpt><trkpt lat="38.213090535067124" lon="15.883840636399611"><ele>957.1999999999999</ele><time>2026-04-11T09:23:21Z</time></trkpt><trkpt lat="38.21316916492264" lon="15.883949305476857"><ele>957.8000000000001</ele><time>2026-04-11T09:23:22Z</time></trkpt><trkpt lat="38.2132485152592" lon="15.8840234660879"><ele>958.4000000000001</ele><time>2026-04-11T09:23:23Z</time></trkpt><trkpt lat="38.21333803728815" lon="15.884048907965902"><ele>959.0</ele><time>2026-04-11T09:23:24Z</time></trkpt><trkpt lat="38.21343100724853" lon="15.884034144127138"><ele>959.0</ele><time>2026-04-11T09:23:25Z</time></trkpt><trkpt lat="38.21352281723393" lon="15.883965903548194"><ele>959.0</ele><time>2026-04-11T09:23:26Z</time></trkpt><trkpt lat="38.21363846899344" lon="15.883855797166783"><ele>959.0</ele><time>2026-04-11T09:23:27Z</time></trkpt><trkpt lat="38.2137454280461" lon="15.883747165984808"><ele>959.0</ele><time>2026-04-11T09:23:28Z</time></trkpt><trkpt lat="38.21385933396147" lon="15.88365409166454"><ele>959.0</ele><time>2026-04-11T09:23:29Z</time></trkpt><trkpt lat="38.21395862073517" lon="15.883602120160823"><ele>959.0</ele><time>2026-04-11T09:23:30Z</time></trkpt><trkpt lat="38.214054290300574" lon="15.883546485605196"><ele>959.0</ele><time>2026-04-11T09:23:31Z</time></trkpt><trkpt lat="38.21417202478203" lon="15.883569567254384"><ele>959.0</ele><time>2026-04-11T09:23:32Z</time></trkpt><trkpt lat="38.21429897289167" lon="15.883576309580771"><ele>962.25</ele><time>2026-04-11T09:23:33Z</time></trkpt><trkpt lat="38.214446639884564" lon="15.883609067668564"><ele>965.5</ele><time>2026-04-11T09:23:34Z</time></trkpt><trkpt lat="38.21456256904995" lon="15.883648813292082"><ele>968.75</ele><time>2026-04-11T09:23:35Z</time></trkpt><trkpt lat="38.21470410651233" lon="15.883711579430964"><ele>972.0</ele><time>2026-04-11T09:23:36Z</time></trkpt><trkpt lat="38.21485280403534" lon="15.883786818771608"><ele>973.3333333333333</ele><time>2026-04-11T09:23:37Z</time></trkpt><trkpt lat="38.215006673185435" lon="15.883865431426278"><ele>974.6666666666666</ele><time>2026-04-11T09:23:38Z</time></trkpt><trkpt lat="38.21514817948494" lon="15.883942684464635"><ele>976.0</ele><time>2026-04-11T09:23:39Z</time></trkpt><trkpt lat="38.21527500715798" lon="15.883998645905535"><ele>976.0</ele><time>2026-04-11T09:23:40Z</time></trkpt><trkpt lat="38.215397728262204" lon="15.884051541381929"><ele>976.0</ele><time>2026-04-11T09:23:41Z</time></trkpt><trkpt lat="38.2155110883182" lon="15.884110580654161"><ele>976.0</ele><time>2026-04-11T09:23:42Z</time></trkpt><trkpt lat="38.21562415030661" lon="15.884124442542497"><ele>976.0</ele><time>2026-04-11T09:23:43Z</time></trkpt><trkpt lat="38.21577178856301" lon="15.884120845769305"><ele>974.0</ele><time>2026-04-11T09:23:44Z</time></trkpt><trkpt lat="38.21591138065726" lon="15.884110351524422"><ele>972.0</ele><time>2026-04-11T09:23:45Z</time></trkpt><trkpt lat="38.21605350710725" lon="15.884090752747776"><ele>970.0</ele><time>2026-04-11T09:23:46Z</time></trkpt><trkpt lat="38.21617190364644" lon="15.884074266737654"><ele>968.0</ele><time>2026-04-11T09:23:47Z</time></trkpt><trkpt lat="38.21626580290421" lon="15.88407565915133"><ele>968.0000000000001</ele><time>2026-04-11T09:23:48Z</time></trkpt><trkpt lat="38.21633759175096" lon="15.884109649762271"><ele>968.0</ele><time>2026-04-11T09:23:49Z</time></trkpt><trkpt lat="38.21639406857058" lon="15.884174733822523"><ele>968.0</ele><time>2026-04-11T09:23:50.001Z</time></trkpt><trkpt lat="38.21639270933152" lon="15.88428201656239"><ele>968.0</ele><time>2026-04-11T09:23:51.001Z</time></trkpt><trkpt lat="38.216388004375986" lon="15.884392936326055"><ele>968.0000000000001</ele><time>2026-04-11T09:23:52.001Z</time></trkpt><trkpt lat="38.216371512906164" lon="15.884533184621024"><ele>968.0</ele><time>2026-04-11T09:23:53.001Z</time></trkpt><trkpt lat="38.216374229886675" lon="15.8847109983612"><ele>974.5</ele><time>2026-04-11T09:23:54.001Z</time></trkpt><trkpt lat="38.216384394513696" lon="15.884886377877761"><ele>981.0</ele><time>2026-04-11T09:23:55.001Z</time></trkpt><trkpt lat="38.21640222258375" lon="15.885060849745653"><ele>987.5</ele><time>2026-04-11T09:23:56.001Z</time></trkpt><trkpt lat="38.21643941191603" lon="15.885224835980898"><ele>994.0</ele><time>2026-04-11T09:23:57.001Z</time></trkpt><trkpt lat="38.21651193803598" lon="15.885383112317122"><ele>994.0</ele><time>2026-04-11T09:23:58.001Z</time></trkpt><trkpt lat="38.21661016595437" lon="15.885543669244749"><ele>994.0</ele><time>2026-04-11T09:23:59.001Z</time></trkpt><trkpt lat="38.216701267588384" lon="15.885693705776298"><ele>994.0</ele><time>2026-04-11T09:24:00.001Z</time></trkpt><trkpt lat="38.21678329473929" lon="15.885818451128745"><ele>994.0</ele><time>2026-04-11T09:24:01.001Z</time></trkpt><trkpt lat="38.21689110965118" lon="15.885908476242152"><ele>993.3333333333333</ele><time>2026-04-11T09:24:02.001Z</time></trkpt><trkpt lat="38.21703686974345" lon="15.885967957587438"><ele>992.6666666666667</ele><time>2026-04-11T09:24:03.001Z</time></trkpt><trkpt lat="38.21718964494847" lon="15.886003260990606"><ele>992.0</ele><time>2026-04-11T09:24:04.001Z</time></trkpt><trkpt lat="38.21733862413197" lon="15.886043937855087"><ele>992.0</ele><time>2026-04-11T09:24:05.001Z</time></trkpt><trkpt lat="38.21745454122014" lon="15.886075515855687"><ele>992.0</ele><time>2026-04-11T09:24:06.001Z</time></trkpt><trkpt lat="38.217534533694" lon="15.886120008985172"><ele>992.0</ele><time>2026-04-11T09:24:07.001Z</time></trkpt><trkpt lat="38.217576951584384" lon="15.886268063667309"><ele>992.0</ele><time>2026-04-11T09:24:08.001Z</time></trkpt><trkpt lat="38.21759856621749" lon="15.886429829053045"><ele>992.0</ele><time>2026-04-11T09:24:09.001Z</time></trkpt><trkpt lat="38.21764224401757" lon="15.886594102621112"><ele>992.0</ele><time>2026-04-11T09:24:10.001Z</time></trkpt><trkpt lat="38.21772268715734" lon="15.886755123375224"><ele>992.0</ele><time>2026-04-11T09:24:11.001Z</time></trkpt><trkpt lat="38.21781496034882" lon="15.886879113268204"><ele>992.0</ele><time>2026-04-11T09:24:12.001Z</time></trkpt><trkpt lat="38.217930179575085" lon="15.886996500811017"><ele>991.0</ele><time>2026-04-11T09:24:13Z</time></trkpt><trkpt lat="38.21808196112265" lon="15.88710812851291"><ele>990.0</ele><time>2026-04-11T09:24:14Z</time></trkpt><trkpt lat="38.21824524997198" lon="15.887220464793826"><ele>989.0</ele><time>2026-04-11T09:24:15Z</time></trkpt><trkpt lat="38.21840200332052" lon="15.887315250853396"><ele>989.0</ele><time>2026-04-11T09:24:16Z</time></trkpt><trkpt lat="38.21855024581803" lon="15.887409221107433"><ele>989.0</ele><time>2026-04-11T09:24:17Z</time></trkpt><trkpt lat="38.218672499903114" lon="15.887515782584394"><ele>989.0</ele><time>2026-04-11T09:24:18Z</time></trkpt><trkpt lat="38.21877141844942" lon="15.887623196125926"><ele>989.0</ele><time>2026-04-11T09:24:19Z</time></trkpt><trkpt lat="38.21885194574493" lon="15.8876922786797"><ele>989.1666666666667</ele><time>2026-04-11T09:24:20Z</time></trkpt><trkpt lat="38.21892317242382" lon="15.887751921269954"><ele>989.3333333333334</ele><time>2026-04-11T09:24:21Z</time></trkpt><trkpt lat="38.21901313960478" lon="15.887795327584595"><ele>989.5</ele><time>2026-04-11T09:24:23Z</time></trkpt><trkpt lat="38.21908216743425" lon="15.887826637340007"><ele>989.6666666666667</ele><time>2026-04-11T09:24:25Z</time></trkpt><trkpt lat="38.21904739762081" lon="15.8878957590982"><ele>989.8333333333334</ele><time>2026-04-11T09:24:36Z</time></trkpt><trkpt lat="38.21897287234738" lon="15.887930935512209"><ele>990.0</ele><time>2026-04-11T09:25:23Z</time></trkpt><trkpt lat="38.218889796385575" lon="15.887921736323964"><ele>990.0</ele><time>2026-04-11T09:25:24Z</time></trkpt><trkpt lat="38.218810935093536" lon="15.887913222147256"><ele>990.0</ele><time>2026-04-11T09:25:25Z</time></trkpt><trkpt lat="38.2187413278357" lon="15.887876448049855"><ele>990.0</ele><time>2026-04-11T09:25:26Z</time></trkpt><trkpt lat="38.21866286124947" lon="15.887831996351535"><ele>990.0</ele><time>2026-04-11T09:25:27Z</time></trkpt><trkpt lat="38.218570479578915" lon="15.887781630601113"><ele>990.0</ele><time>2026-04-11T09:25:28Z</time></trkpt><trkpt lat="38.2184783640519" lon="15.887776333623261"><ele>990.0</ele><time>2026-04-11T09:25:29Z</time></trkpt><trkpt lat="38.218391114669764" lon="15.887774503847655"><ele>990.0</ele><time>2026-04-11T09:25:30.001Z</time></trkpt><trkpt lat="38.218307830591236" lon="15.887764836427236"><ele>990.0</ele><time>2026-04-11T09:25:31.001Z</time></trkpt><trkpt lat="38.21823310535421" lon="15.88775322982988"><ele>990.0</ele><time>2026-04-11T09:25:32.001Z</time></trkpt><trkpt lat="38.218164672681134" lon="15.887735127229673"><ele>990.0</ele><time>2026-04-11T09:25:33.001Z</time></trkpt><trkpt lat="38.21808509519519" lon="15.887712946853256"><ele>990.0</ele><time>2026-04-11T09:25:34.001Z</time></trkpt><trkpt lat="38.217995678718204" lon="15.8876844653031"><ele>990.0</ele><time>2026-04-11T09:25:35.001Z</time></trkpt><trkpt lat="38.21790947922362" lon="15.887655923609143"><ele>991.3333333333334</ele><time>2026-04-11T09:25:36.001Z</time></trkpt><trkpt lat="38.21783112009708" lon="15.88760837115204"><ele>992.6666666666667</ele><time>2026-04-11T09:25:37.001Z</time></trkpt><trkpt lat="38.21775454883773" lon="15.887582176260223"><ele>994.0</ele><time>2026-04-11T09:25:38.001Z</time></trkpt><trkpt lat="38.21767302449063" lon="15.88755653660596"><ele>995.3333333333334</ele><time>2026-04-11T09:25:39.001Z</time></trkpt><trkpt lat="38.21759062598989" lon="15.887532127964045"><ele>996.6666666666667</ele><time>2026-04-11T09:25:40.001Z</time></trkpt><trkpt lat="38.217513158228584" lon="15.887464096236487"><ele>998.0</ele><time>2026-04-11T09:25:41.001Z</time></trkpt><trkpt lat="38.2174221575994" lon="15.8873825725078"><ele>1001.25</ele><time>2026-04-11T09:25:42.001Z</time></trkpt><trkpt lat="38.21731158798476" lon="15.887292718040737"><ele>1004.5</ele><time>2026-04-11T09:25:43.001Z</time></trkpt><trkpt lat="38.21719658505108" lon="15.88720367760167"><ele>1007.75</ele><time>2026-04-11T09:25:44.001Z</time></trkpt><trkpt lat="38.217087042616654" lon="15.88712339517126"><ele>1011.0</ele><time>2026-04-11T09:25:45.001Z</time></trkpt><trkpt lat="38.21698087947107" lon="15.887021374270999"><ele>1011.0</ele><time>2026-04-11T09:25:46.001Z</time></trkpt><trkpt lat="38.21687456763868" lon="15.88692812929081"><ele>1011.0</ele><time>2026-04-11T09:25:47.001Z</time></trkpt><trkpt lat="38.21675277457519" lon="15.886843736819971"><ele>1011.0</ele><time>2026-04-11T09:25:48.001Z</time></trkpt><trkpt lat="38.21664169245302" lon="15.886764579381687"><ele>1011.0</ele><time>2026-04-11T09:25:49.001Z</time></trkpt><trkpt lat="38.21654280767621" lon="15.886687153067694"><ele>1012.5</ele><time>2026-04-11T09:25:50.001Z</time></trkpt><trkpt lat="38.216434749460305" lon="15.8866118540691"><ele>1014.0</ele><time>2026-04-11T09:25:51.001Z</time></trkpt><trkpt lat="38.21632232127645" lon="15.886523190259371"><ele>1015.5</ele><time>2026-04-11T09:25:52.001Z</time></trkpt><trkpt lat="38.216200783248674" lon="15.886431131692216"><ele>1017.0</ele><time>2026-04-11T09:25:53.001Z</time></trkpt><trkpt lat="38.21608079487912" lon="15.886338251339115"><ele>1017.0</ele><time>2026-04-11T09:25:54.001Z</time></trkpt><trkpt lat="38.215959921923734" lon="15.886244506939857"><ele>1017.0</ele><time>2026-04-11T09:25:55.001Z</time></trkpt><trkpt lat="38.21583462450176" lon="15.886139821600159"><ele>1017.0</ele><time>2026-04-11T09:25:56.001Z</time></trkpt><trkpt lat="38.21570955167272" lon="15.886035406575981"><ele>1017.0</ele><time>2026-04-11T09:25:57.001Z</time></trkpt><trkpt lat="38.21557014446465" lon="15.885910954829791"><ele>1019.3333333333333</ele><time>2026-04-11T09:25:58.001Z</time></trkpt><trkpt lat="38.21541970901899" lon="15.8857786199562"><ele>1021.6666666666666</ele><time>2026-04-11T09:25:59.001Z</time></trkpt><trkpt lat="38.21529056747654" lon="15.885667138908415"><ele>1024.0</ele><time>2026-04-11T09:26:00.001Z</time></trkpt><trkpt lat="38.215186117044176" lon="15.885579023201387"><ele>1024.0</ele><time>2026-04-11T09:26:01.001Z</time></trkpt><trkpt lat="38.215094008238395" lon="15.885507393420117"><ele>1024.0</ele><time>2026-04-11T09:26:02.001Z</time></trkpt><trkpt lat="38.214998464936315" lon="15.885467835435563"><ele>1024.0</ele><time>2026-04-11T09:26:03.001Z</time></trkpt><trkpt lat="38.21489706301969" lon="15.885459332887908"><ele>1024.0</ele><time>2026-04-11T09:26:04.001Z</time></trkpt><trkpt lat="38.214796664686865" lon="15.885483419600675"><ele>1024.0</ele><time>2026-04-11T09:26:05.001Z</time></trkpt><trkpt lat="38.21468015372834" lon="15.885540914201506"><ele>1023.5</ele><time>2026-04-11T09:26:06.001Z</time></trkpt><trkpt lat="38.21455267645065" lon="15.885596396524276"><ele>1023.0</ele><time>2026-04-11T09:26:07.001Z</time></trkpt><trkpt lat="38.214413244811276" lon="15.88565314666711"><ele>1022.5</ele><time>2026-04-11T09:26:08.001Z</time></trkpt><trkpt lat="38.21426599935845" lon="15.885709620917382"><ele>1022.0</ele><time>2026-04-11T09:26:09.001Z</time></trkpt><trkpt lat="38.214115253921314" lon="15.88576189867155"><ele>1023.6666666666667</ele><time>2026-04-11T09:26:10.001Z</time></trkpt><trkpt lat="38.213955503523174" lon="15.885814374889659"><ele>1025.3333333333333</ele><time>2026-04-11T09:26:11.001Z</time></trkpt><trkpt lat="38.21381527984751" lon="15.885872937687749"><ele>1027.0</ele><time>2026-04-11T09:26:12.001Z</time></trkpt><trkpt lat="38.21366601194021" lon="15.885925720181604"><ele>1028.75</ele><time>2026-04-11T09:26:13.001Z</time></trkpt><trkpt lat="38.21352490632627" lon="15.885976763923118"><ele>1030.5</ele><time>2026-04-11T09:26:14.001Z</time></trkpt><trkpt lat="38.21339823518026" lon="15.886022857489465"><ele>1032.25</ele><time>2026-04-11T09:26:15.001Z</time></trkpt><trkpt lat="38.21328534689388" lon="15.886058599253335"><ele>1034.0</ele><time>2026-04-11T09:26:16.001Z</time></trkpt><trkpt lat="38.21320317581137" lon="15.886078908458597"><ele>1036.6000000000001</ele><time>2026-04-11T09:26:17.001Z</time></trkpt><trkpt lat="38.2131300487847" lon="15.886082822331034"><ele>1039.2</ele><time>2026-04-11T09:26:18.001Z</time></trkpt><trkpt lat="38.21303658675258" lon="15.886053403359027"><ele>1041.8000000000002</ele><time>2026-04-11T09:26:19Z</time></trkpt><trkpt lat="38.21294441902117" lon="15.885993135222341"><ele>1044.4</ele><time>2026-04-11T09:26:20Z</time></trkpt><trkpt lat="38.212832156532706" lon="15.885963276826862"><ele>1047.0</ele><time>2026-04-11T09:26:21Z</time></trkpt><trkpt lat="38.21273996885272" lon="15.885956507053661"><ele>1047.0</ele><time>2026-04-11T09:26:22Z</time></trkpt><trkpt lat="38.212660223784006" lon="15.885963447638156"><ele>1047.0</ele><time>2026-04-11T09:26:23Z</time></trkpt><trkpt lat="38.212586665779945" lon="15.88601946670304"><ele>1047.0</ele><time>2026-04-11T09:26:24Z</time></trkpt><trkpt lat="38.2125794958895" lon="15.886107234435325"><ele>1047.0</ele><time>2026-04-11T09:26:25Z</time></trkpt><trkpt lat="38.21256038592465" lon="15.886209844501856"><ele>1047.0</ele><time>2026-04-11T09:26:26Z</time></trkpt><trkpt lat="38.21254050439333" lon="15.886339428721618"><ele>1047.0</ele><time>2026-04-11T09:26:27Z</time></trkpt><trkpt lat="38.212532709187215" lon="15.886462104383769"><ele>1047.0</ele><time>2026-04-11T09:26:28Z</time></trkpt><trkpt lat="38.21248522750036" lon="15.886597986003787"><ele>1047.0</ele><time>2026-04-11T09:26:29Z</time></trkpt><trkpt lat="38.212471393417516" lon="15.886681978749625"><ele>1047.0</ele><time>2026-04-11T09:26:30Z</time></trkpt><trkpt lat="38.21237425542651" lon="15.886770799890558"><ele>1047.0</ele><time>2026-04-11T09:26:31Z</time></trkpt><trkpt lat="38.212275815131235" lon="15.886864013635561"><ele>1047.0</ele><time>2026-04-11T09:26:32Z</time></trkpt><trkpt lat="38.21218809554316" lon="15.886992615017334"><ele>1047.1666666666667</ele><time>2026-04-11T09:26:33Z</time></trkpt><trkpt lat="38.21212260559017" lon="15.887093958348176"><ele>1047.3333333333333</ele><time>2026-04-11T09:26:34Z</time></trkpt><trkpt lat="38.21206534582586" lon="15.887148521404708"><ele>1047.5</ele><time>2026-04-11T09:26:35Z</time></trkpt><trkpt lat="38.21200175257013" lon="15.887158445743284"><ele>1047.6666666666665</ele><time>2026-04-11T09:26:36Z</time></trkpt><trkpt lat="38.21195356905589" lon="15.887081341055097"><ele>1047.8333333333333</ele><time>2026-04-11T09:26:37Z</time></trkpt><trkpt lat="38.21195146587803" lon="15.886969979213124"><ele>1048.0</ele><time>2026-04-11T09:26:38Z</time></trkpt><trkpt lat="38.21196186950648" lon="15.88688152233822"><ele>1048.0</ele><time>2026-04-11T09:26:39Z</time></trkpt><trkpt lat="38.21199208348711" lon="15.886773380011132"><ele>1048.0</ele><time>2026-04-11T09:26:40Z</time></trkpt><trkpt lat="38.21204107167186" lon="15.886634763274095"><ele>1048.0</ele><time>2026-04-11T09:26:41Z</time></trkpt><trkpt lat="38.21206284196193" lon="15.886506773123655"><ele>1048.0</ele><time>2026-04-11T09:26:42Z</time></trkpt><trkpt lat="38.21207120176382" lon="15.886395063335014"><ele>1048.0</ele><time>2026-04-11T09:26:43Z</time></trkpt><trkpt lat="38.21208292130978" lon="15.886288527699811"><ele>1051.5</ele><time>2026-04-11T09:26:44Z</time></trkpt><trkpt lat="38.21205227109015" lon="15.886151226233428"><ele>1055.0</ele><time>2026-04-11T09:26:45Z</time></trkpt><trkpt lat="38.211993989945384" lon="15.886000854341399"><ele>1058.5</ele><time>2026-04-11T09:26:46Z</time></trkpt><trkpt lat="38.21189990639063" lon="15.885831014166609"><ele>1062.0</ele><time>2026-04-11T09:26:47Z</time></trkpt><trkpt lat="38.21184150470719" lon="15.885704029144192"><ele>1062.0</ele><time>2026-04-11T09:26:48Z</time></trkpt><trkpt lat="38.21178589692982" lon="15.885616660587207"><ele>1062.0</ele><time>2026-04-11T09:26:49Z</time></trkpt><trkpt lat="38.21170895197252" lon="15.885618958597908"><ele>1062.0</ele><time>2026-04-11T09:26:50Z</time></trkpt><trkpt lat="38.21165131010751" lon="15.885703353582679"><ele>1062.0</ele><time>2026-04-11T09:26:51Z</time></trkpt><trkpt lat="38.21162095407502" lon="15.885785692748051"><ele>1062.0</ele><time>2026-04-11T09:26:52Z</time></trkpt><trkpt lat="38.21163040699207" lon="15.885894910708087"><ele>1062.0</ele><time>2026-04-11T09:26:53Z</time></trkpt><trkpt lat="38.21162490620171" lon="15.885984625434793"><ele>1062.75</ele><time>2026-04-11T09:26:54Z</time></trkpt><trkpt lat="38.2115977756697" lon="15.886116471017116"><ele>1063.5</ele><time>2026-04-11T09:26:55Z</time></trkpt><trkpt lat="38.211598352759964" lon="15.886292940035428"><ele>1064.25</ele><time>2026-04-11T09:26:56Z</time></trkpt><trkpt lat="38.21157237542794" lon="15.886438727708246"><ele>1065.0</ele><time>2026-04-11T09:26:57Z</time></trkpt><trkpt lat="38.21152342084332" lon="15.886549535310625"><ele>1067.6</ele><time>2026-04-11T09:26:58Z</time></trkpt><trkpt lat="38.21147567967322" lon="15.88665717390771"><ele>1070.2</ele><time>2026-04-11T09:26:59Z</time></trkpt><trkpt lat="38.21143511919213" lon="15.886745722598766"><ele>1072.8</ele><time>2026-04-11T09:27:00Z</time></trkpt><trkpt lat="38.211358850538915" lon="15.886747937710815"><ele>1075.4</ele><time>2026-04-11T09:27:02Z</time></trkpt><trkpt lat="38.21139329637428" lon="15.886572237465296"><ele>1078.0</ele><time>2026-04-11T09:27:05Z</time></trkpt><trkpt lat="38.211409927355184" lon="15.88639930689532"><ele>1078.0</ele><time>2026-04-11T09:27:06Z</time></trkpt><trkpt lat="38.2113869641413" lon="15.886234268763697"><ele>1078.0</ele><time>2026-04-11T09:27:07Z</time></trkpt><trkpt lat="38.21135743344648" lon="15.88606528849131"><ele>1078.0</ele><time>2026-04-11T09:27:08Z</time></trkpt><trkpt lat="38.21131019705522" lon="15.885890732238416"><ele>1078.0</ele><time>2026-04-11T09:27:09Z</time></trkpt><trkpt lat="38.21127666853555" lon="15.885815052169502"><ele>1078.0</ele><time>2026-04-11T09:27:10Z</time></trkpt><trkpt lat="38.21121866318697" lon="15.88575429273744"><ele>1078.0</ele><time>2026-04-11T09:27:11Z</time></trkpt><trkpt lat="38.211091863413884" lon="15.885814397874034"><ele>1078.0</ele><time>2026-04-11T09:27:12Z</time></trkpt><trkpt lat="38.2110142510218" lon="15.885960929247215"><ele>1078.0</ele><time>2026-04-11T09:27:13Z</time></trkpt><trkpt lat="38.21091336824256" lon="15.886067518194777"><ele>1078.0</ele><time>2026-04-11T09:27:14Z</time></trkpt><trkpt lat="38.21080461187256" lon="15.886175408467553"><ele>1078.0</ele><time>2026-04-11T09:27:15Z</time></trkpt><trkpt lat="38.21067394946054" lon="15.886272333238422"><ele>1078.0</ele><time>2026-04-11T09:27:16Z</time></trkpt><trkpt lat="38.21057050244609" lon="15.886357716899385"><ele>1078.0</ele><time>2026-04-11T09:27:17Z</time></trkpt><trkpt lat="38.21051299997158" lon="15.886420365019964"><ele>1081.25</ele><time>2026-04-11T09:27:18Z</time></trkpt><trkpt lat="38.21046551658079" lon="15.886492592426945"><ele>1084.5</ele><time>2026-04-11T09:27:19Z</time></trkpt><trkpt lat="38.21041849094242" lon="15.886633556572146"><ele>1087.75</ele><time>2026-04-11T09:27:21Z</time></trkpt><trkpt lat="38.21044923624687" lon="15.886771802562482"><ele>1091.0</ele><time>2026-04-11T09:27:22Z</time></trkpt><trkpt lat="38.21047089671118" lon="15.886996859503034"><ele>1093.8</ele><time>2026-04-11T09:27:23Z</time></trkpt><trkpt lat="38.21048220126227" lon="15.887132633104294"><ele>1096.6</ele><time>2026-04-11T09:27:24Z</time></trkpt><trkpt lat="38.210476117941404" lon="15.887259420879873"><ele>1099.4</ele><time>2026-04-11T09:27:25Z</time></trkpt><trkpt lat="38.21045542300701" lon="15.887353767328198"><ele>1102.2</ele><time>2026-04-11T09:27:26Z</time></trkpt><trkpt lat="38.21043698306057" lon="15.88747724132331"><ele>1105.0</ele><time>2026-04-11T09:27:27Z</time></trkpt><trkpt lat="38.210415773770606" lon="15.887569974185467"><ele>1105.0</ele><time>2026-04-11T09:27:28Z</time></trkpt><trkpt lat="38.21034102520199" lon="15.88766432597574"><ele>1105.0</ele><time>2026-04-11T09:27:30Z</time></trkpt><trkpt lat="38.21025665854982" lon="15.887606565921606"><ele>1105.0</ele><time>2026-04-11T09:27:32Z</time></trkpt><trkpt lat="38.21029493881845" lon="15.887472545009718"><ele>1105.0</ele><time>2026-04-11T09:27:35Z</time></trkpt><trkpt lat="38.210366806468414" lon="15.887368730466584"><ele>1105.0</ele><time>2026-04-11T09:27:36Z</time></trkpt><trkpt lat="38.210382374296714" lon="15.887272605953298"><ele>1105.0</ele><time>2026-04-11T09:27:37Z</time></trkpt><trkpt lat="38.210376490475234" lon="15.887153677027346"><ele>1105.0</ele><time>2026-04-11T09:27:38Z</time></trkpt><trkpt lat="38.21030874888907" lon="15.886998028171995"><ele>1105.0</ele><time>2026-04-11T09:27:39Z</time></trkpt><trkpt lat="38.21023834823531" lon="15.886865923293728"><ele>1105.0</ele><time>2026-04-11T09:27:40Z</time></trkpt><trkpt lat="38.21019206761667" lon="15.886775220560521"><ele>1105.0</ele><time>2026-04-11T09:27:41Z</time></trkpt><trkpt lat="38.210143145469935" lon="15.88672161997886"><ele>1105.0</ele><time>2026-04-11T09:27:42Z</time></trkpt><trkpt lat="38.21005407174828" lon="15.886693042359996"><ele>1105.0</ele><time>2026-04-11T09:27:43Z</time></trkpt><trkpt lat="38.20997292472848" lon="15.886714646207011"><ele>1105.0</ele><time>2026-04-11T09:27:44Z</time></trkpt><trkpt lat="38.20987552569454" lon="15.886823847458208"><ele>1105.0</ele><time>2026-04-11T09:27:45Z</time></trkpt><trkpt lat="38.209774793636804" lon="15.886920842307775"><ele>1105.0</ele><time>2026-04-11T09:27:46Z</time></trkpt><trkpt lat="38.20963051205363" lon="15.887018047605952"><ele>1106.4</ele><time>2026-04-11T09:27:47Z</time></trkpt><trkpt lat="38.20951758946202" lon="15.887113778127064"><ele>1107.8</ele><time>2026-04-11T09:27:48Z</time></trkpt><trkpt lat="38.209450041048065" lon="15.88717608512249"><ele>1109.2</ele><time>2026-04-11T09:27:49Z</time></trkpt><trkpt lat="38.209413461358096" lon="15.88733825343353"><ele>1110.6</ele><time>2026-04-11T09:27:51Z</time></trkpt><trkpt lat="38.20947074076809" lon="15.887395439496176"><ele>1112.0</ele><time>2026-04-11T09:27:52Z</time></trkpt><trkpt lat="38.209609458901696" lon="15.887346657423578"><ele>1112.0</ele><time>2026-04-11T09:27:54Z</time></trkpt><trkpt lat="38.20966281743143" lon="15.887277171161726"><ele>1112.0</ele><time>2026-04-11T09:27:55Z</time></trkpt><trkpt lat="38.209755375781825" lon="15.887189482548402"><ele>1112.0</ele><time>2026-04-11T09:27:56Z</time></trkpt><trkpt lat="38.20986127654319" lon="15.887097589486132"><ele>1112.0</ele><time>2026-04-11T09:27:57Z</time></trkpt><trkpt lat="38.20993359180261" lon="15.887042272043375"><ele>1112.0</ele><time>2026-04-11T09:27:58.001Z</time></trkpt><trkpt lat="38.210028977293106" lon="15.887023258503238"><ele>1112.0</ele><time>2026-04-11T09:27:59.001Z</time></trkpt><trkpt lat="38.210027587298" lon="15.887127649577652"><ele>1112.0</ele><time>2026-04-11T09:28:00.001Z</time></trkpt><trkpt lat="38.21004566545263" lon="15.88720650685075"><ele>1112.0</ele><time>2026-04-11T09:28:01.001Z</time></trkpt><trkpt lat="38.21000165056218" lon="15.887302293212109"><ele>1112.0</ele><time>2026-04-11T09:28:02.001Z</time></trkpt><trkpt lat="38.20993245596192" lon="15.887344773089575"><ele>1112.0</ele><time>2026-04-11T09:28:03.001Z</time></trkpt><trkpt lat="38.20987831293869" lon="15.887385731414795"><ele>1112.0</ele><time>2026-04-11T09:28:04.001Z</time></trkpt><trkpt lat="38.20978779750054" lon="15.887495916397066"><ele>1117.2</ele><time>2026-04-11T09:28:05.001Z</time></trkpt><trkpt lat="38.2096838166772" lon="15.887622940504855"><ele>1122.4</ele><time>2026-04-11T09:28:06.001Z</time></trkpt><trkpt lat="38.20960937556178" lon="15.88770151201844"><ele>1127.6</ele><time>2026-04-11T09:28:07.001Z</time></trkpt><trkpt lat="38.20953593481491" lon="15.88776838809692"><ele>1132.8</ele><time>2026-04-11T09:28:08.001Z</time></trkpt><trkpt lat="38.20944358665975" lon="15.887849110411096"><ele>1138.0</ele><time>2026-04-11T09:28:09.001Z</time></trkpt><trkpt lat="38.2093665231749" lon="15.88790702522428"><ele>1138.0</ele><time>2026-04-11T09:28:10.001Z</time></trkpt><trkpt lat="38.20929878542669" lon="15.887938575207981"><ele>1138.0</ele><time>2026-04-11T09:28:11.001Z</time></trkpt><trkpt lat="38.20924026684691" lon="15.88797203988742"><ele>1138.0</ele><time>2026-04-11T09:28:12.001Z</time></trkpt><trkpt lat="38.20917652605536" lon="15.888026783571327"><ele>1138.0</ele><time>2026-04-11T09:28:13.001Z</time></trkpt><trkpt lat="38.20914139771549" lon="15.888105021203446"><ele>1138.0</ele><time>2026-04-11T09:28:15.001Z</time></trkpt><trkpt lat="38.209188057183155" lon="15.888325484229924"><ele>1142.5</ele><time>2026-04-11T09:28:17.001Z</time></trkpt><trkpt lat="38.209255344560496" lon="15.88854748662936"><ele>1147.0</ele><time>2026-04-11T09:28:18.001Z</time></trkpt><trkpt lat="38.20929257599211" lon="15.888662322836213"><ele>1151.5</ele><time>2026-04-11T09:28:19.001Z</time></trkpt><trkpt lat="38.209331331647746" lon="15.888765422647083"><ele>1156.0</ele><time>2026-04-11T09:28:20.001Z</time></trkpt><trkpt lat="38.20939227899464" lon="15.888890680029526"><ele>1156.0</ele><time>2026-04-11T09:28:21.001Z</time></trkpt><trkpt lat="38.20943915057336" lon="15.888994686383525"><ele>1156.0</ele><time>2026-04-11T09:28:22.001Z</time></trkpt><trkpt lat="38.209452351512724" lon="15.88910780373568"><ele>1156.0</ele><time>2026-04-11T09:28:25Z</time></trkpt><trkpt lat="38.20937941715932" lon="15.88912925705982"><ele>1156.0</ele><time>2026-04-11T09:28:26Z</time></trkpt><trkpt lat="38.20933833045364" lon="15.88906691462128"><ele>1156.0</ele><time>2026-04-11T09:28:27Z</time></trkpt><trkpt lat="38.20932136087148" lon="15.888956134516393"><ele>1156.0</ele><time>2026-04-11T09:28:29Z</time></trkpt><trkpt lat="38.209320609030556" lon="15.888850408390336"><ele>1156.0</ele><time>2026-04-11T09:28:30Z</time></trkpt><trkpt lat="38.2092625206036" lon="15.888753486340617"><ele>1156.0</ele><time>2026-04-11T09:28:31Z</time></trkpt><trkpt lat="38.20922367381458" lon="15.888652145580435"><ele>1156.0</ele><time>2026-04-11T09:28:32Z</time></trkpt><trkpt lat="38.20914817269998" lon="15.888563615174375"><ele>1156.0</ele><time>2026-04-11T09:28:33Z</time></trkpt><trkpt lat="38.209097602334786" lon="15.888450516996754"><ele>1156.0</ele><time>2026-04-11T09:28:34Z</time></trkpt><trkpt lat="38.20903749224275" lon="15.888348036170163"><ele>1156.0</ele><time>2026-04-11T09:28:35Z</time></trkpt><trkpt lat="38.20894038554906" lon="15.888244796844685"><ele>1156.0</ele><time>2026-04-11T09:28:36Z</time></trkpt><trkpt lat="38.20888163260109" lon="15.888178779654407"><ele>1156.0</ele><time>2026-04-11T09:28:37Z</time></trkpt><trkpt lat="38.20883887433026" lon="15.888113204563512"><ele>1156.0</ele><time>2026-04-11T09:28:38Z</time></trkpt><trkpt lat="38.20873156609287" lon="15.888098687089547"><ele>1156.0</ele><time>2026-04-11T09:28:40Z</time></trkpt><trkpt lat="38.20865925734685" lon="15.888187421429754"><ele>1156.0</ele><time>2026-04-11T09:28:42Z</time></trkpt><trkpt lat="38.20864864328167" lon="15.888286164957849"><ele>1156.0</ele><time>2026-04-11T09:28:43Z</time></trkpt><trkpt lat="38.20871262355135" lon="15.888368018564414"><ele>1156.0</ele><time>2026-04-11T09:28:44Z</time></trkpt><trkpt lat="38.20877440244714" lon="15.888479725591546"><ele>1156.0</ele><time>2026-04-11T09:28:45Z</time></trkpt><trkpt lat="38.20883395761583" lon="15.888593429060949"><ele>1156.0</ele><time>2026-04-11T09:28:46Z</time></trkpt><trkpt lat="38.208880688773796" lon="15.888694843239994"><ele>1156.0</ele><time>2026-04-11T09:28:47Z</time></trkpt><trkpt lat="38.2089121364531" lon="15.888844295773147"><ele>1156.0</ele><time>2026-04-11T09:28:48Z</time></trkpt><trkpt lat="38.209018826583325" lon="15.88901299470111"><ele>1156.0</ele><time>2026-04-11T09:28:49Z</time></trkpt><trkpt lat="38.20910166867198" lon="15.889063064195772"><ele>1156.0</ele><time>2026-04-11T09:28:50Z</time></trkpt><trkpt lat="38.20909933138018" lon="15.889171254522902"><ele>1156.0</ele><time>2026-04-11T09:28:52Z</time></trkpt><trkpt lat="38.209031205051936" lon="15.889212400377197"><ele>1156.0</ele><time>2026-04-11T09:28:54Z</time></trkpt><trkpt lat="38.20894344932064" lon="15.889151658645604"><ele>1156.0</ele><time>2026-04-11T09:28:56Z</time></trkpt><trkpt lat="38.208897353129615" lon="15.889063867011444"><ele>1156.0</ele><time>2026-04-11T09:28:57Z</time></trkpt><trkpt lat="38.208891580439214" lon="15.888858788564226"><ele>1156.0</ele><time>2026-04-11T09:28:58Z</time></trkpt><trkpt lat="38.20885648856426" lon="15.888759271602757"><ele>1156.0</ele><time>2026-04-11T09:28:59Z</time></trkpt><trkpt lat="38.208787188984644" lon="15.888653335324"><ele>1156.0</ele><time>2026-04-11T09:29:00Z</time></trkpt><trkpt lat="38.208682690210445" lon="15.88861773420967"><ele>1156.0</ele><time>2026-04-11T09:29:01Z</time></trkpt><trkpt lat="38.208572027131055" lon="15.88853154767413"><ele>1156.0</ele><time>2026-04-11T09:29:02Z</time></trkpt><trkpt lat="38.20848349545046" lon="15.888466759350116"><ele>1156.0</ele><time>2026-04-11T09:29:03Z</time></trkpt><trkpt lat="38.20841039794386" lon="15.888401125762448"><ele>1156.0</ele><time>2026-04-11T09:29:04Z</time></trkpt><trkpt lat="38.208327607911905" lon="15.888360729033943"><ele>1156.0</ele><time>2026-04-11T09:29:05Z</time></trkpt><trkpt lat="38.20826525473658" lon="15.88826650645361"><ele>1156.0</ele><time>2026-04-11T09:29:06Z</time></trkpt><trkpt lat="38.2082045814133" lon="15.888234548437522"><ele>1156.0</ele><time>2026-04-11T09:29:07Z</time></trkpt><trkpt lat="38.208134914152474" lon="15.888278101683124"><ele>1156.0</ele><time>2026-04-11T09:29:09Z</time></trkpt><trkpt lat="38.208133936218374" lon="15.888399076012588"><ele>1156.0</ele><time>2026-04-11T09:29:11Z</time></trkpt><trkpt lat="38.20819125312317" lon="15.888453005332117"><ele>1162.25</ele><time>2026-04-11T09:29:12Z</time></trkpt><trkpt lat="38.20833533345686" lon="15.88850595983857"><ele>1168.5</ele><time>2026-04-11T09:29:13Z</time></trkpt><trkpt lat="38.208453063429594" lon="15.888581670342623"><ele>1174.75</ele><time>2026-04-11T09:29:14Z</time></trkpt><trkpt lat="38.20851276610082" lon="15.888658816298726"><ele>1181.0</ele><time>2026-04-11T09:29:15Z</time></trkpt><trkpt lat="38.20852450104789" lon="15.888769835229606"><ele>1181.0</ele><time>2026-04-11T09:29:16Z</time></trkpt><trkpt lat="38.20853720766482" lon="15.888874079250312"><ele>1181.0</ele><time>2026-04-11T09:29:17Z</time></trkpt><trkpt lat="38.20857583713818" lon="15.88901259838359"><ele>1181.0</ele><time>2026-04-11T09:29:18Z</time></trkpt><trkpt lat="38.20860953625065" lon="15.889148738853931"><ele>1181.0</ele><time>2026-04-11T09:29:19Z</time></trkpt><trkpt lat="38.208623589936806" lon="15.88930063233113"><ele>1181.0</ele><time>2026-04-11T09:29:20Z</time></trkpt><trkpt lat="38.20865170801748" lon="15.88945057167009"><ele>1182.8333333333335</ele><time>2026-04-11T09:29:21Z</time></trkpt><trkpt lat="38.20868788909906" lon="15.88954732482096"><ele>1184.6666666666667</ele><time>2026-04-11T09:29:22Z</time></trkpt><trkpt lat="38.20866671442361" lon="15.889657326491902"><ele>1186.5</ele><time>2026-04-11T09:29:23Z</time></trkpt><trkpt lat="38.2086977609351" lon="15.88973591085995"><ele>1188.3333333333333</ele><time>2026-04-11T09:29:24.001Z</time></trkpt><trkpt lat="38.20861736533127" lon="15.889812053515804"><ele>1190.1666666666665</ele><time>2026-04-11T09:29:26.001Z</time></trkpt><trkpt lat="38.20853004000053" lon="15.889782685567662"><ele>1192.0</ele><time>2026-04-11T09:29:28.001Z</time></trkpt><trkpt lat="38.208529070998246" lon="15.88965697453713"><ele>1192.0</ele><time>2026-04-11T09:29:30.001Z</time></trkpt><trkpt lat="38.20850823811505" lon="15.889576162942822"><ele>1192.0</ele><time>2026-04-11T09:29:31.001Z</time></trkpt><trkpt lat="38.208488154292866" lon="15.88945704677174"><ele>1192.0</ele><time>2026-04-11T09:29:32.001Z</time></trkpt><trkpt lat="38.20845046247112" lon="15.889358437182324"><ele>1192.0</ele><time>2026-04-11T09:29:33.001Z</time></trkpt><trkpt lat="38.20839836776282" lon="15.889237371687777"><ele>1192.0</ele><time>2026-04-11T09:29:34.001Z</time></trkpt><trkpt lat="38.2083056908783" lon="15.88905682954146"><ele>1191.6</ele><time>2026-04-11T09:29:35.001Z</time></trkpt><trkpt lat="38.20823021507376" lon="15.888931006937325"><ele>1191.2</ele><time>2026-04-11T09:29:36.001Z</time></trkpt><trkpt lat="38.20816052589227" lon="15.88881235182545"><ele>1190.8</ele><time>2026-04-11T09:29:37.001Z</time></trkpt><trkpt lat="38.208092966694615" lon="15.888728827782181"><ele>1190.4</ele><time>2026-04-11T09:29:38.001Z</time></trkpt><trkpt lat="38.208031065658716" lon="15.888706523710704"><ele>1190.0</ele><time>2026-04-11T09:29:39.001Z</time></trkpt><trkpt lat="38.207961740007555" lon="15.888679792844009"><ele>1190.0</ele><time>2026-04-11T09:29:40.001Z</time></trkpt><trkpt lat="38.20786823871671" lon="15.888739136668129"><ele>1190.0</ele><time>2026-04-11T09:29:42.001Z</time></trkpt><trkpt lat="38.20787531240666" lon="15.888851517060376"><ele>1190.0</ele><time>2026-04-11T09:29:44.001Z</time></trkpt><trkpt lat="38.2079289515696" lon="15.888911742143627"><ele>1190.0</ele><time>2026-04-11T09:29:45.001Z</time></trkpt><trkpt lat="38.20802204539763" lon="15.888961791399515"><ele>1190.0</ele><time>2026-04-11T09:29:46.001Z</time></trkpt><trkpt lat="38.208090537955414" lon="15.889037009364877"><ele>1190.5</ele><time>2026-04-11T09:29:47.001Z</time></trkpt><trkpt lat="38.20820646377896" lon="15.889173981742672"><ele>1191.0</ele><time>2026-04-11T09:29:49.001Z</time></trkpt><trkpt lat="38.20825480899094" lon="15.889306588589104"><ele>1191.5</ele><time>2026-04-11T09:29:50.001Z</time></trkpt><trkpt lat="38.20829687605178" lon="15.889468845728327"><ele>1192.0</ele><time>2026-04-11T09:29:51.001Z</time></trkpt><trkpt lat="38.208331822996165" lon="15.889603639846422"><ele>1192.0</ele><time>2026-04-11T09:29:52.001Z</time></trkpt><trkpt lat="38.2082832123252" lon="15.889749870469613"><ele>1192.0</ele><time>2026-04-11T09:29:53.001Z</time></trkpt><trkpt lat="38.208296140080385" lon="15.88983445720789"><ele>1192.0</ele><time>2026-04-11T09:29:54.001Z</time></trkpt><trkpt lat="38.208251016815325" lon="15.889897858279548"><ele>1192.0</ele><time>2026-04-11T09:29:55.001Z</time></trkpt><trkpt lat="38.20817028441994" lon="15.889931814479985"><ele>1192.0</ele><time>2026-04-11T09:29:57.001Z</time></trkpt><trkpt lat="38.2081257139928" lon="15.889821110088011"><ele>1192.0</ele><time>2026-04-11T09:29:59.001Z</time></trkpt><trkpt lat="38.20811472159431" lon="15.889741620151929"><ele>1191.6</ele><time>2026-04-11T09:30:00.001Z</time></trkpt><trkpt lat="38.20810069168022" lon="15.88958790674233"><ele>1191.2</ele><time>2026-04-11T09:30:01.001Z</time></trkpt><trkpt lat="38.20808915267225" lon="15.889431958028139"><ele>1190.8</ele><time>2026-04-11T09:30:02.001Z</time></trkpt><trkpt lat="38.208005862566026" lon="15.889350710059402"><ele>1190.4</ele><time>2026-04-11T09:30:03.001Z</time></trkpt><trkpt lat="38.20794082021416" lon="15.889288856094602"><ele>1190.0</ele><time>2026-04-11T09:30:04.001Z</time></trkpt><trkpt lat="38.20788173390336" lon="15.889215381504279"><ele>1190.0</ele><time>2026-04-11T09:30:05.001Z</time></trkpt><trkpt lat="38.20779263295896" lon="15.88913353023441"><ele>1190.0</ele><time>2026-04-11T09:30:06.001Z</time></trkpt><trkpt lat="38.20772659666263" lon="15.889063672746659"><ele>1190.0</ele><time>2026-04-11T09:30:07.001Z</time></trkpt><trkpt lat="38.2076238646014" lon="15.889024130809789"><ele>1190.0</ele><time>2026-04-11T09:30:08.001Z</time></trkpt><trkpt lat="38.207539691431414" lon="15.8890190854326"><ele>1190.0</ele><time>2026-04-11T09:30:09.001Z</time></trkpt><trkpt lat="38.20743768023456" lon="15.889050993980941"><ele>1191.75</ele><time>2026-04-11T09:30:10.001Z</time></trkpt><trkpt lat="38.207326337872296" lon="15.889085830782573"><ele>1193.5</ele><time>2026-04-11T09:30:11.001Z</time></trkpt><trkpt lat="38.20721508010496" lon="15.889113380290627"><ele>1195.25</ele><time>2026-04-11T09:30:12.001Z</time></trkpt><trkpt lat="38.2070780369925" lon="15.889162999779144"><ele>1197.0</ele><time>2026-04-11T09:30:13.001Z</time></trkpt><trkpt lat="38.2069738343811" lon="15.88922102963955"><ele>1197.0</ele><time>2026-04-11T09:30:14.001Z</time></trkpt><trkpt lat="38.20689130961294" lon="15.88924419508119"><ele>1197.0</ele><time>2026-04-11T09:30:15.001Z</time></trkpt><trkpt lat="38.206794453963845" lon="15.889247749755027"><ele>1197.0</ele><time>2026-04-11T09:30:16.001Z</time></trkpt><trkpt lat="38.2066851830044" lon="15.889219133333487"><ele>1197.0</ele><time>2026-04-11T09:30:17.001Z</time></trkpt><trkpt lat="38.20656682176907" lon="15.889245310312925"><ele>1197.0</ele><time>2026-04-11T09:30:18.001Z</time></trkpt><trkpt lat="38.20645959752517" lon="15.8892575574631"><ele>1196.1666666666667</ele><time>2026-04-11T09:30:19.001Z</time></trkpt><trkpt lat="38.20639974657757" lon="15.889225538595685"><ele>1195.3333333333333</ele><time>2026-04-11T09:30:20.001Z</time></trkpt><trkpt lat="38.206297933438094" lon="15.889174870296337"><ele>1194.5</ele><time>2026-04-11T09:30:21.001Z</time></trkpt><trkpt lat="38.20620633766809" lon="15.889159660398725"><ele>1193.6666666666665</ele><time>2026-04-11T09:30:22.001Z</time></trkpt><trkpt lat="38.206116077367206" lon="15.889143375662963"><ele>1192.8333333333333</ele><time>2026-04-11T09:30:24.001Z</time></trkpt><trkpt lat="38.20608400770754" lon="15.889230449987123"><ele>1192.0</ele><time>2026-04-11T09:30:25.001Z</time></trkpt><trkpt lat="38.20608331333126" lon="15.88933707934434"><ele>1198.25</ele><time>2026-04-11T09:30:27.001Z</time></trkpt><trkpt lat="38.20618117085292" lon="15.88942770875844"><ele>1204.5</ele><time>2026-04-11T09:30:28.001Z</time></trkpt><trkpt lat="38.20630617619936" lon="15.88939833458496"><ele>1210.75</ele><time>2026-04-11T09:30:29.001Z</time></trkpt><trkpt lat="38.20641404164481" lon="15.88944444496719"><ele>1217.0</ele><time>2026-04-11T09:30:30.001Z</time></trkpt><trkpt lat="38.20650020002141" lon="15.889504153064342"><ele>1218.4</ele><time>2026-04-11T09:30:31Z</time></trkpt><trkpt lat="38.20660641569904" lon="15.889587170831385"><ele>1219.8000000000002</ele><time>2026-04-11T09:30:32Z</time></trkpt><trkpt lat="38.2066834176306" lon="15.889628119380898"><ele>1221.2</ele><time>2026-04-11T09:30:33Z</time></trkpt><trkpt lat="38.20675377079182" lon="15.88959405885929"><ele>1222.6000000000001</ele><time>2026-04-11T09:30:34Z</time></trkpt><trkpt lat="38.20686489279012" lon="15.889580712904285"><ele>1224.0</ele><time>2026-04-11T09:30:35Z</time></trkpt><trkpt lat="38.20701898136354" lon="15.889539957920457"><ele>1224.0</ele><time>2026-04-11T09:30:36Z</time></trkpt><trkpt lat="38.207122546053974" lon="15.889532318168792"><ele>1224.0</ele><time>2026-04-11T09:30:37Z</time></trkpt><trkpt lat="38.20719267927332" lon="15.88953231817049"><ele>1224.0</ele><time>2026-04-11T09:30:38Z</time></trkpt><trkpt lat="38.20727069816031" lon="15.889564446570326"><ele>1224.0</ele><time>2026-04-11T09:30:40Z</time></trkpt><trkpt lat="38.20733517609493" lon="15.889750362814219"><ele>1224.0</ele><time>2026-04-11T09:30:42Z</time></trkpt><trkpt lat="38.20740091002455" lon="15.88989054490077"><ele>1223.8</ele><time>2026-04-11T09:30:43Z</time></trkpt><trkpt lat="38.20744798415523" lon="15.890050559196277"><ele>1223.6000000000001</ele><time>2026-04-11T09:30:44Z</time></trkpt><trkpt lat="38.207484795093244" lon="15.890162607489925"><ele>1223.4</ele><time>2026-04-11T09:30:45Z</time></trkpt><trkpt lat="38.207505261594186" lon="15.890286230445003"><ele>1223.2</ele><time>2026-04-11T09:30:46Z</time></trkpt><trkpt lat="38.2074961365802" lon="15.890396581619324"><ele>1223.0</ele><time>2026-04-11T09:30:47Z</time></trkpt><trkpt lat="38.20748653546937" lon="15.890493456643958"><ele>1223.0</ele><time>2026-04-11T09:30:48Z</time></trkpt><trkpt lat="38.207472963950266" lon="15.890657320780193"><ele>1223.0</ele><time>2026-04-11T09:30:49Z</time></trkpt><trkpt lat="38.207398383849934" lon="15.890811442230556"><ele>1223.0</ele><time>2026-04-11T09:30:50Z</time></trkpt><trkpt lat="38.207342740671926" lon="15.890895100996735"><ele>1223.0</ele><time>2026-04-11T09:30:52Z</time></trkpt><trkpt lat="38.207304316511525" lon="15.890967864145777"><ele>1223.0</ele><time>2026-04-11T09:30:53Z</time></trkpt><trkpt lat="38.20724185174146" lon="15.890937285854086"><ele>1228.0</ele><time>2026-04-11T09:30:54Z</time></trkpt><trkpt lat="38.20728262244722" lon="15.890758453912708"><ele>1233.0</ele><time>2026-04-11T09:30:55Z</time></trkpt><trkpt lat="38.20727939127269" lon="15.890561540941635"><ele>1238.0</ele><time>2026-04-11T09:30:57Z</time></trkpt><trkpt lat="38.207256357318016" lon="15.890429267708864"><ele>1243.0</ele><time>2026-04-11T09:30:58Z</time></trkpt><trkpt lat="38.20721593978329" lon="15.89031135903511"><ele>1243.0</ele><time>2026-04-11T09:30:59Z</time></trkpt><trkpt lat="38.20715999199056" lon="15.89022004485115"><ele>1243.0</ele><time>2026-04-11T09:31:00Z</time></trkpt><trkpt lat="38.20700210929648" lon="15.89021964992608"><ele>1243.0</ele><time>2026-04-11T09:31:01Z</time></trkpt><trkpt lat="38.20691238388022" lon="15.890204480587856"><ele>1243.0</ele><time>2026-04-11T09:31:02Z</time></trkpt><trkpt lat="38.20678352327816" lon="15.890267161862408"><ele>1243.0</ele><time>2026-04-11T09:31:03Z</time></trkpt><trkpt lat="38.20668237528382" lon="15.890256692815631"><ele>1243.0</ele><time>2026-04-11T09:31:04Z</time></trkpt><trkpt lat="38.20661051500735" lon="15.890255588427467"><ele>1243.0</ele><time>2026-04-11T09:31:05Z</time></trkpt><trkpt lat="38.2065644876538" lon="15.890364681312384"><ele>1243.0</ele><time>2026-04-11T09:31:07Z</time></trkpt><trkpt lat="38.206572499344674" lon="15.89048828142399"><ele>1243.0</ele><time>2026-04-11T09:31:09Z</time></trkpt><trkpt lat="38.20661790233157" lon="15.890556187791372"><ele>1243.0</ele><time>2026-04-11T09:31:10Z</time></trkpt><trkpt lat="38.20665342619892" lon="15.890684789642359"><ele>1243.0</ele><time>2026-04-11T09:31:12Z</time></trkpt><trkpt lat="38.20666459219683" lon="15.890773380836666"><ele>1243.0</ele><time>2026-04-11T09:31:13Z</time></trkpt><trkpt lat="38.20668286952055" lon="15.890863896288256"><ele>1243.0</ele><time>2026-04-11T09:31:14Z</time></trkpt><trkpt lat="38.20661573943401" lon="15.890852835318382"><ele>1243.0</ele><time>2026-04-11T09:31:17Z</time></trkpt><trkpt lat="38.20668106085941" lon="15.890625211038392"><ele>1243.0</ele><time>2026-04-11T09:31:18Z</time></trkpt><trkpt lat="38.206735692111344" lon="15.890761780684924"><ele>1243.0</ele><time>2026-04-11T09:31:23Z</time></trkpt><trkpt lat="38.20668137136711" lon="15.890706087334484"><ele>1243.0</ele><time>2026-04-11T09:31:25Z</time></trkpt><trkpt lat="38.20660857757137" lon="15.890704726353395"><ele>1243.0</ele><time>2026-04-11T09:31:26Z</time></trkpt><trkpt lat="38.20654099943116" lon="15.890691266344323"><ele>1243.0</ele><time>2026-04-11T09:31:27Z</time></trkpt><trkpt lat="38.206466044562745" lon="15.890722931828147"><ele>1243.0</ele><time>2026-04-11T09:31:28Z</time></trkpt><trkpt lat="38.20639238362097" lon="15.890759351245334"><ele>1243.0</ele><time>2026-04-11T09:31:29.001Z</time></trkpt><trkpt lat="38.206257731796484" lon="15.890827775497497"><ele>1242.6666666666665</ele><time>2026-04-11T09:31:30.001Z</time></trkpt><trkpt lat="38.20602808550326" lon="15.890937671545096"><ele>1242.3333333333333</ele><time>2026-04-11T09:31:31.001Z</time></trkpt><trkpt lat="38.20586016559348" lon="15.891018429179786"><ele>1242.0</ele><time>2026-04-11T09:31:32.001Z</time></trkpt><trkpt lat="38.20567430128236" lon="15.891090377864835"><ele>1244.0</ele><time>2026-04-11T09:31:33.001Z</time></trkpt><trkpt lat="38.2055290590652" lon="15.891157546613103"><ele>1246.0</ele><time>2026-04-11T09:31:34.001Z</time></trkpt><trkpt lat="38.205388565562004" lon="15.891220396135152"><ele>1248.0</ele><time>2026-04-11T09:31:35.001Z</time></trkpt><trkpt lat="38.20526146853669" lon="15.891292987837694"><ele>1250.0</ele><time>2026-04-11T09:31:36.001Z</time></trkpt><trkpt lat="38.20513815333669" lon="15.891319738340371"><ele>1250.0</ele><time>2026-04-11T09:31:37.001Z</time></trkpt><trkpt lat="38.20502097809221" lon="15.891354794628453"><ele>1250.0</ele><time>2026-04-11T09:31:38.001Z</time></trkpt><trkpt lat="38.20489463674181" lon="15.891378572471154"><ele>1250.0</ele><time>2026-04-11T09:31:39.001Z</time></trkpt><trkpt lat="38.20477995848741" lon="15.891449282232355"><ele>1250.0</ele><time>2026-04-11T09:31:40.001Z</time></trkpt><trkpt lat="38.204652884144046" lon="15.891530186545618"><ele>1252.5</ele><time>2026-04-11T09:31:41.001Z</time></trkpt><trkpt lat="38.204538663353276" lon="15.8915883877272"><ele>1255.0</ele><time>2026-04-11T09:31:42.001Z</time></trkpt><trkpt lat="38.20443602889806" lon="15.89164357334939"><ele>1257.5</ele><time>2026-04-11T09:31:43.001Z</time></trkpt><trkpt lat="38.204323472274304" lon="15.891721839891698"><ele>1260.0</ele><time>2026-04-11T09:31:44.001Z</time></trkpt><trkpt lat="38.204203170010736" lon="15.8917930534759"><ele>1262.8</ele><time>2026-04-11T09:31:45.001Z</time></trkpt><trkpt lat="38.204087782519956" lon="15.891829052021238"><ele>1265.6</ele><time>2026-04-11T09:31:46.001Z</time></trkpt><trkpt lat="38.203980725265595" lon="15.89189435423629"><ele>1268.4</ele><time>2026-04-11T09:31:47.001Z</time></trkpt><trkpt lat="38.203880521184956" lon="15.891920365038171"><ele>1271.2</ele><time>2026-04-11T09:31:48.001Z</time></trkpt><trkpt lat="38.20379347562892" lon="15.89197449214926"><ele>1274.0</ele><time>2026-04-11T09:31:49.001Z</time></trkpt><trkpt lat="38.203724107922966" lon="15.892023030989742"><ele>1274.0</ele><time>2026-04-11T09:31:50.001Z</time></trkpt><trkpt lat="38.20373292139836" lon="15.892158964389775"><ele>1274.0</ele><time>2026-04-11T09:31:53.001Z</time></trkpt><trkpt lat="38.20380212008377" lon="15.892215351106207"><ele>1274.0</ele><time>2026-04-11T09:31:54.001Z</time></trkpt><trkpt lat="38.20390803045349" lon="15.892253915455969"><ele>1274.0</ele><time>2026-04-11T09:31:55.001Z</time></trkpt><trkpt lat="38.20408298159505" lon="15.892311096076568"><ele>1274.0</ele><time>2026-04-11T09:31:56.001Z</time></trkpt><trkpt lat="38.2041598702504" lon="15.892393999028075"><ele>1274.0</ele><time>2026-04-11T09:31:57.001Z</time></trkpt><trkpt lat="38.20420511778452" lon="15.892476587020022"><ele>1274.0</ele><time>2026-04-11T09:31:58.001Z</time></trkpt><trkpt lat="38.20424407972729" lon="15.89259388144097"><ele>1274.0</ele><time>2026-04-11T09:32:00.001Z</time></trkpt><trkpt lat="38.204207836710296" lon="15.89270287377309"><ele>1274.0</ele><time>2026-04-11T09:32:01.001Z</time></trkpt><trkpt lat="38.20412265089278" lon="15.8927697971992"><ele>1273.4</ele><time>2026-04-11T09:32:03.001Z</time></trkpt><trkpt lat="38.20406789951667" lon="15.892851237248133"><ele>1272.8000000000002</ele><time>2026-04-11T09:32:06.001Z</time></trkpt><trkpt lat="38.20398483475751" lon="15.892863224595835"><ele>1272.1999999999998</ele><time>2026-04-11T09:32:08.001Z</time></trkpt><trkpt lat="38.20387327348499" lon="15.892925750331282"><ele>1271.6</ele><time>2026-04-11T09:32:10.001Z</time></trkpt><trkpt lat="38.203890362944875" lon="15.892829704382061"><ele>1271.0</ele><time>2026-04-11T09:32:12.001Z</time></trkpt><trkpt lat="38.20380878327622" lon="15.892878853702566"><ele>1273.0</ele><time>2026-04-11T09:32:14.001Z</time></trkpt><trkpt lat="38.203758900610055" lon="15.892792210188478"><ele>1275.0</ele><time>2026-04-11T09:32:17.001Z</time></trkpt><trkpt lat="38.20372026603803" lon="15.89268408489459"><ele>1277.0</ele><time>2026-04-11T09:32:22.001Z</time></trkpt><trkpt lat="38.20349926629109" lon="15.892586315026538"><ele>1279.0</ele><time>2026-04-11T09:32:24.001Z</time></trkpt><trkpt lat="38.20326472196295" lon="15.892648860426563"><ele>1282.0</ele><time>2026-04-11T09:32:25.001Z</time></trkpt><trkpt lat="38.20318050338313" lon="15.89268724543222"><ele>1285.0</ele><time>2026-04-11T09:32:26.001Z</time></trkpt><trkpt lat="38.203233521244925" lon="15.89313990905265"><ele>1288.0</ele><time>2026-04-11T09:32:27.001Z</time></trkpt><trkpt lat="38.203096312305135" lon="15.89310041951464"><ele>1289.25</ele><time>2026-04-11T09:32:28.001Z</time></trkpt><trkpt lat="38.20300668124832" lon="15.893133839293908"><ele>1290.5</ele><time>2026-04-11T09:32:29.001Z</time></trkpt><trkpt lat="38.202889366333494" lon="15.893167083108597"><ele>1291.75</ele><time>2026-04-11T09:32:30.001Z</time></trkpt><trkpt lat="38.202782771864236" lon="15.893211172621237"><ele>1293.0</ele><time>2026-04-11T09:32:31.001Z</time></trkpt><trkpt lat="38.20264270614671" lon="15.893324975566525"><ele>1294.25</ele><time>2026-04-11T09:32:32.001Z</time></trkpt><trkpt lat="38.20258373230405" lon="15.89347960756452"><ele>1295.5</ele><time>2026-04-11T09:32:33.001Z</time></trkpt><trkpt lat="38.202493592840746" lon="15.893582041640919"><ele>1296.75</ele><time>2026-04-11T09:32:34.001Z</time></trkpt><trkpt lat="38.202378760956016" lon="15.893714475022795"><ele>1298.0</ele><time>2026-04-11T09:32:35.001Z</time></trkpt><trkpt lat="38.202263962177085" lon="15.893841350996038"><ele>1299.75</ele><time>2026-04-11T09:32:36.001Z</time></trkpt><trkpt lat="38.20217896603912" lon="15.893945818295625"><ele>1301.5</ele><time>2026-04-11T09:32:37Z</time></trkpt><trkpt lat="38.20208290967833" lon="15.894012669368967"><ele>1303.25</ele><time>2026-04-11T09:32:38Z</time></trkpt><trkpt lat="38.2019235335851" lon="15.894121297780883"><ele>1305.0</ele><time>2026-04-11T09:32:39Z</time></trkpt><trkpt lat="38.20175287747288" lon="15.894230776567904"><ele>1303.25</ele><time>2026-04-11T09:32:40Z</time></trkpt><trkpt lat="38.20159924033133" lon="15.89433515454733"><ele>1301.5</ele><time>2026-04-11T09:32:41Z</time></trkpt><trkpt lat="38.20147701386791" lon="15.894396929581882"><ele>1299.75</ele><time>2026-04-11T09:32:42Z</time></trkpt><trkpt lat="38.20138958156273" lon="15.894405608469455"><ele>1298.0</ele><time>2026-04-11T09:32:43Z</time></trkpt><trkpt lat="38.20126462406965" lon="15.894394806196557"><ele>1302.5</ele><time>2026-04-11T09:32:44Z</time></trkpt><trkpt lat="38.2011392093074" lon="15.894381201481165"><ele>1307.0</ele><time>2026-04-11T09:32:45Z</time></trkpt><trkpt lat="38.200991625420414" lon="15.894363628456665"><ele>1311.5</ele><time>2026-04-11T09:32:46Z</time></trkpt><trkpt lat="38.20088171620456" lon="15.894379183748919"><ele>1316.0</ele><time>2026-04-11T09:32:47Z</time></trkpt><trkpt lat="38.200785798282915" lon="15.89447491762843"><ele>1316.0</ele><time>2026-04-11T09:32:48Z</time></trkpt><trkpt lat="38.200704892435624" lon="15.8946147912856"><ele>1316.0</ele><time>2026-04-11T09:32:49Z</time></trkpt><trkpt lat="38.20063221717886" lon="15.894743785607965"><ele>1316.0</ele><time>2026-04-11T09:32:50Z</time></trkpt><trkpt lat="38.20056284609986" lon="15.894915990444119"><ele>1316.0</ele><time>2026-04-11T09:32:51Z</time></trkpt><trkpt lat="38.20046509249009" lon="15.89511055401255"><ele>1319.0</ele><time>2026-04-11T09:32:52Z</time></trkpt><trkpt lat="38.20036551910023" lon="15.8953628525363"><ele>1322.0</ele><time>2026-04-11T09:32:53Z</time></trkpt><trkpt lat="38.20024796071698" lon="15.895486432823489"><ele>1325.0</ele><time>2026-04-11T09:32:54Z</time></trkpt><trkpt lat="38.200174702158165" lon="15.895572758971205"><ele>1325.0</ele><time>2026-04-11T09:32:55Z</time></trkpt><trkpt lat="38.20008776932877" lon="15.895672056235378"><ele>1325.0</ele><time>2026-04-11T09:32:56Z</time></trkpt><trkpt lat="38.199979461093996" lon="15.895792755731984"><ele>1325.0</ele><time>2026-04-11T09:32:57Z</time></trkpt><trkpt lat="38.19985515465731" lon="15.895929511898183"><ele>1325.0</ele><time>2026-04-11T09:32:58Z</time></trkpt><trkpt lat="38.199726772088916" lon="15.89607073681651"><ele>1326.6666666666667</ele><time>2026-04-11T09:32:59Z</time></trkpt><trkpt lat="38.19959331711875" lon="15.896213811758036"><ele>1328.3333333333333</ele><time>2026-04-11T09:33:00Z</time></trkpt><trkpt lat="38.1994418681492" lon="15.896359331982733"><ele>1330.0</ele><time>2026-04-11T09:33:01Z</time></trkpt><trkpt lat="38.19929415470375" lon="15.89646574839968"><ele>1330.0</ele><time>2026-04-11T09:33:02Z</time></trkpt><trkpt lat="38.19921702286871" lon="15.89650019855859"><ele>1330.0</ele><time>2026-04-11T09:33:03Z</time></trkpt><trkpt lat="38.199135178635345" lon="15.896523499489001"><ele>1330.0</ele><time>2026-04-11T09:33:04Z</time></trkpt><trkpt lat="38.19900964977849" lon="15.89652469169605"><ele>1330.0</ele><time>2026-04-11T09:33:07Z</time></trkpt><trkpt lat="38.19888312156993" lon="15.896501384653282"><ele>1330.0</ele><time>2026-04-11T09:33:08Z</time></trkpt><trkpt lat="38.198750615058366" lon="15.896470608615916"><ele>1331.6666666666665</ele><time>2026-04-11T09:33:09Z</time></trkpt><trkpt lat="38.19856768982081" lon="15.896424183685037"><ele>1333.3333333333333</ele><time>2026-04-11T09:33:10Z</time></trkpt><trkpt lat="38.19838402638174" lon="15.89636544543076"><ele>1335.0</ele><time>2026-04-11T09:33:11Z</time></trkpt><trkpt lat="38.19821064061395" lon="15.896304634967331"><ele>1339.0</ele><time>2026-04-11T09:33:12Z</time></trkpt><trkpt lat="38.197972757950325" lon="15.89622255792294"><ele>1343.0</ele><time>2026-04-11T09:33:13Z</time></trkpt><trkpt lat="38.19776728506178" lon="15.896165063234866"><ele>1343.0</ele><time>2026-04-11T09:33:14Z</time></trkpt><trkpt lat="38.197601469991305" lon="15.896129033700072"><ele>1343.0</ele><time>2026-04-11T09:33:15Z</time></trkpt><trkpt lat="38.197453852391774" lon="15.89609855886763"><ele>1343.0</ele><time>2026-04-11T09:33:16Z</time></trkpt><trkpt lat="38.19735441443043" lon="15.896090853450252"><ele>1343.0</ele><time>2026-04-11T09:33:17Z</time></trkpt><trkpt lat="38.19722726690321" lon="15.896092172965377"><ele>1345.0</ele><time>2026-04-11T09:33:18Z</time></trkpt><trkpt lat="38.19708604727472" lon="15.896107602111076"><ele>1347.0</ele><time>2026-04-11T09:33:19Z</time></trkpt><trkpt lat="38.19693561477867" lon="15.896140111194416"><ele>1349.0</ele><time>2026-04-11T09:33:20Z</time></trkpt><trkpt lat="38.196822665982246" lon="15.896159693277845"><ele>1351.0</ele><time>2026-04-11T09:33:21Z</time></trkpt><trkpt lat="38.196704080679886" lon="15.896189521404219"><ele>1351.0</ele><time>2026-04-11T09:33:22Z</time></trkpt><trkpt lat="38.19655586725104" lon="15.896296429674834"><ele>1351.0</ele><time>2026-04-11T09:33:23Z</time></trkpt><trkpt lat="38.19648652322802" lon="15.896408523338723"><ele>1351.0</ele><time>2026-04-11T09:33:24Z</time></trkpt><trkpt lat="38.19647530106321" lon="15.896540643270106"><ele>1351.0</ele><time>2026-04-11T09:33:25Z</time></trkpt><trkpt lat="38.19647227924968" lon="15.896692121467847"><ele>1351.4</ele><time>2026-04-11T09:33:26Z</time></trkpt><trkpt lat="38.196442687114384" lon="15.896798915535323"><ele>1351.8</ele><time>2026-04-11T09:33:27Z</time></trkpt><trkpt lat="38.19638575014491" lon="15.896897014616204"><ele>1352.2</ele><time>2026-04-11T09:33:28Z</time></trkpt><trkpt lat="38.1962777302348" lon="15.8969753100987"><ele>1352.6000000000001</ele><time>2026-04-11T09:33:30Z</time></trkpt><trkpt lat="38.1961669850889" lon="15.897037787004033"><ele>1353.0</ele><time>2026-04-11T09:33:31Z</time></trkpt><trkpt lat="38.19601991729018" lon="15.897105225623731"><ele>1353.0</ele><time>2026-04-11T09:33:32Z</time></trkpt><trkpt lat="38.19585701210849" lon="15.897170372474447"><ele>1353.0</ele><time>2026-04-11T09:33:33Z</time></trkpt><trkpt lat="38.195679653097045" lon="15.89725906211626"><ele>1353.0</ele><time>2026-04-11T09:33:34Z</time></trkpt><trkpt lat="38.19551905032795" lon="15.8973127215178"><ele>1353.25</ele><time>2026-04-11T09:33:35Z</time></trkpt><trkpt lat="38.19539711159431" lon="15.897361941513548"><ele>1353.5</ele><time>2026-04-11T09:33:36Z</time></trkpt><trkpt lat="38.195263412985184" lon="15.897412859531387"><ele>1353.75</ele><time>2026-04-11T09:33:37.001Z</time></trkpt><trkpt lat="38.19516396879215" lon="15.897450432821232"><ele>1354.0</ele><time>2026-04-11T09:33:38.001Z</time></trkpt><trkpt lat="38.19502523955304" lon="15.89749971210564"><ele>1354.0</ele><time>2026-04-11T09:33:40.001Z</time></trkpt><trkpt lat="38.19490149556857" lon="15.897522642956678"><ele>1354.0</ele><time>2026-04-11T09:33:42.001Z</time></trkpt><trkpt lat="38.194793600449735" lon="15.897551498067507"><ele>1354.0</ele><time>2026-04-11T09:33:43.001Z</time></trkpt><trkpt lat="38.194690390455044" lon="15.897588818390336"><ele>1354.0</ele><time>2026-04-11T09:33:44.001Z</time></trkpt><trkpt lat="38.19458699917928" lon="15.897610365274573"><ele>1354.0</ele><time>2026-04-11T09:33:45.001Z</time></trkpt><trkpt lat="38.194487148218876" lon="15.897640186888337"><ele>1354.4</ele><time>2026-04-11T09:33:46.001Z</time></trkpt><trkpt lat="38.194407756967784" lon="15.897629428904152"><ele>1354.8000000000002</ele><time>2026-04-11T09:33:47.001Z</time></trkpt><trkpt lat="38.19426400354082" lon="15.897682735611973"><ele>1355.1999999999998</ele><time>2026-04-11T09:33:48.001Z</time></trkpt><trkpt lat="38.19416489469391" lon="15.89772052798855"><ele>1355.6</ele><time>2026-04-11T09:33:49.001Z</time></trkpt><trkpt lat="38.194066134569226" lon="15.897760813658259"><ele>1356.0</ele><time>2026-04-11T09:33:50.001Z</time></trkpt><trkpt lat="38.19398765744524" lon="15.897814066446502"><ele>1358.8</ele><time>2026-04-11T09:33:51.001Z</time></trkpt><trkpt lat="38.194004593742314" lon="15.897947391253473"><ele>1361.6</ele><time>2026-04-11T09:33:52.001Z</time></trkpt><trkpt lat="38.19396954964829" lon="15.898051470697352"><ele>1364.4</ele><time>2026-04-11T09:33:53.001Z</time></trkpt><trkpt lat="38.193943937753644" lon="15.898160608806672"><ele>1367.2</ele><time>2026-04-11T09:33:54.001Z</time></trkpt><trkpt lat="38.19391937796649" lon="15.898290496078292"><ele>1370.0</ele><time>2026-04-11T09:33:55.001Z</time></trkpt><trkpt lat="38.19386987549706" lon="15.898405843551147"><ele>1370.0</ele><time>2026-04-11T09:33:56.001Z</time></trkpt><trkpt lat="38.19381804488917" lon="15.89852664822279"><ele>1370.0</ele><time>2026-04-11T09:33:57.001Z</time></trkpt><trkpt lat="38.19377673289794" lon="15.898612847086188"><ele>1370.0</ele><time>2026-04-11T09:33:58.001Z</time></trkpt><trkpt lat="38.193708892289244" lon="15.898755258156505"><ele>1370.0</ele><time>2026-04-11T09:34:00.001Z</time></trkpt><trkpt lat="38.19367427522283" lon="15.898880821577796"><ele>1370.0</ele><time>2026-04-11T09:34:01.001Z</time></trkpt><trkpt lat="38.19363243664097" lon="15.899030710551138"><ele>1370.0</ele><time>2026-04-11T09:34:02.001Z</time></trkpt><trkpt lat="38.19360276113615" lon="15.899139501349813"><ele>1370.0</ele><time>2026-04-11T09:34:03.001Z</time></trkpt><trkpt lat="38.193547376561945" lon="15.89925898022986"><ele>1370.0</ele><time>2026-04-11T09:34:04.001Z</time></trkpt><trkpt lat="38.19347200616111" lon="15.89933487499327"><ele>1370.0</ele><time>2026-04-11T09:34:05.001Z</time></trkpt><trkpt lat="38.19339212687507" lon="15.899471474660375"><ele>1370.0</ele><time>2026-04-11T09:34:06.001Z</time></trkpt><trkpt lat="38.193318664010015" lon="15.89959437211391"><ele>1369.2</ele><time>2026-04-11T09:34:07.001Z</time></trkpt><trkpt lat="38.19325393612362" lon="15.899670229925592"><ele>1368.4</ele><time>2026-04-11T09:34:08.001Z</time></trkpt><trkpt lat="38.19319905031306" lon="15.899787246257253"><ele>1367.6</ele><time>2026-04-11T09:34:09.001Z</time></trkpt><trkpt lat="38.193111519028044" lon="15.899942527045022"><ele>1366.8</ele><time>2026-04-11T09:34:10.001Z</time></trkpt><trkpt lat="38.19306849770167" lon="15.900001850237343"><ele>1366.0</ele><time>2026-04-11T09:34:11.001Z</time></trkpt><trkpt lat="38.193027506452815" lon="15.900083013920097"><ele>1367.75</ele><time>2026-04-11T09:34:12.001Z</time></trkpt><trkpt lat="38.19295110192536" lon="15.900237748568946"><ele>1369.5</ele><time>2026-04-11T09:34:14.001Z</time></trkpt><trkpt lat="38.19297310759288" lon="15.900360764547582"><ele>1371.25</ele><time>2026-04-11T09:34:15.001Z</time></trkpt><trkpt lat="38.193059215199355" lon="15.900497140301336"><ele>1373.0</ele><time>2026-04-11T09:34:17.001Z</time></trkpt><trkpt lat="38.19320552174702" lon="15.900620550500625"><ele>1373.0</ele><time>2026-04-11T09:34:18.001Z</time></trkpt><trkpt lat="38.19332195934638" lon="15.900666965027476"><ele>1373.0</ele><time>2026-04-11T09:34:19.001Z</time></trkpt><trkpt lat="38.1934080189217" lon="15.900722492364117"><ele>1373.0</ele><time>2026-04-11T09:34:20.001Z</time></trkpt><trkpt lat="38.193537770296295" lon="15.900783792208854"><ele>1373.0</ele><time>2026-04-11T09:34:21.001Z</time></trkpt><trkpt lat="38.19361981531221" lon="15.900825069883005"><ele>1373.0</ele><time>2026-04-11T09:34:22.001Z</time></trkpt><trkpt lat="38.19372121237519" lon="15.90088035284375"><ele>1373.4</ele><time>2026-04-11T09:34:24.001Z</time></trkpt><trkpt lat="38.19379742685283" lon="15.90094062355608"><ele>1373.8000000000002</ele><time>2026-04-11T09:34:25.001Z</time></trkpt><trkpt lat="38.193883063971874" lon="15.901028033740694"><ele>1374.2</ele><time>2026-04-11T09:34:26.001Z</time></trkpt><trkpt lat="38.19395829986083" lon="15.901114073718892"><ele>1374.6</ele><time>2026-04-11T09:34:27.001Z</time></trkpt><trkpt lat="38.194060287321946" lon="15.901225985158073"><ele>1375.0</ele><time>2026-04-11T09:34:28.001Z</time></trkpt><trkpt lat="38.19416001549491" lon="15.901314033279581"><ele>1375.0</ele><time>2026-04-11T09:34:29.001Z</time></trkpt><trkpt lat="38.19421502249138" lon="15.901363003191904"><ele>1375.0</ele><time>2026-04-11T09:34:30.001Z</time></trkpt><trkpt lat="38.1942636450778" lon="15.901416449255965"><ele>1375.0</ele><time>2026-04-11T09:34:31.001Z</time></trkpt><trkpt lat="38.19431308686759" lon="15.901496164536841"><ele>1375.0</ele><time>2026-04-11T09:34:32.001Z</time></trkpt><trkpt lat="38.19435687579112" lon="15.901589833467053"><ele>1375.0</ele><time>2026-04-11T09:34:33.001Z</time></trkpt><trkpt lat="38.194399001875446" lon="15.901703604231615"><ele>1375.0</ele><time>2026-04-11T09:34:34.001Z</time></trkpt><trkpt lat="38.19443582708755" lon="15.901817603086323"><ele>1376.2</ele><time>2026-04-11T09:34:35.001Z</time></trkpt><trkpt lat="38.19446765737346" lon="15.901942267658827"><ele>1377.4</ele><time>2026-04-11T09:34:36.001Z</time></trkpt><trkpt lat="38.19452316584767" lon="15.902109519106485"><ele>1378.6</ele><time>2026-04-11T09:34:38.001Z</time></trkpt><trkpt lat="38.1945602003446" lon="15.902226995606824"><ele>1379.8</ele><time>2026-04-11T09:34:39.001Z</time></trkpt><trkpt lat="38.194594035676054" lon="15.902333408980173"><ele>1381.0</ele><time>2026-04-11T09:34:40.001Z</time></trkpt><trkpt lat="38.194626499394566" lon="15.902437661516004"><ele>1381.0</ele><time>2026-04-11T09:34:41.001Z</time></trkpt><trkpt lat="38.19465148389224" lon="15.90252884325645"><ele>1381.0</ele><time>2026-04-11T09:34:42.001Z</time></trkpt><trkpt lat="38.19466883030853" lon="15.902613202723083"><ele>1381.0</ele><time>2026-04-11T09:34:43Z</time></trkpt><trkpt lat="38.1946875993687" lon="15.902701766036344"><ele>1381.0</ele><time>2026-04-11T09:34:44Z</time></trkpt><trkpt lat="38.19468837788852" lon="15.902783355283232"><ele>1381.0</ele><time>2026-04-11T09:34:45Z</time></trkpt><trkpt lat="38.194688829872106" lon="15.90293761928875"><ele>1381.0</ele><time>2026-04-11T09:34:47Z</time></trkpt><trkpt lat="38.19467620339663" lon="15.903030010569449"><ele>1381.4</ele><time>2026-04-11T09:34:48Z</time></trkpt><trkpt lat="38.19465177195768" lon="15.90313163016814"><ele>1381.8</ele><time>2026-04-11T09:34:49Z</time></trkpt><trkpt lat="38.194612885027986" lon="15.903240537405038"><ele>1382.2</ele><time>2026-04-11T09:34:50Z</time></trkpt><trkpt lat="38.19457497854388" lon="15.903324534948934"><ele>1382.6000000000001</ele><time>2026-04-11T09:34:51Z</time></trkpt><trkpt lat="38.19453523613147" lon="15.903401054657289"><ele>1383.0</ele><time>2026-04-11T09:34:52Z</time></trkpt><trkpt lat="38.194465107140026" lon="15.903538301621218"><ele>1381.75</ele><time>2026-04-11T09:34:54Z</time></trkpt><trkpt lat="38.19442894560993" lon="15.903604405163945"><ele>1380.5</ele><time>2026-04-11T09:34:55Z</time></trkpt><trkpt lat="38.194364202538665" lon="15.903751731318103"><ele>1379.25</ele><time>2026-04-11T09:34:56Z</time></trkpt><trkpt lat="38.194395866700624" lon="15.903916217200518"><ele>1378.0</ele><time>2026-04-11T09:34:57Z</time></trkpt><trkpt lat="38.194636045532796" lon="15.90391534983703"><ele>1378.0</ele><time>2026-04-11T09:34:59Z</time></trkpt><trkpt lat="38.19470517061207" lon="15.903902079962183"><ele>1378.0</ele><time>2026-04-11T09:35:00Z</time></trkpt><trkpt lat="38.19477811390342" lon="15.903897717487157"><ele>1378.0</ele><time>2026-04-11T09:35:01Z</time></trkpt><trkpt lat="38.1948938008276" lon="15.903854230987191"><ele>1378.0</ele><time>2026-04-11T09:35:02Z</time></trkpt><trkpt lat="38.19498582838581" lon="15.90380527052708"><ele>1378.0</ele><time>2026-04-11T09:35:03Z</time></trkpt><trkpt lat="38.195065168416015" lon="15.903760761642198"><ele>1375.25</ele><time>2026-04-11T09:35:04Z</time></trkpt><trkpt lat="38.19514636247755" lon="15.903714967016194"><ele>1372.5</ele><time>2026-04-11T09:35:05Z</time></trkpt><trkpt lat="38.19524407252164" lon="15.90366354190506"><ele>1369.75</ele><time>2026-04-11T09:35:06Z</time></trkpt><trkpt lat="38.19533769258206" lon="15.903644249771947"><ele>1367.0</ele><time>2026-04-11T09:35:07Z</time></trkpt><trkpt lat="38.19548552914146" lon="15.903550673348052"><ele>1367.0</ele><time>2026-04-11T09:35:08Z</time></trkpt><trkpt lat="38.19559891386515" lon="15.903497663786222"><ele>1367.0</ele><time>2026-04-11T09:35:09Z</time></trkpt><trkpt lat="38.19568907524487" lon="15.903519421300155"><ele>1367.0</ele><time>2026-04-11T09:35:10Z</time></trkpt><trkpt lat="38.19575184012997" lon="15.903555719621945"><ele>1367.0</ele><time>2026-04-11T09:35:11Z</time></trkpt><trkpt lat="38.19574141895956" lon="15.90364555110175"><ele>1367.0</ele><time>2026-04-11T09:35:13Z</time></trkpt><trkpt lat="38.1957194998996" lon="15.903759284479309"><ele>1367.0</ele><time>2026-04-11T09:35:16Z</time></trkpt><trkpt lat="38.19573427108029" lon="15.903845614979803"><ele>1367.3999999999999</ele><time>2026-04-11T09:35:17Z</time></trkpt><trkpt lat="38.195784319563536" lon="15.904064240791069"><ele>1367.8</ele><time>2026-04-11T09:35:19Z</time></trkpt><trkpt lat="38.195800782705874" lon="15.904166459600951"><ele>1368.2</ele><time>2026-04-11T09:35:20Z</time></trkpt><trkpt lat="38.19581560324789" lon="15.90426587000206"><ele>1368.6</ele><time>2026-04-11T09:35:21Z</time></trkpt><trkpt lat="38.19583102100985" lon="15.904372941155316"><ele>1369.0</ele><time>2026-04-11T09:35:22Z</time></trkpt><trkpt lat="38.1958591866531" lon="15.904471116397202"><ele>1369.6</ele><time>2026-04-11T09:35:24Z</time></trkpt><trkpt lat="38.19587922667621" lon="15.904616543266396"><ele>1370.2</ele><time>2026-04-11T09:35:26Z</time></trkpt><trkpt lat="38.19589358751474" lon="15.904748438980015"><ele>1370.8</ele><time>2026-04-11T09:35:28Z</time></trkpt><trkpt lat="38.195917028599155" lon="15.904834078901125"><ele>1371.3999999999999</ele><time>2026-04-11T09:35:29Z</time></trkpt><trkpt lat="38.19595682823719" lon="15.904973816631435"><ele>1372.0</ele><time>2026-04-11T09:35:31Z</time></trkpt><trkpt lat="38.196029255811474" lon="15.905106475841608"><ele>1374.0</ele><time>2026-04-11T09:35:33Z</time></trkpt><trkpt lat="38.196091773945334" lon="15.905179884192375"><ele>1376.0</ele><time>2026-04-11T09:35:35Z</time></trkpt><trkpt lat="38.19615075687515" lon="15.905237584745148"><ele>1378.0</ele><time>2026-04-11T09:35:37Z</time></trkpt><trkpt lat="38.19620073705085" lon="15.905305823170865"><ele>1380.0</ele><time>2026-04-11T09:35:39Z</time></trkpt><trkpt lat="38.19628935139797" lon="15.90533961032764"><ele>1382.0</ele><time>2026-04-11T09:35:41Z</time></trkpt><trkpt lat="38.19641891443451" lon="15.905437014691953"><ele>1379.6</ele><time>2026-04-11T09:35:43Z</time></trkpt><trkpt lat="38.19650613467291" lon="15.905506449827167"><ele>1377.1999999999998</ele><time>2026-04-11T09:35:44Z</time></trkpt><trkpt lat="38.19657733384906" lon="15.905563575718718"><ele>1374.8</ele><time>2026-04-11T09:35:45Z</time></trkpt><trkpt lat="38.196657146709505" lon="15.905634946218136"><ele>1372.4</ele><time>2026-04-11T09:35:46Z</time></trkpt><trkpt lat="38.196731465553476" lon="15.905703972062096"><ele>1370.0</ele><time>2026-04-11T09:35:47Z</time></trkpt><trkpt lat="38.19679747686989" lon="15.905766432689001"><ele>1370.0</ele><time>2026-04-11T09:35:48Z</time></trkpt><trkpt lat="38.196875525602316" lon="15.905838927050182"><ele>1370.0</ele><time>2026-04-11T09:35:49Z</time></trkpt><trkpt lat="38.196950453983376" lon="15.905905096809633"><ele>1370.0</ele><time>2026-04-11T09:35:50Z</time></trkpt><trkpt lat="38.1970474970898" lon="15.905977291930522"><ele>1370.0</ele><time>2026-04-11T09:35:51Z</time></trkpt><trkpt lat="38.197149007414716" lon="15.906026837374023"><ele>1370.0</ele><time>2026-04-11T09:35:52Z</time></trkpt><trkpt lat="38.19724905758256" lon="15.906048081308143"><ele>1370.6</ele><time>2026-04-11T09:35:53Z</time></trkpt><trkpt lat="38.19733127294332" lon="15.906054645809416"><ele>1371.2</ele><time>2026-04-11T09:35:54Z</time></trkpt><trkpt lat="38.19741309704242" lon="15.90605065218843"><ele>1371.8000000000002</ele><time>2026-04-11T09:35:57.001Z</time></trkpt><trkpt lat="38.197510841668304" lon="15.906025414211058"><ele>1372.4</ele><time>2026-04-11T09:35:59.001Z</time></trkpt><trkpt lat="38.197575615519824" lon="15.906010523746666"><ele>1373.0</ele><time>2026-04-11T09:36:00.001Z</time></trkpt><trkpt lat="38.19771049262057" lon="15.905968787947483"><ele>1370.5</ele><time>2026-04-11T09:36:02.001Z</time></trkpt><trkpt lat="38.19780578016837" lon="15.905716051066365"><ele>1368.0</ele><time>2026-04-11T09:36:04.001Z</time></trkpt><trkpt lat="38.197880452426574" lon="15.905648391285592"><ele>1365.5</ele><time>2026-04-11T09:36:05.001Z</time></trkpt><trkpt lat="38.1979799721502" lon="15.905583937932416"><ele>1363.0</ele><time>2026-04-11T09:36:06.001Z</time></trkpt><trkpt lat="38.19804904039369" lon="15.90549770899308"><ele>1363.0</ele><time>2026-04-11T09:36:07.001Z</time></trkpt><trkpt lat="38.19811179112913" lon="15.905468962065635"><ele>1363.0</ele><time>2026-04-11T09:36:08.001Z</time></trkpt><trkpt lat="38.19816548447615" lon="15.90542356297347"><ele>1363.0</ele><time>2026-04-11T09:36:09.001Z</time></trkpt><trkpt lat="38.198227925504064" lon="15.905395528755724"><ele>1363.0</ele><time>2026-04-11T09:36:10.001Z</time></trkpt><trkpt lat="38.19829356354918" lon="15.90534273400955"><ele>1363.0</ele><time>2026-04-11T09:36:11.001Z</time></trkpt><trkpt lat="38.19838962317653" lon="15.90525676525937"><ele>1363.0</ele><time>2026-04-11T09:36:12.001Z</time></trkpt><trkpt lat="38.19847245569767" lon="15.905148875391568"><ele>1360.25</ele><time>2026-04-11T09:36:13.001Z</time></trkpt><trkpt lat="38.19856328306163" lon="15.905055858142308"><ele>1357.5</ele><time>2026-04-11T09:36:14.001Z</time></trkpt><trkpt lat="38.19864523124359" lon="15.904962018894357"><ele>1354.75</ele><time>2026-04-11T09:36:15.001Z</time></trkpt><trkpt lat="38.198730381443276" lon="15.904851961781812"><ele>1352.0</ele><time>2026-04-11T09:36:16.001Z</time></trkpt><trkpt lat="38.19881267769114" lon="15.904758708144492"><ele>1352.0</ele><time>2026-04-11T09:36:17.001Z</time></trkpt><trkpt lat="38.19889241016984" lon="15.904668255610119"><ele>1352.0</ele><time>2026-04-11T09:36:18.001Z</time></trkpt><trkpt lat="38.198965965936694" lon="15.904591955374254"><ele>1352.0</ele><time>2026-04-11T09:36:19.001Z</time></trkpt><trkpt lat="38.19909275669387" lon="15.904486412440505"><ele>1352.0</ele><time>2026-04-11T09:36:20.001Z</time></trkpt><trkpt lat="38.199206087312895" lon="15.904396073903667"><ele>1351.0</ele><time>2026-04-11T09:36:21.001Z</time></trkpt><trkpt lat="38.199320718123445" lon="15.904297273052162"><ele>1350.0</ele><time>2026-04-11T09:36:22.001Z</time></trkpt><trkpt lat="38.19942404963472" lon="15.904251076973612"><ele>1349.0</ele><time>2026-04-11T09:36:23.001Z</time></trkpt><trkpt lat="38.19953847437323" lon="15.904226587681132"><ele>1348.0</ele><time>2026-04-11T09:36:24.001Z</time></trkpt><trkpt lat="38.19962694553393" lon="15.904222041752963"><ele>1348.0</ele><time>2026-04-11T09:36:25.001Z</time></trkpt><trkpt lat="38.19969364838774" lon="15.904208231200208"><ele>1348.0</ele><time>2026-04-11T09:36:26.001Z</time></trkpt><trkpt lat="38.199791310502754" lon="15.904118324972215"><ele>1348.0</ele><time>2026-04-11T09:36:28.001Z</time></trkpt><trkpt lat="38.19989133886326" lon="15.904019168288029"><ele>1348.0</ele><time>2026-04-11T09:36:30.001Z</time></trkpt><trkpt lat="38.19998068033286" lon="15.90392380770395"><ele>1348.0</ele><time>2026-04-11T09:36:32.001Z</time></trkpt><trkpt lat="38.20003342569256" lon="15.90387562471083"><ele>1348.4</ele><time>2026-04-11T09:36:33.001Z</time></trkpt><trkpt lat="38.20009700627014" lon="15.903806933963446"><ele>1348.8000000000002</ele><time>2026-04-11T09:36:35.001Z</time></trkpt><trkpt lat="38.20017126389563" lon="15.903763415754126"><ele>1349.2</ele><time>2026-04-11T09:36:36.001Z</time></trkpt><trkpt lat="38.200266890450465" lon="15.903762280464438"><ele>1349.6</ele><time>2026-04-11T09:36:37.001Z</time></trkpt><trkpt lat="38.20033605058836" lon="15.903799156954173"><ele>1350.0</ele><time>2026-04-11T09:36:38.001Z</time></trkpt><trkpt lat="38.200448207473876" lon="15.903876684526633"><ele>1350.0</ele><time>2026-04-11T09:36:39.001Z</time></trkpt><trkpt lat="38.20054341079724" lon="15.903950004223953"><ele>1350.0</ele><time>2026-04-11T09:36:40.001Z</time></trkpt><trkpt lat="38.20060331293655" lon="15.9040289480597"><ele>1350.0</ele><time>2026-04-11T09:36:41.001Z</time></trkpt><trkpt lat="38.20069153835167" lon="15.904068138642831"><ele>1350.0</ele><time>2026-04-11T09:36:42.001Z</time></trkpt><trkpt lat="38.20078955400468" lon="15.904113140608708"><ele>1350.0</ele><time>2026-04-11T09:36:43.001Z</time></trkpt><trkpt lat="38.20089459149989" lon="15.904167000351515"><ele>1348.75</ele><time>2026-04-11T09:36:44.001Z</time></trkpt><trkpt lat="38.2010158283789" lon="15.904219709059515"><ele>1347.5</ele><time>2026-04-11T09:36:45.001Z</time></trkpt><trkpt lat="38.201151788951776" lon="15.90424512295459"><ele>1346.25</ele><time>2026-04-11T09:36:46.001Z</time></trkpt><trkpt lat="38.20124325718489" lon="15.904238059915405"><ele>1345.0</ele><time>2026-04-11T09:36:47.001Z</time></trkpt><trkpt lat="38.2013943400822" lon="15.904276235867496"><ele>1343.25</ele><time>2026-04-11T09:36:48.001Z</time></trkpt><trkpt lat="38.20155031370488" lon="15.904290214121621"><ele>1341.5</ele><time>2026-04-11T09:36:49Z</time></trkpt><trkpt lat="38.201656743371736" lon="15.9043293265784"><ele>1339.75</ele><time>2026-04-11T09:36:50Z</time></trkpt><trkpt lat="38.20172341246499" lon="15.904346722146855"><ele>1338.0</ele><time>2026-04-11T09:36:51Z</time></trkpt><trkpt lat="38.20185244924133" lon="15.904288159626871"><ele>1337.5</ele><time>2026-04-11T09:36:53Z</time></trkpt><trkpt lat="38.20186161069108" lon="15.9041385940049"><ele>1337.0</ele><time>2026-04-11T09:36:55Z</time></trkpt><trkpt lat="38.20187676065775" lon="15.904033518463"><ele>1336.5</ele><time>2026-04-11T09:36:56Z</time></trkpt><trkpt lat="38.201884198731825" lon="15.903932705373888"><ele>1336.0</ele><time>2026-04-11T09:36:57Z</time></trkpt><trkpt lat="38.20192358425227" lon="15.903844408237395"><ele>1335.5</ele><time>2026-04-11T09:36:58Z</time></trkpt><trkpt lat="38.202004267184655" lon="15.903847830236897"><ele>1335.0</ele><time>2026-04-11T09:36:59Z</time></trkpt><trkpt lat="38.20211822733733" lon="15.903822106913346"><ele>1335.0</ele><time>2026-04-11T09:37:01Z</time></trkpt><trkpt lat="38.20227335622793" lon="15.903865786707936"><ele>1335.0</ele><time>2026-04-11T09:37:03Z</time></trkpt><trkpt lat="38.20234066241648" lon="15.903840861148128"><ele>1335.0</ele><time>2026-04-11T09:37:04Z</time></trkpt><trkpt lat="38.20240368697961" lon="15.903908850531527"><ele>1335.0</ele><time>2026-04-11T09:37:05Z</time></trkpt><trkpt lat="38.20244511359829" lon="15.903984959138493"><ele>1335.0</ele><time>2026-04-11T09:37:06Z</time></trkpt><trkpt lat="38.202513949320284" lon="15.90404836235593"><ele>1333.8333333333333</ele><time>2026-04-11T09:37:07Z</time></trkpt><trkpt lat="38.20258399316393" lon="15.904133542135332"><ele>1332.6666666666667</ele><time>2026-04-11T09:37:08Z</time></trkpt><trkpt lat="38.202645951640505" lon="15.904185643350848"><ele>1331.5</ele><time>2026-04-11T09:37:09Z</time></trkpt><trkpt lat="38.202703187271695" lon="15.904224142763578"><ele>1330.3333333333335</ele><time>2026-04-11T09:37:10Z</time></trkpt><trkpt lat="38.20276823343019" lon="15.904245166807861"><ele>1329.1666666666667</ele><time>2026-04-11T09:37:11Z</time></trkpt><trkpt lat="38.20288645274289" lon="15.90422041835761"><ele>1328.0</ele><time>2026-04-11T09:37:12Z</time></trkpt><trkpt lat="38.20299207206226" lon="15.904225374561195"><ele>1328.0</ele><time>2026-04-11T09:37:13Z</time></trkpt><trkpt lat="38.20309250450911" lon="15.904243950692523"><ele>1328.0</ele><time>2026-04-11T09:37:14Z</time></trkpt><trkpt lat="38.20317449915335" lon="15.904260920765358"><ele>1328.0</ele><time>2026-04-11T09:37:15Z</time></trkpt><trkpt lat="38.20325016054932" lon="15.904287098337232"><ele>1328.0</ele><time>2026-04-11T09:37:16Z</time></trkpt><trkpt lat="38.20332468371671" lon="15.90432902687928"><ele>1328.0</ele><time>2026-04-11T09:37:17Z</time></trkpt><trkpt lat="38.203386432279025" lon="15.904460797792519"><ele>1326.6000000000001</ele><time>2026-04-11T09:37:18Z</time></trkpt><trkpt lat="38.20346165083175" lon="15.904591772461798"><ele>1325.2</ele><time>2026-04-11T09:37:19Z</time></trkpt><trkpt lat="38.20350587092231" lon="15.904683675024767"><ele>1323.8</ele><time>2026-04-11T09:37:20Z</time></trkpt><trkpt lat="38.20358130029943" lon="15.904800739983816"><ele>1322.4</ele><time>2026-04-11T09:37:21Z</time></trkpt><trkpt lat="38.20362826809185" lon="15.904881824743528"><ele>1321.0</ele><time>2026-04-11T09:37:22Z</time></trkpt><trkpt lat="38.20364148880337" lon="15.904981763069008"><ele>1321.0</ele><time>2026-04-11T09:37:23Z</time></trkpt><trkpt lat="38.20364390311422" lon="15.905069909659394"><ele>1321.0</ele><time>2026-04-11T09:37:24Z</time></trkpt><trkpt lat="38.20358007914197" lon="15.905151181257835"><ele>1321.0</ele><time>2026-04-11T09:37:25Z</time></trkpt><trkpt lat="38.20353225211199" lon="15.905231574695444"><ele>1321.0</ele><time>2026-04-11T09:37:26Z</time></trkpt><trkpt lat="38.20350121144724" lon="15.905372265779345"><ele>1321.0</ele><time>2026-04-11T09:37:28Z</time></trkpt><trkpt lat="38.20351925158407" lon="15.905524031039878"><ele>1321.4</ele><time>2026-04-11T09:37:30Z</time></trkpt><trkpt lat="38.203623077213756" lon="15.90557363335507"><ele>1321.8</ele><time>2026-04-11T09:37:32Z</time></trkpt><trkpt lat="38.20374574462666" lon="15.905458580663236"><ele>1322.2</ele><time>2026-04-11T09:37:34Z</time></trkpt><trkpt lat="38.203811805310956" lon="15.905378665230616"><ele>1322.6000000000001</ele><time>2026-04-11T09:37:35Z</time></trkpt><trkpt lat="38.20388760324512" lon="15.905317696915082"><ele>1323.0</ele><time>2026-04-11T09:37:36Z</time></trkpt><trkpt lat="38.203976251380816" lon="15.905265726289942"><ele>1323.5</ele><time>2026-04-11T09:37:37Z</time></trkpt><trkpt lat="38.204122381203" lon="15.905227306800583"><ele>1324.0</ele><time>2026-04-11T09:37:39Z</time></trkpt><trkpt lat="38.20424478697975" lon="15.905221385260893"><ele>1324.5</ele><time>2026-04-11T09:37:40Z</time></trkpt><trkpt lat="38.20440105278044" lon="15.905258760528747"><ele>1325.0</ele><time>2026-04-11T09:37:41Z</time></trkpt><trkpt lat="38.20452934172271" lon="15.905295839103845"><ele>1325.0</ele><time>2026-04-11T09:37:42Z</time></trkpt><trkpt lat="38.20467122719244" lon="15.905364468566505"><ele>1325.0</ele><time>2026-04-11T09:37:43Z</time></trkpt><trkpt lat="38.20478272720003" lon="15.905441045325997"><ele>1325.0</ele><time>2026-04-11T09:37:44Z</time></trkpt><trkpt lat="38.20487655822691" lon="15.905508470573821"><ele>1325.0</ele><time>2026-04-11T09:37:45Z</time></trkpt><trkpt lat="38.204943756234016" lon="15.9055512388945"><ele>1324.25</ele><time>2026-04-11T09:37:46Z</time></trkpt><trkpt lat="38.205038298088375" lon="15.905662341563431"><ele>1323.5</ele><time>2026-04-11T09:37:47Z</time></trkpt><trkpt lat="38.205063779742126" lon="15.90573924534335"><ele>1322.75</ele><time>2026-04-11T09:37:48Z</time></trkpt><trkpt lat="38.20508241777602" lon="15.905821225551371"><ele>1322.0</ele><time>2026-04-11T09:37:49Z</time></trkpt><trkpt lat="38.20516905562669" lon="15.906066717568345"><ele>1322.0</ele><time>2026-04-11T09:37:51Z</time></trkpt><trkpt lat="38.20525829810449" lon="15.906228739269196"><ele>1322.0</ele><time>2026-04-11T09:37:52.001Z</time></trkpt><trkpt lat="38.20535379465638" lon="15.906369492609537"><ele>1322.0</ele><time>2026-04-11T09:37:53.001Z</time></trkpt><trkpt lat="38.205423521737934" lon="15.906492016124734"><ele>1322.0</ele><time>2026-04-11T09:37:54.001Z</time></trkpt><trkpt lat="38.20550616391994" lon="15.906640180683953"><ele>1322.1999999999998</ele><time>2026-04-11T09:37:55.001Z</time></trkpt><trkpt lat="38.20556211899954" lon="15.906777103041538"><ele>1322.4</ele><time>2026-04-11T09:37:56.001Z</time></trkpt><trkpt lat="38.20560844607227" lon="15.90687100452341"><ele>1322.6</ele><time>2026-04-11T09:37:57.001Z</time></trkpt><trkpt lat="38.205665821307065" lon="15.90693087951448"><ele>1322.8000000000002</ele><time>2026-04-11T09:37:58.001Z</time></trkpt><trkpt lat="38.20572758761668" lon="15.90701552133098"><ele>1323.0</ele><time>2026-04-11T09:37:59.001Z</time></trkpt><trkpt lat="38.20577540881532" lon="15.907108493761699"><ele>1321.0</ele><time>2026-04-11T09:38:00.001Z</time></trkpt><trkpt lat="38.205854072558566" lon="15.907206972292517"><ele>1319.0</ele><time>2026-04-11T09:38:01.001Z</time></trkpt><trkpt lat="38.20589822271428" lon="15.90734506196956"><ele>1317.0</ele><time>2026-04-11T09:38:02.001Z</time></trkpt><trkpt lat="38.20591812412146" lon="15.907451709027423"><ele>1315.0</ele><time>2026-04-11T09:38:03.001Z</time></trkpt><trkpt lat="38.20595217263702" lon="15.907586724484966"><ele>1313.0</ele><time>2026-04-11T09:38:04.001Z</time></trkpt><trkpt lat="38.20598411255873" lon="15.907720788799022"><ele>1312.6000000000001</ele><time>2026-04-11T09:38:05.001Z</time></trkpt><trkpt lat="38.206016435372" lon="15.90786007679625"><ele>1312.2</ele><time>2026-04-11T09:38:06.001Z</time></trkpt><trkpt lat="38.206067134809125" lon="15.908015917826548"><ele>1311.8</ele><time>2026-04-11T09:38:07.001Z</time></trkpt><trkpt lat="38.20609429947592" lon="15.908139350059031"><ele>1311.4</ele><time>2026-04-11T09:38:08.001Z</time></trkpt><trkpt lat="38.206135166758216" lon="15.908230282930953"><ele>1311.0</ele><time>2026-04-11T09:38:09.001Z</time></trkpt><trkpt lat="38.206118910491426" lon="15.908388721040502"><ele>1311.1999999999998</ele><time>2026-04-11T09:38:10.001Z</time></trkpt><trkpt lat="38.20612024947968" lon="15.90852957579423"><ele>1311.3999999999999</ele><time>2026-04-11T09:38:11.001Z</time></trkpt><trkpt lat="38.206135660851515" lon="15.908657879737898"><ele>1311.6</ele><time>2026-04-11T09:38:12.001Z</time></trkpt><trkpt lat="38.20614307606855" lon="15.908786187377897"><ele>1311.8</ele><time>2026-04-11T09:38:13.001Z</time></trkpt><trkpt lat="38.2061627467498" lon="15.908907654216556"><ele>1312.0</ele><time>2026-04-11T09:38:14.001Z</time></trkpt><trkpt lat="38.206170061861755" lon="15.909026917282501"><ele>1312.0</ele><time>2026-04-11T09:38:15.001Z</time></trkpt><trkpt lat="38.206196046069635" lon="15.909149381530005"><ele>1312.0</ele><time>2026-04-11T09:38:16.001Z</time></trkpt><trkpt lat="38.20626893761993" lon="15.909227396178336"><ele>1312.0</ele><time>2026-04-11T09:38:17.001Z</time></trkpt><trkpt lat="38.206307026020646" lon="15.90930002173291"><ele>1312.0</ele><time>2026-04-11T09:38:18.001Z</time></trkpt><trkpt lat="38.20638571426946" lon="15.909356983369078"><ele>1312.0</ele><time>2026-04-11T09:38:20.001Z</time></trkpt><trkpt lat="38.206550625603285" lon="15.909349162143121"><ele>1309.1666666666665</ele><time>2026-04-11T09:38:22.001Z</time></trkpt><trkpt lat="38.20663046945779" lon="15.90936003458516"><ele>1306.3333333333333</ele><time>2026-04-11T09:38:23.001Z</time></trkpt><trkpt lat="38.206694702366775" lon="15.909431400967149"><ele>1303.5</ele><time>2026-04-11T09:38:24.001Z</time></trkpt><trkpt lat="38.20675084814922" lon="15.909489328723032"><ele>1300.6666666666667</ele><time>2026-04-11T09:38:25.001Z</time></trkpt><trkpt lat="38.206813925769566" lon="15.909548564913125"><ele>1297.8333333333335</ele><time>2026-04-11T09:38:26.001Z</time></trkpt><trkpt lat="38.20685827355315" lon="15.909623386406995"><ele>1295.0</ele><time>2026-04-11T09:38:27.001Z</time></trkpt><trkpt lat="38.20687782287295" lon="15.909719754462724"><ele>1295.0</ele><time>2026-04-11T09:38:28.001Z</time></trkpt><trkpt lat="38.20686819052016" lon="15.909846592178996"><ele>1295.0</ele><time>2026-04-11T09:38:29.001Z</time></trkpt><trkpt lat="38.20685845991443" lon="15.909966854867005"><ele>1295.0</ele><time>2026-04-11T09:38:30.001Z</time></trkpt><trkpt lat="38.206841006524584" lon="15.91005663619475"><ele>1295.0</ele><time>2026-04-11T09:38:31.001Z</time></trkpt><trkpt lat="38.206784032716975" lon="15.910168072371752"><ele>1295.0</ele><time>2026-04-11T09:38:33.001Z</time></trkpt><trkpt lat="38.206709525331995" lon="15.910248052286057"><ele>1295.0</ele><time>2026-04-11T09:38:34.001Z</time></trkpt><trkpt lat="38.20663202912464" lon="15.910314946284888"><ele>1295.0</ele><time>2026-04-11T09:38:35.001Z</time></trkpt><trkpt lat="38.20658829128235" lon="15.910391250673909"><ele>1295.0</ele><time>2026-04-11T09:38:36.001Z</time></trkpt><trkpt lat="38.20654061041588" lon="15.910459821037136"><ele>1295.0</ele><time>2026-04-11T09:38:37.001Z</time></trkpt><trkpt lat="38.20650016610442" lon="15.910592659144118"><ele>1295.0</ele><time>2026-04-11T09:38:38.001Z</time></trkpt><trkpt lat="38.20647475010707" lon="15.91068959318594"><ele>1295.0</ele><time>2026-04-11T09:38:39.001Z</time></trkpt><trkpt lat="38.20639704498524" lon="15.910799053825905"><ele>1295.0</ele><time>2026-04-11T09:38:40.001Z</time></trkpt><trkpt lat="38.20630925541664" lon="15.910824524680109"><ele>1295.0</ele><time>2026-04-11T09:38:41.001Z</time></trkpt><trkpt lat="38.20626903173034" lon="15.910946548225416"><ele>1295.0</ele><time>2026-04-11T09:38:42.001Z</time></trkpt><trkpt lat="38.206218125523016" lon="15.911020967023818"><ele>1295.0</ele><time>2026-04-11T09:38:43.001Z</time></trkpt><trkpt lat="38.20616837203932" lon="15.911084990050947"><ele>1295.0</ele><time>2026-04-11T09:38:44.001Z</time></trkpt><trkpt lat="38.206080825965174" lon="15.911172805739795"><ele>1287.6</ele><time>2026-04-11T09:38:45.001Z</time></trkpt><trkpt lat="38.206010213469035" lon="15.911234809675827"><ele>1280.2</ele><time>2026-04-11T09:38:46.001Z</time></trkpt><trkpt lat="38.20591239500252" lon="15.911258862791351"><ele>1272.8</ele><time>2026-04-11T09:38:47.001Z</time></trkpt><trkpt lat="38.20582774239343" lon="15.911281469722685"><ele>1265.4</ele><time>2026-04-11T09:38:48.001Z</time></trkpt><trkpt lat="38.20572888505281" lon="15.91125541627022"><ele>1258.0</ele><time>2026-04-11T09:38:49.001Z</time></trkpt><trkpt lat="38.20559706964808" lon="15.911266660949668"><ele>1256.0</ele><time>2026-04-11T09:38:50.001Z</time></trkpt><trkpt lat="38.20549178394466" lon="15.911264148970254"><ele>1254.0</ele><time>2026-04-11T09:38:51.001Z</time></trkpt><trkpt lat="38.20540842320332" lon="15.911302917145914"><ele>1252.0</ele><time>2026-04-11T09:38:52.001Z</time></trkpt><trkpt lat="38.20533397367632" lon="15.911300954169649"><ele>1250.0</ele><time>2026-04-11T09:38:53.001Z</time></trkpt><trkpt lat="38.20524770525316" lon="15.911205152789877"><ele>1248.0</ele><time>2026-04-11T09:38:54.001Z</time></trkpt><trkpt lat="38.205146130888124" lon="15.911143450825195"><ele>1248.0</ele><time>2026-04-11T09:38:55Z</time></trkpt><trkpt lat="38.20502419295057" lon="15.911138782983327"><ele>1248.0</ele><time>2026-04-11T09:38:56Z</time></trkpt><trkpt lat="38.204888466345196" lon="15.911136746407202"><ele>1248.0</ele><time>2026-04-11T09:38:57Z</time></trkpt><trkpt lat="38.20480904195269" lon="15.911097220683635"><ele>1248.0</ele><time>2026-04-11T09:38:58Z</time></trkpt><trkpt lat="38.20471251984166" lon="15.911064394103649"><ele>1248.0</ele><time>2026-04-11T09:38:59Z</time></trkpt><trkpt lat="38.20462679123949" lon="15.911009649194588"><ele>1247.2</ele><time>2026-04-11T09:39:00Z</time></trkpt><trkpt lat="38.20454835284512" lon="15.910927999755783"><ele>1246.4</ele><time>2026-04-11T09:39:01Z</time></trkpt><trkpt lat="38.204454155146635" lon="15.91086308279602"><ele>1245.6000000000001</ele><time>2026-04-11T09:39:02Z</time></trkpt><trkpt lat="38.20436121854142" lon="15.910806823502739"><ele>1244.8</ele><time>2026-04-11T09:39:03Z</time></trkpt><trkpt lat="38.204238082634916" lon="15.910761153456388"><ele>1244.0</ele><time>2026-04-11T09:39:04Z</time></trkpt><trkpt lat="38.20416602275413" lon="15.910751805644216"><ele>1248.6000000000001</ele><time>2026-04-11T09:39:05Z</time></trkpt><trkpt lat="38.20406941617324" lon="15.910701698713801"><ele>1253.2</ele><time>2026-04-11T09:39:06Z</time></trkpt><trkpt lat="38.2039833491855" lon="15.91064821258752"><ele>1257.8000000000002</ele><time>2026-04-11T09:39:07Z</time></trkpt><trkpt lat="38.20390221845728" lon="15.910588524034802"><ele>1262.4</ele><time>2026-04-11T09:39:08Z</time></trkpt><trkpt lat="38.203842407734456" lon="15.910557777435764"><ele>1267.0</ele><time>2026-04-11T09:39:09Z</time></trkpt><trkpt lat="38.20374070372584" lon="15.910573660887767"><ele>1268.0</ele><time>2026-04-11T09:39:11Z</time></trkpt><trkpt lat="38.20366588024671" lon="15.910695341320055"><ele>1269.0</ele><time>2026-04-11T09:39:13Z</time></trkpt><trkpt lat="38.203651687754935" lon="15.91078132294654"><ele>1270.0</ele><time>2026-04-11T09:39:14Z</time></trkpt><trkpt lat="38.203641634879354" lon="15.910861035297174"><ele>1271.0</ele><time>2026-04-11T09:39:15Z</time></trkpt><trkpt lat="38.203555027786294" lon="15.910959942394069"><ele>1272.0</ele><time>2026-04-11T09:39:17Z</time></trkpt><trkpt lat="38.20347215447365" lon="15.911052498219428"><ele>1273.0</ele><time>2026-04-11T09:39:18Z</time></trkpt><trkpt lat="38.20339150156567" lon="15.911135554875091"><ele>1274.0</ele><time>2026-04-11T09:39:19Z</time></trkpt><trkpt lat="38.20332230839837" lon="15.911193196256152"><ele>1275.0</ele><time>2026-04-11T09:39:20Z</time></trkpt><trkpt lat="38.203255170228644" lon="15.91126939453191"><ele>1276.0</ele><time>2026-04-11T09:39:21Z</time></trkpt><trkpt lat="38.20313052903947" lon="15.911254708455342"><ele>1277.0</ele><time>2026-04-11T09:39:23Z</time></trkpt><trkpt lat="38.20304632817345" lon="15.911235873575736"><ele>1277.0</ele><time>2026-04-11T09:39:24Z</time></trkpt><trkpt lat="38.20294518372978" lon="15.911206796991996"><ele>1277.0</ele><time>2026-04-11T09:39:25Z</time></trkpt><trkpt lat="38.202867932757464" lon="15.911163068846728"><ele>1277.0</ele><time>2026-04-11T09:39:26Z</time></trkpt><trkpt lat="38.20278438801348" lon="15.91117215531382"><ele>1277.0</ele><time>2026-04-11T09:39:28Z</time></trkpt><trkpt lat="38.20272308169514" lon="15.911215880030895"><ele>1277.0</ele><time>2026-04-11T09:39:29Z</time></trkpt><trkpt lat="38.202662221404026" lon="15.911291138263902"><ele>1277.0</ele><time>2026-04-11T09:39:31Z</time></trkpt><trkpt lat="38.20267128680693" lon="15.911492021625287"><ele>1277.0</ele><time>2026-04-11T09:39:33Z</time></trkpt><trkpt lat="38.202679484187115" lon="15.911618396831788"><ele>1277.0</ele><time>2026-04-11T09:39:34Z</time></trkpt><trkpt lat="38.202720502636446" lon="15.91170112399711"><ele>1277.0</ele><time>2026-04-11T09:39:35Z</time></trkpt><trkpt lat="38.202786620451" lon="15.911785671231492"><ele>1277.0</ele><time>2026-04-11T09:39:36Z</time></trkpt><trkpt lat="38.202856136674974" lon="15.911862298676462"><ele>1277.0</ele><time>2026-04-11T09:39:37Z</time></trkpt><trkpt lat="38.202996194758" lon="15.911951156029389"><ele>1277.5</ele><time>2026-04-11T09:39:38Z</time></trkpt><trkpt lat="38.20310046130439" lon="15.911998087980717"><ele>1278.0</ele><time>2026-04-11T09:39:39Z</time></trkpt><trkpt lat="38.2032148687807" lon="15.912034771229559"><ele>1278.5</ele><time>2026-04-11T09:39:40Z</time></trkpt><trkpt lat="38.2033602079532" lon="15.91208223136656"><ele>1279.0</ele><time>2026-04-11T09:39:41Z</time></trkpt><trkpt lat="38.20345307451788" lon="15.91210702700613"><ele>1279.0</ele><time>2026-04-11T09:39:42Z</time></trkpt><trkpt lat="38.20353647039487" lon="15.912101711937751"><ele>1279.0</ele><time>2026-04-11T09:39:43Z</time></trkpt><trkpt lat="38.20361088318463" lon="15.912084243941615"><ele>1279.0</ele><time>2026-04-11T09:39:44Z</time></trkpt><trkpt lat="38.20367987878857" lon="15.91205035987018"><ele>1279.0</ele><time>2026-04-11T09:39:45Z</time></trkpt><trkpt lat="38.203744397224895" lon="15.912078110888643"><ele>1279.0</ele><time>2026-04-11T09:39:47Z</time></trkpt><trkpt lat="38.20370439968698" lon="15.912184108469978"><ele>1279.0</ele><time>2026-04-11T09:39:49Z</time></trkpt><trkpt lat="38.20365584606415" lon="15.912248729005233"><ele>1279.0</ele><time>2026-04-11T09:39:50Z</time></trkpt><trkpt lat="38.20354272772958" lon="15.912270928736644"><ele>1279.0</ele><time>2026-04-11T09:39:52Z</time></trkpt><trkpt lat="38.20345051281461" lon="15.912290259379583"><ele>1279.0</ele><time>2026-04-11T09:39:54Z</time></trkpt><trkpt lat="38.20337011444496" lon="15.91233445413692"><ele>1279.0</ele><time>2026-04-11T09:39:55Z</time></trkpt><trkpt lat="38.20330696964026" lon="15.91237212619472"><ele>1279.0</ele><time>2026-04-11T09:39:57Z</time></trkpt><trkpt lat="38.20324234450154" lon="15.912347148507836"><ele>1279.0</ele><time>2026-04-11T09:40:00Z</time></trkpt><trkpt lat="38.203162376414234" lon="15.912365629531347"><ele>1279.0</ele><time>2026-04-11T09:40:02Z</time></trkpt><trkpt lat="38.20327757035595" lon="15.912508182300433"><ele>1279.0</ele><time>2026-04-11T09:40:05Z</time></trkpt><trkpt lat="38.203370405459125" lon="15.912537231965489"><ele>1279.0</ele><time>2026-04-11T09:40:06Z</time></trkpt><trkpt lat="38.203498537187166" lon="15.912569658609485"><ele>1279.0</ele><time>2026-04-11T09:40:07Z</time></trkpt><trkpt lat="38.203621790698655" lon="15.91261637187893"><ele>1282.4</ele><time>2026-04-11T09:40:08Z</time></trkpt><trkpt lat="38.20371087256606" lon="15.912630948735991"><ele>1285.8000000000002</ele><time>2026-04-11T09:40:09Z</time></trkpt><trkpt lat="38.20383054409831" lon="15.912700908573209"><ele>1289.1999999999998</ele><time>2026-04-11T09:40:11Z</time></trkpt><trkpt lat="38.20386048148855" lon="15.912799151101646"><ele>1292.6</ele><time>2026-04-11T09:40:12Z</time></trkpt><trkpt lat="38.20391852357459" lon="15.912929949739794"><ele>1296.0</ele><time>2026-04-11T09:40:13Z</time></trkpt><trkpt lat="38.20399604612107" lon="15.913095966538027"><ele>1294.0</ele><time>2026-04-11T09:40:14Z</time></trkpt><trkpt lat="38.2040669026179" lon="15.913217465940116"><ele>1292.0</ele><time>2026-04-11T09:40:15Z</time></trkpt><trkpt lat="38.20406822210929" lon="15.91335816230745"><ele>1290.0</ele><time>2026-04-11T09:40:17Z</time></trkpt><trkpt lat="38.20401979966611" lon="15.913414823309719"><ele>1288.0</ele><time>2026-04-11T09:40:18Z</time></trkpt><trkpt lat="38.20389085035627" lon="15.913468741209867"><ele>1286.0</ele><time>2026-04-11T09:40:20Z</time></trkpt><trkpt lat="38.203757134568434" lon="15.913558842994181"><ele>1286.0</ele><time>2026-04-11T09:40:21Z</time></trkpt><trkpt lat="38.203641577513814" lon="15.913642472732523"><ele>1286.0</ele><time>2026-04-11T09:40:22Z</time></trkpt><trkpt lat="38.20353538355432" lon="15.913715101892521"><ele>1286.0</ele><time>2026-04-11T09:40:23Z</time></trkpt><trkpt lat="38.203388339692346" lon="15.913743691179818"><ele>1286.0</ele><time>2026-04-11T09:40:24Z</time></trkpt><trkpt lat="38.203309478339854" lon="15.913819321786995"><ele>1286.0</ele><time>2026-04-11T09:40:25Z</time></trkpt><trkpt lat="38.20326021062708" lon="15.913919546071408"><ele>1286.0</ele><time>2026-04-11T09:40:26Z</time></trkpt><trkpt lat="38.2031771183094" lon="15.91407013264201"><ele>1286.0</ele><time>2026-04-11T09:40:27Z</time></trkpt><trkpt lat="38.20309614986911" lon="15.914194161506094"><ele>1286.0</ele><time>2026-04-11T09:40:28Z</time></trkpt><trkpt lat="38.20300743134064" lon="15.914307980625813"><ele>1288.25</ele><time>2026-04-11T09:40:29Z</time></trkpt><trkpt lat="38.202927373082325" lon="15.914413108301517"><ele>1290.5</ele><time>2026-04-11T09:40:30Z</time></trkpt><trkpt lat="38.202845111804514" lon="15.914539150246323"><ele>1292.75</ele><time>2026-04-11T09:40:31Z</time></trkpt><trkpt lat="38.20275395169069" lon="15.91466712883357"><ele>1295.0</ele><time>2026-04-11T09:40:32Z</time></trkpt><trkpt lat="38.2026968189285" lon="15.914766069667728"><ele>1295.0</ele><time>2026-04-11T09:40:33Z</time></trkpt><trkpt lat="38.20263428397019" lon="15.914802874272167"><ele>1295.0</ele><time>2026-04-11T09:40:34Z</time></trkpt><trkpt lat="38.202563588595396" lon="15.914849120945204"><ele>1295.0</ele><time>2026-04-11T09:40:35Z</time></trkpt><trkpt lat="38.20249295803894" lon="15.914816171214195"><ele>1295.0</ele><time>2026-04-11T09:40:36.001Z</time></trkpt><trkpt lat="38.20239252617745" lon="15.914854695728389"><ele>1295.0</ele><time>2026-04-11T09:40:37.001Z</time></trkpt><trkpt lat="38.20230722162592" lon="15.914907160892112"><ele>1295.0</ele><time>2026-04-11T09:40:38.001Z</time></trkpt><trkpt lat="38.20222422477619" lon="15.915020651573748"><ele>1295.8</ele><time>2026-04-11T09:40:39.001Z</time></trkpt><trkpt lat="38.20214636736549" lon="15.91513118992777"><ele>1296.6</ele><time>2026-04-11T09:40:40.001Z</time></trkpt><trkpt lat="38.202083670667434" lon="15.91522739207626"><ele>1297.4</ele><time>2026-04-11T09:40:41.001Z</time></trkpt><trkpt lat="38.20196469073115" lon="15.915292937436512"><ele>1298.2</ele><time>2026-04-11T09:40:43.001Z</time></trkpt><trkpt lat="38.20187839115211" lon="15.91528135623633"><ele>1299.0</ele><time>2026-04-11T09:40:44.001Z</time></trkpt><trkpt lat="38.20176456152903" lon="15.915287052557352"><ele>1299.0</ele><time>2026-04-11T09:40:45.001Z</time></trkpt><trkpt lat="38.20168636894115" lon="15.915256822518186"><ele>1299.0</ele><time>2026-04-11T09:40:46.001Z</time></trkpt><trkpt lat="38.201624340498256" lon="15.915271345083566"><ele>1299.0</ele><time>2026-04-11T09:40:47.001Z</time></trkpt><trkpt lat="38.2015840935142" lon="15.915395279325297"><ele>1299.0</ele><time>2026-04-11T09:40:49.001Z</time></trkpt><trkpt lat="38.20158086024292" lon="15.915507140521555"><ele>1299.0</ele><time>2026-04-11T09:40:51.001Z</time></trkpt><trkpt lat="38.20157089758798" lon="15.915703347970979"><ele>1299.0</ele><time>2026-04-11T09:40:53.001Z</time></trkpt><trkpt lat="38.20154226734465" lon="15.915807759214529"><ele>1299.0</ele><time>2026-04-11T09:40:54.001Z</time></trkpt><trkpt lat="38.201488727022664" lon="15.91590525728884"><ele>1299.0</ele><time>2026-04-11T09:40:55.001Z</time></trkpt><trkpt lat="38.201420070344824" lon="15.91595603531842"><ele>1299.0</ele><time>2026-04-11T09:40:56.001Z</time></trkpt><trkpt lat="38.20136383085353" lon="15.915995483370379"><ele>1299.0</ele><time>2026-04-11T09:40:57.001Z</time></trkpt><trkpt lat="38.20129007596177" lon="15.91600510318312"><ele>1299.0</ele><time>2026-04-11T09:40:58.001Z</time></trkpt><trkpt lat="38.20119725688334" lon="15.915981517366783"><ele>1300.5</ele><time>2026-04-11T09:40:59.001Z</time></trkpt><trkpt lat="38.20112102341939" lon="15.915973756221666"><ele>1302.0</ele><time>2026-04-11T09:41:00.001Z</time></trkpt><trkpt lat="38.20103884923956" lon="15.915898334664526"><ele>1303.5</ele><time>2026-04-11T09:41:01Z</time></trkpt><trkpt lat="38.20096780833865" lon="15.915896351239285"><ele>1305.0</ele><time>2026-04-11T09:41:02Z</time></trkpt><trkpt lat="38.20088723608476" lon="15.91591536320336"><ele>1306.5</ele><time>2026-04-11T09:41:03Z</time></trkpt><trkpt lat="38.200799144902206" lon="15.915945067054276"><ele>1308.0</ele><time>2026-04-11T09:41:04Z</time></trkpt><trkpt lat="38.200660004345195" lon="15.916047736708975"><ele>1308.2</ele><time>2026-04-11T09:41:06Z</time></trkpt><trkpt lat="38.20058256628371" lon="15.916123861630112"><ele>1308.4</ele><time>2026-04-11T09:41:07Z</time></trkpt><trkpt lat="38.200498102398846" lon="15.916191258802947"><ele>1308.6000000000001</ele><time>2026-04-11T09:41:08Z</time></trkpt><trkpt lat="38.200418826031395" lon="15.916218403404928"><ele>1308.8000000000002</ele><time>2026-04-11T09:41:09Z</time></trkpt><trkpt lat="38.20029702563168" lon="15.916228926883427"><ele>1309.0</ele><time>2026-04-11T09:41:10Z</time></trkpt><trkpt lat="38.20018864117192" lon="15.91624672798268"><ele>1309.0</ele><time>2026-04-11T09:41:11Z</time></trkpt><trkpt lat="38.20011998487344" lon="15.916271977126742"><ele>1309.0</ele><time>2026-04-11T09:41:12Z</time></trkpt><trkpt lat="38.200032191376636" lon="15.916288630454272"><ele>1309.0</ele><time>2026-04-11T09:41:14Z</time></trkpt><trkpt lat="38.19999762824242" lon="15.9163668553898"><ele>1309.0</ele><time>2026-04-11T09:41:17Z</time></trkpt><trkpt lat="38.20001331469771" lon="15.91647356659977"><ele>1309.0</ele><time>2026-04-11T09:41:21Z</time></trkpt><trkpt lat="38.20001378666926" lon="15.916641132948982"><ele>1309.0</ele><time>2026-04-11T09:41:23Z</time></trkpt><trkpt lat="38.20004233052083" lon="15.916732094202432"><ele>1310.6</ele><time>2026-04-11T09:41:24Z</time></trkpt><trkpt lat="38.20005948671173" lon="15.916811596652364"><ele>1312.2</ele><time>2026-04-11T09:41:25Z</time></trkpt><trkpt lat="38.200106136408216" lon="15.916973281759828"><ele>1313.8</ele><time>2026-04-11T09:41:26Z</time></trkpt><trkpt lat="38.20015929656801" lon="15.917106774607324"><ele>1315.3999999999999</ele><time>2026-04-11T09:41:27Z</time></trkpt><trkpt lat="38.200219690619335" lon="15.91715870314007"><ele>1317.0</ele><time>2026-04-11T09:41:28Z</time></trkpt><trkpt lat="38.200291164836194" lon="15.917183288450962"><ele>1317.0</ele><time>2026-04-11T09:41:29Z</time></trkpt><trkpt lat="38.20035678493674" lon="15.917199066257682"><ele>1317.0</ele><time>2026-04-11T09:41:30Z</time></trkpt><trkpt lat="38.200476541167056" lon="15.917168514223004"><ele>1317.0</ele><time>2026-04-11T09:41:32Z</time></trkpt><trkpt lat="38.20052306731101" lon="15.917099814129365"><ele>1317.0</ele><time>2026-04-11T09:41:33Z</time></trkpt><trkpt lat="38.200600708346236" lon="15.91700749625943"><ele>1317.0</ele><time>2026-04-11T09:41:34Z</time></trkpt><trkpt lat="38.20065812465478" lon="15.916912619337198"><ele>1318.0</ele><time>2026-04-11T09:41:35Z</time></trkpt><trkpt lat="38.20071356223779" lon="15.91685682064038"><ele>1319.0</ele><time>2026-04-11T09:41:36Z</time></trkpt><trkpt lat="38.200781606903746" lon="15.916849041584205"><ele>1320.0</ele><time>2026-04-11T09:41:37Z</time></trkpt><trkpt lat="38.20084918777397" lon="15.916846058416079"><ele>1321.0</ele><time>2026-04-11T09:41:38Z</time></trkpt><trkpt lat="38.20100121513774" lon="15.916940796365472"><ele>1322.0</ele><time>2026-04-11T09:41:40Z</time></trkpt><trkpt lat="38.201082463616494" lon="15.917029841390736"><ele>1322.0</ele><time>2026-04-11T09:41:41Z</time></trkpt><trkpt lat="38.201169687519" lon="15.91710567175676"><ele>1322.0</ele><time>2026-04-11T09:41:42Z</time></trkpt><trkpt lat="38.20127315349014" lon="15.917169049813078"><ele>1322.0</ele><time>2026-04-11T09:41:43Z</time></trkpt><trkpt lat="38.20138906880831" lon="15.91721180233341"><ele>1322.0</ele><time>2026-04-11T09:41:44Z</time></trkpt><trkpt lat="38.20147983227084" lon="15.917231175933955"><ele>1322.0</ele><time>2026-04-11T09:41:45Z</time></trkpt><trkpt lat="38.20156312871308" lon="15.917277445119971"><ele>1322.6666666666667</ele><time>2026-04-11T09:41:46Z</time></trkpt><trkpt lat="38.20173172489443" lon="15.917226279938111"><ele>1323.3333333333333</ele><time>2026-04-11T09:41:47Z</time></trkpt><trkpt lat="38.20191861959638" lon="15.917205443153968"><ele>1324.0</ele><time>2026-04-11T09:41:48Z</time></trkpt><trkpt lat="38.20211020585749" lon="15.917205891574389"><ele>1324.0</ele><time>2026-04-11T09:41:49Z</time></trkpt><trkpt lat="38.202303599004196" lon="15.917215998205224"><ele>1324.0</ele><time>2026-04-11T09:41:50Z</time></trkpt><trkpt lat="38.202484874392646" lon="15.917232786748206"><ele>1324.0</ele><time>2026-04-11T09:41:51Z</time></trkpt><trkpt lat="38.202658531366716" lon="15.91723511996725"><ele>1324.6666666666665</ele><time>2026-04-11T09:41:52Z</time></trkpt><trkpt lat="38.2028295799256" lon="15.91722429865783"><ele>1325.3333333333333</ele><time>2026-04-11T09:41:53Z</time></trkpt><trkpt lat="38.20296363807479" lon="15.917264383676997"><ele>1326.0</ele><time>2026-04-11T09:41:54Z</time></trkpt><trkpt lat="38.203107947585835" lon="15.917264178085642"><ele>1325.0</ele><time>2026-04-11T09:41:55Z</time></trkpt><trkpt lat="38.20325574887478" lon="15.91725272459958"><ele>1324.0</ele><time>2026-04-11T09:41:56Z</time></trkpt><trkpt lat="38.203372982128066" lon="15.917226202158384"><ele>1323.0</ele><time>2026-04-11T09:41:57Z</time></trkpt><trkpt lat="38.20347975915362" lon="15.917262424357503"><ele>1322.0</ele><time>2026-04-11T09:41:58Z</time></trkpt><trkpt lat="38.203585685605894" lon="15.917264039919743"><ele>1322.0</ele><time>2026-04-11T09:41:59Z</time></trkpt><trkpt lat="38.20370060169192" lon="15.91726912522486"><ele>1322.0</ele><time>2026-04-11T09:42:00Z</time></trkpt><trkpt lat="38.203812889983695" lon="15.917304899026117"><ele>1322.0</ele><time>2026-04-11T09:42:01Z</time></trkpt><trkpt lat="38.20390739725165" lon="15.917343839726652"><ele>1322.0</ele><time>2026-04-11T09:42:02Z</time></trkpt><trkpt lat="38.20398887730113" lon="15.917374506973145"><ele>1322.0</ele><time>2026-04-11T09:42:03Z</time></trkpt><trkpt lat="38.20406256187322" lon="15.917402700130522"><ele>1321.1666666666667</ele><time>2026-04-11T09:42:04Z</time></trkpt><trkpt lat="38.20416193853333" lon="15.91747635634339"><ele>1320.3333333333335</ele><time>2026-04-11T09:42:06Z</time></trkpt><trkpt lat="38.20422598216553" lon="15.917492564071035"><ele>1319.5</ele><time>2026-04-11T09:42:08Z</time></trkpt><trkpt lat="38.204268260764195" lon="15.91755376759186"><ele>1318.6666666666667</ele><time>2026-04-11T09:42:09Z</time></trkpt><trkpt lat="38.20429774546795" lon="15.917641555376214"><ele>1317.8333333333333</ele><time>2026-04-11T09:42:11Z</time></trkpt><trkpt lat="38.20424095214378" lon="15.917710431497511"><ele>1317.0</ele><time>2026-04-11T09:42:14Z</time></trkpt><trkpt lat="38.20413107117265" lon="15.917643402445359"><ele>1316.1666666666667</ele><time>2026-04-11T09:42:29Z</time></trkpt><trkpt lat="38.20413671330662" lon="15.917748025234772"><ele>1315.3333333333333</ele><time>2026-04-11T09:43:38Z</time></trkpt><trkpt lat="38.20419292024838" lon="15.917704141341643"><ele>1314.5</ele><time>2026-04-11T09:45:30Z</time></trkpt><trkpt lat="38.204122215329534" lon="15.917744092093317"><ele>1313.6666666666665</ele><time>2026-04-11T09:50:14Z</time></trkpt><trkpt lat="38.20418974796488" lon="15.917663638660953"><ele>1312.8333333333333</ele><time>2026-04-11T09:56:13Z</time></trkpt><trkpt lat="38.20416606178132" lon="15.917741953546413"><ele>1312.0</ele><time>2026-04-11T09:56:55Z</time></trkpt><trkpt lat="38.20410011292416" lon="15.917760444106587"><ele>1312.0</ele><time>2026-04-11T09:56:59Z</time></trkpt><trkpt lat="38.20400117532654" lon="15.917852590736187"><ele>1312.0</ele><time>2026-04-11T09:57:02Z</time></trkpt><trkpt lat="38.20392343716713" lon="15.917883072789397"><ele>1312.0</ele><time>2026-04-11T09:57:03Z</time></trkpt><trkpt lat="38.20382789522658" lon="15.917896181060684"><ele>1312.0</ele><time>2026-04-11T09:57:05Z</time></trkpt><trkpt lat="38.20373701862386" lon="15.917889470934126"><ele>1312.0</ele><time>2026-04-11T09:57:07Z</time></trkpt><trkpt lat="38.20362665781596" lon="15.91790733428809"><ele>1312.8</ele><time>2026-04-11T09:57:09Z</time></trkpt><trkpt lat="38.20355828501549" lon="15.917915517845492"><ele>1313.6</ele><time>2026-04-11T09:57:10Z</time></trkpt><trkpt lat="38.203446748009895" lon="15.917900657345962"><ele>1314.3999999999999</ele><time>2026-04-11T09:57:12Z</time></trkpt><trkpt lat="38.203318162545436" lon="15.917942093353778"><ele>1315.1999999999998</ele><time>2026-04-11T09:57:13Z</time></trkpt><trkpt lat="38.20319366403158" lon="15.917971236716959"><ele>1316.0</ele><time>2026-04-11T09:57:14Z</time></trkpt><trkpt lat="38.20304179586981" lon="15.917989369653867"><ele>1318.0</ele><time>2026-04-11T09:57:15Z</time></trkpt><trkpt lat="38.20289698251482" lon="15.918034478527566"><ele>1320.0</ele><time>2026-04-11T09:57:16Z</time></trkpt><trkpt lat="38.20272241866576" lon="15.918059658564752"><ele>1322.0</ele><time>2026-04-11T09:57:17Z</time></trkpt><trkpt lat="38.2025760842771" lon="15.918092424135656"><ele>1322.0</ele><time>2026-04-11T09:57:18Z</time></trkpt><trkpt lat="38.2024212938994" lon="15.918130272375562"><ele>1322.0</ele><time>2026-04-11T09:57:19Z</time></trkpt><trkpt lat="38.202240900835996" lon="15.918179156404818"><ele>1322.0</ele><time>2026-04-11T09:57:20Z</time></trkpt><trkpt lat="38.20207733389891" lon="15.91824944193153"><ele>1324.3333333333335</ele><time>2026-04-11T09:57:21Z</time></trkpt><trkpt lat="38.2019212007047" lon="15.918293608513313"><ele>1326.6666666666667</ele><time>2026-04-11T09:57:22Z</time></trkpt><trkpt lat="38.20177864360758" lon="15.918343730822405"><ele>1329.0</ele><time>2026-04-11T09:57:23Z</time></trkpt><trkpt lat="38.201635046441076" lon="15.918382870372767"><ele>1328.0</ele><time>2026-04-11T09:57:24Z</time></trkpt><trkpt lat="38.201573661103005" lon="15.918409645969835"><ele>1327.0</ele><time>2026-04-11T09:57:25Z</time></trkpt><trkpt lat="38.20147789375026" lon="15.918467330786486"><ele>1326.0</ele><time>2026-04-11T09:57:27Z</time></trkpt><trkpt lat="38.20142311742282" lon="15.918551272168237"><ele>1325.0</ele><time>2026-04-11T09:57:28Z</time></trkpt><trkpt lat="38.20142651491622" lon="15.918699335105723"><ele>1324.0</ele><time>2026-04-11T09:57:29Z</time></trkpt><trkpt lat="38.20145321905847" lon="15.918803131678366"><ele>1324.0</ele><time>2026-04-11T09:57:30Z</time></trkpt><trkpt lat="38.20148689846399" lon="15.918937677714995"><ele>1324.0</ele><time>2026-04-11T09:57:31Z</time></trkpt><trkpt lat="38.20152794288654" lon="15.919122928792099"><ele>1324.0</ele><time>2026-04-11T09:57:32Z</time></trkpt><trkpt lat="38.20157504357109" lon="15.919282445858771"><ele>1324.0</ele><time>2026-04-11T09:57:33Z</time></trkpt><trkpt lat="38.201598216364815" lon="15.919456235045152"><ele>1323.75</ele><time>2026-04-11T09:57:34Z</time></trkpt><trkpt lat="38.20162017523645" lon="15.919631074343494"><ele>1323.5</ele><time>2026-04-11T09:57:35Z</time></trkpt><trkpt lat="38.201633211856965" lon="15.919808614723912"><ele>1323.25</ele><time>2026-04-11T09:57:36Z</time></trkpt><trkpt lat="38.20166333431192" lon="15.919978685805699"><ele>1323.0</ele><time>2026-04-11T09:57:37Z</time></trkpt><trkpt lat="38.20162343682173" lon="15.920158304828238"><ele>1323.0</ele><time>2026-04-11T09:57:38Z</time></trkpt><trkpt lat="38.20162775469925" lon="15.920317142404125"><ele>1323.0</ele><time>2026-04-11T09:57:39Z</time></trkpt><trkpt lat="38.20162229490145" lon="15.92045734574351"><ele>1323.0</ele><time>2026-04-11T09:57:40Z</time></trkpt><trkpt lat="38.20166154697113" lon="15.920579094553535"><ele>1323.0</ele><time>2026-04-11T09:57:41Z</time></trkpt><trkpt lat="38.201736196302505" lon="15.920695149929088"><ele>1323.0</ele><time>2026-04-11T09:57:42Z</time></trkpt><trkpt lat="38.20183904850874" lon="15.920800636302792"><ele>1323.0</ele><time>2026-04-11T09:57:43Z</time></trkpt><trkpt lat="38.201963672677614" lon="15.92089939860037"><ele>1323.0</ele><time>2026-04-11T09:57:44Z</time></trkpt><trkpt lat="38.202071645844036" lon="15.92103467808287"><ele>1323.0</ele><time>2026-04-11T09:57:45Z</time></trkpt><trkpt lat="38.20218713158405" lon="15.921176333534644"><ele>1324.3333333333333</ele><time>2026-04-11T09:57:46Z</time></trkpt><trkpt lat="38.20226022678283" lon="15.921312529683552"><ele>1325.6666666666665</ele><time>2026-04-11T09:57:47Z</time></trkpt><trkpt lat="38.20236508908291" lon="15.921487177120396"><ele>1327.0</ele><time>2026-04-11T09:57:48Z</time></trkpt><trkpt lat="38.2024650475457" lon="15.921625513519217"><ele>1324.0</ele><time>2026-04-11T09:57:49Z</time></trkpt><trkpt lat="38.202565030758834" lon="15.921762110954575"><ele>1321.0</ele><time>2026-04-11T09:57:50Z</time></trkpt><trkpt lat="38.2026597650365" lon="15.921893701709358"><ele>1318.0</ele><time>2026-04-11T09:57:51Z</time></trkpt><trkpt lat="38.202733290924556" lon="15.922009754748611"><ele>1315.0</ele><time>2026-04-11T09:57:52Z</time></trkpt><trkpt lat="38.20279347758016" lon="15.922115372426367"><ele>1315.0</ele><time>2026-04-11T09:57:53Z</time></trkpt><trkpt lat="38.20282322212118" lon="15.922196335838759"><ele>1315.0</ele><time>2026-04-11T09:57:54Z</time></trkpt><trkpt lat="38.202815288823906" lon="15.922278974575834"><ele>1315.0</ele><time>2026-04-11T09:57:55Z</time></trkpt><trkpt lat="38.20277224755075" lon="15.922353721315451"><ele>1315.0</ele><time>2026-04-11T09:57:56Z</time></trkpt><trkpt lat="38.20272289879385" lon="15.92244699597833"><ele>1315.0</ele><time>2026-04-11T09:57:57Z</time></trkpt><trkpt lat="38.20266298509808" lon="15.92259233501594"><ele>1315.0</ele><time>2026-04-11T09:57:58Z</time></trkpt><trkpt lat="38.20261299010026" lon="15.922716867987685"><ele>1314.75</ele><time>2026-04-11T09:57:59Z</time></trkpt><trkpt lat="38.20256883197301" lon="15.922850007460756"><ele>1314.5</ele><time>2026-04-11T09:58:00Z</time></trkpt><trkpt lat="38.20255435952184" lon="15.923007120186574"><ele>1314.25</ele><time>2026-04-11T09:58:01Z</time></trkpt><trkpt lat="38.202603801913966" lon="15.92319086416536"><ele>1314.0</ele><time>2026-04-11T09:58:02Z</time></trkpt><trkpt lat="38.20261814668688" lon="15.923371005695625"><ele>1314.4</ele><time>2026-04-11T09:58:03Z</time></trkpt><trkpt lat="38.202635719371685" lon="15.923488262401413"><ele>1314.8000000000002</ele><time>2026-04-11T09:58:04Z</time></trkpt><trkpt lat="38.202644476028716" lon="15.923610339018678"><ele>1315.1999999999998</ele><time>2026-04-11T09:58:05Z</time></trkpt><trkpt lat="38.202636267934984" lon="15.923724304939688"><ele>1315.6</ele><time>2026-04-11T09:58:06Z</time></trkpt><trkpt lat="38.20261123484154" lon="15.923841959435524"><ele>1316.0</ele><time>2026-04-11T09:58:07Z</time></trkpt><trkpt lat="38.20257194053148" lon="15.923990681470404"><ele>1316.0</ele><time>2026-04-11T09:58:08Z</time></trkpt><trkpt lat="38.20252435784356" lon="15.924127697448546"><ele>1316.0</ele><time>2026-04-11T09:58:09Z</time></trkpt><trkpt lat="38.20246800503005" lon="15.924239648635965"><ele>1316.0</ele><time>2026-04-11T09:58:10Z</time></trkpt><trkpt lat="38.20237834654505" lon="15.924349606680765"><ele>1316.0</ele><time>2026-04-11T09:58:11Z</time></trkpt><trkpt lat="38.20231260977832" lon="15.924487402020494"><ele>1315.0</ele><time>2026-04-11T09:58:12Z</time></trkpt><trkpt lat="38.2022805144389" lon="15.924608534537116"><ele>1314.0</ele><time>2026-04-11T09:58:13Z</time></trkpt><trkpt lat="38.202264510302214" lon="15.924720928555443"><ele>1313.0</ele><time>2026-04-11T09:58:14Z</time></trkpt><trkpt lat="38.20226423681494" lon="15.924836797530261"><ele>1312.0</ele><time>2026-04-11T09:58:15Z</time></trkpt><trkpt lat="38.20231298093715" lon="15.92502588648191"><ele>1311.0</ele><time>2026-04-11T09:58:16Z</time></trkpt><trkpt lat="38.20237905114803" lon="15.925162918967791"><ele>1311.0</ele><time>2026-04-11T09:58:17Z</time></trkpt><trkpt lat="38.20242725619333" lon="15.925352043427155"><ele>1311.0</ele><time>2026-04-11T09:58:18Z</time></trkpt><trkpt lat="38.20246951306301" lon="15.92553637588331"><ele>1311.0</ele><time>2026-04-11T09:58:19Z</time></trkpt><trkpt lat="38.20250605975611" lon="15.925726191889405"><ele>1310.3333333333333</ele><time>2026-04-11T09:58:20Z</time></trkpt><trkpt lat="38.20253890182678" lon="15.925919093554466"><ele>1309.6666666666665</ele><time>2026-04-11T09:58:21Z</time></trkpt><trkpt lat="38.20256925893956" lon="15.926113286031176"><ele>1309.0</ele><time>2026-04-11T09:58:22Z</time></trkpt><trkpt lat="38.20260756147615" lon="15.926359511897706"><ele>1309.0</ele><time>2026-04-11T09:58:23Z</time></trkpt><trkpt lat="38.20264097289421" lon="15.926574295497899"><ele>1309.0</ele><time>2026-04-11T09:58:24Z</time></trkpt><trkpt lat="38.202679437882544" lon="15.926815631721468"><ele>1309.0</ele><time>2026-04-11T09:58:25Z</time></trkpt><trkpt lat="38.20272955684551" lon="15.927078175335078"><ele>1307.3333333333333</ele><time>2026-04-11T09:58:26Z</time></trkpt><trkpt lat="38.202772567793204" lon="15.927289750287638"><ele>1305.6666666666667</ele><time>2026-04-11T09:58:27Z</time></trkpt><trkpt lat="38.20281044577383" lon="15.927480124601113"><ele>1304.0</ele><time>2026-04-11T09:58:28Z</time></trkpt><trkpt lat="38.20284436320659" lon="15.92770442625852"><ele>1302.3333333333335</ele><time>2026-04-11T09:58:29Z</time></trkpt><trkpt lat="38.20287814912294" lon="15.927924790589394"><ele>1300.6666666666667</ele><time>2026-04-11T09:58:30Z</time></trkpt><trkpt lat="38.202884909191056" lon="15.928131295466214"><ele>1299.0</ele><time>2026-04-11T09:58:31Z</time></trkpt><trkpt lat="38.20290619765818" lon="15.928346438951772"><ele>1298.5</ele><time>2026-04-11T09:58:32Z</time></trkpt><trkpt lat="38.202927632640254" lon="15.928561693279077"><ele>1298.0</ele><time>2026-04-11T09:58:33Z</time></trkpt><trkpt lat="38.20294047166815" lon="15.928722679034028"><ele>1297.5</ele><time>2026-04-11T09:58:34Z</time></trkpt><trkpt lat="38.202946706035696" lon="15.928892506305123"><ele>1297.0</ele><time>2026-04-11T09:58:35Z</time></trkpt><trkpt lat="38.20293159101648" lon="15.929020532528165"><ele>1297.0</ele><time>2026-04-11T09:58:36Z</time></trkpt><trkpt lat="38.20287696270253" lon="15.929172361492101"><ele>1297.0</ele><time>2026-04-11T09:58:37Z</time></trkpt><trkpt lat="38.202832582979305" lon="15.929324348372312"><ele>1297.0</ele><time>2026-04-11T09:58:38Z</time></trkpt><trkpt lat="38.20277487975869" lon="15.929511223136345"><ele>1297.0</ele><time>2026-04-11T09:58:39Z</time></trkpt><trkpt lat="38.20271262255798" lon="15.929710407190882"><ele>1296.5</ele><time>2026-04-11T09:58:40Z</time></trkpt><trkpt lat="38.20264606317715" lon="15.929882663660232"><ele>1296.0</ele><time>2026-04-11T09:58:41Z</time></trkpt><trkpt lat="38.20259026008034" lon="15.930035971001024"><ele>1295.5</ele><time>2026-04-11T09:58:42Z</time></trkpt><trkpt lat="38.20251149011271" lon="15.930211998743786"><ele>1295.0</ele><time>2026-04-11T09:58:43Z</time></trkpt><trkpt lat="38.202459109884614" lon="15.930373494162577"><ele>1295.0</ele><time>2026-04-11T09:58:44Z</time></trkpt><trkpt lat="38.20241793562123" lon="15.930519217792586"><ele>1295.0</ele><time>2026-04-11T09:58:45Z</time></trkpt><trkpt lat="38.202389920330525" lon="15.93063650899444"><ele>1295.0</ele><time>2026-04-11T09:58:46Z</time></trkpt><trkpt lat="38.20244801982454" lon="15.930800867283196"><ele>1295.0</ele><time>2026-04-11T09:58:48Z</time></trkpt><trkpt lat="38.20253608743549" lon="15.930890195345146"><ele>1297.5</ele><time>2026-04-11T09:58:49Z</time></trkpt><trkpt lat="38.202668952816815" lon="15.93092628816534"><ele>1300.0</ele><time>2026-04-11T09:58:50Z</time></trkpt><trkpt lat="38.20279200312186" lon="15.930981211865127"><ele>1302.5</ele><time>2026-04-11T09:58:51Z</time></trkpt><trkpt lat="38.2028865092819" lon="15.93104624438566"><ele>1305.0</ele><time>2026-04-11T09:58:52Z</time></trkpt><trkpt lat="38.20293505863371" lon="15.931191792164359"><ele>1305.0</ele><time>2026-04-11T09:58:53Z</time></trkpt><trkpt lat="38.20297221425854" lon="15.931293488859218"><ele>1305.0</ele><time>2026-04-11T09:58:54Z</time></trkpt><trkpt lat="38.2029869550166" lon="15.931417809699322"><ele>1305.0</ele><time>2026-04-11T09:58:55Z</time></trkpt><trkpt lat="38.203002846154455" lon="15.93155002760413"><ele>1305.0</ele><time>2026-04-11T09:58:56Z</time></trkpt><trkpt lat="38.20303652240469" lon="15.931692404328471"><ele>1305.0</ele><time>2026-04-11T09:58:57Z</time></trkpt><trkpt lat="38.203128294014206" lon="15.931824302543108"><ele>1303.5</ele><time>2026-04-11T09:58:58Z</time></trkpt><trkpt lat="38.20322112822881" lon="15.931933691850174"><ele>1302.0</ele><time>2026-04-11T09:58:59Z</time></trkpt><trkpt lat="38.20332320584289" lon="15.932045054459918"><ele>1300.5</ele><time>2026-04-11T09:59:00Z</time></trkpt><trkpt lat="38.20338520454136" lon="15.932183307846115"><ele>1299.0</ele><time>2026-04-11T09:59:01Z</time></trkpt><trkpt lat="38.203424402871434" lon="15.932308006873441"><ele>1299.0</ele><time>2026-04-11T09:59:02Z</time></trkpt><trkpt lat="38.203465520591" lon="15.932416260697014"><ele>1299.0</ele><time>2026-04-11T09:59:03Z</time></trkpt><trkpt lat="38.20350729693046" lon="15.932541352830688"><ele>1299.0</ele><time>2026-04-11T09:59:04Z</time></trkpt><trkpt lat="38.20349319149927" lon="15.932693356772536"><ele>1299.0</ele><time>2026-04-11T09:59:05Z</time></trkpt><trkpt lat="38.2034859189104" lon="15.932851689167206"><ele>1299.0</ele><time>2026-04-11T09:59:06Z</time></trkpt><trkpt lat="38.203472628303324" lon="15.93302409204078"><ele>1300.0</ele><time>2026-04-11T09:59:07Z</time></trkpt><trkpt lat="38.20349214400768" lon="15.933180248876946"><ele>1301.0</ele><time>2026-04-11T09:59:08Z</time></trkpt><trkpt lat="38.20353173200765" lon="15.933322732641424"><ele>1302.0</ele><time>2026-04-11T09:59:09Z</time></trkpt><trkpt lat="38.203587728641175" lon="15.933442870049548"><ele>1303.0</ele><time>2026-04-11T09:59:10Z</time></trkpt><trkpt lat="38.203670780463845" lon="15.933556169303836"><ele>1300.2</ele><time>2026-04-11T09:59:11Z</time></trkpt><trkpt lat="38.20374152058383" lon="15.93367771295307"><ele>1297.4</ele><time>2026-04-11T09:59:12Z</time></trkpt><trkpt lat="38.20382908003568" lon="15.933776993532252"><ele>1294.6000000000001</ele><time>2026-04-11T09:59:13Z</time></trkpt><trkpt lat="38.203912082652124" lon="15.933865979336348"><ele>1291.8000000000002</ele><time>2026-04-11T09:59:14Z</time></trkpt><trkpt lat="38.203935831217315" lon="15.933981348637156"><ele>1289.0</ele><time>2026-04-11T09:59:16Z</time></trkpt><trkpt lat="38.203874351533166" lon="15.93406361747844"><ele>1289.0</ele><time>2026-04-11T09:59:17Z</time></trkpt><trkpt lat="38.203801244812325" lon="15.934183007657932"><ele>1289.0</ele><time>2026-04-11T09:59:18Z</time></trkpt><trkpt lat="38.20370589825547" lon="15.93421970762292"><ele>1289.0</ele><time>2026-04-11T09:59:19Z</time></trkpt><trkpt lat="38.20356962258695" lon="15.934239054681449"><ele>1289.0</ele><time>2026-04-11T09:59:20Z</time></trkpt><trkpt lat="38.203429941961204" lon="15.934252863666293"><ele>1287.5</ele><time>2026-04-11T09:59:21Z</time></trkpt><trkpt lat="38.20331074962422" lon="15.934281130699258"><ele>1286.0</ele><time>2026-04-11T09:59:22Z</time></trkpt><trkpt lat="38.20320318497892" lon="15.934348672048344"><ele>1284.5</ele><time>2026-04-11T09:59:23Z</time></trkpt><trkpt lat="38.20308995507789" lon="15.93446697534073"><ele>1283.0</ele><time>2026-04-11T09:59:24Z</time></trkpt><trkpt lat="38.202988250274885" lon="15.934601904939527"><ele>1283.0</ele><time>2026-04-11T09:59:25Z</time></trkpt><trkpt lat="38.20288778147457" lon="15.934706607640399"><ele>1283.0</ele><time>2026-04-11T09:59:26Z</time></trkpt><trkpt lat="38.202786089606285" lon="15.934806514673635"><ele>1283.0</ele><time>2026-04-11T09:59:27Z</time></trkpt><trkpt lat="38.20268092413581" lon="15.934902317744314"><ele>1283.0</ele><time>2026-04-11T09:59:28Z</time></trkpt><trkpt lat="38.20257061091278" lon="15.934974736594102"><ele>1283.0</ele><time>2026-04-11T09:59:29Z</time></trkpt><trkpt lat="38.20246878437035" lon="15.935035695791006"><ele>1283.0</ele><time>2026-04-11T09:59:30Z</time></trkpt><trkpt lat="38.20238952328131" lon="15.935107781269622"><ele>1283.0</ele><time>2026-04-11T09:59:31Z</time></trkpt><trkpt lat="38.20232070071493" lon="15.935197628580456"><ele>1283.0</ele><time>2026-04-11T09:59:32Z</time></trkpt><trkpt lat="38.20223899098519" lon="15.93527204661085"><ele>1283.0</ele><time>2026-04-11T09:59:33Z</time></trkpt><trkpt lat="38.20215491982338" lon="15.935389927541769"><ele>1284.2</ele><time>2026-04-11T09:59:34Z</time></trkpt><trkpt lat="38.202114301895044" lon="15.935474959272964"><ele>1285.4</ele><time>2026-04-11T09:59:35Z</time></trkpt><trkpt lat="38.20210521354892" lon="15.935591046530172"><ele>1286.6000000000001</ele><time>2026-04-11T09:59:36Z</time></trkpt><trkpt lat="38.20211655334955" lon="15.935707381850793"><ele>1287.8000000000002</ele><time>2026-04-11T09:59:37Z</time></trkpt><trkpt lat="38.20212908179685" lon="15.93583261724571"><ele>1289.0</ele><time>2026-04-11T09:59:38Z</time></trkpt><trkpt lat="38.2021582305769" lon="15.935943522185394"><ele>1287.8000000000002</ele><time>2026-04-11T09:59:39Z</time></trkpt><trkpt lat="38.20220956650664" lon="15.93603788424834"><ele>1286.6000000000001</ele><time>2026-04-11T09:59:40Z</time></trkpt><trkpt lat="38.202290720405074" lon="15.936099159089077"><ele>1285.4</ele><time>2026-04-11T09:59:41Z</time></trkpt><trkpt lat="38.20237198239801" lon="15.936136419872083"><ele>1284.2</ele><time>2026-04-11T09:59:42Z</time></trkpt><trkpt lat="38.20249311750406" lon="15.936135357428116"><ele>1283.0</ele><time>2026-04-11T09:59:43Z</time></trkpt><trkpt lat="38.20262762284525" lon="15.936142944578423"><ele>1283.0</ele><time>2026-04-11T09:59:44Z</time></trkpt><trkpt lat="38.20275666448137" lon="15.936150178672834"><ele>1283.0</ele><time>2026-04-11T09:59:45Z</time></trkpt><trkpt lat="38.20288040275872" lon="15.93617810908428"><ele>1283.0</ele><time>2026-04-11T09:59:46Z</time></trkpt><trkpt lat="38.20298166070654" lon="15.936199589198152"><ele>1283.0</ele><time>2026-04-11T09:59:47Z</time></trkpt><trkpt lat="38.2030667349003" lon="15.936206212255184"><ele>1283.0</ele><time>2026-04-11T09:59:48Z</time></trkpt><trkpt lat="38.20315082666622" lon="15.936201762763627"><ele>1279.8333333333335</ele><time>2026-04-11T09:59:49Z</time></trkpt><trkpt lat="38.20322788625259" lon="15.936210728087904"><ele>1276.6666666666667</ele><time>2026-04-11T09:59:50Z</time></trkpt><trkpt lat="38.20329349875222" lon="15.936235072384573"><ele>1273.5</ele><time>2026-04-11T09:59:51Z</time></trkpt><trkpt lat="38.20334584111746" lon="15.9362843138305"><ele>1270.3333333333333</ele><time>2026-04-11T09:59:52Z</time></trkpt><trkpt lat="38.20338423631594" lon="15.936363909290066"><ele>1267.1666666666665</ele><time>2026-04-11T09:59:53Z</time></trkpt><trkpt lat="38.203395201059024" lon="15.936477532832987"><ele>1264.0</ele><time>2026-04-11T09:59:54Z</time></trkpt><trkpt lat="38.20339053107613" lon="15.93659099485813"><ele>1264.0</ele><time>2026-04-11T09:59:55Z</time></trkpt><trkpt lat="38.203371218391865" lon="15.936707829559714"><ele>1264.0</ele><time>2026-04-11T09:59:56Z</time></trkpt><trkpt lat="38.20336376395795" lon="15.936794205567478"><ele>1264.0</ele><time>2026-04-11T09:59:57Z</time></trkpt><trkpt lat="38.203379621792145" lon="15.937038639284726"><ele>1264.0</ele><time>2026-04-11T09:59:59Z</time></trkpt><trkpt lat="38.20345020058087" lon="15.937174986885921"><ele>1264.75</ele><time>2026-04-11T10:00:00Z</time></trkpt><trkpt lat="38.20351983526209" lon="15.937326167195627"><ele>1265.5</ele><time>2026-04-11T10:00:01Z</time></trkpt><trkpt lat="38.203574365852745" lon="15.937472615594812"><ele>1266.25</ele><time>2026-04-11T10:00:02Z</time></trkpt><trkpt lat="38.203637236224495" lon="15.937601869338753"><ele>1267.0</ele><time>2026-04-11T10:00:03Z</time></trkpt><trkpt lat="38.203684451497544" lon="15.937722456250125"><ele>1267.0</ele><time>2026-04-11T10:00:04Z</time></trkpt><trkpt lat="38.20372619073662" lon="15.93784397548966"><ele>1267.0</ele><time>2026-04-11T10:00:05Z</time></trkpt><trkpt lat="38.20376514606065" lon="15.937948384537439"><ele>1267.0</ele><time>2026-04-11T10:00:06Z</time></trkpt><trkpt lat="38.20380275672371" lon="15.938048103047274"><ele>1267.0</ele><time>2026-04-11T10:00:07Z</time></trkpt><trkpt lat="38.20382753958444" lon="15.938126558063596"><ele>1267.0</ele><time>2026-04-11T10:00:08Z</time></trkpt><trkpt lat="38.20384756834579" lon="15.938222728933757"><ele>1267.0</ele><time>2026-04-11T10:00:09Z</time></trkpt><trkpt lat="38.203850987304094" lon="15.93832013883937"><ele>1265.3333333333333</ele><time>2026-04-11T10:00:10Z</time></trkpt><trkpt lat="38.203845689694816" lon="15.938426869939088"><ele>1263.6666666666665</ele><time>2026-04-11T10:00:11Z</time></trkpt><trkpt lat="38.203833529869186" lon="15.938525233060584"><ele>1262.0</ele><time>2026-04-11T10:00:12Z</time></trkpt><trkpt lat="38.20378616782718" lon="15.938631956204654"><ele>1260.3333333333333</ele><time>2026-04-11T10:00:13Z</time></trkpt><trkpt lat="38.20370184054911" lon="15.938695344526636"><ele>1258.6666666666667</ele><time>2026-04-11T10:00:14Z</time></trkpt><trkpt lat="38.20362509716724" lon="15.938752943497862"><ele>1257.0</ele><time>2026-04-11T10:00:15Z</time></trkpt><trkpt lat="38.203558208079635" lon="15.938810962206261"><ele>1257.0</ele><time>2026-04-11T10:00:16Z</time></trkpt><trkpt lat="38.20350769706804" lon="15.938878126909804"><ele>1257.0</ele><time>2026-04-11T10:00:17Z</time></trkpt><trkpt lat="38.20347711609949" lon="15.938957679736832"><ele>1257.0</ele><time>2026-04-11T10:00:18Z</time></trkpt><trkpt lat="38.20350613966365" lon="15.939110027241709"><ele>1257.0</ele><time>2026-04-11T10:00:20Z</time></trkpt><trkpt lat="38.20355908551819" lon="15.93919561199062"><ele>1257.0</ele><time>2026-04-11T10:00:21Z</time></trkpt><trkpt lat="38.20359374147139" lon="15.939283108392518"><ele>1257.0</ele><time>2026-04-11T10:00:22Z</time></trkpt><trkpt lat="38.20362744361496" lon="15.939379285076974"><ele>1256.1666666666667</ele><time>2026-04-11T10:00:23Z</time></trkpt><trkpt lat="38.203666069796554" lon="15.939508830838344"><ele>1255.3333333333333</ele><time>2026-04-11T10:00:25Z</time></trkpt><trkpt lat="38.2036783959787" lon="15.93959924062461"><ele>1254.5</ele><time>2026-04-11T10:00:26Z</time></trkpt><trkpt lat="38.203666279217934" lon="15.939687875963413"><ele>1253.6666666666665</ele><time>2026-04-11T10:00:27Z</time></trkpt><trkpt lat="38.203643830095125" lon="15.939775024510858"><ele>1252.8333333333333</ele><time>2026-04-11T10:00:28Z</time></trkpt><trkpt lat="38.20357774797614" lon="15.939819355550318"><ele>1252.0</ele><time>2026-04-11T10:00:29Z</time></trkpt><trkpt lat="38.20351656671808" lon="15.939867879443318"><ele>1252.0</ele><time>2026-04-11T10:00:30Z</time></trkpt><trkpt lat="38.203443781884644" lon="15.939904804426961"><ele>1252.0</ele><time>2026-04-11T10:00:31Z</time></trkpt><trkpt lat="38.20339935333883" lon="15.939971372986834"><ele>1252.0</ele><time>2026-04-11T10:00:32Z</time></trkpt><trkpt lat="38.2033334755754" lon="15.94001250804153"><ele>1252.0</ele><time>2026-04-11T10:00:33Z</time></trkpt><trkpt lat="38.20328493084564" lon="15.940093326623728"><ele>1252.0</ele><time>2026-04-11T10:00:34Z</time></trkpt><trkpt lat="38.20326545314022" lon="15.940221392833335"><ele>1252.0</ele><time>2026-04-11T10:00:35Z</time></trkpt><trkpt lat="38.20327218887875" lon="15.940336553886485"><ele>1254.6666666666665</ele><time>2026-04-11T10:00:36Z</time></trkpt><trkpt lat="38.20332720196622" lon="15.940506703030664"><ele>1257.3333333333333</ele><time>2026-04-11T10:00:37Z</time></trkpt><trkpt lat="38.203472902908985" lon="15.940596519632035"><ele>1260.0</ele><time>2026-04-11T10:00:38Z</time></trkpt><trkpt lat="38.20364426490607" lon="15.940565025857339"><ele>1260.0</ele><time>2026-04-11T10:00:39Z</time></trkpt><trkpt lat="38.20378219747156" lon="15.94054523669745"><ele>1260.0</ele><time>2026-04-11T10:00:40Z</time></trkpt><trkpt lat="38.2039330042403" lon="15.94052566591058"><ele>1260.0</ele><time>2026-04-11T10:00:41Z</time></trkpt><trkpt lat="38.20406223232634" lon="15.940509907908496"><ele>1260.0</ele><time>2026-04-11T10:00:42Z</time></trkpt><trkpt lat="38.20419754878747" lon="15.940493572684932"><ele>1259.0</ele><time>2026-04-11T10:00:43Z</time></trkpt><trkpt lat="38.204316371965966" lon="15.940484623725737"><ele>1258.0</ele><time>2026-04-11T10:00:44Z</time></trkpt><trkpt lat="38.204414950891554" lon="15.940488676260582"><ele>1257.0</ele><time>2026-04-11T10:00:45Z</time></trkpt><trkpt lat="38.204508822836196" lon="15.940506066664112"><ele>1256.0</ele><time>2026-04-11T10:00:47Z</time></trkpt><trkpt lat="38.20461422510047" lon="15.9405330800489"><ele>1255.0</ele><time>2026-04-11T10:00:48Z</time></trkpt><trkpt lat="38.2047205158451" lon="15.940570954811145"><ele>1255.0</ele><time>2026-04-11T10:00:49Z</time></trkpt><trkpt lat="38.20481774023326" lon="15.940619808195011"><ele>1255.0</ele><time>2026-04-11T10:00:50Z</time></trkpt><trkpt lat="38.20487648748118" lon="15.94066235418796"><ele>1255.0</ele><time>2026-04-11T10:00:51Z</time></trkpt><trkpt lat="38.20492655092578" lon="15.94072395199023"><ele>1255.0</ele><time>2026-04-11T10:00:52Z</time></trkpt><trkpt lat="38.20497340850154" lon="15.940863669457466"><ele>1255.0</ele><time>2026-04-11T10:00:54Z</time></trkpt><trkpt lat="38.204978642514334" lon="15.940957205072728"><ele>1255.0</ele><time>2026-04-11T10:00:55Z</time></trkpt><trkpt lat="38.20494638468497" lon="15.941037831415203"><ele>1256.25</ele><time>2026-04-11T10:00:56Z</time></trkpt><trkpt lat="38.20487597791629" lon="15.941147928252912"><ele>1257.5</ele><time>2026-04-11T10:00:57Z</time></trkpt><trkpt lat="38.20479666742519" lon="15.941262234651447"><ele>1258.75</ele><time>2026-04-11T10:00:58Z</time></trkpt><trkpt lat="38.20468869706597" lon="15.941425688281909"><ele>1260.0</ele><time>2026-04-11T10:00:59Z</time></trkpt><trkpt lat="38.204632080883385" lon="15.941575131419247"><ele>1261.0</ele><time>2026-04-11T10:01:00Z</time></trkpt><trkpt lat="38.204626237287606" lon="15.9417436122439"><ele>1262.0</ele><time>2026-04-11T10:01:01Z</time></trkpt><trkpt lat="38.20467605455439" lon="15.941898147006235"><ele>1263.0</ele><time>2026-04-11T10:01:02Z</time></trkpt><trkpt lat="38.20475492587893" lon="15.942073361943484"><ele>1264.0</ele><time>2026-04-11T10:01:03Z</time></trkpt><trkpt lat="38.204819499571435" lon="15.942225659208539"><ele>1262.25</ele><time>2026-04-11T10:01:04Z</time></trkpt><trkpt lat="38.20486925915769" lon="15.942367664901449"><ele>1260.5</ele><time>2026-04-11T10:01:05Z</time></trkpt><trkpt lat="38.20493370359503" lon="15.942526538960113"><ele>1258.75</ele><time>2026-04-11T10:01:06Z</time></trkpt><trkpt lat="38.20496571737271" lon="15.942674157825394"><ele>1257.0</ele><time>2026-04-11T10:01:07Z</time></trkpt><trkpt lat="38.205009778734194" lon="15.942805461944834"><ele>1257.0</ele><time>2026-04-11T10:01:08Z</time></trkpt><trkpt lat="38.20506650369657" lon="15.942893861865835"><ele>1257.0</ele><time>2026-04-11T10:01:09Z</time></trkpt><trkpt lat="38.20516164107407" lon="15.94295644341109"><ele>1257.0</ele><time>2026-04-11T10:01:10Z</time></trkpt><trkpt lat="38.20526818638221" lon="15.943003977750944"><ele>1257.0</ele><time>2026-04-11T10:01:11Z</time></trkpt><trkpt lat="38.20537665140415" lon="15.943055588128678"><ele>1257.0</ele><time>2026-04-11T10:01:12Z</time></trkpt><trkpt lat="38.20552894188901" lon="15.943080787298063"><ele>1254.25</ele><time>2026-04-11T10:01:13Z</time></trkpt><trkpt lat="38.20567195496069" lon="15.943126563651653"><ele>1251.5</ele><time>2026-04-11T10:01:14Z</time></trkpt><trkpt lat="38.20580553067132" lon="15.943135041053305"><ele>1248.75</ele><time>2026-04-11T10:01:15Z</time></trkpt><trkpt lat="38.20593940959214" lon="15.943173700634084"><ele>1246.0</ele><time>2026-04-11T10:01:16Z</time></trkpt><trkpt lat="38.20604996107022" lon="15.943192888586507"><ele>1246.0</ele><time>2026-04-11T10:01:17Z</time></trkpt><trkpt lat="38.20617215038586" lon="15.94321344914042"><ele>1246.0</ele><time>2026-04-11T10:01:18Z</time></trkpt><trkpt lat="38.20629855229932" lon="15.9432124019319"><ele>1246.0</ele><time>2026-04-11T10:01:19Z</time></trkpt><trkpt lat="38.20643532230585" lon="15.943193076175111"><ele>1246.0</ele><time>2026-04-11T10:01:20Z</time></trkpt><trkpt lat="38.20659356454771" lon="15.943185602836449"><ele>1244.0</ele><time>2026-04-11T10:01:21Z</time></trkpt><trkpt lat="38.20674457936712" lon="15.943163511132957"><ele>1242.0</ele><time>2026-04-11T10:01:22Z</time></trkpt><trkpt lat="38.206882979612196" lon="15.943148412557003"><ele>1240.0</ele><time>2026-04-11T10:01:23Z</time></trkpt><trkpt lat="38.20702932538118" lon="15.943173553013061"><ele>1238.0</ele><time>2026-04-11T10:01:24Z</time></trkpt><trkpt lat="38.207193984044935" lon="15.943153775117075"><ele>1238.0</ele><time>2026-04-11T10:01:25Z</time></trkpt><trkpt lat="38.20730389823692" lon="15.94316958372535"><ele>1238.0</ele><time>2026-04-11T10:01:26Z</time></trkpt><trkpt lat="38.20739163213425" lon="15.94320605117045"><ele>1238.0</ele><time>2026-04-11T10:01:27Z</time></trkpt><trkpt lat="38.207460233221134" lon="15.94328634093886"><ele>1238.0</ele><time>2026-04-11T10:01:28Z</time></trkpt><trkpt lat="38.207495428688276" lon="15.943398501926675"><ele>1238.0</ele><time>2026-04-11T10:01:29Z</time></trkpt><trkpt lat="38.20753201941218" lon="15.943562858413863"><ele>1236.2</ele><time>2026-04-11T10:01:30Z</time></trkpt><trkpt lat="38.20752987468741" lon="15.943682840472663"><ele>1234.4</ele><time>2026-04-11T10:01:31Z</time></trkpt><trkpt lat="38.20749868078693" lon="15.943798213129298"><ele>1232.6000000000001</ele><time>2026-04-11T10:01:32Z</time></trkpt><trkpt lat="38.20743907134788" lon="15.943917663546037"><ele>1230.8</ele><time>2026-04-11T10:01:33Z</time></trkpt><trkpt lat="38.20733710273166" lon="15.944054283371566"><ele>1229.0</ele><time>2026-04-11T10:01:34Z</time></trkpt><trkpt lat="38.20719716194178" lon="15.944192070619076"><ele>1225.75</ele><time>2026-04-11T10:01:35Z</time></trkpt><trkpt lat="38.207061921818045" lon="15.944310458204185"><ele>1222.5</ele><time>2026-04-11T10:01:36Z</time></trkpt><trkpt lat="38.20694153009054" lon="15.944417354329548"><ele>1219.25</ele><time>2026-04-11T10:01:37Z</time></trkpt><trkpt lat="38.20680812225965" lon="15.944450942808055"><ele>1216.0</ele><time>2026-04-11T10:01:38Z</time></trkpt><trkpt lat="38.206675676848434" lon="15.944424654104132"><ele>1216.0</ele><time>2026-04-11T10:01:39Z</time></trkpt><trkpt lat="38.206548205048556" lon="15.944437268050713"><ele>1216.0</ele><time>2026-04-11T10:01:40Z</time></trkpt><trkpt lat="38.20643909479132" lon="15.944464967373388"><ele>1216.0</ele><time>2026-04-11T10:01:41Z</time></trkpt><trkpt lat="38.20634141352433" lon="15.944557758814154"><ele>1216.0</ele><time>2026-04-11T10:01:42Z</time></trkpt><trkpt lat="38.206229585610444" lon="15.94470420799432"><ele>1218.0</ele><time>2026-04-11T10:01:43Z</time></trkpt><trkpt lat="38.20610810641602" lon="15.944821597640889"><ele>1220.0</ele><time>2026-04-11T10:01:44Z</time></trkpt><trkpt lat="38.20599085024933" lon="15.944842422822244"><ele>1222.0</ele><time>2026-04-11T10:01:45Z</time></trkpt><trkpt lat="38.20587676741248" lon="15.944905798239573"><ele>1224.0</ele><time>2026-04-11T10:01:46Z</time></trkpt><trkpt lat="38.20577864097268" lon="15.944983266093965"><ele>1225.0</ele><time>2026-04-11T10:01:47Z</time></trkpt><trkpt lat="38.20573147112372" lon="15.945057155958633"><ele>1226.0</ele><time>2026-04-11T10:01:48Z</time></trkpt><trkpt lat="38.20571398932755" lon="15.945151458843553"><ele>1227.0</ele><time>2026-04-11T10:01:49Z</time></trkpt><trkpt lat="38.20575428096046" lon="15.945259637390716"><ele>1228.0</ele><time>2026-04-11T10:01:50Z</time></trkpt><trkpt lat="38.20581108898138" lon="15.945338979436494"><ele>1229.0</ele><time>2026-04-11T10:01:51Z</time></trkpt><trkpt lat="38.205866032028496" lon="15.945432366013344"><ele>1230.0</ele><time>2026-04-11T10:01:52Z</time></trkpt><trkpt lat="38.20595950979204" lon="15.945530330738022"><ele>1230.0</ele><time>2026-04-11T10:01:53Z</time></trkpt><trkpt lat="38.20606815479115" lon="15.94562208885184"><ele>1230.0</ele><time>2026-04-11T10:01:54Z</time></trkpt><trkpt lat="38.20619667034904" lon="15.94570692643912"><ele>1230.0</ele><time>2026-04-11T10:01:55Z</time></trkpt><trkpt lat="38.20633753562589" lon="15.94575248514384"><ele>1230.0</ele><time>2026-04-11T10:01:56Z</time></trkpt><trkpt lat="38.20649563054548" lon="15.945769804939454"><ele>1228.3333333333333</ele><time>2026-04-11T10:01:57Z</time></trkpt><trkpt lat="38.20665133385961" lon="15.945795744214449"><ele>1226.6666666666665</ele><time>2026-04-11T10:01:58Z</time></trkpt><trkpt lat="38.20680302141947" lon="15.94582215507264"><ele>1225.0</ele><time>2026-04-11T10:01:59Z</time></trkpt><trkpt lat="38.206937369853584" lon="15.945899485252177"><ele>1226.5</ele><time>2026-04-11T10:02:00Z</time></trkpt><trkpt lat="38.207063174157376" lon="15.945946730117411"><ele>1228.0</ele><time>2026-04-11T10:02:01Z</time></trkpt><trkpt lat="38.20718127958758" lon="15.946043497514093"><ele>1229.5</ele><time>2026-04-11T10:02:02Z</time></trkpt><trkpt lat="38.20729056506676" lon="15.94612598447244"><ele>1231.0</ele><time>2026-04-11T10:02:03Z</time></trkpt><trkpt lat="38.207369819007134" lon="15.946195310439553"><ele>1231.0</ele><time>2026-04-11T10:02:04Z</time></trkpt><trkpt lat="38.20744746888324" lon="15.946269304098813"><ele>1231.0</ele><time>2026-04-11T10:02:05Z</time></trkpt><trkpt lat="38.20752357825682" lon="15.946354053545148"><ele>1231.0</ele><time>2026-04-11T10:02:06Z</time></trkpt><trkpt lat="38.20760982394026" lon="15.946455259550193"><ele>1231.0</ele><time>2026-04-11T10:02:07Z</time></trkpt><trkpt lat="38.20767185651756" lon="15.94656539953882"><ele>1231.0</ele><time>2026-04-11T10:02:08Z</time></trkpt><trkpt lat="38.20772396690963" lon="15.946664592541005"><ele>1231.0</ele><time>2026-04-11T10:02:09Z</time></trkpt><trkpt lat="38.20778955085587" lon="15.94675368976558"><ele>1231.0</ele><time>2026-04-11T10:02:10Z</time></trkpt><trkpt lat="38.2078463736032" lon="15.946837677309636"><ele>1231.0</ele><time>2026-04-11T10:02:11Z</time></trkpt><trkpt lat="38.20789244416583" lon="15.94692385239864"><ele>1231.0</ele><time>2026-04-11T10:02:12Z</time></trkpt><trkpt lat="38.20793320020228" lon="15.947026618043296"><ele>1231.0</ele><time>2026-04-11T10:02:13Z</time></trkpt><trkpt lat="38.20795380307798" lon="15.947124205192178"><ele>1231.0</ele><time>2026-04-11T10:02:14Z</time></trkpt><trkpt lat="38.2079667453722" lon="15.947227956951892"><ele>1231.0</ele><time>2026-04-11T10:02:15Z</time></trkpt><trkpt lat="38.207962535178105" lon="15.947323586406393"><ele>1231.0</ele><time>2026-04-11T10:02:16Z</time></trkpt><trkpt lat="38.20795150717024" lon="15.947413655879604"><ele>1231.0</ele><time>2026-04-11T10:02:17Z</time></trkpt><trkpt lat="38.20793447950299" lon="15.947499528085125"><ele>1231.0</ele><time>2026-04-11T10:02:18Z</time></trkpt><trkpt lat="38.207873497864846" lon="15.947694718052935"><ele>1231.0</ele><time>2026-04-11T10:02:20Z</time></trkpt><trkpt lat="38.207823790736946" lon="15.947831747488186"><ele>1230.75</ele><time>2026-04-11T10:02:21Z</time></trkpt><trkpt lat="38.20777236437735" lon="15.947976415364762"><ele>1230.5</ele><time>2026-04-11T10:02:22Z</time></trkpt><trkpt lat="38.20773916579306" lon="15.948129223530035"><ele>1230.25</ele><time>2026-04-11T10:02:23Z</time></trkpt><trkpt lat="38.20767614188586" lon="15.948263962451065"><ele>1230.0</ele><time>2026-04-11T10:02:24Z</time></trkpt><trkpt lat="38.20763652241052" lon="15.948407595441427"><ele>1229.5</ele><time>2026-04-11T10:02:25Z</time></trkpt><trkpt lat="38.20758972592083" lon="15.948521060504854"><ele>1229.0</ele><time>2026-04-11T10:02:26Z</time></trkpt><trkpt lat="38.20755019398198" lon="15.948649394627871"><ele>1228.5</ele><time>2026-04-11T10:02:27Z</time></trkpt><trkpt lat="38.20748842057157" lon="15.948788948653913"><ele>1228.0</ele><time>2026-04-11T10:02:28Z</time></trkpt><trkpt lat="38.207479296092444" lon="15.948981582596266"><ele>1228.0</ele><time>2026-04-11T10:02:29Z</time></trkpt><trkpt lat="38.2074584477388" lon="15.949157490361324"><ele>1228.0</ele><time>2026-04-11T10:02:30Z</time></trkpt><trkpt lat="38.20742540075269" lon="15.949318616062701"><ele>1228.0</ele><time>2026-04-11T10:02:31Z</time></trkpt><trkpt lat="38.20740643430465" lon="15.949460324576886"><ele>1228.0</ele><time>2026-04-11T10:02:32Z</time></trkpt><trkpt lat="38.20738528271976" lon="15.949620225740277"><ele>1228.75</ele><time>2026-04-11T10:02:33Z</time></trkpt><trkpt lat="38.20736378307401" lon="15.9498285948174"><ele>1229.5</ele><time>2026-04-11T10:02:34Z</time></trkpt><trkpt lat="38.20734258721127" lon="15.949981893401908"><ele>1230.25</ele><time>2026-04-11T10:02:35Z</time></trkpt><trkpt lat="38.20731565948784" lon="15.950155703238154"><ele>1231.0</ele><time>2026-04-11T10:02:36Z</time></trkpt><trkpt lat="38.20728809470529" lon="15.950330662887426"><ele>1232.25</ele><time>2026-04-11T10:02:37Z</time></trkpt><trkpt lat="38.20726450235608" lon="15.950506191551693"><ele>1233.5</ele><time>2026-04-11T10:02:38Z</time></trkpt><trkpt lat="38.207241636461916" lon="15.950680103547272"><ele>1234.75</ele><time>2026-04-11T10:02:39Z</time></trkpt><trkpt lat="38.20719697633849" lon="15.950844612621857"><ele>1236.0</ele><time>2026-04-11T10:02:40Z</time></trkpt><trkpt lat="38.2071673159657" lon="15.951006433456422"><ele>1237.0</ele><time>2026-04-11T10:02:41Z</time></trkpt><trkpt lat="38.207139690273" lon="15.951180981640555"><ele>1238.0</ele><time>2026-04-11T10:02:42Z</time></trkpt><trkpt lat="38.20712580940863" lon="15.951370706498336"><ele>1239.0</ele><time>2026-04-11T10:02:43Z</time></trkpt><trkpt lat="38.20708324476916" lon="15.951542011677807"><ele>1240.0</ele><time>2026-04-11T10:02:44Z</time></trkpt><trkpt lat="38.207055020091865" lon="15.95170552346769"><ele>1240.0</ele><time>2026-04-11T10:02:45Z</time></trkpt><trkpt lat="38.20700958554586" lon="15.951859146957457"><ele>1240.0</ele><time>2026-04-11T10:02:46Z</time></trkpt><trkpt lat="38.20695782121896" lon="15.952022843483999"><ele>1240.0</ele><time>2026-04-11T10:02:47Z</time></trkpt><trkpt lat="38.206898441740755" lon="15.952197287897608"><ele>1240.0</ele><time>2026-04-11T10:02:48Z</time></trkpt><trkpt lat="38.20685197922848" lon="15.952376044417976"><ele>1241.3333333333333</ele><time>2026-04-11T10:02:49Z</time></trkpt><trkpt lat="38.206799186680904" lon="15.9525579149605"><ele>1242.6666666666667</ele><time>2026-04-11T10:02:50Z</time></trkpt><trkpt lat="38.2067488505709" lon="15.952735210664262"><ele>1244.0</ele><time>2026-04-11T10:02:51Z</time></trkpt><trkpt lat="38.206697900391035" lon="15.952920171526946"><ele>1244.0</ele><time>2026-04-11T10:02:52Z</time></trkpt><trkpt lat="38.206640624239405" lon="15.953096947579459"><ele>1244.0</ele><time>2026-04-11T10:02:53Z</time></trkpt><trkpt lat="38.20659037022488" lon="15.953282879803691"><ele>1244.0</ele><time>2026-04-11T10:02:54Z</time></trkpt><trkpt lat="38.206549907172246" lon="15.953467462088904"><ele>1244.75</ele><time>2026-04-11T10:02:55Z</time></trkpt><trkpt lat="38.20652279163886" lon="15.953643302472774"><ele>1245.5</ele><time>2026-04-11T10:02:56Z</time></trkpt><trkpt lat="38.206521808364386" lon="15.9538087282232"><ele>1246.25</ele><time>2026-04-11T10:02:57Z</time></trkpt><trkpt lat="38.20652510948589" lon="15.953973156159874"><ele>1247.0</ele><time>2026-04-11T10:02:58Z</time></trkpt><trkpt lat="38.20654629991026" lon="15.954150429114835"><ele>1246.6666666666667</ele><time>2026-04-11T10:02:59Z</time></trkpt><trkpt lat="38.20657740017475" lon="15.95434551756104"><ele>1246.3333333333333</ele><time>2026-04-11T10:03:00Z</time></trkpt><trkpt lat="38.20663121951418" lon="15.954546519820072"><ele>1246.0</ele><time>2026-04-11T10:03:01Z</time></trkpt><trkpt lat="38.20666092175033" lon="15.954747899988828"><ele>1246.0</ele><time>2026-04-11T10:03:02Z</time></trkpt><trkpt lat="38.20670028874233" lon="15.954943305031406"><ele>1246.0</ele><time>2026-04-11T10:03:03Z</time></trkpt><trkpt lat="38.20674198896558" lon="15.955144199360507"><ele>1246.0</ele><time>2026-04-11T10:03:04Z</time></trkpt><trkpt lat="38.20679248730201" lon="15.955331275889574"><ele>1247.6666666666665</ele><time>2026-04-11T10:03:05Z</time></trkpt><trkpt lat="38.20684489506111" lon="15.955527943569649"><ele>1249.3333333333333</ele><time>2026-04-11T10:03:06Z</time></trkpt><trkpt lat="38.20691096613102" lon="15.955710800457055"><ele>1251.0</ele><time>2026-04-11T10:03:07Z</time></trkpt><trkpt lat="38.206982398862245" lon="15.955875053461236"><ele>1251.25</ele><time>2026-04-11T10:03:08Z</time></trkpt><trkpt lat="38.20704495089607" lon="15.956031986472455"><ele>1251.5</ele><time>2026-04-11T10:03:09Z</time></trkpt><trkpt lat="38.20710189867456" lon="15.95617472312127"><ele>1251.75</ele><time>2026-04-11T10:03:10Z</time></trkpt><trkpt lat="38.20716134278471" lon="15.956323552421091"><ele>1252.0</ele><time>2026-04-11T10:03:11Z</time></trkpt><trkpt lat="38.207220052558185" lon="15.956475522280241"><ele>1252.0</ele><time>2026-04-11T10:03:12Z</time></trkpt><trkpt lat="38.207273071135766" lon="15.95662488150523"><ele>1252.0</ele><time>2026-04-11T10:03:13Z</time></trkpt><trkpt lat="38.20731948236955" lon="15.956774005161453"><ele>1252.0</ele><time>2026-04-11T10:03:14Z</time></trkpt><trkpt lat="38.20737424864079" lon="15.95691685549315"><ele>1252.0</ele><time>2026-04-11T10:03:15Z</time></trkpt><trkpt lat="38.207402341969484" lon="15.957066348887418"><ele>1250.0</ele><time>2026-04-11T10:03:16Z</time></trkpt><trkpt lat="38.20742700978811" lon="15.957200756711783"><ele>1248.0</ele><time>2026-04-11T10:03:17Z</time></trkpt><trkpt lat="38.2074276366493" lon="15.95732059215877"><ele>1246.0</ele><time>2026-04-11T10:03:18Z</time></trkpt><trkpt lat="38.20739151880762" lon="15.95742841580891"><ele>1244.0</ele><time>2026-04-11T10:03:19Z</time></trkpt><trkpt lat="38.20732743081311" lon="15.957508664215585"><ele>1242.0</ele><time>2026-04-11T10:03:20Z</time></trkpt><trkpt lat="38.20723992702545" lon="15.957572324640802"><ele>1240.5</ele><time>2026-04-11T10:03:21Z</time></trkpt><trkpt lat="38.20713513899566" lon="15.957586213373073"><ele>1239.0</ele><time>2026-04-11T10:03:22Z</time></trkpt><trkpt lat="38.207014781009555" lon="15.957598699271333"><ele>1237.5</ele><time>2026-04-11T10:03:23Z</time></trkpt><trkpt lat="38.20689354601247" lon="15.957606832315479"><ele>1236.0</ele><time>2026-04-11T10:03:24Z</time></trkpt><trkpt lat="38.206774545152776" lon="15.957569226249829"><ele>1236.0</ele><time>2026-04-11T10:03:25Z</time></trkpt><trkpt lat="38.206641407617624" lon="15.957551348084122"><ele>1236.0</ele><time>2026-04-11T10:03:26Z</time></trkpt><trkpt lat="38.20653396383588" lon="15.957545185753547"><ele>1236.0</ele><time>2026-04-11T10:03:27Z</time></trkpt><trkpt lat="38.206414220121125" lon="15.957558116990924"><ele>1236.0</ele><time>2026-04-11T10:03:28Z</time></trkpt><trkpt lat="38.20628877790156" lon="15.957580344228845"><ele>1238.3999999999999</ele><time>2026-04-11T10:03:29Z</time></trkpt><trkpt lat="38.20618489905258" lon="15.957609597478429"><ele>1240.8</ele><time>2026-04-11T10:03:30Z</time></trkpt><trkpt lat="38.206079935395564" lon="15.957625651954437"><ele>1243.1999999999998</ele><time>2026-04-11T10:03:31Z</time></trkpt><trkpt lat="38.20597571796266" lon="15.95768010261962"><ele>1245.6</ele><time>2026-04-11T10:03:32Z</time></trkpt><trkpt lat="38.20588451035824" lon="15.957729730281027"><ele>1248.0</ele><time>2026-04-11T10:03:33Z</time></trkpt><trkpt lat="38.20579609542193" lon="15.957762345646827"><ele>1248.0</ele><time>2026-04-11T10:03:34Z</time></trkpt><trkpt lat="38.20571825967866" lon="15.957804062058155"><ele>1248.0</ele><time>2026-04-11T10:03:35Z</time></trkpt><trkpt lat="38.205650245152896" lon="15.957845114198703"><ele>1248.0</ele><time>2026-04-11T10:03:36Z</time></trkpt><trkpt lat="38.20555057251019" lon="15.957945293675412"><ele>1248.0</ele><time>2026-04-11T10:03:38Z</time></trkpt><trkpt lat="38.20553030063772" lon="15.958082582502518"><ele>1248.0</ele><time>2026-04-11T10:03:39Z</time></trkpt><trkpt lat="38.20551454589117" lon="15.958182723947404"><ele>1250.75</ele><time>2026-04-11T10:03:40Z</time></trkpt><trkpt lat="38.20552088427516" lon="15.958337974512482"><ele>1253.5</ele><time>2026-04-11T10:03:42Z</time></trkpt><trkpt lat="38.20556690319228" lon="15.958431273547237"><ele>1256.25</ele><time>2026-04-11T10:03:43Z</time></trkpt><trkpt lat="38.2056945334009" lon="15.958482535398456"><ele>1259.0</ele><time>2026-04-11T10:03:44Z</time></trkpt><trkpt lat="38.2058011815813" lon="15.958513428144943"><ele>1260.5</ele><time>2026-04-11T10:03:45Z</time></trkpt><trkpt lat="38.20590609536863" lon="15.958534037609033"><ele>1262.0</ele><time>2026-04-11T10:03:46Z</time></trkpt><trkpt lat="38.206033563330216" lon="15.958555270263606"><ele>1263.5</ele><time>2026-04-11T10:03:47Z</time></trkpt><trkpt lat="38.206164534495244" lon="15.958568199735582"><ele>1265.0</ele><time>2026-04-11T10:03:48Z</time></trkpt><trkpt lat="38.206271895976485" lon="15.958653456146198"><ele>1265.0</ele><time>2026-04-11T10:03:49Z</time></trkpt><trkpt lat="38.206357146450536" lon="15.958724545683758"><ele>1265.0</ele><time>2026-04-11T10:03:50Z</time></trkpt><trkpt lat="38.20644953221639" lon="15.958824555487825"><ele>1265.0</ele><time>2026-04-11T10:03:51Z</time></trkpt><trkpt lat="38.20649122033899" lon="15.958930911307693"><ele>1265.0</ele><time>2026-04-11T10:03:52Z</time></trkpt><trkpt lat="38.20650859680657" lon="15.959020445340165"><ele>1265.0</ele><time>2026-04-11T10:03:53Z</time></trkpt><trkpt lat="38.20649322693501" lon="15.959118045054057"><ele>1267.0</ele><time>2026-04-11T10:03:54Z</time></trkpt><trkpt lat="38.206475780469454" lon="15.959287467679728"><ele>1269.0</ele><time>2026-04-11T10:03:55Z</time></trkpt><trkpt lat="38.20645398959926" lon="15.959471187768164"><ele>1271.0</ele><time>2026-04-11T10:03:56Z</time></trkpt><trkpt lat="38.20645964256718" lon="15.95961106035401"><ele>1273.0</ele><time>2026-04-11T10:03:57Z</time></trkpt><trkpt lat="38.20647692530084" lon="15.959730605402786"><ele>1268.8</ele><time>2026-04-11T10:03:58Z</time></trkpt><trkpt lat="38.20651342037942" lon="15.959831131016882"><ele>1264.6</ele><time>2026-04-11T10:03:59Z</time></trkpt><trkpt lat="38.20659496471501" lon="15.959891051566684"><ele>1260.4</ele><time>2026-04-11T10:04:00Z</time></trkpt><trkpt lat="38.20667925682322" lon="15.959962186305928"><ele>1256.2</ele><time>2026-04-11T10:04:01Z</time></trkpt><trkpt lat="38.20678018438555" lon="15.960045966078386"><ele>1252.0</ele><time>2026-04-11T10:04:02Z</time></trkpt><trkpt lat="38.206923223204264" lon="15.960118391378144"><ele>1252.0</ele><time>2026-04-11T10:04:03Z</time></trkpt><trkpt lat="38.20705065781732" lon="15.960165430836003"><ele>1252.0</ele><time>2026-04-11T10:04:04Z</time></trkpt><trkpt lat="38.20717746285543" lon="15.960227566075995"><ele>1252.0</ele><time>2026-04-11T10:04:05Z</time></trkpt><trkpt lat="38.2072978778332" lon="15.960296902654948"><ele>1252.0</ele><time>2026-04-11T10:04:06Z</time></trkpt><trkpt lat="38.20739258447613" lon="15.960363004118653"><ele>1250.0</ele><time>2026-04-11T10:04:07Z</time></trkpt><trkpt lat="38.207492745566675" lon="15.960441033592803"><ele>1248.0</ele><time>2026-04-11T10:04:08Z</time></trkpt><trkpt lat="38.20758440635607" lon="15.960519338237216"><ele>1246.0</ele><time>2026-04-11T10:04:09Z</time></trkpt><trkpt lat="38.207663710792325" lon="15.960593394452498"><ele>1244.0</ele><time>2026-04-11T10:04:10Z</time></trkpt><trkpt lat="38.207729868466174" lon="15.960666617142948"><ele>1242.0</ele><time>2026-04-11T10:04:11Z</time></trkpt><trkpt lat="38.20778774769233" lon="15.960749143413858"><ele>1242.0</ele><time>2026-04-11T10:04:12Z</time></trkpt><trkpt lat="38.207844201020194" lon="15.9608641274836"><ele>1242.0</ele><time>2026-04-11T10:04:13Z</time></trkpt><trkpt lat="38.20789560752764" lon="15.9610122364447"><ele>1242.0</ele><time>2026-04-11T10:04:14Z</time></trkpt><trkpt lat="38.20795587019713" lon="15.961162809311896"><ele>1242.0</ele><time>2026-04-11T10:04:15Z</time></trkpt><trkpt lat="38.20800003896186" lon="15.961306618027187"><ele>1240.0</ele><time>2026-04-11T10:04:16Z</time></trkpt><trkpt lat="38.20801743547816" lon="15.961432281286742"><ele>1238.0</ele><time>2026-04-11T10:04:17Z</time></trkpt><trkpt lat="38.208006199647706" lon="15.961562308364865"><ele>1236.0</ele><time>2026-04-11T10:04:18Z</time></trkpt><trkpt lat="38.20795727497917" lon="15.961679016531006"><ele>1234.0</ele><time>2026-04-11T10:04:19Z</time></trkpt><trkpt lat="38.20788025843685" lon="15.961816490506624"><ele>1232.0</ele><time>2026-04-11T10:04:20Z</time></trkpt><trkpt lat="38.20782078679434" lon="15.96195085858256"><ele>1230.3333333333335</ele><time>2026-04-11T10:04:21Z</time></trkpt><trkpt lat="38.2077614320866" lon="15.96204984743337"><ele>1228.6666666666667</ele><time>2026-04-11T10:04:22Z</time></trkpt><trkpt lat="38.207728441052744" lon="15.962141457076996"><ele>1227.0</ele><time>2026-04-11T10:04:23Z</time></trkpt><trkpt lat="38.207724801221595" lon="15.96223662016331"><ele>1225.3333333333333</ele><time>2026-04-11T10:04:24Z</time></trkpt><trkpt lat="38.207731936420714" lon="15.962350251466903"><ele>1223.6666666666665</ele><time>2026-04-11T10:04:25Z</time></trkpt><trkpt lat="38.20776560783879" lon="15.96245982938591"><ele>1222.0</ele><time>2026-04-11T10:04:26Z</time></trkpt><trkpt lat="38.2078099214087" lon="15.962536081541753"><ele>1221.0</ele><time>2026-04-11T10:04:27Z</time></trkpt><trkpt lat="38.2079587950112" lon="15.962587412655145"><ele>1220.0</ele><time>2026-04-11T10:04:29Z</time></trkpt><trkpt lat="38.20805479719491" lon="15.962577797094077"><ele>1219.0</ele><time>2026-04-11T10:04:30Z</time></trkpt><trkpt lat="38.208165434732024" lon="15.962540898853154"><ele>1218.0</ele><time>2026-04-11T10:04:31Z</time></trkpt><trkpt lat="38.20828130733293" lon="15.962494726683047"><ele>1217.75</ele><time>2026-04-11T10:04:32Z</time></trkpt><trkpt lat="38.20840091073446" lon="15.962437677128293"><ele>1217.5</ele><time>2026-04-11T10:04:33Z</time></trkpt><trkpt lat="38.20852550459994" lon="15.96238626122441"><ele>1217.25</ele><time>2026-04-11T10:04:34Z</time></trkpt><trkpt lat="38.20866166225107" lon="15.962354238921128"><ele>1217.0</ele><time>2026-04-11T10:04:35Z</time></trkpt><trkpt lat="38.208781889693725" lon="15.96234056304829"><ele>1217.0</ele><time>2026-04-11T10:04:36Z</time></trkpt><trkpt lat="38.20888316077163" lon="15.962347245839986"><ele>1217.0</ele><time>2026-04-11T10:04:37Z</time></trkpt><trkpt lat="38.20898939549654" lon="15.96242401108651"><ele>1217.0</ele><time>2026-04-11T10:04:39Z</time></trkpt><trkpt lat="38.2089901794408" lon="15.962506982301226"><ele>1217.0</ele><time>2026-04-11T10:04:40Z</time></trkpt><trkpt lat="38.20894753843425" lon="15.962610190371393"><ele>1217.0</ele><time>2026-04-11T10:04:41Z</time></trkpt><trkpt lat="38.20886347019779" lon="15.962683062984118"><ele>1217.25</ele><time>2026-04-11T10:04:42Z</time></trkpt><trkpt lat="38.20875656795993" lon="15.962668775135157"><ele>1217.5</ele><time>2026-04-11T10:04:43Z</time></trkpt><trkpt lat="38.20864998973398" lon="15.962712569253801"><ele>1217.75</ele><time>2026-04-11T10:04:44Z</time></trkpt><trkpt lat="38.20848929123077" lon="15.96278770404292"><ele>1218.0</ele><time>2026-04-11T10:04:45Z</time></trkpt><trkpt lat="38.20833074032043" lon="15.962824387842998"><ele>1218.0</ele><time>2026-04-11T10:04:46Z</time></trkpt><trkpt lat="38.20819283639776" lon="15.962866711717542"><ele>1218.0</ele><time>2026-04-11T10:04:47Z</time></trkpt><trkpt lat="38.208038653873935" lon="15.962936546192037"><ele>1218.0</ele><time>2026-04-11T10:04:48Z</time></trkpt><trkpt lat="38.207896557866945" lon="15.962997469054859"><ele>1217.6666666666667</ele><time>2026-04-11T10:04:49Z</time></trkpt><trkpt lat="38.2077534912903" lon="15.963061544470799"><ele>1217.3333333333335</ele><time>2026-04-11T10:04:50Z</time></trkpt><trkpt lat="38.20761740824664" lon="15.963131727076401"><ele>1217.0</ele><time>2026-04-11T10:04:51Z</time></trkpt><trkpt lat="38.2074599561202" lon="15.963175914918617"><ele>1219.6666666666667</ele><time>2026-04-11T10:04:52Z</time></trkpt><trkpt lat="38.20729777578596" lon="15.963225062973626"><ele>1222.3333333333333</ele><time>2026-04-11T10:04:53Z</time></trkpt><trkpt lat="38.20714327731014" lon="15.963280342024023"><ele>1225.0</ele><time>2026-04-11T10:04:54Z</time></trkpt><trkpt lat="38.206991023320974" lon="15.963349797178607"><ele>1221.75</ele><time>2026-04-11T10:04:55Z</time></trkpt><trkpt lat="38.20684859721191" lon="15.963402968040414"><ele>1218.5</ele><time>2026-04-11T10:04:56Z</time></trkpt><trkpt lat="38.206705598207684" lon="15.96342667838132"><ele>1215.25</ele><time>2026-04-11T10:04:57Z</time></trkpt><trkpt lat="38.206583641321046" lon="15.963440247814722"><ele>1212.0</ele><time>2026-04-11T10:04:58Z</time></trkpt><trkpt lat="38.2064756687606" lon="15.963463581088641"><ele>1219.75</ele><time>2026-04-11T10:04:59Z</time></trkpt><trkpt lat="38.20638841437821" lon="15.963526932855013"><ele>1227.5</ele><time>2026-04-11T10:05:00Z</time></trkpt><trkpt lat="38.20629282467745" lon="15.963633779359823"><ele>1235.25</ele><time>2026-04-11T10:05:01Z</time></trkpt><trkpt lat="38.206212064098295" lon="15.963768797686212"><ele>1243.0</ele><time>2026-04-11T10:05:02Z</time></trkpt><trkpt lat="38.2061366099649" lon="15.963904938907179"><ele>1243.0</ele><time>2026-04-11T10:05:03Z</time></trkpt><trkpt lat="38.206090546989365" lon="15.964044983918573"><ele>1243.0</ele><time>2026-04-11T10:05:04Z</time></trkpt><trkpt lat="38.206064508317944" lon="15.964221955338141"><ele>1243.0</ele><time>2026-04-11T10:05:05Z</time></trkpt><trkpt lat="38.206058563905025" lon="15.964394007494779"><ele>1243.0</ele><time>2026-04-11T10:05:06Z</time></trkpt><trkpt lat="38.206041245012955" lon="15.964500961936494"><ele>1243.1666666666665</ele><time>2026-04-11T10:05:07Z</time></trkpt><trkpt lat="38.206020804358374" lon="15.964595583698975"><ele>1243.3333333333333</ele><time>2026-04-11T10:05:08Z</time></trkpt><trkpt lat="38.206072143191435" lon="15.964647190449508"><ele>1243.5</ele><time>2026-04-11T10:05:09Z</time></trkpt><trkpt lat="38.206124565265426" lon="15.964705643216446"><ele>1243.6666666666667</ele><time>2026-04-11T10:05:10Z</time></trkpt><trkpt lat="38.20619830817562" lon="15.964758461243155"><ele>1243.8333333333335</ele><time>2026-04-11T10:05:11Z</time></trkpt><trkpt lat="38.20628465576955" lon="15.964758857668944"><ele>1244.0</ele><time>2026-04-11T10:05:12Z</time></trkpt><trkpt lat="38.20637020705346" lon="15.964694813619387"><ele>1244.0</ele><time>2026-04-11T10:05:13Z</time></trkpt><trkpt lat="38.20645340301087" lon="15.964614315254236"><ele>1244.0</ele><time>2026-04-11T10:05:14Z</time></trkpt><trkpt lat="38.20651717405837" lon="15.964568078159074"><ele>1244.0</ele><time>2026-04-11T10:05:15Z</time></trkpt><trkpt lat="38.206592815541775" lon="15.964562167504779"><ele>1244.0</ele><time>2026-04-11T10:05:16Z</time></trkpt><trkpt lat="38.2066606864277" lon="15.964611112967892"><ele>1244.0</ele><time>2026-04-11T10:05:17Z</time></trkpt><trkpt lat="38.20671856101349" lon="15.964702691467423"><ele>1244.0</ele><time>2026-04-11T10:05:18Z</time></trkpt><trkpt lat="38.20675493152404" lon="15.96479326792328"><ele>1241.6000000000001</ele><time>2026-04-11T10:05:19Z</time></trkpt><trkpt lat="38.20675905311127" lon="15.964886380877209"><ele>1239.2</ele><time>2026-04-11T10:05:20Z</time></trkpt><trkpt lat="38.20673356294927" lon="15.964984429211656"><ele>1236.8000000000002</ele><time>2026-04-11T10:05:21Z</time></trkpt><trkpt lat="38.206710898462376" lon="15.965081689193044"><ele>1234.4</ele><time>2026-04-11T10:05:22Z</time></trkpt><trkpt lat="38.206708205295655" lon="15.965232662495355"><ele>1232.0</ele><time>2026-04-11T10:05:23Z</time></trkpt><trkpt lat="38.20673312690498" lon="15.965379804487497"><ele>1232.0</ele><time>2026-04-11T10:05:24Z</time></trkpt><trkpt lat="38.206829037058185" lon="15.965515491144057"><ele>1232.0</ele><time>2026-04-11T10:05:25Z</time></trkpt><trkpt lat="38.206862043789094" lon="15.965623226112204"><ele>1232.0</ele><time>2026-04-11T10:05:26Z</time></trkpt><trkpt lat="38.206866291199795" lon="15.965706039766312"><ele>1232.0</ele><time>2026-04-11T10:05:27Z</time></trkpt><trkpt lat="38.20683421500049" lon="15.965794931899058"><ele>1232.0</ele><time>2026-04-11T10:05:28Z</time></trkpt><trkpt lat="38.20677478338913" lon="15.965890398020104"><ele>1233.6</ele><time>2026-04-11T10:05:29Z</time></trkpt><trkpt lat="38.20669487221449" lon="15.965997625444537"><ele>1235.2</ele><time>2026-04-11T10:05:30Z</time></trkpt><trkpt lat="38.20661953092149" lon="15.966083194733923"><ele>1236.8</ele><time>2026-04-11T10:05:31Z</time></trkpt><trkpt lat="38.20657054552663" lon="15.966163499061256"><ele>1238.4</ele><time>2026-04-11T10:05:32Z</time></trkpt><trkpt lat="38.20652214972688" lon="15.966245850245922"><ele>1240.0</ele><time>2026-04-11T10:05:33Z</time></trkpt><trkpt lat="38.20648632242948" lon="15.966326739768236"><ele>1240.0</ele><time>2026-04-11T10:05:34Z</time></trkpt><trkpt lat="38.20640770999175" lon="15.966476695355942"><ele>1240.0</ele><time>2026-04-11T10:05:36Z</time></trkpt><trkpt lat="38.206357715392976" lon="15.9665347590407"><ele>1240.0</ele><time>2026-04-11T10:05:37Z</time></trkpt><trkpt lat="38.206225759120734" lon="15.966565032101501"><ele>1240.0</ele><time>2026-04-11T10:05:39Z</time></trkpt><trkpt lat="38.20614187451562" lon="15.966608596167895"><ele>1240.0</ele><time>2026-04-11T10:05:40Z</time></trkpt><trkpt lat="38.205998523488255" lon="15.966665324819655"><ele>1236.5</ele><time>2026-04-11T10:05:41Z</time></trkpt><trkpt lat="38.20587150364934" lon="15.966736647733278"><ele>1233.0</ele><time>2026-04-11T10:05:42Z</time></trkpt><trkpt lat="38.20575697467432" lon="15.96679958232535"><ele>1229.5</ele><time>2026-04-11T10:05:43Z</time></trkpt><trkpt lat="38.20568327819354" lon="15.966957816871524"><ele>1226.0</ele><time>2026-04-11T10:05:44Z</time></trkpt><trkpt lat="38.205618588953634" lon="15.967050920824997"><ele>1236.0</ele><time>2026-04-11T10:05:45Z</time></trkpt><trkpt lat="38.20554985140436" lon="15.9671996280836"><ele>1246.0</ele><time>2026-04-11T10:05:46Z</time></trkpt><trkpt lat="38.20548100763845" lon="15.967341553934402"><ele>1256.0</ele><time>2026-04-11T10:05:47Z</time></trkpt><trkpt lat="38.20540225642606" lon="15.967477448449616"><ele>1266.0</ele><time>2026-04-11T10:05:48Z</time></trkpt><trkpt lat="38.20532784499596" lon="15.967594799175773"><ele>1266.1666666666667</ele><time>2026-04-11T10:05:49Z</time></trkpt><trkpt lat="38.205285535617264" lon="15.967705558726733"><ele>1266.3333333333333</ele><time>2026-04-11T10:05:50Z</time></trkpt><trkpt lat="38.20526864411142" lon="15.967800992883502"><ele>1266.5</ele><time>2026-04-11T10:05:51Z</time></trkpt><trkpt lat="38.20529062711395" lon="15.967882711098367"><ele>1266.6666666666665</ele><time>2026-04-11T10:05:52Z</time></trkpt><trkpt lat="38.205340878067105" lon="15.96796890582194"><ele>1266.8333333333333</ele><time>2026-04-11T10:05:53Z</time></trkpt><trkpt lat="38.20544413083541" lon="15.96798210645544"><ele>1267.0</ele><time>2026-04-11T10:05:54Z</time></trkpt><trkpt lat="38.20551997898545" lon="15.967979588857386"><ele>1267.0</ele><time>2026-04-11T10:05:55Z</time></trkpt><trkpt lat="38.205614741132095" lon="15.967936837042922"><ele>1267.0</ele><time>2026-04-11T10:05:56Z</time></trkpt><trkpt lat="38.20570196908244" lon="15.967861197212562"><ele>1267.0</ele><time>2026-04-11T10:05:57Z</time></trkpt><trkpt lat="38.20579748221354" lon="15.967798797582962"><ele>1267.0</ele><time>2026-04-11T10:05:58Z</time></trkpt><trkpt lat="38.205891410039506" lon="15.967802100494154"><ele>1267.0</ele><time>2026-04-11T10:05:59Z</time></trkpt><trkpt lat="38.205987494650365" lon="15.967866766223166"><ele>1263.75</ele><time>2026-04-11T10:06:00Z</time></trkpt><trkpt lat="38.206064145391345" lon="15.967965557363925"><ele>1260.5</ele><time>2026-04-11T10:06:01Z</time></trkpt><trkpt lat="38.206088343435574" lon="15.968100274921657"><ele>1257.25</ele><time>2026-04-11T10:06:02Z</time></trkpt><trkpt lat="38.206125156622335" lon="15.968247775412879"><ele>1254.0</ele><time>2026-04-11T10:06:03Z</time></trkpt><trkpt lat="38.20615309904007" lon="15.968456243903722"><ele>1254.0</ele><time>2026-04-11T10:06:04Z</time></trkpt><trkpt lat="38.20621304684728" lon="15.968657907971933"><ele>1254.0</ele><time>2026-04-11T10:06:05Z</time></trkpt><trkpt lat="38.20622385110263" lon="15.968808892622473"><ele>1254.0</ele><time>2026-04-11T10:06:06Z</time></trkpt><trkpt lat="38.20622001387761" lon="15.968958061659716"><ele>1254.0</ele><time>2026-04-11T10:06:07Z</time></trkpt><trkpt lat="38.206181958656366" lon="15.969136377391363"><ele>1254.2</ele><time>2026-04-11T10:06:08Z</time></trkpt><trkpt lat="38.2061184019181" lon="15.969287978017173"><ele>1254.4</ele><time>2026-04-11T10:06:09Z</time></trkpt><trkpt lat="38.20607776583555" lon="15.969409728459867"><ele>1254.6</ele><time>2026-04-11T10:06:10Z</time></trkpt><trkpt lat="38.206038369566855" lon="15.969498731948628"><ele>1254.8</ele><time>2026-04-11T10:06:11Z</time></trkpt><trkpt lat="38.20604443228271" lon="15.969578744397005"><ele>1255.0</ele><time>2026-04-11T10:06:12Z</time></trkpt><trkpt lat="38.20608510975117" lon="15.96967758126937"><ele>1255.0</ele><time>2026-04-11T10:06:13Z</time></trkpt><trkpt lat="38.20615884324384" lon="15.969763908407078"><ele>1255.0</ele><time>2026-04-11T10:06:14Z</time></trkpt><trkpt lat="38.20623585824962" lon="15.969789550662776"><ele>1255.0</ele><time>2026-04-11T10:06:15Z</time></trkpt><trkpt lat="38.20632072642013" lon="15.96977862623453"><ele>1255.0</ele><time>2026-04-11T10:06:16Z</time></trkpt><trkpt lat="38.2064090707273" lon="15.96973022396546"><ele>1255.0</ele><time>2026-04-11T10:06:17Z</time></trkpt><trkpt lat="38.20650302576025" lon="15.96962059645345"><ele>1254.6666666666665</ele><time>2026-04-11T10:06:18Z</time></trkpt><trkpt lat="38.2066210658409" lon="15.969500977036232"><ele>1254.3333333333333</ele><time>2026-04-11T10:06:19Z</time></trkpt><trkpt lat="38.20676618834961" lon="15.969406379922454"><ele>1254.0</ele><time>2026-04-11T10:06:20Z</time></trkpt><trkpt lat="38.20694180178258" lon="15.969294024143073"><ele>1254.0</ele><time>2026-04-11T10:06:21Z</time></trkpt><trkpt lat="38.207090589709345" lon="15.969204660167428"><ele>1254.0</ele><time>2026-04-11T10:06:22Z</time></trkpt><trkpt lat="38.20721476565633" lon="15.969095995238337"><ele>1254.0</ele><time>2026-04-11T10:06:23Z</time></trkpt><trkpt lat="38.20731845541904" lon="15.968933618738422"><ele>1251.6666666666667</ele><time>2026-04-11T10:06:24Z</time></trkpt><trkpt lat="38.20738363515955" lon="15.968748133083528"><ele>1249.3333333333335</ele><time>2026-04-11T10:06:25Z</time></trkpt><trkpt lat="38.207445445134" lon="15.968560933239003"><ele>1247.0</ele><time>2026-04-11T10:06:26Z</time></trkpt><trkpt lat="38.20749944726331" lon="15.968394058881456"><ele>1243.2</ele><time>2026-04-11T10:06:27Z</time></trkpt><trkpt lat="38.20756648363167" lon="15.968309101220452"><ele>1239.4</ele><time>2026-04-11T10:06:28Z</time></trkpt><trkpt lat="38.20765457841802" lon="15.968268613561944"><ele>1235.6</ele><time>2026-04-11T10:06:29Z</time></trkpt><trkpt lat="38.207763247261106" lon="15.968228848799697"><ele>1231.8</ele><time>2026-04-11T10:06:30Z</time></trkpt><trkpt lat="38.20789642919921" lon="15.968239624375158"><ele>1228.0</ele><time>2026-04-11T10:06:31Z</time></trkpt><trkpt lat="38.20799296940624" lon="15.96827406117961"><ele>1228.0</ele><time>2026-04-11T10:06:32Z</time></trkpt><trkpt lat="38.208109876484116" lon="15.968351089840821"><ele>1228.0</ele><time>2026-04-11T10:06:33Z</time></trkpt><trkpt lat="38.20824613213139" lon="15.968436886754276"><ele>1228.0</ele><time>2026-04-11T10:06:34Z</time></trkpt><trkpt lat="38.20840160409592" lon="15.968518771592732"><ele>1236.0</ele><time>2026-04-11T10:06:35Z</time></trkpt><trkpt lat="38.20853056476707" lon="15.96860464913381"><ele>1244.0</ele><time>2026-04-11T10:06:36Z</time></trkpt><trkpt lat="38.208638386845365" lon="15.968721454562584"><ele>1252.0</ele><time>2026-04-11T10:06:37Z</time></trkpt><trkpt lat="38.208760570551924" lon="15.96887744956699"><ele>1252.0</ele><time>2026-04-11T10:06:38Z</time></trkpt><trkpt lat="38.208874396641164" lon="15.969053804357811"><ele>1252.0</ele><time>2026-04-11T10:06:39Z</time></trkpt><trkpt lat="38.20895690084165" lon="15.96920143944821"><ele>1252.0</ele><time>2026-04-11T10:06:40Z</time></trkpt><trkpt lat="38.20903046591253" lon="15.969336374793372"><ele>1248.75</ele><time>2026-04-11T10:06:41Z</time></trkpt><trkpt lat="38.20908127990351" lon="15.969481509084014"><ele>1245.5</ele><time>2026-04-11T10:06:42Z</time></trkpt><trkpt lat="38.20912512537968" lon="15.969640861378766"><ele>1242.25</ele><time>2026-04-11T10:06:43Z</time></trkpt><trkpt lat="38.209159524911044" lon="15.969817859541726"><ele>1239.0</ele><time>2026-04-11T10:06:44Z</time></trkpt><trkpt lat="38.20918418651795" lon="15.969974743878568"><ele>1240.25</ele><time>2026-04-11T10:06:45Z</time></trkpt><trkpt lat="38.20917724973147" lon="15.970121480434072"><ele>1241.5</ele><time>2026-04-11T10:06:46Z</time></trkpt><trkpt lat="38.20915172709514" lon="15.970286005369292"><ele>1242.75</ele><time>2026-04-11T10:06:47Z</time></trkpt><trkpt lat="38.209113570104655" lon="15.97046249080014"><ele>1244.0</ele><time>2026-04-11T10:06:48Z</time></trkpt><trkpt lat="38.2090727599977" lon="15.970623766382003"><ele>1244.0</ele><time>2026-04-11T10:06:49Z</time></trkpt><trkpt lat="38.20906068518316" lon="15.970771036167806"><ele>1244.0</ele><time>2026-04-11T10:06:50Z</time></trkpt><trkpt lat="38.20903673435804" lon="15.970936425075394"><ele>1244.0</ele><time>2026-04-11T10:06:51Z</time></trkpt><trkpt lat="38.20904061218865" lon="15.97102516144417"><ele>1244.0</ele><time>2026-04-11T10:06:52Z</time></trkpt><trkpt lat="38.20905242485666" lon="15.971145227849945"><ele>1244.0</ele><time>2026-04-11T10:06:53Z</time></trkpt><trkpt lat="38.20908490552681" lon="15.971231537369446"><ele>1244.8</ele><time>2026-04-11T10:06:54Z</time></trkpt><trkpt lat="38.209140871872755" lon="15.971322963350097"><ele>1245.6000000000001</ele><time>2026-04-11T10:06:55Z</time></trkpt><trkpt lat="38.20921414812084" lon="15.971407164963457"><ele>1246.4</ele><time>2026-04-11T10:06:56Z</time></trkpt><trkpt lat="38.20928482962299" lon="15.971509865969418"><ele>1247.2</ele><time>2026-04-11T10:06:57Z</time></trkpt><trkpt lat="38.20936269624152" lon="15.971621748864878"><ele>1248.0</ele><time>2026-04-11T10:06:58Z</time></trkpt><trkpt lat="38.20944660964581" lon="15.97174860598106"><ele>1249.75</ele><time>2026-04-11T10:06:59Z</time></trkpt><trkpt lat="38.20954673337739" lon="15.971863508330364"><ele>1251.5</ele><time>2026-04-11T10:07:00Z</time></trkpt><trkpt lat="38.209627890942215" lon="15.971961098356015"><ele>1253.25</ele><time>2026-04-11T10:07:01Z</time></trkpt><trkpt lat="38.20970476739462" lon="15.97208380335205"><ele>1255.0</ele><time>2026-04-11T10:07:02Z</time></trkpt><trkpt lat="38.20976368693253" lon="15.972201788253077"><ele>1255.0</ele><time>2026-04-11T10:07:03Z</time></trkpt><trkpt lat="38.20981880185457" lon="15.972309696904402"><ele>1255.0</ele><time>2026-04-11T10:07:04Z</time></trkpt><trkpt lat="38.20986070963818" lon="15.97242366355177"><ele>1255.0</ele><time>2026-04-11T10:07:05Z</time></trkpt><trkpt lat="38.209888697355545" lon="15.972533154733927"><ele>1255.0</ele><time>2026-04-11T10:07:06Z</time></trkpt><trkpt lat="38.209904200794625" lon="15.972650889041466"><ele>1255.0</ele><time>2026-04-11T10:07:07Z</time></trkpt><trkpt lat="38.20990264962363" lon="15.972772302973569"><ele>1254.8</ele><time>2026-04-11T10:07:08Z</time></trkpt><trkpt lat="38.209856644289715" lon="15.972887277926679"><ele>1254.6</ele><time>2026-04-11T10:07:09Z</time></trkpt><trkpt lat="38.20977913895454" lon="15.972980686300742"><ele>1254.4</ele><time>2026-04-11T10:07:10Z</time></trkpt><trkpt lat="38.209711162222206" lon="15.973070366381103"><ele>1254.2</ele><time>2026-04-11T10:07:11Z</time></trkpt><trkpt lat="38.20965421709032" lon="15.973137258906545"><ele>1254.0</ele><time>2026-04-11T10:07:12Z</time></trkpt><trkpt lat="38.20957384234546" lon="15.973224450466917"><ele>1254.0</ele><time>2026-04-11T10:07:14Z</time></trkpt><trkpt lat="38.20958542805425" lon="15.97334833250379"><ele>1254.0</ele><time>2026-04-11T10:07:16Z</time></trkpt><trkpt lat="38.209613978261714" lon="15.973488262910063"><ele>1254.0</ele><time>2026-04-11T10:07:18Z</time></trkpt><trkpt lat="38.20966478046545" lon="15.973561459772066"><ele>1254.0</ele><time>2026-04-11T10:07:19Z</time></trkpt><trkpt lat="38.209719870659626" lon="15.97366407876675"><ele>1254.0</ele><time>2026-04-11T10:07:20Z</time></trkpt><trkpt lat="38.20976669993331" lon="15.973776972641133"><ele>1255.2</ele><time>2026-04-11T10:07:21Z</time></trkpt><trkpt lat="38.20979351389495" lon="15.97390803370598"><ele>1256.4</ele><time>2026-04-11T10:07:22Z</time></trkpt><trkpt lat="38.209801848427865" lon="15.974040633284789"><ele>1257.6</ele><time>2026-04-11T10:07:23Z</time></trkpt><trkpt lat="38.20981540460358" lon="15.974165905678682"><ele>1258.8</ele><time>2026-04-11T10:07:24Z</time></trkpt><trkpt lat="38.20981752607649" lon="15.974282054895559"><ele>1260.0</ele><time>2026-04-11T10:07:25Z</time></trkpt><trkpt lat="38.20982590505308" lon="15.974398431111023"><ele>1256.5</ele><time>2026-04-11T10:07:26Z</time></trkpt><trkpt lat="38.209856564556915" lon="15.974514606508246"><ele>1253.0</ele><time>2026-04-11T10:07:27Z</time></trkpt><trkpt lat="38.209935251350856" lon="15.974623985386783"><ele>1249.5</ele><time>2026-04-11T10:07:28Z</time></trkpt><trkpt lat="38.21005271458187" lon="15.97474295536839"><ele>1246.0</ele><time>2026-04-11T10:07:29Z</time></trkpt><trkpt lat="38.21015433093836" lon="15.97486029110776"><ele>1246.0</ele><time>2026-04-11T10:07:30Z</time></trkpt><trkpt lat="38.21025380594104" lon="15.974959230461433"><ele>1246.0</ele><time>2026-04-11T10:07:31Z</time></trkpt><trkpt lat="38.21032808362775" lon="15.975046554996878"><ele>1246.0</ele><time>2026-04-11T10:07:32Z</time></trkpt><trkpt lat="38.210355298704" lon="15.975165547034788"><ele>1246.0</ele><time>2026-04-11T10:07:33Z</time></trkpt><trkpt lat="38.210372409525434" lon="15.975282435063555"><ele>1246.0</ele><time>2026-04-11T10:07:34Z</time></trkpt><trkpt lat="38.210350765045014" lon="15.975393511129784"><ele>1244.75</ele><time>2026-04-11T10:07:35Z</time></trkpt><trkpt lat="38.21029089637483" lon="15.975495954438879"><ele>1243.5</ele><time>2026-04-11T10:07:36Z</time></trkpt><trkpt lat="38.21018507149608" lon="15.975587805601577"><ele>1242.25</ele><time>2026-04-11T10:07:37Z</time></trkpt><trkpt lat="38.21010108568928" lon="15.975714307011632"><ele>1241.0</ele><time>2026-04-11T10:07:38Z</time></trkpt><trkpt lat="38.2100352837839" lon="15.975850266142173"><ele>1240.2</ele><time>2026-04-11T10:07:39Z</time></trkpt><trkpt lat="38.209976821268945" lon="15.975956453401984"><ele>1239.3999999999999</ele><time>2026-04-11T10:07:40Z</time></trkpt><trkpt lat="38.20994221716933" lon="15.97608405272448"><ele>1238.6</ele><time>2026-04-11T10:07:41Z</time></trkpt><trkpt lat="38.20990862155806" lon="15.976209796342195"><ele>1237.8</ele><time>2026-04-11T10:07:42Z</time></trkpt><trkpt lat="38.209898768786545" lon="15.976332277668329"><ele>1237.0</ele><time>2026-04-11T10:07:43Z</time></trkpt><trkpt lat="38.20994475748389" lon="15.976446714379945"><ele>1237.0</ele><time>2026-04-11T10:07:44Z</time></trkpt><trkpt lat="38.210038622785206" lon="15.976594417206714"><ele>1237.0</ele><time>2026-04-11T10:07:46Z</time></trkpt><trkpt lat="38.210097659087936" lon="15.976676529356482"><ele>1237.0</ele><time>2026-04-11T10:07:47Z</time></trkpt><trkpt lat="38.210177495545" lon="15.976729849399856"><ele>1237.0</ele><time>2026-04-11T10:07:48Z</time></trkpt><trkpt lat="38.210254208610706" lon="15.976807953638055"><ele>1237.0</ele><time>2026-04-11T10:07:49Z</time></trkpt><trkpt lat="38.21034350846489" lon="15.976906153531246"><ele>1234.75</ele><time>2026-04-11T10:07:50Z</time></trkpt><trkpt lat="38.21042844199932" lon="15.977005378594887"><ele>1232.5</ele><time>2026-04-11T10:07:51Z</time></trkpt><trkpt lat="38.21052210458321" lon="15.977127657095355"><ele>1230.25</ele><time>2026-04-11T10:07:52Z</time></trkpt><trkpt lat="38.210623307589614" lon="15.977237778388046"><ele>1228.0</ele><time>2026-04-11T10:07:53Z</time></trkpt><trkpt lat="38.21071025256204" lon="15.97734752585781"><ele>1228.0</ele><time>2026-04-11T10:07:54Z</time></trkpt><trkpt lat="38.21081241394629" lon="15.977429357825825"><ele>1228.0</ele><time>2026-04-11T10:07:55Z</time></trkpt><trkpt lat="38.21089651606147" lon="15.977556108946308"><ele>1228.0</ele><time>2026-04-11T10:07:56Z</time></trkpt><trkpt lat="38.21099229744849" lon="15.977635401312636"><ele>1228.0</ele><time>2026-04-11T10:07:57Z</time></trkpt><trkpt lat="38.211070865814335" lon="15.977705058318799"><ele>1228.6</ele><time>2026-04-11T10:07:58Z</time></trkpt><trkpt lat="38.211103987635674" lon="15.977813904951963"><ele>1229.1999999999998</ele><time>2026-04-11T10:07:59Z</time></trkpt><trkpt lat="38.211136102259864" lon="15.977934522131177"><ele>1229.8</ele><time>2026-04-11T10:08:00Z</time></trkpt><trkpt lat="38.211160408314775" lon="15.97806849158418"><ele>1230.3999999999999</ele><time>2026-04-11T10:08:01Z</time></trkpt><trkpt lat="38.211187465231674" lon="15.978205556352851"><ele>1231.0</ele><time>2026-04-11T10:08:02Z</time></trkpt><trkpt lat="38.211238447172846" lon="15.978351002190765"><ele>1232.25</ele><time>2026-04-11T10:08:03Z</time></trkpt><trkpt lat="38.21128206077542" lon="15.978524718036638"><ele>1233.5</ele><time>2026-04-11T10:08:04Z</time></trkpt><trkpt lat="38.2113471192748" lon="15.978669202283745"><ele>1234.75</ele><time>2026-04-11T10:08:05Z</time></trkpt><trkpt lat="38.211409574117894" lon="15.978799009668283"><ele>1236.0</ele><time>2026-04-11T10:08:06Z</time></trkpt><trkpt lat="38.21148204185832" lon="15.978926487984738"><ele>1236.2</ele><time>2026-04-11T10:08:07Z</time></trkpt><trkpt lat="38.21153713923453" lon="15.979055481379831"><ele>1236.3999999999999</ele><time>2026-04-11T10:08:08Z</time></trkpt><trkpt lat="38.21160217192961" lon="15.979165700552874"><ele>1236.6</ele><time>2026-04-11T10:08:09Z</time></trkpt><trkpt lat="38.21165803100153" lon="15.979254871810038"><ele>1236.8</ele><time>2026-04-11T10:08:10Z</time></trkpt><trkpt lat="38.21173660131977" lon="15.979322949311928"><ele>1237.0</ele><time>2026-04-11T10:08:11Z</time></trkpt><trkpt lat="38.21180932755887" lon="15.979384868299801"><ele>1237.0</ele><time>2026-04-11T10:08:12Z</time></trkpt><trkpt lat="38.21189005657877" lon="15.979432028024963"><ele>1237.0</ele><time>2026-04-11T10:08:13Z</time></trkpt><trkpt lat="38.21198533553815" lon="15.979481165847922"><ele>1237.0</ele><time>2026-04-11T10:08:14Z</time></trkpt><trkpt lat="38.212097342095454" lon="15.979545768768258"><ele>1237.0</ele><time>2026-04-11T10:08:15Z</time></trkpt><trkpt lat="38.21220715525879" lon="15.979600922528665"><ele>1237.0</ele><time>2026-04-11T10:08:16Z</time></trkpt><trkpt lat="38.212306938965035" lon="15.97965867458603"><ele>1235.3333333333333</ele><time>2026-04-11T10:08:17Z</time></trkpt><trkpt lat="38.21240930293707" lon="15.979715878036714"><ele>1233.6666666666665</ele><time>2026-04-11T10:08:18Z</time></trkpt><trkpt lat="38.2124998482441" lon="15.9797681561666"><ele>1232.0</ele><time>2026-04-11T10:08:19Z</time></trkpt><trkpt lat="38.2125785375604" lon="15.979826629149068"><ele>1230.3333333333333</ele><time>2026-04-11T10:08:20Z</time></trkpt><trkpt lat="38.21262614582372" lon="15.979910279406454"><ele>1228.6666666666667</ele><time>2026-04-11T10:08:21Z</time></trkpt><trkpt lat="38.212664839040315" lon="15.979977854662875"><ele>1227.0</ele><time>2026-04-11T10:08:22Z</time></trkpt><trkpt lat="38.21270304779707" lon="15.980074693867982"><ele>1227.0</ele><time>2026-04-11T10:08:23Z</time></trkpt><trkpt lat="38.212732159132884" lon="15.980194749147696"><ele>1227.0</ele><time>2026-04-11T10:08:24Z</time></trkpt><trkpt lat="38.21274683723772" lon="15.980312938551947"><ele>1227.0</ele><time>2026-04-11T10:08:25Z</time></trkpt><trkpt lat="38.21274959845348" lon="15.980438979154677"><ele>1227.0</ele><time>2026-04-11T10:08:26Z</time></trkpt><trkpt lat="38.21276668796348" lon="15.980551441258394"><ele>1227.0</ele><time>2026-04-11T10:08:27Z</time></trkpt><trkpt lat="38.21278048556131" lon="15.980650532961139"><ele>1227.0</ele><time>2026-04-11T10:08:28Z</time></trkpt><trkpt lat="38.212775190640514" lon="15.980738246429977"><ele>1227.0</ele><time>2026-04-11T10:08:29Z</time></trkpt><trkpt lat="38.21278806703263" lon="15.980879097815054"><ele>1227.0</ele><time>2026-04-11T10:08:30Z</time></trkpt><trkpt lat="38.21282098532261" lon="15.980997592667574"><ele>1227.0</ele><time>2026-04-11T10:08:31Z</time></trkpt><trkpt lat="38.212863578031886" lon="15.981118482760763"><ele>1227.0</ele><time>2026-04-11T10:08:32Z</time></trkpt><trkpt lat="38.21292339129115" lon="15.981241589521753"><ele>1225.25</ele><time>2026-04-11T10:08:33Z</time></trkpt><trkpt lat="38.21301118386441" lon="15.98138260097863"><ele>1223.5</ele><time>2026-04-11T10:08:34Z</time></trkpt><trkpt lat="38.213057901083815" lon="15.981515679012764"><ele>1221.75</ele><time>2026-04-11T10:08:35Z</time></trkpt><trkpt lat="38.21309564359626" lon="15.981643316823922"><ele>1220.0</ele><time>2026-04-11T10:08:36Z</time></trkpt><trkpt lat="38.21311940417425" lon="15.98177162829088"><ele>1218.2</ele><time>2026-04-11T10:08:37Z</time></trkpt><trkpt lat="38.21310453804538" lon="15.981883845365612"><ele>1216.4</ele><time>2026-04-11T10:08:38Z</time></trkpt><trkpt lat="38.213052236361" lon="15.98198105782878"><ele>1214.6</ele><time>2026-04-11T10:08:39Z</time></trkpt><trkpt lat="38.21294713007964" lon="15.982016563117005"><ele>1212.8</ele><time>2026-04-11T10:08:40Z</time></trkpt><trkpt lat="38.21281857612868" lon="15.98201994431517"><ele>1211.0</ele><time>2026-04-11T10:08:41Z</time></trkpt><trkpt lat="38.21269957796255" lon="15.982029337066606"><ele>1211.0</ele><time>2026-04-11T10:08:42Z</time></trkpt><trkpt lat="38.2126013089886" lon="15.982079613628638"><ele>1211.0</ele><time>2026-04-11T10:08:43Z</time></trkpt><trkpt lat="38.21252680237248" lon="15.982193845950015"><ele>1211.0</ele><time>2026-04-11T10:08:44Z</time></trkpt><trkpt lat="38.212482456273975" lon="15.982318086458513"><ele>1211.0</ele><time>2026-04-11T10:08:45Z</time></trkpt><trkpt lat="38.21249054876474" lon="15.982451573852993"><ele>1211.0</ele><time>2026-04-11T10:08:46Z</time></trkpt><trkpt lat="38.212522598362746" lon="15.982585964056398"><ele>1213.25</ele><time>2026-04-11T10:08:47Z</time></trkpt><trkpt lat="38.212578602709726" lon="15.982725686821961"><ele>1215.5</ele><time>2026-04-11T10:08:48Z</time></trkpt><trkpt lat="38.212672335699644" lon="15.982859181781027"><ele>1217.75</ele><time>2026-04-11T10:08:49Z</time></trkpt><trkpt lat="38.212757295190436" lon="15.982995284554853"><ele>1220.0</ele><time>2026-04-11T10:08:50Z</time></trkpt><trkpt lat="38.21283453324939" lon="15.983130448126023"><ele>1220.0</ele><time>2026-04-11T10:08:51Z</time></trkpt><trkpt lat="38.21289639374868" lon="15.98323943901899"><ele>1220.0</ele><time>2026-04-11T10:08:52Z</time></trkpt><trkpt lat="38.212961266962736" lon="15.983340897606292"><ele>1220.0</ele><time>2026-04-11T10:08:53Z</time></trkpt><trkpt lat="38.213013775081585" lon="15.983422991852452"><ele>1220.0</ele><time>2026-04-11T10:08:54Z</time></trkpt><trkpt lat="38.21305289084332" lon="15.983501144377769"><ele>1220.0</ele><time>2026-04-11T10:08:55Z</time></trkpt><trkpt lat="38.213063003241096" lon="15.983591758328384"><ele>1220.0</ele><time>2026-04-11T10:08:56Z</time></trkpt><trkpt lat="38.213053511750076" lon="15.983695501232372"><ele>1221.2</ele><time>2026-04-11T10:08:57Z</time></trkpt><trkpt lat="38.21303983755453" lon="15.98380274515063"><ele>1222.4</ele><time>2026-04-11T10:08:58Z</time></trkpt><trkpt lat="38.213026203084226" lon="15.983904854447037"><ele>1223.6</ele><time>2026-04-11T10:08:59Z</time></trkpt><trkpt lat="38.213008587464316" lon="15.984011365568849"><ele>1224.8</ele><time>2026-04-11T10:09:00Z</time></trkpt><trkpt lat="38.21298206773527" lon="15.984143787429684"><ele>1226.0</ele><time>2026-04-11T10:09:01Z</time></trkpt><trkpt lat="38.21296452894345" lon="15.984269536686742"><ele>1226.0</ele><time>2026-04-11T10:09:02Z</time></trkpt><trkpt lat="38.21295022592312" lon="15.984403923909445"><ele>1226.0</ele><time>2026-04-11T10:09:03Z</time></trkpt><trkpt lat="38.21291399648545" lon="15.984534425336433"><ele>1226.0</ele><time>2026-04-11T10:09:04Z</time></trkpt><trkpt lat="38.21284944179273" lon="15.984668393897882"><ele>1226.0</ele><time>2026-04-11T10:09:05Z</time></trkpt><trkpt lat="38.21280654388839" lon="15.984785964096224"><ele>1226.0</ele><time>2026-04-11T10:09:06Z</time></trkpt><trkpt lat="38.21270400009061" lon="15.984913891420197"><ele>1226.0</ele><time>2026-04-11T10:09:07Z</time></trkpt><trkpt lat="38.21262812305104" lon="15.985027515847074"><ele>1226.0</ele><time>2026-04-11T10:09:08Z</time></trkpt><trkpt lat="38.21253739139614" lon="15.985115725054959"><ele>1226.0</ele><time>2026-04-11T10:09:09Z</time></trkpt><trkpt lat="38.21244759858448" lon="15.98517612856659"><ele>1226.0</ele><time>2026-04-11T10:09:10Z</time></trkpt><trkpt lat="38.21240208551908" lon="15.985255179225629"><ele>1226.0</ele><time>2026-04-11T10:09:11Z</time></trkpt><trkpt lat="38.21237418254384" lon="15.985339225917162"><ele>1226.0</ele><time>2026-04-11T10:09:12Z</time></trkpt><trkpt lat="38.21237832855685" lon="15.985441517982336"><ele>1226.0</ele><time>2026-04-11T10:09:13Z</time></trkpt><trkpt lat="38.21239428463522" lon="15.985537511872035"><ele>1226.0</ele><time>2026-04-11T10:09:14Z</time></trkpt><trkpt lat="38.21242223735701" lon="15.985633480691238"><ele>1226.0</ele><time>2026-04-11T10:09:15Z</time></trkpt><trkpt lat="38.21245318225553" lon="15.985708255437224"><ele>1226.0</ele><time>2026-04-11T10:09:16Z</time></trkpt><trkpt lat="38.21250104625836" lon="15.985779361953146"><ele>1226.0</ele><time>2026-04-11T10:09:17Z</time></trkpt><trkpt lat="38.212560177523436" lon="15.985826074241592"><ele>1226.0</ele><time>2026-04-11T10:09:18Z</time></trkpt><trkpt lat="38.212639463676524" lon="15.985854149603894"><ele>1226.0</ele><time>2026-04-11T10:09:19Z</time></trkpt><trkpt lat="38.21271871908361" lon="15.985840191406762"><ele>1226.0</ele><time>2026-04-11T10:09:20Z</time></trkpt><trkpt lat="38.21281357824" lon="15.985834651889181"><ele>1226.0</ele><time>2026-04-11T10:09:21Z</time></trkpt><trkpt lat="38.21291381274224" lon="15.985831276002532"><ele>1226.0</ele><time>2026-04-11T10:09:22Z</time></trkpt><trkpt lat="38.213013006650314" lon="15.985811026350774"><ele>1226.0</ele><time>2026-04-11T10:09:23Z</time></trkpt><trkpt lat="38.21312117065209" lon="15.985794901549685"><ele>1225.6</ele><time>2026-04-11T10:09:24Z</time></trkpt><trkpt lat="38.21322904092201" lon="15.985792031957402"><ele>1225.1999999999998</ele><time>2026-04-11T10:09:25Z</time></trkpt><trkpt lat="38.21333692905123" lon="15.985787226004513"><ele>1224.8000000000002</ele><time>2026-04-11T10:09:26Z</time></trkpt><trkpt lat="38.213432883058175" lon="15.985786950749027"><ele>1224.4</ele><time>2026-04-11T10:09:27Z</time></trkpt><trkpt lat="38.21354512392703" lon="15.985784123798107"><ele>1224.0</ele><time>2026-04-11T10:09:28Z</time></trkpt><trkpt lat="38.21363279691825" lon="15.985794726411777"><ele>1224.0</ele><time>2026-04-11T10:09:29Z</time></trkpt><trkpt lat="38.213719053137375" lon="15.985831577489254"><ele>1224.0</ele><time>2026-04-11T10:09:30Z</time></trkpt><trkpt lat="38.2137944001616" lon="15.985896597438739"><ele>1224.0</ele><time>2026-04-11T10:09:31Z</time></trkpt><trkpt lat="38.213861871811744" lon="15.985995261751077"><ele>1224.0</ele><time>2026-04-11T10:09:32Z</time></trkpt><trkpt lat="38.213911558201126" lon="15.986110195833362"><ele>1224.0</ele><time>2026-04-11T10:09:33Z</time></trkpt><trkpt lat="38.213955051431036" lon="15.986244352752355"><ele>1226.75</ele><time>2026-04-11T10:09:34Z</time></trkpt><trkpt lat="38.213994444116715" lon="15.986381038197177"><ele>1229.5</ele><time>2026-04-11T10:09:35Z</time></trkpt><trkpt lat="38.21402566332815" lon="15.98651781131254"><ele>1232.25</ele><time>2026-04-11T10:09:36Z</time></trkpt><trkpt lat="38.21406570186415" lon="15.98665305891554"><ele>1235.0</ele><time>2026-04-11T10:09:37Z</time></trkpt><trkpt lat="38.21409755759894" lon="15.986799236104751"><ele>1235.0</ele><time>2026-04-11T10:09:38Z</time></trkpt><trkpt lat="38.214119778120484" lon="15.986939620507155"><ele>1235.0</ele><time>2026-04-11T10:09:39Z</time></trkpt><trkpt lat="38.21414737581371" lon="15.987098392921245"><ele>1235.0</ele><time>2026-04-11T10:09:40Z</time></trkpt><trkpt lat="38.21418484827039" lon="15.9872351474831"><ele>1235.0</ele><time>2026-04-11T10:09:41Z</time></trkpt><trkpt lat="38.21420937911138" lon="15.987383080134409"><ele>1236.0</ele><time>2026-04-11T10:09:42Z</time></trkpt><trkpt lat="38.21423829156453" lon="15.987539502495656"><ele>1237.0</ele><time>2026-04-11T10:09:43Z</time></trkpt><trkpt lat="38.214270026446584" lon="15.987701665644833"><ele>1238.0</ele><time>2026-04-11T10:09:44Z</time></trkpt><trkpt lat="38.21428031449734" lon="15.987842798329105"><ele>1239.0</ele><time>2026-04-11T10:09:45Z</time></trkpt><trkpt lat="38.21428355048327" lon="15.987983791588722"><ele>1239.0</ele><time>2026-04-11T10:09:46Z</time></trkpt><trkpt lat="38.21431259394202" lon="15.988123359457493"><ele>1239.0</ele><time>2026-04-11T10:09:47Z</time></trkpt><trkpt lat="38.214331644625304" lon="15.9882542703903"><ele>1239.0</ele><time>2026-04-11T10:09:48Z</time></trkpt><trkpt lat="38.21436690998076" lon="15.98838302518543"><ele>1239.0</ele><time>2026-04-11T10:09:49Z</time></trkpt><trkpt lat="38.21442374640444" lon="15.988493656385414"><ele>1239.0</ele><time>2026-04-11T10:09:50Z</time></trkpt><trkpt lat="38.214521835608934" lon="15.988583801326156"><ele>1240.25</ele><time>2026-04-11T10:09:51Z</time></trkpt><trkpt lat="38.21463578012588" lon="15.988679963874262"><ele>1241.5</ele><time>2026-04-11T10:09:52Z</time></trkpt><trkpt lat="38.214762098259165" lon="15.988750852235187"><ele>1242.75</ele><time>2026-04-11T10:09:53Z</time></trkpt><trkpt lat="38.21487593252102" lon="15.988798083885733"><ele>1244.0</ele><time>2026-04-11T10:09:54Z</time></trkpt><trkpt lat="38.21499247342351" lon="15.988842371932073"><ele>1240.75</ele><time>2026-04-11T10:09:55Z</time></trkpt><trkpt lat="38.21510760400927" lon="15.988897111268496"><ele>1237.5</ele><time>2026-04-11T10:09:56Z</time></trkpt><trkpt lat="38.215204860437545" lon="15.988963284569282"><ele>1234.25</ele><time>2026-04-11T10:09:57Z</time></trkpt><trkpt lat="38.2153078128526" lon="15.98902183634263"><ele>1231.0</ele><time>2026-04-11T10:09:58Z</time></trkpt><trkpt lat="38.21540573879508" lon="15.989083574558737"><ele>1231.0</ele><time>2026-04-11T10:09:59Z</time></trkpt><trkpt lat="38.215510678678875" lon="15.989132907542054"><ele>1231.0</ele><time>2026-04-11T10:10:00Z</time></trkpt><trkpt lat="38.21561142132193" lon="15.989180811336116"><ele>1231.0</ele><time>2026-04-11T10:10:01Z</time></trkpt><trkpt lat="38.215732831400345" lon="15.989243789854749"><ele>1231.0</ele><time>2026-04-11T10:10:02Z</time></trkpt><trkpt lat="38.2158464345935" lon="15.989306117984967"><ele>1227.75</ele><time>2026-04-11T10:10:03Z</time></trkpt><trkpt lat="38.215963171012945" lon="15.989372095479617"><ele>1224.5</ele><time>2026-04-11T10:10:04Z</time></trkpt><trkpt lat="38.21605261369588" lon="15.989446830341096"><ele>1221.25</ele><time>2026-04-11T10:10:05Z</time></trkpt><trkpt lat="38.21615516190697" lon="15.989534673379088"><ele>1218.0</ele><time>2026-04-11T10:10:06Z</time></trkpt><trkpt lat="38.216253921781956" lon="15.989635447504408"><ele>1218.0</ele><time>2026-04-11T10:10:07Z</time></trkpt><trkpt lat="38.216346285114476" lon="15.989733104305548"><ele>1218.0</ele><time>2026-04-11T10:10:08Z</time></trkpt><trkpt lat="38.216456112201456" lon="15.989811404702035"><ele>1218.0</ele><time>2026-04-11T10:10:09Z</time></trkpt><trkpt lat="38.216545397338386" lon="15.989870987838792"><ele>1218.0</ele><time>2026-04-11T10:10:10Z</time></trkpt><trkpt lat="38.21663874314978" lon="15.989902894954735"><ele>1218.0</ele><time>2026-04-11T10:10:11.001Z</time></trkpt><trkpt lat="38.21673094249633" lon="15.989899681345557"><ele>1215.4</ele><time>2026-04-11T10:10:12.001Z</time></trkpt><trkpt lat="38.21683110312028" lon="15.989865233522252"><ele>1212.8</ele><time>2026-04-11T10:10:13.001Z</time></trkpt><trkpt lat="38.21691059855056" lon="15.989776684853853"><ele>1210.2</ele><time>2026-04-11T10:10:14.001Z</time></trkpt><trkpt lat="38.21700725909785" lon="15.989710147415684"><ele>1207.6</ele><time>2026-04-11T10:10:15.001Z</time></trkpt><trkpt lat="38.2170863642624" lon="15.98965378245443"><ele>1205.0</ele><time>2026-04-11T10:10:16.001Z</time></trkpt><trkpt lat="38.21716745328769" lon="15.989602572634158"><ele>1205.0</ele><time>2026-04-11T10:10:17.001Z</time></trkpt><trkpt lat="38.21724854392888" lon="15.98957382935201"><ele>1205.0</ele><time>2026-04-11T10:10:18.001Z</time></trkpt><trkpt lat="38.21733443974504" lon="15.989568337741156"><ele>1205.0</ele><time>2026-04-11T10:10:19.001Z</time></trkpt><trkpt lat="38.2174106901285" lon="15.989615880222702"><ele>1205.0</ele><time>2026-04-11T10:10:20.001Z</time></trkpt><trkpt lat="38.217472156927805" lon="15.989700243125306"><ele>1205.0</ele><time>2026-04-11T10:10:21.001Z</time></trkpt><trkpt lat="38.21749442757436" lon="15.989821062958978"><ele>1205.0</ele><time>2026-04-11T10:10:22.001Z</time></trkpt><trkpt lat="38.21748621551282" lon="15.989938352343128"><ele>1205.0</ele><time>2026-04-11T10:10:23.001Z</time></trkpt><trkpt lat="38.21743029262179" lon="15.99004555088806"><ele>1205.0</ele><time>2026-04-11T10:10:24.001Z</time></trkpt><trkpt lat="38.21737506006073" lon="15.990134312980537"><ele>1205.0</ele><time>2026-04-11T10:10:25Z</time></trkpt><trkpt lat="38.21730188156705" lon="15.990228178855721"><ele>1205.0</ele><time>2026-04-11T10:10:26Z</time></trkpt><trkpt lat="38.21722356025436" lon="15.99032474402785"><ele>1205.0</ele><time>2026-04-11T10:10:27Z</time></trkpt><trkpt lat="38.217172192723694" lon="15.990411346454033"><ele>1205.0</ele><time>2026-04-11T10:10:28Z</time></trkpt><trkpt lat="38.217155388346605" lon="15.990498633722707"><ele>1205.0</ele><time>2026-04-11T10:10:29Z</time></trkpt><trkpt lat="38.217164545596226" lon="15.990643151785402"><ele>1205.0</ele><time>2026-04-11T10:10:31Z</time></trkpt><trkpt lat="38.217211544715965" lon="15.990725523863802"><ele>1205.0</ele><time>2026-04-11T10:10:32Z</time></trkpt><trkpt lat="38.217283569739514" lon="15.990801060583642"><ele>1205.0</ele><time>2026-04-11T10:10:33Z</time></trkpt><trkpt lat="38.217367039728515" lon="15.990863556615233"><ele>1205.4</ele><time>2026-04-11T10:10:34Z</time></trkpt><trkpt lat="38.21746323784818" lon="15.990887104939688"><ele>1205.8</ele><time>2026-04-11T10:10:35Z</time></trkpt><trkpt lat="38.217564635875696" lon="15.990876339340556"><ele>1206.2</ele><time>2026-04-11T10:10:36Z</time></trkpt><trkpt lat="38.217641440800314" lon="15.9908739361215"><ele>1206.6</ele><time>2026-04-11T10:10:37Z</time></trkpt><trkpt lat="38.21773370770348" lon="15.99098565430811"><ele>1207.0</ele><time>2026-04-11T10:10:38Z</time></trkpt><trkpt lat="38.21776986958212" lon="15.991103301884243"><ele>1207.0</ele><time>2026-04-11T10:10:39Z</time></trkpt><trkpt lat="38.21783563801355" lon="15.991180469233578"><ele>1207.0</ele><time>2026-04-11T10:10:40Z</time></trkpt><trkpt lat="38.217883987689305" lon="15.991269101050568"><ele>1207.0</ele><time>2026-04-11T10:10:41Z</time></trkpt><trkpt lat="38.21793220028771" lon="15.9913658867903"><ele>1207.0</ele><time>2026-04-11T10:10:42Z</time></trkpt><trkpt lat="38.21797125361358" lon="15.991471701693916"><ele>1207.0</ele><time>2026-04-11T10:10:43Z</time></trkpt><trkpt lat="38.218015023433665" lon="15.991580595543915"><ele>1206.4</ele><time>2026-04-11T10:10:44Z</time></trkpt><trkpt lat="38.2180924639578" lon="15.991682381426635"><ele>1205.8000000000002</ele><time>2026-04-11T10:10:45Z</time></trkpt><trkpt lat="38.218196409251014" lon="15.991752964777456"><ele>1205.2</ele><time>2026-04-11T10:10:46Z</time></trkpt><trkpt lat="38.2182876860954" lon="15.991801809142556"><ele>1204.6000000000001</ele><time>2026-04-11T10:10:47Z</time></trkpt><trkpt lat="38.21838350801809" lon="15.991835727971724"><ele>1204.0</ele><time>2026-04-11T10:10:48Z</time></trkpt><trkpt lat="38.21846188374789" lon="15.991877367977795"><ele>1204.0</ele><time>2026-04-11T10:10:49Z</time></trkpt><trkpt lat="38.21854897274172" lon="15.991913620198215"><ele>1204.0</ele><time>2026-04-11T10:10:50Z</time></trkpt><trkpt lat="38.21861795144241" lon="15.991962259919925"><ele>1204.0</ele><time>2026-04-11T10:10:51Z</time></trkpt><trkpt lat="38.218699795190766" lon="15.992016550718839"><ele>1204.0</ele><time>2026-04-11T10:10:52Z</time></trkpt><trkpt lat="38.21876266001978" lon="15.992070595145249"><ele>1204.0</ele><time>2026-04-11T10:10:53Z</time></trkpt><trkpt lat="38.21877504354211" lon="15.992184996247087"><ele>1204.0</ele><time>2026-04-11T10:10:54Z</time></trkpt><trkpt lat="38.21877631429051" lon="15.992302715191045"><ele>1204.0</ele><time>2026-04-11T10:10:55Z</time></trkpt><trkpt lat="38.2187695069476" lon="15.992409111619448"><ele>1204.0</ele><time>2026-04-11T10:10:56Z</time></trkpt><trkpt lat="38.21875086229162" lon="15.99253666541121"><ele>1204.0</ele><time>2026-04-11T10:10:57Z</time></trkpt><trkpt lat="38.218738938026576" lon="15.992664108109729"><ele>1204.0</ele><time>2026-04-11T10:10:58Z</time></trkpt><trkpt lat="38.218701245662956" lon="15.992789584633218"><ele>1204.0</ele><time>2026-04-11T10:10:59Z</time></trkpt><trkpt lat="38.21865106065781" lon="15.992888577839189"><ele>1203.6000000000001</ele><time>2026-04-11T10:11:00Z</time></trkpt><trkpt lat="38.218620715703054" lon="15.992996520507544"><ele>1203.2</ele><time>2026-04-11T10:11:01Z</time></trkpt><trkpt lat="38.218573182074614" lon="15.993072941876171"><ele>1202.8000000000002</ele><time>2026-04-11T10:11:02Z</time></trkpt><trkpt lat="38.218502140575545" lon="15.993158963230899"><ele>1202.4</ele><time>2026-04-11T10:11:03Z</time></trkpt><trkpt lat="38.21842081727158" lon="15.993246412768347"><ele>1202.0</ele><time>2026-04-11T10:11:04Z</time></trkpt><trkpt lat="38.218342016272594" lon="15.993346688095556"><ele>1201.4</ele><time>2026-04-11T10:11:05Z</time></trkpt><trkpt lat="38.21827531484582" lon="15.993425720120063"><ele>1200.8000000000002</ele><time>2026-04-11T10:11:06Z</time></trkpt><trkpt lat="38.21820038639965" lon="15.99353474402979"><ele>1200.2</ele><time>2026-04-11T10:11:07Z</time></trkpt><trkpt lat="38.21811748454372" lon="15.993632167192077"><ele>1199.6000000000001</ele><time>2026-04-11T10:11:08Z</time></trkpt><trkpt lat="38.21806692188304" lon="15.99374865519991"><ele>1199.0</ele><time>2026-04-11T10:11:09Z</time></trkpt><trkpt lat="38.21803146189352" lon="15.993880693421968"><ele>1201.4</ele><time>2026-04-11T10:11:10Z</time></trkpt><trkpt lat="38.21801355667058" lon="15.993976087525649"><ele>1203.8000000000002</ele><time>2026-04-11T10:11:11Z</time></trkpt><trkpt lat="38.21799658704524" lon="15.994098713842556"><ele>1206.1999999999998</ele><time>2026-04-11T10:11:12Z</time></trkpt><trkpt lat="38.21798392383104" lon="15.994254118811648"><ele>1208.6</ele><time>2026-04-11T10:11:13Z</time></trkpt><trkpt lat="38.21797831631695" lon="15.994393544910784"><ele>1211.0</ele><time>2026-04-11T10:11:14Z</time></trkpt><trkpt lat="38.217978124373126" lon="15.994534283088754"><ele>1211.5</ele><time>2026-04-11T10:11:15Z</time></trkpt><trkpt lat="38.21798526232813" lon="15.99467631738351"><ele>1212.0</ele><time>2026-04-11T10:11:16Z</time></trkpt><trkpt lat="38.21800090208606" lon="15.994821447112725"><ele>1212.5</ele><time>2026-04-11T10:11:17Z</time></trkpt><trkpt lat="38.21802342783192" lon="15.994968368853758"><ele>1213.0</ele><time>2026-04-11T10:11:18Z</time></trkpt><trkpt lat="38.21805237573661" lon="15.995113789909468"><ele>1211.8</ele><time>2026-04-11T10:11:19Z</time></trkpt><trkpt lat="38.21808825437979" lon="15.995264112094901"><ele>1210.6</ele><time>2026-04-11T10:11:20Z</time></trkpt><trkpt lat="38.218126254268796" lon="15.995399741527654"><ele>1209.4</ele><time>2026-04-11T10:11:21Z</time></trkpt><trkpt lat="38.21816481243485" lon="15.995525692549542"><ele>1208.2</ele><time>2026-04-11T10:11:22Z</time></trkpt><trkpt lat="38.218200336168216" lon="15.995649641853834"><ele>1207.0</ele><time>2026-04-11T10:11:23Z</time></trkpt><trkpt lat="38.2182618768255" lon="15.995757115834591"><ele>1207.0</ele><time>2026-04-11T10:11:24Z</time></trkpt><trkpt lat="38.21834046382699" lon="15.995822273645606"><ele>1207.0</ele><time>2026-04-11T10:11:25Z</time></trkpt><trkpt lat="38.218422974596834" lon="15.995870605975918"><ele>1207.0</ele><time>2026-04-11T10:11:26Z</time></trkpt><trkpt lat="38.21852230937672" lon="15.995923591013176"><ele>1207.0</ele><time>2026-04-11T10:11:27Z</time></trkpt><trkpt lat="38.21861728292569" lon="15.99598115341472"><ele>1207.0</ele><time>2026-04-11T10:11:28Z</time></trkpt><trkpt lat="38.21873424248106" lon="15.99603970685615"><ele>1208.25</ele><time>2026-04-11T10:11:29Z</time></trkpt><trkpt lat="38.21884039345868" lon="15.996108761135286"><ele>1209.5</ele><time>2026-04-11T10:11:30Z</time></trkpt><trkpt lat="38.2189514636103" lon="15.9961737264353"><ele>1210.75</ele><time>2026-04-11T10:11:31Z</time></trkpt><trkpt lat="38.21906123328787" lon="15.996251664063477"><ele>1212.0</ele><time>2026-04-11T10:11:32Z</time></trkpt><trkpt lat="38.21918536868951" lon="15.996328542132307"><ele>1212.0</ele><time>2026-04-11T10:11:33Z</time></trkpt><trkpt lat="38.21931284294421" lon="15.996407959237002"><ele>1212.0</ele><time>2026-04-11T10:11:34Z</time></trkpt><trkpt lat="38.219436992231024" lon="15.996488976008301"><ele>1212.0</ele><time>2026-04-11T10:11:35Z</time></trkpt><trkpt lat="38.219548109209555" lon="15.99656743886429"><ele>1212.0</ele><time>2026-04-11T10:11:36Z</time></trkpt><trkpt lat="38.219628731158615" lon="15.996673301165027"><ele>1211.0</ele><time>2026-04-11T10:11:37Z</time></trkpt><trkpt lat="38.219713877555776" lon="15.996760235393253"><ele>1210.0</ele><time>2026-04-11T10:11:38Z</time></trkpt><trkpt lat="38.21980539607671" lon="15.996853675503456"><ele>1209.0</ele><time>2026-04-11T10:11:39Z</time></trkpt><trkpt lat="38.219902488737006" lon="15.996923134733235"><ele>1208.0</ele><time>2026-04-11T10:11:40Z</time></trkpt><trkpt lat="38.219988802669505" lon="15.997030421176301"><ele>1208.0</ele><time>2026-04-11T10:11:41Z</time></trkpt><trkpt lat="38.220094357967206" lon="15.997117411122993"><ele>1208.0</ele><time>2026-04-11T10:11:42Z</time></trkpt><trkpt lat="38.22021663594524" lon="15.997202505341827"><ele>1208.0</ele><time>2026-04-11T10:11:43Z</time></trkpt><trkpt lat="38.2203552392112" lon="15.99724064962367"><ele>1208.0</ele><time>2026-04-11T10:11:44Z</time></trkpt><trkpt lat="38.22049582314617" lon="15.997264876842632"><ele>1208.0</ele><time>2026-04-11T10:11:45Z</time></trkpt><trkpt lat="38.22063738367009" lon="15.997291083542452"><ele>1208.0</ele><time>2026-04-11T10:11:46Z</time></trkpt><trkpt lat="38.22076861994619" lon="15.997318210376003"><ele>1208.0</ele><time>2026-04-11T10:11:47Z</time></trkpt><trkpt lat="38.22089014821425" lon="15.997343330515504"><ele>1208.0</ele><time>2026-04-11T10:11:48Z</time></trkpt><trkpt lat="38.22102083450533" lon="15.997350981426676"><ele>1206.25</ele><time>2026-04-11T10:11:49Z</time></trkpt><trkpt lat="38.2211516115962" lon="15.997390918892155"><ele>1204.5</ele><time>2026-04-11T10:11:50Z</time></trkpt><trkpt lat="38.22124697163966" lon="15.997424180192276"><ele>1202.75</ele><time>2026-04-11T10:11:51Z</time></trkpt><trkpt lat="38.221362428933595" lon="15.997443959963856"><ele>1201.0</ele><time>2026-04-11T10:11:52Z</time></trkpt><trkpt lat="38.22146355107103" lon="15.997469477240921"><ele>1198.2</ele><time>2026-04-11T10:11:53Z</time></trkpt><trkpt lat="38.22156722274569" lon="15.9975357318134"><ele>1195.3999999999999</ele><time>2026-04-11T10:11:54Z</time></trkpt><trkpt lat="38.221657921906726" lon="15.997584013306767"><ele>1192.6</ele><time>2026-04-11T10:11:55Z</time></trkpt><trkpt lat="38.22175064510892" lon="15.99765017078165"><ele>1189.8</ele><time>2026-04-11T10:11:56Z</time></trkpt><trkpt lat="38.22182115436687" lon="15.99772729792824"><ele>1187.0</ele><time>2026-04-11T10:11:57Z</time></trkpt><trkpt lat="38.221872142395824" lon="15.997807365796769"><ele>1187.0</ele><time>2026-04-11T10:11:58Z</time></trkpt><trkpt lat="38.22188708914131" lon="15.997908483413866"><ele>1187.0</ele><time>2026-04-11T10:11:59Z</time></trkpt><trkpt lat="38.221860256327" lon="15.997984673463872"><ele>1187.0</ele><time>2026-04-11T10:12:00Z</time></trkpt><trkpt lat="38.22181427660812" lon="15.998075120707542"><ele>1187.0</ele><time>2026-04-11T10:12:01Z</time></trkpt><trkpt lat="38.22171299318728" lon="15.998130009441919"><ele>1187.0</ele><time>2026-04-11T10:12:02Z</time></trkpt><trkpt lat="38.22163804336056" lon="15.998212002507211"><ele>1187.0</ele><time>2026-04-11T10:12:03Z</time></trkpt><trkpt lat="38.22156824387448" lon="15.998288358599872"><ele>1187.4</ele><time>2026-04-11T10:12:04Z</time></trkpt><trkpt lat="38.221516938118185" lon="15.99834448289122"><ele>1187.8000000000002</ele><time>2026-04-11T10:12:05Z</time></trkpt><trkpt lat="38.22157943849651" lon="15.99853832642408"><ele>1188.2</ele><time>2026-04-11T10:12:06Z</time></trkpt><trkpt lat="38.22159869934711" lon="15.998652239417336"><ele>1188.6000000000001</ele><time>2026-04-11T10:12:08Z</time></trkpt><trkpt lat="38.22162786618205" lon="15.998776288347093"><ele>1189.0</ele><time>2026-04-11T10:12:10Z</time></trkpt><trkpt lat="38.22165817757717" lon="15.998862408949408"><ele>1189.0</ele><time>2026-04-11T10:12:13Z</time></trkpt><trkpt lat="38.22170849231957" lon="15.998945921969426"><ele>1189.0</ele><time>2026-04-11T10:12:21.001Z</time></trkpt><trkpt lat="38.22176141166386" lon="15.999083583633935"><ele>1189.0</ele><time>2026-04-11T10:12:23.001Z</time></trkpt><trkpt lat="38.22179931142459" lon="15.999199255183163"><ele>1189.0</ele><time>2026-04-11T10:12:24.001Z</time></trkpt><trkpt lat="38.22181699674938" lon="15.999297159984025"><ele>1189.0</ele><time>2026-04-11T10:12:25.001Z</time></trkpt><trkpt lat="38.221801263952834" lon="15.999427672755951"><ele>1190.2</ele><time>2026-04-11T10:12:26.001Z</time></trkpt><trkpt lat="38.22175354319376" lon="15.999577440757506"><ele>1191.4</ele><time>2026-04-11T10:12:27.001Z</time></trkpt><trkpt lat="38.22173605223538" lon="15.999726057050827"><ele>1192.6</ele><time>2026-04-11T10:12:28.001Z</time></trkpt><trkpt lat="38.221755534145366" lon="15.999840755168288"><ele>1193.8</ele><time>2026-04-11T10:12:29.001Z</time></trkpt><trkpt lat="38.22179851013839" lon="15.999922086320614"><ele>1195.0</ele><time>2026-04-11T10:12:30.001Z</time></trkpt><trkpt lat="38.2218916746971" lon="16.000003951508276"><ele>1195.0</ele><time>2026-04-11T10:12:31Z</time></trkpt><trkpt lat="38.222018009183756" lon="16.00004572825416"><ele>1195.0</ele><time>2026-04-11T10:12:32Z</time></trkpt><trkpt lat="38.2221546445994" lon="16.00008535769609"><ele>1195.0</ele><time>2026-04-11T10:12:33Z</time></trkpt><trkpt lat="38.222298464954456" lon="16.00016523034552"><ele>1195.0</ele><time>2026-04-11T10:12:34Z</time></trkpt><trkpt lat="38.22239068956077" lon="16.000284039675538"><ele>1194.0</ele><time>2026-04-11T10:12:35Z</time></trkpt><trkpt lat="38.22242627788606" lon="16.00039103648283"><ele>1193.0</ele><time>2026-04-11T10:12:36Z</time></trkpt><trkpt lat="38.22246146435758" lon="16.000508022157376"><ele>1192.0</ele><time>2026-04-11T10:12:37Z</time></trkpt><trkpt lat="38.22252541734153" lon="16.00068867189355"><ele>1191.0</ele><time>2026-04-11T10:12:38Z</time></trkpt><trkpt lat="38.2226007836914" lon="16.000875971865902"><ele>1194.6666666666667</ele><time>2026-04-11T10:12:39Z</time></trkpt><trkpt lat="38.22267787013329" lon="16.001067170244166"><ele>1198.3333333333335</ele><time>2026-04-11T10:12:40Z</time></trkpt><trkpt lat="38.22278222436129" lon="16.001276606899918"><ele>1202.0</ele><time>2026-04-11T10:12:41Z</time></trkpt><trkpt lat="38.22289475181474" lon="16.001524859597808"><ele>1202.0</ele><time>2026-04-11T10:12:42Z</time></trkpt><trkpt lat="38.22299421225797" lon="16.001706977055274"><ele>1202.0</ele><time>2026-04-11T10:12:43Z</time></trkpt><trkpt lat="38.22311032385044" lon="16.00186496995837"><ele>1202.0</ele><time>2026-04-11T10:12:44Z</time></trkpt><trkpt lat="38.22322496185518" lon="16.00196599073424"><ele>1202.0</ele><time>2026-04-11T10:12:45Z</time></trkpt><trkpt lat="38.223319410868015" lon="16.00210918802196"><ele>1202.0</ele><time>2026-04-11T10:12:46Z</time></trkpt><trkpt lat="38.2233546547561" lon="16.00223623483204"><ele>1202.0</ele><time>2026-04-11T10:12:47Z</time></trkpt><trkpt lat="38.22338133326993" lon="16.002405197498334"><ele>1202.0</ele><time>2026-04-11T10:12:48Z</time></trkpt><trkpt lat="38.22340109565774" lon="16.002590638858102"><ele>1204.3333333333335</ele><time>2026-04-11T10:12:49Z</time></trkpt><trkpt lat="38.223445220475185" lon="16.00276805666519"><ele>1206.6666666666667</ele><time>2026-04-11T10:12:50Z</time></trkpt><trkpt lat="38.22351687863231" lon="16.002949102133996"><ele>1209.0</ele><time>2026-04-11T10:12:51Z</time></trkpt><trkpt lat="38.223592291059006" lon="16.003175032522744"><ele>1211.0</ele><time>2026-04-11T10:12:52Z</time></trkpt><trkpt lat="38.22370009321204" lon="16.00339137581291"><ele>1213.0</ele><time>2026-04-11T10:12:53Z</time></trkpt><trkpt lat="38.223804858961095" lon="16.003575783877384"><ele>1215.0</ele><time>2026-04-11T10:12:54Z</time></trkpt><trkpt lat="38.22391528568577" lon="16.003693718656457"><ele>1210.3333333333333</ele><time>2026-04-11T10:12:55Z</time></trkpt><trkpt lat="38.224041487207025" lon="16.0037845412141"><ele>1205.6666666666665</ele><time>2026-04-11T10:12:56Z</time></trkpt><trkpt lat="38.224197244704875" lon="16.00388802364045"><ele>1201.0</ele><time>2026-04-11T10:12:57Z</time></trkpt><trkpt lat="38.2243578842045" lon="16.003965859580322"><ele>1201.0</ele><time>2026-04-11T10:12:58Z</time></trkpt><trkpt lat="38.22451452605745" lon="16.00406093625912"><ele>1201.0</ele><time>2026-04-11T10:12:59Z</time></trkpt><trkpt lat="38.224702267460124" lon="16.00418724854961"><ele>1201.0</ele><time>2026-04-11T10:13:00Z</time></trkpt><trkpt lat="38.224864456556205" lon="16.004326427164766"><ele>1202.0</ele><time>2026-04-11T10:13:01Z</time></trkpt><trkpt lat="38.22496042592251" lon="16.004435102136647"><ele>1203.0</ele><time>2026-04-11T10:13:02Z</time></trkpt><trkpt lat="38.22503361205308" lon="16.004539819403814"><ele>1204.0</ele><time>2026-04-11T10:13:03Z</time></trkpt><trkpt lat="38.22508160057457" lon="16.004684799788315"><ele>1205.0</ele><time>2026-04-11T10:13:04Z</time></trkpt><trkpt lat="38.22516385785739" lon="16.00489604008331"><ele>1208.0</ele><time>2026-04-11T10:13:05Z</time></trkpt><trkpt lat="38.225287426609114" lon="16.005079224977347"><ele>1211.0</ele><time>2026-04-11T10:13:06Z</time></trkpt><trkpt lat="38.22542681685613" lon="16.005221649556635"><ele>1214.0</ele><time>2026-04-11T10:13:07Z</time></trkpt><trkpt lat="38.225593543091975" lon="16.005390516159846"><ele>1211.6666666666667</ele><time>2026-04-11T10:13:08Z</time></trkpt><trkpt lat="38.225765713364865" lon="16.005556024078185"><ele>1209.3333333333333</ele><time>2026-04-11T10:13:09Z</time></trkpt><trkpt lat="38.22592237176865" lon="16.005730859162156"><ele>1207.0</ele><time>2026-04-11T10:13:10Z</time></trkpt><trkpt lat="38.22608763983837" lon="16.00593236247206"><ele>1207.0</ele><time>2026-04-11T10:13:11Z</time></trkpt><trkpt lat="38.22621805383407" lon="16.006166593719215"><ele>1207.0</ele><time>2026-04-11T10:13:12Z</time></trkpt><trkpt lat="38.22632589524236" lon="16.006413252934166"><ele>1207.0</ele><time>2026-04-11T10:13:13Z</time></trkpt><trkpt lat="38.22643294407978" lon="16.006685573047225"><ele>1203.6666666666665</ele><time>2026-04-11T10:13:14Z</time></trkpt><trkpt lat="38.226528897606094" lon="16.00689598002297"><ele>1200.3333333333333</ele><time>2026-04-11T10:13:15Z</time></trkpt><trkpt lat="38.22662319369064" lon="16.0070872182477"><ele>1197.0</ele><time>2026-04-11T10:13:16Z</time></trkpt><trkpt lat="38.22668925684362" lon="16.007249972671943"><ele>1197.0</ele><time>2026-04-11T10:13:17Z</time></trkpt><trkpt lat="38.226747128723" lon="16.00743701820212"><ele>1197.0</ele><time>2026-04-11T10:13:18Z</time></trkpt><trkpt lat="38.22680777782348" lon="16.007658368981968"><ele>1197.0</ele><time>2026-04-11T10:13:19Z</time></trkpt><trkpt lat="38.22686812276962" lon="16.00788098382616"><ele>1197.0</ele><time>2026-04-11T10:13:20Z</time></trkpt><trkpt lat="38.22692162310705" lon="16.008051748915218"><ele>1197.0</ele><time>2026-04-11T10:13:21Z</time></trkpt><trkpt lat="38.226992637554275" lon="16.008256777672596"><ele>1197.0</ele><time>2026-04-11T10:13:22Z</time></trkpt><trkpt lat="38.22708126235099" lon="16.00847241346369"><ele>1197.0</ele><time>2026-04-11T10:13:23Z</time></trkpt><trkpt lat="38.22718864066401" lon="16.008682534933705"><ele>1197.0</ele><time>2026-04-11T10:13:24Z</time></trkpt><trkpt lat="38.22732425236848" lon="16.00891376980772"><ele>1197.0</ele><time>2026-04-11T10:13:25Z</time></trkpt><trkpt lat="38.2274692139969" lon="16.009160343102934"><ele>1188.0</ele><time>2026-04-11T10:13:26Z</time></trkpt><trkpt lat="38.22761646583673" lon="16.009420614814044"><ele>1179.0</ele><time>2026-04-11T10:13:27Z</time></trkpt><trkpt lat="38.22775043962801" lon="16.009660535644382"><ele>1179.0</ele><time>2026-04-11T10:13:28Z</time></trkpt><trkpt lat="38.22787943800969" lon="16.009892475482975"><ele>1179.0</ele><time>2026-04-11T10:13:29Z</time></trkpt><trkpt lat="38.22798595345917" lon="16.010100952377204"><ele>1179.0</ele><time>2026-04-11T10:13:30Z</time></trkpt><trkpt lat="38.22807908677448" lon="16.01027798107459"><ele>1174.0</ele><time>2026-04-11T10:13:31Z</time></trkpt><trkpt lat="38.22817847886587" lon="16.010432181885665"><ele>1169.0</ele><time>2026-04-11T10:13:32Z</time></trkpt><trkpt lat="38.22831003682664" lon="16.01055784781509"><ele>1164.0</ele><time>2026-04-11T10:13:33Z</time></trkpt><trkpt lat="38.228443947248664" lon="16.010636845243923"><ele>1164.0</ele><time>2026-04-11T10:13:34Z</time></trkpt><trkpt lat="38.228618295205045" lon="16.010723222638514"><ele>1164.0</ele><time>2026-04-11T10:13:35Z</time></trkpt><trkpt lat="38.22881538171477" lon="16.01079936668396"><ele>1164.0</ele><time>2026-04-11T10:13:36Z</time></trkpt><trkpt lat="38.229060771443216" lon="16.010885507264472"><ele>1163.0</ele><time>2026-04-11T10:13:37Z</time></trkpt><trkpt lat="38.22930662302437" lon="16.010972671559394"><ele>1162.0</ele><time>2026-04-11T10:13:38Z</time></trkpt><trkpt lat="38.22953991912299" lon="16.0110834568883"><ele>1162.0</ele><time>2026-04-11T10:13:39Z</time></trkpt><trkpt lat="38.22977465746771" lon="16.01122418231032"><ele>1162.0</ele><time>2026-04-11T10:13:40Z</time></trkpt><trkpt lat="38.23003968181888" lon="16.01135580134022"><ele>1158.5</ele><time>2026-04-11T10:13:41Z</time></trkpt><trkpt lat="38.23032793899206" lon="16.01146650634963"><ele>1155.0</ele><time>2026-04-11T10:13:42Z</time></trkpt><trkpt lat="38.23058151228145" lon="16.011575755742243"><ele>1153.0</ele><time>2026-04-11T10:13:43Z</time></trkpt><trkpt lat="38.23081398561692" lon="16.011683594288666"><ele>1151.0</ele><time>2026-04-11T10:13:44Z</time></trkpt><trkpt lat="38.23103861861573" lon="16.011791416286805"><ele>1151.0</ele><time>2026-04-11T10:13:45Z</time></trkpt><trkpt lat="38.23125897309435" lon="16.011899366654585"><ele>1151.0</ele><time>2026-04-11T10:13:46Z</time></trkpt><trkpt lat="38.23148380069026" lon="16.01200950894203"><ele>1151.5</ele><time>2026-04-11T10:13:47Z</time></trkpt><trkpt lat="38.23171643722261" lon="16.012123132199285"><ele>1152.0</ele><time>2026-04-11T10:13:48Z</time></trkpt><trkpt lat="38.23195063956212" lon="16.012233899534333"><ele>1152.0</ele><time>2026-04-11T10:13:49Z</time></trkpt><trkpt lat="38.23219718143222" lon="16.01234400617822"><ele>1152.0</ele><time>2026-04-11T10:13:50Z</time></trkpt><trkpt lat="38.23244975596039" lon="16.012459301845514"><ele>1150.5</ele><time>2026-04-11T10:13:51Z</time></trkpt><trkpt lat="38.23269470936054" lon="16.012573482443376"><ele>1149.0</ele><time>2026-04-11T10:13:52Z</time></trkpt><trkpt lat="38.232921551100716" lon="16.01267454186135"><ele>1146.5</ele><time>2026-04-11T10:13:53Z</time></trkpt><trkpt lat="38.23314090487672" lon="16.01279651884094"><ele>1144.0</ele><time>2026-04-11T10:13:54Z</time></trkpt><trkpt lat="38.233361237856876" lon="16.012894171857987"><ele>1144.0</ele><time>2026-04-11T10:13:55Z</time></trkpt><trkpt lat="38.23360172987467" lon="16.01299799137486"><ele>1144.0</ele><time>2026-04-11T10:13:56Z</time></trkpt><trkpt lat="38.2338602669227" lon="16.013116103871265"><ele>1142.0</ele><time>2026-04-11T10:13:57Z</time></trkpt><trkpt lat="38.234113696979605" lon="16.013240306530076"><ele>1140.0</ele><time>2026-04-11T10:13:58Z</time></trkpt><trkpt lat="38.23437957677036" lon="16.01336990412208"><ele>1137.0</ele><time>2026-04-11T10:13:59Z</time></trkpt><trkpt lat="38.23464346458077" lon="16.013493335601826"><ele>1134.0</ele><time>2026-04-11T10:14:00Z</time></trkpt><trkpt lat="38.23490551807611" lon="16.013613272307353"><ele>1133.5</ele><time>2026-04-11T10:14:01Z</time></trkpt><trkpt lat="38.235167491195455" lon="16.013733934055143"><ele>1133.0</ele><time>2026-04-11T10:14:02Z</time></trkpt><trkpt lat="38.23541311146407" lon="16.013849987894904"><ele>1132.0</ele><time>2026-04-11T10:14:03Z</time></trkpt><trkpt lat="38.23565966005369" lon="16.013965302578402"><ele>1131.0</ele><time>2026-04-11T10:14:04Z</time></trkpt><trkpt lat="38.235917900735515" lon="16.01407749152524"><ele>1133.5</ele><time>2026-04-11T10:14:05Z</time></trkpt><trkpt lat="38.23618001272296" lon="16.01418728662245"><ele>1136.0</ele><time>2026-04-11T10:14:06Z</time></trkpt><trkpt lat="38.23642390264035" lon="16.01429276979928"><ele>1136.5</ele><time>2026-04-11T10:14:07Z</time></trkpt><trkpt lat="38.236655538430085" lon="16.014401214560525"><ele>1137.0</ele><time>2026-04-11T10:14:08Z</time></trkpt><trkpt lat="38.23687198013724" lon="16.014504709945808"><ele>1137.0</ele><time>2026-04-11T10:14:09Z</time></trkpt><trkpt lat="38.23707909519328" lon="16.014604850719078"><ele>1137.0</ele><time>2026-04-11T10:14:10Z</time></trkpt><trkpt lat="38.237228303219766" lon="16.014676993248795"><ele>1137.0</ele><time>2026-04-11T10:14:11Z</time></trkpt><trkpt lat="38.23740071225544" lon="16.014759343819055"><ele>1137.0</ele><time>2026-04-11T10:14:12Z</time></trkpt><trkpt lat="38.23758173998486" lon="16.0148457986932"><ele>1137.0</ele><time>2026-04-11T10:14:13Z</time></trkpt><trkpt lat="38.23776023152726" lon="16.0149310423409"><ele>1137.0</ele><time>2026-04-11T10:14:14Z</time></trkpt><trkpt lat="38.23792904344493" lon="16.015014669241978"><ele>1137.0</ele><time>2026-04-11T10:14:15.001Z</time></trkpt><trkpt lat="38.23810075048093" lon="16.015103619319753"><ele>1137.0</ele><time>2026-04-11T10:14:16.001Z</time></trkpt><trkpt lat="38.23828636811501" lon="16.015186307450684"><ele>1137.0</ele><time>2026-04-11T10:14:17.001Z</time></trkpt><trkpt lat="38.23848160480473" lon="16.015289775599022"><ele>1135.5</ele><time>2026-04-11T10:14:18.001Z</time></trkpt><trkpt lat="38.23868103126826" lon="16.015409115150447"><ele>1134.0</ele><time>2026-04-11T10:14:19.001Z</time></trkpt><trkpt lat="38.23889228646586" lon="16.015542881611747"><ele>1132.5</ele><time>2026-04-11T10:14:20.001Z</time></trkpt><trkpt lat="38.23910952691377" lon="16.015675981013946"><ele>1131.0</ele><time>2026-04-11T10:14:21.001Z</time></trkpt><trkpt lat="38.239325796014626" lon="16.015817284700574"><ele>1131.5</ele><time>2026-04-11T10:14:22.001Z</time></trkpt><trkpt lat="38.23956941316168" lon="16.015948543766477"><ele>1132.0</ele><time>2026-04-11T10:14:23.001Z</time></trkpt><trkpt lat="38.23980290770812" lon="16.016093537211727"><ele>1130.0</ele><time>2026-04-11T10:14:24.001Z</time></trkpt><trkpt lat="38.24003902054121" lon="16.01623088289301"><ele>1128.0</ele><time>2026-04-11T10:14:25.001Z</time></trkpt><trkpt lat="38.24028823127407" lon="16.016369838297557"><ele>1128.0</ele><time>2026-04-11T10:14:26.001Z</time></trkpt><trkpt lat="38.240541828666345" lon="16.016514467990007"><ele>1128.0</ele><time>2026-04-11T10:14:27.001Z</time></trkpt><trkpt lat="38.24078157597277" lon="16.016659358644407"><ele>1126.5</ele><time>2026-04-11T10:14:28.001Z</time></trkpt><trkpt lat="38.24101886287124" lon="16.016794783019286"><ele>1125.0</ele><time>2026-04-11T10:14:29.001Z</time></trkpt><trkpt lat="38.24124155119203" lon="16.01692553251934"><ele>1125.0</ele><time>2026-04-11T10:14:30.001Z</time></trkpt><trkpt lat="38.24145129566485" lon="16.017055440646992"><ele>1125.0</ele><time>2026-04-11T10:14:31.001Z</time></trkpt><trkpt lat="38.24166418109748" lon="16.01717765710099"><ele>1124.0</ele><time>2026-04-11T10:14:32.001Z</time></trkpt><trkpt lat="38.24187032573652" lon="16.017302161253184"><ele>1123.0</ele><time>2026-04-11T10:14:33.001Z</time></trkpt><trkpt lat="38.24206728703903" lon="16.017414025217374"><ele>1122.0</ele><time>2026-04-11T10:14:34.001Z</time></trkpt><trkpt lat="38.24225957625484" lon="16.017525804841913"><ele>1119.6666666666667</ele><time>2026-04-11T10:14:35.001Z</time></trkpt><trkpt lat="38.242451650411844" lon="16.01763397480947"><ele>1117.3333333333335</ele><time>2026-04-11T10:14:36.001Z</time></trkpt><trkpt lat="38.24262091162876" lon="16.017723548645108"><ele>1115.0</ele><time>2026-04-11T10:14:37Z</time></trkpt><trkpt lat="38.242762998229765" lon="16.017786628670276"><ele>1115.0</ele><time>2026-04-11T10:14:38Z</time></trkpt><trkpt lat="38.24286878954288" lon="16.017833221227537"><ele>1115.0</ele><time>2026-04-11T10:14:39Z</time></trkpt><trkpt lat="38.24297722563698" lon="16.017836403008804"><ele>1115.0</ele><time>2026-04-11T10:14:40Z</time></trkpt><trkpt lat="38.24311454124708" lon="16.017788910330488"><ele>1115.0</ele><time>2026-04-11T10:14:41Z</time></trkpt><trkpt lat="38.24321539359977" lon="16.017722804929846"><ele>1113.5</ele><time>2026-04-11T10:14:42Z</time></trkpt><trkpt lat="38.243316199094686" lon="16.017746419472815"><ele>1112.0</ele><time>2026-04-11T10:14:43Z</time></trkpt><trkpt lat="38.24343055099432" lon="16.017789264750835"><ele>1110.5</ele><time>2026-04-11T10:14:44Z</time></trkpt><trkpt lat="38.243548961822995" lon="16.01786454930542"><ele>1109.0</ele><time>2026-04-11T10:14:45Z</time></trkpt><trkpt lat="38.24365146705091" lon="16.018004160613618"><ele>1109.0</ele><time>2026-04-11T10:14:46Z</time></trkpt><trkpt lat="38.24375753424326" lon="16.01816246086655"><ele>1109.0</ele><time>2026-04-11T10:14:47Z</time></trkpt><trkpt lat="38.24388655633516" lon="16.018339908633635"><ele>1109.0</ele><time>2026-04-11T10:14:48Z</time></trkpt><trkpt lat="38.24400885302014" lon="16.018511768371344"><ele>1105.6666666666667</ele><time>2026-04-11T10:14:49Z</time></trkpt><trkpt lat="38.24411436253644" lon="16.018680155778597"><ele>1102.3333333333333</ele><time>2026-04-11T10:14:50Z</time></trkpt><trkpt lat="38.244213481497106" lon="16.018873763006887"><ele>1099.0</ele><time>2026-04-11T10:14:51Z</time></trkpt><trkpt lat="38.24432021388483" lon="16.01909171736515"><ele>1098.3333333333333</ele><time>2026-04-11T10:14:52Z</time></trkpt><trkpt lat="38.24440291403226" lon="16.019317947115383"><ele>1097.6666666666667</ele><time>2026-04-11T10:14:53Z</time></trkpt><trkpt lat="38.24450624063547" lon="16.01951853293889"><ele>1097.0</ele><time>2026-04-11T10:14:54Z</time></trkpt><trkpt lat="38.24465570186197" lon="16.019698492874948"><ele>1094.5</ele><time>2026-04-11T10:14:55Z</time></trkpt><trkpt lat="38.24481364656217" lon="16.01990353299023"><ele>1092.0</ele><time>2026-04-11T10:14:56Z</time></trkpt><trkpt lat="38.244972523100245" lon="16.020116518965487"><ele>1091.5</ele><time>2026-04-11T10:14:57Z</time></trkpt><trkpt lat="38.24514737359614" lon="16.020352115678662"><ele>1091.0</ele><time>2026-04-11T10:14:58Z</time></trkpt><trkpt lat="38.24531849243091" lon="16.02052602135775"><ele>1091.0</ele><time>2026-04-11T10:14:59Z</time></trkpt><trkpt lat="38.24547838697991" lon="16.02072016544686"><ele>1091.0</ele><time>2026-04-11T10:15:00Z</time></trkpt><trkpt lat="38.24560998712974" lon="16.020898754957734"><ele>1091.0</ele><time>2026-04-11T10:15:01Z</time></trkpt><trkpt lat="38.24575021774112" lon="16.02108364454996"><ele>1091.6666666666667</ele><time>2026-04-11T10:15:02Z</time></trkpt><trkpt lat="38.24589579211896" lon="16.021280884686213"><ele>1092.3333333333333</ele><time>2026-04-11T10:15:03Z</time></trkpt><trkpt lat="38.24604399254001" lon="16.021471871992535"><ele>1093.0</ele><time>2026-04-11T10:15:04Z</time></trkpt><trkpt lat="38.24621716952317" lon="16.021670037586958"><ele>1093.0</ele><time>2026-04-11T10:15:05Z</time></trkpt><trkpt lat="38.2463790451459" lon="16.021874978056367"><ele>1093.0</ele><time>2026-04-11T10:15:06Z</time></trkpt><trkpt lat="38.24655027916105" lon="16.022084728752773"><ele>1091.5</ele><time>2026-04-11T10:15:07Z</time></trkpt><trkpt lat="38.24671510307834" lon="16.022298272022482"><ele>1090.0</ele><time>2026-04-11T10:15:08Z</time></trkpt><trkpt lat="38.24688748422068" lon="16.02250660595866"><ele>1089.0</ele><time>2026-04-11T10:15:09Z</time></trkpt><trkpt lat="38.24705756087872" lon="16.022721853118128"><ele>1088.0</ele><time>2026-04-11T10:15:10Z</time></trkpt><trkpt lat="38.24720846035264" lon="16.022957309723534"><ele>1086.6666666666667</ele><time>2026-04-11T10:15:11Z</time></trkpt><trkpt lat="38.247366238105435" lon="16.023166136659757"><ele>1085.3333333333333</ele><time>2026-04-11T10:15:12Z</time></trkpt><trkpt lat="38.24752145535912" lon="16.02334498846867"><ele>1084.0</ele><time>2026-04-11T10:15:13Z</time></trkpt><trkpt lat="38.24767423722394" lon="16.023537514169536"><ele>1083.6666666666665</ele><time>2026-04-11T10:15:14Z</time></trkpt><trkpt lat="38.2478289347979" lon="16.023721430487758"><ele>1083.3333333333333</ele><time>2026-04-11T10:15:15Z</time></trkpt><trkpt lat="38.24796149799083" lon="16.023921656962234"><ele>1083.0</ele><time>2026-04-11T10:15:16Z</time></trkpt><trkpt lat="38.248106471194525" lon="16.024086264747236"><ele>1081.6666666666667</ele><time>2026-04-11T10:15:17Z</time></trkpt><trkpt lat="38.248241340284174" lon="16.024250359950265"><ele>1080.3333333333335</ele><time>2026-04-11T10:15:18Z</time></trkpt><trkpt lat="38.24838378081573" lon="16.024417117506758"><ele>1079.0</ele><time>2026-04-11T10:15:19Z</time></trkpt><trkpt lat="38.24852876982291" lon="16.024590226307758"><ele>1079.0</ele><time>2026-04-11T10:15:20Z</time></trkpt><trkpt lat="38.24868212858702" lon="16.02479706144189"><ele>1079.0</ele><time>2026-04-11T10:15:21Z</time></trkpt><trkpt lat="38.24884863397584" lon="16.025000157097182"><ele>1079.0</ele><time>2026-04-11T10:15:22Z</time></trkpt><trkpt lat="38.24903730437868" lon="16.025188551640213"><ele>1079.0</ele><time>2026-04-11T10:15:23Z</time></trkpt><trkpt lat="38.24920046756776" lon="16.025378672206408"><ele>1079.0</ele><time>2026-04-11T10:15:24Z</time></trkpt><trkpt lat="38.249347003058126" lon="16.025556135089705"><ele>1079.0</ele><time>2026-04-11T10:15:25Z</time></trkpt><trkpt lat="38.24947395556149" lon="16.02570399152033"><ele>1079.0</ele><time>2026-04-11T10:15:26Z</time></trkpt><trkpt lat="38.249562486710204" lon="16.02584851103394"><ele>1078.5</ele><time>2026-04-11T10:15:27Z</time></trkpt><trkpt lat="38.24966296949384" lon="16.025970794279473"><ele>1078.0</ele><time>2026-04-11T10:15:28Z</time></trkpt><trkpt lat="38.24976609672572" lon="16.026032198085314"><ele>1077.5</ele><time>2026-04-11T10:15:29Z</time></trkpt><trkpt lat="38.24988319008386" lon="16.026066668736092"><ele>1077.0</ele><time>2026-04-11T10:15:30Z</time></trkpt><trkpt lat="38.25001851696938" lon="16.026036941742287"><ele>1076.25</ele><time>2026-04-11T10:15:31Z</time></trkpt><trkpt lat="38.250188056060956" lon="16.02595730348399"><ele>1075.5</ele><time>2026-04-11T10:15:32Z</time></trkpt><trkpt lat="38.250298914441174" lon="16.025943456577547"><ele>1074.75</ele><time>2026-04-11T10:15:33Z</time></trkpt><trkpt lat="38.25039715779341" lon="16.02599000367826"><ele>1074.0</ele><time>2026-04-11T10:15:34Z</time></trkpt><trkpt lat="38.250495788002375" lon="16.02609939669408"><ele>1074.0</ele><time>2026-04-11T10:15:35Z</time></trkpt><trkpt lat="38.25061423766164" lon="16.026260009982096"><ele>1074.0</ele><time>2026-04-11T10:15:36Z</time></trkpt><trkpt lat="38.2507283572339" lon="16.02646415912491"><ele>1074.0</ele><time>2026-04-11T10:15:37Z</time></trkpt><trkpt lat="38.25084219757616" lon="16.026597041679086"><ele>1072.2</ele><time>2026-04-11T10:15:38Z</time></trkpt><trkpt lat="38.25090588035624" lon="16.02671058559903"><ele>1070.4</ele><time>2026-04-11T10:15:39Z</time></trkpt><trkpt lat="38.25098629582192" lon="16.02680772978757"><ele>1068.6</ele><time>2026-04-11T10:15:40Z</time></trkpt><trkpt lat="38.251043709047146" lon="16.0268945241386"><ele>1066.8</ele><time>2026-04-11T10:15:41Z</time></trkpt><trkpt lat="38.25104564752211" lon="16.02698001142081"><ele>1065.0</ele><time>2026-04-11T10:15:42Z</time></trkpt><trkpt lat="38.250970347667064" lon="16.027071264856865"><ele>1065.0</ele><time>2026-04-11T10:15:44Z</time></trkpt><trkpt lat="38.250907524058654" lon="16.02711152155349"><ele>1065.0</ele><time>2026-04-11T10:15:48Z</time></trkpt><trkpt lat="38.25083640681935" lon="16.02707490015518"><ele>1065.0</ele><time>2026-04-11T10:15:52Z</time></trkpt><trkpt lat="38.25077207744096" lon="16.027067620890907"><ele>1065.0</ele><time>2026-04-11T10:17:58Z</time></trkpt><trkpt lat="38.25078632508739" lon="16.027166563308036"><ele>1065.0</ele><time>2026-04-11T10:18:06Z</time></trkpt><trkpt lat="38.250692003956274" lon="16.02730695478431"><ele>1065.0</ele><time>2026-04-11T10:18:09Z</time></trkpt><trkpt lat="38.2506243895696" lon="16.02738132324744"><ele>1066.6666666666667</ele><time>2026-04-11T10:18:10Z</time></trkpt><trkpt lat="38.25049731462415" lon="16.027509667978034"><ele>1068.3333333333335</ele><time>2026-04-11T10:18:12Z</time></trkpt><trkpt lat="38.25037328018803" lon="16.02762380412789"><ele>1070.0</ele><time>2026-04-11T10:18:13Z</time></trkpt><trkpt lat="38.250244265328796" lon="16.02774513573358"><ele>1070.0</ele><time>2026-04-11T10:18:14Z</time></trkpt><trkpt lat="38.250153217091174" lon="16.027820361036873"><ele>1070.0</ele><time>2026-04-11T10:18:15Z</time></trkpt><trkpt lat="38.25008909341174" lon="16.02789382456955"><ele>1070.0</ele><time>2026-04-11T10:18:17Z</time></trkpt><trkpt lat="38.25014815148698" lon="16.028009894293593"><ele>1070.0</ele><time>2026-04-11T10:18:20Z</time></trkpt><trkpt lat="38.25019984499169" lon="16.028132614636405"><ele>1070.0</ele><time>2026-04-11T10:18:23Z</time></trkpt><trkpt lat="38.25023506928831" lon="16.02819995660907"><ele>1070.0</ele><time>2026-04-11T10:18:24.001Z</time></trkpt><trkpt lat="38.25028217536108" lon="16.02829382301362"><ele>1070.0</ele><time>2026-04-11T10:18:25.001Z</time></trkpt><trkpt lat="38.25031796039535" lon="16.02839608599517"><ele>1070.0</ele><time>2026-04-11T10:18:26.001Z</time></trkpt><trkpt lat="38.250349935081346" lon="16.028526891127186"><ele>1070.0</ele><time>2026-04-11T10:18:27.001Z</time></trkpt><trkpt lat="38.250359088170406" lon="16.028674710461708"><ele>1070.0</ele><time>2026-04-11T10:18:28.001Z</time></trkpt><trkpt lat="38.25036046979778" lon="16.028864795878302"><ele>1068.0</ele><time>2026-04-11T10:18:29.001Z</time></trkpt><trkpt lat="38.250362137031914" lon="16.02908203972679"><ele>1066.0</ele><time>2026-04-11T10:18:30.001Z</time></trkpt><trkpt lat="38.2503671222818" lon="16.029338159146768"><ele>1064.0</ele><time>2026-04-11T10:18:31.001Z</time></trkpt><trkpt lat="38.250376232701704" lon="16.029602128284665"><ele>1061.0</ele><time>2026-04-11T10:18:32.001Z</time></trkpt><trkpt lat="38.25037492608698" lon="16.029845822371144"><ele>1058.0</ele><time>2026-04-11T10:18:33.001Z</time></trkpt><trkpt lat="38.250363102891335" lon="16.03006458356906"><ele>1055.0</ele><time>2026-04-11T10:18:34.001Z</time></trkpt><trkpt lat="38.250328952689145" lon="16.030239245966353"><ele>1053.75</ele><time>2026-04-11T10:18:35.001Z</time></trkpt><trkpt lat="38.2502905674128" lon="16.03042567806018"><ele>1052.5</ele><time>2026-04-11T10:18:36.001Z</time></trkpt><trkpt lat="38.250256666727836" lon="16.03057347469553"><ele>1051.25</ele><time>2026-04-11T10:18:37.001Z</time></trkpt><trkpt lat="38.25021961021739" lon="16.030753845074944"><ele>1050.0</ele><time>2026-04-11T10:18:38.001Z</time></trkpt><trkpt lat="38.250232603045966" lon="16.030953101697015"><ele>1048.0</ele><time>2026-04-11T10:18:39.001Z</time></trkpt><trkpt lat="38.25030694237846" lon="16.03113316971003"><ele>1046.0</ele><time>2026-04-11T10:18:40.001Z</time></trkpt><trkpt lat="38.25043234324011" lon="16.031262273616726"><ele>1044.0</ele><time>2026-04-11T10:18:41.001Z</time></trkpt><trkpt lat="38.250519243392276" lon="16.031437342848076"><ele>1044.0</ele><time>2026-04-11T10:18:42.001Z</time></trkpt><trkpt lat="38.2506102065303" lon="16.03159747366691"><ele>1044.0</ele><time>2026-04-11T10:18:43.001Z</time></trkpt><trkpt lat="38.25068206187609" lon="16.03175288235394"><ele>1044.0</ele><time>2026-04-11T10:18:44.001Z</time></trkpt><trkpt lat="38.250734188663344" lon="16.031921721830695"><ele>1044.0</ele><time>2026-04-11T10:18:45.001Z</time></trkpt><trkpt lat="38.250857052519606" lon="16.032092043580377"><ele>1045.3333333333333</ele><time>2026-04-11T10:18:46.001Z</time></trkpt><trkpt lat="38.25099021638584" lon="16.032243151157864"><ele>1046.6666666666665</ele><time>2026-04-11T10:18:47.001Z</time></trkpt><trkpt lat="38.25110884257581" lon="16.03237742606587"><ele>1048.0</ele><time>2026-04-11T10:18:48.001Z</time></trkpt><trkpt lat="38.251234438319166" lon="16.032519564093864"><ele>1047.0</ele><time>2026-04-11T10:18:49Z</time></trkpt><trkpt lat="38.251359045482815" lon="16.03266055829184"><ele>1046.0</ele><time>2026-04-11T10:18:50Z</time></trkpt><trkpt lat="38.25147612266102" lon="16.03279506621887"><ele>1045.0</ele><time>2026-04-11T10:18:51Z</time></trkpt><trkpt lat="38.25158090334326" lon="16.032920510782198"><ele>1045.0</ele><time>2026-04-11T10:18:52Z</time></trkpt><trkpt lat="38.251694053512104" lon="16.03305178064937"><ele>1045.0</ele><time>2026-04-11T10:18:53Z</time></trkpt><trkpt lat="38.251818479220894" lon="16.033184570719985"><ele>1045.0</ele><time>2026-04-11T10:18:54Z</time></trkpt><trkpt lat="38.251964486340555" lon="16.033311541552198"><ele>1041.6666666666665</ele><time>2026-04-11T10:18:55Z</time></trkpt><trkpt lat="38.25212836412977" lon="16.033408991602368"><ele>1038.3333333333333</ele><time>2026-04-11T10:18:56Z</time></trkpt><trkpt lat="38.25230888113159" lon="16.03344110187621"><ele>1035.0</ele><time>2026-04-11T10:18:57Z</time></trkpt><trkpt lat="38.252457873837606" lon="16.033445395504966"><ele>1035.0</ele><time>2026-04-11T10:18:58Z</time></trkpt><trkpt lat="38.252568537872584" lon="16.033480957200414"><ele>1035.0</ele><time>2026-04-11T10:18:59Z</time></trkpt><trkpt lat="38.25264885603477" lon="16.033558903053596"><ele>1035.0</ele><time>2026-04-11T10:19:00Z</time></trkpt><trkpt lat="38.25268712360612" lon="16.033751230485667"><ele>1035.0</ele><time>2026-04-11T10:19:01Z</time></trkpt><trkpt lat="38.252803441915134" lon="16.033912702226573"><ele>1035.0</ele><time>2026-04-11T10:19:02Z</time></trkpt><trkpt lat="38.25291421610081" lon="16.034033892322395"><ele>1035.0</ele><time>2026-04-11T10:19:03Z</time></trkpt><trkpt lat="38.25302565801616" lon="16.034122162750595"><ele>1035.0</ele><time>2026-04-11T10:19:04Z</time></trkpt><trkpt lat="38.2530704882382" lon="16.034200312019987"><ele>1035.0</ele><time>2026-04-11T10:19:05Z</time></trkpt><trkpt lat="38.25306350861478" lon="16.034285861933913"><ele>1035.0</ele><time>2026-04-11T10:19:06Z</time></trkpt><trkpt lat="38.25297225291141" lon="16.034428124223858"><ele>1033.75</ele><time>2026-04-11T10:19:08Z</time></trkpt><trkpt lat="38.25289448081211" lon="16.03447169134377"><ele>1032.5</ele><time>2026-04-11T10:19:09Z</time></trkpt><trkpt lat="38.25277957371549" lon="16.034433095612243"><ele>1031.25</ele><time>2026-04-11T10:19:10Z</time></trkpt><trkpt lat="38.25263865608319" lon="16.03436659123266"><ele>1030.0</ele><time>2026-04-11T10:19:11Z</time></trkpt><trkpt lat="38.25246617777649" lon="16.0342920245366"><ele>1030.0</ele><time>2026-04-11T10:19:12Z</time></trkpt><trkpt lat="38.25232738971824" lon="16.034233185361476"><ele>1030.0</ele><time>2026-04-11T10:19:13Z</time></trkpt><trkpt lat="38.252170653557585" lon="16.034178076557254"><ele>1030.0</ele><time>2026-04-11T10:19:14Z</time></trkpt><trkpt lat="38.25203587420122" lon="16.03411521955598"><ele>1031.25</ele><time>2026-04-11T10:19:15Z</time></trkpt><trkpt lat="38.25191376353536" lon="16.034046798735982"><ele>1032.5</ele><time>2026-04-11T10:19:16Z</time></trkpt><trkpt lat="38.251796474451254" lon="16.03400171039135"><ele>1033.75</ele><time>2026-04-11T10:19:17Z</time></trkpt><trkpt lat="38.251693227990785" lon="16.03397114534998"><ele>1035.0</ele><time>2026-04-11T10:19:18Z</time></trkpt><trkpt lat="38.251571885830224" lon="16.03399997635709"><ele>1035.0</ele><time>2026-04-11T10:19:19Z</time></trkpt><trkpt lat="38.25147403176891" lon="16.034076557749376"><ele>1035.0</ele><time>2026-04-11T10:19:20Z</time></trkpt><trkpt lat="38.25138040377056" lon="16.03416945253397"><ele>1035.0</ele><time>2026-04-11T10:19:21Z</time></trkpt><trkpt lat="38.25129328749405" lon="16.03430187744167"><ele>1035.0</ele><time>2026-04-11T10:19:22Z</time></trkpt><trkpt lat="38.25120929672885" lon="16.034437573008752"><ele>1028.75</ele><time>2026-04-11T10:19:23Z</time></trkpt><trkpt lat="38.25114389049297" lon="16.034544541601"><ele>1022.5</ele><time>2026-04-11T10:19:24Z</time></trkpt><trkpt lat="38.251043850374636" lon="16.03471006060682"><ele>1016.25</ele><time>2026-04-11T10:19:25Z</time></trkpt><trkpt lat="38.250955079019604" lon="16.034888944599995"><ele>1010.0</ele><time>2026-04-11T10:19:26Z</time></trkpt><trkpt lat="38.25086785199017" lon="16.03500802232972"><ele>1010.0</ele><time>2026-04-11T10:19:27Z</time></trkpt><trkpt lat="38.250817343633564" lon="16.035172066990278"><ele>1010.0</ele><time>2026-04-11T10:19:28Z</time></trkpt><trkpt lat="38.25078654749985" lon="16.03537242558766"><ele>1010.0</ele><time>2026-04-11T10:19:29Z</time></trkpt><trkpt lat="38.25072920293208" lon="16.03555782445682"><ele>1010.0</ele><time>2026-04-11T10:19:30Z</time></trkpt><trkpt lat="38.25066275428179" lon="16.035755981711834"><ele>1010.0</ele><time>2026-04-11T10:19:31Z</time></trkpt><trkpt lat="38.250564527399916" lon="16.03593154902533"><ele>1010.0</ele><time>2026-04-11T10:19:32Z</time></trkpt><trkpt lat="38.25044791043887" lon="16.036128126808325"><ele>1006.5</ele><time>2026-04-11T10:19:33Z</time></trkpt><trkpt lat="38.2503290436743" lon="16.036358348445294"><ele>1003.0</ele><time>2026-04-11T10:19:34Z</time></trkpt><trkpt lat="38.250248850291946" lon="16.0366473725536"><ele>1011.0</ele><time>2026-04-11T10:19:35Z</time></trkpt><trkpt lat="38.25016499870575" lon="16.036926136721767"><ele>1019.0</ele><time>2026-04-11T10:19:36Z</time></trkpt><trkpt lat="38.25004934200732" lon="16.037196909330458"><ele>1019.0</ele><time>2026-04-11T10:19:37Z</time></trkpt><trkpt lat="38.24993270184511" lon="16.037429443469566"><ele>1019.0</ele><time>2026-04-11T10:19:38Z</time></trkpt><trkpt lat="38.249861134067274" lon="16.037639036599792"><ele>1019.0</ele><time>2026-04-11T10:19:39Z</time></trkpt><trkpt lat="38.24981309188591" lon="16.037810095200257"><ele>1018.0</ele><time>2026-04-11T10:19:40Z</time></trkpt><trkpt lat="38.24973735410873" lon="16.0379470553774"><ele>1017.0</ele><time>2026-04-11T10:19:41Z</time></trkpt><trkpt lat="38.24960837173454" lon="16.038064108575185"><ele>1016.0</ele><time>2026-04-11T10:19:42Z</time></trkpt><trkpt lat="38.2494612538562" lon="16.038215157332747"><ele>1019.3333333333334</ele><time>2026-04-11T10:19:43Z</time></trkpt><trkpt lat="38.24934443297923" lon="16.038351563236795"><ele>1022.6666666666667</ele><time>2026-04-11T10:19:44Z</time></trkpt><trkpt lat="38.24925767155128" lon="16.038504920685"><ele>1026.0</ele><time>2026-04-11T10:19:45Z</time></trkpt><trkpt lat="38.24919079075873" lon="16.038681651696443"><ele>1026.0</ele><time>2026-04-11T10:19:46Z</time></trkpt><trkpt lat="38.24916308128537" lon="16.038821454256766"><ele>1026.0</ele><time>2026-04-11T10:19:47Z</time></trkpt><trkpt lat="38.249164236210504" lon="16.03900357427943"><ele>1026.0</ele><time>2026-04-11T10:19:48Z</time></trkpt><trkpt lat="38.24925235538308" lon="16.03922914714108"><ele>1026.0</ele><time>2026-04-11T10:19:49Z</time></trkpt><trkpt lat="38.24931044484222" lon="16.0394295642699"><ele>1026.0</ele><time>2026-04-11T10:19:50Z</time></trkpt><trkpt lat="38.249339279731856" lon="16.039588930357695"><ele>1026.0</ele><time>2026-04-11T10:19:51Z</time></trkpt><trkpt lat="38.24933335543686" lon="16.039770054288827"><ele>1026.0</ele><time>2026-04-11T10:19:52Z</time></trkpt><trkpt lat="38.249322558775205" lon="16.039979866595615"><ele>1022.0</ele><time>2026-04-11T10:19:53Z</time></trkpt><trkpt lat="38.249318036218554" lon="16.040172414337356"><ele>1018.0</ele><time>2026-04-11T10:19:54Z</time></trkpt><trkpt lat="38.249332144725024" lon="16.04034516734694"><ele>1014.0</ele><time>2026-04-11T10:19:55Z</time></trkpt><trkpt lat="38.24938981091252" lon="16.04048716346841"><ele>1010.0</ele><time>2026-04-11T10:19:56Z</time></trkpt><trkpt lat="38.249498455820174" lon="16.04058368005307"><ele>1010.0</ele><time>2026-04-11T10:19:57Z</time></trkpt><trkpt lat="38.249617280228264" lon="16.040674781555087"><ele>1010.0</ele><time>2026-04-11T10:19:58Z</time></trkpt><trkpt lat="38.24977912861836" lon="16.040718764110142"><ele>1010.0</ele><time>2026-04-11T10:19:59Z</time></trkpt><trkpt lat="38.2498989935789" lon="16.040806033060985"><ele>1010.0</ele><time>2026-04-11T10:20:00Z</time></trkpt><trkpt lat="38.24997222922302" lon="16.040908402979614"><ele>1015.75</ele><time>2026-04-11T10:20:01Z</time></trkpt><trkpt lat="38.250000568569995" lon="16.0410274524256"><ele>1021.5</ele><time>2026-04-11T10:20:02Z</time></trkpt><trkpt lat="38.25000144239106" lon="16.041190006934176"><ele>1027.25</ele><time>2026-04-11T10:20:03Z</time></trkpt><trkpt lat="38.250021209348176" lon="16.0413568862369"><ele>1033.0</ele><time>2026-04-11T10:20:04Z</time></trkpt><trkpt lat="38.25006880863252" lon="16.041475197072153"><ele>1033.0</ele><time>2026-04-11T10:20:05Z</time></trkpt><trkpt lat="38.25019647110553" lon="16.04154869829133"><ele>1033.0</ele><time>2026-04-11T10:20:06Z</time></trkpt><trkpt lat="38.25032453586149" lon="16.041540694821293"><ele>1033.0</ele><time>2026-04-11T10:20:07Z</time></trkpt><trkpt lat="38.250462702493095" lon="16.04154113895178"><ele>1033.0</ele><time>2026-04-11T10:20:08Z</time></trkpt><trkpt lat="38.2505929299291" lon="16.041503293173584"><ele>1034.0</ele><time>2026-04-11T10:20:09Z</time></trkpt><trkpt lat="38.25071191949396" lon="16.041416232188244"><ele>1035.0</ele><time>2026-04-11T10:20:10Z</time></trkpt><trkpt lat="38.25080634966757" lon="16.041280534752588"><ele>1036.0</ele><time>2026-04-11T10:20:11Z</time></trkpt><trkpt lat="38.250895274621456" lon="16.0411602243322"><ele>1037.0</ele><time>2026-04-11T10:20:12Z</time></trkpt><trkpt lat="38.250982214467264" lon="16.041104500663568"><ele>1037.0</ele><time>2026-04-11T10:20:13Z</time></trkpt><trkpt lat="38.251090539802156" lon="16.041134999380404"><ele>1037.0</ele><time>2026-04-11T10:20:14Z</time></trkpt><trkpt lat="38.25121968577971" lon="16.041172926411082"><ele>1037.0</ele><time>2026-04-11T10:20:15Z</time></trkpt><trkpt lat="38.251339747790794" lon="16.041259529736905"><ele>1037.0</ele><time>2026-04-11T10:20:16Z</time></trkpt><trkpt lat="38.25144879350824" lon="16.041358971212123"><ele>1035.6</ele><time>2026-04-11T10:20:17Z</time></trkpt><trkpt lat="38.2515301661949" lon="16.04145323712307"><ele>1034.2</ele><time>2026-04-11T10:20:18Z</time></trkpt><trkpt lat="38.251568141586276" lon="16.041573403536123"><ele>1032.8</ele><time>2026-04-11T10:20:19Z</time></trkpt><trkpt lat="38.25158058211961" lon="16.04168076530737"><ele>1031.4</ele><time>2026-04-11T10:20:20Z</time></trkpt><trkpt lat="38.251533598769974" lon="16.04178530498498"><ele>1030.0</ele><time>2026-04-11T10:20:21Z</time></trkpt><trkpt lat="38.25148401091632" lon="16.041906870851324"><ele>1034.5714285714287</ele><time>2026-04-11T10:20:22Z</time></trkpt><trkpt lat="38.2514341643469" lon="16.042005276095157"><ele>1039.142857142857</ele><time>2026-04-11T10:20:23Z</time></trkpt><trkpt lat="38.251389469502946" lon="16.042077092051425"><ele>1043.7142857142858</ele><time>2026-04-11T10:20:24Z</time></trkpt><trkpt lat="38.25134899078461" lon="16.04213863429256"><ele>1048.2857142857142</ele><time>2026-04-11T10:20:25Z</time></trkpt><trkpt lat="38.25126954559029" lon="16.042135045241555"><ele>1052.857142857143</ele><time>2026-04-11T10:20:26.001Z</time></trkpt><trkpt lat="38.251207551627" lon="16.042112973083192"><ele>1057.4285714285716</ele><time>2026-04-11T10:20:27.001Z</time></trkpt><trkpt lat="38.25115719807505" lon="16.04205501960898"><ele>1062.0</ele><time>2026-04-11T10:20:28.001Z</time></trkpt><trkpt lat="38.25116320050891" lon="16.041967445550764"><ele>1062.0</ele><time>2026-04-11T10:20:29.001Z</time></trkpt><trkpt lat="38.25117909382554" lon="16.041882697377602"><ele>1062.0</ele><time>2026-04-11T10:20:30.001Z</time></trkpt><trkpt lat="38.251226835359674" lon="16.041781293672877"><ele>1062.0</ele><time>2026-04-11T10:20:31.001Z</time></trkpt><trkpt lat="38.251291971546834" lon="16.04168485226623"><ele>1062.0</ele><time>2026-04-11T10:20:32.001Z</time></trkpt><trkpt lat="38.25132962032117" lon="16.04160891884576"><ele>1062.0</ele><time>2026-04-11T10:20:33.001Z</time></trkpt><trkpt lat="38.251326555575645" lon="16.041504925595667"><ele>1062.0</ele><time>2026-04-11T10:20:34.001Z</time></trkpt><trkpt lat="38.251293068609506" lon="16.041406132615958"><ele>1062.0</ele><time>2026-04-11T10:20:35.001Z</time></trkpt><trkpt lat="38.25120939396548" lon="16.041356900433293"><ele>1062.0</ele><time>2026-04-11T10:20:36.001Z</time></trkpt><trkpt lat="38.2511481582593" lon="16.04133726833626"><ele>1062.0</ele><time>2026-04-11T10:20:37.001Z</time></trkpt><trkpt lat="38.25106666870326" lon="16.041343973734705"><ele>1062.0</ele><time>2026-04-11T10:20:38.001Z</time></trkpt><trkpt lat="38.25096744869615" lon="16.0414306738947"><ele>1062.0</ele><time>2026-04-11T10:20:39.001Z</time></trkpt><trkpt lat="38.25080954892596" lon="16.041633248751985"><ele>1062.0</ele><time>2026-04-11T10:20:40.001Z</time></trkpt><trkpt lat="38.25070688161516" lon="16.04173426856323"><ele>1062.0</ele><time>2026-04-11T10:20:41.001Z</time></trkpt><trkpt lat="38.2505769115382" lon="16.041862082569697"><ele>1062.0</ele><time>2026-04-11T10:20:42.001Z</time></trkpt><trkpt lat="38.25042270882584" lon="16.04200185585803"><ele>1058.6666666666667</ele><time>2026-04-11T10:20:43.001Z</time></trkpt><trkpt lat="38.25026030493626" lon="16.0421653998169"><ele>1055.3333333333335</ele><time>2026-04-11T10:20:44.001Z</time></trkpt><trkpt lat="38.25010702417858" lon="16.042329696335266"><ele>1052.0</ele><time>2026-04-11T10:20:45.001Z</time></trkpt><trkpt lat="38.24996025018063" lon="16.042500052181374"><ele>1055.3333333333335</ele><time>2026-04-11T10:20:46.001Z</time></trkpt><trkpt lat="38.2498256519614" lon="16.04268765655453"><ele>1058.6666666666667</ele><time>2026-04-11T10:20:47.001Z</time></trkpt><trkpt lat="38.24970247962072" lon="16.042872121094575"><ele>1062.0</ele><time>2026-04-11T10:20:48.001Z</time></trkpt><trkpt lat="38.249572405890106" lon="16.04305849659041"><ele>1062.0</ele><time>2026-04-11T10:20:49.001Z</time></trkpt><trkpt lat="38.24945791053404" lon="16.043222550686938"><ele>1062.0</ele><time>2026-04-11T10:20:50.001Z</time></trkpt><trkpt lat="38.24934078601362" lon="16.043387862765282"><ele>1062.0</ele><time>2026-04-11T10:20:51.001Z</time></trkpt><trkpt lat="38.24921558947523" lon="16.043558490258807"><ele>1060.3333333333333</ele><time>2026-04-11T10:20:52.001Z</time></trkpt><trkpt lat="38.24908921370506" lon="16.04372428532799"><ele>1058.6666666666665</ele><time>2026-04-11T10:20:53.001Z</time></trkpt><trkpt lat="38.24897687673152" lon="16.04388297038169"><ele>1057.0</ele><time>2026-04-11T10:20:54.001Z</time></trkpt><trkpt lat="38.2489046923131" lon="16.044053089623286"><ele>1062.75</ele><time>2026-04-11T10:20:55Z</time></trkpt><trkpt lat="38.24887629434148" lon="16.044236657154023"><ele>1068.5</ele><time>2026-04-11T10:20:56Z</time></trkpt><trkpt lat="38.248888295283265" lon="16.04442933974045"><ele>1074.25</ele><time>2026-04-11T10:20:57Z</time></trkpt><trkpt lat="38.24893380051496" lon="16.044595935288605"><ele>1080.0</ele><time>2026-04-11T10:20:58Z</time></trkpt><trkpt lat="38.249056787829545" lon="16.04477248024883"><ele>1082.6666666666667</ele><time>2026-04-11T10:20:59Z</time></trkpt><trkpt lat="38.249179457441436" lon="16.044872182900427"><ele>1085.3333333333335</ele><time>2026-04-11T10:21:00Z</time></trkpt><trkpt lat="38.24932218008022" lon="16.044970041469508"><ele>1088.0</ele><time>2026-04-11T10:21:01Z</time></trkpt><trkpt lat="38.24948554702444" lon="16.045076654053705"><ele>1088.25</ele><time>2026-04-11T10:21:02Z</time></trkpt><trkpt lat="38.24963374286749" lon="16.045165217302493"><ele>1088.5</ele><time>2026-04-11T10:21:03Z</time></trkpt><trkpt lat="38.24977836154533" lon="16.045277450939615"><ele>1088.75</ele><time>2026-04-11T10:21:04Z</time></trkpt><trkpt lat="38.249867807033496" lon="16.045362155265195"><ele>1089.0</ele><time>2026-04-11T10:21:05Z</time></trkpt><trkpt lat="38.249947410218745" lon="16.04545421713546"><ele>1089.0</ele><time>2026-04-11T10:21:06Z</time></trkpt><trkpt lat="38.2500311611754" lon="16.04557096268049"><ele>1089.0</ele><time>2026-04-11T10:21:07Z</time></trkpt><trkpt lat="38.25011175568398" lon="16.045708083681557"><ele>1089.0</ele><time>2026-04-11T10:21:08Z</time></trkpt><trkpt lat="38.25018348764321" lon="16.045856883323864"><ele>1089.0</ele><time>2026-04-11T10:21:09Z</time></trkpt><trkpt lat="38.25026552336431" lon="16.046054253410336"><ele>1089.0</ele><time>2026-04-11T10:21:10Z</time></trkpt><trkpt lat="38.25034978023338" lon="16.046258280969575"><ele>1089.0</ele><time>2026-04-11T10:21:11Z</time></trkpt><trkpt lat="38.250422018987436" lon="16.046463320540344"><ele>1089.0</ele><time>2026-04-11T10:21:12Z</time></trkpt><trkpt lat="38.25047479531488" lon="16.046670892540945"><ele>1088.0</ele><time>2026-04-11T10:21:13Z</time></trkpt><trkpt lat="38.250504526853824" lon="16.046898426820004"><ele>1087.0</ele><time>2026-04-11T10:21:14Z</time></trkpt><trkpt lat="38.25050723634762" lon="16.04714168617546"><ele>1086.0</ele><time>2026-04-11T10:21:15Z</time></trkpt><trkpt lat="38.25050019973153" lon="16.047406600757917"><ele>1085.0</ele><time>2026-04-11T10:21:16Z</time></trkpt><trkpt lat="38.250476626794466" lon="16.047686943640517"><ele>1084.0</ele><time>2026-04-11T10:21:17Z</time></trkpt><trkpt lat="38.250451070685116" lon="16.047989768857562"><ele>1084.0</ele><time>2026-04-11T10:21:18Z</time></trkpt><trkpt lat="38.250434408556735" lon="16.048288863573696"><ele>1084.0</ele><time>2026-04-11T10:21:19Z</time></trkpt><trkpt lat="38.25041828671945" lon="16.04855851700189"><ele>1084.0</ele><time>2026-04-11T10:21:20Z</time></trkpt><trkpt lat="38.250405022147895" lon="16.048763464972584"><ele>1084.3333333333333</ele><time>2026-04-11T10:21:21Z</time></trkpt><trkpt lat="38.25039311972923" lon="16.048947366632234"><ele>1084.6666666666667</ele><time>2026-04-11T10:21:22Z</time></trkpt><trkpt lat="38.25037936605949" lon="16.049159871544443"><ele>1085.0</ele><time>2026-04-11T10:21:23Z</time></trkpt><trkpt lat="38.250366194949486" lon="16.049369425521064"><ele>1085.0</ele><time>2026-04-11T10:21:24Z</time></trkpt><trkpt lat="38.25035524742619" lon="16.04957028733948"><ele>1085.0</ele><time>2026-04-11T10:21:25Z</time></trkpt><trkpt lat="38.250359222918775" lon="16.049770663265054"><ele>1085.0</ele><time>2026-04-11T10:21:26Z</time></trkpt><trkpt lat="38.25033215638534" lon="16.04999106087227"><ele>1085.0</ele><time>2026-04-11T10:21:27Z</time></trkpt><trkpt lat="38.25033126908715" lon="16.050217204962603"><ele>1085.0</ele><time>2026-04-11T10:21:28Z</time></trkpt><trkpt lat="38.25030447634964" lon="16.050436699029856"><ele>1085.0</ele><time>2026-04-11T10:21:29Z</time></trkpt><trkpt lat="38.25029042489946" lon="16.050654662917143"><ele>1084.0</ele><time>2026-04-11T10:21:30Z</time></trkpt><trkpt lat="38.25027427990197" lon="16.050875507564378"><ele>1083.0</ele><time>2026-04-11T10:21:31Z</time></trkpt><trkpt lat="38.250258100158" lon="16.05108598353815"><ele>1082.0</ele><time>2026-04-11T10:21:32Z</time></trkpt><trkpt lat="38.25024080110302" lon="16.05131102017738"><ele>1082.0</ele><time>2026-04-11T10:21:33Z</time></trkpt><trkpt lat="38.25022042958155" lon="16.051576025393476"><ele>1082.0</ele><time>2026-04-11T10:21:34Z</time></trkpt><trkpt lat="38.25020422501899" lon="16.051833392062377"><ele>1082.0</ele><time>2026-04-11T10:21:35Z</time></trkpt><trkpt lat="38.25024421212321" lon="16.052071948751447"><ele>1081.0</ele><time>2026-04-11T10:21:36Z</time></trkpt><trkpt lat="38.250250688878744" lon="16.052312837577915"><ele>1080.0</ele><time>2026-04-11T10:21:37Z</time></trkpt><trkpt lat="38.250268395727275" lon="16.052543924385493"><ele>1079.0</ele><time>2026-04-11T10:21:38Z</time></trkpt><trkpt lat="38.25031088867433" lon="16.052768935965535"><ele>1078.0</ele><time>2026-04-11T10:21:39Z</time></trkpt><trkpt lat="38.250380793872644" lon="16.05298843046824"><ele>1077.0</ele><time>2026-04-11T10:21:40Z</time></trkpt><trkpt lat="38.25045671409972" lon="16.053208159984973"><ele>1076.0</ele><time>2026-04-11T10:21:41Z</time></trkpt><trkpt lat="38.25053421248167" lon="16.053397324123672"><ele>1076.0</ele><time>2026-04-11T10:21:42Z</time></trkpt><trkpt lat="38.25061132281011" lon="16.053593985440088"><ele>1076.0</ele><time>2026-04-11T10:21:43Z</time></trkpt><trkpt lat="38.25064123911628" lon="16.05383258959016"><ele>1076.0</ele><time>2026-04-11T10:21:44Z</time></trkpt><trkpt lat="38.2507130668485" lon="16.054015775163016"><ele>1074.6666666666667</ele><time>2026-04-11T10:21:45Z</time></trkpt><trkpt lat="38.25083121145537" lon="16.054177999536066"><ele>1073.3333333333333</ele><time>2026-04-11T10:21:46Z</time></trkpt><trkpt lat="38.25088763492301" lon="16.054449484839456"><ele>1072.0</ele><time>2026-04-11T10:21:47Z</time></trkpt><trkpt lat="38.250964085179504" lon="16.054711167007838"><ele>1068.0</ele><time>2026-04-11T10:21:48Z</time></trkpt><trkpt lat="38.251083210292116" lon="16.0550268423166"><ele>1064.0</ele><time>2026-04-11T10:21:49Z</time></trkpt><trkpt lat="38.25117673194294" lon="16.05535423124357"><ele>1064.0</ele><time>2026-04-11T10:21:50Z</time></trkpt><trkpt lat="38.25128140185584" lon="16.05566618791042"><ele>1064.0</ele><time>2026-04-11T10:21:51Z</time></trkpt><trkpt lat="38.25137031108442" lon="16.0559634872917"><ele>1062.5</ele><time>2026-04-11T10:21:52Z</time></trkpt><trkpt lat="38.251455259529635" lon="16.05625312357005"><ele>1061.0</ele><time>2026-04-11T10:21:53Z</time></trkpt><trkpt lat="38.25151336727847" lon="16.05655629708853"><ele>1060.0</ele><time>2026-04-11T10:21:54Z</time></trkpt><trkpt lat="38.251586753883146" lon="16.056868327927788"><ele>1059.0</ele><time>2026-04-11T10:21:55Z</time></trkpt><trkpt lat="38.25165615852872" lon="16.05715380109394"><ele>1059.0</ele><time>2026-04-11T10:21:56Z</time></trkpt><trkpt lat="38.25171442313373" lon="16.057466861517685"><ele>1059.0</ele><time>2026-04-11T10:21:57Z</time></trkpt><trkpt lat="38.25179413987653" lon="16.057775038943312"><ele>1059.0</ele><time>2026-04-11T10:21:58Z</time></trkpt><trkpt lat="38.25185464344682" lon="16.058062058780646"><ele>1059.0</ele><time>2026-04-11T10:21:59Z</time></trkpt><trkpt lat="38.251911366518065" lon="16.058329655114825"><ele>1058.6666666666667</ele><time>2026-04-11T10:22:00Z</time></trkpt><trkpt lat="38.25196930030487" lon="16.058586615194262"><ele>1058.3333333333335</ele><time>2026-04-11T10:22:01Z</time></trkpt><trkpt lat="38.252006766257075" lon="16.058860044799975"><ele>1058.0</ele><time>2026-04-11T10:22:02Z</time></trkpt><trkpt lat="38.25205973182071" lon="16.059096547298655"><ele>1056.3333333333335</ele><time>2026-04-11T10:22:03Z</time></trkpt><trkpt lat="38.252109998800556" lon="16.059327768981454"><ele>1054.6666666666667</ele><time>2026-04-11T10:22:04Z</time></trkpt><trkpt lat="38.25215359506857" lon="16.05953745377913"><ele>1053.0</ele><time>2026-04-11T10:22:05Z</time></trkpt><trkpt lat="38.25220953175672" lon="16.059701534686088"><ele>1053.0</ele><time>2026-04-11T10:22:06Z</time></trkpt><trkpt lat="38.25227387948036" lon="16.059858989953664"><ele>1053.0</ele><time>2026-04-11T10:22:07Z</time></trkpt><trkpt lat="38.2523632404561" lon="16.059966120328163"><ele>1053.0</ele><time>2026-04-11T10:22:08Z</time></trkpt><trkpt lat="38.252464552732306" lon="16.060014172320315"><ele>1053.0</ele><time>2026-04-11T10:22:09Z</time></trkpt><trkpt lat="38.252602047921684" lon="16.060018998567912"><ele>1054.0</ele><time>2026-04-11T10:22:10Z</time></trkpt><trkpt lat="38.252732912496164" lon="16.059938096487546"><ele>1055.0</ele><time>2026-04-11T10:22:11Z</time></trkpt><trkpt lat="38.252868513586016" lon="16.059814308079304"><ele>1056.0</ele><time>2026-04-11T10:22:12Z</time></trkpt><trkpt lat="38.25298461655151" lon="16.05968886794556"><ele>1056.0</ele><time>2026-04-11T10:22:13Z</time></trkpt><trkpt lat="38.253076565738006" lon="16.059540871064463"><ele>1056.0</ele><time>2026-04-11T10:22:14Z</time></trkpt><trkpt lat="38.253159821467555" lon="16.059359674596884"><ele>1056.0</ele><time>2026-04-11T10:22:15Z</time></trkpt><trkpt lat="38.25321946581561" lon="16.059169131982554"><ele>1053.6666666666667</ele><time>2026-04-11T10:22:16Z</time></trkpt><trkpt lat="38.253268530473036" lon="16.059006736806435"><ele>1051.3333333333335</ele><time>2026-04-11T10:22:17Z</time></trkpt><trkpt lat="38.25336660754801" lon="16.05883792272403"><ele>1049.0</ele><time>2026-04-11T10:22:18Z</time></trkpt><trkpt lat="38.253510608559964" lon="16.058659688436574"><ele>1049.0</ele><time>2026-04-11T10:22:19Z</time></trkpt><trkpt lat="38.25364786901055" lon="16.058502345588003"><ele>1049.0</ele><time>2026-04-11T10:22:20Z</time></trkpt><trkpt lat="38.253750529582376" lon="16.05837926756547"><ele>1049.0</ele><time>2026-04-11T10:22:21Z</time></trkpt><trkpt lat="38.25383107969135" lon="16.058277431127163"><ele>1049.0</ele><time>2026-04-11T10:22:22Z</time></trkpt><trkpt lat="38.25389725825737" lon="16.058205919961996"><ele>1046.0</ele><time>2026-04-11T10:22:23Z</time></trkpt><trkpt lat="38.253956476322415" lon="16.058141702916927"><ele>1043.0</ele><time>2026-04-11T10:22:24Z</time></trkpt><trkpt lat="38.25401221158432" lon="16.058096911568505"><ele>1040.0</ele><time>2026-04-11T10:22:25Z</time></trkpt><trkpt lat="38.25408417913022" lon="16.058053343650734"><ele>1037.0</ele><time>2026-04-11T10:22:26Z</time></trkpt><trkpt lat="38.25414843571952" lon="16.0580072232157"><ele>1034.0</ele><time>2026-04-11T10:22:27Z</time></trkpt><trkpt lat="38.25420834314318" lon="16.05797505699862"><ele>1031.0</ele><time>2026-04-11T10:22:28Z</time></trkpt><trkpt lat="38.25430864991216" lon="16.057956925157896"><ele>1031.0</ele><time>2026-04-11T10:22:30Z</time></trkpt><trkpt lat="38.254387816834125" lon="16.057976282292525"><ele>1031.0</ele><time>2026-04-11T10:22:32Z</time></trkpt><trkpt lat="38.25448387287825" lon="16.05796021440462"><ele>1031.0</ele><time>2026-04-11T10:22:34Z</time></trkpt><trkpt lat="38.2545797086537" lon="16.057955727842344"><ele>1031.0</ele><time>2026-04-11T10:22:36Z</time></trkpt><trkpt lat="38.254660827210934" lon="16.05794654777976"><ele>1031.0</ele><time>2026-04-11T10:22:38Z</time></trkpt><trkpt lat="38.25476776285959" lon="16.05792193549444"><ele>1027.6666666666667</ele><time>2026-04-11T10:22:40Z</time></trkpt><trkpt lat="38.254903585898106" lon="16.05791919355109"><ele>1024.3333333333335</ele><time>2026-04-11T10:22:42Z</time></trkpt><trkpt lat="38.25497709960549" lon="16.057888642652745"><ele>1021.0</ele><time>2026-04-11T10:22:43Z</time></trkpt><trkpt lat="38.255051421023055" lon="16.057857710152994"><ele>1017.6666666666667</ele><time>2026-04-11T10:22:44Z</time></trkpt><trkpt lat="38.255121885838726" lon="16.05782799218136"><ele>1014.3333333333334</ele><time>2026-04-11T10:22:45Z</time></trkpt><trkpt lat="38.25519212660087" lon="16.057798370015277"><ele>1011.0</ele><time>2026-04-11T10:22:46Z</time></trkpt><trkpt lat="38.255274005300585" lon="16.05776383832224"><ele>1011.0</ele><time>2026-04-11T10:22:47Z</time></trkpt><trkpt lat="38.255367004483105" lon="16.057723121262768"><ele>1010.9999999999999</ele><time>2026-04-11T10:22:48Z</time></trkpt><trkpt lat="38.25546358797323" lon="16.05768107383374"><ele>1010.9999999999999</ele><time>2026-04-11T10:22:49Z</time></trkpt><trkpt lat="38.25555887761102" lon="16.057621691363757"><ele>1011.0</ele><time>2026-04-11T10:22:50Z</time></trkpt><trkpt lat="38.25566208309058" lon="16.05759342610965"><ele>1011.0</ele><time>2026-04-11T10:22:51Z</time></trkpt><trkpt lat="38.25576065255661" lon="16.05758728768109"><ele>1012.5</ele><time>2026-04-11T10:22:52Z</time></trkpt><trkpt lat="38.25585037271266" lon="16.05762434646908"><ele>1014.0</ele><time>2026-04-11T10:22:53Z</time></trkpt><trkpt lat="38.25593226415771" lon="16.05768210394192"><ele>1015.5</ele><time>2026-04-11T10:22:54Z</time></trkpt><trkpt lat="38.25603586205605" lon="16.05775894392764"><ele>1017.0</ele><time>2026-04-11T10:22:55Z</time></trkpt><trkpt lat="38.25615524701757" lon="16.05785839116182"><ele>1017.0</ele><time>2026-04-11T10:22:56Z</time></trkpt><trkpt lat="38.256284078134065" lon="16.057976385391648"><ele>1017.0</ele><time>2026-04-11T10:22:57.001Z</time></trkpt><trkpt lat="38.25640732298696" lon="16.05811200326663"><ele>1017.0</ele><time>2026-04-11T10:22:58Z</time></trkpt><trkpt lat="38.25652152938204" lon="16.058247794512123"><ele>1020.4000000000001</ele><time>2026-04-11T10:22:59Z</time></trkpt><trkpt lat="38.25660486435153" lon="16.058347378780784"><ele>1023.8000000000001</ele><time>2026-04-11T10:23:00Z</time></trkpt><trkpt lat="38.256676927279194" lon="16.058426607157756"><ele>1027.2</ele><time>2026-04-11T10:23:01Z</time></trkpt><trkpt lat="38.25675169444113" lon="16.058505038645006"><ele>1030.6000000000001</ele><time>2026-04-11T10:23:02Z</time></trkpt><trkpt lat="38.25684007873" lon="16.058590817513146"><ele>1034.0</ele><time>2026-04-11T10:23:03Z</time></trkpt><trkpt lat="38.25695495313258" lon="16.058672210586195"><ele>1034.0</ele><time>2026-04-11T10:23:04Z</time></trkpt><trkpt lat="38.25707826727695" lon="16.058791219565933"><ele>1034.0</ele><time>2026-04-11T10:23:05Z</time></trkpt><trkpt lat="38.25720429189965" lon="16.058879775413807"><ele>1034.0</ele><time>2026-04-11T10:23:06Z</time></trkpt><trkpt lat="38.25734578213929" lon="16.058965553133117"><ele>1036.25</ele><time>2026-04-11T10:23:07Z</time></trkpt><trkpt lat="38.25749299810726" lon="16.05904910597852"><ele>1038.5</ele><time>2026-04-11T10:23:08Z</time></trkpt><trkpt lat="38.25762334882573" lon="16.059131665485392"><ele>1040.75</ele><time>2026-04-11T10:23:09Z</time></trkpt><trkpt lat="38.25773953328828" lon="16.059213686139405"><ele>1043.0</ele><time>2026-04-11T10:23:10Z</time></trkpt><trkpt lat="38.2578454670298" lon="16.059298782315153"><ele>1043.0</ele><time>2026-04-11T10:23:11Z</time></trkpt><trkpt lat="38.25795361512722" lon="16.059398812856166"><ele>1043.0</ele><time>2026-04-11T10:23:12Z</time></trkpt><trkpt lat="38.25805789095024" lon="16.059508926053272"><ele>1043.0</ele><time>2026-04-11T10:23:13Z</time></trkpt><trkpt lat="38.25815974707641" lon="16.059621980776075"><ele>1043.0</ele><time>2026-04-11T10:23:14Z</time></trkpt><trkpt lat="38.25825794537805" lon="16.05971652910215"><ele>1043.4</ele><time>2026-04-11T10:23:15Z</time></trkpt><trkpt lat="38.25833111838848" lon="16.059786710142763"><ele>1043.8</ele><time>2026-04-11T10:23:16Z</time></trkpt><trkpt lat="38.25838268155458" lon="16.059873564758647"><ele>1044.2</ele><time>2026-04-11T10:23:17Z</time></trkpt><trkpt lat="38.258459634540465" lon="16.059962075581243"><ele>1044.6</ele><time>2026-04-11T10:23:18Z</time></trkpt><trkpt lat="38.25853642665088" lon="16.060050401398538"><ele>1045.0</ele><time>2026-04-11T10:23:19Z</time></trkpt><trkpt lat="38.25861702426932" lon="16.060143730979846"><ele>1045.0</ele><time>2026-04-11T10:23:20Z</time></trkpt><trkpt lat="38.258701781881065" lon="16.060241975971834"><ele>1045.0</ele><time>2026-04-11T10:23:21Z</time></trkpt><trkpt lat="38.25879741464931" lon="16.06035282663821"><ele>1045.0</ele><time>2026-04-11T10:23:22Z</time></trkpt><trkpt lat="38.25891264539914" lon="16.06045816948146"><ele>1045.0</ele><time>2026-04-11T10:23:23Z</time></trkpt><trkpt lat="38.25901169175814" lon="16.060596161848366"><ele>1044.0</ele><time>2026-04-11T10:23:24Z</time></trkpt><trkpt lat="38.25911017475702" lon="16.06072721171935"><ele>1043.0</ele><time>2026-04-11T10:23:25Z</time></trkpt><trkpt lat="38.25922264300204" lon="16.06083051947865"><ele>1042.0</ele><time>2026-04-11T10:23:26Z</time></trkpt><trkpt lat="38.259345659725255" lon="16.060978493274526"><ele>1042.0</ele><time>2026-04-11T10:23:27Z</time></trkpt><trkpt lat="38.25946410192274" lon="16.061114080779298"><ele>1042.0</ele><time>2026-04-11T10:23:28Z</time></trkpt><trkpt lat="38.259591225889054" lon="16.06125503220807"><ele>1042.0</ele><time>2026-04-11T10:23:29Z</time></trkpt><trkpt lat="38.25973503143807" lon="16.061431447895533"><ele>1041.0</ele><time>2026-04-11T10:23:30Z</time></trkpt><trkpt lat="38.25988306000684" lon="16.061570130407233"><ele>1040.0</ele><time>2026-04-11T10:23:31Z</time></trkpt><trkpt lat="38.260018285158274" lon="16.06173000207335"><ele>1039.0</ele><time>2026-04-11T10:23:32Z</time></trkpt><trkpt lat="38.260157722646554" lon="16.061897523775183"><ele>1039.0</ele><time>2026-04-11T10:23:33Z</time></trkpt><trkpt lat="38.26028883326717" lon="16.06208428726594"><ele>1039.0</ele><time>2026-04-11T10:23:34Z</time></trkpt><trkpt lat="38.260428938653185" lon="16.062242146807055"><ele>1039.0</ele><time>2026-04-11T10:23:35Z</time></trkpt><trkpt lat="38.26058720648952" lon="16.062404847065633"><ele>1037.6666666666665</ele><time>2026-04-11T10:23:36Z</time></trkpt><trkpt lat="38.26072457785168" lon="16.062580829335072"><ele>1036.3333333333333</ele><time>2026-04-11T10:23:37Z</time></trkpt><trkpt lat="38.260892222070936" lon="16.062755114373996"><ele>1035.0</ele><time>2026-04-11T10:23:38Z</time></trkpt><trkpt lat="38.26104444905913" lon="16.062965353121985"><ele>1035.0</ele><time>2026-04-11T10:23:39Z</time></trkpt><trkpt lat="38.26123443036879" lon="16.06316010896389"><ele>1035.0</ele><time>2026-04-11T10:23:40Z</time></trkpt><trkpt lat="38.26142219874462" lon="16.063377964399578"><ele>1034.0</ele><time>2026-04-11T10:23:41Z</time></trkpt><trkpt lat="38.26159640000507" lon="16.06361262856662"><ele>1033.0</ele><time>2026-04-11T10:23:42Z</time></trkpt><trkpt lat="38.26177415314198" lon="16.063825376002217"><ele>1033.0</ele><time>2026-04-11T10:23:43Z</time></trkpt><trkpt lat="38.261955154786136" lon="16.06404029855969"><ele>1033.0</ele><time>2026-04-11T10:23:44Z</time></trkpt><trkpt lat="38.2621293659036" lon="16.064243028235246"><ele>1033.6666666666665</ele><time>2026-04-11T10:23:45Z</time></trkpt><trkpt lat="38.26229982157419" lon="16.064439314436836"><ele>1034.3333333333333</ele><time>2026-04-11T10:23:46Z</time></trkpt><trkpt lat="38.26245875482609" lon="16.06462375629623"><ele>1035.0</ele><time>2026-04-11T10:23:47Z</time></trkpt><trkpt lat="38.26260790170742" lon="16.064798012414826"><ele>1029.6666666666667</ele><time>2026-04-11T10:23:48Z</time></trkpt><trkpt lat="38.26275029393597" lon="16.064967515833235"><ele>1024.3333333333335</ele><time>2026-04-11T10:23:49Z</time></trkpt><trkpt lat="38.262890371111276" lon="16.065146137881822"><ele>1019.0</ele><time>2026-04-11T10:23:50Z</time></trkpt><trkpt lat="38.26303212576323" lon="16.06534963405757"><ele>1023.0</ele><time>2026-04-11T10:23:51Z</time></trkpt><trkpt lat="38.263157229614166" lon="16.06557289867921"><ele>1027.0</ele><time>2026-04-11T10:23:52Z</time></trkpt><trkpt lat="38.263265707129285" lon="16.065807713727896"><ele>1031.0</ele><time>2026-04-11T10:23:53Z</time></trkpt><trkpt lat="38.263356280245915" lon="16.066040435483817"><ele>1031.0</ele><time>2026-04-11T10:23:54Z</time></trkpt><trkpt lat="38.26343138429016" lon="16.066283825404287"><ele>1031.0</ele><time>2026-04-11T10:23:55Z</time></trkpt><trkpt lat="38.26351396549874" lon="16.066600552878594"><ele>1030.0</ele><time>2026-04-11T10:23:56Z</time></trkpt><trkpt lat="38.26358274366317" lon="16.066896908000754"><ele>1029.0</ele><time>2026-04-11T10:23:57Z</time></trkpt><trkpt lat="38.263645416976786" lon="16.067182319847795"><ele>1029.0</ele><time>2026-04-11T10:23:58Z</time></trkpt><trkpt lat="38.26369877079505" lon="16.067418817323166"><ele>1029.0</ele><time>2026-04-11T10:23:59Z</time></trkpt><trkpt lat="38.263745516066145" lon="16.0676272905419"><ele>1029.0</ele><time>2026-04-11T10:24:00Z</time></trkpt><trkpt lat="38.26378815119607" lon="16.06781744872475"><ele>1029.0</ele><time>2026-04-11T10:24:01Z</time></trkpt><trkpt lat="38.26382866861485" lon="16.06799830479977"><ele>1029.0</ele><time>2026-04-11T10:24:02Z</time></trkpt><trkpt lat="38.263872642654285" lon="16.06819604946104"><ele>1029.0</ele><time>2026-04-11T10:24:03Z</time></trkpt><trkpt lat="38.263919045553145" lon="16.06840471634279"><ele>1029.3333333333333</ele><time>2026-04-11T10:24:04Z</time></trkpt><trkpt lat="38.26396666697456" lon="16.068618862707606"><ele>1029.6666666666665</ele><time>2026-04-11T10:24:05Z</time></trkpt><trkpt lat="38.26401458413599" lon="16.06883433898558"><ele>1030.0</ele><time>2026-04-11T10:24:06Z</time></trkpt><trkpt lat="38.26406324800638" lon="16.069051933779825"><ele>1028.6666666666665</ele><time>2026-04-11T10:24:07Z</time></trkpt><trkpt lat="38.264112191827074" lon="16.06926829987415"><ele>1027.3333333333333</ele><time>2026-04-11T10:24:08Z</time></trkpt><trkpt lat="38.26416106022378" lon="16.069482888358575"><ele>1026.0</ele><time>2026-04-11T10:24:09Z</time></trkpt><trkpt lat="38.26420789743004" lon="16.069682215378588"><ele>1026.0</ele><time>2026-04-11T10:24:10Z</time></trkpt><trkpt lat="38.26425632590262" lon="16.069885174379532"><ele>1026.0</ele><time>2026-04-11T10:24:11Z</time></trkpt><trkpt lat="38.2643129895699" lon="16.070086559228322"><ele>1026.0</ele><time>2026-04-11T10:24:12Z</time></trkpt><trkpt lat="38.26437350470755" lon="16.07026796168853"><ele>1023.6666666666667</ele><time>2026-04-11T10:24:13Z</time></trkpt><trkpt lat="38.26442158391844" lon="16.0703951717397"><ele>1021.3333333333334</ele><time>2026-04-11T10:24:14Z</time></trkpt><trkpt lat="38.26450433547227" lon="16.070596027182457"><ele>1019.0</ele><time>2026-04-11T10:24:15Z</time></trkpt><trkpt lat="38.26459119398752" lon="16.0707796690989"><ele>1019.0</ele><time>2026-04-11T10:24:16Z</time></trkpt><trkpt lat="38.264689223019495" lon="16.07095675238"><ele>1019.0</ele><time>2026-04-11T10:24:17Z</time></trkpt><trkpt lat="38.2647953635855" lon="16.071122553285242"><ele>1019.0</ele><time>2026-04-11T10:24:18Z</time></trkpt><trkpt lat="38.26489584223346" lon="16.071265823174894"><ele>1024.3333333333335</ele><time>2026-04-11T10:24:19Z</time></trkpt><trkpt lat="38.264995871756994" lon="16.07140386618585"><ele>1029.6666666666667</ele><time>2026-04-11T10:24:20Z</time></trkpt><trkpt lat="38.26511782257541" lon="16.071562743009725"><ele>1035.0</ele><time>2026-04-11T10:24:21Z</time></trkpt><trkpt lat="38.26521113168545" lon="16.07168056675905"><ele>1035.0</ele><time>2026-04-11T10:24:22Z</time></trkpt><trkpt lat="38.26529753655617" lon="16.07178967172146"><ele>1035.0</ele><time>2026-04-11T10:24:23Z</time></trkpt><trkpt lat="38.265388087328766" lon="16.071904011724296"><ele>1035.0</ele><time>2026-04-11T10:24:24Z</time></trkpt><trkpt lat="38.265486565167976" lon="16.07202836081449"><ele>1035.0</ele><time>2026-04-11T10:24:25Z</time></trkpt><trkpt lat="38.265585493067654" lon="16.072153278632733"><ele>1035.6666666666667</ele><time>2026-04-11T10:24:26Z</time></trkpt><trkpt lat="38.265693561101315" lon="16.072292159001883"><ele>1036.3333333333335</ele><time>2026-04-11T10:24:27Z</time></trkpt><trkpt lat="38.26581655528659" lon="16.072442490916117"><ele>1037.0</ele><time>2026-04-11T10:24:28Z</time></trkpt><trkpt lat="38.26594912670406" lon="16.072599002319297"><ele>1035.3333333333335</ele><time>2026-04-11T10:24:29Z</time></trkpt><trkpt lat="38.26608508571128" lon="16.07276922762402"><ele>1033.6666666666667</ele><time>2026-04-11T10:24:30Z</time></trkpt><trkpt lat="38.26622565324443" lon="16.072946230914717"><ele>1032.0</ele><time>2026-04-11T10:24:31Z</time></trkpt><trkpt lat="38.26635374026264" lon="16.073140884381836"><ele>1032.0</ele><time>2026-04-11T10:24:32Z</time></trkpt><trkpt lat="38.26649815243991" lon="16.073328600597623"><ele>1032.0</ele><time>2026-04-11T10:24:33Z</time></trkpt><trkpt lat="38.26664156099274" lon="16.073515012112644"><ele>1032.0</ele><time>2026-04-11T10:24:34Z</time></trkpt><trkpt lat="38.26677362904015" lon="16.073686699734626"><ele>1032.0</ele><time>2026-04-11T10:24:35Z</time></trkpt><trkpt lat="38.26689804747381" lon="16.073848810354377"><ele>1032.0</ele><time>2026-04-11T10:24:36Z</time></trkpt><trkpt lat="38.26702154708216" lon="16.074006626692064"><ele>1032.0</ele><time>2026-04-11T10:24:37Z</time></trkpt><trkpt lat="38.26712768911056" lon="16.074140239976106"><ele>1032.5</ele><time>2026-04-11T10:24:38Z</time></trkpt><trkpt lat="38.26722811696626" lon="16.074259181466136"><ele>1033.0</ele><time>2026-04-11T10:24:39Z</time></trkpt><trkpt lat="38.267347834423084" lon="16.0743821027631"><ele>1033.5</ele><time>2026-04-11T10:24:40Z</time></trkpt><trkpt lat="38.2674791628255" lon="16.074470654448792"><ele>1034.0</ele><time>2026-04-11T10:24:41Z</time></trkpt><trkpt lat="38.26761777474652" lon="16.074562324379144"><ele>1032.3333333333335</ele><time>2026-04-11T10:24:42Z</time></trkpt><trkpt lat="38.267779966712794" lon="16.07463579765983"><ele>1030.6666666666667</ele><time>2026-04-11T10:24:43Z</time></trkpt><trkpt lat="38.26795745209817" lon="16.074691698167424"><ele>1029.0</ele><time>2026-04-11T10:24:44Z</time></trkpt><trkpt lat="38.26815517352099" lon="16.074717021046382"><ele>1027.3333333333333</ele><time>2026-04-11T10:24:45Z</time></trkpt><trkpt lat="38.26835556526165" lon="16.07475150820919"><ele>1025.6666666666665</ele><time>2026-04-11T10:24:46Z</time></trkpt><trkpt lat="38.268544115390384" lon="16.07477639360559"><ele>1024.0</ele><time>2026-04-11T10:24:47Z</time></trkpt><trkpt lat="38.26872973206229" lon="16.07480107096428"><ele>1024.0</ele><time>2026-04-11T10:24:48Z</time></trkpt><trkpt lat="38.26892565074637" lon="16.07482711795938"><ele>1024.0</ele><time>2026-04-11T10:24:49Z</time></trkpt><trkpt lat="38.26911068566565" lon="16.074852682971066"><ele>1024.0</ele><time>2026-04-11T10:24:50Z</time></trkpt><trkpt lat="38.26930095729236" lon="16.074880157357462"><ele>1022.0</ele><time>2026-04-11T10:24:51Z</time></trkpt><trkpt lat="38.26948429991183" lon="16.074906631222763"><ele>1020.0</ele><time>2026-04-11T10:24:52Z</time></trkpt><trkpt lat="38.26965325232256" lon="16.074925864429826"><ele>1018.0</ele><time>2026-04-11T10:24:53Z</time></trkpt><trkpt lat="38.269815861874726" lon="16.074959938497386"><ele>1017.0</ele><time>2026-04-11T10:24:54Z</time></trkpt><trkpt lat="38.269972175144936" lon="16.075013456294926"><ele>1016.0</ele><time>2026-04-11T10:24:55Z</time></trkpt><trkpt lat="38.27011402960842" lon="16.07508872321227"><ele>1015.0</ele><time>2026-04-11T10:24:56Z</time></trkpt><trkpt lat="38.270237252013985" lon="16.0752072880078"><ele>1015.0</ele><time>2026-04-11T10:24:57Z</time></trkpt><trkpt lat="38.27035256876173" lon="16.075359002189373"><ele>1015.0</ele><time>2026-04-11T10:24:58Z</time></trkpt><trkpt lat="38.27043899255436" lon="16.075542659723524"><ele>1015.0</ele><time>2026-04-11T10:24:59Z</time></trkpt><trkpt lat="38.27053535634845" lon="16.075756817041057"><ele>1015.0</ele><time>2026-04-11T10:25:00Z</time></trkpt><trkpt lat="38.270644561611675" lon="16.075967386744594"><ele>1015.0</ele><time>2026-04-11T10:25:01Z</time></trkpt><trkpt lat="38.27072721452657" lon="16.076175471245648"><ele>1015.0</ele><time>2026-04-11T10:25:02Z</time></trkpt><trkpt lat="38.270805500017005" lon="16.07636753564697"><ele>1015.0</ele><time>2026-04-11T10:25:03Z</time></trkpt><trkpt lat="38.27088533355599" lon="16.076545220480742"><ele>1015.0</ele><time>2026-04-11T10:25:04Z</time></trkpt><trkpt lat="38.27096326636009" lon="16.076721002737813"><ele>1015.0</ele><time>2026-04-11T10:25:05Z</time></trkpt><trkpt lat="38.271040608296694" lon="16.076891924185414"><ele>1015.5</ele><time>2026-04-11T10:25:06Z</time></trkpt><trkpt lat="38.2711094136425" lon="16.077054989205628"><ele>1016.0</ele><time>2026-04-11T10:25:06.999Z</time></trkpt><trkpt lat="38.27117359527804" lon="16.07722051465033"><ele>1016.5</ele><time>2026-04-11T10:25:07.999Z</time></trkpt><trkpt lat="38.271250546764485" lon="16.07737194232324"><ele>1017.0</ele><time>2026-04-11T10:25:08.999Z</time></trkpt><trkpt lat="38.27132462479653" lon="16.0775168428629"><ele>1017.0</ele><time>2026-04-11T10:25:09.999Z</time></trkpt><trkpt lat="38.27138030733435" lon="16.077661434964124"><ele>1017.0</ele><time>2026-04-11T10:25:10.999Z</time></trkpt><trkpt lat="38.27144317896522" lon="16.07781001344778"><ele>1017.0</ele><time>2026-04-11T10:25:11.999Z</time></trkpt><trkpt lat="38.27150812571311" lon="16.077959504760308"><ele>1017.0</ele><time>2026-04-11T10:25:12.999Z</time></trkpt><trkpt lat="38.271580413116894" lon="16.07811260278938"><ele>1016.75</ele><time>2026-04-11T10:25:14Z</time></trkpt><trkpt lat="38.27165552488973" lon="16.078271545673143"><ele>1016.5</ele><time>2026-04-11T10:25:15Z</time></trkpt><trkpt lat="38.27172554286946" lon="16.078434097497546"><ele>1016.25</ele><time>2026-04-11T10:25:16Z</time></trkpt><trkpt lat="38.271796905853805" lon="16.078601757664867"><ele>1016.0</ele><time>2026-04-11T10:25:17Z</time></trkpt><trkpt lat="38.27186959461329" lon="16.07878116898568"><ele>1016.0</ele><time>2026-04-11T10:25:18Z</time></trkpt><trkpt lat="38.271947368252064" lon="16.078961901930263"><ele>1016.0</ele><time>2026-04-11T10:25:19Z</time></trkpt><trkpt lat="38.27203279133739" lon="16.079140135156084"><ele>1016.0</ele><time>2026-04-11T10:25:20Z</time></trkpt><trkpt lat="38.27210965452847" lon="16.079334511906072"><ele>1016.6666666666667</ele><time>2026-04-11T10:25:21Z</time></trkpt><trkpt lat="38.27219234081728" lon="16.079525870440886"><ele>1017.3333333333333</ele><time>2026-04-11T10:25:22Z</time></trkpt><trkpt lat="38.272275278820366" lon="16.07971781152199"><ele>1018.0</ele><time>2026-04-11T10:25:23Z</time></trkpt><trkpt lat="38.27236072127758" lon="16.079903855857086"><ele>1018.3333333333333</ele><time>2026-04-11T10:25:24Z</time></trkpt><trkpt lat="38.27245201018983" lon="16.080082836723395"><ele>1018.6666666666667</ele><time>2026-04-11T10:25:25Z</time></trkpt><trkpt lat="38.2725708608854" lon="16.080260846770933"><ele>1019.0</ele><time>2026-04-11T10:25:26Z</time></trkpt><trkpt lat="38.27266758930221" lon="16.080452070100844"><ele>1019.0</ele><time>2026-04-11T10:25:27Z</time></trkpt><trkpt lat="38.27278953193848" lon="16.08060216752217"><ele>1019.0</ele><time>2026-04-11T10:25:28Z</time></trkpt><trkpt lat="38.27290262819163" lon="16.08077800331339"><ele>1019.0</ele><time>2026-04-11T10:25:29Z</time></trkpt><trkpt lat="38.27303618299096" lon="16.080934999941793"><ele>1017.0</ele><time>2026-04-11T10:25:30Z</time></trkpt><trkpt lat="38.27316066130472" lon="16.08108137942716"><ele>1015.0</ele><time>2026-04-11T10:25:31Z</time></trkpt><trkpt lat="38.27327493890021" lon="16.0812219122176"><ele>1013.0</ele><time>2026-04-11T10:25:32Z</time></trkpt><trkpt lat="38.27337990011838" lon="16.0813509882153"><ele>1013.0</ele><time>2026-04-11T10:25:33Z</time></trkpt><trkpt lat="38.273477013188334" lon="16.08146673719878"><ele>1013.0</ele><time>2026-04-11T10:25:34Z</time></trkpt><trkpt lat="38.273576365934055" lon="16.081584148058596"><ele>1013.0</ele><time>2026-04-11T10:25:35Z</time></trkpt><trkpt lat="38.273673435582616" lon="16.081698860996358"><ele>1013.0</ele><time>2026-04-11T10:25:36Z</time></trkpt><trkpt lat="38.27377041091123" lon="16.081813462256658"><ele>1013.5</ele><time>2026-04-11T10:25:37Z</time></trkpt><trkpt lat="38.273871104710445" lon="16.081932797172602"><ele>1014.0</ele><time>2026-04-11T10:25:38Z</time></trkpt><trkpt lat="38.273971605440245" lon="16.08205347859589"><ele>1014.5</ele><time>2026-04-11T10:25:39Z</time></trkpt><trkpt lat="38.27408155239755" lon="16.082185502952786"><ele>1015.0</ele><time>2026-04-11T10:25:40Z</time></trkpt><trkpt lat="38.27418417094591" lon="16.08230872740362"><ele>1015.75</ele><time>2026-04-11T10:25:41Z</time></trkpt><trkpt lat="38.274289789787055" lon="16.08243151732724"><ele>1016.5</ele><time>2026-04-11T10:25:42Z</time></trkpt><trkpt lat="38.27439999471429" lon="16.082558299238887"><ele>1017.25</ele><time>2026-04-11T10:25:43Z</time></trkpt><trkpt lat="38.27451398183273" lon="16.082680963907784"><ele>1018.0</ele><time>2026-04-11T10:25:44Z</time></trkpt><trkpt lat="38.27463206065196" lon="16.08279965640701"><ele>1018.0</ele><time>2026-04-11T10:25:45Z</time></trkpt><trkpt lat="38.27475364308459" lon="16.082915745280793"><ele>1018.0</ele><time>2026-04-11T10:25:46Z</time></trkpt><trkpt lat="38.27487976679295" lon="16.08302853784025"><ele>1018.0</ele><time>2026-04-11T10:25:47Z</time></trkpt><trkpt lat="38.27500529170785" lon="16.083135138246018"><ele>1017.75</ele><time>2026-04-11T10:25:48Z</time></trkpt><trkpt lat="38.27513409186841" lon="16.083216407033273"><ele>1017.5</ele><time>2026-04-11T10:25:49Z</time></trkpt><trkpt lat="38.27523661430873" lon="16.08332271131999"><ele>1017.25</ele><time>2026-04-11T10:25:50Z</time></trkpt><trkpt lat="38.27534456016255" lon="16.083410048786682"><ele>1017.0</ele><time>2026-04-11T10:25:51Z</time></trkpt><trkpt lat="38.27546328449549" lon="16.083506126999804"><ele>1017.0</ele><time>2026-04-11T10:25:52Z</time></trkpt><trkpt lat="38.275598749275304" lon="16.08359072105349"><ele>1017.0</ele><time>2026-04-11T10:25:53Z</time></trkpt><trkpt lat="38.275715484623795" lon="16.083717709928123"><ele>1017.0</ele><time>2026-04-11T10:25:54Z</time></trkpt><trkpt lat="38.27585912993626" lon="16.083818523698298"><ele>1019.0</ele><time>2026-04-11T10:25:55Z</time></trkpt><trkpt lat="38.27600196400453" lon="16.083918473288076"><ele>1021.0</ele><time>2026-04-11T10:25:56Z</time></trkpt><trkpt lat="38.27614788515693" lon="16.084011688382066"><ele>1023.0</ele><time>2026-04-11T10:25:57Z</time></trkpt><trkpt lat="38.27628446584935" lon="16.084134798721482"><ele>1022.6666666666667</ele><time>2026-04-11T10:25:58Z</time></trkpt><trkpt lat="38.276423349939044" lon="16.084246417935066"><ele>1022.3333333333334</ele><time>2026-04-11T10:25:59Z</time></trkpt><trkpt lat="38.27656659869926" lon="16.0843552930241"><ele>1022.0</ele><time>2026-04-11T10:26:00Z</time></trkpt><trkpt lat="38.27670760782933" lon="16.08447214547789"><ele>1022.0</ele><time>2026-04-11T10:26:01Z</time></trkpt><trkpt lat="38.276859000768205" lon="16.084590986261823"><ele>1022.0</ele><time>2026-04-11T10:26:02Z</time></trkpt><trkpt lat="38.27700944035406" lon="16.084717133694117"><ele>1022.0</ele><time>2026-04-11T10:26:03Z</time></trkpt><trkpt lat="38.27715817826369" lon="16.084846208957803"><ele>1022.6666666666667</ele><time>2026-04-11T10:26:04Z</time></trkpt><trkpt lat="38.27730755204776" lon="16.08498227267447"><ele>1023.3333333333333</ele><time>2026-04-11T10:26:05Z</time></trkpt><trkpt lat="38.27744664226245" lon="16.085127531946895"><ele>1024.0</ele><time>2026-04-11T10:26:06Z</time></trkpt><trkpt lat="38.27758311783243" lon="16.085282351864304"><ele>1024.0</ele><time>2026-04-11T10:26:07Z</time></trkpt><trkpt lat="38.27772366175481" lon="16.085446952582043"><ele>1024.0</ele><time>2026-04-11T10:26:08Z</time></trkpt><trkpt lat="38.27786180485796" lon="16.085621076985387"><ele>1024.0</ele><time>2026-04-11T10:26:09Z</time></trkpt><trkpt lat="38.27800148049366" lon="16.085803214705933"><ele>1025.3333333333333</ele><time>2026-04-11T10:26:10Z</time></trkpt><trkpt lat="38.27814471021546" lon="16.085994017264053"><ele>1026.6666666666667</ele><time>2026-04-11T10:26:11Z</time></trkpt><trkpt lat="38.27829705790156" lon="16.086184134326864"><ele>1028.0</ele><time>2026-04-11T10:26:12Z</time></trkpt><trkpt lat="38.27845098996369" lon="16.086386234439534"><ele>1028.0</ele><time>2026-04-11T10:26:13Z</time></trkpt><trkpt lat="38.27860839799329" lon="16.08658967332691"><ele>1028.0</ele><time>2026-04-11T10:26:14Z</time></trkpt><trkpt lat="38.278766721851554" lon="16.08679667467801"><ele>1029.5</ele><time>2026-04-11T10:26:15Z</time></trkpt><trkpt lat="38.278930055769514" lon="16.08701471271068"><ele>1031.0</ele><time>2026-04-11T10:26:16Z</time></trkpt><trkpt lat="38.279087649142966" lon="16.08722964333136"><ele>1034.0</ele><time>2026-04-11T10:26:17Z</time></trkpt><trkpt lat="38.27925202842876" lon="16.087446646859522"><ele>1037.0</ele><time>2026-04-11T10:26:18Z</time></trkpt><trkpt lat="38.27941590679516" lon="16.087659035659094"><ele>1037.0</ele><time>2026-04-11T10:26:19Z</time></trkpt><trkpt lat="38.27957177264889" lon="16.08786131503693"><ele>1037.0</ele><time>2026-04-11T10:26:20Z</time></trkpt><trkpt lat="38.279726815484075" lon="16.088070271217152"><ele>1037.0</ele><time>2026-04-11T10:26:21Z</time></trkpt><trkpt lat="38.279888746481106" lon="16.088278806898696"><ele>1037.5</ele><time>2026-04-11T10:26:22Z</time></trkpt><trkpt lat="38.28005078453508" lon="16.088488200513723"><ele>1038.0</ele><time>2026-04-11T10:26:23Z</time></trkpt><trkpt lat="38.280213059079195" lon="16.088697638326735"><ele>1038.0</ele><time>2026-04-11T10:26:24Z</time></trkpt><trkpt lat="38.28037505808378" lon="16.08890771346098"><ele>1038.0</ele><time>2026-04-11T10:26:25Z</time></trkpt><trkpt lat="38.28053395942937" lon="16.089101707213132"><ele>1038.6666666666667</ele><time>2026-04-11T10:26:26Z</time></trkpt><trkpt lat="38.2806905874701" lon="16.089299157994517"><ele>1039.3333333333335</ele><time>2026-04-11T10:26:27Z</time></trkpt><trkpt lat="38.28083202355757" lon="16.089470579658283"><ele>1040.0</ele><time>2026-04-11T10:26:28Z</time></trkpt><trkpt lat="38.28095638282051" lon="16.08962698383509"><ele>1040.0</ele><time>2026-04-11T10:26:29Z</time></trkpt><trkpt lat="38.28105055113135" lon="16.089788996484227"><ele>1040.0</ele><time>2026-04-11T10:26:30Z</time></trkpt><trkpt lat="38.28111563646784" lon="16.08996349083724"><ele>1040.0</ele><time>2026-04-11T10:26:31Z</time></trkpt><trkpt lat="38.28115343262802" lon="16.090163017480602"><ele>1039.6666666666667</ele><time>2026-04-11T10:26:32Z</time></trkpt><trkpt lat="38.28117627067847" lon="16.090377438425474"><ele>1039.3333333333333</ele><time>2026-04-11T10:26:33Z</time></trkpt><trkpt lat="38.281180205425876" lon="16.090568997335783"><ele>1039.0</ele><time>2026-04-11T10:26:34Z</time></trkpt><trkpt lat="38.28120028805436" lon="16.090741423536315"><ele>1038.2</ele><time>2026-04-11T10:26:35Z</time></trkpt><trkpt lat="38.28121427799338" lon="16.090899011710032"><ele>1037.4</ele><time>2026-04-11T10:26:36Z</time></trkpt><trkpt lat="38.28120903074266" lon="16.091022165560034"><ele>1036.6</ele><time>2026-04-11T10:26:37Z</time></trkpt><trkpt lat="38.28122885106912" lon="16.091154051703445"><ele>1035.8</ele><time>2026-04-11T10:26:38Z</time></trkpt><trkpt lat="38.28125205060576" lon="16.09127283625987"><ele>1035.0</ele><time>2026-04-11T10:26:39Z</time></trkpt><trkpt lat="38.28129785423244" lon="16.091372463646902"><ele>1035.0</ele><time>2026-04-11T10:26:40Z</time></trkpt><trkpt lat="38.28132086626187" lon="16.091486824995638"><ele>1035.0</ele><time>2026-04-11T10:26:41Z</time></trkpt><trkpt lat="38.28133404045414" lon="16.091582570578975"><ele>1035.0</ele><time>2026-04-11T10:26:42Z</time></trkpt><trkpt lat="38.281365466849714" lon="16.091717365804566"><ele>1035.0</ele><time>2026-04-11T10:26:43Z</time></trkpt><trkpt lat="38.281356093102886" lon="16.09188142546374"><ele>1035.0</ele><time>2026-04-11T10:26:44Z</time></trkpt><trkpt lat="38.28136635499289" lon="16.09203042129574"><ele>1034.25</ele><time>2026-04-11T10:26:45Z</time></trkpt><trkpt lat="38.28138615270364" lon="16.09218706230282"><ele>1033.5</ele><time>2026-04-11T10:26:46Z</time></trkpt><trkpt lat="38.281411793338116" lon="16.09235195546937"><ele>1032.75</ele><time>2026-04-11T10:26:47Z</time></trkpt><trkpt lat="38.281430295393406" lon="16.092526280030427"><ele>1032.0</ele><time>2026-04-11T10:26:48Z</time></trkpt><trkpt lat="38.281462245727056" lon="16.092700477650496"><ele>1030.6666666666667</ele><time>2026-04-11T10:26:49Z</time></trkpt><trkpt lat="38.281496628359534" lon="16.092883897360515"><ele>1029.3333333333335</ele><time>2026-04-11T10:26:50Z</time></trkpt><trkpt lat="38.2815144217387" lon="16.093085771755923"><ele>1028.0</ele><time>2026-04-11T10:26:51Z</time></trkpt><trkpt lat="38.28155122342984" lon="16.09328318375672"><ele>1027.25</ele><time>2026-04-11T10:26:52Z</time></trkpt><trkpt lat="38.28155963498563" lon="16.093431533808644"><ele>1026.5</ele><time>2026-04-11T10:26:53Z</time></trkpt><trkpt lat="38.281576659844944" lon="16.093633105531513"><ele>1025.75</ele><time>2026-04-11T10:26:54Z</time></trkpt><trkpt lat="38.281606125688484" lon="16.0938131497143"><ele>1025.0</ele><time>2026-04-11T10:26:55Z</time></trkpt><trkpt lat="38.28162955019123" lon="16.093984454817303"><ele>1023.75</ele><time>2026-04-11T10:26:56Z</time></trkpt><trkpt lat="38.28165147911101" lon="16.094146670917343"><ele>1022.5</ele><time>2026-04-11T10:26:57Z</time></trkpt><trkpt lat="38.28169367687467" lon="16.0942991739236"><ele>1021.25</ele><time>2026-04-11T10:26:58Z</time></trkpt><trkpt lat="38.281755341756046" lon="16.094439823817243"><ele>1020.0</ele><time>2026-04-11T10:26:59Z</time></trkpt><trkpt lat="38.281837814040344" lon="16.094572521065544"><ele>1020.0</ele><time>2026-04-11T10:27:00Z</time></trkpt><trkpt lat="38.28193980231858" lon="16.09471927993605"><ele>1020.0</ele><time>2026-04-11T10:27:01Z</time></trkpt><trkpt lat="38.282069470100225" lon="16.094834265375592"><ele>1020.0</ele><time>2026-04-11T10:27:02Z</time></trkpt><trkpt lat="38.28217318095731" lon="16.094981749869007"><ele>1020.0</ele><time>2026-04-11T10:27:03Z</time></trkpt><trkpt lat="38.28229988372355" lon="16.09515885788548"><ele>1020.0</ele><time>2026-04-11T10:27:04Z</time></trkpt><trkpt lat="38.282431904428876" lon="16.095315968304515"><ele>1020.0</ele><time>2026-04-11T10:27:05Z</time></trkpt><trkpt lat="38.28255538685122" lon="16.095465267873646"><ele>1020.0</ele><time>2026-04-11T10:27:06Z</time></trkpt><trkpt lat="38.282670478146215" lon="16.09561350172606"><ele>1020.0</ele><time>2026-04-11T10:27:07Z</time></trkpt><trkpt lat="38.28273950707189" lon="16.095811394732284"><ele>1020.0</ele><time>2026-04-11T10:27:08Z</time></trkpt><trkpt lat="38.2828291369546" lon="16.096003421335542"><ele>1018.6666666666667</ele><time>2026-04-11T10:27:09Z</time></trkpt><trkpt lat="38.28292569822222" lon="16.096192973481408"><ele>1017.3333333333334</ele><time>2026-04-11T10:27:10Z</time></trkpt><trkpt lat="38.28302368976376" lon="16.096394612978823"><ele>1016.0</ele><time>2026-04-11T10:27:11Z</time></trkpt><trkpt lat="38.28314300440328" lon="16.0966049652758"><ele>1016.0</ele><time>2026-04-11T10:27:12Z</time></trkpt><trkpt lat="38.28324013551651" lon="16.09679896899175"><ele>1016.0</ele><time>2026-04-11T10:27:13Z</time></trkpt><trkpt lat="38.28333752425386" lon="16.096953645591277"><ele>1016.0</ele><time>2026-04-11T10:27:14Z</time></trkpt><trkpt lat="38.283446079425936" lon="16.09705814029227"><ele>1016.0</ele><time>2026-04-11T10:27:15Z</time></trkpt><trkpt lat="38.28361031551608" lon="16.09714009899366"><ele>1016.0</ele><time>2026-04-11T10:27:16Z</time></trkpt><trkpt lat="38.28376304956186" lon="16.09718499081523"><ele>1016.0</ele><time>2026-04-11T10:27:17Z</time></trkpt><trkpt lat="38.28393017393169" lon="16.097192955289216"><ele>1018.5</ele><time>2026-04-11T10:27:18Z</time></trkpt><trkpt lat="38.28408885243749" lon="16.0971828274115"><ele>1021.0</ele><time>2026-04-11T10:27:19Z</time></trkpt><trkpt lat="38.284219267946014" lon="16.097178271880676"><ele>1023.5</ele><time>2026-04-11T10:27:20Z</time></trkpt><trkpt lat="38.28431586794021" lon="16.09719063976027"><ele>1026.0</ele><time>2026-04-11T10:27:21Z</time></trkpt><trkpt lat="38.28442529401991" lon="16.097271803002833"><ele>1024.3333333333333</ele><time>2026-04-11T10:27:22Z</time></trkpt><trkpt lat="38.284498994709814" lon="16.097442535299354"><ele>1022.6666666666666</ele><time>2026-04-11T10:27:23Z</time></trkpt><trkpt lat="38.284573096844625" lon="16.097611690655256"><ele>1021.0</ele><time>2026-04-11T10:27:24Z</time></trkpt><trkpt lat="38.28461503328299" lon="16.09779765262109"><ele>1021.0</ele><time>2026-04-11T10:27:25Z</time></trkpt><trkpt lat="38.28466414471443" lon="16.09788876141244"><ele>1021.0</ele><time>2026-04-11T10:27:26Z</time></trkpt><trkpt lat="38.28481431135674" lon="16.097975479732103"><ele>1021.0</ele><time>2026-04-11T10:27:27Z</time></trkpt><trkpt lat="38.28496206390598" lon="16.098048972872338"><ele>1021.0</ele><time>2026-04-11T10:27:28Z</time></trkpt><trkpt lat="38.285124223124896" lon="16.09817371503051"><ele>1019.3333333333333</ele><time>2026-04-11T10:27:29Z</time></trkpt><trkpt lat="38.2852517254032" lon="16.09829098723309"><ele>1017.6666666666667</ele><time>2026-04-11T10:27:30Z</time></trkpt><trkpt lat="38.28538483769752" lon="16.09832596839302"><ele>1016.0</ele><time>2026-04-11T10:27:31Z</time></trkpt><trkpt lat="38.285561707219124" lon="16.09836497401632"><ele>1017.4</ele><time>2026-04-11T10:27:32Z</time></trkpt><trkpt lat="38.28568238043054" lon="16.098413948027464"><ele>1018.8</ele><time>2026-04-11T10:27:33Z</time></trkpt><trkpt lat="38.28578303380743" lon="16.098453032916535"><ele>1020.1999999999999</ele><time>2026-04-11T10:27:34Z</time></trkpt><trkpt lat="38.28585892806462" lon="16.098522034023414"><ele>1021.5999999999999</ele><time>2026-04-11T10:27:35Z</time></trkpt><trkpt lat="38.285903959532654" lon="16.098639605114645"><ele>1023.0</ele><time>2026-04-11T10:27:36Z</time></trkpt><trkpt lat="38.28591653946929" lon="16.09883211380043"><ele>1023.0</ele><time>2026-04-11T10:27:37Z</time></trkpt><trkpt lat="38.28596433461067" lon="16.099012550380362"><ele>1023.0</ele><time>2026-04-11T10:27:38Z</time></trkpt><trkpt lat="38.285985352406534" lon="16.099141871358402"><ele>1023.0</ele><time>2026-04-11T10:27:39Z</time></trkpt><trkpt lat="38.2860733080348" lon="16.099232382579704"><ele>1023.0</ele><time>2026-04-11T10:27:40Z</time></trkpt><trkpt lat="38.286203948316206" lon="16.099272962376038"><ele>1018.75</ele><time>2026-04-11T10:27:41Z</time></trkpt><trkpt lat="38.2863694167902" lon="16.09922817304305"><ele>1014.5</ele><time>2026-04-11T10:27:42Z</time></trkpt><trkpt lat="38.28650141775681" lon="16.099234552914062"><ele>1010.25</ele><time>2026-04-11T10:27:43Z</time></trkpt><trkpt lat="38.28656314456999" lon="16.0992593623203"><ele>1006.0</ele><time>2026-04-11T10:27:44Z</time></trkpt><trkpt lat="38.28659045108855" lon="16.099364871043775"><ele>1006.0</ele><time>2026-04-11T10:27:46Z</time></trkpt><trkpt lat="38.28648779874244" lon="16.099462829793694"><ele>1006.0</ele><time>2026-04-11T10:27:47Z</time></trkpt><trkpt lat="38.286235933628085" lon="16.099442127576715"><ele>1006.0</ele><time>2026-04-11T10:27:48Z</time></trkpt><trkpt lat="38.286214298566435" lon="16.099520530019056"><ele>1006.0</ele><time>2026-04-11T10:27:50Z</time></trkpt><trkpt lat="38.28620746126321" lon="16.099614336773488"><ele>1006.0</ele><time>2026-04-11T10:27:51Z</time></trkpt><trkpt lat="38.28627977532724" lon="16.099734578254633"><ele>1006.0</ele><time>2026-04-11T10:27:52Z</time></trkpt><trkpt lat="38.28640113646632" lon="16.099769013149064"><ele>1006.0</ele><time>2026-04-11T10:27:53Z</time></trkpt><trkpt lat="38.28653206355021" lon="16.099659730435366"><ele>1006.0</ele><time>2026-04-11T10:27:54Z</time></trkpt><trkpt lat="38.28667850810011" lon="16.099606965594756"><ele>1006.0</ele><time>2026-04-11T10:27:55Z</time></trkpt><trkpt lat="38.28683516831313" lon="16.099541827128945"><ele>1006.0</ele><time>2026-04-11T10:27:56Z</time></trkpt><trkpt lat="38.28695048842203" lon="16.09952505766653"><ele>1006.0</ele><time>2026-04-11T10:27:57Z</time></trkpt><trkpt lat="38.28709382462005" lon="16.099570227786366"><ele>1006.0</ele><time>2026-04-11T10:27:58Z</time></trkpt><trkpt lat="38.28728445059208" lon="16.09961971924359"><ele>1006.0</ele><time>2026-04-11T10:27:59Z</time></trkpt><trkpt lat="38.287409015151646" lon="16.09963909286729"><ele>1006.0</ele><time>2026-04-11T10:28:00Z</time></trkpt><trkpt lat="38.287544286988144" lon="16.09968758673113"><ele>1006.0</ele><time>2026-04-11T10:28:01Z</time></trkpt><trkpt lat="38.28766240029013" lon="16.09978542848325"><ele>1006.0</ele><time>2026-04-11T10:28:02Z</time></trkpt><trkpt lat="38.28777144752268" lon="16.09994499674713"><ele>1000.3333333333333</ele><time>2026-04-11T10:28:03Z</time></trkpt><trkpt lat="38.28790554549668" lon="16.100083972574126"><ele>994.6666666666667</ele><time>2026-04-11T10:28:04Z</time></trkpt><trkpt lat="38.28803217012846" lon="16.100175140564545"><ele>989.0</ele><time>2026-04-11T10:28:05Z</time></trkpt><trkpt lat="38.288183209289095" lon="16.100225457137974"><ele>988.5</ele><time>2026-04-11T10:28:06Z</time></trkpt><trkpt lat="38.288336627085876" lon="16.100250177786858"><ele>988.0</ele><time>2026-04-11T10:28:07Z</time></trkpt><trkpt lat="38.288474617915426" lon="16.1002014121682"><ele>987.5</ele><time>2026-04-11T10:28:08Z</time></trkpt><trkpt lat="38.28861128252443" lon="16.100125258447047"><ele>987.0</ele><time>2026-04-11T10:28:09Z</time></trkpt><trkpt lat="38.28874990709526" lon="16.100013196561115"><ele>985.0</ele><time>2026-04-11T10:28:10Z</time></trkpt><trkpt lat="38.28887962446621" lon="16.09987297943811"><ele>983.0</ele><time>2026-04-11T10:28:11Z</time></trkpt><trkpt lat="38.288933604770136" lon="16.09979333246905"><ele>981.0</ele><time>2026-04-11T10:28:12Z</time></trkpt><trkpt lat="38.2889924169693" lon="16.099638752570247"><ele>979.0</ele><time>2026-04-11T10:28:13Z</time></trkpt><trkpt lat="38.289047126738616" lon="16.099503056405723"><ele>979.0</ele><time>2026-04-11T10:28:14Z</time></trkpt><trkpt lat="38.28910095269043" lon="16.09939299238733"><ele>979.0000000000001</ele><time>2026-04-11T10:28:16Z</time></trkpt><trkpt lat="38.289184487806466" lon="16.09945118142533"><ele>979.0000000000001</ele><time>2026-04-11T10:28:18Z</time></trkpt><trkpt lat="38.28921866991186" lon="16.099558712353865"><ele>979.0</ele><time>2026-04-11T10:28:19Z</time></trkpt><trkpt lat="38.28916804767077" lon="16.09967943235022"><ele>979.0</ele><time>2026-04-11T10:28:20Z</time></trkpt><trkpt lat="38.28917983184915" lon="16.099784324906572"><ele>979.0</ele><time>2026-04-11T10:28:21Z</time></trkpt><trkpt lat="38.28918507418868" lon="16.099896220897563"><ele>979.0</ele><time>2026-04-11T10:28:22Z</time></trkpt><trkpt lat="38.28926539326623" lon="16.100084453917635"><ele>979.0</ele><time>2026-04-11T10:28:23Z</time></trkpt><trkpt lat="38.289309217737866" lon="16.100201004777254"><ele>979.0</ele><time>2026-04-11T10:28:24Z</time></trkpt><trkpt lat="38.2893890042382" lon="16.10033831437706"><ele>976.0</ele><time>2026-04-11T10:28:25Z</time></trkpt><trkpt lat="38.289443530875666" lon="16.100456753431672"><ele>973.0000000000001</ele><time>2026-04-11T10:28:26Z</time></trkpt><trkpt lat="38.289499709626256" lon="16.100577144249023"><ele>970.0000000000001</ele><time>2026-04-11T10:28:27Z</time></trkpt><trkpt lat="38.28952083203798" lon="16.100685353596607"><ele>967.0</ele><time>2026-04-11T10:28:28Z</time></trkpt><trkpt lat="38.289533776690256" lon="16.100813253290646"><ele>964.0</ele><time>2026-04-11T10:28:29Z</time></trkpt><trkpt lat="38.289508527278414" lon="16.100923959275136"><ele>959.5</ele><time>2026-04-11T10:28:30Z</time></trkpt><trkpt lat="38.2894854540121" lon="16.101074499013322"><ele>955.0</ele><time>2026-04-11T10:28:31Z</time></trkpt><trkpt lat="38.289439207041085" lon="16.101212688458943"><ele>950.5</ele><time>2026-04-11T10:28:32Z</time></trkpt><trkpt lat="38.28947159292082" lon="16.10141133804661"><ele>946.0</ele><time>2026-04-11T10:28:33Z</time></trkpt><trkpt lat="38.28950555252094" lon="16.101590791825384"><ele>943.25</ele><time>2026-04-11T10:28:34Z</time></trkpt><trkpt lat="38.289518428903975" lon="16.10173778970769"><ele>940.5</ele><time>2026-04-11T10:28:35Z</time></trkpt><trkpt lat="38.289437367978934" lon="16.101866847151793"><ele>937.75</ele><time>2026-04-11T10:28:36Z</time></trkpt><trkpt lat="38.28942416137341" lon="16.101993251125197"><ele>935.0</ele><time>2026-04-11T10:28:37Z</time></trkpt><trkpt lat="38.289485498202964" lon="16.10211193264603"><ele>935.0</ele><time>2026-04-11T10:28:39Z</time></trkpt><trkpt lat="38.289597165367525" lon="16.10205963580852"><ele>935.0</ele><time>2026-04-11T10:28:40Z</time></trkpt><trkpt lat="38.28965510774428" lon="16.10191832282707"><ele>935.0</ele><time>2026-04-11T10:28:41Z</time></trkpt><trkpt lat="38.28965744950783" lon="16.10174051099963"><ele>935.0</ele><time>2026-04-11T10:28:42Z</time></trkpt><trkpt lat="38.289692520513974" lon="16.101564760616164"><ele>937.2</ele><time>2026-04-11T10:28:43Z</time></trkpt><trkpt lat="38.28974365654735" lon="16.10142781538875"><ele>939.4</ele><time>2026-04-11T10:28:44Z</time></trkpt><trkpt lat="38.28981966140794" lon="16.101358577671142"><ele>941.5999999999999</ele><time>2026-04-11T10:28:45Z</time></trkpt><trkpt lat="38.28992880043669" lon="16.101385624898395"><ele>943.8</ele><time>2026-04-11T10:28:46Z</time></trkpt><trkpt lat="38.29002207260523" lon="16.101445640210628"><ele>946.0</ele><time>2026-04-11T10:28:47Z</time></trkpt><trkpt lat="38.2900731874757" lon="16.101559530239484"><ele>950.75</ele><time>2026-04-11T10:28:48Z</time></trkpt><trkpt lat="38.290035736161364" lon="16.101701422272953"><ele>955.5</ele><time>2026-04-11T10:28:49Z</time></trkpt><trkpt lat="38.28996598190976" lon="16.101799469605687"><ele>960.25</ele><time>2026-04-11T10:28:50Z</time></trkpt><trkpt lat="38.28990436605217" lon="16.10195071550367"><ele>965.0</ele><time>2026-04-11T10:28:51Z</time></trkpt><trkpt lat="38.28979970494332" lon="16.102130138132832"><ele>958.0</ele><time>2026-04-11T10:28:52Z</time></trkpt><trkpt lat="38.28968992522879" lon="16.102329372147683"><ele>951.0</ele><time>2026-04-11T10:28:53Z</time></trkpt><trkpt lat="38.28959171799885" lon="16.10255325035484"><ele>944.0</ele><time>2026-04-11T10:28:54.001Z</time></trkpt><trkpt lat="38.28950787859575" lon="16.102787761971914"><ele>944.0</ele><time>2026-04-11T10:28:55.001Z</time></trkpt><trkpt lat="38.28943946356899" lon="16.102988983728608"><ele>944.0</ele><time>2026-04-11T10:28:56.001Z</time></trkpt><trkpt lat="38.289398092027504" lon="16.103180641077472"><ele>944.0</ele><time>2026-04-11T10:28:57.001Z</time></trkpt><trkpt lat="38.28937916347933" lon="16.10335350098013"><ele>950.6666666666667</ele><time>2026-04-11T10:28:58.001Z</time></trkpt><trkpt lat="38.28938728086427" lon="16.103536733032193"><ele>957.3333333333333</ele><time>2026-04-11T10:28:59.001Z</time></trkpt><trkpt lat="38.289418995822544" lon="16.103756887692125"><ele>964.0</ele><time>2026-04-11T10:29:00.001Z</time></trkpt><trkpt lat="38.289479039758746" lon="16.10399479799381"><ele>969.0</ele><time>2026-04-11T10:29:01.001Z</time></trkpt><trkpt lat="38.289545385633055" lon="16.104239490289157"><ele>974.0</ele><time>2026-04-11T10:29:02.001Z</time></trkpt><trkpt lat="38.28963567662657" lon="16.10449522152654"><ele>979.0</ele><time>2026-04-11T10:29:03.001Z</time></trkpt><trkpt lat="38.28974029370532" lon="16.104748644943644"><ele>989.5</ele><time>2026-04-11T10:29:04.001Z</time></trkpt><trkpt lat="38.28985433381953" lon="16.105027466850228"><ele>1000.0</ele><time>2026-04-11T10:29:05.001Z</time></trkpt><trkpt lat="38.289964471810045" lon="16.105295778452202"><ele>1000.0</ele><time>2026-04-11T10:29:06.001Z</time></trkpt><trkpt lat="38.290067266839195" lon="16.10553981674643"><ele>1000.0</ele><time>2026-04-11T10:29:07.001Z</time></trkpt><trkpt lat="38.29014672413689" lon="16.105772005458125"><ele>1000.0</ele><time>2026-04-11T10:29:08.001Z</time></trkpt><trkpt lat="38.29025517435308" lon="16.105954331363314"><ele>1000.0</ele><time>2026-04-11T10:29:09.001Z</time></trkpt><trkpt lat="38.29032480460925" lon="16.106093440523935"><ele>1000.0</ele><time>2026-04-11T10:29:10.001Z</time></trkpt><trkpt lat="38.29037053487483" lon="16.1063015360383"><ele>1000.0</ele><time>2026-04-11T10:29:11.001Z</time></trkpt><trkpt lat="38.29039376244275" lon="16.106457915637254"><ele>1000.0</ele><time>2026-04-11T10:29:12.001Z</time></trkpt><trkpt lat="38.2904498818258" lon="16.10660195747915"><ele>998.5</ele><time>2026-04-11T10:29:13.001Z</time></trkpt><trkpt lat="38.290570467570596" lon="16.106702237580876"><ele>997.0</ele><time>2026-04-11T10:29:14.001Z</time></trkpt><trkpt lat="38.29064448971903" lon="16.10683262274592"><ele>995.5</ele><time>2026-04-11T10:29:15.001Z</time></trkpt><trkpt lat="38.29073056792534" lon="16.106942444694123"><ele>994.0</ele><time>2026-04-11T10:29:16.001Z</time></trkpt><trkpt lat="38.29080686717013" lon="16.107034201958022"><ele>994.0</ele><time>2026-04-11T10:29:17.001Z</time></trkpt><trkpt lat="38.290882010339224" lon="16.107138721109916"><ele>994.0</ele><time>2026-04-11T10:29:18.001Z</time></trkpt><trkpt lat="38.29092304909979" lon="16.107268988177175"><ele>994.0</ele><time>2026-04-11T10:29:19Z</time></trkpt><trkpt lat="38.290956335544436" lon="16.10740244095594"><ele>994.0</ele><time>2026-04-11T10:29:20Z</time></trkpt><trkpt lat="38.29099058813593" lon="16.107562468469446"><ele>993.25</ele><time>2026-04-11T10:29:21Z</time></trkpt><trkpt lat="38.291015652805875" lon="16.107720275591213"><ele>992.5</ele><time>2026-04-11T10:29:22Z</time></trkpt><trkpt lat="38.291016162673266" lon="16.107893705596332"><ele>991.75</ele><time>2026-04-11T10:29:23Z</time></trkpt><trkpt lat="38.29102745315865" lon="16.10807943030989"><ele>991.0</ele><time>2026-04-11T10:29:24Z</time></trkpt><trkpt lat="38.29105300912633" lon="16.10828836174179"><ele>989.0</ele><time>2026-04-11T10:29:25Z</time></trkpt><trkpt lat="38.2910820450008" lon="16.10848376927532"><ele>987.0</ele><time>2026-04-11T10:29:26Z</time></trkpt><trkpt lat="38.291086832152395" lon="16.108680446253466"><ele>985.0</ele><time>2026-04-11T10:29:27Z</time></trkpt><trkpt lat="38.29110454545852" lon="16.10885964520667"><ele>985.0</ele><time>2026-04-11T10:29:28Z</time></trkpt><trkpt lat="38.291137577479134" lon="16.10906558235873"><ele>985.0</ele><time>2026-04-11T10:29:29Z</time></trkpt><trkpt lat="38.29116971407867" lon="16.10923842333062"><ele>985.0</ele><time>2026-04-11T10:29:30Z</time></trkpt><trkpt lat="38.291228489096746" lon="16.10941899980308"><ele>985.0</ele><time>2026-04-11T10:29:31Z</time></trkpt><trkpt lat="38.291319808468444" lon="16.10958643617869"><ele>985.0</ele><time>2026-04-11T10:29:32Z</time></trkpt><trkpt lat="38.29142317533886" lon="16.109702901314396"><ele>985.0</ele><time>2026-04-11T10:29:33Z</time></trkpt><trkpt lat="38.2915584677523" lon="16.109786298720127"><ele>985.0</ele><time>2026-04-11T10:29:34Z</time></trkpt><trkpt lat="38.29169696665863" lon="16.10986664062212"><ele>989.25</ele><time>2026-04-11T10:29:35Z</time></trkpt><trkpt lat="38.291835457613395" lon="16.109949766190862"><ele>993.5</ele><time>2026-04-11T10:29:36Z</time></trkpt><trkpt lat="38.29198499282948" lon="16.109996292869216"><ele>997.75</ele><time>2026-04-11T10:29:37Z</time></trkpt><trkpt lat="38.29210931353543" lon="16.110046444590196"><ele>1002.0</ele><time>2026-04-11T10:29:38Z</time></trkpt><trkpt lat="38.29223135174124" lon="16.110051736483545"><ele>1002.75</ele><time>2026-04-11T10:29:39Z</time></trkpt><trkpt lat="38.29232740421628" lon="16.11002385409603"><ele>1003.5</ele><time>2026-04-11T10:29:40Z</time></trkpt><trkpt lat="38.29244200762619" lon="16.109991403178448"><ele>1004.25</ele><time>2026-04-11T10:29:41Z</time></trkpt><trkpt lat="38.292618105436674" lon="16.109974050784672"><ele>1005.0</ele><time>2026-04-11T10:29:42Z</time></trkpt><trkpt lat="38.29275889036846" lon="16.10999406223095"><ele>1005.0</ele><time>2026-04-11T10:29:43Z</time></trkpt><trkpt lat="38.292913032064426" lon="16.110046694944973"><ele>1005.0</ele><time>2026-04-11T10:29:44Z</time></trkpt><trkpt lat="38.29309704812019" lon="16.11010735364064"><ele>1005.0</ele><time>2026-04-11T10:29:45Z</time></trkpt><trkpt lat="38.2932916940692" lon="16.110164496731542"><ele>1006.3333333333333</ele><time>2026-04-11T10:29:46Z</time></trkpt><trkpt lat="38.2934574752357" lon="16.11025505132039"><ele>1007.6666666666666</ele><time>2026-04-11T10:29:47Z</time></trkpt><trkpt lat="38.29361369172292" lon="16.110367739935953"><ele>1009.0</ele><time>2026-04-11T10:29:48Z</time></trkpt><trkpt lat="38.29377312958467" lon="16.110503151249368"><ele>1009.6666666666666</ele><time>2026-04-11T10:29:49Z</time></trkpt><trkpt lat="38.29392609986195" lon="16.110624535512333"><ele>1010.3333333333333</ele><time>2026-04-11T10:29:50Z</time></trkpt><trkpt lat="38.29407997584764" lon="16.11075308081919"><ele>1011.0</ele><time>2026-04-11T10:29:51Z</time></trkpt><trkpt lat="38.29426869187902" lon="16.1108673306068"><ele>1011.0</ele><time>2026-04-11T10:29:52Z</time></trkpt><trkpt lat="38.29447660022611" lon="16.110981813219308"><ele>1011.0</ele><time>2026-04-11T10:29:53Z</time></trkpt><trkpt lat="38.29465686961311" lon="16.111074266168405"><ele>1011.0</ele><time>2026-04-11T10:29:54Z</time></trkpt><trkpt lat="38.294826102280545" lon="16.111158174749928"><ele>1010.3333333333333</ele><time>2026-04-11T10:29:55Z</time></trkpt><trkpt lat="38.29498864072794" lon="16.111236227374764"><ele>1009.6666666666666</ele><time>2026-04-11T10:29:56Z</time></trkpt><trkpt lat="38.29514668786742" lon="16.11130551345584"><ele>1009.0</ele><time>2026-04-11T10:29:57Z</time></trkpt><trkpt lat="38.295279188481395" lon="16.111360586994795"><ele>1009.0</ele><time>2026-04-11T10:29:58Z</time></trkpt><trkpt lat="38.295407090854226" lon="16.111411438908746"><ele>1009.0000000000001</ele><time>2026-04-11T10:29:59Z</time></trkpt><trkpt lat="38.295510052219356" lon="16.111449761241378"><ele>1009.0000000000001</ele><time>2026-04-11T10:30:00Z</time></trkpt><trkpt lat="38.29558419106083" lon="16.111476847037228"><ele>1009.0</ele><time>2026-04-11T10:30:01Z</time></trkpt><trkpt lat="38.29564598820494" lon="16.111499423940913"><ele>1009.0</ele><time>2026-04-11T10:30:02Z</time></trkpt><trkpt lat="38.295742288849084" lon="16.111534942025965"><ele>1008.8333333333333</ele><time>2026-04-11T10:30:04Z</time></trkpt><trkpt lat="38.29583096893931" lon="16.11155467934297"><ele>1008.6666666666666</ele><time>2026-04-11T10:30:06Z</time></trkpt><trkpt lat="38.29592628950809" lon="16.111606330108724"><ele>1008.5</ele><time>2026-04-11T10:30:08Z</time></trkpt><trkpt lat="38.29599423582044" lon="16.11163291410543"><ele>1008.3333333333333</ele><time>2026-04-11T10:30:10Z</time></trkpt><trkpt lat="38.296056501799896" lon="16.11165727565138"><ele>1008.1666666666666</ele><time>2026-04-11T10:31:48Z</time></trkpt><trkpt lat="38.296138841573296" lon="16.11166606249557"><ele>1008.0</ele><time>2026-04-11T10:32:04Z</time></trkpt><trkpt lat="38.29634928612438" lon="16.111223607450505"><ele>1008.0</ele><time>2026-04-11T10:32:08Z</time></trkpt><trkpt lat="38.29638587925186" lon="16.111142213113332"><ele>1008.0</ele><time>2026-04-11T10:32:09Z</time></trkpt><trkpt lat="38.296414888635184" lon="16.1110460488856"><ele>1008.0</ele><time>2026-04-11T10:32:10Z</time></trkpt><trkpt lat="38.296432822343974" lon="16.110908080137627"><ele>1008.0</ele><time>2026-04-11T10:32:11Z</time></trkpt><trkpt lat="38.296456214779504" lon="16.1107573707138"><ele>1008.0</ele><time>2026-04-11T10:32:13Z</time></trkpt><trkpt lat="38.29644741857934" lon="16.11067785829518"><ele>1008.0</ele><time>2026-04-11T10:32:14Z</time></trkpt><trkpt lat="38.2964165925815" lon="16.110603614330312"><ele>1008.0</ele><time>2026-04-11T10:32:15Z</time></trkpt><trkpt lat="38.296403726824515" lon="16.110509773899967"><ele>1008.0</ele><time>2026-04-11T10:32:16Z</time></trkpt><trkpt lat="38.29635638105229" lon="16.110410001317515"><ele>1008.0</ele><time>2026-04-11T10:32:17Z</time></trkpt><trkpt lat="38.296338014418886" lon="16.110311566044004"><ele>1008.0</ele><time>2026-04-11T10:32:18Z</time></trkpt><trkpt lat="38.29631454226432" lon="16.110236498707447"><ele>1008.0</ele><time>2026-04-11T10:32:19Z</time></trkpt><trkpt lat="38.29628944675057" lon="16.1101273226317"><ele>1008.0</ele><time>2026-04-11T10:32:21Z</time></trkpt><trkpt lat="38.29624090410569" lon="16.110060702589493"><ele>1008.0</ele><time>2026-04-11T10:32:23Z</time></trkpt><trkpt lat="38.29629544819746" lon="16.109925504845368"><ele>1008.0</ele><time>2026-04-11T10:32:25Z</time></trkpt><trkpt lat="38.29637162689851" lon="16.109835915262224"><ele>1008.0</ele><time>2026-04-11T10:32:27Z</time></trkpt><trkpt lat="38.29641705490347" lon="16.109727686939006"><ele>1008.0</ele><time>2026-04-11T10:32:29Z</time></trkpt><trkpt lat="38.296416237754904" lon="16.109636668298904"><ele>1008.0</ele><time>2026-04-11T10:32:30Z</time></trkpt><trkpt lat="38.29642336067346" lon="16.109525633764818"><ele>1007.5</ele><time>2026-04-11T10:32:31Z</time></trkpt><trkpt lat="38.29640115321058" lon="16.1094457676446"><ele>1007.0</ele><time>2026-04-11T10:32:32Z</time></trkpt><trkpt lat="38.29639388362809" lon="16.10935426760495"><ele>1006.5</ele><time>2026-04-11T10:32:33Z</time></trkpt><trkpt lat="38.29637932168599" lon="16.109242248303023"><ele>1006.0</ele><time>2026-04-11T10:32:34Z</time></trkpt><trkpt lat="38.29637926011351" lon="16.10915021767915"><ele>1005.5</ele><time>2026-04-11T10:32:35Z</time></trkpt><trkpt lat="38.29638874175247" lon="16.109062874766018"><ele>1005.0</ele><time>2026-04-11T10:32:36Z</time></trkpt><trkpt lat="38.29639926892043" lon="16.10893463901306"><ele>1003.8</ele><time>2026-04-11T10:32:38Z</time></trkpt><trkpt lat="38.296501557293304" lon="16.10886773405766"><ele>1002.6</ele><time>2026-04-11T10:32:40Z</time></trkpt><trkpt lat="38.296582116995545" lon="16.108768271565854"><ele>1001.4000000000001</ele><time>2026-04-11T10:32:42Z</time></trkpt><trkpt lat="38.29658203514714" lon="16.108668098219038"><ele>1000.2</ele><time>2026-04-11T10:32:44Z</time></trkpt><trkpt lat="38.29654970457123" lon="16.108578416367465"><ele>999.0</ele><time>2026-04-11T10:32:45Z</time></trkpt><trkpt lat="38.29656286153199" lon="16.10840364556803"><ele>999.0</ele><time>2026-04-11T10:32:47Z</time></trkpt><trkpt lat="38.29660293066178" lon="16.10829860965249"><ele>999.0000000000001</ele><time>2026-04-11T10:32:49Z</time></trkpt><trkpt lat="38.29671748159486" lon="16.108130849894273"><ele>999.0000000000001</ele><time>2026-04-11T10:32:51Z</time></trkpt><trkpt lat="38.296757994918075" lon="16.10801857088995"><ele>999.0</ele><time>2026-04-11T10:32:52Z</time></trkpt><trkpt lat="38.296786598555855" lon="16.107943549188043"><ele>999.0</ele><time>2026-04-11T10:32:53Z</time></trkpt><trkpt lat="38.29680841104621" lon="16.1078579352668"><ele>998.2</ele><time>2026-04-11T10:32:54Z</time></trkpt><trkpt lat="38.29684644495497" lon="16.107712934309244"><ele>997.4000000000001</ele><time>2026-04-11T10:32:56Z</time></trkpt><trkpt lat="38.29688473183681" lon="16.10762642914055"><ele>996.6</ele><time>2026-04-11T10:32:58Z</time></trkpt><trkpt lat="38.296944526006875" lon="16.107559823347405"><ele>995.8</ele><time>2026-04-11T10:33:00Z</time></trkpt><trkpt lat="38.29700642108998" lon="16.107504811838353"><ele>995.0</ele><time>2026-04-11T10:33:01Z</time></trkpt><trkpt lat="38.29703051359842" lon="16.107361072164423"><ele>993.1666666666667</ele><time>2026-04-11T10:33:03Z</time></trkpt><trkpt lat="38.29708495342587" lon="16.107293174915057"><ele>991.3333333333334</ele><time>2026-04-11T10:33:06Z</time></trkpt><trkpt lat="38.297178609817486" lon="16.1072952080666"><ele>989.5</ele><time>2026-04-11T10:33:09Z</time></trkpt><trkpt lat="38.29724823636047" lon="16.107329632617336"><ele>987.6666666666667</ele><time>2026-04-11T10:33:10Z</time></trkpt><trkpt lat="38.29734441148914" lon="16.107309413671487"><ele>985.8333333333334</ele><time>2026-04-11T10:33:11Z</time></trkpt><trkpt lat="38.29742249679439" lon="16.1072966699353"><ele>984.0</ele><time>2026-04-11T10:33:13Z</time></trkpt><trkpt lat="38.297509185417745" lon="16.107253497555217"><ele>982.4000000000001</ele><time>2026-04-11T10:33:15Z</time></trkpt><trkpt lat="38.297573102094645" lon="16.107192170249196"><ele>980.8000000000001</ele><time>2026-04-11T10:33:17Z</time></trkpt><trkpt lat="38.29763580232615" lon="16.107142244119537"><ele>979.1999999999999</ele><time>2026-04-11T10:33:18Z</time></trkpt><trkpt lat="38.297731391896626" lon="16.107088885654104"><ele>977.5999999999999</ele><time>2026-04-11T10:33:19Z</time></trkpt><trkpt lat="38.297827585274305" lon="16.107039270491505"><ele>976.0</ele><time>2026-04-11T10:33:20Z</time></trkpt><trkpt lat="38.29793225610229" lon="16.10703630925713"><ele>975.9999999999999</ele><time>2026-04-11T10:33:21Z</time></trkpt><trkpt lat="38.29799574627894" lon="16.107028074355778"><ele>976.0</ele><time>2026-04-11T10:33:22Z</time></trkpt><trkpt lat="38.29808132240913" lon="16.107075177731463"><ele>976.0</ele><time>2026-04-11T10:33:23Z</time></trkpt><trkpt lat="38.29820901669177" lon="16.107056554165116"><ele>976.0</ele><time>2026-04-11T10:33:25.001Z</time></trkpt><trkpt lat="38.298275409084944" lon="16.107031597395927"><ele>975.9999999999999</ele><time>2026-04-11T10:33:26.001Z</time></trkpt><trkpt lat="38.29829953643054" lon="16.106957154123947"><ele>976.0</ele><time>2026-04-11T10:33:29.001Z</time></trkpt><trkpt lat="38.298313632957324" lon="16.106860603748515"><ele>974.0</ele><time>2026-04-11T10:33:31.999Z</time></trkpt><trkpt lat="38.29828300945409" lon="16.10677585219289"><ele>974.0</ele><time>2026-04-11T10:33:33.999Z</time></trkpt><trkpt lat="38.29822558064079" lon="16.10672315656216"><ele>974.0</ele><time>2026-04-11T10:33:36.999Z</time></trkpt></trkseg><trkseg><trkpt lat="38.29812837643751" lon="16.106967877275228"><ele>974.0</ele><time>2026-04-11T10:56:02Z</time></trkpt><trkpt lat="38.298168030858456" lon="16.107034867338946"><ele>974.0</ele><time>2026-04-11T10:56:05Z</time></trkpt><trkpt lat="38.29823098861487" lon="16.107086753631627"><ele>974.0</ele><time>2026-04-11T10:56:07Z</time></trkpt><trkpt lat="38.29826850409508" lon="16.10716015120742"><ele>974.0</ele><time>2026-04-11T10:56:10Z</time></trkpt><trkpt lat="38.29826139844619" lon="16.10725666906902"><ele>974.0</ele><time>2026-04-11T10:56:12Z</time></trkpt><trkpt lat="38.298227762610345" lon="16.107348093901212"><ele>974.0</ele><time>2026-04-11T10:56:13Z</time></trkpt><trkpt lat="38.29828117204376" lon="16.10742669217945"><ele>974.0</ele><time>2026-04-11T10:56:15Z</time></trkpt><trkpt lat="38.29828961461585" lon="16.10755293373401"><ele>976.2</ele><time>2026-04-11T10:56:17Z</time></trkpt><trkpt lat="38.29826273633985" lon="16.107728098385255"><ele>978.4000000000001</ele><time>2026-04-11T10:56:19Z</time></trkpt><trkpt lat="38.29827039873812" lon="16.10781516049254"><ele>980.6</ele><time>2026-04-11T10:56:20Z</time></trkpt><trkpt lat="38.29830271933245" lon="16.10794388937388"><ele>982.8</ele><time>2026-04-11T10:56:21Z</time></trkpt><trkpt lat="38.2983226067175" lon="16.10805341522513"><ele>985.0</ele><time>2026-04-11T10:56:22Z</time></trkpt><trkpt lat="38.29834682354961" lon="16.108134728285144"><ele>986.0</ele><time>2026-04-11T10:56:23Z</time></trkpt><trkpt lat="38.298353268129404" lon="16.108268986136483"><ele>987.0</ele><time>2026-04-11T10:56:25Z</time></trkpt><trkpt lat="38.29838925639818" lon="16.108377014465066"><ele>988.0</ele><time>2026-04-11T10:56:27Z</time></trkpt><trkpt lat="38.29842310565355" lon="16.108589760028977"><ele>989.0</ele><time>2026-04-11T10:56:29Z</time></trkpt><trkpt lat="38.29841865334638" lon="16.108684386359744"><ele>990.0</ele><time>2026-04-11T10:56:30Z</time></trkpt><trkpt lat="38.2984664445678" lon="16.108788494565864"><ele>990.0</ele><time>2026-04-11T10:56:32Z</time></trkpt><trkpt lat="38.29851597274333" lon="16.108850758671732"><ele>990.0</ele><time>2026-04-11T10:56:33Z</time></trkpt><trkpt lat="38.29858802253224" lon="16.10886608990486"><ele>990.0</ele><time>2026-04-11T10:56:34Z</time></trkpt><trkpt lat="38.298611147602806" lon="16.10895807813482"><ele>990.0</ele><time>2026-04-11T10:56:36Z</time></trkpt><trkpt lat="38.298619048939365" lon="16.109155393362837"><ele>990.0</ele><time>2026-04-11T10:56:38Z</time></trkpt><trkpt lat="38.29861905015583" lon="16.109307794956838"><ele>991.5</ele><time>2026-04-11T10:56:39Z</time></trkpt><trkpt lat="38.29867777489892" lon="16.10950014067558"><ele>993.0</ele><time>2026-04-11T10:56:40Z</time></trkpt><trkpt lat="38.298699725253215" lon="16.109664487019028"><ele>994.5</ele><time>2026-04-11T10:56:41Z</time></trkpt><trkpt lat="38.29872325615769" lon="16.109784331486786"><ele>996.0</ele><time>2026-04-11T10:56:42Z</time></trkpt><trkpt lat="38.298734306018105" lon="16.109875075809484"><ele>997.25</ele><time>2026-04-11T10:56:43Z</time></trkpt><trkpt lat="38.29878002343996" lon="16.110006021820322"><ele>998.5</ele><time>2026-04-11T10:56:45Z</time></trkpt><trkpt lat="38.29880662276808" lon="16.110132329849346"><ele>999.75</ele><time>2026-04-11T10:56:47Z</time></trkpt><trkpt lat="38.298850874981824" lon="16.11029164525724"><ele>1001.0</ele><time>2026-04-11T10:56:49Z</time></trkpt><trkpt lat="38.2988750158287" lon="16.110426254664038"><ele>1001.0</ele><time>2026-04-11T10:56:50Z</time></trkpt><trkpt lat="38.29890825247295" lon="16.110550118206604"><ele>1000.9999999999999</ele><time>2026-04-11T10:56:52Z</time></trkpt><trkpt lat="38.29896682200184" lon="16.110603846731138"><ele>1000.9999999999999</ele><time>2026-04-11T10:56:53Z</time></trkpt><trkpt lat="38.299051134064584" lon="16.110676009932277"><ele>1001.0</ele><time>2026-04-11T10:56:55Z</time></trkpt><trkpt lat="38.29907561305813" lon="16.110804746792436"><ele>1001.0</ele><time>2026-04-11T10:56:57Z</time></trkpt><trkpt lat="38.29909920714517" lon="16.110903576059563"><ele>1000.1999999999999</ele><time>2026-04-11T10:56:58Z</time></trkpt><trkpt lat="38.29912237005003" lon="16.110995916329728"><ele>999.3999999999999</ele><time>2026-04-11T10:56:59Z</time></trkpt><trkpt lat="38.299168412001265" lon="16.11111372044304"><ele>998.6</ele><time>2026-04-11T10:57:00Z</time></trkpt><trkpt lat="38.2991522257802" lon="16.111246710120955"><ele>997.8</ele><time>2026-04-11T10:57:01Z</time></trkpt><trkpt lat="38.29913098984174" lon="16.111369789640822"><ele>997.0</ele><time>2026-04-11T10:57:02Z</time></trkpt><trkpt lat="38.299114993411855" lon="16.111496357654243"><ele>996.9999999999999</ele><time>2026-04-11T10:57:03Z</time></trkpt><trkpt lat="38.29911729649145" lon="16.111596664720174"><ele>997.0</ele><time>2026-04-11T10:57:04Z</time></trkpt><trkpt lat="38.29908219362453" lon="16.1117202709234"><ele>997.0</ele><time>2026-04-11T10:57:06Z</time></trkpt><trkpt lat="38.29902508081592" lon="16.11177018812168"><ele>997.0</ele><time>2026-04-11T10:57:07Z</time></trkpt><trkpt lat="38.29896143860953" lon="16.11181653799749"><ele>996.9999999999999</ele><time>2026-04-11T10:57:08Z</time></trkpt><trkpt lat="38.29893829930473" lon="16.111902125325095"><ele>997.0</ele><time>2026-04-11T10:57:10Z</time></trkpt><trkpt lat="38.29890813018056" lon="16.11200732012856"><ele>996.9999999999999</ele><time>2026-04-11T10:57:12Z</time></trkpt><trkpt lat="38.29889420941713" lon="16.112093995142352"><ele>997.0</ele><time>2026-04-11T10:57:15Z</time></trkpt><trkpt lat="38.29885689062396" lon="16.112170241969302"><ele>997.0</ele><time>2026-04-11T10:57:18Z</time></trkpt><trkpt lat="38.298860147849446" lon="16.112256552048603"><ele>997.0</ele><time>2026-04-11T10:58:11Z</time></trkpt><trkpt lat="38.298937730793234" lon="16.112354882812745"><ele>996.9999999999999</ele><time>2026-04-11T10:58:14Z</time></trkpt><trkpt lat="38.29898598128287" lon="16.11241078061026"><ele>997.0</ele><time>2026-04-11T10:58:15Z</time></trkpt><trkpt lat="38.299029515735576" lon="16.112479268161394"><ele>996.1666666666666</ele><time>2026-04-11T10:58:16Z</time></trkpt><trkpt lat="38.29907385472407" lon="16.112571847676826"><ele>995.3333333333333</ele><time>2026-04-11T10:58:17Z</time></trkpt><trkpt lat="38.29914087502973" lon="16.11264712968574"><ele>994.5</ele><time>2026-04-11T10:58:18Z</time></trkpt><trkpt lat="38.29919848496763" lon="16.112736433661855"><ele>993.6666666666667</ele><time>2026-04-11T10:58:19Z</time></trkpt><trkpt lat="38.299249975428815" lon="16.11282078130622"><ele>992.8333333333334</ele><time>2026-04-11T10:58:20Z</time></trkpt><trkpt lat="38.299307623968225" lon="16.11290223630862"><ele>992.0</ele><time>2026-04-11T10:58:21Z</time></trkpt><trkpt lat="38.299370558709896" lon="16.11298841397396"><ele>992.0000000000001</ele><time>2026-04-11T10:58:22Z</time></trkpt><trkpt lat="38.29942713396287" lon="16.113078247530044"><ele>992.0</ele><time>2026-04-11T10:58:23Z</time></trkpt><trkpt lat="38.29948139015277" lon="16.113160493000642"><ele>992.0</ele><time>2026-04-11T10:58:24Z</time></trkpt><trkpt lat="38.299537365578416" lon="16.1132436608642"><ele>992.0</ele><time>2026-04-11T10:58:25Z</time></trkpt><trkpt lat="38.2995969753978" lon="16.113325461535165"><ele>992.0000000000001</ele><time>2026-04-11T10:58:26Z</time></trkpt><trkpt lat="38.29965310424452" lon="16.113398855174687"><ele>992.0</ele><time>2026-04-11T10:58:27Z</time></trkpt><trkpt lat="38.29970555772313" lon="16.11346506121774"><ele>991.2</ele><time>2026-04-11T10:58:28Z</time></trkpt><trkpt lat="38.29976881966402" lon="16.11354000673275"><ele>990.4000000000001</ele><time>2026-04-11T10:58:29Z</time></trkpt><trkpt lat="38.299841390814805" lon="16.11363838046"><ele>989.5999999999999</ele><time>2026-04-11T10:58:30Z</time></trkpt><trkpt lat="38.29993319800265" lon="16.113739473776942"><ele>988.8</ele><time>2026-04-11T10:58:31Z</time></trkpt><trkpt lat="38.30004788535572" lon="16.11382753622719"><ele>988.0</ele><time>2026-04-11T10:58:32Z</time></trkpt><trkpt lat="38.30018151740681" lon="16.113890100710407"><ele>988.0</ele><time>2026-04-11T10:58:33Z</time></trkpt><trkpt lat="38.30032530108646" lon="16.113898915528093"><ele>988.0</ele><time>2026-04-11T10:58:34Z</time></trkpt><trkpt lat="38.30045781586262" lon="16.113886517341246"><ele>988.0</ele><time>2026-04-11T10:58:35Z</time></trkpt><trkpt lat="38.30058269438744" lon="16.113858823539907"><ele>988.0</ele><time>2026-04-11T10:58:36Z</time></trkpt><trkpt lat="38.300711550202976" lon="16.11382385114775"><ele>988.75</ele><time>2026-04-11T10:58:37Z</time></trkpt><trkpt lat="38.30085517056538" lon="16.113824452748624"><ele>989.5</ele><time>2026-04-11T10:58:38Z</time></trkpt><trkpt lat="38.30099722635243" lon="16.113803857536944"><ele>990.25</ele><time>2026-04-11T10:58:39Z</time></trkpt><trkpt lat="38.30114977623646" lon="16.11378345786726"><ele>991.0</ele><time>2026-04-11T10:58:40Z</time></trkpt><trkpt lat="38.30131613962144" lon="16.113753363793585"><ele>989.0</ele><time>2026-04-11T10:58:41Z</time></trkpt><trkpt lat="38.30147869050417" lon="16.113729656127816"><ele>987.0</ele><time>2026-04-11T10:58:42Z</time></trkpt><trkpt lat="38.301633884031865" lon="16.11370668411512"><ele>985.0</ele><time>2026-04-11T10:58:43Z</time></trkpt><trkpt lat="38.3017936342924" lon="16.113684476605993"><ele>985.0</ele><time>2026-04-11T10:58:44Z</time></trkpt><trkpt lat="38.301956604382156" lon="16.11366389435265"><ele>985.0</ele><time>2026-04-11T10:58:45Z</time></trkpt><trkpt lat="38.3021206934313" lon="16.113641577226847"><ele>985.0</ele><time>2026-04-11T10:58:46Z</time></trkpt><trkpt lat="38.302286517206305" lon="16.113619095278775"><ele>984.3333333333333</ele><time>2026-04-11T10:58:47Z</time></trkpt><trkpt lat="38.302450729109545" lon="16.11360882588888"><ele>983.6666666666667</ele><time>2026-04-11T10:58:48Z</time></trkpt><trkpt lat="38.302609653134134" lon="16.113573013746212"><ele>983.0</ele><time>2026-04-11T10:58:49Z</time></trkpt><trkpt lat="38.302778700719784" lon="16.11354385802194"><ele>983.0</ele><time>2026-04-11T10:58:50Z</time></trkpt><trkpt lat="38.30293636113506" lon="16.113510079111926"><ele>983.0</ele><time>2026-04-11T10:58:51Z</time></trkpt><trkpt lat="38.303080879784254" lon="16.113502373213336"><ele>983.0</ele><time>2026-04-11T10:58:52Z</time></trkpt><trkpt lat="38.30321079658948" lon="16.113492786560386"><ele>983.0</ele><time>2026-04-11T10:58:53Z</time></trkpt><trkpt lat="38.30333569584053" lon="16.11348753558265"><ele>983.25</ele><time>2026-04-11T10:58:54Z</time></trkpt><trkpt lat="38.30345135706332" lon="16.113517620567407"><ele>983.5</ele><time>2026-04-11T10:58:55Z</time></trkpt><trkpt lat="38.30358299316475" lon="16.113575626578907"><ele>983.75</ele><time>2026-04-11T10:58:56Z</time></trkpt><trkpt lat="38.30374054289783" lon="16.113633356239646"><ele>984.0</ele><time>2026-04-11T10:58:57Z</time></trkpt><trkpt lat="38.30388618648998" lon="16.113729203418057"><ele>983.3333333333333</ele><time>2026-04-11T10:58:58Z</time></trkpt><trkpt lat="38.30404551645753" lon="16.113794569704968"><ele>982.6666666666666</ele><time>2026-04-11T10:58:59Z</time></trkpt><trkpt lat="38.30420095660676" lon="16.113856833391235"><ele>982.0</ele><time>2026-04-11T10:59:00Z</time></trkpt><trkpt lat="38.304364443595944" lon="16.113899389762327"><ele>982.0</ele><time>2026-04-11T10:59:01Z</time></trkpt><trkpt lat="38.30451987018147" lon="16.113951427503864"><ele>982.0</ele><time>2026-04-11T10:59:02Z</time></trkpt><trkpt lat="38.30464269066971" lon="16.114012166760354"><ele>982.0</ele><time>2026-04-11T10:59:03Z</time></trkpt><trkpt lat="38.30478064079359" lon="16.11404350220509"><ele>982.0</ele><time>2026-04-11T10:59:04Z</time></trkpt><trkpt lat="38.304883780166605" lon="16.114041191172536"><ele>981.25</ele><time>2026-04-11T10:59:05Z</time></trkpt><trkpt lat="38.30500295997945" lon="16.114035100102182"><ele>980.5</ele><time>2026-04-11T10:59:06Z</time></trkpt><trkpt lat="38.30512241514816" lon="16.113978213470414"><ele>979.75</ele><time>2026-04-11T10:59:07Z</time></trkpt><trkpt lat="38.30526419822395" lon="16.113921781533648"><ele>979.0</ele><time>2026-04-11T10:59:08Z</time></trkpt><trkpt lat="38.30535602629344" lon="16.113838160701917"><ele>979.0</ele><time>2026-04-11T10:59:09Z</time></trkpt><trkpt lat="38.30547774793859" lon="16.113778680145508"><ele>979.0</ele><time>2026-04-11T10:59:10Z</time></trkpt><trkpt lat="38.30558840367744" lon="16.113731638461203"><ele>979.0</ele><time>2026-04-11T10:59:11Z</time></trkpt><trkpt lat="38.30572763104998" lon="16.113681571666145"><ele>979.0</ele><time>2026-04-11T10:59:12Z</time></trkpt><trkpt lat="38.30587927619804" lon="16.113662572099255"><ele>976.0</ele><time>2026-04-11T10:59:13Z</time></trkpt><trkpt lat="38.306039317880504" lon="16.11365064199927"><ele>973.0</ele><time>2026-04-11T10:59:14Z</time></trkpt><trkpt lat="38.30620877922977" lon="16.113630595212047"><ele>970.0</ele><time>2026-04-11T10:59:15Z</time></trkpt><trkpt lat="38.30639642331583" lon="16.113624683119685"><ele>969.0</ele><time>2026-04-11T10:59:16Z</time></trkpt><trkpt lat="38.30659872890773" lon="16.113603815364936"><ele>968.0</ele><time>2026-04-11T10:59:17Z</time></trkpt><trkpt lat="38.30678114552928" lon="16.113590579602235"><ele>967.0</ele><time>2026-04-11T10:59:18Z</time></trkpt><trkpt lat="38.306927875112606" lon="16.113559107307914"><ele>967.0</ele><time>2026-04-11T10:59:19Z</time></trkpt><trkpt lat="38.307049936008994" lon="16.113546973760922"><ele>967.0</ele><time>2026-04-11T10:59:20Z</time></trkpt><trkpt lat="38.30715742957988" lon="16.113575337479727"><ele>967.0</ele><time>2026-04-11T10:59:21Z</time></trkpt><trkpt lat="38.30726042032874" lon="16.113620397893932"><ele>967.0</ele><time>2026-04-11T10:59:22Z</time></trkpt><trkpt lat="38.30734553757617" lon="16.11371713982607"><ele>967.25</ele><time>2026-04-11T10:59:23Z</time></trkpt><trkpt lat="38.30740324841716" lon="16.113865926424673"><ele>967.5</ele><time>2026-04-11T10:59:24Z</time></trkpt><trkpt lat="38.307461691474415" lon="16.11405011739263"><ele>967.75</ele><time>2026-04-11T10:59:25Z</time></trkpt><trkpt lat="38.30753091245321" lon="16.11423226754001"><ele>968.0</ele><time>2026-04-11T10:59:26Z</time></trkpt><trkpt lat="38.3076050682258" lon="16.114406564997736"><ele>968.0</ele><time>2026-04-11T10:59:27Z</time></trkpt><trkpt lat="38.30767155075342" lon="16.114572057543555"><ele>968.0</ele><time>2026-04-11T10:59:28Z</time></trkpt><trkpt lat="38.30772938693698" lon="16.11472927573631"><ele>968.0</ele><time>2026-04-11T10:59:29Z</time></trkpt><trkpt lat="38.30777355136817" lon="16.114883053719836"><ele>968.0</ele><time>2026-04-11T10:59:30Z</time></trkpt><trkpt lat="38.30780809022144" lon="16.11503677139787"><ele>968.4</ele><time>2026-04-11T10:59:31Z</time></trkpt><trkpt lat="38.307836331395684" lon="16.115201272028123"><ele>968.8</ele><time>2026-04-11T10:59:32Z</time></trkpt><trkpt lat="38.307849465483756" lon="16.1153531391176"><ele>969.2</ele><time>2026-04-11T10:59:33Z</time></trkpt><trkpt lat="38.30786221609333" lon="16.115482965585674"><ele>969.6</ele><time>2026-04-11T10:59:34Z</time></trkpt><trkpt lat="38.307878002377095" lon="16.11557722642542"><ele>970.0</ele><time>2026-04-11T10:59:35Z</time></trkpt><trkpt lat="38.30789100427018" lon="16.115687830387696"><ele>969.6666666666666</ele><time>2026-04-11T10:59:37Z</time></trkpt><trkpt lat="38.30785094411316" lon="16.115784109986762"><ele>969.3333333333333</ele><time>2026-04-11T10:59:58Z</time></trkpt><trkpt lat="38.307812066760796" lon="16.115867007294504"><ele>969.0</ele><time>2026-04-11T11:00:00Z</time></trkpt><trkpt lat="38.30775080028275" lon="16.115943289358576"><ele>968.6666666666667</ele><time>2026-04-11T11:00:02Z</time></trkpt><trkpt lat="38.307681101803944" lon="16.116019469568744"><ele>968.3333333333334</ele><time>2026-04-11T11:00:04Z</time></trkpt><trkpt lat="38.30760818950907" lon="16.116116127730105"><ele>968.0</ele><time>2026-04-11T11:00:07.999Z</time></trkpt><trkpt lat="38.30752615321365" lon="16.116226069153086"><ele>968.0</ele><time>2026-04-11T11:00:09.999Z</time></trkpt><trkpt lat="38.30748325316193" lon="16.11628800593577"><ele>968.0</ele><time>2026-04-11T11:00:10.999Z</time></trkpt><trkpt lat="38.30740062181473" lon="16.116379091713902"><ele>968.0</ele><time>2026-04-11T11:00:12.999Z</time></trkpt><trkpt lat="38.307331119387946" lon="16.116456465324575"><ele>968.0</ele><time>2026-04-11T11:00:13.999Z</time></trkpt><trkpt lat="38.307240664793085" lon="16.116541457727894"><ele>968.0</ele><time>2026-04-11T11:00:14.999Z</time></trkpt><trkpt lat="38.30713617613194" lon="16.11664580943121"><ele>970.5</ele><time>2026-04-11T11:00:15.999Z</time></trkpt><trkpt lat="38.307033034236305" lon="16.11673616879917"><ele>973.0</ele><time>2026-04-11T11:00:16.999Z</time></trkpt><trkpt lat="38.306933361875245" lon="16.116809492979034"><ele>975.5</ele><time>2026-04-11T11:00:17.999Z</time></trkpt><trkpt lat="38.30683994528821" lon="16.116885707665286"><ele>978.0</ele><time>2026-04-11T11:00:18.999Z</time></trkpt><trkpt lat="38.30673967916019" lon="16.11695316066356"><ele>978.0</ele><time>2026-04-11T11:00:19.999Z</time></trkpt><trkpt lat="38.30663095454418" lon="16.116936980549482"><ele>978.0</ele><time>2026-04-11T11:00:20.999Z</time></trkpt><trkpt lat="38.306551157345766" lon="16.116989210057334"><ele>978.0</ele><time>2026-04-11T11:00:21.999Z</time></trkpt><trkpt lat="38.30647250130871" lon="16.117036571715374"><ele>978.0</ele><time>2026-04-11T11:00:22.999Z</time></trkpt><trkpt lat="38.306395088521704" lon="16.117082336983326"><ele>978.0</ele><time>2026-04-11T11:00:23.999Z</time></trkpt><trkpt lat="38.306309541415" lon="16.117128663051847"><ele>980.0</ele><time>2026-04-11T11:00:24.999Z</time></trkpt><trkpt lat="38.30622608720886" lon="16.1171743427507"><ele>982.0</ele><time>2026-04-11T11:00:25.999Z</time></trkpt><trkpt lat="38.306127069318876" lon="16.117228541402472"><ele>984.0</ele><time>2026-04-11T11:00:26.999Z</time></trkpt><trkpt lat="38.30603202287805" lon="16.11728121489284"><ele>986.0</ele><time>2026-04-11T11:00:27.999Z</time></trkpt><trkpt lat="38.30594614771448" lon="16.1173299895296"><ele>988.0</ele><time>2026-04-11T11:00:28.999Z</time></trkpt><trkpt lat="38.30586767414271" lon="16.11737456029398"><ele>988.0</ele><time>2026-04-11T11:00:29.999Z</time></trkpt><trkpt lat="38.30579450593328" lon="16.11741611775862"><ele>988.0</ele><time>2026-04-11T11:00:30.999Z</time></trkpt><trkpt lat="38.305696984634594" lon="16.11746933064786"><ele>988.0</ele><time>2026-04-11T11:00:32.999Z</time></trkpt><trkpt lat="38.305617222226594" lon="16.11752653442711"><ele>988.0</ele><time>2026-04-11T11:00:35Z</time></trkpt><trkpt lat="38.305697604068286" lon="16.118152448111122"><ele>988.0</ele><time>2026-04-11T11:00:37Z</time></trkpt><trkpt lat="38.30561003692553" lon="16.118264247170995"><ele>988.0</ele><time>2026-04-11T11:00:39Z</time></trkpt><trkpt lat="38.30551872532357" lon="16.118367403671297"><ele>988.0</ele><time>2026-04-11T11:00:41Z</time></trkpt><trkpt lat="38.305464881308524" lon="16.118444861757624"><ele>988.0</ele><time>2026-04-11T11:00:42Z</time></trkpt><trkpt lat="38.30542448118334" lon="16.11852817756032"><ele>988.0</ele><time>2026-04-11T11:00:43Z</time></trkpt><trkpt lat="38.305402763375845" lon="16.118608241813924"><ele>987.8571428571429</ele><time>2026-04-11T11:00:44Z</time></trkpt><trkpt lat="38.305389480985795" lon="16.1187050972162"><ele>987.7142857142857</ele><time>2026-04-11T11:00:46Z</time></trkpt><trkpt lat="38.30538017416971" lon="16.118795238317155"><ele>987.5714285714286</ele><time>2026-04-11T11:00:49Z</time></trkpt><trkpt lat="38.305346676418544" lon="16.118880495400983"><ele>987.4285714285714</ele><time>2026-04-11T11:00:51Z</time></trkpt><trkpt lat="38.30532747880119" lon="16.118968449317865"><ele>987.2857142857142</ele><time>2026-04-11T11:00:55Z</time></trkpt><trkpt lat="38.305285058758365" lon="16.119033888170783"><ele>987.1428571428571</ele><time>2026-04-11T11:00:57Z</time></trkpt><trkpt lat="38.30524214914064" lon="16.11910411526898"><ele>987.0</ele><time>2026-04-11T11:01:00Z</time></trkpt><trkpt lat="38.30519339581999" lon="16.119183880201014"><ele>987.4000000000001</ele><time>2026-04-11T11:01:03Z</time></trkpt><trkpt lat="38.30514784748775" lon="16.11926677917275"><ele>987.8000000000001</ele><time>2026-04-11T11:01:06Z</time></trkpt><trkpt lat="38.30519406479474" lon="16.119387851557793"><ele>988.2</ele><time>2026-04-11T11:01:08Z</time></trkpt><trkpt lat="38.30525206949802" lon="16.11947320928451"><ele>988.6</ele><time>2026-04-11T11:01:09Z</time></trkpt><trkpt lat="38.305296292379786" lon="16.11960473605835"><ele>989.0</ele><time>2026-04-11T11:01:11Z</time></trkpt><trkpt lat="38.30533541498739" lon="16.119729028547013"><ele>989.0</ele><time>2026-04-11T11:01:13Z</time></trkpt><trkpt lat="38.30528034686419" lon="16.119829987214608"><ele>989.0000000000001</ele><time>2026-04-11T11:01:15Z</time></trkpt><trkpt lat="38.30531442768299" lon="16.119910919742672"><ele>989.0000000000001</ele><time>2026-04-11T11:01:17Z</time></trkpt><trkpt lat="38.305384334740545" lon="16.119994884324257"><ele>989.0</ele><time>2026-04-11T11:01:18Z</time></trkpt><trkpt lat="38.30546442817984" lon="16.120096703559852"><ele>989.0</ele><time>2026-04-11T11:01:19Z</time></trkpt><trkpt lat="38.30554031869859" lon="16.1202201158424"><ele>989.2</ele><time>2026-04-11T11:01:20Z</time></trkpt><trkpt lat="38.30560401344501" lon="16.120305710508244"><ele>989.4000000000001</ele><time>2026-04-11T11:01:21Z</time></trkpt><trkpt lat="38.30566439344426" lon="16.120403927409054"><ele>989.6</ele><time>2026-04-11T11:01:22Z</time></trkpt><trkpt lat="38.30572627270021" lon="16.120502138934707"><ele>989.8</ele><time>2026-04-11T11:01:23Z</time></trkpt><trkpt lat="38.30580065767996" lon="16.12061255055094"><ele>990.0</ele><time>2026-04-11T11:01:24Z</time></trkpt><trkpt lat="38.30586334352184" lon="16.120730090571517"><ele>990.0</ele><time>2026-04-11T11:01:25Z</time></trkpt><trkpt lat="38.305917520651505" lon="16.120861007112932"><ele>990.0</ele><time>2026-04-11T11:01:26Z</time></trkpt><trkpt lat="38.30598795634231" lon="16.12097937906492"><ele>990.0</ele><time>2026-04-11T11:01:27Z</time></trkpt><trkpt lat="38.30605477484203" lon="16.121064409544342"><ele>990.0</ele><time>2026-04-11T11:01:28Z</time></trkpt><trkpt lat="38.306097357030524" lon="16.121146928493324"><ele>990.0</ele><time>2026-04-11T11:01:29Z</time></trkpt><trkpt lat="38.3061394406204" lon="16.12124593882722"><ele>990.0</ele><time>2026-04-11T11:01:30Z</time></trkpt><trkpt lat="38.30618030749686" lon="16.121309855579597"><ele>990.0</ele><time>2026-04-11T11:01:31Z</time></trkpt><trkpt lat="38.30629961991599" lon="16.121397432941542"><ele>990.0</ele><time>2026-04-11T11:01:33Z</time></trkpt><trkpt lat="38.306370202697416" lon="16.121455681064187"><ele>990.0</ele><time>2026-04-11T11:01:34Z</time></trkpt><trkpt lat="38.306480154294306" lon="16.12156063240258"><ele>990.0</ele><time>2026-04-11T11:01:36Z</time></trkpt><trkpt lat="38.30651178487963" lon="16.121655710280336"><ele>989.6666666666666</ele><time>2026-04-11T11:01:37Z</time></trkpt><trkpt lat="38.306522521577904" lon="16.121766176042332"><ele>989.3333333333333</ele><time>2026-04-11T11:01:38Z</time></trkpt><trkpt lat="38.30655953312296" lon="16.12186019806742"><ele>989.0</ele><time>2026-04-11T11:01:39Z</time></trkpt><trkpt lat="38.306621638112055" lon="16.12194536074988"><ele>988.6666666666666</ele><time>2026-04-11T11:01:40Z</time></trkpt><trkpt lat="38.306687348310184" lon="16.122007107655747"><ele>988.3333333333333</ele><time>2026-04-11T11:01:41Z</time></trkpt><trkpt lat="38.30676302944937" lon="16.122074902709233"><ele>988.0</ele><time>2026-04-11T11:01:42Z</time></trkpt><trkpt lat="38.306834185183604" lon="16.122139272102544"><ele>987.9999999999999</ele><time>2026-04-11T11:01:43Z</time></trkpt><trkpt lat="38.30689325868153" lon="16.12219320792307"><ele>988.0</ele><time>2026-04-11T11:01:44Z</time></trkpt><trkpt lat="38.30696722388816" lon="16.12227853788154"><ele>988.0</ele><time>2026-04-11T11:01:46Z</time></trkpt><trkpt lat="38.30696126963454" lon="16.12238163697188"><ele>988.0</ele><time>2026-04-11T11:01:48Z</time></trkpt><trkpt lat="38.30693145102798" lon="16.122453369278727"><ele>987.9999999999999</ele><time>2026-04-11T11:01:49Z</time></trkpt><trkpt lat="38.30690650362751" lon="16.122546590880148"><ele>988.0</ele><time>2026-04-11T11:01:51Z</time></trkpt><trkpt lat="38.30696465089934" lon="16.122605143976894"><ele>988.1666666666666</ele><time>2026-04-11T11:01:54Z</time></trkpt><trkpt lat="38.307040461684686" lon="16.122632307559538"><ele>988.3333333333333</ele><time>2026-04-11T11:01:57Z</time></trkpt><trkpt lat="38.3070936319875" lon="16.12270666533897"><ele>988.5</ele><time>2026-04-11T11:02:20.999Z</time></trkpt><trkpt lat="38.30716401321707" lon="16.122767475508326"><ele>988.6666666666667</ele><time>2026-04-11T11:02:22.999Z</time></trkpt><trkpt lat="38.307228218715096" lon="16.12280924919831"><ele>988.8333333333334</ele><time>2026-04-11T11:02:24.999Z</time></trkpt><trkpt lat="38.30730974954396" lon="16.12280512021346"><ele>989.0</ele><time>2026-04-11T11:02:26.999Z</time></trkpt><trkpt lat="38.30738378187188" lon="16.122862578973542"><ele>989.2</ele><time>2026-04-11T11:02:31Z</time></trkpt><trkpt lat="38.307454614988046" lon="16.122883812820625"><ele>989.4000000000001</ele><time>2026-04-11T11:02:33Z</time></trkpt><trkpt lat="38.307562345204644" lon="16.122969905510708"><ele>989.6</ele><time>2026-04-11T11:02:35Z</time></trkpt><trkpt lat="38.307615372843635" lon="16.123020574707507"><ele>989.8</ele><time>2026-04-11T11:02:36Z</time></trkpt><trkpt lat="38.30770857272952" lon="16.123110403160887"><ele>990.0</ele><time>2026-04-11T11:02:38Z</time></trkpt><trkpt lat="38.307798508183375" lon="16.123217864145484"><ele>989.5</ele><time>2026-04-11T11:02:40Z</time></trkpt><trkpt lat="38.307880336094925" lon="16.123287324415365"><ele>989.0</ele><time>2026-04-11T11:02:42Z</time></trkpt><trkpt lat="38.30794731276854" lon="16.123324846535933"><ele>988.5</ele><time>2026-04-11T11:02:44Z</time></trkpt><trkpt lat="38.30801975866568" lon="16.123322005158503"><ele>988.0</ele><time>2026-04-11T11:02:46Z</time></trkpt><trkpt lat="38.30813972173716" lon="16.123364098826375"><ele>987.5</ele><time>2026-04-11T11:02:48Z</time></trkpt><trkpt lat="38.30820206741243" lon="16.123388050570032"><ele>987.0</ele><time>2026-04-11T11:02:49Z</time></trkpt><trkpt lat="38.3082926312225" lon="16.123421980780876"><ele>985.2</ele><time>2026-04-11T11:02:51Z</time></trkpt><trkpt lat="38.30838681744136" lon="16.123428166649727"><ele>983.4000000000001</ele><time>2026-04-11T11:02:53Z</time></trkpt><trkpt lat="38.308489510879824" lon="16.123388208495943"><ele>981.5999999999999</ele><time>2026-04-11T11:02:55Z</time></trkpt><trkpt lat="38.308553406629535" lon="16.12340089692287"><ele>979.8</ele><time>2026-04-11T11:02:56Z</time></trkpt><trkpt lat="38.308654365383326" lon="16.123376669995377"><ele>978.0</ele><time>2026-04-11T11:02:58Z</time></trkpt><trkpt lat="38.308738956453894" lon="16.12342071602234"><ele>978.0</ele><time>2026-04-11T11:03:01Z</time></trkpt><trkpt lat="38.308808201471614" lon="16.123494758774207"><ele>978.0</ele><time>2026-04-11T11:03:02Z</time></trkpt><trkpt lat="38.30889554324162" lon="16.123558635533694"><ele>978.0</ele><time>2026-04-11T11:03:03Z</time></trkpt><trkpt lat="38.308955758772925" lon="16.123631401588536"><ele>978.0</ele><time>2026-04-11T11:03:04Z</time></trkpt><trkpt lat="38.30904341376981" lon="16.123701728737228"><ele>978.0</ele><time>2026-04-11T11:03:05Z</time></trkpt><trkpt lat="38.30909913036374" lon="16.123775353329435"><ele>976.1666666666666</ele><time>2026-04-11T11:03:06Z</time></trkpt><trkpt lat="38.30913812349904" lon="16.123838753907062"><ele>974.3333333333333</ele><time>2026-04-11T11:03:07Z</time></trkpt><trkpt lat="38.30924201467089" lon="16.123873221405603"><ele>972.5</ele><time>2026-04-11T11:03:09Z</time></trkpt><trkpt lat="38.3093287179935" lon="16.123926028474"><ele>970.6666666666666</ele><time>2026-04-11T11:03:11Z</time></trkpt><trkpt lat="38.30939918253153" lon="16.12396213356551"><ele>968.8333333333333</ele><time>2026-04-11T11:03:13Z</time></trkpt><trkpt lat="38.30948581857495" lon="16.124011280012628"><ele>967.0</ele><time>2026-04-11T11:03:15Z</time></trkpt><trkpt lat="38.30954997182756" lon="16.12397485936051"><ele>966.9999999999999</ele><time>2026-04-11T11:03:18Z</time></trkpt><trkpt lat="38.30961664738779" lon="16.123994624987816"><ele>967.0</ele><time>2026-04-11T11:03:20Z</time></trkpt><trkpt lat="38.309648921170094" lon="16.124099646743012"><ele>967.0</ele><time>2026-04-11T11:03:22Z</time></trkpt><trkpt lat="38.30972070679544" lon="16.12414647232798"><ele>967.0</ele><time>2026-04-11T11:03:24Z</time></trkpt><trkpt lat="38.30979101186326" lon="16.12414808986932"><ele>966.9999999999999</ele><time>2026-04-11T11:03:27Z</time></trkpt><trkpt lat="38.309843318138746" lon="16.124210307464676"><ele>967.0</ele><time>2026-04-11T11:03:28Z</time></trkpt><trkpt lat="38.30983070099831" lon="16.12431353711835"><ele>965.9999999999999</ele><time>2026-04-11T11:03:30Z</time></trkpt><trkpt lat="38.30990548985209" lon="16.12436105012153"><ele>965.0</ele><time>2026-04-11T11:03:31Z</time></trkpt><trkpt lat="38.309968390438634" lon="16.124379652989717"><ele>964.0</ele><time>2026-04-11T11:03:32Z</time></trkpt><trkpt lat="38.310062092626055" lon="16.12431611459499"><ele>963.0</ele><time>2026-04-11T11:03:34Z</time></trkpt><trkpt lat="38.31015004792187" lon="16.124319177929422"><ele>961.9999999999999</ele><time>2026-04-11T11:03:35Z</time></trkpt><trkpt lat="38.310224364739824" lon="16.12436137546665"><ele>961.0</ele><time>2026-04-11T11:03:36Z</time></trkpt><trkpt lat="38.310294034126436" lon="16.12436880947309"><ele>960.9999999999999</ele><time>2026-04-11T11:03:37Z</time></trkpt><trkpt lat="38.3103588292471" lon="16.124444094426927"><ele>961.0</ele><time>2026-04-11T11:03:39Z</time></trkpt><trkpt lat="38.310386400824704" lon="16.124560721202744"><ele>961.0</ele><time>2026-04-11T11:03:42Z</time></trkpt><trkpt lat="38.3104089629605" lon="16.12467305312727"><ele>961.0</ele><time>2026-04-11T11:03:44Z</time></trkpt><trkpt lat="38.31037862466306" lon="16.124768772917044"><ele>960.9999999999999</ele><time>2026-04-11T11:03:47Z</time></trkpt><trkpt lat="38.31046247529732" lon="16.12479549240677"><ele>961.0</ele><time>2026-04-11T11:03:50Z</time></trkpt><trkpt lat="38.31045806980669" lon="16.12499280099926"><ele>960.5999999999999</ele><time>2026-04-11T11:03:52Z</time></trkpt><trkpt lat="38.31042138473595" lon="16.125132234920702"><ele>960.1999999999999</ele><time>2026-04-11T11:03:53Z</time></trkpt><trkpt lat="38.310434629854896" lon="16.125245481918043"><ele>959.8000000000001</ele><time>2026-04-11T11:03:54Z</time></trkpt><trkpt lat="38.31040717691548" lon="16.12534541970276"><ele>959.4000000000001</ele><time>2026-04-11T11:03:55Z</time></trkpt><trkpt lat="38.31040448414199" lon="16.12546104614309"><ele>959.0</ele><time>2026-04-11T11:03:56Z</time></trkpt><trkpt lat="38.310455639123575" lon="16.125590889131583"><ele>959.0</ele><time>2026-04-11T11:03:57.001Z</time></trkpt><trkpt lat="38.310494233530726" lon="16.125679071531355"><ele>959.0000000000001</ele><time>2026-04-11T11:03:59.001Z</time></trkpt><trkpt lat="38.310467193688744" lon="16.12577766206749"><ele>959.0000000000001</ele><time>2026-04-11T11:04:02.001Z</time></trkpt><trkpt lat="38.31061350026882" lon="16.125888186193166"><ele>959.0</ele><time>2026-04-11T11:04:04.001Z</time></trkpt><trkpt lat="38.31071768467258" lon="16.12595020397064"><ele>959.0</ele><time>2026-04-11T11:04:05.001Z</time></trkpt><trkpt lat="38.310818848183075" lon="16.126024344979303"><ele>957.8000000000001</ele><time>2026-04-11T11:04:06.001Z</time></trkpt><trkpt lat="38.310898124287725" lon="16.12608130981878"><ele>956.6000000000001</ele><time>2026-04-11T11:04:07.001Z</time></trkpt><trkpt lat="38.31093715332895" lon="16.126151101563348"><ele>955.4</ele><time>2026-04-11T11:04:08.001Z</time></trkpt><trkpt lat="38.31105779356571" lon="16.126231939896233"><ele>954.2</ele><time>2026-04-11T11:04:09.001Z</time></trkpt><trkpt lat="38.311184678219064" lon="16.126328788079817"><ele>953.0</ele><time>2026-04-11T11:04:10.001Z</time></trkpt><trkpt lat="38.31128171420907" lon="16.12641508333519"><ele>953.0</ele><time>2026-04-11T11:04:11.001Z</time></trkpt><trkpt lat="38.31138348528829" lon="16.12648741489576"><ele>953.0</ele><time>2026-04-11T11:04:12.001Z</time></trkpt><trkpt lat="38.311489412876846" lon="16.126547896578554"><ele>953.0</ele><time>2026-04-11T11:04:13.001Z</time></trkpt><trkpt lat="38.311583372180365" lon="16.12662604616176"><ele>953.0</ele><time>2026-04-11T11:04:14.001Z</time></trkpt><trkpt lat="38.311679308943894" lon="16.126701669487424"><ele>952.25</ele><time>2026-04-11T11:04:15.001Z</time></trkpt><trkpt lat="38.311772286567326" lon="16.126776710677856"><ele>951.5</ele><time>2026-04-11T11:04:16.001Z</time></trkpt><trkpt lat="38.31186901307634" lon="16.126853654418763"><ele>950.75</ele><time>2026-04-11T11:04:16.999Z</time></trkpt><trkpt lat="38.31196593985136" lon="16.126930660875"><ele>950.0</ele><time>2026-04-11T11:04:17.999Z</time></trkpt><trkpt lat="38.31206851118577" lon="16.127013853011036"><ele>950.0</ele><time>2026-04-11T11:04:18.999Z</time></trkpt><trkpt lat="38.31216194016609" lon="16.127110674686932"><ele>950.0</ele><time>2026-04-11T11:04:19.999Z</time></trkpt><trkpt lat="38.31224366164291" lon="16.127212947487237"><ele>950.0</ele><time>2026-04-11T11:04:20.999Z</time></trkpt><trkpt lat="38.3123217800405" lon="16.12730690801606"><ele>950.0</ele><time>2026-04-11T11:04:22Z</time></trkpt><trkpt lat="38.312406332018696" lon="16.127375120422112"><ele>950.0</ele><time>2026-04-11T11:04:23Z</time></trkpt><trkpt lat="38.31248950418203" lon="16.127427055449207"><ele>950.0</ele><time>2026-04-11T11:04:24Z</time></trkpt><trkpt lat="38.31254944269078" lon="16.127481832530318"><ele>950.0</ele><time>2026-04-11T11:04:25Z</time></trkpt><trkpt lat="38.31260810366266" lon="16.127558223354523"><ele>950.0</ele><time>2026-04-11T11:04:26Z</time></trkpt><trkpt lat="38.31266515292451" lon="16.127680613566415"><ele>950.0</ele><time>2026-04-11T11:04:28Z</time></trkpt><trkpt lat="38.31270395072699" lon="16.12776037938388"><ele>950.0</ele><time>2026-04-11T11:04:35Z</time></trkpt><trkpt lat="38.31280358337438" lon="16.12767899654273"><ele>950.0000000000001</ele><time>2026-04-11T11:04:56Z</time></trkpt><trkpt lat="38.312852836341754" lon="16.127589591758223"><ele>950.0</ele><time>2026-04-11T11:04:57Z</time></trkpt><trkpt lat="38.31289811359881" lon="16.12748100251146"><ele>950.0</ele><time>2026-04-11T11:04:58Z</time></trkpt><trkpt lat="38.31294387879743" lon="16.12736799178577"><ele>950.0</ele><time>2026-04-11T11:04:59Z</time></trkpt><trkpt lat="38.3129742408016" lon="16.127278676585128"><ele>950.0000000000001</ele><time>2026-04-11T11:05:00Z</time></trkpt><trkpt lat="38.31300719789843" lon="16.12720473171908"><ele>950.0</ele><time>2026-04-11T11:05:01Z</time></trkpt><trkpt lat="38.31308914302747" lon="16.127125641960173"><ele>949.0000000000001</ele><time>2026-04-11T11:05:03Z</time></trkpt><trkpt lat="38.313152772840375" lon="16.127106076121013"><ele>948.0</ele><time>2026-04-11T11:05:05Z</time></trkpt><trkpt lat="38.31319923021889" lon="16.127161617844468"><ele>947.0</ele><time>2026-04-11T11:05:08Z</time></trkpt><trkpt lat="38.313288231234594" lon="16.12722525288632"><ele>946.0</ele><time>2026-04-11T11:05:59.001Z</time></trkpt><trkpt lat="38.31336456463696" lon="16.127266405823736"><ele>945.0000000000001</ele><time>2026-04-11T11:06:00.001Z</time></trkpt><trkpt lat="38.31344877345523" lon="16.127314065564462"><ele>944.0</ele><time>2026-04-11T11:06:01.001Z</time></trkpt><trkpt lat="38.31355047054348" lon="16.12737691700592"><ele>943.75</ele><time>2026-04-11T11:06:02.001Z</time></trkpt><trkpt lat="38.31364269491458" lon="16.127439255846777"><ele>943.5</ele><time>2026-04-11T11:06:03.001Z</time></trkpt><trkpt lat="38.31373651853345" lon="16.127507928663064"><ele>943.25</ele><time>2026-04-11T11:06:04.001Z</time></trkpt><trkpt lat="38.31384304816702" lon="16.127583582354898"><ele>943.0</ele><time>2026-04-11T11:06:05.001Z</time></trkpt><trkpt lat="38.313950392497865" lon="16.12765023971527"><ele>943.0</ele><time>2026-04-11T11:06:06.001Z</time></trkpt><trkpt lat="38.31405543281722" lon="16.127714851045383"><ele>943.0</ele><time>2026-04-11T11:06:07.001Z</time></trkpt><trkpt lat="38.314166008958004" lon="16.127788379171488"><ele>943.0</ele><time>2026-04-11T11:06:08.001Z</time></trkpt><trkpt lat="38.314286265082515" lon="16.12786370689851"><ele>943.0</ele><time>2026-04-11T11:06:09.001Z</time></trkpt><trkpt lat="38.314410837780855" lon="16.127945194601278"><ele>943.0</ele><time>2026-04-11T11:06:10.001Z</time></trkpt><trkpt lat="38.31454758428989" lon="16.128036215058405"><ele>943.0</ele><time>2026-04-11T11:06:11.001Z</time></trkpt><trkpt lat="38.31469001639307" lon="16.12813350808273"><ele>943.0</ele><time>2026-04-11T11:06:12.001Z</time></trkpt><trkpt lat="38.314837963060256" lon="16.128224390590642"><ele>943.0</ele><time>2026-04-11T11:06:13.001Z</time></trkpt><trkpt lat="38.31499147654818" lon="16.128321690329933"><ele>943.0</ele><time>2026-04-11T11:06:14.001Z</time></trkpt><trkpt lat="38.315149955094924" lon="16.128419924121562"><ele>943.0</ele><time>2026-04-11T11:06:15.001Z</time></trkpt><trkpt lat="38.315307006381836" lon="16.128521613807187"><ele>943.0</ele><time>2026-04-11T11:06:16.001Z</time></trkpt><trkpt lat="38.315467103352304" lon="16.128635007432965"><ele>943.0</ele><time>2026-04-11T11:06:17.001Z</time></trkpt><trkpt lat="38.315628381520895" lon="16.128744499622304"><ele>943.0</ele><time>2026-04-11T11:06:18.001Z</time></trkpt><trkpt lat="38.31595581910989" lon="16.128941337852837"><ele>943.0</ele><time>2026-04-11T11:06:20.001Z</time></trkpt><trkpt lat="38.316126617054486" lon="16.12905095054627"><ele>943.0</ele><time>2026-04-11T11:06:21.001Z</time></trkpt><trkpt lat="38.316315779108535" lon="16.129167081833582"><ele>943.0</ele><time>2026-04-11T11:06:22.001Z</time></trkpt><trkpt lat="38.31651068287427" lon="16.12928955747954"><ele>943.0</ele><time>2026-04-11T11:06:23Z</time></trkpt><trkpt lat="38.31669952340248" lon="16.129424348525177"><ele>943.0</ele><time>2026-04-11T11:06:24Z</time></trkpt><trkpt lat="38.31687203886595" lon="16.129548522267807"><ele>943.0</ele><time>2026-04-11T11:06:25Z</time></trkpt><trkpt lat="38.31704181921934" lon="16.12965818141739"><ele>943.0</ele><time>2026-04-11T11:06:26Z</time></trkpt><trkpt lat="38.31721035111141" lon="16.129740292009323"><ele>943.0</ele><time>2026-04-11T11:06:27Z</time></trkpt><trkpt lat="38.317377645243745" lon="16.129837700434656"><ele>943.0</ele><time>2026-04-11T11:06:28Z</time></trkpt><trkpt lat="38.31754962816839" lon="16.12994391350507"><ele>942.3333333333333</ele><time>2026-04-11T11:06:29Z</time></trkpt><trkpt lat="38.31772733355407" lon="16.130052421715053"><ele>941.6666666666667</ele><time>2026-04-11T11:06:30Z</time></trkpt><trkpt lat="38.317906023031" lon="16.130168489940836"><ele>941.0</ele><time>2026-04-11T11:06:31Z</time></trkpt><trkpt lat="38.318086558364094" lon="16.130298220481404"><ele>940.3333333333334</ele><time>2026-04-11T11:06:32Z</time></trkpt><trkpt lat="38.318278035414984" lon="16.130425904183987"><ele>939.6666666666667</ele><time>2026-04-11T11:06:33Z</time></trkpt><trkpt lat="38.31847704365881" lon="16.13055792042367"><ele>939.0</ele><time>2026-04-11T11:06:34Z</time></trkpt><trkpt lat="38.31868063792076" lon="16.130675001540247"><ele>941.0</ele><time>2026-04-11T11:06:35Z</time></trkpt><trkpt lat="38.318881129283874" lon="16.130802624840804"><ele>943.0</ele><time>2026-04-11T11:06:36Z</time></trkpt><trkpt lat="38.319075435026974" lon="16.130957904358013"><ele>943.0</ele><time>2026-04-11T11:06:37Z</time></trkpt><trkpt lat="38.31927730172638" lon="16.131081135268627"><ele>943.0</ele><time>2026-04-11T11:06:38Z</time></trkpt><trkpt lat="38.3194744619935" lon="16.13120971804343"><ele>943.0</ele><time>2026-04-11T11:06:39Z</time></trkpt><trkpt lat="38.319670565366366" lon="16.13134720128315"><ele>943.6666666666666</ele><time>2026-04-11T11:06:40Z</time></trkpt><trkpt lat="38.31986441503044" lon="16.131467335462393"><ele>944.3333333333333</ele><time>2026-04-11T11:06:41Z</time></trkpt><trkpt lat="38.32005392703781" lon="16.131584355491242"><ele>945.0</ele><time>2026-04-11T11:06:42Z</time></trkpt><trkpt lat="38.3202417901136" lon="16.131715507230663"><ele>945.3333333333333</ele><time>2026-04-11T11:06:43Z</time></trkpt><trkpt lat="38.32042729332173" lon="16.131833461658214"><ele>945.6666666666666</ele><time>2026-04-11T11:06:44Z</time></trkpt><trkpt lat="38.3206233561395" lon="16.131946902911153"><ele>946.0</ele><time>2026-04-11T11:06:45Z</time></trkpt><trkpt lat="38.320777279838765" lon="16.132057757147948"><ele>947.0</ele><time>2026-04-11T11:06:46Z</time></trkpt><trkpt lat="38.320944042007305" lon="16.13217810141937"><ele>948.0</ele><time>2026-04-11T11:06:47Z</time></trkpt><trkpt lat="38.32110392056874" lon="16.13227872313443"><ele>949.0</ele><time>2026-04-11T11:06:48Z</time></trkpt><trkpt lat="38.321257253131776" lon="16.132370271654487"><ele>947.3333333333333</ele><time>2026-04-11T11:06:49Z</time></trkpt><trkpt lat="38.321410422325656" lon="16.132464293783944"><ele>945.6666666666667</ele><time>2026-04-11T11:06:50Z</time></trkpt><trkpt lat="38.32156730474733" lon="16.132567867846387"><ele>944.0</ele><time>2026-04-11T11:06:51Z</time></trkpt><trkpt lat="38.3217284698141" lon="16.132680775402395"><ele>944.0</ele><time>2026-04-11T11:06:52Z</time></trkpt><trkpt lat="38.32189290397125" lon="16.132792589512036"><ele>944.0</ele><time>2026-04-11T11:06:53Z</time></trkpt><trkpt lat="38.322065363479055" lon="16.13290333046789"><ele>944.0</ele><time>2026-04-11T11:06:54Z</time></trkpt><trkpt lat="38.32223950621531" lon="16.133016632247095"><ele>944.3333333333334</ele><time>2026-04-11T11:06:55Z</time></trkpt><trkpt lat="38.32241736052346" lon="16.133136532542398"><ele>944.6666666666667</ele><time>2026-04-11T11:06:56Z</time></trkpt><trkpt lat="38.322599617757476" lon="16.133257087618986"><ele>945.0</ele><time>2026-04-11T11:06:57Z</time></trkpt><trkpt lat="38.32278437249833" lon="16.13337795537677"><ele>945.0</ele><time>2026-04-11T11:06:58Z</time></trkpt><trkpt lat="38.32295814952108" lon="16.13349285571122"><ele>945.0</ele><time>2026-04-11T11:06:59Z</time></trkpt><trkpt lat="38.32312428057235" lon="16.133608003964234"><ele>945.0</ele><time>2026-04-11T11:07:00Z</time></trkpt><trkpt lat="38.32329679228241" lon="16.13371794209745"><ele>945.3333333333333</ele><time>2026-04-11T11:07:01Z</time></trkpt><trkpt lat="38.32346655871112" lon="16.133829387363818"><ele>945.6666666666666</ele><time>2026-04-11T11:07:02Z</time></trkpt><trkpt lat="38.32363368572987" lon="16.13392643215113"><ele>946.0</ele><time>2026-04-11T11:07:03Z</time></trkpt><trkpt lat="38.323805444044076" lon="16.134042201531624"><ele>946.3333333333333</ele><time>2026-04-11T11:07:04Z</time></trkpt><trkpt lat="38.323971704823876" lon="16.13415934361178"><ele>946.6666666666667</ele><time>2026-04-11T11:07:05Z</time></trkpt><trkpt lat="38.324136748473556" lon="16.134275544543417"><ele>947.0</ele><time>2026-04-11T11:07:06Z</time></trkpt><trkpt lat="38.32430907839618" lon="16.13438131806381"><ele>947.0</ele><time>2026-04-11T11:07:07Z</time></trkpt><trkpt lat="38.32447596675344" lon="16.13449504938278"><ele>947.0</ele><time>2026-04-11T11:07:08Z</time></trkpt><trkpt lat="38.324645782247636" lon="16.134619036714497"><ele>947.0</ele><time>2026-04-11T11:07:09Z</time></trkpt><trkpt lat="38.32482965726689" lon="16.134741605355718"><ele>948.5</ele><time>2026-04-11T11:07:10Z</time></trkpt><trkpt lat="38.3250244492301" lon="16.134867625276115"><ele>950.0</ele><time>2026-04-11T11:07:11Z</time></trkpt><trkpt lat="38.32522770776243" lon="16.13501263402534"><ele>950.5</ele><time>2026-04-11T11:07:12Z</time></trkpt><trkpt lat="38.325432312667566" lon="16.13514658900847"><ele>951.0</ele><time>2026-04-11T11:07:13Z</time></trkpt><trkpt lat="38.325642816915845" lon="16.135294726725522"><ele>951.0</ele><time>2026-04-11T11:07:14Z</time></trkpt><trkpt lat="38.325861274425854" lon="16.135459120600647"><ele>951.0</ele><time>2026-04-11T11:07:15Z</time></trkpt><trkpt lat="38.326091156549595" lon="16.13559973499767"><ele>951.5</ele><time>2026-04-11T11:07:16Z</time></trkpt><trkpt lat="38.326318284351885" lon="16.135762808518564"><ele>952.0</ele><time>2026-04-11T11:07:17Z</time></trkpt><trkpt lat="38.32655081058548" lon="16.135919416407983"><ele>952.5</ele><time>2026-04-11T11:07:18Z</time></trkpt><trkpt lat="38.326771550916845" lon="16.13605685679433"><ele>953.0</ele><time>2026-04-11T11:07:19Z</time></trkpt><trkpt lat="38.32698102154269" lon="16.136191612787975"><ele>953.0</ele><time>2026-04-11T11:07:20Z</time></trkpt><trkpt lat="38.327190450346116" lon="16.13632908634886"><ele>953.0</ele><time>2026-04-11T11:07:21Z</time></trkpt><trkpt lat="38.327386818210805" lon="16.136454063479306"><ele>953.0</ele><time>2026-04-11T11:07:22Z</time></trkpt><trkpt lat="38.32756942889385" lon="16.136574208312013"><ele>953.0</ele><time>2026-04-11T11:07:23Z</time></trkpt><trkpt lat="38.32773727172733" lon="16.136687058263465"><ele>953.0</ele><time>2026-04-11T11:07:24Z</time></trkpt><trkpt lat="38.327893867728164" lon="16.136792545322706"><ele>953.0</ele><time>2026-04-11T11:07:25Z</time></trkpt><trkpt lat="38.32803584587497" lon="16.136890452971915"><ele>953.0</ele><time>2026-04-11T11:07:26Z</time></trkpt><trkpt lat="38.328159253763936" lon="16.136968938673533"><ele>953.0</ele><time>2026-04-11T11:07:27Z</time></trkpt><trkpt lat="38.328266554608035" lon="16.137022063591044"><ele>953.0</ele><time>2026-04-11T11:07:28Z</time></trkpt><trkpt lat="38.32836809254254" lon="16.137088955022506"><ele>953.6666666666667</ele><time>2026-04-11T11:07:29Z</time></trkpt><trkpt lat="38.328461185288354" lon="16.137143282695728"><ele>954.3333333333334</ele><time>2026-04-11T11:07:30Z</time></trkpt><trkpt lat="38.328537245429494" lon="16.13719874181313"><ele>955.0</ele><time>2026-04-11T11:07:31Z</time></trkpt><trkpt lat="38.328612063800776" lon="16.13724601993702"><ele>955.6666666666667</ele><time>2026-04-11T11:07:32Z</time></trkpt><trkpt lat="38.328670227471" lon="16.137290147486294"><ele>956.3333333333334</ele><time>2026-04-11T11:07:33.001Z</time></trkpt><trkpt lat="38.32873450596823" lon="16.13736470853549"><ele>957.0</ele><time>2026-04-11T11:07:35.001Z</time></trkpt><trkpt lat="38.32875795729545" lon="16.137457091714076"><ele>957.0</ele><time>2026-04-11T11:07:37.001Z</time></trkpt><trkpt lat="38.32877270186753" lon="16.137556761428208"><ele>957.0</ele><time>2026-04-11T11:07:39.001Z</time></trkpt><trkpt lat="38.328807717274266" lon="16.137651524075153"><ele>957.0</ele><time>2026-04-11T11:07:41.001Z</time></trkpt><trkpt lat="38.32883819025818" lon="16.137734690775464"><ele>957.0</ele><time>2026-04-11T11:07:43.001Z</time></trkpt><trkpt lat="38.328867235591396" lon="16.1378471172394"><ele>957.0</ele><time>2026-04-11T11:07:45.001Z</time></trkpt><trkpt lat="38.32892724510882" lon="16.137998700490403"><ele>957.6</ele><time>2026-04-11T11:07:47.001Z</time></trkpt><trkpt lat="38.32896686068431" lon="16.13809373185623"><ele>958.2</ele><time>2026-04-11T11:07:48.001Z</time></trkpt><trkpt lat="38.32900103469388" lon="16.138196686341306"><ele>958.8</ele><time>2026-04-11T11:07:49.001Z</time></trkpt><trkpt lat="38.329035164492986" lon="16.138311593966733"><ele>959.4</ele><time>2026-04-11T11:07:50.001Z</time></trkpt><trkpt lat="38.32906062646386" lon="16.138447042126405"><ele>960.0</ele><time>2026-04-11T11:07:51.001Z</time></trkpt><trkpt lat="38.32909650376103" lon="16.138583195395476"><ele>960.0</ele><time>2026-04-11T11:07:52.001Z</time></trkpt><trkpt lat="38.32914332617243" lon="16.138718856873783"><ele>960.0</ele><time>2026-04-11T11:07:53.001Z</time></trkpt><trkpt lat="38.32921493149092" lon="16.138836589703338"><ele>960.0</ele><time>2026-04-11T11:07:54.001Z</time></trkpt><trkpt lat="38.32925564237395" lon="16.138992078590487"><ele>960.0</ele><time>2026-04-11T11:07:55.001Z</time></trkpt><trkpt lat="38.32927991927955" lon="16.139163014167345"><ele>959.3333333333333</ele><time>2026-04-11T11:07:56.001Z</time></trkpt><trkpt lat="38.329319535296975" lon="16.139344647157646"><ele>958.6666666666666</ele><time>2026-04-11T11:07:57.001Z</time></trkpt><trkpt lat="38.32936104218462" lon="16.139526506933258"><ele>958.0</ele><time>2026-04-11T11:07:58.001Z</time></trkpt><trkpt lat="38.32941210264282" lon="16.13971727806362"><ele>960.0</ele><time>2026-04-11T11:07:59.001Z</time></trkpt><trkpt lat="38.32946773312175" lon="16.139904753015383"><ele>962.0</ele><time>2026-04-11T11:08:00.001Z</time></trkpt><trkpt lat="38.3295184206411" lon="16.140105844685404"><ele>964.0</ele><time>2026-04-11T11:08:01.001Z</time></trkpt><trkpt lat="38.32957694280987" lon="16.140311478799944"><ele>964.0</ele><time>2026-04-11T11:08:02.001Z</time></trkpt><trkpt lat="38.32964847487176" lon="16.140522594800224"><ele>964.0</ele><time>2026-04-11T11:08:03.001Z</time></trkpt><trkpt lat="38.329711268327884" lon="16.140750117636117"><ele>964.0</ele><time>2026-04-11T11:08:04.001Z</time></trkpt><trkpt lat="38.32977165989896" lon="16.140991673134334"><ele>964.3333333333333</ele><time>2026-04-11T11:08:05.001Z</time></trkpt><trkpt lat="38.32985106015415" lon="16.14123918531569"><ele>964.6666666666667</ele><time>2026-04-11T11:08:06.001Z</time></trkpt><trkpt lat="38.32993221362304" lon="16.141492725728902"><ele>965.0</ele><time>2026-04-11T11:08:07.001Z</time></trkpt><trkpt lat="38.33001531078363" lon="16.141755218489674"><ele>963.5</ele><time>2026-04-11T11:08:08.001Z</time></trkpt><trkpt lat="38.330085970645975" lon="16.142075546128243"><ele>962.0</ele><time>2026-04-11T11:08:09.001Z</time></trkpt><trkpt lat="38.33015812983575" lon="16.14235528586097"><ele>960.6666666666667</ele><time>2026-04-11T11:08:10.001Z</time></trkpt><trkpt lat="38.33023202557867" lon="16.142612513307316"><ele>959.3333333333333</ele><time>2026-04-11T11:08:11.001Z</time></trkpt><trkpt lat="38.33030205459055" lon="16.142860786832628"><ele>958.0</ele><time>2026-04-11T11:08:12.001Z</time></trkpt><trkpt lat="38.330388535393745" lon="16.1431089005545"><ele>955.6666666666666</ele><time>2026-04-11T11:08:13.001Z</time></trkpt><trkpt lat="38.33044555199596" lon="16.1433309183706"><ele>953.3333333333333</ele><time>2026-04-11T11:08:14.001Z</time></trkpt><trkpt lat="38.33050408920261" lon="16.143541500724726"><ele>951.0</ele><time>2026-04-11T11:08:15.001Z</time></trkpt><trkpt lat="38.33055260453191" lon="16.14372434265936"><ele>951.0</ele><time>2026-04-11T11:08:16.001Z</time></trkpt><trkpt lat="38.33059901249351" lon="16.143887376454323"><ele>951.0</ele><time>2026-04-11T11:08:17.001Z</time></trkpt><trkpt lat="38.33064629647899" lon="16.144038450326338"><ele>951.0</ele><time>2026-04-11T11:08:18.001Z</time></trkpt><trkpt lat="38.33068548090675" lon="16.144167108639564"><ele>951.0</ele><time>2026-04-11T11:08:19.001Z</time></trkpt><trkpt lat="38.330734715537794" lon="16.144282180329"><ele>951.0</ele><time>2026-04-11T11:08:20.001Z</time></trkpt><trkpt lat="38.3307882668048" lon="16.14435975909214"><ele>951.0</ele><time>2026-04-11T11:08:21.001Z</time></trkpt><trkpt lat="38.33084147347101" lon="16.1444581870801"><ele>951.0</ele><time>2026-04-11T11:08:23.001Z</time></trkpt><trkpt lat="38.33091093862842" lon="16.14446213881476"><ele>951.0</ele><time>2026-04-11T11:08:42Z</time></trkpt><trkpt lat="38.33097375629615" lon="16.1444491621383"><ele>951.0</ele><time>2026-04-11T11:08:43Z</time></trkpt><trkpt lat="38.331051467043935" lon="16.14440780808101"><ele>951.0</ele><time>2026-04-11T11:08:44Z</time></trkpt><trkpt lat="38.33113689844121" lon="16.144367804957213"><ele>951.0</ele><time>2026-04-11T11:08:45Z</time></trkpt><trkpt lat="38.33122103096374" lon="16.144335017429963"><ele>950.9999999999999</ele><time>2026-04-11T11:08:46Z</time></trkpt><trkpt lat="38.331298857816144" lon="16.1443255342151"><ele>950.9999999999999</ele><time>2026-04-11T11:08:47Z</time></trkpt><trkpt lat="38.331382214990064" lon="16.144356095116287"><ele>951.0</ele><time>2026-04-11T11:08:48Z</time></trkpt><trkpt lat="38.33147332361613" lon="16.144412381697492"><ele>951.0</ele><time>2026-04-11T11:08:49Z</time></trkpt><trkpt lat="38.33156027999683" lon="16.144514718918213"><ele>952.25</ele><time>2026-04-11T11:08:50Z</time></trkpt><trkpt lat="38.33164702515957" lon="16.14462913252395"><ele>953.5</ele><time>2026-04-11T11:08:51Z</time></trkpt><trkpt lat="38.331747299099945" lon="16.144750969808065"><ele>954.75</ele><time>2026-04-11T11:08:52Z</time></trkpt><trkpt lat="38.331869482642254" lon="16.144888890637823"><ele>956.0</ele><time>2026-04-11T11:08:53Z</time></trkpt><trkpt lat="38.332001357787675" lon="16.145035655106103"><ele>955.6666666666667</ele><time>2026-04-11T11:08:54Z</time></trkpt><trkpt lat="38.332139158459675" lon="16.145163524620735"><ele>955.3333333333333</ele><time>2026-04-11T11:08:55Z</time></trkpt><trkpt lat="38.33228112828051" lon="16.145266736922537"><ele>955.0</ele><time>2026-04-11T11:08:56Z</time></trkpt><trkpt lat="38.332429849052644" lon="16.145344797223434"><ele>955.0</ele><time>2026-04-11T11:08:57Z</time></trkpt><trkpt lat="38.33259486825785" lon="16.145413159576258"><ele>955.0</ele><time>2026-04-11T11:08:58Z</time></trkpt><trkpt lat="38.33276729142771" lon="16.145480274256727"><ele>955.0</ele><time>2026-04-11T11:08:59Z</time></trkpt><trkpt lat="38.33293634063359" lon="16.14556069393419"><ele>954.3333333333333</ele><time>2026-04-11T11:09:00Z</time></trkpt><trkpt lat="38.33310635195003" lon="16.145632498775345"><ele>953.6666666666667</ele><time>2026-04-11T11:09:01Z</time></trkpt><trkpt lat="38.33327902830587" lon="16.145710569811094"><ele>953.0</ele><time>2026-04-11T11:09:02Z</time></trkpt><trkpt lat="38.33345028595016" lon="16.145792011910228"><ele>953.0</ele><time>2026-04-11T11:09:03Z</time></trkpt><trkpt lat="38.33362315275886" lon="16.145875764753036"><ele>953.0</ele><time>2026-04-11T11:09:04Z</time></trkpt><trkpt lat="38.33380033942651" lon="16.145955604754604"><ele>953.0</ele><time>2026-04-11T11:09:05Z</time></trkpt><trkpt lat="38.33397233376711" lon="16.146041329743895"><ele>955.6666666666667</ele><time>2026-04-11T11:09:06Z</time></trkpt><trkpt lat="38.33414507367751" lon="16.146122631722786"><ele>958.3333333333333</ele><time>2026-04-11T11:09:07Z</time></trkpt><trkpt lat="38.3343141135779" lon="16.146213465378242"><ele>961.0</ele><time>2026-04-11T11:09:08Z</time></trkpt><trkpt lat="38.3344847422647" lon="16.14629792310389"><ele>961.0</ele><time>2026-04-11T11:09:09Z</time></trkpt><trkpt lat="38.33464464301515" lon="16.146369718284852"><ele>961.0</ele><time>2026-04-11T11:09:10Z</time></trkpt><trkpt lat="38.33479914831234" lon="16.146439003444602"><ele>961.0</ele><time>2026-04-11T11:09:11Z</time></trkpt><trkpt lat="38.33494305097564" lon="16.146516504491906"><ele>963.0</ele><time>2026-04-11T11:09:12Z</time></trkpt><trkpt lat="38.33508396363574" lon="16.14658725868018"><ele>965.0</ele><time>2026-04-11T11:09:13Z</time></trkpt><trkpt lat="38.33522628442119" lon="16.146683484538343"><ele>967.0</ele><time>2026-04-11T11:09:14Z</time></trkpt><trkpt lat="38.33536772087008" lon="16.14679220237347"><ele>967.0</ele><time>2026-04-11T11:09:15Z</time></trkpt><trkpt lat="38.33550281312786" lon="16.14691102442977"><ele>967.0</ele><time>2026-04-11T11:09:16Z</time></trkpt><trkpt lat="38.33563503778823" lon="16.147047284112205"><ele>967.0</ele><time>2026-04-11T11:09:17Z</time></trkpt><trkpt lat="38.335755514764536" lon="16.147199953323405"><ele>967.6666666666666</ele><time>2026-04-11T11:09:18Z</time></trkpt><trkpt lat="38.335870309967554" lon="16.147361955036764"><ele>968.3333333333333</ele><time>2026-04-11T11:09:19Z</time></trkpt><trkpt lat="38.33597367902463" lon="16.147518983468164"><ele>969.0</ele><time>2026-04-11T11:09:20Z</time></trkpt><trkpt lat="38.33606309104614" lon="16.147670357929115"><ele>969.0</ele><time>2026-04-11T11:09:21Z</time></trkpt><trkpt lat="38.33614603274364" lon="16.147840947374945"><ele>969.0</ele><time>2026-04-11T11:09:22Z</time></trkpt><trkpt lat="38.33626453688641" lon="16.147982851922674"><ele>969.0</ele><time>2026-04-11T11:09:23Z</time></trkpt><trkpt lat="38.3363977617501" lon="16.1480860650984"><ele>970.0</ele><time>2026-04-11T11:09:24Z</time></trkpt><trkpt lat="38.33653494481629" lon="16.148158050970643"><ele>971.0</ele><time>2026-04-11T11:09:25Z</time></trkpt><trkpt lat="38.336669463954465" lon="16.14825294140815"><ele>972.0</ele><time>2026-04-11T11:09:26Z</time></trkpt><trkpt lat="38.33680352870957" lon="16.148342002569912"><ele>972.0</ele><time>2026-04-11T11:09:27Z</time></trkpt><trkpt lat="38.33694253106463" lon="16.148446822740812"><ele>972.0</ele><time>2026-04-11T11:09:28Z</time></trkpt><trkpt lat="38.337080032215816" lon="16.148562563926262"><ele>972.0</ele><time>2026-04-11T11:09:29Z</time></trkpt><trkpt lat="38.33721594657049" lon="16.148667225219736"><ele>972.6666666666667</ele><time>2026-04-11T11:09:30Z</time></trkpt><trkpt lat="38.33736127827334" lon="16.148747293463998"><ele>973.3333333333334</ele><time>2026-04-11T11:09:31Z</time></trkpt><trkpt lat="38.33750784892938" lon="16.148889363830776"><ele>974.0</ele><time>2026-04-11T11:09:32Z</time></trkpt><trkpt lat="38.33764632994405" lon="16.149004767854915"><ele>973.5</ele><time>2026-04-11T11:09:33Z</time></trkpt><trkpt lat="38.337767193132755" lon="16.14909471990223"><ele>973.0</ele><time>2026-04-11T11:09:34Z</time></trkpt><trkpt lat="38.33790169781571" lon="16.149171228240544"><ele>972.5</ele><time>2026-04-11T11:09:35Z</time></trkpt><trkpt lat="38.33804264818659" lon="16.149258216683638"><ele>972.0</ele><time>2026-04-11T11:09:36Z</time></trkpt><trkpt lat="38.33819150295493" lon="16.14934324713786"><ele>971.6666666666667</ele><time>2026-04-11T11:09:37Z</time></trkpt><trkpt lat="38.338337983696576" lon="16.149443599467745"><ele>971.3333333333334</ele><time>2026-04-11T11:09:38Z</time></trkpt><trkpt lat="38.338492116610475" lon="16.14953163359441"><ele>971.0</ele><time>2026-04-11T11:09:39Z</time></trkpt><trkpt lat="38.338644322448175" lon="16.149645987008626"><ele>971.0</ele><time>2026-04-11T11:09:40Z</time></trkpt><trkpt lat="38.338776990459685" lon="16.149763012901595"><ele>971.0</ele><time>2026-04-11T11:09:41Z</time></trkpt><trkpt lat="38.338916427176926" lon="16.149833186502725"><ele>971.0</ele><time>2026-04-11T11:09:42Z</time></trkpt><trkpt lat="38.33906676444571" lon="16.14993592456706"><ele>967.6666666666667</ele><time>2026-04-11T11:09:43Z</time></trkpt><trkpt lat="38.33921813937912" lon="16.15002691993651"><ele>964.3333333333333</ele><time>2026-04-11T11:09:44.001Z</time></trkpt><trkpt lat="38.33935827641308" lon="16.150129714985194"><ele>961.0</ele><time>2026-04-11T11:09:45.001Z</time></trkpt><trkpt lat="38.33949184066987" lon="16.15022804580361"><ele>961.0</ele><time>2026-04-11T11:09:46.001Z</time></trkpt><trkpt lat="38.339625468623204" lon="16.150340816524984"><ele>961.0</ele><time>2026-04-11T11:09:47.001Z</time></trkpt><trkpt lat="38.33975909861557" lon="16.15042948286335"><ele>961.0</ele><time>2026-04-11T11:09:48.001Z</time></trkpt><trkpt lat="38.339885567735216" lon="16.15052536275521"><ele>961.6666666666666</ele><time>2026-04-11T11:09:49.001Z</time></trkpt><trkpt lat="38.34002173101573" lon="16.15063377301109"><ele>962.3333333333333</ele><time>2026-04-11T11:09:50.001Z</time></trkpt><trkpt lat="38.340165817215926" lon="16.150735886182275"><ele>963.0</ele><time>2026-04-11T11:09:51.001Z</time></trkpt><trkpt lat="38.34029630892711" lon="16.150843740318273"><ele>963.0</ele><time>2026-04-11T11:09:52.001Z</time></trkpt><trkpt lat="38.34041948407034" lon="16.15097245260201"><ele>963.0</ele><time>2026-04-11T11:09:53.001Z</time></trkpt><trkpt lat="38.34054513100417" lon="16.15110487489949"><ele>963.0</ele><time>2026-04-11T11:09:54.001Z</time></trkpt><trkpt lat="38.340671823109126" lon="16.151181333870557"><ele>963.0</ele><time>2026-04-11T11:09:55.001Z</time></trkpt><trkpt lat="38.34079656999949" lon="16.15128090578103"><ele>963.0</ele><time>2026-04-11T11:09:56.001Z</time></trkpt><trkpt lat="38.34090670588786" lon="16.15136156667853"><ele>963.0</ele><time>2026-04-11T11:09:57.001Z</time></trkpt><trkpt lat="38.34102202258529" lon="16.151443855344787"><ele>963.0</ele><time>2026-04-11T11:09:58.001Z</time></trkpt><trkpt lat="38.34113200219548" lon="16.15154017566486"><ele>963.25</ele><time>2026-04-11T11:09:59.001Z</time></trkpt><trkpt lat="38.34122568134164" lon="16.15162004385509"><ele>963.5</ele><time>2026-04-11T11:10:00.001Z</time></trkpt><trkpt lat="38.34132127874381" lon="16.151703069636397"><ele>963.75</ele><time>2026-04-11T11:10:01.001Z</time></trkpt><trkpt lat="38.34143130467715" lon="16.15178495996257"><ele>964.0</ele><time>2026-04-11T11:10:02.001Z</time></trkpt><trkpt lat="38.341546813273354" lon="16.15187835225719"><ele>964.75</ele><time>2026-04-11T11:10:03.001Z</time></trkpt><trkpt lat="38.341675356579906" lon="16.15198102404342"><ele>965.5</ele><time>2026-04-11T11:10:04.001Z</time></trkpt><trkpt lat="38.3418023856204" lon="16.152073969540872"><ele>966.25</ele><time>2026-04-11T11:10:05.001Z</time></trkpt><trkpt lat="38.34193980209985" lon="16.152150694608288"><ele>967.0</ele><time>2026-04-11T11:10:06.001Z</time></trkpt><trkpt lat="38.34207836807595" lon="16.15223028024611"><ele>967.0</ele><time>2026-04-11T11:10:07.001Z</time></trkpt><trkpt lat="38.34222416265709" lon="16.152316161990058"><ele>967.0</ele><time>2026-04-11T11:10:08.001Z</time></trkpt><trkpt lat="38.34237967892336" lon="16.152404738029123"><ele>967.0</ele><time>2026-04-11T11:10:09.001Z</time></trkpt><trkpt lat="38.34252982172224" lon="16.15248383494574"><ele>965.6666666666666</ele><time>2026-04-11T11:10:10.001Z</time></trkpt><trkpt lat="38.34268044080304" lon="16.15256000444914"><ele>964.3333333333333</ele><time>2026-04-11T11:10:11.001Z</time></trkpt><trkpt lat="38.34283422397531" lon="16.15263085353293"><ele>963.0</ele><time>2026-04-11T11:10:12.001Z</time></trkpt><trkpt lat="38.34298033310139" lon="16.152718455595092"><ele>963.3333333333333</ele><time>2026-04-11T11:10:13.001Z</time></trkpt><trkpt lat="38.34313172800017" lon="16.152785085871848"><ele>963.6666666666666</ele><time>2026-04-11T11:10:14.001Z</time></trkpt><trkpt lat="38.343272470707255" lon="16.152862009334484"><ele>964.0</ele><time>2026-04-11T11:10:15.001Z</time></trkpt><trkpt lat="38.34341002580713" lon="16.15292146842193"><ele>964.0</ele><time>2026-04-11T11:10:16.001Z</time></trkpt><trkpt lat="38.34352355814352" lon="16.15299709369517"><ele>964.0</ele><time>2026-04-11T11:10:17.001Z</time></trkpt><trkpt lat="38.34364625670619" lon="16.153061342627048"><ele>964.0</ele><time>2026-04-11T11:10:18.001Z</time></trkpt><trkpt lat="38.3437652961839" lon="16.15313128757725"><ele>964.0</ele><time>2026-04-11T11:10:19.001Z</time></trkpt><trkpt lat="38.343883412187516" lon="16.15319215031269"><ele>963.0</ele><time>2026-04-11T11:10:20.001Z</time></trkpt><trkpt lat="38.34399342142873" lon="16.153246575872583"><ele>962.0</ele><time>2026-04-11T11:10:21.001Z</time></trkpt><trkpt lat="38.34409561295976" lon="16.153300192479232"><ele>961.0</ele><time>2026-04-11T11:10:22.001Z</time></trkpt><trkpt lat="38.344200316413804" lon="16.15335638803309"><ele>960.0</ele><time>2026-04-11T11:10:23.001Z</time></trkpt><trkpt lat="38.3443190970619" lon="16.153402249980108"><ele>960.0</ele><time>2026-04-11T11:10:24.001Z</time></trkpt><trkpt lat="38.344377497825626" lon="16.153457248074194"><ele>960.0</ele><time>2026-04-11T11:10:25.001Z</time></trkpt><trkpt lat="38.34446233333267" lon="16.153488830595748"><ele>960.0</ele><time>2026-04-11T11:10:26.001Z</time></trkpt><trkpt lat="38.34452446044386" lon="16.153524196865217"><ele>960.0</ele><time>2026-04-11T11:10:27.001Z</time></trkpt><trkpt lat="38.344581481465504" lon="16.15356935503153"><ele>960.0</ele><time>2026-04-11T11:10:29.001Z</time></trkpt><trkpt lat="38.34464380309633" lon="16.153644899483094"><ele>960.0</ele><time>2026-04-11T11:10:59Z</time></trkpt><trkpt lat="38.34473642769592" lon="16.15375909022946"><ele>959.4</ele><time>2026-04-11T11:11:01Z</time></trkpt><trkpt lat="38.344785487885595" lon="16.15382951806995"><ele>958.8</ele><time>2026-04-11T11:11:02Z</time></trkpt><trkpt lat="38.344822981125006" lon="16.153895667901548"><ele>958.2</ele><time>2026-04-11T11:11:03Z</time></trkpt><trkpt lat="38.344895553750376" lon="16.15400072585517"><ele>957.6</ele><time>2026-04-11T11:11:05Z</time></trkpt><trkpt lat="38.3449611290378" lon="16.154100236279962"><ele>957.0</ele><time>2026-04-11T11:11:07Z</time></trkpt><trkpt lat="38.34502312448814" lon="16.154212427412734"><ele>956.6</ele><time>2026-04-11T11:11:09Z</time></trkpt><trkpt lat="38.34508325673024" lon="16.1543490818399"><ele>956.2</ele><time>2026-04-11T11:11:11Z</time></trkpt><trkpt lat="38.34512883006492" lon="16.154443846463845"><ele>955.8</ele><time>2026-04-11T11:11:12Z</time></trkpt><trkpt lat="38.34519446396401" lon="16.154543281948563"><ele>955.4</ele><time>2026-04-11T11:11:13Z</time></trkpt><trkpt lat="38.34526608345598" lon="16.154656929289413"><ele>955.0</ele><time>2026-04-11T11:11:14Z</time></trkpt><trkpt lat="38.34534442084028" lon="16.15476043456136"><ele>954.5</ele><time>2026-04-11T11:11:15Z</time></trkpt><trkpt lat="38.345419795528436" lon="16.15487401646373"><ele>954.0</ele><time>2026-04-11T11:11:16Z</time></trkpt><trkpt lat="38.345503364078226" lon="16.155017383724083"><ele>953.5</ele><time>2026-04-11T11:11:17Z</time></trkpt><trkpt lat="38.34556423266513" lon="16.15518067388111"><ele>953.0</ele><time>2026-04-11T11:11:18Z</time></trkpt><trkpt lat="38.34562889449204" lon="16.15531912272607"><ele>953.5999999999999</ele><time>2026-04-11T11:11:19Z</time></trkpt><trkpt lat="38.34568800644337" lon="16.15543647308495"><ele>954.1999999999999</ele><time>2026-04-11T11:11:20Z</time></trkpt><trkpt lat="38.345766185961814" lon="16.155540774484095"><ele>954.8</ele><time>2026-04-11T11:11:21Z</time></trkpt><trkpt lat="38.34584215921009" lon="16.1556316039052"><ele>955.4</ele><time>2026-04-11T11:11:22Z</time></trkpt><trkpt lat="38.34594169365245" lon="16.15571715264874"><ele>956.0</ele><time>2026-04-11T11:11:23Z</time></trkpt><trkpt lat="38.34602610565619" lon="16.155801378675385"><ele>956.0</ele><time>2026-04-11T11:11:24Z</time></trkpt><trkpt lat="38.346096773346964" lon="16.155909322746385"><ele>955.9999999999999</ele><time>2026-04-11T11:11:25Z</time></trkpt><trkpt lat="38.34615758820442" lon="16.156041731402"><ele>955.9999999999999</ele><time>2026-04-11T11:11:26Z</time></trkpt><trkpt lat="38.34620659675377" lon="16.156151351177943"><ele>956.0</ele><time>2026-04-11T11:11:27Z</time></trkpt><trkpt lat="38.346282792948514" lon="16.156263229309154"><ele>956.0</ele><time>2026-04-11T11:11:28Z</time></trkpt><trkpt lat="38.346358095949824" lon="16.156373338603373"><ele>955.4</ele><time>2026-04-11T11:11:29Z</time></trkpt><trkpt lat="38.346427611527204" lon="16.156461681984382"><ele>954.8</ele><time>2026-04-11T11:11:30Z</time></trkpt><trkpt lat="38.346507475330846" lon="16.156528137335624"><ele>954.1999999999999</ele><time>2026-04-11T11:11:31Z</time></trkpt><trkpt lat="38.34659314668891" lon="16.156584762982007"><ele>953.5999999999999</ele><time>2026-04-11T11:11:32Z</time></trkpt><trkpt lat="38.346684802880176" lon="16.156624667772768"><ele>953.0</ele><time>2026-04-11T11:11:33Z</time></trkpt><trkpt lat="38.34677136490821" lon="16.156681920456297"><ele>953.0</ele><time>2026-04-11T11:11:34Z</time></trkpt><trkpt lat="38.346844991377914" lon="16.156751830058035"><ele>953.0</ele><time>2026-04-11T11:11:35.001Z</time></trkpt><trkpt lat="38.346917799905846" lon="16.15684338216597"><ele>953.0</ele><time>2026-04-11T11:11:36.001Z</time></trkpt><trkpt lat="38.34697416592242" lon="16.156915059773297"><ele>953.0</ele><time>2026-04-11T11:11:37.001Z</time></trkpt><trkpt lat="38.34699608628356" lon="16.157039037490968"><ele>953.0</ele><time>2026-04-11T11:11:39.001Z</time></trkpt><trkpt lat="38.34697769568846" lon="16.157135656916072"><ele>953.0</ele><time>2026-04-11T11:11:40.001Z</time></trkpt><trkpt lat="38.346959988484166" lon="16.157266507265927"><ele>953.0</ele><time>2026-04-11T11:11:41.001Z</time></trkpt><trkpt lat="38.34695436601457" lon="16.1573981599"><ele>953.0</ele><time>2026-04-11T11:11:42.001Z</time></trkpt><trkpt lat="38.346971870096894" lon="16.157509759487713"><ele>953.0</ele><time>2026-04-11T11:11:43.001Z</time></trkpt><trkpt lat="38.347017226772216" lon="16.15759939664798"><ele>953.0</ele><time>2026-04-11T11:11:45.001Z</time></trkpt><trkpt lat="38.347125011710226" lon="16.15767468513103"><ele>952.2857142857143</ele><time>2026-04-11T11:11:48.001Z</time></trkpt><trkpt lat="38.34719027425268" lon="16.157743467550002"><ele>951.5714285714284</ele><time>2026-04-11T11:11:49.001Z</time></trkpt><trkpt lat="38.34724022174214" lon="16.157828625609472"><ele>950.8571428571428</ele><time>2026-04-11T11:11:51.001Z</time></trkpt><trkpt lat="38.34725394083051" lon="16.157907604134937"><ele>950.1428571428571</ele><time>2026-04-11T11:11:53.001Z</time></trkpt><trkpt lat="38.34725849564623" lon="16.157991488777345"><ele>949.4285714285713</ele><time>2026-04-11T11:12:14.001Z</time></trkpt><trkpt lat="38.34725591573488" lon="16.158090972242682"><ele>948.7142857142856</ele><time>2026-04-11T11:12:16.001Z</time></trkpt><trkpt lat="38.3472671769553" lon="16.158177621981356"><ele>947.9999999999999</ele><time>2026-04-11T11:12:17.001Z</time></trkpt><trkpt lat="38.34727983694044" lon="16.158270513254383"><ele>947.1666666666666</ele><time>2026-04-11T11:12:18.001Z</time></trkpt><trkpt lat="38.34730946334049" lon="16.158377990102295"><ele>946.3333333333333</ele><time>2026-04-11T11:12:19.001Z</time></trkpt><trkpt lat="38.34731715358631" lon="16.158497526299712"><ele>945.5</ele><time>2026-04-11T11:12:20.001Z</time></trkpt><trkpt lat="38.347336450279016" lon="16.158603351788624"><ele>944.6666666666666</ele><time>2026-04-11T11:12:21.001Z</time></trkpt><trkpt lat="38.34737220138899" lon="16.158704607818766"><ele>943.8333333333333</ele><time>2026-04-11T11:12:22.001Z</time></trkpt><trkpt lat="38.34739023501762" lon="16.15879812219975"><ele>943.0</ele><time>2026-04-11T11:12:23.001Z</time></trkpt><trkpt lat="38.34741062987293" lon="16.15890419727492"><ele>943.0</ele><time>2026-04-11T11:12:24.001Z</time></trkpt><trkpt lat="38.34742652157708" lon="16.159028972711685"><ele>943.0</ele><time>2026-04-11T11:12:25.001Z</time></trkpt><trkpt lat="38.347469760130494" lon="16.15913637564596"><ele>943.0</ele><time>2026-04-11T11:12:26.001Z</time></trkpt><trkpt lat="38.34749565620926" lon="16.15925131124266"><ele>943.0</ele><time>2026-04-11T11:12:27.001Z</time></trkpt><trkpt lat="38.347513347539824" lon="16.159358826641213"><ele>943.0</ele><time>2026-04-11T11:12:28.001Z</time></trkpt><trkpt lat="38.347524771793516" lon="16.15946502682602"><ele>941.8</ele><time>2026-04-11T11:12:29.001Z</time></trkpt><trkpt lat="38.34751363624318" lon="16.159574860653038"><ele>940.5999999999999</ele><time>2026-04-11T11:12:30.001Z</time></trkpt><trkpt lat="38.34750437258562" lon="16.159696886016334"><ele>939.4000000000001</ele><time>2026-04-11T11:12:31.001Z</time></trkpt><trkpt lat="38.34749793650754" lon="16.15982643086884"><ele>938.2</ele><time>2026-04-11T11:12:32.001Z</time></trkpt><trkpt lat="38.347496706551524" lon="16.159957936404385"><ele>937.0</ele><time>2026-04-11T11:12:33.001Z</time></trkpt><trkpt lat="38.34750230431413" lon="16.160079612431268"><ele>936.0</ele><time>2026-04-11T11:12:34.001Z</time></trkpt><trkpt lat="38.34751923428665" lon="16.160204288031736"><ele>935.0</ele><time>2026-04-11T11:12:35.001Z</time></trkpt><trkpt lat="38.347541192887284" lon="16.16033972580801"><ele>934.0</ele><time>2026-04-11T11:12:36.001Z</time></trkpt><trkpt lat="38.34755961413989" lon="16.160457769541935"><ele>933.0</ele><time>2026-04-11T11:12:37.001Z</time></trkpt><trkpt lat="38.347575800359984" lon="16.160574088158043"><ele>932.0</ele><time>2026-04-11T11:12:38.001Z</time></trkpt><trkpt lat="38.34756723622452" lon="16.160685563921316"><ele>930.4000000000001</ele><time>2026-04-11T11:12:39.001Z</time></trkpt><trkpt lat="38.34756038280817" lon="16.160787440812406"><ele>928.8000000000001</ele><time>2026-04-11T11:12:40.001Z</time></trkpt><trkpt lat="38.347553211920065" lon="16.16089606197742"><ele>927.2</ele><time>2026-04-11T11:12:41Z</time></trkpt><trkpt lat="38.34752238240787" lon="16.161014084364727"><ele>925.6</ele><time>2026-04-11T11:12:42Z</time></trkpt><trkpt lat="38.34747452715899" lon="16.161125278968186"><ele>924.0</ele><time>2026-04-11T11:12:43Z</time></trkpt><trkpt lat="38.34744773171343" lon="16.161235810368744"><ele>924.0</ele><time>2026-04-11T11:12:44Z</time></trkpt><trkpt lat="38.34742441794515" lon="16.16132642998655"><ele>924.0000000000001</ele><time>2026-04-11T11:12:45Z</time></trkpt><trkpt lat="38.3473997379612" lon="16.16140146993907"><ele>924.0000000000001</ele><time>2026-04-11T11:12:46Z</time></trkpt><trkpt lat="38.347319166934504" lon="16.161508026665842"><ele>924.0</ele><time>2026-04-11T11:12:48Z</time></trkpt><trkpt lat="38.347235345618614" lon="16.16149680969911"><ele>924.0</ele><time>2026-04-11T11:12:49Z</time></trkpt><trkpt lat="38.347120931869746" lon="16.16144541563718"><ele>924.4000000000001</ele><time>2026-04-11T11:12:51Z</time></trkpt><trkpt lat="38.34704659872902" lon="16.161423001285037"><ele>924.8000000000001</ele><time>2026-04-11T11:12:52Z</time></trkpt><trkpt lat="38.3469468210397" lon="16.161463901151347"><ele>925.1999999999999</ele><time>2026-04-11T11:12:54Z</time></trkpt><trkpt lat="38.34694229349393" lon="16.161643788194965"><ele>925.5999999999999</ele><time>2026-04-11T11:12:56Z</time></trkpt><trkpt lat="38.34695180823997" lon="16.16177648631502"><ele>926.0</ele><time>2026-04-11T11:12:57Z</time></trkpt><trkpt lat="38.34698638444631" lon="16.161884866871958"><ele>924.1666666666667</ele><time>2026-04-11T11:12:58Z</time></trkpt><trkpt lat="38.3469737841842" lon="16.161991232192854"><ele>922.3333333333334</ele><time>2026-04-11T11:12:59Z</time></trkpt><trkpt lat="38.34697503618338" lon="16.16208604982601"><ele>920.5</ele><time>2026-04-11T11:13:00Z</time></trkpt><trkpt lat="38.34697977170343" lon="16.16219143402059"><ele>918.6666666666667</ele><time>2026-04-11T11:13:01Z</time></trkpt><trkpt lat="38.34695441973381" lon="16.16230906766453"><ele>916.8333333333334</ele><time>2026-04-11T11:13:02Z</time></trkpt><trkpt lat="38.34692398362141" lon="16.162412420795874"><ele>915.0</ele><time>2026-04-11T11:13:03Z</time></trkpt><trkpt lat="38.346923818891256" lon="16.16252387557002"><ele>912.6666666666666</ele><time>2026-04-11T11:13:04Z</time></trkpt><trkpt lat="38.34691991973576" lon="16.162620665669202"><ele>910.3333333333333</ele><time>2026-04-11T11:13:05Z</time></trkpt><trkpt lat="38.3469220680325" lon="16.16270622794597"><ele>908.0</ele><time>2026-04-11T11:13:06Z</time></trkpt><trkpt lat="38.34695445912343" lon="16.162831325820296"><ele>905.6666666666666</ele><time>2026-04-11T11:13:08Z</time></trkpt><trkpt lat="38.346962904322176" lon="16.1629144688185"><ele>903.3333333333333</ele><time>2026-04-11T11:13:09Z</time></trkpt><trkpt lat="38.346995049916494" lon="16.16300081995277"><ele>901.0</ele><time>2026-04-11T11:13:10Z</time></trkpt><trkpt lat="38.34704507586769" lon="16.1630980815903"><ele>900.9999999999999</ele><time>2026-04-11T11:13:11Z</time></trkpt><trkpt lat="38.34709828522468" lon="16.16318080536354"><ele>901.0</ele><time>2026-04-11T11:13:12Z</time></trkpt><trkpt lat="38.34716124769325" lon="16.16326986454125"><ele>901.0</ele><time>2026-04-11T11:13:13Z</time></trkpt><trkpt lat="38.347225723777946" lon="16.163356363721217"><ele>901.0</ele><time>2026-04-11T11:13:14Z</time></trkpt><trkpt lat="38.347295502230786" lon="16.163430526332725"><ele>900.9999999999999</ele><time>2026-04-11T11:13:15Z</time></trkpt><trkpt lat="38.34735571574892" lon="16.1634823314956"><ele>901.0</ele><time>2026-04-11T11:13:16Z</time></trkpt><trkpt lat="38.34741487268588" lon="16.163524333029663"><ele>900.9999999999999</ele><time>2026-04-11T11:13:17Z</time></trkpt><trkpt lat="38.34750633660637" lon="16.163573081036496"><ele>901.0</ele><time>2026-04-11T11:13:18Z</time></trkpt><trkpt lat="38.34758811844432" lon="16.163602630724053"><ele>901.0</ele><time>2026-04-11T11:13:19Z</time></trkpt><trkpt lat="38.34766783262047" lon="16.163623038263765"><ele>901.0</ele><time>2026-04-11T11:13:20Z</time></trkpt><trkpt lat="38.34776881891102" lon="16.16361147692641"><ele>900.9999999999999</ele><time>2026-04-11T11:13:21Z</time></trkpt><trkpt lat="38.34784137443306" lon="16.163631462175125"><ele>901.0</ele><time>2026-04-11T11:13:22Z</time></trkpt><trkpt lat="38.347931971773974" lon="16.163626869304238"><ele>900.9999999999999</ele><time>2026-04-11T11:13:24Z</time></trkpt><trkpt lat="38.347997173739685" lon="16.163618349820755"><ele>901.0</ele><time>2026-04-11T11:13:49.001Z</time></trkpt><trkpt lat="38.34805724063263" lon="16.163577929985458"><ele>901.0</ele><time>2026-04-11T11:14:33.001Z</time></trkpt><trkpt lat="38.34805016064672" lon="16.163455102635478"><ele>901.0</ele><time>2026-04-11T11:14:34.001Z</time></trkpt><trkpt lat="38.34805741643669" lon="16.163374671583092"><ele>900.9999999999999</ele><time>2026-04-11T11:14:35.001Z</time></trkpt><trkpt lat="38.34806565428566" lon="16.163269931617485"><ele>901.0</ele><time>2026-04-11T11:14:36.001Z</time></trkpt><trkpt lat="38.34809743056531" lon="16.163158299882504"><ele>900.9999999999999</ele><time>2026-04-11T11:14:37.001Z</time></trkpt><trkpt lat="38.34811754530613" lon="16.163056516170958"><ele>901.0</ele><time>2026-04-11T11:14:38.001Z</time></trkpt><trkpt lat="38.34814793975518" lon="16.162934423753228"><ele>901.0</ele><time>2026-04-11T11:14:39.001Z</time></trkpt><trkpt lat="38.34816613902601" lon="16.16284704870641"><ele>901.0</ele><time>2026-04-11T11:14:40.001Z</time></trkpt><trkpt lat="38.34819982067485" lon="16.162739388824438"><ele>900.9999999999999</ele><time>2026-04-11T11:14:41.001Z</time></trkpt><trkpt lat="38.348231206030135" lon="16.16261433862836"><ele>901.0</ele><time>2026-04-11T11:14:42.001Z</time></trkpt><trkpt lat="38.348242861558845" lon="16.162502805914812"><ele>900.9999999999999</ele><time>2026-04-11T11:14:43.001Z</time></trkpt><trkpt lat="38.348268493798855" lon="16.162415447862234"><ele>901.0</ele><time>2026-04-11T11:14:44.001Z</time></trkpt><trkpt lat="38.34829050694766" lon="16.16233435340314"><ele>901.0</ele><time>2026-04-11T11:14:45.001Z</time></trkpt><trkpt lat="38.34832149728833" lon="16.16222284830029"><ele>901.0</ele><time>2026-04-11T11:14:47Z</time></trkpt><trkpt lat="38.348428333968435" lon="16.16217789502921"><ele>900.9999999999999</ele><time>2026-04-11T11:14:49Z</time></trkpt><trkpt lat="38.34851447128223" lon="16.16224372170072"><ele>901.0</ele><time>2026-04-11T11:14:51Z</time></trkpt><trkpt lat="38.34858417845794" lon="16.162302938184897"><ele>901.0</ele><time>2026-04-11T11:14:52Z</time></trkpt><trkpt lat="38.34866760750681" lon="16.162374852887396"><ele>900.9999999999999</ele><time>2026-04-11T11:14:53Z</time></trkpt><trkpt lat="38.34872879230866" lon="16.162439256311924"><ele>900.9999999999999</ele><time>2026-04-11T11:14:54Z</time></trkpt><trkpt lat="38.34877387465889" lon="16.162529482412637"><ele>901.0</ele><time>2026-04-11T11:14:55Z</time></trkpt><trkpt lat="38.34883314104467" lon="16.162636632512346"><ele>901.0</ele><time>2026-04-11T11:14:56Z</time></trkpt><trkpt lat="38.34888364785159" lon="16.162722611960607"><ele>900.3333333333333</ele><time>2026-04-11T11:14:57Z</time></trkpt><trkpt lat="38.348934679673825" lon="16.16279211765185"><ele>899.6666666666666</ele><time>2026-04-11T11:14:58Z</time></trkpt><trkpt lat="38.349002323038995" lon="16.162813697856564"><ele>899.0</ele><time>2026-04-11T11:14:59Z</time></trkpt><trkpt lat="38.349067075939274" lon="16.162808777328845"><ele>898.3333333333333</ele><time>2026-04-11T11:15:00Z</time></trkpt><trkpt lat="38.349151833583996" lon="16.162768776505413"><ele>897.6666666666666</ele><time>2026-04-11T11:15:01Z</time></trkpt><trkpt lat="38.34926221053712" lon="16.162712039679473"><ele>897.0</ele><time>2026-04-11T11:15:02Z</time></trkpt><trkpt lat="38.34937651913968" lon="16.162653808300394"><ele>897.0</ele><time>2026-04-11T11:15:03Z</time></trkpt><trkpt lat="38.34948649584181" lon="16.162584672144177"><ele>897.0</ele><time>2026-04-11T11:15:04Z</time></trkpt><trkpt lat="38.34958212304719" lon="16.162517654078357"><ele>897.0</ele><time>2026-04-11T11:15:05Z</time></trkpt><trkpt lat="38.34965418245333" lon="16.16242504883603"><ele>897.0</ele><time>2026-04-11T11:15:06Z</time></trkpt><trkpt lat="38.34971739231664" lon="16.16234327615732"><ele>897.0</ele><time>2026-04-11T11:15:07Z</time></trkpt><trkpt lat="38.34977513412646" lon="16.162263318614976"><ele>897.5</ele><time>2026-04-11T11:15:08Z</time></trkpt><trkpt lat="38.34983064911818" lon="16.16217440423468"><ele>898.0</ele><time>2026-04-11T11:15:09Z</time></trkpt><trkpt lat="38.34988080161108" lon="16.1621220701057"><ele>898.5</ele><time>2026-04-11T11:15:10Z</time></trkpt><trkpt lat="38.34994183050215" lon="16.16208760879335"><ele>899.0</ele><time>2026-04-11T11:15:11Z</time></trkpt><trkpt lat="38.35006454617332" lon="16.162139143325373"><ele>899.5</ele><time>2026-04-11T11:15:13Z</time></trkpt><trkpt lat="38.3501519215018" lon="16.162158843091625"><ele>900.0</ele><time>2026-04-11T11:15:14Z</time></trkpt><trkpt lat="38.350210566748935" lon="16.16218917742171"><ele>900.0</ele><time>2026-04-11T11:15:15Z</time></trkpt><trkpt lat="38.350285855437214" lon="16.16228085023349"><ele>900.0</ele><time>2026-04-11T11:15:17Z</time></trkpt><trkpt lat="38.35030643021778" lon="16.162376268443765"><ele>900.0</ele><time>2026-04-11T11:15:18Z</time></trkpt><trkpt lat="38.350343800350856" lon="16.162461193745816"><ele>900.0</ele><time>2026-04-11T11:15:19Z</time></trkpt><trkpt lat="38.35038011772818" lon="16.162532350043488"><ele>900.0</ele><time>2026-04-11T11:15:20Z</time></trkpt><trkpt lat="38.35042160677916" lon="16.16260235520324"><ele>900.0</ele><time>2026-04-11T11:15:21Z</time></trkpt><trkpt lat="38.35043135849197" lon="16.16268810060962"><ele>898.0</ele><time>2026-04-11T11:15:23Z</time></trkpt><trkpt lat="38.350439277279314" lon="16.162840202772006"><ele>896.0</ele><time>2026-04-11T11:15:25Z</time></trkpt><trkpt lat="38.350525536707096" lon="16.162914304909403"><ele>894.0</ele><time>2026-04-11T11:15:27Z</time></trkpt><trkpt lat="38.35060664588555" lon="16.162949801038067"><ele>892.0</ele><time>2026-04-11T11:15:28Z</time></trkpt><trkpt lat="38.35070083520395" lon="16.16296166414327"><ele>890.0</ele><time>2026-04-11T11:15:29Z</time></trkpt><trkpt lat="38.35083633819155" lon="16.16288819601155"><ele>889.8</ele><time>2026-04-11T11:15:30Z</time></trkpt><trkpt lat="38.3509518899858" lon="16.16284346591988"><ele>889.6</ele><time>2026-04-11T11:15:31Z</time></trkpt><trkpt lat="38.35101977374187" lon="16.16282867234391"><ele>889.4000000000001</ele><time>2026-04-11T11:15:32Z</time></trkpt><trkpt lat="38.3511350807105" lon="16.16280561628213"><ele>889.2</ele><time>2026-04-11T11:15:34Z</time></trkpt><trkpt lat="38.35121461268917" lon="16.16279545214896"><ele>889.0</ele><time>2026-04-11T11:15:35Z</time></trkpt><trkpt lat="38.35132600679707" lon="16.162766496571358"><ele>887.6</ele><time>2026-04-11T11:15:36Z</time></trkpt><trkpt lat="38.35141483742103" lon="16.162740339029778"><ele>886.2</ele><time>2026-04-11T11:15:37Z</time></trkpt><trkpt lat="38.351523813494325" lon="16.16269460007028"><ele>884.8000000000001</ele><time>2026-04-11T11:15:38Z</time></trkpt><trkpt lat="38.35161683827451" lon="16.162639372297868"><ele>883.4000000000001</ele><time>2026-04-11T11:15:39Z</time></trkpt><trkpt lat="38.35167761096659" lon="16.16260051458216"><ele>882.0</ele><time>2026-04-11T11:15:40Z</time></trkpt><trkpt lat="38.35174879467081" lon="16.16255187800811"><ele>882.0</ele><time>2026-04-11T11:15:41Z</time></trkpt><trkpt lat="38.351839359203815" lon="16.162477571896506"><ele>882.0</ele><time>2026-04-11T11:15:42Z</time></trkpt><trkpt lat="38.35192337478632" lon="16.162396122642622"><ele>882.0</ele><time>2026-04-11T11:15:43.001Z</time></trkpt><trkpt lat="38.35198068325838" lon="16.16232229035463"><ele>882.0</ele><time>2026-04-11T11:15:44.001Z</time></trkpt><trkpt lat="38.352052045235226" lon="16.162243741809693"><ele>882.0</ele><time>2026-04-11T11:15:45.001Z</time></trkpt><trkpt lat="38.35213243053065" lon="16.16217150431861"><ele>881.1666666666666</ele><time>2026-04-11T11:15:46.001Z</time></trkpt><trkpt lat="38.35220831339814" lon="16.162076251793906"><ele>880.3333333333333</ele><time>2026-04-11T11:15:47.001Z</time></trkpt><trkpt lat="38.35227001201777" lon="16.162020031389638"><ele>879.5</ele><time>2026-04-11T11:15:48.001Z</time></trkpt><trkpt lat="38.35232281455152" lon="16.16197275665466"><ele>878.6666666666666</ele><time>2026-04-11T11:15:49.001Z</time></trkpt><trkpt lat="38.352373953713986" lon="16.16192556475442"><ele>877.8333333333333</ele><time>2026-04-11T11:15:50.001Z</time></trkpt><trkpt lat="38.35243736029283" lon="16.16183128235568"><ele>877.0</ele><time>2026-04-11T11:15:52.001Z</time></trkpt><trkpt lat="38.352502292642306" lon="16.161765174929453"><ele>877.0</ele><time>2026-04-11T11:15:54.001Z</time></trkpt><trkpt lat="38.35255631180285" lon="16.161820544128545"><ele>877.0</ele><time>2026-04-11T11:15:55.001Z</time></trkpt><trkpt lat="38.35263700247906" lon="16.16172170878142"><ele>877.0</ele><time>2026-04-11T11:16:02.001Z</time></trkpt><trkpt lat="38.352765005626225" lon="16.16146458475404"><ele>877.0</ele><time>2026-04-11T11:16:07.001Z</time></trkpt><trkpt lat="38.35281040494915" lon="16.161363990711642"><ele>878.1666666666666</ele><time>2026-04-11T11:16:09.001Z</time></trkpt><trkpt lat="38.35280763936505" lon="16.161268983854967"><ele>879.3333333333333</ele><time>2026-04-11T11:16:11.001Z</time></trkpt><trkpt lat="38.35282229908297" lon="16.161157319988884"><ele>880.5</ele><time>2026-04-11T11:16:13.001Z</time></trkpt><trkpt lat="38.352847924538324" lon="16.16104422499182"><ele>881.6666666666667</ele><time>2026-04-11T11:16:14.001Z</time></trkpt><trkpt lat="38.35286694786477" lon="16.160933828254453"><ele>882.8333333333334</ele><time>2026-04-11T11:16:15.001Z</time></trkpt><trkpt lat="38.3528918466095" lon="16.16083552032873"><ele>884.0</ele><time>2026-04-11T11:16:16.001Z</time></trkpt><trkpt lat="38.35288591236382" lon="16.160740163530864"><ele>884.0</ele><time>2026-04-11T11:16:17.001Z</time></trkpt><trkpt lat="38.35288264107259" lon="16.160624203755507"><ele>884.0000000000001</ele><time>2026-04-11T11:16:18.001Z</time></trkpt><trkpt lat="38.352878172166896" lon="16.160497170964298"><ele>884.0000000000001</ele><time>2026-04-11T11:16:19.001Z</time></trkpt><trkpt lat="38.35287062435141" lon="16.160358837426624"><ele>884.0</ele><time>2026-04-11T11:16:20.001Z</time></trkpt><trkpt lat="38.35286207611539" lon="16.160224940416978"><ele>884.0</ele><time>2026-04-11T11:16:21.001Z</time></trkpt><trkpt lat="38.352848852429716" lon="16.16013166290704"><ele>884.0</ele><time>2026-04-11T11:16:22.001Z</time></trkpt><trkpt lat="38.352848423332496" lon="16.16004119569617"><ele>884.0000000000001</ele><time>2026-04-11T11:16:23.001Z</time></trkpt><trkpt lat="38.352859003519896" lon="16.159930246603064"><ele>884.0000000000001</ele><time>2026-04-11T11:16:25.001Z</time></trkpt><trkpt lat="38.35285727323636" lon="16.159805004362898"><ele>884.0</ele><time>2026-04-11T11:16:27.001Z</time></trkpt><trkpt lat="38.35287227370105" lon="16.15965183567895"><ele>884.0</ele><time>2026-04-11T11:16:29.001Z</time></trkpt><trkpt lat="38.35290011451608" lon="16.159531491656807"><ele>883.3333333333334</ele><time>2026-04-11T11:16:31.001Z</time></trkpt><trkpt lat="38.35291717819125" lon="16.15940756118985"><ele>882.6666666666667</ele><time>2026-04-11T11:16:33.001Z</time></trkpt><trkpt lat="38.35294161743662" lon="16.159288633216878"><ele>882.0</ele><time>2026-04-11T11:16:34.001Z</time></trkpt><trkpt lat="38.35296643501743" lon="16.159198901849805"><ele>881.3333333333333</ele><time>2026-04-11T11:16:35.001Z</time></trkpt><trkpt lat="38.35300965215351" lon="16.159113586123592"><ele>880.6666666666666</ele><time>2026-04-11T11:16:37.001Z</time></trkpt><trkpt lat="38.35309351638215" lon="16.159052041701095"><ele>880.0</ele><time>2026-04-11T11:16:40.001Z</time></trkpt><trkpt lat="38.35317506786648" lon="16.159037480025408"><ele>879.1666666666666</ele><time>2026-04-11T11:16:42.001Z</time></trkpt><trkpt lat="38.35326428990533" lon="16.159007470800233"><ele>878.3333333333333</ele><time>2026-04-11T11:16:44.001Z</time></trkpt><trkpt lat="38.353328055455336" lon="16.15900693462385"><ele>877.5</ele><time>2026-04-11T11:16:45.001Z</time></trkpt><trkpt lat="38.35342423002823" lon="16.158997732208675"><ele>876.6666666666667</ele><time>2026-04-11T11:16:46.001Z</time></trkpt><trkpt lat="38.35350616624019" lon="16.159004948357303"><ele>875.8333333333334</ele><time>2026-04-11T11:16:47.001Z</time></trkpt><trkpt lat="38.35361637959861" lon="16.159024938021417"><ele>875.0</ele><time>2026-04-11T11:16:49.001Z</time></trkpt><trkpt lat="38.35367753083734" lon="16.15900009135957"><ele>875.0</ele><time>2026-04-11T11:16:52.999Z</time></trkpt><trkpt lat="38.353730325096876" lon="16.158952362540674"><ele>875.0</ele><time>2026-04-11T11:17:25Z</time></trkpt><trkpt lat="38.353791596366875" lon="16.15889240869695"><ele>875.0</ele><time>2026-04-11T11:17:30Z</time></trkpt><trkpt lat="38.35384930709676" lon="16.158823594124804"><ele>875.0</ele><time>2026-04-11T11:17:32Z</time></trkpt><trkpt lat="38.353891264288194" lon="16.158737039998154"><ele>875.0</ele><time>2026-04-11T11:17:34Z</time></trkpt><trkpt lat="38.35391801692765" lon="16.15864909141365"><ele>875.0</ele><time>2026-04-11T11:17:36Z</time></trkpt><trkpt lat="38.35393631644544" lon="16.158559119621668"><ele>875.0</ele><time>2026-04-11T11:17:38Z</time></trkpt><trkpt lat="38.35394000799706" lon="16.158429400267643"><ele>873.6666666666667</ele><time>2026-04-11T11:17:40Z</time></trkpt><trkpt lat="38.35394118072629" lon="16.15830116781963"><ele>872.3333333333334</ele><time>2026-04-11T11:17:42Z</time></trkpt><trkpt lat="38.35393746965129" lon="16.158218517678392"><ele>871.0</ele><time>2026-04-11T11:17:43Z</time></trkpt><trkpt lat="38.353933635689586" lon="16.15813593613281"><ele>869.6666666666667</ele><time>2026-04-11T11:17:44Z</time></trkpt><trkpt lat="38.35390611016676" lon="16.158042019839574"><ele>868.3333333333334</ele><time>2026-04-11T11:17:46Z</time></trkpt><trkpt lat="38.35386049544784" lon="16.157966483100264"><ele>867.0</ele><time>2026-04-11T11:17:48Z</time></trkpt><trkpt lat="38.35387281979959" lon="16.15788092030918"><ele>867.0</ele><time>2026-04-11T11:17:50Z</time></trkpt><trkpt lat="38.35393657949464" lon="16.157745321420887"><ele>867.0</ele><time>2026-04-11T11:17:52Z</time></trkpt><trkpt lat="38.35395777785465" lon="16.157661863303247"><ele>867.0</ele><time>2026-04-11T11:17:53Z</time></trkpt><trkpt lat="38.35396887825473" lon="16.157516616733968"><ele>867.0</ele><time>2026-04-11T11:17:55Z</time></trkpt><trkpt lat="38.353964846936506" lon="16.15738168161521"><ele>867.0</ele><time>2026-04-11T11:17:57Z</time></trkpt><trkpt lat="38.35394781069794" lon="16.15730151202986"><ele>867.4000000000001</ele><time>2026-04-11T11:17:58Z</time></trkpt><trkpt lat="38.3539109400264" lon="16.157225489798254"><ele>867.8000000000001</ele><time>2026-04-11T11:17:59Z</time></trkpt><trkpt lat="38.353853723749395" lon="16.15709008108711"><ele>868.2</ele><time>2026-04-11T11:18:01.001Z</time></trkpt><trkpt lat="38.35380217049614" lon="16.157014401902003"><ele>868.6</ele><time>2026-04-11T11:18:02.001Z</time></trkpt><trkpt lat="38.35379208769926" lon="16.156903117213904"><ele>869.0</ele><time>2026-04-11T11:18:04.001Z</time></trkpt><trkpt lat="38.35384227613451" lon="16.156782884826672"><ele>869.0000000000001</ele><time>2026-04-11T11:18:06.001Z</time></trkpt><trkpt lat="38.35391708137089" lon="16.156728869313838"><ele>869.0</ele><time>2026-04-11T11:18:08.001Z</time></trkpt><trkpt lat="38.35401146619384" lon="16.156681554050273"><ele>869.0</ele><time>2026-04-11T11:18:10.001Z</time></trkpt><trkpt lat="38.354094166310624" lon="16.156661031180892"><ele>869.0</ele><time>2026-04-11T11:18:12.001Z</time></trkpt><trkpt lat="38.3541798383296" lon="16.156708397082532"><ele>869.0000000000001</ele><time>2026-04-11T11:18:15.001Z</time></trkpt><trkpt lat="38.35424724271839" lon="16.1566738685625"><ele>869.0</ele><time>2026-04-11T11:18:17.001Z</time></trkpt><trkpt lat="38.35432592161309" lon="16.156588532945104"><ele>870.3333333333334</ele><time>2026-04-11T11:18:19.001Z</time></trkpt><trkpt lat="38.35439671763745" lon="16.156441542418772"><ele>871.6666666666667</ele><time>2026-04-11T11:18:21.001Z</time></trkpt><trkpt lat="38.35444316629855" lon="16.15634351790957"><ele>873.0</ele><time>2026-04-11T11:18:22.001Z</time></trkpt><trkpt lat="38.354485024976434" lon="16.156267567577736"><ele>874.3333333333333</ele><time>2026-04-11T11:18:23.001Z</time></trkpt><trkpt lat="38.35453763886307" lon="16.15620579736836"><ele>875.6666666666666</ele><time>2026-04-11T11:18:25.001Z</time></trkpt><trkpt lat="38.354513804807226" lon="16.156130903133615"><ele>877.0</ele><time>2026-04-11T11:18:35.001Z</time></trkpt><trkpt lat="38.35443625723613" lon="16.156051110937955"><ele>877.0000000000001</ele><time>2026-04-11T11:18:37.001Z</time></trkpt><trkpt lat="38.354393689995945" lon="16.15597826781027"><ele>877.0</ele><time>2026-04-11T11:18:39.001Z</time></trkpt><trkpt lat="38.35437809563389" lon="16.156070832172297"><ele>877.0</ele><time>2026-04-11T11:27:25.001Z</time></trkpt><trkpt lat="38.3544320585923" lon="16.15612552566386"><ele>877.0</ele><time>2026-04-11T11:27:29Z</time></trkpt><trkpt lat="38.354493956140864" lon="16.15614079200307"><ele>877.0</ele><time>2026-04-11T11:27:31Z</time></trkpt><trkpt lat="38.35456044070563" lon="16.156183736674812"><ele>877.0000000000001</ele><time>2026-04-11T11:27:33Z</time></trkpt><trkpt lat="38.35463172606472" lon="16.156202450612"><ele>877.0</ele><time>2026-04-11T11:27:35Z</time></trkpt><trkpt lat="38.35473502637772" lon="16.156201300012267"><ele>878.4000000000001</ele><time>2026-04-11T11:27:37Z</time></trkpt><trkpt lat="38.35485043347514" lon="16.156182347890766"><ele>879.8000000000001</ele><time>2026-04-11T11:27:39Z</time></trkpt><trkpt lat="38.354919304809535" lon="16.156175712810683"><ele>881.2</ele><time>2026-04-11T11:27:40Z</time></trkpt><trkpt lat="38.35500608545016" lon="16.156157364380107"><ele>882.6</ele><time>2026-04-11T11:27:42Z</time></trkpt><trkpt lat="38.355109927835656" lon="16.156068992704242"><ele>884.0</ele><time>2026-04-11T11:27:44Z</time></trkpt><trkpt lat="38.355164765625815" lon="16.156028063217256"><ele>884.0</ele><time>2026-04-11T11:27:45Z</time></trkpt><trkpt lat="38.355253588756284" lon="16.15592038893508"><ele>884.0000000000001</ele><time>2026-04-11T11:27:47Z</time></trkpt><trkpt lat="38.35529574740883" lon="16.15585902278425"><ele>884.0000000000001</ele><time>2026-04-11T11:27:48Z</time></trkpt><trkpt lat="38.355334885623044" lon="16.155772087174075"><ele>884.0</ele><time>2026-04-11T11:27:49Z</time></trkpt><trkpt lat="38.355375236139935" lon="16.155687216814588"><ele>884.0</ele><time>2026-04-11T11:27:50Z</time></trkpt><trkpt lat="38.3554695705228" lon="16.15560934781126"><ele>886.0</ele><time>2026-04-11T11:27:52Z</time></trkpt><trkpt lat="38.355554244795" lon="16.15555526275848"><ele>888.0000000000001</ele><time>2026-04-11T11:27:54Z</time></trkpt><trkpt lat="38.35563461160059" lon="16.155509586687717"><ele>890.0000000000001</ele><time>2026-04-11T11:27:56Z</time></trkpt><trkpt lat="38.35572492287297" lon="16.155486226008545"><ele>892.0</ele><time>2026-04-11T11:27:58Z</time></trkpt><trkpt lat="38.35577604730454" lon="16.155407468972317"><ele>894.0</ele><time>2026-04-11T11:28:00.001Z</time></trkpt><trkpt lat="38.355793134333474" lon="16.155269099744668"><ele>894.0</ele><time>2026-04-11T11:28:02.001Z</time></trkpt><trkpt lat="38.355774966283036" lon="16.155190441785418"><ele>894.0</ele><time>2026-04-11T11:28:03.001Z</time></trkpt><trkpt lat="38.35580987288262" lon="16.155071285089072"><ele>894.0</ele><time>2026-04-11T11:28:05.001Z</time></trkpt><trkpt lat="38.35584740803659" lon="16.15500107378824"><ele>894.0</ele><time>2026-04-11T11:28:06.001Z</time></trkpt><trkpt lat="38.35588221007352" lon="16.154918982279963"><ele>894.0</ele><time>2026-04-11T11:28:07.001Z</time></trkpt><trkpt lat="38.3559189442899" lon="16.154768966588716"><ele>894.0</ele><time>2026-04-11T11:28:09.001Z</time></trkpt><trkpt lat="38.35591235501257" lon="16.15468541923554"><ele>896.8000000000001</ele><time>2026-04-11T11:28:10.001Z</time></trkpt><trkpt lat="38.35589216529359" lon="16.15459062386851"><ele>899.6000000000001</ele><time>2026-04-11T11:28:11.001Z</time></trkpt><trkpt lat="38.355888537766674" lon="16.154470815843474"><ele>902.4</ele><time>2026-04-11T11:28:12.001Z</time></trkpt><trkpt lat="38.35590156281615" lon="16.154315548858357"><ele>905.2</ele><time>2026-04-11T11:28:14.001Z</time></trkpt><trkpt lat="38.355891415472996" lon="16.154209203066173"><ele>908.0</ele><time>2026-04-11T11:28:16.001Z</time></trkpt><trkpt lat="38.355843388072486" lon="16.154125608075564"><ele>909.1666666666667</ele><time>2026-04-11T11:28:17.001Z</time></trkpt><trkpt lat="38.35580081898363" lon="16.154013402688566"><ele>910.3333333333334</ele><time>2026-04-11T11:28:19.001Z</time></trkpt><trkpt lat="38.35573724341408" lon="16.153952935785927"><ele>911.5</ele><time>2026-04-11T11:28:20.001Z</time></trkpt><trkpt lat="38.35569808466182" lon="16.153889270665275"><ele>912.6666666666667</ele><time>2026-04-11T11:28:21.001Z</time></trkpt><trkpt lat="38.355624196668856" lon="16.15382669408296"><ele>913.8333333333334</ele><time>2026-04-11T11:28:22.001Z</time></trkpt><trkpt lat="38.355542828541196" lon="16.153778658519172"><ele>915.0</ele><time>2026-04-11T11:28:23.001Z</time></trkpt><trkpt lat="38.35543658233246" lon="16.153706392492865"><ele>915.0</ele><time>2026-04-11T11:28:25.001Z</time></trkpt><trkpt lat="38.35537602739799" lon="16.153650754296603"><ele>915.0</ele><time>2026-04-11T11:28:26.001Z</time></trkpt><trkpt lat="38.35531830036215" lon="16.15360764550336"><ele>915.0</ele><time>2026-04-11T11:28:27.001Z</time></trkpt><trkpt lat="38.35526556593277" lon="16.15355362689717"><ele>915.0</ele><time>2026-04-11T11:28:28.001Z</time></trkpt><trkpt lat="38.355232760093934" lon="16.153454925680297"><ele>915.0</ele><time>2026-04-11T11:28:30.001Z</time></trkpt><trkpt lat="38.35518094869265" lon="16.153344057483938"><ele>915.0</ele><time>2026-04-11T11:28:32.001Z</time></trkpt><trkpt lat="38.35515517926417" lon="16.15326128284784"><ele>915.6</ele><time>2026-04-11T11:28:33.001Z</time></trkpt><trkpt lat="38.35510572516036" lon="16.153179509737043"><ele>916.2</ele><time>2026-04-11T11:28:34.001Z</time></trkpt><trkpt lat="38.355063814998964" lon="16.15310980867225"><ele>916.8</ele><time>2026-04-11T11:28:35.001Z</time></trkpt><trkpt lat="38.35500878701466" lon="16.15295073011915"><ele>917.4</ele><time>2026-04-11T11:28:36.001Z</time></trkpt><trkpt lat="38.35496537501613" lon="16.152858417810563"><ele>918.0</ele><time>2026-04-11T11:28:37.001Z</time></trkpt><trkpt lat="38.35492446829475" lon="16.152767431684794"><ele>918.0</ele><time>2026-04-11T11:28:38.001Z</time></trkpt><trkpt lat="38.354878031616785" lon="16.15265536664899"><ele>918.0</ele><time>2026-04-11T11:28:39.001Z</time></trkpt><trkpt lat="38.35483377026237" lon="16.152580740831457"><ele>918.0</ele><time>2026-04-11T11:28:41.001Z</time></trkpt><trkpt lat="38.354822738003186" lon="16.152486051235563"><ele>918.0</ele><time>2026-04-11T11:28:42.001Z</time></trkpt><trkpt lat="38.3547882390499" lon="16.152380211703175"><ele>918.0</ele><time>2026-04-11T11:28:43.001Z</time></trkpt><trkpt lat="38.354747797824714" lon="16.152252420469992"><ele>918.0</ele><time>2026-04-11T11:28:44.001Z</time></trkpt><trkpt lat="38.35473660979059" lon="16.152157170525076"><ele>918.4</ele><time>2026-04-11T11:28:45.001Z</time></trkpt><trkpt lat="38.35472625274558" lon="16.152054262101156"><ele>918.8</ele><time>2026-04-11T11:28:46.001Z</time></trkpt><trkpt lat="38.354749473813754" lon="16.151974291893"><ele>919.2</ele><time>2026-04-11T11:28:47.001Z</time></trkpt><trkpt lat="38.35475780502916" lon="16.151763783138172"><ele>919.6</ele><time>2026-04-11T11:28:49.001Z</time></trkpt><trkpt lat="38.35479213236318" lon="16.151616804197666"><ele>920.0</ele><time>2026-04-11T11:28:51.001Z</time></trkpt><trkpt lat="38.35478776392601" lon="16.151457839634645"><ele>921.4</ele><time>2026-04-11T11:28:53.001Z</time></trkpt><trkpt lat="38.35477032179409" lon="16.151351143942833"><ele>922.8</ele><time>2026-04-11T11:28:54.001Z</time></trkpt><trkpt lat="38.35475414085569" lon="16.1512381547493"><ele>924.2</ele><time>2026-04-11T11:28:56.001Z</time></trkpt><trkpt lat="38.354828032464255" lon="16.151202790943373"><ele>925.6</ele><time>2026-04-11T11:29:08.001Z</time></trkpt><trkpt lat="38.35489756648419" lon="16.151309634745335"><ele>927.0</ele><time>2026-04-11T11:29:14.001Z</time></trkpt><trkpt lat="38.354930946799236" lon="16.151462805162353"><ele>925.8333333333334</ele><time>2026-04-11T11:29:16.001Z</time></trkpt><trkpt lat="38.35501012984596" lon="16.15159226373136"><ele>924.6666666666667</ele><time>2026-04-11T11:29:18.001Z</time></trkpt><trkpt lat="38.35504187035843" lon="16.151670951514312"><ele>923.5</ele><time>2026-04-11T11:29:19.001Z</time></trkpt><trkpt lat="38.35508959853873" lon="16.151727112186688"><ele>922.3333333333334</ele><time>2026-04-11T11:29:20.002Z</time></trkpt><trkpt lat="38.35517109479241" lon="16.151772118770484"><ele>921.1666666666667</ele><time>2026-04-11T11:29:21.002Z</time></trkpt><trkpt lat="38.3552447285785" lon="16.151819711212628"><ele>920.0</ele><time>2026-04-11T11:29:22.002Z</time></trkpt><trkpt lat="38.35531427232927" lon="16.151836019171196"><ele>920.0</ele><time>2026-04-11T11:29:23.002Z</time></trkpt><trkpt lat="38.3554033969635" lon="16.151847654388725"><ele>920.0</ele><time>2026-04-11T11:29:24.002Z</time></trkpt><trkpt lat="38.35549913048572" lon="16.151850685856292"><ele>920.0</ele><time>2026-04-11T11:29:25.002Z</time></trkpt><trkpt lat="38.355592358789615" lon="16.151850567456382"><ele>920.0</ele><time>2026-04-11T11:29:26.002Z</time></trkpt><trkpt lat="38.35570866108084" lon="16.1517871294595"><ele>920.0</ele><time>2026-04-11T11:29:28.002Z</time></trkpt><trkpt lat="38.355793223543934" lon="16.15174679529545"><ele>921.2</ele><time>2026-04-11T11:29:28.999Z</time></trkpt><trkpt lat="38.35584788527693" lon="16.151676417731746"><ele>922.4</ele><time>2026-04-11T11:29:29.999Z</time></trkpt><trkpt lat="38.355914815422565" lon="16.151574337308457"><ele>923.5999999999999</ele><time>2026-04-11T11:29:30.999Z</time></trkpt><trkpt lat="38.3559838133564" lon="16.151461670512088"><ele>924.8</ele><time>2026-04-11T11:29:31.999Z</time></trkpt><trkpt lat="38.356051197580896" lon="16.151364693895143"><ele>926.0</ele><time>2026-04-11T11:29:32.999Z</time></trkpt><trkpt lat="38.356128547107886" lon="16.151274657840872"><ele>926.0</ele><time>2026-04-11T11:29:33.999Z</time></trkpt><trkpt lat="38.356184484556856" lon="16.151148431738303"><ele>926.0</ele><time>2026-04-11T11:29:34.999Z</time></trkpt><trkpt lat="38.35624346467476" lon="16.151015367684025"><ele>926.0</ele><time>2026-04-11T11:29:35.999Z</time></trkpt><trkpt lat="38.35629493798857" lon="16.1508959275285"><ele>926.0</ele><time>2026-04-11T11:29:37Z</time></trkpt><trkpt lat="38.35635989038131" lon="16.15076587468145"><ele>927.4</ele><time>2026-04-11T11:29:38Z</time></trkpt><trkpt lat="38.35642851312001" lon="16.150638583729616"><ele>928.8</ele><time>2026-04-11T11:29:39Z</time></trkpt><trkpt lat="38.35648931752062" lon="16.150540929753948"><ele>930.1999999999999</ele><time>2026-04-11T11:29:40Z</time></trkpt><trkpt lat="38.356546884217806" lon="16.150479503006064"><ele>931.5999999999999</ele><time>2026-04-11T11:29:41Z</time></trkpt><trkpt lat="38.356586541166116" lon="16.150399887053975"><ele>933.0</ele><time>2026-04-11T11:29:42Z</time></trkpt><trkpt lat="38.35666815052967" lon="16.150317381320907"><ele>933.0</ele><time>2026-04-11T11:29:43Z</time></trkpt><trkpt lat="38.3567519694798" lon="16.150245100133933"><ele>933.0</ele><time>2026-04-11T11:29:44Z</time></trkpt><trkpt lat="38.35682011743231" lon="16.1502084055769"><ele>933.0</ele><time>2026-04-11T11:29:45Z</time></trkpt><trkpt lat="38.35692902823524" lon="16.150136637220957"><ele>933.0</ele><time>2026-04-11T11:29:47Z</time></trkpt><trkpt lat="38.35701924334316" lon="16.150128251763263"><ele>933.0</ele><time>2026-04-11T11:29:49Z</time></trkpt><trkpt lat="38.35712798372036" lon="16.150104170563083"><ele>932.8</ele><time>2026-04-11T11:29:51Z</time></trkpt><trkpt lat="38.357246050298116" lon="16.150029012332105"><ele>932.5999999999999</ele><time>2026-04-11T11:29:52Z</time></trkpt><trkpt lat="38.357316986657175" lon="16.14994028062922"><ele>932.4000000000001</ele><time>2026-04-11T11:29:53Z</time></trkpt><trkpt lat="38.35740185513052" lon="16.149883507752236"><ele>932.2</ele><time>2026-04-11T11:29:54Z</time></trkpt><trkpt lat="38.3574743126585" lon="16.14984716300018"><ele>932.0</ele><time>2026-04-11T11:29:55Z</time></trkpt><trkpt lat="38.35756348469539" lon="16.14981424741754"><ele>933.2</ele><time>2026-04-11T11:29:57Z</time></trkpt><trkpt lat="38.35767149916443" lon="16.149808601901974"><ele>934.4000000000001</ele><time>2026-04-11T11:30:42.001Z</time></trkpt><trkpt lat="38.357777794203564" lon="16.149821145014293"><ele>935.5999999999999</ele><time>2026-04-11T11:30:44.001Z</time></trkpt><trkpt lat="38.35785430210125" lon="16.149825573372162"><ele>936.8</ele><time>2026-04-11T11:30:45.001Z</time></trkpt><trkpt lat="38.357932515300305" lon="16.149831549700487"><ele>938.0</ele><time>2026-04-11T11:30:46.001Z</time></trkpt><trkpt lat="38.358014443698124" lon="16.149837445921587"><ele>937.8571428571429</ele><time>2026-04-11T11:30:47.001Z</time></trkpt><trkpt lat="38.35809643312641" lon="16.14983878893679"><ele>937.7142857142858</ele><time>2026-04-11T11:30:48.001Z</time></trkpt><trkpt lat="38.3581675311592" lon="16.14984908576955"><ele>937.5714285714286</ele><time>2026-04-11T11:30:49.001Z</time></trkpt><trkpt lat="38.358237560926554" lon="16.14985712330547"><ele>937.4285714285714</ele><time>2026-04-11T11:30:50.001Z</time></trkpt><trkpt lat="38.35830090036545" lon="16.14986376656435"><ele>937.2857142857143</ele><time>2026-04-11T11:30:51.001Z</time></trkpt><trkpt lat="38.35836758356676" lon="16.149888489275654"><ele>937.1428571428571</ele><time>2026-04-11T11:30:52.001Z</time></trkpt><trkpt lat="38.35843297691685" lon="16.149933377144528"><ele>937.0</ele><time>2026-04-11T11:30:53.001Z</time></trkpt><trkpt lat="38.358502996492305" lon="16.1500060506128"><ele>936.2</ele><time>2026-04-11T11:30:54.001Z</time></trkpt><trkpt lat="38.35858242198926" lon="16.150100623953463"><ele>935.4000000000001</ele><time>2026-04-11T11:30:55.001Z</time></trkpt><trkpt lat="38.35866526002231" lon="16.150187302550247"><ele>934.5999999999999</ele><time>2026-04-11T11:30:56.001Z</time></trkpt><trkpt lat="38.358757459285656" lon="16.150271017108352"><ele>933.8</ele><time>2026-04-11T11:30:57.001Z</time></trkpt><trkpt lat="38.358855357755836" lon="16.15035181765624"><ele>933.0</ele><time>2026-04-11T11:30:58.001Z</time></trkpt><trkpt lat="38.3589576210488" lon="16.15043532949284"><ele>932.75</ele><time>2026-04-11T11:30:59.001Z</time></trkpt><trkpt lat="38.359058650965366" lon="16.150514624636543"><ele>932.5</ele><time>2026-04-11T11:31:00.001Z</time></trkpt><trkpt lat="38.359163010565275" lon="16.150595186084274"><ele>932.25</ele><time>2026-04-11T11:31:01.001Z</time></trkpt><trkpt lat="38.359264459612895" lon="16.1506789088551"><ele>932.0</ele><time>2026-04-11T11:31:02.001Z</time></trkpt><trkpt lat="38.35936919141664" lon="16.150760818091435"><ele>932.75</ele><time>2026-04-11T11:31:03.001Z</time></trkpt><trkpt lat="38.35947109603727" lon="16.150835718884814"><ele>933.5</ele><time>2026-04-11T11:31:04.001Z</time></trkpt><trkpt lat="38.35957269953542" lon="16.150921043985466"><ele>934.25</ele><time>2026-04-11T11:31:05.001Z</time></trkpt><trkpt lat="38.359659791327104" lon="16.1509957373203"><ele>935.0</ele><time>2026-04-11T11:31:06.001Z</time></trkpt><trkpt lat="38.35975362818046" lon="16.151064351879356"><ele>935.0000000000001</ele><time>2026-04-11T11:31:07.001Z</time></trkpt><trkpt lat="38.35983973754131" lon="16.151119141797142"><ele>935.0</ele><time>2026-04-11T11:31:08.001Z</time></trkpt><trkpt lat="38.35991035052081" lon="16.151175698990933"><ele>935.0</ele><time>2026-04-11T11:31:09.001Z</time></trkpt><trkpt lat="38.359953577890174" lon="16.15123987634392"><ele>935.0</ele><time>2026-04-11T11:31:10.001Z</time></trkpt><trkpt lat="38.359953246920405" lon="16.1513532420196"><ele>935.0000000000001</ele><time>2026-04-11T11:31:12.001Z</time></trkpt><trkpt lat="38.35993181559586" lon="16.151435067456443"><ele>935.0</ele><time>2026-04-11T11:31:13.001Z</time></trkpt><trkpt lat="38.359898587335245" lon="16.151540903895974"><ele>935.6</ele><time>2026-04-11T11:31:14.001Z</time></trkpt><trkpt lat="38.359858075948374" lon="16.151635797451377"><ele>936.2</ele><time>2026-04-11T11:31:15.001Z</time></trkpt><trkpt lat="38.359824442016226" lon="16.15173531417959"><ele>936.8</ele><time>2026-04-11T11:31:16.001Z</time></trkpt><trkpt lat="38.35978746635521" lon="16.151859056169695"><ele>937.4</ele><time>2026-04-11T11:31:17.001Z</time></trkpt><trkpt lat="38.359761732913626" lon="16.15198413456235"><ele>938.0</ele><time>2026-04-11T11:31:18.001Z</time></trkpt><trkpt lat="38.35974606570423" lon="16.152092280898806"><ele>938.0</ele><time>2026-04-11T11:31:19.001Z</time></trkpt><trkpt lat="38.359749419334555" lon="16.152202718311436"><ele>938.0</ele><time>2026-04-11T11:31:20.001Z</time></trkpt><trkpt lat="38.35975567226198" lon="16.152319023559194"><ele>938.0</ele><time>2026-04-11T11:31:21.001Z</time></trkpt><trkpt lat="38.35976375149353" lon="16.152440104434646"><ele>938.0</ele><time>2026-04-11T11:31:22.001Z</time></trkpt><trkpt lat="38.35977028226378" lon="16.15255906192385"><ele>938.0</ele><time>2026-04-11T11:31:23.001Z</time></trkpt><trkpt lat="38.359765218338474" lon="16.152670959627933"><ele>937.6666666666667</ele><time>2026-04-11T11:31:24.001Z</time></trkpt><trkpt lat="38.359748211090086" lon="16.15278196831527"><ele>937.3333333333334</ele><time>2026-04-11T11:31:25.001Z</time></trkpt><trkpt lat="38.35971100529655" lon="16.152869654206377"><ele>937.0</ele><time>2026-04-11T11:31:26.001Z</time></trkpt><trkpt lat="38.35968751388567" lon="16.15295383121179"><ele>936.6666666666667</ele><time>2026-04-11T11:31:27.001Z</time></trkpt><trkpt lat="38.35968925174711" lon="16.153078437071365"><ele>936.3333333333334</ele><time>2026-04-11T11:31:29.001Z</time></trkpt><trkpt lat="38.359782419233184" lon="16.15316119462217"><ele>936.0</ele><time>2026-04-11T11:31:32.001Z</time></trkpt><trkpt lat="38.359889690986336" lon="16.153134445721584"><ele>936.0</ele><time>2026-04-11T11:31:34.001Z</time></trkpt><trkpt lat="38.35995398417968" lon="16.153108630117398"><ele>936.0</ele><time>2026-04-11T11:31:34.999Z</time></trkpt><trkpt lat="38.36001549668466" lon="16.15306634557035"><ele>936.0</ele><time>2026-04-11T11:31:35.999Z</time></trkpt><trkpt lat="38.36008543502992" lon="16.15301026833274"><ele>936.0</ele><time>2026-04-11T11:31:36.999Z</time></trkpt><trkpt lat="38.360186196725095" lon="16.152990016765653"><ele>936.0</ele><time>2026-04-11T11:31:38.999Z</time></trkpt><trkpt lat="38.360240591957115" lon="16.153030866464768"><ele>936.0</ele><time>2026-04-11T11:31:40Z</time></trkpt><trkpt lat="38.36028321989938" lon="16.153110654351174"><ele>934.1999999999999</ele><time>2026-04-11T11:31:40.999Z</time></trkpt><trkpt lat="38.36032019588298" lon="16.15322473448847"><ele>932.3999999999999</ele><time>2026-04-11T11:31:41.999Z</time></trkpt><trkpt lat="38.360337384123014" lon="16.15334519704883"><ele>930.6</ele><time>2026-04-11T11:31:43Z</time></trkpt><trkpt lat="38.36036959043029" lon="16.153472584378118"><ele>928.8</ele><time>2026-04-11T11:31:44Z</time></trkpt><trkpt lat="38.3604050415499" lon="16.153600308314612"><ele>927.0</ele><time>2026-04-11T11:31:45Z</time></trkpt><trkpt lat="38.3604178214495" lon="16.15369197622738"><ele>927.0</ele><time>2026-04-11T11:31:46Z</time></trkpt><trkpt lat="38.36051372779345" lon="16.153866467422493"><ele>927.0</ele><time>2026-04-11T11:31:48Z</time></trkpt><trkpt lat="38.36056160016159" lon="16.15399941890712"><ele>927.0</ele><time>2026-04-11T11:31:50Z</time></trkpt><trkpt lat="38.36056724511394" lon="16.154081974046065"><ele>927.0</ele><time>2026-04-11T11:31:51Z</time></trkpt><trkpt lat="38.3605738742594" lon="16.15417634821473"><ele>927.0</ele><time>2026-04-11T11:31:52Z</time></trkpt><trkpt lat="38.360556249084546" lon="16.15426720081319"><ele>924.5</ele><time>2026-04-11T11:31:53Z</time></trkpt><trkpt lat="38.36053551044709" lon="16.154448718124254"><ele>922.0</ele><time>2026-04-11T11:31:55Z</time></trkpt><trkpt lat="38.360504678516186" lon="16.15459986180037"><ele>919.5</ele><time>2026-04-11T11:31:56Z</time></trkpt><trkpt lat="38.3604674295828" lon="16.154727755471278"><ele>917.0</ele><time>2026-04-11T11:31:57Z</time></trkpt><trkpt lat="38.36046022066922" lon="16.154831597330993"><ele>914.2</ele><time>2026-04-11T11:31:58Z</time></trkpt><trkpt lat="38.36041099688877" lon="16.154968736543143"><ele>911.4000000000001</ele><time>2026-04-11T11:31:59Z</time></trkpt><trkpt lat="38.36038186942184" lon="16.155091400329564"><ele>908.5999999999999</ele><time>2026-04-11T11:32:00Z</time></trkpt><trkpt lat="38.36036062234413" lon="16.155208185394873"><ele>905.8</ele><time>2026-04-11T11:32:01Z</time></trkpt><trkpt lat="38.360329311057654" lon="16.15531194633519"><ele>903.0</ele><time>2026-04-11T11:32:02Z</time></trkpt><trkpt lat="38.36032332864018" lon="16.155505021912013"><ele>903.0</ele><time>2026-04-11T11:32:04Z</time></trkpt><trkpt lat="38.36034935293109" lon="16.155606930015182"><ele>903.0</ele><time>2026-04-11T11:32:05Z</time></trkpt><trkpt lat="38.36040750476241" lon="16.155737926230927"><ele>903.0</ele><time>2026-04-11T11:32:06Z</time></trkpt><trkpt lat="38.360462527908716" lon="16.15582042127323"><ele>903.0</ele><time>2026-04-11T11:32:07Z</time></trkpt><trkpt lat="38.36051803285781" lon="16.1559158187158"><ele>903.0</ele><time>2026-04-11T11:32:08Z</time></trkpt><trkpt lat="38.36056645383379" lon="16.1560186388041"><ele>903.8</ele><time>2026-04-11T11:32:09Z</time></trkpt><trkpt lat="38.360592410129335" lon="16.156133328844064"><ele>904.5999999999999</ele><time>2026-04-11T11:32:10Z</time></trkpt><trkpt lat="38.36064785408199" lon="16.156218197029943"><ele>905.4000000000001</ele><time>2026-04-11T11:32:11Z</time></trkpt><trkpt lat="38.3606759897256" lon="16.156322430502836"><ele>906.2</ele><time>2026-04-11T11:32:12Z</time></trkpt><trkpt lat="38.3607125630268" lon="16.156466969213415"><ele>907.0</ele><time>2026-04-11T11:32:13Z</time></trkpt><trkpt lat="38.36073724143388" lon="16.1565845133568"><ele>907.0</ele><time>2026-04-11T11:32:14Z</time></trkpt><trkpt lat="38.36076720585595" lon="16.156697610583592"><ele>907.0</ele><time>2026-04-11T11:32:15Z</time></trkpt><trkpt lat="38.36079261126418" lon="16.156813413304665"><ele>907.0</ele><time>2026-04-11T11:32:16Z</time></trkpt><trkpt lat="38.36081794805134" lon="16.156934438960906"><ele>907.0</ele><time>2026-04-11T11:32:17Z</time></trkpt><trkpt lat="38.36084534367384" lon="16.1570508456841"><ele>907.0</ele><time>2026-04-11T11:32:18Z</time></trkpt><trkpt lat="38.36082903364879" lon="16.157172203110964"><ele>907.0</ele><time>2026-04-11T11:32:19Z</time></trkpt><trkpt lat="38.36084424644167" lon="16.157276846931293"><ele>907.0</ele><time>2026-04-11T11:32:20Z</time></trkpt><trkpt lat="38.36085966124631" lon="16.157402331221668"><ele>907.0</ele><time>2026-04-11T11:32:21Z</time></trkpt><trkpt lat="38.360945352942274" lon="16.157468050227013"><ele>907.0</ele><time>2026-04-11T11:32:22Z</time></trkpt><trkpt lat="38.36097991271953" lon="16.157558010328536"><ele>907.0</ele><time>2026-04-11T11:32:23Z</time></trkpt><trkpt lat="38.36104257144562" lon="16.15767207977128"><ele>906.2</ele><time>2026-04-11T11:32:24Z</time></trkpt><trkpt lat="38.361098500381125" lon="16.157782406955324"><ele>905.4000000000001</ele><time>2026-04-11T11:32:25Z</time></trkpt><trkpt lat="38.361109215868744" lon="16.157879844675175"><ele>904.5999999999999</ele><time>2026-04-11T11:32:26Z</time></trkpt><trkpt lat="38.3612170564828" lon="16.157985013591524"><ele>903.8</ele><time>2026-04-11T11:32:28Z</time></trkpt><trkpt lat="38.36132277336842" lon="16.157987011019628"><ele>903.0</ele><time>2026-04-11T11:32:30Z</time></trkpt><trkpt lat="38.36144312172907" lon="16.15796732299405"><ele>902.1666666666666</ele><time>2026-04-11T11:32:32Z</time></trkpt><trkpt lat="38.36151010056161" lon="16.157982087784607"><ele>901.3333333333333</ele><time>2026-04-11T11:32:33Z</time></trkpt><trkpt lat="38.36161774262598" lon="16.15802234445637"><ele>900.5</ele><time>2026-04-11T11:32:35Z</time></trkpt><trkpt lat="38.36168878518046" lon="16.15802650418678"><ele>899.6666666666666</ele><time>2026-04-11T11:32:36.001Z</time></trkpt><trkpt lat="38.36176783952472" lon="16.158031553694872"><ele>898.8333333333333</ele><time>2026-04-11T11:32:38.001Z</time></trkpt><trkpt lat="38.361846943706716" lon="16.158071268706244"><ele>898.0</ele><time>2026-04-11T11:32:40.001Z</time></trkpt><trkpt lat="38.361954845993424" lon="16.158049993069305"><ele>898.0</ele><time>2026-04-11T11:32:43.001Z</time></trkpt><trkpt lat="38.36202314191153" lon="16.158032647648962"><ele>898.0</ele><time>2026-04-11T11:32:44.001Z</time></trkpt><trkpt lat="38.36211171202475" lon="16.157945000626366"><ele>898.0</ele><time>2026-04-11T11:32:46.001Z</time></trkpt><trkpt lat="38.362141124158896" lon="16.15779247271359"><ele>898.0</ele><time>2026-04-11T11:32:48.001Z</time></trkpt><trkpt lat="38.36216095029478" lon="16.1576749299682"><ele>898.0</ele><time>2026-04-11T11:32:50.001Z</time></trkpt><trkpt lat="38.362185396403696" lon="16.15759818669701"><ele>891.5999999999999</ele><time>2026-04-11T11:32:52.001Z</time></trkpt><trkpt lat="38.362240250424385" lon="16.157529583919302"><ele>885.1999999999999</ele><time>2026-04-11T11:32:54.001Z</time></trkpt><trkpt lat="38.362294750632344" lon="16.157457550724022"><ele>878.8</ele><time>2026-04-11T11:32:57.001Z</time></trkpt><trkpt lat="38.36227966273494" lon="16.15736846118731"><ele>872.4</ele><time>2026-04-11T11:33:02.001Z</time></trkpt><trkpt lat="38.362266941901716" lon="16.15724265786388"><ele>866.0</ele><time>2026-04-11T11:33:39.002Z</time></trkpt><trkpt lat="38.36224269160248" lon="16.15706148631159"><ele>864.4</ele><time>2026-04-11T11:33:41Z</time></trkpt><trkpt lat="38.36221185899457" lon="16.156945951134013"><ele>862.8</ele><time>2026-04-11T11:33:42Z</time></trkpt><trkpt lat="38.36218530005993" lon="16.156820669875234"><ele>861.1999999999999</ele><time>2026-04-11T11:33:43Z</time></trkpt><trkpt lat="38.36216929902143" lon="16.15669823612409"><ele>859.5999999999999</ele><time>2026-04-11T11:33:44Z</time></trkpt><trkpt lat="38.362146559266904" lon="16.15655075593281"><ele>858.0</ele><time>2026-04-11T11:33:45Z</time></trkpt><trkpt lat="38.36213416879982" lon="16.15640658850419"><ele>868.2</ele><time>2026-04-11T11:33:46Z</time></trkpt><trkpt lat="38.36211222995089" lon="16.1562675281001"><ele>878.4</ele><time>2026-04-11T11:33:47Z</time></trkpt><trkpt lat="38.36209636393253" lon="16.15614040226249"><ele>888.6000000000001</ele><time>2026-04-11T11:33:48Z</time></trkpt><trkpt lat="38.362098519104705" lon="16.15604007202076"><ele>898.8000000000001</ele><time>2026-04-11T11:33:49Z</time></trkpt><trkpt lat="38.36209774477008" lon="16.15589580292564"><ele>909.0</ele><time>2026-04-11T11:33:50Z</time></trkpt><trkpt lat="38.36206991761965" lon="16.155753715796088"><ele>908.75</ele><time>2026-04-11T11:33:51Z</time></trkpt><trkpt lat="38.36206980150504" lon="16.155608390956225"><ele>908.5</ele><time>2026-04-11T11:33:52Z</time></trkpt><trkpt lat="38.36205743312959" lon="16.155461094807222"><ele>908.25</ele><time>2026-04-11T11:33:53Z</time></trkpt><trkpt lat="38.36204473359325" lon="16.15531586004613"><ele>908.0</ele><time>2026-04-11T11:33:54Z</time></trkpt><trkpt lat="38.362021422835504" lon="16.155182718982438"><ele>908.0</ele><time>2026-04-11T11:33:55Z</time></trkpt><trkpt lat="38.361998352960875" lon="16.155041265408745"><ele>908.0</ele><time>2026-04-11T11:33:56Z</time></trkpt><trkpt lat="38.36199521233884" lon="16.154904965260954"><ele>908.0</ele><time>2026-04-11T11:33:57Z</time></trkpt><trkpt lat="38.36197487317849" lon="16.154763989738317"><ele>908.0</ele><time>2026-04-11T11:33:58Z</time></trkpt><trkpt lat="38.36195293722713" lon="16.154625907993484"><ele>908.0</ele><time>2026-04-11T11:33:59Z</time></trkpt><trkpt lat="38.36193240137346" lon="16.154481485717323"><ele>906.8</ele><time>2026-04-11T11:34:00Z</time></trkpt><trkpt lat="38.36191292662337" lon="16.154350865583208"><ele>905.5999999999999</ele><time>2026-04-11T11:34:01Z</time></trkpt><trkpt lat="38.361897293828505" lon="16.15422844153821"><ele>904.4000000000001</ele><time>2026-04-11T11:34:02Z</time></trkpt><trkpt lat="38.36188102290786" lon="16.15411794837528"><ele>903.2</ele><time>2026-04-11T11:34:03Z</time></trkpt><trkpt lat="38.3618397237542" lon="16.154027162604702"><ele>902.0</ele><time>2026-04-11T11:34:04Z</time></trkpt><trkpt lat="38.36179740663009" lon="16.153930773807755"><ele>901.0000000000001</ele><time>2026-04-11T11:34:05Z</time></trkpt><trkpt lat="38.36176730966186" lon="16.15385916828646"><ele>900.0</ele><time>2026-04-11T11:34:06Z</time></trkpt><trkpt lat="38.36173923586651" lon="16.15373818773201"><ele>899.0</ele><time>2026-04-11T11:34:08Z</time></trkpt><trkpt lat="38.36169703950175" lon="16.15366371338599"><ele>898.0</ele><time>2026-04-11T11:34:09Z</time></trkpt><trkpt lat="38.361642900222805" lon="16.153552604469066"><ele>897.0000000000001</ele><time>2026-04-11T11:34:10Z</time></trkpt><trkpt lat="38.3615992663737" lon="16.153473825126017"><ele>896.0</ele><time>2026-04-11T11:34:11Z</time></trkpt><trkpt lat="38.36156249893751" lon="16.153399593374324"><ele>896.0000000000001</ele><time>2026-04-11T11:34:12Z</time></trkpt><trkpt lat="38.361507883293974" lon="16.15331466669113"><ele>896.0</ele><time>2026-04-11T11:34:14Z</time></trkpt><trkpt lat="38.36145436242817" lon="16.153238606426992"><ele>896.0</ele><time>2026-04-11T11:34:17Z</time></trkpt><trkpt lat="38.36139176959152" lon="16.1531653864368"><ele>896.0</ele><time>2026-04-11T11:34:19Z</time></trkpt><trkpt lat="38.36136421102126" lon="16.153018468996443"><ele>896.0000000000001</ele><time>2026-04-11T11:34:21Z</time></trkpt><trkpt lat="38.36136014370609" lon="16.15293276205341"><ele>896.0</ele><time>2026-04-11T11:34:22Z</time></trkpt><trkpt lat="38.36135591689337" lon="16.152825829272842"><ele>896.0</ele><time>2026-04-11T11:34:23Z</time></trkpt><trkpt lat="38.36135954386059" lon="16.15270584546465"><ele>895.9999999999999</ele><time>2026-04-11T11:34:24Z</time></trkpt><trkpt lat="38.36135113397925" lon="16.152531119990023"><ele>895.9999999999999</ele><time>2026-04-11T11:34:25Z</time></trkpt><trkpt lat="38.361365505163356" lon="16.15241101051628"><ele>896.0</ele><time>2026-04-11T11:34:26Z</time></trkpt><trkpt lat="38.36137552037021" lon="16.15228398819604"><ele>896.0</ele><time>2026-04-11T11:34:27Z</time></trkpt><trkpt lat="38.3613816987421" lon="16.152201548437827"><ele>896.0000000000001</ele><time>2026-04-11T11:34:28Z</time></trkpt><trkpt lat="38.36138606165631" lon="16.15211459402932"><ele>896.0</ele><time>2026-04-11T11:34:29Z</time></trkpt><trkpt lat="38.36136935323144" lon="16.15202275689428"><ele>896.0</ele><time>2026-04-11T11:34:30Z</time></trkpt><trkpt lat="38.36133852344167" lon="16.151939376971384"><ele>896.0</ele><time>2026-04-11T11:34:31Z</time></trkpt><trkpt lat="38.36131525876329" lon="16.151847744519838"><ele>896.0000000000001</ele><time>2026-04-11T11:34:32Z</time></trkpt><trkpt lat="38.36128196349998" lon="16.151758503193683"><ele>896.0</ele><time>2026-04-11T11:34:33Z</time></trkpt><trkpt lat="38.36125193502489" lon="16.151634180708026"><ele>900.0000000000001</ele><time>2026-04-11T11:34:34.001Z</time></trkpt><trkpt lat="38.3612238466151" lon="16.151534384643302"><ele>904.0</ele><time>2026-04-11T11:34:36.001Z</time></trkpt><trkpt lat="38.36119787461725" lon="16.15145228075377"><ele>908.0</ele><time>2026-04-11T11:35:03.001Z</time></trkpt><trkpt lat="38.36118153405214" lon="16.151374274563544"><ele>912.0</ele><time>2026-04-11T11:35:05.001Z</time></trkpt><trkpt lat="38.36119261432004" lon="16.15123386756711"><ele>916.0000000000001</ele><time>2026-04-11T11:35:07.001Z</time></trkpt><trkpt lat="38.36120121080726" lon="16.151143687124968"><ele>920.0</ele><time>2026-04-11T11:35:08.001Z</time></trkpt><trkpt lat="38.36120742064465" lon="16.151038260737156"><ele>920.0</ele><time>2026-04-11T11:35:09.001Z</time></trkpt><trkpt lat="38.36121258783945" lon="16.1509221621322"><ele>920.0</ele><time>2026-04-11T11:35:10.001Z</time></trkpt><trkpt lat="38.3612232524892" lon="16.150789139526076"><ele>920.0</ele><time>2026-04-11T11:35:11.001Z</time></trkpt><trkpt lat="38.361232762566516" lon="16.15069108833645"><ele>920.0</ele><time>2026-04-11T11:35:12.001Z</time></trkpt><trkpt lat="38.36124261601215" lon="16.150534474628955"><ele>920.0</ele><time>2026-04-11T11:35:13.001Z</time></trkpt><trkpt lat="38.36126399437429" lon="16.150385104316737"><ele>919.0</ele><time>2026-04-11T11:35:14.001Z</time></trkpt><trkpt lat="38.36127453899481" lon="16.150232289999636"><ele>918.0</ele><time>2026-04-11T11:35:15.001Z</time></trkpt><trkpt lat="38.361305116856556" lon="16.150078935533394"><ele>917.0</ele><time>2026-04-11T11:35:16.001Z</time></trkpt><trkpt lat="38.361338245678084" lon="16.14995143891259"><ele>916.0</ele><time>2026-04-11T11:35:17.001Z</time></trkpt><trkpt lat="38.361380169468354" lon="16.149829750766603"><ele>916.0</ele><time>2026-04-11T11:35:18.001Z</time></trkpt><trkpt lat="38.361443976516675" lon="16.14970840608719"><ele>916.0</ele><time>2026-04-11T11:35:19.001Z</time></trkpt><trkpt lat="38.36149292123059" lon="16.149559707017612"><ele>916.0</ele><time>2026-04-11T11:35:20.001Z</time></trkpt><trkpt lat="38.36158955704014" lon="16.149424791829123"><ele>916.0</ele><time>2026-04-11T11:35:21.001Z</time></trkpt><trkpt lat="38.36170003299514" lon="16.14929672240872"><ele>916.0</ele><time>2026-04-11T11:35:22.001Z</time></trkpt><trkpt lat="38.361784725724995" lon="16.149179991229392"><ele>916.0</ele><time>2026-04-11T11:35:23.001Z</time></trkpt><trkpt lat="38.36190067332261" lon="16.14907326425273"><ele>916.0</ele><time>2026-04-11T11:35:24.001Z</time></trkpt><trkpt lat="38.361928987384374" lon="16.148962479731136"><ele>916.0</ele><time>2026-04-11T11:35:25.001Z</time></trkpt><trkpt lat="38.361991067951614" lon="16.14883411939124"><ele>914.25</ele><time>2026-04-11T11:35:26.001Z</time></trkpt><trkpt lat="38.36206598047519" lon="16.14869464569571"><ele>912.5</ele><time>2026-04-11T11:35:27.001Z</time></trkpt><trkpt lat="38.36213282539061" lon="16.14854610138671"><ele>910.75</ele><time>2026-04-11T11:35:28.001Z</time></trkpt><trkpt lat="38.36220688176836" lon="16.148422884370028"><ele>909.0</ele><time>2026-04-11T11:35:29.001Z</time></trkpt><trkpt lat="38.36228491072653" lon="16.148262897008344"><ele>908.3333333333333</ele><time>2026-04-11T11:35:30.001Z</time></trkpt><trkpt lat="38.362372425132975" lon="16.148116876728235"><ele>907.6666666666666</ele><time>2026-04-11T11:35:31.001Z</time></trkpt><trkpt lat="38.36248183902069" lon="16.148003103734084"><ele>907.0</ele><time>2026-04-11T11:35:32.002Z</time></trkpt><trkpt lat="38.362605916160916" lon="16.147860123440005"><ele>907.0</ele><time>2026-04-11T11:35:33.002Z</time></trkpt><trkpt lat="38.36274340247638" lon="16.14772471318323"><ele>907.0</ele><time>2026-04-11T11:35:34.002Z</time></trkpt><trkpt lat="38.36286738585562" lon="16.14760389984756"><ele>907.0</ele><time>2026-04-11T11:35:35.002Z</time></trkpt><trkpt lat="38.36297894159109" lon="16.14751592575167"><ele>903.3333333333333</ele><time>2026-04-11T11:35:36.002Z</time></trkpt><trkpt lat="38.36311067517035" lon="16.147442314352794"><ele>899.6666666666667</ele><time>2026-04-11T11:35:37.002Z</time></trkpt><trkpt lat="38.36326335534921" lon="16.14737957628766"><ele>896.0</ele><time>2026-04-11T11:35:38.002Z</time></trkpt><trkpt lat="38.3634316933929" lon="16.147356837760572"><ele>894.0</ele><time>2026-04-11T11:35:39.002Z</time></trkpt><trkpt lat="38.36359161495434" lon="16.14732016050658"><ele>892.0</ele><time>2026-04-11T11:35:40.002Z</time></trkpt><trkpt lat="38.36374331094547" lon="16.147283046007473"><ele>890.0</ele><time>2026-04-11T11:35:41.002Z</time></trkpt><trkpt lat="38.36388603346476" lon="16.14724962937804"><ele>888.0</ele><time>2026-04-11T11:35:42.002Z</time></trkpt><trkpt lat="38.36401925792481" lon="16.1472209260538"><ele>886.0</ele><time>2026-04-11T11:35:43.002Z</time></trkpt><trkpt lat="38.36414258223661" lon="16.147186150621394"><ele>884.0</ele><time>2026-04-11T11:35:44.002Z</time></trkpt><trkpt lat="38.36425177732574" lon="16.147152922549726"><ele>882.0</ele><time>2026-04-11T11:35:45.002Z</time></trkpt><trkpt lat="38.364358504270136" lon="16.147128936358747"><ele>882.0</ele><time>2026-04-11T11:35:46.002Z</time></trkpt><trkpt lat="38.36446134698866" lon="16.147106095370827"><ele>882.0</ele><time>2026-04-11T11:35:47.001Z</time></trkpt><trkpt lat="38.364559221325344" lon="16.147070776755225"><ele>882.0</ele><time>2026-04-11T11:35:48.001Z</time></trkpt><trkpt lat="38.36465150881209" lon="16.147051610454923"><ele>882.0</ele><time>2026-04-11T11:35:49.001Z</time></trkpt><trkpt lat="38.364752532888446" lon="16.147054470178894"><ele>882.0</ele><time>2026-04-11T11:35:50.001Z</time></trkpt><trkpt lat="38.36484946300617" lon="16.147057235853914"><ele>883.1666666666666</ele><time>2026-04-11T11:35:51.001Z</time></trkpt><trkpt lat="38.36492715080505" lon="16.147054485928987"><ele>884.3333333333333</ele><time>2026-04-11T11:35:52.001Z</time></trkpt><trkpt lat="38.36501242734952" lon="16.14706172223636"><ele>885.5</ele><time>2026-04-11T11:35:53.001Z</time></trkpt><trkpt lat="38.365100915750176" lon="16.14705176952283"><ele>886.6666666666666</ele><time>2026-04-11T11:35:54.001Z</time></trkpt><trkpt lat="38.365194724761025" lon="16.14705646797209"><ele>887.8333333333333</ele><time>2026-04-11T11:35:55.001Z</time></trkpt><trkpt lat="38.36528822136608" lon="16.14705532312712"><ele>889.0</ele><time>2026-04-11T11:35:56Z</time></trkpt><trkpt lat="38.36538625971842" lon="16.147074078581596"><ele>889.0</ele><time>2026-04-11T11:35:57Z</time></trkpt><trkpt lat="38.365479927789174" lon="16.147084239609686"><ele>889.0000000000001</ele><time>2026-04-11T11:35:58Z</time></trkpt><trkpt lat="38.36560717390953" lon="16.147086552438367"><ele>889.0000000000001</ele><time>2026-04-11T11:35:59Z</time></trkpt><trkpt lat="38.36570600859782" lon="16.14709975480111"><ele>889.0</ele><time>2026-04-11T11:36:00Z</time></trkpt><trkpt lat="38.365817965889676" lon="16.147113195100214"><ele>889.0</ele><time>2026-04-11T11:36:01Z</time></trkpt><trkpt lat="38.36591270550987" lon="16.14716401666003"><ele>887.4000000000001</ele><time>2026-04-11T11:36:02Z</time></trkpt><trkpt lat="38.36600924159355" lon="16.147166238011575"><ele>885.8000000000001</ele><time>2026-04-11T11:36:03Z</time></trkpt><trkpt lat="38.36610225683519" lon="16.147182240093684"><ele>884.1999999999999</ele><time>2026-04-11T11:36:04Z</time></trkpt><trkpt lat="38.3661994224529" lon="16.14718520455454"><ele>882.5999999999999</ele><time>2026-04-11T11:36:05Z</time></trkpt><trkpt lat="38.366288752068364" lon="16.147193540353122"><ele>881.0</ele><time>2026-04-11T11:36:06.001Z</time></trkpt><trkpt lat="38.36636337635952" lon="16.147206002097427"><ele>879.8</ele><time>2026-04-11T11:36:07.001Z</time></trkpt><trkpt lat="38.36644714904176" lon="16.147253513479427"><ele>878.5999999999999</ele><time>2026-04-11T11:36:08.001Z</time></trkpt><trkpt lat="38.36653343528504" lon="16.14730394535611"><ele>877.4</ele><time>2026-04-11T11:36:09.001Z</time></trkpt><trkpt lat="38.36662607150766" lon="16.14736924572321"><ele>876.2</ele><time>2026-04-11T11:36:10.001Z</time></trkpt><trkpt lat="38.36671571131851" lon="16.147453341521082"><ele>875.0</ele><time>2026-04-11T11:36:11.001Z</time></trkpt><trkpt lat="38.36680609727962" lon="16.147547312337387"><ele>875.0</ele><time>2026-04-11T11:36:12.001Z</time></trkpt><trkpt lat="38.366888793579676" lon="16.14765370551331"><ele>875.0</ele><time>2026-04-11T11:36:13.001Z</time></trkpt><trkpt lat="38.36694390055395" lon="16.147767341549407"><ele>875.0</ele><time>2026-04-11T11:36:14.001Z</time></trkpt><trkpt lat="38.36696958280837" lon="16.147884379870437"><ele>875.0</ele><time>2026-04-11T11:36:15.001Z</time></trkpt><trkpt lat="38.36697160561232" lon="16.148025379616964"><ele>875.0</ele><time>2026-04-11T11:36:16.001Z</time></trkpt><trkpt lat="38.36694212948464" lon="16.148185486005893"><ele>877.75</ele><time>2026-04-11T11:36:17.001Z</time></trkpt><trkpt lat="38.36690256197245" lon="16.148336173263964"><ele>880.5</ele><time>2026-04-11T11:36:18.001Z</time></trkpt><trkpt lat="38.366845455042714" lon="16.148485839120173"><ele>883.25</ele><time>2026-04-11T11:36:19.001Z</time></trkpt><trkpt lat="38.366784754340486" lon="16.14861328250623"><ele>886.0</ele><time>2026-04-11T11:36:20.001Z</time></trkpt><trkpt lat="38.366715047629484" lon="16.14869301941526"><ele>885.9999999999999</ele><time>2026-04-11T11:36:21.001Z</time></trkpt><trkpt lat="38.36664432651503" lon="16.148757235692813"><ele>886.0</ele><time>2026-04-11T11:36:22.001Z</time></trkpt><trkpt lat="38.36658260677422" lon="16.148842197834117"><ele>886.0</ele><time>2026-04-11T11:36:23.001Z</time></trkpt><trkpt lat="38.36654024558146" lon="16.148913339805716"><ele>886.0</ele><time>2026-04-11T11:36:24.001Z</time></trkpt><trkpt lat="38.36649449591726" lon="16.14900628018927"><ele>885.9999999999999</ele><time>2026-04-11T11:36:26.001Z</time></trkpt><trkpt lat="38.36649122385089" lon="16.149101394971886"><ele>886.0</ele><time>2026-04-11T11:36:30.001Z</time></trkpt><trkpt lat="38.36654932076115" lon="16.149226363386667"><ele>885.3333333333333</ele><time>2026-04-11T11:36:32.001Z</time></trkpt><trkpt lat="38.366600956171254" lon="16.14928969769222"><ele>884.6666666666666</ele><time>2026-04-11T11:36:33.001Z</time></trkpt><trkpt lat="38.366679658942246" lon="16.149386496320318"><ele>884.0</ele><time>2026-04-11T11:36:35.001Z</time></trkpt><trkpt lat="38.36674456753421" lon="16.149437848497115"><ele>883.3333333333333</ele><time>2026-04-11T11:36:37.001Z</time></trkpt><trkpt lat="38.36680972060469" lon="16.14949224519508"><ele>882.6666666666666</ele><time>2026-04-11T11:36:40.001Z</time></trkpt><trkpt lat="38.36687045250093" lon="16.149550092114506"><ele>882.0</ele><time>2026-04-11T11:36:44.001Z</time></trkpt><trkpt lat="38.366933887411186" lon="16.149599130156183"><ele>882.0</ele><time>2026-04-11T11:36:46.001Z</time></trkpt><trkpt lat="38.36702037545323" lon="16.149702787931027"><ele>882.0</ele><time>2026-04-11T11:36:48.001Z</time></trkpt><trkpt lat="38.36707813821026" lon="16.149760127439944"><ele>882.0</ele><time>2026-04-11T11:36:49.001Z</time></trkpt><trkpt lat="38.367168765380455" lon="16.149847338687906"><ele>882.0</ele><time>2026-04-11T11:36:51.001Z</time></trkpt><trkpt lat="38.367222860616586" lon="16.14990204814833"><ele>882.0</ele><time>2026-04-11T11:36:52.001Z</time></trkpt><trkpt lat="38.367295751859736" lon="16.14991302264771"><ele>882.0</ele><time>2026-04-11T11:36:53.001Z</time></trkpt><trkpt lat="38.367435717665664" lon="16.149946036428243"><ele>881.5</ele><time>2026-04-11T11:36:55.001Z</time></trkpt><trkpt lat="38.36752881011584" lon="16.14994631561892"><ele>881.0</ele><time>2026-04-11T11:36:56.001Z</time></trkpt><trkpt lat="38.367649244562394" lon="16.14997555084563"><ele>880.5</ele><time>2026-04-11T11:36:57.001Z</time></trkpt><trkpt lat="38.36777111075976" lon="16.149994967665023"><ele>880.0</ele><time>2026-04-11T11:36:58.001Z</time></trkpt><trkpt lat="38.36789587974775" lon="16.149998487508654"><ele>880.0</ele><time>2026-04-11T11:36:59.001Z</time></trkpt><trkpt lat="38.36801581179578" lon="16.150002927440273"><ele>880.0</ele><time>2026-04-11T11:37:00.001Z</time></trkpt><trkpt lat="38.368130251408346" lon="16.150020133880552"><ele>880.0</ele><time>2026-04-11T11:37:01.001Z</time></trkpt><trkpt lat="38.368223970725175" lon="16.15002089486769"><ele>880.0</ele><time>2026-04-11T11:37:02.001Z</time></trkpt><trkpt lat="38.368332264082255" lon="16.150031975580283"><ele>880.0</ele><time>2026-04-11T11:37:03.001Z</time></trkpt><trkpt lat="38.368431064243715" lon="16.15005107970408"><ele>881.0</ele><time>2026-04-11T11:37:04.001Z</time></trkpt><trkpt lat="38.36853803494505" lon="16.15006431375813"><ele>882.0</ele><time>2026-04-11T11:37:05.001Z</time></trkpt><trkpt lat="38.36865590173939" lon="16.150091203845857"><ele>883.0</ele><time>2026-04-11T11:37:06.001Z</time></trkpt><trkpt lat="38.368768518277754" lon="16.150139434016943"><ele>884.0</ele><time>2026-04-11T11:37:07.001Z</time></trkpt><trkpt lat="38.36886413839057" lon="16.150200529848608"><ele>884.25</ele><time>2026-04-11T11:37:08.001Z</time></trkpt><trkpt lat="38.36895968407842" lon="16.15029102058891"><ele>884.5</ele><time>2026-04-11T11:37:09.001Z</time></trkpt><trkpt lat="38.36904367266774" lon="16.15039633646518"><ele>884.75</ele><time>2026-04-11T11:37:10.001Z</time></trkpt><trkpt lat="38.36912638374894" lon="16.150526160049388"><ele>885.0</ele><time>2026-04-11T11:37:11.001Z</time></trkpt><trkpt lat="38.369185816214035" lon="16.15060722791604"><ele>885.0</ele><time>2026-04-11T11:37:12.001Z</time></trkpt><trkpt lat="38.36927373485518" lon="16.150681068366737"><ele>885.0</ele><time>2026-04-11T11:37:13.001Z</time></trkpt><trkpt lat="38.36933819832602" lon="16.150726363435595"><ele>885.0</ele><time>2026-04-11T11:37:14.001Z</time></trkpt><trkpt lat="38.36944053208517" lon="16.150748340656964"><ele>885.0</ele><time>2026-04-11T11:37:16.001Z</time></trkpt><trkpt lat="38.36951349971926" lon="16.150748549481033"><ele>885.0</ele><time>2026-04-11T11:37:17.001Z</time></trkpt><trkpt lat="38.36956656227162" lon="16.15070399603191"><ele>885.0</ele><time>2026-04-11T11:37:20.002Z</time></trkpt><trkpt lat="38.36950279440345" lon="16.150773179980757"><ele>885.5</ele><time>2026-04-11T11:37:49.002Z</time></trkpt><trkpt lat="38.3694327159892" lon="16.150762286814686"><ele>886.0</ele><time>2026-04-11T11:37:51.002Z</time></trkpt><trkpt lat="38.36937044174001" lon="16.150748361411104"><ele>886.5</ele><time>2026-04-11T11:37:52.002Z</time></trkpt><trkpt lat="38.369336463897305" lon="16.15081697170998"><ele>887.0</ele><time>2026-04-11T11:37:55.001Z</time></trkpt><trkpt lat="38.369404424097176" lon="16.150873158912315"><ele>887.5</ele><time>2026-04-11T11:38:03.001Z</time></trkpt><trkpt lat="38.36948336632172" lon="16.150958095244377"><ele>888.0</ele><time>2026-04-11T11:38:06.001Z</time></trkpt><trkpt lat="38.369535678325626" lon="16.151019177260824"><ele>888.0</ele><time>2026-04-11T11:38:10.001Z</time></trkpt><trkpt lat="38.369603621734626" lon="16.151051879744823"><ele>888.0</ele><time>2026-04-11T11:38:13.001Z</time></trkpt><trkpt lat="38.36964165680574" lon="16.151144622428593"><ele>888.0</ele><time>2026-04-11T11:38:16.001Z</time></trkpt><trkpt lat="38.36968795269363" lon="16.15121192324818"><ele>888.0</ele><time>2026-04-11T11:38:21.001Z</time></trkpt><trkpt lat="38.369767045071825" lon="16.151216235624172"><ele>888.0</ele><time>2026-04-11T11:38:26.001Z</time></trkpt><trkpt lat="38.36983131462819" lon="16.151142517579277"><ele>888.0</ele><time>2026-04-11T11:38:29.001Z</time></trkpt><trkpt lat="38.36989934637923" lon="16.151182610350904"><ele>887.0</ele><time>2026-04-11T11:38:32.001Z</time></trkpt><trkpt lat="38.36997832918486" lon="16.151137108654616"><ele>886.0</ele><time>2026-04-11T11:38:34.001Z</time></trkpt><trkpt lat="38.370057104600335" lon="16.151042501344385"><ele>885.0</ele><time>2026-04-11T11:38:36.001Z</time></trkpt><trkpt lat="38.37014166671554" lon="16.15099148125711"><ele>884.0</ele><time>2026-04-11T11:38:39.001Z</time></trkpt><trkpt lat="38.37024658944415" lon="16.15094905929299"><ele>883.0</ele><time>2026-04-11T11:38:41.001Z</time></trkpt><trkpt lat="38.37030176264619" lon="16.150879946130264"><ele>883.0</ele><time>2026-04-11T11:38:43.001Z</time></trkpt><trkpt lat="38.37038263411996" lon="16.150783011368166"><ele>883.0</ele><time>2026-04-11T11:38:45.001Z</time></trkpt><trkpt lat="38.370451296314364" lon="16.150705882038164"><ele>883.0</ele><time>2026-04-11T11:38:46.001Z</time></trkpt><trkpt lat="38.37053690434355" lon="16.150630703677486"><ele>883.0</ele><time>2026-04-11T11:38:48.001Z</time></trkpt><trkpt lat="38.37060528422313" lon="16.15056987525528"><ele>883.0</ele><time>2026-04-11T11:38:51.001Z</time></trkpt><trkpt lat="38.370678488679935" lon="16.150547423282358"><ele>885.9999999999999</ele><time>2026-04-11T11:38:55.001Z</time></trkpt><trkpt lat="38.37076841619292" lon="16.150595352810544"><ele>889.0</ele><time>2026-04-11T11:39:03.001Z</time></trkpt><trkpt lat="38.370868823941436" lon="16.150558792693893"><ele>892.0</ele><time>2026-04-11T11:39:05.001Z</time></trkpt><trkpt lat="38.370937141467145" lon="16.15055295910093"><ele>895.0</ele><time>2026-04-11T11:39:06.001Z</time></trkpt><trkpt lat="38.37100461641369" lon="16.150560148516597"><ele>897.9999999999999</ele><time>2026-04-11T11:39:08.001Z</time></trkpt><trkpt lat="38.371069851622984" lon="16.150568996917492"><ele>901.0</ele><time>2026-04-11T11:39:24.001Z</time></trkpt><trkpt lat="38.37113872581287" lon="16.150547385593782"><ele>900.9999999999999</ele><time>2026-04-11T11:39:33.001Z</time></trkpt><trkpt lat="38.37123961854924" lon="16.15055413644276"><ele>901.0</ele><time>2026-04-11T11:39:35.001Z</time></trkpt><trkpt lat="38.37130351102123" lon="16.15058198788059"><ele>901.0</ele><time>2026-04-11T11:39:38.002Z</time></trkpt><trkpt lat="38.37130941861503" lon="16.150662757729663"><ele>901.0</ele><time>2026-04-11T11:39:44.002Z</time></trkpt><trkpt lat="38.371263811046134" lon="16.15071882371833"><ele>900.9999999999999</ele><time>2026-04-11T11:44:47.001Z</time></trkpt><trkpt lat="38.371339198948505" lon="16.15078197217518"><ele>901.0</ele><time>2026-04-11T11:48:04.001Z</time></trkpt><trkpt lat="38.37138540931532" lon="16.15085063706711"><ele>898.1666666666666</ele><time>2026-04-11T11:48:09.001Z</time></trkpt><trkpt lat="38.371445440267266" lon="16.150905314855585"><ele>895.3333333333333</ele><time>2026-04-11T11:48:12.001Z</time></trkpt><trkpt lat="38.37140859336898" lon="16.150984035461438"><ele>892.5</ele><time>2026-04-11T11:48:15.001Z</time></trkpt><trkpt lat="38.37143602176504" lon="16.15109652575819"><ele>889.6666666666667</ele><time>2026-04-11T11:48:17.001Z</time></trkpt><trkpt lat="38.371492061319934" lon="16.15120066556239"><ele>886.8333333333334</ele><time>2026-04-11T11:48:20.001Z</time></trkpt><trkpt lat="38.37145337273665" lon="16.15130029667241"><ele>884.0</ele><time>2026-04-11T11:48:22.001Z</time></trkpt><trkpt lat="38.37145684799855" lon="16.151397896500182"><ele>884.0000000000001</ele><time>2026-04-11T11:48:23.999Z</time></trkpt><trkpt lat="38.371486028807055" lon="16.151474721747007"><ele>884.0</ele><time>2026-04-11T11:48:24.999Z</time></trkpt><trkpt lat="38.37147854587917" lon="16.151581616950686"><ele>884.0</ele><time>2026-04-11T11:48:26.999Z</time></trkpt><trkpt lat="38.37154997966987" lon="16.151536169774253"><ele>884.0</ele><time>2026-04-11T11:48:29.999Z</time></trkpt><trkpt lat="38.37160856230577" lon="16.151474637224585"><ele>884.0000000000001</ele><time>2026-04-11T11:48:39Z</time></trkpt><trkpt lat="38.37166008320736" lon="16.151420827662772"><ele>884.0</ele><time>2026-04-11T11:48:48Z</time></trkpt><trkpt lat="38.371677309855166" lon="16.151314477441403"><ele>884.0000000000001</ele><time>2026-04-11T11:48:51Z</time></trkpt><trkpt lat="38.37169781974573" lon="16.151166179095192"><ele>884.0</ele><time>2026-04-11T11:48:53Z</time></trkpt><trkpt lat="38.37173390446326" lon="16.15109345923033"><ele>884.0</ele><time>2026-04-11T11:48:54Z</time></trkpt><trkpt lat="38.37180076046541" lon="16.151066477566413"><ele>884.0</ele><time>2026-04-11T11:48:55Z</time></trkpt><trkpt lat="38.371880942131966" lon="16.151090447005537"><ele>884.0000000000001</ele><time>2026-04-11T11:48:57Z</time></trkpt><trkpt lat="38.37198109226936" lon="16.151073283226125"><ele>884.0</ele><time>2026-04-11T11:49:20Z</time></trkpt><trkpt lat="38.37204471657611" lon="16.151081231378974"><ele>884.0000000000001</ele><time>2026-04-11T11:49:22Z</time></trkpt><trkpt lat="38.372127461915525" lon="16.151050462278064"><ele>884.0</ele><time>2026-04-11T11:49:24Z</time></trkpt><trkpt lat="38.37224053433613" lon="16.151106132454892"><ele>884.0</ele><time>2026-04-11T11:49:26Z</time></trkpt><trkpt lat="38.3722956051412" lon="16.151166389879446"><ele>884.0</ele><time>2026-04-11T11:49:28Z</time></trkpt><trkpt lat="38.3723589514139" lon="16.151211530145545"><ele>884.0000000000001</ele><time>2026-04-11T11:49:29Z</time></trkpt><trkpt lat="38.37241130375095" lon="16.151265955162245"><ele>884.0</ele><time>2026-04-11T11:49:30Z</time></trkpt><trkpt lat="38.37238697618188" lon="16.151368883554216"><ele>885.0</ele><time>2026-04-11T11:49:32Z</time></trkpt><trkpt lat="38.37236697351218" lon="16.151538161586"><ele>886.0000000000001</ele><time>2026-04-11T11:49:34Z</time></trkpt><trkpt lat="38.37244422632971" lon="16.151601398984955"><ele>887.0000000000001</ele><time>2026-04-11T11:49:36.001Z</time></trkpt><trkpt lat="38.372510911062705" lon="16.151712968856195"><ele>888.0</ele><time>2026-04-11T11:49:38.001Z</time></trkpt><trkpt lat="38.372528959316014" lon="16.15182585518952"><ele>889.0</ele><time>2026-04-11T11:49:39.001Z</time></trkpt><trkpt lat="38.372512221470586" lon="16.15196571077563"><ele>888.9999999999999</ele><time>2026-04-11T11:49:41.001Z</time></trkpt><trkpt lat="38.37248289208802" lon="16.152064669594"><ele>889.0</ele><time>2026-04-11T11:49:42.001Z</time></trkpt><trkpt lat="38.3724179086939" lon="16.152147568122224"><ele>889.0</ele><time>2026-04-11T11:49:43.001Z</time></trkpt><trkpt lat="38.37237600389503" lon="16.152208792111157"><ele>889.0</ele><time>2026-04-11T11:49:44.001Z</time></trkpt><trkpt lat="38.3723191337004" lon="16.15227156485746"><ele>888.9999999999999</ele><time>2026-04-11T11:49:46.001Z</time></trkpt><trkpt lat="38.37226747337294" lon="16.152342506297348"><ele>889.0</ele><time>2026-04-11T11:49:48.001Z</time></trkpt><trkpt lat="38.372307831691835" lon="16.152406309482036"><ele>886.8333333333333</ele><time>2026-04-11T11:49:52.001Z</time></trkpt><trkpt lat="38.37232752804729" lon="16.15248538356695"><ele>884.6666666666666</ele><time>2026-04-11T11:49:59.001Z</time></trkpt><trkpt lat="38.37244209535173" lon="16.152568442445954"><ele>882.5</ele><time>2026-04-11T11:50:02.001Z</time></trkpt><trkpt lat="38.37254223347396" lon="16.152590735567586"><ele>880.3333333333333</ele><time>2026-04-11T11:50:04.001Z</time></trkpt><trkpt lat="38.37260884611473" lon="16.152621134611696"><ele>878.1666666666666</ele><time>2026-04-11T11:50:06.001Z</time></trkpt><trkpt lat="38.3726723208901" lon="16.152668360204984"><ele>876.0</ele><time>2026-04-11T11:50:07.001Z</time></trkpt><trkpt lat="38.37274421785305" lon="16.15271903525366"><ele>876.0</ele><time>2026-04-11T11:50:08.001Z</time></trkpt><trkpt lat="38.37281101489578" lon="16.15270271758023"><ele>875.9999999999999</ele><time>2026-04-11T11:50:09.001Z</time></trkpt><trkpt lat="38.37286827289451" lon="16.15277762227053"><ele>875.9999999999999</ele><time>2026-04-11T11:50:11.001Z</time></trkpt><trkpt lat="38.372976297951546" lon="16.152840755427597"><ele>876.0</ele><time>2026-04-11T11:50:13.001Z</time></trkpt><trkpt lat="38.373097919537024" lon="16.15288116891739"><ele>876.0</ele><time>2026-04-11T11:50:14.001Z</time></trkpt><trkpt lat="38.37317517400045" lon="16.15296026546004"><ele>876.25</ele><time>2026-04-11T11:50:15.001Z</time></trkpt><trkpt lat="38.37325131167058" lon="16.152990615513264"><ele>876.5</ele><time>2026-04-11T11:50:16.001Z</time></trkpt><trkpt lat="38.373355838374586" lon="16.15310211232775"><ele>876.75</ele><time>2026-04-11T11:50:18.001Z</time></trkpt><trkpt lat="38.37345611653889" lon="16.153134001315337"><ele>877.0</ele><time>2026-04-11T11:50:20.001Z</time></trkpt><trkpt lat="38.37361017985566" lon="16.153233191720826"><ele>877.0</ele><time>2026-04-11T11:50:22.001Z</time></trkpt><trkpt lat="38.3736598283782" lon="16.15332185303879"><ele>877.0</ele><time>2026-04-11T11:50:24.001Z</time></trkpt><trkpt lat="38.37371989433874" lon="16.15336168454125"><ele>877.0</ele><time>2026-04-11T11:50:25.001Z</time></trkpt><trkpt lat="38.373788789866566" lon="16.153418207099826"><ele>877.0</ele><time>2026-04-11T11:50:26.001Z</time></trkpt><trkpt lat="38.3738925076715" lon="16.153514844197048"><ele>877.0</ele><time>2026-04-11T11:50:27.001Z</time></trkpt><trkpt lat="38.373955486240305" lon="16.153656590034686"><ele>880.2</ele><time>2026-04-11T11:50:28.999Z</time></trkpt><trkpt lat="38.37396355203414" lon="16.153852991160665"><ele>883.4000000000001</ele><time>2026-04-11T11:50:30.999Z</time></trkpt><trkpt lat="38.373984287455386" lon="16.153944397969088"><ele>886.5999999999999</ele><time>2026-04-11T11:50:31.999Z</time></trkpt><trkpt lat="38.37409481592568" lon="16.15400482686681"><ele>889.8</ele><time>2026-04-11T11:50:32.999Z</time></trkpt><trkpt lat="38.37414240816674" lon="16.154080458401793"><ele>893.0</ele><time>2026-04-11T11:50:33.999Z</time></trkpt><trkpt lat="38.374157507954294" lon="16.15416891128296"><ele>893.0</ele><time>2026-04-11T11:50:34.999Z</time></trkpt><trkpt lat="38.374174042760934" lon="16.154318425816008"><ele>893.0</ele><time>2026-04-11T11:50:35.999Z</time></trkpt><trkpt lat="38.37414397043009" lon="16.15446558828728"><ele>893.0</ele><time>2026-04-11T11:50:36.999Z</time></trkpt><trkpt lat="38.37412646006522" lon="16.154593338180984"><ele>893.0</ele><time>2026-04-11T11:50:37.999Z</time></trkpt><trkpt lat="38.37406874066602" lon="16.154716368707806"><ele>893.0000000000001</ele><time>2026-04-11T11:50:38.999Z</time></trkpt><trkpt lat="38.37405325150516" lon="16.154858565917174"><ele>893.0</ele><time>2026-04-11T11:50:39.999Z</time></trkpt><trkpt lat="38.37405921190633" lon="16.154955837676304"><ele>893.0</ele><time>2026-04-11T11:50:40.999Z</time></trkpt><trkpt lat="38.37407005988041" lon="16.155043845967242"><ele>893.0</ele><time>2026-04-11T11:50:41.999Z</time></trkpt><trkpt lat="38.37407383218454" lon="16.155159135520556"><ele>893.0000000000001</ele><time>2026-04-11T11:50:42.999Z</time></trkpt><trkpt lat="38.37408002883797" lon="16.155241604173792"><ele>893.0</ele><time>2026-04-11T11:50:43.999Z</time></trkpt><trkpt lat="38.374054218919476" lon="16.155336103675186"><ele>893.0000000000001</ele><time>2026-04-11T11:50:44.999Z</time></trkpt><trkpt lat="38.37402537675152" lon="16.15549043673937"><ele>893.0</ele><time>2026-04-11T11:50:45.999Z</time></trkpt><trkpt lat="38.373968383259204" lon="16.155593521962835"><ele>893.0</ele><time>2026-04-11T11:50:46.999Z</time></trkpt><trkpt lat="38.37393184939469" lon="16.15566401302279"><ele>893.0</ele><time>2026-04-11T11:50:47.999Z</time></trkpt><trkpt lat="38.3738908497766" lon="16.155737141004625"><ele>893.0000000000001</ele><time>2026-04-11T11:50:48.999Z</time></trkpt><trkpt lat="38.373867987963806" lon="16.155831651594486"><ele>893.0</ele><time>2026-04-11T11:50:49.999Z</time></trkpt><trkpt lat="38.37387460625209" lon="16.15596932083882"><ele>893.0000000000001</ele><time>2026-04-11T11:50:50.999Z</time></trkpt><trkpt lat="38.37387080362057" lon="16.156094169119864"><ele>893.0</ele><time>2026-04-11T11:50:51.999Z</time></trkpt><trkpt lat="38.37388482213317" lon="16.15618134720639"><ele>893.0</ele><time>2026-04-11T11:50:52.999Z</time></trkpt><trkpt lat="38.37378919395354" lon="16.156281475720142"><ele>893.0</ele><time>2026-04-11T11:50:56Z</time></trkpt><trkpt lat="38.373779053355015" lon="16.156376506024273"><ele>893.0000000000001</ele><time>2026-04-11T11:52:15.001Z</time></trkpt><trkpt lat="38.37372112188312" lon="16.156421280136836"><ele>893.0</ele><time>2026-04-11T11:52:19.001Z</time></trkpt><trkpt lat="38.3736671923692" lon="16.156483984915813"><ele>888.1666666666667</ele><time>2026-04-11T11:52:22.001Z</time></trkpt><trkpt lat="38.37362653789912" lon="16.15655130591599"><ele>883.3333333333334</ele><time>2026-04-11T11:52:25.001Z</time></trkpt><trkpt lat="38.373576481176606" lon="16.156602900201577"><ele>878.5</ele><time>2026-04-11T11:52:29.001Z</time></trkpt><trkpt lat="38.37349122331445" lon="16.156681458075212"><ele>873.6666666666667</ele><time>2026-04-11T11:52:31.001Z</time></trkpt><trkpt lat="38.37343047280983" lon="16.156751403338106"><ele>868.8333333333334</ele><time>2026-04-11T11:52:35Z</time></trkpt><trkpt lat="38.37343187365906" lon="16.156863503106468"><ele>864.0</ele><time>2026-04-11T11:52:39Z</time></trkpt><trkpt lat="38.37346716488113" lon="16.1569359326391"><ele>864.0</ele><time>2026-04-11T11:52:40Z</time></trkpt><trkpt lat="38.373531110264906" lon="16.156991108047208"><ele>864.0</ele><time>2026-04-11T11:52:41Z</time></trkpt><trkpt lat="38.37361306881676" lon="16.15700592940966"><ele>864.0</ele><time>2026-04-11T11:52:56Z</time></trkpt><trkpt lat="38.37360162516091" lon="16.15709345841953"><ele>864.0</ele><time>2026-04-11T11:53:39.001Z</time></trkpt><trkpt lat="38.37356006287197" lon="16.15718206051963"><ele>864.0</ele><time>2026-04-11T11:53:43.001Z</time></trkpt><trkpt lat="38.37351256190404" lon="16.15726361866758"><ele>864.0</ele><time>2026-04-11T11:53:45.001Z</time></trkpt><trkpt lat="38.373492898351614" lon="16.15733995808999"><ele>864.0</ele><time>2026-04-11T11:53:47.001Z</time></trkpt><trkpt lat="38.37344731203712" lon="16.157478840414548"><ele>864.0</ele><time>2026-04-11T11:53:49.001Z</time></trkpt><trkpt lat="38.37346125717005" lon="16.157568908490077"><ele>864.0</ele><time>2026-04-11T11:53:51.001Z</time></trkpt><trkpt lat="38.37352485367095" lon="16.15761615959334"><ele>864.0</ele><time>2026-04-11T11:53:52.001Z</time></trkpt><trkpt lat="38.3735808840223" lon="16.157672182240496"><ele>864.0</ele><time>2026-04-11T11:53:53.001Z</time></trkpt><trkpt lat="38.37363450205711" lon="16.157732297569165"><ele>864.0</ele><time>2026-04-11T11:53:55.001Z</time></trkpt><trkpt lat="38.373720400654854" lon="16.157812510940484"><ele>864.0</ele><time>2026-04-11T11:53:57.001Z</time></trkpt><trkpt lat="38.37379115417135" lon="16.157892083252293"><ele>864.0</ele><time>2026-04-11T11:54:00.001Z</time></trkpt><trkpt lat="38.37387797854176" lon="16.157883824624108"><ele>864.0</ele><time>2026-04-11T11:54:02.001Z</time></trkpt><trkpt lat="38.373925620995166" lon="16.1577963530483"><ele>864.0</ele><time>2026-04-11T11:54:04.001Z</time></trkpt><trkpt lat="38.373961237414434" lon="16.15772787000577"><ele>864.0</ele><time>2026-04-11T11:54:05.001Z</time></trkpt><trkpt lat="38.37400734763981" lon="16.157653216511697"><ele>864.0</ele><time>2026-04-11T11:54:06.001Z</time></trkpt><trkpt lat="38.374050094556935" lon="16.1575620872657"><ele>865.8333333333334</ele><time>2026-04-11T11:54:07.001Z</time></trkpt><trkpt lat="38.37408987584672" lon="16.15748551942076"><ele>867.6666666666667</ele><time>2026-04-11T11:54:08.001Z</time></trkpt><trkpt lat="38.374113554413384" lon="16.157404745894564"><ele>869.5</ele><time>2026-04-11T11:54:09.001Z</time></trkpt><trkpt lat="38.37413579209565" lon="16.157327257499183"><ele>871.3333333333334</ele><time>2026-04-11T11:54:10.001Z</time></trkpt><trkpt lat="38.37415016593994" lon="16.157153650526727"><ele>873.1666666666667</ele><time>2026-04-11T11:54:12.001Z</time></trkpt><trkpt lat="38.37417509020366" lon="16.157034685343575"><ele>875.0</ele><time>2026-04-11T11:54:13.001Z</time></trkpt><trkpt lat="38.37419583175768" lon="16.156950735279825"><ele>877.8</ele><time>2026-04-11T11:54:14.001Z</time></trkpt><trkpt lat="38.37424606224157" lon="16.1568388239431"><ele>880.6</ele><time>2026-04-11T11:54:16.001Z</time></trkpt><trkpt lat="38.37429651384742" lon="16.156742611098053"><ele>883.4000000000001</ele><time>2026-04-11T11:54:18.001Z</time></trkpt><trkpt lat="38.374364630511245" lon="16.156777413911584"><ele>886.2</ele><time>2026-04-11T11:54:24.001Z</time></trkpt><trkpt lat="38.37438525305962" lon="16.15688956404885"><ele>889.0</ele><time>2026-04-11T11:54:26.001Z</time></trkpt><trkpt lat="38.37443324084946" lon="16.15704569241356"><ele>889.0</ele><time>2026-04-11T11:54:28.001Z</time></trkpt><trkpt lat="38.37444380332676" lon="16.157193433484824"><ele>889.0000000000001</ele><time>2026-04-11T11:54:35.002Z</time></trkpt><trkpt lat="38.37443786046813" lon="16.157287867293267"><ele>889.0000000000001</ele><time>2026-04-11T11:55:13Z</time></trkpt><trkpt lat="38.37447838804689" lon="16.157414325453132"><ele>889.0</ele><time>2026-04-11T11:55:15Z</time></trkpt><trkpt lat="38.37449941404791" lon="16.157509232613396"><ele>889.0</ele><time>2026-04-11T11:55:16Z</time></trkpt><trkpt lat="38.37450723562125" lon="16.157604635985145"><ele>888.1666666666666</ele><time>2026-04-11T11:55:17Z</time></trkpt><trkpt lat="38.37449565927301" lon="16.157696755058467"><ele>887.3333333333333</ele><time>2026-04-11T11:55:18Z</time></trkpt><trkpt lat="38.3745029694265" lon="16.1578341400499"><ele>886.5</ele><time>2026-04-11T11:55:20Z</time></trkpt><trkpt lat="38.37459400503495" lon="16.15786274585854"><ele>885.6666666666667</ele><time>2026-04-11T11:55:29Z</time></trkpt><trkpt lat="38.37469476598514" lon="16.15782178304403"><ele>884.8333333333334</ele><time>2026-04-11T11:55:31Z</time></trkpt><trkpt lat="38.37475510346317" lon="16.15784625278208"><ele>884.0</ele><time>2026-04-11T11:55:32Z</time></trkpt><trkpt lat="38.374849586816886" lon="16.157778873766215"><ele>884.0000000000001</ele><time>2026-04-11T11:55:34Z</time></trkpt><trkpt lat="38.37492238076062" lon="16.15770950704789"><ele>884.0</ele><time>2026-04-11T11:55:35Z</time></trkpt><trkpt lat="38.37498532215538" lon="16.157632239334905"><ele>884.0</ele><time>2026-04-11T11:55:36Z</time></trkpt><trkpt lat="38.375051097216115" lon="16.157533595725422"><ele>884.0</ele><time>2026-04-11T11:55:38Z</time></trkpt><trkpt lat="38.37507734868934" lon="16.15744554897548"><ele>884.0000000000001</ele><time>2026-04-11T11:55:40Z</time></trkpt><trkpt lat="38.37512722630299" lon="16.15738115487889"><ele>884.0</ele><time>2026-04-11T11:55:43.001Z</time></trkpt><trkpt lat="38.37531365270093" lon="16.15731361936906"><ele>884.2</ele><time>2026-04-11T11:55:47.001Z</time></trkpt><trkpt lat="38.37539285044178" lon="16.157304109233284"><ele>884.4000000000001</ele><time>2026-04-11T11:55:48.001Z</time></trkpt><trkpt lat="38.37545025024904" lon="16.15734512032622"><ele>884.6</ele><time>2026-04-11T11:55:49.001Z</time></trkpt><trkpt lat="38.37554070943121" lon="16.157393875615263"><ele>884.8</ele><time>2026-04-11T11:55:50.001Z</time></trkpt><trkpt lat="38.375665262280414" lon="16.157418936592347"><ele>885.0</ele><time>2026-04-11T11:55:51.001Z</time></trkpt><trkpt lat="38.37576185842323" lon="16.157437310768806"><ele>885.0</ele><time>2026-04-11T11:55:52.001Z</time></trkpt><trkpt lat="38.375865605112516" lon="16.15749903903659"><ele>885.0</ele><time>2026-04-11T11:55:54.001Z</time></trkpt><trkpt lat="38.375944799517086" lon="16.157534250933658"><ele>885.0</ele><time>2026-04-11T11:55:56.001Z</time></trkpt><trkpt lat="38.37599091312302" lon="16.1576074308303"><ele>885.0</ele><time>2026-04-11T11:56:01.001Z</time></trkpt><trkpt lat="38.37605297943695" lon="16.157673992209972"><ele>885.0</ele><time>2026-04-11T11:56:04.001Z</time></trkpt><trkpt lat="38.376016318998936" lon="16.157816516970062"><ele>885.0</ele><time>2026-04-11T11:56:05.001Z</time></trkpt><trkpt lat="38.376040771890246" lon="16.1579040080873"><ele>885.0</ele><time>2026-04-11T11:56:06.001Z</time></trkpt><trkpt lat="38.37608464329635" lon="16.158002220393055"><ele>885.0</ele><time>2026-04-11T11:56:07.001Z</time></trkpt><trkpt lat="38.3761389874899" lon="16.15809720308519"><ele>885.0</ele><time>2026-04-11T11:56:08.001Z</time></trkpt><trkpt lat="38.376193899312725" lon="16.15817860599749"><ele>885.0</ele><time>2026-04-11T11:56:09.001Z</time></trkpt><trkpt lat="38.37625108079722" lon="16.15826443083095"><ele>885.0</ele><time>2026-04-11T11:56:10.001Z</time></trkpt><trkpt lat="38.37631986045168" lon="16.158316826619373"><ele>885.0</ele><time>2026-04-11T11:56:11.001Z</time></trkpt><trkpt lat="38.37637783789033" lon="16.15835128712278"><ele>885.0</ele><time>2026-04-11T11:56:12.001Z</time></trkpt><trkpt lat="38.37648784010861" lon="16.15836684007034"><ele>885.0</ele><time>2026-04-11T11:56:14.001Z</time></trkpt><trkpt lat="38.37661566465661" lon="16.158346891047355"><ele>885.0</ele><time>2026-04-11T11:56:16.001Z</time></trkpt><trkpt lat="38.37669528476235" lon="16.1583229493681"><ele>885.0</ele><time>2026-04-11T11:56:17.001Z</time></trkpt><trkpt lat="38.37677519179439" lon="16.158264166531215"><ele>885.0</ele><time>2026-04-11T11:56:18.001Z</time></trkpt><trkpt lat="38.37686473505573" lon="16.15826208114496"><ele>885.0</ele><time>2026-04-11T11:56:19.001Z</time></trkpt><trkpt lat="38.37694546572637" lon="16.158250437958184"><ele>885.0</ele><time>2026-04-11T11:56:20.001Z</time></trkpt><trkpt lat="38.37702083557539" lon="16.1582457300305"><ele>885.0</ele><time>2026-04-11T11:56:21.001Z</time></trkpt><trkpt lat="38.377119328700516" lon="16.15824201452369"><ele>885.0</ele><time>2026-04-11T11:56:22.001Z</time></trkpt><trkpt lat="38.37723223736983" lon="16.158259058280013"><ele>886.2</ele><time>2026-04-11T11:56:23.001Z</time></trkpt><trkpt lat="38.377348131227684" lon="16.158282966678648"><ele>887.4</ele><time>2026-04-11T11:56:24.001Z</time></trkpt><trkpt lat="38.377443239585546" lon="16.158325866365868"><ele>888.5999999999999</ele><time>2026-04-11T11:56:25.001Z</time></trkpt><trkpt lat="38.37752759973057" lon="16.15837672093324"><ele>889.8</ele><time>2026-04-11T11:56:26.001Z</time></trkpt><trkpt lat="38.37759126022904" lon="16.15843024482652"><ele>891.0</ele><time>2026-04-11T11:56:27.001Z</time></trkpt><trkpt lat="38.37765172008533" lon="16.158488760071783"><ele>891.0</ele><time>2026-04-11T11:56:28.001Z</time></trkpt><trkpt lat="38.37773052317917" lon="16.158570080336027"><ele>890.9999999999999</ele><time>2026-04-11T11:56:30.001Z</time></trkpt><trkpt lat="38.3778155775965" lon="16.158658286068093"><ele>890.9999999999999</ele><time>2026-04-11T11:56:31.001Z</time></trkpt><trkpt lat="38.377895565461564" lon="16.158710056934563"><ele>891.0</ele><time>2026-04-11T11:56:32.001Z</time></trkpt><trkpt lat="38.377963171423325" lon="16.158790949697302"><ele>891.0</ele><time>2026-04-11T11:56:33.001Z</time></trkpt><trkpt lat="38.37808312994445" lon="16.15888618195365"><ele>890.1666666666666</ele><time>2026-04-11T11:56:35.002Z</time></trkpt><trkpt lat="38.37815826590574" lon="16.158924134682294"><ele>889.3333333333333</ele><time>2026-04-11T11:56:36.002Z</time></trkpt><trkpt lat="38.378227756456475" lon="16.158926635676874"><ele>888.5</ele><time>2026-04-11T11:56:37.002Z</time></trkpt><trkpt lat="38.378293223732605" lon="16.15890052403254"><ele>887.6666666666666</ele><time>2026-04-11T11:56:38.002Z</time></trkpt><trkpt lat="38.37837505780332" lon="16.158878605338472"><ele>886.8333333333333</ele><time>2026-04-11T11:56:39.002Z</time></trkpt><trkpt lat="38.378471468293064" lon="16.158872706806495"><ele>886.0</ele><time>2026-04-11T11:56:40.002Z</time></trkpt><trkpt lat="38.37857721630026" lon="16.158835261601922"><ele>886.0</ele><time>2026-04-11T11:56:41.002Z</time></trkpt><trkpt lat="38.37869758432567" lon="16.158780061013395"><ele>886.0</ele><time>2026-04-11T11:56:42.002Z</time></trkpt><trkpt lat="38.37879965561726" lon="16.158703804082222"><ele>886.0</ele><time>2026-04-11T11:56:43.002Z</time></trkpt><trkpt lat="38.378872641731725" lon="16.1585844167369"><ele>886.0</ele><time>2026-04-11T11:56:44.002Z</time></trkpt><trkpt lat="38.37896916229323" lon="16.158510041951505"><ele>886.1999999999999</ele><time>2026-04-11T11:56:45.002Z</time></trkpt><trkpt lat="38.379049077492624" lon="16.15845334122515"><ele>886.3999999999999</ele><time>2026-04-11T11:56:46.002Z</time></trkpt><trkpt lat="38.37914512004671" lon="16.15841628996556"><ele>886.6</ele><time>2026-04-11T11:56:47.997Z</time></trkpt><trkpt lat="38.37921096562849" lon="16.158466426402043"><ele>886.8</ele><time>2026-04-11T11:56:49.997Z</time></trkpt><trkpt lat="38.37931455401752" lon="16.15858818522181"><ele>887.0</ele><time>2026-04-11T11:56:51.997Z</time></trkpt><trkpt lat="38.37939903101317" lon="16.158703457675614"><ele>887.0</ele><time>2026-04-11T11:56:52.997Z</time></trkpt><trkpt lat="38.37946185652552" lon="16.158820190508646"><ele>887.0</ele><time>2026-04-11T11:56:53.997Z</time></trkpt><trkpt lat="38.379543607997356" lon="16.158887690641016"><ele>887.0</ele><time>2026-04-11T11:56:54.997Z</time></trkpt><trkpt lat="38.37965822547085" lon="16.158946856101167"><ele>887.0</ele><time>2026-04-11T11:56:55.997Z</time></trkpt><trkpt lat="38.379756240497905" lon="16.158997942898395"><ele>887.0</ele><time>2026-04-11T11:56:56.997Z</time></trkpt><trkpt lat="38.37986928676342" lon="16.158983041621447"><ele>887.4000000000001</ele><time>2026-04-11T11:56:57.998Z</time></trkpt><trkpt lat="38.37995073405412" lon="16.15894263679614"><ele>887.8000000000001</ele><time>2026-04-11T11:56:58.998Z</time></trkpt><trkpt lat="38.3800191041938" lon="16.15888329167559"><ele>888.2</ele><time>2026-04-11T11:56:59.998Z</time></trkpt><trkpt lat="38.38011067329339" lon="16.15882966750314"><ele>888.6</ele><time>2026-04-11T11:57:00.998Z</time></trkpt><trkpt lat="38.38018712024871" lon="16.158696275899636"><ele>889.0</ele><time>2026-04-11T11:57:01.998Z</time></trkpt><trkpt lat="38.38025135646855" lon="16.15855858055874"><ele>889.0</ele><time>2026-04-11T11:57:02.998Z</time></trkpt><trkpt lat="38.38031523686156" lon="16.158433612336427"><ele>889.0000000000001</ele><time>2026-04-11T11:57:03.998Z</time></trkpt><trkpt lat="38.38035819999599" lon="16.158357185830827"><ele>889.0000000000001</ele><time>2026-04-11T11:57:04.998Z</time></trkpt><trkpt lat="38.3804508315121" lon="16.15831001761655"><ele>889.0</ele><time>2026-04-11T11:57:06.998Z</time></trkpt><trkpt lat="38.3805888607708" lon="16.158319163683277"><ele>889.0</ele><time>2026-04-11T11:57:08.998Z</time></trkpt><trkpt lat="38.380671549604834" lon="16.158346715325926"><ele>891.5</ele><time>2026-04-11T11:57:09.998Z</time></trkpt><trkpt lat="38.380792978787426" lon="16.158368360789186"><ele>894.0</ele><time>2026-04-11T11:57:10.999Z</time></trkpt><trkpt lat="38.38093125316134" lon="16.158380187617045"><ele>896.5</ele><time>2026-04-11T11:57:11.999Z</time></trkpt><trkpt lat="38.38102635313797" lon="16.158388321668877"><ele>899.0</ele><time>2026-04-11T11:57:12.999Z</time></trkpt><trkpt lat="38.38112628997043" lon="16.158400032320696"><ele>899.0000000000001</ele><time>2026-04-11T11:57:13.999Z</time></trkpt><trkpt lat="38.381224436874554" lon="16.15841618231507"><ele>899.0</ele><time>2026-04-11T11:57:14.999Z</time></trkpt><trkpt lat="38.381309108398646" lon="16.158436337449757"><ele>899.0</ele><time>2026-04-11T11:57:15.999Z</time></trkpt><trkpt lat="38.3813973901733" lon="16.158471272890143"><ele>899.0</ele><time>2026-04-11T11:57:16.999Z</time></trkpt><trkpt lat="38.38146904370866" lon="16.158506316551367"><ele>899.0000000000001</ele><time>2026-04-11T11:57:17.999Z</time></trkpt><trkpt lat="38.38154926209871" lon="16.15855767576727"><ele>899.0</ele><time>2026-04-11T11:57:18.999Z</time></trkpt><trkpt lat="38.38159988669634" lon="16.15865634655901"><ele>897.2</ele><time>2026-04-11T11:57:19.999Z</time></trkpt><trkpt lat="38.38162047653505" lon="16.158753705526546"><ele>895.4000000000001</ele><time>2026-04-11T11:57:20.999Z</time></trkpt><trkpt lat="38.38162650415219" lon="16.158858184943032"><ele>893.6</ele><time>2026-04-11T11:57:21.999Z</time></trkpt><trkpt lat="38.381599216897925" lon="16.158969093854232"><ele>891.8</ele><time>2026-04-11T11:57:22.999Z</time></trkpt><trkpt lat="38.38159411755952" lon="16.159099793325947"><ele>890.0</ele><time>2026-04-11T11:57:23.999Z</time></trkpt><trkpt lat="38.38154989754476" lon="16.159225861106535"><ele>890.0</ele><time>2026-04-11T11:57:24.999Z</time></trkpt><trkpt lat="38.381522446986324" lon="16.15931439986567"><ele>890.0</ele><time>2026-04-11T11:57:25.999Z</time></trkpt><trkpt lat="38.381470460081594" lon="16.159405180714554"><ele>890.0</ele><time>2026-04-11T11:57:26.999Z</time></trkpt><trkpt lat="38.381413638949915" lon="16.159497517755412"><ele>890.0</ele><time>2026-04-11T11:57:27.999Z</time></trkpt><trkpt lat="38.38135846896779" lon="16.15963108389727"><ele>890.0</ele><time>2026-04-11T11:57:28.999Z</time></trkpt><trkpt lat="38.381301159200355" lon="16.1597523353301"><ele>894.0</ele><time>2026-04-11T11:57:29.999Z</time></trkpt><trkpt lat="38.3812654775972" lon="16.15985101342458"><ele>898.0</ele><time>2026-04-11T11:57:30.999Z</time></trkpt><trkpt lat="38.381244471895414" lon="16.159983221914732"><ele>902.0</ele><time>2026-04-11T11:57:31.999Z</time></trkpt><trkpt lat="38.38123202482306" lon="16.16007568793652"><ele>906.0</ele><time>2026-04-11T11:57:33Z</time></trkpt><trkpt lat="38.38121360090922" lon="16.16022742016464"><ele>910.0</ele><time>2026-04-11T11:57:34Z</time></trkpt><trkpt lat="38.38121582121438" lon="16.16033082092084"><ele>909.9999999999999</ele><time>2026-04-11T11:57:35Z</time></trkpt><trkpt lat="38.38122923777611" lon="16.160448442537604"><ele>910.0</ele><time>2026-04-11T11:57:36Z</time></trkpt><trkpt lat="38.381246695414596" lon="16.160559114115596"><ele>910.0</ele><time>2026-04-11T11:57:37Z</time></trkpt><trkpt lat="38.38128442642972" lon="16.160660563934837"><ele>910.0</ele><time>2026-04-11T11:57:38Z</time></trkpt><trkpt lat="38.38133539082162" lon="16.160735484658222"><ele>909.9999999999999</ele><time>2026-04-11T11:57:39Z</time></trkpt><trkpt lat="38.38140938206387" lon="16.16080774984738"><ele>910.0</ele><time>2026-04-11T11:57:40Z</time></trkpt><trkpt lat="38.38147523073487" lon="16.160889125768637"><ele>907.5</ele><time>2026-04-11T11:57:41Z</time></trkpt><trkpt lat="38.38159458815751" lon="16.160951049408386"><ele>905.0</ele><time>2026-04-11T11:57:42Z</time></trkpt><trkpt lat="38.38174166884429" lon="16.16100086476203"><ele>902.5</ele><time>2026-04-11T11:57:43Z</time></trkpt><trkpt lat="38.38189115115076" lon="16.161033684791104"><ele>900.0</ele><time>2026-04-11T11:57:44Z</time></trkpt><trkpt lat="38.382023309847106" lon="16.161057081315352"><ele>900.0</ele><time>2026-04-11T11:57:45Z</time></trkpt><trkpt lat="38.38214638515375" lon="16.16106984050822"><ele>900.0</ele><time>2026-04-11T11:57:46Z</time></trkpt><trkpt lat="38.38226167557086" lon="16.161074479448416"><ele>900.0</ele><time>2026-04-11T11:57:47Z</time></trkpt><trkpt lat="38.38239079295634" lon="16.161092802710982"><ele>900.0</ele><time>2026-04-11T11:57:48Z</time></trkpt><trkpt lat="38.38252167425481" lon="16.16108294461186"><ele>899.0</ele><time>2026-04-11T11:57:49Z</time></trkpt><trkpt lat="38.3826679087811" lon="16.161072615598837"><ele>898.0</ele><time>2026-04-11T11:57:50Z</time></trkpt><trkpt lat="38.3827762839447" lon="16.161050736305327"><ele>897.0</ele><time>2026-04-11T11:57:51Z</time></trkpt><trkpt lat="38.38286346326659" lon="16.161081405931025"><ele>896.0</ele><time>2026-04-11T11:57:52Z</time></trkpt><trkpt lat="38.38295406265307" lon="16.161103871608837"><ele>895.0</ele><time>2026-04-11T11:57:53Z</time></trkpt><trkpt lat="38.38304459161966" lon="16.161129965391954"><ele>895.0</ele><time>2026-04-11T11:57:54Z</time></trkpt><trkpt lat="38.383147311317245" lon="16.161184907885414"><ele>895.0</ele><time>2026-04-11T11:57:56Z</time></trkpt><trkpt lat="38.38324359576992" lon="16.161256605193092"><ele>895.0</ele><time>2026-04-11T11:57:58Z</time></trkpt><trkpt lat="38.3833385754558" lon="16.16137034008822"><ele>895.0</ele><time>2026-04-11T11:58:00Z</time></trkpt><trkpt lat="38.383402325134426" lon="16.161448323418536"><ele>895.0</ele><time>2026-04-11T11:58:01Z</time></trkpt><trkpt lat="38.383446188846705" lon="16.161616749541615"><ele>898.25</ele><time>2026-04-11T11:58:03Z</time></trkpt><trkpt lat="38.383496389339655" lon="16.161760978537973"><ele>901.5</ele><time>2026-04-11T11:58:04Z</time></trkpt><trkpt lat="38.3835746569738" lon="16.161872092358394"><ele>904.75</ele><time>2026-04-11T11:58:05Z</time></trkpt><trkpt lat="38.3836158417386" lon="16.16202082562438"><ele>908.0</ele><time>2026-04-11T11:58:06Z</time></trkpt><trkpt lat="38.38365600645533" lon="16.162159793196285"><ele>908.0</ele><time>2026-04-11T11:58:07.001Z</time></trkpt><trkpt lat="38.383694531206366" lon="16.162288933586584"><ele>908.0</ele><time>2026-04-11T11:58:08.001Z</time></trkpt><trkpt lat="38.38371497652431" lon="16.162430812803123"><ele>908.0</ele><time>2026-04-11T11:58:09.001Z</time></trkpt><trkpt lat="38.383756921382165" lon="16.16254195970386"><ele>908.0</ele><time>2026-04-11T11:58:10.001Z</time></trkpt><trkpt lat="38.383796860870035" lon="16.162687738962845"><ele>908.0</ele><time>2026-04-11T11:58:11.001Z</time></trkpt><trkpt lat="38.38382699486938" lon="16.162803004544696"><ele>908.8</ele><time>2026-04-11T11:58:12.001Z</time></trkpt><trkpt lat="38.383843249312136" lon="16.162932627269438"><ele>909.5999999999999</ele><time>2026-04-11T11:58:13.001Z</time></trkpt><trkpt lat="38.383881476172974" lon="16.163033180208743"><ele>910.4000000000001</ele><time>2026-04-11T11:58:14.001Z</time></trkpt><trkpt lat="38.383901066321" lon="16.16316536476661"><ele>911.2</ele><time>2026-04-11T11:58:15.001Z</time></trkpt><trkpt lat="38.383912445933156" lon="16.16331145408522"><ele>912.0</ele><time>2026-04-11T11:58:16.001Z</time></trkpt><trkpt lat="38.38391772587002" lon="16.163438980187824"><ele>906.5</ele><time>2026-04-11T11:58:17.001Z</time></trkpt><trkpt lat="38.38391740466655" lon="16.163579134455688"><ele>901.0</ele><time>2026-04-11T11:58:18.001Z</time></trkpt><trkpt lat="38.38389766208934" lon="16.163735998482153"><ele>895.5</ele><time>2026-04-11T11:58:19.001Z</time></trkpt><trkpt lat="38.38387262462225" lon="16.163879330165056"><ele>890.0</ele><time>2026-04-11T11:58:20.001Z</time></trkpt><trkpt lat="38.38387394641541" lon="16.164039586090485"><ele>888.5</ele><time>2026-04-11T11:58:21.001Z</time></trkpt><trkpt lat="38.3838884620359" lon="16.164198196891622"><ele>887.0</ele><time>2026-04-11T11:58:22.001Z</time></trkpt><trkpt lat="38.38393220061658" lon="16.164339480367257"><ele>885.5</ele><time>2026-04-11T11:58:23.001Z</time></trkpt><trkpt lat="38.38395559187083" lon="16.164470001476005"><ele>884.0</ele><time>2026-04-11T11:58:24.001Z</time></trkpt><trkpt lat="38.383938359971594" lon="16.164624101862493"><ele>884.0</ele><time>2026-04-11T11:58:25.001Z</time></trkpt><trkpt lat="38.38391212904812" lon="16.164748531121507"><ele>884.0000000000001</ele><time>2026-04-11T11:58:26.001Z</time></trkpt><trkpt lat="38.38388509164407" lon="16.164859477373863"><ele>884.0000000000001</ele><time>2026-04-11T11:58:27.001Z</time></trkpt><trkpt lat="38.383874668233545" lon="16.164960611598502"><ele>884.0</ele><time>2026-04-11T11:58:28.001Z</time></trkpt><trkpt lat="38.38387079110959" lon="16.165073888934558"><ele>884.0</ele><time>2026-04-11T11:58:29.001Z</time></trkpt><trkpt lat="38.383903303131895" lon="16.165183489155787"><ele>882.75</ele><time>2026-04-11T11:58:30.001Z</time></trkpt><trkpt lat="38.38393712130103" lon="16.16527827737658"><ele>881.5</ele><time>2026-04-11T11:58:31.001Z</time></trkpt><trkpt lat="38.38406778102194" lon="16.165366015863896"><ele>880.25</ele><time>2026-04-11T11:58:32.001Z</time></trkpt><trkpt lat="38.3842015591776" lon="16.165463941929175"><ele>879.0</ele><time>2026-04-11T11:58:33.001Z</time></trkpt><trkpt lat="38.3843077197757" lon="16.16558050851414"><ele>880.75</ele><time>2026-04-11T11:58:34.001Z</time></trkpt><trkpt lat="38.384387732118135" lon="16.165710670716653"><ele>882.5</ele><time>2026-04-11T11:58:35.001Z</time></trkpt><trkpt lat="38.38446003242448" lon="16.16583941912286"><ele>884.25</ele><time>2026-04-11T11:58:36.001Z</time></trkpt><trkpt lat="38.38451152747121" lon="16.165972184448584"><ele>886.0</ele><time>2026-04-11T11:58:37.001Z</time></trkpt><trkpt lat="38.38454555092866" lon="16.16612522633152"><ele>886.0</ele><time>2026-04-11T11:58:38.001Z</time></trkpt><trkpt lat="38.384550136179456" lon="16.16628093714786"><ele>886.0</ele><time>2026-04-11T11:58:39.001Z</time></trkpt><trkpt lat="38.38455133986789" lon="16.166443000418333"><ele>886.0</ele><time>2026-04-11T11:58:40.001Z</time></trkpt><trkpt lat="38.38451620694954" lon="16.16660175582968"><ele>886.0</ele><time>2026-04-11T11:58:41.001Z</time></trkpt><trkpt lat="38.3844562664984" lon="16.166754884523794"><ele>884.5</ele><time>2026-04-11T11:58:42.001Z</time></trkpt><trkpt lat="38.38438426334487" lon="16.166891781310728"><ele>883.0</ele><time>2026-04-11T11:58:43.001Z</time></trkpt><trkpt lat="38.38430429227394" lon="16.16700448435854"><ele>881.5</ele><time>2026-04-11T11:58:44.002Z</time></trkpt><trkpt lat="38.38417712305818" lon="16.167056411680107"><ele>880.0</ele><time>2026-04-11T11:58:45.002Z</time></trkpt><trkpt lat="38.384040071682634" lon="16.167136088099102"><ele>880.0</ele><time>2026-04-11T11:58:46.002Z</time></trkpt><trkpt lat="38.38392270147545" lon="16.16715418707824"><ele>880.0</ele><time>2026-04-11T11:58:47.002Z</time></trkpt><trkpt lat="38.38382032329149" lon="16.167233658548962"><ele>880.0</ele><time>2026-04-11T11:58:48.002Z</time></trkpt><trkpt lat="38.3837324562341" lon="16.167303545328398"><ele>880.0</ele><time>2026-04-11T11:58:49.002Z</time></trkpt><trkpt lat="38.38367892794751" lon="16.16740873085215"><ele>880.0</ele><time>2026-04-11T11:58:50.002Z</time></trkpt><trkpt lat="38.38363086927973" lon="16.167578779253898"><ele>878.6</ele><time>2026-04-11T11:58:51.002Z</time></trkpt><trkpt lat="38.38361268308726" lon="16.1676986619692"><ele>877.2</ele><time>2026-04-11T11:58:52.002Z</time></trkpt><trkpt lat="38.383601331719014" lon="16.16784305870778"><ele>875.8</ele><time>2026-04-11T11:58:52.998Z</time></trkpt><trkpt lat="38.38357133238307" lon="16.167977418845354"><ele>874.4</ele><time>2026-04-11T11:58:53.998Z</time></trkpt><trkpt lat="38.38352117838323" lon="16.168101621520716"><ele>873.0</ele><time>2026-04-11T11:58:54.998Z</time></trkpt><trkpt lat="38.38345093824243" lon="16.168193738726035"><ele>867.0</ele><time>2026-04-11T11:58:55.998Z</time></trkpt><trkpt lat="38.38337578411412" lon="16.16827349784549"><ele>861.0</ele><time>2026-04-11T11:58:56.998Z</time></trkpt><trkpt lat="38.38331303686559" lon="16.168348585572467"><ele>855.0</ele><time>2026-04-11T11:58:57.998Z</time></trkpt><trkpt lat="38.38328825144597" lon="16.16843944653271"><ele>849.0</ele><time>2026-04-11T11:58:58.998Z</time></trkpt><trkpt lat="38.38335901967907" lon="16.16854186296641"><ele>843.0</ele><time>2026-04-11T11:59:00.998Z</time></trkpt><trkpt lat="38.38345596244865" lon="16.168538529856132"><ele>843.0</ele><time>2026-04-11T11:59:01.998Z</time></trkpt><trkpt lat="38.38354840854638" lon="16.168436587140704"><ele>843.0</ele><time>2026-04-11T11:59:02.998Z</time></trkpt><trkpt lat="38.38362684968792" lon="16.16831522407731"><ele>843.0</ele><time>2026-04-11T11:59:03.998Z</time></trkpt><trkpt lat="38.383712531905886" lon="16.16817509953607"><ele>843.0</ele><time>2026-04-11T11:59:04.998Z</time></trkpt><trkpt lat="38.38379150427001" lon="16.16805079740088"><ele>844.5</ele><time>2026-04-11T11:59:05.998Z</time></trkpt><trkpt lat="38.38385585972652" lon="16.167948825475012"><ele>846.0</ele><time>2026-04-11T11:59:06.998Z</time></trkpt><trkpt lat="38.38391616640241" lon="16.167853561567842"><ele>847.5</ele><time>2026-04-11T11:59:07.998Z</time></trkpt><trkpt lat="38.38397089457855" lon="16.167779513262108"><ele>849.0</ele><time>2026-04-11T11:59:08.998Z</time></trkpt><trkpt lat="38.38402868686832" lon="16.16771334899547"><ele>850.5</ele><time>2026-04-11T11:59:09.998Z</time></trkpt><trkpt lat="38.38409809880993" lon="16.167661317979316"><ele>852.0</ele><time>2026-04-11T11:59:10.999Z</time></trkpt><trkpt lat="38.384182103105374" lon="16.167595444426173"><ele>852.0</ele><time>2026-04-11T11:59:11.999Z</time></trkpt><trkpt lat="38.384291601100315" lon="16.167565233837593"><ele>852.0</ele><time>2026-04-11T11:59:12.999Z</time></trkpt><trkpt lat="38.38440916614244" lon="16.167518037469474"><ele>852.0</ele><time>2026-04-11T11:59:13.999Z</time></trkpt><trkpt lat="38.3845337536216" lon="16.167472059892077"><ele>852.0</ele><time>2026-04-11T11:59:14.999Z</time></trkpt><trkpt lat="38.38464627402831" lon="16.167424063842866"><ele>851.4000000000001</ele><time>2026-04-11T11:59:15.999Z</time></trkpt><trkpt lat="38.3847485410731" lon="16.167364412853676"><ele>850.8000000000001</ele><time>2026-04-11T11:59:16.999Z</time></trkpt><trkpt lat="38.384836467556546" lon="16.167295084818033"><ele>850.2</ele><time>2026-04-11T11:59:17.999Z</time></trkpt><trkpt lat="38.38491424947213" lon="16.16723737373689"><ele>849.6</ele><time>2026-04-11T11:59:18.999Z</time></trkpt><trkpt lat="38.38499237587162" lon="16.16714169750186"><ele>849.0</ele><time>2026-04-11T11:59:19.999Z</time></trkpt><trkpt lat="38.38504997286374" lon="16.167003962130465"><ele>849.0</ele><time>2026-04-11T11:59:20.999Z</time></trkpt><trkpt lat="38.38508729574599" lon="16.16687544171622"><ele>849.0</ele><time>2026-04-11T11:59:21.999Z</time></trkpt><trkpt lat="38.38511506654595" lon="16.166754741798243"><ele>849.0</ele><time>2026-04-11T11:59:22.999Z</time></trkpt><trkpt lat="38.385153512107756" lon="16.166675600494884"><ele>849.0</ele><time>2026-04-11T11:59:23.999Z</time></trkpt><trkpt lat="38.38522210050186" lon="16.166672298021677"><ele>849.0</ele><time>2026-04-11T11:59:24.999Z</time></trkpt><trkpt lat="38.38527753718886" lon="16.166793282977928"><ele>849.0</ele><time>2026-04-11T11:59:27Z</time></trkpt><trkpt lat="38.38528324631615" lon="16.16689146228565"><ele>849.0</ele><time>2026-04-11T11:59:28Z</time></trkpt><trkpt lat="38.38519775075839" lon="16.16701558323221"><ele>849.0</ele><time>2026-04-11T11:59:29Z</time></trkpt><trkpt lat="38.38515188791515" lon="16.167135342366386"><ele>849.0</ele><time>2026-04-11T11:59:30Z</time></trkpt><trkpt lat="38.38510251738826" lon="16.16724405405035"><ele>849.0</ele><time>2026-04-11T11:59:31Z</time></trkpt><trkpt lat="38.38503740693179" lon="16.16732949915056"><ele>849.75</ele><time>2026-04-11T11:59:32Z</time></trkpt><trkpt lat="38.38495346712641" lon="16.167437840807082"><ele>850.5</ele><time>2026-04-11T11:59:33Z</time></trkpt><trkpt lat="38.384872888042224" lon="16.16752195012404"><ele>851.25</ele><time>2026-04-11T11:59:34Z</time></trkpt><trkpt lat="38.38476572864133" lon="16.167628742411395"><ele>852.0</ele><time>2026-04-11T11:59:35Z</time></trkpt><trkpt lat="38.38466178558016" lon="16.1677283164402"><ele>852.0</ele><time>2026-04-11T11:59:36Z</time></trkpt><trkpt lat="38.38455613555742" lon="16.167827236644552"><ele>852.0</ele><time>2026-04-11T11:59:37Z</time></trkpt><trkpt lat="38.38445755625612" lon="16.16792594210422"><ele>852.0</ele><time>2026-04-11T11:59:38Z</time></trkpt><trkpt lat="38.38437947523461" lon="16.168023710049347"><ele>852.0</ele><time>2026-04-11T11:59:39Z</time></trkpt><trkpt lat="38.38430058224553" lon="16.168149115602844"><ele>848.4000000000001</ele><time>2026-04-11T11:59:41Z</time></trkpt><trkpt lat="38.3842785610031" lon="16.16824696427022"><ele>844.8000000000001</ele><time>2026-04-11T11:59:42Z</time></trkpt><trkpt lat="38.38426903075231" lon="16.16836681418466"><ele>841.2</ele><time>2026-04-11T11:59:43Z</time></trkpt><trkpt lat="38.384294165198405" lon="16.168509600772225"><ele>837.6</ele><time>2026-04-11T11:59:44Z</time></trkpt><trkpt lat="38.38430383362344" lon="16.16867070808956"><ele>834.0</ele><time>2026-04-11T11:59:45Z</time></trkpt><trkpt lat="38.384315303222195" lon="16.16885605088826"><ele>830.5</ele><time>2026-04-11T11:59:46Z</time></trkpt><trkpt lat="38.38434676734734" lon="16.169039320348144"><ele>827.0</ele><time>2026-04-11T11:59:47Z</time></trkpt><trkpt lat="38.384375763804556" lon="16.16922735635248"><ele>823.5</ele><time>2026-04-11T11:59:48Z</time></trkpt><trkpt lat="38.384407695566544" lon="16.169380105643565"><ele>820.0</ele><time>2026-04-11T11:59:49Z</time></trkpt><trkpt lat="38.38443490368895" lon="16.169567209433165"><ele>820.0</ele><time>2026-04-11T11:59:50Z</time></trkpt><trkpt lat="38.38445970926677" lon="16.16977124887725"><ele>820.0</ele><time>2026-04-11T11:59:51Z</time></trkpt><trkpt lat="38.38449466581428" lon="16.169984086024947"><ele>820.0</ele><time>2026-04-11T11:59:52Z</time></trkpt><trkpt lat="38.384526253729916" lon="16.170182566402556"><ele>814.0</ele><time>2026-04-11T11:59:53.001Z</time></trkpt><trkpt lat="38.3845568786742" lon="16.17039679406877"><ele>808.0</ele><time>2026-04-11T11:59:54.001Z</time></trkpt><trkpt lat="38.38459674395599" lon="16.1706275337216"><ele>802.0</ele><time>2026-04-11T11:59:55.001Z</time></trkpt><trkpt lat="38.384635621523614" lon="16.17086626212676"><ele>799.0</ele><time>2026-04-11T11:59:56.001Z</time></trkpt><trkpt lat="38.384674165277" lon="16.171104298179074"><ele>796.0</ele><time>2026-04-11T11:59:57.001Z</time></trkpt><trkpt lat="38.38470945354179" lon="16.171337426404193"><ele>793.0</ele><time>2026-04-11T11:59:58.001Z</time></trkpt><trkpt lat="38.384742224700204" lon="16.171552125931946"><ele>793.0</ele><time>2026-04-11T11:59:59.001Z</time></trkpt><trkpt lat="38.384773131205215" lon="16.171765593591"><ele>793.0</ele><time>2026-04-11T12:00:00.001Z</time></trkpt><trkpt lat="38.384804578214116" lon="16.171980669715204"><ele>793.0</ele><time>2026-04-11T12:00:01.001Z</time></trkpt><trkpt lat="38.384837965238475" lon="16.17218215703467"><ele>791.75</ele><time>2026-04-11T12:00:02.001Z</time></trkpt><trkpt lat="38.38487131985146" lon="16.17237183200054"><ele>790.5</ele><time>2026-04-11T12:00:03.001Z</time></trkpt><trkpt lat="38.38490274811126" lon="16.172557660494405"><ele>789.25</ele><time>2026-04-11T12:00:04.001Z</time></trkpt><trkpt lat="38.38492383419055" lon="16.172729543457194"><ele>788.0</ele><time>2026-04-11T12:00:05.001Z</time></trkpt><trkpt lat="38.38495367735408" lon="16.172910164770236"><ele>788.0</ele><time>2026-04-11T12:00:06.001Z</time></trkpt><trkpt lat="38.38498173732015" lon="16.173087891941886"><ele>788.0</ele><time>2026-04-11T12:00:07.001Z</time></trkpt><trkpt lat="38.385013377148624" lon="16.173249053259855"><ele>788.0</ele><time>2026-04-11T12:00:08.001Z</time></trkpt><trkpt lat="38.38503598966321" lon="16.173420682258676"><ele>788.0</ele><time>2026-04-11T12:00:09.001Z</time></trkpt><trkpt lat="38.38505130801821" lon="16.173583020993746"><ele>787.75</ele><time>2026-04-11T12:00:10.001Z</time></trkpt><trkpt lat="38.385071798713376" lon="16.173760057822456"><ele>787.5</ele><time>2026-04-11T12:00:11.001Z</time></trkpt><trkpt lat="38.385102237888404" lon="16.173920911767244"><ele>787.25</ele><time>2026-04-11T12:00:12.001Z</time></trkpt><trkpt lat="38.385146528492555" lon="16.174052499533975"><ele>787.0</ele><time>2026-04-11T12:00:13.001Z</time></trkpt><trkpt lat="38.38521163758219" lon="16.174182436705138"><ele>786.0</ele><time>2026-04-11T12:00:14.001Z</time></trkpt><trkpt lat="38.38529585267265" lon="16.174298905352522"><ele>785.0</ele><time>2026-04-11T12:00:15.001Z</time></trkpt><trkpt lat="38.385397739056884" lon="16.174403256863034"><ele>784.0</ele><time>2026-04-11T12:00:16.001Z</time></trkpt><trkpt lat="38.38550769078645" lon="16.174503879989047"><ele>783.0</ele><time>2026-04-11T12:00:17.001Z</time></trkpt><trkpt lat="38.38561617671205" lon="16.174611558251"><ele>783.0</ele><time>2026-04-11T12:00:18.001Z</time></trkpt><trkpt lat="38.385715505343384" lon="16.17473525362541"><ele>783.0</ele><time>2026-04-11T12:00:19.001Z</time></trkpt><trkpt lat="38.38580492912733" lon="16.174877808476605"><ele>783.0</ele><time>2026-04-11T12:00:20.001Z</time></trkpt><trkpt lat="38.38588525074549" lon="16.175033171597395"><ele>783.0</ele><time>2026-04-11T12:00:21.001Z</time></trkpt><trkpt lat="38.38595642478216" lon="16.175193588937397"><ele>783.0</ele><time>2026-04-11T12:00:22.001Z</time></trkpt><trkpt lat="38.38602242600005" lon="16.175339247004597"><ele>783.0</ele><time>2026-04-11T12:00:23.001Z</time></trkpt><trkpt lat="38.38609182391483" lon="16.175478314676152"><ele>783.0</ele><time>2026-04-11T12:00:24.001Z</time></trkpt><trkpt lat="38.38615493575685" lon="16.175615320287612"><ele>783.0</ele><time>2026-04-11T12:00:25.002Z</time></trkpt><trkpt lat="38.38621689799673" lon="16.175748309555136"><ele>783.2</ele><time>2026-04-11T12:00:26.002Z</time></trkpt><trkpt lat="38.38627719986411" lon="16.17587080352975"><ele>783.4</ele><time>2026-04-11T12:00:27.002Z</time></trkpt><trkpt lat="38.38631740715822" lon="16.175998558634134"><ele>783.6</ele><time>2026-04-11T12:00:28.002Z</time></trkpt><trkpt lat="38.386359924920086" lon="16.176095256662144"><ele>783.8000000000001</ele><time>2026-04-11T12:00:29.002Z</time></trkpt><trkpt lat="38.386395676434546" lon="16.176172521278822"><ele>784.0</ele><time>2026-04-11T12:00:30.002Z</time></trkpt><trkpt lat="38.386464650366484" lon="16.17629624804205"><ele>783.9999999999999</ele><time>2026-04-11T12:00:32.002Z</time></trkpt><trkpt lat="38.38653124073788" lon="16.176412496169117"><ele>784.0</ele><time>2026-04-11T12:00:34.002Z</time></trkpt><trkpt lat="38.38657234852047" lon="16.17647391121321"><ele>784.0</ele><time>2026-04-11T12:00:36.002Z</time></trkpt><trkpt lat="38.386555240451045" lon="16.176572025751703"><ele>784.0</ele><time>2026-04-11T12:00:38.002Z</time></trkpt><trkpt lat="38.386555649722176" lon="16.176682116301944"><ele>783.9999999999999</ele><time>2026-04-11T12:00:41.002Z</time></trkpt><trkpt lat="38.38655904667606" lon="16.176790225643394"><ele>784.0</ele><time>2026-04-11T12:00:45.002Z</time></trkpt><trkpt lat="38.38654967544033" lon="16.17689904881626"><ele>783.3333333333333</ele><time>2026-04-11T12:00:48.002Z</time></trkpt><trkpt lat="38.386554186443504" lon="16.17698957711455"><ele>782.6666666666666</ele><time>2026-04-11T12:00:51.002Z</time></trkpt><trkpt lat="38.38655163087812" lon="16.17708683081103"><ele>782.0</ele><time>2026-04-11T12:00:54.002Z</time></trkpt><trkpt lat="38.38654890771522" lon="16.17719545440083"><ele>781.3333333333333</ele><time>2026-04-11T12:00:57.002Z</time></trkpt><trkpt lat="38.38654179080198" lon="16.17728470393591"><ele>780.6666666666666</ele><time>2026-04-11T12:00:59Z</time></trkpt><trkpt lat="38.38653747870732" lon="16.177391336461252"><ele>780.0</ele><time>2026-04-11T12:01:01Z</time></trkpt><trkpt lat="38.38653635728538" lon="16.17748926768671"><ele>780.0</ele><time>2026-04-11T12:01:04Z</time></trkpt><trkpt lat="38.38653322322734" lon="16.177597098254388"><ele>780.0</ele><time>2026-04-11T12:01:07Z</time></trkpt><trkpt lat="38.38653277014197" lon="16.177706543738392"><ele>780.0</ele><time>2026-04-11T12:01:09Z</time></trkpt><trkpt lat="38.38653307965783" lon="16.177819968911404"><ele>780.0</ele><time>2026-04-11T12:01:11Z</time></trkpt><trkpt lat="38.386528817624196" lon="16.177979180950377"><ele>780.0</ele><time>2026-04-11T12:01:13Z</time></trkpt><trkpt lat="38.38652498485202" lon="16.178065615716235"><ele>780.0</ele><time>2026-04-11T12:01:14Z</time></trkpt><trkpt lat="38.38652122363233" lon="16.178145919518407"><ele>780.0</ele><time>2026-04-11T12:01:15Z</time></trkpt><trkpt lat="38.386517778783855" lon="16.178302391447374"><ele>780.0</ele><time>2026-04-11T12:01:17Z</time></trkpt><trkpt lat="38.386513711953356" lon="16.178384410144"><ele>780.0</ele><time>2026-04-11T12:01:18Z</time></trkpt><trkpt lat="38.38651002226491" lon="16.17847028653125"><ele>780.0</ele><time>2026-04-11T12:01:19Z</time></trkpt><trkpt lat="38.38651124478329" lon="16.178622389119536"><ele>780.0</ele><time>2026-04-11T12:01:21Z</time></trkpt><trkpt lat="38.38651068898208" lon="16.178785969344954"><ele>779.8333333333334</ele><time>2026-04-11T12:01:23Z</time></trkpt><trkpt lat="38.38649913271305" lon="16.17893913998642"><ele>779.6666666666667</ele><time>2026-04-11T12:01:25Z</time></trkpt><trkpt lat="38.38648952469004" lon="16.179025335039157"><ele>779.5</ele><time>2026-04-11T12:01:26Z</time></trkpt><trkpt lat="38.38649455306886" lon="16.179108585917035"><ele>779.3333333333334</ele><time>2026-04-11T12:01:27Z</time></trkpt><trkpt lat="38.386490252044716" lon="16.17919364014754"><ele>779.1666666666667</ele><time>2026-04-11T12:01:28Z</time></trkpt><trkpt lat="38.38648062238567" lon="16.179281314808907"><ele>779.0</ele><time>2026-04-11T12:01:29.001Z</time></trkpt><trkpt lat="38.38646692883505" lon="16.179365065447055"><ele>778.6666666666667</ele><time>2026-04-11T12:01:30.001Z</time></trkpt><trkpt lat="38.38644873044164" lon="16.179447371049587"><ele>778.3333333333334</ele><time>2026-04-11T12:01:31.001Z</time></trkpt><trkpt lat="38.38642386757001" lon="16.17952992739914"><ele>778.0</ele><time>2026-04-11T12:01:32.001Z</time></trkpt><trkpt lat="38.386399216752274" lon="16.17961620810003"><ele>777.6666666666667</ele><time>2026-04-11T12:01:33.001Z</time></trkpt><trkpt lat="38.38637746647137" lon="16.179706081587952"><ele>777.3333333333334</ele><time>2026-04-11T12:01:34.001Z</time></trkpt><trkpt lat="38.38635572851832" lon="16.179785073950534"><ele>777.0</ele><time>2026-04-11T12:01:35.001Z</time></trkpt><trkpt lat="38.386310438556166" lon="16.179948950767955"><ele>778.4000000000001</ele><time>2026-04-11T12:01:37.001Z</time></trkpt><trkpt lat="38.38628573376944" lon="16.180045344598415"><ele>779.8000000000001</ele><time>2026-04-11T12:01:38.001Z</time></trkpt><trkpt lat="38.386261209162264" lon="16.180147965720163"><ele>781.2</ele><time>2026-04-11T12:01:39.001Z</time></trkpt><trkpt lat="38.38623340352807" lon="16.180257186539652"><ele>782.6</ele><time>2026-04-11T12:01:40.001Z</time></trkpt><trkpt lat="38.386198471841624" lon="16.18037238549949"><ele>784.0</ele><time>2026-04-11T12:01:41.001Z</time></trkpt><trkpt lat="38.38616215486056" lon="16.180490213483967"><ele>784.0</ele><time>2026-04-11T12:01:42.001Z</time></trkpt><trkpt lat="38.38612891620513" lon="16.180621345467095"><ele>784.0</ele><time>2026-04-11T12:01:43.001Z</time></trkpt><trkpt lat="38.386094196947916" lon="16.18075643990699"><ele>784.0</ele><time>2026-04-11T12:01:44.001Z</time></trkpt><trkpt lat="38.38605845827736" lon="16.18090362529408"><ele>784.0</ele><time>2026-04-11T12:01:45.001Z</time></trkpt><trkpt lat="38.38602213977226" lon="16.181053725138735"><ele>782.75</ele><time>2026-04-11T12:01:46.001Z</time></trkpt><trkpt lat="38.38598499046332" lon="16.18120078279257"><ele>781.5</ele><time>2026-04-11T12:01:47.001Z</time></trkpt><trkpt lat="38.385949151943045" lon="16.181350281467672"><ele>780.25</ele><time>2026-04-11T12:01:48.001Z</time></trkpt><trkpt lat="38.38590854086728" lon="16.181509824884206"><ele>779.0</ele><time>2026-04-11T12:01:49.001Z</time></trkpt><trkpt lat="38.38587517471961" lon="16.18167733461722"><ele>778.25</ele><time>2026-04-11T12:01:50.001Z</time></trkpt><trkpt lat="38.38586740623692" lon="16.181859116543198"><ele>777.5</ele><time>2026-04-11T12:01:51.001Z</time></trkpt><trkpt lat="38.385885217020565" lon="16.182047614479753"><ele>776.75</ele><time>2026-04-11T12:01:52.001Z</time></trkpt><trkpt lat="38.38592829556955" lon="16.182229911675034"><ele>776.0</ele><time>2026-04-11T12:01:53.001Z</time></trkpt><trkpt lat="38.38598796015894" lon="16.182405500775097"><ele>776.0</ele><time>2026-04-11T12:01:54.001Z</time></trkpt><trkpt lat="38.38609132749681" lon="16.18255405726329"><ele>776.0</ele><time>2026-04-11T12:01:55.001Z</time></trkpt><trkpt lat="38.38619543368134" lon="16.182681521243914"><ele>776.0</ele><time>2026-04-11T12:01:56.001Z</time></trkpt><trkpt lat="38.38630741271642" lon="16.182811153433995"><ele>776.0</ele><time>2026-04-11T12:01:57.001Z</time></trkpt><trkpt lat="38.38641349902285" lon="16.182938752461396"><ele>776.0</ele><time>2026-04-11T12:01:58.001Z</time></trkpt><trkpt lat="38.38656324584676" lon="16.183063372227483"><ele>776.0</ele><time>2026-04-11T12:01:59.001Z</time></trkpt><trkpt lat="38.38667807045088" lon="16.183187482290304"><ele>776.75</ele><time>2026-04-11T12:02:00.001Z</time></trkpt><trkpt lat="38.38678770930732" lon="16.183316004946597"><ele>777.5</ele><time>2026-04-11T12:02:01.002Z</time></trkpt><trkpt lat="38.38689987752677" lon="16.18344053644903"><ele>778.25</ele><time>2026-04-11T12:02:02.002Z</time></trkpt><trkpt lat="38.38699903692404" lon="16.18355185405433"><ele>779.0</ele><time>2026-04-11T12:02:03.002Z</time></trkpt><trkpt lat="38.38708870639541" lon="16.183652114111304"><ele>779.0000000000001</ele><time>2026-04-11T12:02:04.002Z</time></trkpt><trkpt lat="38.387166053480584" lon="16.18374252371099"><ele>779.0</ele><time>2026-04-11T12:02:05.002Z</time></trkpt><trkpt lat="38.38723476449913" lon="16.183822878915052"><ele>779.0</ele><time>2026-04-11T12:02:06.002Z</time></trkpt><trkpt lat="38.387305131964574" lon="16.18387720018282"><ele>779.0</ele><time>2026-04-11T12:02:07.002Z</time></trkpt><trkpt lat="38.38736391266571" lon="16.183912164241352"><ele>779.0000000000001</ele><time>2026-04-11T12:02:08.002Z</time></trkpt><trkpt lat="38.3874306715272" lon="16.183926955485827"><ele>779.0</ele><time>2026-04-11T12:02:09.002Z</time></trkpt><trkpt lat="38.38755923456811" lon="16.183922791890264"><ele>779.8000000000001</ele><time>2026-04-11T12:02:11.002Z</time></trkpt><trkpt lat="38.38762645988719" lon="16.183902277820255"><ele>780.6</ele><time>2026-04-11T12:02:12.002Z</time></trkpt><trkpt lat="38.38769102208981" lon="16.183861641029093"><ele>781.4</ele><time>2026-04-11T12:02:13.002Z</time></trkpt><trkpt lat="38.3877452962218" lon="16.183796483947614"><ele>782.2</ele><time>2026-04-11T12:02:14.002Z</time></trkpt><trkpt lat="38.387808181224536" lon="16.18366872449495"><ele>783.0</ele><time>2026-04-11T12:02:15.002Z</time></trkpt><trkpt lat="38.38787046115619" lon="16.18348475240948"><ele>783.0</ele><time>2026-04-11T12:02:16.002Z</time></trkpt><trkpt lat="38.38794603472721" lon="16.183289102587167"><ele>783.0</ele><time>2026-04-11T12:02:17.002Z</time></trkpt><trkpt lat="38.38801543589125" lon="16.18311961916982"><ele>783.0</ele><time>2026-04-11T12:02:18.002Z</time></trkpt><trkpt lat="38.38808983581484" lon="16.182992608650288"><ele>783.0</ele><time>2026-04-11T12:02:19.002Z</time></trkpt><trkpt lat="38.38816864138906" lon="16.18288951934581"><ele>784.25</ele><time>2026-04-11T12:02:20.002Z</time></trkpt><trkpt lat="38.38826792535453" lon="16.182810422217784"><ele>785.5</ele><time>2026-04-11T12:02:21.002Z</time></trkpt><trkpt lat="38.38838115566999" lon="16.182772901024514"><ele>786.75</ele><time>2026-04-11T12:02:22.002Z</time></trkpt><trkpt lat="38.38849929590108" lon="16.18279004691935"><ele>788.0</ele><time>2026-04-11T12:02:23.002Z</time></trkpt><trkpt lat="38.38860963721459" lon="16.18285802707304"><ele>788.0</ele><time>2026-04-11T12:02:24.002Z</time></trkpt><trkpt lat="38.38871536752428" lon="16.182963635594316"><ele>788.0</ele><time>2026-04-11T12:02:25.002Z</time></trkpt><trkpt lat="38.38880292548145" lon="16.183094402339147"><ele>788.0</ele><time>2026-04-11T12:02:26.002Z</time></trkpt><trkpt lat="38.38887627831243" lon="16.183237335588966"><ele>788.0</ele><time>2026-04-11T12:02:27.002Z</time></trkpt><trkpt lat="38.38896148506274" lon="16.183388364276315"><ele>788.3333333333334</ele><time>2026-04-11T12:02:28.002Z</time></trkpt><trkpt lat="38.389060545247155" lon="16.183546681825618"><ele>788.6666666666667</ele><time>2026-04-11T12:02:29.002Z</time></trkpt><trkpt lat="38.389169132159786" lon="16.18370439649577"><ele>789.0</ele><time>2026-04-11T12:02:30.002Z</time></trkpt><trkpt lat="38.38929389379679" lon="16.18386230466458"><ele>789.0</ele><time>2026-04-11T12:02:31.002Z</time></trkpt><trkpt lat="38.38943347325457" lon="16.184006732341093"><ele>789.0</ele><time>2026-04-11T12:02:32.002Z</time></trkpt><trkpt lat="38.38958065842665" lon="16.184124533776348"><ele>789.0</ele><time>2026-04-11T12:02:33.002Z</time></trkpt><trkpt lat="38.389734958010656" lon="16.184210841413858"><ele>792.3333333333333</ele><time>2026-04-11T12:02:34.003Z</time></trkpt><trkpt lat="38.38988954227693" lon="16.184264882382013"><ele>795.6666666666666</ele><time>2026-04-11T12:02:35.003Z</time></trkpt><trkpt lat="38.390073189434105" lon="16.184304073215667"><ele>799.0</ele><time>2026-04-11T12:02:36.003Z</time></trkpt><trkpt lat="38.39025053530288" lon="16.184304578775922"><ele>799.0</ele><time>2026-04-11T12:02:37.003Z</time></trkpt><trkpt lat="38.39043269827073" lon="16.18431243545855"><ele>799.0</ele><time>2026-04-11T12:02:38.003Z</time></trkpt><trkpt lat="38.39062457232483" lon="16.18433902934544"><ele>799.0</ele><time>2026-04-11T12:02:39.003Z</time></trkpt><trkpt lat="38.39082270613265" lon="16.18436633943271"><ele>800.0</ele><time>2026-04-11T12:02:40.003Z</time></trkpt><trkpt lat="38.3910252162649" lon="16.184388570571812"><ele>801.0</ele><time>2026-04-11T12:02:41.003Z</time></trkpt><trkpt lat="38.391210737750626" lon="16.18440431163747"><ele>802.0</ele><time>2026-04-11T12:02:42.003Z</time></trkpt><trkpt lat="38.39137719142761" lon="16.184409288357138"><ele>803.3333333333333</ele><time>2026-04-11T12:02:43.003Z</time></trkpt><trkpt lat="38.39153738555267" lon="16.18442604173317"><ele>804.6666666666667</ele><time>2026-04-11T12:02:44.003Z</time></trkpt><trkpt lat="38.39168896234807" lon="16.184469290133165"><ele>806.0</ele><time>2026-04-11T12:02:45.003Z</time></trkpt><trkpt lat="38.39180885861921" lon="16.184560307884627"><ele>806.0</ele><time>2026-04-11T12:02:46.003Z</time></trkpt><trkpt lat="38.39190090668387" lon="16.18469748570282"><ele>806.0</ele><time>2026-04-11T12:02:47.003Z</time></trkpt><trkpt lat="38.39196081402493" lon="16.18487453758765"><ele>806.0</ele><time>2026-04-11T12:02:48.003Z</time></trkpt><trkpt lat="38.39201721785528" lon="16.185071688067357"><ele>808.0</ele><time>2026-04-11T12:02:49.003Z</time></trkpt><trkpt lat="38.39206905227294" lon="16.185280527314895"><ele>810.0</ele><time>2026-04-11T12:02:50.003Z</time></trkpt><trkpt lat="38.39212836752145" lon="16.185493871011627"><ele>812.0</ele><time>2026-04-11T12:02:51.003Z</time></trkpt><trkpt lat="38.39219371809977" lon="16.18570712895513"><ele>813.0</ele><time>2026-04-11T12:02:52.003Z</time></trkpt><trkpt lat="38.392256292956496" lon="16.185911719373973"><ele>814.0</ele><time>2026-04-11T12:02:53.003Z</time></trkpt><trkpt lat="38.39231246029287" lon="16.186118235625997"><ele>815.0</ele><time>2026-04-11T12:02:54.003Z</time></trkpt><trkpt lat="38.39236164290137" lon="16.186320867728494"><ele>814.6666666666667</ele><time>2026-04-11T12:02:55.003Z</time></trkpt><trkpt lat="38.39241546582555" lon="16.18652555493919"><ele>814.3333333333333</ele><time>2026-04-11T12:02:56.003Z</time></trkpt><trkpt lat="38.39246533730139" lon="16.18673502333932"><ele>814.0</ele><time>2026-04-11T12:02:57.003Z</time></trkpt><trkpt lat="38.392505911180486" lon="16.1869466731031"><ele>814.0</ele><time>2026-04-11T12:02:58.003Z</time></trkpt><trkpt lat="38.39254920233142" lon="16.18716375644871"><ele>814.0</ele><time>2026-04-11T12:02:59.003Z</time></trkpt><trkpt lat="38.39259333688355" lon="16.187362841246266"><ele>814.0</ele><time>2026-04-11T12:03:00.003Z</time></trkpt><trkpt lat="38.39263315412811" lon="16.18753164161824"><ele>814.8000000000001</ele><time>2026-04-11T12:03:01.003Z</time></trkpt><trkpt lat="38.39266812343001" lon="16.187674579500705"><ele>815.6</ele><time>2026-04-11T12:03:02.003Z</time></trkpt><trkpt lat="38.39269986496356" lon="16.187799286219427"><ele>816.4</ele><time>2026-04-11T12:03:03.003Z</time></trkpt><trkpt lat="38.39273223127137" lon="16.18792448626241"><ele>817.2</ele><time>2026-04-11T12:03:04.003Z</time></trkpt><trkpt lat="38.392764136838075" lon="16.18803493611619"><ele>818.0</ele><time>2026-04-11T12:03:05Z</time></trkpt><trkpt lat="38.392809208503294" lon="16.18813779146115"><ele>817.3333333333334</ele><time>2026-04-11T12:03:06Z</time></trkpt><trkpt lat="38.392844460716" lon="16.18823136749427"><ele>816.6666666666667</ele><time>2026-04-11T12:03:07Z</time></trkpt><trkpt lat="38.392889952873865" lon="16.188303922447872"><ele>816.0</ele><time>2026-04-11T12:03:08Z</time></trkpt><trkpt lat="38.39294233363172" lon="16.18836168991095"><ele>815.3333333333333</ele><time>2026-04-11T12:03:09Z</time></trkpt><trkpt lat="38.39305549762605" lon="16.18840052100067"><ele>814.6666666666666</ele><time>2026-04-11T12:03:11Z</time></trkpt><trkpt lat="38.39311890790449" lon="16.188376603327445"><ele>814.0</ele><time>2026-04-11T12:03:13Z</time></trkpt><trkpt lat="38.39316246939801" lon="16.188309322439924"><ele>814.0</ele><time>2026-04-11T12:03:24Z</time></trkpt><trkpt lat="38.39323259834082" lon="16.18831679066563"><ele>814.0</ele><time>2026-04-11T12:03:51.001Z</time></trkpt><trkpt lat="38.393323921792046" lon="16.188296966279136"><ele>814.0</ele><time>2026-04-11T12:03:53.001Z</time></trkpt><trkpt lat="38.39343872718221" lon="16.188288154887886"><ele>814.0</ele><time>2026-04-11T12:03:55.001Z</time></trkpt><trkpt lat="38.39351310693285" lon="16.18827959457023"><ele>814.0</ele><time>2026-04-11T12:03:56.001Z</time></trkpt><trkpt lat="38.39361504241793" lon="16.188248715734368"><ele>814.0</ele><time>2026-04-11T12:03:57.001Z</time></trkpt><trkpt lat="38.393722694183595" lon="16.188225074081004"><ele>814.0</ele><time>2026-04-11T12:03:58.001Z</time></trkpt><trkpt lat="38.3938215427781" lon="16.18820461949628"><ele>814.0</ele><time>2026-04-11T12:03:59.001Z</time></trkpt><trkpt lat="38.39391079597135" lon="16.188184819002917"><ele>814.0</ele><time>2026-04-11T12:04:00.001Z</time></trkpt><trkpt lat="38.39399320356468" lon="16.188163496643565"><ele>814.0</ele><time>2026-04-11T12:04:01.001Z</time></trkpt><trkpt lat="38.39406013911456" lon="16.188144914025518"><ele>814.8000000000001</ele><time>2026-04-11T12:04:02.001Z</time></trkpt><trkpt lat="38.39414361244686" lon="16.188123464568775"><ele>815.6</ele><time>2026-04-11T12:04:04.001Z</time></trkpt><trkpt lat="38.39422674915591" lon="16.18806141309046"><ele>816.4</ele><time>2026-04-11T12:17:23.001Z</time></trkpt><trkpt lat="38.394345259483316" lon="16.18803899376968"><ele>817.2</ele><time>2026-04-11T12:17:25.001Z</time></trkpt><trkpt lat="38.39441906090169" lon="16.18802607615223"><ele>818.0</ele><time>2026-04-11T12:17:26.001Z</time></trkpt><trkpt lat="38.39450963944603" lon="16.18800319934407"><ele>818.0</ele><time>2026-04-11T12:17:27.001Z</time></trkpt><trkpt lat="38.394614095865755" lon="16.187978100403157"><ele>818.0</ele><time>2026-04-11T12:17:28.001Z</time></trkpt><trkpt lat="38.394727173202966" lon="16.187947759320682"><ele>818.0</ele><time>2026-04-11T12:17:29.001Z</time></trkpt><trkpt lat="38.394835397651434" lon="16.18791499676505"><ele>818.0</ele><time>2026-04-11T12:17:30.001Z</time></trkpt><trkpt lat="38.394946676909335" lon="16.187877460941216"><ele>818.0</ele><time>2026-04-11T12:17:31.001Z</time></trkpt><trkpt lat="38.3950418733962" lon="16.187836531455932"><ele>818.4</ele><time>2026-04-11T12:17:32.001Z</time></trkpt><trkpt lat="38.395132059866455" lon="16.187788333744393"><ele>818.8</ele><time>2026-04-11T12:17:33.001Z</time></trkpt><trkpt lat="38.39522774187741" lon="16.18773899676664"><ele>819.2</ele><time>2026-04-11T12:17:34.001Z</time></trkpt><trkpt lat="38.39533148922718" lon="16.187696065024202"><ele>819.6</ele><time>2026-04-11T12:17:35.001Z</time></trkpt><trkpt lat="38.395433322304605" lon="16.187659682748716"><ele>820.0</ele><time>2026-04-11T12:17:36.001Z</time></trkpt><trkpt lat="38.39553799259594" lon="16.187611597379195"><ele>820.0</ele><time>2026-04-11T12:17:37.001Z</time></trkpt><trkpt lat="38.3956408606522" lon="16.187563323833903"><ele>820.0</ele><time>2026-04-11T12:17:38.001Z</time></trkpt><trkpt lat="38.39573927443596" lon="16.1875141144524"><ele>820.0</ele><time>2026-04-11T12:17:39.001Z</time></trkpt><trkpt lat="38.395838306326795" lon="16.18746694647898"><ele>820.0</ele><time>2026-04-11T12:17:40.001Z</time></trkpt><trkpt lat="38.395940385584026" lon="16.187414304990316"><ele>820.0</ele><time>2026-04-11T12:17:41.001Z</time></trkpt><trkpt lat="38.39604287555983" lon="16.18735538731644"><ele>821.0</ele><time>2026-04-11T12:17:42.001Z</time></trkpt><trkpt lat="38.39614661393091" lon="16.187287863427382"><ele>822.0</ele><time>2026-04-11T12:17:43.002Z</time></trkpt><trkpt lat="38.396253700904225" lon="16.187198316650292"><ele>823.0</ele><time>2026-04-11T12:17:44.002Z</time></trkpt><trkpt lat="38.396362285857315" lon="16.187108642334614"><ele>824.0</ele><time>2026-04-11T12:17:45.002Z</time></trkpt><trkpt lat="38.39646653989656" lon="16.18701299718956"><ele>824.0</ele><time>2026-04-11T12:17:46.002Z</time></trkpt><trkpt lat="38.39657466148499" lon="16.186917574429405"><ele>824.0</ele><time>2026-04-11T12:17:46.998Z</time></trkpt><trkpt lat="38.3966781521051" lon="16.186812080486085"><ele>824.0</ele><time>2026-04-11T12:17:47.998Z</time></trkpt><trkpt lat="38.39678109829336" lon="16.18669858987774"><ele>824.0</ele><time>2026-04-11T12:17:48.998Z</time></trkpt><trkpt lat="38.39688087891148" lon="16.186578536643054"><ele>823.5</ele><time>2026-04-11T12:17:49.998Z</time></trkpt><trkpt lat="38.396977012262774" lon="16.18644701514033"><ele>823.0</ele><time>2026-04-11T12:17:50.998Z</time></trkpt><trkpt lat="38.39706248905585" lon="16.186319359809627"><ele>822.5</ele><time>2026-04-11T12:17:51.998Z</time></trkpt><trkpt lat="38.39714322411096" lon="16.186201119012527"><ele>822.0</ele><time>2026-04-11T12:17:52.998Z</time></trkpt><trkpt lat="38.397216717877164" lon="16.186086353172502"><ele>822.0</ele><time>2026-04-11T12:17:53.998Z</time></trkpt><trkpt lat="38.397290487201964" lon="16.185994389043604"><ele>822.0</ele><time>2026-04-11T12:17:54.998Z</time></trkpt><trkpt lat="38.397372538735056" lon="16.185925774439088"><ele>822.0</ele><time>2026-04-11T12:17:55.998Z</time></trkpt><trkpt lat="38.39746577023081" lon="16.185875466243818"><ele>822.0</ele><time>2026-04-11T12:17:56.998Z</time></trkpt><trkpt lat="38.3975716575888" lon="16.185825567389777"><ele>822.0</ele><time>2026-04-11T12:17:57.999Z</time></trkpt><trkpt lat="38.39770186537613" lon="16.185801900256934"><ele>822.0</ele><time>2026-04-11T12:17:58.999Z</time></trkpt><trkpt lat="38.39784010869184" lon="16.185791070426525"><ele>822.0</ele><time>2026-04-11T12:17:59.999Z</time></trkpt><trkpt lat="38.397985064800096" lon="16.18578628824366"><ele>822.0</ele><time>2026-04-11T12:18:00.999Z</time></trkpt><trkpt lat="38.39813279935808" lon="16.18577886371947"><ele>822.0</ele><time>2026-04-11T12:18:01.999Z</time></trkpt><trkpt lat="38.398279509235856" lon="16.1857535826671"><ele>822.75</ele><time>2026-04-11T12:18:02.999Z</time></trkpt><trkpt lat="38.39842879342384" lon="16.185716062425087"><ele>823.5</ele><time>2026-04-11T12:18:03.999Z</time></trkpt><trkpt lat="38.3985609431355" lon="16.18568324508714"><ele>824.25</ele><time>2026-04-11T12:18:04.999Z</time></trkpt><trkpt lat="38.39867910614213" lon="16.185653056832567"><ele>825.0</ele><time>2026-04-11T12:18:05.999Z</time></trkpt><trkpt lat="38.39878383814012" lon="16.185626581330542"><ele>826.4</ele><time>2026-04-11T12:18:06.999Z</time></trkpt><trkpt lat="38.39887992744021" lon="16.18560287662371"><ele>827.8</ele><time>2026-04-11T12:18:07.999Z</time></trkpt><trkpt lat="38.39897117990901" lon="16.185568335849172"><ele>829.2</ele><time>2026-04-11T12:18:08.999Z</time></trkpt><trkpt lat="38.39906119389045" lon="16.185520595178506"><ele>830.6</ele><time>2026-04-11T12:18:09.999Z</time></trkpt><trkpt lat="38.39914305291252" lon="16.185465561461964"><ele>832.0</ele><time>2026-04-11T12:18:10.999Z</time></trkpt><trkpt lat="38.399212993364955" lon="16.185397536521418"><ele>831.9999999999999</ele><time>2026-04-11T12:18:11.999Z</time></trkpt><trkpt lat="38.39926871446001" lon="16.185318155865968"><ele>832.0</ele><time>2026-04-11T12:18:12.999Z</time></trkpt><trkpt lat="38.39931270153639" lon="16.185231455181107"><ele>832.0</ele><time>2026-04-11T12:18:13.999Z</time></trkpt><trkpt lat="38.39935838733873" lon="16.185140642571508"><ele>832.0</ele><time>2026-04-11T12:18:14.999Z</time></trkpt><trkpt lat="38.39940248571439" lon="16.185039967054482"><ele>831.9999999999999</ele><time>2026-04-11T12:18:15.999Z</time></trkpt><trkpt lat="38.39944055011452" lon="16.184938109216514"><ele>832.0</ele><time>2026-04-11T12:18:16.999Z</time></trkpt><trkpt lat="38.399476409623986" lon="16.184829041421438"><ele>831.8</ele><time>2026-04-11T12:18:17.999Z</time></trkpt><trkpt lat="38.39951326615213" lon="16.184721312135704"><ele>831.6</ele><time>2026-04-11T12:18:18.999Z</time></trkpt><trkpt lat="38.39956269733916" lon="16.18461554408142"><ele>831.4</ele><time>2026-04-11T12:18:19.999Z</time></trkpt><trkpt lat="38.399629882079815" lon="16.18451013553105"><ele>831.1999999999999</ele><time>2026-04-11T12:18:20.999Z</time></trkpt><trkpt lat="38.39971250693064" lon="16.184416117637536"><ele>831.0</ele><time>2026-04-11T12:18:22Z</time></trkpt><trkpt lat="38.399793952631796" lon="16.184331125628677"><ele>831.8</ele><time>2026-04-11T12:18:23Z</time></trkpt><trkpt lat="38.39987467408992" lon="16.184256659489588"><ele>832.5999999999999</ele><time>2026-04-11T12:18:24Z</time></trkpt><trkpt lat="38.399946765472315" lon="16.184190892920423"><ele>833.4</ele><time>2026-04-11T12:18:25Z</time></trkpt><trkpt lat="38.40002194029551" lon="16.184112261934832"><ele>834.2</ele><time>2026-04-11T12:18:26Z</time></trkpt><trkpt lat="38.40009919424302" lon="16.184021832609673"><ele>835.0</ele><time>2026-04-11T12:18:27Z</time></trkpt><trkpt lat="38.40017320598661" lon="16.18392751210383"><ele>837.0</ele><time>2026-04-11T12:18:28Z</time></trkpt><trkpt lat="38.40024306697439" lon="16.18383078940611"><ele>839.0</ele><time>2026-04-11T12:18:29Z</time></trkpt><trkpt lat="38.400308187966964" lon="16.183735521408245"><ele>841.0</ele><time>2026-04-11T12:18:30Z</time></trkpt><trkpt lat="38.400368476538226" lon="16.183636317927483"><ele>843.0</ele><time>2026-04-11T12:18:31Z</time></trkpt><trkpt lat="38.400427491789664" lon="16.18353920659155"><ele>845.0</ele><time>2026-04-11T12:18:32Z</time></trkpt><trkpt lat="38.4004734610789" lon="16.183428768547053"><ele>845.8333333333334</ele><time>2026-04-11T12:18:33Z</time></trkpt><trkpt lat="38.40051353597638" lon="16.183333589115733"><ele>846.6666666666667</ele><time>2026-04-11T12:18:34Z</time></trkpt><trkpt lat="38.400531707785944" lon="16.183254716053543"><ele>847.5</ele><time>2026-04-11T12:18:35Z</time></trkpt><trkpt lat="38.40056280315197" lon="16.183182656179234"><ele>848.3333333333333</ele><time>2026-04-11T12:18:36Z</time></trkpt><trkpt lat="38.40062037976959" lon="16.18304075072208"><ele>849.1666666666666</ele><time>2026-04-11T12:18:38Z</time></trkpt><trkpt lat="38.4006488172004" lon="16.18296895961133"><ele>850.0</ele><time>2026-04-11T12:18:39Z</time></trkpt><trkpt lat="38.400684018954784" lon="16.182888843248985"><ele>851.0</ele><time>2026-04-11T12:18:40Z</time></trkpt><trkpt lat="38.400726265263856" lon="16.18280073837517"><ele>852.0</ele><time>2026-04-11T12:18:41Z</time></trkpt><trkpt lat="38.40077663073112" lon="16.18271908295798"><ele>853.0</ele><time>2026-04-11T12:18:42Z</time></trkpt><trkpt lat="38.40082895977848" lon="16.182662249939533"><ele>854.0</ele><time>2026-04-11T12:18:43Z</time></trkpt><trkpt lat="38.40091219688439" lon="16.182573948917277"><ele>855.0</ele><time>2026-04-11T12:18:45Z</time></trkpt><trkpt lat="38.40100409922758" lon="16.182483481696448"><ele>855.0</ele><time>2026-04-11T12:18:47Z</time></trkpt><trkpt lat="38.40110521856847" lon="16.182379109699855"><ele>855.0</ele><time>2026-04-11T12:18:49Z</time></trkpt><trkpt lat="38.40116447165401" lon="16.18231833834376"><ele>855.0</ele><time>2026-04-11T12:18:50Z</time></trkpt><trkpt lat="38.401232812458375" lon="16.182255223950182"><ele>855.0</ele><time>2026-04-11T12:18:51Z</time></trkpt><trkpt lat="38.40130921912496" lon="16.18220123755601"><ele>855.0</ele><time>2026-04-11T12:18:52Z</time></trkpt><trkpt lat="38.401393920250534" lon="16.18216623107856"><ele>856.2</ele><time>2026-04-11T12:18:53Z</time></trkpt><trkpt lat="38.40148258561618" lon="16.182144330311516"><ele>857.4</ele><time>2026-04-11T12:18:54Z</time></trkpt><trkpt lat="38.401574181612524" lon="16.18213052455726"><ele>858.5999999999999</ele><time>2026-04-11T12:18:55Z</time></trkpt><trkpt lat="38.401677125718685" lon="16.182125802996556"><ele>859.8</ele><time>2026-04-11T12:18:56Z</time></trkpt><trkpt lat="38.40177997586733" lon="16.18213264303752"><ele>861.0</ele><time>2026-04-11T12:18:57Z</time></trkpt><trkpt lat="38.40188887333571" lon="16.182147289070684"><ele>861.0</ele><time>2026-04-11T12:18:58Z</time></trkpt><trkpt lat="38.40200682617294" lon="16.182166057319247"><ele>861.0</ele><time>2026-04-11T12:18:59Z</time></trkpt><trkpt lat="38.402132812178465" lon="16.182193514131814"><ele>861.0</ele><time>2026-04-11T12:19:00Z</time></trkpt><trkpt lat="38.402269596308535" lon="16.18221592458521"><ele>861.0</ele><time>2026-04-11T12:19:01Z</time></trkpt><trkpt lat="38.40239828948913" lon="16.18223369884509"><ele>863.0</ele><time>2026-04-11T12:19:02Z</time></trkpt><trkpt lat="38.40252643961184" lon="16.18223948642883"><ele>865.0</ele><time>2026-04-11T12:19:03Z</time></trkpt><trkpt lat="38.40265957441559" lon="16.182224597166783"><ele>867.0</ele><time>2026-04-11T12:19:04Z</time></trkpt><trkpt lat="38.402789265392826" lon="16.18219465523482"><ele>869.0</ele><time>2026-04-11T12:19:05.001Z</time></trkpt><trkpt lat="38.402914841989464" lon="16.182148914482884"><ele>871.0</ele><time>2026-04-11T12:19:06.001Z</time></trkpt><trkpt lat="38.40303663340916" lon="16.182082149165115"><ele>873.0</ele><time>2026-04-11T12:19:07.001Z</time></trkpt><trkpt lat="38.40315302147859" lon="16.182005610462195"><ele>875.0</ele><time>2026-04-11T12:19:08.001Z</time></trkpt><trkpt lat="38.40327135653053" lon="16.18191419043564"><ele>877.0</ele><time>2026-04-11T12:19:09.001Z</time></trkpt><trkpt lat="38.40338673710107" lon="16.181823092497872"><ele>877.0</ele><time>2026-04-11T12:19:10.001Z</time></trkpt><trkpt lat="38.40350375839535" lon="16.181724336450795"><ele>877.0</ele><time>2026-04-11T12:19:11.001Z</time></trkpt><trkpt lat="38.403618683994864" lon="16.181634678658533"><ele>877.0</ele><time>2026-04-11T12:19:12.001Z</time></trkpt><trkpt lat="38.40372950554972" lon="16.18155780410117"><ele>877.0</ele><time>2026-04-11T12:19:13.001Z</time></trkpt><trkpt lat="38.403849082524495" lon="16.181466245926124"><ele>879.25</ele><time>2026-04-11T12:19:14.001Z</time></trkpt><trkpt lat="38.403956913777904" lon="16.181377918458363"><ele>881.5</ele><time>2026-04-11T12:19:15.001Z</time></trkpt><trkpt lat="38.40406047148556" lon="16.181287345788466"><ele>883.75</ele><time>2026-04-11T12:19:16.001Z</time></trkpt><trkpt lat="38.40417394337562" lon="16.18121740164008"><ele>886.0</ele><time>2026-04-11T12:19:17.001Z</time></trkpt><trkpt lat="38.40427776193028" lon="16.181137097255498"><ele>886.0</ele><time>2026-04-11T12:19:18.001Z</time></trkpt><trkpt lat="38.40439233910697" lon="16.181060421981183"><ele>886.0</ele><time>2026-04-11T12:19:19.001Z</time></trkpt><trkpt lat="38.404497919428415" lon="16.18099015756285"><ele>886.0</ele><time>2026-04-11T12:19:20.001Z</time></trkpt><trkpt lat="38.40460488610615" lon="16.18094552975981"><ele>886.0</ele><time>2026-04-11T12:19:21.001Z</time></trkpt><trkpt lat="38.40471570297823" lon="16.180887355336367"><ele>888.75</ele><time>2026-04-11T12:19:22.001Z</time></trkpt><trkpt lat="38.40483319452077" lon="16.18087259359759"><ele>891.5</ele><time>2026-04-11T12:19:23.001Z</time></trkpt><trkpt lat="38.40489901979003" lon="16.180929427569474"><ele>894.25</ele><time>2026-04-11T12:19:24.001Z</time></trkpt><trkpt lat="38.40502621290098" lon="16.180959608279966"><ele>897.0</ele><time>2026-04-11T12:19:25.001Z</time></trkpt><trkpt lat="38.405172238416974" lon="16.18090785497022"><ele>897.0</ele><time>2026-04-11T12:19:26.001Z</time></trkpt><trkpt lat="38.40532301967238" lon="16.180839017243898"><ele>897.0</ele><time>2026-04-11T12:19:27.001Z</time></trkpt><trkpt lat="38.40546860327764" lon="16.180787938886382"><ele>897.0</ele><time>2026-04-11T12:19:28.001Z</time></trkpt><trkpt lat="38.40561436814578" lon="16.180708548810973"><ele>895.25</ele><time>2026-04-11T12:19:29.001Z</time></trkpt><trkpt lat="38.40574617177546" lon="16.18063673418597"><ele>893.5</ele><time>2026-04-11T12:19:30.001Z</time></trkpt><trkpt lat="38.405874494622175" lon="16.180554631622595"><ele>891.75</ele><time>2026-04-11T12:19:31.001Z</time></trkpt><trkpt lat="38.40600564021915" lon="16.180466846114964"><ele>890.0</ele><time>2026-04-11T12:19:32.001Z</time></trkpt><trkpt lat="38.40613432222219" lon="16.180376481653987"><ele>890.0</ele><time>2026-04-11T12:19:33.001Z</time></trkpt><trkpt lat="38.40625414653037" lon="16.180274574401594"><ele>890.0</ele><time>2026-04-11T12:19:34.001Z</time></trkpt><trkpt lat="38.40637853021257" lon="16.18016151374166"><ele>890.0</ele><time>2026-04-11T12:19:35.001Z</time></trkpt><trkpt lat="38.40649929125583" lon="16.180056296405738"><ele>890.0</ele><time>2026-04-11T12:19:36.001Z</time></trkpt><trkpt lat="38.406623225085085" lon="16.179939276454288"><ele>888.25</ele><time>2026-04-11T12:19:37.001Z</time></trkpt><trkpt lat="38.406740902929336" lon="16.179821953484282"><ele>886.5</ele><time>2026-04-11T12:19:38.001Z</time></trkpt><trkpt lat="38.40686467580062" lon="16.17971350143961"><ele>884.75</ele><time>2026-04-11T12:19:39.001Z</time></trkpt><trkpt lat="38.406990371849616" lon="16.179610650832533"><ele>883.0</ele><time>2026-04-11T12:19:40.001Z</time></trkpt><trkpt lat="38.40711375754315" lon="16.179513857465817"><ele>883.0</ele><time>2026-04-11T12:19:41.001Z</time></trkpt><trkpt lat="38.407232106259634" lon="16.17941350504143"><ele>883.0</ele><time>2026-04-11T12:19:42.001Z</time></trkpt><trkpt lat="38.407347987237664" lon="16.179313591209265"><ele>883.0</ele><time>2026-04-11T12:19:43.001Z</time></trkpt><trkpt lat="38.407449609054396" lon="16.179218364270906"><ele>883.0</ele><time>2026-04-11T12:19:44.001Z</time></trkpt><trkpt lat="38.4075490009654" lon="16.179129635681026"><ele>883.0</ele><time>2026-04-11T12:19:45.001Z</time></trkpt><trkpt lat="38.4076586903893" lon="16.179032873498805"><ele>883.0</ele><time>2026-04-11T12:19:46.001Z</time></trkpt><trkpt lat="38.40777558057853" lon="16.17893543017278"><ele>883.0</ele><time>2026-04-11T12:19:47.001Z</time></trkpt><trkpt lat="38.407893578286625" lon="16.17883762295748"><ele>883.0</ele><time>2026-04-11T12:19:48.001Z</time></trkpt><trkpt lat="38.40801846016617" lon="16.178742125028315"><ele>883.0</ele><time>2026-04-11T12:19:49.001Z</time></trkpt><trkpt lat="38.408146700012594" lon="16.17866385982593"><ele>883.0</ele><time>2026-04-11T12:19:50.001Z</time></trkpt><trkpt lat="38.40828257945469" lon="16.17860593360252"><ele>883.0</ele><time>2026-04-11T12:19:51.001Z</time></trkpt><trkpt lat="38.408428589650065" lon="16.178578862343617"><ele>883.0</ele><time>2026-04-11T12:19:52.001Z</time></trkpt><trkpt lat="38.40858054706414" lon="16.17856499161933"><ele>883.0</ele><time>2026-04-11T12:19:52.998Z</time></trkpt><trkpt lat="38.408733557564695" lon="16.178567604184007"><ele>883.0</ele><time>2026-04-11T12:19:53.998Z</time></trkpt><trkpt lat="38.408891031073615" lon="16.17857566782202"><ele>883.0</ele><time>2026-04-11T12:19:54.998Z</time></trkpt><trkpt lat="38.40904097830171" lon="16.178576108872345"><ele>884.3333333333333</ele><time>2026-04-11T12:19:55.998Z</time></trkpt><trkpt lat="38.40918951979978" lon="16.178576064177445"><ele>885.6666666666667</ele><time>2026-04-11T12:19:56.998Z</time></trkpt><trkpt lat="38.40933943251861" lon="16.178574818603586"><ele>887.0</ele><time>2026-04-11T12:19:57.998Z</time></trkpt><trkpt lat="38.409492744949866" lon="16.17856862203603"><ele>887.0</ele><time>2026-04-11T12:19:58.998Z</time></trkpt><trkpt lat="38.40964525171792" lon="16.178563393246826"><ele>887.0</ele><time>2026-04-11T12:19:59.998Z</time></trkpt><trkpt lat="38.4097973889522" lon="16.178561499319713"><ele>887.0</ele><time>2026-04-11T12:20:00.998Z</time></trkpt><trkpt lat="38.40994415046736" lon="16.178561086065518"><ele>886.75</ele><time>2026-04-11T12:20:01.998Z</time></trkpt><trkpt lat="38.41008667843495" lon="16.178551074512214"><ele>886.5</ele><time>2026-04-11T12:20:02.998Z</time></trkpt><trkpt lat="38.410231242355586" lon="16.178515680588983"><ele>886.25</ele><time>2026-04-11T12:20:03.998Z</time></trkpt><trkpt lat="38.41036771016046" lon="16.178443382778237"><ele>886.0</ele><time>2026-04-11T12:20:04.998Z</time></trkpt><trkpt lat="38.41049713774444" lon="16.17834360385342"><ele>886.0</ele><time>2026-04-11T12:20:05.998Z</time></trkpt><trkpt lat="38.41061414696116" lon="16.178230757907777"><ele>886.0</ele><time>2026-04-11T12:20:06.998Z</time></trkpt><trkpt lat="38.41072503570489" lon="16.178103495378586"><ele>886.0</ele><time>2026-04-11T12:20:07.998Z</time></trkpt><trkpt lat="38.41082933494328" lon="16.177976320734757"><ele>886.0</ele><time>2026-04-11T12:20:08.998Z</time></trkpt><trkpt lat="38.41093195127898" lon="16.17785501404587"><ele>886.0</ele><time>2026-04-11T12:20:09.998Z</time></trkpt><trkpt lat="38.41104252052234" lon="16.17774379998454"><ele>886.0</ele><time>2026-04-11T12:20:10.999Z</time></trkpt><trkpt lat="38.411147524352465" lon="16.177650434401414"><ele>886.0</ele><time>2026-04-11T12:20:11.999Z</time></trkpt><trkpt lat="38.41123723337586" lon="16.177569418629076"><ele>886.0</ele><time>2026-04-11T12:20:12.999Z</time></trkpt><trkpt lat="38.41131206787057" lon="16.177494047521616"><ele>886.0</ele><time>2026-04-11T12:20:13.999Z</time></trkpt><trkpt lat="38.411386750209836" lon="16.177418855064168"><ele>885.9999999999999</ele><time>2026-04-11T12:20:14.999Z</time></trkpt><trkpt lat="38.41146255359515" lon="16.177344246222567"><ele>885.9999999999999</ele><time>2026-04-11T12:20:15.999Z</time></trkpt><trkpt lat="38.41153526071055" lon="16.17727493951197"><ele>886.0</ele><time>2026-04-11T12:20:16.999Z</time></trkpt><trkpt lat="38.411610554944254" lon="16.177219404422576"><ele>886.0</ele><time>2026-04-11T12:20:17.999Z</time></trkpt><trkpt lat="38.41169749219475" lon="16.177181369682863"><ele>886.0</ele><time>2026-04-11T12:20:18.999Z</time></trkpt><trkpt lat="38.411815137929665" lon="16.177181730564207"><ele>886.0</ele><time>2026-04-11T12:20:19.999Z</time></trkpt><trkpt lat="38.41192577687015" lon="16.177165564369524"><ele>886.0</ele><time>2026-04-11T12:20:20.999Z</time></trkpt><trkpt lat="38.412048166865375" lon="16.177174846585064"><ele>886.0</ele><time>2026-04-11T12:20:21.999Z</time></trkpt><trkpt lat="38.41216921540738" lon="16.177191643668028"><ele>889.25</ele><time>2026-04-11T12:20:22.999Z</time></trkpt><trkpt lat="38.41229643219137" lon="16.177194000265317"><ele>892.5</ele><time>2026-04-11T12:20:23.999Z</time></trkpt><trkpt lat="38.41240975679172" lon="16.177199894367174"><ele>895.75</ele><time>2026-04-11T12:20:24.999Z</time></trkpt><trkpt lat="38.41252610604827" lon="16.17715752586068"><ele>899.0</ele><time>2026-04-11T12:20:25.999Z</time></trkpt><trkpt lat="38.41263566143948" lon="16.177083461550996"><ele>899.0</ele><time>2026-04-11T12:20:26.999Z</time></trkpt><trkpt lat="38.412724423631914" lon="16.1769761974414"><ele>899.0</ele><time>2026-04-11T12:20:27.999Z</time></trkpt><trkpt lat="38.412799032539716" lon="16.176850764556672"><ele>899.0</ele><time>2026-04-11T12:20:28.999Z</time></trkpt><trkpt lat="38.41284325315231" lon="16.17670464712608"><ele>899.0</ele><time>2026-04-11T12:20:30Z</time></trkpt><trkpt lat="38.41287837283989" lon="16.176563667588397"><ele>898.2</ele><time>2026-04-11T12:20:31Z</time></trkpt><trkpt lat="38.41292582530954" lon="16.176455054957383"><ele>897.4000000000001</ele><time>2026-04-11T12:20:32Z</time></trkpt><trkpt lat="38.41300438699948" lon="16.176368334487336"><ele>896.6</ele><time>2026-04-11T12:20:33Z</time></trkpt><trkpt lat="38.41311199137526" lon="16.176326127709512"><ele>895.8</ele><time>2026-04-11T12:20:34Z</time></trkpt><trkpt lat="38.4132389285292" lon="16.17633972482285"><ele>895.0</ele><time>2026-04-11T12:20:35Z</time></trkpt><trkpt lat="38.413386728104896" lon="16.176353878156146"><ele>895.0</ele><time>2026-04-11T12:20:36Z</time></trkpt><trkpt lat="38.41350779304788" lon="16.17642253446828"><ele>895.0</ele><time>2026-04-11T12:20:37Z</time></trkpt><trkpt lat="38.41364277343805" lon="16.176466360660253"><ele>895.0</ele><time>2026-04-11T12:20:38Z</time></trkpt><trkpt lat="38.413786117180535" lon="16.17650531827975"><ele>895.0</ele><time>2026-04-11T12:20:39Z</time></trkpt><trkpt lat="38.413925218530196" lon="16.176544914620372"><ele>898.75</ele><time>2026-04-11T12:20:40Z</time></trkpt><trkpt lat="38.414065624351025" lon="16.176585230876515"><ele>902.5</ele><time>2026-04-11T12:20:41Z</time></trkpt><trkpt lat="38.414202840792896" lon="16.176628488054973"><ele>906.25</ele><time>2026-04-11T12:20:42Z</time></trkpt><trkpt lat="38.41434248484271" lon="16.176673598679173"><ele>910.0</ele><time>2026-04-11T12:20:43Z</time></trkpt><trkpt lat="38.414476393280204" lon="16.176710054904255"><ele>910.0</ele><time>2026-04-11T12:20:44Z</time></trkpt><trkpt lat="38.41460807777923" lon="16.176746763066546"><ele>910.0</ele><time>2026-04-11T12:20:45Z</time></trkpt><trkpt lat="38.414737303748666" lon="16.176785869552315"><ele>910.0</ele><time>2026-04-11T12:20:46Z</time></trkpt><trkpt lat="38.41486817440162" lon="16.176824416558492"><ele>910.0</ele><time>2026-04-11T12:20:47Z</time></trkpt><trkpt lat="38.41499933498787" lon="16.176856524033727"><ele>909.75</ele><time>2026-04-11T12:20:48Z</time></trkpt><trkpt lat="38.415138999964505" lon="16.176864324250076"><ele>909.5</ele><time>2026-04-11T12:20:49Z</time></trkpt><trkpt lat="38.41526226199338" lon="16.176841169776026"><ele>909.25</ele><time>2026-04-11T12:20:50Z</time></trkpt><trkpt lat="38.41537154213488" lon="16.176792355607173"><ele>909.0</ele><time>2026-04-11T12:20:51Z</time></trkpt><trkpt lat="38.41548189237689" lon="16.176738018512662"><ele>909.0</ele><time>2026-04-11T12:20:52Z</time></trkpt><trkpt lat="38.415596189833906" lon="16.176710847793746"><ele>909.0</ele><time>2026-04-11T12:20:53Z</time></trkpt><trkpt lat="38.41571317043171" lon="16.176731266052897"><ele>909.0</ele><time>2026-04-11T12:20:54Z</time></trkpt><trkpt lat="38.41581327778007" lon="16.176808910018995"><ele>909.0</ele><time>2026-04-11T12:20:55Z</time></trkpt><trkpt lat="38.41588261143317" lon="16.176948744397997"><ele>909.0</ele><time>2026-04-11T12:20:56Z</time></trkpt><trkpt lat="38.41596830092068" lon="16.177076837767956"><ele>909.0</ele><time>2026-04-11T12:20:57Z</time></trkpt><trkpt lat="38.416038315558374" lon="16.177197294528295"><ele>909.0</ele><time>2026-04-11T12:20:58Z</time></trkpt><trkpt lat="38.41609902720615" lon="16.177308675280038"><ele>909.0</ele><time>2026-04-11T12:20:59Z</time></trkpt><trkpt lat="38.41616717612103" lon="16.17740639848966"><ele>909.0</ele><time>2026-04-11T12:21:00Z</time></trkpt><trkpt lat="38.41623506718864" lon="16.177506584803123"><ele>909.0000000000001</ele><time>2026-04-11T12:21:01Z</time></trkpt><trkpt lat="38.416309134914684" lon="16.177614695466634"><ele>909.0000000000001</ele><time>2026-04-11T12:21:02.001Z</time></trkpt><trkpt lat="38.41638312743096" lon="16.177712466014146"><ele>909.0</ele><time>2026-04-11T12:21:03.001Z</time></trkpt><trkpt lat="38.41645668934358" lon="16.177803007877515"><ele>909.0</ele><time>2026-04-11T12:21:04.001Z</time></trkpt><trkpt lat="38.41652462370179" lon="16.17789006168136"><ele>910.6</ele><time>2026-04-11T12:21:05.001Z</time></trkpt><trkpt lat="38.41658405368274" lon="16.177966365407315"><ele>912.2</ele><time>2026-04-11T12:21:06.001Z</time></trkpt><trkpt lat="38.4166593976444" lon="16.178029746559726"><ele>913.8000000000001</ele><time>2026-04-11T12:21:08.001Z</time></trkpt><trkpt lat="38.41674562717756" lon="16.17805418416719"><ele>915.4000000000001</ele><time>2026-04-11T12:21:10.001Z</time></trkpt><trkpt lat="38.416844276190645" lon="16.178070133669127"><ele>917.0</ele><time>2026-04-11T12:22:42Z</time></trkpt><trkpt lat="38.41701967448473" lon="16.17805473243625"><ele>917.0</ele><time>2026-04-11T12:22:44Z</time></trkpt><trkpt lat="38.41710923038249" lon="16.17793741866723"><ele>917.0</ele><time>2026-04-11T12:22:46Z</time></trkpt><trkpt lat="38.41694425618275" lon="16.177570356358434"><ele>917.0</ele><time>2026-04-11T12:22:47Z</time></trkpt><trkpt lat="38.41697972195858" lon="16.17747531850027"><ele>917.0</ele><time>2026-04-11T12:22:48.001Z</time></trkpt><trkpt lat="38.41740002295156" lon="16.177664398159504"><ele>921.0</ele><time>2026-04-11T12:22:49.001Z</time></trkpt><trkpt lat="38.41750061771237" lon="16.177548464981342"><ele>925.0</ele><time>2026-04-11T12:22:50.001Z</time></trkpt><trkpt lat="38.41760157818951" lon="16.177415306048985"><ele>929.0</ele><time>2026-04-11T12:22:51.001Z</time></trkpt><trkpt lat="38.417708453927354" lon="16.177297885613246"><ele>933.0</ele><time>2026-04-11T12:22:52.001Z</time></trkpt><trkpt lat="38.417811156334054" lon="16.177159571534933"><ele>933.0</ele><time>2026-04-11T12:22:53.001Z</time></trkpt><trkpt lat="38.41791425151773" lon="16.177031442731938"><ele>933.0</ele><time>2026-04-11T12:22:54.001Z</time></trkpt><trkpt lat="38.418004241839604" lon="16.17688881681317"><ele>933.0</ele><time>2026-04-11T12:22:55.001Z</time></trkpt><trkpt lat="38.41806934265246" lon="16.176748709205853"><ele>933.0</ele><time>2026-04-11T12:22:56.001Z</time></trkpt><trkpt lat="38.4181266578755" lon="16.176602087893833"><ele>938.3333333333333</ele><time>2026-04-11T12:22:57.001Z</time></trkpt><trkpt lat="38.41816879729253" lon="16.17641852826609"><ele>943.6666666666666</ele><time>2026-04-11T12:22:58.001Z</time></trkpt><trkpt lat="38.41821475665288" lon="16.176232449297252"><ele>949.0</ele><time>2026-04-11T12:22:59.001Z</time></trkpt><trkpt lat="38.41826119957148" lon="16.176046205541173"><ele>949.0</ele><time>2026-04-11T12:23:00.001Z</time></trkpt><trkpt lat="38.41833884740259" lon="16.175888269009594"><ele>949.0</ele><time>2026-04-11T12:23:01.001Z</time></trkpt><trkpt lat="38.41842292183217" lon="16.17574319139963"><ele>949.0</ele><time>2026-04-11T12:23:02.001Z</time></trkpt><trkpt lat="38.41851206384489" lon="16.17563466609165"><ele>949.0</ele><time>2026-04-11T12:23:03.001Z</time></trkpt><trkpt lat="38.41861414488243" lon="16.175551389739542"><ele>951.5</ele><time>2026-04-11T12:23:04.001Z</time></trkpt><trkpt lat="38.418712671172194" lon="16.175503572637425"><ele>954.0</ele><time>2026-04-11T12:23:05.001Z</time></trkpt><trkpt lat="38.41885484552026" lon="16.17546839060966"><ele>956.5</ele><time>2026-04-11T12:23:06.001Z</time></trkpt><trkpt lat="38.41897416378292" lon="16.175477380460848"><ele>959.0</ele><time>2026-04-11T12:23:07.001Z</time></trkpt><trkpt lat="38.4190807114115" lon="16.175509698498672"><ele>959.0</ele><time>2026-04-11T12:23:08.001Z</time></trkpt><trkpt lat="38.41917875252325" lon="16.175565530096012"><ele>959.0</ele><time>2026-04-11T12:23:09.001Z</time></trkpt><trkpt lat="38.419286140514025" lon="16.175648870233292"><ele>959.0</ele><time>2026-04-11T12:23:10.001Z</time></trkpt><trkpt lat="38.4194068781189" lon="16.175764167609163"><ele>959.0</ele><time>2026-04-11T12:23:11.001Z</time></trkpt><trkpt lat="38.41956145783579" lon="16.175985030748812"><ele>958.3333333333334</ele><time>2026-04-11T12:23:12.001Z</time></trkpt><trkpt lat="38.419686139711644" lon="16.176132579763618"><ele>957.6666666666667</ele><time>2026-04-11T12:23:13.001Z</time></trkpt><trkpt lat="38.419811649584936" lon="16.17627918909175"><ele>957.0</ele><time>2026-04-11T12:23:14.001Z</time></trkpt><trkpt lat="38.419975751105284" lon="16.176420903548333"><ele>962.3333333333333</ele><time>2026-04-11T12:23:15.001Z</time></trkpt><trkpt lat="38.42013583872117" lon="16.17655735169976"><ele>967.6666666666666</ele><time>2026-04-11T12:23:16.001Z</time></trkpt><trkpt lat="38.420292813301295" lon="16.176675356160672"><ele>973.0</ele><time>2026-04-11T12:23:17.001Z</time></trkpt><trkpt lat="38.420391213988076" lon="16.17683005012488"><ele>974.0</ele><time>2026-04-11T12:23:18.001Z</time></trkpt><trkpt lat="38.420488153665104" lon="16.17693446775173"><ele>975.0</ele><time>2026-04-11T12:23:19.001Z</time></trkpt><trkpt lat="38.42059880785515" lon="16.177071035771405"><ele>976.0</ele><time>2026-04-11T12:23:20.001Z</time></trkpt><trkpt lat="38.42066971848695" lon="16.177224047402955"><ele>977.0</ele><time>2026-04-11T12:23:21.002Z</time></trkpt><trkpt lat="38.42070375189502" lon="16.17739021178087"><ele>977.0</ele><time>2026-04-11T12:23:22.002Z</time></trkpt><trkpt lat="38.4207137507726" lon="16.177565626400032"><ele>977.0</ele><time>2026-04-11T12:23:23.002Z</time></trkpt><trkpt lat="38.42068641797745" lon="16.177731983756352"><ele>977.0</ele><time>2026-04-11T12:23:24.002Z</time></trkpt><trkpt lat="38.42064116882422" lon="16.177888868358426"><ele>977.0</ele><time>2026-04-11T12:23:25.002Z</time></trkpt><trkpt lat="38.42057766881821" lon="16.17803895630525"><ele>979.25</ele><time>2026-04-11T12:23:26.002Z</time></trkpt><trkpt lat="38.420497376226855" lon="16.178192181760114"><ele>981.5</ele><time>2026-04-11T12:23:27.002Z</time></trkpt><trkpt lat="38.42041543704833" lon="16.178345994867836"><ele>983.75</ele><time>2026-04-11T12:23:28.002Z</time></trkpt><trkpt lat="38.42032806725228" lon="16.17850837100068"><ele>986.0</ele><time>2026-04-11T12:23:29.002Z</time></trkpt><trkpt lat="38.420245691532536" lon="16.178684787822462"><ele>986.0</ele><time>2026-04-11T12:23:30.002Z</time></trkpt><trkpt lat="38.42015418559706" lon="16.17886165799914"><ele>986.0</ele><time>2026-04-11T12:23:31.002Z</time></trkpt><trkpt lat="38.42005877290614" lon="16.179016045690783"><ele>986.0</ele><time>2026-04-11T12:23:32.002Z</time></trkpt><trkpt lat="38.41996564056855" lon="16.179163761748402"><ele>985.75</ele><time>2026-04-11T12:23:33.002Z</time></trkpt><trkpt lat="38.4198874429963" lon="16.179317016298494"><ele>985.5</ele><time>2026-04-11T12:23:34.002Z</time></trkpt><trkpt lat="38.41983725782063" lon="16.17949238374372"><ele>985.25</ele><time>2026-04-11T12:23:35.002Z</time></trkpt><trkpt lat="38.419804618928644" lon="16.179675525006296"><ele>985.0</ele><time>2026-04-11T12:23:36.002Z</time></trkpt><trkpt lat="38.419816441532014" lon="16.179864714680107"><ele>986.5</ele><time>2026-04-11T12:23:37.002Z</time></trkpt><trkpt lat="38.41985596912554" lon="16.180035094570442"><ele>988.0</ele><time>2026-04-11T12:23:38.002Z</time></trkpt><trkpt lat="38.419919247348865" lon="16.180191642306475"><ele>989.5</ele><time>2026-04-11T12:23:39.002Z</time></trkpt><trkpt lat="38.419999494762976" lon="16.180338799873777"><ele>991.0</ele><time>2026-04-11T12:23:40.002Z</time></trkpt><trkpt lat="38.42009687560699" lon="16.180454427827762"><ele>991.0</ele><time>2026-04-11T12:23:41.002Z</time></trkpt><trkpt lat="38.42022574513136" lon="16.180565681264127"><ele>991.0</ele><time>2026-04-11T12:23:42.002Z</time></trkpt><trkpt lat="38.42036410544691" lon="16.18064665834154"><ele>991.0</ele><time>2026-04-11T12:23:43.002Z</time></trkpt><trkpt lat="38.420519182556646" lon="16.180697974667424"><ele>993.3333333333333</ele><time>2026-04-11T12:23:44.002Z</time></trkpt><trkpt lat="38.42068136373729" lon="16.180728315927794"><ele>995.6666666666667</ele><time>2026-04-11T12:23:45.002Z</time></trkpt><trkpt lat="38.420839347102884" lon="16.180780873036912"><ele>998.0</ele><time>2026-04-11T12:23:46.002Z</time></trkpt><trkpt lat="38.42099554786057" lon="16.180843473980943"><ele>998.0</ele><time>2026-04-11T12:23:47.002Z</time></trkpt><trkpt lat="38.42115000206816" lon="16.180906102061066"><ele>998.0</ele><time>2026-04-11T12:23:48.002Z</time></trkpt><trkpt lat="38.42130890250901" lon="16.18095981966817"><ele>998.0</ele><time>2026-04-11T12:23:49.002Z</time></trkpt><trkpt lat="38.4214590171644" lon="16.18099964058702"><ele>999.3333333333334</ele><time>2026-04-11T12:23:50.002Z</time></trkpt><trkpt lat="38.42162673603041" lon="16.181045642761035"><ele>1000.6666666666667</ele><time>2026-04-11T12:23:51.002Z</time></trkpt><trkpt lat="38.42177828947668" lon="16.18110788290358"><ele>1002.0</ele><time>2026-04-11T12:23:52.002Z</time></trkpt><trkpt lat="38.42193036171737" lon="16.181156570332305"><ele>1002.0</ele><time>2026-04-11T12:23:53.002Z</time></trkpt><trkpt lat="38.42207965410299" lon="16.181203312002406"><ele>1002.0</ele><time>2026-04-11T12:23:54.002Z</time></trkpt><trkpt lat="38.4222260860021" lon="16.181265874034114"><ele>1002.0</ele><time>2026-04-11T12:23:55.003Z</time></trkpt><trkpt lat="38.42235759181481" lon="16.18132626079229"><ele>1002.0</ele><time>2026-04-11T12:23:56.003Z</time></trkpt><trkpt lat="38.42248028028877" lon="16.181388563502857"><ele>1002.0</ele><time>2026-04-11T12:23:57.003Z</time></trkpt><trkpt lat="38.4225990786482" lon="16.181454452880494"><ele>1002.0</ele><time>2026-04-11T12:23:58.003Z</time></trkpt><trkpt lat="38.422694971739105" lon="16.181578865468335"><ele>1002.0</ele><time>2026-04-11T12:23:59.003Z</time></trkpt><trkpt lat="38.422779069686534" lon="16.181736593142478"><ele>1002.0</ele><time>2026-04-11T12:24:00.003Z</time></trkpt><trkpt lat="38.422862849603725" lon="16.18190782093945"><ele>1001.6666666666667</ele><time>2026-04-11T12:24:01.003Z</time></trkpt><trkpt lat="38.4229752308196" lon="16.18207151184281"><ele>1001.3333333333334</ele><time>2026-04-11T12:24:02.003Z</time></trkpt><trkpt lat="38.423120113045485" lon="16.182192662889268"><ele>1001.0</ele><time>2026-04-11T12:24:03.003Z</time></trkpt><trkpt lat="38.42329259551876" lon="16.182268943412808"><ele>999.3333333333334</ele><time>2026-04-11T12:24:04.003Z</time></trkpt><trkpt lat="38.423461509612736" lon="16.182320860574148"><ele>997.6666666666667</ele><time>2026-04-11T12:24:05Z</time></trkpt><trkpt lat="38.42363686067202" lon="16.1823493942047"><ele>996.0</ele><time>2026-04-11T12:24:06Z</time></trkpt><trkpt lat="38.42380719410195" lon="16.182361866606534"><ele>995.6666666666667</ele><time>2026-04-11T12:24:07Z</time></trkpt><trkpt lat="38.4239753574227" lon="16.18237627609096"><ele>995.3333333333334</ele><time>2026-04-11T12:24:08Z</time></trkpt><trkpt lat="38.424149937282515" lon="16.182369434294884"><ele>995.0</ele><time>2026-04-11T12:24:09Z</time></trkpt><trkpt lat="38.42431730983403" lon="16.182365635246267"><ele>995.0</ele><time>2026-04-11T12:24:10Z</time></trkpt><trkpt lat="38.42447951490659" lon="16.182368766520582"><ele>995.0</ele><time>2026-04-11T12:24:11Z</time></trkpt><trkpt lat="38.424643065654415" lon="16.182381407999838"><ele>995.0</ele><time>2026-04-11T12:24:12Z</time></trkpt><trkpt lat="38.42480944799371" lon="16.18238699547162"><ele>997.3333333333334</ele><time>2026-04-11T12:24:13Z</time></trkpt><trkpt lat="38.42496598533099" lon="16.182408223397797"><ele>999.6666666666667</ele><time>2026-04-11T12:24:14Z</time></trkpt><trkpt lat="38.4251317990555" lon="16.182400658148158"><ele>1002.0</ele><time>2026-04-11T12:24:15Z</time></trkpt><trkpt lat="38.42529146580807" lon="16.18243548192293"><ele>1002.0</ele><time>2026-04-11T12:24:16Z</time></trkpt><trkpt lat="38.425445493981705" lon="16.182483703150208"><ele>1002.0</ele><time>2026-04-11T12:24:17Z</time></trkpt><trkpt lat="38.42558838135004" lon="16.182550030737005"><ele>1002.0</ele><time>2026-04-11T12:24:18Z</time></trkpt><trkpt lat="38.425715351416414" lon="16.18266610481071"><ele>1003.3333333333333</ele><time>2026-04-11T12:24:19Z</time></trkpt><trkpt lat="38.4258361460695" lon="16.182807197585905"><ele>1004.6666666666666</ele><time>2026-04-11T12:24:20Z</time></trkpt><trkpt lat="38.425925817352656" lon="16.18296959318127"><ele>1006.0</ele><time>2026-04-11T12:24:21Z</time></trkpt><trkpt lat="38.425972293122804" lon="16.18314047493695"><ele>1006.0</ele><time>2026-04-11T12:24:22Z</time></trkpt><trkpt lat="38.426012515090115" lon="16.183324583941328"><ele>1006.0</ele><time>2026-04-11T12:24:23Z</time></trkpt><trkpt lat="38.42603770332221" lon="16.183520575824467"><ele>1006.0</ele><time>2026-04-11T12:24:24Z</time></trkpt><trkpt lat="38.426051656815865" lon="16.183721468951248"><ele>1006.0</ele><time>2026-04-11T12:24:25Z</time></trkpt><trkpt lat="38.4260352303536" lon="16.183912549837952"><ele>1006.0</ele><time>2026-04-11T12:24:26Z</time></trkpt><trkpt lat="38.42602416095772" lon="16.184129987745944"><ele>1006.0</ele><time>2026-04-11T12:24:27.001Z</time></trkpt><trkpt lat="38.42603577091075" lon="16.184330547015737"><ele>1006.6666666666666</ele><time>2026-04-11T12:24:28.001Z</time></trkpt><trkpt lat="38.426045722628324" lon="16.184555092425075"><ele>1007.3333333333333</ele><time>2026-04-11T12:24:29.001Z</time></trkpt><trkpt lat="38.426054423302176" lon="16.18476691739158"><ele>1008.0</ele><time>2026-04-11T12:24:30.001Z</time></trkpt><trkpt lat="38.4260594875543" lon="16.184971153682717"><ele>1007.0</ele><time>2026-04-11T12:24:31.001Z</time></trkpt><trkpt lat="38.426065274434485" lon="16.18516774973259"><ele>1006.0</ele><time>2026-04-11T12:24:32.001Z</time></trkpt><trkpt lat="38.426090730127605" lon="16.18537269340741"><ele>1005.0</ele><time>2026-04-11T12:24:33.001Z</time></trkpt><trkpt lat="38.426068636912774" lon="16.185538430878218"><ele>1004.0</ele><time>2026-04-11T12:24:34.001Z</time></trkpt><trkpt lat="38.426032456056404" lon="16.185723008222077"><ele>1004.0</ele><time>2026-04-11T12:24:35.001Z</time></trkpt><trkpt lat="38.42597525070647" lon="16.1858999504446"><ele>1004.0</ele><time>2026-04-11T12:24:36.001Z</time></trkpt><trkpt lat="38.42588725888738" lon="16.18607889394298"><ele>1004.0</ele><time>2026-04-11T12:24:37.001Z</time></trkpt><trkpt lat="38.42577857447222" lon="16.18622100041034"><ele>1004.0</ele><time>2026-04-11T12:24:38.001Z</time></trkpt><trkpt lat="38.42569905469343" lon="16.186382716879688"><ele>1004.0</ele><time>2026-04-11T12:24:39.001Z</time></trkpt><trkpt lat="38.42561307658197" lon="16.186548884090247"><ele>1004.0</ele><time>2026-04-11T12:24:40.001Z</time></trkpt><trkpt lat="38.42555443769905" lon="16.186718103132627"><ele>1004.25</ele><time>2026-04-11T12:24:41.001Z</time></trkpt><trkpt lat="38.425563715667735" lon="16.186881669880638"><ele>1004.5</ele><time>2026-04-11T12:24:42.001Z</time></trkpt><trkpt lat="38.42564200009923" lon="16.18704700362923"><ele>1004.75</ele><time>2026-04-11T12:24:43.001Z</time></trkpt><trkpt lat="38.42571322658367" lon="16.18718761847606"><ele>1005.0</ele><time>2026-04-11T12:24:44.001Z</time></trkpt><trkpt lat="38.425836163126746" lon="16.187322460043664"><ele>1000.3333333333333</ele><time>2026-04-11T12:24:45.001Z</time></trkpt><trkpt lat="38.425956828377096" lon="16.18742636029573"><ele>995.6666666666666</ele><time>2026-04-11T12:24:46.001Z</time></trkpt><trkpt lat="38.42608586880063" lon="16.187534522673484"><ele>991.0</ele><time>2026-04-11T12:24:47.001Z</time></trkpt><trkpt lat="38.426204851863005" lon="16.187671650415165"><ele>993.6666666666666</ele><time>2026-04-11T12:24:48.001Z</time></trkpt><trkpt lat="38.426341695578806" lon="16.187820179956752"><ele>996.3333333333333</ele><time>2026-04-11T12:24:49.001Z</time></trkpt><trkpt lat="38.42647414518578" lon="16.187958145356948"><ele>999.0</ele><time>2026-04-11T12:24:50.001Z</time></trkpt><trkpt lat="38.426596431576456" lon="16.188087263998465"><ele>996.5</ele><time>2026-04-11T12:24:51.001Z</time></trkpt><trkpt lat="38.42671178195464" lon="16.188216218452755"><ele>994.0</ele><time>2026-04-11T12:24:52.001Z</time></trkpt><trkpt lat="38.42682521849606" lon="16.188334671480128"><ele>991.5</ele><time>2026-04-11T12:24:53.001Z</time></trkpt><trkpt lat="38.42692789780144" lon="16.18845729419877"><ele>989.0</ele><time>2026-04-11T12:24:54.001Z</time></trkpt><trkpt lat="38.42702307132062" lon="16.188580878614754"><ele>989.0</ele><time>2026-04-11T12:24:55.001Z</time></trkpt><trkpt lat="38.427111679990595" lon="16.188713743726666"><ele>989.0</ele><time>2026-04-11T12:24:56.001Z</time></trkpt><trkpt lat="38.42720160645052" lon="16.18885043700785"><ele>989.0</ele><time>2026-04-11T12:24:57.001Z</time></trkpt><trkpt lat="38.42726864027949" lon="16.18900792318693"><ele>989.0</ele><time>2026-04-11T12:24:58.001Z</time></trkpt><trkpt lat="38.42733336186484" lon="16.189178568872524"><ele>992.3333333333334</ele><time>2026-04-11T12:24:59.001Z</time></trkpt><trkpt lat="38.42738246992816" lon="16.18936372873136"><ele>995.6666666666667</ele><time>2026-04-11T12:25:00.001Z</time></trkpt><trkpt lat="38.42742526636271" lon="16.18954894079945"><ele>999.0</ele><time>2026-04-11T12:25:01.001Z</time></trkpt><trkpt lat="38.42746897491201" lon="16.189725722092252"><ele>1000.6666666666667</ele><time>2026-04-11T12:25:02.001Z</time></trkpt><trkpt lat="38.42749603003145" lon="16.189904245067023"><ele>1002.3333333333334</ele><time>2026-04-11T12:25:03.001Z</time></trkpt><trkpt lat="38.42747729398107" lon="16.190107600365828"><ele>1004.0</ele><time>2026-04-11T12:25:04.002Z</time></trkpt><trkpt lat="38.42744977681337" lon="16.190291649658448"><ele>1004.0</ele><time>2026-04-11T12:25:05.002Z</time></trkpt><trkpt lat="38.4273891312472" lon="16.19047044719062"><ele>1004.0</ele><time>2026-04-11T12:25:06.002Z</time></trkpt><trkpt lat="38.427321786640384" lon="16.190643603548462"><ele>1004.0</ele><time>2026-04-11T12:25:07.002Z</time></trkpt><trkpt lat="38.42725011397114" lon="16.190827246163064"><ele>1006.3333333333334</ele><time>2026-04-11T12:25:08.002Z</time></trkpt><trkpt lat="38.42718003642241" lon="16.191022956108014"><ele>1008.6666666666667</ele><time>2026-04-11T12:25:09.002Z</time></trkpt><trkpt lat="38.427101060835504" lon="16.19121440069931"><ele>1011.0</ele><time>2026-04-11T12:25:10.002Z</time></trkpt><trkpt lat="38.42702769687673" lon="16.191408379859563"><ele>1012.3333333333333</ele><time>2026-04-11T12:25:11.002Z</time></trkpt><trkpt lat="38.42695211245078" lon="16.19161920489558"><ele>1013.6666666666666</ele><time>2026-04-11T12:25:12.002Z</time></trkpt><trkpt lat="38.42688408057373" lon="16.191824092048826"><ele>1015.0</ele><time>2026-04-11T12:25:13.002Z</time></trkpt><trkpt lat="38.42683455374069" lon="16.192065042153484"><ele>1015.0</ele><time>2026-04-11T12:25:14.002Z</time></trkpt><trkpt lat="38.42674711764051" lon="16.192286342421678"><ele>1015.0</ele><time>2026-04-11T12:25:15.002Z</time></trkpt><trkpt lat="38.42661709014502" lon="16.192525159187465"><ele>1015.0</ele><time>2026-04-11T12:25:16.002Z</time></trkpt><trkpt lat="38.4265193948898" lon="16.192730512518317"><ele>1013.0</ele><time>2026-04-11T12:25:17.002Z</time></trkpt><trkpt lat="38.42642426619018" lon="16.192883596229134"><ele>1011.0</ele><time>2026-04-11T12:25:18.002Z</time></trkpt><trkpt lat="38.42631252181639" lon="16.193043628468647"><ele>1009.0</ele><time>2026-04-11T12:25:19.002Z</time></trkpt><trkpt lat="38.42618270106618" lon="16.193186684637194"><ele>1009.0</ele><time>2026-04-11T12:25:20.002Z</time></trkpt><trkpt lat="38.426080638329495" lon="16.19332876648546"><ele>1009.0</ele><time>2026-04-11T12:25:21.002Z</time></trkpt><trkpt lat="38.42599910701173" lon="16.193474136027877"><ele>1009.0</ele><time>2026-04-11T12:25:22.002Z</time></trkpt><trkpt lat="38.42595211121928" lon="16.193642111069895"><ele>1009.0</ele><time>2026-04-11T12:25:23.002Z</time></trkpt><trkpt lat="38.42598488378828" lon="16.19383928550961"><ele>1009.3333333333333</ele><time>2026-04-11T12:25:24.002Z</time></trkpt><trkpt lat="38.42599784392765" lon="16.19403004357668"><ele>1009.6666666666667</ele><time>2026-04-11T12:25:25.002Z</time></trkpt><trkpt lat="38.42608471811507" lon="16.194235673292223"><ele>1010.0</ele><time>2026-04-11T12:25:26.002Z</time></trkpt><trkpt lat="38.42615856032811" lon="16.194427531000677"><ele>1010.0</ele><time>2026-04-11T12:25:27.002Z</time></trkpt><trkpt lat="38.426271878509944" lon="16.194622872210665"><ele>1010.0</ele><time>2026-04-11T12:25:28.002Z</time></trkpt><trkpt lat="38.42636865724251" lon="16.19483817542764"><ele>1010.0</ele><time>2026-04-11T12:25:29.002Z</time></trkpt><trkpt lat="38.42645518859275" lon="16.195036598792743"><ele>1010.0</ele><time>2026-04-11T12:25:30.002Z</time></trkpt><trkpt lat="38.42656291506846" lon="16.195232122724565"><ele>1010.0</ele><time>2026-04-11T12:25:31.002Z</time></trkpt><trkpt lat="38.426645815475304" lon="16.195431067557767"><ele>1010.0</ele><time>2026-04-11T12:25:32.002Z</time></trkpt><trkpt lat="38.426723024675994" lon="16.195629360319572"><ele>1012.0</ele><time>2026-04-11T12:25:33.002Z</time></trkpt><trkpt lat="38.42677516909244" lon="16.195845334227286"><ele>1014.0</ele><time>2026-04-11T12:25:34.002Z</time></trkpt><trkpt lat="38.426820307615834" lon="16.196067887202833"><ele>1016.0</ele><time>2026-04-11T12:25:35.002Z</time></trkpt><trkpt lat="38.42682634135345" lon="16.196311094868655"><ele>1016.6666666666667</ele><time>2026-04-11T12:25:36.002Z</time></trkpt><trkpt lat="38.42682620554056" lon="16.19655729609484"><ele>1017.3333333333333</ele><time>2026-04-11T12:25:37.002Z</time></trkpt><trkpt lat="38.42681072315381" lon="16.196809626800416"><ele>1018.0</ele><time>2026-04-11T12:25:38.002Z</time></trkpt><trkpt lat="38.42684348389516" lon="16.19707443740038"><ele>1018.0</ele><time>2026-04-11T12:25:39.002Z</time></trkpt><trkpt lat="38.42686788354609" lon="16.197277636744666"><ele>1018.0</ele><time>2026-04-11T12:25:40.003Z</time></trkpt><trkpt lat="38.42692659684627" lon="16.197472603137996"><ele>1018.0</ele><time>2026-04-11T12:25:41.003Z</time></trkpt><trkpt lat="38.42701436309383" lon="16.197654588905714"><ele>1017.3333333333333</ele><time>2026-04-11T12:25:42.003Z</time></trkpt><trkpt lat="38.427113485175525" lon="16.197825376855068"><ele>1016.6666666666667</ele><time>2026-04-11T12:25:43.003Z</time></trkpt><trkpt lat="38.4272312985174" lon="16.19800234641819"><ele>1016.0</ele><time>2026-04-11T12:25:44.003Z</time></trkpt><trkpt lat="38.42736906755513" lon="16.198192340586917"><ele>1014.6666666666667</ele><time>2026-04-11T12:25:45.003Z</time></trkpt><trkpt lat="38.42752604354489" lon="16.198344017321077"><ele>1013.3333333333333</ele><time>2026-04-11T12:25:46.003Z</time></trkpt><trkpt lat="38.42765655851243" lon="16.198509405901234"><ele>1012.0</ele><time>2026-04-11T12:25:47.003Z</time></trkpt><trkpt lat="38.42777514925138" lon="16.198690444229833"><ele>1012.0</ele><time>2026-04-11T12:25:48.003Z</time></trkpt><trkpt lat="38.4278884394502" lon="16.19886798690896"><ele>1012.0</ele><time>2026-04-11T12:25:49.003Z</time></trkpt><trkpt lat="38.428007358988985" lon="16.19903524755757"><ele>1012.0</ele><time>2026-04-11T12:25:50.003Z</time></trkpt><trkpt lat="38.42812115066332" lon="16.19919537300516"><ele>1012.3333333333333</ele><time>2026-04-11T12:25:51.003Z</time></trkpt><trkpt lat="38.42822802777512" lon="16.199349291867712"><ele>1012.6666666666667</ele><time>2026-04-11T12:25:52.003Z</time></trkpt><trkpt lat="38.42833645480478" lon="16.199486714057333"><ele>1013.0</ele><time>2026-04-11T12:25:53.003Z</time></trkpt><trkpt lat="38.428444801842545" lon="16.19961310888229"><ele>1013.0</ele><time>2026-04-11T12:25:54.003Z</time></trkpt><trkpt lat="38.4285368025303" lon="16.199781863409882"><ele>1013.0</ele><time>2026-04-11T12:25:55.003Z</time></trkpt><trkpt lat="38.42860917007992" lon="16.199967370527634"><ele>1013.0</ele><time>2026-04-11T12:25:56.003Z</time></trkpt><trkpt lat="38.4286608921575" lon="16.200156186900273"><ele>1016.3333333333334</ele><time>2026-04-11T12:25:57.003Z</time></trkpt><trkpt lat="38.42868834523509" lon="16.200361280774285"><ele>1019.6666666666667</ele><time>2026-04-11T12:25:58.003Z</time></trkpt><trkpt lat="38.42870134335802" lon="16.200562799430763"><ele>1023.0</ele><time>2026-04-11T12:25:59.003Z</time></trkpt><trkpt lat="38.42866563677586" lon="16.200752352928472"><ele>1025.6666666666667</ele><time>2026-04-11T12:26:00.003Z</time></trkpt><trkpt lat="38.4286104516405" lon="16.200983431869098"><ele>1028.3333333333335</ele><time>2026-04-11T12:26:01.003Z</time></trkpt><trkpt lat="38.42855121607877" lon="16.20119407919885"><ele>1031.0</ele><time>2026-04-11T12:26:02.003Z</time></trkpt><trkpt lat="38.428509652558766" lon="16.20140059925379"><ele>1031.6666666666667</ele><time>2026-04-11T12:26:03.003Z</time></trkpt><trkpt lat="38.42846197871165" lon="16.201598976574402"><ele>1032.3333333333333</ele><time>2026-04-11T12:26:04.003Z</time></trkpt><trkpt lat="38.42843526463651" lon="16.201805418566668"><ele>1033.0</ele><time>2026-04-11T12:26:05.003Z</time></trkpt><trkpt lat="38.42841545180109" lon="16.202012054498606"><ele>1033.0</ele><time>2026-04-11T12:26:06.003Z</time></trkpt><trkpt lat="38.42840930336096" lon="16.20221492770834"><ele>1033.0</ele><time>2026-04-11T12:26:07.003Z</time></trkpt><trkpt lat="38.42844297368307" lon="16.202414518125895"><ele>1033.0</ele><time>2026-04-11T12:26:08.003Z</time></trkpt><trkpt lat="38.42850681259548" lon="16.20262191342042"><ele>1032.6666666666665</ele><time>2026-04-11T12:26:09.003Z</time></trkpt><trkpt lat="38.4285766046035" lon="16.202842655842886"><ele>1032.3333333333333</ele><time>2026-04-11T12:26:10.003Z</time></trkpt><trkpt lat="38.428678808530684" lon="16.20304939746782"><ele>1032.0</ele><time>2026-04-11T12:26:11.001Z</time></trkpt><trkpt lat="38.42878798055379" lon="16.203267857793854"><ele>1032.3333333333333</ele><time>2026-04-11T12:26:12.001Z</time></trkpt><trkpt lat="38.42889299579659" lon="16.203494351430063"><ele>1032.6666666666665</ele><time>2026-04-11T12:26:13.001Z</time></trkpt><trkpt lat="38.4290016079732" lon="16.203715377184423"><ele>1033.0</ele><time>2026-04-11T12:26:14.001Z</time></trkpt><trkpt lat="38.429105618389954" lon="16.203933561134416"><ele>1032.3333333333333</ele><time>2026-04-11T12:26:15.001Z</time></trkpt><trkpt lat="38.42919427916219" lon="16.204163010555362"><ele>1031.6666666666667</ele><time>2026-04-11T12:26:16.001Z</time></trkpt><trkpt lat="38.42929620631619" lon="16.20436121632966"><ele>1031.0</ele><time>2026-04-11T12:26:17.001Z</time></trkpt><trkpt lat="38.429390208501374" lon="16.204562900030073"><ele>1031.0</ele><time>2026-04-11T12:26:18.001Z</time></trkpt><trkpt lat="38.429455060109305" lon="16.204788022967588"><ele>1031.0</ele><time>2026-04-11T12:26:19.001Z</time></trkpt><trkpt lat="38.42953738103652" lon="16.204980360689845"><ele>1031.0</ele><time>2026-04-11T12:26:20.001Z</time></trkpt><trkpt lat="38.42963737514519" lon="16.205190071807145"><ele>1032.3333333333335</ele><time>2026-04-11T12:26:21.001Z</time></trkpt><trkpt lat="38.42974608776692" lon="16.205395590601082"><ele>1033.6666666666667</ele><time>2026-04-11T12:26:22.001Z</time></trkpt><trkpt lat="38.42986161194117" lon="16.205586168452182"><ele>1035.0</ele><time>2026-04-11T12:26:23.001Z</time></trkpt><trkpt lat="38.429963098730894" lon="16.205775773377542"><ele>1035.0</ele><time>2026-04-11T12:26:24.001Z</time></trkpt><trkpt lat="38.43011807490742" lon="16.20593133830373"><ele>1035.0</ele><time>2026-04-11T12:26:25.001Z</time></trkpt><trkpt lat="38.430282475242144" lon="16.206052406571374"><ele>1035.0</ele><time>2026-04-11T12:26:26.001Z</time></trkpt><trkpt lat="38.43051079696261" lon="16.20618059020073"><ele>1036.0</ele><time>2026-04-11T12:26:27.001Z</time></trkpt><trkpt lat="38.430728190990635" lon="16.206298613730773"><ele>1037.0</ele><time>2026-04-11T12:26:28.001Z</time></trkpt><trkpt lat="38.43086591104282" lon="16.20648007609531"><ele>1038.0</ele><time>2026-04-11T12:26:29.001Z</time></trkpt><trkpt lat="38.43094028567038" lon="16.206552262049268"><ele>1038.0</ele><time>2026-04-11T12:26:30.001Z</time></trkpt><trkpt lat="38.431047490578806" lon="16.206674636050078"><ele>1038.0</ele><time>2026-04-11T12:26:31.001Z</time></trkpt><trkpt lat="38.431166685871105" lon="16.206867653187505"><ele>1038.0</ele><time>2026-04-11T12:26:32.001Z</time></trkpt><trkpt lat="38.43127518469057" lon="16.20706223375319"><ele>1037.3333333333333</ele><time>2026-04-11T12:26:33.001Z</time></trkpt><trkpt lat="38.43135838475013" lon="16.207267305941407"><ele>1036.6666666666665</ele><time>2026-04-11T12:26:34.001Z</time></trkpt><trkpt lat="38.431435027043655" lon="16.20749563076307"><ele>1036.0</ele><time>2026-04-11T12:26:35.001Z</time></trkpt><trkpt lat="38.431486449467464" lon="16.20774180366997"><ele>1036.0</ele><time>2026-04-11T12:26:36.001Z</time></trkpt><trkpt lat="38.431541897816686" lon="16.20797578342705"><ele>1036.0</ele><time>2026-04-11T12:26:37.001Z</time></trkpt><trkpt lat="38.43158894490784" lon="16.20824402452379"><ele>1036.0</ele><time>2026-04-11T12:26:38.001Z</time></trkpt><trkpt lat="38.43164583284309" lon="16.20851135421486"><ele>1035.6666666666665</ele><time>2026-04-11T12:26:39.001Z</time></trkpt><trkpt lat="38.43170964732518" lon="16.20875877957934"><ele>1035.3333333333333</ele><time>2026-04-11T12:26:40.001Z</time></trkpt><trkpt lat="38.431783152005124" lon="16.20900697796265"><ele>1035.0</ele><time>2026-04-11T12:26:41.001Z</time></trkpt><trkpt lat="38.43185005920982" lon="16.209294266310128"><ele>1036.3333333333333</ele><time>2026-04-11T12:26:42.001Z</time></trkpt><trkpt lat="38.43191977359582" lon="16.209554261226373"><ele>1037.6666666666665</ele><time>2026-04-11T12:26:43.001Z</time></trkpt><trkpt lat="38.43198196049393" lon="16.209793383631013"><ele>1039.0</ele><time>2026-04-11T12:26:44.001Z</time></trkpt><trkpt lat="38.43207375586464" lon="16.209998569249485"><ele>1044.3333333333333</ele><time>2026-04-11T12:26:45.001Z</time></trkpt><trkpt lat="38.43216475903938" lon="16.210203373502246"><ele>1049.6666666666667</ele><time>2026-04-11T12:26:46.001Z</time></trkpt><trkpt lat="38.43226672854888" lon="16.21040676766923"><ele>1055.0</ele><time>2026-04-11T12:26:47.001Z</time></trkpt><trkpt lat="38.43238686699756" lon="16.210588233700616"><ele>1054.6666666666667</ele><time>2026-04-11T12:26:48.001Z</time></trkpt><trkpt lat="38.43255630460727" lon="16.210764788279334"><ele>1054.3333333333333</ele><time>2026-04-11T12:26:49.001Z</time></trkpt><trkpt lat="38.43271946761737" lon="16.21091516437948"><ele>1054.0</ele><time>2026-04-11T12:26:50.001Z</time></trkpt><trkpt lat="38.43288367315294" lon="16.211049872545317"><ele>1054.3333333333333</ele><time>2026-04-11T12:26:51.001Z</time></trkpt><trkpt lat="38.433023092402394" lon="16.211184344010007"><ele>1054.6666666666667</ele><time>2026-04-11T12:26:52.001Z</time></trkpt><trkpt lat="38.433128075654906" lon="16.211347002430323"><ele>1055.0</ele><time>2026-04-11T12:26:53.001Z</time></trkpt><trkpt lat="38.433209085776916" lon="16.21153435819943"><ele>1051.0</ele><time>2026-04-11T12:26:54.001Z</time></trkpt><trkpt lat="38.433272407225815" lon="16.211761066390206"><ele>1047.0</ele><time>2026-04-11T12:26:55.001Z</time></trkpt><trkpt lat="38.433301831460135" lon="16.21201583714351"><ele>1043.0</ele><time>2026-04-11T12:26:56.001Z</time></trkpt><trkpt lat="38.43330231671519" lon="16.212263925295165"><ele>1043.3333333333335</ele><time>2026-04-11T12:26:57.001Z</time></trkpt><trkpt lat="38.43327364492973" lon="16.212515729491372"><ele>1043.6666666666667</ele><time>2026-04-11T12:26:58.001Z</time></trkpt><trkpt lat="38.433186300618694" lon="16.212760095604143"><ele>1044.0</ele><time>2026-04-11T12:26:59.001Z</time></trkpt><trkpt lat="38.43308925046768" lon="16.212990118912963"><ele>1043.0</ele><time>2026-04-11T12:27:00.001Z</time></trkpt><trkpt lat="38.43298823763641" lon="16.21319973001961"><ele>1042.0</ele><time>2026-04-11T12:27:01.001Z</time></trkpt><trkpt lat="38.432944531946504" lon="16.213417990451934"><ele>1041.0</ele><time>2026-04-11T12:27:02.001Z</time></trkpt><trkpt lat="38.43295169024224" lon="16.213623025115478"><ele>1043.6666666666667</ele><time>2026-04-11T12:27:03.001Z</time></trkpt><trkpt lat="38.432988216128834" lon="16.213803256070825"><ele>1046.3333333333335</ele><time>2026-04-11T12:27:04.001Z</time></trkpt><trkpt lat="38.433103477926046" lon="16.214022936679395"><ele>1049.0</ele><time>2026-04-11T12:27:05.001Z</time></trkpt><trkpt lat="38.43327615863212" lon="16.214148502543736"><ele>1049.0</ele><time>2026-04-11T12:27:06.001Z</time></trkpt><trkpt lat="38.43340652974163" lon="16.21425845239501"><ele>1049.0</ele><time>2026-04-11T12:27:07.001Z</time></trkpt><trkpt lat="38.433536772825356" lon="16.214428015945145"><ele>1049.0</ele><time>2026-04-11T12:27:08.002Z</time></trkpt><trkpt lat="38.4336509448996" lon="16.214634570725515"><ele>1050.0</ele><time>2026-04-11T12:27:09.002Z</time></trkpt><trkpt lat="38.43379915370218" lon="16.214845737749634"><ele>1051.0</ele><time>2026-04-11T12:27:10.002Z</time></trkpt><trkpt lat="38.43396752771123" lon="16.21504553275491"><ele>1052.3333333333333</ele><time>2026-04-11T12:27:11.002Z</time></trkpt><trkpt lat="38.434130619773676" lon="16.215227795704465"><ele>1053.6666666666667</ele><time>2026-04-11T12:27:12.002Z</time></trkpt><trkpt lat="38.43429407721808" lon="16.215382467657673"><ele>1055.0</ele><time>2026-04-11T12:27:13.002Z</time></trkpt><trkpt lat="38.43449246561004" lon="16.215516538099187"><ele>1057.3333333333335</ele><time>2026-04-11T12:27:14.002Z</time></trkpt><trkpt lat="38.434680404142526" lon="16.215607857374575"><ele>1059.6666666666667</ele><time>2026-04-11T12:27:15.002Z</time></trkpt><trkpt lat="38.43488295485247" lon="16.215680463798407"><ele>1062.0</ele><time>2026-04-11T12:27:16.002Z</time></trkpt><trkpt lat="38.43507663932975" lon="16.215685515693796"><ele>1062.0</ele><time>2026-04-11T12:27:17.002Z</time></trkpt><trkpt lat="38.435272967821945" lon="16.21568005033367"><ele>1062.0</ele><time>2026-04-11T12:27:18.002Z</time></trkpt><trkpt lat="38.435479794372675" lon="16.21567391064257"><ele>1062.0</ele><time>2026-04-11T12:27:19.002Z</time></trkpt><trkpt lat="38.435677609478894" lon="16.215652732037466"><ele>1061.3333333333333</ele><time>2026-04-11T12:27:20.002Z</time></trkpt><trkpt lat="38.435857170756925" lon="16.215585555278423"><ele>1060.6666666666665</ele><time>2026-04-11T12:27:21.002Z</time></trkpt><trkpt lat="38.436035597970154" lon="16.2155303142131"><ele>1060.0</ele><time>2026-04-11T12:27:22.002Z</time></trkpt><trkpt lat="38.436191019100626" lon="16.215483047111306"><ele>1057.3333333333333</ele><time>2026-04-11T12:27:23.002Z</time></trkpt><trkpt lat="38.436347665087794" lon="16.21545911933545"><ele>1054.6666666666667</ele><time>2026-04-11T12:27:24.002Z</time></trkpt><trkpt lat="38.43650902728453" lon="16.215485518288958"><ele>1052.0</ele><time>2026-04-11T12:27:25.002Z</time></trkpt><trkpt lat="38.4366516318905" lon="16.21557402502932"><ele>1058.6666666666667</ele><time>2026-04-11T12:27:26.002Z</time></trkpt><trkpt lat="38.43677945859886" lon="16.215701313804644"><ele>1065.3333333333333</ele><time>2026-04-11T12:27:27.002Z</time></trkpt><trkpt lat="38.43688593630826" lon="16.215863838757098"><ele>1072.0</ele><time>2026-04-11T12:27:28.002Z</time></trkpt><trkpt lat="38.43696225681173" lon="16.21604492906607"><ele>1072.0</ele><time>2026-04-11T12:27:29.002Z</time></trkpt><trkpt lat="38.43699392550587" lon="16.216244157101425"><ele>1072.0</ele><time>2026-04-11T12:27:30.002Z</time></trkpt><trkpt lat="38.436991538561465" lon="16.216440478719303"><ele>1072.0</ele><time>2026-04-11T12:27:31.002Z</time></trkpt><trkpt lat="38.436934959165896" lon="16.216625464459515"><ele>1074.0</ele><time>2026-04-11T12:27:32.002Z</time></trkpt><trkpt lat="38.43683183284414" lon="16.21679980672967"><ele>1076.0</ele><time>2026-04-11T12:27:33.002Z</time></trkpt><trkpt lat="38.43673001743569" lon="16.216974894018602"><ele>1078.0</ele><time>2026-04-11T12:27:34.002Z</time></trkpt><trkpt lat="38.43658780246359" lon="16.21714856431104"><ele>1078.6666666666665</ele><time>2026-04-11T12:27:35.002Z</time></trkpt><trkpt lat="38.436466373039124" lon="16.21734026922454"><ele>1079.3333333333333</ele><time>2026-04-11T12:27:36.002Z</time></trkpt><trkpt lat="38.436346603670394" lon="16.217529660277428"><ele>1080.0</ele><time>2026-04-11T12:27:37.002Z</time></trkpt><trkpt lat="38.43623086121619" lon="16.217711870038606"><ele>1080.0</ele><time>2026-04-11T12:27:38.002Z</time></trkpt><trkpt lat="38.43612708491074" lon="16.217884924334513"><ele>1080.0</ele><time>2026-04-11T12:27:39.002Z</time></trkpt><trkpt lat="38.43604487032184" lon="16.218059300823047"><ele>1080.0</ele><time>2026-04-11T12:27:40.002Z</time></trkpt><trkpt lat="38.435956583157" lon="16.218237515579904"><ele>1081.0</ele><time>2026-04-11T12:27:41.002Z</time></trkpt><trkpt lat="38.43592579008921" lon="16.21844745446394"><ele>1082.0</ele><time>2026-04-11T12:27:42.002Z</time></trkpt><trkpt lat="38.43593750596415" lon="16.218652192583487"><ele>1083.0</ele><time>2026-04-11T12:27:43.002Z</time></trkpt><trkpt lat="38.435974405111374" lon="16.21885386956066"><ele>1086.3333333333333</ele><time>2026-04-11T12:27:44.002Z</time></trkpt><trkpt lat="38.43602075617617" lon="16.21906099389917"><ele>1089.6666666666665</ele><time>2026-04-11T12:27:45.002Z</time></trkpt><trkpt lat="38.43608716508789" lon="16.21925708451586"><ele>1093.0</ele><time>2026-04-11T12:27:46.002Z</time></trkpt><trkpt lat="38.43614870447799" lon="16.219452032700467"><ele>1093.0</ele><time>2026-04-11T12:27:47.003Z</time></trkpt><trkpt lat="38.43619909359546" lon="16.219659936289627"><ele>1093.0</ele><time>2026-04-11T12:27:48.003Z</time></trkpt><trkpt lat="38.436247519552104" lon="16.21986762947101"><ele>1093.0</ele><time>2026-04-11T12:27:49.003Z</time></trkpt><trkpt lat="38.43628673657496" lon="16.220069259527104"><ele>1094.75</ele><time>2026-04-11T12:27:50.003Z</time></trkpt><trkpt lat="38.43631569225504" lon="16.220254934002302"><ele>1096.5</ele><time>2026-04-11T12:27:51.003Z</time></trkpt><trkpt lat="38.436332443024085" lon="16.220423333904726"><ele>1098.25</ele><time>2026-04-11T12:27:52.003Z</time></trkpt><trkpt lat="38.43630609605887" lon="16.220579357662753"><ele>1100.0</ele><time>2026-04-11T12:27:53.003Z</time></trkpt><trkpt lat="38.43624695937569" lon="16.2207389894317"><ele>1100.0</ele><time>2026-04-11T12:27:54.003Z</time></trkpt><trkpt lat="38.43616137101629" lon="16.220868964988068"><ele>1100.0</ele><time>2026-04-11T12:27:55.003Z</time></trkpt><trkpt lat="38.436049028196535" lon="16.220947172153306"><ele>1100.0</ele><time>2026-04-11T12:27:56.003Z</time></trkpt><trkpt lat="38.43592260281179" lon="16.220986907149825"><ele>1100.0</ele><time>2026-04-11T12:27:57.003Z</time></trkpt><trkpt lat="38.43577858726529" lon="16.220967833362472"><ele>1100.0</ele><time>2026-04-11T12:27:58.003Z</time></trkpt><trkpt lat="38.43562582998462" lon="16.220920954324512"><ele>1100.0</ele><time>2026-04-11T12:27:59.003Z</time></trkpt><trkpt lat="38.43546383878582" lon="16.2208334398223"><ele>1100.0</ele><time>2026-04-11T12:28:00.003Z</time></trkpt><trkpt lat="38.43529527933503" lon="16.22076101265702"><ele>1104.0</ele><time>2026-04-11T12:28:01.003Z</time></trkpt><trkpt lat="38.435123742033745" lon="16.2207035686946"><ele>1108.0</ele><time>2026-04-11T12:28:02.003Z</time></trkpt><trkpt lat="38.43496589105539" lon="16.220708988362045"><ele>1112.0</ele><time>2026-04-11T12:28:03.003Z</time></trkpt><trkpt lat="38.43482123290753" lon="16.220719371902053"><ele>1112.0</ele><time>2026-04-11T12:28:04.003Z</time></trkpt><trkpt lat="38.434692652214366" lon="16.220784939988125"><ele>1112.0</ele><time>2026-04-11T12:28:05.003Z</time></trkpt><trkpt lat="38.434573545710855" lon="16.220862328382832"><ele>1112.0</ele><time>2026-04-11T12:28:06.003Z</time></trkpt><trkpt lat="38.43445129134155" lon="16.22099358143097"><ele>1112.0</ele><time>2026-04-11T12:28:07.003Z</time></trkpt><trkpt lat="38.43437160309921" lon="16.221156729209667"><ele>1112.6666666666667</ele><time>2026-04-11T12:28:08.003Z</time></trkpt><trkpt lat="38.43429201252674" lon="16.22134452881212"><ele>1113.3333333333333</ele><time>2026-04-11T12:28:09.003Z</time></trkpt><trkpt lat="38.43420236299813" lon="16.221545895023432"><ele>1114.0</ele><time>2026-04-11T12:28:10.003Z</time></trkpt><trkpt lat="38.43411113319801" lon="16.22173832068007"><ele>1114.0</ele><time>2026-04-11T12:28:11.003Z</time></trkpt><trkpt lat="38.43401470208079" lon="16.221905914966957"><ele>1114.0</ele><time>2026-04-11T12:28:12.003Z</time></trkpt><trkpt lat="38.43392187784728" lon="16.22205796598056"><ele>1114.0</ele><time>2026-04-11T12:28:13.003Z</time></trkpt><trkpt lat="38.433832839780656" lon="16.22220338576145"><ele>1114.25</ele><time>2026-04-11T12:28:14.003Z</time></trkpt><trkpt lat="38.433782449195924" lon="16.22236024266989"><ele>1114.5</ele><time>2026-04-11T12:28:15.003Z</time></trkpt><trkpt lat="38.43376950161594" lon="16.222538086925226"><ele>1114.75</ele><time>2026-04-11T12:28:16.003Z</time></trkpt><trkpt lat="38.43380229175272" lon="16.222716430034385"><ele>1115.0</ele><time>2026-04-11T12:28:17.001Z</time></trkpt><trkpt lat="38.43389217509786" lon="16.222872972475987"><ele>1115.0</ele><time>2026-04-11T12:28:18.001Z</time></trkpt><trkpt lat="38.434013995222074" lon="16.223010195360285"><ele>1115.0</ele><time>2026-04-11T12:28:19.001Z</time></trkpt><trkpt lat="38.434169279781386" lon="16.223116979071172"><ele>1115.0</ele><time>2026-04-11T12:28:20.001Z</time></trkpt><trkpt lat="38.43433510773535" lon="16.22321852476869"><ele>1112.6666666666667</ele><time>2026-04-11T12:28:21.001Z</time></trkpt><trkpt lat="38.434508067793786" lon="16.223308463123768"><ele>1110.3333333333333</ele><time>2026-04-11T12:28:22.001Z</time></trkpt><trkpt lat="38.434671128242385" lon="16.223429930605327"><ele>1108.0</ele><time>2026-04-11T12:28:23.001Z</time></trkpt><trkpt lat="38.434837187124025" lon="16.223555587454996"><ele>1108.0</ele><time>2026-04-11T12:28:24.001Z</time></trkpt><trkpt lat="38.43499665588824" lon="16.22368313375405"><ele>1108.0</ele><time>2026-04-11T12:28:25.001Z</time></trkpt><trkpt lat="38.435146247617496" lon="16.223812379906995"><ele>1108.0</ele><time>2026-04-11T12:28:26.001Z</time></trkpt><trkpt lat="38.43527466982176" lon="16.223950468921913"><ele>1108.5</ele><time>2026-04-11T12:28:27.001Z</time></trkpt><trkpt lat="38.435372565137975" lon="16.22409458280932"><ele>1109.0</ele><time>2026-04-11T12:28:28.001Z</time></trkpt><trkpt lat="38.43542987252042" lon="16.224252218514692"><ele>1109.5</ele><time>2026-04-11T12:28:29.001Z</time></trkpt><trkpt lat="38.435447425584535" lon="16.224428531012514"><ele>1110.0</ele><time>2026-04-11T12:28:30.001Z</time></trkpt><trkpt lat="38.43540147670738" lon="16.224623201957716"><ele>1110.0</ele><time>2026-04-11T12:28:31.001Z</time></trkpt><trkpt lat="38.43534219184714" lon="16.224803306119608"><ele>1110.0</ele><time>2026-04-11T12:28:32.001Z</time></trkpt><trkpt lat="38.43528020407677" lon="16.224989187853282"><ele>1110.0</ele><time>2026-04-11T12:28:33.001Z</time></trkpt><trkpt lat="38.43523303085425" lon="16.22518956802159"><ele>1113.0</ele><time>2026-04-11T12:28:34.001Z</time></trkpt><trkpt lat="38.43519929100061" lon="16.22539296957666"><ele>1116.0</ele><time>2026-04-11T12:28:35.001Z</time></trkpt><trkpt lat="38.43517957568571" lon="16.225595311864364"><ele>1119.0</ele><time>2026-04-11T12:28:36.001Z</time></trkpt><trkpt lat="38.43518259678421" lon="16.225800663141076"><ele>1121.3333333333333</ele><time>2026-04-11T12:28:37.001Z</time></trkpt><trkpt lat="38.43522258653794" lon="16.225988100148037"><ele>1123.6666666666665</ele><time>2026-04-11T12:28:38.001Z</time></trkpt><trkpt lat="38.43529235724776" lon="16.22619066375107"><ele>1126.0</ele><time>2026-04-11T12:28:39.001Z</time></trkpt><trkpt lat="38.43537618470368" lon="16.22638733842921"><ele>1125.6666666666665</ele><time>2026-04-11T12:28:40.001Z</time></trkpt><trkpt lat="38.43549035385956" lon="16.226560424015716"><ele>1125.3333333333333</ele><time>2026-04-11T12:28:41.001Z</time></trkpt><trkpt lat="38.435600307645835" lon="16.226748541561694"><ele>1125.0</ele><time>2026-04-11T12:28:42.001Z</time></trkpt><trkpt lat="38.43569502032127" lon="16.22693438902986"><ele>1125.0</ele><time>2026-04-11T12:28:43.001Z</time></trkpt><trkpt lat="38.43578635212321" lon="16.22712125123794"><ele>1125.0</ele><time>2026-04-11T12:28:44.001Z</time></trkpt><trkpt lat="38.435887830907106" lon="16.227310045505376"><ele>1125.0</ele><time>2026-04-11T12:28:45.001Z</time></trkpt><trkpt lat="38.435985149542695" lon="16.22750138908882"><ele>1124.0</ele><time>2026-04-11T12:28:46.001Z</time></trkpt><trkpt lat="38.43607854840964" lon="16.227704077804425"><ele>1123.0</ele><time>2026-04-11T12:28:47.001Z</time></trkpt><trkpt lat="38.436188794272844" lon="16.22790279680526"><ele>1122.0</ele><time>2026-04-11T12:28:48.001Z</time></trkpt><trkpt lat="38.43629279923739" lon="16.22811313924221"><ele>1123.6666666666667</ele><time>2026-04-11T12:28:49.001Z</time></trkpt><trkpt lat="38.43639330472253" lon="16.228297263467333"><ele>1125.3333333333335</ele><time>2026-04-11T12:28:50.001Z</time></trkpt><trkpt lat="38.43647232321519" lon="16.228509169476485"><ele>1127.0</ele><time>2026-04-11T12:28:51.001Z</time></trkpt><trkpt lat="38.43651272638611" lon="16.228716666019313"><ele>1127.0</ele><time>2026-04-11T12:28:52.001Z</time></trkpt><trkpt lat="38.4364876899278" lon="16.228927391091617"><ele>1127.0</ele><time>2026-04-11T12:28:53.001Z</time></trkpt><trkpt lat="38.43644058315263" lon="16.229122892986357"><ele>1127.0</ele><time>2026-04-11T12:28:54.001Z</time></trkpt><trkpt lat="38.436367686402896" lon="16.229302665722187"><ele>1128.0</ele><time>2026-04-11T12:28:55.001Z</time></trkpt><trkpt lat="38.43626904729195" lon="16.229474690545697"><ele>1129.0</ele><time>2026-04-11T12:28:56.001Z</time></trkpt><trkpt lat="38.43616022906485" lon="16.229657537106977"><ele>1130.0</ele><time>2026-04-11T12:28:57.001Z</time></trkpt><trkpt lat="38.43608280172201" lon="16.22980743205924"><ele>1131.6666666666667</ele><time>2026-04-11T12:28:58.001Z</time></trkpt><trkpt lat="38.436023204307716" lon="16.229970769386263"><ele>1133.3333333333333</ele><time>2026-04-11T12:28:59.001Z</time></trkpt><trkpt lat="38.43598646291886" lon="16.23017646834981"><ele>1135.0</ele><time>2026-04-11T12:29:00.001Z</time></trkpt><trkpt lat="38.43597814894643" lon="16.23038937878172"><ele>1135.0</ele><time>2026-04-11T12:29:01.001Z</time></trkpt><trkpt lat="38.43600367101327" lon="16.230583634359927"><ele>1135.0</ele><time>2026-04-11T12:29:02.001Z</time></trkpt><trkpt lat="38.436039239998436" lon="16.230783771245985"><ele>1135.0</ele><time>2026-04-11T12:29:03.001Z</time></trkpt><trkpt lat="38.43609864962119" lon="16.23095455435789"><ele>1136.3333333333333</ele><time>2026-04-11T12:29:04.001Z</time></trkpt><trkpt lat="38.436171140679946" lon="16.23113406590602"><ele>1137.6666666666667</ele><time>2026-04-11T12:29:05.001Z</time></trkpt><trkpt lat="38.436218462339134" lon="16.231332983671518"><ele>1139.0</ele><time>2026-04-11T12:29:06.001Z</time></trkpt><trkpt lat="38.436293010212594" lon="16.23152700100944"><ele>1137.0</ele><time>2026-04-11T12:29:07.001Z</time></trkpt><trkpt lat="38.43635370417445" lon="16.231725608887835"><ele>1135.0</ele><time>2026-04-11T12:29:08.001Z</time></trkpt><trkpt lat="38.436387841626185" lon="16.23189742877702"><ele>1133.0</ele><time>2026-04-11T12:29:09.001Z</time></trkpt><trkpt lat="38.43643474630583" lon="16.232056079535717"><ele>1131.0</ele><time>2026-04-11T12:29:10.001Z</time></trkpt><trkpt lat="38.436475685026664" lon="16.232202385474405"><ele>1131.25</ele><time>2026-04-11T12:29:11.001Z</time></trkpt><trkpt lat="38.436528976672705" lon="16.23235254577569"><ele>1131.5</ele><time>2026-04-11T12:29:12.001Z</time></trkpt><trkpt lat="38.436570850506584" lon="16.232502804601143"><ele>1131.75</ele><time>2026-04-11T12:29:13.001Z</time></trkpt><trkpt lat="38.436642166898245" lon="16.232623589790773"><ele>1132.0</ele><time>2026-04-11T12:29:14.001Z</time></trkpt><trkpt lat="38.4367489787389" lon="16.232742681164886"><ele>1132.0</ele><time>2026-04-11T12:29:15.001Z</time></trkpt><trkpt lat="38.43685467880231" lon="16.2328202700145"><ele>1132.0</ele><time>2026-04-11T12:29:16.001Z</time></trkpt><trkpt lat="38.436955923587135" lon="16.232891427641057"><ele>1132.0</ele><time>2026-04-11T12:29:17.002Z</time></trkpt><trkpt lat="38.43713404849646" lon="16.232980207130964"><ele>1132.0</ele><time>2026-04-11T12:29:18.002Z</time></trkpt><trkpt lat="38.43728927717539" lon="16.23306933541054"><ele>1130.0</ele><time>2026-04-11T12:29:19.002Z</time></trkpt><trkpt lat="38.43743812980366" lon="16.233152367510957"><ele>1128.0</ele><time>2026-04-11T12:29:20.002Z</time></trkpt><trkpt lat="38.43758160117961" lon="16.233230121151085"><ele>1126.0</ele><time>2026-04-11T12:29:21.002Z</time></trkpt><trkpt lat="38.437730621451124" lon="16.23331088202298"><ele>1126.0</ele><time>2026-04-11T12:29:22.002Z</time></trkpt><trkpt lat="38.4378616682729" lon="16.233384221630484"><ele>1126.0</ele><time>2026-04-11T12:29:23.002Z</time></trkpt><trkpt lat="38.43800065092069" lon="16.23346206762815"><ele>1126.0</ele><time>2026-04-11T12:29:24.002Z</time></trkpt><trkpt lat="38.438133972970995" lon="16.233531017660606"><ele>1126.0</ele><time>2026-04-11T12:29:25.002Z</time></trkpt><trkpt lat="38.43826412947466" lon="16.23359578101072"><ele>1122.75</ele><time>2026-04-11T12:29:26.002Z</time></trkpt><trkpt lat="38.43840374959922" lon="16.23364265959383"><ele>1119.5</ele><time>2026-04-11T12:29:27.002Z</time></trkpt><trkpt lat="38.4385284114917" lon="16.233706625556426"><ele>1116.25</ele><time>2026-04-11T12:29:28.002Z</time></trkpt><trkpt lat="38.438649996113945" lon="16.233763724645627"><ele>1113.0</ele><time>2026-04-11T12:29:29.002Z</time></trkpt><trkpt lat="38.438770809510274" lon="16.233817489380836"><ele>1113.0</ele><time>2026-04-11T12:29:30.002Z</time></trkpt><trkpt lat="38.43888575519629" lon="16.23386322342644"><ele>1113.0</ele><time>2026-04-11T12:29:31.002Z</time></trkpt><trkpt lat="38.43898951195517" lon="16.233910161007937"><ele>1113.0</ele><time>2026-04-11T12:29:32.002Z</time></trkpt><trkpt lat="38.43907111336921" lon="16.23395458670999"><ele>1113.0</ele><time>2026-04-11T12:29:33.002Z</time></trkpt><trkpt lat="38.43913884563592" lon="16.234033947317307"><ele>1113.0</ele><time>2026-04-11T12:29:35.002Z</time></trkpt><trkpt lat="38.43915046164842" lon="16.2341190021005"><ele>1113.0</ele><time>2026-04-11T12:29:39.002Z</time></trkpt><trkpt lat="38.43916846223106" lon="16.234206206097458"><ele>1113.0</ele><time>2026-04-11T12:30:25.001Z</time></trkpt><trkpt lat="38.4392164893541" lon="16.23432441805307"><ele>1113.0</ele><time>2026-04-11T12:30:27.001Z</time></trkpt><trkpt lat="38.439258795905175" lon="16.234411398013748"><ele>1113.0</ele><time>2026-04-11T12:30:28.001Z</time></trkpt><trkpt lat="38.43928231884011" lon="16.23449235916686"><ele>1113.0</ele><time>2026-04-11T12:30:29.001Z</time></trkpt><trkpt lat="38.43930319344568" lon="16.234579822108305"><ele>1113.0</ele><time>2026-04-11T12:30:30.001Z</time></trkpt><trkpt lat="38.43933159276032" lon="16.23466791975246"><ele>1113.0</ele><time>2026-04-11T12:30:31.001Z</time></trkpt><trkpt lat="38.439339242760134" lon="16.234786766487108"><ele>1113.0</ele><time>2026-04-11T12:30:32.001Z</time></trkpt><trkpt lat="38.43934343693371" lon="16.23491872497439"><ele>1113.0</ele><time>2026-04-11T12:30:33.001Z</time></trkpt><trkpt lat="38.439333205869026" lon="16.23506639147671"><ele>1113.0</ele><time>2026-04-11T12:30:34.001Z</time></trkpt><trkpt lat="38.43931189362487" lon="16.23521547677314"><ele>1113.0</ele><time>2026-04-11T12:30:35.001Z</time></trkpt><trkpt lat="38.43928544094738" lon="16.235391732768978"><ele>1112.25</ele><time>2026-04-11T12:30:36.001Z</time></trkpt><trkpt lat="38.439257160974826" lon="16.235574222102937"><ele>1111.5</ele><time>2026-04-11T12:30:37.001Z</time></trkpt><trkpt lat="38.43923015677571" lon="16.23574628102659"><ele>1110.75</ele><time>2026-04-11T12:30:38.001Z</time></trkpt><trkpt lat="38.43920142514824" lon="16.235940541326066"><ele>1110.0</ele><time>2026-04-11T12:30:39.001Z</time></trkpt><trkpt lat="38.43917277961578" lon="16.236145642194927"><ele>1108.6666666666667</ele><time>2026-04-11T12:30:40.001Z</time></trkpt><trkpt lat="38.43915543634539" lon="16.236362689200217"><ele>1107.3333333333335</ele><time>2026-04-11T12:30:41.001Z</time></trkpt><trkpt lat="38.43911549420327" lon="16.236610002164134"><ele>1106.0</ele><time>2026-04-11T12:30:42.001Z</time></trkpt><trkpt lat="38.43906559536377" lon="16.23685685705994"><ele>1106.0</ele><time>2026-04-11T12:30:43.001Z</time></trkpt><trkpt lat="38.43903693538138" lon="16.23707488394897"><ele>1106.0</ele><time>2026-04-11T12:30:44.001Z</time></trkpt><trkpt lat="38.43901361342573" lon="16.23722773956269"><ele>1106.0</ele><time>2026-04-11T12:30:45.001Z</time></trkpt><trkpt lat="38.43898657684526" lon="16.237385310444814"><ele>1106.0</ele><time>2026-04-11T12:30:46.001Z</time></trkpt><trkpt lat="38.43895748706682" lon="16.237541955900777"><ele>1105.3333333333335</ele><time>2026-04-11T12:30:47.001Z</time></trkpt><trkpt lat="38.438898656825" lon="16.237705138342143"><ele>1104.6666666666667</ele><time>2026-04-11T12:30:48.001Z</time></trkpt><trkpt lat="38.43881223955012" lon="16.237871839546067"><ele>1104.0</ele><time>2026-04-11T12:30:49.001Z</time></trkpt><trkpt lat="38.43872417297617" lon="16.238049528270697"><ele>1105.3333333333333</ele><time>2026-04-11T12:30:50.001Z</time></trkpt><trkpt lat="38.43863158359614" lon="16.238225908888225"><ele>1106.6666666666665</ele><time>2026-04-11T12:30:51.001Z</time></trkpt><trkpt lat="38.43853510874267" lon="16.238417536137558"><ele>1108.0</ele><time>2026-04-11T12:30:52.001Z</time></trkpt><trkpt lat="38.43845497682504" lon="16.238596453489833"><ele>1108.0</ele><time>2026-04-11T12:30:53.001Z</time></trkpt><trkpt lat="38.4383923387848" lon="16.238758952608368"><ele>1108.0</ele><time>2026-04-11T12:30:54.001Z</time></trkpt><trkpt lat="38.43833873828419" lon="16.2389023308524"><ele>1108.0</ele><time>2026-04-11T12:30:55.001Z</time></trkpt><trkpt lat="38.43829720440104" lon="16.239060059557357"><ele>1108.0</ele><time>2026-04-11T12:30:56.001Z</time></trkpt><trkpt lat="38.43828210246528" lon="16.239256148840415"><ele>1109.3333333333333</ele><time>2026-04-11T12:30:57.001Z</time></trkpt><trkpt lat="38.43827602763597" lon="16.23945876733451"><ele>1110.6666666666667</ele><time>2026-04-11T12:30:58.001Z</time></trkpt><trkpt lat="38.43827475452959" lon="16.239662601200354"><ele>1112.0</ele><time>2026-04-11T12:30:59.001Z</time></trkpt><trkpt lat="38.43827029021085" lon="16.239849944728284"><ele>1112.75</ele><time>2026-04-11T12:31:00.001Z</time></trkpt><trkpt lat="38.438260851299525" lon="16.240037417693298"><ele>1113.5</ele><time>2026-04-11T12:31:01.001Z</time></trkpt><trkpt lat="38.43825730098558" lon="16.240223469051543"><ele>1114.25</ele><time>2026-04-11T12:31:02.001Z</time></trkpt><trkpt lat="38.43825268531528" lon="16.240396914527413"><ele>1115.0</ele><time>2026-04-11T12:31:03.001Z</time></trkpt><trkpt lat="38.43826963211652" lon="16.240554166582783"><ele>1114.25</ele><time>2026-04-11T12:31:04.001Z</time></trkpt><trkpt lat="38.438305252767904" lon="16.240699491436775"><ele>1113.5</ele><time>2026-04-11T12:31:05.001Z</time></trkpt><trkpt lat="38.43835960179182" lon="16.240837950621675"><ele>1112.75</ele><time>2026-04-11T12:31:06.001Z</time></trkpt><trkpt lat="38.43843159330803" lon="16.240964419376557"><ele>1112.0</ele><time>2026-04-11T12:31:07.001Z</time></trkpt><trkpt lat="38.43852132288222" lon="16.24111035186234"><ele>1112.0</ele><time>2026-04-11T12:31:08.001Z</time></trkpt><trkpt lat="38.43858997418534" lon="16.241282711177664"><ele>1112.0</ele><time>2026-04-11T12:31:09.001Z</time></trkpt><trkpt lat="38.43865264243507" lon="16.24145736196057"><ele>1112.0</ele><time>2026-04-11T12:31:10.001Z</time></trkpt><trkpt lat="38.43872918529525" lon="16.241628425063713"><ele>1111.0</ele><time>2026-04-11T12:31:11.001Z</time></trkpt><trkpt lat="38.43877318736235" lon="16.241794255385365"><ele>1110.0</ele><time>2026-04-11T12:31:12.001Z</time></trkpt><trkpt lat="38.43882032121778" lon="16.241943338361768"><ele>1109.0</ele><time>2026-04-11T12:31:13.001Z</time></trkpt><trkpt lat="38.43887314796052" lon="16.24209030677824"><ele>1108.0</ele><time>2026-04-11T12:31:14.001Z</time></trkpt><trkpt lat="38.43890251032729" lon="16.242244191759323"><ele>1109.0</ele><time>2026-04-11T12:31:15.001Z</time></trkpt><trkpt lat="38.43892357189643" lon="16.242384249584795"><ele>1110.0</ele><time>2026-04-11T12:31:16.001Z</time></trkpt><trkpt lat="38.43892472987675" lon="16.24251499333399"><ele>1111.0</ele><time>2026-04-11T12:31:17.001Z</time></trkpt><trkpt lat="38.4389030856124" lon="16.242656814222403"><ele>1112.0</ele><time>2026-04-11T12:31:18.001Z</time></trkpt><trkpt lat="38.438846176814735" lon="16.242795145720812"><ele>1111.0</ele><time>2026-04-11T12:31:19.001Z</time></trkpt><trkpt lat="38.43876542782569" lon="16.242928475152592"><ele>1110.0</ele><time>2026-04-11T12:31:20.001Z</time></trkpt><trkpt lat="38.43866817562303" lon="16.243097696312514"><ele>1109.0</ele><time>2026-04-11T12:31:21.001Z</time></trkpt><trkpt lat="38.43859455399925" lon="16.243263864322156"><ele>1108.0</ele><time>2026-04-11T12:31:22.001Z</time></trkpt><trkpt lat="38.43855095601913" lon="16.243444870595106"><ele>1108.0</ele><time>2026-04-11T12:31:23.001Z</time></trkpt><trkpt lat="38.438479215546344" lon="16.2436035810202"><ele>1108.0</ele><time>2026-04-11T12:31:24.001Z</time></trkpt><trkpt lat="38.43844466008255" lon="16.243765735516586"><ele>1108.0</ele><time>2026-04-11T12:31:25.001Z</time></trkpt><trkpt lat="38.438395825361376" lon="16.243896283762712"><ele>1108.0</ele><time>2026-04-11T12:31:26.001Z</time></trkpt><trkpt lat="38.43833072388104" lon="16.244011233965917"><ele>1107.2</ele><time>2026-04-11T12:31:27.002Z</time></trkpt><trkpt lat="38.43825608352305" lon="16.244100288355998"><ele>1106.4</ele><time>2026-04-11T12:31:28.002Z</time></trkpt><trkpt lat="38.43815132701453" lon="16.24414418897404"><ele>1105.6000000000001</ele><time>2026-04-11T12:31:29.002Z</time></trkpt><trkpt lat="38.43808406895406" lon="16.24422737357033"><ele>1104.8</ele><time>2026-04-11T12:31:30.002Z</time></trkpt><trkpt lat="38.4380247013282" lon="16.244279164040147"><ele>1104.0</ele><time>2026-04-11T12:31:31.002Z</time></trkpt><trkpt lat="38.43800492666509" lon="16.244371452496807"><ele>1104.0</ele><time>2026-04-11T12:31:32.002Z</time></trkpt><trkpt lat="38.43802007323906" lon="16.244466202443366"><ele>1104.0</ele><time>2026-04-11T12:31:33.002Z</time></trkpt><trkpt lat="38.43809252312521" lon="16.244551098060434"><ele>1104.0</ele><time>2026-04-11T12:31:34.002Z</time></trkpt><trkpt lat="38.43817784816924" lon="16.24458348526738"><ele>1104.0</ele><time>2026-04-11T12:31:35.002Z</time></trkpt><trkpt lat="38.438282150931386" lon="16.244568193704495"><ele>1104.0</ele><time>2026-04-11T12:31:36.002Z</time></trkpt><trkpt lat="38.4383879213154" lon="16.244515897008807"><ele>1104.0</ele><time>2026-04-11T12:31:37.002Z</time></trkpt><trkpt lat="38.43848745542168" lon="16.24447962704256"><ele>1104.0</ele><time>2026-04-11T12:31:38.002Z</time></trkpt><trkpt lat="38.4385770904889" lon="16.244464637504272"><ele>1104.0</ele><time>2026-04-11T12:31:39.002Z</time></trkpt><trkpt lat="38.4386591580072" lon="16.244480795183193"><ele>1104.0</ele><time>2026-04-11T12:31:40.002Z</time></trkpt><trkpt lat="38.43871980151998" lon="16.244559195184458"><ele>1104.0</ele><time>2026-04-11T12:31:41.002Z</time></trkpt><trkpt lat="38.43880387517416" lon="16.244636991582905"><ele>1103.4</ele><time>2026-04-11T12:31:42.002Z</time></trkpt><trkpt lat="38.43887833417455" lon="16.244666530771408"><ele>1102.8000000000002</ele><time>2026-04-11T12:31:43.002Z</time></trkpt><trkpt lat="38.438964136278386" lon="16.24467314750983"><ele>1102.1999999999998</ele><time>2026-04-11T12:31:44.002Z</time></trkpt><trkpt lat="38.439058137625146" lon="16.24462467440142"><ele>1101.6</ele><time>2026-04-11T12:31:45.002Z</time></trkpt><trkpt lat="38.43912928459088" lon="16.244496285113087"><ele>1101.0</ele><time>2026-04-11T12:31:46.002Z</time></trkpt><trkpt lat="38.43918522544291" lon="16.244330272602596"><ele>1101.0</ele><time>2026-04-11T12:31:47.002Z</time></trkpt><trkpt lat="38.43926541717399" lon="16.24421181844361"><ele>1101.0</ele><time>2026-04-11T12:31:48.002Z</time></trkpt><trkpt lat="38.43932011436083" lon="16.244104059670516"><ele>1101.0</ele><time>2026-04-11T12:31:49.002Z</time></trkpt><trkpt lat="38.43936711156211" lon="16.244024403444485"><ele>1101.0</ele><time>2026-04-11T12:31:50.002Z</time></trkpt><trkpt lat="38.439427869490245" lon="16.24399028163244"><ele>1101.0</ele><time>2026-04-11T12:31:51.002Z</time></trkpt><trkpt lat="38.43949580659882" lon="16.24397623435689"><ele>1101.0</ele><time>2026-04-11T12:31:52.002Z</time></trkpt><trkpt lat="38.43956547106174" lon="16.243992904399235"><ele>1101.0</ele><time>2026-04-11T12:31:53.002Z</time></trkpt><trkpt lat="38.439624287043756" lon="16.244100885179346"><ele>1101.0</ele><time>2026-04-11T12:31:54.002Z</time></trkpt><trkpt lat="38.439669091334856" lon="16.244245946405428"><ele>1101.0</ele><time>2026-04-11T12:31:55.002Z</time></trkpt><trkpt lat="38.439746172163055" lon="16.244385949496735"><ele>1101.0</ele><time>2026-04-11T12:31:56.002Z</time></trkpt><trkpt lat="38.43981842108985" lon="16.24452392515421"><ele>1098.2</ele><time>2026-04-11T12:31:57.002Z</time></trkpt><trkpt lat="38.43989228637264" lon="16.244629382253247"><ele>1095.3999999999999</ele><time>2026-04-11T12:31:58.002Z</time></trkpt><trkpt lat="38.439959940216056" lon="16.244735261430346"><ele>1092.6</ele><time>2026-04-11T12:31:59.002Z</time></trkpt><trkpt lat="38.44001359845297" lon="16.244842071699782"><ele>1089.8</ele><time>2026-04-11T12:32:00.002Z</time></trkpt><trkpt lat="38.440026831636516" lon="16.244970134782037"><ele>1087.0</ele><time>2026-04-11T12:32:01.002Z</time></trkpt><trkpt lat="38.43998879695812" lon="16.245104109266272"><ele>1083.25</ele><time>2026-04-11T12:32:02.002Z</time></trkpt><trkpt lat="38.43993634490985" lon="16.24526313166366"><ele>1079.5</ele><time>2026-04-11T12:32:03.002Z</time></trkpt><trkpt lat="38.43989733329936" lon="16.24544214090454"><ele>1075.75</ele><time>2026-04-11T12:32:04.002Z</time></trkpt><trkpt lat="38.43987025290126" lon="16.24561797183056"><ele>1072.0</ele><time>2026-04-11T12:32:05.002Z</time></trkpt><trkpt lat="38.439870534669865" lon="16.24582205540364"><ele>1070.25</ele><time>2026-04-11T12:32:06.002Z</time></trkpt><trkpt lat="38.43987184282726" lon="16.24601521759278"><ele>1068.5</ele><time>2026-04-11T12:32:07.002Z</time></trkpt><trkpt lat="38.43988988025577" lon="16.2461910325902"><ele>1066.75</ele><time>2026-04-11T12:32:08.002Z</time></trkpt><trkpt lat="38.43987505428259" lon="16.24637488678381"><ele>1065.0</ele><time>2026-04-11T12:32:09.002Z</time></trkpt><trkpt lat="38.43985708000147" lon="16.246538649837518"><ele>1063.0</ele><time>2026-04-11T12:32:10.002Z</time></trkpt><trkpt lat="38.43983646244735" lon="16.246672542922372"><ele>1061.0</ele><time>2026-04-11T12:32:11.002Z</time></trkpt><trkpt lat="38.43985687719195" lon="16.246781404661537"><ele>1059.0</ele><time>2026-04-11T12:32:12.002Z</time></trkpt><trkpt lat="38.439920877824676" lon="16.246859473668504"><ele>1057.0</ele><time>2026-04-11T12:32:13.002Z</time></trkpt><trkpt lat="38.44002163284793" lon="16.24691033021198"><ele>1055.0</ele><time>2026-04-11T12:32:14.003Z</time></trkpt><trkpt lat="38.440150575389936" lon="16.24695014437843"><ele>1055.0</ele><time>2026-04-11T12:32:15.003Z</time></trkpt><trkpt lat="38.44027433719917" lon="16.246970718796007"><ele>1055.0</ele><time>2026-04-11T12:32:16.003Z</time></trkpt><trkpt lat="38.440385994887855" lon="16.24694826162005"><ele>1055.0</ele><time>2026-04-11T12:32:17.003Z</time></trkpt><trkpt lat="38.440479451586526" lon="16.246888210367853"><ele>1055.0</ele><time>2026-04-11T12:32:18.003Z</time></trkpt><trkpt lat="38.44055124363732" lon="16.24679679255594"><ele>1055.0</ele><time>2026-04-11T12:32:19.003Z</time></trkpt><trkpt lat="38.440616156585584" lon="16.246701370255884"><ele>1054.5</ele><time>2026-04-11T12:32:20.003Z</time></trkpt><trkpt lat="38.440672297165136" lon="16.24661112537998"><ele>1054.0</ele><time>2026-04-11T12:32:21.003Z</time></trkpt><trkpt lat="38.4407359886302" lon="16.246556141899486"><ele>1053.5</ele><time>2026-04-11T12:32:22.003Z</time></trkpt><trkpt lat="38.44081535471672" lon="16.246577001990378"><ele>1053.0</ele><time>2026-04-11T12:32:23.003Z</time></trkpt><trkpt lat="38.440870984629576" lon="16.24661616909765"><ele>1052.5</ele><time>2026-04-11T12:32:24.003Z</time></trkpt><trkpt lat="38.44092699441473" lon="16.246669808805752"><ele>1052.0</ele><time>2026-04-11T12:32:25.003Z</time></trkpt><trkpt lat="38.44097604495258" lon="16.246774219274624"><ele>1052.0</ele><time>2026-04-11T12:32:26.003Z</time></trkpt><trkpt lat="38.44098548537364" lon="16.246907866956178"><ele>1052.0</ele><time>2026-04-11T12:32:27.003Z</time></trkpt><trkpt lat="38.44103158630765" lon="16.247060667892473"><ele>1052.0</ele><time>2026-04-11T12:32:28.003Z</time></trkpt><trkpt lat="38.44101457649279" lon="16.247224623684904"><ele>1052.0</ele><time>2026-04-11T12:32:29.001Z</time></trkpt><trkpt lat="38.440989735100054" lon="16.24737078343188"><ele>1047.25</ele><time>2026-04-11T12:32:30.001Z</time></trkpt><trkpt lat="38.44097580024596" lon="16.247508079452675"><ele>1042.5</ele><time>2026-04-11T12:32:31.001Z</time></trkpt><trkpt lat="38.44096411235254" lon="16.24764094347414"><ele>1037.75</ele><time>2026-04-11T12:32:32.001Z</time></trkpt><trkpt lat="38.4409967145709" lon="16.247771592737003"><ele>1033.0</ele><time>2026-04-11T12:32:33.001Z</time></trkpt><trkpt lat="38.44107448412769" lon="16.2479207844749"><ele>1033.0</ele><time>2026-04-11T12:32:34.001Z</time></trkpt><trkpt lat="38.44119940189274" lon="16.24805864411812"><ele>1033.0</ele><time>2026-04-11T12:32:35.001Z</time></trkpt><trkpt lat="38.44133818350034" lon="16.248217807271214"><ele>1033.0</ele><time>2026-04-11T12:32:36.001Z</time></trkpt><trkpt lat="38.44146456591846" lon="16.248383753058114"><ele>1027.6666666666665</ele><time>2026-04-11T12:32:37.001Z</time></trkpt><trkpt lat="38.441585686471406" lon="16.248549529617488"><ele>1022.3333333333333</ele><time>2026-04-11T12:32:38.001Z</time></trkpt><trkpt lat="38.44169183194025" lon="16.2487275249678"><ele>1017.0</ele><time>2026-04-11T12:32:39.001Z</time></trkpt><trkpt lat="38.441763564427426" lon="16.248920741477793"><ele>1016.6666666666667</ele><time>2026-04-11T12:32:40.001Z</time></trkpt><trkpt lat="38.44182582562244" lon="16.24912498385753"><ele>1016.3333333333334</ele><time>2026-04-11T12:32:41.001Z</time></trkpt><trkpt lat="38.44188932721608" lon="16.249332140843276"><ele>1016.0</ele><time>2026-04-11T12:32:42Z</time></trkpt><trkpt lat="38.441948318967476" lon="16.2495287998667"><ele>1016.0</ele><time>2026-04-11T12:32:43Z</time></trkpt><trkpt lat="38.44199251936776" lon="16.249702648185945"><ele>1016.0</ele><time>2026-04-11T12:32:44Z</time></trkpt><trkpt lat="38.44202141945948" lon="16.24986213269745"><ele>1016.0</ele><time>2026-04-11T12:32:45.001Z</time></trkpt><trkpt lat="38.44202211866446" lon="16.25002254707007"><ele>1016.0</ele><time>2026-04-11T12:32:46.001Z</time></trkpt><trkpt lat="38.44200378875681" lon="16.250198196528594"><ele>1014.3333333333334</ele><time>2026-04-11T12:32:47.001Z</time></trkpt><trkpt lat="38.4419761772174" lon="16.25040231757782"><ele>1012.6666666666667</ele><time>2026-04-11T12:32:48.001Z</time></trkpt><trkpt lat="38.441945761274404" lon="16.250621210297098"><ele>1011.0</ele><time>2026-04-11T12:32:49.001Z</time></trkpt><trkpt lat="38.44191538886577" lon="16.250845967752973"><ele>1011.0</ele><time>2026-04-11T12:32:50.001Z</time></trkpt><trkpt lat="38.44188195063772" lon="16.251074593012813"><ele>1011.0</ele><time>2026-04-11T12:32:51.001Z</time></trkpt><trkpt lat="38.44182104857985" lon="16.251321649461328"><ele>1011.0</ele><time>2026-04-11T12:32:52.001Z</time></trkpt><trkpt lat="38.44173135902752" lon="16.251566640615376"><ele>1014.6666666666667</ele><time>2026-04-11T12:32:53.001Z</time></trkpt><trkpt lat="38.44164133512704" lon="16.25180048548977"><ele>1018.3333333333334</ele><time>2026-04-11T12:32:54.001Z</time></trkpt><trkpt lat="38.44157084347502" lon="16.252016930377977"><ele>1022.0</ele><time>2026-04-11T12:32:55.001Z</time></trkpt><trkpt lat="38.44151965166289" lon="16.252185458028393"><ele>1023.4000000000001</ele><time>2026-04-11T12:32:56.001Z</time></trkpt><trkpt lat="38.44149459136147" lon="16.25233180510269"><ele>1024.8000000000002</ele><time>2026-04-11T12:32:57.001Z</time></trkpt><trkpt lat="38.44151367476625" lon="16.252456521350872"><ele>1026.2</ele><time>2026-04-11T12:32:58.001Z</time></trkpt><trkpt lat="38.441564359138994" lon="16.252563494675048"><ele>1027.6000000000001</ele><time>2026-04-11T12:32:59.001Z</time></trkpt><trkpt lat="38.44165281576128" lon="16.25267311201869"><ele>1029.0</ele><time>2026-04-11T12:33:00.001Z</time></trkpt><trkpt lat="38.44175936628862" lon="16.252792176526924"><ele>1029.0</ele><time>2026-04-11T12:33:01.001Z</time></trkpt><trkpt lat="38.44185166922508" lon="16.252891131177734"><ele>1029.0</ele><time>2026-04-11T12:33:02.001Z</time></trkpt><trkpt lat="38.44194019405224" lon="16.25294562447079"><ele>1029.0</ele><time>2026-04-11T12:33:03.001Z</time></trkpt><trkpt lat="38.44205386210214" lon="16.252959746107035"><ele>1029.0</ele><time>2026-04-11T12:33:04.001Z</time></trkpt><trkpt lat="38.442194096223005" lon="16.25293082909779"><ele>1032.6666666666667</ele><time>2026-04-11T12:33:05.001Z</time></trkpt><trkpt lat="38.4423422151641" lon="16.252864747406335"><ele>1036.3333333333335</ele><time>2026-04-11T12:33:06.001Z</time></trkpt><trkpt lat="38.442492757958505" lon="16.25277939561292"><ele>1040.0</ele><time>2026-04-11T12:33:07.001Z</time></trkpt><trkpt lat="38.44262742479586" lon="16.252770686516424"><ele>1040.0</ele><time>2026-04-11T12:33:08.001Z</time></trkpt><trkpt lat="38.44277159496289" lon="16.252805418278708"><ele>1040.0</ele><time>2026-04-11T12:33:09.001Z</time></trkpt><trkpt lat="38.44295583383526" lon="16.252867159084172"><ele>1040.0</ele><time>2026-04-11T12:33:10.001Z</time></trkpt><trkpt lat="38.44312759469406" lon="16.252943589100685"><ele>1042.3333333333335</ele><time>2026-04-11T12:33:11.001Z</time></trkpt><trkpt lat="38.443246506857" lon="16.253067219170575"><ele>1044.6666666666667</ele><time>2026-04-11T12:33:12.001Z</time></trkpt><trkpt lat="38.4433479011623" lon="16.253232389758278"><ele>1047.0</ele><time>2026-04-11T12:33:13.001Z</time></trkpt><trkpt lat="38.4434938822915" lon="16.253353904040765"><ele>1047.0</ele><time>2026-04-11T12:33:14.001Z</time></trkpt><trkpt lat="38.44367139231076" lon="16.253439171891912"><ele>1047.0</ele><time>2026-04-11T12:33:15.001Z</time></trkpt><trkpt lat="38.44387587655809" lon="16.253508397820212"><ele>1047.0</ele><time>2026-04-11T12:33:16.001Z</time></trkpt><trkpt lat="38.444086991500065" lon="16.25359091247491"><ele>1049.3333333333333</ele><time>2026-04-11T12:33:17.001Z</time></trkpt><trkpt lat="38.44427205667912" lon="16.253650271165363"><ele>1051.6666666666665</ele><time>2026-04-11T12:33:18.001Z</time></trkpt><trkpt lat="38.44439363929714" lon="16.253735609463575"><ele>1054.0</ele><time>2026-04-11T12:33:19.001Z</time></trkpt><trkpt lat="38.444462140113096" lon="16.253883958696687"><ele>1056.6666666666665</ele><time>2026-04-11T12:33:20.001Z</time></trkpt><trkpt lat="38.444465885533745" lon="16.254066566878663"><ele>1059.3333333333333</ele><time>2026-04-11T12:33:21.001Z</time></trkpt><trkpt lat="38.44446913173008" lon="16.254274995195157"><ele>1062.0</ele><time>2026-04-11T12:33:22.001Z</time></trkpt><trkpt lat="38.444477849206464" lon="16.2545176039817"><ele>1062.0</ele><time>2026-04-11T12:33:23.001Z</time></trkpt><trkpt lat="38.44445675147651" lon="16.25477730116616"><ele>1062.0</ele><time>2026-04-11T12:33:24.001Z</time></trkpt><trkpt lat="38.44445174768425" lon="16.25505352585991"><ele>1062.0</ele><time>2026-04-11T12:33:25.001Z</time></trkpt><trkpt lat="38.44445064552866" lon="16.255343106113592"><ele>1063.3333333333333</ele><time>2026-04-11T12:33:26.001Z</time></trkpt><trkpt lat="38.44445223895783" lon="16.25564335243657"><ele>1064.6666666666665</ele><time>2026-04-11T12:33:27.001Z</time></trkpt><trkpt lat="38.44444094159735" lon="16.25591215173887"><ele>1066.0</ele><time>2026-04-11T12:33:28.001Z</time></trkpt><trkpt lat="38.44437893987737" lon="16.256135846594695"><ele>1066.0</ele><time>2026-04-11T12:33:29.001Z</time></trkpt><trkpt lat="38.444332946633835" lon="16.25634518335659"><ele>1066.0</ele><time>2026-04-11T12:33:30.001Z</time></trkpt><trkpt lat="38.444312968313184" lon="16.2565187009503"><ele>1066.0</ele><time>2026-04-11T12:33:31.001Z</time></trkpt><trkpt lat="38.44433363859553" lon="16.25666310564637"><ele>1066.0</ele><time>2026-04-11T12:33:32.001Z</time></trkpt><trkpt lat="38.44441752681775" lon="16.256762581027804"><ele>1069.6666666666665</ele><time>2026-04-11T12:33:33.001Z</time></trkpt><trkpt lat="38.44455124441187" lon="16.256864966447743"><ele>1073.3333333333333</ele><time>2026-04-11T12:33:34.001Z</time></trkpt><trkpt lat="38.44471153180935" lon="16.25698104436729"><ele>1077.0</ele><time>2026-04-11T12:33:35.001Z</time></trkpt><trkpt lat="38.4448791605691" lon="16.257092693575647"><ele>1079.0</ele><time>2026-04-11T12:33:36.001Z</time></trkpt><trkpt lat="38.44504634139996" lon="16.257246751782787"><ele>1081.0</ele><time>2026-04-11T12:33:37.001Z</time></trkpt><trkpt lat="38.44521836474445" lon="16.25738840898144"><ele>1083.0</ele><time>2026-04-11T12:33:38.001Z</time></trkpt><trkpt lat="38.44535454158029" lon="16.257515794828574"><ele>1084.6666666666667</ele><time>2026-04-11T12:33:39.001Z</time></trkpt><trkpt lat="38.44552860465304" lon="16.25751647282234"><ele>1086.3333333333335</ele><time>2026-04-11T12:33:40.001Z</time></trkpt><trkpt lat="38.44567203879823" lon="16.2576239950358"><ele>1088.0</ele><time>2026-04-11T12:33:41.001Z</time></trkpt><trkpt lat="38.44578848246342" lon="16.25773859380119"><ele>1088.0</ele><time>2026-04-11T12:33:42.001Z</time></trkpt><trkpt lat="38.445865279929286" lon="16.257846779054358"><ele>1088.0</ele><time>2026-04-11T12:33:43.002Z</time></trkpt><trkpt lat="38.445912769105405" lon="16.2579589306408"><ele>1088.0</ele><time>2026-04-11T12:33:44.002Z</time></trkpt><trkpt lat="38.445894483571564" lon="16.258092302747627"><ele>1088.0</ele><time>2026-04-11T12:33:45.002Z</time></trkpt><trkpt lat="38.445826232421744" lon="16.258216629479183"><ele>1088.0</ele><time>2026-04-11T12:33:46.002Z</time></trkpt><trkpt lat="38.445735252130085" lon="16.25827813420122"><ele>1090.5</ele><time>2026-04-11T12:33:47.002Z</time></trkpt><trkpt lat="38.445634922305395" lon="16.258279565446816"><ele>1093.0</ele><time>2026-04-11T12:33:48.002Z</time></trkpt><trkpt lat="38.445529398881874" lon="16.25820485652935"><ele>1095.5</ele><time>2026-04-11T12:33:49.002Z</time></trkpt><trkpt lat="38.4454018642108" lon="16.258172026275577"><ele>1098.0</ele><time>2026-04-11T12:33:50.002Z</time></trkpt><trkpt lat="38.4452790282688" lon="16.258136823609107"><ele>1100.25</ele><time>2026-04-11T12:33:51.002Z</time></trkpt><trkpt lat="38.445168166846756" lon="16.258180100323695"><ele>1102.5</ele><time>2026-04-11T12:33:52.002Z</time></trkpt><trkpt lat="38.445042642234945" lon="16.258245042014217"><ele>1104.75</ele><time>2026-04-11T12:33:53.002Z</time></trkpt><trkpt lat="38.44491581900425" lon="16.258314710880658"><ele>1107.0</ele><time>2026-04-11T12:33:54.002Z</time></trkpt><trkpt lat="38.4448133155745" lon="16.258369066067953"><ele>1107.0</ele><time>2026-04-11T12:33:55.002Z</time></trkpt><trkpt lat="38.444712862824446" lon="16.25843419802209"><ele>1107.0</ele><time>2026-04-11T12:33:56.002Z</time></trkpt><trkpt lat="38.444602928474964" lon="16.25850480244554"><ele>1107.0</ele><time>2026-04-11T12:33:57.002Z</time></trkpt><trkpt lat="38.44451357606884" lon="16.258600558077493"><ele>1107.0</ele><time>2026-04-11T12:33:58.002Z</time></trkpt><trkpt lat="38.444438141478756" lon="16.258709356717493"><ele>1108.0</ele><time>2026-04-11T12:33:59.002Z</time></trkpt><trkpt lat="38.44438561242739" lon="16.258828285728033"><ele>1109.0</ele><time>2026-04-11T12:34:00.002Z</time></trkpt><trkpt lat="38.44435699903836" lon="16.25895731784713"><ele>1110.0</ele><time>2026-04-11T12:34:01.002Z</time></trkpt><trkpt lat="38.44435489247299" lon="16.259108380663974"><ele>1111.0</ele><time>2026-04-11T12:34:02.002Z</time></trkpt><trkpt lat="38.444367679958575" lon="16.259267019053528"><ele>1113.0</ele><time>2026-04-11T12:34:03.002Z</time></trkpt><trkpt lat="38.44439528276195" lon="16.25942413707891"><ele>1115.0</ele><time>2026-04-11T12:34:04.002Z</time></trkpt><trkpt lat="38.44440889160299" lon="16.259556503007687"><ele>1117.0</ele><time>2026-04-11T12:34:05.002Z</time></trkpt><trkpt lat="38.44445715055616" lon="16.259669903189984"><ele>1119.0</ele><time>2026-04-11T12:34:06.002Z</time></trkpt><trkpt lat="38.444539839295736" lon="16.25975882389819"><ele>1121.0</ele><time>2026-04-11T12:34:07.002Z</time></trkpt><trkpt lat="38.44464852015552" lon="16.25980263786167"><ele>1121.2</ele><time>2026-04-11T12:34:08.002Z</time></trkpt><trkpt lat="38.44475774795837" lon="16.25982564617001"><ele>1121.3999999999999</ele><time>2026-04-11T12:34:09.002Z</time></trkpt><trkpt lat="38.44487470615324" lon="16.259848581456435"><ele>1121.6</ele><time>2026-04-11T12:34:10.002Z</time></trkpt><trkpt lat="38.44497732615197" lon="16.25990178538483"><ele>1121.8</ele><time>2026-04-11T12:34:11.002Z</time></trkpt><trkpt lat="38.445036901743066" lon="16.260003136658717"><ele>1122.0</ele><time>2026-04-11T12:34:12.002Z</time></trkpt><trkpt lat="38.44507653245559" lon="16.260150095009557"><ele>1122.0</ele><time>2026-04-11T12:34:13.002Z</time></trkpt><trkpt lat="38.44507866332047" lon="16.26033600107399"><ele>1122.0</ele><time>2026-04-11T12:34:14.002Z</time></trkpt><trkpt lat="38.44504842046702" lon="16.260521776780536"><ele>1122.0</ele><time>2026-04-11T12:34:15.002Z</time></trkpt><trkpt lat="38.44500384227565" lon="16.26068438241872"><ele>1122.0</ele><time>2026-04-11T12:34:16.002Z</time></trkpt><trkpt lat="38.44494922606605" lon="16.260870942323567"><ele>1121.6666666666667</ele><time>2026-04-11T12:34:17.002Z</time></trkpt><trkpt lat="38.444902506539144" lon="16.26105729498219"><ele>1121.3333333333335</ele><time>2026-04-11T12:34:18.002Z</time></trkpt><trkpt lat="38.44485477602741" lon="16.26124278799384"><ele>1121.0</ele><time>2026-04-11T12:34:19.002Z</time></trkpt><trkpt lat="38.44480686207527" lon="16.26143612302759"><ele>1119.3333333333335</ele><time>2026-04-11T12:34:20.002Z</time></trkpt><trkpt lat="38.44475546622193" lon="16.261649574151033"><ele>1117.6666666666667</ele><time>2026-04-11T12:34:21.002Z</time></trkpt><trkpt lat="38.44471405981822" lon="16.261854810472425"><ele>1116.0</ele><time>2026-04-11T12:34:22.002Z</time></trkpt><trkpt lat="38.44467897933546" lon="16.26206172789133"><ele>1116.0</ele><time>2026-04-11T12:34:23.002Z</time></trkpt><trkpt lat="38.444650936080635" lon="16.26226026123141"><ele>1116.0</ele><time>2026-04-11T12:34:24.002Z</time></trkpt><trkpt lat="38.44462820925456" lon="16.262462160953678"><ele>1116.0</ele><time>2026-04-11T12:34:25.002Z</time></trkpt><trkpt lat="38.44462388370555" lon="16.26267858705665"><ele>1115.6666666666667</ele><time>2026-04-11T12:34:26.002Z</time></trkpt><trkpt lat="38.444637082162394" lon="16.262895087346834"><ele>1115.3333333333335</ele><time>2026-04-11T12:34:27.002Z</time></trkpt><trkpt lat="38.444674539706824" lon="16.263114761803795"><ele>1115.0</ele><time>2026-04-11T12:34:28.002Z</time></trkpt><trkpt lat="38.44473890148628" lon="16.263314424649394"><ele>1115.0</ele><time>2026-04-11T12:34:29.002Z</time></trkpt><trkpt lat="38.444815355758564" lon="16.26351072244733"><ele>1115.0</ele><time>2026-04-11T12:34:30.002Z</time></trkpt><trkpt lat="38.44490202023967" lon="16.263699986014647"><ele>1115.0</ele><time>2026-04-11T12:34:31.002Z</time></trkpt><trkpt lat="38.44499144646165" lon="16.263894896381505"><ele>1115.3333333333335</ele><time>2026-04-11T12:34:32.002Z</time></trkpt><trkpt lat="38.44508592977248" lon="16.264107232145278"><ele>1115.6666666666667</ele><time>2026-04-11T12:34:33.003Z</time></trkpt><trkpt lat="38.44518749817292" lon="16.26432668866048"><ele>1116.0</ele><time>2026-04-11T12:34:34.003Z</time></trkpt><trkpt lat="38.44528728630706" lon="16.264537783472573"><ele>1116.0</ele><time>2026-04-11T12:34:35Z</time></trkpt><trkpt lat="38.44537395414889" lon="16.26474380617793"><ele>1116.0</ele><time>2026-04-11T12:34:36Z</time></trkpt><trkpt lat="38.4454482770755" lon="16.264931774701857"><ele>1116.0</ele><time>2026-04-11T12:34:37Z</time></trkpt><trkpt lat="38.44551585248278" lon="16.26511905074742"><ele>1116.6666666666667</ele><time>2026-04-11T12:34:38Z</time></trkpt><trkpt lat="38.445540999287815" lon="16.26532794433644"><ele>1117.3333333333335</ele><time>2026-04-11T12:34:39Z</time></trkpt><trkpt lat="38.44555542931727" lon="16.265562390145295"><ele>1118.0</ele><time>2026-04-11T12:34:40Z</time></trkpt><trkpt lat="38.44554717573366" lon="16.265814661039087"><ele>1120.3333333333335</ele><time>2026-04-11T12:34:41Z</time></trkpt><trkpt lat="38.44554864751605" lon="16.26605871928777"><ele>1122.6666666666667</ele><time>2026-04-11T12:34:42Z</time></trkpt><trkpt lat="38.44556099575242" lon="16.266278644970235"><ele>1125.0</ele><time>2026-04-11T12:34:43Z</time></trkpt><trkpt lat="38.44557044742372" lon="16.26646661554984"><ele>1125.75</ele><time>2026-04-11T12:34:44Z</time></trkpt><trkpt lat="38.445553178628955" lon="16.266618391560513"><ele>1126.5</ele><time>2026-04-11T12:34:45Z</time></trkpt><trkpt lat="38.44551515794632" lon="16.266735784211036"><ele>1127.25</ele><time>2026-04-11T12:34:46Z</time></trkpt><trkpt lat="38.44543762238489" lon="16.266846960660175"><ele>1128.0</ele><time>2026-04-11T12:34:47Z</time></trkpt><trkpt lat="38.4453143870249" lon="16.266907369634808"><ele>1128.3333333333333</ele><time>2026-04-11T12:34:48Z</time></trkpt><trkpt lat="38.44518779253689" lon="16.26699784894403"><ele>1128.6666666666665</ele><time>2026-04-11T12:34:49Z</time></trkpt><trkpt lat="38.44503940464969" lon="16.26707047183202"><ele>1129.0</ele><time>2026-04-11T12:34:50Z</time></trkpt><trkpt lat="38.444917248656544" lon="16.267188717200572"><ele>1127.5</ele><time>2026-04-11T12:34:51Z</time></trkpt><trkpt lat="38.44480959657648" lon="16.26728765852649"><ele>1126.0</ele><time>2026-04-11T12:34:52Z</time></trkpt><trkpt lat="38.44471540264845" lon="16.267381224825403"><ele>1124.5</ele><time>2026-04-11T12:34:53Z</time></trkpt><trkpt lat="38.44464891484646" lon="16.267497428333105"><ele>1123.0</ele><time>2026-04-11T12:34:54Z</time></trkpt><trkpt lat="38.444596191564514" lon="16.267631068048036"><ele>1123.0</ele><time>2026-04-11T12:34:55Z</time></trkpt><trkpt lat="38.44457308057847" lon="16.26779552690461"><ele>1123.0</ele><time>2026-04-11T12:34:56Z</time></trkpt><trkpt lat="38.44457257230324" lon="16.267988374519096"><ele>1123.0</ele><time>2026-04-11T12:34:57Z</time></trkpt><trkpt lat="38.44457165973449" lon="16.268202302768632"><ele>1123.0</ele><time>2026-04-11T12:34:58Z</time></trkpt><trkpt lat="38.444577151111964" lon="16.268432856200853"><ele>1124.25</ele><time>2026-04-11T12:34:59Z</time></trkpt><trkpt lat="38.44458017214191" lon="16.268627856418902"><ele>1125.5</ele><time>2026-04-11T12:35:00Z</time></trkpt><trkpt lat="38.44456066832606" lon="16.268789323336772"><ele>1126.75</ele><time>2026-04-11T12:35:01Z</time></trkpt><trkpt lat="38.4444818253099" lon="16.268936567498542"><ele>1128.0</ele><time>2026-04-11T12:35:02Z</time></trkpt><trkpt lat="38.44438446252648" lon="16.269072093972294"><ele>1129.25</ele><time>2026-04-11T12:35:03Z</time></trkpt><trkpt lat="38.44430345523108" lon="16.269230666696494"><ele>1130.5</ele><time>2026-04-11T12:35:04Z</time></trkpt><trkpt lat="38.44421230637476" lon="16.269365435772606"><ele>1131.75</ele><time>2026-04-11T12:35:05Z</time></trkpt><trkpt lat="38.44414874650191" lon="16.269537480191893"><ele>1133.0</ele><time>2026-04-11T12:35:06Z</time></trkpt><trkpt lat="38.44410663051503" lon="16.269734274616603"><ele>1128.0</ele><time>2026-04-11T12:35:07Z</time></trkpt><trkpt lat="38.44408416028041" lon="16.269927777454637"><ele>1123.0</ele><time>2026-04-11T12:35:08Z</time></trkpt><trkpt lat="38.44404631984111" lon="16.270121823101565"><ele>1118.0</ele><time>2026-04-11T12:35:09Z</time></trkpt><trkpt lat="38.44399135553243" lon="16.270312010444208"><ele>1118.0</ele><time>2026-04-11T12:35:10Z</time></trkpt><trkpt lat="38.44391790406795" lon="16.270492640938453"><ele>1118.0</ele><time>2026-04-11T12:35:11.001Z</time></trkpt><trkpt lat="38.44385503717111" lon="16.270668715789796"><ele>1118.0</ele><time>2026-04-11T12:35:12.001Z</time></trkpt><trkpt lat="38.44380888266996" lon="16.270859132528766"><ele>1117.5</ele><time>2026-04-11T12:35:13.001Z</time></trkpt><trkpt lat="38.44378205533303" lon="16.271055232744562"><ele>1117.0</ele><time>2026-04-11T12:35:14.001Z</time></trkpt><trkpt lat="38.44376956737872" lon="16.271240969600914"><ele>1116.5</ele><time>2026-04-11T12:35:15.001Z</time></trkpt><trkpt lat="38.44375461793111" lon="16.27140580894271"><ele>1116.0</ele><time>2026-04-11T12:35:16.001Z</time></trkpt><trkpt lat="38.44373461580396" lon="16.271570409455975"><ele>1114.8</ele><time>2026-04-11T12:35:17.001Z</time></trkpt><trkpt lat="38.44370436154016" lon="16.2717217455443"><ele>1113.6</ele><time>2026-04-11T12:35:18.001Z</time></trkpt><trkpt lat="38.443668807118904" lon="16.271857613811598"><ele>1112.4</ele><time>2026-04-11T12:35:19.001Z</time></trkpt><trkpt lat="38.44364001806118" lon="16.271986741369098"><ele>1111.2</ele><time>2026-04-11T12:35:20.001Z</time></trkpt><trkpt lat="38.44361825192467" lon="16.27210046793691"><ele>1110.0</ele><time>2026-04-11T12:35:21.001Z</time></trkpt><trkpt lat="38.44362071107866" lon="16.272199740851228"><ele>1109.6</ele><time>2026-04-11T12:35:22.001Z</time></trkpt><trkpt lat="38.443634649287624" lon="16.27232361842833"><ele>1109.2</ele><time>2026-04-11T12:35:24.001Z</time></trkpt><trkpt lat="38.443797022527804" lon="16.272312023966307"><ele>1108.8</ele><time>2026-04-11T12:35:50.001Z</time></trkpt><trkpt lat="38.44386013517301" lon="16.272263303215436"><ele>1108.4</ele><time>2026-04-11T12:35:51.001Z</time></trkpt><trkpt lat="38.44393184697532" lon="16.27219700122259"><ele>1108.0</ele><time>2026-04-11T12:35:52.001Z</time></trkpt><trkpt lat="38.44401561105532" lon="16.272092596784958"><ele>1108.0</ele><time>2026-04-11T12:35:53.001Z</time></trkpt><trkpt lat="38.44406640008809" lon="16.271971120295625"><ele>1108.0</ele><time>2026-04-11T12:35:54.001Z</time></trkpt><trkpt lat="38.44411854040708" lon="16.271824848361007"><ele>1108.0</ele><time>2026-04-11T12:35:55.001Z</time></trkpt><trkpt lat="38.444126770824404" lon="16.271681371367528"><ele>1108.0</ele><time>2026-04-11T12:35:56.001Z</time></trkpt><trkpt lat="38.44413154697873" lon="16.271500692554667"><ele>1109.0</ele><time>2026-04-11T12:35:57.001Z</time></trkpt><trkpt lat="38.44414693810934" lon="16.27131185980806"><ele>1110.0</ele><time>2026-04-11T12:35:58.001Z</time></trkpt><trkpt lat="38.44416712060185" lon="16.271083150797256"><ele>1111.0</ele><time>2026-04-11T12:35:59.001Z</time></trkpt><trkpt lat="38.4441895332023" lon="16.27087713445288"><ele>1111.0</ele><time>2026-04-11T12:36:00.001Z</time></trkpt><trkpt lat="38.44421367678629" lon="16.27070798576874"><ele>1111.0</ele><time>2026-04-11T12:36:01.001Z</time></trkpt><trkpt lat="38.44423758962619" lon="16.270493938779655"><ele>1111.0</ele><time>2026-04-11T12:36:02.002Z</time></trkpt><trkpt lat="38.4442847277756" lon="16.270332782500784"><ele>1111.0</ele><time>2026-04-11T12:36:03.002Z</time></trkpt><trkpt lat="38.444344911211275" lon="16.270250008848638"><ele>1110.6</ele><time>2026-04-11T12:36:04.002Z</time></trkpt><trkpt lat="38.4444323268747" lon="16.27023517894595"><ele>1110.1999999999998</ele><time>2026-04-11T12:36:05.002Z</time></trkpt><trkpt lat="38.44450415890557" lon="16.270237226724827"><ele>1109.8000000000002</ele><time>2026-04-11T12:36:06.002Z</time></trkpt><trkpt lat="38.44465651034066" lon="16.270266596055645"><ele>1109.4</ele><time>2026-04-11T12:36:07.002Z</time></trkpt><trkpt lat="38.44478630212642" lon="16.27030592765567"><ele>1109.0</ele><time>2026-04-11T12:36:08.002Z</time></trkpt><trkpt lat="38.44489286236116" lon="16.27037913977349"><ele>1109.0</ele><time>2026-04-11T12:36:09.002Z</time></trkpt><trkpt lat="38.4449908433111" lon="16.27050202480721"><ele>1109.0</ele><time>2026-04-11T12:36:10.002Z</time></trkpt><trkpt lat="38.445090224184135" lon="16.270615387921545"><ele>1109.0</ele><time>2026-04-11T12:36:11.002Z</time></trkpt><trkpt lat="38.44519190538373" lon="16.270721512485192"><ele>1109.0</ele><time>2026-04-11T12:36:12.002Z</time></trkpt><trkpt lat="38.44525636822284" lon="16.270765944739832"><ele>1107.8333333333335</ele><time>2026-04-11T12:36:13.002Z</time></trkpt><trkpt lat="38.44534721252968" lon="16.270831071860403"><ele>1106.6666666666667</ele><time>2026-04-11T12:36:14.002Z</time></trkpt><trkpt lat="38.445451914364355" lon="16.270896576264388"><ele>1105.5</ele><time>2026-04-11T12:36:15.002Z</time></trkpt><trkpt lat="38.44552516252607" lon="16.270929586116424"><ele>1104.3333333333333</ele><time>2026-04-11T12:36:16.002Z</time></trkpt><trkpt lat="38.44559174814456" lon="16.27092697569507"><ele>1103.1666666666665</ele><time>2026-04-11T12:36:17.002Z</time></trkpt><trkpt lat="38.44567419506064" lon="16.270927348481237"><ele>1102.0</ele><time>2026-04-11T12:36:18.002Z</time></trkpt><trkpt lat="38.44578505378526" lon="16.270881533440427"><ele>1101.25</ele><time>2026-04-11T12:36:19.002Z</time></trkpt><trkpt lat="38.445916682467455" lon="16.270756334170237"><ele>1100.5</ele><time>2026-04-11T12:36:20.002Z</time></trkpt><trkpt lat="38.44599120075304" lon="16.270641407002444"><ele>1099.75</ele><time>2026-04-11T12:36:21.002Z</time></trkpt><trkpt lat="38.44607239311259" lon="16.270521873720728"><ele>1099.0</ele><time>2026-04-11T12:36:22.002Z</time></trkpt><trkpt lat="38.44616259953198" lon="16.270430667015106"><ele>1101.0</ele><time>2026-04-11T12:36:23.002Z</time></trkpt><trkpt lat="38.446264275393" lon="16.270354989567473"><ele>1103.0</ele><time>2026-04-11T12:36:24.002Z</time></trkpt><trkpt lat="38.4463595672528" lon="16.27029833446738"><ele>1105.0</ele><time>2026-04-11T12:36:25.002Z</time></trkpt><trkpt lat="38.44645582851082" lon="16.270234090744953"><ele>1107.0</ele><time>2026-04-11T12:36:26.002Z</time></trkpt><trkpt lat="38.44654434784306" lon="16.270091680317343"><ele>1102.75</ele><time>2026-04-11T12:36:27.002Z</time></trkpt><trkpt lat="38.44653674671122" lon="16.269940238945853"><ele>1098.5</ele><time>2026-04-11T12:36:28.002Z</time></trkpt><trkpt lat="38.446551824706454" lon="16.26981249743458"><ele>1094.25</ele><time>2026-04-11T12:36:29.002Z</time></trkpt><trkpt lat="38.44651377292425" lon="16.269669254594774"><ele>1090.0</ele><time>2026-04-11T12:36:30.002Z</time></trkpt><trkpt lat="38.44642636796431" lon="16.269536697148506"><ele>1090.0</ele><time>2026-04-11T12:36:31.002Z</time></trkpt><trkpt lat="38.4463879397459" lon="16.269365226200602"><ele>1090.0</ele><time>2026-04-11T12:36:32.002Z</time></trkpt><trkpt lat="38.44638800313542" lon="16.269187152101093"><ele>1090.0</ele><time>2026-04-11T12:36:33.002Z</time></trkpt><trkpt lat="38.44638574553156" lon="16.269088882227003"><ele>1090.0</ele><time>2026-04-11T12:36:34.002Z</time></trkpt><trkpt lat="38.44638261903207" lon="16.268952792278544"><ele>1091.6</ele><time>2026-04-11T12:36:35.002Z</time></trkpt><trkpt lat="38.446386371263365" lon="16.268849249456547"><ele>1093.2</ele><time>2026-04-11T12:36:36.002Z</time></trkpt><trkpt lat="38.44646903523511" lon="16.268734672507623"><ele>1094.8</ele><time>2026-04-11T12:36:38.002Z</time></trkpt><trkpt lat="38.44657411929949" lon="16.268688838475075"><ele>1096.4</ele><time>2026-04-11T12:36:39.002Z</time></trkpt><trkpt lat="38.446690963141684" lon="16.268666317331842"><ele>1098.0</ele><time>2026-04-11T12:36:40.002Z</time></trkpt><trkpt lat="38.44682772693111" lon="16.268658831526935"><ele>1098.0</ele><time>2026-04-11T12:36:41Z</time></trkpt><trkpt lat="38.446940312897304" lon="16.26868602385563"><ele>1098.0</ele><time>2026-04-11T12:36:42Z</time></trkpt><trkpt lat="38.44706399988251" lon="16.26877272590428"><ele>1098.0</ele><time>2026-04-11T12:36:43Z</time></trkpt><trkpt lat="38.44712157955241" lon="16.268843606025623"><ele>1098.0</ele><time>2026-04-11T12:36:44Z</time></trkpt><trkpt lat="38.447232143358555" lon="16.268890672652898"><ele>1096.25</ele><time>2026-04-11T12:36:45Z</time></trkpt><trkpt lat="38.44735176899456" lon="16.268899713031377"><ele>1094.5</ele><time>2026-04-11T12:36:46Z</time></trkpt><trkpt lat="38.44747450692809" lon="16.26878528490125"><ele>1092.75</ele><time>2026-04-11T12:36:47Z</time></trkpt><trkpt lat="38.4475460239003" lon="16.268646077475125"><ele>1091.0</ele><time>2026-04-11T12:36:48Z</time></trkpt><trkpt lat="38.44758476584898" lon="16.26849592289703"><ele>1091.0</ele><time>2026-04-11T12:36:49Z</time></trkpt><trkpt lat="38.44761063681051" lon="16.268405153056122"><ele>1091.0</ele><time>2026-04-11T12:36:50Z</time></trkpt><trkpt lat="38.447639954515424" lon="16.268312120987904"><ele>1091.0</ele><time>2026-04-11T12:36:51Z</time></trkpt><trkpt lat="38.44770488956811" lon="16.26818386881823"><ele>1091.0</ele><time>2026-04-11T12:36:52Z</time></trkpt><trkpt lat="38.44778776922978" lon="16.26810951340303"><ele>1091.0</ele><time>2026-04-11T12:36:53Z</time></trkpt><trkpt lat="38.447871285109294" lon="16.268133871919144"><ele>1091.0</ele><time>2026-04-11T12:36:54Z</time></trkpt><trkpt lat="38.44794498749283" lon="16.268175463961434"><ele>1091.0</ele><time>2026-04-11T12:36:55Z</time></trkpt><trkpt lat="38.44801451905247" lon="16.268272699885948"><ele>1091.0</ele><time>2026-04-11T12:36:56Z</time></trkpt><trkpt lat="38.448041744058244" lon="16.26841156456328"><ele>1091.0</ele><time>2026-04-11T12:36:57Z</time></trkpt><trkpt lat="38.447984651941745" lon="16.26856889887946"><ele>1091.0</ele><time>2026-04-11T12:36:58Z</time></trkpt><trkpt lat="38.4479566378013" lon="16.268763107027784"><ele>1088.75</ele><time>2026-04-11T12:36:59Z</time></trkpt><trkpt lat="38.447933129935784" lon="16.268942842619033"><ele>1086.5</ele><time>2026-04-11T12:37:00Z</time></trkpt><trkpt lat="38.44793000253758" lon="16.26912701688624"><ele>1084.25</ele><time>2026-04-11T12:37:01Z</time></trkpt><trkpt lat="38.44794715029429" lon="16.26925895896589"><ele>1082.0</ele><time>2026-04-11T12:37:02Z</time></trkpt><trkpt lat="38.44798636206628" lon="16.269446656575205"><ele>1080.25</ele><time>2026-04-11T12:37:03Z</time></trkpt><trkpt lat="38.44803497589288" lon="16.26960382649274"><ele>1078.5</ele><time>2026-04-11T12:37:04Z</time></trkpt><trkpt lat="38.44807807800254" lon="16.269760324426436"><ele>1076.75</ele><time>2026-04-11T12:37:05Z</time></trkpt><trkpt lat="38.448137862819856" lon="16.269901070936868"><ele>1075.0</ele><time>2026-04-11T12:37:06Z</time></trkpt><trkpt lat="38.448238714640006" lon="16.270018871196488"><ele>1073.0</ele><time>2026-04-11T12:37:07Z</time></trkpt><trkpt lat="38.44833378866594" lon="16.270137211080723"><ele>1071.0</ele><time>2026-04-11T12:37:08Z</time></trkpt><trkpt lat="38.44841962911938" lon="16.27018255154094"><ele>1069.0</ele><time>2026-04-11T12:37:09Z</time></trkpt><trkpt lat="38.44851464418042" lon="16.27017923978797"><ele>1067.0</ele><time>2026-04-11T12:37:10Z</time></trkpt><trkpt lat="38.44860922002785" lon="16.27008791269639"><ele>1065.0</ele><time>2026-04-11T12:37:11Z</time></trkpt><trkpt lat="38.44866904439411" lon="16.269965168549152"><ele>1065.0</ele><time>2026-04-11T12:37:12Z</time></trkpt><trkpt lat="38.44867863481151" lon="16.269810231179182"><ele>1065.0</ele><time>2026-04-11T12:37:13.001Z</time></trkpt><trkpt lat="38.448674170050424" lon="16.269661577521443"><ele>1065.0</ele><time>2026-04-11T12:37:14.001Z</time></trkpt><trkpt lat="38.4486939167401" lon="16.269505892666725"><ele>1065.0</ele><time>2026-04-11T12:37:15.001Z</time></trkpt><trkpt lat="38.448700273229946" lon="16.26934915352931"><ele>1065.6</ele><time>2026-04-11T12:37:16.001Z</time></trkpt><trkpt lat="38.4487095844278" lon="16.269210778232793"><ele>1066.2</ele><time>2026-04-11T12:37:17.001Z</time></trkpt><trkpt lat="38.44873352938385" lon="16.26906792248542"><ele>1066.8</ele><time>2026-04-11T12:37:18.001Z</time></trkpt><trkpt lat="38.44876456003722" lon="16.268953685798927"><ele>1067.4</ele><time>2026-04-11T12:37:19.001Z</time></trkpt><trkpt lat="38.448816698640506" lon="16.268831623121415"><ele>1068.0</ele><time>2026-04-11T12:37:20.001Z</time></trkpt><trkpt lat="38.448872510178205" lon="16.26871779374851"><ele>1068.0</ele><time>2026-04-11T12:37:21.001Z</time></trkpt><trkpt lat="38.4489779223098" lon="16.268727060221057"><ele>1068.0</ele><time>2026-04-11T12:37:22.001Z</time></trkpt><trkpt lat="38.4491237361272" lon="16.268795434954995"><ele>1068.0</ele><time>2026-04-11T12:37:23.001Z</time></trkpt><trkpt lat="38.44928279435776" lon="16.268840567818106"><ele>1068.0</ele><time>2026-04-11T12:37:24.001Z</time></trkpt><trkpt lat="38.449433731629654" lon="16.268911825883237"><ele>1065.6666666666667</ele><time>2026-04-11T12:37:25.001Z</time></trkpt><trkpt lat="38.44957848492843" lon="16.268971254699153"><ele>1063.3333333333335</ele><time>2026-04-11T12:37:26.001Z</time></trkpt><trkpt lat="38.449734206437356" lon="16.269021331185662"><ele>1061.0</ele><time>2026-04-11T12:37:27.001Z</time></trkpt><trkpt lat="38.449875516768344" lon="16.26906732362283"><ele>1059.75</ele><time>2026-04-11T12:37:28.001Z</time></trkpt><trkpt lat="38.45000710596042" lon="16.269101201905475"><ele>1058.5</ele><time>2026-04-11T12:37:29.001Z</time></trkpt><trkpt lat="38.45014308395881" lon="16.269095005601425"><ele>1057.25</ele><time>2026-04-11T12:37:30.001Z</time></trkpt><trkpt lat="38.450258646509056" lon="16.269026081948574"><ele>1056.0</ele><time>2026-04-11T12:37:31.001Z</time></trkpt><trkpt lat="38.45034748342373" lon="16.268923189258878"><ele>1055.25</ele><time>2026-04-11T12:37:32.001Z</time></trkpt><trkpt lat="38.45041105275449" lon="16.268789592382394"><ele>1054.5</ele><time>2026-04-11T12:37:33.001Z</time></trkpt><trkpt lat="38.45043868931817" lon="16.268631737580826"><ele>1053.75</ele><time>2026-04-11T12:37:34.001Z</time></trkpt><trkpt lat="38.450473731352844" lon="16.268481744318212"><ele>1053.0</ele><time>2026-04-11T12:37:35.001Z</time></trkpt><trkpt lat="38.4504987941897" lon="16.268314646786795"><ele>1053.0</ele><time>2026-04-11T12:37:36.001Z</time></trkpt><trkpt lat="38.45059845626861" lon="16.26816187151843"><ele>1053.0</ele><time>2026-04-11T12:37:37.001Z</time></trkpt><trkpt lat="38.45063139168498" lon="16.268008601869262"><ele>1053.0</ele><time>2026-04-11T12:37:38.001Z</time></trkpt><trkpt lat="38.450614754907846" lon="16.26784086313318"><ele>1053.0</ele><time>2026-04-11T12:37:39.001Z</time></trkpt><trkpt lat="38.4505548553302" lon="16.26764560116085"><ele>1053.25</ele><time>2026-04-11T12:37:40.001Z</time></trkpt><trkpt lat="38.450500924904894" lon="16.26751044301703"><ele>1053.5</ele><time>2026-04-11T12:37:41.001Z</time></trkpt><trkpt lat="38.45054222831854" lon="16.267372133551508"><ele>1053.75</ele><time>2026-04-11T12:37:42.001Z</time></trkpt><trkpt lat="38.45060475650874" lon="16.267239543222438"><ele>1054.0</ele><time>2026-04-11T12:37:43.001Z</time></trkpt><trkpt lat="38.45070543025333" lon="16.267160339574374"><ele>1054.25</ele><time>2026-04-11T12:37:44.001Z</time></trkpt><trkpt lat="38.450815664518444" lon="16.267121341819742"><ele>1054.5</ele><time>2026-04-11T12:37:45.001Z</time></trkpt><trkpt lat="38.45092535255185" lon="16.26709829428594"><ele>1054.75</ele><time>2026-04-11T12:37:46.001Z</time></trkpt><trkpt lat="38.45105326250005" lon="16.267148939912737"><ele>1055.0</ele><time>2026-04-11T12:37:47.001Z</time></trkpt><trkpt lat="38.45117159974801" lon="16.26722139206271"><ele>1054.75</ele><time>2026-04-11T12:37:48.001Z</time></trkpt><trkpt lat="38.451281040960275" lon="16.267296660320515"><ele>1054.5</ele><time>2026-04-11T12:37:49.001Z</time></trkpt><trkpt lat="38.451384347246204" lon="16.267356545100604"><ele>1054.25</ele><time>2026-04-11T12:37:50.001Z</time></trkpt><trkpt lat="38.451483247303734" lon="16.267434126735594"><ele>1054.0</ele><time>2026-04-11T12:37:51.001Z</time></trkpt><trkpt lat="38.45156381934427" lon="16.267529023931015"><ele>1053.5</ele><time>2026-04-11T12:37:52.001Z</time></trkpt><trkpt lat="38.45159989704041" lon="16.2676843669739"><ele>1053.0</ele><time>2026-04-11T12:37:53.001Z</time></trkpt><trkpt lat="38.45160814655289" lon="16.26784318145366"><ele>1052.5</ele><time>2026-04-11T12:37:54.001Z</time></trkpt><trkpt lat="38.45161290378211" lon="16.26801074414848"><ele>1052.0</ele><time>2026-04-11T12:37:55.001Z</time></trkpt><trkpt lat="38.451631919033716" lon="16.268164612538616"><ele>1052.0</ele><time>2026-04-11T12:37:56.001Z</time></trkpt><trkpt lat="38.45167636164678" lon="16.268295624119098"><ele>1052.0</ele><time>2026-04-11T12:37:57.001Z</time></trkpt><trkpt lat="38.45174146467374" lon="16.268420253306598"><ele>1052.0</ele><time>2026-04-11T12:37:58.001Z</time></trkpt><trkpt lat="38.4518394033576" lon="16.26852480430636"><ele>1052.0</ele><time>2026-04-11T12:37:59.001Z</time></trkpt><trkpt lat="38.45194190004526" lon="16.268600353994284"><ele>1052.0</ele><time>2026-04-11T12:38:00.001Z</time></trkpt><trkpt lat="38.45205424840095" lon="16.268684526106203"><ele>1052.0</ele><time>2026-04-11T12:38:01.001Z</time></trkpt><trkpt lat="38.45217020179414" lon="16.26874664672794"><ele>1052.0</ele><time>2026-04-11T12:38:02.001Z</time></trkpt><trkpt lat="38.45228881375778" lon="16.268825347188617"><ele>1052.0</ele><time>2026-04-11T12:38:03.001Z</time></trkpt><trkpt lat="38.452408284608566" lon="16.26890441778817"><ele>1051.25</ele><time>2026-04-11T12:38:04.001Z</time></trkpt><trkpt lat="38.452529575420485" lon="16.268983313719612"><ele>1050.5</ele><time>2026-04-11T12:38:05.001Z</time></trkpt><trkpt lat="38.45266207460029" lon="16.269056693133706"><ele>1049.75</ele><time>2026-04-11T12:38:06.001Z</time></trkpt><trkpt lat="38.4527928825688" lon="16.269134651836488"><ele>1049.0</ele><time>2026-04-11T12:38:07.001Z</time></trkpt><trkpt lat="38.45290034382489" lon="16.26921597668462"><ele>1047.75</ele><time>2026-04-11T12:38:08.002Z</time></trkpt><trkpt lat="38.45301822593267" lon="16.269286784531676"><ele>1046.5</ele><time>2026-04-11T12:38:09.002Z</time></trkpt><trkpt lat="38.4531364187264" lon="16.26935974708567"><ele>1045.25</ele><time>2026-04-11T12:38:10.002Z</time></trkpt><trkpt lat="38.453256006954746" lon="16.26943332696829"><ele>1044.0</ele><time>2026-04-11T12:38:11.002Z</time></trkpt><trkpt lat="38.45337613522802" lon="16.26951775214817"><ele>1044.0</ele><time>2026-04-11T12:38:12.002Z</time></trkpt><trkpt lat="38.453507028469815" lon="16.269578316366097"><ele>1044.0</ele><time>2026-04-11T12:38:13.002Z</time></trkpt><trkpt lat="38.45365179256821" lon="16.269627544164877"><ele>1044.0</ele><time>2026-04-11T12:38:14.002Z</time></trkpt><trkpt lat="38.453818723287775" lon="16.269635886402348"><ele>1044.3333333333333</ele><time>2026-04-11T12:38:15.002Z</time></trkpt><trkpt lat="38.453996517269715" lon="16.26963447218508"><ele>1044.6666666666665</ele><time>2026-04-11T12:38:16.002Z</time></trkpt><trkpt lat="38.45416956948594" lon="16.26962802683856"><ele>1045.0</ele><time>2026-04-11T12:38:17.002Z</time></trkpt><trkpt lat="38.45432882028488" lon="16.269624484226007"><ele>1045.0</ele><time>2026-04-11T12:38:18.002Z</time></trkpt><trkpt lat="38.454490340389135" lon="16.269619312016594"><ele>1045.0</ele><time>2026-04-11T12:38:19.002Z</time></trkpt><trkpt lat="38.45464211402748" lon="16.269615135168408"><ele>1045.0</ele><time>2026-04-11T12:38:20.002Z</time></trkpt><trkpt lat="38.454788031626656" lon="16.269599772099017"><ele>1045.75</ele><time>2026-04-11T12:38:21.002Z</time></trkpt><trkpt lat="38.454923233225244" lon="16.269557602720884"><ele>1046.5</ele><time>2026-04-11T12:38:22.002Z</time></trkpt><trkpt lat="38.45506409859586" lon="16.269515844427396"><ele>1047.25</ele><time>2026-04-11T12:38:23.002Z</time></trkpt><trkpt lat="38.455191562554496" lon="16.269450503026697"><ele>1048.0</ele><time>2026-04-11T12:38:24.002Z</time></trkpt><trkpt lat="38.45529083224368" lon="16.269393590328246"><ele>1048.0</ele><time>2026-04-11T12:38:25.002Z</time></trkpt><trkpt lat="38.45538426345511" lon="16.26933889914017"><ele>1048.0</ele><time>2026-04-11T12:38:26.002Z</time></trkpt><trkpt lat="38.45546504953758" lon="16.269294082953223"><ele>1048.0</ele><time>2026-04-11T12:38:27.002Z</time></trkpt><trkpt lat="38.455529686262324" lon="16.269268252617152"><ele>1048.0</ele><time>2026-04-11T12:38:28.002Z</time></trkpt><trkpt lat="38.455592318721365" lon="16.26923984792198"><ele>1048.0</ele><time>2026-04-11T12:38:29.002Z</time></trkpt><trkpt lat="38.45568737107106" lon="16.269203938504518"><ele>1048.0</ele><time>2026-04-11T12:38:31.002Z</time></trkpt><trkpt lat="38.45581764792862" lon="16.26918380919355"><ele>1047.8333333333333</ele><time>2026-04-11T12:39:46.001Z</time></trkpt><trkpt lat="38.45589223977862" lon="16.269189002120005"><ele>1047.6666666666665</ele><time>2026-04-11T12:39:48.001Z</time></trkpt><trkpt lat="38.455973139433134" lon="16.26920258514482"><ele>1047.5</ele><time>2026-04-11T12:39:49.001Z</time></trkpt><trkpt lat="38.456064209195645" lon="16.26922550253811"><ele>1047.3333333333333</ele><time>2026-04-11T12:39:50.001Z</time></trkpt><trkpt lat="38.45612576270104" lon="16.26924744191862"><ele>1047.1666666666667</ele><time>2026-04-11T12:39:51.001Z</time></trkpt><trkpt lat="38.456216465946824" lon="16.26927895123119"><ele>1047.0</ele><time>2026-04-11T12:39:52.001Z</time></trkpt><trkpt lat="38.456302258330204" lon="16.269307993705215"><ele>1048.0</ele><time>2026-04-11T12:39:54.001Z</time></trkpt><trkpt lat="38.45670426851037" lon="16.268777592701646"><ele>1048.0</ele><time>2026-04-11T12:39:57.001Z</time></trkpt><trkpt lat="38.45681742190886" lon="16.268749033728096"><ele>1048.0</ele><time>2026-04-11T12:39:59.001Z</time></trkpt><trkpt lat="38.4568931446276" lon="16.268645299358447"><ele>1048.0</ele><time>2026-04-11T12:40:00.001Z</time></trkpt><trkpt lat="38.456983418446995" lon="16.268552449997205"><ele>1048.0</ele><time>2026-04-11T12:40:01.001Z</time></trkpt><trkpt lat="38.457080266842226" lon="16.26845242057302"><ele>1048.5</ele><time>2026-04-11T12:40:02.001Z</time></trkpt><trkpt lat="38.45715056381708" lon="16.268412745367414"><ele>1049.0</ele><time>2026-04-11T12:40:03.001Z</time></trkpt><trkpt lat="38.457228930613525" lon="16.268356922919423"><ele>1049.5</ele><time>2026-04-11T12:40:04.001Z</time></trkpt><trkpt lat="38.45730768154983" lon="16.26831421681776"><ele>1050.0</ele><time>2026-04-11T12:40:05.001Z</time></trkpt><trkpt lat="38.45738192264427" lon="16.268298351623848"><ele>1050.5</ele><time>2026-04-11T12:40:06.001Z</time></trkpt><trkpt lat="38.45747175631812" lon="16.268314092483852"><ele>1051.0</ele><time>2026-04-11T12:40:07.001Z</time></trkpt><trkpt lat="38.45755284901438" lon="16.268297824571203"><ele>1051.0</ele><time>2026-04-11T12:40:08.001Z</time></trkpt><trkpt lat="38.457614142151435" lon="16.26832989618568"><ele>1051.0</ele><time>2026-04-11T12:40:09.001Z</time></trkpt><trkpt lat="38.457714410319944" lon="16.268357376045802"><ele>1051.0</ele><time>2026-04-11T12:40:10.001Z</time></trkpt><trkpt lat="38.45782919894262" lon="16.268395433322382"><ele>1051.0</ele><time>2026-04-11T12:40:11.001Z</time></trkpt><trkpt lat="38.45794946528311" lon="16.268406705305697"><ele>1051.0</ele><time>2026-04-11T12:40:12.001Z</time></trkpt><trkpt lat="38.458045848646286" lon="16.26845807369617"><ele>1050.25</ele><time>2026-04-11T12:40:13.002Z</time></trkpt><trkpt lat="38.45815676016378" lon="16.26850492133106"><ele>1049.5</ele><time>2026-04-11T12:40:14.002Z</time></trkpt><trkpt lat="38.45827656054819" lon="16.268520120124894"><ele>1048.75</ele><time>2026-04-11T12:40:15.002Z</time></trkpt><trkpt lat="38.458401345805754" lon="16.26853080040676"><ele>1048.0</ele><time>2026-04-11T12:40:16.002Z</time></trkpt><trkpt lat="38.45853076701625" lon="16.268540872859973"><ele>1048.0</ele><time>2026-04-11T12:40:17.002Z</time></trkpt><trkpt lat="38.45867252946516" lon="16.26851792132991"><ele>1048.0</ele><time>2026-04-11T12:40:18.002Z</time></trkpt><trkpt lat="38.45879709850241" lon="16.26851191315474"><ele>1048.0</ele><time>2026-04-11T12:40:19.002Z</time></trkpt><trkpt lat="38.45893221144595" lon="16.268481809081635"><ele>1048.0</ele><time>2026-04-11T12:40:20.002Z</time></trkpt><trkpt lat="38.45906257327196" lon="16.26844810506952"><ele>1048.5</ele><time>2026-04-11T12:40:21.002Z</time></trkpt><trkpt lat="38.459186321363184" lon="16.268398311828996"><ele>1049.0</ele><time>2026-04-11T12:40:22.002Z</time></trkpt><trkpt lat="38.45930674984734" lon="16.268331484405785"><ele>1049.5</ele><time>2026-04-11T12:40:23.002Z</time></trkpt><trkpt lat="38.45941942842342" lon="16.26824316025121"><ele>1050.0</ele><time>2026-04-11T12:40:24.002Z</time></trkpt><trkpt lat="38.45953786290508" lon="16.268145546655305"><ele>1049.0</ele><time>2026-04-11T12:40:25.002Z</time></trkpt><trkpt lat="38.45966115361937" lon="16.268049789881495"><ele>1048.0</ele><time>2026-04-11T12:40:26.002Z</time></trkpt><trkpt lat="38.459804665643276" lon="16.267970295375772"><ele>1047.0</ele><time>2026-04-11T12:40:27.002Z</time></trkpt><trkpt lat="38.45994512546918" lon="16.267936099983885"><ele>1046.0</ele><time>2026-04-11T12:40:28.002Z</time></trkpt><trkpt lat="38.46007420602926" lon="16.26792853466725"><ele>1046.0</ele><time>2026-04-11T12:40:29.002Z</time></trkpt><trkpt lat="38.460214481140135" lon="16.26792307410179"><ele>1046.0</ele><time>2026-04-11T12:40:30.002Z</time></trkpt><trkpt lat="38.460322127391244" lon="16.26790970338011"><ele>1046.0</ele><time>2026-04-11T12:40:31.002Z</time></trkpt><trkpt lat="38.46043475082551" lon="16.26789872493513"><ele>1046.0</ele><time>2026-04-11T12:40:32.002Z</time></trkpt><trkpt lat="38.46052436774707" lon="16.26790284443935"><ele>1047.3999999999999</ele><time>2026-04-11T12:40:33.002Z</time></trkpt><trkpt lat="38.46061056576922" lon="16.267872181018074"><ele>1048.8</ele><time>2026-04-11T12:40:34.002Z</time></trkpt><trkpt lat="38.46068966078077" lon="16.26781722213472"><ele>1050.1999999999998</ele><time>2026-04-11T12:40:35.002Z</time></trkpt><trkpt lat="38.46076382913532" lon="16.26775434525211"><ele>1051.6</ele><time>2026-04-11T12:40:36.002Z</time></trkpt><trkpt lat="38.4608593097329" lon="16.267647886603935"><ele>1053.0</ele><time>2026-04-11T12:40:37.002Z</time></trkpt><trkpt lat="38.46095451324081" lon="16.26749948906678"><ele>1053.0</ele><time>2026-04-11T12:40:38.002Z</time></trkpt><trkpt lat="38.461052997483634" lon="16.267402220493835"><ele>1053.0</ele><time>2026-04-11T12:40:39.002Z</time></trkpt><trkpt lat="38.46113777477132" lon="16.26731482116449"><ele>1053.0</ele><time>2026-04-11T12:40:40.002Z</time></trkpt><trkpt lat="38.46121831486931" lon="16.267215687584514"><ele>1053.0</ele><time>2026-04-11T12:40:41.002Z</time></trkpt><trkpt lat="38.46130697781216" lon="16.26709874770839"><ele>1052.75</ele><time>2026-04-11T12:40:42.002Z</time></trkpt><trkpt lat="38.46140336706611" lon="16.267005841786847"><ele>1052.5</ele><time>2026-04-11T12:40:43.002Z</time></trkpt><trkpt lat="38.461499024399835" lon="16.266929872482255"><ele>1052.25</ele><time>2026-04-11T12:40:44.002Z</time></trkpt><trkpt lat="38.461602386504445" lon="16.266870872133328"><ele>1052.0</ele><time>2026-04-11T12:40:45.002Z</time></trkpt><trkpt lat="38.46171765284868" lon="16.266808060471284"><ele>1052.0</ele><time>2026-04-11T12:40:46.002Z</time></trkpt><trkpt lat="38.46181624943671" lon="16.266754962141743"><ele>1052.0</ele><time>2026-04-11T12:40:47.002Z</time></trkpt><trkpt lat="38.461902460314974" lon="16.266729638706984"><ele>1052.0</ele><time>2026-04-11T12:40:48.002Z</time></trkpt><trkpt lat="38.46197898805036" lon="16.266731869165397"><ele>1052.0</ele><time>2026-04-11T12:40:49.002Z</time></trkpt><trkpt lat="38.46204221956178" lon="16.266732748835402"><ele>1052.0</ele><time>2026-04-11T12:40:50.002Z</time></trkpt><trkpt lat="38.462124662539814" lon="16.266754482120746"><ele>1052.0</ele><time>2026-04-11T12:40:51.002Z</time></trkpt><trkpt lat="38.462247846859185" lon="16.266808431010865"><ele>1052.8</ele><time>2026-04-11T12:40:52.002Z</time></trkpt><trkpt lat="38.46234640325146" lon="16.26685304164463"><ele>1053.6</ele><time>2026-04-11T12:40:53.001Z</time></trkpt><trkpt lat="38.46244297869049" lon="16.26686474827774"><ele>1054.3999999999999</ele><time>2026-04-11T12:40:54.001Z</time></trkpt><trkpt lat="38.462538537513815" lon="16.266859044273957"><ele>1055.2</ele><time>2026-04-11T12:40:55.001Z</time></trkpt><trkpt lat="38.46263094325826" lon="16.26683001818906"><ele>1056.0</ele><time>2026-04-11T12:40:56.001Z</time></trkpt><trkpt lat="38.46274120268673" lon="16.266784641829233"><ele>1056.0</ele><time>2026-04-11T12:40:57.001Z</time></trkpt><trkpt lat="38.462886284576115" lon="16.266738963553347"><ele>1056.0</ele><time>2026-04-11T12:40:58.001Z</time></trkpt><trkpt lat="38.46304442476852" lon="16.266689597651293"><ele>1056.0</ele><time>2026-04-11T12:40:59.001Z</time></trkpt><trkpt lat="38.4631975861008" lon="16.26664163358143"><ele>1056.3333333333333</ele><time>2026-04-11T12:41:00.001Z</time></trkpt><trkpt lat="38.46335132546015" lon="16.266623001629696"><ele>1056.6666666666665</ele><time>2026-04-11T12:41:01.001Z</time></trkpt><trkpt lat="38.463526048276044" lon="16.266578518314816"><ele>1057.0</ele><time>2026-04-11T12:41:02.001Z</time></trkpt><trkpt lat="38.463698813720136" lon="16.266539920906585"><ele>1058.0</ele><time>2026-04-11T12:41:03.001Z</time></trkpt><trkpt lat="38.46385500023455" lon="16.26651091101416"><ele>1059.0</ele><time>2026-04-11T12:41:04.001Z</time></trkpt><trkpt lat="38.46397617233662" lon="16.266486153407424"><ele>1060.0</ele><time>2026-04-11T12:41:05.001Z</time></trkpt><trkpt lat="38.46407647563961" lon="16.266453528324764"><ele>1061.0</ele><time>2026-04-11T12:41:06.001Z</time></trkpt><trkpt lat="38.464166190486694" lon="16.266408707065086"><ele>1061.25</ele><time>2026-04-11T12:41:07.001Z</time></trkpt><trkpt lat="38.46428680647894" lon="16.266320508798575"><ele>1061.5</ele><time>2026-04-11T12:41:08.001Z</time></trkpt><trkpt lat="38.46440750801235" lon="16.266231879190915"><ele>1061.75</ele><time>2026-04-11T12:41:09.001Z</time></trkpt><trkpt lat="38.464555882723715" lon="16.266124556942287"><ele>1062.0</ele><time>2026-04-11T12:41:10.001Z</time></trkpt><trkpt lat="38.46471231116703" lon="16.265996489845218"><ele>1062.0</ele><time>2026-04-11T12:41:11.001Z</time></trkpt><trkpt lat="38.46486978178636" lon="16.265875177598534"><ele>1062.0</ele><time>2026-04-11T12:41:12.001Z</time></trkpt><trkpt lat="38.464995179967964" lon="16.265770037731244"><ele>1062.0</ele><time>2026-04-11T12:41:13.001Z</time></trkpt><trkpt lat="38.465099146955566" lon="16.265678800929724"><ele>1060.75</ele><time>2026-04-11T12:41:14.001Z</time></trkpt><trkpt lat="38.465220102390596" lon="16.265590810202838"><ele>1059.5</ele><time>2026-04-11T12:41:15.001Z</time></trkpt><trkpt lat="38.46532550533618" lon="16.26547427493876"><ele>1058.25</ele><time>2026-04-11T12:41:16.001Z</time></trkpt><trkpt lat="38.46544936674253" lon="16.2653658388935"><ele>1057.0</ele><time>2026-04-11T12:41:17.001Z</time></trkpt><trkpt lat="38.46557747794116" lon="16.265272664380905"><ele>1059.8</ele><time>2026-04-11T12:41:18.001Z</time></trkpt><trkpt lat="38.46567889788755" lon="16.265216110040033"><ele>1062.6</ele><time>2026-04-11T12:41:19.001Z</time></trkpt><trkpt lat="38.4657697639572" lon="16.265187877116333"><ele>1065.3999999999999</ele><time>2026-04-11T12:41:20.001Z</time></trkpt><trkpt lat="38.465849648849314" lon="16.265174953343198"><ele>1068.2</ele><time>2026-04-11T12:41:21.001Z</time></trkpt><trkpt lat="38.46594374095404" lon="16.265170656965733"><ele>1071.0</ele><time>2026-04-11T12:41:22.001Z</time></trkpt><trkpt lat="38.466084490210456" lon="16.265189040733258"><ele>1071.0</ele><time>2026-04-11T12:41:24.001Z</time></trkpt><trkpt lat="38.46621898423049" lon="16.265152092061076"><ele>1071.0</ele><time>2026-04-11T12:41:26.001Z</time></trkpt><trkpt lat="38.466280535802944" lon="16.265133932851423"><ele>1071.0</ele><time>2026-04-11T12:41:27.001Z</time></trkpt><trkpt lat="38.46633871302661" lon="16.26508463780544"><ele>1071.0</ele><time>2026-04-11T12:41:28.001Z</time></trkpt><trkpt lat="38.4664072303819" lon="16.265047317843646"><ele>1071.0</ele><time>2026-04-11T12:41:29.001Z</time></trkpt><trkpt lat="38.466484143795064" lon="16.26498563359979"><ele>1071.0</ele><time>2026-04-11T12:41:31.001Z</time></trkpt><trkpt lat="38.46661476684885" lon="16.2649329336472"><ele>1071.6</ele><time>2026-04-11T12:41:33.001Z</time></trkpt><trkpt lat="38.46670063319422" lon="16.2648812033368"><ele>1072.1999999999998</ele><time>2026-04-11T12:41:34.001Z</time></trkpt><trkpt lat="38.46680073499004" lon="16.264860911330494"><ele>1072.8000000000002</ele><time>2026-04-11T12:41:35.001Z</time></trkpt><trkpt lat="38.46690618120154" lon="16.26479986952559"><ele>1073.4</ele><time>2026-04-11T12:41:36.001Z</time></trkpt><trkpt lat="38.46702208599791" lon="16.264759025425477"><ele>1074.0</ele><time>2026-04-11T12:41:37.001Z</time></trkpt><trkpt lat="38.4671341677479" lon="16.264690353127417"><ele>1074.0</ele><time>2026-04-11T12:41:38.001Z</time></trkpt><trkpt lat="38.46726318327139" lon="16.26461029280879"><ele>1074.0</ele><time>2026-04-11T12:41:39.001Z</time></trkpt><trkpt lat="38.467395799172024" lon="16.26455526836151"><ele>1074.0</ele><time>2026-04-11T12:41:40.001Z</time></trkpt><trkpt lat="38.46751039253893" lon="16.264502226558694"><ele>1074.0</ele><time>2026-04-11T12:41:41.001Z</time></trkpt><trkpt lat="38.467629157622255" lon="16.264423141659968"><ele>1074.0</ele><time>2026-04-11T12:41:42.001Z</time></trkpt><trkpt lat="38.46773640992933" lon="16.26436463749633"><ele>1074.0</ele><time>2026-04-11T12:41:43.001Z</time></trkpt><trkpt lat="38.46784854815549" lon="16.264320932066372"><ele>1074.0</ele><time>2026-04-11T12:41:44.001Z</time></trkpt><trkpt lat="38.46794984225489" lon="16.264276755543253"><ele>1074.0</ele><time>2026-04-11T12:41:45.001Z</time></trkpt><trkpt lat="38.46803166734288" lon="16.26425246684914"><ele>1074.0</ele><time>2026-04-11T12:41:46.001Z</time></trkpt><trkpt lat="38.46813405221992" lon="16.26421607421336"><ele>1075.2</ele><time>2026-04-11T12:41:47.001Z</time></trkpt><trkpt lat="38.46822066394299" lon="16.264186937410617"><ele>1076.4</ele><time>2026-04-11T12:41:48.001Z</time></trkpt><trkpt lat="38.46830675496593" lon="16.264158566872368"><ele>1077.6</ele><time>2026-04-11T12:41:49.001Z</time></trkpt><trkpt lat="38.46840167695812" lon="16.264077364894263"><ele>1078.8</ele><time>2026-04-11T12:41:50.001Z</time></trkpt><trkpt lat="38.468461034793776" lon="16.26400831269729"><ele>1080.0</ele><time>2026-04-11T12:41:52.001Z</time></trkpt><trkpt lat="38.468552546980824" lon="16.263949686103413"><ele>1081.0</ele><time>2026-04-11T12:41:53.001Z</time></trkpt><trkpt lat="38.468633581327005" lon="16.263881280013347"><ele>1082.0</ele><time>2026-04-11T12:41:54.001Z</time></trkpt><trkpt lat="38.46873557205315" lon="16.263844957154785"><ele>1083.0</ele><time>2026-04-11T12:41:55.001Z</time></trkpt><trkpt lat="38.468843581993546" lon="16.263771242723987"><ele>1084.0</ele><time>2026-04-11T12:41:56.001Z</time></trkpt><trkpt lat="38.468900888295735" lon="16.26370194996644"><ele>1085.0</ele><time>2026-04-11T12:41:57.001Z</time></trkpt><trkpt lat="38.46900080039502" lon="16.263631983932207"><ele>1085.0</ele><time>2026-04-11T12:41:58.001Z</time></trkpt><trkpt lat="38.46909585607007" lon="16.263569633308492"><ele>1085.0</ele><time>2026-04-11T12:41:59.001Z</time></trkpt><trkpt lat="38.46919680662949" lon="16.263534476582816"><ele>1085.0</ele><time>2026-04-11T12:42:00.001Z</time></trkpt><trkpt lat="38.46932232523593" lon="16.263486511059533"><ele>1085.0</ele><time>2026-04-11T12:42:01.001Z</time></trkpt><trkpt lat="38.46942051065811" lon="16.26338313284187"><ele>1085.0</ele><time>2026-04-11T12:42:02.001Z</time></trkpt><trkpt lat="38.46947183230982" lon="16.263318314487513"><ele>1085.0</ele><time>2026-04-11T12:42:03.001Z</time></trkpt><trkpt lat="38.46953223800601" lon="16.263267122184693"><ele>1085.0</ele><time>2026-04-11T12:42:04.001Z</time></trkpt><trkpt lat="38.469607327702086" lon="16.263192575632953"><ele>1085.0</ele><time>2026-04-11T12:42:05.001Z</time></trkpt><trkpt lat="38.46969332134014" lon="16.263128876766597"><ele>1085.0</ele><time>2026-04-11T12:42:06.001Z</time></trkpt><trkpt lat="38.46983556823202" lon="16.263045954168373"><ele>1085.25</ele><time>2026-04-11T12:42:07.001Z</time></trkpt><trkpt lat="38.469978661062484" lon="16.262930915209957"><ele>1085.5</ele><time>2026-04-11T12:42:08.001Z</time></trkpt><trkpt lat="38.4701234070925" lon="16.262832303407052"><ele>1085.75</ele><time>2026-04-11T12:42:09.001Z</time></trkpt><trkpt lat="38.47022193592405" lon="16.262764106869344"><ele>1086.0</ele><time>2026-04-11T12:42:10.001Z</time></trkpt><trkpt lat="38.470313939086424" lon="16.262688825377126"><ele>1086.0</ele><time>2026-04-11T12:42:11.001Z</time></trkpt><trkpt lat="38.470399873287874" lon="16.262591347366687"><ele>1086.0</ele><time>2026-04-11T12:42:12.001Z</time></trkpt><trkpt lat="38.47048426894477" lon="16.262533203409895"><ele>1086.0</ele><time>2026-04-11T12:42:13.001Z</time></trkpt><trkpt lat="38.47058649013196" lon="16.262398136245857"><ele>1086.0</ele><time>2026-04-11T12:42:14.001Z</time></trkpt><trkpt lat="38.47066106533963" lon="16.262285327494315"><ele>1089.0</ele><time>2026-04-11T12:42:15.001Z</time></trkpt><trkpt lat="38.47074883910912" lon="16.262123818622015"><ele>1092.0</ele><time>2026-04-11T12:42:16.001Z</time></trkpt><trkpt lat="38.470860303489154" lon="16.261950590812354"><ele>1095.0</ele><time>2026-04-11T12:42:17.001Z</time></trkpt><trkpt lat="38.47096758503352" lon="16.26179471423318"><ele>1095.0</ele><time>2026-04-11T12:42:18.001Z</time></trkpt><trkpt lat="38.47107799759463" lon="16.26164173737453"><ele>1095.0</ele><time>2026-04-11T12:42:19.001Z</time></trkpt><trkpt lat="38.471170305072626" lon="16.2614805022887"><ele>1095.0</ele><time>2026-04-11T12:42:20.001Z</time></trkpt><trkpt lat="38.471281644834036" lon="16.261327851203927"><ele>1096.5</ele><time>2026-04-11T12:42:21.001Z</time></trkpt><trkpt lat="38.4713841652257" lon="16.261179698797417"><ele>1098.0</ele><time>2026-04-11T12:42:22.001Z</time></trkpt><trkpt lat="38.47145640701477" lon="16.261087374975205"><ele>1099.5</ele><time>2026-04-11T12:42:23.001Z</time></trkpt><trkpt lat="38.47156382380588" lon="16.261014998941157"><ele>1101.0</ele><time>2026-04-11T12:42:24.001Z</time></trkpt><trkpt lat="38.471688650531895" lon="16.260901692986444"><ele>1101.0</ele><time>2026-04-11T12:42:25.001Z</time></trkpt><trkpt lat="38.471805683650615" lon="16.260819989442304"><ele>1101.0</ele><time>2026-04-11T12:42:26.001Z</time></trkpt><trkpt lat="38.47192672942123" lon="16.260791340991638"><ele>1101.0</ele><time>2026-04-11T12:42:27.002Z</time></trkpt><trkpt lat="38.47204923272432" lon="16.26073038278838"><ele>1101.0</ele><time>2026-04-11T12:42:28.002Z</time></trkpt><trkpt lat="38.47216691640965" lon="16.26067944504497"><ele>1100.8</ele><time>2026-04-11T12:42:29.002Z</time></trkpt><trkpt lat="38.4722763325305" lon="16.26061004897223"><ele>1100.6</ele><time>2026-04-11T12:42:30.002Z</time></trkpt><trkpt lat="38.47236403940132" lon="16.260581722744945"><ele>1100.4</ele><time>2026-04-11T12:42:31.002Z</time></trkpt><trkpt lat="38.47247065183658" lon="16.260563909072268"><ele>1100.2</ele><time>2026-04-11T12:42:32.002Z</time></trkpt><trkpt lat="38.472543499713744" lon="16.260523183717915"><ele>1100.0</ele><time>2026-04-11T12:42:33.002Z</time></trkpt><trkpt lat="38.47267534609599" lon="16.26044540250392"><ele>1100.0</ele><time>2026-04-11T12:42:35.002Z</time></trkpt><trkpt lat="38.472736527727776" lon="16.260412854663905"><ele>1100.0</ele><time>2026-04-11T12:42:36.002Z</time></trkpt><trkpt lat="38.4728408536987" lon="16.260375603169233"><ele>1100.0</ele><time>2026-04-11T12:42:38.002Z</time></trkpt><trkpt lat="38.47295199159603" lon="16.260321496441797"><ele>1100.0</ele><time>2026-04-11T12:42:40.002Z</time></trkpt><trkpt lat="38.47302559973953" lon="16.26025343938312"><ele>1100.0</ele><time>2026-04-11T12:42:42.002Z</time></trkpt><trkpt lat="38.473100252187926" lon="16.26022903489757"><ele>1101.6666666666667</ele><time>2026-04-11T12:42:43.002Z</time></trkpt><trkpt lat="38.473169278915734" lon="16.26017416095905"><ele>1103.3333333333335</ele><time>2026-04-11T12:42:44.002Z</time></trkpt><trkpt lat="38.473245246605345" lon="16.26013748181472"><ele>1105.0</ele><time>2026-04-11T12:42:45.002Z</time></trkpt><trkpt lat="38.473319818990646" lon="16.260084132483282"><ele>1106.6666666666667</ele><time>2026-04-11T12:42:46.002Z</time></trkpt><trkpt lat="38.47340501980686" lon="16.26003324593584"><ele>1108.3333333333333</ele><time>2026-04-11T12:42:47.002Z</time></trkpt><trkpt lat="38.47348802680812" lon="16.25998010376053"><ele>1110.0</ele><time>2026-04-11T12:42:48.002Z</time></trkpt><trkpt lat="38.47358623341324" lon="16.259915498536596"><ele>1110.0</ele><time>2026-04-11T12:42:49.002Z</time></trkpt><trkpt lat="38.47375285585253" lon="16.25983585311317"><ele>1110.0</ele><time>2026-04-11T12:42:50.002Z</time></trkpt><trkpt lat="38.47389528080038" lon="16.25976976553146"><ele>1110.0</ele><time>2026-04-11T12:42:51.002Z</time></trkpt><trkpt lat="38.47404280689386" lon="16.259695730301342"><ele>1108.0</ele><time>2026-04-11T12:42:52.002Z</time></trkpt><trkpt lat="38.47421510214404" lon="16.25965372265386"><ele>1106.0</ele><time>2026-04-11T12:42:53.002Z</time></trkpt><trkpt lat="38.47437903310338" lon="16.25960898001736"><ele>1104.0</ele><time>2026-04-11T12:42:54.002Z</time></trkpt><trkpt lat="38.474495037488374" lon="16.259590814458857"><ele>1104.0</ele><time>2026-04-11T12:42:55.002Z</time></trkpt><trkpt lat="38.47458826321725" lon="16.25954328191423"><ele>1104.0</ele><time>2026-04-11T12:42:56.002Z</time></trkpt><trkpt lat="38.47467816080859" lon="16.259537430415506"><ele>1104.0</ele><time>2026-04-11T12:42:57.002Z</time></trkpt><trkpt lat="38.47476336761523" lon="16.259525277134472"><ele>1104.0</ele><time>2026-04-11T12:42:58.002Z</time></trkpt><trkpt lat="38.47483651867835" lon="16.25950995189459"><ele>1104.0</ele><time>2026-04-11T12:42:59Z</time></trkpt><trkpt lat="38.47495464054178" lon="16.25948878622178"><ele>1106.0</ele><time>2026-04-11T12:43:00Z</time></trkpt><trkpt lat="38.47509234972684" lon="16.25944713443822"><ele>1108.0</ele><time>2026-04-11T12:43:01Z</time></trkpt><trkpt lat="38.47522953120039" lon="16.259375889799735"><ele>1110.0</ele><time>2026-04-11T12:43:02Z</time></trkpt><trkpt lat="38.47539876536876" lon="16.25932412573758"><ele>1111.0</ele><time>2026-04-11T12:43:03Z</time></trkpt><trkpt lat="38.47555475334618" lon="16.259282644451226"><ele>1112.0</ele><time>2026-04-11T12:43:04Z</time></trkpt><trkpt lat="38.47572027746734" lon="16.259227374331928"><ele>1113.0</ele><time>2026-04-11T12:43:05Z</time></trkpt><trkpt lat="38.47588433620799" lon="16.25916808135582"><ele>1113.0</ele><time>2026-04-11T12:43:06Z</time></trkpt><trkpt lat="38.4760255173764" lon="16.259111010338575"><ele>1113.0</ele><time>2026-04-11T12:43:07Z</time></trkpt><trkpt lat="38.476160558669896" lon="16.25905814784438"><ele>1113.0</ele><time>2026-04-11T12:43:08Z</time></trkpt><trkpt lat="38.47627791654906" lon="16.259026423904974"><ele>1113.0</ele><time>2026-04-11T12:43:09Z</time></trkpt><trkpt lat="38.47640996870618" lon="16.25897097633615"><ele>1110.6666666666667</ele><time>2026-04-11T12:43:10Z</time></trkpt><trkpt lat="38.47656618730563" lon="16.25889130407395"><ele>1108.3333333333335</ele><time>2026-04-11T12:43:11Z</time></trkpt><trkpt lat="38.47675776488275" lon="16.258836813551117"><ele>1106.0</ele><time>2026-04-11T12:43:12Z</time></trkpt><trkpt lat="38.476912918379064" lon="16.258775584797437"><ele>1106.0</ele><time>2026-04-11T12:43:13Z</time></trkpt><trkpt lat="38.47705012373283" lon="16.2587260480803"><ele>1106.0</ele><time>2026-04-11T12:43:14Z</time></trkpt><trkpt lat="38.477181102739905" lon="16.258651728618577"><ele>1106.0</ele><time>2026-04-11T12:43:15Z</time></trkpt><trkpt lat="38.47730845763022" lon="16.258595134825104"><ele>1106.0</ele><time>2026-04-11T12:43:16Z</time></trkpt><trkpt lat="38.4774136888438" lon="16.258540544569726"><ele>1107.3999999999999</ele><time>2026-04-11T12:43:17Z</time></trkpt><trkpt lat="38.47750979456082" lon="16.258526402614883"><ele>1108.8</ele><time>2026-04-11T12:43:18Z</time></trkpt><trkpt lat="38.47765494145693" lon="16.25849852221781"><ele>1110.1999999999998</ele><time>2026-04-11T12:43:19Z</time></trkpt><trkpt lat="38.47777588131447" lon="16.258459882474636"><ele>1111.6</ele><time>2026-04-11T12:43:20Z</time></trkpt><trkpt lat="38.47782608315563" lon="16.258389604334017"><ele>1113.0</ele><time>2026-04-11T12:43:21Z</time></trkpt><trkpt lat="38.47792013492287" lon="16.258337372034543"><ele>1114.0</ele><time>2026-04-11T12:43:22Z</time></trkpt><trkpt lat="38.478039655684455" lon="16.25828408018607"><ele>1115.0</ele><time>2026-04-11T12:43:23Z</time></trkpt><trkpt lat="38.478093345339" lon="16.25823817539906"><ele>1116.0</ele><time>2026-04-11T12:43:24Z</time></trkpt><trkpt lat="38.47815416169718" lon="16.258185321704236"><ele>1117.0</ele><time>2026-04-11T12:43:25Z</time></trkpt><trkpt lat="38.47824650653433" lon="16.258131300219567"><ele>1118.0</ele><time>2026-04-11T12:43:26Z</time></trkpt><trkpt lat="38.478386045843045" lon="16.258024460135925"><ele>1118.25</ele><time>2026-04-11T12:43:27Z</time></trkpt><trkpt lat="38.47850662671973" lon="16.257915819603053"><ele>1118.5</ele><time>2026-04-11T12:43:28.001Z</time></trkpt><trkpt lat="38.478609023476324" lon="16.25779137277717"><ele>1118.75</ele><time>2026-04-11T12:43:29.001Z</time></trkpt><trkpt lat="38.478711637046224" lon="16.257696160800972"><ele>1119.0</ele><time>2026-04-11T12:43:30.001Z</time></trkpt><trkpt lat="38.47882991063952" lon="16.257621360947564"><ele>1119.5</ele><time>2026-04-11T12:43:31.001Z</time></trkpt><trkpt lat="38.47892077773175" lon="16.257548035073402"><ele>1120.0</ele><time>2026-04-11T12:43:32.001Z</time></trkpt><trkpt lat="38.478979837953894" lon="16.25743249692466"><ele>1120.5</ele><time>2026-04-11T12:43:33.001Z</time></trkpt><trkpt lat="38.479073639890494" lon="16.257311284667406"><ele>1121.0</ele><time>2026-04-11T12:43:34.001Z</time></trkpt><trkpt lat="38.47916933093343" lon="16.257182579171243"><ele>1121.0</ele><time>2026-04-11T12:43:35.001Z</time></trkpt><trkpt lat="38.479292671449834" lon="16.257042773920823"><ele>1121.0</ele><time>2026-04-11T12:43:36.001Z</time></trkpt><trkpt lat="38.47941466245725" lon="16.25690829883147"><ele>1121.0</ele><time>2026-04-11T12:43:37.001Z</time></trkpt><trkpt lat="38.479514625899796" lon="16.2567579407759"><ele>1121.3333333333335</ele><time>2026-04-11T12:43:38.001Z</time></trkpt><trkpt lat="38.47966893338701" lon="16.256578574246316"><ele>1121.6666666666667</ele><time>2026-04-11T12:43:39.001Z</time></trkpt><trkpt lat="38.47982164974884" lon="16.256391149092345"><ele>1122.0</ele><time>2026-04-11T12:43:40.001Z</time></trkpt><trkpt lat="38.479968612811206" lon="16.256203796862597"><ele>1122.0</ele><time>2026-04-11T12:43:41.001Z</time></trkpt><trkpt lat="38.4800938533484" lon="16.25605918385059"><ele>1122.0</ele><time>2026-04-11T12:43:42.001Z</time></trkpt><trkpt lat="38.480208626058605" lon="16.25592964132852"><ele>1122.0</ele><time>2026-04-11T12:43:43.001Z</time></trkpt><trkpt lat="38.48030317635113" lon="16.25582523273411"><ele>1122.0</ele><time>2026-04-11T12:43:44.001Z</time></trkpt><trkpt lat="38.48037888495216" lon="16.255760997565734"><ele>1122.0</ele><time>2026-04-11T12:43:45.001Z</time></trkpt><trkpt lat="38.480461432887665" lon="16.255700861587435"><ele>1122.0</ele><time>2026-04-11T12:43:47.001Z</time></trkpt><trkpt lat="38.48052037477291" lon="16.25566853797093"><ele>1122.0</ele><time>2026-04-11T12:46:06.001Z</time></trkpt><trkpt lat="38.480486643273856" lon="16.255743280904685"><ele>1122.0</ele><time>2026-04-11T12:46:12.001Z</time></trkpt><trkpt lat="38.48040541111428" lon="16.255825102352308"><ele>1122.0</ele><time>2026-04-11T12:46:13.001Z</time></trkpt><trkpt lat="38.480311969719715" lon="16.255890818374038"><ele>1122.0</ele><time>2026-04-11T12:46:14.001Z</time></trkpt><trkpt lat="38.4802122249928" lon="16.255997517580216"><ele>1122.0</ele><time>2026-04-11T12:46:15.001Z</time></trkpt><trkpt lat="38.48010178492198" lon="16.25613954661754"><ele>1122.0</ele><time>2026-04-11T12:46:16.001Z</time></trkpt><trkpt lat="38.47994644141466" lon="16.256284123396764"><ele>1122.0</ele><time>2026-04-11T12:46:17.001Z</time></trkpt><trkpt lat="38.47983268093682" lon="16.256436875326738"><ele>1121.75</ele><time>2026-04-11T12:46:18.001Z</time></trkpt><trkpt lat="38.47971021921279" lon="16.25657804714381"><ele>1121.5</ele><time>2026-04-11T12:46:19.001Z</time></trkpt><trkpt lat="38.479631228880564" lon="16.256661026977095"><ele>1121.25</ele><time>2026-04-11T12:46:20.001Z</time></trkpt><trkpt lat="38.479491068088166" lon="16.256793017624517"><ele>1121.0</ele><time>2026-04-11T12:46:21.001Z</time></trkpt><trkpt lat="38.479392430967714" lon="16.256917865132916"><ele>1121.0</ele><time>2026-04-11T12:46:22.001Z</time></trkpt><trkpt lat="38.47928960439453" lon="16.257046593111152"><ele>1121.0</ele><time>2026-04-11T12:46:23.001Z</time></trkpt><trkpt lat="38.47918938117346" lon="16.257165118156653"><ele>1121.0</ele><time>2026-04-11T12:46:24.001Z</time></trkpt><trkpt lat="38.479107568916504" lon="16.2572927984355"><ele>1121.0</ele><time>2026-04-11T12:46:25.001Z</time></trkpt><trkpt lat="38.479019204312856" lon="16.25738833411468"><ele>1121.25</ele><time>2026-04-11T12:46:26.001Z</time></trkpt><trkpt lat="38.478935368339364" lon="16.257474124119977"><ele>1121.5</ele><time>2026-04-11T12:46:27.001Z</time></trkpt><trkpt lat="38.47886081655315" lon="16.257578936035195"><ele>1121.75</ele><time>2026-04-11T12:46:28.001Z</time></trkpt><trkpt lat="38.47879212685506" lon="16.257656069819884"><ele>1122.0</ele><time>2026-04-11T12:46:29.001Z</time></trkpt><trkpt lat="38.47869229330775" lon="16.257795592067794"><ele>1121.4</ele><time>2026-04-11T12:46:30.001Z</time></trkpt><trkpt lat="38.47859309512516" lon="16.257832987575814"><ele>1120.8000000000002</ele><time>2026-04-11T12:46:31.001Z</time></trkpt><trkpt lat="38.47851316992135" lon="16.257866155169012"><ele>1120.2</ele><time>2026-04-11T12:46:32.001Z</time></trkpt><trkpt lat="38.47842563935751" lon="16.257931298217727"><ele>1119.6000000000001</ele><time>2026-04-11T12:46:33.001Z</time></trkpt><trkpt lat="38.47833511636179" lon="16.258018845593188"><ele>1119.0</ele><time>2026-04-11T12:46:34.001Z</time></trkpt><trkpt lat="38.47824851274996" lon="16.25809470210436"><ele>1118.8</ele><time>2026-04-11T12:46:35.001Z</time></trkpt><trkpt lat="38.4781720759741" lon="16.258154172248823"><ele>1118.6000000000001</ele><time>2026-04-11T12:46:36.001Z</time></trkpt><trkpt lat="38.478110179215605" lon="16.258205647454435"><ele>1118.4</ele><time>2026-04-11T12:46:37.001Z</time></trkpt><trkpt lat="38.4779724161286" lon="16.25829507371211"><ele>1118.2</ele><time>2026-04-11T12:46:39.001Z</time></trkpt><trkpt lat="38.47789084018318" lon="16.258354548459145"><ele>1118.0</ele><time>2026-04-11T12:46:40.001Z</time></trkpt><trkpt lat="38.47782826631458" lon="16.258392973626243"><ele>1117.0</ele><time>2026-04-11T12:46:41.001Z</time></trkpt><trkpt lat="38.47775033288863" lon="16.258454902480068"><ele>1116.0</ele><time>2026-04-11T12:46:42.001Z</time></trkpt><trkpt lat="38.47764886438726" lon="16.258496739280663"><ele>1115.0</ele><time>2026-04-11T12:46:44.001Z</time></trkpt><trkpt lat="38.477577388436345" lon="16.25852571532352"><ele>1114.0</ele><time>2026-04-11T12:46:45.001Z</time></trkpt><trkpt lat="38.47746980414822" lon="16.258526433890314"><ele>1113.0</ele><time>2026-04-11T12:46:47.001Z</time></trkpt><trkpt lat="38.477373771927525" lon="16.25855655298735"><ele>1113.0</ele><time>2026-04-11T12:46:49.001Z</time></trkpt><trkpt lat="38.47733308466429" lon="16.25862021271428"><ele>1113.0</ele><time>2026-04-11T12:47:17.001Z</time></trkpt><trkpt lat="38.47725064859339" lon="16.258660974305595"><ele>1113.0</ele><time>2026-04-11T12:47:19.001Z</time></trkpt><trkpt lat="38.47716913548613" lon="16.258687214442837"><ele>1113.0</ele><time>2026-04-11T12:47:20.001Z</time></trkpt><trkpt lat="38.477081959687794" lon="16.258714057400066"><ele>1113.0</ele><time>2026-04-11T12:47:21.001Z</time></trkpt><trkpt lat="38.47697444397535" lon="16.258750953504993"><ele>1113.0</ele><time>2026-04-11T12:47:22.001Z</time></trkpt><trkpt lat="38.47681867809046" lon="16.258828225350367"><ele>1113.75</ele><time>2026-04-11T12:47:23.001Z</time></trkpt><trkpt lat="38.47668775651149" lon="16.258875317082175"><ele>1114.5</ele><time>2026-04-11T12:47:24.001Z</time></trkpt><trkpt lat="38.47654389922301" lon="16.258938481665194"><ele>1115.25</ele><time>2026-04-11T12:47:25.001Z</time></trkpt><trkpt lat="38.47639958910129" lon="16.25899115163715"><ele>1116.0</ele><time>2026-04-11T12:47:26.001Z</time></trkpt><trkpt lat="38.47627588170141" lon="16.25902948772677"><ele>1115.25</ele><time>2026-04-11T12:47:27.001Z</time></trkpt><trkpt lat="38.47614922588017" lon="16.25908832951119"><ele>1114.5</ele><time>2026-04-11T12:47:28.001Z</time></trkpt><trkpt lat="38.47601981802498" lon="16.25914356200966"><ele>1113.75</ele><time>2026-04-11T12:47:29.001Z</time></trkpt><trkpt lat="38.47589986326582" lon="16.259190925583788"><ele>1113.0</ele><time>2026-04-11T12:47:30.001Z</time></trkpt><trkpt lat="38.475752469165315" lon="16.25924063810635"><ele>1113.0</ele><time>2026-04-11T12:47:31Z</time></trkpt><trkpt lat="38.47560900951829" lon="16.259287086757162"><ele>1113.0</ele><time>2026-04-11T12:47:32Z</time></trkpt><trkpt lat="38.475442549173756" lon="16.25935757868581"><ele>1113.0</ele><time>2026-04-11T12:47:33Z</time></trkpt><trkpt lat="38.4752740775827" lon="16.259390226928897"><ele>1112.25</ele><time>2026-04-11T12:47:34Z</time></trkpt><trkpt lat="38.475120080497526" lon="16.259432199726422"><ele>1111.5</ele><time>2026-04-11T12:47:35Z</time></trkpt><trkpt lat="38.474978964275174" lon="16.25945649127428"><ele>1110.75</ele><time>2026-04-11T12:47:36Z</time></trkpt><trkpt lat="38.47486878470828" lon="16.259497230108032"><ele>1110.0</ele><time>2026-04-11T12:47:37Z</time></trkpt><trkpt lat="38.474767143700156" lon="16.259530860366084"><ele>1110.0</ele><time>2026-04-11T12:47:38Z</time></trkpt><trkpt lat="38.47468235754416" lon="16.25957887370149"><ele>1110.0</ele><time>2026-04-11T12:47:39Z</time></trkpt><trkpt lat="38.47461154211061" lon="16.259605790275682"><ele>1110.0</ele><time>2026-04-11T12:47:40Z</time></trkpt><trkpt lat="38.47449875206776" lon="16.259583299251478"><ele>1110.0</ele><time>2026-04-11T12:47:41Z</time></trkpt><trkpt lat="38.4744058519186" lon="16.259609293411703"><ele>1110.0</ele><time>2026-04-11T12:47:42.001Z</time></trkpt><trkpt lat="38.474295439925584" lon="16.259641756195368"><ele>1110.0</ele><time>2026-04-11T12:47:43.001Z</time></trkpt><trkpt lat="38.47417576664815" lon="16.259685114276564"><ele>1110.0</ele><time>2026-04-11T12:47:44.001Z</time></trkpt><trkpt lat="38.473979698702266" lon="16.25971953564918"><ele>1110.0</ele><time>2026-04-11T12:47:45.001Z</time></trkpt><trkpt lat="38.47386285436707" lon="16.25980291162648"><ele>1110.0</ele><time>2026-04-11T12:47:46.001Z</time></trkpt><trkpt lat="38.473735245456396" lon="16.259859534298464"><ele>1110.0</ele><time>2026-04-11T12:47:47.001Z</time></trkpt><trkpt lat="38.473591749940155" lon="16.25995361259808"><ele>1110.0</ele><time>2026-04-11T12:47:48.001Z</time></trkpt><trkpt lat="38.47347628877952" lon="16.26001113205454"><ele>1110.0</ele><time>2026-04-11T12:47:49.001Z</time></trkpt><trkpt lat="38.4734201297838" lon="16.260070068649014"><ele>1110.0</ele><time>2026-04-11T12:47:50.001Z</time></trkpt><trkpt lat="38.47335590832244" lon="16.260059648475284"><ele>1110.0</ele><time>2026-04-11T12:47:52.001Z</time></trkpt><trkpt lat="38.473284113061474" lon="16.260145167814493"><ele>1110.0</ele><time>2026-04-11T12:47:54.001Z</time></trkpt><trkpt lat="38.473219680211066" lon="16.26020218360077"><ele>1110.0</ele><time>2026-04-11T12:47:55.001Z</time></trkpt><trkpt lat="38.47316296862569" lon="16.260247707185908"><ele>1110.0</ele><time>2026-04-11T12:47:56.001Z</time></trkpt><trkpt lat="38.47307086718047" lon="16.26028119961845"><ele>1110.0</ele><time>2026-04-11T12:47:57.001Z</time></trkpt><trkpt lat="38.47300429038849" lon="16.26032176564588"><ele>1108.0</ele><time>2026-04-11T12:47:58.001Z</time></trkpt><trkpt lat="38.47292964217534" lon="16.260356294330702"><ele>1106.0</ele><time>2026-04-11T12:48:00.001Z</time></trkpt><trkpt lat="38.472843717512134" lon="16.26041195930453"><ele>1104.0</ele><time>2026-04-11T12:48:02.001Z</time></trkpt><trkpt lat="38.47272778118449" lon="16.260445271035657"><ele>1102.0</ele><time>2026-04-11T12:48:04.001Z</time></trkpt><trkpt lat="38.47261362899212" lon="16.260534471397232"><ele>1100.0</ele><time>2026-04-11T12:48:06.001Z</time></trkpt><trkpt lat="38.472540419772066" lon="16.26055643613138"><ele>1100.0</ele><time>2026-04-11T12:48:07.001Z</time></trkpt><trkpt lat="38.47248145017428" lon="16.260601066410366"><ele>1100.0</ele><time>2026-04-11T12:48:08.001Z</time></trkpt><trkpt lat="38.47240544782334" lon="16.2606213481263"><ele>1100.0</ele><time>2026-04-11T12:48:09.001Z</time></trkpt><trkpt lat="38.47230638846559" lon="16.260663498236603"><ele>1100.0</ele><time>2026-04-11T12:48:10.001Z</time></trkpt><trkpt lat="38.4722124229722" lon="16.26070502374433"><ele>1100.0</ele><time>2026-04-11T12:48:11.001Z</time></trkpt><trkpt lat="38.47211687382421" lon="16.260754923388845"><ele>1100.25</ele><time>2026-04-11T12:48:12.001Z</time></trkpt><trkpt lat="38.47199530819136" lon="16.26078661838871"><ele>1100.5</ele><time>2026-04-11T12:48:13.001Z</time></trkpt><trkpt lat="38.471877181875875" lon="16.260847305780143"><ele>1100.75</ele><time>2026-04-11T12:48:14.001Z</time></trkpt><trkpt lat="38.47178694552361" lon="16.2609074772962"><ele>1101.0</ele><time>2026-04-11T12:48:15.001Z</time></trkpt><trkpt lat="38.471697367027716" lon="16.260961794007073"><ele>1101.0</ele><time>2026-04-11T12:48:16.001Z</time></trkpt><trkpt lat="38.47160263963075" lon="16.261025181586305"><ele>1101.0</ele><time>2026-04-11T12:48:17.001Z</time></trkpt><trkpt lat="38.471562213169456" lon="16.261094281953394"><ele>1101.0</ele><time>2026-04-11T12:48:18.001Z</time></trkpt><trkpt lat="38.47150001109848" lon="16.261151242532456"><ele>1101.0</ele><time>2026-04-11T12:48:19.001Z</time></trkpt><trkpt lat="38.47140560141531" lon="16.26126336362496"><ele>1101.0</ele><time>2026-04-11T12:48:20.001Z</time></trkpt><trkpt lat="38.47135110217561" lon="16.261345487341977"><ele>1101.0</ele><time>2026-04-11T12:48:21.001Z</time></trkpt><trkpt lat="38.471295517264195" lon="16.261440776709737"><ele>1101.0</ele><time>2026-04-11T12:48:22.001Z</time></trkpt><trkpt lat="38.47122424531772" lon="16.26153683568469"><ele>1101.0</ele><time>2026-04-11T12:48:23.001Z</time></trkpt><trkpt lat="38.47114304840478" lon="16.261664229724502"><ele>1101.0</ele><time>2026-04-11T12:48:24.001Z</time></trkpt><trkpt lat="38.471074188117704" lon="16.2617851132266"><ele>1101.0</ele><time>2026-04-11T12:48:25.001Z</time></trkpt><trkpt lat="38.47100332189079" lon="16.26187931878291"><ele>1099.8</ele><time>2026-04-11T12:48:26.001Z</time></trkpt><trkpt lat="38.47092560455779" lon="16.261990597910565"><ele>1098.6</ele><time>2026-04-11T12:48:27.001Z</time></trkpt><trkpt lat="38.47085317678198" lon="16.262097664434023"><ele>1097.4</ele><time>2026-04-11T12:48:28.001Z</time></trkpt><trkpt lat="38.47077994338399" lon="16.262189921992718"><ele>1096.2</ele><time>2026-04-11T12:48:29.001Z</time></trkpt><trkpt lat="38.47073350397489" lon="16.262292571685617"><ele>1095.0</ele><time>2026-04-11T12:48:30.001Z</time></trkpt><trkpt lat="38.47066852466599" lon="16.26239977246527"><ele>1094.8333333333333</ele><time>2026-04-11T12:48:31.001Z</time></trkpt><trkpt lat="38.47061757116545" lon="16.262472116796626"><ele>1094.6666666666667</ele><time>2026-04-11T12:48:32.001Z</time></trkpt><trkpt lat="38.4705350763329" lon="16.262541828414378"><ele>1094.5</ele><time>2026-04-11T12:48:33.001Z</time></trkpt><trkpt lat="38.47046682067396" lon="16.262611945392127"><ele>1094.3333333333335</ele><time>2026-04-11T12:48:34.001Z</time></trkpt><trkpt lat="38.4703946797999" lon="16.262670589383546"><ele>1094.1666666666667</ele><time>2026-04-11T12:48:35.001Z</time></trkpt><trkpt lat="38.470319312088485" lon="16.26273370542582"><ele>1094.0</ele><time>2026-04-11T12:48:36.001Z</time></trkpt><trkpt lat="38.47022984186686" lon="16.26281060226992"><ele>1092.0</ele><time>2026-04-11T12:48:37.001Z</time></trkpt><trkpt lat="38.47014856839853" lon="16.262903480672584"><ele>1090.0</ele><time>2026-04-11T12:48:38.001Z</time></trkpt><trkpt lat="38.47004271540745" lon="16.262974790637415"><ele>1088.0</ele><time>2026-04-11T12:48:39.001Z</time></trkpt><trkpt lat="38.46987294956888" lon="16.26302828679566"><ele>1086.0</ele><time>2026-04-11T12:48:40.001Z</time></trkpt><trkpt lat="38.46976399610178" lon="16.263102676766913"><ele>1085.8</ele><time>2026-04-11T12:48:41.001Z</time></trkpt><trkpt lat="38.469683986470535" lon="16.26319613835889"><ele>1085.6</ele><time>2026-04-11T12:48:42.001Z</time></trkpt><trkpt lat="38.46960365945148" lon="16.263281896010994"><ele>1085.4</ele><time>2026-04-11T12:48:43.001Z</time></trkpt><trkpt lat="38.46953583778688" lon="16.26334109011804"><ele>1085.2</ele><time>2026-04-11T12:48:44.001Z</time></trkpt><trkpt lat="38.469495641294706" lon="16.263422473651715"><ele>1085.0</ele><time>2026-04-11T12:48:45.001Z</time></trkpt><trkpt lat="38.46942766354978" lon="16.263474159614077"><ele>1085.0</ele><time>2026-04-11T12:48:46.001Z</time></trkpt><trkpt lat="38.46936567345082" lon="16.263491983526634"><ele>1085.0</ele><time>2026-04-11T12:48:47.001Z</time></trkpt><trkpt lat="38.46926075976594" lon="16.263544099670284"><ele>1085.0</ele><time>2026-04-11T12:48:48.001Z</time></trkpt><trkpt lat="38.46915160388649" lon="16.26365008156162"><ele>1085.0</ele><time>2026-04-11T12:48:49.001Z</time></trkpt><trkpt lat="38.469076941003564" lon="16.263702314420847"><ele>1085.0</ele><time>2026-04-11T12:48:50.001Z</time></trkpt><trkpt lat="38.468971052643504" lon="16.263816438992862"><ele>1085.0</ele><time>2026-04-11T12:48:52.001Z</time></trkpt><trkpt lat="38.46889797564504" lon="16.263882638917014"><ele>1085.0</ele><time>2026-04-11T12:48:53.001Z</time></trkpt><trkpt lat="38.46881246778814" lon="16.26393166669258"><ele>1085.0</ele><time>2026-04-11T12:48:54.001Z</time></trkpt><trkpt lat="38.468725041676734" lon="16.263982041838393"><ele>1085.0</ele><time>2026-04-11T12:48:55.001Z</time></trkpt><trkpt lat="38.46864604473019" lon="16.264020176824257"><ele>1085.0</ele><time>2026-04-11T12:48:56.001Z</time></trkpt><trkpt lat="38.468581467594746" lon="16.264047303668356"><ele>1085.0</ele><time>2026-04-11T12:48:57.001Z</time></trkpt><trkpt lat="38.46851809321875" lon="16.26407801693379"><ele>1084.1666666666667</ele><time>2026-04-11T12:48:58.001Z</time></trkpt><trkpt lat="38.46845533334693" lon="16.26412249953836"><ele>1083.3333333333335</ele><time>2026-04-11T12:48:59.001Z</time></trkpt><trkpt lat="38.468371578607126" lon="16.264156243569264"><ele>1082.5</ele><time>2026-04-11T12:49:00.001Z</time></trkpt><trkpt lat="38.46831519500895" lon="16.264192148305238"><ele>1081.6666666666667</ele><time>2026-04-11T12:49:01.001Z</time></trkpt><trkpt lat="38.46823872650614" lon="16.26427017488107"><ele>1080.8333333333333</ele><time>2026-04-11T12:49:03.001Z</time></trkpt><trkpt lat="38.46815093556318" lon="16.264282008622054"><ele>1080.0</ele><time>2026-04-11T12:49:04.001Z</time></trkpt><trkpt lat="38.46799621451216" lon="16.26433322285923"><ele>1078.8</ele><time>2026-04-11T12:49:06.001Z</time></trkpt><trkpt lat="38.46790130842465" lon="16.26434323088588"><ele>1077.6</ele><time>2026-04-11T12:49:07.001Z</time></trkpt><trkpt lat="38.46782036368618" lon="16.264387041380648"><ele>1076.4</ele><time>2026-04-11T12:49:08.001Z</time></trkpt><trkpt lat="38.46770166251128" lon="16.264434293663793"><ele>1075.2</ele><time>2026-04-11T12:49:10.001Z</time></trkpt><trkpt lat="38.46761463130214" lon="16.26445587198091"><ele>1074.0</ele><time>2026-04-11T12:49:11.001Z</time></trkpt><trkpt lat="38.46752303928606" lon="16.264512089725606"><ele>1074.0</ele><time>2026-04-11T12:49:12.001Z</time></trkpt><trkpt lat="38.46743329775399" lon="16.264558800174026"><ele>1074.0</ele><time>2026-04-11T12:49:13.001Z</time></trkpt><trkpt lat="38.467355835144964" lon="16.264615624694343"><ele>1074.0</ele><time>2026-04-11T12:49:14.001Z</time></trkpt><trkpt lat="38.467288855544844" lon="16.26467731031641"><ele>1074.0</ele><time>2026-04-11T12:49:15.001Z</time></trkpt><trkpt lat="38.46720225888835" lon="16.26475893995214"><ele>1074.0</ele><time>2026-04-11T12:49:16.001Z</time></trkpt><trkpt lat="38.46710810053059" lon="16.264787413825708"><ele>1074.2</ele><time>2026-04-11T12:49:16.999Z</time></trkpt><trkpt lat="38.46698339369083" lon="16.264833803046"><ele>1074.4</ele><time>2026-04-11T12:49:17.999Z</time></trkpt><trkpt lat="38.46688499604931" lon="16.264878357388447"><ele>1074.6</ele><time>2026-04-11T12:49:18.999Z</time></trkpt><trkpt lat="38.46678980015961" lon="16.264900339097373"><ele>1074.8</ele><time>2026-04-11T12:49:19.999Z</time></trkpt><trkpt lat="38.466706486863444" lon="16.264928567510403"><ele>1075.0</ele><time>2026-04-11T12:49:20.999Z</time></trkpt><trkpt lat="38.46659514552858" lon="16.264974403057163"><ele>1075.0</ele><time>2026-04-11T12:49:21.999Z</time></trkpt><trkpt lat="38.46651241767494" lon="16.265036888037606"><ele>1075.0</ele><time>2026-04-11T12:49:22.999Z</time></trkpt><trkpt lat="38.46644292438692" lon="16.265062196764582"><ele>1075.0</ele><time>2026-04-11T12:49:23.999Z</time></trkpt><trkpt lat="38.466377883065796" lon="16.265181775141095"><ele>1075.0</ele><time>2026-04-11T12:49:25.999Z</time></trkpt><trkpt lat="38.466276927928746" lon="16.265205859404073"><ele>1075.0</ele><time>2026-04-11T12:49:27.999Z</time></trkpt><trkpt lat="38.4661414263058" lon="16.265226984044528"><ele>1074.3333333333333</ele><time>2026-04-11T12:49:29.999Z</time></trkpt><trkpt lat="38.46606761520311" lon="16.265240645935435"><ele>1073.6666666666665</ele><time>2026-04-11T12:49:30.999Z</time></trkpt><trkpt lat="38.465992602463174" lon="16.265246911387646"><ele>1073.0</ele><time>2026-04-11T12:49:31.999Z</time></trkpt><trkpt lat="38.46587300897773" lon="16.265245949852783"><ele>1072.3333333333333</ele><time>2026-04-11T12:49:33.999Z</time></trkpt><trkpt lat="38.465803777982664" lon="16.26525215081913"><ele>1071.6666666666667</ele><time>2026-04-11T12:49:35Z</time></trkpt><trkpt lat="38.465732605015006" lon="16.265250329409124"><ele>1071.0</ele><time>2026-04-11T12:49:36Z</time></trkpt><trkpt lat="38.46567188483621" lon="16.26527523727984"><ele>1071.0</ele><time>2026-04-11T12:49:37Z</time></trkpt><trkpt lat="38.465577031006084" lon="16.265344872434934"><ele>1071.0</ele><time>2026-04-11T12:49:39Z</time></trkpt><trkpt lat="38.46550782659524" lon="16.265392785861845"><ele>1071.0</ele><time>2026-04-11T12:49:40Z</time></trkpt><trkpt lat="38.46539154460903" lon="16.26547120025777"><ele>1071.0</ele><time>2026-04-11T12:49:42Z</time></trkpt><trkpt lat="38.465315978504414" lon="16.26553328803473"><ele>1071.0</ele><time>2026-04-11T12:49:43Z</time></trkpt><trkpt lat="38.465236575126205" lon="16.26559114634173"><ele>1069.2</ele><time>2026-04-11T12:49:44Z</time></trkpt><trkpt lat="38.465137104168214" lon="16.265672038101524"><ele>1067.3999999999999</ele><time>2026-04-11T12:49:45Z</time></trkpt><trkpt lat="38.465067411847244" lon="16.26575104241517"><ele>1065.6</ele><time>2026-04-11T12:49:46Z</time></trkpt><trkpt lat="38.46499169739945" lon="16.26582491988669"><ele>1063.8</ele><time>2026-04-11T12:49:47Z</time></trkpt><trkpt lat="38.46489664570094" lon="16.265888358185055"><ele>1062.0</ele><time>2026-04-11T12:49:48Z</time></trkpt><trkpt lat="38.46482145262556" lon="16.265957798780857"><ele>1062.0</ele><time>2026-04-11T12:49:49Z</time></trkpt><trkpt lat="38.46473135056412" lon="16.266039457765793"><ele>1062.0</ele><time>2026-04-11T12:49:50Z</time></trkpt><trkpt lat="38.46461779448574" lon="16.26612388437657"><ele>1062.0</ele><time>2026-04-11T12:49:51Z</time></trkpt><trkpt lat="38.46449221605904" lon="16.266209155354222"><ele>1062.0</ele><time>2026-04-11T12:49:52Z</time></trkpt><trkpt lat="38.464366988316236" lon="16.26628582673826"><ele>1061.75</ele><time>2026-04-11T12:49:53Z</time></trkpt><trkpt lat="38.464255334536865" lon="16.266360531869534"><ele>1061.5</ele><time>2026-04-11T12:49:54Z</time></trkpt><trkpt lat="38.46413993128743" lon="16.266410087768936"><ele>1061.25</ele><time>2026-04-11T12:49:55Z</time></trkpt><trkpt lat="38.46403052945237" lon="16.26645780061496"><ele>1061.0</ele><time>2026-04-11T12:49:56Z</time></trkpt><trkpt lat="38.46391110085132" lon="16.26650118600516"><ele>1061.0</ele><time>2026-04-11T12:49:57Z</time></trkpt><trkpt lat="38.46378987172978" lon="16.266524642620872"><ele>1061.0</ele><time>2026-04-11T12:49:58Z</time></trkpt><trkpt lat="38.46364459512206" lon="16.266550085649346"><ele>1061.0</ele><time>2026-04-11T12:49:59Z</time></trkpt><trkpt lat="38.463488638566226" lon="16.266583330155093"><ele>1061.0</ele><time>2026-04-11T12:50:00Z</time></trkpt><trkpt lat="38.46333466737546" lon="16.266623673544338"><ele>1060.0</ele><time>2026-04-11T12:50:01Z</time></trkpt><trkpt lat="38.46319509339184" lon="16.26665626004124"><ele>1059.0</ele><time>2026-04-11T12:50:02Z</time></trkpt><trkpt lat="38.46307142520338" lon="16.266681808884943"><ele>1058.0</ele><time>2026-04-11T12:50:03Z</time></trkpt><trkpt lat="38.46296330666494" lon="16.266708801414772"><ele>1057.0</ele><time>2026-04-11T12:50:04Z</time></trkpt><trkpt lat="38.4628561245424" lon="16.266735791166422"><ele>1056.8</ele><time>2026-04-11T12:50:05Z</time></trkpt><trkpt lat="38.462743733878696" lon="16.26676761196683"><ele>1056.6</ele><time>2026-04-11T12:50:06Z</time></trkpt><trkpt lat="38.46263371806613" lon="16.26679727953971"><ele>1056.3999999999999</ele><time>2026-04-11T12:50:07Z</time></trkpt><trkpt lat="38.46254185699566" lon="16.2668251150203"><ele>1056.2</ele><time>2026-04-11T12:50:08Z</time></trkpt><trkpt lat="38.46244597746274" lon="16.26684344636466"><ele>1056.0</ele><time>2026-04-11T12:50:09Z</time></trkpt><trkpt lat="38.46236733188846" lon="16.266843972027928"><ele>1056.0</ele><time>2026-04-11T12:50:10Z</time></trkpt><trkpt lat="38.46227742814494" lon="16.26682662350123"><ele>1056.0</ele><time>2026-04-11T12:50:11Z</time></trkpt><trkpt lat="38.462162935242695" lon="16.266790300365063"><ele>1056.0</ele><time>2026-04-11T12:50:12Z</time></trkpt><trkpt lat="38.46206232153491" lon="16.266748726988673"><ele>1056.0</ele><time>2026-04-11T12:50:13Z</time></trkpt><trkpt lat="38.46197564288043" lon="16.266718948550576"><ele>1056.0</ele><time>2026-04-11T12:50:14Z</time></trkpt><trkpt lat="38.461884360401136" lon="16.266735839107756"><ele>1055.0</ele><time>2026-04-11T12:50:15Z</time></trkpt><trkpt lat="38.46180079128508" lon="16.26676638116513"><ele>1054.0</ele><time>2026-04-11T12:50:16Z</time></trkpt><trkpt lat="38.461706821804526" lon="16.266816855605658"><ele>1053.0</ele><time>2026-04-11T12:50:17Z</time></trkpt><trkpt lat="38.46158286918393" lon="16.266889326535757"><ele>1052.0</ele><time>2026-04-11T12:50:18Z</time></trkpt><trkpt lat="38.46146810892137" lon="16.26697147981019"><ele>1052.0</ele><time>2026-04-11T12:50:19Z</time></trkpt><trkpt lat="38.46138125427128" lon="16.267032221658486"><ele>1052.0</ele><time>2026-04-11T12:50:20Z</time></trkpt><trkpt lat="38.46129918900719" lon="16.267085451339568"><ele>1052.0</ele><time>2026-04-11T12:50:21Z</time></trkpt><trkpt lat="38.46120741508711" lon="16.267207406396523"><ele>1052.0</ele><time>2026-04-11T12:50:22Z</time></trkpt><trkpt lat="38.461098763953174" lon="16.267341506082804"><ele>1052.25</ele><time>2026-04-11T12:50:23Z</time></trkpt><trkpt lat="38.46099761049819" lon="16.267458670502364"><ele>1052.5</ele><time>2026-04-11T12:50:24Z</time></trkpt><trkpt lat="38.460905200300125" lon="16.267569159055498"><ele>1052.75</ele><time>2026-04-11T12:50:25Z</time></trkpt><trkpt lat="38.46080039297321" lon="16.267681631958848"><ele>1053.0</ele><time>2026-04-11T12:50:26Z</time></trkpt><trkpt lat="38.46074893177048" lon="16.26773165214297"><ele>1053.0</ele><time>2026-04-11T12:50:27Z</time></trkpt><trkpt lat="38.460669704221026" lon="16.26780012659348"><ele>1053.0</ele><time>2026-04-11T12:50:28Z</time></trkpt><trkpt lat="38.4606094365077" lon="16.267856393848614"><ele>1053.0</ele><time>2026-04-11T12:50:29Z</time></trkpt><trkpt lat="38.46054364277368" lon="16.26790626159825"><ele>1053.0</ele><time>2026-04-11T12:50:30Z</time></trkpt><trkpt lat="38.460475360512405" lon="16.267930004959315"><ele>1053.0</ele><time>2026-04-11T12:50:31Z</time></trkpt><trkpt lat="38.46039869434308" lon="16.267954842000634"><ele>1053.0</ele><time>2026-04-11T12:50:32Z</time></trkpt><trkpt lat="38.46031671963229" lon="16.267957261577507"><ele>1051.6</ele><time>2026-04-11T12:50:33Z</time></trkpt><trkpt lat="38.46021185618434" lon="16.267940061991556"><ele>1050.1999999999998</ele><time>2026-04-11T12:50:34Z</time></trkpt><trkpt lat="38.460099980670165" lon="16.267914564562368"><ele>1048.8</ele><time>2026-04-11T12:50:35Z</time></trkpt><trkpt lat="38.45999405795373" lon="16.26791497723473"><ele>1047.3999999999999</ele><time>2026-04-11T12:50:36.001Z</time></trkpt><trkpt lat="38.459880513487086" lon="16.26794571116135"><ele>1046.0</ele><time>2026-04-11T12:50:37.001Z</time></trkpt><trkpt lat="38.45976616953267" lon="16.26801073249303"><ele>1046.0</ele><time>2026-04-11T12:50:38.001Z</time></trkpt><trkpt lat="38.4596637770871" lon="16.26807107064997"><ele>1046.0</ele><time>2026-04-11T12:50:39.001Z</time></trkpt><trkpt lat="38.45956382207883" lon="16.268124146822483"><ele>1046.0</ele><time>2026-04-11T12:50:40.001Z</time></trkpt><trkpt lat="38.45944786642575" lon="16.268206383385742"><ele>1046.0</ele><time>2026-04-11T12:50:41.001Z</time></trkpt><trkpt lat="38.45931174404595" lon="16.26830929846247"><ele>1047.0</ele><time>2026-04-11T12:50:42.001Z</time></trkpt><trkpt lat="38.45919137544753" lon="16.26839275229467"><ele>1048.0</ele><time>2026-04-11T12:50:43.001Z</time></trkpt><trkpt lat="38.45908088863218" lon="16.268458000907287"><ele>1049.0</ele><time>2026-04-11T12:50:44.001Z</time></trkpt><trkpt lat="38.4589617934004" lon="16.268487017198314"><ele>1050.0</ele><time>2026-04-11T12:50:45.001Z</time></trkpt><trkpt lat="38.458822892600395" lon="16.268514354611227"><ele>1049.5</ele><time>2026-04-11T12:50:46.001Z</time></trkpt><trkpt lat="38.45867860299309" lon="16.268512580758415"><ele>1049.0</ele><time>2026-04-11T12:50:47.001Z</time></trkpt><trkpt lat="38.45854850460141" lon="16.268517145529074"><ele>1048.5</ele><time>2026-04-11T12:50:48.001Z</time></trkpt><trkpt lat="38.45842613903503" lon="16.26851627920963"><ele>1048.0</ele><time>2026-04-11T12:50:49.001Z</time></trkpt><trkpt lat="38.45830913557906" lon="16.268516517564226"><ele>1048.0</ele><time>2026-04-11T12:50:50.001Z</time></trkpt><trkpt lat="38.458191085806384" lon="16.268497826390448"><ele>1048.0</ele><time>2026-04-11T12:50:51.001Z</time></trkpt><trkpt lat="38.458054849534584" lon="16.2684592767348"><ele>1048.0</ele><time>2026-04-11T12:50:52.001Z</time></trkpt><trkpt lat="38.45790906197229" lon="16.268420728141088"><ele>1048.0</ele><time>2026-04-11T12:50:53.001Z</time></trkpt><trkpt lat="38.457777812171315" lon="16.268371531286217"><ele>1048.6</ele><time>2026-04-11T12:50:54.001Z</time></trkpt><trkpt lat="38.45765608783898" lon="16.268326917103195"><ele>1049.1999999999998</ele><time>2026-04-11T12:50:55.001Z</time></trkpt><trkpt lat="38.457556206431356" lon="16.2682988241168"><ele>1049.8</ele><time>2026-04-11T12:50:56.001Z</time></trkpt><trkpt lat="38.457472852221926" lon="16.26827717390735"><ele>1050.3999999999999</ele><time>2026-04-11T12:50:57.001Z</time></trkpt><trkpt lat="38.4573922030664" lon="16.268285529699803"><ele>1051.0</ele><time>2026-04-11T12:50:58.001Z</time></trkpt><trkpt lat="38.4573109398662" lon="16.26830494056618"><ele>1051.0</ele><time>2026-04-11T12:50:59.001Z</time></trkpt><trkpt lat="38.45723822100983" lon="16.268337349782502"><ele>1051.0</ele><time>2026-04-11T12:51:00.001Z</time></trkpt><trkpt lat="38.4571335774981" lon="16.26842011517098"><ele>1051.0</ele><time>2026-04-11T12:51:02.001Z</time></trkpt><trkpt lat="38.45708721069823" lon="16.268507049459576"><ele>1051.0</ele><time>2026-04-11T12:51:03.001Z</time></trkpt><trkpt lat="38.45700250368235" lon="16.268584336697113"><ele>1051.0</ele><time>2026-04-11T12:51:04.001Z</time></trkpt><trkpt lat="38.456949888068316" lon="16.26865743554965"><ele>1050.3999999999999</ele><time>2026-04-11T12:51:05.001Z</time></trkpt><trkpt lat="38.45688024466356" lon="16.26872033552634"><ele>1049.8</ele><time>2026-04-11T12:51:06.001Z</time></trkpt><trkpt lat="38.45681740817145" lon="16.268783559442966"><ele>1049.1999999999998</ele><time>2026-04-11T12:51:07.001Z</time></trkpt><trkpt lat="38.456764777210786" lon="16.268841308485168"><ele>1048.6</ele><time>2026-04-11T12:51:08.001Z</time></trkpt><trkpt lat="38.45664180618169" lon="16.268836647444303"><ele>1048.0</ele><time>2026-04-11T12:51:10.001Z</time></trkpt><trkpt lat="38.45653974670145" lon="16.268856797316047"><ele>1048.0</ele><time>2026-04-11T12:51:11.001Z</time></trkpt><trkpt lat="38.45643032836713" lon="16.268880769376853"><ele>1048.0</ele><time>2026-04-11T12:51:12.001Z</time></trkpt><trkpt lat="38.45631480201224" lon="16.268891816978673"><ele>1048.0</ele><time>2026-04-11T12:51:13.001Z</time></trkpt><trkpt lat="38.456222554313456" lon="16.26891907420932"><ele>1048.0</ele><time>2026-04-11T12:51:14.001Z</time></trkpt><trkpt lat="38.45612478116588" lon="16.26895077062745"><ele>1048.0</ele><time>2026-04-11T12:51:15.001Z</time></trkpt><trkpt lat="38.45603472848784" lon="16.268968981365166"><ele>1047.3333333333333</ele><time>2026-04-11T12:51:16.001Z</time></trkpt><trkpt lat="38.45596338217133" lon="16.26899611375519"><ele>1046.6666666666665</ele><time>2026-04-11T12:51:17.001Z</time></trkpt><trkpt lat="38.4558937836858" lon="16.26900385491347"><ele>1046.0</ele><time>2026-04-11T12:51:18.001Z</time></trkpt><trkpt lat="38.45580681913784" lon="16.269029322721174"><ele>1045.3333333333333</ele><time>2026-04-11T12:51:19.001Z</time></trkpt><trkpt lat="38.455725444924" lon="16.269097053643904"><ele>1044.6666666666667</ele><time>2026-04-11T12:51:21.001Z</time></trkpt><trkpt lat="38.455662507647254" lon="16.269103307435508"><ele>1044.0</ele><time>2026-04-11T12:51:23.998Z</time></trkpt><trkpt lat="38.455602754794995" lon="16.26897976355579"><ele>1043.8</ele><time>2026-04-11T12:53:49.999Z</time></trkpt><trkpt lat="38.455645774126275" lon="16.26888821916529"><ele>1043.6000000000001</ele><time>2026-04-11T12:53:52Z</time></trkpt><trkpt lat="38.45573634270576" lon="16.268821781123393"><ele>1043.4</ele><time>2026-04-11T12:53:54Z</time></trkpt><trkpt lat="38.45581612479555" lon="16.268821771299308"><ele>1043.2</ele><time>2026-04-11T12:53:55Z</time></trkpt><trkpt lat="38.455986634441686" lon="16.26879697119171"><ele>1043.0</ele><time>2026-04-11T12:53:56Z</time></trkpt><trkpt lat="38.456103253038314" lon="16.268784850007997"><ele>1043.0</ele><time>2026-04-11T12:53:57Z</time></trkpt><trkpt lat="38.45620554645463" lon="16.268784431801638"><ele>1043.0</ele><time>2026-04-11T12:53:58Z</time></trkpt><trkpt lat="38.45631600369148" lon="16.268771604111024"><ele>1043.0</ele><time>2026-04-11T12:53:59Z</time></trkpt><trkpt lat="38.45643743941369" lon="16.268739685075495"><ele>1043.0</ele><time>2026-04-11T12:54:00Z</time></trkpt><trkpt lat="38.45654464509462" lon="16.268722548530317"><ele>1043.0</ele><time>2026-04-11T12:54:01Z</time></trkpt><trkpt lat="38.45662758677908" lon="16.268715404202474"><ele>1044.0</ele><time>2026-04-11T12:54:02Z</time></trkpt><trkpt lat="38.456690469180465" lon="16.26870232311537"><ele>1045.0</ele><time>2026-04-11T12:54:03Z</time></trkpt><trkpt lat="38.456778414548154" lon="16.268628950435666"><ele>1046.0</ele><time>2026-04-11T12:54:04Z</time></trkpt><trkpt lat="38.45687743337801" lon="16.268540637632576"><ele>1047.0</ele><time>2026-04-11T12:54:05Z</time></trkpt><trkpt lat="38.456987758384905" lon="16.26847778193072"><ele>1048.0</ele><time>2026-04-11T12:54:06Z</time></trkpt><trkpt lat="38.45709434458345" lon="16.268421868956075"><ele>1048.6</ele><time>2026-04-11T12:54:07Z</time></trkpt><trkpt lat="38.457142766869" lon="16.26833274204116"><ele>1049.1999999999998</ele><time>2026-04-11T12:54:08Z</time></trkpt><trkpt lat="38.457226091082866" lon="16.268278220834752"><ele>1049.8</ele><time>2026-04-11T12:54:09Z</time></trkpt><trkpt lat="38.457295836065704" lon="16.268250534999854"><ele>1050.3999999999999</ele><time>2026-04-11T12:54:10Z</time></trkpt><trkpt lat="38.45736964070324" lon="16.26826298958695"><ele>1051.0</ele><time>2026-04-11T12:54:11Z</time></trkpt><trkpt lat="38.45749715210244" lon="16.26827032113154"><ele>1051.0</ele><time>2026-04-11T12:54:13Z</time></trkpt><trkpt lat="38.45758530345072" lon="16.268280548069246"><ele>1051.0</ele><time>2026-04-11T12:54:14Z</time></trkpt><trkpt lat="38.45767658196449" lon="16.26831466701446"><ele>1051.0</ele><time>2026-04-11T12:54:15Z</time></trkpt><trkpt lat="38.45779937614193" lon="16.268343838221373"><ele>1051.0</ele><time>2026-04-11T12:54:16Z</time></trkpt><trkpt lat="38.457883303011656" lon="16.26839982338415"><ele>1051.0</ele><time>2026-04-11T12:54:17Z</time></trkpt><trkpt lat="38.457986537487486" lon="16.268435364205455"><ele>1050.3999999999999</ele><time>2026-04-11T12:54:18Z</time></trkpt><trkpt lat="38.45808642317976" lon="16.26847180385155"><ele>1049.8</ele><time>2026-04-11T12:54:19Z</time></trkpt><trkpt lat="38.45819188626725" lon="16.268502191612434"><ele>1049.1999999999998</ele><time>2026-04-11T12:54:20Z</time></trkpt><trkpt lat="38.458312956171824" lon="16.268515986780656"><ele>1048.6</ele><time>2026-04-11T12:54:21Z</time></trkpt><trkpt lat="38.45842575951426" lon="16.268537191486164"><ele>1048.0</ele><time>2026-04-11T12:54:22Z</time></trkpt><trkpt lat="38.45858087916541" lon="16.26852951807587"><ele>1048.0</ele><time>2026-04-11T12:54:23Z</time></trkpt><trkpt lat="38.4587178454722" lon="16.26850814329244"><ele>1048.0</ele><time>2026-04-11T12:54:24Z</time></trkpt><trkpt lat="38.45883733139439" lon="16.268489000244532"><ele>1048.0</ele><time>2026-04-11T12:54:25Z</time></trkpt><trkpt lat="38.45895346073999" lon="16.268466750022434"><ele>1048.0</ele><time>2026-04-11T12:54:26Z</time></trkpt><trkpt lat="38.45906782692134" lon="16.268435287101845"><ele>1048.5</ele><time>2026-04-11T12:54:27Z</time></trkpt><trkpt lat="38.45917729843645" lon="16.268395845302383"><ele>1049.0</ele><time>2026-04-11T12:54:28Z</time></trkpt><trkpt lat="38.45928406203562" lon="16.268326531411766"><ele>1049.5</ele><time>2026-04-11T12:54:29.001Z</time></trkpt><trkpt lat="38.45939814881063" lon="16.268225393373108"><ele>1050.0</ele><time>2026-04-11T12:54:30.001Z</time></trkpt><trkpt lat="38.45950381039137" lon="16.26813732028109"><ele>1049.0</ele><time>2026-04-11T12:54:31.001Z</time></trkpt><trkpt lat="38.45960867406546" lon="16.26806804644603"><ele>1048.0</ele><time>2026-04-11T12:54:32.001Z</time></trkpt><trkpt lat="38.459719232839284" lon="16.268008374017224"><ele>1047.0</ele><time>2026-04-11T12:54:33.001Z</time></trkpt><trkpt lat="38.45983458662737" lon="16.267953338259467"><ele>1046.0</ele><time>2026-04-11T12:54:34.001Z</time></trkpt><trkpt lat="38.45994498662459" lon="16.26792270181817"><ele>1046.0</ele><time>2026-04-11T12:54:35.001Z</time></trkpt><trkpt lat="38.460059898519496" lon="16.26790143313894"><ele>1046.0</ele><time>2026-04-11T12:54:36.001Z</time></trkpt><trkpt lat="38.46017863722802" lon="16.267895333937783"><ele>1046.0</ele><time>2026-04-11T12:54:37.001Z</time></trkpt><trkpt lat="38.46028888290336" lon="16.26791873630147"><ele>1046.0</ele><time>2026-04-11T12:54:38.001Z</time></trkpt><trkpt lat="38.46038786298793" lon="16.267912526433957"><ele>1046.0</ele><time>2026-04-11T12:54:39.001Z</time></trkpt><trkpt lat="38.460480615555475" lon="16.26789486231968"><ele>1047.3999999999999</ele><time>2026-04-11T12:54:40.001Z</time></trkpt><trkpt lat="38.46056677427535" lon="16.26786902583997"><ele>1048.8</ele><time>2026-04-11T12:54:41.001Z</time></trkpt><trkpt lat="38.4606397053219" lon="16.267841306400328"><ele>1050.1999999999998</ele><time>2026-04-11T12:54:42.001Z</time></trkpt><trkpt lat="38.46070173792199" lon="16.267786806130506"><ele>1051.6</ele><time>2026-04-11T12:54:43.001Z</time></trkpt><trkpt lat="38.46080983616857" lon="16.267697940968624"><ele>1053.0</ele><time>2026-04-11T12:54:44.001Z</time></trkpt><trkpt lat="38.46091296773717" lon="16.267589516247124"><ele>1053.0</ele><time>2026-04-11T12:54:45.001Z</time></trkpt><trkpt lat="38.461005952724335" lon="16.26749084610981"><ele>1053.0</ele><time>2026-04-11T12:54:46.001Z</time></trkpt><trkpt lat="38.46108176454146" lon="16.26739325989641"><ele>1053.0</ele><time>2026-04-11T12:54:47.001Z</time></trkpt><trkpt lat="38.461126182967085" lon="16.267299583757307"><ele>1053.0</ele><time>2026-04-11T12:54:48.001Z</time></trkpt><trkpt lat="38.46118919363033" lon="16.267219897718874"><ele>1053.0</ele><time>2026-04-11T12:54:49.001Z</time></trkpt><trkpt lat="38.461293516056465" lon="16.267110339885573"><ele>1052.75</ele><time>2026-04-11T12:54:50.001Z</time></trkpt><trkpt lat="38.461383434473206" lon="16.26702282271418"><ele>1052.5</ele><time>2026-04-11T12:54:51.001Z</time></trkpt><trkpt lat="38.46148618966243" lon="16.266939287574527"><ele>1052.25</ele><time>2026-04-11T12:54:52.001Z</time></trkpt><trkpt lat="38.46158937957679" lon="16.26687243839925"><ele>1052.0</ele><time>2026-04-11T12:54:53.001Z</time></trkpt><trkpt lat="38.46169169166889" lon="16.266795341824803"><ele>1052.0</ele><time>2026-04-11T12:54:54.001Z</time></trkpt><trkpt lat="38.46177884788205" lon="16.266765177489493"><ele>1052.0</ele><time>2026-04-11T12:54:55.001Z</time></trkpt><trkpt lat="38.4618580125656" lon="16.26674066309454"><ele>1052.0</ele><time>2026-04-11T12:54:56.001Z</time></trkpt><trkpt lat="38.461929064689826" lon="16.266717147034377"><ele>1052.0</ele><time>2026-04-11T12:54:57.001Z</time></trkpt><trkpt lat="38.462003939980555" lon="16.26674186947353"><ele>1052.0</ele><time>2026-04-11T12:54:58.001Z</time></trkpt><trkpt lat="38.46208273230133" lon="16.266742227198765"><ele>1052.0</ele><time>2026-04-11T12:54:59.001Z</time></trkpt><trkpt lat="38.46220036498799" lon="16.266783490660607"><ele>1052.8</ele><time>2026-04-11T12:55:00.001Z</time></trkpt><trkpt lat="38.462309054859574" lon="16.26682681119748"><ele>1053.6</ele><time>2026-04-11T12:55:01.001Z</time></trkpt><trkpt lat="38.46241244283001" lon="16.26684761678596"><ele>1054.3999999999999</ele><time>2026-04-11T12:55:02.001Z</time></trkpt><trkpt lat="38.46250393033925" lon="16.2668494621384"><ele>1055.2</ele><time>2026-04-11T12:55:03.001Z</time></trkpt><trkpt lat="38.46259574342786" lon="16.26683838377551"><ele>1056.0</ele><time>2026-04-11T12:55:04.001Z</time></trkpt><trkpt lat="38.46269345617394" lon="16.2667955911406"><ele>1056.0</ele><time>2026-04-11T12:55:05.001Z</time></trkpt><trkpt lat="38.46280799739123" lon="16.266736047366013"><ele>1056.0</ele><time>2026-04-11T12:55:06.001Z</time></trkpt><trkpt lat="38.462941139338206" lon="16.26670199006887"><ele>1056.0</ele><time>2026-04-11T12:55:07.001Z</time></trkpt><trkpt lat="38.463066543170314" lon="16.26667624005313"><ele>1056.0</ele><time>2026-04-11T12:55:08.001Z</time></trkpt><trkpt lat="38.463186192060284" lon="16.266643364160668"><ele>1056.25</ele><time>2026-04-11T12:55:09.001Z</time></trkpt><trkpt lat="38.4633057379514" lon="16.266614684513065"><ele>1056.5</ele><time>2026-04-11T12:55:10.001Z</time></trkpt><trkpt lat="38.46342805956075" lon="16.266591511995948"><ele>1056.75</ele><time>2026-04-11T12:55:11.001Z</time></trkpt><trkpt lat="38.46355011355219" lon="16.26655335389264"><ele>1057.0</ele><time>2026-04-11T12:55:12.001Z</time></trkpt><trkpt lat="38.46367093862402" lon="16.26653037727167"><ele>1058.0</ele><time>2026-04-11T12:55:13.001Z</time></trkpt><trkpt lat="38.463787107682215" lon="16.26651056606367"><ele>1059.0</ele><time>2026-04-11T12:55:14.001Z</time></trkpt><trkpt lat="38.463905724040835" lon="16.266478442243127"><ele>1060.0</ele><time>2026-04-11T12:55:15.001Z</time></trkpt><trkpt lat="38.46401492057493" lon="16.266463935909382"><ele>1061.0</ele><time>2026-04-11T12:55:16.001Z</time></trkpt><trkpt lat="38.46411009982316" lon="16.266409389343043"><ele>1058.5</ele><time>2026-04-11T12:55:17.001Z</time></trkpt><trkpt lat="38.46421143095979" lon="16.26635941917086"><ele>1056.0</ele><time>2026-04-11T12:55:18.001Z</time></trkpt><trkpt lat="38.46432740846667" lon="16.266291573048218"><ele>1053.5</ele><time>2026-04-11T12:55:19.001Z</time></trkpt><trkpt lat="38.464454556472134" lon="16.26619152405843"><ele>1051.0</ele><time>2026-04-11T12:55:20.002Z</time></trkpt><trkpt lat="38.464606845560425" lon="16.26609566679175"><ele>1053.75</ele><time>2026-04-11T12:55:21.002Z</time></trkpt><trkpt lat="38.46467521040417" lon="16.26603222288163"><ele>1056.5</ele><time>2026-04-11T12:55:22.002Z</time></trkpt><trkpt lat="38.46478112907019" lon="16.265959334747816"><ele>1059.25</ele><time>2026-04-11T12:55:23.002Z</time></trkpt><trkpt lat="38.464883156414274" lon="16.26588233845126"><ele>1062.0</ele><time>2026-04-11T12:55:24.002Z</time></trkpt><trkpt lat="38.46499022794521" lon="16.265791832995088"><ele>1062.0</ele><time>2026-04-11T12:55:25.002Z</time></trkpt><trkpt lat="38.465088432807605" lon="16.265715049047397"><ele>1062.0</ele><time>2026-04-11T12:55:26.002Z</time></trkpt><trkpt lat="38.4651952177216" lon="16.265614758756495"><ele>1062.0</ele><time>2026-04-11T12:55:27.002Z</time></trkpt><trkpt lat="38.46530772152166" lon="16.265507667998886"><ele>1062.0</ele><time>2026-04-11T12:55:28.002Z</time></trkpt><trkpt lat="38.46541675768822" lon="16.26541050002011"><ele>1063.8</ele><time>2026-04-11T12:55:29.002Z</time></trkpt><trkpt lat="38.46551991301851" lon="16.26533715782557"><ele>1065.6</ele><time>2026-04-11T12:55:30.002Z</time></trkpt><trkpt lat="38.46560980767947" lon="16.265255683102485"><ele>1067.3999999999999</ele><time>2026-04-11T12:55:31.002Z</time></trkpt><trkpt lat="38.46570502969925" lon="16.265208453642458"><ele>1069.2</ele><time>2026-04-11T12:55:32.002Z</time></trkpt><trkpt lat="38.46578975648206" lon="16.26519319788564"><ele>1071.0</ele><time>2026-04-11T12:55:33.002Z</time></trkpt><trkpt lat="38.46587001593417" lon="16.265193358746863"><ele>1071.0</ele><time>2026-04-11T12:55:34.002Z</time></trkpt><trkpt lat="38.46593580794249" lon="16.265192098302013"><ele>1071.0</ele><time>2026-04-11T12:55:35Z</time></trkpt><trkpt lat="38.46602414529773" lon="16.265176189555987"><ele>1071.0</ele><time>2026-04-11T12:55:37Z</time></trkpt><trkpt lat="38.46609327399951" lon="16.26515545673712"><ele>1071.0</ele><time>2026-04-11T12:55:38Z</time></trkpt><trkpt lat="38.466179082060556" lon="16.26515928155353"><ele>1071.0</ele><time>2026-04-11T12:55:39Z</time></trkpt><trkpt lat="38.46628766971496" lon="16.26507976249322"><ele>1071.0</ele><time>2026-04-11T12:55:41Z</time></trkpt><trkpt lat="38.46636810954897" lon="16.265045378496"><ele>1072.0</ele><time>2026-04-11T12:55:42Z</time></trkpt><trkpt lat="38.46646099934257" lon="16.264993664373623"><ele>1073.0</ele><time>2026-04-11T12:55:43Z</time></trkpt><trkpt lat="38.46658952698533" lon="16.264901029402736"><ele>1074.0</ele><time>2026-04-11T12:55:44Z</time></trkpt><trkpt lat="38.46672239748483" lon="16.26482185524075"><ele>1075.0</ele><time>2026-04-11T12:55:45Z</time></trkpt><trkpt lat="38.46685168267618" lon="16.264804246994917"><ele>1075.0</ele><time>2026-04-11T12:55:46Z</time></trkpt><trkpt lat="38.46692903755909" lon="16.26479828548335"><ele>1075.0</ele><time>2026-04-11T12:55:47Z</time></trkpt><trkpt lat="38.46701048656538" lon="16.264782361928933"><ele>1075.0</ele><time>2026-04-11T12:55:49Z</time></trkpt><trkpt lat="38.46714454008513" lon="16.264721591658965"><ele>1075.0</ele><time>2026-04-11T12:55:51Z</time></trkpt><trkpt lat="38.46727387292796" lon="16.26462107343236"><ele>1074.8</ele><time>2026-04-11T12:55:52Z</time></trkpt><trkpt lat="38.46737203743889" lon="16.264539763982036"><ele>1074.6</ele><time>2026-04-11T12:55:53Z</time></trkpt><trkpt lat="38.46747465254075" lon="16.264508119848948"><ele>1074.4</ele><time>2026-04-11T12:55:54Z</time></trkpt><trkpt lat="38.46754320771646" lon="16.264481207811468"><ele>1074.2</ele><time>2026-04-11T12:55:55Z</time></trkpt><trkpt lat="38.467616442831506" lon="16.264438354901387"><ele>1074.0</ele><time>2026-04-11T12:55:56Z</time></trkpt><trkpt lat="38.467697352117334" lon="16.26441362735431"><ele>1074.0</ele><time>2026-04-11T12:55:57Z</time></trkpt><trkpt lat="38.46776638702603" lon="16.264364708582047"><ele>1074.0</ele><time>2026-04-11T12:55:58Z</time></trkpt><trkpt lat="38.46785115679738" lon="16.264332346254502"><ele>1074.0</ele><time>2026-04-11T12:55:59Z</time></trkpt><trkpt lat="38.46793597080784" lon="16.264289138508286"><ele>1074.0</ele><time>2026-04-11T12:56:00Z</time></trkpt><trkpt lat="38.46801409691913" lon="16.264260005430145"><ele>1074.0</ele><time>2026-04-11T12:56:01Z</time></trkpt><trkpt lat="38.46808108516246" lon="16.264241782072556"><ele>1074.0</ele><time>2026-04-11T12:56:02Z</time></trkpt><trkpt lat="38.46814475851801" lon="16.264215276085437"><ele>1075.2</ele><time>2026-04-11T12:56:03Z</time></trkpt><trkpt lat="38.46823140392027" lon="16.26416128924935"><ele>1076.4</ele><time>2026-04-11T12:56:05Z</time></trkpt><trkpt lat="38.468372972056315" lon="16.264108687594863"><ele>1077.6</ele><time>2026-04-11T12:56:07Z</time></trkpt><trkpt lat="38.46845701078206" lon="16.264082108297085"><ele>1078.8</ele><time>2026-04-11T12:56:08Z</time></trkpt><trkpt lat="38.4685217371637" lon="16.264050735869148"><ele>1080.0</ele><time>2026-04-11T12:56:09Z</time></trkpt><trkpt lat="38.46858814690594" lon="16.264001332786776"><ele>1081.25</ele><time>2026-04-11T12:56:10Z</time></trkpt><trkpt lat="38.468738828516415" lon="16.263898753755775"><ele>1082.5</ele><time>2026-04-11T12:56:12Z</time></trkpt><trkpt lat="38.46881686636378" lon="16.26384221155086"><ele>1083.75</ele><time>2026-04-11T12:56:13Z</time></trkpt><trkpt lat="38.46892229065059" lon="16.263770306358914"><ele>1085.0</ele><time>2026-04-11T12:56:14Z</time></trkpt><trkpt lat="38.46900709349881" lon="16.263687404516748"><ele>1085.0</ele><time>2026-04-11T12:56:15Z</time></trkpt><trkpt lat="38.46908805097978" lon="16.263611681899892"><ele>1085.0</ele><time>2026-04-11T12:56:16.001Z</time></trkpt><trkpt lat="38.469162360577506" lon="16.26357630934638"><ele>1085.0</ele><time>2026-04-11T12:56:17.001Z</time></trkpt><trkpt lat="38.46924372340417" lon="16.263502045887318"><ele>1085.0</ele><time>2026-04-11T12:56:18.001Z</time></trkpt><trkpt lat="38.46934228507858" lon="16.2634439891623"><ele>1085.0</ele><time>2026-04-11T12:56:19.001Z</time></trkpt><trkpt lat="38.46943746373593" lon="16.263395322780077"><ele>1085.0</ele><time>2026-04-11T12:56:20.001Z</time></trkpt><trkpt lat="38.469502516769396" lon="16.263341515562338"><ele>1085.0</ele><time>2026-04-11T12:56:21.001Z</time></trkpt><trkpt lat="38.46959248826427" lon="16.263269025798813"><ele>1085.0</ele><time>2026-04-11T12:56:22.001Z</time></trkpt><trkpt lat="38.469710770233654" lon="16.26324112992858"><ele>1085.0</ele><time>2026-04-11T12:56:23.001Z</time></trkpt><trkpt lat="38.46979062305149" lon="16.2631644029145"><ele>1085.0</ele><time>2026-04-11T12:56:24.001Z</time></trkpt><trkpt lat="38.46990353533188" lon="16.263071582809186"><ele>1085.25</ele><time>2026-04-11T12:56:25.001Z</time></trkpt><trkpt lat="38.47002759589845" lon="16.262925540169498"><ele>1085.5</ele><time>2026-04-11T12:56:26.001Z</time></trkpt><trkpt lat="38.47012852692068" lon="16.262830456466848"><ele>1085.75</ele><time>2026-04-11T12:56:27.001Z</time></trkpt><trkpt lat="38.47022359592494" lon="16.26278155820894"><ele>1086.0</ele><time>2026-04-11T12:56:28.001Z</time></trkpt><trkpt lat="38.47031003401035" lon="16.26271726118657"><ele>1086.0</ele><time>2026-04-11T12:56:29.001Z</time></trkpt><trkpt lat="38.470387836810474" lon="16.26264471656914"><ele>1086.0</ele><time>2026-04-11T12:56:30.001Z</time></trkpt><trkpt lat="38.47045803284792" lon="16.26256679841046"><ele>1086.0</ele><time>2026-04-11T12:56:31.001Z</time></trkpt><trkpt lat="38.4705364989388" lon="16.262473323851292"><ele>1086.0</ele><time>2026-04-11T12:56:32.001Z</time></trkpt><trkpt lat="38.470622502043774" lon="16.262375430050618"><ele>1086.0</ele><time>2026-04-11T12:56:33.001Z</time></trkpt><trkpt lat="38.47070224974663" lon="16.26227713550595"><ele>1088.25</ele><time>2026-04-11T12:56:34.001Z</time></trkpt><trkpt lat="38.470753640514275" lon="16.26214643511103"><ele>1090.5</ele><time>2026-04-11T12:56:35.001Z</time></trkpt><trkpt lat="38.47083193479805" lon="16.262042186844514"><ele>1092.75</ele><time>2026-04-11T12:56:36.001Z</time></trkpt><trkpt lat="38.470913644398124" lon="16.261916556115295"><ele>1095.0</ele><time>2026-04-11T12:56:37.001Z</time></trkpt><trkpt lat="38.47100388510976" lon="16.261791147270657"><ele>1095.0</ele><time>2026-04-11T12:56:38.001Z</time></trkpt><trkpt lat="38.47107795244067" lon="16.261643796391034"><ele>1095.0</ele><time>2026-04-11T12:56:39.001Z</time></trkpt><trkpt lat="38.471185142708464" lon="16.26148643591893"><ele>1095.0</ele><time>2026-04-11T12:56:40.001Z</time></trkpt><trkpt lat="38.47127565664757" lon="16.261350632608178"><ele>1095.0</ele><time>2026-04-11T12:56:41.001Z</time></trkpt><trkpt lat="38.47134671795362" lon="16.261246456069593"><ele>1096.5</ele><time>2026-04-11T12:56:42.001Z</time></trkpt><trkpt lat="38.47142560250299" lon="16.26115194826999"><ele>1098.0</ele><time>2026-04-11T12:56:43.001Z</time></trkpt><trkpt lat="38.4715329104132" lon="16.261031800113173"><ele>1099.5</ele><time>2026-04-11T12:56:44.001Z</time></trkpt><trkpt lat="38.47161935583912" lon="16.260944790288708"><ele>1101.0</ele><time>2026-04-11T12:56:45.001Z</time></trkpt><trkpt lat="38.471710180524695" lon="16.260895836911967"><ele>1101.0</ele><time>2026-04-11T12:56:46.001Z</time></trkpt><trkpt lat="38.47180269194946" lon="16.26086336794212"><ele>1101.0</ele><time>2026-04-11T12:56:47.001Z</time></trkpt><trkpt lat="38.471890844364935" lon="16.260800200105063"><ele>1101.0</ele><time>2026-04-11T12:56:48.001Z</time></trkpt><trkpt lat="38.47198203872879" lon="16.260752337006142"><ele>1101.0</ele><time>2026-04-11T12:56:49.001Z</time></trkpt><trkpt lat="38.472095165055535" lon="16.260711094983083"><ele>1101.0</ele><time>2026-04-11T12:56:50.001Z</time></trkpt><trkpt lat="38.47219822258104" lon="16.260670902003625"><ele>1100.8</ele><time>2026-04-11T12:56:51.001Z</time></trkpt><trkpt lat="38.47226657014359" lon="16.2605783319246"><ele>1100.6</ele><time>2026-04-11T12:56:52.001Z</time></trkpt><trkpt lat="38.47233148797784" lon="16.26052885203963"><ele>1100.4</ele><time>2026-04-11T12:56:53.001Z</time></trkpt><trkpt lat="38.472431027428755" lon="16.260499002576598"><ele>1100.2</ele><time>2026-04-11T12:56:54.001Z</time></trkpt><trkpt lat="38.47250242956241" lon="16.260477174428015"><ele>1100.0</ele><time>2026-04-11T12:56:55.001Z</time></trkpt><trkpt lat="38.472606027722556" lon="16.260456621181124"><ele>1100.0</ele><time>2026-04-11T12:56:56.001Z</time></trkpt><trkpt lat="38.47267563349042" lon="16.26043676503382"><ele>1100.0</ele><time>2026-04-11T12:56:57.001Z</time></trkpt><trkpt lat="38.47279592054324" lon="16.26039533905522"><ele>1100.0</ele><time>2026-04-11T12:56:59.001Z</time></trkpt><trkpt lat="38.47285241349472" lon="16.260334523774105"><ele>1100.0</ele><time>2026-04-11T12:57:00.001Z</time></trkpt><trkpt lat="38.472910379645306" lon="16.260300667842074"><ele>1100.0</ele><time>2026-04-11T12:57:01.001Z</time></trkpt><trkpt lat="38.47301854737964" lon="16.2602413980485"><ele>1102.0</ele><time>2026-04-11T12:57:03.001Z</time></trkpt><trkpt lat="38.47313265266831" lon="16.26020192745019"><ele>1104.0</ele><time>2026-04-11T12:57:05.001Z</time></trkpt><trkpt lat="38.47320287533058" lon="16.260183040539804"><ele>1106.0</ele><time>2026-04-11T12:57:06.001Z</time></trkpt><trkpt lat="38.47327184865051" lon="16.260147766385227"><ele>1108.0</ele><time>2026-04-11T12:57:07.002Z</time></trkpt><trkpt lat="38.473348496507576" lon="16.260089303445465"><ele>1110.0</ele><time>2026-04-11T12:57:08.002Z</time></trkpt><trkpt lat="38.4734955741192" lon="16.26003373164064"><ele>1110.0</ele><time>2026-04-11T12:57:10.002Z</time></trkpt><trkpt lat="38.47364658821306" lon="16.25992284513382"><ele>1110.0</ele><time>2026-04-11T12:57:11.002Z</time></trkpt><trkpt lat="38.47377203255943" lon="16.25982917990162"><ele>1110.0</ele><time>2026-04-11T12:57:12.002Z</time></trkpt><trkpt lat="38.4738968169443" lon="16.25975220002518"><ele>1108.5</ele><time>2026-04-11T12:57:13.002Z</time></trkpt><trkpt lat="38.4740388589983" lon="16.25972167236984"><ele>1107.0</ele><time>2026-04-11T12:57:14.002Z</time></trkpt><trkpt lat="38.47419201527408" lon="16.25968849588905"><ele>1105.5</ele><time>2026-04-11T12:57:15.002Z</time></trkpt><trkpt lat="38.47431252173512" lon="16.259660582747813"><ele>1104.0</ele><time>2026-04-11T12:57:16.002Z</time></trkpt><trkpt lat="38.47440606115638" lon="16.259617829418346"><ele>1104.0</ele><time>2026-04-11T12:57:17.002Z</time></trkpt><trkpt lat="38.474497696982525" lon="16.25958336410675"><ele>1104.0</ele><time>2026-04-11T12:57:18.002Z</time></trkpt><trkpt lat="38.47457711322378" lon="16.259560151917704"><ele>1104.0</ele><time>2026-04-11T12:57:19.002Z</time></trkpt><trkpt lat="38.474658594309126" lon="16.259511900902535"><ele>1104.0</ele><time>2026-04-11T12:57:20.002Z</time></trkpt><trkpt lat="38.47472805873302" lon="16.259488677592223"><ele>1104.0</ele><time>2026-04-11T12:57:21.002Z</time></trkpt><trkpt lat="38.47485828755412" lon="16.2594384095039"><ele>1105.5</ele><time>2026-04-11T12:57:23.002Z</time></trkpt><trkpt lat="38.47500095358462" lon="16.259431885149684"><ele>1107.0</ele><time>2026-04-11T12:57:24.002Z</time></trkpt><trkpt lat="38.47511683046555" lon="16.259395175092106"><ele>1108.5</ele><time>2026-04-11T12:57:25.002Z</time></trkpt><trkpt lat="38.475221904667244" lon="16.259389759609274"><ele>1110.0</ele><time>2026-04-11T12:57:26.002Z</time></trkpt><trkpt lat="38.47531229515985" lon="16.259372491981452"><ele>1110.0</ele><time>2026-04-11T12:57:27.002Z</time></trkpt><trkpt lat="38.47542533522651" lon="16.259322976038295"><ele>1110.0</ele><time>2026-04-11T12:57:28.002Z</time></trkpt><trkpt lat="38.47555610411543" lon="16.259281415144017"><ele>1110.0</ele><time>2026-04-11T12:57:29.002Z</time></trkpt><trkpt lat="38.475691652957835" lon="16.259234052287287"><ele>1110.0</ele><time>2026-04-11T12:57:30.002Z</time></trkpt><trkpt lat="38.47585318249899" lon="16.259189125872027"><ele>1111.0</ele><time>2026-04-11T12:57:31.002Z</time></trkpt><trkpt lat="38.4760518343135" lon="16.2591008834641"><ele>1112.0</ele><time>2026-04-11T12:57:32.002Z</time></trkpt><trkpt lat="38.476185116306645" lon="16.25903137896616"><ele>1113.0</ele><time>2026-04-11T12:57:33.002Z</time></trkpt><trkpt lat="38.47631515380437" lon="16.258996585318073"><ele>1114.0</ele><time>2026-04-11T12:57:34.002Z</time></trkpt><trkpt lat="38.476486272391845" lon="16.258955041426585"><ele>1115.0</ele><time>2026-04-11T12:57:35.002Z</time></trkpt><trkpt lat="38.47663254715679" lon="16.258879149465475"><ele>1116.0</ele><time>2026-04-11T12:57:36.002Z</time></trkpt><trkpt lat="38.47677644566468" lon="16.258824993374944"><ele>1115.25</ele><time>2026-04-11T12:57:37.002Z</time></trkpt><trkpt lat="38.47688899569708" lon="16.258766927407237"><ele>1114.5</ele><time>2026-04-11T12:57:38.002Z</time></trkpt><trkpt lat="38.476985482188375" lon="16.258729931661"><ele>1113.75</ele><time>2026-04-11T12:57:39.002Z</time></trkpt><trkpt lat="38.477096840666256" lon="16.258670631975495"><ele>1113.0</ele><time>2026-04-11T12:57:40.002Z</time></trkpt><trkpt lat="38.47721898965509" lon="16.258614979353972"><ele>1113.0</ele><time>2026-04-11T12:57:40.999Z</time></trkpt><trkpt lat="38.477338603435285" lon="16.258562016207964"><ele>1113.0</ele><time>2026-04-11T12:57:41.999Z</time></trkpt><trkpt lat="38.47744819539122" lon="16.258533182707513"><ele>1113.0</ele><time>2026-04-11T12:57:42.999Z</time></trkpt><trkpt lat="38.47754391993884" lon="16.258509391159784"><ele>1113.0</ele><time>2026-04-11T12:57:43.999Z</time></trkpt><trkpt lat="38.477628558218875" lon="16.258476430696863"><ele>1113.0</ele><time>2026-04-11T12:57:44.999Z</time></trkpt><trkpt lat="38.477721773367975" lon="16.258438363257298"><ele>1113.0</ele><time>2026-04-11T12:57:45.999Z</time></trkpt><trkpt lat="38.477805858662954" lon="16.25838828010675"><ele>1113.0</ele><time>2026-04-11T12:57:46.999Z</time></trkpt><trkpt lat="38.477896345411985" lon="16.258354993334233"><ele>1113.0</ele><time>2026-04-11T12:57:47.999Z</time></trkpt><trkpt lat="38.47799022925886" lon="16.258309632074578"><ele>1113.0</ele><time>2026-04-11T12:57:48.999Z</time></trkpt><trkpt lat="38.47808561128158" lon="16.25823809430406"><ele>1113.0</ele><time>2026-04-11T12:57:49.999Z</time></trkpt><trkpt lat="38.47816354593956" lon="16.258176286093896"><ele>1114.5</ele><time>2026-04-11T12:57:51Z</time></trkpt><trkpt lat="38.478252860811544" lon="16.258094953370847"><ele>1116.0</ele><time>2026-04-11T12:57:52Z</time></trkpt><trkpt lat="38.47837878857171" lon="16.257969785033602"><ele>1117.5</ele><time>2026-04-11T12:57:53Z</time></trkpt><trkpt lat="38.47848100015074" lon="16.25789435184462"><ele>1119.0</ele><time>2026-04-11T12:57:54Z</time></trkpt><trkpt lat="38.478577895705364" lon="16.25781089436894"><ele>1119.0</ele><time>2026-04-11T12:57:55Z</time></trkpt><trkpt lat="38.47867898735774" lon="16.257767276063525"><ele>1119.0</ele><time>2026-04-11T12:57:56Z</time></trkpt><trkpt lat="38.4787631894028" lon="16.257679871458684"><ele>1119.0</ele><time>2026-04-11T12:57:57Z</time></trkpt><trkpt lat="38.47883475065718" lon="16.257588525470947"><ele>1119.0</ele><time>2026-04-11T12:57:58Z</time></trkpt><trkpt lat="38.478895918070926" lon="16.257515878036372"><ele>1119.0</ele><time>2026-04-11T12:57:59Z</time></trkpt><trkpt lat="38.478954607191056" lon="16.257411416407557"><ele>1119.5</ele><time>2026-04-11T12:58:00Z</time></trkpt><trkpt lat="38.479039890483264" lon="16.257313118936562"><ele>1120.0</ele><time>2026-04-11T12:58:01Z</time></trkpt><trkpt lat="38.47913474219426" lon="16.257230496156133"><ele>1120.5</ele><time>2026-04-11T12:58:02Z</time></trkpt><trkpt lat="38.47924491894098" lon="16.257097882615255"><ele>1121.0</ele><time>2026-04-11T12:58:03Z</time></trkpt><trkpt lat="38.47934714035161" lon="16.256975890172242"><ele>1121.0</ele><time>2026-04-11T12:58:04Z</time></trkpt><trkpt lat="38.479438448716486" lon="16.256880711872203"><ele>1121.0</ele><time>2026-04-11T12:58:05Z</time></trkpt><trkpt lat="38.47952620003382" lon="16.256787008711687"><ele>1121.0</ele><time>2026-04-11T12:58:06Z</time></trkpt><trkpt lat="38.4795890838425" lon="16.256703913436116"><ele>1121.0</ele><time>2026-04-11T12:58:07Z</time></trkpt><trkpt lat="38.47966950892735" lon="16.256598067822374"><ele>1121.0</ele><time>2026-04-11T12:58:08Z</time></trkpt><trkpt lat="38.47978924246297" lon="16.256473842485974"><ele>1121.25</ele><time>2026-04-11T12:58:09Z</time></trkpt><trkpt lat="38.4798967978268" lon="16.25635415514743"><ele>1121.5</ele><time>2026-04-11T12:58:10Z</time></trkpt><trkpt lat="38.48001570843301" lon="16.25622213427771"><ele>1121.75</ele><time>2026-04-11T12:58:11Z</time></trkpt><trkpt lat="38.48010556760429" lon="16.256086384799065"><ele>1122.0</ele><time>2026-04-11T12:58:12Z</time></trkpt><trkpt lat="38.48018888570402" lon="16.25595093429268"><ele>1122.0</ele><time>2026-04-11T12:58:13Z</time></trkpt><trkpt lat="38.480227418471955" lon="16.25587830877201"><ele>1122.0</ele><time>2026-04-11T12:58:14Z</time></trkpt><trkpt lat="38.480277496555246" lon="16.255828961181887"><ele>1122.0</ele><time>2026-04-11T12:58:15Z</time></trkpt><trkpt lat="38.48037764809084" lon="16.255800398259485"><ele>1122.0</ele><time>2026-04-11T12:58:17Z</time></trkpt><trkpt lat="38.48045410904374" lon="16.25575675935361"><ele>1122.0</ele><time>2026-04-11T12:58:19Z</time></trkpt><trkpt lat="38.480502214531704" lon="16.255685675127573"><ele>1122.0</ele><time>2026-04-11T12:58:45.001Z</time></trkpt><trkpt lat="38.48058907792277" lon="16.25568850394243"><ele>1123.2857142857142</ele><time>2026-04-11T12:58:47.001Z</time></trkpt><trkpt lat="38.48066036101634" lon="16.255686763846853"><ele>1124.5714285714284</ele><time>2026-04-11T12:58:48.001Z</time></trkpt><trkpt lat="38.480720477463606" lon="16.25565611915007"><ele>1125.857142857143</ele><time>2026-04-11T12:58:49.001Z</time></trkpt><trkpt lat="38.480795064108335" lon="16.2556532981213"><ele>1127.142857142857</ele><time>2026-04-11T12:58:50.001Z</time></trkpt><trkpt lat="38.48086293851198" lon="16.25565805095913"><ele>1128.4285714285716</ele><time>2026-04-11T12:58:51.001Z</time></trkpt><trkpt lat="38.48094088525013" lon="16.255672554536357"><ele>1129.7142857142858</ele><time>2026-04-11T12:58:52.001Z</time></trkpt><trkpt lat="38.48102647438303" lon="16.255692010725095"><ele>1131.0</ele><time>2026-04-11T12:58:53.001Z</time></trkpt><trkpt lat="38.48109806206951" lon="16.255693175952224"><ele>1131.0</ele><time>2026-04-11T12:58:54.001Z</time></trkpt><trkpt lat="38.481172297606506" lon="16.255668292669625"><ele>1131.0</ele><time>2026-04-11T12:58:55.001Z</time></trkpt><trkpt lat="38.481250803438826" lon="16.255642220035718"><ele>1131.0</ele><time>2026-04-11T12:58:56.001Z</time></trkpt><trkpt lat="38.481341146066725" lon="16.255663669898034"><ele>1131.0</ele><time>2026-04-11T12:58:57.001Z</time></trkpt><trkpt lat="38.48140413917957" lon="16.255694758999216"><ele>1131.0</ele><time>2026-04-11T12:58:58.001Z</time></trkpt><trkpt lat="38.48146771108022" lon="16.255712477259383"><ele>1131.0</ele><time>2026-04-11T12:58:59.001Z</time></trkpt><trkpt lat="38.481535820966144" lon="16.255693276424946"><ele>1132.0</ele><time>2026-04-11T12:59:00.001Z</time></trkpt><trkpt lat="38.48167672331044" lon="16.25567860818954"><ele>1133.0</ele><time>2026-04-11T12:59:02.001Z</time></trkpt><trkpt lat="38.48179229485285" lon="16.25565396818336"><ele>1134.0</ele><time>2026-04-11T12:59:04.001Z</time></trkpt><trkpt lat="38.48192055625714" lon="16.255601364922324"><ele>1135.0</ele><time>2026-04-11T12:59:06.001Z</time></trkpt><trkpt lat="38.48201552510061" lon="16.255529494199745"><ele>1135.4</ele><time>2026-04-11T12:59:07.001Z</time></trkpt><trkpt lat="38.4820867613991" lon="16.255429221017934"><ele>1135.8</ele><time>2026-04-11T12:59:08.001Z</time></trkpt><trkpt lat="38.48217395167692" lon="16.255314113774094"><ele>1136.2</ele><time>2026-04-11T12:59:09.001Z</time></trkpt><trkpt lat="38.4822410237694" lon="16.255193590144643"><ele>1136.6</ele><time>2026-04-11T12:59:10.001Z</time></trkpt><trkpt lat="38.48229731070161" lon="16.255104228818077"><ele>1137.0</ele><time>2026-04-11T12:59:11.001Z</time></trkpt><trkpt lat="38.48236769676296" lon="16.255056624289598"><ele>1138.6</ele><time>2026-04-11T12:59:12.001Z</time></trkpt><trkpt lat="38.48248749311734" lon="16.254994574290183"><ele>1140.2</ele><time>2026-04-11T12:59:14.002Z</time></trkpt><trkpt lat="38.48256852706524" lon="16.254952347973255"><ele>1141.8</ele><time>2026-04-11T12:59:15.002Z</time></trkpt><trkpt lat="38.48265987986098" lon="16.254894255455064"><ele>1143.4</ele><time>2026-04-11T12:59:17.002Z</time></trkpt><trkpt lat="38.48268639024736" lon="16.254789994210743"><ele>1145.0</ele><time>2026-04-11T12:59:19.002Z</time></trkpt><trkpt lat="38.48269461763392" lon="16.254701510193684"><ele>1145.1666666666667</ele><time>2026-04-11T12:59:20.002Z</time></trkpt><trkpt lat="38.48270408355132" lon="16.25459301056358"><ele>1145.3333333333335</ele><time>2026-04-11T12:59:21.002Z</time></trkpt><trkpt lat="38.482661457830254" lon="16.254490379540716"><ele>1145.5</ele><time>2026-04-11T12:59:22.002Z</time></trkpt><trkpt lat="38.48266770325521" lon="16.25438053264353"><ele>1145.6666666666667</ele><time>2026-04-11T12:59:23.002Z</time></trkpt><trkpt lat="38.482678892012004" lon="16.25429429255102"><ele>1145.8333333333333</ele><time>2026-04-11T12:59:24.002Z</time></trkpt><trkpt lat="38.48277325940253" lon="16.254319069409036"><ele>1146.0</ele><time>2026-04-11T12:59:27.002Z</time></trkpt><trkpt lat="38.48282254379734" lon="16.254449820432253"><ele>1146.0</ele><time>2026-04-11T12:59:29.002Z</time></trkpt><trkpt lat="38.48287014069766" lon="16.25454213392096"><ele>1146.0</ele><time>2026-04-11T12:59:30.002Z</time></trkpt><trkpt lat="38.482965943986365" lon="16.254592050285375"><ele>1146.0</ele><time>2026-04-11T12:59:32.002Z</time></trkpt><trkpt lat="38.48303425613943" lon="16.254613660399443"><ele>1146.0</ele><time>2026-04-11T12:59:33.002Z</time></trkpt><trkpt lat="38.4831213834668" lon="16.254631943239627"><ele>1146.0</ele><time>2026-04-11T12:59:34.002Z</time></trkpt><trkpt lat="38.48320836893582" lon="16.25464139918068"><ele>1146.0</ele><time>2026-04-11T12:59:35.002Z</time></trkpt><trkpt lat="38.483296329194296" lon="16.254596411276996"><ele>1149.6</ele><time>2026-04-11T12:59:38.002Z</time></trkpt><trkpt lat="38.48341473197612" lon="16.254518549476924"><ele>1153.1999999999998</ele><time>2026-04-11T12:59:40.002Z</time></trkpt><trkpt lat="38.48353258842924" lon="16.254481464993727"><ele>1156.8000000000002</ele><time>2026-04-11T12:59:42.002Z</time></trkpt><trkpt lat="38.4835953987269" lon="16.254409315831126"><ele>1160.4</ele><time>2026-04-11T12:59:43.002Z</time></trkpt><trkpt lat="38.483673437097856" lon="16.254320237219577"><ele>1164.0</ele><time>2026-04-11T12:59:44.002Z</time></trkpt><trkpt lat="38.48375093756849" lon="16.254219282445465"><ele>1165.0</ele><time>2026-04-11T12:59:45.002Z</time></trkpt><trkpt lat="38.48380777650594" lon="16.254155400562976"><ele>1166.0</ele><time>2026-04-11T12:59:47.001Z</time></trkpt><trkpt lat="38.48385022376051" lon="16.254073830599985"><ele>1167.0</ele><time>2026-04-11T12:59:48.001Z</time></trkpt><trkpt lat="38.48387818896119" lon="16.253991367886258"><ele>1168.0</ele><time>2026-04-11T12:59:49.001Z</time></trkpt><trkpt lat="38.48393441037662" lon="16.253894274810246"><ele>1169.0</ele><time>2026-04-11T12:59:50.001Z</time></trkpt><trkpt lat="38.48406003728485" lon="16.253845467810894"><ele>1170.0</ele><time>2026-04-11T12:59:51.001Z</time></trkpt><trkpt lat="38.484170096915555" lon="16.25377860728114"><ele>1170.0</ele><time>2026-04-11T12:59:52.001Z</time></trkpt><trkpt lat="38.484283651687356" lon="16.25371404754271"><ele>1170.0</ele><time>2026-04-11T12:59:53.001Z</time></trkpt><trkpt lat="38.484364024368006" lon="16.25366437603058"><ele>1170.0</ele><time>2026-04-11T12:59:54.001Z</time></trkpt><trkpt lat="38.484434288546765" lon="16.253617329190604"><ele>1170.0</ele><time>2026-04-11T12:59:55.001Z</time></trkpt><trkpt lat="38.484498356571656" lon="16.253555390901855"><ele>1170.0</ele><time>2026-04-11T12:59:56.001Z</time></trkpt><trkpt lat="38.48455116887922" lon="16.25347708262395"><ele>1170.0</ele><time>2026-04-11T12:59:57.001Z</time></trkpt><trkpt lat="38.48457494632089" lon="16.253362458949503"><ele>1170.0</ele><time>2026-04-11T12:59:59.001Z</time></trkpt><trkpt lat="38.484562057437515" lon="16.25324603825492"><ele>1170.0</ele><time>2026-04-11T13:00:00.001Z</time></trkpt><trkpt lat="38.48453838018678" lon="16.25313928648505"><ele>1170.0</ele><time>2026-04-11T13:00:01.001Z</time></trkpt><trkpt lat="38.48451955399892" lon="16.253003671475547"><ele>1170.0</ele><time>2026-04-11T13:00:02.001Z</time></trkpt><trkpt lat="38.48450655978672" lon="16.25287070119376"><ele>1170.8</ele><time>2026-04-11T13:00:03.001Z</time></trkpt><trkpt lat="38.48447782709622" lon="16.25276836528199"><ele>1171.6</ele><time>2026-04-11T13:00:04.001Z</time></trkpt><trkpt lat="38.48447720292008" lon="16.252602936772163"><ele>1172.4</ele><time>2026-04-11T13:00:05.001Z</time></trkpt><trkpt lat="38.48450432466352" lon="16.252479511600864"><ele>1173.2</ele><time>2026-04-11T13:00:06.001Z</time></trkpt><trkpt lat="38.48451208911223" lon="16.252383574936246"><ele>1174.0</ele><time>2026-04-11T13:00:07.001Z</time></trkpt><trkpt lat="38.4845132240501" lon="16.252293059477964"><ele>1174.8333333333333</ele><time>2026-04-11T13:00:08.001Z</time></trkpt><trkpt lat="38.48453605818028" lon="16.2522000758958"><ele>1175.6666666666665</ele><time>2026-04-11T13:00:09.001Z</time></trkpt><trkpt lat="38.48456879485584" lon="16.252128492171046"><ele>1176.5</ele><time>2026-04-11T13:00:10.001Z</time></trkpt><trkpt lat="38.48457279907079" lon="16.25200574733503"><ele>1177.3333333333333</ele><time>2026-04-11T13:00:11.001Z</time></trkpt><trkpt lat="38.484640524117744" lon="16.25193466333601"><ele>1178.1666666666667</ele><time>2026-04-11T13:00:12.001Z</time></trkpt><trkpt lat="38.48466901856308" lon="16.25185993255743"><ele>1179.0</ele><time>2026-04-11T13:00:13.001Z</time></trkpt><trkpt lat="38.4846969130606" lon="16.25178001955448"><ele>1182.4</ele><time>2026-04-11T13:00:14.001Z</time></trkpt><trkpt lat="38.484779367321465" lon="16.251732668832528"><ele>1185.8000000000002</ele><time>2026-04-11T13:00:16.001Z</time></trkpt><trkpt lat="38.4848830621711" lon="16.25174820717212"><ele>1189.1999999999998</ele><time>2026-04-11T13:00:18.001Z</time></trkpt><trkpt lat="38.484988106724295" lon="16.251747210984423"><ele>1192.6</ele><time>2026-04-11T13:00:20.001Z</time></trkpt><trkpt lat="38.485099758942816" lon="16.25169312397815"><ele>1196.0</ele><time>2026-04-11T13:00:22.001Z</time></trkpt><trkpt lat="38.48518609162553" lon="16.251644692720756"><ele>1196.0</ele><time>2026-04-11T13:00:23.001Z</time></trkpt><trkpt lat="38.48526781573587" lon="16.2516017215828"><ele>1196.0</ele><time>2026-04-11T13:00:24.001Z</time></trkpt><trkpt lat="38.48536291055926" lon="16.251500435541786"><ele>1196.0</ele><time>2026-04-11T13:00:25.001Z</time></trkpt><trkpt lat="38.48545769151755" lon="16.251409054972285"><ele>1196.0</ele><time>2026-04-11T13:00:26.001Z</time></trkpt><trkpt lat="38.48553056364428" lon="16.251373141759426"><ele>1196.0</ele><time>2026-04-11T13:00:27.001Z</time></trkpt><trkpt lat="38.48561633115393" lon="16.251329444898687"><ele>1197.1666666666667</ele><time>2026-04-11T13:00:28.001Z</time></trkpt><trkpt lat="38.48567982827275" lon="16.251277590392313"><ele>1198.3333333333335</ele><time>2026-04-11T13:00:29.001Z</time></trkpt><trkpt lat="38.48573632959643" lon="16.25122801423721"><ele>1199.5</ele><time>2026-04-11T13:00:30.001Z</time></trkpt><trkpt lat="38.48577164820563" lon="16.25115085138629"><ele>1200.6666666666667</ele><time>2026-04-11T13:00:31.001Z</time></trkpt><trkpt lat="38.48581199228879" lon="16.25100725777253"><ele>1201.8333333333333</ele><time>2026-04-11T13:00:32.001Z</time></trkpt><trkpt lat="38.48586062713549" lon="16.25094070775482"><ele>1203.0</ele><time>2026-04-11T13:00:33.001Z</time></trkpt><trkpt lat="38.485925969330054" lon="16.250880137226797"><ele>1203.0</ele><time>2026-04-11T13:00:34.001Z</time></trkpt><trkpt lat="38.48600760571723" lon="16.250834832215926"><ele>1203.0</ele><time>2026-04-11T13:00:35.001Z</time></trkpt><trkpt lat="38.48606816037905" lon="16.25073720295027"><ele>1203.0</ele><time>2026-04-11T13:00:36.001Z</time></trkpt><trkpt lat="38.48615755910755" lon="16.25062627101285"><ele>1203.0</ele><time>2026-04-11T13:00:37.001Z</time></trkpt><trkpt lat="38.48623976230929" lon="16.250538827984336"><ele>1203.0</ele><time>2026-04-11T13:00:38.001Z</time></trkpt><trkpt lat="38.48629381755113" lon="16.250464783474857"><ele>1203.8333333333333</ele><time>2026-04-11T13:00:39.001Z</time></trkpt><trkpt lat="38.486307662552335" lon="16.25038229276483"><ele>1204.6666666666667</ele><time>2026-04-11T13:00:40.001Z</time></trkpt><trkpt lat="38.48629931128253" lon="16.250264245661253"><ele>1205.5</ele><time>2026-04-11T13:00:42.001Z</time></trkpt><trkpt lat="38.48622232836654" lon="16.25019143564443"><ele>1206.3333333333335</ele><time>2026-04-11T13:00:44.001Z</time></trkpt><trkpt lat="38.48620783830787" lon="16.250111729836703"><ele>1207.1666666666667</ele><time>2026-04-11T13:00:45.001Z</time></trkpt><trkpt lat="38.48615327767828" lon="16.250029050058263"><ele>1208.0</ele><time>2026-04-11T13:00:46.001Z</time></trkpt><trkpt lat="38.48611254058333" lon="16.249828178179925"><ele>1210.0</ele><time>2026-04-11T13:00:48.001Z</time></trkpt><trkpt lat="38.48611652179119" lon="16.249747695760195"><ele>1212.0</ele><time>2026-04-11T13:00:49.001Z</time></trkpt><trkpt lat="38.48609552844273" lon="16.249652252701285"><ele>1214.0</ele><time>2026-04-11T13:00:50.001Z</time></trkpt><trkpt lat="38.48603983445497" lon="16.24952796059824"><ele>1216.0</ele><time>2026-04-11T13:00:51.001Z</time></trkpt><trkpt lat="38.48600423666821" lon="16.249411284106955"><ele>1218.0</ele><time>2026-04-11T13:00:52.001Z</time></trkpt><trkpt lat="38.4859965446529" lon="16.24929560034946"><ele>1220.0</ele><time>2026-04-11T13:00:53.001Z</time></trkpt><trkpt lat="38.48594994148591" lon="16.249153788720413"><ele>1220.0</ele><time>2026-04-11T13:00:54.001Z</time></trkpt><trkpt lat="38.48591529462033" lon="16.24904795926078"><ele>1220.0</ele><time>2026-04-11T13:00:55.001Z</time></trkpt><trkpt lat="38.48590358166246" lon="16.248943955763902"><ele>1220.0</ele><time>2026-04-11T13:00:56.001Z</time></trkpt><trkpt lat="38.4859208815938" lon="16.248775269743387"><ele>1220.0</ele><time>2026-04-11T13:00:58.001Z</time></trkpt><trkpt lat="38.485983236948016" lon="16.24870126264582"><ele>1220.0</ele><time>2026-04-11T13:00:59.001Z</time></trkpt><trkpt lat="38.48606795045021" lon="16.24862139299817"><ele>1220.0</ele><time>2026-04-11T13:01:00.001Z</time></trkpt><trkpt lat="38.48614393242215" lon="16.248594316747518"><ele>1220.0</ele><time>2026-04-11T13:01:01.001Z</time></trkpt><trkpt lat="38.486217805076556" lon="16.248606154261136"><ele>1220.0</ele><time>2026-04-11T13:01:02.001Z</time></trkpt><trkpt lat="38.486305422002765" lon="16.248643029818425"><ele>1220.0</ele><time>2026-04-11T13:01:03.002Z</time></trkpt><trkpt lat="38.48641977816784" lon="16.24868406456334"><ele>1220.0</ele><time>2026-04-11T13:01:04.002Z</time></trkpt><trkpt lat="38.48649180514672" lon="16.248708535462075"><ele>1220.0</ele><time>2026-04-11T13:01:05.002Z</time></trkpt><trkpt lat="38.486626840086466" lon="16.24870652935203"><ele>1223.0</ele><time>2026-04-11T13:01:07.002Z</time></trkpt><trkpt lat="38.48672057313378" lon="16.248668902719217"><ele>1226.0</ele><time>2026-04-11T13:01:08.002Z</time></trkpt><trkpt lat="38.48680344508646" lon="16.248650795367993"><ele>1229.0</ele><time>2026-04-11T13:01:09.002Z</time></trkpt><trkpt lat="38.48689926466207" lon="16.248621994094115"><ele>1232.0</ele><time>2026-04-11T13:01:10.002Z</time></trkpt><trkpt lat="38.48697737509193" lon="16.248569269766556"><ele>1235.0</ele><time>2026-04-11T13:01:11.002Z</time></trkpt><trkpt lat="38.48707176837512" lon="16.248476777482512"><ele>1237.0</ele><time>2026-04-11T13:01:13.002Z</time></trkpt><trkpt lat="38.48712624699544" lon="16.248354413290055"><ele>1239.0</ele><time>2026-04-11T13:01:14.002Z</time></trkpt><trkpt lat="38.48717596903918" lon="16.24828023377739"><ele>1241.0</ele><time>2026-04-11T13:01:15.002Z</time></trkpt><trkpt lat="38.48725627098925" lon="16.248150667926645"><ele>1243.0</ele><time>2026-04-11T13:01:17.002Z</time></trkpt><trkpt lat="38.487342926331515" lon="16.24809181163422"><ele>1245.0</ele><time>2026-04-11T13:01:19.002Z</time></trkpt><trkpt lat="38.487394397933265" lon="16.248002983423625"><ele>1246.3333333333333</ele><time>2026-04-11T13:01:20.002Z</time></trkpt><trkpt lat="38.48741770916596" lon="16.247913105385337"><ele>1247.6666666666667</ele><time>2026-04-11T13:01:21.002Z</time></trkpt><trkpt lat="38.487456005860295" lon="16.24781989277489"><ele>1249.0</ele><time>2026-04-11T13:01:22.002Z</time></trkpt><trkpt lat="38.487462475268295" lon="16.247731182642372"><ele>1250.3333333333335</ele><time>2026-04-11T13:01:23.002Z</time></trkpt><trkpt lat="38.487485469292196" lon="16.247642586173132"><ele>1251.6666666666667</ele><time>2026-04-11T13:01:24.002Z</time></trkpt><trkpt lat="38.48751641355858" lon="16.247544962296477"><ele>1253.0</ele><time>2026-04-11T13:01:25.002Z</time></trkpt><trkpt lat="38.48755643294242" lon="16.24740613351995"><ele>1253.0</ele><time>2026-04-11T13:01:26.002Z</time></trkpt><trkpt lat="38.48756863044019" lon="16.247300623050645"><ele>1253.0</ele><time>2026-04-11T13:01:27.002Z</time></trkpt><trkpt lat="38.48758188089628" lon="16.2471843950776"><ele>1253.0</ele><time>2026-04-11T13:01:28.002Z</time></trkpt><trkpt lat="38.4875522583893" lon="16.247072794060767"><ele>1253.0</ele><time>2026-04-11T13:01:29.002Z</time></trkpt><trkpt lat="38.48750585618066" lon="16.24699012244105"><ele>1253.0</ele><time>2026-04-11T13:01:31.002Z</time></trkpt><trkpt lat="38.48745566751048" lon="16.246880565535957"><ele>1253.0</ele><time>2026-04-11T13:01:33.002Z</time></trkpt><trkpt lat="38.48744573804455" lon="16.246741073089897"><ele>1255.2</ele><time>2026-04-11T13:01:35.002Z</time></trkpt><trkpt lat="38.487458526601195" lon="16.246640163423166"><ele>1257.4</ele><time>2026-04-11T13:01:36.002Z</time></trkpt><trkpt lat="38.4874540170451" lon="16.24653523039471"><ele>1259.6000000000001</ele><time>2026-04-11T13:01:37.002Z</time></trkpt><trkpt lat="38.487481374001156" lon="16.246412614214076"><ele>1261.8</ele><time>2026-04-11T13:01:38.002Z</time></trkpt><trkpt lat="38.48757418338988" lon="16.246333410117376"><ele>1264.0</ele><time>2026-04-11T13:01:40.002Z</time></trkpt><trkpt lat="38.48771672765258" lon="16.24619757335048"><ele>1265.0</ele><time>2026-04-11T13:01:42.002Z</time></trkpt><trkpt lat="38.487854823491574" lon="16.246119099792377"><ele>1266.0</ele><time>2026-04-11T13:01:43.002Z</time></trkpt><trkpt lat="38.48792632989189" lon="16.24606698410238"><ele>1267.0</ele><time>2026-04-11T13:01:44.002Z</time></trkpt><trkpt lat="38.48796143122804" lon="16.24598998089947"><ele>1268.0</ele><time>2026-04-11T13:01:45.002Z</time></trkpt><trkpt lat="38.48802563408467" lon="16.245940490656885"><ele>1269.0</ele><time>2026-04-11T13:01:46.002Z</time></trkpt><trkpt lat="38.48807973011302" lon="16.245895659558617"><ele>1270.0</ele><time>2026-04-11T13:01:47.002Z</time></trkpt><trkpt lat="38.48815643633726" lon="16.245872938191262"><ele>1270.0</ele><time>2026-04-11T13:01:48.002Z</time></trkpt><trkpt lat="38.488246380475125" lon="16.245840620676894"><ele>1270.0</ele><time>2026-04-11T13:01:50.002Z</time></trkpt><trkpt lat="38.488317532291546" lon="16.245813743952763"><ele>1270.0</ele><time>2026-04-11T13:01:54.001Z</time></trkpt><trkpt lat="38.488392127266984" lon="16.245792351971936"><ele>1270.0</ele><time>2026-04-11T13:02:44.001Z</time></trkpt><trkpt lat="38.48847665838359" lon="16.245787945792546"><ele>1270.0</ele><time>2026-04-11T13:02:46.001Z</time></trkpt><trkpt lat="38.48854010904845" lon="16.245769116871294"><ele>1270.0</ele><time>2026-04-11T13:02:48.001Z</time></trkpt><trkpt lat="38.48860864540216" lon="16.245755931790338"><ele>1270.0</ele><time>2026-04-11T13:02:50.001Z</time></trkpt><trkpt lat="38.488727776153546" lon="16.24570184697744"><ele>1270.0</ele><time>2026-04-11T13:02:52.001Z</time></trkpt><trkpt lat="38.48883188356698" lon="16.24569449904678"><ele>1270.0</ele><time>2026-04-11T13:02:53.001Z</time></trkpt><trkpt lat="38.48899330738165" lon="16.245702424431112"><ele>1270.0</ele><time>2026-04-11T13:02:54.001Z</time></trkpt><trkpt lat="38.48912190401832" lon="16.24572519487506"><ele>1271.6</ele><time>2026-04-11T13:02:55.001Z</time></trkpt><trkpt lat="38.48923440887254" lon="16.24571608677614"><ele>1273.2</ele><time>2026-04-11T13:02:56.001Z</time></trkpt><trkpt lat="38.48933736618505" lon="16.245737623883794"><ele>1274.8</ele><time>2026-04-11T13:02:57.001Z</time></trkpt><trkpt lat="38.48941678592882" lon="16.245765494768808"><ele>1276.4</ele><time>2026-04-11T13:02:58.001Z</time></trkpt><trkpt lat="38.48949388337435" lon="16.245809088526048"><ele>1278.0</ele><time>2026-04-11T13:02:59.001Z</time></trkpt><trkpt lat="38.48948499819398" lon="16.245907976766773"><ele>1278.0</ele><time>2026-04-11T13:03:00.001Z</time></trkpt><trkpt lat="38.489574675214485" lon="16.24595465340829"><ele>1278.0</ele><time>2026-04-11T13:03:02.001Z</time></trkpt><trkpt lat="38.489643896300514" lon="16.245946789694184"><ele>1278.0</ele><time>2026-04-11T13:03:04.001Z</time></trkpt><trkpt lat="38.48973812197261" lon="16.24590698568571"><ele>1278.0</ele><time>2026-04-11T13:03:07.001Z</time></trkpt><trkpt lat="38.489852249059844" lon="16.24594766152377"><ele>1278.0</ele><time>2026-04-11T13:03:09.002Z</time></trkpt><trkpt lat="38.48996422211613" lon="16.245978175543826"><ele>1277.1666666666667</ele><time>2026-04-11T13:03:11.002Z</time></trkpt><trkpt lat="38.49005223645329" lon="16.245924997361797"><ele>1276.3333333333333</ele><time>2026-04-11T13:03:12.002Z</time></trkpt><trkpt lat="38.49010711814563" lon="16.245854831541656"><ele>1275.5</ele><time>2026-04-11T13:03:13.002Z</time></trkpt><trkpt lat="38.490166682534486" lon="16.245796037358605"><ele>1274.6666666666665</ele><time>2026-04-11T13:03:14.002Z</time></trkpt><trkpt lat="38.490218405991335" lon="16.245741487559528"><ele>1273.8333333333333</ele><time>2026-04-11T13:03:15.002Z</time></trkpt><trkpt lat="38.490273872984396" lon="16.245698370310947"><ele>1273.0</ele><time>2026-04-11T13:03:16.002Z</time></trkpt><trkpt lat="38.490367225998284" lon="16.245592666957062"><ele>1272.0</ele><time>2026-04-11T13:03:18.002Z</time></trkpt><trkpt lat="38.490433429431526" lon="16.245505590194373"><ele>1271.0</ele><time>2026-04-11T13:03:20.002Z</time></trkpt><trkpt lat="38.490459739782324" lon="16.24539279746038"><ele>1270.0</ele><time>2026-04-11T13:03:22.002Z</time></trkpt><trkpt lat="38.490498554720595" lon="16.245308329225814"><ele>1269.0</ele><time>2026-04-11T13:03:23.002Z</time></trkpt><trkpt lat="38.490519722195366" lon="16.245134292822996"><ele>1268.0</ele><time>2026-04-11T13:03:25.002Z</time></trkpt><trkpt lat="38.49055453893263" lon="16.24500687889465"><ele>1268.0</ele><time>2026-04-11T13:03:26.002Z</time></trkpt><trkpt lat="38.490577196154675" lon="16.244891250004027"><ele>1268.0</ele><time>2026-04-11T13:03:28.002Z</time></trkpt><trkpt lat="38.49063375196268" lon="16.244811145117367"><ele>1268.0</ele><time>2026-04-11T13:03:31.002Z</time></trkpt><trkpt lat="38.4906809848092" lon="16.244661705009904"><ele>1268.0</ele><time>2026-04-11T13:03:57.002Z</time></trkpt><trkpt lat="38.490687532700214" lon="16.244552620837524"><ele>1268.0</ele><time>2026-04-11T13:04:00.001Z</time></trkpt><trkpt lat="38.49072025439627" lon="16.244398826756257"><ele>1266.0</ele><time>2026-04-11T13:04:01.001Z</time></trkpt><trkpt lat="38.49073694828972" lon="16.244312167103576"><ele>1264.0</ele><time>2026-04-11T13:04:02.001Z</time></trkpt><trkpt lat="38.49076571825871" lon="16.24421993006931"><ele>1262.0</ele><time>2026-04-11T13:04:03.001Z</time></trkpt><trkpt lat="38.49081080995542" lon="16.244116083946547"><ele>1260.0</ele><time>2026-04-11T13:04:04.001Z</time></trkpt><trkpt lat="38.49087229406808" lon="16.24400066918066"><ele>1258.0</ele><time>2026-04-11T13:04:05.001Z</time></trkpt><trkpt lat="38.49093911684424" lon="16.24386877641778"><ele>1258.1666666666665</ele><time>2026-04-11T13:04:06.001Z</time></trkpt><trkpt lat="38.49099241694267" lon="16.24374068496061"><ele>1258.3333333333333</ele><time>2026-04-11T13:04:07.001Z</time></trkpt><trkpt lat="38.49104789351711" lon="16.243687341079454"><ele>1258.5</ele><time>2026-04-11T13:04:08.001Z</time></trkpt><trkpt lat="38.491124140824375" lon="16.243663375473158"><ele>1258.6666666666667</ele><time>2026-04-11T13:04:09.001Z</time></trkpt><trkpt lat="38.49119339754428" lon="16.243652144066907"><ele>1258.8333333333335</ele><time>2026-04-11T13:04:10.001Z</time></trkpt><trkpt lat="38.49128903959486" lon="16.24363465769302"><ele>1259.0</ele><time>2026-04-11T13:04:11.001Z</time></trkpt><trkpt lat="38.49135195950851" lon="16.243536102037588"><ele>1259.0</ele><time>2026-04-11T13:04:12.001Z</time></trkpt><trkpt lat="38.491389873997896" lon="16.243396561062358"><ele>1259.0</ele><time>2026-04-11T13:04:13.001Z</time></trkpt><trkpt lat="38.491441853714655" lon="16.243255563460238"><ele>1259.0</ele><time>2026-04-11T13:04:14.001Z</time></trkpt><trkpt lat="38.49144444322533" lon="16.243093254870484"><ele>1259.0</ele><time>2026-04-11T13:04:15.001Z</time></trkpt><trkpt lat="38.491460108099645" lon="16.24294649639242"><ele>1256.1666666666667</ele><time>2026-04-11T13:04:16.001Z</time></trkpt><trkpt lat="38.49148468406642" lon="16.242830964582115"><ele>1253.3333333333335</ele><time>2026-04-11T13:04:17.001Z</time></trkpt><trkpt lat="38.49151147928267" lon="16.24273866981425"><ele>1250.5</ele><time>2026-04-11T13:04:18.001Z</time></trkpt><trkpt lat="38.49156845623078" lon="16.242676392387"><ele>1247.6666666666667</ele><time>2026-04-11T13:04:19.001Z</time></trkpt><trkpt lat="38.491650111110935" lon="16.242635261551055"><ele>1244.8333333333333</ele><time>2026-04-11T13:04:20.001Z</time></trkpt><trkpt lat="38.49174111123872" lon="16.242560262820135"><ele>1242.0</ele><time>2026-04-11T13:04:21.001Z</time></trkpt><trkpt lat="38.49179187203472" lon="16.242487454673043"><ele>1242.0</ele><time>2026-04-11T13:04:22.001Z</time></trkpt><trkpt lat="38.491862441246944" lon="16.242436374063356"><ele>1242.0</ele><time>2026-04-11T13:04:24.001Z</time></trkpt><trkpt lat="38.49199089451183" lon="16.24243713820951"><ele>1242.0</ele><time>2026-04-11T13:04:33.001Z</time></trkpt><trkpt lat="38.49208529797083" lon="16.24240666621084"><ele>1242.0</ele><time>2026-04-11T13:04:37.001Z</time></trkpt><trkpt lat="38.492150285859644" lon="16.242440804822795"><ele>1242.0</ele><time>2026-04-11T13:04:38.001Z</time></trkpt><trkpt lat="38.49222270723148" lon="16.242469787786202"><ele>1242.5</ele><time>2026-04-11T13:04:39.001Z</time></trkpt><trkpt lat="38.49228828632567" lon="16.242516747040707"><ele>1243.0</ele><time>2026-04-11T13:04:41.001Z</time></trkpt><trkpt lat="38.49248516824092" lon="16.2424944938079"><ele>1243.5</ele><time>2026-04-11T13:04:43.001Z</time></trkpt><trkpt lat="38.49261092482968" lon="16.24255124855958"><ele>1244.0</ele><time>2026-04-11T13:04:44.001Z</time></trkpt><trkpt lat="38.49272803723669" lon="16.24257786282977"><ele>1244.0</ele><time>2026-04-11T13:04:45.001Z</time></trkpt><trkpt lat="38.492858294199365" lon="16.242627073277003"><ele>1244.0</ele><time>2026-04-11T13:04:46.001Z</time></trkpt><trkpt lat="38.49295600711084" lon="16.242691421837243"><ele>1244.0</ele><time>2026-04-11T13:04:47.001Z</time></trkpt><trkpt lat="38.49307708222359" lon="16.242740552546465"><ele>1244.0</ele><time>2026-04-11T13:04:48.001Z</time></trkpt><trkpt lat="38.49318258741205" lon="16.242769441810985"><ele>1242.2</ele><time>2026-04-11T13:04:49.001Z</time></trkpt><trkpt lat="38.49327561551325" lon="16.24281153695159"><ele>1240.4</ele><time>2026-04-11T13:04:50.001Z</time></trkpt><trkpt lat="38.49337644109329" lon="16.242833682113968"><ele>1238.6</ele><time>2026-04-11T13:04:51.001Z</time></trkpt><trkpt lat="38.493497239316575" lon="16.242905920850134"><ele>1236.8</ele><time>2026-04-11T13:04:52.001Z</time></trkpt><trkpt lat="38.493575226974" lon="16.242957735109684"><ele>1235.0</ele><time>2026-04-11T13:04:53.001Z</time></trkpt><trkpt lat="38.4936658585411" lon="16.243013671548105"><ele>1235.0</ele><time>2026-04-11T13:04:54.001Z</time></trkpt><trkpt lat="38.49373010390517" lon="16.243051271931648"><ele>1235.0</ele><time>2026-04-11T13:04:55.001Z</time></trkpt><trkpt lat="38.49387276602556" lon="16.243046250897894"><ele>1235.0</ele><time>2026-04-11T13:04:57.001Z</time></trkpt><trkpt lat="38.49396245523078" lon="16.243091280554214"><ele>1235.0</ele><time>2026-04-11T13:04:58.001Z</time></trkpt><trkpt lat="38.49406188090911" lon="16.243148239533067"><ele>1235.0</ele><time>2026-04-11T13:04:59.001Z</time></trkpt><trkpt lat="38.494179279870124" lon="16.243179270790076"><ele>1233.6</ele><time>2026-04-11T13:05:00.001Z</time></trkpt><trkpt lat="38.4943047748224" lon="16.243193083312953"><ele>1232.2</ele><time>2026-04-11T13:05:01.001Z</time></trkpt><trkpt lat="38.49443133168111" lon="16.243201928376795"><ele>1230.8</ele><time>2026-04-11T13:05:02.001Z</time></trkpt><trkpt lat="38.49453375359255" lon="16.243209031874642"><ele>1229.4</ele><time>2026-04-11T13:05:03.001Z</time></trkpt><trkpt lat="38.49462175566581" lon="16.24320222471684"><ele>1228.0</ele><time>2026-04-11T13:05:04.001Z</time></trkpt><trkpt lat="38.49470780579882" lon="16.243200225433224"><ele>1227.0</ele><time>2026-04-11T13:05:05.001Z</time></trkpt><trkpt lat="38.494787672480726" lon="16.24323395411583"><ele>1226.0</ele><time>2026-04-11T13:05:06.001Z</time></trkpt><trkpt lat="38.49490793108787" lon="16.243281939248966"><ele>1225.0</ele><time>2026-04-11T13:05:08.001Z</time></trkpt><trkpt lat="38.49503120414572" lon="16.243344671096818"><ele>1224.0</ele><time>2026-04-11T13:05:10.001Z</time></trkpt><trkpt lat="38.495106518377476" lon="16.243362817955795"><ele>1223.0</ele><time>2026-04-11T13:05:11.001Z</time></trkpt><trkpt lat="38.495212183457866" lon="16.243410595317034"><ele>1223.0</ele><time>2026-04-11T13:05:13.001Z</time></trkpt><trkpt lat="38.49528577628785" lon="16.243424715582837"><ele>1223.0</ele><time>2026-04-11T13:05:15.001Z</time></trkpt><trkpt lat="38.49537476223998" lon="16.243360644849844"><ele>1223.0</ele><time>2026-04-11T13:05:17.002Z</time></trkpt><trkpt lat="38.495437660906234" lon="16.243302324214053"><ele>1223.0</ele><time>2026-04-11T13:05:19.002Z</time></trkpt><trkpt lat="38.49549002435358" lon="16.243235624169998"><ele>1223.0</ele><time>2026-04-11T13:05:21.002Z</time></trkpt><trkpt lat="38.495537794267236" lon="16.243177840530585"><ele>1223.0</ele><time>2026-04-11T13:05:23.002Z</time></trkpt><trkpt lat="38.49559455301397" lon="16.24312938051252"><ele>1222.0</ele><time>2026-04-11T13:05:25.002Z</time></trkpt><trkpt lat="38.49566079404302" lon="16.243095803619116"><ele>1221.0</ele><time>2026-04-11T13:05:27.002Z</time></trkpt><trkpt lat="38.49575163970861" lon="16.243083755806964"><ele>1220.0</ele><time>2026-04-11T13:05:32.002Z</time></trkpt><trkpt lat="38.49585483952679" lon="16.243166788360284"><ele>1219.0</ele><time>2026-04-11T13:05:34.002Z</time></trkpt><trkpt lat="38.4959108533619" lon="16.243264803874343"><ele>1218.0</ele><time>2026-04-11T13:05:35.002Z</time></trkpt><trkpt lat="38.49598434749002" lon="16.243343696213213"><ele>1218.0</ele><time>2026-04-11T13:05:36.002Z</time></trkpt><trkpt lat="38.49608300197448" lon="16.243439263503383"><ele>1218.0</ele><time>2026-04-11T13:05:37.002Z</time></trkpt><trkpt lat="38.49619451812979" lon="16.243518144406128"><ele>1218.0</ele><time>2026-04-11T13:05:38.002Z</time></trkpt><trkpt lat="38.49631156847706" lon="16.24356975278986"><ele>1218.0</ele><time>2026-04-11T13:05:39.002Z</time></trkpt><trkpt lat="38.49642800901633" lon="16.243623461774995"><ele>1217.0</ele><time>2026-04-11T13:05:40.002Z</time></trkpt><trkpt lat="38.4965488812403" lon="16.243662836630346"><ele>1216.0</ele><time>2026-04-11T13:05:41.002Z</time></trkpt><trkpt lat="38.49668037037964" lon="16.243695088886113"><ele>1215.0</ele><time>2026-04-11T13:05:42.002Z</time></trkpt><trkpt lat="38.49679228309486" lon="16.243745926645804"><ele>1214.0</ele><time>2026-04-11T13:05:43.002Z</time></trkpt><trkpt lat="38.496914194406415" lon="16.24378977682143"><ele>1214.0</ele><time>2026-04-11T13:05:44.002Z</time></trkpt><trkpt lat="38.49702040480969" lon="16.243838668753202"><ele>1214.0</ele><time>2026-04-11T13:05:45.002Z</time></trkpt><trkpt lat="38.49711731776221" lon="16.243892025588135"><ele>1214.0</ele><time>2026-04-11T13:05:46.002Z</time></trkpt><trkpt lat="38.49721208931502" lon="16.24395012853867"><ele>1214.0</ele><time>2026-04-11T13:05:47.002Z</time></trkpt><trkpt lat="38.49730877014602" lon="16.244016074315944"><ele>1214.0</ele><time>2026-04-11T13:05:48.002Z</time></trkpt><trkpt lat="38.497406336327266" lon="16.244101252085805"><ele>1212.75</ele><time>2026-04-11T13:05:49.002Z</time></trkpt><trkpt lat="38.49751383430351" lon="16.244183268171042"><ele>1211.5</ele><time>2026-04-11T13:05:50.002Z</time></trkpt><trkpt lat="38.497603273607474" lon="16.24430303636837"><ele>1210.25</ele><time>2026-04-11T13:05:51.002Z</time></trkpt><trkpt lat="38.497684024705634" lon="16.244402379463384"><ele>1209.0</ele><time>2026-04-11T13:05:52.002Z</time></trkpt><trkpt lat="38.49775933770066" lon="16.24452534665451"><ele>1209.0</ele><time>2026-04-11T13:05:53.002Z</time></trkpt><trkpt lat="38.49783739623642" lon="16.24464871737397"><ele>1209.0</ele><time>2026-04-11T13:05:54.002Z</time></trkpt><trkpt lat="38.49792603921378" lon="16.244777833038267"><ele>1209.0</ele><time>2026-04-11T13:05:55.002Z</time></trkpt><trkpt lat="38.4980274461171" lon="16.244908144547388"><ele>1209.0</ele><time>2026-04-11T13:05:56.002Z</time></trkpt><trkpt lat="38.49813212169456" lon="16.245007045737893"><ele>1207.0</ele><time>2026-04-11T13:05:57.002Z</time></trkpt><trkpt lat="38.49824577627121" lon="16.245083463931813"><ele>1205.0</ele><time>2026-04-11T13:05:58.002Z</time></trkpt><trkpt lat="38.49838297667074" lon="16.245133616779494"><ele>1203.0</ele><time>2026-04-11T13:05:59.002Z</time></trkpt><trkpt lat="38.498533801765696" lon="16.24516790248687"><ele>1201.0</ele><time>2026-04-11T13:06:00.002Z</time></trkpt><trkpt lat="38.49868663640197" lon="16.245183279664754"><ele>1200.6666666666665</ele><time>2026-04-11T13:06:01.002Z</time></trkpt><trkpt lat="38.49884647765347" lon="16.24518818608121"><ele>1200.3333333333333</ele><time>2026-04-11T13:06:02.002Z</time></trkpt><trkpt lat="38.4990045395593" lon="16.24517041433655"><ele>1200.0</ele><time>2026-04-11T13:06:03.002Z</time></trkpt><trkpt lat="38.499156750796885" lon="16.245147442395016"><ele>1200.0</ele><time>2026-04-11T13:06:04.002Z</time></trkpt><trkpt lat="38.49931068066138" lon="16.245114270228846"><ele>1200.0</ele><time>2026-04-11T13:06:05.001Z</time></trkpt><trkpt lat="38.49946645418718" lon="16.245093726890566"><ele>1200.0</ele><time>2026-04-11T13:06:06.001Z</time></trkpt><trkpt lat="38.49960841842148" lon="16.2450596112465"><ele>1199.25</ele><time>2026-04-11T13:06:07.001Z</time></trkpt><trkpt lat="38.49974105528842" lon="16.245033969623346"><ele>1198.5</ele><time>2026-04-11T13:06:08.001Z</time></trkpt><trkpt lat="38.499881276935604" lon="16.245020215818403"><ele>1197.75</ele><time>2026-04-11T13:06:09.001Z</time></trkpt><trkpt lat="38.50001300687081" lon="16.245022214886284"><ele>1197.0</ele><time>2026-04-11T13:06:10.001Z</time></trkpt><trkpt lat="38.50012958495639" lon="16.245072310824515"><ele>1197.0</ele><time>2026-04-11T13:06:11.001Z</time></trkpt><trkpt lat="38.50030768468274" lon="16.245164672817438"><ele>1197.0</ele><time>2026-04-11T13:06:12.001Z</time></trkpt><trkpt lat="38.50045557711134" lon="16.245276565459278"><ele>1197.0</ele><time>2026-04-11T13:06:13.001Z</time></trkpt><trkpt lat="38.50058442124852" lon="16.245405717132794"><ele>1196.0</ele><time>2026-04-11T13:06:14.001Z</time></trkpt><trkpt lat="38.50070063696327" lon="16.24554799974515"><ele>1195.0</ele><time>2026-04-11T13:06:15.001Z</time></trkpt><trkpt lat="38.500856522280536" lon="16.24569112082606"><ele>1194.0</ele><time>2026-04-11T13:06:16.001Z</time></trkpt><trkpt lat="38.50099738184566" lon="16.245835910313158"><ele>1194.0</ele><time>2026-04-11T13:06:17.001Z</time></trkpt><trkpt lat="38.501143961450865" lon="16.245971145984754"><ele>1194.0</ele><time>2026-04-11T13:06:18.001Z</time></trkpt><trkpt lat="38.50128366598985" lon="16.246111751659004"><ele>1194.0</ele><time>2026-04-11T13:06:19.001Z</time></trkpt><trkpt lat="38.50141936125011" lon="16.24626289461804"><ele>1194.3333333333333</ele><time>2026-04-11T13:06:20.001Z</time></trkpt><trkpt lat="38.50154308633202" lon="16.246399854450694"><ele>1194.6666666666665</ele><time>2026-04-11T13:06:21.001Z</time></trkpt><trkpt lat="38.50166560780378" lon="16.246542026218407"><ele>1195.0</ele><time>2026-04-11T13:06:22.001Z</time></trkpt><trkpt lat="38.50178224787022" lon="16.246694020975923"><ele>1195.3333333333333</ele><time>2026-04-11T13:06:23.001Z</time></trkpt><trkpt lat="38.50188393196744" lon="16.246841517642036"><ele>1195.6666666666667</ele><time>2026-04-11T13:06:24.001Z</time></trkpt><trkpt lat="38.50199811466726" lon="16.247007015700852"><ele>1196.0</ele><time>2026-04-11T13:06:25.001Z</time></trkpt><trkpt lat="38.50210823339658" lon="16.247186708273336"><ele>1195.6666666666667</ele><time>2026-04-11T13:06:26.001Z</time></trkpt><trkpt lat="38.50221573043648" lon="16.24737306738349"><ele>1195.3333333333333</ele><time>2026-04-11T13:06:27.001Z</time></trkpt><trkpt lat="38.50231250094774" lon="16.247562142051766"><ele>1195.0</ele><time>2026-04-11T13:06:28.001Z</time></trkpt><trkpt lat="38.502406618998656" lon="16.247766859392215"><ele>1195.0</ele><time>2026-04-11T13:06:29.001Z</time></trkpt><trkpt lat="38.50247054014109" lon="16.24798651215898"><ele>1195.0</ele><time>2026-04-11T13:06:30.001Z</time></trkpt><trkpt lat="38.50254957432038" lon="16.24816780342461"><ele>1195.0</ele><time>2026-04-11T13:06:31.001Z</time></trkpt><trkpt lat="38.502637019756534" lon="16.248339615847726"><ele>1194.0</ele><time>2026-04-11T13:06:32.001Z</time></trkpt><trkpt lat="38.50272090740972" lon="16.248485253271006"><ele>1193.0</ele><time>2026-04-11T13:06:33.001Z</time></trkpt><trkpt lat="38.50282320451857" lon="16.24859650403771"><ele>1192.0</ele><time>2026-04-11T13:06:34.001Z</time></trkpt><trkpt lat="38.50295347483162" lon="16.248626667338403"><ele>1191.0</ele><time>2026-04-11T13:06:35.001Z</time></trkpt><trkpt lat="38.503081867435185" lon="16.248633011133077"><ele>1190.75</ele><time>2026-04-11T13:06:36.001Z</time></trkpt><trkpt lat="38.503208409485524" lon="16.24863514453873"><ele>1190.5</ele><time>2026-04-11T13:06:37.001Z</time></trkpt><trkpt lat="38.503351846881365" lon="16.248590281812223"><ele>1190.25</ele><time>2026-04-11T13:06:38.001Z</time></trkpt><trkpt lat="38.503503106284754" lon="16.2485412447755"><ele>1190.0</ele><time>2026-04-11T13:06:39.001Z</time></trkpt><trkpt lat="38.50363163826597" lon="16.248502289916722"><ele>1190.0</ele><time>2026-04-11T13:06:40.001Z</time></trkpt><trkpt lat="38.50374494556518" lon="16.248443811058717"><ele>1190.0</ele><time>2026-04-11T13:06:41.001Z</time></trkpt><trkpt lat="38.50385822288795" lon="16.248349087245263"><ele>1190.0</ele><time>2026-04-11T13:06:42.001Z</time></trkpt><trkpt lat="38.503964800236446" lon="16.248227519913407"><ele>1190.0</ele><time>2026-04-11T13:06:43.001Z</time></trkpt><trkpt lat="38.50406262347201" lon="16.24811181206099"><ele>1190.0</ele><time>2026-04-11T13:06:44.001Z</time></trkpt><trkpt lat="38.50416687943975" lon="16.24801456176325"><ele>1190.0</ele><time>2026-04-11T13:06:45.001Z</time></trkpt><trkpt lat="38.50430416222843" lon="16.24795062332657"><ele>1190.0</ele><time>2026-04-11T13:06:46.001Z</time></trkpt><trkpt lat="38.50445435044444" lon="16.24793829281562"><ele>1190.0</ele><time>2026-04-11T13:06:47.001Z</time></trkpt><trkpt lat="38.50460690887348" lon="16.247913391020056"><ele>1190.25</ele><time>2026-04-11T13:06:48.001Z</time></trkpt><trkpt lat="38.50475869052016" lon="16.247948596512785"><ele>1190.5</ele><time>2026-04-11T13:06:49.001Z</time></trkpt><trkpt lat="38.504903037698284" lon="16.24797259430817"><ele>1190.75</ele><time>2026-04-11T13:06:50.001Z</time></trkpt><trkpt lat="38.50504226265456" lon="16.248014805151634"><ele>1191.0</ele><time>2026-04-11T13:06:51.001Z</time></trkpt><trkpt lat="38.505196692297886" lon="16.248070624518242"><ele>1191.3333333333333</ele><time>2026-04-11T13:06:52.001Z</time></trkpt><trkpt lat="38.50533848325582" lon="16.248145656370653"><ele>1191.6666666666665</ele><time>2026-04-11T13:06:53.001Z</time></trkpt><trkpt lat="38.505510037057775" lon="16.248263338093036"><ele>1192.0</ele><time>2026-04-11T13:06:54.001Z</time></trkpt><trkpt lat="38.50564987213161" lon="16.248362416032677"><ele>1192.0</ele><time>2026-04-11T13:06:55.001Z</time></trkpt><trkpt lat="38.50581280033376" lon="16.248411390476203"><ele>1192.0</ele><time>2026-04-11T13:06:56.001Z</time></trkpt><trkpt lat="38.50596534734968" lon="16.248467167883145"><ele>1192.0</ele><time>2026-04-11T13:06:57.001Z</time></trkpt><trkpt lat="38.50611238698778" lon="16.24854384159394"><ele>1190.3333333333333</ele><time>2026-04-11T13:06:58.001Z</time></trkpt><trkpt lat="38.50626232693027" lon="16.248621133400245"><ele>1188.6666666666667</ele><time>2026-04-11T13:06:59.001Z</time></trkpt><trkpt lat="38.50642586239121" lon="16.24869228903539"><ele>1187.0</ele><time>2026-04-11T13:07:00.001Z</time></trkpt><trkpt lat="38.506595736864604" lon="16.24875984355674"><ele>1187.0</ele><time>2026-04-11T13:07:01.001Z</time></trkpt><trkpt lat="38.50676144978756" lon="16.248829208100016"><ele>1187.0</ele><time>2026-04-11T13:07:02.001Z</time></trkpt><trkpt lat="38.50693561040119" lon="16.248890637176864"><ele>1187.0</ele><time>2026-04-11T13:07:03.001Z</time></trkpt><trkpt lat="38.507062420355574" lon="16.248944180728213"><ele>1186.5</ele><time>2026-04-11T13:07:04.001Z</time></trkpt><trkpt lat="38.5071978381512" lon="16.249016311678364"><ele>1186.0</ele><time>2026-04-11T13:07:05.001Z</time></trkpt><trkpt lat="38.50732356536191" lon="16.24907962327108"><ele>1185.5</ele><time>2026-04-11T13:07:06.001Z</time></trkpt><trkpt lat="38.507445332653596" lon="16.249105565662596"><ele>1185.0</ele><time>2026-04-11T13:07:07.001Z</time></trkpt><trkpt lat="38.50755932061163" lon="16.249117652345515"><ele>1185.0</ele><time>2026-04-11T13:07:08.001Z</time></trkpt><trkpt lat="38.50767124744032" lon="16.249084168807496"><ele>1185.0</ele><time>2026-04-11T13:07:09.001Z</time></trkpt><trkpt lat="38.507779200459396" lon="16.249076555980583"><ele>1185.0</ele><time>2026-04-11T13:07:10.001Z</time></trkpt><trkpt lat="38.507901631943774" lon="16.249107686244542"><ele>1185.0</ele><time>2026-04-11T13:07:11.001Z</time></trkpt><trkpt lat="38.50803083821817" lon="16.249167981564568"><ele>1183.4</ele><time>2026-04-11T13:07:12.001Z</time></trkpt><trkpt lat="38.50811129715161" lon="16.249259409315023"><ele>1181.8</ele><time>2026-04-11T13:07:13.001Z</time></trkpt><trkpt lat="38.508168950902466" lon="16.249345213157497"><ele>1180.2</ele><time>2026-04-11T13:07:14.001Z</time></trkpt><trkpt lat="38.50819406488351" lon="16.24945543159035"><ele>1178.6</ele><time>2026-04-11T13:07:15.001Z</time></trkpt><trkpt lat="38.50818845600689" lon="16.249565514121837"><ele>1177.0</ele><time>2026-04-11T13:07:16.001Z</time></trkpt><trkpt lat="38.50813091003543" lon="16.24970107226249"><ele>1176.5</ele><time>2026-04-11T13:07:17.001Z</time></trkpt><trkpt lat="38.508058313660584" lon="16.24983907337846"><ele>1176.0</ele><time>2026-04-11T13:07:18.001Z</time></trkpt><trkpt lat="38.50796895267792" lon="16.249978634982632"><ele>1175.5</ele><time>2026-04-11T13:07:19.001Z</time></trkpt><trkpt lat="38.507870678793836" lon="16.250110398559087"><ele>1175.0</ele><time>2026-04-11T13:07:20.001Z</time></trkpt><trkpt lat="38.50778617162627" lon="16.250185825754958"><ele>1175.4</ele><time>2026-04-11T13:07:21.001Z</time></trkpt><trkpt lat="38.5077002976631" lon="16.250290064306427"><ele>1175.8</ele><time>2026-04-11T13:07:22.001Z</time></trkpt><trkpt lat="38.5076706511322" lon="16.25036200486384"><ele>1176.2</ele><time>2026-04-11T13:07:23.001Z</time></trkpt><trkpt lat="38.50762004027185" lon="16.250470126745643"><ele>1176.6</ele><time>2026-04-11T13:07:24.001Z</time></trkpt><trkpt lat="38.507588903872914" lon="16.250647080266557"><ele>1177.0</ele><time>2026-04-11T13:07:25.001Z</time></trkpt><trkpt lat="38.507553526540725" lon="16.250838279938527"><ele>1177.0</ele><time>2026-04-11T13:07:26.001Z</time></trkpt><trkpt lat="38.50750232948531" lon="16.251026097810723"><ele>1177.0</ele><time>2026-04-11T13:07:27.001Z</time></trkpt><trkpt lat="38.507517243493176" lon="16.251219501974404"><ele>1177.0</ele><time>2026-04-11T13:07:28.001Z</time></trkpt><trkpt lat="38.50752043236945" lon="16.251389693182862"><ele>1177.0</ele><time>2026-04-11T13:07:29.001Z</time></trkpt><trkpt lat="38.507533313459696" lon="16.25156581250472"><ele>1175.3333333333333</ele><time>2026-04-11T13:07:30.001Z</time></trkpt><trkpt lat="38.5075550220207" lon="16.251745673145344"><ele>1173.6666666666667</ele><time>2026-04-11T13:07:31.001Z</time></trkpt><trkpt lat="38.507601560859165" lon="16.25192289897559"><ele>1172.0</ele><time>2026-04-11T13:07:32.001Z</time></trkpt><trkpt lat="38.5076681676596" lon="16.25211311216232"><ele>1172.0</ele><time>2026-04-11T13:07:33.001Z</time></trkpt><trkpt lat="38.5077394146609" lon="16.252286795462418"><ele>1172.0</ele><time>2026-04-11T13:07:34.001Z</time></trkpt><trkpt lat="38.50781899735096" lon="16.2524536253789"><ele>1172.0</ele><time>2026-04-11T13:07:35.001Z</time></trkpt><trkpt lat="38.50791730604373" lon="16.252561330034315"><ele>1172.0</ele><time>2026-04-11T13:07:36.001Z</time></trkpt><trkpt lat="38.50800806435433" lon="16.252676041785964"><ele>1173.0</ele><time>2026-04-11T13:07:37.001Z</time></trkpt><trkpt lat="38.50802831862257" lon="16.252859987029"><ele>1174.0</ele><time>2026-04-11T13:07:38.001Z</time></trkpt><trkpt lat="38.50804932071107" lon="16.25299884472137"><ele>1175.0</ele><time>2026-04-11T13:07:39.001Z</time></trkpt><trkpt lat="38.50803292452472" lon="16.2531372241831"><ele>1176.0</ele><time>2026-04-11T13:07:40.001Z</time></trkpt><trkpt lat="38.507998618661105" lon="16.25329426025981"><ele>1176.0</ele><time>2026-04-11T13:07:41.001Z</time></trkpt><trkpt lat="38.50798102218147" lon="16.253471721287074"><ele>1176.0</ele><time>2026-04-11T13:07:42.001Z</time></trkpt><trkpt lat="38.50797376453205" lon="16.253662262184964"><ele>1176.0</ele><time>2026-04-11T13:07:43.001Z</time></trkpt><trkpt lat="38.50793567604689" lon="16.253844746347884"><ele>1176.0</ele><time>2026-04-11T13:07:44.001Z</time></trkpt><trkpt lat="38.50790362022514" lon="16.254039893367384"><ele>1175.75</ele><time>2026-04-11T13:07:45.001Z</time></trkpt><trkpt lat="38.50783618125627" lon="16.25422222200953"><ele>1175.5</ele><time>2026-04-11T13:07:46.001Z</time></trkpt><trkpt lat="38.50789431509901" lon="16.25434971389531"><ele>1175.25</ele><time>2026-04-11T13:07:47.001Z</time></trkpt><trkpt lat="38.507918301820496" lon="16.254568836456187"><ele>1175.0</ele><time>2026-04-11T13:07:48.001Z</time></trkpt><trkpt lat="38.50792723779232" lon="16.254838770822516"><ele>1174.0</ele><time>2026-04-11T13:07:49.001Z</time></trkpt><trkpt lat="38.507899699435505" lon="16.255070962365917"><ele>1173.0</ele><time>2026-04-11T13:07:50.001Z</time></trkpt><trkpt lat="38.5079282291932" lon="16.255304768222995"><ele>1172.0</ele><time>2026-04-11T13:07:51.001Z</time></trkpt><trkpt lat="38.507857163056606" lon="16.2554301763836"><ele>1171.75</ele><time>2026-04-11T13:07:52.001Z</time></trkpt><trkpt lat="38.5078171536393" lon="16.2555823881315"><ele>1171.5</ele><time>2026-04-11T13:07:53.002Z</time></trkpt><trkpt lat="38.50771426195134" lon="16.255686266107965"><ele>1171.25</ele><time>2026-04-11T13:07:54.002Z</time></trkpt><trkpt lat="38.50757872460739" lon="16.255792460827067"><ele>1171.0</ele><time>2026-04-11T13:07:55.002Z</time></trkpt><trkpt lat="38.50745223621638" lon="16.25591399115043"><ele>1170.6666666666665</ele><time>2026-04-11T13:07:56.002Z</time></trkpt><trkpt lat="38.50733600100127" lon="16.25600655620995"><ele>1170.3333333333333</ele><time>2026-04-11T13:07:57.002Z</time></trkpt><trkpt lat="38.50719893793581" lon="16.256139233492103"><ele>1170.0</ele><time>2026-04-11T13:07:58.002Z</time></trkpt><trkpt lat="38.507057018591254" lon="16.256267123838175"><ele>1170.0</ele><time>2026-04-11T13:07:59.002Z</time></trkpt><trkpt lat="38.50691760344054" lon="16.25640848146603"><ele>1170.0</ele><time>2026-04-11T13:08:00.002Z</time></trkpt><trkpt lat="38.506785998417016" lon="16.256546282422537"><ele>1170.0</ele><time>2026-04-11T13:08:01.002Z</time></trkpt><trkpt lat="38.50665598271848" lon="16.25668335872114"><ele>1171.0</ele><time>2026-04-11T13:08:02.002Z</time></trkpt><trkpt lat="38.506555871543746" lon="16.25682699250844"><ele>1172.0</ele><time>2026-04-11T13:08:03.002Z</time></trkpt><trkpt lat="38.50646050614138" lon="16.256968625552588"><ele>1173.0</ele><time>2026-04-11T13:08:04.002Z</time></trkpt><trkpt lat="38.5063750272898" lon="16.257110182376284"><ele>1174.0</ele><time>2026-04-11T13:08:05.002Z</time></trkpt><trkpt lat="38.50627896454879" lon="16.25729644285221"><ele>1178.0</ele><time>2026-04-11T13:08:06.002Z</time></trkpt><trkpt lat="38.506205116843915" lon="16.25747776050652"><ele>1182.0</ele><time>2026-04-11T13:08:07.002Z</time></trkpt><trkpt lat="38.506199783772075" lon="16.257700499948196"><ele>1186.0</ele><time>2026-04-11T13:08:08.002Z</time></trkpt><trkpt lat="38.50620624597908" lon="16.257899908585852"><ele>1186.0</ele><time>2026-04-11T13:08:09.002Z</time></trkpt><trkpt lat="38.5062248460649" lon="16.258068203072234"><ele>1186.0</ele><time>2026-04-11T13:08:10.002Z</time></trkpt><trkpt lat="38.506316944229646" lon="16.258231090714602"><ele>1186.0</ele><time>2026-04-11T13:08:11Z</time></trkpt><trkpt lat="38.50640298884612" lon="16.25839723291813"><ele>1186.0</ele><time>2026-04-11T13:08:12Z</time></trkpt><trkpt lat="38.50650993782119" lon="16.258555125127266"><ele>1184.0</ele><time>2026-04-11T13:08:13Z</time></trkpt><trkpt lat="38.50664429928912" lon="16.258690161513655"><ele>1182.0</ele><time>2026-04-11T13:08:14Z</time></trkpt><trkpt lat="38.506781495530674" lon="16.258822722261968"><ele>1180.0</ele><time>2026-04-11T13:08:15Z</time></trkpt><trkpt lat="38.50692016968219" lon="16.258946722841095"><ele>1180.3333333333333</ele><time>2026-04-11T13:08:16Z</time></trkpt><trkpt lat="38.50707195166862" lon="16.25906377961998"><ele>1180.6666666666667</ele><time>2026-04-11T13:08:17Z</time></trkpt><trkpt lat="38.507190359830204" lon="16.259195734617673"><ele>1181.0</ele><time>2026-04-11T13:08:18Z</time></trkpt><trkpt lat="38.50732786078024" lon="16.259308561127064"><ele>1181.0</ele><time>2026-04-11T13:08:19Z</time></trkpt><trkpt lat="38.50746772959582" lon="16.259460482775108"><ele>1181.0</ele><time>2026-04-11T13:08:20Z</time></trkpt><trkpt lat="38.50762376785751" lon="16.259607987300146"><ele>1181.0</ele><time>2026-04-11T13:08:21Z</time></trkpt><trkpt lat="38.507763814916814" lon="16.25975040884706"><ele>1181.0</ele><time>2026-04-11T13:08:22Z</time></trkpt><trkpt lat="38.507898420291774" lon="16.259884933842905"><ele>1181.0</ele><time>2026-04-11T13:08:23Z</time></trkpt><trkpt lat="38.508023959804326" lon="16.260024740413105"><ele>1181.0</ele><time>2026-04-11T13:08:24Z</time></trkpt><trkpt lat="38.50812780454454" lon="16.260134902144785"><ele>1181.0</ele><time>2026-04-11T13:08:25Z</time></trkpt><trkpt lat="38.508245316854605" lon="16.260254645419973"><ele>1181.0</ele><time>2026-04-11T13:08:26Z</time></trkpt><trkpt lat="38.50839707864624" lon="16.26037531189096"><ele>1181.0</ele><time>2026-04-11T13:08:27Z</time></trkpt><trkpt lat="38.50855162773682" lon="16.26049579040182"><ele>1181.25</ele><time>2026-04-11T13:08:28Z</time></trkpt><trkpt lat="38.508673663957076" lon="16.260625621326234"><ele>1181.5</ele><time>2026-04-11T13:08:29Z</time></trkpt><trkpt lat="38.50877999157553" lon="16.26073888116219"><ele>1181.75</ele><time>2026-04-11T13:08:30Z</time></trkpt><trkpt lat="38.508872519202804" lon="16.260841865347395"><ele>1182.0</ele><time>2026-04-11T13:08:31Z</time></trkpt><trkpt lat="38.50896666939202" lon="16.260955375171047"><ele>1181.5</ele><time>2026-04-11T13:08:32Z</time></trkpt><trkpt lat="38.50902414611127" lon="16.26106101345839"><ele>1181.0</ele><time>2026-04-11T13:08:33Z</time></trkpt><trkpt lat="38.50903242007143" lon="16.261222319177453"><ele>1180.5</ele><time>2026-04-11T13:08:34Z</time></trkpt><trkpt lat="38.50905682716099" lon="16.26145259813534"><ele>1180.0</ele><time>2026-04-11T13:08:35Z</time></trkpt><trkpt lat="38.50909305792848" lon="16.261637993929014"><ele>1179.25</ele><time>2026-04-11T13:08:36Z</time></trkpt><trkpt lat="38.50910246595882" lon="16.261835093813055"><ele>1178.5</ele><time>2026-04-11T13:08:37Z</time></trkpt><trkpt lat="38.50911174191779" lon="16.261996334194556"><ele>1177.75</ele><time>2026-04-11T13:08:38Z</time></trkpt><trkpt lat="38.509139628045126" lon="16.262167304724127"><ele>1177.0</ele><time>2026-04-11T13:08:39Z</time></trkpt><trkpt lat="38.50914070039029" lon="16.262311448678023"><ele>1177.0</ele><time>2026-04-11T13:08:40Z</time></trkpt><trkpt lat="38.509109233664724" lon="16.262396798801298"><ele>1177.0</ele><time>2026-04-11T13:08:41Z</time></trkpt><trkpt lat="38.50902681904802" lon="16.262465834524185"><ele>1177.0</ele><time>2026-04-11T13:08:42Z</time></trkpt><trkpt lat="38.50893713804632" lon="16.262547277485364"><ele>1177.0</ele><time>2026-04-11T13:08:43Z</time></trkpt><trkpt lat="38.50881709861416" lon="16.26260911871745"><ele>1177.0</ele><time>2026-04-11T13:08:44Z</time></trkpt><trkpt lat="38.508678213716514" lon="16.262703026038572"><ele>1173.6666666666665</ele><time>2026-04-11T13:08:45Z</time></trkpt><trkpt lat="38.50853241421449" lon="16.262799374496918"><ele>1170.3333333333333</ele><time>2026-04-11T13:08:46Z</time></trkpt><trkpt lat="38.50840514798956" lon="16.262894878624998"><ele>1167.0</ele><time>2026-04-11T13:08:47Z</time></trkpt><trkpt lat="38.50829652075392" lon="16.263003474152466"><ele>1167.2</ele><time>2026-04-11T13:08:48Z</time></trkpt><trkpt lat="38.50822362229577" lon="16.263148595622816"><ele>1167.4</ele><time>2026-04-11T13:08:49Z</time></trkpt><trkpt lat="38.508132784457274" lon="16.263234717602096"><ele>1167.6</ele><time>2026-04-11T13:08:50Z</time></trkpt><trkpt lat="38.50807552891503" lon="16.263313340585803"><ele>1167.8</ele><time>2026-04-11T13:08:51Z</time></trkpt><trkpt lat="38.50806019253226" lon="16.263407113812878"><ele>1168.0</ele><time>2026-04-11T13:08:52Z</time></trkpt><trkpt lat="38.508097734614466" lon="16.26352446657283"><ele>1168.0</ele><time>2026-04-11T13:08:53Z</time></trkpt><trkpt lat="38.50815693104775" lon="16.26361080603791"><ele>1168.0</ele><time>2026-04-11T13:08:54Z</time></trkpt><trkpt lat="38.5082469792505" lon="16.263714444579552"><ele>1168.0</ele><time>2026-04-11T13:08:55Z</time></trkpt><trkpt lat="38.508365301137886" lon="16.263842301806598"><ele>1168.0</ele><time>2026-04-11T13:08:56Z</time></trkpt><trkpt lat="38.508480520798976" lon="16.26393271661776"><ele>1166.2</ele><time>2026-04-11T13:08:57Z</time></trkpt><trkpt lat="38.50860123310984" lon="16.264010090737976"><ele>1164.4</ele><time>2026-04-11T13:08:58Z</time></trkpt><trkpt lat="38.508703697227006" lon="16.264081403957533"><ele>1162.6000000000001</ele><time>2026-04-11T13:08:59Z</time></trkpt><trkpt lat="38.508789264322175" lon="16.264163233863382"><ele>1160.8</ele><time>2026-04-11T13:09:00Z</time></trkpt><trkpt lat="38.508828629568455" lon="16.264244757067782"><ele>1159.0</ele><time>2026-04-11T13:09:01Z</time></trkpt><trkpt lat="38.508834552880536" lon="16.264356944937152"><ele>1159.0</ele><time>2026-04-11T13:09:02.001Z</time></trkpt><trkpt lat="38.50878072136347" lon="16.26448622549547"><ele>1159.0</ele><time>2026-04-11T13:09:03.001Z</time></trkpt><trkpt lat="38.50871463404708" lon="16.26456920551083"><ele>1159.0</ele><time>2026-04-11T13:09:04.001Z</time></trkpt><trkpt lat="38.50860422620919" lon="16.264648713105522"><ele>1159.0</ele><time>2026-04-11T13:09:05.001Z</time></trkpt><trkpt lat="38.508463971470185" lon="16.26471329593514"><ele>1158.25</ele><time>2026-04-11T13:09:06.001Z</time></trkpt><trkpt lat="38.5083355758297" lon="16.26478414079459"><ele>1157.5</ele><time>2026-04-11T13:09:07.001Z</time></trkpt><trkpt lat="38.50822359357019" lon="16.264855589377284"><ele>1156.75</ele><time>2026-04-11T13:09:08.001Z</time></trkpt><trkpt lat="38.50810252774778" lon="16.264943415646748"><ele>1156.0</ele><time>2026-04-11T13:09:09.001Z</time></trkpt><trkpt lat="38.507987926133275" lon="16.265101367426283"><ele>1153.3333333333333</ele><time>2026-04-11T13:09:10.001Z</time></trkpt><trkpt lat="38.507896720840655" lon="16.26529307607127"><ele>1150.6666666666667</ele><time>2026-04-11T13:09:11.001Z</time></trkpt><trkpt lat="38.50781279701086" lon="16.26547753010025"><ele>1148.0</ele><time>2026-04-11T13:09:12.001Z</time></trkpt><trkpt lat="38.50773028150549" lon="16.26565851047394"><ele>1148.0</ele><time>2026-04-11T13:09:13.001Z</time></trkpt><trkpt lat="38.50762083178369" lon="16.26584480028344"><ele>1148.0</ele><time>2026-04-11T13:09:14.001Z</time></trkpt><trkpt lat="38.50752152686418" lon="16.26600382751533"><ele>1148.0</ele><time>2026-04-11T13:09:15.001Z</time></trkpt><trkpt lat="38.50740030434187" lon="16.266164513818477"><ele>1148.0</ele><time>2026-04-11T13:09:16.001Z</time></trkpt><trkpt lat="38.50727473045171" lon="16.266300479893616"><ele>1148.0</ele><time>2026-04-11T13:09:17.001Z</time></trkpt><trkpt lat="38.50716490852293" lon="16.26646342509531"><ele>1148.0</ele><time>2026-04-11T13:09:18.001Z</time></trkpt><trkpt lat="38.50702713044619" lon="16.266623681231398"><ele>1146.0</ele><time>2026-04-11T13:09:19.001Z</time></trkpt><trkpt lat="38.50690677082669" lon="16.26675550383576"><ele>1144.0</ele><time>2026-04-11T13:09:20.001Z</time></trkpt><trkpt lat="38.50676234176878" lon="16.266885553343513"><ele>1142.0</ele><time>2026-04-11T13:09:21.001Z</time></trkpt><trkpt lat="38.50663379699345" lon="16.266999763935395"><ele>1142.0</ele><time>2026-04-11T13:09:22.001Z</time></trkpt><trkpt lat="38.50649399684114" lon="16.26712742684127"><ele>1142.0</ele><time>2026-04-11T13:09:23.001Z</time></trkpt><trkpt lat="38.506343573034584" lon="16.267251318773326"><ele>1142.0</ele><time>2026-04-11T13:09:24.001Z</time></trkpt><trkpt lat="38.506195858988185" lon="16.267370586463105"><ele>1141.6666666666667</ele><time>2026-04-11T13:09:25.001Z</time></trkpt><trkpt lat="38.50604645010085" lon="16.26747569778556"><ele>1141.3333333333333</ele><time>2026-04-11T13:09:26.001Z</time></trkpt><trkpt lat="38.505913653480306" lon="16.267571530494454"><ele>1141.0</ele><time>2026-04-11T13:09:27.001Z</time></trkpt><trkpt lat="38.50577751680366" lon="16.267682088197915"><ele>1141.0</ele><time>2026-04-11T13:09:28.001Z</time></trkpt><trkpt lat="38.505694535314326" lon="16.267802307999986"><ele>1141.0</ele><time>2026-04-11T13:09:29.001Z</time></trkpt><trkpt lat="38.505567657717535" lon="16.267932067978716"><ele>1141.0</ele><time>2026-04-11T13:09:30.001Z</time></trkpt><trkpt lat="38.5054938150701" lon="16.268130248061482"><ele>1140.75</ele><time>2026-04-11T13:09:31.001Z</time></trkpt><trkpt lat="38.50546749864708" lon="16.268319770778934"><ele>1140.5</ele><time>2026-04-11T13:09:32.001Z</time></trkpt><trkpt lat="38.50544858278448" lon="16.268500667200826"><ele>1140.25</ele><time>2026-04-11T13:09:33.001Z</time></trkpt><trkpt lat="38.505452675285134" lon="16.268677302768047"><ele>1140.0</ele><time>2026-04-11T13:09:34.001Z</time></trkpt><trkpt lat="38.50548486296593" lon="16.268846345541583"><ele>1138.0</ele><time>2026-04-11T13:09:35.001Z</time></trkpt><trkpt lat="38.50558539745936" lon="16.268956850903507"><ele>1136.0</ele><time>2026-04-11T13:09:36.001Z</time></trkpt><trkpt lat="38.5057031608592" lon="16.269086205604946"><ele>1134.0</ele><time>2026-04-11T13:09:37.001Z</time></trkpt><trkpt lat="38.505854598843435" lon="16.269192808077978"><ele>1134.0</ele><time>2026-04-11T13:09:38.001Z</time></trkpt><trkpt lat="38.50596780181111" lon="16.26928254120466"><ele>1134.0</ele><time>2026-04-11T13:09:39.001Z</time></trkpt><trkpt lat="38.50608833511542" lon="16.26937725129112"><ele>1134.0</ele><time>2026-04-11T13:09:40.001Z</time></trkpt><trkpt lat="38.506199958767674" lon="16.269492852370288"><ele>1134.0</ele><time>2026-04-11T13:09:41.001Z</time></trkpt><trkpt lat="38.506294599513936" lon="16.269582690776257"><ele>1134.25</ele><time>2026-04-11T13:09:42.001Z</time></trkpt><trkpt lat="38.50637170578415" lon="16.26973374134869"><ele>1134.5</ele><time>2026-04-11T13:09:43.001Z</time></trkpt><trkpt lat="38.50644055955994" lon="16.26988759496583"><ele>1134.75</ele><time>2026-04-11T13:09:44.001Z</time></trkpt><trkpt lat="38.506497239739126" lon="16.2700309629334"><ele>1135.0</ele><time>2026-04-11T13:09:45.001Z</time></trkpt><trkpt lat="38.506491204141504" lon="16.270178583666354"><ele>1134.0</ele><time>2026-04-11T13:09:46.001Z</time></trkpt><trkpt lat="38.50649019752816" lon="16.27035143884988"><ele>1133.0</ele><time>2026-04-11T13:09:47.001Z</time></trkpt><trkpt lat="38.506465802530286" lon="16.270538741651343"><ele>1132.0</ele><time>2026-04-11T13:09:48.001Z</time></trkpt><trkpt lat="38.50643271822909" lon="16.270741238888643"><ele>1131.0</ele><time>2026-04-11T13:09:49.001Z</time></trkpt><trkpt lat="38.50635224942446" lon="16.27095670826274"><ele>1130.6666666666667</ele><time>2026-04-11T13:09:50.001Z</time></trkpt><trkpt lat="38.5063079472037" lon="16.271187531888277"><ele>1130.3333333333335</ele><time>2026-04-11T13:09:51.001Z</time></trkpt><trkpt lat="38.50628285308708" lon="16.271420050297586"><ele>1130.0</ele><time>2026-04-11T13:09:52.001Z</time></trkpt><trkpt lat="38.50625235766154" lon="16.271654308846166"><ele>1127.6666666666667</ele><time>2026-04-11T13:09:53.001Z</time></trkpt><trkpt lat="38.50621491940483" lon="16.271872879250804"><ele>1125.3333333333333</ele><time>2026-04-11T13:09:54.001Z</time></trkpt><trkpt lat="38.50616926299418" lon="16.27208126934779"><ele>1123.0</ele><time>2026-04-11T13:09:55.001Z</time></trkpt><trkpt lat="38.50614888143046" lon="16.272266369317805"><ele>1124.75</ele><time>2026-04-11T13:09:56.001Z</time></trkpt><trkpt lat="38.5060982826846" lon="16.27244171103021"><ele>1126.5</ele><time>2026-04-11T13:09:57.001Z</time></trkpt><trkpt lat="38.50606799834145" lon="16.272601374390124"><ele>1128.25</ele><time>2026-04-11T13:09:58.001Z</time></trkpt><trkpt lat="38.50604423183447" lon="16.272726709754807"><ele>1130.0</ele><time>2026-04-11T13:09:59.001Z</time></trkpt><trkpt lat="38.50602306703142" lon="16.272836347683743"><ele>1130.0</ele><time>2026-04-11T13:10:00.001Z</time></trkpt><trkpt lat="38.50603899992832" lon="16.27293080546508"><ele>1130.0</ele><time>2026-04-11T13:10:01.001Z</time></trkpt><trkpt lat="38.50601830234184" lon="16.27300819743917"><ele>1130.0</ele><time>2026-04-11T13:10:03.001Z</time></trkpt><trkpt lat="38.50604977732386" lon="16.273082898338465"><ele>1130.0</ele><time>2026-04-11T13:10:06.001Z</time></trkpt><trkpt lat="38.50610132123369" lon="16.27316438556759"><ele>1130.0</ele><time>2026-04-11T13:10:09.001Z</time></trkpt><trkpt lat="38.5061674167163" lon="16.273227284814695"><ele>1130.0</ele><time>2026-04-11T13:10:10.001Z</time></trkpt><trkpt lat="38.50624127827152" lon="16.27328256837488"><ele>1130.0</ele><time>2026-04-11T13:10:11.001Z</time></trkpt><trkpt lat="38.50630927789128" lon="16.273324649244067"><ele>1130.0</ele><time>2026-04-11T13:10:12.001Z</time></trkpt><trkpt lat="38.506380226449274" lon="16.273358561239622"><ele>1130.0</ele><time>2026-04-11T13:10:13.001Z</time></trkpt><trkpt lat="38.506489824413066" lon="16.2734067358128"><ele>1130.0</ele><time>2026-04-11T13:10:14.001Z</time></trkpt><trkpt lat="38.50661470209455" lon="16.273445549599597"><ele>1130.0</ele><time>2026-04-11T13:10:15.001Z</time></trkpt><trkpt lat="38.50678364878264" lon="16.273447747229405"><ele>1130.0</ele><time>2026-04-11T13:10:16.001Z</time></trkpt><trkpt lat="38.50694174212801" lon="16.27346334304299"><ele>1130.0</ele><time>2026-04-11T13:10:17Z</time></trkpt><trkpt lat="38.507061790652635" lon="16.273449962300297"><ele>1130.0</ele><time>2026-04-11T13:10:18Z</time></trkpt><trkpt lat="38.50718099000372" lon="16.273513496596124"><ele>1130.0</ele><time>2026-04-11T13:10:19Z</time></trkpt><trkpt lat="38.50728630389337" lon="16.27359768190626"><ele>1130.0</ele><time>2026-04-11T13:10:20Z</time></trkpt><trkpt lat="38.50736380087764" lon="16.273757432240554"><ele>1130.0</ele><time>2026-04-11T13:10:21Z</time></trkpt><trkpt lat="38.507449853268135" lon="16.27393045707874"><ele>1130.0</ele><time>2026-04-11T13:10:22Z</time></trkpt><trkpt lat="38.50753672973494" lon="16.274092034661173"><ele>1130.0</ele><time>2026-04-11T13:10:23Z</time></trkpt><trkpt lat="38.507617828745346" lon="16.274238986890403"><ele>1130.0</ele><time>2026-04-11T13:10:24Z</time></trkpt><trkpt lat="38.50771322803744" lon="16.274379153959867"><ele>1130.0</ele><time>2026-04-11T13:10:25Z</time></trkpt><trkpt lat="38.50783645657089" lon="16.274506065114863"><ele>1130.0</ele><time>2026-04-11T13:10:26Z</time></trkpt><trkpt lat="38.50799252944278" lon="16.274602614855922"><ele>1127.6666666666667</ele><time>2026-04-11T13:10:27Z</time></trkpt><trkpt lat="38.50813204758275" lon="16.274676410519476"><ele>1125.3333333333333</ele><time>2026-04-11T13:10:28Z</time></trkpt><trkpt lat="38.50826171626838" lon="16.27476067328406"><ele>1123.0</ele><time>2026-04-11T13:10:29Z</time></trkpt><trkpt lat="38.50845211246459" lon="16.274867422950468"><ele>1123.0</ele><time>2026-04-11T13:10:30Z</time></trkpt><trkpt lat="38.50862737352445" lon="16.27496430873243"><ele>1123.0</ele><time>2026-04-11T13:10:31Z</time></trkpt><trkpt lat="38.508722397943885" lon="16.27501601099534"><ele>1123.0</ele><time>2026-04-11T13:10:32Z</time></trkpt><trkpt lat="38.50885117814566" lon="16.275084594647243"><ele>1123.0</ele><time>2026-04-11T13:10:33Z</time></trkpt><trkpt lat="38.50895462984349" lon="16.275136915801227"><ele>1120.5</ele><time>2026-04-11T13:10:34Z</time></trkpt><trkpt lat="38.509064395833214" lon="16.275202729548607"><ele>1118.0</ele><time>2026-04-11T13:10:35Z</time></trkpt><trkpt lat="38.50915083332713" lon="16.275289018852487"><ele>1115.5</ele><time>2026-04-11T13:10:36Z</time></trkpt><trkpt lat="38.50919808119675" lon="16.27543124249854"><ele>1113.0</ele><time>2026-04-11T13:10:37Z</time></trkpt><trkpt lat="38.50917700250192" lon="16.275564153534265"><ele>1112.3333333333333</ele><time>2026-04-11T13:10:38Z</time></trkpt><trkpt lat="38.5091435680781" lon="16.27569851815898"><ele>1111.6666666666665</ele><time>2026-04-11T13:10:39Z</time></trkpt><trkpt lat="38.50908574292945" lon="16.275903451604876"><ele>1111.0</ele><time>2026-04-11T13:10:40Z</time></trkpt><trkpt lat="38.50902779485689" lon="16.27611394263507"><ele>1111.0</ele><time>2026-04-11T13:10:41Z</time></trkpt><trkpt lat="38.50897891958521" lon="16.276318294064104"><ele>1111.0</ele><time>2026-04-11T13:10:42Z</time></trkpt><trkpt lat="38.50893700557274" lon="16.27651614259589"><ele>1111.0</ele><time>2026-04-11T13:10:43Z</time></trkpt><trkpt lat="38.508894179520645" lon="16.27673295461517"><ele>1110.0</ele><time>2026-04-11T13:10:44Z</time></trkpt><trkpt lat="38.50885710290598" lon="16.276943654428056"><ele>1109.0</ele><time>2026-04-11T13:10:45Z</time></trkpt><trkpt lat="38.50882698562605" lon="16.277147343454004"><ele>1108.0</ele><time>2026-04-11T13:10:46Z</time></trkpt><trkpt lat="38.508800548995424" lon="16.27736665515341"><ele>1106.6666666666665</ele><time>2026-04-11T13:10:47Z</time></trkpt><trkpt lat="38.50877993954747" lon="16.27758623503479"><ele>1105.3333333333333</ele><time>2026-04-11T13:10:48Z</time></trkpt><trkpt lat="38.50876303781359" lon="16.277811956509655"><ele>1104.0</ele><time>2026-04-11T13:10:49Z</time></trkpt><trkpt lat="38.50875327679195" lon="16.278026645213455"><ele>1104.0</ele><time>2026-04-11T13:10:50Z</time></trkpt><trkpt lat="38.508746967762704" lon="16.278250335038443"><ele>1104.0</ele><time>2026-04-11T13:10:51Z</time></trkpt><trkpt lat="38.50874128994228" lon="16.278488561790425"><ele>1104.0</ele><time>2026-04-11T13:10:52Z</time></trkpt><trkpt lat="38.50874140663256" lon="16.278708322432276"><ele>1102.0</ele><time>2026-04-11T13:10:53Z</time></trkpt><trkpt lat="38.50876933866797" lon="16.278913193767742"><ele>1100.0</ele><time>2026-04-11T13:10:54Z</time></trkpt><trkpt lat="38.508785727418285" lon="16.279129121183377"><ele>1098.0</ele><time>2026-04-11T13:10:55Z</time></trkpt><trkpt lat="38.508850508731726" lon="16.27938511784836"><ele>1095.6666666666667</ele><time>2026-04-11T13:10:56Z</time></trkpt><trkpt lat="38.50896467784027" lon="16.2796324144958"><ele>1093.3333333333335</ele><time>2026-04-11T13:10:57Z</time></trkpt><trkpt lat="38.509050805559454" lon="16.279852507501296"><ele>1091.0</ele><time>2026-04-11T13:10:58Z</time></trkpt><trkpt lat="38.50915008797951" lon="16.28008320776353"><ele>1091.0</ele><time>2026-04-11T13:10:59Z</time></trkpt><trkpt lat="38.50924645336732" lon="16.28030357831317"><ele>1091.0</ele><time>2026-04-11T13:11:00Z</time></trkpt><trkpt lat="38.50933541617118" lon="16.28050505290212"><ele>1091.0</ele><time>2026-04-11T13:11:01Z</time></trkpt><trkpt lat="38.50942383169139" lon="16.28068658942111"><ele>1091.0</ele><time>2026-04-11T13:11:02Z</time></trkpt><trkpt lat="38.50948391562993" lon="16.28087902423315"><ele>1091.0</ele><time>2026-04-11T13:11:03Z</time></trkpt><trkpt lat="38.509546631965755" lon="16.281066157458813"><ele>1091.0</ele><time>2026-04-11T13:11:04Z</time></trkpt><trkpt lat="38.509599608157856" lon="16.281255612989455"><ele>1089.3333333333335</ele><time>2026-04-11T13:11:05Z</time></trkpt><trkpt lat="38.50966654495009" lon="16.28145831647011"><ele>1087.6666666666667</ele><time>2026-04-11T13:11:06Z</time></trkpt><trkpt lat="38.50972481673941" lon="16.281669633514674"><ele>1086.0</ele><time>2026-04-11T13:11:07Z</time></trkpt><trkpt lat="38.50978086544848" lon="16.281882560678454"><ele>1086.0</ele><time>2026-04-11T13:11:08.001Z</time></trkpt><trkpt lat="38.50983891484101" lon="16.28209922141413"><ele>1086.0</ele><time>2026-04-11T13:11:09.001Z</time></trkpt><trkpt lat="38.50990784071001" lon="16.282322925301614"><ele>1086.0</ele><time>2026-04-11T13:11:10.001Z</time></trkpt><trkpt lat="38.50995263760308" lon="16.282553059081945"><ele>1085.6666666666667</ele><time>2026-04-11T13:11:11.001Z</time></trkpt><trkpt lat="38.51001289120911" lon="16.282787203540906"><ele>1085.3333333333335</ele><time>2026-04-11T13:11:12.001Z</time></trkpt><trkpt lat="38.510082870525366" lon="16.283001260633718"><ele>1085.0</ele><time>2026-04-11T13:11:13.001Z</time></trkpt><trkpt lat="38.51013668189609" lon="16.283207459871694"><ele>1086.0</ele><time>2026-04-11T13:11:14.001Z</time></trkpt><trkpt lat="38.51019234125351" lon="16.28342192610869"><ele>1087.0</ele><time>2026-04-11T13:11:15.001Z</time></trkpt><trkpt lat="38.51024719233563" lon="16.283652556081375"><ele>1088.0</ele><time>2026-04-11T13:11:16.001Z</time></trkpt><trkpt lat="38.510305146187086" lon="16.283887138378013"><ele>1086.6666666666667</ele><time>2026-04-11T13:11:17.001Z</time></trkpt><trkpt lat="38.510328783071344" lon="16.284143608196732"><ele>1085.3333333333333</ele><time>2026-04-11T13:11:18.001Z</time></trkpt><trkpt lat="38.51035654765135" lon="16.28440797755386"><ele>1084.0</ele><time>2026-04-11T13:11:19.001Z</time></trkpt><trkpt lat="38.51039833777331" lon="16.284707951401966"><ele>1081.3333333333333</ele><time>2026-04-11T13:11:20.001Z</time></trkpt><trkpt lat="38.5104068630142" lon="16.284985390705696"><ele>1078.6666666666667</ele><time>2026-04-11T13:11:21.001Z</time></trkpt><trkpt lat="38.51043537930297" lon="16.285254404258936"><ele>1076.0</ele><time>2026-04-11T13:11:22.001Z</time></trkpt><trkpt lat="38.51046217539582" lon="16.285505712455905"><ele>1078.3333333333335</ele><time>2026-04-11T13:11:23.001Z</time></trkpt><trkpt lat="38.51047920343445" lon="16.2857431852756"><ele>1080.6666666666667</ele><time>2026-04-11T13:11:24.001Z</time></trkpt><trkpt lat="38.510485786538574" lon="16.28596052583894"><ele>1083.0</ele><time>2026-04-11T13:11:25.001Z</time></trkpt><trkpt lat="38.51046777673769" lon="16.286189104233234"><ele>1085.6666666666667</ele><time>2026-04-11T13:11:26.001Z</time></trkpt><trkpt lat="38.5104304686336" lon="16.28644134122454"><ele>1088.3333333333335</ele><time>2026-04-11T13:11:27.001Z</time></trkpt><trkpt lat="38.51040257286532" lon="16.28668777824535"><ele>1091.0</ele><time>2026-04-11T13:11:28.001Z</time></trkpt><trkpt lat="38.51037792822812" lon="16.286912900630497"><ele>1085.0</ele><time>2026-04-11T13:11:29.001Z</time></trkpt><trkpt lat="38.510358606650875" lon="16.28713626710321"><ele>1079.0</ele><time>2026-04-11T13:11:30.001Z</time></trkpt><trkpt lat="38.51034913706378" lon="16.287336666490127"><ele>1073.0</ele><time>2026-04-11T13:11:31.001Z</time></trkpt><trkpt lat="38.510367897076144" lon="16.287494717851732"><ele>1077.5</ele><time>2026-04-11T13:11:32.001Z</time></trkpt><trkpt lat="38.51042115197173" lon="16.287615651463458"><ele>1082.0</ele><time>2026-04-11T13:11:33.001Z</time></trkpt><trkpt lat="38.51051407567757" lon="16.28773877363424"><ele>1086.5</ele><time>2026-04-11T13:11:34.001Z</time></trkpt><trkpt lat="38.51067330830619" lon="16.287804000004584"><ele>1091.0</ele><time>2026-04-11T13:11:35.001Z</time></trkpt><trkpt lat="38.51081141832354" lon="16.28783429844416"><ele>1091.0</ele><time>2026-04-11T13:11:36.001Z</time></trkpt><trkpt lat="38.51094067992016" lon="16.28794327408045"><ele>1091.0</ele><time>2026-04-11T13:11:37.001Z</time></trkpt><trkpt lat="38.51105820259691" lon="16.288078720924254"><ele>1091.0</ele><time>2026-04-11T13:11:38.001Z</time></trkpt><trkpt lat="38.511173978253815" lon="16.288253694080502"><ele>1083.3333333333335</ele><time>2026-04-11T13:11:39.001Z</time></trkpt><trkpt lat="38.511299192875356" lon="16.288463240674012"><ele>1075.6666666666667</ele><time>2026-04-11T13:11:40.001Z</time></trkpt><trkpt lat="38.51141317267107" lon="16.288680095323894"><ele>1068.0</ele><time>2026-04-11T13:11:41.001Z</time></trkpt><trkpt lat="38.51153679759854" lon="16.28892310130183"><ele>1068.0</ele><time>2026-04-11T13:11:42.001Z</time></trkpt><trkpt lat="38.51166805821323" lon="16.289181427004056"><ele>1068.0</ele><time>2026-04-11T13:11:43.001Z</time></trkpt><trkpt lat="38.51178632405141" lon="16.289411875042745"><ele>1068.0</ele><time>2026-04-11T13:11:44.001Z</time></trkpt><trkpt lat="38.51189236166896" lon="16.289614401338472"><ele>1068.0</ele><time>2026-04-11T13:11:45.001Z</time></trkpt><trkpt lat="38.51199796736684" lon="16.289819471806315"><ele>1068.0</ele><time>2026-04-11T13:11:46.001Z</time></trkpt><trkpt lat="38.51209586377768" lon="16.290020668251586"><ele>1067.6666666666667</ele><time>2026-04-11T13:11:47.001Z</time></trkpt><trkpt lat="38.51218281963645" lon="16.290221258462562"><ele>1067.3333333333335</ele><time>2026-04-11T13:11:48.001Z</time></trkpt><trkpt lat="38.51225292985073" lon="16.290415626331367"><ele>1067.0</ele><time>2026-04-11T13:11:49.001Z</time></trkpt><trkpt lat="38.51232212873844" lon="16.290620535357952"><ele>1067.0</ele><time>2026-04-11T13:11:50.001Z</time></trkpt><trkpt lat="38.51239501246308" lon="16.290849738817236"><ele>1067.0</ele><time>2026-04-11T13:11:51.001Z</time></trkpt><trkpt lat="38.51246587033104" lon="16.291067609119974"><ele>1067.0</ele><time>2026-04-11T13:11:52.001Z</time></trkpt><trkpt lat="38.512528875055416" lon="16.291244772884575"><ele>1065.3333333333335</ele><time>2026-04-11T13:11:53.001Z</time></trkpt><trkpt lat="38.51259370440972" lon="16.29144229436638"><ele>1063.6666666666667</ele><time>2026-04-11T13:11:54.001Z</time></trkpt><trkpt lat="38.512609098252014" lon="16.291619293854584"><ele>1062.0</ele><time>2026-04-11T13:11:55.001Z</time></trkpt><trkpt lat="38.512615519591506" lon="16.291820367855"><ele>1062.0</ele><time>2026-04-11T13:11:56.001Z</time></trkpt><trkpt lat="38.51260435756795" lon="16.292074948484068"><ele>1062.0</ele><time>2026-04-11T13:11:57.001Z</time></trkpt><trkpt lat="38.512591143528155" lon="16.292337091631264"><ele>1062.0</ele><time>2026-04-11T13:11:58.001Z</time></trkpt><trkpt lat="38.51257774731387" lon="16.292564118186192"><ele>1062.0</ele><time>2026-04-11T13:11:59.001Z</time></trkpt><trkpt lat="38.512581534092014" lon="16.292822765836693"><ele>1062.0</ele><time>2026-04-11T13:12:00.001Z</time></trkpt><trkpt lat="38.51260671850927" lon="16.293079676068817"><ele>1062.0</ele><time>2026-04-11T13:12:01.001Z</time></trkpt><trkpt lat="38.512636876720215" lon="16.293325026818053"><ele>1059.6666666666667</ele><time>2026-04-11T13:12:02.001Z</time></trkpt><trkpt lat="38.51267261467984" lon="16.293544357757714"><ele>1057.3333333333335</ele><time>2026-04-11T13:12:03.001Z</time></trkpt><trkpt lat="38.512725274676285" lon="16.293752973752426"><ele>1055.0</ele><time>2026-04-11T13:12:04.001Z</time></trkpt><trkpt lat="38.512815479868756" lon="16.293943142556415"><ele>1054.8</ele><time>2026-04-11T13:12:05.001Z</time></trkpt><trkpt lat="38.51289027958191" lon="16.29403613084226"><ele>1054.6</ele><time>2026-04-11T13:12:06.001Z</time></trkpt><trkpt lat="38.51295962456054" lon="16.294067404637694"><ele>1054.4</ele><time>2026-04-11T13:12:07.001Z</time></trkpt><trkpt lat="38.51306966029589" lon="16.293994665902087"><ele>1054.2</ele><time>2026-04-11T13:12:08.001Z</time></trkpt><trkpt lat="38.513172840441015" lon="16.293976819085255"><ele>1054.0</ele><time>2026-04-11T13:12:09.001Z</time></trkpt><trkpt lat="38.51327631737276" lon="16.29395853372429"><ele>1054.3333333333333</ele><time>2026-04-11T13:12:10.001Z</time></trkpt><trkpt lat="38.513430204514925" lon="16.29387498766749"><ele>1054.6666666666667</ele><time>2026-04-11T13:12:11.001Z</time></trkpt><trkpt lat="38.51359600773919" lon="16.293880691505233"><ele>1055.0</ele><time>2026-04-11T13:12:12.001Z</time></trkpt><trkpt lat="38.51384473497677" lon="16.293865284428403"><ele>1055.0</ele><time>2026-04-11T13:12:13.001Z</time></trkpt><trkpt lat="38.51402362687717" lon="16.293806443417715"><ele>1055.0</ele><time>2026-04-11T13:12:14.001Z</time></trkpt><trkpt lat="38.51417964580554" lon="16.29375695325796"><ele>1055.0</ele><time>2026-04-11T13:12:15.001Z</time></trkpt><trkpt lat="38.51430320652669" lon="16.293716371375606"><ele>1055.0</ele><time>2026-04-11T13:12:16.001Z</time></trkpt><trkpt lat="38.5144114852056" lon="16.293704227254484"><ele>1055.0</ele><time>2026-04-11T13:12:17.001Z</time></trkpt><trkpt lat="38.51453347319913" lon="16.29368628177802"><ele>1055.0</ele><time>2026-04-11T13:12:18.001Z</time></trkpt><trkpt lat="38.51461062322454" lon="16.293768563693984"><ele>1055.0</ele><time>2026-04-11T13:12:19.001Z</time></trkpt><trkpt lat="38.514627979912916" lon="16.293910272846944"><ele>1055.0</ele><time>2026-04-11T13:12:20.001Z</time></trkpt><trkpt lat="38.51466153433739" lon="16.294039746238603"><ele>1049.5</ele><time>2026-04-11T13:12:21.001Z</time></trkpt><trkpt lat="38.514597571833875" lon="16.294235619378707"><ele>1044.0</ele><time>2026-04-11T13:12:22.001Z</time></trkpt><trkpt lat="38.51461663253223" lon="16.294413061486495"><ele>1038.5</ele><time>2026-04-11T13:12:23Z</time></trkpt><trkpt lat="38.5146783415829" lon="16.294525138128048"><ele>1033.0</ele><time>2026-04-11T13:12:24Z</time></trkpt><trkpt lat="38.51476741487302" lon="16.294706337495732"><ele>1031.3333333333333</ele><time>2026-04-11T13:12:25Z</time></trkpt><trkpt lat="38.51491796294016" lon="16.294828801072118"><ele>1029.6666666666667</ele><time>2026-04-11T13:12:26Z</time></trkpt><trkpt lat="38.51506540533736" lon="16.29493593881328"><ele>1028.0</ele><time>2026-04-11T13:12:27Z</time></trkpt><trkpt lat="38.51517376598564" lon="16.295050390362647"><ele>1028.0</ele><time>2026-04-11T13:12:28Z</time></trkpt><trkpt lat="38.515254509869074" lon="16.295223435421942"><ele>1028.0</ele><time>2026-04-11T13:12:29Z</time></trkpt><trkpt lat="38.515322118730815" lon="16.295414150752368"><ele>1028.0</ele><time>2026-04-11T13:12:30Z</time></trkpt><trkpt lat="38.515400384032326" lon="16.29561647034308"><ele>1022.6666666666667</ele><time>2026-04-11T13:12:31Z</time></trkpt><trkpt lat="38.51546557990802" lon="16.29583500954018"><ele>1017.3333333333333</ele><time>2026-04-11T13:12:32Z</time></trkpt><trkpt lat="38.51554579894519" lon="16.296022696486247"><ele>1012.0</ele><time>2026-04-11T13:12:33Z</time></trkpt><trkpt lat="38.51560760022303" lon="16.29620925653836"><ele>1012.0</ele><time>2026-04-11T13:12:34Z</time></trkpt><trkpt lat="38.51569060556094" lon="16.296409106260136"><ele>1012.0</ele><time>2026-04-11T13:12:35Z</time></trkpt><trkpt lat="38.51577340076458" lon="16.296604385462146"><ele>1012.0</ele><time>2026-04-11T13:12:36Z</time></trkpt><trkpt lat="38.51592705085206" lon="16.296727093210908"><ele>1010.6666666666666</ele><time>2026-04-11T13:12:37Z</time></trkpt><trkpt lat="38.516026496889836" lon="16.29689410573332"><ele>1009.3333333333333</ele><time>2026-04-11T13:12:38Z</time></trkpt><trkpt lat="38.516154047412584" lon="16.297091314831786"><ele>1008.0</ele><time>2026-04-11T13:12:39Z</time></trkpt><trkpt lat="38.51626266519965" lon="16.29726009749102"><ele>1003.3333333333333</ele><time>2026-04-11T13:12:40Z</time></trkpt><trkpt lat="38.51633705534336" lon="16.297413791347743"><ele>998.6666666666666</ele><time>2026-04-11T13:12:41Z</time></trkpt><trkpt lat="38.5163845980973" lon="16.29761838472319"><ele>994.0</ele><time>2026-04-11T13:12:42Z</time></trkpt><trkpt lat="38.51642781776098" lon="16.297810363682487"><ele>994.0</ele><time>2026-04-11T13:12:43Z</time></trkpt><trkpt lat="38.51646900618842" lon="16.298030875955682"><ele>994.0</ele><time>2026-04-11T13:12:44Z</time></trkpt><trkpt lat="38.5165095722283" lon="16.29827174028798"><ele>994.0</ele><time>2026-04-11T13:12:45Z</time></trkpt><trkpt lat="38.51653128200514" lon="16.298464603944577"><ele>992.3333333333333</ele><time>2026-04-11T13:12:46Z</time></trkpt><trkpt lat="38.51653090944654" lon="16.298646194472582"><ele>990.6666666666667</ele><time>2026-04-11T13:12:47Z</time></trkpt><trkpt lat="38.51650004309366" lon="16.298866921958513"><ele>989.0</ele><time>2026-04-11T13:12:48Z</time></trkpt><trkpt lat="38.51646849187489" lon="16.299064095134884"><ele>987.75</ele><time>2026-04-11T13:12:49Z</time></trkpt><trkpt lat="38.516427046888474" lon="16.299257364535215"><ele>986.5</ele><time>2026-04-11T13:12:50Z</time></trkpt><trkpt lat="38.5164047368012" lon="16.29943393390907"><ele>985.25</ele><time>2026-04-11T13:12:51Z</time></trkpt><trkpt lat="38.51643300986946" lon="16.299611956746368"><ele>984.0</ele><time>2026-04-11T13:12:52Z</time></trkpt><trkpt lat="38.51649568888079" lon="16.299831774413207"><ele>981.3333333333333</ele><time>2026-04-11T13:12:53Z</time></trkpt><trkpt lat="38.516566556110455" lon="16.300024003602346"><ele>978.6666666666666</ele><time>2026-04-11T13:12:54Z</time></trkpt><trkpt lat="38.516680367257706" lon="16.3002562004132"><ele>976.0</ele><time>2026-04-11T13:12:55Z</time></trkpt><trkpt lat="38.5167648620862" lon="16.300501667489446"><ele>974.6666666666666</ele><time>2026-04-11T13:12:56Z</time></trkpt><trkpt lat="38.51684282967689" lon="16.30071602426304"><ele>973.3333333333333</ele><time>2026-04-11T13:12:57Z</time></trkpt><trkpt lat="38.51691549607042" lon="16.30091267213524"><ele>972.0</ele><time>2026-04-11T13:12:58Z</time></trkpt><trkpt lat="38.516998819901644" lon="16.301127236763104"><ele>972.0</ele><time>2026-04-11T13:12:59Z</time></trkpt><trkpt lat="38.51706089381822" lon="16.301310998720258"><ele>972.0</ele><time>2026-04-11T13:13:00Z</time></trkpt><trkpt lat="38.517105289589324" lon="16.301488971076306"><ele>972.0</ele><time>2026-04-11T13:13:01Z</time></trkpt><trkpt lat="38.5171130652898" lon="16.301660161153396"><ele>972.0</ele><time>2026-04-11T13:13:02Z</time></trkpt><trkpt lat="38.517083923464824" lon="16.301836000661623"><ele>971.6666666666667</ele><time>2026-04-11T13:13:03Z</time></trkpt><trkpt lat="38.51701261208738" lon="16.302069133400995"><ele>971.3333333333334</ele><time>2026-04-11T13:13:04Z</time></trkpt><trkpt lat="38.51694659840033" lon="16.302283878724253"><ele>971.0</ele><time>2026-04-11T13:13:05Z</time></trkpt><trkpt lat="38.516891218982806" lon="16.302487005501554"><ele>970.6666666666667</ele><time>2026-04-11T13:13:06Z</time></trkpt><trkpt lat="38.51684267088476" lon="16.30268306823126"><ele>970.3333333333333</ele><time>2026-04-11T13:13:07Z</time></trkpt><trkpt lat="38.5168006863769" lon="16.302929900535013"><ele>970.0</ele><time>2026-04-11T13:13:08Z</time></trkpt><trkpt lat="38.51677268272954" lon="16.303222856458042"><ele>969.0</ele><time>2026-04-11T13:13:09.001Z</time></trkpt><trkpt lat="38.51675700894101" lon="16.303454619486793"><ele>968.0</ele><time>2026-04-11T13:13:10.001Z</time></trkpt><trkpt lat="38.51673673378339" lon="16.303664822218725"><ele>967.0</ele><time>2026-04-11T13:13:11.001Z</time></trkpt><trkpt lat="38.51670160477663" lon="16.303871050001465"><ele>965.6666666666666</ele><time>2026-04-11T13:13:12.001Z</time></trkpt><trkpt lat="38.516645652687295" lon="16.304051891696965"><ele>964.3333333333333</ele><time>2026-04-11T13:13:13.001Z</time></trkpt><trkpt lat="38.51655542857809" lon="16.30426911111633"><ele>963.0</ele><time>2026-04-11T13:13:14.001Z</time></trkpt><trkpt lat="38.51645085935606" lon="16.304508345877995"><ele>960.5</ele><time>2026-04-11T13:13:15.001Z</time></trkpt><trkpt lat="38.51633731925359" lon="16.30475873286864"><ele>958.0</ele><time>2026-04-11T13:13:16.001Z</time></trkpt><trkpt lat="38.516223711642425" lon="16.305007253817376"><ele>956.6666666666666</ele><time>2026-04-11T13:13:17.001Z</time></trkpt><trkpt lat="38.516107933321926" lon="16.30526052332262"><ele>955.3333333333333</ele><time>2026-04-11T13:13:18.001Z</time></trkpt><trkpt lat="38.516010429783165" lon="16.30547517995174"><ele>954.0</ele><time>2026-04-11T13:13:19.001Z</time></trkpt><trkpt lat="38.51587493096736" lon="16.305707916607254"><ele>952.5</ele><time>2026-04-11T13:13:20.001Z</time></trkpt><trkpt lat="38.5157324205324" lon="16.305980027218748"><ele>951.0</ele><time>2026-04-11T13:13:21.001Z</time></trkpt><trkpt lat="38.51560051263854" lon="16.306278965248097"><ele>950.0</ele><time>2026-04-11T13:13:22.001Z</time></trkpt><trkpt lat="38.515454609457144" lon="16.30659155685296"><ele>949.0</ele><time>2026-04-11T13:13:23.001Z</time></trkpt><trkpt lat="38.5153634408396" lon="16.30686595319161"><ele>947.3333333333333</ele><time>2026-04-11T13:13:24.001Z</time></trkpt><trkpt lat="38.515249336986386" lon="16.30710575994353"><ele>945.6666666666667</ele><time>2026-04-11T13:13:25.001Z</time></trkpt><trkpt lat="38.51516355824232" lon="16.307274102996832"><ele>944.0</ele><time>2026-04-11T13:13:26.001Z</time></trkpt><trkpt lat="38.51511820910634" lon="16.307461411436936"><ele>942.6666666666667</ele><time>2026-04-11T13:13:27.001Z</time></trkpt><trkpt lat="38.515040903464374" lon="16.307633500901233"><ele>941.3333333333333</ele><time>2026-04-11T13:13:28.001Z</time></trkpt><trkpt lat="38.51495372739719" lon="16.307808642575974"><ele>940.0</ele><time>2026-04-11T13:13:29.001Z</time></trkpt><trkpt lat="38.51485831083213" lon="16.30797087489745"><ele>940.0</ele><time>2026-04-11T13:13:30.001Z</time></trkpt><trkpt lat="38.51474932639496" lon="16.308113440964554"><ele>940.0</ele><time>2026-04-11T13:13:31.001Z</time></trkpt><trkpt lat="38.51461829567057" lon="16.308202199963713"><ele>940.0</ele><time>2026-04-11T13:13:32.001Z</time></trkpt><trkpt lat="38.51450338628066" lon="16.30829515917958"><ele>940.0</ele><time>2026-04-11T13:13:33.001Z</time></trkpt><trkpt lat="38.514411237455285" lon="16.308396084691854"><ele>940.0</ele><time>2026-04-11T13:13:34.001Z</time></trkpt><trkpt lat="38.51436840884726" lon="16.30850237229621"><ele>940.0</ele><time>2026-04-11T13:13:35.001Z</time></trkpt><trkpt lat="38.51436955364809" lon="16.30871132914104"><ele>940.0</ele><time>2026-04-11T13:13:36.001Z</time></trkpt><trkpt lat="38.51437389709767" lon="16.308933780734403"><ele>940.0</ele><time>2026-04-11T13:13:37.001Z</time></trkpt><trkpt lat="38.514382172621566" lon="16.309135306090212"><ele>939.5</ele><time>2026-04-11T13:13:38.001Z</time></trkpt><trkpt lat="38.51439052187309" lon="16.309335115026535"><ele>939.0</ele><time>2026-04-11T13:13:39.001Z</time></trkpt><trkpt lat="38.51439855000443" lon="16.309484000832082"><ele>938.5</ele><time>2026-04-11T13:13:40.001Z</time></trkpt><trkpt lat="38.51443153095263" lon="16.309647148729525"><ele>938.0</ele><time>2026-04-11T13:13:41.001Z</time></trkpt><trkpt lat="38.51446287674727" lon="16.309784585796333"><ele>937.75</ele><time>2026-04-11T13:13:42.001Z</time></trkpt><trkpt lat="38.514513676242" lon="16.309915686307313"><ele>937.5</ele><time>2026-04-11T13:13:43.001Z</time></trkpt><trkpt lat="38.51458369173875" lon="16.310043708481373"><ele>937.25</ele><time>2026-04-11T13:13:44.001Z</time></trkpt><trkpt lat="38.51469914579128" lon="16.310163174693923"><ele>937.0</ele><time>2026-04-11T13:13:45.001Z</time></trkpt><trkpt lat="38.51475147179865" lon="16.310306771359155"><ele>935.75</ele><time>2026-04-11T13:13:46.001Z</time></trkpt><trkpt lat="38.51483077080673" lon="16.31044369970373"><ele>934.5</ele><time>2026-04-11T13:13:47.001Z</time></trkpt><trkpt lat="38.51490579657224" lon="16.31060149512186"><ele>933.25</ele><time>2026-04-11T13:13:48.001Z</time></trkpt><trkpt lat="38.51498575275379" lon="16.31075944044359"><ele>932.0</ele><time>2026-04-11T13:13:49.001Z</time></trkpt><trkpt lat="38.51505008039644" lon="16.310886513182773"><ele>932.0</ele><time>2026-04-11T13:13:50.001Z</time></trkpt><trkpt lat="38.51511900751408" lon="16.311022671723777"><ele>932.0</ele><time>2026-04-11T13:13:51.001Z</time></trkpt><trkpt lat="38.515181939112736" lon="16.311143457070006"><ele>932.0</ele><time>2026-04-11T13:13:52.001Z</time></trkpt><trkpt lat="38.51524663439711" lon="16.311245151276424"><ele>932.0</ele><time>2026-04-11T13:13:53.001Z</time></trkpt><trkpt lat="38.51526883074819" lon="16.311337316155086"><ele>932.0</ele><time>2026-04-11T13:13:54.001Z</time></trkpt><trkpt lat="38.515328674893254" lon="16.311446725008004"><ele>932.2</ele><time>2026-04-11T13:13:55.001Z</time></trkpt><trkpt lat="38.51536886152337" lon="16.311546044307192"><ele>932.4000000000001</ele><time>2026-04-11T13:13:56.001Z</time></trkpt><trkpt lat="38.51542031542737" lon="16.311636282908747"><ele>932.5999999999999</ele><time>2026-04-11T13:13:57.001Z</time></trkpt><trkpt lat="38.5154756238878" lon="16.311758351592825"><ele>932.8</ele><time>2026-04-11T13:13:58.001Z</time></trkpt><trkpt lat="38.51548959333328" lon="16.31187625059528"><ele>933.0</ele><time>2026-04-11T13:13:59.001Z</time></trkpt><trkpt lat="38.51547302115754" lon="16.311997683944572"><ele>932.5</ele><time>2026-04-11T13:14:00.001Z</time></trkpt><trkpt lat="38.515471723440086" lon="16.312103377348897"><ele>932.0</ele><time>2026-04-11T13:14:01.001Z</time></trkpt><trkpt lat="38.515457727740774" lon="16.312227717914364"><ele>931.5</ele><time>2026-04-11T13:14:02.001Z</time></trkpt><trkpt lat="38.51544312019506" lon="16.312326881940542"><ele>931.0</ele><time>2026-04-11T13:14:03.001Z</time></trkpt><trkpt lat="38.51542930559622" lon="16.312420663250695"><ele>930.5</ele><time>2026-04-11T13:14:04.001Z</time></trkpt><trkpt lat="38.5154101731414" lon="16.312550545025"><ele>930.0</ele><time>2026-04-11T13:14:05.001Z</time></trkpt><trkpt lat="38.51537893446345" lon="16.31265423172113"><ele>930.0</ele><time>2026-04-11T13:14:06.001Z</time></trkpt><trkpt lat="38.51537337018697" lon="16.312743657831415"><ele>930.0</ele><time>2026-04-11T13:14:07.001Z</time></trkpt><trkpt lat="38.51534619548976" lon="16.312827733818924"><ele>930.0</ele><time>2026-04-11T13:14:08.001Z</time></trkpt><trkpt lat="38.51529089152003" lon="16.31294312537459"><ele>930.0</ele><time>2026-04-11T13:14:10.001Z</time></trkpt><trkpt lat="38.515209689023536" lon="16.312992155217465"><ele>930.0</ele><time>2026-04-11T13:14:11.001Z</time></trkpt><trkpt lat="38.51513949209238" lon="16.313038588616326"><ele>930.0</ele><time>2026-04-11T13:14:12.001Z</time></trkpt><trkpt lat="38.51504745010848" lon="16.31306800529816"><ele>928.0</ele><time>2026-04-11T13:14:13.001Z</time></trkpt><trkpt lat="38.51497615234338" lon="16.313083658302478"><ele>926.0</ele><time>2026-04-11T13:14:14.001Z</time></trkpt><trkpt lat="38.51491846159566" lon="16.313124109045226"><ele>924.0</ele><time>2026-04-11T13:14:15.001Z</time></trkpt><trkpt lat="38.514855162265484" lon="16.31314930408368"><ele>922.0</ele><time>2026-04-11T13:14:16.001Z</time></trkpt><trkpt lat="38.51476882664013" lon="16.31317511758958"><ele>920.0</ele><time>2026-04-11T13:14:17.001Z</time></trkpt><trkpt lat="38.51469097763065" lon="16.313178814389957"><ele>918.0</ele><time>2026-04-11T13:14:18.001Z</time></trkpt><trkpt lat="38.51460247268013" lon="16.313240848671796"><ele>918.0</ele><time>2026-04-11T13:14:19.001Z</time></trkpt><trkpt lat="38.514537031056506" lon="16.31329287089493"><ele>918.0</ele><time>2026-04-11T13:14:20.001Z</time></trkpt><trkpt lat="38.51449215703476" lon="16.3134223077194"><ele>918.0</ele><time>2026-04-11T13:14:21.001Z</time></trkpt><trkpt lat="38.51451100105784" lon="16.31358618770793"><ele>918.0</ele><time>2026-04-11T13:14:22.001Z</time></trkpt><trkpt lat="38.51454338438376" lon="16.31368309426828"><ele>918.0</ele><time>2026-04-11T13:14:23.001Z</time></trkpt><trkpt lat="38.514585845157704" lon="16.313810156581003"><ele>918.0</ele><time>2026-04-11T13:14:25.001Z</time></trkpt><trkpt lat="38.51452185171749" lon="16.313609245462196"><ele>918.0</ele><time>2026-04-11T13:14:26.001Z</time></trkpt><trkpt lat="38.514544770399006" lon="16.313687241789662"><ele>918.0</ele><time>2026-04-11T13:14:28.001Z</time></trkpt><trkpt lat="38.51457195921969" lon="16.313768603376978"><ele>918.0</ele><time>2026-04-11T13:14:30Z</time></trkpt><trkpt lat="38.51457778807029" lon="16.313861894424175"><ele>918.0</ele><time>2026-04-11T13:14:32Z</time></trkpt><trkpt lat="38.514565630026745" lon="16.31401499846377"><ele>918.2</ele><time>2026-04-11T13:14:34Z</time></trkpt><trkpt lat="38.51450702771603" lon="16.314171433337904"><ele>918.4</ele><time>2026-04-11T13:14:36Z</time></trkpt><trkpt lat="38.51447960055498" lon="16.31424466345473"><ele>918.6000000000001</ele><time>2026-04-11T13:14:37Z</time></trkpt><trkpt lat="38.514445390784246" lon="16.314359058652453"><ele>918.8000000000001</ele><time>2026-04-11T13:14:39Z</time></trkpt><trkpt lat="38.514407823129254" lon="16.3144858655297"><ele>919.0</ele><time>2026-04-11T13:14:41Z</time></trkpt><trkpt lat="38.5143929508002" lon="16.314617907275526"><ele>918.9999999999999</ele><time>2026-04-11T13:14:44Z</time></trkpt><trkpt lat="38.51452477129225" lon="16.3146850750557"><ele>919.0</ele><time>2026-04-11T13:14:45Z</time></trkpt><trkpt lat="38.51457869167421" lon="16.31472776617194"><ele>919.0</ele><time>2026-04-11T13:14:46Z</time></trkpt><trkpt lat="38.51463347257038" lon="16.314780245724737"><ele>919.0</ele><time>2026-04-11T13:14:47Z</time></trkpt><trkpt lat="38.514675588841634" lon="16.31485574821238"><ele>918.9999999999999</ele><time>2026-04-11T13:14:48Z</time></trkpt><trkpt lat="38.51472857759596" lon="16.31491312521595"><ele>919.0</ele><time>2026-04-11T13:14:49Z</time></trkpt><trkpt lat="38.51479186420487" lon="16.315000191638653"><ele>915.25</ele><time>2026-04-11T13:14:50Z</time></trkpt><trkpt lat="38.51479851708946" lon="16.31510755029768"><ele>911.5</ele><time>2026-04-11T13:14:51Z</time></trkpt><trkpt lat="38.514743636192875" lon="16.31521574397681"><ele>907.75</ele><time>2026-04-11T13:14:52Z</time></trkpt><trkpt lat="38.51469027967175" lon="16.315360557522155"><ele>904.0</ele><time>2026-04-11T13:14:53Z</time></trkpt><trkpt lat="38.514622445835826" lon="16.31553464082749"><ele>905.0</ele><time>2026-04-11T13:14:54Z</time></trkpt><trkpt lat="38.51457540898995" lon="16.315675412821474"><ele>906.0000000000001</ele><time>2026-04-11T13:14:55Z</time></trkpt><trkpt lat="38.514526680387476" lon="16.315787861693643"><ele>907.0000000000001</ele><time>2026-04-11T13:14:56Z</time></trkpt><trkpt lat="38.51448311363774" lon="16.315886163110353"><ele>908.0</ele><time>2026-04-11T13:14:57Z</time></trkpt><trkpt lat="38.51444212856504" lon="16.31600081694858"><ele>909.0</ele><time>2026-04-11T13:14:58Z</time></trkpt><trkpt lat="38.51441825450126" lon="16.31612947122198"><ele>909.25</ele><time>2026-04-11T13:14:59Z</time></trkpt><trkpt lat="38.51442035858876" lon="16.316270314504333"><ele>909.5</ele><time>2026-04-11T13:15:00Z</time></trkpt><trkpt lat="38.5144636190048" lon="16.316395268941932"><ele>909.75</ele><time>2026-04-11T13:15:01Z</time></trkpt><trkpt lat="38.514549662957705" lon="16.31650165860775"><ele>910.0</ele><time>2026-04-11T13:15:02Z</time></trkpt><trkpt lat="38.51466256164074" lon="16.316619003998895"><ele>910.0</ele><time>2026-04-11T13:15:03Z</time></trkpt><trkpt lat="38.51480283023142" lon="16.316743006970963"><ele>910.0</ele><time>2026-04-11T13:15:04Z</time></trkpt><trkpt lat="38.514959294020485" lon="16.31689063856633"><ele>910.0</ele><time>2026-04-11T13:15:05Z</time></trkpt><trkpt lat="38.515102491242054" lon="16.31703272786066"><ele>910.0</ele><time>2026-04-11T13:15:06Z</time></trkpt><trkpt lat="38.51521703814416" lon="16.317151371334745"><ele>910.0</ele><time>2026-04-11T13:15:07Z</time></trkpt><trkpt lat="38.51531894925789" lon="16.317296092208643"><ele>910.0</ele><time>2026-04-11T13:15:08Z</time></trkpt><trkpt lat="38.51544009253854" lon="16.317438129820882"><ele>910.8</ele><time>2026-04-11T13:15:09Z</time></trkpt><trkpt lat="38.51553470208104" lon="16.317567044854943"><ele>911.6</ele><time>2026-04-11T13:15:10Z</time></trkpt><trkpt lat="38.51561495610222" lon="16.317658126385652"><ele>912.4000000000001</ele><time>2026-04-11T13:15:11Z</time></trkpt><trkpt lat="38.51567022689552" lon="16.317760936698722"><ele>913.2</ele><time>2026-04-11T13:15:12Z</time></trkpt><trkpt lat="38.51571933943371" lon="16.31787499855204"><ele>914.0</ele><time>2026-04-11T13:15:13Z</time></trkpt><trkpt lat="38.51576809013464" lon="16.317995358093718"><ele>914.2</ele><time>2026-04-11T13:15:14Z</time></trkpt><trkpt lat="38.515780135813486" lon="16.31812958108694"><ele>914.4000000000001</ele><time>2026-04-11T13:15:15Z</time></trkpt><trkpt lat="38.51580406742474" lon="16.318261010597915"><ele>914.6</ele><time>2026-04-11T13:15:16Z</time></trkpt><trkpt lat="38.51576820453174" lon="16.31837863909783"><ele>914.8</ele><time>2026-04-11T13:15:17.001Z</time></trkpt><trkpt lat="38.51567309046675" lon="16.318439037259292"><ele>915.0</ele><time>2026-04-11T13:15:18.001Z</time></trkpt><trkpt lat="38.515574599645916" lon="16.318480232939766"><ele>915.0</ele><time>2026-04-11T13:15:19.001Z</time></trkpt><trkpt lat="38.51548038529147" lon="16.31850044997159"><ele>915.0</ele><time>2026-04-11T13:15:20.001Z</time></trkpt><trkpt lat="38.51535791567343" lon="16.318462513633037"><ele>915.0</ele><time>2026-04-11T13:15:21.001Z</time></trkpt><trkpt lat="38.5152764841799" lon="16.318330279909464"><ele>915.0</ele><time>2026-04-11T13:15:22.001Z</time></trkpt><trkpt lat="38.51517168981093" lon="16.31824991750674"><ele>916.0</ele><time>2026-04-11T13:15:23.001Z</time></trkpt><trkpt lat="38.51505657747273" lon="16.31818304968286"><ele>917.0</ele><time>2026-04-11T13:15:24.001Z</time></trkpt><trkpt lat="38.51493121883166" lon="16.318152175606986"><ele>918.0</ele><time>2026-04-11T13:15:25.001Z</time></trkpt><trkpt lat="38.51481018776635" lon="16.318143401041162"><ele>919.0</ele><time>2026-04-11T13:15:26.001Z</time></trkpt><trkpt lat="38.51468976454203" lon="16.3181504009651"><ele>919.0</ele><time>2026-04-11T13:15:27.001Z</time></trkpt><trkpt lat="38.51456300746111" lon="16.318173383673052"><ele>919.0</ele><time>2026-04-11T13:15:28.001Z</time></trkpt><trkpt lat="38.514423990371576" lon="16.31822745453373"><ele>919.0</ele><time>2026-04-11T13:15:29.001Z</time></trkpt><trkpt lat="38.514253973722965" lon="16.318289883267965"><ele>919.0</ele><time>2026-04-11T13:15:30.001Z</time></trkpt><trkpt lat="38.514074323376285" lon="16.31836679161475"><ele>919.0</ele><time>2026-04-11T13:15:31.001Z</time></trkpt><trkpt lat="38.51392837475555" lon="16.318469543855798"><ele>919.0</ele><time>2026-04-11T13:15:32.001Z</time></trkpt><trkpt lat="38.51382398476109" lon="16.31855853202195"><ele>918.9999999999999</ele><time>2026-04-11T13:15:33.001Z</time></trkpt><trkpt lat="38.51374462247412" lon="16.318663872348367"><ele>919.0</ele><time>2026-04-11T13:15:34.001Z</time></trkpt><trkpt lat="38.513679029057776" lon="16.31877028649367"><ele>919.0</ele><time>2026-04-11T13:15:35.001Z</time></trkpt><trkpt lat="38.513629222663404" lon="16.31886402792475"><ele>919.0</ele><time>2026-04-11T13:15:36.001Z</time></trkpt><trkpt lat="38.513620644252114" lon="16.318951167981805"><ele>918.9999999999999</ele><time>2026-04-11T13:15:37.001Z</time></trkpt><trkpt lat="38.51359122829038" lon="16.319028673069955"><ele>919.0</ele><time>2026-04-11T13:15:42.001Z</time></trkpt><trkpt lat="38.51365880145939" lon="16.318996257540526"><ele>918.9999999999999</ele><time>2026-04-11T13:19:20.001Z</time></trkpt><trkpt lat="38.513698971873744" lon="16.31892492487244"><ele>919.0</ele><time>2026-04-11T13:19:26.001Z</time></trkpt><trkpt lat="38.513745461612444" lon="16.318848518855493"><ele>919.0</ele><time>2026-04-11T13:19:31.001Z</time></trkpt><trkpt lat="38.513702904384566" lon="16.31896274678598"><ele>919.0</ele><time>2026-04-11T13:22:43.001Z</time></trkpt><trkpt lat="38.513683794742256" lon="16.318879899124262"><ele>918.9999999999999</ele><time>2026-04-11T13:22:49.001Z</time></trkpt><trkpt lat="38.51376359125267" lon="16.318837391248387"><ele>919.0</ele><time>2026-04-11T13:32:26Z</time></trkpt><trkpt lat="38.51375556115145" lon="16.318918339354667"><ele>919.0</ele><time>2026-04-11T13:32:57Z</time></trkpt><trkpt lat="38.51367735494927" lon="16.31891573807707"><ele>918.9999999999999</ele><time>2026-04-11T13:33:17Z</time></trkpt><trkpt lat="38.5137437288717" lon="16.31891052486444"><ele>919.0</ele><time>2026-04-11T13:36:59Z</time></trkpt><trkpt lat="38.51368804539629" lon="16.31895237965711"><ele>919.0</ele><time>2026-04-11T13:37:35Z</time></trkpt><trkpt lat="38.513637021063516" lon="16.31901111266312"><ele>918.9999999999999</ele><time>2026-04-11T13:37:41Z</time></trkpt><trkpt lat="38.51356386589076" lon="16.319049705620795"><ele>919.0</ele><time>2026-04-11T13:38:38Z</time></trkpt><trkpt lat="38.513631377186144" lon="16.319048812670367"><ele>919.0</ele><time>2026-04-11T13:38:40Z</time></trkpt><trkpt lat="38.51369766277235" lon="16.319047034980297"><ele>919.0</ele><time>2026-04-11T13:38:45Z</time></trkpt><trkpt lat="38.513772147608265" lon="16.319099893929625"><ele>918.9999999999999</ele><time>2026-04-11T13:38:48Z</time></trkpt><trkpt lat="38.51371584388067" lon="16.319054068265675"><ele>919.0</ele><time>2026-04-11T13:41:42Z</time></trkpt><trkpt lat="38.51363844938508" lon="16.319079608850924"><ele>919.0</ele><time>2026-04-11T13:41:47Z</time></trkpt><trkpt lat="38.51359986890475" lon="16.31901231735106"><ele>918.9999999999999</ele><time>2026-04-11T13:58:16.001Z</time></trkpt><trkpt lat="38.51356785859805" lon="16.31908253644424"><ele>919.0</ele><time>2026-04-11T13:58:52Z</time></trkpt><trkpt lat="38.51361536839048" lon="16.31902032698025"><ele>919.0</ele><time>2026-04-11T13:59:48Z</time></trkpt><trkpt lat="38.51360836402765" lon="16.318935205202305"><ele>919.0</ele><time>2026-04-11T13:59:59.001Z</time></trkpt><trkpt lat="38.513662179462465" lon="16.318886597410444"><ele>918.9999999999999</ele><time>2026-04-11T14:00:13.001Z</time></trkpt><trkpt lat="38.51361116597748" lon="16.318935649187605"><ele>919.0</ele><time>2026-04-11T14:00:47Z</time></trkpt><trkpt lat="38.51360561605282" lon="16.319050444027383"><ele>919.0</ele><time>2026-04-11T14:01:27Z</time></trkpt><trkpt lat="38.51364786550289" lon="16.319122664736586"><ele>918.9999999999999</ele><time>2026-04-11T14:06:47.001Z</time></trkpt><trkpt lat="38.51368442016201" lon="16.31919034612973"><ele>919.0</ele><time>2026-04-11T14:06:48.001Z</time></trkpt><trkpt lat="38.513737482724366" lon="16.319274971333513"><ele>919.0</ele><time>2026-04-11T14:06:49.001Z</time></trkpt><trkpt lat="38.513820804094884" lon="16.31935674835921"><ele>920.1666666666666</ele><time>2026-04-11T14:06:51.001Z</time></trkpt><trkpt lat="38.51389205842852" lon="16.31939179050701"><ele>921.3333333333333</ele><time>2026-04-11T14:06:52.001Z</time></trkpt><trkpt lat="38.51396007232793" lon="16.319447802231775"><ele>922.5</ele><time>2026-04-11T14:06:53.001Z</time></trkpt><trkpt lat="38.51404829612957" lon="16.319508674602694"><ele>923.6666666666667</ele><time>2026-04-11T14:06:54.001Z</time></trkpt><trkpt lat="38.514118088711925" lon="16.319552504588103"><ele>924.8333333333334</ele><time>2026-04-11T14:06:55.001Z</time></trkpt><trkpt lat="38.51417549915769" lon="16.31960034539412"><ele>926.0</ele><time>2026-04-11T14:06:56.001Z</time></trkpt><trkpt lat="38.514234130600855" lon="16.319652565737034"><ele>926.0</ele><time>2026-04-11T14:06:57.001Z</time></trkpt><trkpt lat="38.51436287252419" lon="16.31973156452281"><ele>925.9999999999999</ele><time>2026-04-11T14:06:59.001Z</time></trkpt><trkpt lat="38.51442244874995" lon="16.319779490783144"><ele>925.9999999999999</ele><time>2026-04-11T14:07:00.001Z</time></trkpt><trkpt lat="38.51449004768011" lon="16.31983816961577"><ele>926.0</ele><time>2026-04-11T14:07:01.001Z</time></trkpt><trkpt lat="38.51456617624352" lon="16.319890053067326"><ele>926.0</ele><time>2026-04-11T14:07:02Z</time></trkpt><trkpt lat="38.514636730946016" lon="16.31993229654069"><ele>927.1999999999999</ele><time>2026-04-11T14:07:03Z</time></trkpt><trkpt lat="38.51471213671" lon="16.319969218113012"><ele>928.3999999999999</ele><time>2026-04-11T14:07:04Z</time></trkpt><trkpt lat="38.51486178038104" lon="16.320073968851187"><ele>929.6</ele><time>2026-04-11T14:07:06Z</time></trkpt><trkpt lat="38.51493644345056" lon="16.320136322971027"><ele>930.8</ele><time>2026-04-11T14:07:07Z</time></trkpt><trkpt lat="38.51500491747364" lon="16.320181000831155"><ele>932.0</ele><time>2026-04-11T14:07:08Z</time></trkpt><trkpt lat="38.51509291075613" lon="16.32023045637739"><ele>932.0</ele><time>2026-04-11T14:07:09Z</time></trkpt><trkpt lat="38.51517882605941" lon="16.3202811017577"><ele>932.0</ele><time>2026-04-11T14:07:10Z</time></trkpt><trkpt lat="38.51526433246451" lon="16.320341468910073"><ele>932.0</ele><time>2026-04-11T14:07:11Z</time></trkpt><trkpt lat="38.51536330421231" lon="16.320384988618798"><ele>932.0</ele><time>2026-04-11T14:07:12Z</time></trkpt><trkpt lat="38.51544699573368" lon="16.320448886450215"><ele>932.0</ele><time>2026-04-11T14:07:13Z</time></trkpt><trkpt lat="38.51555417348566" lon="16.320509858662994"><ele>934.0</ele><time>2026-04-11T14:07:14Z</time></trkpt><trkpt lat="38.51566807762074" lon="16.3205676497523"><ele>936.0</ele><time>2026-04-11T14:07:15Z</time></trkpt><trkpt lat="38.51579378724298" lon="16.320609079359524"><ele>938.0</ele><time>2026-04-11T14:07:16Z</time></trkpt><trkpt lat="38.51591685304034" lon="16.320679604272893"><ele>940.0</ele><time>2026-04-11T14:07:17Z</time></trkpt><trkpt lat="38.5160572943409" lon="16.320711596893613"><ele>940.0</ele><time>2026-04-11T14:07:18Z</time></trkpt><trkpt lat="38.51619905202169" lon="16.320738798876636"><ele>940.0</ele><time>2026-04-11T14:07:19Z</time></trkpt><trkpt lat="38.516354074046056" lon="16.32076971836831"><ele>940.0</ele><time>2026-04-11T14:07:20Z</time></trkpt><trkpt lat="38.5165112392862" lon="16.320805037206412"><ele>942.3333333333333</ele><time>2026-04-11T14:07:21Z</time></trkpt><trkpt lat="38.51668784417732" lon="16.32082836369153"><ele>944.6666666666667</ele><time>2026-04-11T14:07:22Z</time></trkpt><trkpt lat="38.51684743585523" lon="16.32083033612891"><ele>947.0</ele><time>2026-04-11T14:07:23Z</time></trkpt><trkpt lat="38.51699192296953" lon="16.320822029640382"><ele>948.25</ele><time>2026-04-11T14:07:24Z</time></trkpt><trkpt lat="38.517136279284614" lon="16.320809476104753"><ele>949.5</ele><time>2026-04-11T14:07:25Z</time></trkpt><trkpt lat="38.51728694831749" lon="16.32079745831506"><ele>950.75</ele><time>2026-04-11T14:07:26Z</time></trkpt><trkpt lat="38.51742204942687" lon="16.32080734430354"><ele>952.0</ele><time>2026-04-11T14:07:27Z</time></trkpt><trkpt lat="38.517540540371215" lon="16.320803469547368"><ele>952.0</ele><time>2026-04-11T14:07:28Z</time></trkpt><trkpt lat="38.517647404085565" lon="16.32080240219961"><ele>952.0</ele><time>2026-04-11T14:07:29Z</time></trkpt><trkpt lat="38.51774836545691" lon="16.320813670104428"><ele>952.0</ele><time>2026-04-11T14:07:30Z</time></trkpt><trkpt lat="38.51784347435558" lon="16.32086285806638"><ele>952.0</ele><time>2026-04-11T14:07:31Z</time></trkpt><trkpt lat="38.517952114873964" lon="16.32092391612535"><ele>952.0</ele><time>2026-04-11T14:07:32Z</time></trkpt><trkpt lat="38.51806947180432" lon="16.321000340415168"><ele>954.5</ele><time>2026-04-11T14:07:33Z</time></trkpt><trkpt lat="38.51818929937554" lon="16.321082960153365"><ele>957.0</ele><time>2026-04-11T14:07:34Z</time></trkpt><trkpt lat="38.51829576920337" lon="16.321184986353575"><ele>959.5</ele><time>2026-04-11T14:07:35Z</time></trkpt><trkpt lat="38.51837023926614" lon="16.321304851599162"><ele>962.0</ele><time>2026-04-11T14:07:36Z</time></trkpt><trkpt lat="38.51842845365887" lon="16.321417204332747"><ele>963.6</ele><time>2026-04-11T14:07:37Z</time></trkpt><trkpt lat="38.51849549511933" lon="16.321492470599317"><ele>965.2</ele><time>2026-04-11T14:07:38.001Z</time></trkpt><trkpt lat="38.51858621578747" lon="16.321525207327934"><ele>966.8</ele><time>2026-04-11T14:07:39.001Z</time></trkpt><trkpt lat="38.51867352517208" lon="16.321509333771505"><ele>968.4</ele><time>2026-04-11T14:07:40.001Z</time></trkpt><trkpt lat="38.51876828022264" lon="16.3214340743822"><ele>970.0</ele><time>2026-04-11T14:07:41.001Z</time></trkpt><trkpt lat="38.51884063491268" lon="16.321305215550684"><ele>973.25</ele><time>2026-04-11T14:07:42.001Z</time></trkpt><trkpt lat="38.51890083335168" lon="16.321145400973492"><ele>976.5</ele><time>2026-04-11T14:07:43.001Z</time></trkpt><trkpt lat="38.51894344150566" lon="16.32098930734906"><ele>979.75</ele><time>2026-04-11T14:07:44.001Z</time></trkpt><trkpt lat="38.51895187592119" lon="16.320832872652165"><ele>983.0</ele><time>2026-04-11T14:07:45.001Z</time></trkpt><trkpt lat="38.51890447553062" lon="16.320659749684232"><ele>985.6666666666667</ele><time>2026-04-11T14:07:46.001Z</time></trkpt><trkpt lat="38.51887281757649" lon="16.320462311889923"><ele>988.3333333333333</ele><time>2026-04-11T14:07:47.001Z</time></trkpt><trkpt lat="38.518834883219114" lon="16.320285089284347"><ele>991.0</ele><time>2026-04-11T14:07:48.001Z</time></trkpt><trkpt lat="38.51879832660834" lon="16.32009285050688"><ele>991.0</ele><time>2026-04-11T14:07:49.001Z</time></trkpt><trkpt lat="38.5187663744851" lon="16.319925489965666"><ele>991.0</ele><time>2026-04-11T14:07:50.001Z</time></trkpt><trkpt lat="38.51875220650036" lon="16.319785547752893"><ele>991.0</ele><time>2026-04-11T14:07:51.001Z</time></trkpt><trkpt lat="38.51879565912496" lon="16.31966781484381"><ele>991.0</ele><time>2026-04-11T14:07:52.001Z</time></trkpt><trkpt lat="38.51888152818252" lon="16.319533304232344"><ele>991.5</ele><time>2026-04-11T14:07:53.001Z</time></trkpt><trkpt lat="38.518938851292226" lon="16.319381163366334"><ele>992.0</ele><time>2026-04-11T14:07:54.001Z</time></trkpt><trkpt lat="38.519033106044056" lon="16.31923925172071"><ele>992.5</ele><time>2026-04-11T14:07:55.001Z</time></trkpt><trkpt lat="38.51912110284568" lon="16.31906057038957"><ele>993.0</ele><time>2026-04-11T14:07:56.001Z</time></trkpt><trkpt lat="38.519221938866295" lon="16.318908234422626"><ele>992.0</ele><time>2026-04-11T14:07:57.001Z</time></trkpt><trkpt lat="38.51932199955976" lon="16.318824741612676"><ele>991.0</ele><time>2026-04-11T14:07:58.001Z</time></trkpt><trkpt lat="38.519439170368365" lon="16.31873675278481"><ele>990.0</ele><time>2026-04-11T14:07:59.001Z</time></trkpt><trkpt lat="38.5195750104162" lon="16.31865415100498"><ele>989.0</ele><time>2026-04-11T14:08:00.001Z</time></trkpt><trkpt lat="38.51971210171809" lon="16.318626514063457"><ele>989.0</ele><time>2026-04-11T14:08:01.001Z</time></trkpt><trkpt lat="38.51984701735855" lon="16.31857905613886"><ele>989.0</ele><time>2026-04-11T14:08:02.001Z</time></trkpt><trkpt lat="38.51999214289423" lon="16.318576983790578"><ele>989.0</ele><time>2026-04-11T14:08:03.001Z</time></trkpt><trkpt lat="38.52011938805156" lon="16.31858024476587"><ele>989.0</ele><time>2026-04-11T14:08:04.001Z</time></trkpt><trkpt lat="38.5202544386793" lon="16.318604096967153"><ele>989.5</ele><time>2026-04-11T14:08:05.001Z</time></trkpt><trkpt lat="38.52041582255428" lon="16.318652677699028"><ele>990.0</ele><time>2026-04-11T14:08:06.001Z</time></trkpt><trkpt lat="38.52051960541298" lon="16.318703179746795"><ele>990.5</ele><time>2026-04-11T14:08:07.001Z</time></trkpt><trkpt lat="38.5206385519673" lon="16.318787732099317"><ele>991.0</ele><time>2026-04-11T14:08:08.001Z</time></trkpt><trkpt lat="38.52074684676032" lon="16.31888119815286"><ele>996.6666666666666</ele><time>2026-04-11T14:08:09.001Z</time></trkpt><trkpt lat="38.520892737645056" lon="16.319008640379277"><ele>1002.3333333333333</ele><time>2026-04-11T14:08:10.001Z</time></trkpt><trkpt lat="38.52099882847413" lon="16.319093160827563"><ele>1008.0</ele><time>2026-04-11T14:08:11.001Z</time></trkpt><trkpt lat="38.52115816479791" lon="16.319187096397485"><ele>1007.3333333333333</ele><time>2026-04-11T14:08:12.001Z</time></trkpt><trkpt lat="38.52130932251018" lon="16.319234128890646"><ele>1006.6666666666666</ele><time>2026-04-11T14:08:13.001Z</time></trkpt><trkpt lat="38.52145649488266" lon="16.319275003124663"><ele>1006.0</ele><time>2026-04-11T14:08:14.001Z</time></trkpt><trkpt lat="38.52161476809178" lon="16.31931814839475"><ele>1006.0</ele><time>2026-04-11T14:08:15.001Z</time></trkpt><trkpt lat="38.52180103867775" lon="16.319368925750428"><ele>1006.0</ele><time>2026-04-11T14:08:16.001Z</time></trkpt><trkpt lat="38.52198773722847" lon="16.319421129416387"><ele>1006.0</ele><time>2026-04-11T14:08:17.001Z</time></trkpt><trkpt lat="38.52218138441335" lon="16.319477240275013"><ele>1005.3333333333333</ele><time>2026-04-11T14:08:18.001Z</time></trkpt><trkpt lat="38.522349172919014" lon="16.31952585830369"><ele>1004.6666666666667</ele><time>2026-04-11T14:08:19.001Z</time></trkpt><trkpt lat="38.52250883052682" lon="16.31956365647351"><ele>1004.0</ele><time>2026-04-11T14:08:20.001Z</time></trkpt><trkpt lat="38.52266923928556" lon="16.31961757128292"><ele>1004.0</ele><time>2026-04-11T14:08:21.001Z</time></trkpt><trkpt lat="38.522784430113084" lon="16.319672597696947"><ele>1004.0000000000001</ele><time>2026-04-11T14:08:22.001Z</time></trkpt><trkpt lat="38.52289222858485" lon="16.319739573083854"><ele>1004.0000000000001</ele><time>2026-04-11T14:08:23.001Z</time></trkpt><trkpt lat="38.522975061708195" lon="16.319838601227893"><ele>1004.0</ele><time>2026-04-11T14:08:24.001Z</time></trkpt><trkpt lat="38.523045465711846" lon="16.319913174912774"><ele>1004.0</ele><time>2026-04-11T14:08:25.001Z</time></trkpt><trkpt lat="38.52312160807593" lon="16.319993825345033"><ele>1002.5</ele><time>2026-04-11T14:08:26.001Z</time></trkpt><trkpt lat="38.52319862215223" lon="16.320076243915715"><ele>1001.0</ele><time>2026-04-11T14:08:27.001Z</time></trkpt><trkpt lat="38.523304757154506" lon="16.320170029948688"><ele>999.5</ele><time>2026-04-11T14:08:28.001Z</time></trkpt><trkpt lat="38.52345103784364" lon="16.320196098455497"><ele>998.0</ele><time>2026-04-11T14:08:29.001Z</time></trkpt><trkpt lat="38.523582799046345" lon="16.320204800263532"><ele>996.6666666666667</ele><time>2026-04-11T14:08:30.001Z</time></trkpt><trkpt lat="38.523752812022785" lon="16.320134792790768"><ele>995.3333333333333</ele><time>2026-04-11T14:08:31.001Z</time></trkpt><trkpt lat="38.52387225046161" lon="16.32009327940677"><ele>994.0</ele><time>2026-04-11T14:08:32.001Z</time></trkpt><trkpt lat="38.52401891423443" lon="16.320049265161103"><ele>994.0</ele><time>2026-04-11T14:08:33.001Z</time></trkpt><trkpt lat="38.524169087380564" lon="16.320022079097484"><ele>994.0</ele><time>2026-04-11T14:08:34.001Z</time></trkpt><trkpt lat="38.52433175763403" lon="16.320034335921605"><ele>994.0</ele><time>2026-04-11T14:08:35.001Z</time></trkpt><trkpt lat="38.5245092490073" lon="16.320064132508307"><ele>993.6666666666666</ele><time>2026-04-11T14:08:36.001Z</time></trkpt><trkpt lat="38.52469597475708" lon="16.320097980946997"><ele>993.3333333333333</ele><time>2026-04-11T14:08:37.001Z</time></trkpt><trkpt lat="38.524890949812324" lon="16.3201307696293"><ele>993.0</ele><time>2026-04-11T14:08:38.001Z</time></trkpt><trkpt lat="38.5251029801711" lon="16.320155124056868"><ele>993.0</ele><time>2026-04-11T14:08:39.001Z</time></trkpt><trkpt lat="38.52530881008166" lon="16.320189994945988"><ele>993.0</ele><time>2026-04-11T14:08:40.001Z</time></trkpt><trkpt lat="38.525515918003585" lon="16.320247517751742"><ele>993.0</ele><time>2026-04-11T14:08:41.001Z</time></trkpt><trkpt lat="38.52572630322501" lon="16.320286834788917"><ele>991.6666666666667</ele><time>2026-04-11T14:08:42.001Z</time></trkpt><trkpt lat="38.525921669715636" lon="16.32032318723844"><ele>990.3333333333334</ele><time>2026-04-11T14:08:43.001Z</time></trkpt><trkpt lat="38.52610499252478" lon="16.32035713244242"><ele>989.0</ele><time>2026-04-11T14:08:44.001Z</time></trkpt><trkpt lat="38.5262779422792" lon="16.320389156884946"><ele>989.0</ele><time>2026-04-11T14:08:45.001Z</time></trkpt><trkpt lat="38.52644969829841" lon="16.320421389604387"><ele>989.0</ele><time>2026-04-11T14:08:46.001Z</time></trkpt><trkpt lat="38.526621787000394" lon="16.32045539728055"><ele>989.0</ele><time>2026-04-11T14:08:47.001Z</time></trkpt><trkpt lat="38.526797425981755" lon="16.320471846585132"><ele>989.0</ele><time>2026-04-11T14:08:48.001Z</time></trkpt><trkpt lat="38.52698096182182" lon="16.320506130854085"><ele>989.0</ele><time>2026-04-11T14:08:49.001Z</time></trkpt><trkpt lat="38.52717095451932" lon="16.320540158022773"><ele>989.0</ele><time>2026-04-11T14:08:50.001Z</time></trkpt><trkpt lat="38.527355089117926" lon="16.320574675751562"><ele>989.3333333333334</ele><time>2026-04-11T14:08:51.001Z</time></trkpt><trkpt lat="38.52754299354009" lon="16.320610189035897"><ele>989.6666666666667</ele><time>2026-04-11T14:08:52.001Z</time></trkpt><trkpt lat="38.52773248257743" lon="16.32064672113191"><ele>990.0</ele><time>2026-04-11T14:08:53.001Z</time></trkpt><trkpt lat="38.52791088852276" lon="16.320700161845995"><ele>991.0</ele><time>2026-04-11T14:08:54.001Z</time></trkpt><trkpt lat="38.52809735037724" lon="16.32073522682466"><ele>992.0</ele><time>2026-04-11T14:08:55.001Z</time></trkpt><trkpt lat="38.528251699096735" lon="16.32076417697511"><ele>993.0</ele><time>2026-04-11T14:08:56.001Z</time></trkpt><trkpt lat="38.528387364624656" lon="16.32078962284316"><ele>993.0</ele><time>2026-04-11T14:08:57.001Z</time></trkpt><trkpt lat="38.52850767587864" lon="16.320812188811647"><ele>993.0</ele><time>2026-04-11T14:08:58.001Z</time></trkpt><trkpt lat="38.528633323719546" lon="16.320835755728183"><ele>993.0</ele><time>2026-04-11T14:08:58.999Z</time></trkpt><trkpt lat="38.52876014869118" lon="16.32085954343"><ele>993.0</ele><time>2026-04-11T14:08:59.999Z</time></trkpt><trkpt lat="38.52891027644562" lon="16.32087835160101"><ele>994.5</ele><time>2026-04-11T14:09:00.999Z</time></trkpt><trkpt lat="38.52904356171056" lon="16.320901570467615"><ele>996.0</ele><time>2026-04-11T14:09:01.999Z</time></trkpt><trkpt lat="38.529171402942026" lon="16.32092167107593"><ele>997.5</ele><time>2026-04-11T14:09:02.999Z</time></trkpt><trkpt lat="38.529284963082794" lon="16.320941032504628"><ele>999.0</ele><time>2026-04-11T14:09:03.999Z</time></trkpt><trkpt lat="38.52939301337518" lon="16.320978635340268"><ele>999.0</ele><time>2026-04-11T14:09:04.999Z</time></trkpt><trkpt lat="38.529516320496455" lon="16.32099390679613"><ele>999.0</ele><time>2026-04-11T14:09:05.999Z</time></trkpt><trkpt lat="38.52964041741339" lon="16.321013612396374"><ele>999.0</ele><time>2026-04-11T14:09:06.999Z</time></trkpt><trkpt lat="38.529761840995064" lon="16.321045667860243"><ele>999.0</ele><time>2026-04-11T14:09:07.999Z</time></trkpt><trkpt lat="38.52986228592736" lon="16.32106392321255"><ele>999.0</ele><time>2026-04-11T14:09:08.999Z</time></trkpt><trkpt lat="38.52997261496199" lon="16.321084004721737"><ele>999.0</ele><time>2026-04-11T14:09:09.999Z</time></trkpt><trkpt lat="38.530092174338726" lon="16.321084823598135"><ele>999.0</ele><time>2026-04-11T14:09:11Z</time></trkpt><trkpt lat="38.530219131268716" lon="16.32112918944554"><ele>999.0</ele><time>2026-04-11T14:09:11.999Z</time></trkpt><trkpt lat="38.530343818160574" lon="16.32116270582324"><ele>999.0</ele><time>2026-04-11T14:09:12.999Z</time></trkpt><trkpt lat="38.53048940959165" lon="16.321175319563427"><ele>999.0</ele><time>2026-04-11T14:09:13.999Z</time></trkpt><trkpt lat="38.53062686811744" lon="16.32120255548732"><ele>999.0</ele><time>2026-04-11T14:09:14.999Z</time></trkpt><trkpt lat="38.53078137751302" lon="16.321224968999303"><ele>999.0</ele><time>2026-04-11T14:09:15.999Z</time></trkpt><trkpt lat="38.53094411761321" lon="16.321255375561"><ele>999.0</ele><time>2026-04-11T14:09:17Z</time></trkpt><trkpt lat="38.53110305922243" lon="16.321286290815937"><ele>999.0</ele><time>2026-04-11T14:09:18Z</time></trkpt><trkpt lat="38.53125915475428" lon="16.32131471850507"><ele>999.0</ele><time>2026-04-11T14:09:19Z</time></trkpt><trkpt lat="38.53141571787534" lon="16.321348019686713"><ele>1000.5</ele><time>2026-04-11T14:09:20Z</time></trkpt><trkpt lat="38.53155379598373" lon="16.321374386665227"><ele>1002.0</ele><time>2026-04-11T14:09:21Z</time></trkpt><trkpt lat="38.5316908005318" lon="16.321402773574608"><ele>1003.5</ele><time>2026-04-11T14:09:22Z</time></trkpt><trkpt lat="38.53181153528208" lon="16.321414010410784"><ele>1005.0</ele><time>2026-04-11T14:09:23Z</time></trkpt><trkpt lat="38.53192118214648" lon="16.321433834368932"><ele>1005.0</ele><time>2026-04-11T14:09:24Z</time></trkpt><trkpt lat="38.53201656928966" lon="16.321456964074745"><ele>1005.0</ele><time>2026-04-11T14:09:25Z</time></trkpt><trkpt lat="38.532088632214354" lon="16.321489806379528"><ele>1005.0</ele><time>2026-04-11T14:09:26Z</time></trkpt><trkpt lat="38.53216951243082" lon="16.321476471348074"><ele>1005.0</ele><time>2026-04-11T14:09:27Z</time></trkpt><trkpt lat="38.53230157709111" lon="16.32150670731357"><ele>1005.0</ele><time>2026-04-11T14:09:28Z</time></trkpt><trkpt lat="38.532416436311806" lon="16.321504701830424"><ele>1005.0</ele><time>2026-04-11T14:09:29Z</time></trkpt><trkpt lat="38.532529287550716" lon="16.321498752087095"><ele>1005.0</ele><time>2026-04-11T14:09:30Z</time></trkpt><trkpt lat="38.532663306894285" lon="16.321469806439268"><ele>1005.0</ele><time>2026-04-11T14:09:31Z</time></trkpt><trkpt lat="38.53274468604445" lon="16.32140130094953"><ele>1005.0</ele><time>2026-04-11T14:09:32Z</time></trkpt><trkpt lat="38.53282759908225" lon="16.321372419621667"><ele>1005.0</ele><time>2026-04-11T14:09:33Z</time></trkpt><trkpt lat="38.53288788676787" lon="16.321328428095693"><ele>1004.4</ele><time>2026-04-11T14:09:34Z</time></trkpt><trkpt lat="38.53294350362697" lon="16.32128465115159"><ele>1003.8</ele><time>2026-04-11T14:09:35Z</time></trkpt><trkpt lat="38.533009689503736" lon="16.32120959939596"><ele>1003.2</ele><time>2026-04-11T14:09:36Z</time></trkpt><trkpt lat="38.533091783814605" lon="16.321112873551737"><ele>1002.6</ele><time>2026-04-11T14:09:37Z</time></trkpt><trkpt lat="38.533167293465" lon="16.320986511910025"><ele>1002.0</ele><time>2026-04-11T14:09:38Z</time></trkpt><trkpt lat="38.53325234719062" lon="16.320872524894927"><ele>1002.0</ele><time>2026-04-11T14:09:39Z</time></trkpt><trkpt lat="38.533352359048024" lon="16.3207685235286"><ele>1002.0</ele><time>2026-04-11T14:09:40Z</time></trkpt><trkpt lat="38.53343915869883" lon="16.320635457268605"><ele>1002.0</ele><time>2026-04-11T14:09:41Z</time></trkpt><trkpt lat="38.53352967163744" lon="16.32051091285326"><ele>1002.0</ele><time>2026-04-11T14:09:42Z</time></trkpt><trkpt lat="38.53363169432711" lon="16.320376819463903"><ele>1003.6666666666667</ele><time>2026-04-11T14:09:43Z</time></trkpt><trkpt lat="38.53373207835563" lon="16.320237722729086"><ele>1005.3333333333334</ele><time>2026-04-11T14:09:44Z</time></trkpt><trkpt lat="38.53383043021778" lon="16.320096437398945"><ele>1007.0</ele><time>2026-04-11T14:09:45Z</time></trkpt><trkpt lat="38.53393232037459" lon="16.319948840755313"><ele>1007.0</ele><time>2026-04-11T14:09:46Z</time></trkpt><trkpt lat="38.53403870119123" lon="16.319803900964466"><ele>1007.0</ele><time>2026-04-11T14:09:47Z</time></trkpt><trkpt lat="38.534146910467726" lon="16.31965635383301"><ele>1007.0</ele><time>2026-04-11T14:09:48Z</time></trkpt><trkpt lat="38.534255158293405" lon="16.319510848880746"><ele>1005.3333333333334</ele><time>2026-04-11T14:09:49Z</time></trkpt><trkpt lat="38.534360489814496" lon="16.319365362105724"><ele>1003.6666666666667</ele><time>2026-04-11T14:09:50Z</time></trkpt><trkpt lat="38.53446958845436" lon="16.319226470292893"><ele>1002.0</ele><time>2026-04-11T14:09:51Z</time></trkpt><trkpt lat="38.53458569947193" lon="16.319093920182503"><ele>1003.3333333333333</ele><time>2026-04-11T14:09:52Z</time></trkpt><trkpt lat="38.53471210423506" lon="16.318970842323385"><ele>1004.6666666666666</ele><time>2026-04-11T14:09:53Z</time></trkpt><trkpt lat="38.53485485031017" lon="16.318854648766383"><ele>1006.0</ele><time>2026-04-11T14:09:54Z</time></trkpt><trkpt lat="38.535004518575995" lon="16.318726042981993"><ele>1006.0</ele><time>2026-04-11T14:09:55Z</time></trkpt><trkpt lat="38.535163557488914" lon="16.3186045027206"><ele>1006.0</ele><time>2026-04-11T14:09:56Z</time></trkpt><trkpt lat="38.53531375122484" lon="16.31848377971678"><ele>1006.0</ele><time>2026-04-11T14:09:57Z</time></trkpt><trkpt lat="38.53545667977707" lon="16.31837831130051"><ele>1007.0</ele><time>2026-04-11T14:09:58Z</time></trkpt><trkpt lat="38.53556788438465" lon="16.318294109984013"><ele>1008.0</ele><time>2026-04-11T14:09:59Z</time></trkpt><trkpt lat="38.53569070880877" lon="16.31823223499094"><ele>1009.0</ele><time>2026-04-11T14:10:00Z</time></trkpt><trkpt lat="38.53584173223018" lon="16.318247335203534"><ele>1010.0</ele><time>2026-04-11T14:10:01Z</time></trkpt><trkpt lat="38.53598121366659" lon="16.318280090327224"><ele>1010.0</ele><time>2026-04-11T14:10:02Z</time></trkpt><trkpt lat="38.536105521931205" lon="16.318322948853456"><ele>1010.0</ele><time>2026-04-11T14:10:03Z</time></trkpt><trkpt lat="38.53621875346348" lon="16.318355506323527"><ele>1010.0</ele><time>2026-04-11T14:10:04Z</time></trkpt><trkpt lat="38.536330484295306" lon="16.31834110299888"><ele>1010.0</ele><time>2026-04-11T14:10:05Z</time></trkpt><trkpt lat="38.536433204502806" lon="16.31828015566802"><ele>1010.5</ele><time>2026-04-11T14:10:06Z</time></trkpt><trkpt lat="38.53652444788391" lon="16.318193614541457"><ele>1011.0</ele><time>2026-04-11T14:10:07Z</time></trkpt><trkpt lat="38.53655078791553" lon="16.318008490008626"><ele>1011.5</ele><time>2026-04-11T14:10:08Z</time></trkpt><trkpt lat="38.53658577387634" lon="16.3178524671889"><ele>1012.0</ele><time>2026-04-11T14:10:09Z</time></trkpt><trkpt lat="38.53660376422812" lon="16.317723546317474"><ele>1012.0</ele><time>2026-04-11T14:10:10Z</time></trkpt><trkpt lat="38.536667928816414" lon="16.317605968543567"><ele>1012.0</ele><time>2026-04-11T14:10:11Z</time></trkpt><trkpt lat="38.53677154093794" lon="16.31750686087061"><ele>1012.0</ele><time>2026-04-11T14:10:12Z</time></trkpt><trkpt lat="38.536899923315545" lon="16.317423086720733"><ele>1012.0</ele><time>2026-04-11T14:10:13Z</time></trkpt><trkpt lat="38.53703440654005" lon="16.317339953824398"><ele>1013.0</ele><time>2026-04-11T14:10:14Z</time></trkpt><trkpt lat="38.537153615121035" lon="16.31725516072932"><ele>1014.0</ele><time>2026-04-11T14:10:15Z</time></trkpt><trkpt lat="38.53727014540107" lon="16.31713350573597"><ele>1015.0</ele><time>2026-04-11T14:10:16Z</time></trkpt><trkpt lat="38.537354998682126" lon="16.317006792281724"><ele>1016.0</ele><time>2026-04-11T14:10:17Z</time></trkpt><trkpt lat="38.53742064950059" lon="16.316882657979253"><ele>1016.0</ele><time>2026-04-11T14:10:18Z</time></trkpt><trkpt lat="38.53748404242628" lon="16.316771411500184"><ele>1015.9999999999999</ele><time>2026-04-11T14:10:19Z</time></trkpt><trkpt lat="38.53754703602252" lon="16.316668442384803"><ele>1015.9999999999999</ele><time>2026-04-11T14:10:20Z</time></trkpt><trkpt lat="38.53762273084325" lon="16.316584090901088"><ele>1016.0</ele><time>2026-04-11T14:10:21Z</time></trkpt><trkpt lat="38.5377031231602" lon="16.31650952203102"><ele>1016.0</ele><time>2026-04-11T14:10:22Z</time></trkpt><trkpt lat="38.53780268791835" lon="16.316447172426336"><ele>1018.0000000000001</ele><time>2026-04-11T14:10:23Z</time></trkpt><trkpt lat="38.53790705706111" lon="16.316401965316405"><ele>1020.0</ele><time>2026-04-11T14:10:24Z</time></trkpt><trkpt lat="38.53798222347796" lon="16.316371750144047"><ele>1022.0</ele><time>2026-04-11T14:10:25Z</time></trkpt><trkpt lat="38.53804938312525" lon="16.316362134958062"><ele>1024.0</ele><time>2026-04-11T14:10:26Z</time></trkpt><trkpt lat="38.53814407368517" lon="16.316324583493767"><ele>1026.0</ele><time>2026-04-11T14:10:28Z</time></trkpt><trkpt lat="38.538207547575084" lon="16.31630090743571"><ele>1028.0</ele><time>2026-04-11T14:10:31Z</time></trkpt><trkpt lat="38.538263734267304" lon="16.316246361663463"><ele>1028.0</ele><time>2026-04-11T14:11:45Z</time></trkpt><trkpt lat="38.53821000474088" lon="16.315897512550244"><ele>1028.0</ele><time>2026-04-11T14:11:46Z</time></trkpt><trkpt lat="38.53822805185965" lon="16.31581420460037"><ele>1028.0</ele><time>2026-04-11T14:11:47Z</time></trkpt><trkpt lat="38.53824301943484" lon="16.315725990235787"><ele>1028.0</ele><time>2026-04-11T14:11:48Z</time></trkpt><trkpt lat="38.53823941174326" lon="16.315592963002352"><ele>1028.2</ele><time>2026-04-11T14:11:49Z</time></trkpt><trkpt lat="38.53822571227443" lon="16.31546765567727"><ele>1028.4</ele><time>2026-04-11T14:11:50Z</time></trkpt><trkpt lat="38.53819625062295" lon="16.315348579330394"><ele>1028.6000000000001</ele><time>2026-04-11T14:11:51Z</time></trkpt><trkpt lat="38.53818250261331" lon="16.31523934124647"><ele>1028.8</ele><time>2026-04-11T14:11:52Z</time></trkpt><trkpt lat="38.538150974150604" lon="16.315110247564895"><ele>1029.0</ele><time>2026-04-11T14:11:53Z</time></trkpt><trkpt lat="38.53812206286625" lon="16.315013351723028"><ele>1029.0</ele><time>2026-04-11T14:11:54Z</time></trkpt><trkpt lat="38.53811333936485" lon="16.314931768175704"><ele>1029.0</ele><time>2026-04-11T14:11:55Z</time></trkpt><trkpt lat="38.53811259636138" lon="16.314823464833427"><ele>1029.0</ele><time>2026-04-11T14:11:56Z</time></trkpt><trkpt lat="38.53811791248298" lon="16.314714512532"><ele>1029.0</ele><time>2026-04-11T14:11:57Z</time></trkpt><trkpt lat="38.53811933703423" lon="16.31461608319781"><ele>1029.0</ele><time>2026-04-11T14:11:58Z</time></trkpt><trkpt lat="38.5381092622878" lon="16.314512124893575"><ele>1029.0</ele><time>2026-04-11T14:11:59Z</time></trkpt><trkpt lat="38.53808615202793" lon="16.314397033795824"><ele>1029.2</ele><time>2026-04-11T14:12:00Z</time></trkpt><trkpt lat="38.53807117455641" lon="16.314302140082027"><ele>1029.4</ele><time>2026-04-11T14:12:01Z</time></trkpt><trkpt lat="38.53806975044351" lon="16.31417651157958"><ele>1029.6</ele><time>2026-04-11T14:12:02Z</time></trkpt><trkpt lat="38.53803116337791" lon="16.31408818424301"><ele>1029.8</ele><time>2026-04-11T14:12:03Z</time></trkpt><trkpt lat="38.53799733021977" lon="16.313942636837695"><ele>1030.0</ele><time>2026-04-11T14:12:04Z</time></trkpt><trkpt lat="38.53794253001858" lon="16.313869707174284"><ele>1030.0</ele><time>2026-04-11T14:12:05Z</time></trkpt><trkpt lat="38.53796093273522" lon="16.31374512548733"><ele>1030.0</ele><time>2026-04-11T14:12:06Z</time></trkpt><trkpt lat="38.537959002675535" lon="16.313660004464335"><ele>1030.0</ele><time>2026-04-11T14:12:07Z</time></trkpt><trkpt lat="38.53799905967622" lon="16.31352947702371"><ele>1030.0</ele><time>2026-04-11T14:12:09Z</time></trkpt><trkpt lat="38.53807438558511" lon="16.313462920185238"><ele>1030.0</ele><time>2026-04-11T14:12:11Z</time></trkpt><trkpt lat="38.53816802102006" lon="16.31342347181142"><ele>1030.0</ele><time>2026-04-11T14:12:13Z</time></trkpt><trkpt lat="38.5383020781764" lon="16.313411555838965"><ele>1030.0</ele><time>2026-04-11T14:12:15Z</time></trkpt><trkpt lat="38.53840563705539" lon="16.313437422891283"><ele>1030.0</ele><time>2026-04-11T14:12:17Z</time></trkpt><trkpt lat="38.538526391720914" lon="16.313338773055754"><ele>1030.0</ele><time>2026-04-11T14:12:18Z</time></trkpt><trkpt lat="38.53847666016008" lon="16.31316263163738"><ele>1030.0</ele><time>2026-04-11T14:12:24Z</time></trkpt><trkpt lat="38.538444588861516" lon="16.313075233703547"><ele>1030.0</ele><time>2026-04-11T14:12:25.001Z</time></trkpt><trkpt lat="38.5383737883586" lon="16.3128501362135"><ele>1030.0</ele><time>2026-04-11T14:12:26.001Z</time></trkpt><trkpt lat="38.538352299502485" lon="16.312756594921453"><ele>1030.0</ele><time>2026-04-11T14:12:27.001Z</time></trkpt><trkpt lat="38.53835546520543" lon="16.312668307196766"><ele>1030.0</ele><time>2026-04-11T14:12:28.001Z</time></trkpt><trkpt lat="38.53836925608033" lon="16.31258233653876"><ele>1032.6</ele><time>2026-04-11T14:12:29.001Z</time></trkpt><trkpt lat="38.53838200634012" lon="16.312491758359066"><ele>1035.2</ele><time>2026-04-11T14:12:30.001Z</time></trkpt><trkpt lat="38.53846000214216" lon="16.31237443371309"><ele>1037.8</ele><time>2026-04-11T14:12:31.001Z</time></trkpt><trkpt lat="38.5384956629509" lon="16.31226885344362"><ele>1040.4</ele><time>2026-04-11T14:12:32.001Z</time></trkpt><trkpt lat="38.53852508499293" lon="16.31218082880385"><ele>1043.0</ele><time>2026-04-11T14:12:33.001Z</time></trkpt><trkpt lat="38.538591783174134" lon="16.312075614348206"><ele>1043.4</ele><time>2026-04-11T14:12:35.001Z</time></trkpt><trkpt lat="38.53866216354643" lon="16.31192150764126"><ele>1043.8</ele><time>2026-04-11T14:12:37.001Z</time></trkpt><trkpt lat="38.538717345494604" lon="16.31186772473941"><ele>1044.2</ele><time>2026-04-11T14:12:38.001Z</time></trkpt><trkpt lat="38.53876695230757" lon="16.311812898943494"><ele>1044.6</ele><time>2026-04-11T14:12:39.001Z</time></trkpt><trkpt lat="38.53884302422169" lon="16.311758121136236"><ele>1045.0</ele><time>2026-04-11T14:12:41.001Z</time></trkpt><trkpt lat="38.53893922704185" lon="16.311718817669828"><ele>1042.8333333333333</ele><time>2026-04-11T14:12:43.001Z</time></trkpt><trkpt lat="38.539044463566235" lon="16.31172638649583"><ele>1040.6666666666665</ele><time>2026-04-11T14:12:46.001Z</time></trkpt><trkpt lat="38.539120043946376" lon="16.311726523577814"><ele>1038.5</ele><time>2026-04-11T14:12:50.001Z</time></trkpt><trkpt lat="38.539184773631085" lon="16.311784828154806"><ele>1036.3333333333333</ele><time>2026-04-11T14:12:55.001Z</time></trkpt><trkpt lat="38.53922762175832" lon="16.311847952605614"><ele>1034.1666666666667</ele><time>2026-04-11T14:12:58.001Z</time></trkpt><trkpt lat="38.53925603294994" lon="16.311765444187312"><ele>1032.0</ele><time>2026-04-11T14:13:04.001Z</time></trkpt><trkpt lat="38.53927916615428" lon="16.31162905871768"><ele>1032.0</ele><time>2026-04-11T14:13:06.001Z</time></trkpt><trkpt lat="38.539312936845086" lon="16.311556536677468"><ele>1032.0</ele><time>2026-04-11T14:13:14Z</time></trkpt><trkpt lat="38.53936159343343" lon="16.311504819590965"><ele>1032.0</ele><time>2026-04-11T14:13:18Z</time></trkpt><trkpt lat="38.53943518233957" lon="16.311477470856474"><ele>1032.0</ele><time>2026-04-11T14:13:26Z</time></trkpt><trkpt lat="38.53944472371501" lon="16.311377930804813"><ele>1032.0</ele><time>2026-04-11T14:13:33Z</time></trkpt><trkpt lat="38.53952829250107" lon="16.31138327014845"><ele>1032.0</ele><time>2026-04-11T14:13:36Z</time></trkpt><trkpt lat="38.53961375560118" lon="16.311340661658896"><ele>1030.5</ele><time>2026-04-11T14:13:39Z</time></trkpt><trkpt lat="38.539676337895045" lon="16.31132217662963"><ele>1029.0</ele><time>2026-04-11T14:13:42Z</time></trkpt><trkpt lat="38.539780515257206" lon="16.311356747399415"><ele>1027.5</ele><time>2026-04-11T14:13:45Z</time></trkpt><trkpt lat="38.539856012799405" lon="16.31129474226814"><ele>1026.0</ele><time>2026-04-11T14:13:47Z</time></trkpt><trkpt lat="38.53991969421003" lon="16.31122118219206"><ele>1024.5</ele><time>2026-04-11T14:13:49Z</time></trkpt><trkpt lat="38.540004744676224" lon="16.311203150344877"><ele>1023.0</ele><time>2026-04-11T14:13:56Z</time></trkpt><trkpt lat="38.54011627892855" lon="16.311242977442397"><ele>1023.0</ele><time>2026-04-11T14:14:00Z</time></trkpt><trkpt lat="38.540179950510776" lon="16.311241323627094"><ele>1023.0</ele><time>2026-04-11T14:14:02Z</time></trkpt><trkpt lat="38.540239957575295" lon="16.311309152701536"><ele>1023.0</ele><time>2026-04-11T14:14:06Z</time></trkpt><trkpt lat="38.54029882754956" lon="16.31138016567747"><ele>1023.0</ele><time>2026-04-11T14:14:09Z</time></trkpt><trkpt lat="38.540378832789166" lon="16.311411773456552"><ele>1023.0</ele><time>2026-04-11T14:14:12.001Z</time></trkpt><trkpt lat="38.54045012118009" lon="16.311408681834223"><ele>1023.0</ele><time>2026-04-11T14:14:14.001Z</time></trkpt><trkpt lat="38.54053427252533" lon="16.311403168650724"><ele>1021.1666666666666</ele><time>2026-04-11T14:14:17.001Z</time></trkpt><trkpt lat="38.54060875225138" lon="16.311420461953343"><ele>1019.3333333333333</ele><time>2026-04-11T14:14:19.001Z</time></trkpt><trkpt lat="38.5406841473297" lon="16.311438709083045"><ele>1017.5</ele><time>2026-04-11T14:14:21.001Z</time></trkpt><trkpt lat="38.54077176843987" lon="16.311447471445533"><ele>1015.6666666666666</ele><time>2026-04-11T14:14:23.001Z</time></trkpt><trkpt lat="38.5408395657687" lon="16.311476936159114"><ele>1013.8333333333333</ele><time>2026-04-11T14:14:25.001Z</time></trkpt><trkpt lat="38.54091550606605" lon="16.311506621895585"><ele>1012.0</ele><time>2026-04-11T14:14:27.001Z</time></trkpt><trkpt lat="38.540979300564594" lon="16.31151637467628"><ele>1012.0</ele><time>2026-04-11T14:14:28.001Z</time></trkpt><trkpt lat="38.541077680300596" lon="16.311541851699857"><ele>1012.0</ele><time>2026-04-11T14:14:30.001Z</time></trkpt><trkpt lat="38.54122247714012" lon="16.311675312586125"><ele>1012.0</ele><time>2026-04-11T14:14:32.001Z</time></trkpt><trkpt lat="38.54132384674917" lon="16.311761195341994"><ele>1012.0</ele><time>2026-04-11T14:14:34.001Z</time></trkpt><trkpt lat="38.54138842262645" lon="16.311793052678563"><ele>1009.6</ele><time>2026-04-11T14:14:35.001Z</time></trkpt><trkpt lat="38.54147719104053" lon="16.311803469002875"><ele>1007.2</ele><time>2026-04-11T14:14:36.001Z</time></trkpt><trkpt lat="38.54154305656261" lon="16.311820381702354"><ele>1004.8</ele><time>2026-04-11T14:14:37.001Z</time></trkpt><trkpt lat="38.541621177569226" lon="16.31185648000412"><ele>1002.4</ele><time>2026-04-11T14:14:39.001Z</time></trkpt><trkpt lat="38.54171024660401" lon="16.311859342423496"><ele>1000.0</ele><time>2026-04-11T14:14:40.001Z</time></trkpt><trkpt lat="38.541831483789885" lon="16.31188022530508"><ele>1000.0</ele><time>2026-04-11T14:14:42.001Z</time></trkpt><trkpt lat="38.54189835217556" lon="16.311850328376128"><ele>1000.0</ele><time>2026-04-11T14:14:44.001Z</time></trkpt><trkpt lat="38.54202777727266" lon="16.31189454777446"><ele>1000.0</ele><time>2026-04-11T14:14:46.001Z</time></trkpt><trkpt lat="38.542116541873064" lon="16.311863211445754"><ele>1000.0</ele><time>2026-04-11T14:14:48.001Z</time></trkpt><trkpt lat="38.54220451582083" lon="16.31184101137215"><ele>1000.0</ele><time>2026-04-11T14:14:49.001Z</time></trkpt><trkpt lat="38.54233549312983" lon="16.31183323518631"><ele>997.1666666666666</ele><time>2026-04-11T14:14:51.001Z</time></trkpt><trkpt lat="38.54240889236414" lon="16.3118036729226"><ele>994.3333333333333</ele><time>2026-04-11T14:14:52.001Z</time></trkpt><trkpt lat="38.54250304682225" lon="16.311768569090113"><ele>991.5</ele><time>2026-04-11T14:14:54.001Z</time></trkpt><trkpt lat="38.54256524548705" lon="16.31171180175966"><ele>988.6666666666667</ele><time>2026-04-11T14:14:57.001Z</time></trkpt><trkpt lat="38.54263376476312" lon="16.311728606477438"><ele>985.8333333333334</ele><time>2026-04-11T14:15:01.001Z</time></trkpt><trkpt lat="38.542684395941784" lon="16.311670854473324"><ele>983.0</ele><time>2026-04-11T14:15:05.001Z</time></trkpt><trkpt lat="38.54275122050669" lon="16.311688896641616"><ele>983.0000000000001</ele><time>2026-04-11T14:15:06.001Z</time></trkpt><trkpt lat="38.54282544108024" lon="16.311631361927724"><ele>983.0</ele><time>2026-04-11T14:15:07.001Z</time></trkpt><trkpt lat="38.542923065535234" lon="16.311594911708514"><ele>983.0</ele><time>2026-04-11T14:15:08.001Z</time></trkpt><trkpt lat="38.54298698384239" lon="16.311551326453074"><ele>983.0</ele><time>2026-04-11T14:15:09.001Z</time></trkpt><trkpt lat="38.54305882951719" lon="16.311524882546067"><ele>983.0000000000001</ele><time>2026-04-11T14:15:11.001Z</time></trkpt><trkpt lat="38.54312022625264" lon="16.311543533624494"><ele>983.0</ele><time>2026-04-11T14:15:12.001Z</time></trkpt><trkpt lat="38.54322384324639" lon="16.311556873309012"><ele>980.5999999999999</ele><time>2026-04-11T14:15:14.001Z</time></trkpt><trkpt lat="38.54333041899287" lon="16.31150163029278"><ele>978.1999999999999</ele><time>2026-04-11T14:15:16.001Z</time></trkpt><trkpt lat="38.54339932274347" lon="16.31143522720271"><ele>975.8</ele><time>2026-04-11T14:15:18Z</time></trkpt><trkpt lat="38.543474549414114" lon="16.311425786388778"><ele>973.4</ele><time>2026-04-11T14:15:19Z</time></trkpt><trkpt lat="38.54360467846715" lon="16.311362450945346"><ele>971.0</ele><time>2026-04-11T14:15:21Z</time></trkpt><trkpt lat="38.54365725035622" lon="16.311304169402426"><ele>967.6666666666667</ele><time>2026-04-11T14:15:24Z</time></trkpt><trkpt lat="38.54373820773659" lon="16.311288391591155"><ele>964.3333333333334</ele><time>2026-04-11T14:15:29Z</time></trkpt><trkpt lat="38.54378061516933" lon="16.3112124712901"><ele>961.0</ele><time>2026-04-11T14:15:49Z</time></trkpt><trkpt lat="38.54384930337449" lon="16.311196270756398"><ele>957.6666666666667</ele><time>2026-04-11T14:15:51Z</time></trkpt><trkpt lat="38.54391518055989" lon="16.311263406705518"><ele>954.3333333333334</ele><time>2026-04-11T14:15:54Z</time></trkpt><trkpt lat="38.544002397968804" lon="16.31125195298889"><ele>951.0</ele><time>2026-04-11T14:16:01Z</time></trkpt><trkpt lat="38.54409225205841" lon="16.311248819839676"><ele>951.0</ele><time>2026-04-11T14:16:02Z</time></trkpt><trkpt lat="38.544159678560405" lon="16.311274479313262"><ele>951.0</ele><time>2026-04-11T14:16:05Z</time></trkpt><trkpt lat="38.54425055096565" lon="16.311319135944636"><ele>951.0</ele><time>2026-04-11T14:16:08Z</time></trkpt><trkpt lat="38.54431249452767" lon="16.31129841925729"><ele>951.0</ele><time>2026-04-11T14:16:12Z</time></trkpt><trkpt lat="38.54438590311147" lon="16.311294262303253"><ele>951.0</ele><time>2026-04-11T14:16:14.001Z</time></trkpt><trkpt lat="38.54446170147386" lon="16.311271156349427"><ele>951.0</ele><time>2026-04-11T14:16:16.001Z</time></trkpt><trkpt lat="38.544580925443164" lon="16.31125287876072"><ele>947.8</ele><time>2026-04-11T14:16:18.001Z</time></trkpt><trkpt lat="38.5446664010866" lon="16.311194686885045"><ele>944.5999999999999</ele><time>2026-04-11T14:16:20.001Z</time></trkpt><trkpt lat="38.54474778662994" lon="16.31117166752817"><ele>941.4</ele><time>2026-04-11T14:16:21.001Z</time></trkpt><trkpt lat="38.54481350756575" lon="16.31113436467276"><ele>938.2</ele><time>2026-04-11T14:16:22.001Z</time></trkpt><trkpt lat="38.54491516700133" lon="16.311133135856014"><ele>935.0</ele><time>2026-04-11T14:16:24.001Z</time></trkpt><trkpt lat="38.54500679788662" lon="16.31108800952384"><ele>935.0</ele><time>2026-04-11T14:16:25.001Z</time></trkpt><trkpt lat="38.545109464604884" lon="16.311010052820833"><ele>935.0</ele><time>2026-04-11T14:16:27.001Z</time></trkpt><trkpt lat="38.54524461478065" lon="16.31095913559357"><ele>935.0</ele><time>2026-04-11T14:16:29.001Z</time></trkpt><trkpt lat="38.54531329752254" lon="16.31094991300948"><ele>935.0</ele><time>2026-04-11T14:16:30.001Z</time></trkpt><trkpt lat="38.545392982364625" lon="16.31098629668169"><ele>935.0</ele><time>2026-04-11T14:16:32.001Z</time></trkpt><trkpt lat="38.54548966831461" lon="16.310954654460872"><ele>933.8</ele><time>2026-04-11T14:16:33.001Z</time></trkpt><trkpt lat="38.54557688956038" lon="16.31092371775369"><ele>932.6</ele><time>2026-04-11T14:16:34.001Z</time></trkpt><trkpt lat="38.54570470759847" lon="16.310938966389216"><ele>931.4000000000001</ele><time>2026-04-11T14:16:36.001Z</time></trkpt><trkpt lat="38.545796003081605" lon="16.310926551010333"><ele>930.2</ele><time>2026-04-11T14:16:37.001Z</time></trkpt><trkpt lat="38.545866672473565" lon="16.31089851106951"><ele>929.0</ele><time>2026-04-11T14:16:38.001Z</time></trkpt><trkpt lat="38.5459426904673" lon="16.310886849849144"><ele>929.0</ele><time>2026-04-11T14:16:39.001Z</time></trkpt><trkpt lat="38.54602643638931" lon="16.31087181662615"><ele>929.0000000000001</ele><time>2026-04-11T14:16:40.001Z</time></trkpt><trkpt lat="38.546099637972844" lon="16.31087910588285"><ele>929.0000000000001</ele><time>2026-04-11T14:16:41.001Z</time></trkpt><trkpt lat="38.54622464588435" lon="16.310865728969713"><ele>929.0</ele><time>2026-04-11T14:16:43.001Z</time></trkpt><trkpt lat="38.54631345027547" lon="16.310835383118846"><ele>929.0</ele><time>2026-04-11T14:16:45.001Z</time></trkpt><trkpt lat="38.54643606933122" lon="16.31075748144241"><ele>926.8000000000001</ele><time>2026-04-11T14:16:47.001Z</time></trkpt><trkpt lat="38.54654000912907" lon="16.31079505775005"><ele>924.6000000000001</ele><time>2026-04-11T14:16:49.001Z</time></trkpt><trkpt lat="38.54661529854821" lon="16.310775028096657"><ele>922.4</ele><time>2026-04-11T14:16:50.001Z</time></trkpt><trkpt lat="38.54669256916023" lon="16.310694975089568"><ele>920.2</ele><time>2026-04-11T14:16:51.001Z</time></trkpt><trkpt lat="38.54680918847032" lon="16.31062438494328"><ele>918.0</ele><time>2026-04-11T14:16:53.001Z</time></trkpt><trkpt lat="38.546906489698124" lon="16.310581645533883"><ele>917.1666666666666</ele><time>2026-04-11T14:16:55.001Z</time></trkpt><trkpt lat="38.54696095312591" lon="16.310540544322198"><ele>916.3333333333333</ele><time>2026-04-11T14:16:56.001Z</time></trkpt><trkpt lat="38.54706036224588" lon="16.31050361881218"><ele>915.5</ele><time>2026-04-11T14:16:58.001Z</time></trkpt><trkpt lat="38.547164823383795" lon="16.310488136837012"><ele>914.6666666666666</ele><time>2026-04-11T14:17:00.001Z</time></trkpt><trkpt lat="38.54722297596517" lon="16.310442208352566"><ele>913.8333333333333</ele><time>2026-04-11T14:17:02.001Z</time></trkpt><trkpt lat="38.54728813134456" lon="16.31040412747102"><ele>913.0</ele><time>2026-04-11T14:17:04.001Z</time></trkpt><trkpt lat="38.547345747428075" lon="16.31034206379316"><ele>910.8</ele><time>2026-04-11T14:17:08.001Z</time></trkpt><trkpt lat="38.54732855756064" lon="16.310247227679085"><ele>908.5999999999999</ele><time>2026-04-11T14:17:26Z</time></trkpt><trkpt lat="38.547400133962036" lon="16.31017249593243"><ele>906.4000000000001</ele><time>2026-04-11T14:17:34Z</time></trkpt><trkpt lat="38.54749278341708" lon="16.310178540080948"><ele>904.2</ele><time>2026-04-11T14:17:38Z</time></trkpt><trkpt lat="38.547574001585026" lon="16.31013658526273"><ele>902.0</ele><time>2026-04-11T14:17:41Z</time></trkpt><trkpt lat="38.54767488692645" lon="16.310152484075587"><ele>902.0000000000001</ele><time>2026-04-11T14:17:43Z</time></trkpt><trkpt lat="38.54773681289303" lon="16.310073231262628"><ele>902.0</ele><time>2026-04-11T14:17:46Z</time></trkpt><trkpt lat="38.54779895389035" lon="16.31001721850546"><ele>902.0</ele><time>2026-04-11T14:17:48Z</time></trkpt><trkpt lat="38.54785313072863" lon="16.309935620549002"><ele>902.0</ele><time>2026-04-11T14:17:50Z</time></trkpt><trkpt lat="38.54789891913995" lon="16.309837480826573"><ele>902.0000000000001</ele><time>2026-04-11T14:17:53Z</time></trkpt><trkpt lat="38.54794937757967" lon="16.30974248256484"><ele>902.0</ele><time>2026-04-11T14:17:55Z</time></trkpt><trkpt lat="38.54798893957448" lon="16.30964765504663"><ele>897.6</ele><time>2026-04-11T14:17:57Z</time></trkpt><trkpt lat="38.5480146711738" lon="16.30953222062822"><ele>893.2</ele><time>2026-04-11T14:18:00Z</time></trkpt><trkpt lat="38.54805522354579" lon="16.309445019937918"><ele>888.8</ele><time>2026-04-11T14:18:02Z</time></trkpt><trkpt lat="38.548011922250225" lon="16.30934799338289"><ele>884.4</ele><time>2026-04-11T14:18:05Z</time></trkpt><trkpt lat="38.54797064743989" lon="16.30925011644462"><ele>880.0</ele><time>2026-04-11T14:18:09Z</time></trkpt><trkpt lat="38.54791060812059" lon="16.30914116758775"><ele>879.9999999999999</ele><time>2026-04-11T14:18:12Z</time></trkpt><trkpt lat="38.54784502118703" lon="16.309088483310006"><ele>880.0</ele><time>2026-04-11T14:18:15.001Z</time></trkpt><trkpt lat="38.5478304836466" lon="16.309008998839648"><ele>880.0</ele><time>2026-04-11T14:18:19.001Z</time></trkpt><trkpt lat="38.547892980863274" lon="16.308931439646713"><ele>880.0</ele><time>2026-04-11T14:18:22.001Z</time></trkpt><trkpt lat="38.5479474721396" lon="16.308887276554483"><ele>880.0</ele><time>2026-04-11T14:18:23.001Z</time></trkpt><trkpt lat="38.548017850409636" lon="16.308877327593414"><ele>879.9999999999999</ele><time>2026-04-11T14:18:25.001Z</time></trkpt><trkpt lat="38.548084076199444" lon="16.308841543012008"><ele>880.0</ele><time>2026-04-11T14:18:30.001Z</time></trkpt><trkpt lat="38.54815985875153" lon="16.308855713244917"><ele>880.0</ele><time>2026-04-11T14:18:32.001Z</time></trkpt><trkpt lat="38.548229320606" lon="16.308947122750688"><ele>880.0</ele><time>2026-04-11T14:18:34.001Z</time></trkpt><trkpt lat="38.548291179481645" lon="16.308992721048615"><ele>880.0</ele><time>2026-04-11T14:18:35.001Z</time></trkpt><trkpt lat="38.54834927333956" lon="16.30902997047694"><ele>880.0</ele><time>2026-04-11T14:19:38Z</time></trkpt><trkpt lat="38.54844437183015" lon="16.309168629454202"><ele>880.0</ele><time>2026-04-11T14:19:40Z</time></trkpt><trkpt lat="38.548514078211674" lon="16.309307591712216"><ele>880.0</ele><time>2026-04-11T14:19:41Z</time></trkpt><trkpt lat="38.548577820499226" lon="16.309451659911296"><ele>880.0</ele><time>2026-04-11T14:19:42Z</time></trkpt><trkpt lat="38.548635945718196" lon="16.30956699329139"><ele>880.0</ele><time>2026-04-11T14:19:43Z</time></trkpt><trkpt lat="38.548679492342615" lon="16.3096567866129"><ele>880.0</ele><time>2026-04-11T14:19:44Z</time></trkpt><trkpt lat="38.548731447989496" lon="16.309729112294967"><ele>880.0</ele><time>2026-04-11T14:19:45Z</time></trkpt><trkpt lat="38.54884937412632" lon="16.30984294874519"><ele>879.4</ele><time>2026-04-11T14:19:47Z</time></trkpt><trkpt lat="38.548904953894066" lon="16.30991874196147"><ele>878.8</ele><time>2026-04-11T14:19:48Z</time></trkpt><trkpt lat="38.54898178749477" lon="16.310006985258205"><ele>878.2</ele><time>2026-04-11T14:19:49Z</time></trkpt><trkpt lat="38.549016651662924" lon="16.31007509580569"><ele>877.6</ele><time>2026-04-11T14:19:50Z</time></trkpt><trkpt lat="38.5491021425137" lon="16.31017446512667"><ele>877.0</ele><time>2026-04-11T14:19:52Z</time></trkpt><trkpt lat="38.54917075514723" lon="16.310250661155774"><ele>876.9999999999999</ele><time>2026-04-11T14:19:56Z</time></trkpt><trkpt lat="38.54923078351831" lon="16.310285226505222"><ele>877.0</ele><time>2026-04-11T14:19:58Z</time></trkpt><trkpt lat="38.54931483586106" lon="16.310305389529283"><ele>877.0</ele><time>2026-04-11T14:19:59Z</time></trkpt><trkpt lat="38.54938749122847" lon="16.310336283537474"><ele>877.0</ele><time>2026-04-11T14:20:00Z</time></trkpt><trkpt lat="38.549468555278345" lon="16.310420456451336"><ele>876.9999999999999</ele><time>2026-04-11T14:20:02Z</time></trkpt><trkpt lat="38.54953193632079" lon="16.31044679756976"><ele>877.0</ele><time>2026-04-11T14:20:03Z</time></trkpt><trkpt lat="38.549598685683684" lon="16.310455382301416"><ele>877.2</ele><time>2026-04-11T14:20:04Z</time></trkpt><trkpt lat="38.5496712961886" lon="16.310443677289367"><ele>877.4000000000001</ele><time>2026-04-11T14:20:05Z</time></trkpt><trkpt lat="38.549857337655716" lon="16.31047365353426"><ele>877.5999999999999</ele><time>2026-04-11T14:20:07Z</time></trkpt><trkpt lat="38.54992808368747" lon="16.310488705514064"><ele>877.8</ele><time>2026-04-11T14:20:08Z</time></trkpt><trkpt lat="38.55000309315761" lon="16.310506948122217"><ele>878.0</ele><time>2026-04-11T14:20:09Z</time></trkpt><trkpt lat="38.55006020627343" lon="16.310578122103585"><ele>878.4</ele><time>2026-04-11T14:20:10Z</time></trkpt><trkpt lat="38.5501376944262" lon="16.310660268469164"><ele>878.8</ele><time>2026-04-11T14:20:11Z</time></trkpt><trkpt lat="38.550242755784154" lon="16.31070662347897"><ele>879.2</ele><time>2026-04-11T14:20:12Z</time></trkpt><trkpt lat="38.55033327353211" lon="16.310755066257705"><ele>879.6</ele><time>2026-04-11T14:20:13Z</time></trkpt><trkpt lat="38.550414624225084" lon="16.3107878817595"><ele>880.0</ele><time>2026-04-11T14:20:14Z</time></trkpt><trkpt lat="38.55050531809538" lon="16.31081551365508"><ele>878.8333333333333</ele><time>2026-04-11T14:20:15Z</time></trkpt><trkpt lat="38.55058098685095" lon="16.310845883682315"><ele>877.6666666666666</ele><time>2026-04-11T14:20:16Z</time></trkpt><trkpt lat="38.5506572074547" lon="16.310847281657708"><ele>876.5</ele><time>2026-04-11T14:20:17Z</time></trkpt><trkpt lat="38.55072735422016" lon="16.310834229921277"><ele>875.3333333333333</ele><time>2026-04-11T14:20:18Z</time></trkpt><trkpt lat="38.55084798523033" lon="16.310900197525758"><ele>874.1666666666666</ele><time>2026-04-11T14:20:20.001Z</time></trkpt><trkpt lat="38.55092936406644" lon="16.31092682847708"><ele>873.0</ele><time>2026-04-11T14:20:22.001Z</time></trkpt><trkpt lat="38.55096413414187" lon="16.310830415036147"><ele>873.0</ele><time>2026-04-11T14:20:23.001Z</time></trkpt><trkpt lat="38.551024628783836" lon="16.31078589680803"><ele>873.0</ele><time>2026-04-11T14:20:24.001Z</time></trkpt><trkpt lat="38.55106056947815" lon="16.310675789827165"><ele>873.0</ele><time>2026-04-11T14:20:26.001Z</time></trkpt><trkpt lat="38.55102624337102" lon="16.310532207787926"><ele>873.0</ele><time>2026-04-11T14:20:27.001Z</time></trkpt><trkpt lat="38.55106959287028" lon="16.31042366319409"><ele>873.0</ele><time>2026-04-11T14:20:28.001Z</time></trkpt><trkpt lat="38.55111962871146" lon="16.310358006148313"><ele>873.0</ele><time>2026-04-11T14:20:29.001Z</time></trkpt><trkpt lat="38.55117522248377" lon="16.31027458396591"><ele>873.0</ele><time>2026-04-11T14:20:30.001Z</time></trkpt><trkpt lat="38.55121910635958" lon="16.31020995491537"><ele>873.0</ele><time>2026-04-11T14:20:31.001Z</time></trkpt><trkpt lat="38.55131789357875" lon="16.310135725869472"><ele>873.0</ele><time>2026-04-11T14:20:33.001Z</time></trkpt><trkpt lat="38.5514248811289" lon="16.31015623314428"><ele>873.0</ele><time>2026-04-11T14:20:35.001Z</time></trkpt><trkpt lat="38.551524285146236" lon="16.310245010536008"><ele>873.0</ele><time>2026-04-11T14:20:37.001Z</time></trkpt><trkpt lat="38.551576038296496" lon="16.310338956747596"><ele>873.0</ele><time>2026-04-11T14:20:38.001Z</time></trkpt><trkpt lat="38.551644501858185" lon="16.310451984003183"><ele>873.0</ele><time>2026-04-11T14:20:39.001Z</time></trkpt><trkpt lat="38.55169618173476" lon="16.310547359165923"><ele>873.0</ele><time>2026-04-11T14:20:40.001Z</time></trkpt><trkpt lat="38.55174131666267" lon="16.31063612674381"><ele>873.0</ele><time>2026-04-11T14:20:41.001Z</time></trkpt><trkpt lat="38.55177288515706" lon="16.31072931689461"><ele>873.0</ele><time>2026-04-11T14:20:42.001Z</time></trkpt><trkpt lat="38.55181900463597" lon="16.31081048001935"><ele>873.0</ele><time>2026-04-11T14:20:43.001Z</time></trkpt><trkpt lat="38.551903529810104" lon="16.310850793042164"><ele>872.2</ele><time>2026-04-11T14:20:44.001Z</time></trkpt><trkpt lat="38.55197403642654" lon="16.310898984696202"><ele>871.4</ele><time>2026-04-11T14:20:45.001Z</time></trkpt><trkpt lat="38.552063177879454" lon="16.310943838661537"><ele>870.6000000000001</ele><time>2026-04-11T14:20:46.001Z</time></trkpt><trkpt lat="38.552166630480464" lon="16.310988836616687"><ele>869.8000000000001</ele><time>2026-04-11T14:20:48.001Z</time></trkpt><trkpt lat="38.552289835780854" lon="16.310971498780525"><ele>869.0</ele><time>2026-04-11T14:20:50.001Z</time></trkpt><trkpt lat="38.55237817911986" lon="16.310894324124213"><ele>867.2</ele><time>2026-04-11T14:20:52.001Z</time></trkpt><trkpt lat="38.552477226276494" lon="16.310880520036964"><ele>865.4000000000001</ele><time>2026-04-11T14:20:54.001Z</time></trkpt><trkpt lat="38.55255335250041" lon="16.31094303794735"><ele>863.6</ele><time>2026-04-11T14:20:55.001Z</time></trkpt><trkpt lat="38.55265124062137" lon="16.31100083326594"><ele>861.8</ele><time>2026-04-11T14:20:57.001Z</time></trkpt><trkpt lat="38.552709309211224" lon="16.310940724582586"><ele>860.0</ele><time>2026-04-11T14:20:58.001Z</time></trkpt><trkpt lat="38.55278358736972" lon="16.310900970215968"><ele>860.0000000000001</ele><time>2026-04-11T14:21:00.001Z</time></trkpt><trkpt lat="38.552867807356506" lon="16.310918921921406"><ele>860.0</ele><time>2026-04-11T14:21:01.001Z</time></trkpt><trkpt lat="38.55294846808934" lon="16.310969766031263"><ele>860.0</ele><time>2026-04-11T14:21:03.001Z</time></trkpt><trkpt lat="38.553008913864424" lon="16.311000173536456"><ele>860.0</ele><time>2026-04-11T14:21:06.001Z</time></trkpt><trkpt lat="38.55306195573714" lon="16.311051020555425"><ele>860.0000000000001</ele><time>2026-04-11T14:21:08.001Z</time></trkpt><trkpt lat="38.55313138364367" lon="16.311103457454376"><ele>860.0</ele><time>2026-04-11T14:21:11.001Z</time></trkpt><trkpt lat="38.553184201052126" lon="16.311151264154123"><ele>859.4</ele><time>2026-04-11T14:21:12.001Z</time></trkpt><trkpt lat="38.55324713315656" lon="16.311190225779335"><ele>858.8</ele><time>2026-04-11T14:21:13.001Z</time></trkpt><trkpt lat="38.55335228670996" lon="16.31126969947"><ele>858.2</ele><time>2026-04-11T14:21:15.001Z</time></trkpt><trkpt lat="38.55342218270223" lon="16.311342496744416"><ele>857.6</ele><time>2026-04-11T14:21:16.001Z</time></trkpt><trkpt lat="38.55353986112718" lon="16.311398464622492"><ele>857.0</ele><time>2026-04-11T14:21:18.001Z</time></trkpt><trkpt lat="38.5536435124628" lon="16.311403920729756"><ele>857.2</ele><time>2026-04-11T14:21:20.001Z</time></trkpt><trkpt lat="38.55365974806344" lon="16.311528426341695"><ele>857.4000000000001</ele><time>2026-04-11T14:21:25.001Z</time></trkpt><trkpt lat="38.553748142140705" lon="16.311633615325086"><ele>857.5999999999999</ele><time>2026-04-11T14:21:27.001Z</time></trkpt><trkpt lat="38.553787152773616" lon="16.31175407010151"><ele>857.8</ele><time>2026-04-11T14:21:29.001Z</time></trkpt><trkpt lat="38.55378591936012" lon="16.311902181448698"><ele>858.0</ele><time>2026-04-11T14:21:31.001Z</time></trkpt><trkpt lat="38.55378262780914" lon="16.312038316057784"><ele>858.0</ele><time>2026-04-11T14:21:33.001Z</time></trkpt><trkpt lat="38.55378277958548" lon="16.312133663601823"><ele>858.0</ele><time>2026-04-11T14:21:34.001Z</time></trkpt><trkpt lat="38.55380368053543" lon="16.31227339977089"><ele>858.0</ele><time>2026-04-11T14:21:36Z</time></trkpt><trkpt lat="38.55386152364564" lon="16.312394660248703"><ele>858.0</ele><time>2026-04-11T14:21:38Z</time></trkpt><trkpt lat="38.553851492466904" lon="16.31251637742161"><ele>858.0</ele><time>2026-04-11T14:21:40Z</time></trkpt><trkpt lat="38.55386732668423" lon="16.312644688695862"><ele>855.8</ele><time>2026-04-11T14:21:42Z</time></trkpt><trkpt lat="38.55388494748664" lon="16.312779712076953"><ele>853.5999999999999</ele><time>2026-04-11T14:21:44Z</time></trkpt><trkpt lat="38.55394403319246" lon="16.312849406283192"><ele>851.4000000000001</ele><time>2026-04-11T14:21:46Z</time></trkpt><trkpt lat="38.554014996931336" lon="16.312890199270612"><ele>849.2</ele><time>2026-04-11T14:21:48Z</time></trkpt><trkpt lat="38.55411667852883" lon="16.312890522168864"><ele>847.0</ele><time>2026-04-11T14:21:50Z</time></trkpt><trkpt lat="38.554211810305034" lon="16.31280435495159"><ele>846.9999999999999</ele><time>2026-04-11T14:21:52Z</time></trkpt><trkpt lat="38.55430259963638" lon="16.312791753943237"><ele>847.0</ele><time>2026-04-11T14:21:53Z</time></trkpt><trkpt lat="38.55438680996167" lon="16.31278901215582"><ele>847.0</ele><time>2026-04-11T14:21:54Z</time></trkpt><trkpt lat="38.55444701828681" lon="16.31269741272664"><ele>847.0</ele><time>2026-04-11T14:21:56Z</time></trkpt><trkpt lat="38.55450531139548" lon="16.312651624326023"><ele>846.9999999999999</ele><time>2026-04-11T14:21:58Z</time></trkpt><trkpt lat="38.55457340634528" lon="16.312675397949164"><ele>847.0</ele><time>2026-04-11T14:22:00Z</time></trkpt><trkpt lat="38.55465478423054" lon="16.312682742394973"><ele>845.8333333333333</ele><time>2026-04-11T14:22:01Z</time></trkpt><trkpt lat="38.55473318244994" lon="16.312681765217917"><ele>844.6666666666666</ele><time>2026-04-11T14:22:03Z</time></trkpt><trkpt lat="38.55480543013084" lon="16.312677860060198"><ele>843.5</ele><time>2026-04-11T14:22:05Z</time></trkpt><trkpt lat="38.55489321842515" lon="16.312666502163236"><ele>842.3333333333333</ele><time>2026-04-11T14:22:08Z</time></trkpt><trkpt lat="38.5549594965673" lon="16.31268022194135"><ele>841.1666666666666</ele><time>2026-04-11T14:22:11Z</time></trkpt><trkpt lat="38.55506936029442" lon="16.31272557913105"><ele>840.0</ele><time>2026-04-11T14:22:14Z</time></trkpt><trkpt lat="38.555135684699586" lon="16.31269888286611"><ele>840.0</ele><time>2026-04-11T14:22:15Z</time></trkpt><trkpt lat="38.55520525156906" lon="16.312744774144164"><ele>840.0</ele><time>2026-04-11T14:22:16Z</time></trkpt><trkpt lat="38.5552700907237" lon="16.31280467954363"><ele>840.0</ele><time>2026-04-11T14:22:17Z</time></trkpt><trkpt lat="38.555346983150685" lon="16.3128664807111"><ele>840.0</ele><time>2026-04-11T14:22:18Z</time></trkpt><trkpt lat="38.55543137635585" lon="16.312929672631746"><ele>840.0</ele><time>2026-04-11T14:22:19Z</time></trkpt><trkpt lat="38.555516535886234" lon="16.312989924076078"><ele>840.0</ele><time>2026-04-11T14:22:20Z</time></trkpt><trkpt lat="38.555605650353954" lon="16.313051745961783"><ele>837.8</ele><time>2026-04-11T14:22:21Z</time></trkpt><trkpt lat="38.55568884644526" lon="16.31311532045334"><ele>835.6</ele><time>2026-04-11T14:22:22Z</time></trkpt><trkpt lat="38.55577496049815" lon="16.313165700248007"><ele>833.4000000000001</ele><time>2026-04-11T14:22:23Z</time></trkpt><trkpt lat="38.55587094832266" lon="16.31322060788892"><ele>831.2</ele><time>2026-04-11T14:22:24Z</time></trkpt><trkpt lat="38.555975708792936" lon="16.31327822407698"><ele>829.0</ele><time>2026-04-11T14:22:25Z</time></trkpt><trkpt lat="38.556086353411786" lon="16.31334344960644"><ele>829.0</ele><time>2026-04-11T14:22:26Z</time></trkpt><trkpt lat="38.55620190370001" lon="16.313411227333745"><ele>829.0</ele><time>2026-04-11T14:22:27Z</time></trkpt><trkpt lat="38.5563168666671" lon="16.313479290176055"><ele>829.0</ele><time>2026-04-11T14:22:28Z</time></trkpt><trkpt lat="38.55642786441303" lon="16.313536054249678"><ele>829.0</ele><time>2026-04-11T14:22:29Z</time></trkpt><trkpt lat="38.55653939969176" lon="16.313584295893815"><ele>830.5</ele><time>2026-04-11T14:22:30.001Z</time></trkpt><trkpt lat="38.55665828782524" lon="16.313630490970954"><ele>832.0</ele><time>2026-04-11T14:22:31.001Z</time></trkpt><trkpt lat="38.556781474896255" lon="16.31367755583753"><ele>833.5</ele><time>2026-04-11T14:22:32.001Z</time></trkpt><trkpt lat="38.55690521447649" lon="16.313725478657332"><ele>835.0</ele><time>2026-04-11T14:22:33.001Z</time></trkpt><trkpt lat="38.557027069603144" lon="16.313772019400062"><ele>835.25</ele><time>2026-04-11T14:22:34.001Z</time></trkpt><trkpt lat="38.557158859559685" lon="16.31381937626308"><ele>835.5</ele><time>2026-04-11T14:22:35.001Z</time></trkpt><trkpt lat="38.5573047211642" lon="16.313876867195933"><ele>835.75</ele><time>2026-04-11T14:22:36.001Z</time></trkpt><trkpt lat="38.55744456270102" lon="16.313925328477332"><ele>836.0</ele><time>2026-04-11T14:22:37.001Z</time></trkpt><trkpt lat="38.55757357091781" lon="16.313996228344784"><ele>835.5</ele><time>2026-04-11T14:22:38.001Z</time></trkpt><trkpt lat="38.55769404213685" lon="16.31403736721907"><ele>835.0</ele><time>2026-04-11T14:22:39.001Z</time></trkpt><trkpt lat="38.557804046363344" lon="16.3140838124995"><ele>834.5</ele><time>2026-04-11T14:22:40.001Z</time></trkpt><trkpt lat="38.55791234432602" lon="16.314134869354195"><ele>834.0</ele><time>2026-04-11T14:22:41.001Z</time></trkpt><trkpt lat="38.55801849655408" lon="16.314175569003524"><ele>834.0</ele><time>2026-04-11T14:22:42.001Z</time></trkpt><trkpt lat="38.558130115755006" lon="16.314221498100633"><ele>834.0</ele><time>2026-04-11T14:22:43.001Z</time></trkpt><trkpt lat="38.55824585579492" lon="16.31427587172705"><ele>834.0</ele><time>2026-04-11T14:22:44.001Z</time></trkpt><trkpt lat="38.558363927169545" lon="16.314319120411614"><ele>834.0</ele><time>2026-04-11T14:22:45.001Z</time></trkpt><trkpt lat="38.55846977663186" lon="16.31437098677086"><ele>834.0</ele><time>2026-04-11T14:22:46.001Z</time></trkpt><trkpt lat="38.55857359063074" lon="16.31440441571506"><ele>834.0</ele><time>2026-04-11T14:22:47.001Z</time></trkpt><trkpt lat="38.55868148192861" lon="16.31443907326761"><ele>834.0</ele><time>2026-04-11T14:22:48.001Z</time></trkpt><trkpt lat="38.55879304804706" lon="16.31446813074277"><ele>834.0</ele><time>2026-04-11T14:22:49.001Z</time></trkpt><trkpt lat="38.558907062109085" lon="16.31448404073523"><ele>834.0</ele><time>2026-04-11T14:22:50.001Z</time></trkpt><trkpt lat="38.559017049753656" lon="16.314507423289385"><ele>833.5</ele><time>2026-04-11T14:22:51.001Z</time></trkpt><trkpt lat="38.5591277376203" lon="16.31454714641114"><ele>833.0</ele><time>2026-04-11T14:22:52.001Z</time></trkpt><trkpt lat="38.559241950118675" lon="16.314596206742774"><ele>832.5</ele><time>2026-04-11T14:22:53.001Z</time></trkpt><trkpt lat="38.55935166077169" lon="16.31465034667732"><ele>832.0</ele><time>2026-04-11T14:22:54.001Z</time></trkpt><trkpt lat="38.55946478836508" lon="16.31468018921173"><ele>830.25</ele><time>2026-04-11T14:22:55.001Z</time></trkpt><trkpt lat="38.55957535630325" lon="16.31473349245024"><ele>828.5</ele><time>2026-04-11T14:22:56.001Z</time></trkpt><trkpt lat="38.55968918741157" lon="16.314789154619692"><ele>826.75</ele><time>2026-04-11T14:22:57.001Z</time></trkpt><trkpt lat="38.559806994168916" lon="16.31485903392391"><ele>825.0</ele><time>2026-04-11T14:22:58.001Z</time></trkpt><trkpt lat="38.559935947481094" lon="16.31491557591541"><ele>824.5</ele><time>2026-04-11T14:22:59.001Z</time></trkpt><trkpt lat="38.560071364871334" lon="16.314982958812443"><ele>824.0</ele><time>2026-04-11T14:23:00.001Z</time></trkpt><trkpt lat="38.56020458656392" lon="16.315048883559196"><ele>823.5</ele><time>2026-04-11T14:23:01.001Z</time></trkpt><trkpt lat="38.56033426691113" lon="16.315111720610897"><ele>823.0</ele><time>2026-04-11T14:23:02.001Z</time></trkpt><trkpt lat="38.56045763699509" lon="16.315175455186676"><ele>823.0</ele><time>2026-04-11T14:23:03.001Z</time></trkpt><trkpt lat="38.56057285699478" lon="16.31523667641486"><ele>823.0</ele><time>2026-04-11T14:23:04.001Z</time></trkpt><trkpt lat="38.56069043397272" lon="16.315303640311043"><ele>823.0</ele><time>2026-04-11T14:23:05.001Z</time></trkpt><trkpt lat="38.56081486358157" lon="16.315360051388122"><ele>823.0</ele><time>2026-04-11T14:23:06.001Z</time></trkpt><trkpt lat="38.56093851413718" lon="16.31540316997022"><ele>823.0</ele><time>2026-04-11T14:23:07.001Z</time></trkpt><trkpt lat="38.561070471215785" lon="16.315430596410163"><ele>823.0</ele><time>2026-04-11T14:23:08.001Z</time></trkpt><trkpt lat="38.56120091670024" lon="16.3154425007512"><ele>823.0</ele><time>2026-04-11T14:23:09.001Z</time></trkpt><trkpt lat="38.5613343612977" lon="16.315427888029483"><ele>823.0</ele><time>2026-04-11T14:23:10.001Z</time></trkpt><trkpt lat="38.56147534245757" lon="16.315421599261388"><ele>825.25</ele><time>2026-04-11T14:23:11.001Z</time></trkpt><trkpt lat="38.56161742484345" lon="16.315437387768924"><ele>827.5</ele><time>2026-04-11T14:23:12.001Z</time></trkpt><trkpt lat="38.5617661277015" lon="16.315455784300912"><ele>829.75</ele><time>2026-04-11T14:23:13.001Z</time></trkpt><trkpt lat="38.56191293435023" lon="16.315483838715497"><ele>832.0</ele><time>2026-04-11T14:23:14.001Z</time></trkpt><trkpt lat="38.56205209289708" lon="16.3155217252103"><ele>832.0</ele><time>2026-04-11T14:23:15.001Z</time></trkpt><trkpt lat="38.562200934996156" lon="16.315534302151693"><ele>832.0</ele><time>2026-04-11T14:23:16.001Z</time></trkpt><trkpt lat="38.56233211339664" lon="16.315554173090582"><ele>832.0</ele><time>2026-04-11T14:23:17.001Z</time></trkpt><trkpt lat="38.562492016904" lon="16.315573257326818"><ele>832.0</ele><time>2026-04-11T14:23:18.001Z</time></trkpt><trkpt lat="38.5626522576453" lon="16.315589284955237"><ele>830.25</ele><time>2026-04-11T14:23:19.001Z</time></trkpt><trkpt lat="38.56280179392708" lon="16.31560742634102"><ele>828.5</ele><time>2026-04-11T14:23:20.001Z</time></trkpt><trkpt lat="38.562952218827014" lon="16.315653152365535"><ele>826.75</ele><time>2026-04-11T14:23:21.001Z</time></trkpt><trkpt lat="38.56308433812344" lon="16.315681280678195"><ele>825.0</ele><time>2026-04-11T14:23:22.001Z</time></trkpt><trkpt lat="38.56320926992481" lon="16.31573388731251"><ele>825.0</ele><time>2026-04-11T14:23:23.001Z</time></trkpt><trkpt lat="38.56333643521203" lon="16.315770865832658"><ele>825.0</ele><time>2026-04-11T14:23:24.001Z</time></trkpt><trkpt lat="38.56346040684236" lon="16.315835508640784"><ele>825.0</ele><time>2026-04-11T14:23:25.001Z</time></trkpt><trkpt lat="38.56357512198255" lon="16.31585925176198"><ele>825.0</ele><time>2026-04-11T14:23:26.001Z</time></trkpt><trkpt lat="38.563697301971544" lon="16.315887595614274"><ele>826.25</ele><time>2026-04-11T14:23:27.001Z</time></trkpt><trkpt lat="38.56382459492002" lon="16.315920674721518"><ele>827.5</ele><time>2026-04-11T14:23:28.001Z</time></trkpt><trkpt lat="38.56396186662672" lon="16.315973397224628"><ele>828.75</ele><time>2026-04-11T14:23:29.001Z</time></trkpt><trkpt lat="38.56407882310681" lon="16.316014259975123"><ele>830.0</ele><time>2026-04-11T14:23:30.001Z</time></trkpt><trkpt lat="38.56420363607507" lon="16.31606164527712"><ele>830.0</ele><time>2026-04-11T14:23:31.001Z</time></trkpt><trkpt lat="38.564296480791526" lon="16.31609452214479"><ele>830.0</ele><time>2026-04-11T14:23:32.001Z</time></trkpt><trkpt lat="38.56442232176473" lon="16.31611737980396"><ele>830.0</ele><time>2026-04-11T14:23:33.001Z</time></trkpt><trkpt lat="38.564531615036586" lon="16.316162893188622"><ele>830.0</ele><time>2026-04-11T14:23:34.001Z</time></trkpt><trkpt lat="38.56464612133585" lon="16.31618507616026"><ele>830.75</ele><time>2026-04-11T14:23:35.001Z</time></trkpt><trkpt lat="38.5647471666076" lon="16.316223376300876"><ele>831.5</ele><time>2026-04-11T14:23:36.001Z</time></trkpt><trkpt lat="38.56487489016389" lon="16.31621050771008"><ele>832.25</ele><time>2026-04-11T14:23:37.001Z</time></trkpt><trkpt lat="38.56502749629226" lon="16.31622261357078"><ele>833.0</ele><time>2026-04-11T14:23:38.001Z</time></trkpt><trkpt lat="38.56516043109791" lon="16.316239808718"><ele>833.0</ele><time>2026-04-11T14:23:39.001Z</time></trkpt><trkpt lat="38.56528114244064" lon="16.31626879762037"><ele>833.0</ele><time>2026-04-11T14:23:40.001Z</time></trkpt><trkpt lat="38.56540595084681" lon="16.3163214081805"><ele>833.0</ele><time>2026-04-11T14:23:41Z</time></trkpt><trkpt lat="38.56550784823071" lon="16.31639879585233"><ele>833.0</ele><time>2026-04-11T14:23:42Z</time></trkpt><trkpt lat="38.56562168948325" lon="16.316467429870283"><ele>830.0</ele><time>2026-04-11T14:23:43Z</time></trkpt><trkpt lat="38.56575012584784" lon="16.316560118032548"><ele>827.0</ele><time>2026-04-11T14:23:44Z</time></trkpt><trkpt lat="38.56588372772574" lon="16.316653829354113"><ele>824.0</ele><time>2026-04-11T14:23:45Z</time></trkpt><trkpt lat="38.56598746775847" lon="16.316727092580862"><ele>821.0</ele><time>2026-04-11T14:23:46Z</time></trkpt><trkpt lat="38.56610478457359" lon="16.316805383941407"><ele>819.75</ele><time>2026-04-11T14:23:47Z</time></trkpt><trkpt lat="38.56622970113429" lon="16.316888476237825"><ele>818.5</ele><time>2026-04-11T14:23:48Z</time></trkpt><trkpt lat="38.56634035510604" lon="16.316965483481496"><ele>817.25</ele><time>2026-04-11T14:23:49Z</time></trkpt><trkpt lat="38.56645789468242" lon="16.317051957461683"><ele>816.0</ele><time>2026-04-11T14:23:50Z</time></trkpt><trkpt lat="38.56658404069823" lon="16.317139889709157"><ele>816.0</ele><time>2026-04-11T14:23:51Z</time></trkpt><trkpt lat="38.56670750300168" lon="16.31721582145774"><ele>816.0</ele><time>2026-04-11T14:23:52Z</time></trkpt><trkpt lat="38.566805480256164" lon="16.31728345111011"><ele>816.0</ele><time>2026-04-11T14:23:53Z</time></trkpt><trkpt lat="38.56689414751975" lon="16.317340191592347"><ele>816.0</ele><time>2026-04-11T14:23:54Z</time></trkpt><trkpt lat="38.56695866287159" lon="16.317411621714115"><ele>816.0</ele><time>2026-04-11T14:23:55Z</time></trkpt><trkpt lat="38.566982246999856" lon="16.317498023318972"><ele>816.8333333333334</ele><time>2026-04-11T14:23:56Z</time></trkpt><trkpt lat="38.56698407310026" lon="16.31758129576874"><ele>817.6666666666667</ele><time>2026-04-11T14:23:57Z</time></trkpt><trkpt lat="38.56695200091252" lon="16.317665928124704"><ele>818.5</ele><time>2026-04-11T14:23:58Z</time></trkpt><trkpt lat="38.566914231471564" lon="16.317755329998867"><ele>819.3333333333334</ele><time>2026-04-11T14:23:59Z</time></trkpt><trkpt lat="38.56684225514629" lon="16.317849479048085"><ele>820.1666666666667</ele><time>2026-04-11T14:24:00Z</time></trkpt><trkpt lat="38.566768510199445" lon="16.317950119018924"><ele>821.0</ele><time>2026-04-11T14:24:01Z</time></trkpt><trkpt lat="38.56668336861119" lon="16.318008534379658"><ele>821.0000000000001</ele><time>2026-04-11T14:24:02Z</time></trkpt><trkpt lat="38.56660270245574" lon="16.318068587435732"><ele>821.0</ele><time>2026-04-11T14:24:03Z</time></trkpt><trkpt lat="38.56653280229256" lon="16.31812975438387"><ele>821.0</ele><time>2026-04-11T14:24:04Z</time></trkpt><trkpt lat="38.56646205627341" lon="16.31820124667497"><ele>821.0</ele><time>2026-04-11T14:24:05Z</time></trkpt><trkpt lat="38.56640127639838" lon="16.3182681517815"><ele>821.0000000000001</ele><time>2026-04-11T14:24:06Z</time></trkpt><trkpt lat="38.56638050106748" lon="16.31835435137212"><ele>821.0</ele><time>2026-04-11T14:24:08Z</time></trkpt><trkpt lat="38.56640495834332" lon="16.31847151136032"><ele>821.0000000000001</ele><time>2026-04-11T14:24:10Z</time></trkpt><trkpt lat="38.56643329476731" lon="16.318545288090117"><ele>821.0</ele><time>2026-04-11T14:24:11Z</time></trkpt><trkpt lat="38.566499229112196" lon="16.31860222096789"><ele>821.0</ele><time>2026-04-11T14:24:12Z</time></trkpt><trkpt lat="38.56654260608625" lon="16.31871578392226"><ele>821.0</ele><time>2026-04-11T14:24:13Z</time></trkpt><trkpt lat="38.566601364473556" lon="16.318802189639523"><ele>821.0000000000001</ele><time>2026-04-11T14:24:14Z</time></trkpt><trkpt lat="38.56666081316657" lon="16.318861842694712"><ele>821.0</ele><time>2026-04-11T14:24:15Z</time></trkpt><trkpt lat="38.56674202589195" lon="16.31896416563319"><ele>821.1999999999999</ele><time>2026-04-11T14:24:16Z</time></trkpt><trkpt lat="38.566829413222756" lon="16.319045916397148"><ele>821.4</ele><time>2026-04-11T14:24:17Z</time></trkpt><trkpt lat="38.56685537382964" lon="16.319145328071993"><ele>821.6</ele><time>2026-04-11T14:24:18Z</time></trkpt><trkpt lat="38.566953987777595" lon="16.319261597882505"><ele>821.8</ele><time>2026-04-11T14:24:19Z</time></trkpt><trkpt lat="38.567041471407975" lon="16.31934628003925"><ele>822.0</ele><time>2026-04-11T14:24:20Z</time></trkpt><trkpt lat="38.56707813368971" lon="16.31942472043145"><ele>821.4000000000001</ele><time>2026-04-11T14:24:21Z</time></trkpt><trkpt lat="38.56715922833028" lon="16.319510074251177"><ele>820.8000000000001</ele><time>2026-04-11T14:24:23Z</time></trkpt><trkpt lat="38.56723879275316" lon="16.319580053321022"><ele>820.2</ele><time>2026-04-11T14:24:25Z</time></trkpt><trkpt lat="38.56733504289127" lon="16.319684694894946"><ele>819.6</ele><time>2026-04-11T14:24:27Z</time></trkpt><trkpt lat="38.56736604519217" lon="16.319762414234585"><ele>819.0</ele><time>2026-04-11T14:24:29Z</time></trkpt><trkpt lat="38.56732776083318" lon="16.31983675021772"><ele>819.0</ele><time>2026-04-11T14:24:31Z</time></trkpt><trkpt lat="38.56726243931489" lon="16.31988934730144"><ele>819.0</ele><time>2026-04-11T14:24:33Z</time></trkpt><trkpt lat="38.56714651007496" lon="16.319887426737377"><ele>819.0</ele><time>2026-04-11T14:24:35Z</time></trkpt><trkpt lat="38.56707271882416" lon="16.319879433881923"><ele>819.0</ele><time>2026-04-11T14:24:36Z</time></trkpt><trkpt lat="38.56696987552335" lon="16.319852632468884"><ele>819.0</ele><time>2026-04-11T14:24:38Z</time></trkpt><trkpt lat="38.56684179406201" lon="16.319842878437065"><ele>818.1666666666666</ele><time>2026-04-11T14:24:40Z</time></trkpt><trkpt lat="38.566774945904484" lon="16.31985776562941"><ele>817.3333333333333</ele><time>2026-04-11T14:24:41Z</time></trkpt><trkpt lat="38.56666904707348" lon="16.319901484559754"><ele>816.5</ele><time>2026-04-11T14:24:43Z</time></trkpt><trkpt lat="38.566587915421735" lon="16.31992269845675"><ele>815.6666666666666</ele><time>2026-04-11T14:24:45Z</time></trkpt><trkpt lat="38.56651248679725" lon="16.319971097018204"><ele>814.8333333333333</ele><time>2026-04-11T14:24:50Z</time></trkpt><trkpt lat="38.56644159844921" lon="16.320011566601742"><ele>814.0</ele><time>2026-04-11T14:24:55Z</time></trkpt><trkpt lat="38.566396464145505" lon="16.32009361130109"><ele>814.0</ele><time>2026-04-11T14:25:07Z</time></trkpt><trkpt lat="38.56644728376327" lon="16.320154356698946"><ele>814.0</ele><time>2026-04-11T14:25:10Z</time></trkpt><trkpt lat="38.566528332016496" lon="16.320126093799225"><ele>814.0</ele><time>2026-04-11T14:25:12Z</time></trkpt><trkpt lat="38.566587019844526" lon="16.32003758652681"><ele>814.0</ele><time>2026-04-11T14:25:14Z</time></trkpt><trkpt lat="38.566648792304456" lon="16.319940093363815"><ele>814.0</ele><time>2026-04-11T14:25:16Z</time></trkpt><trkpt lat="38.56674456416754" lon="16.319872213182894"><ele>813.9999999999999</ele><time>2026-04-11T14:25:18.001Z</time></trkpt><trkpt lat="38.566850794414854" lon="16.319835008907962"><ele>814.0</ele><time>2026-04-11T14:25:20.001Z</time></trkpt><trkpt lat="38.56693300691681" lon="16.319849308161327"><ele>814.0</ele><time>2026-04-11T14:25:21.001Z</time></trkpt><trkpt lat="38.56701263664685" lon="16.319854873579704"><ele>814.0</ele><time>2026-04-11T14:25:22.001Z</time></trkpt><trkpt lat="38.56709616480789" lon="16.319863295343367"><ele>813.9999999999999</ele><time>2026-04-11T14:25:23.001Z</time></trkpt><trkpt lat="38.56716674937114" lon="16.31988953996439"><ele>814.0</ele><time>2026-04-11T14:25:24.001Z</time></trkpt><trkpt lat="38.56723911140986" lon="16.31990266649228"><ele>815.0</ele><time>2026-04-11T14:25:25.001Z</time></trkpt><trkpt lat="38.567366853934494" lon="16.31992618601912"><ele>816.0</ele><time>2026-04-11T14:25:27.001Z</time></trkpt><trkpt lat="38.567460632100996" lon="16.31994460076172"><ele>817.0</ele><time>2026-04-11T14:25:29.001Z</time></trkpt><trkpt lat="38.56753088471729" lon="16.31999569685595"><ele>818.0</ele><time>2026-04-11T14:25:31.001Z</time></trkpt><trkpt lat="38.567578624127336" lon="16.320052755226108"><ele>819.0</ele><time>2026-04-11T14:25:32.001Z</time></trkpt><trkpt lat="38.567649890968966" lon="16.320118815117652"><ele>819.0</ele><time>2026-04-11T14:25:33.001Z</time></trkpt><trkpt lat="38.5677421716442" lon="16.320182955867566"><ele>819.0</ele><time>2026-04-11T14:25:34.001Z</time></trkpt><trkpt lat="38.56780386078223" lon="16.32030801959377"><ele>819.0</ele><time>2026-04-11T14:25:35.001Z</time></trkpt><trkpt lat="38.56787327746164" lon="16.320431699314454"><ele>819.0</ele><time>2026-04-11T14:25:36.001Z</time></trkpt><trkpt lat="38.56795910073434" lon="16.320560972470634"><ele>817.75</ele><time>2026-04-11T14:25:37.001Z</time></trkpt><trkpt lat="38.56803834507908" lon="16.320703512098834"><ele>816.5</ele><time>2026-04-11T14:25:38.001Z</time></trkpt><trkpt lat="38.56811496838701" lon="16.3208629186881"><ele>815.25</ele><time>2026-04-11T14:25:39.001Z</time></trkpt><trkpt lat="38.568216311971696" lon="16.321018856993398"><ele>814.0</ele><time>2026-04-11T14:25:40.001Z</time></trkpt><trkpt lat="38.56830524715232" lon="16.32117116269829"><ele>814.0</ele><time>2026-04-11T14:25:41.001Z</time></trkpt><trkpt lat="38.56838923471721" lon="16.321333343953494"><ele>814.0</ele><time>2026-04-11T14:25:42.001Z</time></trkpt><trkpt lat="38.56848085434772" lon="16.32149972341289"><ele>814.0</ele><time>2026-04-11T14:25:43.001Z</time></trkpt><trkpt lat="38.568558578154665" lon="16.321669239351664"><ele>812.6666666666666</ele><time>2026-04-11T14:25:44.001Z</time></trkpt><trkpt lat="38.568649043943395" lon="16.321835681194933"><ele>811.3333333333333</ele><time>2026-04-11T14:25:45.001Z</time></trkpt><trkpt lat="38.568746074936136" lon="16.32200054112444"><ele>810.0</ele><time>2026-04-11T14:25:46.001Z</time></trkpt><trkpt lat="38.568837440613706" lon="16.322171191987856"><ele>812.0</ele><time>2026-04-11T14:25:47Z</time></trkpt><trkpt lat="38.56894494168466" lon="16.32234604677834"><ele>814.0</ele><time>2026-04-11T14:25:48Z</time></trkpt><trkpt lat="38.5690369344721" lon="16.32251386767963"><ele>816.0</ele><time>2026-04-11T14:25:49Z</time></trkpt><trkpt lat="38.56912548888239" lon="16.322687629025527"><ele>816.0</ele><time>2026-04-11T14:25:50Z</time></trkpt><trkpt lat="38.56919339199544" lon="16.322850220346957"><ele>816.0</ele><time>2026-04-11T14:25:51Z</time></trkpt><trkpt lat="38.56926403778116" lon="16.323008652056174"><ele>816.0</ele><time>2026-04-11T14:25:52Z</time></trkpt><trkpt lat="38.5693780746606" lon="16.323146176335204"><ele>816.0</ele><time>2026-04-11T14:25:53Z</time></trkpt><trkpt lat="38.5694804458921" lon="16.323270233465102"><ele>815.3333333333333</ele><time>2026-04-11T14:25:54Z</time></trkpt><trkpt lat="38.56959935927242" lon="16.323404406136312"><ele>814.6666666666666</ele><time>2026-04-11T14:25:55Z</time></trkpt><trkpt lat="38.56970409975279" lon="16.323569196151368"><ele>814.0</ele><time>2026-04-11T14:25:56Z</time></trkpt><trkpt lat="38.56982927496664" lon="16.32368304876838"><ele>814.0</ele><time>2026-04-11T14:25:57Z</time></trkpt><trkpt lat="38.56995858970128" lon="16.32373807429683"><ele>814.0</ele><time>2026-04-11T14:25:58Z</time></trkpt><trkpt lat="38.570057809889676" lon="16.323837614778405"><ele>814.0</ele><time>2026-04-11T14:25:59Z</time></trkpt><trkpt lat="38.570180391768346" lon="16.323914158390014"><ele>814.0</ele><time>2026-04-11T14:26:00Z</time></trkpt><trkpt lat="38.57027954932883" lon="16.324038151726757"><ele>813.25</ele><time>2026-04-11T14:26:01Z</time></trkpt><trkpt lat="38.57038043465445" lon="16.324150008337025"><ele>812.5</ele><time>2026-04-11T14:26:02Z</time></trkpt><trkpt lat="38.57048218747731" lon="16.32423003318721"><ele>811.75</ele><time>2026-04-11T14:26:03Z</time></trkpt><trkpt lat="38.570575723285735" lon="16.32433617315686"><ele>811.0</ele><time>2026-04-11T14:26:04Z</time></trkpt><trkpt lat="38.57066336395074" lon="16.324450612828088"><ele>811.0</ele><time>2026-04-11T14:26:05Z</time></trkpt><trkpt lat="38.57074600376556" lon="16.324523511252778"><ele>811.0</ele><time>2026-04-11T14:26:06Z</time></trkpt><trkpt lat="38.57083500406395" lon="16.324590205106876"><ele>811.0</ele><time>2026-04-11T14:26:07Z</time></trkpt><trkpt lat="38.57093412798341" lon="16.324673205156387"><ele>811.0</ele><time>2026-04-11T14:26:08Z</time></trkpt><trkpt lat="38.571005398145424" lon="16.32474937251065"><ele>811.0</ele><time>2026-04-11T14:26:09Z</time></trkpt><trkpt lat="38.571077269380964" lon="16.324826066154806"><ele>810.8333333333333</ele><time>2026-04-11T14:26:10Z</time></trkpt><trkpt lat="38.57114230654412" lon="16.32488735535447"><ele>810.6666666666666</ele><time>2026-04-11T14:26:11Z</time></trkpt><trkpt lat="38.5711875584223" lon="16.324944862472343"><ele>810.5</ele><time>2026-04-11T14:26:12Z</time></trkpt><trkpt lat="38.57125598077533" lon="16.325041091879186"><ele>810.3333333333333</ele><time>2026-04-11T14:26:14Z</time></trkpt><trkpt lat="38.571315466794466" lon="16.325121864798177"><ele>810.1666666666666</ele><time>2026-04-11T14:26:16Z</time></trkpt><trkpt lat="38.571358219261526" lon="16.325192916479818"><ele>810.0</ele><time>2026-04-11T14:26:20Z</time></trkpt><trkpt lat="38.571341515404754" lon="16.32529964025511"><ele>810.0</ele><time>2026-04-11T14:26:23Z</time></trkpt><trkpt lat="38.571245512894926" lon="16.325326607781992"><ele>810.0</ele><time>2026-04-11T14:26:25Z</time></trkpt><trkpt lat="38.571164385869196" lon="16.32532682928804"><ele>810.0</ele><time>2026-04-11T14:26:26Z</time></trkpt><trkpt lat="38.57107588428085" lon="16.325331702272955"><ele>810.0</ele><time>2026-04-11T14:26:27Z</time></trkpt><trkpt lat="38.570982150486955" lon="16.325339974041512"><ele>810.0</ele><time>2026-04-11T14:26:28Z</time></trkpt><trkpt lat="38.57088744822633" lon="16.325345489093767"><ele>810.8</ele><time>2026-04-11T14:26:29Z</time></trkpt><trkpt lat="38.57079998882816" lon="16.32535022730716"><ele>811.6</ele><time>2026-04-11T14:26:30Z</time></trkpt><trkpt lat="38.57071312354149" lon="16.32536018557735"><ele>812.4000000000001</ele><time>2026-04-11T14:26:31Z</time></trkpt><trkpt lat="38.57062411678191" lon="16.325369457673077"><ele>813.2</ele><time>2026-04-11T14:26:32Z</time></trkpt><trkpt lat="38.570528536637916" lon="16.32538224898145"><ele>814.0</ele><time>2026-04-11T14:26:33Z</time></trkpt><trkpt lat="38.570430657562596" lon="16.325392138275593"><ele>813.3333333333333</ele><time>2026-04-11T14:26:34Z</time></trkpt><trkpt lat="38.570346475482026" lon="16.325397862515125"><ele>812.6666666666666</ele><time>2026-04-11T14:26:35Z</time></trkpt><trkpt lat="38.57026600465813" lon="16.32539246169104"><ele>812.0</ele><time>2026-04-11T14:26:36Z</time></trkpt><trkpt lat="38.5701893133828" lon="16.32541898965886"><ele>811.3333333333333</ele><time>2026-04-11T14:26:37Z</time></trkpt><trkpt lat="38.57013579963626" lon="16.32555481714974"><ele>810.6666666666666</ele><time>2026-04-11T14:26:39Z</time></trkpt><trkpt lat="38.570069665264455" lon="16.32562355324644"><ele>810.0</ele><time>2026-04-11T14:26:42Z</time></trkpt><trkpt lat="38.57001147618514" lon="16.325676532033103"><ele>810.0</ele><time>2026-04-11T14:26:45Z</time></trkpt><trkpt lat="38.570048093418634" lon="16.325752712574157"><ele>810.0</ele><time>2026-04-11T14:26:47Z</time></trkpt><trkpt lat="38.57013561399383" lon="16.32574114201338"><ele>810.0</ele><time>2026-04-11T14:34:39Z</time></trkpt><trkpt lat="38.57020991402568" lon="16.325718098235257"><ele>810.0</ele><time>2026-04-11T14:40:08Z</time></trkpt><trkpt lat="38.57024384384975" lon="16.32564078795383"><ele>810.0</ele><time>2026-04-11T14:40:10Z</time></trkpt><trkpt lat="38.570243247079176" lon="16.325536020333132"><ele>810.0</ele><time>2026-04-11T14:40:12Z</time></trkpt><trkpt lat="38.57027334148353" lon="16.325444040777377"><ele>810.0</ele><time>2026-04-11T14:40:15Z</time></trkpt><trkpt lat="38.570340558894365" lon="16.325442191514774"><ele>810.0</ele><time>2026-04-11T14:40:16Z</time></trkpt><trkpt lat="38.57040337033485" lon="16.32543496619264"><ele>810.0</ele><time>2026-04-11T14:40:17Z</time></trkpt><trkpt lat="38.57048171568177" lon="16.325428007910727"><ele>810.0</ele><time>2026-04-11T14:40:18Z</time></trkpt><trkpt lat="38.57057389136662" lon="16.325431789719413"><ele>810.0</ele><time>2026-04-11T14:40:19.001Z</time></trkpt><trkpt lat="38.5706720260354" lon="16.32541978643486"><ele>810.0</ele><time>2026-04-11T14:40:20.001Z</time></trkpt><trkpt lat="38.5707767325378" lon="16.32541117420516"><ele>810.0</ele><time>2026-04-11T14:40:21.001Z</time></trkpt><trkpt lat="38.57088240148166" lon="16.32539670206048"><ele>810.0</ele><time>2026-04-11T14:40:22.001Z</time></trkpt><trkpt lat="38.570984394046334" lon="16.325386779985436"><ele>810.0</ele><time>2026-04-11T14:40:23.001Z</time></trkpt><trkpt lat="38.571081948999826" lon="16.3253914990643"><ele>810.0</ele><time>2026-04-11T14:40:24.001Z</time></trkpt><trkpt lat="38.571166977398136" lon="16.325380091975482"><ele>810.0</ele><time>2026-04-11T14:40:25.001Z</time></trkpt><trkpt lat="38.57123982086097" lon="16.325375384323326"><ele>810.0</ele><time>2026-04-11T14:40:26.001Z</time></trkpt><trkpt lat="38.57132356863685" lon="16.32535405011585"><ele>810.0</ele><time>2026-04-11T14:40:28.001Z</time></trkpt><trkpt lat="38.571391853292305" lon="16.325362727005665"><ele>810.0</ele><time>2026-04-11T14:40:31Z</time></trkpt><trkpt lat="38.57146210345516" lon="16.325364258165404"><ele>810.0</ele><time>2026-04-11T14:40:34Z</time></trkpt><trkpt lat="38.57153462474363" lon="16.325358172669166"><ele>810.0</ele><time>2026-04-11T14:40:36Z</time></trkpt><trkpt lat="38.57164553535128" lon="16.325394842781368"><ele>810.0</ele><time>2026-04-11T14:40:38Z</time></trkpt><trkpt lat="38.57170155680504" lon="16.325433072345415"><ele>809.9999999999999</ele><time>2026-04-11T14:40:39Z</time></trkpt><trkpt lat="38.57176099083215" lon="16.32548301111419"><ele>810.0</ele><time>2026-04-11T14:40:40Z</time></trkpt><trkpt lat="38.57182025898097" lon="16.32554134147322"><ele>810.0</ele><time>2026-04-11T14:40:41Z</time></trkpt><trkpt lat="38.57187526962146" lon="16.325592366107855"><ele>810.0</ele><time>2026-04-11T14:40:42Z</time></trkpt><trkpt lat="38.571930842823846" lon="16.32564502381819"><ele>810.0</ele><time>2026-04-11T14:40:43Z</time></trkpt><trkpt lat="38.571984604431854" lon="16.325700096628946"><ele>809.9999999999999</ele><time>2026-04-11T14:40:44Z</time></trkpt><trkpt lat="38.57204117492394" lon="16.32575723319942"><ele>810.0</ele><time>2026-04-11T14:40:45Z</time></trkpt><trkpt lat="38.57210176759354" lon="16.32581709769256"><ele>810.0</ele><time>2026-04-11T14:40:46Z</time></trkpt><trkpt lat="38.572160947960136" lon="16.325874726939457"><ele>810.0</ele><time>2026-04-11T14:40:47Z</time></trkpt><trkpt lat="38.572213127617914" lon="16.325925584901782"><ele>810.0</ele><time>2026-04-11T14:40:48Z</time></trkpt><trkpt lat="38.57230257096768" lon="16.32601191401493"><ele>810.0</ele><time>2026-04-11T14:40:50Z</time></trkpt><trkpt lat="38.57236168039523" lon="16.326087381439525"><ele>810.0</ele><time>2026-04-11T14:40:53Z</time></trkpt><trkpt lat="38.572278696936245" lon="16.326234771149043"><ele>809.9999999999999</ele><time>2026-04-11T14:40:56Z</time></trkpt><trkpt lat="38.5722536783532" lon="16.326311141131033"><ele>810.0</ele><time>2026-04-11T14:40:57Z</time></trkpt><trkpt lat="38.572212817133675" lon="16.32637857716568"><ele>810.0</ele><time>2026-04-11T14:40:58Z</time></trkpt><trkpt lat="38.572174807109675" lon="16.326444055398202"><ele>810.0</ele><time>2026-04-11T14:40:59Z</time></trkpt><trkpt lat="38.57210742848142" lon="16.326523533549043"><ele>810.0</ele><time>2026-04-11T14:41:01Z</time></trkpt><trkpt lat="38.572079961040224" lon="16.32659957382198"><ele>809.9999999999999</ele><time>2026-04-11T14:41:02Z</time></trkpt><trkpt lat="38.572031289721195" lon="16.326683774867583"><ele>810.0</ele><time>2026-04-11T14:41:03Z</time></trkpt><trkpt lat="38.571975982786505" lon="16.326743936340026"><ele>810.1666666666666</ele><time>2026-04-11T14:41:04Z</time></trkpt><trkpt lat="38.571936769797205" lon="16.326809892028326"><ele>810.3333333333333</ele><time>2026-04-11T14:41:05Z</time></trkpt><trkpt lat="38.57188963892098" lon="16.32688907488588"><ele>810.5</ele><time>2026-04-11T14:41:07Z</time></trkpt><trkpt lat="38.57183620096594" lon="16.326979165924353"><ele>810.6666666666666</ele><time>2026-04-11T14:41:09Z</time></trkpt><trkpt lat="38.57180663354117" lon="16.327056696564703"><ele>810.8333333333333</ele><time>2026-04-11T14:41:10Z</time></trkpt><trkpt lat="38.57175556708079" lon="16.327115134343405"><ele>811.0</ele><time>2026-04-11T14:41:11Z</time></trkpt><trkpt lat="38.5717031971466" lon="16.327201406671037"><ele>810.8333333333333</ele><time>2026-04-11T14:41:12Z</time></trkpt><trkpt lat="38.571654169327786" lon="16.32728274081655"><ele>810.6666666666666</ele><time>2026-04-11T14:41:13Z</time></trkpt><trkpt lat="38.571609579640786" lon="16.327358534939556"><ele>810.5</ele><time>2026-04-11T14:41:14Z</time></trkpt><trkpt lat="38.57156145542583" lon="16.327440064958168"><ele>810.3333333333333</ele><time>2026-04-11T14:41:15Z</time></trkpt><trkpt lat="38.57152810348993" lon="16.327530051884832"><ele>810.1666666666666</ele><time>2026-04-11T14:41:16Z</time></trkpt><trkpt lat="38.57147576275659" lon="16.32758383398186"><ele>810.0</ele><time>2026-04-11T14:41:17Z</time></trkpt><trkpt lat="38.57141018224513" lon="16.327693602862457"><ele>810.0</ele><time>2026-04-11T14:41:19Z</time></trkpt><trkpt lat="38.571361846597355" lon="16.32777541473926"><ele>810.0</ele><time>2026-04-11T14:41:21Z</time></trkpt><trkpt lat="38.57149222630687" lon="16.327945911269772"><ele>810.0</ele><time>2026-04-11T14:41:26Z</time></trkpt><trkpt lat="38.57157641247419" lon="16.327961551652614"><ele>810.0</ele><time>2026-04-11T14:41:27Z</time></trkpt><trkpt lat="38.571673292289454" lon="16.327981896400363"><ele>810.0</ele><time>2026-04-11T14:41:28Z</time></trkpt><trkpt lat="38.57177855771006" lon="16.328009207077642"><ele>810.0</ele><time>2026-04-11T14:41:29Z</time></trkpt><trkpt lat="38.57187944084231" lon="16.32804842113652"><ele>810.0</ele><time>2026-04-11T14:41:30Z</time></trkpt><trkpt lat="38.57197445750397" lon="16.328090417686713"><ele>810.0</ele><time>2026-04-11T14:41:31Z</time></trkpt><trkpt lat="38.572065199431414" lon="16.328133412446796"><ele>810.0</ele><time>2026-04-11T14:41:32Z</time></trkpt><trkpt lat="38.57214934761798" lon="16.328170308822386"><ele>809.6</ele><time>2026-04-11T14:41:33Z</time></trkpt><trkpt lat="38.57222060399744" lon="16.32819624168154"><ele>809.2</ele><time>2026-04-11T14:41:34Z</time></trkpt><trkpt lat="38.572313265434566" lon="16.328235739307853"><ele>808.8</ele><time>2026-04-11T14:41:36Z</time></trkpt><trkpt lat="38.57242141930673" lon="16.32829649906727"><ele>808.4</ele><time>2026-04-11T14:41:38Z</time></trkpt><trkpt lat="38.572494103762644" lon="16.328321246150292"><ele>808.0</ele><time>2026-04-11T14:41:39Z</time></trkpt><trkpt lat="38.572575732281166" lon="16.328356585451193"><ele>807.9999999999999</ele><time>2026-04-11T14:41:40Z</time></trkpt><trkpt lat="38.57265265769883" lon="16.32841732929849"><ele>808.0</ele><time>2026-04-11T14:41:41Z</time></trkpt><trkpt lat="38.57273572900715" lon="16.328460039781422"><ele>808.0</ele><time>2026-04-11T14:41:42Z</time></trkpt><trkpt lat="38.57282676750995" lon="16.32850721672867"><ele>808.0</ele><time>2026-04-11T14:41:43Z</time></trkpt><trkpt lat="38.57290833266196" lon="16.328546130015468"><ele>807.9999999999999</ele><time>2026-04-11T14:41:44Z</time></trkpt><trkpt lat="38.572980786192716" lon="16.328557909489007"><ele>808.0</ele><time>2026-04-11T14:41:45Z</time></trkpt><trkpt lat="38.573035183944974" lon="16.328604083046486"><ele>807.9999999999999</ele><time>2026-04-11T14:41:46Z</time></trkpt><trkpt lat="38.573107026498" lon="16.32861554754566"><ele>808.0</ele><time>2026-04-11T14:41:47Z</time></trkpt><trkpt lat="38.57317115365932" lon="16.32865995451717"><ele>808.0</ele><time>2026-04-11T14:41:48Z</time></trkpt><trkpt lat="38.57328375190341" lon="16.328717061931314"><ele>808.0</ele><time>2026-04-11T14:41:50Z</time></trkpt><trkpt lat="38.57335295301887" lon="16.32874698137434"><ele>807.9999999999999</ele><time>2026-04-11T14:41:51Z</time></trkpt><trkpt lat="38.573418100734266" lon="16.328771478258812"><ele>808.0</ele><time>2026-04-11T14:41:52Z</time></trkpt><trkpt lat="38.57347880780293" lon="16.32879371573386"><ele>808.0</ele><time>2026-04-11T14:41:53Z</time></trkpt><trkpt lat="38.573580851535624" lon="16.32883711237988"><ele>808.0</ele><time>2026-04-11T14:41:55Z</time></trkpt><trkpt lat="38.573680900732036" lon="16.328856777974675"><ele>808.0</ele><time>2026-04-11T14:41:57Z</time></trkpt><trkpt lat="38.573773458427084" lon="16.32892338604889"><ele>808.0</ele><time>2026-04-11T14:41:59Z</time></trkpt><trkpt lat="38.573904103883194" lon="16.32897433641122"><ele>807.4999999999999</ele><time>2026-04-11T14:42:01Z</time></trkpt><trkpt lat="38.573961662068896" lon="16.329015047045054"><ele>807.0</ele><time>2026-04-11T14:42:02Z</time></trkpt><trkpt lat="38.574018931584696" lon="16.329057832376897"><ele>806.5</ele><time>2026-04-11T14:42:03Z</time></trkpt><trkpt lat="38.574091036126184" lon="16.32910425425502"><ele>806.0</ele><time>2026-04-11T14:42:04Z</time></trkpt><trkpt lat="38.57417477452873" lon="16.32914997973596"><ele>805.4999999999999</ele><time>2026-04-11T14:42:05Z</time></trkpt><trkpt lat="38.57426759207664" lon="16.32918872846618"><ele>805.0</ele><time>2026-04-11T14:42:06Z</time></trkpt><trkpt lat="38.574373828117835" lon="16.329232126580063"><ele>804.9999999999999</ele><time>2026-04-11T14:42:07Z</time></trkpt><trkpt lat="38.57446694252334" lon="16.32928123999506"><ele>805.0</ele><time>2026-04-11T14:42:08Z</time></trkpt><trkpt lat="38.57455515133214" lon="16.32931926419196"><ele>805.0</ele><time>2026-04-11T14:42:09Z</time></trkpt><trkpt lat="38.57463051219487" lon="16.32935608569273"><ele>805.0</ele><time>2026-04-11T14:42:10Z</time></trkpt><trkpt lat="38.574687688614276" lon="16.329390663231315"><ele>804.9999999999999</ele><time>2026-04-11T14:42:11Z</time></trkpt><trkpt lat="38.57475640594018" lon="16.329416628131916"><ele>805.0</ele><time>2026-04-11T14:42:12Z</time></trkpt><trkpt lat="38.57483123502183" lon="16.329448327931374"><ele>805.0</ele><time>2026-04-11T14:42:13Z</time></trkpt><trkpt lat="38.574911701650706" lon="16.3294957833076"><ele>805.0</ele><time>2026-04-11T14:42:14Z</time></trkpt><trkpt lat="38.57499930424278" lon="16.329525125402114"><ele>805.0</ele><time>2026-04-11T14:42:15Z</time></trkpt><trkpt lat="38.575091143798076" lon="16.32955567203018"><ele>805.0</ele><time>2026-04-11T14:42:16Z</time></trkpt><trkpt lat="38.575181949737825" lon="16.32960185386302"><ele>805.0</ele><time>2026-04-11T14:42:17Z</time></trkpt><trkpt lat="38.57527891822732" lon="16.329627889505268"><ele>804.6</ele><time>2026-04-11T14:42:18Z</time></trkpt><trkpt lat="38.57536345717998" lon="16.32966190084787"><ele>804.2</ele><time>2026-04-11T14:42:19Z</time></trkpt><trkpt lat="38.5754338638412" lon="16.329734882947324"><ele>803.8</ele><time>2026-04-11T14:42:20Z</time></trkpt><trkpt lat="38.57551033614641" lon="16.32976701626967"><ele>803.4</ele><time>2026-04-11T14:42:21Z</time></trkpt><trkpt lat="38.5755988086461" lon="16.329822358232096"><ele>803.0</ele><time>2026-04-11T14:42:22Z</time></trkpt><trkpt lat="38.57568899214144" lon="16.32987655166655"><ele>802.8333333333334</ele><time>2026-04-11T14:42:23Z</time></trkpt><trkpt lat="38.57577508609725" lon="16.329935169257606"><ele>802.6666666666667</ele><time>2026-04-11T14:42:24Z</time></trkpt><trkpt lat="38.575853078450166" lon="16.329976134711245"><ele>802.5</ele><time>2026-04-11T14:42:25Z</time></trkpt><trkpt lat="38.57591954192785" lon="16.330003042763533"><ele>802.3333333333333</ele><time>2026-04-11T14:42:26Z</time></trkpt><trkpt lat="38.575985785854805" lon="16.33003420480372"><ele>802.1666666666666</ele><time>2026-04-11T14:42:27Z</time></trkpt><trkpt lat="38.576042570406344" lon="16.330103736633557"><ele>802.0</ele><time>2026-04-11T14:42:28Z</time></trkpt><trkpt lat="38.57612249153669" lon="16.330149877399794"><ele>801.4000000000001</ele><time>2026-04-11T14:42:29Z</time></trkpt><trkpt lat="38.576218288242835" lon="16.330184882284204"><ele>800.8000000000001</ele><time>2026-04-11T14:42:30Z</time></trkpt><trkpt lat="38.57631736236876" lon="16.330241594080725"><ele>800.2</ele><time>2026-04-11T14:42:31Z</time></trkpt><trkpt lat="38.57640300557911" lon="16.330311627833318"><ele>799.6</ele><time>2026-04-11T14:42:32Z</time></trkpt><trkpt lat="38.576470298787726" lon="16.330350591488997"><ele>799.0</ele><time>2026-04-11T14:42:33Z</time></trkpt><trkpt lat="38.57653321262806" lon="16.33038150997691"><ele>799.0</ele><time>2026-04-11T14:42:34Z</time></trkpt><trkpt lat="38.57659360832323" lon="16.330415070265595"><ele>799.0</ele><time>2026-04-11T14:42:34.999Z</time></trkpt><trkpt lat="38.57666752696221" lon="16.33044002012031"><ele>799.0</ele><time>2026-04-11T14:42:35.999Z</time></trkpt><trkpt lat="38.5767631017297" lon="16.330498188212605"><ele>799.0</ele><time>2026-04-11T14:42:37.999Z</time></trkpt><trkpt lat="38.57683457600112" lon="16.33052486710687"><ele>799.0</ele><time>2026-04-11T14:42:39.999Z</time></trkpt><trkpt lat="38.57692796161471" lon="16.330315431207964"><ele>799.3333333333333</ele><time>2026-04-11T14:42:42.999Z</time></trkpt><trkpt lat="38.57701998593516" lon="16.330343398610918"><ele>799.6666666666666</ele><time>2026-04-11T14:42:45.999Z</time></trkpt><trkpt lat="38.57708175834328" lon="16.330411384724954"><ele>800.0</ele><time>2026-04-11T14:42:46.999Z</time></trkpt><trkpt lat="38.57715544346544" lon="16.330465392223807"><ele>800.3333333333333</ele><time>2026-04-11T14:42:47.999Z</time></trkpt><trkpt lat="38.57719650286697" lon="16.330578325458113"><ele>800.6666666666666</ele><time>2026-04-11T14:42:48.999Z</time></trkpt><trkpt lat="38.57722865428444" lon="16.330685818519893"><ele>801.0</ele><time>2026-04-11T14:42:49.999Z</time></trkpt><trkpt lat="38.577268243783585" lon="16.330795846301005"><ele>801.0</ele><time>2026-04-11T14:42:50.999Z</time></trkpt><trkpt lat="38.57731992513887" lon="16.330909356604742"><ele>801.0</ele><time>2026-04-11T14:42:51.999Z</time></trkpt><trkpt lat="38.57737909266384" lon="16.33103126199732"><ele>801.0</ele><time>2026-04-11T14:42:52.999Z</time></trkpt><trkpt lat="38.577434089522946" lon="16.331155206418686"><ele>801.0</ele><time>2026-04-11T14:42:53.999Z</time></trkpt><trkpt lat="38.57748519891167" lon="16.33127026022473"><ele>801.0</ele><time>2026-04-11T14:42:54.999Z</time></trkpt><trkpt lat="38.57753110583533" lon="16.331371668297752"><ele>800.6666666666666</ele><time>2026-04-11T14:42:55.999Z</time></trkpt><trkpt lat="38.57757344705781" lon="16.331469094581855"><ele>800.3333333333333</ele><time>2026-04-11T14:42:56.999Z</time></trkpt><trkpt lat="38.577610491843785" lon="16.331555326434103"><ele>800.0</ele><time>2026-04-11T14:42:57.999Z</time></trkpt><trkpt lat="38.57764632512502" lon="16.33163620114463"><ele>799.6666666666666</ele><time>2026-04-11T14:42:58.999Z</time></trkpt><trkpt lat="38.57768270812569" lon="16.331716381179817"><ele>799.3333333333333</ele><time>2026-04-11T14:42:59.999Z</time></trkpt><trkpt lat="38.57772509039511" lon="16.33180384780175"><ele>799.0</ele><time>2026-04-11T14:43:01Z</time></trkpt><trkpt lat="38.577770121964825" lon="16.331901201746454"><ele>798.9999999999999</ele><time>2026-04-11T14:43:02Z</time></trkpt><trkpt lat="38.57781325149003" lon="16.331997853759862"><ele>799.0</ele><time>2026-04-11T14:43:03Z</time></trkpt><trkpt lat="38.57785409662089" lon="16.33208784509599"><ele>799.0</ele><time>2026-04-11T14:43:04Z</time></trkpt><trkpt lat="38.57790011820633" lon="16.3321840430445"><ele>799.0</ele><time>2026-04-11T14:43:05Z</time></trkpt><trkpt lat="38.57795213491468" lon="16.332285343208596"><ele>798.9999999999999</ele><time>2026-04-11T14:43:06Z</time></trkpt><trkpt lat="38.578004571415484" lon="16.332383105080176"><ele>799.0</ele><time>2026-04-11T14:43:07Z</time></trkpt><trkpt lat="38.57805914618444" lon="16.332482255122297"><ele>798.5</ele><time>2026-04-11T14:43:08Z</time></trkpt><trkpt lat="38.57814636373725" lon="16.33254541785188"><ele>798.0</ele><time>2026-04-11T14:43:09Z</time></trkpt><trkpt lat="38.57823860287925" lon="16.332625773360917"><ele>797.5</ele><time>2026-04-11T14:43:10Z</time></trkpt><trkpt lat="38.578343745053374" lon="16.33270725904714"><ele>797.0</ele><time>2026-04-11T14:43:11Z</time></trkpt><trkpt lat="38.57844991339142" lon="16.332781147384832"><ele>797.0</ele><time>2026-04-11T14:43:12Z</time></trkpt><trkpt lat="38.5785573254998" lon="16.33285964488834"><ele>797.0</ele><time>2026-04-11T14:43:13Z</time></trkpt><trkpt lat="38.57866461293892" lon="16.33294103085998"><ele>797.0</ele><time>2026-04-11T14:43:14Z</time></trkpt><trkpt lat="38.57876860199789" lon="16.33301992111209"><ele>797.0</ele><time>2026-04-11T14:43:15Z</time></trkpt><trkpt lat="38.57887185307636" lon="16.333105406527764"><ele>797.2</ele><time>2026-04-11T14:43:16Z</time></trkpt><trkpt lat="38.57897015845298" lon="16.33318477396472"><ele>797.4000000000001</ele><time>2026-04-11T14:43:17Z</time></trkpt><trkpt lat="38.57906708432057" lon="16.333255365938076"><ele>797.5999999999999</ele><time>2026-04-11T14:43:18Z</time></trkpt><trkpt lat="38.579152461225966" lon="16.333318979945595"><ele>797.8</ele><time>2026-04-11T14:43:19Z</time></trkpt><trkpt lat="38.57922013611794" lon="16.333368437578915"><ele>798.0</ele><time>2026-04-11T14:43:20Z</time></trkpt><trkpt lat="38.57928454875436" lon="16.333419047159158"><ele>798.0</ele><time>2026-04-11T14:43:21Z</time></trkpt><trkpt lat="38.57934524749984" lon="16.33345912259309"><ele>798.0</ele><time>2026-04-11T14:43:22Z</time></trkpt><trkpt lat="38.57940780017063" lon="16.333489637491667"><ele>798.0</ele><time>2026-04-11T14:43:23Z</time></trkpt><trkpt lat="38.57947327662886" lon="16.33350094377073"><ele>798.0</ele><time>2026-04-11T14:43:24Z</time></trkpt><trkpt lat="38.579541266311494" lon="16.333500115782588"><ele>798.0</ele><time>2026-04-11T14:43:25Z</time></trkpt><trkpt lat="38.57960796302981" lon="16.33347844106926"><ele>798.0</ele><time>2026-04-11T14:43:26Z</time></trkpt><trkpt lat="38.57972477404871" lon="16.333429123436225"><ele>798.0</ele><time>2026-04-11T14:43:28Z</time></trkpt><trkpt lat="38.579791914621886" lon="16.33339605580984"><ele>798.0</ele><time>2026-04-11T14:43:29Z</time></trkpt><trkpt lat="38.57986679749601" lon="16.333367554253215"><ele>798.0</ele><time>2026-04-11T14:43:30Z</time></trkpt><trkpt lat="38.57994939870822" lon="16.33332319531617"><ele>798.0</ele><time>2026-04-11T14:43:31Z</time></trkpt><trkpt lat="38.58003562368585" lon="16.3332748180383"><ele>798.0</ele><time>2026-04-11T14:43:32Z</time></trkpt><trkpt lat="38.58013241059389" lon="16.333223424758653"><ele>798.0</ele><time>2026-04-11T14:43:33Z</time></trkpt><trkpt lat="38.58024098159921" lon="16.33316919175831"><ele>798.0</ele><time>2026-04-11T14:43:34Z</time></trkpt><trkpt lat="38.58034086707125" lon="16.33311738228033"><ele>798.0</ele><time>2026-04-11T14:43:35Z</time></trkpt><trkpt lat="38.58043376651348" lon="16.333071327278493"><ele>798.0</ele><time>2026-04-11T14:43:36Z</time></trkpt><trkpt lat="38.58051815061002" lon="16.333027677679734"><ele>798.0</ele><time>2026-04-11T14:43:37Z</time></trkpt><trkpt lat="38.58059076404217" lon="16.33298456893784"><ele>798.0</ele><time>2026-04-11T14:43:38Z</time></trkpt><trkpt lat="38.58065237293405" lon="16.33294248008396"><ele>798.0</ele><time>2026-04-11T14:43:39Z</time></trkpt><trkpt lat="38.580741210043406" lon="16.332886763807377"><ele>797.5</ele><time>2026-04-11T14:43:41Z</time></trkpt><trkpt lat="38.58084960335026" lon="16.332855544775974"><ele>797.0</ele><time>2026-04-11T14:43:43Z</time></trkpt><trkpt lat="38.580966792491836" lon="16.332858047104803"><ele>796.5</ele><time>2026-04-11T14:43:45Z</time></trkpt><trkpt lat="38.581133721015476" lon="16.33284624826597"><ele>796.0</ele><time>2026-04-11T14:43:46Z</time></trkpt><trkpt lat="38.58123544083046" lon="16.332874341362412"><ele>796.0</ele><time>2026-04-11T14:43:47Z</time></trkpt><trkpt lat="38.5813364683227" lon="16.332926308063552"><ele>796.0</ele><time>2026-04-11T14:43:48Z</time></trkpt><trkpt lat="38.58143079367773" lon="16.33297532146196"><ele>796.0</ele><time>2026-04-11T14:43:49Z</time></trkpt><trkpt lat="38.58151857814324" lon="16.33301390286364"><ele>796.0</ele><time>2026-04-11T14:43:50Z</time></trkpt><trkpt lat="38.58162230507323" lon="16.333053857456253"><ele>796.0</ele><time>2026-04-11T14:43:51Z</time></trkpt><trkpt lat="38.58173346447736" lon="16.333090235143906"><ele>796.0</ele><time>2026-04-11T14:43:52Z</time></trkpt><trkpt lat="38.58184925718157" lon="16.333148697677398"><ele>796.0</ele><time>2026-04-11T14:43:53Z</time></trkpt><trkpt lat="38.58196879145475" lon="16.333235425529537"><ele>796.0</ele><time>2026-04-11T14:43:54Z</time></trkpt><trkpt lat="38.58208360476604" lon="16.333357459859013"><ele>796.0</ele><time>2026-04-11T14:43:55Z</time></trkpt><trkpt lat="38.58220319968851" lon="16.33346323782671"><ele>798.3333333333333</ele><time>2026-04-11T14:43:56Z</time></trkpt><trkpt lat="38.58232624126186" lon="16.33357550137584"><ele>800.6666666666667</ele><time>2026-04-11T14:43:57Z</time></trkpt><trkpt lat="38.58245486077819" lon="16.333694251916587"><ele>803.0</ele><time>2026-04-11T14:43:58Z</time></trkpt><trkpt lat="38.58258243586851" lon="16.33381241454996"><ele>803.6666666666667</ele><time>2026-04-11T14:43:59Z</time></trkpt><trkpt lat="38.5827072956078" lon="16.33392840546308"><ele>804.3333333333333</ele><time>2026-04-11T14:44:00Z</time></trkpt><trkpt lat="38.582847674180655" lon="16.334033995281153"><ele>805.0</ele><time>2026-04-11T14:44:01Z</time></trkpt><trkpt lat="38.582969091344395" lon="16.33417035057888"><ele>805.6666666666666</ele><time>2026-04-11T14:44:02Z</time></trkpt><trkpt lat="38.58311039902047" lon="16.334276323827485"><ele>806.3333333333333</ele><time>2026-04-11T14:44:03Z</time></trkpt><trkpt lat="38.58326488002105" lon="16.33442736972388"><ele>807.0</ele><time>2026-04-11T14:44:04Z</time></trkpt><trkpt lat="38.58337970988093" lon="16.334536376780225"><ele>807.0</ele><time>2026-04-11T14:44:05Z</time></trkpt><trkpt lat="38.583506445077816" lon="16.334657343023576"><ele>807.0</ele><time>2026-04-11T14:44:06Z</time></trkpt><trkpt lat="38.58363318896354" lon="16.33477458003181"><ele>807.0</ele><time>2026-04-11T14:44:07Z</time></trkpt><trkpt lat="38.583764516790716" lon="16.334894670143623"><ele>807.3333333333333</ele><time>2026-04-11T14:44:08Z</time></trkpt><trkpt lat="38.583891201894424" lon="16.33500978020291"><ele>807.6666666666666</ele><time>2026-04-11T14:44:09Z</time></trkpt><trkpt lat="38.5840213695694" lon="16.335132875555654"><ele>808.0</ele><time>2026-04-11T14:44:10Z</time></trkpt><trkpt lat="38.58415899727343" lon="16.33526019006246"><ele>808.0</ele><time>2026-04-11T14:44:11Z</time></trkpt><trkpt lat="38.584278066448185" lon="16.335385311888576"><ele>808.0</ele><time>2026-04-11T14:44:12Z</time></trkpt><trkpt lat="38.58438958505687" lon="16.335506970466664"><ele>808.0</ele><time>2026-04-11T14:44:13Z</time></trkpt><trkpt lat="38.58448167681608" lon="16.335644426933346"><ele>808.0</ele><time>2026-04-11T14:44:14Z</time></trkpt><trkpt lat="38.58454871550706" lon="16.33582678838043"><ele>809.0</ele><time>2026-04-11T14:44:15Z</time></trkpt><trkpt lat="38.58461020769344" lon="16.3360289199589"><ele>810.0</ele><time>2026-04-11T14:44:16Z</time></trkpt><trkpt lat="38.58466940104906" lon="16.336245406244977"><ele>811.0</ele><time>2026-04-11T14:44:17Z</time></trkpt><trkpt lat="38.58472816937431" lon="16.33643310958105"><ele>809.5</ele><time>2026-04-11T14:44:18Z</time></trkpt><trkpt lat="38.58478343727281" lon="16.336587327561737"><ele>808.0</ele><time>2026-04-11T14:44:19Z</time></trkpt><trkpt lat="38.58484337284662" lon="16.336695984282862"><ele>806.5</ele><time>2026-04-11T14:44:20Z</time></trkpt><trkpt lat="38.58493093482325" lon="16.336782402083465"><ele>805.0</ele><time>2026-04-11T14:44:21Z</time></trkpt><trkpt lat="38.58503723363505" lon="16.336803977022562"><ele>805.0</ele><time>2026-04-11T14:44:22Z</time></trkpt><trkpt lat="38.585153440808824" lon="16.33678632051538"><ele>805.0</ele><time>2026-04-11T14:44:23Z</time></trkpt><trkpt lat="38.58526586779581" lon="16.336692134579415"><ele>805.0</ele><time>2026-04-11T14:44:24Z</time></trkpt><trkpt lat="38.58535821012985" lon="16.336562311509486"><ele>805.0</ele><time>2026-04-11T14:44:25Z</time></trkpt><trkpt lat="38.58542870858746" lon="16.336409335923694"><ele>804.5</ele><time>2026-04-11T14:44:26Z</time></trkpt><trkpt lat="38.585473611510665" lon="16.33624256330638"><ele>804.0</ele><time>2026-04-11T14:44:27Z</time></trkpt><trkpt lat="38.58548591062931" lon="16.336082546122103"><ele>803.5</ele><time>2026-04-11T14:44:28Z</time></trkpt><trkpt lat="38.5854833038218" lon="16.33592916293831"><ele>803.0</ele><time>2026-04-11T14:44:29Z</time></trkpt><trkpt lat="38.58547827626825" lon="16.335797107816703"><ele>803.0</ele><time>2026-04-11T14:44:30Z</time></trkpt><trkpt lat="38.58551326475608" lon="16.335684912613424"><ele>803.0</ele><time>2026-04-11T14:44:31Z</time></trkpt><trkpt lat="38.58559521347976" lon="16.335610541487085"><ele>803.0</ele><time>2026-04-11T14:44:32Z</time></trkpt><trkpt lat="38.58571086421733" lon="16.335606526925865"><ele>803.0</ele><time>2026-04-11T14:44:33Z</time></trkpt><trkpt lat="38.585828332471024" lon="16.33564582631725"><ele>803.0</ele><time>2026-04-11T14:44:34Z</time></trkpt><trkpt lat="38.58593652553857" lon="16.335683784521237"><ele>803.0</ele><time>2026-04-11T14:44:35Z</time></trkpt><trkpt lat="38.5860274968771" lon="16.335762481934076"><ele>803.0</ele><time>2026-04-11T14:44:36Z</time></trkpt><trkpt lat="38.58610693331209" lon="16.33588608497464"><ele>803.0</ele><time>2026-04-11T14:44:37Z</time></trkpt><trkpt lat="38.58617858320794" lon="16.33602812847085"><ele>803.0</ele><time>2026-04-11T14:44:38Z</time></trkpt><trkpt lat="38.586213191613055" lon="16.336203191964074"><ele>803.75</ele><time>2026-04-11T14:44:39Z</time></trkpt><trkpt lat="38.586319583663396" lon="16.336373020546343"><ele>804.5</ele><time>2026-04-11T14:44:40Z</time></trkpt><trkpt lat="38.58639127947182" lon="16.33648860496426"><ele>805.25</ele><time>2026-04-11T14:44:40.999Z</time></trkpt><trkpt lat="38.58651396128365" lon="16.336569390387826"><ele>806.0</ele><time>2026-04-11T14:44:41.999Z</time></trkpt><trkpt lat="38.58665105711888" lon="16.33661158155991"><ele>806.0</ele><time>2026-04-11T14:44:42.999Z</time></trkpt><trkpt lat="38.58679917683551" lon="16.33664620420065"><ele>806.0</ele><time>2026-04-11T14:44:43.999Z</time></trkpt><trkpt lat="38.58693755739988" lon="16.33665551655982"><ele>806.0</ele><time>2026-04-11T14:44:44.999Z</time></trkpt><trkpt lat="38.58707304449203" lon="16.336637686654377"><ele>806.0</ele><time>2026-04-11T14:44:45.999Z</time></trkpt><trkpt lat="38.58720429403834" lon="16.336596075937216"><ele>806.5</ele><time>2026-04-11T14:44:46.999Z</time></trkpt><trkpt lat="38.58732153173719" lon="16.336546265531094"><ele>807.0</ele><time>2026-04-11T14:44:47.999Z</time></trkpt><trkpt lat="38.587434735050024" lon="16.336472627720894"><ele>807.5</ele><time>2026-04-11T14:44:48.999Z</time></trkpt><trkpt lat="38.58752223846289" lon="16.336367853819862"><ele>808.0</ele><time>2026-04-11T14:44:49.999Z</time></trkpt><trkpt lat="38.58760998292395" lon="16.336253554116592"><ele>810.0</ele><time>2026-04-11T14:44:50.999Z</time></trkpt><trkpt lat="38.58767683210044" lon="16.33611896075345"><ele>812.0</ele><time>2026-04-11T14:44:51.999Z</time></trkpt><trkpt lat="38.58775160772172" lon="16.33601432039681"><ele>814.0</ele><time>2026-04-11T14:44:52.999Z</time></trkpt><trkpt lat="38.58785075495632" lon="16.33596120468805"><ele>816.0</ele><time>2026-04-11T14:44:53.999Z</time></trkpt><trkpt lat="38.5879679419909" lon="16.335983090665337"><ele>816.0</ele><time>2026-04-11T14:44:54.999Z</time></trkpt><trkpt lat="38.58808383460855" lon="16.33606214367352"><ele>816.0</ele><time>2026-04-11T14:44:55.999Z</time></trkpt><trkpt lat="38.58821818470306" lon="16.33614005969031"><ele>816.0</ele><time>2026-04-11T14:44:56.999Z</time></trkpt><trkpt lat="38.58835164955043" lon="16.336223633963026"><ele>816.0</ele><time>2026-04-11T14:44:57.999Z</time></trkpt><trkpt lat="38.58848130942329" lon="16.3362908295294"><ele>816.0</ele><time>2026-04-11T14:44:58.999Z</time></trkpt><trkpt lat="38.58859641180097" lon="16.336356473886333"><ele>816.0</ele><time>2026-04-11T14:44:59.999Z</time></trkpt><trkpt lat="38.588703566312525" lon="16.336413387212882"><ele>816.0</ele><time>2026-04-11T14:45:00.999Z</time></trkpt><trkpt lat="38.58879872570425" lon="16.336460573678266"><ele>816.0</ele><time>2026-04-11T14:45:01.999Z</time></trkpt><trkpt lat="38.58889934801839" lon="16.33649282882869"><ele>816.0</ele><time>2026-04-11T14:45:02.999Z</time></trkpt><trkpt lat="38.589003813573335" lon="16.336519033974636"><ele>815.6666666666666</ele><time>2026-04-11T14:45:03.999Z</time></trkpt><trkpt lat="38.589106187896505" lon="16.336548599641127"><ele>815.3333333333333</ele><time>2026-04-11T14:45:04.999Z</time></trkpt><trkpt lat="38.589199633016456" lon="16.336587313033576"><ele>815.0</ele><time>2026-04-11T14:45:05.999Z</time></trkpt><trkpt lat="38.58926988856295" lon="16.33663426219627"><ele>814.6666666666666</ele><time>2026-04-11T14:45:06.999Z</time></trkpt><trkpt lat="38.58933700533618" lon="16.336682014298592"><ele>814.3333333333333</ele><time>2026-04-11T14:45:07.999Z</time></trkpt><trkpt lat="38.589410532441434" lon="16.33672822275617"><ele>814.0</ele><time>2026-04-11T14:45:08.999Z</time></trkpt><trkpt lat="38.58949408674921" lon="16.33678052370728"><ele>814.0</ele><time>2026-04-11T14:45:10Z</time></trkpt><trkpt lat="38.58957446080814" lon="16.33684099296852"><ele>814.0</ele><time>2026-04-11T14:45:11Z</time></trkpt><trkpt lat="38.589650855760965" lon="16.336904031333933"><ele>814.0</ele><time>2026-04-11T14:45:12Z</time></trkpt><trkpt lat="38.589732995923825" lon="16.336975637307365"><ele>814.0</ele><time>2026-04-11T14:45:13Z</time></trkpt><trkpt lat="38.58981339155916" lon="16.337042401175186"><ele>814.0</ele><time>2026-04-11T14:45:14Z</time></trkpt><trkpt lat="38.589896496772376" lon="16.337098638002285"><ele>814.0</ele><time>2026-04-11T14:45:15Z</time></trkpt><trkpt lat="38.58998716191209" lon="16.33715785135594"><ele>814.0</ele><time>2026-04-11T14:45:16Z</time></trkpt><trkpt lat="38.59008354070127" lon="16.337218281566614"><ele>814.0</ele><time>2026-04-11T14:45:17Z</time></trkpt><trkpt lat="38.59018976080012" lon="16.33728417935517"><ele>814.0</ele><time>2026-04-11T14:45:18Z</time></trkpt><trkpt lat="38.59030466260016" lon="16.337353571226327"><ele>812.75</ele><time>2026-04-11T14:45:19Z</time></trkpt><trkpt lat="38.59042508353243" lon="16.33742302220798"><ele>811.5</ele><time>2026-04-11T14:45:20Z</time></trkpt><trkpt lat="38.59054914597022" lon="16.337493532526477"><ele>810.25</ele><time>2026-04-11T14:45:21Z</time></trkpt><trkpt lat="38.59067656730979" lon="16.33756664133697"><ele>809.0</ele><time>2026-04-11T14:45:22Z</time></trkpt><trkpt lat="38.59080559884202" lon="16.337643894258516"><ele>809.0</ele><time>2026-04-11T14:45:23Z</time></trkpt><trkpt lat="38.59093910993489" lon="16.33772180490839"><ele>809.0</ele><time>2026-04-11T14:45:24Z</time></trkpt><trkpt lat="38.59107305250233" lon="16.33779972670048"><ele>809.0</ele><time>2026-04-11T14:45:25Z</time></trkpt><trkpt lat="38.59120723989361" lon="16.33787635959828"><ele>809.0</ele><time>2026-04-11T14:45:26Z</time></trkpt><trkpt lat="38.591332113572776" lon="16.337950094854364"><ele>808.8000000000001</ele><time>2026-04-11T14:45:27Z</time></trkpt><trkpt lat="38.5914457840037" lon="16.33802215495861"><ele>808.6</ele><time>2026-04-11T14:45:28Z</time></trkpt><trkpt lat="38.59154361399995" lon="16.33808995625027"><ele>808.4</ele><time>2026-04-11T14:45:29Z</time></trkpt><trkpt lat="38.59164106996845" lon="16.338146426487516"><ele>808.2</ele><time>2026-04-11T14:45:30Z</time></trkpt><trkpt lat="38.591734867748784" lon="16.33818033648775"><ele>808.0</ele><time>2026-04-11T14:45:31Z</time></trkpt><trkpt lat="38.591836774423335" lon="16.338174756873148"><ele>808.0</ele><time>2026-04-11T14:45:32Z</time></trkpt><trkpt lat="38.59193052836256" lon="16.338123625206073"><ele>808.0</ele><time>2026-04-11T14:45:33Z</time></trkpt><trkpt lat="38.59201281710828" lon="16.33803917294213"><ele>808.0</ele><time>2026-04-11T14:45:34Z</time></trkpt><trkpt lat="38.592089941481575" lon="16.337917139534916"><ele>808.0</ele><time>2026-04-11T14:45:35Z</time></trkpt><trkpt lat="38.59217255817502" lon="16.33776991843098"><ele>806.0</ele><time>2026-04-11T14:45:36Z</time></trkpt><trkpt lat="38.59225989412976" lon="16.33761765259274"><ele>804.0</ele><time>2026-04-11T14:45:37Z</time></trkpt><trkpt lat="38.592340965422025" lon="16.33749221123912"><ele>802.0</ele><time>2026-04-11T14:45:38Z</time></trkpt><trkpt lat="38.5924292820563" lon="16.3374046139551"><ele>800.0</ele><time>2026-04-11T14:45:39Z</time></trkpt><trkpt lat="38.592551970256636" lon="16.337326242390166"><ele>800.0</ele><time>2026-04-11T14:45:40Z</time></trkpt><trkpt lat="38.592642631921414" lon="16.3372524757346"><ele>800.0</ele><time>2026-04-11T14:45:41Z</time></trkpt><trkpt lat="38.59274923810013" lon="16.337181763943544"><ele>800.0</ele><time>2026-04-11T14:45:42Z</time></trkpt><trkpt lat="38.5928704985277" lon="16.337090769514564"><ele>800.0</ele><time>2026-04-11T14:45:43Z</time></trkpt><trkpt lat="38.593010440143146" lon="16.337000759521096"><ele>798.6666666666667</ele><time>2026-04-11T14:45:44Z</time></trkpt><trkpt lat="38.59316129899635" lon="16.33690714448003"><ele>797.3333333333333</ele><time>2026-04-11T14:45:45Z</time></trkpt><trkpt lat="38.59331710786467" lon="16.336804969604284"><ele>796.0</ele><time>2026-04-11T14:45:46Z</time></trkpt><trkpt lat="38.59345865532203" lon="16.336704340515166"><ele>796.0</ele><time>2026-04-11T14:45:47Z</time></trkpt><trkpt lat="38.59358075986909" lon="16.33662248671927"><ele>796.0</ele><time>2026-04-11T14:45:48Z</time></trkpt><trkpt lat="38.5936846970763" lon="16.33656329973681"><ele>796.0</ele><time>2026-04-11T14:45:49Z</time></trkpt><trkpt lat="38.59378322486017" lon="16.336535859737335"><ele>796.0</ele><time>2026-04-11T14:45:50Z</time></trkpt><trkpt lat="38.593880015984375" lon="16.336568778972342"><ele>794.25</ele><time>2026-04-11T14:45:51Z</time></trkpt><trkpt lat="38.59394542572184" lon="16.336672717979"><ele>792.5</ele><time>2026-04-11T14:45:52Z</time></trkpt><trkpt lat="38.593941234669096" lon="16.33683557535657"><ele>790.75</ele><time>2026-04-11T14:45:53Z</time></trkpt><trkpt lat="38.593983752578325" lon="16.336990226299108"><ele>789.0</ele><time>2026-04-11T14:45:54Z</time></trkpt><trkpt lat="38.59406154955229" lon="16.337146645691274"><ele>789.75</ele><time>2026-04-11T14:45:55Z</time></trkpt><trkpt lat="38.5941334940668" lon="16.337290536760555"><ele>790.5</ele><time>2026-04-11T14:45:56Z</time></trkpt><trkpt lat="38.59421182097531" lon="16.337423401691222"><ele>791.25</ele><time>2026-04-11T14:45:57Z</time></trkpt><trkpt lat="38.59428936467974" lon="16.33755216132172"><ele>792.0</ele><time>2026-04-11T14:45:58Z</time></trkpt><trkpt lat="38.594333436784446" lon="16.337703399393554"><ele>792.0</ele><time>2026-04-11T14:45:59Z</time></trkpt><trkpt lat="38.59437013708242" lon="16.337851420700865"><ele>792.0</ele><time>2026-04-11T14:46:00Z</time></trkpt><trkpt lat="38.59439721646873" lon="16.33798812773885"><ele>792.0</ele><time>2026-04-11T14:46:01Z</time></trkpt><trkpt lat="38.594435889834784" lon="16.338128899341942"><ele>792.0</ele><time>2026-04-11T14:46:02Z</time></trkpt><trkpt lat="38.594519623715136" lon="16.338245273906725"><ele>790.75</ele><time>2026-04-11T14:46:03Z</time></trkpt><trkpt lat="38.59461688982382" lon="16.33835202734739"><ele>789.5</ele><time>2026-04-11T14:46:04Z</time></trkpt><trkpt lat="38.59473768268352" lon="16.33843587703687"><ele>788.25</ele><time>2026-04-11T14:46:05Z</time></trkpt><trkpt lat="38.594860548473505" lon="16.338523071385463"><ele>787.0</ele><time>2026-04-11T14:46:06Z</time></trkpt><trkpt lat="38.59499374637095" lon="16.33861177895045"><ele>787.0</ele><time>2026-04-11T14:46:07Z</time></trkpt><trkpt lat="38.59513750969668" lon="16.338722544769006"><ele>787.0</ele><time>2026-04-11T14:46:08Z</time></trkpt><trkpt lat="38.59526622969556" lon="16.3388339193176"><ele>787.0</ele><time>2026-04-11T14:46:09Z</time></trkpt><trkpt lat="38.59540208034248" lon="16.33894422380497"><ele>784.0</ele><time>2026-04-11T14:46:10Z</time></trkpt><trkpt lat="38.595546187956465" lon="16.339050542294217"><ele>781.0</ele><time>2026-04-11T14:46:11Z</time></trkpt><trkpt lat="38.59568804793503" lon="16.33915611322425"><ele>778.0</ele><time>2026-04-11T14:46:12Z</time></trkpt><trkpt lat="38.59580354526511" lon="16.33929036903112"><ele>778.0</ele><time>2026-04-11T14:46:13Z</time></trkpt><trkpt lat="38.59590598794519" lon="16.339431537087748"><ele>778.0</ele><time>2026-04-11T14:46:14Z</time></trkpt><trkpt lat="38.596010558605414" lon="16.33958185713145"><ele>778.0</ele><time>2026-04-11T14:46:15Z</time></trkpt><trkpt lat="38.59610372499726" lon="16.339757222991647"><ele>776.0</ele><time>2026-04-11T14:46:16Z</time></trkpt><trkpt lat="38.596198414980115" lon="16.339915137872264"><ele>774.0</ele><time>2026-04-11T14:46:17Z</time></trkpt><trkpt lat="38.59628434382623" lon="16.34006377289717"><ele>772.0</ele><time>2026-04-11T14:46:18Z</time></trkpt><trkpt lat="38.59637070403049" lon="16.340217185259668"><ele>770.0</ele><time>2026-04-11T14:46:19Z</time></trkpt><trkpt lat="38.59644691905788" lon="16.340356641199577"><ele>770.0</ele><time>2026-04-11T14:46:20Z</time></trkpt><trkpt lat="38.59652423685582" lon="16.34048240524676"><ele>770.0</ele><time>2026-04-11T14:46:21Z</time></trkpt><trkpt lat="38.59660500114582" lon="16.340590099150095"><ele>770.0</ele><time>2026-04-11T14:46:22Z</time></trkpt><trkpt lat="38.59670711704509" lon="16.340652266731283"><ele>770.0</ele><time>2026-04-11T14:46:23Z</time></trkpt><trkpt lat="38.596827959332316" lon="16.34066549136319"><ele>770.0</ele><time>2026-04-11T14:46:24Z</time></trkpt><trkpt lat="38.59694753546354" lon="16.340602683619196"><ele>770.0</ele><time>2026-04-11T14:46:25Z</time></trkpt><trkpt lat="38.597059333542795" lon="16.340502130084257"><ele>770.0</ele><time>2026-04-11T14:46:26Z</time></trkpt><trkpt lat="38.59717221042701" lon="16.340395241512763"><ele>770.0</ele><time>2026-04-11T14:46:27Z</time></trkpt><trkpt lat="38.597296028728536" lon="16.340287945152458"><ele>768.5</ele><time>2026-04-11T14:46:28Z</time></trkpt><trkpt lat="38.59742442980894" lon="16.340193143224774"><ele>767.0</ele><time>2026-04-11T14:46:29Z</time></trkpt><trkpt lat="38.59755585700942" lon="16.3401204833945"><ele>765.5</ele><time>2026-04-11T14:46:30Z</time></trkpt><trkpt lat="38.5976881949669" lon="16.340063688628305"><ele>764.0</ele><time>2026-04-11T14:46:31Z</time></trkpt><trkpt lat="38.597826720062564" lon="16.34000573361246"><ele>763.0</ele><time>2026-04-11T14:46:32Z</time></trkpt><trkpt lat="38.59796596771535" lon="16.33994780532415"><ele>762.0</ele><time>2026-04-11T14:46:33Z</time></trkpt><trkpt lat="38.59810614743057" lon="16.33988619176281"><ele>761.0</ele><time>2026-04-11T14:46:34Z</time></trkpt><trkpt lat="38.59824485552202" lon="16.339821239186453"><ele>760.0</ele><time>2026-04-11T14:46:35Z</time></trkpt><trkpt lat="38.59838962015032" lon="16.339762975649194"><ele>760.0</ele><time>2026-04-11T14:46:36Z</time></trkpt><trkpt lat="38.59853484388646" lon="16.339704728999468"><ele>760.0</ele><time>2026-04-11T14:46:37Z</time></trkpt><trkpt lat="38.598679836677796" lon="16.33964164043946"><ele>760.0</ele><time>2026-04-11T14:46:38Z</time></trkpt><trkpt lat="38.59882347018547" lon="16.33957622041693"><ele>760.0</ele><time>2026-04-11T14:46:39Z</time></trkpt><trkpt lat="38.598951478440526" lon="16.339513005015547"><ele>760.0</ele><time>2026-04-11T14:46:40.001Z</time></trkpt><trkpt lat="38.599071284697565" lon="16.339459280880813"><ele>760.0</ele><time>2026-04-11T14:46:41.001Z</time></trkpt><trkpt lat="38.59918296705234" lon="16.33940027644094"><ele>760.0</ele><time>2026-04-11T14:46:42.001Z</time></trkpt><trkpt lat="38.59928050005732" lon="16.339322550094625"><ele>760.0</ele><time>2026-04-11T14:46:43.001Z</time></trkpt><trkpt lat="38.599353494545554" lon="16.339242446134556"><ele>760.0</ele><time>2026-04-11T14:46:44.001Z</time></trkpt><trkpt lat="38.59941384313663" lon="16.339158731586238"><ele>760.0</ele><time>2026-04-11T14:46:45.001Z</time></trkpt><trkpt lat="38.599473060141484" lon="16.339066749889227"><ele>760.0</ele><time>2026-04-11T14:46:46.001Z</time></trkpt><trkpt lat="38.59953731132793" lon="16.338956805977595"><ele>760.0</ele><time>2026-04-11T14:46:46.999Z</time></trkpt><trkpt lat="38.599590798888705" lon="16.338854796551225"><ele>759.8</ele><time>2026-04-11T14:46:47.999Z</time></trkpt><trkpt lat="38.59964652711279" lon="16.33875288606279"><ele>759.6</ele><time>2026-04-11T14:46:48.999Z</time></trkpt><trkpt lat="38.59970580977121" lon="16.338637220912567"><ele>759.4000000000001</ele><time>2026-04-11T14:46:49.999Z</time></trkpt><trkpt lat="38.59976891157911" lon="16.338509415026053"><ele>759.2</ele><time>2026-04-11T14:46:50.999Z</time></trkpt><trkpt lat="38.59983036817187" lon="16.338380094207015"><ele>759.0</ele><time>2026-04-11T14:46:51.999Z</time></trkpt><trkpt lat="38.599898765367506" lon="16.33824677042671"><ele>759.0</ele><time>2026-04-11T14:46:52.999Z</time></trkpt><trkpt lat="38.599966227916646" lon="16.338106611331057"><ele>759.0</ele><time>2026-04-11T14:46:53.999Z</time></trkpt><trkpt lat="38.60003186736676" lon="16.33796570259467"><ele>759.0</ele><time>2026-04-11T14:46:54.999Z</time></trkpt><trkpt lat="38.600102439555194" lon="16.337827479243575"><ele>759.0</ele><time>2026-04-11T14:46:55.999Z</time></trkpt><trkpt lat="38.600174275319326" lon="16.33769316419003"><ele>759.0</ele><time>2026-04-11T14:46:56.999Z</time></trkpt><trkpt lat="38.600242471350576" lon="16.337562692699493"><ele>759.0</ele><time>2026-04-11T14:46:57.999Z</time></trkpt><trkpt lat="38.60030964704231" lon="16.337445834858418"><ele>759.0</ele><time>2026-04-11T14:46:58.999Z</time></trkpt><trkpt lat="38.60038463587529" lon="16.337342358601223"><ele>759.0</ele><time>2026-04-11T14:46:59.999Z</time></trkpt><trkpt lat="38.60046898776089" lon="16.337267668706343"><ele>759.0</ele><time>2026-04-11T14:47:00.999Z</time></trkpt><trkpt lat="38.60056842766944" lon="16.33720715399619"><ele>759.0</ele><time>2026-04-11T14:47:01.999Z</time></trkpt><trkpt lat="38.60068134399481" lon="16.337157363494583"><ele>759.0</ele><time>2026-04-11T14:47:02.999Z</time></trkpt><trkpt lat="38.60079852836996" lon="16.337115466162206"><ele>759.0</ele><time>2026-04-11T14:47:03.999Z</time></trkpt><trkpt lat="38.60091953421003" lon="16.33707871852652"><ele>759.0</ele><time>2026-04-11T14:47:04.999Z</time></trkpt><trkpt lat="38.60103398740746" lon="16.337046291996383"><ele>759.0</ele><time>2026-04-11T14:47:05.999Z</time></trkpt><trkpt lat="38.60114578548876" lon="16.337016268888757"><ele>759.0</ele><time>2026-04-11T14:47:06.999Z</time></trkpt><trkpt lat="38.601247744514325" lon="16.336986854804636"><ele>759.0</ele><time>2026-04-11T14:47:07.999Z</time></trkpt><trkpt lat="38.60134064887439" lon="16.336960853123806"><ele>759.0</ele><time>2026-04-11T14:47:09Z</time></trkpt><trkpt lat="38.60143176674532" lon="16.336941372469816"><ele>759.0</ele><time>2026-04-11T14:47:10Z</time></trkpt><trkpt lat="38.60152141930598" lon="16.336927731499078"><ele>758.8333333333334</ele><time>2026-04-11T14:47:11Z</time></trkpt><trkpt lat="38.60158907333239" lon="16.33691131563642"><ele>758.6666666666666</ele><time>2026-04-11T14:47:12Z</time></trkpt><trkpt lat="38.60169475550828" lon="16.336899149225918"><ele>758.5</ele><time>2026-04-11T14:47:14Z</time></trkpt><trkpt lat="38.60176994879028" lon="16.33690439066239"><ele>758.3333333333333</ele><time>2026-04-11T14:47:16Z</time></trkpt><trkpt lat="38.60184217491929" lon="16.336841678953423"><ele>758.1666666666666</ele><time>2026-04-11T14:47:18Z</time></trkpt><trkpt lat="38.60192065339177" lon="16.336787338342116"><ele>758.0</ele><time>2026-04-11T14:47:20Z</time></trkpt><trkpt lat="38.60202166702641" lon="16.33675924735837"><ele>757.8571428571429</ele><time>2026-04-11T14:47:24Z</time></trkpt><trkpt lat="38.60208242427328" lon="16.336789671646915"><ele>757.7142857142858</ele><time>2026-04-11T14:47:28Z</time></trkpt><trkpt lat="38.60213729299962" lon="16.33684180953736"><ele>757.5714285714287</ele><time>2026-04-11T14:49:16Z</time></trkpt><trkpt lat="38.602210876114874" lon="16.336864594104373"><ele>757.4285714285714</ele><time>2026-04-11T14:51:35.001Z</time></trkpt><trkpt lat="38.60215140825673" lon="16.336796912039073"><ele>757.2857142857142</ele><time>2026-04-11T14:52:27.001Z</time></trkpt><trkpt lat="38.60220052933891" lon="16.336874711971763"><ele>757.1428571428572</ele><time>2026-04-11T14:57:53.001Z</time></trkpt><trkpt lat="38.60213165085609" lon="16.336910832578184"><ele>757.0</ele><time>2026-04-11T15:05:59Z</time></trkpt><trkpt lat="38.60217384900889" lon="16.33674773473019"><ele>757.0</ele><time>2026-04-11T15:06:00Z</time></trkpt><trkpt lat="38.602201839495855" lon="16.33682989090028"><ele>757.0</ele><time>2026-04-11T15:07:05Z</time></trkpt><trkpt lat="38.60227098158833" lon="16.336842489156126"><ele>757.0</ele><time>2026-04-11T15:17:05Z</time></trkpt><trkpt lat="38.60232408048484" lon="16.336887356702743"><ele>757.0</ele><time>2026-04-11T15:17:07Z</time></trkpt><trkpt lat="38.60238495953538" lon="16.336946445711497"><ele>757.0</ele><time>2026-04-11T15:17:10Z</time></trkpt><trkpt lat="38.60244564712593" lon="16.336980072700044"><ele>757.0</ele><time>2026-04-11T15:17:13Z</time></trkpt><trkpt lat="38.602513748373404" lon="16.33704745191982"><ele>757.0</ele><time>2026-04-11T15:17:15Z</time></trkpt><trkpt lat="38.602581199923016" lon="16.337077821078537"><ele>757.0</ele><time>2026-04-11T15:17:18Z</time></trkpt><trkpt lat="38.602653169878195" lon="16.337118563277212"><ele>757.0</ele><time>2026-04-11T15:17:20Z</time></trkpt><trkpt lat="38.602727808739274" lon="16.337159643419028"><ele>757.0</ele><time>2026-04-11T15:17:22Z</time></trkpt><trkpt lat="38.60279211663071" lon="16.33720173227826"><ele>757.0</ele><time>2026-04-11T15:17:24Z</time></trkpt><trkpt lat="38.60285451331668" lon="16.337240225449904"><ele>757.0</ele><time>2026-04-11T15:17:25Z</time></trkpt><trkpt lat="38.602940589331205" lon="16.33730614682331"><ele>757.0</ele><time>2026-04-11T15:17:27Z</time></trkpt><trkpt lat="38.60303797654148" lon="16.337364955887328"><ele>757.0</ele><time>2026-04-11T15:17:29Z</time></trkpt><trkpt lat="38.60314371993144" lon="16.3374268366887"><ele>757.0</ele><time>2026-04-11T15:17:31Z</time></trkpt><trkpt lat="38.60321356174349" lon="16.337437673230454"><ele>757.0</ele><time>2026-04-11T15:17:32Z</time></trkpt><trkpt lat="38.60328049502293" lon="16.337448311649652"><ele>757.0</ele><time>2026-04-11T15:17:33Z</time></trkpt><trkpt lat="38.6033488336655" lon="16.337467968971666"><ele>757.0</ele><time>2026-04-11T15:17:34Z</time></trkpt><trkpt lat="38.60343905975015" lon="16.33746135768089"><ele>757.0</ele><time>2026-04-11T15:17:35Z</time></trkpt><trkpt lat="38.60353137487784" lon="16.337478590133042"><ele>757.0</ele><time>2026-04-11T15:17:36Z</time></trkpt><trkpt lat="38.603639702335165" lon="16.337502438945503"><ele>757.0</ele><time>2026-04-11T15:17:37Z</time></trkpt><trkpt lat="38.60373675501368" lon="16.337525477922263"><ele>757.0</ele><time>2026-04-11T15:17:38Z</time></trkpt><trkpt lat="38.60384220944856" lon="16.33754261883333"><ele>757.0</ele><time>2026-04-11T15:17:39Z</time></trkpt><trkpt lat="38.60395049834898" lon="16.337564236403463"><ele>757.0</ele><time>2026-04-11T15:17:40Z</time></trkpt><trkpt lat="38.604063001054556" lon="16.337578890721353"><ele>756.8</ele><time>2026-04-11T15:17:41Z</time></trkpt><trkpt lat="38.60417138139336" lon="16.337610844359702"><ele>756.6</ele><time>2026-04-11T15:17:42Z</time></trkpt><trkpt lat="38.60427353526427" lon="16.33762621506876"><ele>756.4</ele><time>2026-04-11T15:17:43Z</time></trkpt><trkpt lat="38.604358648575555" lon="16.3376778473931"><ele>756.1999999999999</ele><time>2026-04-11T15:17:44Z</time></trkpt><trkpt lat="38.604449807197355" lon="16.337675945548245"><ele>756.0</ele><time>2026-04-11T15:17:45Z</time></trkpt><trkpt lat="38.604513514676185" lon="16.337671941547217"><ele>755.4</ele><time>2026-04-11T15:17:46Z</time></trkpt><trkpt lat="38.604608337627425" lon="16.33766509927023"><ele>754.8</ele><time>2026-04-11T15:17:47Z</time></trkpt><trkpt lat="38.60468372197007" lon="16.33763489875737"><ele>754.1999999999999</ele><time>2026-04-11T15:17:48Z</time></trkpt><trkpt lat="38.60476438293251" lon="16.337596336739974"><ele>753.5999999999999</ele><time>2026-04-11T15:17:49Z</time></trkpt><trkpt lat="38.60485992973105" lon="16.33755602781579"><ele>753.0</ele><time>2026-04-11T15:17:50Z</time></trkpt><trkpt lat="38.60495440274248" lon="16.337512260053977"><ele>753.0</ele><time>2026-04-11T15:17:51Z</time></trkpt><trkpt lat="38.60503968155643" lon="16.337460888371723"><ele>753.0</ele><time>2026-04-11T15:17:52Z</time></trkpt><trkpt lat="38.605120301396454" lon="16.337418506003996"><ele>753.0</ele><time>2026-04-11T15:17:53Z</time></trkpt><trkpt lat="38.605202123169214" lon="16.337372395084433"><ele>753.0</ele><time>2026-04-11T15:17:54Z</time></trkpt><trkpt lat="38.60528336289989" lon="16.337327605545806"><ele>753.0</ele><time>2026-04-11T15:17:55Z</time></trkpt><trkpt lat="38.60535631554548" lon="16.337281578624523"><ele>753.0</ele><time>2026-04-11T15:17:56Z</time></trkpt><trkpt lat="38.60543341047561" lon="16.33724950453412"><ele>752.8571428571429</ele><time>2026-04-11T15:17:57Z</time></trkpt><trkpt lat="38.60550116498056" lon="16.33721008350188"><ele>752.7142857142858</ele><time>2026-04-11T15:17:58Z</time></trkpt><trkpt lat="38.60557355768664" lon="16.337165511169182"><ele>752.5714285714286</ele><time>2026-04-11T15:17:59Z</time></trkpt><trkpt lat="38.60564670759198" lon="16.337124483275165"><ele>752.4285714285714</ele><time>2026-04-11T15:18:00Z</time></trkpt><trkpt lat="38.60571537635609" lon="16.33708824278028"><ele>752.2857142857142</ele><time>2026-04-11T15:18:01Z</time></trkpt><trkpt lat="38.60577731481302" lon="16.337057640512732"><ele>752.1428571428571</ele><time>2026-04-11T15:18:02Z</time></trkpt><trkpt lat="38.60584712192063" lon="16.33704216684237"><ele>752.0</ele><time>2026-04-11T15:18:03Z</time></trkpt><trkpt lat="38.6059524350455" lon="16.336964720478896"><ele>752.0</ele><time>2026-04-11T15:18:05Z</time></trkpt><trkpt lat="38.60605746486125" lon="16.336902243042307"><ele>752.0</ele><time>2026-04-11T15:18:07Z</time></trkpt><trkpt lat="38.60615536358525" lon="16.336840896071628"><ele>752.0</ele><time>2026-04-11T15:18:09Z</time></trkpt><trkpt lat="38.60623297336844" lon="16.33680741330169"><ele>752.0</ele><time>2026-04-11T15:18:11Z</time></trkpt><trkpt lat="38.60631030760665" lon="16.33673825915947"><ele>752.0</ele><time>2026-04-11T15:18:13Z</time></trkpt><trkpt lat="38.60642554839502" lon="16.33669788757895"><ele>751.8333333333333</ele><time>2026-04-11T15:18:15Z</time></trkpt><trkpt lat="38.60648886278255" lon="16.336698555556275"><ele>751.6666666666666</ele><time>2026-04-11T15:18:16Z</time></trkpt><trkpt lat="38.60655158454341" lon="16.336674564460846"><ele>751.5</ele><time>2026-04-11T15:18:17Z</time></trkpt><trkpt lat="38.60661684766404" lon="16.336624536960038"><ele>751.3333333333334</ele><time>2026-04-11T15:18:18Z</time></trkpt><trkpt lat="38.60669803937464" lon="16.336606165146605"><ele>751.1666666666667</ele><time>2026-04-11T15:18:19Z</time></trkpt><trkpt lat="38.60678627912272" lon="16.336560955521435"><ele>751.0</ele><time>2026-04-11T15:18:20Z</time></trkpt><trkpt lat="38.60687656104587" lon="16.336500251384013"><ele>751.0</ele><time>2026-04-11T15:18:21Z</time></trkpt><trkpt lat="38.60697698963823" lon="16.336460586970695"><ele>751.0</ele><time>2026-04-11T15:18:22Z</time></trkpt><trkpt lat="38.60707221493623" lon="16.33640940248369"><ele>751.0</ele><time>2026-04-11T15:18:23Z</time></trkpt><trkpt lat="38.607163530350384" lon="16.336362399489737"><ele>751.0</ele><time>2026-04-11T15:18:24Z</time></trkpt><trkpt lat="38.60725627416971" lon="16.336314792363083"><ele>751.0</ele><time>2026-04-11T15:18:25Z</time></trkpt><trkpt lat="38.60734083110614" lon="16.33627168798831"><ele>751.1999999999999</ele><time>2026-04-11T15:18:26Z</time></trkpt><trkpt lat="38.6074279020812" lon="16.336227306962268"><ele>751.4</ele><time>2026-04-11T15:18:27Z</time></trkpt><trkpt lat="38.60751924721289" lon="16.336180747198185"><ele>751.6</ele><time>2026-04-11T15:18:28Z</time></trkpt><trkpt lat="38.60760941050795" lon="16.336132964249895"><ele>751.8</ele><time>2026-04-11T15:18:29Z</time></trkpt><trkpt lat="38.6077065243675" lon="16.33605935197131"><ele>752.0</ele><time>2026-04-11T15:18:30Z</time></trkpt><trkpt lat="38.60780318617952" lon="16.33603044701539"><ele>751.8</ele><time>2026-04-11T15:18:31Z</time></trkpt><trkpt lat="38.60790347194165" lon="16.335977390709484"><ele>751.6</ele><time>2026-04-11T15:18:32Z</time></trkpt><trkpt lat="38.608002163712726" lon="16.33592517727268"><ele>751.4</ele><time>2026-04-11T15:18:33Z</time></trkpt><trkpt lat="38.60808330730356" lon="16.335858531992717"><ele>751.1999999999999</ele><time>2026-04-11T15:18:34Z</time></trkpt><trkpt lat="38.60816756950819" lon="16.335816055007033"><ele>751.0</ele><time>2026-04-11T15:18:35Z</time></trkpt><trkpt lat="38.6082529814797" lon="16.335770660460046"><ele>751.0</ele><time>2026-04-11T15:18:36Z</time></trkpt><trkpt lat="38.608351895721405" lon="16.335730021243126"><ele>751.0</ele><time>2026-04-11T15:18:37Z</time></trkpt><trkpt lat="38.60845233083506" lon="16.335669405822802"><ele>751.0</ele><time>2026-04-11T15:18:38Z</time></trkpt><trkpt lat="38.60855939264382" lon="16.335612839955395"><ele>751.0</ele><time>2026-04-11T15:18:39Z</time></trkpt><trkpt lat="38.6086690319249" lon="16.335554011742467"><ele>751.4</ele><time>2026-04-11T15:18:40Z</time></trkpt><trkpt lat="38.60878553609028" lon="16.335491085372883"><ele>751.8</ele><time>2026-04-11T15:18:41Z</time></trkpt><trkpt lat="38.60890155045843" lon="16.335441105935416"><ele>752.1999999999999</ele><time>2026-04-11T15:18:42Z</time></trkpt><trkpt lat="38.608996601590334" lon="16.335400664620167"><ele>752.5999999999999</ele><time>2026-04-11T15:18:43Z</time></trkpt><trkpt lat="38.609078180117926" lon="16.335355588181308"><ele>753.0</ele><time>2026-04-11T15:18:44Z</time></trkpt><trkpt lat="38.60917109914968" lon="16.335307418931286"><ele>753.0</ele><time>2026-04-11T15:18:45Z</time></trkpt><trkpt lat="38.60925097725385" lon="16.335279268695924"><ele>753.0</ele><time>2026-04-11T15:18:46Z</time></trkpt><trkpt lat="38.60932685587961" lon="16.335224794047722"><ele>753.0</ele><time>2026-04-11T15:18:47Z</time></trkpt><trkpt lat="38.609404888438604" lon="16.335162145470587"><ele>753.0</ele><time>2026-04-11T15:18:48Z</time></trkpt><trkpt lat="38.609496440890446" lon="16.335067636204315"><ele>753.0</ele><time>2026-04-11T15:18:49Z</time></trkpt><trkpt lat="38.60956496103851" lon="16.335005648510368"><ele>754.8</ele><time>2026-04-11T15:18:49.999Z</time></trkpt><trkpt lat="38.6095936351062" lon="16.334883412126032"><ele>756.5999999999999</ele><time>2026-04-11T15:18:50.999Z</time></trkpt><trkpt lat="38.60964181645533" lon="16.334761023966927"><ele>758.4000000000001</ele><time>2026-04-11T15:18:51.999Z</time></trkpt><trkpt lat="38.60968121782261" lon="16.33464174516237"><ele>760.2</ele><time>2026-04-11T15:18:52.999Z</time></trkpt><trkpt lat="38.609711934634" lon="16.334504182932175"><ele>762.0</ele><time>2026-04-11T15:18:53.999Z</time></trkpt><trkpt lat="38.60974224537292" lon="16.334376740409976"><ele>762.3333333333334</ele><time>2026-04-11T15:18:54.999Z</time></trkpt><trkpt lat="38.60977481818593" lon="16.334264662415254"><ele>762.6666666666666</ele><time>2026-04-11T15:18:55.999Z</time></trkpt><trkpt lat="38.60981723537002" lon="16.33416645521734"><ele>763.0</ele><time>2026-04-11T15:18:56.999Z</time></trkpt><trkpt lat="38.609839410235075" lon="16.334071353905863"><ele>763.3333333333333</ele><time>2026-04-11T15:18:57.999Z</time></trkpt><trkpt lat="38.609895387454316" lon="16.334001271130255"><ele>763.6666666666666</ele><time>2026-04-11T15:18:58.999Z</time></trkpt><trkpt lat="38.60997637470876" lon="16.33398407198693"><ele>764.0</ele><time>2026-04-11T15:18:59.999Z</time></trkpt><trkpt lat="38.610044808454376" lon="16.33395426018304"><ele>764.0</ele><time>2026-04-11T15:19:00.999Z</time></trkpt><trkpt lat="38.610142799471724" lon="16.33393995205074"><ele>764.0</ele><time>2026-04-11T15:19:02.999Z</time></trkpt><trkpt lat="38.61022218016825" lon="16.3339765870362"><ele>764.0</ele><time>2026-04-11T15:19:05.999Z</time></trkpt><trkpt lat="38.6102995908173" lon="16.33382525217694"><ele>764.0</ele><time>2026-04-11T15:19:07.999Z</time></trkpt><trkpt lat="38.6103783055409" lon="16.33374894708919"><ele>764.0</ele><time>2026-04-11T15:19:09.999Z</time></trkpt><trkpt lat="38.61046433569082" lon="16.33363103633668"><ele>764.4285714285714</ele><time>2026-04-11T15:19:11.999Z</time></trkpt><trkpt lat="38.61051029295614" lon="16.333568053392046"><ele>764.8571428571428</ele><time>2026-04-11T15:19:12.999Z</time></trkpt><trkpt lat="38.61053516147794" lon="16.333472822420646"><ele>765.2857142857142</ele><time>2026-04-11T15:19:13.999Z</time></trkpt><trkpt lat="38.61059261555019" lon="16.333408444752205"><ele>765.7142857142858</ele><time>2026-04-11T15:19:14.999Z</time></trkpt><trkpt lat="38.61065139682672" lon="16.33334822452418"><ele>766.1428571428571</ele><time>2026-04-11T15:19:15.999Z</time></trkpt><trkpt lat="38.61069133222687" lon="16.333278064136177"><ele>766.5714285714286</ele><time>2026-04-11T15:19:16.999Z</time></trkpt><trkpt lat="38.61076031344103" lon="16.33323760613439"><ele>767.0</ele><time>2026-04-11T15:19:17.999Z</time></trkpt><trkpt lat="38.61081869141361" lon="16.333173749715705"><ele>767.0</ele><time>2026-04-11T15:19:18.999Z</time></trkpt><trkpt lat="38.6108880962928" lon="16.333115625324215"><ele>767.0</ele><time>2026-04-11T15:19:19.999Z</time></trkpt><trkpt lat="38.61095081864287" lon="16.333074120801456"><ele>767.0</ele><time>2026-04-11T15:19:21Z</time></trkpt><trkpt lat="38.61105436546656" lon="16.333013568521302"><ele>767.0</ele><time>2026-04-11T15:19:23Z</time></trkpt><trkpt lat="38.61113543746164" lon="16.332918349172083"><ele>767.0</ele><time>2026-04-11T15:19:25Z</time></trkpt><trkpt lat="38.61114161894181" lon="16.33281324905505"><ele>765.6666666666666</ele><time>2026-04-11T15:19:26Z</time></trkpt><trkpt lat="38.611138416507934" lon="16.33271766398384"><ele>764.3333333333333</ele><time>2026-04-11T15:19:27Z</time></trkpt><trkpt lat="38.61112987908165" lon="16.332607945181234"><ele>763.0</ele><time>2026-04-11T15:19:28Z</time></trkpt><trkpt lat="38.61112264937056" lon="16.332494808957755"><ele>761.6666666666666</ele><time>2026-04-11T15:19:29Z</time></trkpt><trkpt lat="38.61109992747647" lon="16.332375142809433"><ele>760.3333333333334</ele><time>2026-04-11T15:19:30Z</time></trkpt><trkpt lat="38.61110485885825" lon="16.33226834359709"><ele>759.0</ele><time>2026-04-11T15:19:31Z</time></trkpt><trkpt lat="38.61109932540011" lon="16.33216305268531"><ele>758.1666666666666</ele><time>2026-04-11T15:19:32Z</time></trkpt><trkpt lat="38.611096221341015" lon="16.332077148004764"><ele>757.3333333333334</ele><time>2026-04-11T15:19:33Z</time></trkpt><trkpt lat="38.6110864260224" lon="16.33199476711668"><ele>756.5</ele><time>2026-04-11T15:19:34Z</time></trkpt><trkpt lat="38.611101024721336" lon="16.33185482134746"><ele>755.6666666666667</ele><time>2026-04-11T15:19:36Z</time></trkpt><trkpt lat="38.611095437530494" lon="16.33173976582602"><ele>754.8333333333334</ele><time>2026-04-11T15:19:38Z</time></trkpt><trkpt lat="38.61111507166012" lon="16.331639727706918"><ele>754.0</ele><time>2026-04-11T15:19:40Z</time></trkpt><trkpt lat="38.611155089577316" lon="16.331558815143524"><ele>754.1666666666667</ele><time>2026-04-11T15:19:42Z</time></trkpt><trkpt lat="38.61129910206199" lon="16.331555165177704"><ele>754.3333333333334</ele><time>2026-04-11T15:19:45Z</time></trkpt><trkpt lat="38.61136443174983" lon="16.331552314008473"><ele>754.5</ele><time>2026-04-11T15:19:46Z</time></trkpt><trkpt lat="38.6114277635142" lon="16.331547661844155"><ele>754.6666666666666</ele><time>2026-04-11T15:19:47Z</time></trkpt><trkpt lat="38.611499407178876" lon="16.33153442120753"><ele>754.8333333333333</ele><time>2026-04-11T15:19:48Z</time></trkpt><trkpt lat="38.61158037928349" lon="16.33151657688224"><ele>755.0</ele><time>2026-04-11T15:19:49Z</time></trkpt><trkpt lat="38.61167473536737" lon="16.33147661786403"><ele>755.0</ele><time>2026-04-11T15:19:50Z</time></trkpt><trkpt lat="38.61177569920812" lon="16.331417119964108"><ele>755.0</ele><time>2026-04-11T15:19:51Z</time></trkpt><trkpt lat="38.61188166477657" lon="16.33133361133847"><ele>755.0</ele><time>2026-04-11T15:19:52Z</time></trkpt><trkpt lat="38.61199079161282" lon="16.331234477708477"><ele>755.0</ele><time>2026-04-11T15:19:53Z</time></trkpt><trkpt lat="38.61209795353994" lon="16.331135801149582"><ele>755.5</ele><time>2026-04-11T15:19:54Z</time></trkpt><trkpt lat="38.61219974884989" lon="16.33105860379079"><ele>756.0</ele><time>2026-04-11T15:19:55Z</time></trkpt><trkpt lat="38.61229805718478" lon="16.330998593513755"><ele>756.5</ele><time>2026-04-11T15:19:56Z</time></trkpt><trkpt lat="38.61240260682458" lon="16.33095269194145"><ele>757.0</ele><time>2026-04-11T15:19:57Z</time></trkpt><trkpt lat="38.61251718469066" lon="16.330937045156286"><ele>757.0</ele><time>2026-04-11T15:19:58Z</time></trkpt><trkpt lat="38.612635816642836" lon="16.330939146786996"><ele>757.0</ele><time>2026-04-11T15:19:59Z</time></trkpt><trkpt lat="38.612751155850496" lon="16.330964114272092"><ele>757.0</ele><time>2026-04-11T15:20:00Z</time></trkpt><trkpt lat="38.612867022021305" lon="16.3310117401533"><ele>757.0</ele><time>2026-04-11T15:20:01Z</time></trkpt><trkpt lat="38.61297971679008" lon="16.331071705031178"><ele>757.0</ele><time>2026-04-11T15:20:02Z</time></trkpt><trkpt lat="38.61308110948174" lon="16.331167569835465"><ele>757.0</ele><time>2026-04-11T15:20:03Z</time></trkpt><trkpt lat="38.61319045307126" lon="16.3312658861209"><ele>757.0</ele><time>2026-04-11T15:20:04Z</time></trkpt><trkpt lat="38.61329373040667" lon="16.3313539467741"><ele>757.0</ele><time>2026-04-11T15:20:05Z</time></trkpt><trkpt lat="38.61338145430278" lon="16.331452865346844"><ele>757.0</ele><time>2026-04-11T15:20:06Z</time></trkpt><trkpt lat="38.61345352832799" lon="16.33152714997045"><ele>757.0</ele><time>2026-04-11T15:20:07Z</time></trkpt><trkpt lat="38.613513925354475" lon="16.331595135634583"><ele>757.0</ele><time>2026-04-11T15:20:08Z</time></trkpt><trkpt lat="38.61356282645107" lon="16.33165969979679"><ele>757.0</ele><time>2026-04-11T15:20:09Z</time></trkpt><trkpt lat="38.61361632914197" lon="16.33177658181504"><ele>757.0</ele><time>2026-04-11T15:20:11Z</time></trkpt><trkpt lat="38.613756190555954" lon="16.331639440378666"><ele>757.8</ele><time>2026-04-11T15:20:15Z</time></trkpt><trkpt lat="38.61376613700127" lon="16.331521132736025"><ele>758.6</ele><time>2026-04-11T15:20:16Z</time></trkpt><trkpt lat="38.61378767818495" lon="16.331400381065222"><ele>759.4</ele><time>2026-04-11T15:20:17Z</time></trkpt><trkpt lat="38.61381719428494" lon="16.331277723693784"><ele>760.1999999999999</ele><time>2026-04-11T15:20:18Z</time></trkpt><trkpt lat="38.61384603575649" lon="16.33117247058159"><ele>761.0</ele><time>2026-04-11T15:20:19Z</time></trkpt><trkpt lat="38.6138730513451" lon="16.331071747610054"><ele>761.0</ele><time>2026-04-11T15:20:20Z</time></trkpt><trkpt lat="38.613895339568316" lon="16.33095904341475"><ele>761.0</ele><time>2026-04-11T15:20:21Z</time></trkpt><trkpt lat="38.61390674482193" lon="16.330831165919196"><ele>761.0</ele><time>2026-04-11T15:20:22Z</time></trkpt><trkpt lat="38.61390467194559" lon="16.330697506628717"><ele>761.0</ele><time>2026-04-11T15:20:23Z</time></trkpt><trkpt lat="38.61389294688774" lon="16.330568092500265"><ele>761.0</ele><time>2026-04-11T15:20:24Z</time></trkpt><trkpt lat="38.61388910752812" lon="16.330434297768175"><ele>761.0</ele><time>2026-04-11T15:20:25Z</time></trkpt><trkpt lat="38.613899412670975" lon="16.33029400459203"><ele>761.0</ele><time>2026-04-11T15:20:26Z</time></trkpt><trkpt lat="38.61393746296478" lon="16.33014800736665"><ele>761.0</ele><time>2026-04-11T15:20:27Z</time></trkpt><trkpt lat="38.613974579961834" lon="16.330028426493776"><ele>761.0</ele><time>2026-04-11T15:20:28Z</time></trkpt><trkpt lat="38.61402787948378" lon="16.329908968634925"><ele>761.0</ele><time>2026-04-11T15:20:29Z</time></trkpt><trkpt lat="38.614093678547235" lon="16.329795177152242"><ele>760.6666666666666</ele><time>2026-04-11T15:20:30Z</time></trkpt><trkpt lat="38.61415617348781" lon="16.329699036018315"><ele>760.3333333333333</ele><time>2026-04-11T15:20:31Z</time></trkpt><trkpt lat="38.61420938761538" lon="16.329614203638798"><ele>760.0</ele><time>2026-04-11T15:20:32Z</time></trkpt><trkpt lat="38.614258757464654" lon="16.32953438960632"><ele>759.6666666666666</ele><time>2026-04-11T15:20:33Z</time></trkpt><trkpt lat="38.61430946085502" lon="16.32946423426038"><ele>759.3333333333334</ele><time>2026-04-11T15:20:34Z</time></trkpt><trkpt lat="38.61436809400392" lon="16.329417048157364"><ele>759.0</ele><time>2026-04-11T15:20:35Z</time></trkpt><trkpt lat="38.61443945088462" lon="16.329417024124382"><ele>759.5</ele><time>2026-04-11T15:20:36Z</time></trkpt><trkpt lat="38.61450577116709" lon="16.329483115657073"><ele>760.0</ele><time>2026-04-11T15:20:37Z</time></trkpt><trkpt lat="38.61457438451163" lon="16.32949740979763"><ele>760.5</ele><time>2026-04-11T15:20:38Z</time></trkpt><trkpt lat="38.61466062765167" lon="16.329502914736544"><ele>761.0</ele><time>2026-04-11T15:20:39Z</time></trkpt><trkpt lat="38.61475503878464" lon="16.32948702064416"><ele>761.5</ele><time>2026-04-11T15:20:40Z</time></trkpt><trkpt lat="38.61485912763895" lon="16.329438257162625"><ele>762.0</ele><time>2026-04-11T15:20:41Z</time></trkpt><trkpt lat="38.61496735449905" lon="16.32938519466567"><ele>762.0</ele><time>2026-04-11T15:20:42Z</time></trkpt><trkpt lat="38.615073076589525" lon="16.329332215194427"><ele>762.0</ele><time>2026-04-11T15:20:43Z</time></trkpt><trkpt lat="38.61515915609915" lon="16.329294010851026"><ele>762.0</ele><time>2026-04-11T15:20:44Z</time></trkpt><trkpt lat="38.61522874236912" lon="16.329263318482298"><ele>762.0</ele><time>2026-04-11T15:20:45Z</time></trkpt><trkpt lat="38.61529399032339" lon="16.329226310987288"><ele>762.0</ele><time>2026-04-11T15:20:46Z</time></trkpt><trkpt lat="38.61539116516296" lon="16.32913164078722"><ele>762.6</ele><time>2026-04-11T15:20:48Z</time></trkpt><trkpt lat="38.61542413902562" lon="16.329038256072973"><ele>763.2</ele><time>2026-04-11T15:20:49Z</time></trkpt><trkpt lat="38.61546261631811" lon="16.32892716105362"><ele>763.8</ele><time>2026-04-11T15:20:50Z</time></trkpt><trkpt lat="38.61551075158694" lon="16.328808050584964"><ele>764.4</ele><time>2026-04-11T15:20:51Z</time></trkpt><trkpt lat="38.615575169173916" lon="16.3286845664667"><ele>765.0</ele><time>2026-04-11T15:20:52Z</time></trkpt><trkpt lat="38.6156496999881" lon="16.328563212061773"><ele>765.6</ele><time>2026-04-11T15:20:53Z</time></trkpt><trkpt lat="38.61571940107121" lon="16.328446283834413"><ele>766.2</ele><time>2026-04-11T15:20:54Z</time></trkpt><trkpt lat="38.615785598345326" lon="16.32832962906468"><ele>766.8</ele><time>2026-04-11T15:20:55Z</time></trkpt><trkpt lat="38.61584533408806" lon="16.328223556322616"><ele>767.4</ele><time>2026-04-11T15:20:55.999Z</time></trkpt><trkpt lat="38.615898581323364" lon="16.328141344641793"><ele>768.0</ele><time>2026-04-11T15:20:56.999Z</time></trkpt><trkpt lat="38.615947176562734" lon="16.32808505783762"><ele>768.5999999999999</ele><time>2026-04-11T15:20:57.999Z</time></trkpt><trkpt lat="38.61602948610885" lon="16.327988132582348"><ele>769.1999999999999</ele><time>2026-04-11T15:20:59.999Z</time></trkpt><trkpt lat="38.61607871171971" lon="16.327935937183994"><ele>769.8</ele><time>2026-04-11T15:21:00.999Z</time></trkpt><trkpt lat="38.61611252026315" lon="16.327830078850184"><ele>770.4</ele><time>2026-04-11T15:21:01.999Z</time></trkpt><trkpt lat="38.616113924449074" lon="16.32770802330879"><ele>771.0</ele><time>2026-04-11T15:21:02.999Z</time></trkpt><trkpt lat="38.61613120493402" lon="16.327570692315554"><ele>771.0</ele><time>2026-04-11T15:21:03.999Z</time></trkpt><trkpt lat="38.616143543535806" lon="16.327424111489275"><ele>771.0</ele><time>2026-04-11T15:21:04.999Z</time></trkpt><trkpt lat="38.61615860756178" lon="16.32726727214177"><ele>771.0</ele><time>2026-04-11T15:21:05.999Z</time></trkpt><trkpt lat="38.61617017518985" lon="16.327128699833835"><ele>771.0</ele><time>2026-04-11T15:21:06.999Z</time></trkpt><trkpt lat="38.61616362599453" lon="16.327016407228662"><ele>771.0</ele><time>2026-04-11T15:21:07.999Z</time></trkpt><trkpt lat="38.61613831511545" lon="16.326906181368194"><ele>771.8333333333334</ele><time>2026-04-11T15:21:08.999Z</time></trkpt><trkpt lat="38.616089962054474" lon="16.326807329640744"><ele>772.6666666666667</ele><time>2026-04-11T15:21:09.999Z</time></trkpt><trkpt lat="38.61604031392654" lon="16.326715049897462"><ele>773.5</ele><time>2026-04-11T15:21:10.999Z</time></trkpt><trkpt lat="38.61599418597544" lon="16.326625133819995"><ele>774.3333333333334</ele><time>2026-04-11T15:21:11.999Z</time></trkpt><trkpt lat="38.615957070826596" lon="16.32654112203139"><ele>775.1666666666667</ele><time>2026-04-11T15:21:12.999Z</time></trkpt><trkpt lat="38.61592704977373" lon="16.326455380790822"><ele>776.0</ele><time>2026-04-11T15:21:13.999Z</time></trkpt><trkpt lat="38.615908713076" lon="16.32636389523428"><ele>776.8</ele><time>2026-04-11T15:21:14.999Z</time></trkpt><trkpt lat="38.61593458120287" lon="16.32627709471069"><ele>777.5999999999999</ele><time>2026-04-11T15:21:15.999Z</time></trkpt><trkpt lat="38.61599706966262" lon="16.32614782924237"><ele>778.4</ele><time>2026-04-11T15:21:17.999Z</time></trkpt><trkpt lat="38.616046245292374" lon="16.3260406496448"><ele>779.2</ele><time>2026-04-11T15:21:19.999Z</time></trkpt><trkpt lat="38.61609915138317" lon="16.32594115435558"><ele>780.0</ele><time>2026-04-11T15:21:21.999Z</time></trkpt><trkpt lat="38.616168995501745" lon="16.325797095971836"><ele>781.0</ele><time>2026-04-11T15:21:23.999Z</time></trkpt><trkpt lat="38.616225835365626" lon="16.325719451906735"><ele>782.0</ele><time>2026-04-11T15:21:25Z</time></trkpt><trkpt lat="38.61628185798533" lon="16.325628559633657"><ele>783.0</ele><time>2026-04-11T15:21:26Z</time></trkpt><trkpt lat="38.61633594681646" lon="16.325542327191016"><ele>784.0</ele><time>2026-04-11T15:21:27Z</time></trkpt><trkpt lat="38.616401471723286" lon="16.325428713453125"><ele>785.0</ele><time>2026-04-11T15:21:28Z</time></trkpt><trkpt lat="38.61646105538019" lon="16.32534228552305"><ele>785.5000000000001</ele><time>2026-04-11T15:21:29Z</time></trkpt><trkpt lat="38.616507912541344" lon="16.325269973496763"><ele>786.0</ele><time>2026-04-11T15:21:30Z</time></trkpt><trkpt lat="38.616551338328" lon="16.325198937595946"><ele>786.5</ele><time>2026-04-11T15:21:31Z</time></trkpt><trkpt lat="38.61659817700415" lon="16.325127349625273"><ele>787.0</ele><time>2026-04-11T15:21:32Z</time></trkpt><trkpt lat="38.616640682574435" lon="16.325058173648202"><ele>787.5000000000001</ele><time>2026-04-11T15:21:33Z</time></trkpt><trkpt lat="38.61668070450325" lon="16.324991466423256"><ele>788.0</ele><time>2026-04-11T15:21:34Z</time></trkpt><trkpt lat="38.61677016242375" lon="16.324888669518753"><ele>788.0000000000001</ele><time>2026-04-11T15:21:36Z</time></trkpt><trkpt lat="38.6168313184854" lon="16.32486950342277"><ele>788.0</ele><time>2026-04-11T15:21:37Z</time></trkpt><trkpt lat="38.616897890336055" lon="16.32489031618672"><ele>788.0</ele><time>2026-04-11T15:21:38Z</time></trkpt><trkpt lat="38.61696432903217" lon="16.324940344581517"><ele>788.0</ele><time>2026-04-11T15:21:39Z</time></trkpt><trkpt lat="38.61702660392308" lon="16.325002610734153"><ele>788.0000000000001</ele><time>2026-04-11T15:21:40Z</time></trkpt><trkpt lat="38.61709098563329" lon="16.325075284341107"><ele>788.0</ele><time>2026-04-11T15:21:41Z</time></trkpt><trkpt lat="38.61715849923932" lon="16.325161998426466"><ele>788.8</ele><time>2026-04-11T15:21:42Z</time></trkpt><trkpt lat="38.61723277161973" lon="16.325249952955957"><ele>789.5999999999999</ele><time>2026-04-11T15:21:43Z</time></trkpt><trkpt lat="38.6173063052449" lon="16.325335369899552"><ele>790.4000000000001</ele><time>2026-04-11T15:21:44Z</time></trkpt><trkpt lat="38.617372809298274" lon="16.325412439149325"><ele>791.2</ele><time>2026-04-11T15:21:45Z</time></trkpt><trkpt lat="38.6174404017492" lon="16.325487675103364"><ele>792.0</ele><time>2026-04-11T15:21:46Z</time></trkpt><trkpt lat="38.617504694064436" lon="16.325561211955105"><ele>791.8</ele><time>2026-04-11T15:21:47Z</time></trkpt><trkpt lat="38.61757867162017" lon="16.32563817422103"><ele>791.6</ele><time>2026-04-11T15:21:48Z</time></trkpt><trkpt lat="38.61764373531159" lon="16.325712240558612"><ele>791.4</ele><time>2026-04-11T15:21:49Z</time></trkpt><trkpt lat="38.61771979664342" lon="16.325790816019502"><ele>791.1999999999999</ele><time>2026-04-11T15:21:50Z</time></trkpt><trkpt lat="38.61779501909471" lon="16.325864750031496"><ele>791.0</ele><time>2026-04-11T15:21:51Z</time></trkpt><trkpt lat="38.617874811329145" lon="16.32593220828935"><ele>791.3333333333334</ele><time>2026-04-11T15:21:52Z</time></trkpt><trkpt lat="38.61794686821533" lon="16.32598109188373"><ele>791.6666666666667</ele><time>2026-04-11T15:21:53Z</time></trkpt><trkpt lat="38.618015751637444" lon="16.32601311490414"><ele>792.0</ele><time>2026-04-11T15:21:54Z</time></trkpt><trkpt lat="38.618123158226915" lon="16.326052270382906"><ele>792.3333333333333</ele><time>2026-04-11T15:21:56Z</time></trkpt><trkpt lat="38.61819369255498" lon="16.326064134570533"><ele>792.6666666666666</ele><time>2026-04-11T15:21:58Z</time></trkpt><trkpt lat="38.61823628552935" lon="16.326182692122718"><ele>793.0</ele><time>2026-04-11T15:22:00Z</time></trkpt><trkpt lat="38.61826666629807" lon="16.32633493751425"><ele>793.4</ele><time>2026-04-11T15:22:02Z</time></trkpt><trkpt lat="38.61830764044893" lon="16.326420204034438"><ele>793.8</ele><time>2026-04-11T15:22:03Z</time></trkpt><trkpt lat="38.618326931033" lon="16.326533086360648"><ele>794.2</ele><time>2026-04-11T15:22:04Z</time></trkpt><trkpt lat="38.618378815583576" lon="16.32665904300023"><ele>794.6</ele><time>2026-04-11T15:22:05Z</time></trkpt><trkpt lat="38.61840493538217" lon="16.32679061839145"><ele>795.0</ele><time>2026-04-11T15:22:06Z</time></trkpt><trkpt lat="38.61843707629004" lon="16.32689618984832"><ele>795.0</ele><time>2026-04-11T15:22:07Z</time></trkpt><trkpt lat="38.61846511488772" lon="16.326991234667734"><ele>795.0</ele><time>2026-04-11T15:22:08Z</time></trkpt><trkpt lat="38.61849168330906" lon="16.327081295895695"><ele>795.0</ele><time>2026-04-11T15:22:09Z</time></trkpt><trkpt lat="38.618518129332934" lon="16.32717203209275"><ele>795.0</ele><time>2026-04-11T15:22:10Z</time></trkpt><trkpt lat="38.618548557465935" lon="16.327277025097864"><ele>795.0</ele><time>2026-04-11T15:22:11Z</time></trkpt><trkpt lat="38.618578533182266" lon="16.327380457012563"><ele>795.0</ele><time>2026-04-11T15:22:12Z</time></trkpt><trkpt lat="38.618608689693346" lon="16.32748773331214"><ele>795.6</ele><time>2026-04-11T15:22:13Z</time></trkpt><trkpt lat="38.618641737796516" lon="16.327606061212318"><ele>796.2</ele><time>2026-04-11T15:22:14Z</time></trkpt><trkpt lat="38.61867321702859" lon="16.32772466625139"><ele>796.8</ele><time>2026-04-11T15:22:15Z</time></trkpt><trkpt lat="38.6187024498968" lon="16.32783424853043"><ele>797.4</ele><time>2026-04-11T15:22:16Z</time></trkpt><trkpt lat="38.618733467267894" lon="16.327950520196733"><ele>798.0</ele><time>2026-04-11T15:22:17Z</time></trkpt><trkpt lat="38.6187596095953" lon="16.32805714646887"><ele>799.4</ele><time>2026-04-11T15:22:18Z</time></trkpt><trkpt lat="38.618793616963025" lon="16.3281382211322"><ele>800.8</ele><time>2026-04-11T15:22:19Z</time></trkpt><trkpt lat="38.61881022766956" lon="16.328252826410534"><ele>802.2</ele><time>2026-04-11T15:22:20Z</time></trkpt><trkpt lat="38.61885507933953" lon="16.32837542083321"><ele>803.6</ele><time>2026-04-11T15:22:21Z</time></trkpt><trkpt lat="38.61889719901128" lon="16.328502860577903"><ele>805.0</ele><time>2026-04-11T15:22:22Z</time></trkpt><trkpt lat="38.618930637349195" lon="16.328620786976924"><ele>805.0</ele><time>2026-04-11T15:22:23Z</time></trkpt><trkpt lat="38.61897032950525" lon="16.328742360148517"><ele>805.0</ele><time>2026-04-11T15:22:24Z</time></trkpt><trkpt lat="38.61901602545775" lon="16.328858628741077"><ele>805.0</ele><time>2026-04-11T15:22:25Z</time></trkpt><trkpt lat="38.619066264459384" lon="16.32899092719029"><ele>805.0</ele><time>2026-04-11T15:22:26Z</time></trkpt><trkpt lat="38.619129718862844" lon="16.32912677532526"><ele>805.0</ele><time>2026-04-11T15:22:27Z</time></trkpt><trkpt lat="38.61918955678029" lon="16.32927154734452"><ele>805.0</ele><time>2026-04-11T15:22:28Z</time></trkpt><trkpt lat="38.61925543684339" lon="16.329391832799434"><ele>805.0</ele><time>2026-04-11T15:22:29Z</time></trkpt><trkpt lat="38.619333424246385" lon="16.3295097868267"><ele>805.0</ele><time>2026-04-11T15:22:30Z</time></trkpt><trkpt lat="38.61941053144483" lon="16.329614030208937"><ele>805.0</ele><time>2026-04-11T15:22:31Z</time></trkpt><trkpt lat="38.61948019919864" lon="16.329695764541704"><ele>805.0</ele><time>2026-04-11T15:22:32Z</time></trkpt><trkpt lat="38.61955508872675" lon="16.32975938094967"><ele>805.4999999999999</ele><time>2026-04-11T15:22:33Z</time></trkpt><trkpt lat="38.61963139386775" lon="16.329801683251045"><ele>806.0</ele><time>2026-04-11T15:22:34Z</time></trkpt><trkpt lat="38.61970535848606" lon="16.32982440884881"><ele>806.5</ele><time>2026-04-11T15:22:35Z</time></trkpt><trkpt lat="38.619788877286574" lon="16.329843492843587"><ele>807.0</ele><time>2026-04-11T15:22:36Z</time></trkpt><trkpt lat="38.619854497879274" lon="16.329856279608222"><ele>807.4999999999999</ele><time>2026-04-11T15:22:37Z</time></trkpt><trkpt lat="38.61991902333179" lon="16.329879106951644"><ele>808.0</ele><time>2026-04-11T15:22:38Z</time></trkpt><trkpt lat="38.61998771598795" lon="16.329927098713107"><ele>808.0</ele><time>2026-04-11T15:22:39Z</time></trkpt><trkpt lat="38.62005633927362" lon="16.329984494570034"><ele>808.0</ele><time>2026-04-11T15:22:40Z</time></trkpt><trkpt lat="38.62010292945661" lon="16.33005724141677"><ele>808.0</ele><time>2026-04-11T15:22:41Z</time></trkpt><trkpt lat="38.620125459348564" lon="16.330139075386604"><ele>808.0</ele><time>2026-04-11T15:22:42.001Z</time></trkpt><trkpt lat="38.62011252577335" lon="16.330226127470045"><ele>808.0</ele><time>2026-04-11T15:22:43.001Z</time></trkpt><trkpt lat="38.62008338414766" lon="16.33029917901455"><ele>808.0</ele><time>2026-04-11T15:22:44.001Z</time></trkpt><trkpt lat="38.620038498769034" lon="16.33036399284892"><ele>808.0</ele><time>2026-04-11T15:22:45.001Z</time></trkpt><trkpt lat="38.61996725739432" lon="16.330407125468813"><ele>807.9999999999999</ele><time>2026-04-11T15:22:46.001Z</time></trkpt><trkpt lat="38.61987952886161" lon="16.330402400841358"><ele>808.0</ele><time>2026-04-11T15:22:47.001Z</time></trkpt><trkpt lat="38.619803645909755" lon="16.33041439207442"><ele>808.0</ele><time>2026-04-11T15:22:48.001Z</time></trkpt><trkpt lat="38.61973522349199" lon="16.330452889692783"><ele>808.0</ele><time>2026-04-11T15:22:49.001Z</time></trkpt><trkpt lat="38.61967871288696" lon="16.330503063372195"><ele>807.9999999999999</ele><time>2026-04-11T15:22:50.001Z</time></trkpt><trkpt lat="38.61963207216681" lon="16.330568966976777"><ele>808.0</ele><time>2026-04-11T15:22:51.001Z</time></trkpt><trkpt lat="38.61958375203952" lon="16.330674506662415"><ele>808.1666666666666</ele><time>2026-04-11T15:22:53.001Z</time></trkpt><trkpt lat="38.61955357463909" lon="16.330751113121533"><ele>808.3333333333333</ele><time>2026-04-11T15:22:55.001Z</time></trkpt><trkpt lat="38.61951567183622" lon="16.330823114206954"><ele>808.5</ele><time>2026-04-11T15:22:58.001Z</time></trkpt><trkpt lat="38.61947301845459" lon="16.330890562409923"><ele>808.6666666666667</ele><time>2026-04-11T15:28:08.001Z</time></trkpt><trkpt lat="38.61944797584998" lon="16.330977489888124"><ele>808.8333333333334</ele><time>2026-04-11T15:28:10.001Z</time></trkpt><trkpt lat="38.619414236601216" lon="16.3310608562759"><ele>809.0</ele><time>2026-04-11T15:28:11.001Z</time></trkpt><trkpt lat="38.6193458689781" lon="16.331209791401395"><ele>806.0</ele><time>2026-04-11T15:28:12.001Z</time></trkpt><trkpt lat="38.61926769228716" lon="16.331388768638345"><ele>803.0</ele><time>2026-04-11T15:28:13.001Z</time></trkpt><trkpt lat="38.61920041086358" lon="16.331643957655956"><ele>800.0</ele><time>2026-04-11T15:28:14.001Z</time></trkpt><trkpt lat="38.619165866553494" lon="16.331842178352375"><ele>800.0</ele><time>2026-04-11T15:28:15.001Z</time></trkpt><trkpt lat="38.619150132909326" lon="16.332031089333842"><ele>800.0</ele><time>2026-04-11T15:28:16.001Z</time></trkpt><trkpt lat="38.61914395539694" lon="16.33218435586885"><ele>800.0</ele><time>2026-04-11T15:28:17.001Z</time></trkpt><trkpt lat="38.61910081240683" lon="16.332330351704424"><ele>800.0</ele><time>2026-04-11T15:28:18.001Z</time></trkpt><trkpt lat="38.619071639224096" lon="16.332458265258353"><ele>799.0</ele><time>2026-04-11T15:28:19.001Z</time></trkpt><trkpt lat="38.61915008187874" lon="16.332629752441566"><ele>798.0</ele><time>2026-04-11T15:28:20.001Z</time></trkpt><trkpt lat="38.61911481070777" lon="16.33274636696088"><ele>797.0</ele><time>2026-04-11T15:28:21.001Z</time></trkpt><trkpt lat="38.61906986364382" lon="16.33285680795801"><ele>796.0</ele><time>2026-04-11T15:28:22.001Z</time></trkpt><trkpt lat="38.61900745525574" lon="16.33296115293968"><ele>796.0</ele><time>2026-04-11T15:28:23.001Z</time></trkpt><trkpt lat="38.61896287103107" lon="16.333071549149487"><ele>796.0</ele><time>2026-04-11T15:28:24.001Z</time></trkpt><trkpt lat="38.61892991910159" lon="16.333183589616546"><ele>796.0</ele><time>2026-04-11T15:28:25.001Z</time></trkpt><trkpt lat="38.61889068593144" lon="16.33329103997939"><ele>796.0</ele><time>2026-04-11T15:28:26.001Z</time></trkpt><trkpt lat="38.618846703281456" lon="16.333419296765975"><ele>796.0</ele><time>2026-04-11T15:28:27.001Z</time></trkpt><trkpt lat="38.61880387078395" lon="16.333526719299996"><ele>796.0</ele><time>2026-04-11T15:28:28.001Z</time></trkpt><trkpt lat="38.61874609695573" lon="16.33361868964068"><ele>796.0</ele><time>2026-04-11T15:28:29.001Z</time></trkpt><trkpt lat="38.618675382079076" lon="16.333705752483574"><ele>796.0</ele><time>2026-04-11T15:28:30.001Z</time></trkpt><trkpt lat="38.61862398510473" lon="16.333777577632343"><ele>796.0</ele><time>2026-04-11T15:28:31.001Z</time></trkpt><trkpt lat="38.6185830058134" lon="16.333889724076073"><ele>796.0</ele><time>2026-04-11T15:28:33.001Z</time></trkpt><trkpt lat="38.61866685884861" lon="16.333959257501633"><ele>795.0</ele><time>2026-04-11T15:28:37.001Z</time></trkpt><trkpt lat="38.61873242051209" lon="16.33396176643129"><ele>794.0</ele><time>2026-04-11T15:28:38.001Z</time></trkpt><trkpt lat="38.61879832931207" lon="16.33395483428671"><ele>793.0</ele><time>2026-04-11T15:28:39.001Z</time></trkpt><trkpt lat="38.61886737116001" lon="16.333962201830882"><ele>792.0</ele><time>2026-04-11T15:28:40.001Z</time></trkpt><trkpt lat="38.618978844172695" lon="16.333977051904654"><ele>791.0</ele><time>2026-04-11T15:28:41.001Z</time></trkpt><trkpt lat="38.619149741791716" lon="16.33399269748498"><ele>791.0</ele><time>2026-04-11T15:28:42.001Z</time></trkpt><trkpt lat="38.61927760652194" lon="16.334002737446596"><ele>791.0</ele><time>2026-04-11T15:28:43.001Z</time></trkpt><trkpt lat="38.61933986009873" lon="16.33401624389463"><ele>791.0</ele><time>2026-04-11T15:28:44.001Z</time></trkpt><trkpt lat="38.61945470600356" lon="16.334023938868814"><ele>791.0</ele><time>2026-04-11T15:28:46.001Z</time></trkpt><trkpt lat="38.61956786426211" lon="16.334028794366706"><ele>791.0</ele><time>2026-04-11T15:28:48.001Z</time></trkpt><trkpt lat="38.61964387196542" lon="16.33403019529308"><ele>792.8333333333334</ele><time>2026-04-11T15:28:49.001Z</time></trkpt><trkpt lat="38.61973573447741" lon="16.33403325770166"><ele>794.6666666666667</ele><time>2026-04-11T15:28:50.001Z</time></trkpt><trkpt lat="38.619813295511165" lon="16.33406064269041"><ele>796.5</ele><time>2026-04-11T15:28:51.001Z</time></trkpt><trkpt lat="38.619877623445134" lon="16.334121033671693"><ele>798.3333333333333</ele><time>2026-04-11T15:28:52.001Z</time></trkpt><trkpt lat="38.619931910242975" lon="16.334201298467875"><ele>800.1666666666666</ele><time>2026-04-11T15:28:53.001Z</time></trkpt><trkpt lat="38.61998445995115" lon="16.334312611492635"><ele>802.0</ele><time>2026-04-11T15:28:54.001Z</time></trkpt><trkpt lat="38.62003515732951" lon="16.33444905984427"><ele>802.0</ele><time>2026-04-11T15:28:55.001Z</time></trkpt><trkpt lat="38.62007501800477" lon="16.334577563342744"><ele>802.0</ele><time>2026-04-11T15:28:56.001Z</time></trkpt><trkpt lat="38.62010899467108" lon="16.33469025283638"><ele>802.0</ele><time>2026-04-11T15:28:57.001Z</time></trkpt><trkpt lat="38.62015057973818" lon="16.334808470244383"><ele>802.0</ele><time>2026-04-11T15:28:58.001Z</time></trkpt><trkpt lat="38.620204351229724" lon="16.334918969742095"><ele>802.0</ele><time>2026-04-11T15:28:59.001Z</time></trkpt><trkpt lat="38.62026341384202" lon="16.33501370475764"><ele>803.0</ele><time>2026-04-11T15:29:00.001Z</time></trkpt><trkpt lat="38.62034890227011" lon="16.33509824002264"><ele>804.0</ele><time>2026-04-11T15:29:01.001Z</time></trkpt><trkpt lat="38.62045011559081" lon="16.335167126618934"><ele>805.0</ele><time>2026-04-11T15:29:02.001Z</time></trkpt><trkpt lat="38.62054902820407" lon="16.3352231693679"><ele>806.0</ele><time>2026-04-11T15:29:03.001Z</time></trkpt><trkpt lat="38.620640887690314" lon="16.335270872113135"><ele>807.0</ele><time>2026-04-11T15:29:04.001Z</time></trkpt><trkpt lat="38.62074015983196" lon="16.335323073166897"><ele>807.0</ele><time>2026-04-11T15:29:05.001Z</time></trkpt><trkpt lat="38.620852702465506" lon="16.33538710232852"><ele>807.0</ele><time>2026-04-11T15:29:06.001Z</time></trkpt><trkpt lat="38.62095445111161" lon="16.335445544112293"><ele>807.0</ele><time>2026-04-11T15:29:07.001Z</time></trkpt><trkpt lat="38.62105530617043" lon="16.335502218028928"><ele>807.0</ele><time>2026-04-11T15:29:08.001Z</time></trkpt><trkpt lat="38.62115591283335" lon="16.33553286854412"><ele>807.0</ele><time>2026-04-11T15:29:09.001Z</time></trkpt><trkpt lat="38.62126306546621" lon="16.335529437709774"><ele>806.25</ele><time>2026-04-11T15:29:10.001Z</time></trkpt><trkpt lat="38.62136066911766" lon="16.33547707186388"><ele>805.5</ele><time>2026-04-11T15:29:11.001Z</time></trkpt><trkpt lat="38.62144966704929" lon="16.335385789137888"><ele>804.75</ele><time>2026-04-11T15:29:12.001Z</time></trkpt><trkpt lat="38.62151603638236" lon="16.335264422407914"><ele>804.0</ele><time>2026-04-11T15:29:13.001Z</time></trkpt><trkpt lat="38.621565314029425" lon="16.335126548044553"><ele>804.0</ele><time>2026-04-11T15:29:14.001Z</time></trkpt><trkpt lat="38.62161711579882" lon="16.334997399826246"><ele>804.0</ele><time>2026-04-11T15:29:15.001Z</time></trkpt><trkpt lat="38.62165171692019" lon="16.334854650489184"><ele>804.0</ele><time>2026-04-11T15:29:16.001Z</time></trkpt><trkpt lat="38.621643781208206" lon="16.334704170326166"><ele>804.0</ele><time>2026-04-11T15:29:17.001Z</time></trkpt><trkpt lat="38.6215890061645" lon="16.334556755923174"><ele>804.0</ele><time>2026-04-11T15:29:18.001Z</time></trkpt><trkpt lat="38.621513657408855" lon="16.3344329730483"><ele>804.0</ele><time>2026-04-11T15:29:19.001Z</time></trkpt><trkpt lat="38.62142683417768" lon="16.334310558181794"><ele>804.0</ele><time>2026-04-11T15:29:20Z</time></trkpt><trkpt lat="38.621344446212035" lon="16.33418401321559"><ele>804.0</ele><time>2026-04-11T15:29:21Z</time></trkpt><trkpt lat="38.62125730375027" lon="16.334050718793325"><ele>804.0</ele><time>2026-04-11T15:29:22Z</time></trkpt><trkpt lat="38.6211783795028" lon="16.33391454277815"><ele>804.0</ele><time>2026-04-11T15:29:23Z</time></trkpt><trkpt lat="38.62111382988856" lon="16.33378106809801"><ele>804.0</ele><time>2026-04-11T15:29:24Z</time></trkpt><trkpt lat="38.621070207916574" lon="16.33363169939134"><ele>804.0</ele><time>2026-04-11T15:29:25Z</time></trkpt><trkpt lat="38.621051894580155" lon="16.33346462326695"><ele>806.25</ele><time>2026-04-11T15:29:26Z</time></trkpt><trkpt lat="38.62104509921222" lon="16.333288775686782"><ele>808.5</ele><time>2026-04-11T15:29:27Z</time></trkpt><trkpt lat="38.6210428905052" lon="16.333119157029653"><ele>810.75</ele><time>2026-04-11T15:29:28Z</time></trkpt><trkpt lat="38.62104771332669" lon="16.332955222873238"><ele>813.0</ele><time>2026-04-11T15:29:29Z</time></trkpt><trkpt lat="38.62107356672354" lon="16.332793549902817"><ele>814.5</ele><time>2026-04-11T15:29:30Z</time></trkpt><trkpt lat="38.62112566319931" lon="16.33264160253101"><ele>816.0</ele><time>2026-04-11T15:29:31Z</time></trkpt><trkpt lat="38.62120176260929" lon="16.33250811367409"><ele>817.5</ele><time>2026-04-11T15:29:32Z</time></trkpt><trkpt lat="38.621299055632505" lon="16.33241312753114"><ele>819.0</ele><time>2026-04-11T15:29:33Z</time></trkpt><trkpt lat="38.621419542289196" lon="16.332357007567676"><ele>815.25</ele><time>2026-04-11T15:29:34Z</time></trkpt><trkpt lat="38.62154805163103" lon="16.332339301453317"><ele>811.5</ele><time>2026-04-11T15:29:35Z</time></trkpt><trkpt lat="38.62167977295394" lon="16.33230769566108"><ele>807.75</ele><time>2026-04-11T15:29:36Z</time></trkpt><trkpt lat="38.62181176706432" lon="16.332250926154487"><ele>804.0</ele><time>2026-04-11T15:29:37Z</time></trkpt><trkpt lat="38.62193964322586" lon="16.332163490375773"><ele>801.0</ele><time>2026-04-11T15:29:38Z</time></trkpt><trkpt lat="38.62207776688375" lon="16.332073671393832"><ele>798.0</ele><time>2026-04-11T15:29:39Z</time></trkpt><trkpt lat="38.622221180864216" lon="16.33198238541651"><ele>795.0</ele><time>2026-04-11T15:29:40Z</time></trkpt><trkpt lat="38.62236959383362" lon="16.331889209900208"><ele>795.0</ele><time>2026-04-11T15:29:41Z</time></trkpt><trkpt lat="38.62251767140734" lon="16.331790393724177"><ele>795.0</ele><time>2026-04-11T15:29:42Z</time></trkpt><trkpt lat="38.62266710473944" lon="16.33168515328653"><ele>795.0</ele><time>2026-04-11T15:29:43Z</time></trkpt><trkpt lat="38.62281647271847" lon="16.33158468086525"><ele>793.6666666666667</ele><time>2026-04-11T15:29:44Z</time></trkpt><trkpt lat="38.622964444275475" lon="16.331493443417955"><ele>792.3333333333334</ele><time>2026-04-11T15:29:45Z</time></trkpt><trkpt lat="38.62309297105385" lon="16.33140411936485"><ele>791.0</ele><time>2026-04-11T15:29:46Z</time></trkpt><trkpt lat="38.62321753215219" lon="16.33131187592766"><ele>790.75</ele><time>2026-04-11T15:29:47Z</time></trkpt><trkpt lat="38.62334298395689" lon="16.33122543601425"><ele>790.5</ele><time>2026-04-11T15:29:48Z</time></trkpt><trkpt lat="38.62345776196812" lon="16.331151407322086"><ele>790.25</ele><time>2026-04-11T15:29:49Z</time></trkpt><trkpt lat="38.62357173813485" lon="16.331093691157108"><ele>790.0</ele><time>2026-04-11T15:29:50Z</time></trkpt><trkpt lat="38.62369929360271" lon="16.331039949102056"><ele>791.5</ele><time>2026-04-11T15:29:51Z</time></trkpt><trkpt lat="38.623830553713745" lon="16.330988119334293"><ele>793.0</ele><time>2026-04-11T15:29:52Z</time></trkpt><trkpt lat="38.6239592573498" lon="16.330945971778807"><ele>794.5</ele><time>2026-04-11T15:29:53Z</time></trkpt><trkpt lat="38.624074678862456" lon="16.33091120620309"><ele>796.0</ele><time>2026-04-11T15:29:54Z</time></trkpt><trkpt lat="38.62419416614452" lon="16.3308775037354"><ele>796.0</ele><time>2026-04-11T15:29:55Z</time></trkpt><trkpt lat="38.62431419063276" lon="16.330840175973933"><ele>796.0</ele><time>2026-04-11T15:29:56Z</time></trkpt><trkpt lat="38.62443572079473" lon="16.330798997177023"><ele>796.0</ele><time>2026-04-11T15:29:57Z</time></trkpt><trkpt lat="38.62455964769108" lon="16.33075664694754"><ele>796.0</ele><time>2026-04-11T15:29:58Z</time></trkpt><trkpt lat="38.624688752234576" lon="16.3307220725819"><ele>797.0</ele><time>2026-04-11T15:29:59Z</time></trkpt><trkpt lat="38.62481805990893" lon="16.330690276913096"><ele>798.0</ele><time>2026-04-11T15:30:00Z</time></trkpt><trkpt lat="38.6249385716213" lon="16.330671162175403"><ele>799.0</ele><time>2026-04-11T15:30:01Z</time></trkpt><trkpt lat="38.625054391241136" lon="16.330658984888675"><ele>800.0</ele><time>2026-04-11T15:30:02Z</time></trkpt><trkpt lat="38.62517185646202" lon="16.330654720920116"><ele>800.0</ele><time>2026-04-11T15:30:03Z</time></trkpt><trkpt lat="38.62530157841948" lon="16.330656964198607"><ele>800.0</ele><time>2026-04-11T15:30:04Z</time></trkpt><trkpt lat="38.625424671842914" lon="16.33065783646392"><ele>800.0</ele><time>2026-04-11T15:30:05Z</time></trkpt><trkpt lat="38.62553645573451" lon="16.330626985578043"><ele>800.0</ele><time>2026-04-11T15:30:06Z</time></trkpt><trkpt lat="38.62563198485938" lon="16.33057011732414"><ele>799.0</ele><time>2026-04-11T15:30:07Z</time></trkpt><trkpt lat="38.62570644148882" lon="16.330508730724944"><ele>798.0</ele><time>2026-04-11T15:30:08Z</time></trkpt><trkpt lat="38.62579122581097" lon="16.330440561958795"><ele>797.0</ele><time>2026-04-11T15:30:09Z</time></trkpt><trkpt lat="38.62584955967363" lon="16.330326948912457"><ele>796.0</ele><time>2026-04-11T15:30:10Z</time></trkpt><trkpt lat="38.62591972669032" lon="16.330219439087863"><ele>795.0</ele><time>2026-04-11T15:30:11Z</time></trkpt><trkpt lat="38.625991196171164" lon="16.33010187243593"><ele>795.0</ele><time>2026-04-11T15:30:12Z</time></trkpt><trkpt lat="38.62607082051483" lon="16.32997501523149"><ele>795.0</ele><time>2026-04-11T15:30:13Z</time></trkpt><trkpt lat="38.62615480446889" lon="16.329851210399337"><ele>795.0</ele><time>2026-04-11T15:30:14Z</time></trkpt><trkpt lat="38.626244883821066" lon="16.32973164628375"><ele>795.0</ele><time>2026-04-11T15:30:15Z</time></trkpt><trkpt lat="38.62634073147354" lon="16.329616893929142"><ele>795.5</ele><time>2026-04-11T15:30:16Z</time></trkpt><trkpt lat="38.62643340035504" lon="16.329500152027276"><ele>796.0</ele><time>2026-04-11T15:30:17Z</time></trkpt><trkpt lat="38.626527668403845" lon="16.329383348690072"><ele>796.5</ele><time>2026-04-11T15:30:18Z</time></trkpt><trkpt lat="38.62662139557224" lon="16.329263214264213"><ele>797.0</ele><time>2026-04-11T15:30:19Z</time></trkpt><trkpt lat="38.626714716581624" lon="16.329142805498588"><ele>797.0</ele><time>2026-04-11T15:30:20Z</time></trkpt><trkpt lat="38.62681157070163" lon="16.329023078754"><ele>797.0</ele><time>2026-04-11T15:30:21Z</time></trkpt><trkpt lat="38.62691081212101" lon="16.328908398659877"><ele>797.0</ele><time>2026-04-11T15:30:22Z</time></trkpt><trkpt lat="38.62700680885719" lon="16.32880623484461"><ele>797.0</ele><time>2026-04-11T15:30:23Z</time></trkpt><trkpt lat="38.62710644753751" lon="16.328721812128894"><ele>797.0</ele><time>2026-04-11T15:30:24Z</time></trkpt><trkpt lat="38.627209907069286" lon="16.328649659208168"><ele>797.0</ele><time>2026-04-11T15:30:25Z</time></trkpt><trkpt lat="38.627303574190286" lon="16.328552489424855"><ele>797.0</ele><time>2026-04-11T15:30:26Z</time></trkpt><trkpt lat="38.62738217597039" lon="16.328427734096696"><ele>797.0</ele><time>2026-04-11T15:30:27Z</time></trkpt><trkpt lat="38.62743826272148" lon="16.328271370735234"><ele>797.0</ele><time>2026-04-11T15:30:28.001Z</time></trkpt><trkpt lat="38.62748293684882" lon="16.328097510475068"><ele>797.0</ele><time>2026-04-11T15:30:29.001Z</time></trkpt><trkpt lat="38.627525296731804" lon="16.327944380236012"><ele>797.0</ele><time>2026-04-11T15:30:30.001Z</time></trkpt><trkpt lat="38.62756571825684" lon="16.32780506868885"><ele>797.0</ele><time>2026-04-11T15:30:31.001Z</time></trkpt><trkpt lat="38.627639465518826" lon="16.327674787261408"><ele>798.0</ele><time>2026-04-11T15:30:32.001Z</time></trkpt><trkpt lat="38.627730272373626" lon="16.327575803437956"><ele>799.0</ele><time>2026-04-11T15:30:33.001Z</time></trkpt><trkpt lat="38.627839075922786" lon="16.32749858186719"><ele>800.0</ele><time>2026-04-11T15:30:34.001Z</time></trkpt><trkpt lat="38.62795690919965" lon="16.327433562301263"><ele>801.0</ele><time>2026-04-11T15:30:35.001Z</time></trkpt><trkpt lat="38.62810465686585" lon="16.327384112173736"><ele>801.0</ele><time>2026-04-11T15:30:36.001Z</time></trkpt><trkpt lat="38.62823479478023" lon="16.327298526020595"><ele>801.0</ele><time>2026-04-11T15:30:37.001Z</time></trkpt><trkpt lat="38.628347498013405" lon="16.32721506687834"><ele>801.0</ele><time>2026-04-11T15:30:38.001Z</time></trkpt><trkpt lat="38.6284305808745" lon="16.327125362415988"><ele>801.0</ele><time>2026-04-11T15:30:39.001Z</time></trkpt><trkpt lat="38.62846012590489" lon="16.326993479010145"><ele>799.75</ele><time>2026-04-11T15:30:40.001Z</time></trkpt><trkpt lat="38.62847857072666" lon="16.32686430523673"><ele>798.5</ele><time>2026-04-11T15:30:41.001Z</time></trkpt><trkpt lat="38.628434695747266" lon="16.326628771783795"><ele>797.25</ele><time>2026-04-11T15:30:42.001Z</time></trkpt><trkpt lat="38.62840118441694" lon="16.32644860748399"><ele>796.0</ele><time>2026-04-11T15:30:43.001Z</time></trkpt><trkpt lat="38.62839299640065" lon="16.326282529838128"><ele>792.75</ele><time>2026-04-11T15:30:44.001Z</time></trkpt><trkpt lat="38.62839475837861" lon="16.32613593566425"><ele>789.5</ele><time>2026-04-11T15:30:45.001Z</time></trkpt><trkpt lat="38.628403807497115" lon="16.325988460354722"><ele>786.25</ele><time>2026-04-11T15:30:46.001Z</time></trkpt><trkpt lat="38.62843442055249" lon="16.32584895808974"><ele>783.0</ele><time>2026-04-11T15:30:47.001Z</time></trkpt><trkpt lat="38.62849139671396" lon="16.325719070122176"><ele>783.0</ele><time>2026-04-11T15:30:48.001Z</time></trkpt><trkpt lat="38.62856361409015" lon="16.325600271867867"><ele>783.0</ele><time>2026-04-11T15:30:49.001Z</time></trkpt><trkpt lat="38.62864980950324" lon="16.32548516471898"><ele>783.0</ele><time>2026-04-11T15:30:50.001Z</time></trkpt><trkpt lat="38.628741877966604" lon="16.3253827437107"><ele>783.0</ele><time>2026-04-11T15:30:51.001Z</time></trkpt><trkpt lat="38.62883395367716" lon="16.325288592456918"><ele>782.4</ele><time>2026-04-11T15:30:52.001Z</time></trkpt><trkpt lat="38.628918468054444" lon="16.32519592319943"><ele>781.8</ele><time>2026-04-11T15:30:53.001Z</time></trkpt><trkpt lat="38.628993572208934" lon="16.325120298024054"><ele>781.2</ele><time>2026-04-11T15:30:54.001Z</time></trkpt><trkpt lat="38.62908491419204" lon="16.325103867079005"><ele>780.6</ele><time>2026-04-11T15:30:55.001Z</time></trkpt><trkpt lat="38.62917699013088" lon="16.325157311771306"><ele>780.0</ele><time>2026-04-11T15:30:56.001Z</time></trkpt><trkpt lat="38.62925663368608" lon="16.325250980572083"><ele>780.0</ele><time>2026-04-11T15:30:57.001Z</time></trkpt><trkpt lat="38.62932210584879" lon="16.32535891151551"><ele>780.0</ele><time>2026-04-11T15:30:58.001Z</time></trkpt><trkpt lat="38.629382627008404" lon="16.32546926464883"><ele>780.0</ele><time>2026-04-11T15:30:59.001Z</time></trkpt><trkpt lat="38.62949930844114" lon="16.325510083073002"><ele>780.0</ele><time>2026-04-11T15:31:00.001Z</time></trkpt><trkpt lat="38.629601817208496" lon="16.325548765507367"><ele>780.0</ele><time>2026-04-11T15:31:01.001Z</time></trkpt><trkpt lat="38.629711090718814" lon="16.32552785708632"><ele>776.5</ele><time>2026-04-11T15:31:02.001Z</time></trkpt><trkpt lat="38.62981234262663" lon="16.325454431427158"><ele>773.0</ele><time>2026-04-11T15:31:03.001Z</time></trkpt><trkpt lat="38.62989506958172" lon="16.32534629618065"><ele>769.5</ele><time>2026-04-11T15:31:04.001Z</time></trkpt><trkpt lat="38.6299741495089" lon="16.325243671116528"><ele>766.0</ele><time>2026-04-11T15:31:05.001Z</time></trkpt><trkpt lat="38.630069075310615" lon="16.325191156333968"><ele>766.0</ele><time>2026-04-11T15:31:06.001Z</time></trkpt><trkpt lat="38.63017953745687" lon="16.32521326717201"><ele>766.0</ele><time>2026-04-11T15:31:07.001Z</time></trkpt><trkpt lat="38.630271139901794" lon="16.325296846251337"><ele>766.0</ele><time>2026-04-11T15:31:08.001Z</time></trkpt><trkpt lat="38.63034031065676" lon="16.325420267208727"><ele>766.0</ele><time>2026-04-11T15:31:09.001Z</time></trkpt><trkpt lat="38.630403857582216" lon="16.32554022844976"><ele>768.5</ele><time>2026-04-11T15:31:10.001Z</time></trkpt><trkpt lat="38.63049295410592" lon="16.325620759653372"><ele>771.0</ele><time>2026-04-11T15:31:11.001Z</time></trkpt><trkpt lat="38.63060069382034" lon="16.32567830594354"><ele>773.5</ele><time>2026-04-11T15:31:12.001Z</time></trkpt><trkpt lat="38.63071741571443" lon="16.325690878179092"><ele>776.0</ele><time>2026-04-11T15:31:13.001Z</time></trkpt><trkpt lat="38.630818576339884" lon="16.325623963470587"><ele>772.8</ele><time>2026-04-11T15:31:14.001Z</time></trkpt><trkpt lat="38.630906573773565" lon="16.32552559475818"><ele>769.5999999999999</ele><time>2026-04-11T15:31:15.001Z</time></trkpt><trkpt lat="38.63095472250259" lon="16.325387147476118"><ele>766.4</ele><time>2026-04-11T15:31:16.001Z</time></trkpt><trkpt lat="38.63100166226775" lon="16.32525649557368"><ele>763.2</ele><time>2026-04-11T15:31:17.001Z</time></trkpt><trkpt lat="38.63104490119252" lon="16.32513839716681"><ele>760.0</ele><time>2026-04-11T15:31:18.001Z</time></trkpt><trkpt lat="38.63113363301801" lon="16.3250611973854"><ele>758.25</ele><time>2026-04-11T15:31:19.001Z</time></trkpt><trkpt lat="38.63124411971674" lon="16.325042312074892"><ele>756.5</ele><time>2026-04-11T15:31:20.001Z</time></trkpt><trkpt lat="38.63135768104201" lon="16.325071540702123"><ele>754.75</ele><time>2026-04-11T15:31:21.001Z</time></trkpt><trkpt lat="38.63146255918566" lon="16.32515467152474"><ele>753.0</ele><time>2026-04-11T15:31:22.001Z</time></trkpt><trkpt lat="38.63155784322493" lon="16.32526493868622"><ele>753.0</ele><time>2026-04-11T15:31:23.001Z</time></trkpt><trkpt lat="38.631644734609424" lon="16.325400755638096"><ele>753.0</ele><time>2026-04-11T15:31:24.001Z</time></trkpt><trkpt lat="38.63172896709295" lon="16.325543517488896"><ele>753.0</ele><time>2026-04-11T15:31:25.001Z</time></trkpt><trkpt lat="38.63183611712098" lon="16.32567990201259"><ele>753.0</ele><time>2026-04-11T15:31:25.999Z</time></trkpt><trkpt lat="38.63194720004591" lon="16.325794551835163"><ele>751.6666666666666</ele><time>2026-04-11T15:31:26.999Z</time></trkpt><trkpt lat="38.632064537273635" lon="16.325909691212157"><ele>750.3333333333333</ele><time>2026-04-11T15:31:27.999Z</time></trkpt><trkpt lat="38.63218638777614" lon="16.326022723801657"><ele>749.0</ele><time>2026-04-11T15:31:28.999Z</time></trkpt><trkpt lat="38.63232020730823" lon="16.326121276859674"><ele>749.0</ele><time>2026-04-11T15:31:29.999Z</time></trkpt><trkpt lat="38.63245649447692" lon="16.326175104395972"><ele>749.0</ele><time>2026-04-11T15:31:30.999Z</time></trkpt><trkpt lat="38.63258554769593" lon="16.326231795256938"><ele>749.0</ele><time>2026-04-11T15:31:31.999Z</time></trkpt><trkpt lat="38.632682482040074" lon="16.3263324330231"><ele>749.0</ele><time>2026-04-11T15:31:32.999Z</time></trkpt><trkpt lat="38.63275457252224" lon="16.326482153603934"><ele>748.4000000000001</ele><time>2026-04-11T15:31:33.999Z</time></trkpt><trkpt lat="38.63280243005895" lon="16.326636101986946"><ele>747.8</ele><time>2026-04-11T15:31:34.999Z</time></trkpt><trkpt lat="38.63285115175246" lon="16.326755656518372"><ele>747.2</ele><time>2026-04-11T15:31:35.999Z</time></trkpt><trkpt lat="38.632928010516345" lon="16.326838428710428"><ele>746.5999999999999</ele><time>2026-04-11T15:31:36.999Z</time></trkpt><trkpt lat="38.63301510157809" lon="16.32691328647493"><ele>746.0</ele><time>2026-04-11T15:31:37.999Z</time></trkpt><trkpt lat="38.63310708779635" lon="16.326963234249767"><ele>745.0</ele><time>2026-04-11T15:31:38.999Z</time></trkpt><trkpt lat="38.63320586590252" lon="16.32697968962363"><ele>744.0</ele><time>2026-04-11T15:31:40Z</time></trkpt><trkpt lat="38.63330248972136" lon="16.32695209477481"><ele>743.0</ele><time>2026-04-11T15:31:41Z</time></trkpt><trkpt lat="38.63339609910058" lon="16.326892909418415"><ele>742.0</ele><time>2026-04-11T15:31:42Z</time></trkpt><trkpt lat="38.63349415828358" lon="16.326827275913672"><ele>741.0</ele><time>2026-04-11T15:31:43Z</time></trkpt><trkpt lat="38.63360330501838" lon="16.32675491375654"><ele>740.0</ele><time>2026-04-11T15:31:44Z</time></trkpt><trkpt lat="38.633727135810254" lon="16.326695659338604"><ele>739.0</ele><time>2026-04-11T15:31:45Z</time></trkpt><trkpt lat="38.633874687567" lon="16.326658466807604"><ele>738.0</ele><time>2026-04-11T15:31:46Z</time></trkpt><trkpt lat="38.633999428948" lon="16.326647673912888"><ele>737.0</ele><time>2026-04-11T15:31:47Z</time></trkpt><trkpt lat="38.63411043496136" lon="16.32664711215018"><ele>737.0</ele><time>2026-04-11T15:31:48Z</time></trkpt><trkpt lat="38.63420266218341" lon="16.326632420185884"><ele>737.0</ele><time>2026-04-11T15:31:49Z</time></trkpt><trkpt lat="38.63428629606914" lon="16.32656432408544"><ele>737.0</ele><time>2026-04-11T15:31:50Z</time></trkpt><trkpt lat="38.63431851524604" lon="16.326472656258964"><ele>737.0</ele><time>2026-04-11T15:31:51Z</time></trkpt><trkpt lat="38.634302932566044" lon="16.326366743643558"><ele>737.0</ele><time>2026-04-11T15:31:52Z</time></trkpt><trkpt lat="38.63434542326661" lon="16.32623032922738"><ele>737.5</ele><time>2026-04-11T15:31:54Z</time></trkpt><trkpt lat="38.63440824064061" lon="16.326177319511835"><ele>738.0</ele><time>2026-04-11T15:31:55Z</time></trkpt><trkpt lat="38.634483701613426" lon="16.326138190843757"><ele>738.5</ele><time>2026-04-11T15:31:56Z</time></trkpt><trkpt lat="38.63459740060024" lon="16.326132708513594"><ele>739.0</ele><time>2026-04-11T15:31:58Z</time></trkpt><trkpt lat="38.63466600141118" lon="16.326138434536563"><ele>739.5</ele><time>2026-04-11T15:31:59Z</time></trkpt><trkpt lat="38.63473061611506" lon="16.32615424768422"><ele>740.0</ele><time>2026-04-11T15:32:00Z</time></trkpt><trkpt lat="38.634794399845774" lon="16.326171831634973"><ele>741.2</ele><time>2026-04-11T15:32:01Z</time></trkpt><trkpt lat="38.63486834847614" lon="16.32619247419226"><ele>742.4</ele><time>2026-04-11T15:32:02Z</time></trkpt><trkpt lat="38.6349558315562" lon="16.326221319427937"><ele>743.5999999999999</ele><time>2026-04-11T15:32:03Z</time></trkpt><trkpt lat="38.63505790468978" lon="16.326260201074014"><ele>744.8</ele><time>2026-04-11T15:32:04Z</time></trkpt><trkpt lat="38.635163229479936" lon="16.326298380822493"><ele>746.0</ele><time>2026-04-11T15:32:05Z</time></trkpt><trkpt lat="38.635279728770065" lon="16.326337982114634"><ele>746.5</ele><time>2026-04-11T15:32:06Z</time></trkpt><trkpt lat="38.63539652436345" lon="16.326374267105415"><ele>747.0</ele><time>2026-04-11T15:32:07Z</time></trkpt><trkpt lat="38.63552002856765" lon="16.326419045170038"><ele>747.5</ele><time>2026-04-11T15:32:08Z</time></trkpt><trkpt lat="38.63566461902051" lon="16.326471432659247"><ele>748.0</ele><time>2026-04-11T15:32:09Z</time></trkpt><trkpt lat="38.63579137498157" lon="16.326515520121788"><ele>746.75</ele><time>2026-04-11T15:32:10Z</time></trkpt><trkpt lat="38.635912463146944" lon="16.326558376003128"><ele>745.5</ele><time>2026-04-11T15:32:11Z</time></trkpt><trkpt lat="38.63603149827398" lon="16.326602855315787"><ele>744.25</ele><time>2026-04-11T15:32:12Z</time></trkpt><trkpt lat="38.63613959061682" lon="16.3266748298884"><ele>743.0</ele><time>2026-04-11T15:32:13Z</time></trkpt><trkpt lat="38.63623922327829" lon="16.326783348951903"><ele>743.5</ele><time>2026-04-11T15:32:14Z</time></trkpt><trkpt lat="38.636312649839816" lon="16.32692126583342"><ele>744.0</ele><time>2026-04-11T15:32:15Z</time></trkpt><trkpt lat="38.63635915668328" lon="16.327081119393824"><ele>744.5</ele><time>2026-04-11T15:32:16Z</time></trkpt><trkpt lat="38.63638427254655" lon="16.327257565156387"><ele>745.0</ele><time>2026-04-11T15:32:17Z</time></trkpt><trkpt lat="38.6363820478184" lon="16.327439750238177"><ele>745.0</ele><time>2026-04-11T15:32:18Z</time></trkpt><trkpt lat="38.6363769647478" lon="16.327620637896416"><ele>745.0</ele><time>2026-04-11T15:32:19Z</time></trkpt><trkpt lat="38.63638441807109" lon="16.32779589141741"><ele>745.0</ele><time>2026-04-11T15:32:20Z</time></trkpt><trkpt lat="38.63638245778" lon="16.327976560563524"><ele>745.0</ele><time>2026-04-11T15:32:21Z</time></trkpt><trkpt lat="38.63639337093196" lon="16.32816572164854"><ele>743.25</ele><time>2026-04-11T15:32:22Z</time></trkpt><trkpt lat="38.6364022608866" lon="16.328346314748877"><ele>741.5</ele><time>2026-04-11T15:32:23Z</time></trkpt><trkpt lat="38.63642255374273" lon="16.328529471374548"><ele>739.75</ele><time>2026-04-11T15:32:24Z</time></trkpt><trkpt lat="38.63650004417133" lon="16.328690909601377"><ele>738.0</ele><time>2026-04-11T15:32:25Z</time></trkpt><trkpt lat="38.63660294006784" lon="16.328829935101812"><ele>737.25</ele><time>2026-04-11T15:32:26Z</time></trkpt><trkpt lat="38.63669238211634" lon="16.32897868760385"><ele>736.5</ele><time>2026-04-11T15:32:27Z</time></trkpt><trkpt lat="38.63678486656519" lon="16.32912728688854"><ele>735.75</ele><time>2026-04-11T15:32:28Z</time></trkpt><trkpt lat="38.636865852606554" lon="16.329266703469262"><ele>735.0</ele><time>2026-04-11T15:32:29Z</time></trkpt><trkpt lat="38.63694424274204" lon="16.329403933492138"><ele>738.5</ele><time>2026-04-11T15:32:30Z</time></trkpt><trkpt lat="38.63702044589655" lon="16.329532217373703"><ele>742.0</ele><time>2026-04-11T15:32:31Z</time></trkpt><trkpt lat="38.63708346005599" lon="16.329691190605004"><ele>745.5</ele><time>2026-04-11T15:32:32Z</time></trkpt><trkpt lat="38.63710968311618" lon="16.32985388799102"><ele>749.0</ele><time>2026-04-11T15:32:33Z</time></trkpt><trkpt lat="38.6371167627884" lon="16.330016826341488"><ele>749.0</ele><time>2026-04-11T15:32:34Z</time></trkpt><trkpt lat="38.63711820010296" lon="16.330173995048742"><ele>749.0</ele><time>2026-04-11T15:32:35Z</time></trkpt><trkpt lat="38.63713721494195" lon="16.330325583395474"><ele>749.0</ele><time>2026-04-11T15:32:36Z</time></trkpt><trkpt lat="38.63718022511458" lon="16.33046630772022"><ele>749.0</ele><time>2026-04-11T15:32:37Z</time></trkpt><trkpt lat="38.63725514002661" lon="16.330585761965388"><ele>745.25</ele><time>2026-04-11T15:32:38Z</time></trkpt><trkpt lat="38.637327856305824" lon="16.330702633379246"><ele>741.5</ele><time>2026-04-11T15:32:39Z</time></trkpt><trkpt lat="38.637416773097804" lon="16.330799552679178"><ele>737.75</ele><time>2026-04-11T15:32:40Z</time></trkpt><trkpt lat="38.637514613701" lon="16.33088149494223"><ele>734.0</ele><time>2026-04-11T15:32:41Z</time></trkpt><trkpt lat="38.63760117159343" lon="16.33097337428543"><ele>734.0</ele><time>2026-04-11T15:32:42Z</time></trkpt><trkpt lat="38.63766971216071" lon="16.33108836619398"><ele>734.0</ele><time>2026-04-11T15:32:43Z</time></trkpt><trkpt lat="38.63771965829465" lon="16.331218452105816"><ele>734.0</ele><time>2026-04-11T15:32:44Z</time></trkpt><trkpt lat="38.63775786491927" lon="16.33134365418786"><ele>734.0</ele><time>2026-04-11T15:32:45Z</time></trkpt><trkpt lat="38.63779161707622" lon="16.33147230152966"><ele>734.0</ele><time>2026-04-11T15:32:46Z</time></trkpt><trkpt lat="38.63782724843491" lon="16.3315962734106"><ele>735.0</ele><time>2026-04-11T15:32:47Z</time></trkpt><trkpt lat="38.637855915295" lon="16.331729623180024"><ele>736.0</ele><time>2026-04-11T15:32:48Z</time></trkpt><trkpt lat="38.63784891715067" lon="16.33187530210398"><ele>737.0</ele><time>2026-04-11T15:32:49Z</time></trkpt><trkpt lat="38.63783496381458" lon="16.33200885362091"><ele>738.0</ele><time>2026-04-11T15:32:50Z</time></trkpt><trkpt lat="38.63783749836436" lon="16.332138758260974"><ele>739.0</ele><time>2026-04-11T15:32:51Z</time></trkpt><trkpt lat="38.63784384985238" lon="16.332270428260582"><ele>739.0</ele><time>2026-04-11T15:32:52Z</time></trkpt><trkpt lat="38.637846887100366" lon="16.332400213308528"><ele>739.0</ele><time>2026-04-11T15:32:53Z</time></trkpt><trkpt lat="38.63787351581911" lon="16.332533826354915"><ele>739.0</ele><time>2026-04-11T15:32:54Z</time></trkpt><trkpt lat="38.63793794618593" lon="16.332644513916097"><ele>739.0</ele><time>2026-04-11T15:32:55Z</time></trkpt><trkpt lat="38.63799882379403" lon="16.33275159502509"><ele>739.0</ele><time>2026-04-11T15:32:56Z</time></trkpt><trkpt lat="38.63806625123254" lon="16.332850060097048"><ele>739.0</ele><time>2026-04-11T15:32:57Z</time></trkpt><trkpt lat="38.63814234794134" lon="16.33294087653817"><ele>739.0</ele><time>2026-04-11T15:32:58Z</time></trkpt><trkpt lat="38.638222417212496" lon="16.33302937326343"><ele>739.0</ele><time>2026-04-11T15:32:59Z</time></trkpt><trkpt lat="38.63830422457545" lon="16.333116421104457"><ele>739.0</ele><time>2026-04-11T15:33:00Z</time></trkpt><trkpt lat="38.63838345453434" lon="16.333215258164145"><ele>739.0</ele><time>2026-04-11T15:33:01Z</time></trkpt><trkpt lat="38.63845870891555" lon="16.333320020418785"><ele>736.4000000000001</ele><time>2026-04-11T15:33:02Z</time></trkpt><trkpt lat="38.63853085024026" lon="16.333422158248297"><ele>733.8</ele><time>2026-04-11T15:33:03Z</time></trkpt><trkpt lat="38.63858720482077" lon="16.333531763729347"><ele>731.2</ele><time>2026-04-11T15:33:04Z</time></trkpt><trkpt lat="38.63860868590738" lon="16.333661311123123"><ele>728.5999999999999</ele><time>2026-04-11T15:33:05Z</time></trkpt><trkpt lat="38.63859234768132" lon="16.33380900066686"><ele>726.0</ele><time>2026-04-11T15:33:06Z</time></trkpt><trkpt lat="38.63856113417511" lon="16.33395415560875"><ele>723.5</ele><time>2026-04-11T15:33:07Z</time></trkpt><trkpt lat="38.63855424398742" lon="16.33409183091011"><ele>721.0</ele><time>2026-04-11T15:33:08Z</time></trkpt><trkpt lat="38.63857770584131" lon="16.334232562399638"><ele>718.5</ele><time>2026-04-11T15:33:09Z</time></trkpt><trkpt lat="38.638632808709886" lon="16.334365201346888"><ele>716.0</ele><time>2026-04-11T15:33:10Z</time></trkpt><trkpt lat="38.63871633866578" lon="16.334484106101122"><ele>718.0</ele><time>2026-04-11T15:33:11.001Z</time></trkpt><trkpt lat="38.63880957427592" lon="16.33458873614733"><ele>720.0</ele><time>2026-04-11T15:33:12.001Z</time></trkpt><trkpt lat="38.63892859737996" lon="16.334676650672428"><ele>722.0</ele><time>2026-04-11T15:33:13.001Z</time></trkpt><trkpt lat="38.63903644614816" lon="16.33475907931069"><ele>724.0</ele><time>2026-04-11T15:33:14.001Z</time></trkpt><trkpt lat="38.63915397014322" lon="16.334836024177914"><ele>724.0</ele><time>2026-04-11T15:33:15.001Z</time></trkpt><trkpt lat="38.639258564048525" lon="16.334905851315227"><ele>724.0</ele><time>2026-04-11T15:33:16.001Z</time></trkpt><trkpt lat="38.63936313982341" lon="16.334993682861157"><ele>724.0</ele><time>2026-04-11T15:33:17.001Z</time></trkpt><trkpt lat="38.63945107599237" lon="16.33510261357732"><ele>724.0</ele><time>2026-04-11T15:33:18.001Z</time></trkpt><trkpt lat="38.63951606564641" lon="16.335235182278666"><ele>721.5</ele><time>2026-04-11T15:33:19.001Z</time></trkpt><trkpt lat="38.639535925878775" lon="16.335391617043474"><ele>719.0</ele><time>2026-04-11T15:33:20.001Z</time></trkpt><trkpt lat="38.6394773352326" lon="16.335533493108528"><ele>716.5</ele><time>2026-04-11T15:33:21.001Z</time></trkpt><trkpt lat="38.6394453952763" lon="16.33568014968406"><ele>714.0</ele><time>2026-04-11T15:33:22.001Z</time></trkpt><trkpt lat="38.63939417821763" lon="16.335840846403972"><ele>714.0</ele><time>2026-04-11T15:33:23.001Z</time></trkpt><trkpt lat="38.63935322305424" lon="16.335988112537645"><ele>714.0</ele><time>2026-04-11T15:33:24.001Z</time></trkpt><trkpt lat="38.639299055971364" lon="16.336131149204146"><ele>714.0</ele><time>2026-04-11T15:33:25.001Z</time></trkpt><trkpt lat="38.63929670213852" lon="16.336287995863202"><ele>714.0</ele><time>2026-04-11T15:33:26.001Z</time></trkpt><trkpt lat="38.63933946160352" lon="16.336451710627312"><ele>714.5</ele><time>2026-04-11T15:33:27.001Z</time></trkpt><trkpt lat="38.63940106130418" lon="16.336618817498447"><ele>715.0</ele><time>2026-04-11T15:33:28.001Z</time></trkpt><trkpt lat="38.63947177803626" lon="16.336747333766006"><ele>715.5</ele><time>2026-04-11T15:33:29.001Z</time></trkpt><trkpt lat="38.639543098296414" lon="16.336848107034623"><ele>716.0</ele><time>2026-04-11T15:33:30.001Z</time></trkpt><trkpt lat="38.63961922690951" lon="16.336901514861097"><ele>718.25</ele><time>2026-04-11T15:33:31.001Z</time></trkpt><trkpt lat="38.63974294785037" lon="16.336903280080048"><ele>720.5</ele><time>2026-04-11T15:33:31.999Z</time></trkpt><trkpt lat="38.63985106703435" lon="16.336866150867607"><ele>722.75</ele><time>2026-04-11T15:33:32.999Z</time></trkpt><trkpt lat="38.63995448127178" lon="16.33681442725136"><ele>725.0</ele><time>2026-04-11T15:33:33.999Z</time></trkpt><trkpt lat="38.640054842654735" lon="16.336785178399467"><ele>725.0</ele><time>2026-04-11T15:33:34.999Z</time></trkpt><trkpt lat="38.640145020747404" lon="16.336730540330223"><ele>725.0</ele><time>2026-04-11T15:33:35.999Z</time></trkpt><trkpt lat="38.64022933487244" lon="16.336737755641135"><ele>725.0</ele><time>2026-04-11T15:33:36.999Z</time></trkpt><trkpt lat="38.64029836595961" lon="16.336790046437894"><ele>725.0</ele><time>2026-04-11T15:33:37.999Z</time></trkpt><trkpt lat="38.64033191462308" lon="16.336885706458066"><ele>725.0</ele><time>2026-04-11T15:33:38.999Z</time></trkpt><trkpt lat="38.64033265628403" lon="16.33701418092083"><ele>725.0</ele><time>2026-04-11T15:33:39.999Z</time></trkpt><trkpt lat="38.64032099994051" lon="16.337167223295303"><ele>725.75</ele><time>2026-04-11T15:33:40.999Z</time></trkpt><trkpt lat="38.64032498231063" lon="16.337327284463385"><ele>726.5</ele><time>2026-04-11T15:33:41.999Z</time></trkpt><trkpt lat="38.64036539877058" lon="16.33747406905497"><ele>727.25</ele><time>2026-04-11T15:33:42.999Z</time></trkpt><trkpt lat="38.640421456879444" lon="16.337593456553098"><ele>728.0</ele><time>2026-04-11T15:33:43.999Z</time></trkpt><trkpt lat="38.64046707355306" lon="16.33771878223501"><ele>728.0</ele><time>2026-04-11T15:33:44.999Z</time></trkpt><trkpt lat="38.640465629512974" lon="16.337855462515485"><ele>728.0</ele><time>2026-04-11T15:33:45.999Z</time></trkpt><trkpt lat="38.64038271225764" lon="16.33795137224681"><ele>728.0</ele><time>2026-04-11T15:33:46.999Z</time></trkpt><trkpt lat="38.64033859120631" lon="16.338074692506805"><ele>728.0</ele><time>2026-04-11T15:33:47.999Z</time></trkpt><trkpt lat="38.64031946553124" lon="16.338207301377437"><ele>728.0</ele><time>2026-04-11T15:33:49Z</time></trkpt><trkpt lat="38.640348776193555" lon="16.338343367798018"><ele>726.75</ele><time>2026-04-11T15:33:50Z</time></trkpt><trkpt lat="38.640412464921404" lon="16.3384498137597"><ele>725.5</ele><time>2026-04-11T15:33:51Z</time></trkpt><trkpt lat="38.640484270856746" lon="16.338547481710776"><ele>724.25</ele><time>2026-04-11T15:33:52Z</time></trkpt><trkpt lat="38.64054268999724" lon="16.33867665939934"><ele>723.0</ele><time>2026-04-11T15:33:53Z</time></trkpt><trkpt lat="38.64055503790135" lon="16.33886085781323"><ele>721.25</ele><time>2026-04-11T15:33:54Z</time></trkpt><trkpt lat="38.64055714782232" lon="16.339033866502124"><ele>719.5</ele><time>2026-04-11T15:33:55Z</time></trkpt><trkpt lat="38.640572834692" lon="16.33920606202997"><ele>717.75</ele><time>2026-04-11T15:33:56Z</time></trkpt><trkpt lat="38.64061715655522" lon="16.339368925945784"><ele>716.0</ele><time>2026-04-11T15:33:57Z</time></trkpt><trkpt lat="38.640685012584946" lon="16.33951599097742"><ele>716.0</ele><time>2026-04-11T15:33:58Z</time></trkpt><trkpt lat="38.640773319930794" lon="16.33965984056628"><ele>716.0</ele><time>2026-04-11T15:33:59Z</time></trkpt><trkpt lat="38.640848108028486" lon="16.339787652686145"><ele>716.0</ele><time>2026-04-11T15:34:00Z</time></trkpt><trkpt lat="38.64092301186752" lon="16.33992072636496"><ele>716.0</ele><time>2026-04-11T15:34:01Z</time></trkpt><trkpt lat="38.640976653562475" lon="16.340082115301296"><ele>717.25</ele><time>2026-04-11T15:34:02Z</time></trkpt><trkpt lat="38.64101701610309" lon="16.340242838549344"><ele>718.5</ele><time>2026-04-11T15:34:03Z</time></trkpt><trkpt lat="38.641073561552155" lon="16.340374544470937"><ele>719.75</ele><time>2026-04-11T15:34:04Z</time></trkpt><trkpt lat="38.64115250640164" lon="16.34047014953418"><ele>721.0</ele><time>2026-04-11T15:34:05Z</time></trkpt><trkpt lat="38.64124638842989" lon="16.340513779440304"><ele>721.0</ele><time>2026-04-11T15:34:06Z</time></trkpt><trkpt lat="38.64136420437841" lon="16.340487235939097"><ele>721.0</ele><time>2026-04-11T15:34:07Z</time></trkpt><trkpt lat="38.64145531784674" lon="16.340451812778856"><ele>721.0</ele><time>2026-04-11T15:34:08Z</time></trkpt><trkpt lat="38.64154018611727" lon="16.340464514606797"><ele>721.0</ele><time>2026-04-11T15:34:09Z</time></trkpt><trkpt lat="38.64160922503537" lon="16.340522480294123"><ele>721.0</ele><time>2026-04-11T15:34:10Z</time></trkpt><trkpt lat="38.64164680682107" lon="16.340608774571653"><ele>719.8</ele><time>2026-04-11T15:34:11Z</time></trkpt><trkpt lat="38.641627305672166" lon="16.340708622444346"><ele>718.5999999999999</ele><time>2026-04-11T15:34:12Z</time></trkpt><trkpt lat="38.64158594381348" lon="16.34082586347654"><ele>717.4</ele><time>2026-04-11T15:34:13Z</time></trkpt><trkpt lat="38.64151432336307" lon="16.340937851276816"><ele>716.2</ele><time>2026-04-11T15:34:14Z</time></trkpt><trkpt lat="38.6414058519904" lon="16.341078766165495"><ele>715.0</ele><time>2026-04-11T15:34:15Z</time></trkpt><trkpt lat="38.64130511612208" lon="16.34124431019"><ele>715.4</ele><time>2026-04-11T15:34:16Z</time></trkpt><trkpt lat="38.641220604813505" lon="16.34138319173867"><ele>715.8</ele><time>2026-04-11T15:34:17Z</time></trkpt><trkpt lat="38.6411479825067" lon="16.34150160453612"><ele>716.2</ele><time>2026-04-11T15:34:18Z</time></trkpt><trkpt lat="38.64109718580189" lon="16.341609147061526"><ele>716.6</ele><time>2026-04-11T15:34:19Z</time></trkpt><trkpt lat="38.64101327530181" lon="16.341653414299223"><ele>717.0</ele><time>2026-04-11T15:34:20Z</time></trkpt><trkpt lat="38.6409295361566" lon="16.34164542236424"><ele>718.0</ele><time>2026-04-11T15:34:21Z</time></trkpt><trkpt lat="38.64083799758064" lon="16.341577282265614"><ele>719.0</ele><time>2026-04-11T15:34:22Z</time></trkpt><trkpt lat="38.64070654945127" lon="16.341497760106964"><ele>720.0</ele><time>2026-04-11T15:34:23Z</time></trkpt><trkpt lat="38.640579716342536" lon="16.341405696100374"><ele>721.0</ele><time>2026-04-11T15:34:24Z</time></trkpt><trkpt lat="38.64046907004445" lon="16.34132538112337"><ele>719.0</ele><time>2026-04-11T15:34:25Z</time></trkpt><trkpt lat="38.6403458451012" lon="16.341235936035893"><ele>717.0</ele><time>2026-04-11T15:34:26Z</time></trkpt><trkpt lat="38.64022490798923" lon="16.34114589175061"><ele>715.0</ele><time>2026-04-11T15:34:27Z</time></trkpt><trkpt lat="38.640096942759264" lon="16.3410401128293"><ele>713.0</ele><time>2026-04-11T15:34:28Z</time></trkpt><trkpt lat="38.6399804194567" lon="16.340905950660787"><ele>713.0</ele><time>2026-04-11T15:34:29Z</time></trkpt><trkpt lat="38.63988961226123" lon="16.340779339688325"><ele>713.0</ele><time>2026-04-11T15:34:30Z</time></trkpt><trkpt lat="38.63979964469303" lon="16.3407097603886"><ele>713.0</ele><time>2026-04-11T15:34:31Z</time></trkpt><trkpt lat="38.639696547045865" lon="16.34064835279968"><ele>713.0</ele><time>2026-04-11T15:34:32Z</time></trkpt><trkpt lat="38.63958602700128" lon="16.34061288700097"><ele>714.5</ele><time>2026-04-11T15:34:33Z</time></trkpt><trkpt lat="38.63946577803935" lon="16.34058200955215"><ele>716.0</ele><time>2026-04-11T15:34:34Z</time></trkpt><trkpt lat="38.63934367434411" lon="16.340528733214903"><ele>717.5</ele><time>2026-04-11T15:34:35Z</time></trkpt><trkpt lat="38.63922148702144" lon="16.340403923437922"><ele>719.0</ele><time>2026-04-11T15:34:36Z</time></trkpt><trkpt lat="38.63911143836331" lon="16.34029359351575"><ele>715.2</ele><time>2026-04-11T15:34:37Z</time></trkpt><trkpt lat="38.63901906358218" lon="16.340213116761884"><ele>711.4000000000001</ele><time>2026-04-11T15:34:38Z</time></trkpt><trkpt lat="38.63892913989383" lon="16.34016281971689"><ele>707.6</ele><time>2026-04-11T15:34:39Z</time></trkpt><trkpt lat="38.638842136985176" lon="16.34014769890196"><ele>703.8</ele><time>2026-04-11T15:34:40Z</time></trkpt><trkpt lat="38.638753530385635" lon="16.340230095717818"><ele>700.0</ele><time>2026-04-11T15:34:41Z</time></trkpt><trkpt lat="38.63868588480833" lon="16.34036202858592"><ele>700.0</ele><time>2026-04-11T15:34:42Z</time></trkpt><trkpt lat="38.63859263349224" lon="16.340509131502216"><ele>700.0</ele><time>2026-04-11T15:34:43Z</time></trkpt><trkpt lat="38.638510291987394" lon="16.340669000870154"><ele>700.0</ele><time>2026-04-11T15:34:44Z</time></trkpt><trkpt lat="38.63840887839109" lon="16.34083046827789"><ele>702.25</ele><time>2026-04-11T15:34:45Z</time></trkpt><trkpt lat="38.63831576190294" lon="16.34097484328617"><ele>704.5</ele><time>2026-04-11T15:34:46Z</time></trkpt><trkpt lat="38.63818917860057" lon="16.341082639983615"><ele>706.75</ele><time>2026-04-11T15:34:47Z</time></trkpt><trkpt lat="38.63807801835069" lon="16.34119848168305"><ele>709.0</ele><time>2026-04-11T15:34:48Z</time></trkpt><trkpt lat="38.63796473485209" lon="16.341321233177034"><ele>711.3333333333334</ele><time>2026-04-11T15:34:49Z</time></trkpt><trkpt lat="38.6378576664502" lon="16.341468665224074"><ele>713.6666666666666</ele><time>2026-04-11T15:34:50Z</time></trkpt><trkpt lat="38.637770391037705" lon="16.34164470704101"><ele>716.0</ele><time>2026-04-11T15:34:51Z</time></trkpt><trkpt lat="38.63770765514019" lon="16.341837013479545"><ele>712.0</ele><time>2026-04-11T15:34:52Z</time></trkpt><trkpt lat="38.637669510281036" lon="16.34202349296012"><ele>708.0</ele><time>2026-04-11T15:34:53Z</time></trkpt><trkpt lat="38.637649557548926" lon="16.34220779846793"><ele>704.0</ele><time>2026-04-11T15:34:54Z</time></trkpt><trkpt lat="38.63764920192615" lon="16.34239060810841"><ele>700.0</ele><time>2026-04-11T15:34:55Z</time></trkpt><trkpt lat="38.63767093143479" lon="16.34255729725536"><ele>700.0</ele><time>2026-04-11T15:34:56Z</time></trkpt><trkpt lat="38.63774202479231" lon="16.342692388860012"><ele>700.0</ele><time>2026-04-11T15:34:57Z</time></trkpt><trkpt lat="38.63782460687541" lon="16.34281674406792"><ele>700.0</ele><time>2026-04-11T15:34:58Z</time></trkpt><trkpt lat="38.6379419772967" lon="16.342899450102756"><ele>700.0</ele><time>2026-04-11T15:34:59Z</time></trkpt><trkpt lat="38.63808847499404" lon="16.342950514571676"><ele>704.6666666666667</ele><time>2026-04-11T15:35:00Z</time></trkpt><trkpt lat="38.638272029693866" lon="16.34298762819086"><ele>709.3333333333334</ele><time>2026-04-11T15:35:01Z</time></trkpt><trkpt lat="38.63842641293249" lon="16.342989060114192"><ele>714.0</ele><time>2026-04-11T15:35:02.001Z</time></trkpt><trkpt lat="38.63855734598829" lon="16.34301189013605"><ele>711.75</ele><time>2026-04-11T15:35:03.001Z</time></trkpt><trkpt lat="38.638663557189886" lon="16.343091724472934"><ele>709.5</ele><time>2026-04-11T15:35:04.001Z</time></trkpt><trkpt lat="38.63875804428763" lon="16.34322800387547"><ele>707.25</ele><time>2026-04-11T15:35:05.001Z</time></trkpt><trkpt lat="38.638869852127904" lon="16.343342313834583"><ele>705.0</ele><time>2026-04-11T15:35:06.001Z</time></trkpt><trkpt lat="38.63902404298229" lon="16.343410039416625"><ele>705.0</ele><time>2026-04-11T15:35:07.001Z</time></trkpt><trkpt lat="38.63915750710454" lon="16.343449898250036"><ele>705.0</ele><time>2026-04-11T15:35:08.001Z</time></trkpt><trkpt lat="38.639270173009166" lon="16.343492394692678"><ele>705.0</ele><time>2026-04-11T15:35:09.001Z</time></trkpt><trkpt lat="38.63938515853474" lon="16.343568735301485"><ele>705.0</ele><time>2026-04-11T15:35:10.001Z</time></trkpt><trkpt lat="38.63949949689068" lon="16.343699100193817"><ele>704.0</ele><time>2026-04-11T15:35:11.001Z</time></trkpt><trkpt lat="38.639605167963815" lon="16.3438450954847"><ele>703.0</ele><time>2026-04-11T15:35:12.001Z</time></trkpt><trkpt lat="38.63971510278432" lon="16.34396550710391"><ele>702.0</ele><time>2026-04-11T15:35:13.001Z</time></trkpt><trkpt lat="38.63982486040679" lon="16.34405414882103"><ele>701.0</ele><time>2026-04-11T15:35:14.001Z</time></trkpt><trkpt lat="38.63994436439747" lon="16.34412101904471"><ele>701.0</ele><time>2026-04-11T15:35:15.001Z</time></trkpt><trkpt lat="38.64005608712644" lon="16.34416422538412"><ele>701.0</ele><time>2026-04-11T15:35:16.001Z</time></trkpt><trkpt lat="38.64014168846742" lon="16.344218792432006"><ele>701.0</ele><time>2026-04-11T15:35:17.001Z</time></trkpt><trkpt lat="38.64020608961514" lon="16.344290986926115"><ele>701.0</ele><time>2026-04-11T15:35:18.001Z</time></trkpt><trkpt lat="38.64024348849815" lon="16.344388702616946"><ele>701.0</ele><time>2026-04-11T15:35:19.001Z</time></trkpt><trkpt lat="38.64021875447002" lon="16.34450609100219"><ele>701.0</ele><time>2026-04-11T15:35:20.001Z</time></trkpt><trkpt lat="38.640157066965145" lon="16.344645698294304"><ele>701.0</ele><time>2026-04-11T15:35:21.001Z</time></trkpt><trkpt lat="38.640090461987654" lon="16.34479024546069"><ele>701.0</ele><time>2026-04-11T15:35:22.001Z</time></trkpt><trkpt lat="38.64003826330298" lon="16.344919045743588"><ele>701.0</ele><time>2026-04-11T15:35:23.001Z</time></trkpt><trkpt lat="38.63997067592785" lon="16.345044787022324"><ele>701.25</ele><time>2026-04-11T15:35:24.001Z</time></trkpt><trkpt lat="38.639933292942075" lon="16.345199464100407"><ele>701.5</ele><time>2026-04-11T15:35:25.001Z</time></trkpt><trkpt lat="38.63989636927359" lon="16.34534967937587"><ele>701.75</ele><time>2026-04-11T15:35:26.001Z</time></trkpt><trkpt lat="38.6398720182581" lon="16.34551946504891"><ele>702.0</ele><time>2026-04-11T15:35:27.001Z</time></trkpt><trkpt lat="38.639848135589034" lon="16.34568136538444"><ele>703.75</ele><time>2026-04-11T15:35:28.001Z</time></trkpt><trkpt lat="38.63980654876069" lon="16.345833042026943"><ele>705.5</ele><time>2026-04-11T15:35:29.001Z</time></trkpt><trkpt lat="38.63974303260304" lon="16.345959065843967"><ele>707.25</ele><time>2026-04-11T15:35:30.001Z</time></trkpt><trkpt lat="38.63970161072301" lon="16.346092298090827"><ele>709.0</ele><time>2026-04-11T15:35:31.001Z</time></trkpt><trkpt lat="38.63968500675169" lon="16.346214025770546"><ele>709.0</ele><time>2026-04-11T15:35:32.001Z</time></trkpt><trkpt lat="38.639656270931496" lon="16.3463540566935"><ele>709.0</ele><time>2026-04-11T15:35:33.001Z</time></trkpt><trkpt lat="38.63964489376951" lon="16.346484414705074"><ele>709.0</ele><time>2026-04-11T15:35:34.001Z</time></trkpt><trkpt lat="38.63962500422384" lon="16.34663329030269"><ele>709.0</ele><time>2026-04-11T15:35:35.001Z</time></trkpt><trkpt lat="38.63962250163311" lon="16.34680003965573"><ele>709.75</ele><time>2026-04-11T15:35:36.001Z</time></trkpt><trkpt lat="38.63962158491892" lon="16.346949405632465"><ele>710.5</ele><time>2026-04-11T15:35:37.001Z</time></trkpt><trkpt lat="38.63964239954822" lon="16.347096198601864"><ele>711.25</ele><time>2026-04-11T15:35:38Z</time></trkpt><trkpt lat="38.63969828897088" lon="16.347231936305004"><ele>712.0</ele><time>2026-04-11T15:35:39Z</time></trkpt><trkpt lat="38.63978324085705" lon="16.347358505819937"><ele>710.25</ele><time>2026-04-11T15:35:40Z</time></trkpt><trkpt lat="38.639886259099086" lon="16.347454160926013"><ele>708.5</ele><time>2026-04-11T15:35:41Z</time></trkpt><trkpt lat="38.64001900567889" lon="16.347562629439597"><ele>706.75</ele><time>2026-04-11T15:35:42Z</time></trkpt><trkpt lat="38.64015197343873" lon="16.347643224275533"><ele>705.0</ele><time>2026-04-11T15:35:43Z</time></trkpt><trkpt lat="38.640279042757136" lon="16.347678322997627"><ele>706.0</ele><time>2026-04-11T15:35:44Z</time></trkpt><trkpt lat="38.64037556254762" lon="16.34768722733437"><ele>707.0</ele><time>2026-04-11T15:35:45Z</time></trkpt><trkpt lat="38.64044754037497" lon="16.3477046385585"><ele>708.0</ele><time>2026-04-11T15:35:46Z</time></trkpt><trkpt lat="38.64052382488842" lon="16.347783786553705"><ele>709.0</ele><time>2026-04-11T15:35:48Z</time></trkpt><trkpt lat="38.640553868923284" lon="16.347873978083975"><ele>710.0</ele><time>2026-04-11T15:35:49Z</time></trkpt><trkpt lat="38.64055217845388" lon="16.34800500398322"><ele>711.0</ele><time>2026-04-11T15:35:50Z</time></trkpt><trkpt lat="38.640551591346345" lon="16.348155602112236"><ele>711.0</ele><time>2026-04-11T15:35:51Z</time></trkpt><trkpt lat="38.64053521733969" lon="16.348331990906132"><ele>711.0</ele><time>2026-04-11T15:35:52Z</time></trkpt><trkpt lat="38.64051537867779" lon="16.348488383298374"><ele>711.0</ele><time>2026-04-11T15:35:53Z</time></trkpt><trkpt lat="38.64050069502683" lon="16.34863004601222"><ele>711.0</ele><time>2026-04-11T15:35:54Z</time></trkpt><trkpt lat="38.64045299125821" lon="16.348775973797725"><ele>713.0</ele><time>2026-04-11T15:35:55Z</time></trkpt><trkpt lat="38.6403715099911" lon="16.348894350096767"><ele>715.0</ele><time>2026-04-11T15:35:56Z</time></trkpt><trkpt lat="38.64027251521842" lon="16.349016055183156"><ele>717.0</ele><time>2026-04-11T15:35:57Z</time></trkpt><trkpt lat="38.64016994351828" lon="16.34913915263592"><ele>719.0</ele><time>2026-04-11T15:35:58Z</time></trkpt><trkpt lat="38.64008800035093" lon="16.34921188143284"><ele>713.75</ele><time>2026-04-11T15:35:59Z</time></trkpt><trkpt lat="38.63997005035497" lon="16.349309577508247"><ele>708.5</ele><time>2026-04-11T15:36:00Z</time></trkpt><trkpt lat="38.63984484805733" lon="16.349393752096997"><ele>703.25</ele><time>2026-04-11T15:36:01Z</time></trkpt><trkpt lat="38.639743070384" lon="16.349473898935088"><ele>698.0</ele><time>2026-04-11T15:36:02Z</time></trkpt><trkpt lat="38.63965032873389" lon="16.34957663622625"><ele>698.0</ele><time>2026-04-11T15:36:03Z</time></trkpt><trkpt lat="38.63958807308514" lon="16.349692218199632"><ele>698.0</ele><time>2026-04-11T15:36:04Z</time></trkpt><trkpt lat="38.639527585992525" lon="16.349825672561803"><ele>698.0</ele><time>2026-04-11T15:36:05Z</time></trkpt><trkpt lat="38.63948096726066" lon="16.349973420604663"><ele>698.0</ele><time>2026-04-11T15:36:06Z</time></trkpt><trkpt lat="38.63945677390975" lon="16.350123404256856"><ele>697.8</ele><time>2026-04-11T15:36:07Z</time></trkpt><trkpt lat="38.6394662688251" lon="16.350260879533014"><ele>697.5999999999999</ele><time>2026-04-11T15:36:08Z</time></trkpt><trkpt lat="38.63951222315661" lon="16.350392191202396"><ele>697.4000000000001</ele><time>2026-04-11T15:36:09Z</time></trkpt><trkpt lat="38.639579636912245" lon="16.350494143941916"><ele>697.2</ele><time>2026-04-11T15:36:10Z</time></trkpt><trkpt lat="38.63966888907205" lon="16.350562362926468"><ele>697.0</ele><time>2026-04-11T15:36:11Z</time></trkpt><trkpt lat="38.63977658767449" lon="16.350606398093486"><ele>697.0</ele><time>2026-04-11T15:36:12Z</time></trkpt><trkpt lat="38.639894914870595" lon="16.350640858551085"><ele>697.0</ele><time>2026-04-11T15:36:13Z</time></trkpt><trkpt lat="38.640019217726966" lon="16.350671074893864"><ele>697.0</ele><time>2026-04-11T15:36:14Z</time></trkpt><trkpt lat="38.64016507348994" lon="16.350706071590267"><ele>697.0</ele><time>2026-04-11T15:36:15Z</time></trkpt><trkpt lat="38.64032935308545" lon="16.350745659882016"><ele>698.75</ele><time>2026-04-11T15:36:16Z</time></trkpt><trkpt lat="38.64047867382043" lon="16.350781402361193"><ele>700.5</ele><time>2026-04-11T15:36:17Z</time></trkpt><trkpt lat="38.64061975518952" lon="16.350819549119464"><ele>702.25</ele><time>2026-04-11T15:36:18Z</time></trkpt><trkpt lat="38.640746666930426" lon="16.35086457046205"><ele>704.0</ele><time>2026-04-11T15:36:19Z</time></trkpt><trkpt lat="38.640854810526385" lon="16.35095543743565"><ele>704.0</ele><time>2026-04-11T15:36:20Z</time></trkpt><trkpt lat="38.640963440793875" lon="16.35103427127584"><ele>704.0</ele><time>2026-04-11T15:36:21Z</time></trkpt><trkpt lat="38.64106933761271" lon="16.35108225352676"><ele>704.0</ele><time>2026-04-11T15:36:22Z</time></trkpt><trkpt lat="38.641185192330994" lon="16.351144094048102"><ele>704.0</ele><time>2026-04-11T15:36:23Z</time></trkpt><trkpt lat="38.64130897013381" lon="16.35114481376694"><ele>704.2</ele><time>2026-04-11T15:36:24Z</time></trkpt><trkpt lat="38.64141325296923" lon="16.351126889442355"><ele>704.4000000000001</ele><time>2026-04-11T15:36:25Z</time></trkpt><trkpt lat="38.641505304103575" lon="16.351126983315666"><ele>704.6</ele><time>2026-04-11T15:36:26Z</time></trkpt><trkpt lat="38.64160404240729" lon="16.35113644455552"><ele>704.8</ele><time>2026-04-11T15:36:27Z</time></trkpt><trkpt lat="38.641660756962295" lon="16.351241008628428"><ele>705.0</ele><time>2026-04-11T15:36:28Z</time></trkpt><trkpt lat="38.641709125454256" lon="16.35134192454821"><ele>702.75</ele><time>2026-04-11T15:36:29Z</time></trkpt><trkpt lat="38.64170371125553" lon="16.351476866354623"><ele>700.5</ele><time>2026-04-11T15:36:30Z</time></trkpt><trkpt lat="38.64169339610034" lon="16.351621255121238"><ele>698.25</ele><time>2026-04-11T15:36:31Z</time></trkpt><trkpt lat="38.64164910029601" lon="16.35178423184947"><ele>696.0</ele><time>2026-04-11T15:36:32Z</time></trkpt><trkpt lat="38.641595610525336" lon="16.351966057435938"><ele>696.0</ele><time>2026-04-11T15:36:33Z</time></trkpt><trkpt lat="38.64156517117623" lon="16.352141825701615"><ele>696.0</ele><time>2026-04-11T15:36:34Z</time></trkpt><trkpt lat="38.641548447347084" lon="16.352294992577583"><ele>696.0</ele><time>2026-04-11T15:36:35Z</time></trkpt><trkpt lat="38.64151721771315" lon="16.352434236516217"><ele>696.0</ele><time>2026-04-11T15:36:36Z</time></trkpt><trkpt lat="38.64150908333885" lon="16.352568717180525"><ele>695.8</ele><time>2026-04-11T15:36:37Z</time></trkpt><trkpt lat="38.64152976225391" lon="16.35270463918403"><ele>695.5999999999999</ele><time>2026-04-11T15:36:38Z</time></trkpt><trkpt lat="38.641574401997865" lon="16.35282782229871"><ele>695.4</ele><time>2026-04-11T15:36:39Z</time></trkpt><trkpt lat="38.64166359153462" lon="16.352909055320175"><ele>695.2</ele><time>2026-04-11T15:36:40Z</time></trkpt><trkpt lat="38.641769313789084" lon="16.35295016519555"><ele>695.0</ele><time>2026-04-11T15:36:41Z</time></trkpt><trkpt lat="38.64188046324462" lon="16.35297047321385"><ele>694.5</ele><time>2026-04-11T15:36:42Z</time></trkpt><trkpt lat="38.64199468198767" lon="16.352948261259737"><ele>694.0</ele><time>2026-04-11T15:36:43.001Z</time></trkpt><trkpt lat="38.64210850811897" lon="16.35288511220389"><ele>693.5</ele><time>2026-04-11T15:36:44.001Z</time></trkpt><trkpt lat="38.64223455006344" lon="16.35279183880013"><ele>693.0</ele><time>2026-04-11T15:36:45.001Z</time></trkpt><trkpt lat="38.64238279248685" lon="16.352685319798535"><ele>693.0</ele><time>2026-04-11T15:36:46.001Z</time></trkpt><trkpt lat="38.6425770732173" lon="16.35259582640331"><ele>693.0</ele><time>2026-04-11T15:36:47.001Z</time></trkpt><trkpt lat="38.642763084159185" lon="16.352556332360255"><ele>693.0</ele><time>2026-04-11T15:36:48.001Z</time></trkpt><trkpt lat="38.64293845204139" lon="16.352524276476377"><ele>692.5999999999999</ele><time>2026-04-11T15:36:49.001Z</time></trkpt><trkpt lat="38.64307045321292" lon="16.35250378117659"><ele>692.1999999999999</ele><time>2026-04-11T15:36:50.001Z</time></trkpt><trkpt lat="38.64318170355932" lon="16.352496250358463"><ele>691.8</ele><time>2026-04-11T15:36:51.001Z</time></trkpt><trkpt lat="38.64324374721579" lon="16.352517372394644"><ele>691.4</ele><time>2026-04-11T15:36:52.001Z</time></trkpt><trkpt lat="38.64327886461803" lon="16.35263126576822"><ele>691.0</ele><time>2026-04-11T15:36:53.001Z</time></trkpt><trkpt lat="38.643280661148836" lon="16.35278296953939"><ele>691.0</ele><time>2026-04-11T15:36:54.001Z</time></trkpt><trkpt lat="38.64333197227538" lon="16.352915196257033"><ele>691.0</ele><time>2026-04-11T15:36:55.001Z</time></trkpt><trkpt lat="38.643407359617925" lon="16.35302964597349"><ele>691.0</ele><time>2026-04-11T15:36:56.001Z</time></trkpt><trkpt lat="38.643501141123146" lon="16.353146653760252"><ele>691.0</ele><time>2026-04-11T15:36:57.001Z</time></trkpt><trkpt lat="38.643635079449744" lon="16.353260126221247"><ele>688.3333333333334</ele><time>2026-04-11T15:36:58.001Z</time></trkpt><trkpt lat="38.6437975509047" lon="16.353399999338958"><ele>685.6666666666666</ele><time>2026-04-11T15:36:59.001Z</time></trkpt><trkpt lat="38.64396312797746" lon="16.353551163910836"><ele>683.0</ele><time>2026-04-11T15:37:00.001Z</time></trkpt><trkpt lat="38.644101032671244" lon="16.353693501289538"><ele>683.0</ele><time>2026-04-11T15:37:01.001Z</time></trkpt><trkpt lat="38.6442370349987" lon="16.353823011036965"><ele>683.0</ele><time>2026-04-11T15:37:02.001Z</time></trkpt><trkpt lat="38.644380650678194" lon="16.353975470458195"><ele>683.0</ele><time>2026-04-11T15:37:03.001Z</time></trkpt><trkpt lat="38.644514970614445" lon="16.354123032826923"><ele>684.6666666666666</ele><time>2026-04-11T15:37:04.001Z</time></trkpt><trkpt lat="38.64461323147511" lon="16.35425618999823"><ele>686.3333333333334</ele><time>2026-04-11T15:37:05.001Z</time></trkpt><trkpt lat="38.64472481995316" lon="16.354392020225216"><ele>688.0</ele><time>2026-04-11T15:37:06.001Z</time></trkpt><trkpt lat="38.64482467984485" lon="16.35455288490559"><ele>685.6666666666667</ele><time>2026-04-11T15:37:07.001Z</time></trkpt><trkpt lat="38.64488836324415" lon="16.354758778836572"><ele>683.3333333333334</ele><time>2026-04-11T15:37:08.001Z</time></trkpt><trkpt lat="38.644951878600224" lon="16.354973437004112"><ele>681.0</ele><time>2026-04-11T15:37:09.001Z</time></trkpt><trkpt lat="38.64501490467532" lon="16.355215334345267"><ele>681.0</ele><time>2026-04-11T15:37:10.001Z</time></trkpt><trkpt lat="38.64507357650043" lon="16.355441791980663"><ele>681.0</ele><time>2026-04-11T15:37:11.001Z</time></trkpt><trkpt lat="38.64514183532066" lon="16.35563555347782"><ele>681.0</ele><time>2026-04-11T15:37:12.001Z</time></trkpt><trkpt lat="38.64516932725678" lon="16.355833423291525"><ele>681.25</ele><time>2026-04-11T15:37:13.001Z</time></trkpt><trkpt lat="38.645207902470226" lon="16.356001866052683"><ele>681.5</ele><time>2026-04-11T15:37:14.001Z</time></trkpt><trkpt lat="38.64523903226005" lon="16.356182173123045"><ele>681.75</ele><time>2026-04-11T15:37:15.001Z</time></trkpt><trkpt lat="38.6452789956082" lon="16.35635716440095"><ele>682.0</ele><time>2026-04-11T15:37:16.001Z</time></trkpt><trkpt lat="38.64532562354599" lon="16.356521076874607"><ele>682.0</ele><time>2026-04-11T15:37:17.001Z</time></trkpt><trkpt lat="38.64535539868505" lon="16.356642500121477"><ele>682.0</ele><time>2026-04-11T15:37:18.001Z</time></trkpt><trkpt lat="38.64542944235609" lon="16.356761097559165"><ele>682.0</ele><time>2026-04-11T15:37:19.001Z</time></trkpt><trkpt lat="38.645506540059245" lon="16.356843122715528"><ele>682.0</ele><time>2026-04-11T15:37:20.001Z</time></trkpt><trkpt lat="38.645572185767186" lon="16.35690899703606"><ele>682.0</ele><time>2026-04-11T15:37:21.001Z</time></trkpt><trkpt lat="38.645650796732575" lon="16.356982181918244"><ele>682.0</ele><time>2026-04-11T15:37:22.001Z</time></trkpt><trkpt lat="38.64571568369281" lon="16.357038880928542"><ele>682.0</ele><time>2026-04-11T15:37:23.001Z</time></trkpt><trkpt lat="38.64578683227475" lon="16.357096858514918"><ele>682.0</ele><time>2026-04-11T15:37:24.001Z</time></trkpt><trkpt lat="38.64585985754025" lon="16.357148736335812"><ele>682.0</ele><time>2026-04-11T15:37:25.001Z</time></trkpt><trkpt lat="38.645943981535716" lon="16.35719121591895"><ele>682.0</ele><time>2026-04-11T15:37:26.001Z</time></trkpt><trkpt lat="38.64603579918439" lon="16.357226957344512"><ele>682.0</ele><time>2026-04-11T15:37:27.001Z</time></trkpt><trkpt lat="38.64615246260465" lon="16.357261580555594"><ele>681.0</ele><time>2026-04-11T15:37:28.001Z</time></trkpt><trkpt lat="38.646250073474704" lon="16.357292061856956"><ele>680.0</ele><time>2026-04-11T15:37:29.001Z</time></trkpt><trkpt lat="38.64635036195566" lon="16.357337077042764"><ele>679.0</ele><time>2026-04-11T15:37:30.001Z</time></trkpt><trkpt lat="38.646443975259764" lon="16.357421053487645"><ele>678.0</ele><time>2026-04-11T15:37:31.001Z</time></trkpt><trkpt lat="38.64652777581416" lon="16.357537229573204"><ele>677.0</ele><time>2026-04-11T15:37:32.001Z</time></trkpt><trkpt lat="38.64663427183368" lon="16.357688811507757"><ele>677.0</ele><time>2026-04-11T15:37:33.001Z</time></trkpt><trkpt lat="38.646728959690904" lon="16.357823718589664"><ele>677.0</ele><time>2026-04-11T15:37:34.001Z</time></trkpt><trkpt lat="38.64681611339012" lon="16.357947912182777"><ele>677.0</ele><time>2026-04-11T15:37:35.001Z</time></trkpt><trkpt lat="38.64689608536168" lon="16.35806187172719"><ele>677.0</ele><time>2026-04-11T15:37:36.001Z</time></trkpt><trkpt lat="38.646967569263104" lon="16.358163735955564"><ele>677.8</ele><time>2026-04-11T15:37:37.001Z</time></trkpt><trkpt lat="38.64703548829518" lon="16.358260520207843"><ele>678.6</ele><time>2026-04-11T15:37:38.001Z</time></trkpt><trkpt lat="38.64710120862656" lon="16.358354171360613"><ele>679.4</ele><time>2026-04-11T15:37:39.001Z</time></trkpt><trkpt lat="38.64716732025107" lon="16.358448215205954"><ele>680.1999999999999</ele><time>2026-04-11T15:37:40.001Z</time></trkpt><trkpt lat="38.64723368945848" lon="16.35854239955093"><ele>681.0</ele><time>2026-04-11T15:37:41.001Z</time></trkpt><trkpt lat="38.647308504655015" lon="16.358617120886443"><ele>681.0</ele><time>2026-04-11T15:37:42.001Z</time></trkpt><trkpt lat="38.64735275328662" lon="16.358703305279427"><ele>681.0</ele><time>2026-04-11T15:37:43.001Z</time></trkpt><trkpt lat="38.647391406327976" lon="16.358809265839895"><ele>681.0</ele><time>2026-04-11T15:37:44Z</time></trkpt><trkpt lat="38.6473995699859" lon="16.35894138548233"><ele>681.0</ele><time>2026-04-11T15:37:45Z</time></trkpt><trkpt lat="38.64741394617949" lon="16.35907919583637"><ele>681.0</ele><time>2026-04-11T15:37:46Z</time></trkpt><trkpt lat="38.647453425754335" lon="16.359179379989445"><ele>680.1666666666666</ele><time>2026-04-11T15:37:47Z</time></trkpt><trkpt lat="38.647482931622704" lon="16.359269220683913"><ele>679.3333333333334</ele><time>2026-04-11T15:37:48Z</time></trkpt><trkpt lat="38.647572605194654" lon="16.359293134693292"><ele>678.5</ele><time>2026-04-11T15:37:49Z</time></trkpt><trkpt lat="38.647645845416164" lon="16.359289031877676"><ele>677.6666666666667</ele><time>2026-04-11T15:37:50Z</time></trkpt><trkpt lat="38.64771876342847" lon="16.359261316013335"><ele>676.8333333333334</ele><time>2026-04-11T15:37:51Z</time></trkpt><trkpt lat="38.647807049702976" lon="16.35921505906935"><ele>676.0</ele><time>2026-04-11T15:37:52Z</time></trkpt><trkpt lat="38.647897753765" lon="16.359171546859702"><ele>676.0</ele><time>2026-04-11T15:37:53Z</time></trkpt><trkpt lat="38.64798232450274" lon="16.359139151565042"><ele>676.0</ele><time>2026-04-11T15:37:54Z</time></trkpt><trkpt lat="38.64807474820619" lon="16.35909547699033"><ele>676.0</ele><time>2026-04-11T15:37:55Z</time></trkpt><trkpt lat="38.64816079091831" lon="16.35904899648828"><ele>676.0</ele><time>2026-04-11T15:37:56Z</time></trkpt><trkpt lat="38.6482420765273" lon="16.359022715990243"><ele>676.0</ele><time>2026-04-11T15:37:57Z</time></trkpt><trkpt lat="38.64833279266426" lon="16.359031979614702"><ele>676.0</ele><time>2026-04-11T15:37:58Z</time></trkpt><trkpt lat="38.64844072983264" lon="16.359090011841527"><ele>676.0</ele><time>2026-04-11T15:37:59Z</time></trkpt><trkpt lat="38.6485259832296" lon="16.35913788650913"><ele>676.0</ele><time>2026-04-11T15:38:00Z</time></trkpt><trkpt lat="38.64860158513334" lon="16.359216330103127"><ele>676.0</ele><time>2026-04-11T15:38:01Z</time></trkpt><trkpt lat="38.64865734664287" lon="16.35932013679032"><ele>676.0</ele><time>2026-04-11T15:38:02Z</time></trkpt><trkpt lat="38.64870437979869" lon="16.35941873619182"><ele>676.6666666666667</ele><time>2026-04-11T15:38:03Z</time></trkpt><trkpt lat="38.64875944811397" lon="16.35949731178728"><ele>677.3333333333334</ele><time>2026-04-11T15:38:04Z</time></trkpt><trkpt lat="38.648821470864824" lon="16.359575579277166"><ele>678.0</ele><time>2026-04-11T15:38:05Z</time></trkpt><trkpt lat="38.64888069395263" lon="16.359635921744427"><ele>678.6666666666666</ele><time>2026-04-11T15:38:06Z</time></trkpt><trkpt lat="38.64896832703364" lon="16.359665083613198"><ele>679.3333333333333</ele><time>2026-04-11T15:38:07Z</time></trkpt><trkpt lat="38.649058061202894" lon="16.359664919503192"><ele>680.0</ele><time>2026-04-11T15:38:08Z</time></trkpt><trkpt lat="38.64915511403951" lon="16.35965322274981"><ele>680.0</ele><time>2026-04-11T15:38:09Z</time></trkpt><trkpt lat="38.64925121646873" lon="16.35960410582214"><ele>680.0</ele><time>2026-04-11T15:38:10Z</time></trkpt><trkpt lat="38.6493222481259" lon="16.359548272424938"><ele>680.0</ele><time>2026-04-11T15:38:11Z</time></trkpt><trkpt lat="38.64939768962837" lon="16.35948596162337"><ele>680.0</ele><time>2026-04-11T15:38:12Z</time></trkpt><trkpt lat="38.649479313086594" lon="16.359440940057436"><ele>680.0</ele><time>2026-04-11T15:38:13Z</time></trkpt><trkpt lat="38.649570157711594" lon="16.359406704232747"><ele>679.3333333333333</ele><time>2026-04-11T15:38:14Z</time></trkpt><trkpt lat="38.64971096598651" lon="16.359388760867546"><ele>678.6666666666666</ele><time>2026-04-11T15:38:15Z</time></trkpt><trkpt lat="38.649872199235865" lon="16.359364852769225"><ele>678.0</ele><time>2026-04-11T15:38:16Z</time></trkpt><trkpt lat="38.65004530818622" lon="16.359339573966576"><ele>678.0</ele><time>2026-04-11T15:38:17Z</time></trkpt><trkpt lat="38.65024645822725" lon="16.359310897507665"><ele>678.0</ele><time>2026-04-11T15:38:18Z</time></trkpt><trkpt lat="38.650441591856726" lon="16.3592918937872"><ele>678.0</ele><time>2026-04-11T15:38:19Z</time></trkpt><trkpt lat="38.65060856121896" lon="16.359273115051995"><ele>677.75</ele><time>2026-04-11T15:38:20Z</time></trkpt><trkpt lat="38.650750745635186" lon="16.359251912376806"><ele>677.5</ele><time>2026-04-11T15:38:21Z</time></trkpt><trkpt lat="38.6508997620455" lon="16.359233392353467"><ele>677.25</ele><time>2026-04-11T15:38:22Z</time></trkpt><trkpt lat="38.651043739985546" lon="16.359216014386284"><ele>677.0</ele><time>2026-04-11T15:38:23Z</time></trkpt><trkpt lat="38.65117472229577" lon="16.359206254233285"><ele>677.0</ele><time>2026-04-11T15:38:24Z</time></trkpt><trkpt lat="38.65128893048445" lon="16.359201226581536"><ele>677.0</ele><time>2026-04-11T15:38:25Z</time></trkpt><trkpt lat="38.65138582084825" lon="16.35919931762178"><ele>677.0</ele><time>2026-04-11T15:38:26Z</time></trkpt><trkpt lat="38.65148217901089" lon="16.359224331923677"><ele>677.0</ele><time>2026-04-11T15:38:27Z</time></trkpt><trkpt lat="38.65157568418922" lon="16.359260522168142"><ele>677.0</ele><time>2026-04-11T15:38:28Z</time></trkpt><trkpt lat="38.6516730891888" lon="16.359302960317077"><ele>677.0</ele><time>2026-04-11T15:38:29Z</time></trkpt><trkpt lat="38.651778577842066" lon="16.359353760430494"><ele>677.0</ele><time>2026-04-11T15:38:30Z</time></trkpt><trkpt lat="38.65188234351937" lon="16.35941265233879"><ele>677.0</ele><time>2026-04-11T15:38:31Z</time></trkpt><trkpt lat="38.65197843770533" lon="16.359487887640054"><ele>677.0</ele><time>2026-04-11T15:38:32Z</time></trkpt><trkpt lat="38.652071706818695" lon="16.359588941643025"><ele>678.0</ele><time>2026-04-11T15:38:33Z</time></trkpt><trkpt lat="38.65215286320704" lon="16.35969875607283"><ele>679.0</ele><time>2026-04-11T15:38:34Z</time></trkpt><trkpt lat="38.65222451693967" lon="16.359834041217972"><ele>680.0</ele><time>2026-04-11T15:38:35.001Z</time></trkpt><trkpt lat="38.652288381871884" lon="16.35995320284604"><ele>681.0</ele><time>2026-04-11T15:38:36.001Z</time></trkpt><trkpt lat="38.65235214343307" lon="16.360068438909536"><ele>679.1999999999999</ele><time>2026-04-11T15:38:37.001Z</time></trkpt><trkpt lat="38.652421089167575" lon="16.360148643657997"><ele>677.4</ele><time>2026-04-11T15:38:38.001Z</time></trkpt><trkpt lat="38.652496817647595" lon="16.36017575062116"><ele>675.6</ele><time>2026-04-11T15:38:39.001Z</time></trkpt><trkpt lat="38.65258627346712" lon="16.36014945021789"><ele>673.8</ele><time>2026-04-11T15:38:40.001Z</time></trkpt><trkpt lat="38.65265473849402" lon="16.360072367009877"><ele>672.0</ele><time>2026-04-11T15:38:41.001Z</time></trkpt><trkpt lat="38.65270986428277" lon="16.359942561703424"><ele>672.0</ele><time>2026-04-11T15:38:42.001Z</time></trkpt><trkpt lat="38.65278152666441" lon="16.359813128045847"><ele>672.0</ele><time>2026-04-11T15:38:43.001Z</time></trkpt><trkpt lat="38.6528705035915" lon="16.35974867198366"><ele>672.0</ele><time>2026-04-11T15:38:44.001Z</time></trkpt><trkpt lat="38.65296959645723" lon="16.359653009198762"><ele>672.0</ele><time>2026-04-11T15:38:45.001Z</time></trkpt><trkpt lat="38.65303190461294" lon="16.359521614089733"><ele>671.75</ele><time>2026-04-11T15:38:46.001Z</time></trkpt><trkpt lat="38.6530807540906" lon="16.35934041117265"><ele>671.5</ele><time>2026-04-11T15:38:47.001Z</time></trkpt><trkpt lat="38.65312326820065" lon="16.359176334370584"><ele>671.25</ele><time>2026-04-11T15:38:48.001Z</time></trkpt><trkpt lat="38.65317939608726" lon="16.359036036512848"><ele>671.0</ele><time>2026-04-11T15:38:49.001Z</time></trkpt><trkpt lat="38.65319567036263" lon="16.358892127843642"><ele>670.25</ele><time>2026-04-11T15:38:50.001Z</time></trkpt><trkpt lat="38.65318798083221" lon="16.35876745791937"><ele>669.5</ele><time>2026-04-11T15:38:51.001Z</time></trkpt><trkpt lat="38.65311479142613" lon="16.35865317763185"><ele>668.75</ele><time>2026-04-11T15:38:52.001Z</time></trkpt><trkpt lat="38.653026434218425" lon="16.35852803768609"><ele>668.0</ele><time>2026-04-11T15:38:53.001Z</time></trkpt><trkpt lat="38.65297627306014" lon="16.358377037993275"><ele>668.0</ele><time>2026-04-11T15:38:54.001Z</time></trkpt><trkpt lat="38.652945007688146" lon="16.35819747304531"><ele>668.0</ele><time>2026-04-11T15:38:55.001Z</time></trkpt><trkpt lat="38.652928217774345" lon="16.3580098317327"><ele>668.0</ele><time>2026-04-11T15:38:56.001Z</time></trkpt><trkpt lat="38.65292700290234" lon="16.35781640792998"><ele>668.0</ele><time>2026-04-11T15:38:57.001Z</time></trkpt><trkpt lat="38.65294923384861" lon="16.357621713396192"><ele>667.6666666666666</ele><time>2026-04-11T15:38:58.001Z</time></trkpt><trkpt lat="38.65294889011946" lon="16.357426711879295"><ele>667.3333333333334</ele><time>2026-04-11T15:38:59.001Z</time></trkpt><trkpt lat="38.65291729280872" lon="16.357218207248195"><ele>667.0</ele><time>2026-04-11T15:39:00.001Z</time></trkpt><trkpt lat="38.65289924172368" lon="16.35704544814607"><ele>667.0</ele><time>2026-04-11T15:39:01.001Z</time></trkpt><trkpt lat="38.65287308675167" lon="16.35690772358146"><ele>667.0</ele><time>2026-04-11T15:39:02.001Z</time></trkpt><trkpt lat="38.65285564323714" lon="16.35673750974284"><ele>667.0</ele><time>2026-04-11T15:39:03.001Z</time></trkpt><trkpt lat="38.65285984236744" lon="16.356570602703616"><ele>667.0</ele><time>2026-04-11T15:39:04.001Z</time></trkpt><trkpt lat="38.65288682217377" lon="16.35642181373748"><ele>669.8</ele><time>2026-04-11T15:39:05.001Z</time></trkpt><trkpt lat="38.652932676920564" lon="16.356276712957033"><ele>672.6</ele><time>2026-04-11T15:39:06.001Z</time></trkpt><trkpt lat="38.65297872787462" lon="16.356148834922962"><ele>675.4</ele><time>2026-04-11T15:39:07.001Z</time></trkpt><trkpt lat="38.65301449309821" lon="16.356034986404172"><ele>678.1999999999999</ele><time>2026-04-11T15:39:08.001Z</time></trkpt><trkpt lat="38.65307473080054" lon="16.355966329125433"><ele>681.0</ele><time>2026-04-11T15:39:09.001Z</time></trkpt><trkpt lat="38.65315755915306" lon="16.355948047291847"><ele>681.0</ele><time>2026-04-11T15:39:10.001Z</time></trkpt><trkpt lat="38.65323490349259" lon="16.355987497646616"><ele>681.0</ele><time>2026-04-11T15:39:11.001Z</time></trkpt><trkpt lat="38.6532918215288" lon="16.356107880242252"><ele>681.0</ele><time>2026-04-11T15:39:12.001Z</time></trkpt><trkpt lat="38.65335229653822" lon="16.356247248837253"><ele>681.0</ele><time>2026-04-11T15:39:13.001Z</time></trkpt><trkpt lat="38.653426849513345" lon="16.356420179008552"><ele>677.6666666666666</ele><time>2026-04-11T15:39:14.001Z</time></trkpt><trkpt lat="38.65351215427276" lon="16.35658565154269"><ele>674.3333333333333</ele><time>2026-04-11T15:39:15.001Z</time></trkpt><trkpt lat="38.65365059222071" lon="16.356717457698835"><ele>671.0</ele><time>2026-04-11T15:39:16.001Z</time></trkpt><trkpt lat="38.65378685909446" lon="16.3568473714639"><ele>671.0</ele><time>2026-04-11T15:39:17.001Z</time></trkpt><trkpt lat="38.653910503789405" lon="16.35696362504505"><ele>671.0</ele><time>2026-04-11T15:39:18.001Z</time></trkpt><trkpt lat="38.6540250235244" lon="16.357064483331047"><ele>671.0</ele><time>2026-04-11T15:39:19.001Z</time></trkpt><trkpt lat="38.65414169841443" lon="16.357146441669496"><ele>671.0</ele><time>2026-04-11T15:39:20.001Z</time></trkpt><trkpt lat="38.654252944630805" lon="16.357186491207866"><ele>671.0</ele><time>2026-04-11T15:39:21.001Z</time></trkpt><trkpt lat="38.654363485312636" lon="16.35717169279444"><ele>671.0</ele><time>2026-04-11T15:39:22.001Z</time></trkpt><trkpt lat="38.65445611639284" lon="16.357139184581126"><ele>671.0</ele><time>2026-04-11T15:39:23.001Z</time></trkpt><trkpt lat="38.65454405726813" lon="16.35713113443156"><ele>671.0</ele><time>2026-04-11T15:39:24.001Z</time></trkpt><trkpt lat="38.65461008960244" lon="16.357172519850863"><ele>671.0</ele><time>2026-04-11T15:39:25.001Z</time></trkpt><trkpt lat="38.65464997360998" lon="16.357265902513785"><ele>670.5</ele><time>2026-04-11T15:39:26.001Z</time></trkpt><trkpt lat="38.65462687328387" lon="16.357414291614326"><ele>670.0</ele><time>2026-04-11T15:39:27.001Z</time></trkpt><trkpt lat="38.654665823036" lon="16.35758021409144"><ele>669.5</ele><time>2026-04-11T15:39:28.001Z</time></trkpt><trkpt lat="38.654703789752574" lon="16.35770883450881"><ele>669.0</ele><time>2026-04-11T15:39:29.001Z</time></trkpt><trkpt lat="38.6547848631318" lon="16.357799212816165"><ele>669.0</ele><time>2026-04-11T15:39:30.001Z</time></trkpt><trkpt lat="38.65489084339332" lon="16.357847309676455"><ele>669.0</ele><time>2026-04-11T15:39:31.001Z</time></trkpt><trkpt lat="38.65500787932178" lon="16.357826512511764"><ele>669.0</ele><time>2026-04-11T15:39:32.001Z</time></trkpt><trkpt lat="38.655116798870274" lon="16.35778848585899"><ele>669.0</ele><time>2026-04-11T15:39:33.001Z</time></trkpt><trkpt lat="38.65521240007436" lon="16.357775566950615"><ele>669.0</ele><time>2026-04-11T15:39:34.001Z</time></trkpt><trkpt lat="38.65529529729781" lon="16.35782418928029"><ele>668.25</ele><time>2026-04-11T15:39:35.001Z</time></trkpt><trkpt lat="38.65535660620876" lon="16.357935873269255"><ele>667.5</ele><time>2026-04-11T15:39:36.001Z</time></trkpt><trkpt lat="38.65538499668116" lon="16.358095470776927"><ele>666.75</ele><time>2026-04-11T15:39:37.001Z</time></trkpt><trkpt lat="38.65537293061085" lon="16.358265985583262"><ele>666.0</ele><time>2026-04-11T15:39:38.001Z</time></trkpt><trkpt lat="38.655388216475046" lon="16.35846261730843"><ele>666.0</ele><time>2026-04-11T15:39:39.001Z</time></trkpt><trkpt lat="38.65541081899656" lon="16.358632344277538"><ele>666.0</ele><time>2026-04-11T15:39:40.001Z</time></trkpt><trkpt lat="38.6554239278083" lon="16.358772710657803"><ele>666.0</ele><time>2026-04-11T15:39:41.001Z</time></trkpt><trkpt lat="38.65545672623387" lon="16.35888709433422"><ele>666.0</ele><time>2026-04-11T15:39:42.001Z</time></trkpt><trkpt lat="38.655502689448696" lon="16.358991622925632"><ele>666.0</ele><time>2026-04-11T15:39:43.001Z</time></trkpt><trkpt lat="38.655595136849385" lon="16.359052171307066"><ele>663.0</ele><time>2026-04-11T15:39:44.001Z</time></trkpt><trkpt lat="38.65569132112673" lon="16.35906488425821"><ele>660.0</ele><time>2026-04-11T15:39:45.001Z</time></trkpt><trkpt lat="38.65579005499809" lon="16.359044775638765"><ele>657.0</ele><time>2026-04-11T15:39:46.001Z</time></trkpt><trkpt lat="38.655884823999386" lon="16.35901937344896"><ele>654.0</ele><time>2026-04-11T15:39:47.001Z</time></trkpt><trkpt lat="38.65600288451559" lon="16.359031055946975"><ele>651.0</ele><time>2026-04-11T15:39:48.001Z</time></trkpt><trkpt lat="38.656086799626884" lon="16.359043977215446"><ele>652.75</ele><time>2026-04-11T15:39:49.001Z</time></trkpt><trkpt lat="38.656165978413526" lon="16.359100347535566"><ele>654.5</ele><time>2026-04-11T15:39:50Z</time></trkpt><trkpt lat="38.656224634926375" lon="16.359216078653454"><ele>656.25</ele><time>2026-04-11T15:39:51Z</time></trkpt><trkpt lat="38.65630617939846" lon="16.3593649892217"><ele>658.0</ele><time>2026-04-11T15:39:52Z</time></trkpt><trkpt lat="38.656381930503386" lon="16.359521830096217"><ele>658.0</ele><time>2026-04-11T15:39:53Z</time></trkpt><trkpt lat="38.65644753032893" lon="16.359654978311777"><ele>658.0</ele><time>2026-04-11T15:39:54Z</time></trkpt><trkpt lat="38.656497941557774" lon="16.359791172758342"><ele>658.0</ele><time>2026-04-11T15:39:55Z</time></trkpt><trkpt lat="38.65649593828693" lon="16.359953877816732"><ele>658.0</ele><time>2026-04-11T15:39:56Z</time></trkpt><trkpt lat="38.656456040500366" lon="16.360119188345138"><ele>656.8</ele><time>2026-04-11T15:39:57Z</time></trkpt><trkpt lat="38.65639934536337" lon="16.360254134666206"><ele>655.5999999999999</ele><time>2026-04-11T15:39:58Z</time></trkpt><trkpt lat="38.656370598847666" lon="16.36038144126001"><ele>654.4000000000001</ele><time>2026-04-11T15:39:59Z</time></trkpt><trkpt lat="38.65642596082601" lon="16.36050018475951"><ele>653.2</ele><time>2026-04-11T15:40:00Z</time></trkpt><trkpt lat="38.65649761309296" lon="16.360578209160423"><ele>652.0</ele><time>2026-04-11T15:40:01Z</time></trkpt><trkpt lat="38.656603397113464" lon="16.360580943898395"><ele>650.75</ele><time>2026-04-11T15:40:02Z</time></trkpt><trkpt lat="38.6567302079976" lon="16.36061243736796"><ele>649.5</ele><time>2026-04-11T15:40:03Z</time></trkpt><trkpt lat="38.65682551255396" lon="16.360691297533453"><ele>648.25</ele><time>2026-04-11T15:40:04Z</time></trkpt><trkpt lat="38.656870360933276" lon="16.360809927880116"><ele>647.0</ele><time>2026-04-11T15:40:05Z</time></trkpt><trkpt lat="38.65679393638142" lon="16.360930500178366"><ele>647.0</ele><time>2026-04-11T15:40:06Z</time></trkpt><trkpt lat="38.65675887889066" lon="16.361038048531874"><ele>647.0</ele><time>2026-04-11T15:40:07Z</time></trkpt><trkpt lat="38.656694013951906" lon="16.361211809672334"><ele>647.0</ele><time>2026-04-11T15:40:08Z</time></trkpt><trkpt lat="38.65668272846315" lon="16.36136679521585"><ele>647.0</ele><time>2026-04-11T15:40:09Z</time></trkpt><trkpt lat="38.65670467790175" lon="16.36145392359745"><ele>647.0</ele><time>2026-04-11T15:40:10Z</time></trkpt><trkpt lat="38.656776556552565" lon="16.361554782836983"><ele>647.2</ele><time>2026-04-11T15:40:11Z</time></trkpt><trkpt lat="38.656861966095825" lon="16.361629843649627"><ele>647.4000000000001</ele><time>2026-04-11T15:40:12Z</time></trkpt><trkpt lat="38.65698000568704" lon="16.36168286067895"><ele>647.5999999999999</ele><time>2026-04-11T15:40:13Z</time></trkpt><trkpt lat="38.65707738614229" lon="16.361721557550712"><ele>647.8</ele><time>2026-04-11T15:40:14Z</time></trkpt><trkpt lat="38.657163402148875" lon="16.361797147944458"><ele>648.0</ele><time>2026-04-11T15:40:15Z</time></trkpt><trkpt lat="38.65722236084549" lon="16.36191069674961"><ele>648.0</ele><time>2026-04-11T15:40:16Z</time></trkpt><trkpt lat="38.657270108996485" lon="16.36203560256267"><ele>648.0</ele><time>2026-04-11T15:40:17Z</time></trkpt><trkpt lat="38.65728416877328" lon="16.36216354048446"><ele>648.0</ele><time>2026-04-11T15:40:18Z</time></trkpt><trkpt lat="38.65727825832576" lon="16.3622830271888"><ele>648.0</ele><time>2026-04-11T15:40:19Z</time></trkpt><trkpt lat="38.65722612325468" lon="16.362392321230725"><ele>648.0</ele><time>2026-04-11T15:40:20Z</time></trkpt><trkpt lat="38.6571579053465" lon="16.3625019915837"><ele>647.25</ele><time>2026-04-11T15:40:21Z</time></trkpt><trkpt lat="38.657048123545266" lon="16.362586878626793"><ele>646.5</ele><time>2026-04-11T15:40:22Z</time></trkpt><trkpt lat="38.65692412844755" lon="16.36267612366878"><ele>645.75</ele><time>2026-04-11T15:40:23Z</time></trkpt><trkpt lat="38.65678049000678" lon="16.362807507928498"><ele>645.0</ele><time>2026-04-11T15:40:24Z</time></trkpt><trkpt lat="38.65660848806518" lon="16.362958217864854"><ele>641.3333333333334</ele><time>2026-04-11T15:40:25Z</time></trkpt><trkpt lat="38.65646549582699" lon="16.363078540415803"><ele>637.6666666666667</ele><time>2026-04-11T15:40:26Z</time></trkpt><trkpt lat="38.65634659608681" lon="16.36322756299112"><ele>634.0</ele><time>2026-04-11T15:40:27Z</time></trkpt><trkpt lat="38.65621437032525" lon="16.36334702725952"><ele>631.0</ele><time>2026-04-11T15:40:28Z</time></trkpt><trkpt lat="38.65611025583132" lon="16.363518187958174"><ele>628.0</ele><time>2026-04-11T15:40:29Z</time></trkpt><trkpt lat="38.65601783865989" lon="16.363696454831047"><ele>625.0</ele><time>2026-04-11T15:40:30Z</time></trkpt><trkpt lat="38.65592688130152" lon="16.36390330789047"><ele>625.0</ele><time>2026-04-11T15:40:31Z</time></trkpt><trkpt lat="38.655860567331786" lon="16.364086805122618"><ele>625.0</ele><time>2026-04-11T15:40:32Z</time></trkpt><trkpt lat="38.65578057937806" lon="16.36425172788874"><ele>625.0</ele><time>2026-04-11T15:40:33Z</time></trkpt><trkpt lat="38.6557370554114" lon="16.36440437919856"><ele>625.0</ele><time>2026-04-11T15:40:34Z</time></trkpt><trkpt lat="38.65569010644606" lon="16.36459338146773"><ele>625.25</ele><time>2026-04-11T15:40:35Z</time></trkpt><trkpt lat="38.655652695059345" lon="16.36476745051937"><ele>625.5</ele><time>2026-04-11T15:40:36.001Z</time></trkpt><trkpt lat="38.65563241154263" lon="16.36494069186172"><ele>625.75</ele><time>2026-04-11T15:40:37.001Z</time></trkpt><trkpt lat="38.65560342433723" lon="16.36509005518216"><ele>626.0</ele><time>2026-04-11T15:40:38.001Z</time></trkpt><trkpt lat="38.655574114394284" lon="16.36524471673324"><ele>626.0</ele><time>2026-04-11T15:40:39.001Z</time></trkpt><trkpt lat="38.65556435235428" lon="16.365409252828684"><ele>626.0</ele><time>2026-04-11T15:40:40.001Z</time></trkpt><trkpt lat="38.65558711312991" lon="16.365562067496445"><ele>626.0</ele><time>2026-04-11T15:40:41.001Z</time></trkpt><trkpt lat="38.655624541322865" lon="16.365730148764555"><ele>626.0</ele><time>2026-04-11T15:40:42.001Z</time></trkpt><trkpt lat="38.655663385252176" lon="16.365866611745016"><ele>625.25</ele><time>2026-04-11T15:40:43.001Z</time></trkpt><trkpt lat="38.655696275975366" lon="16.36603174790672"><ele>624.5</ele><time>2026-04-11T15:40:44.001Z</time></trkpt><trkpt lat="38.655739648538216" lon="16.36619556275246"><ele>623.75</ele><time>2026-04-11T15:40:45.001Z</time></trkpt><trkpt lat="38.65580093017451" lon="16.366357730398814"><ele>623.0</ele><time>2026-04-11T15:40:46.001Z</time></trkpt><trkpt lat="38.65583544630539" lon="16.366539722026214"><ele>621.75</ele><time>2026-04-11T15:40:47.001Z</time></trkpt><trkpt lat="38.655882248247345" lon="16.36671063701166"><ele>620.5</ele><time>2026-04-11T15:40:48.001Z</time></trkpt><trkpt lat="38.65592692074599" lon="16.366874557230194"><ele>619.25</ele><time>2026-04-11T15:40:49.001Z</time></trkpt><trkpt lat="38.65595814719037" lon="16.367021641163635"><ele>618.0</ele><time>2026-04-11T15:40:50.001Z</time></trkpt><trkpt lat="38.65600051637975" lon="16.367151464275516"><ele>617.8333333333334</ele><time>2026-04-11T15:40:51.001Z</time></trkpt><trkpt lat="38.65604070415328" lon="16.367244966517184"><ele>617.6666666666666</ele><time>2026-04-11T15:40:52.001Z</time></trkpt><trkpt lat="38.656083937314925" lon="16.367328444728866"><ele>617.5</ele><time>2026-04-11T15:40:53.001Z</time></trkpt><trkpt lat="38.6561427554304" lon="16.367400683755445"><ele>617.3333333333333</ele><time>2026-04-11T15:40:54.001Z</time></trkpt><trkpt lat="38.656208222323095" lon="16.36747141648894"><ele>617.1666666666666</ele><time>2026-04-11T15:40:55.001Z</time></trkpt><trkpt lat="38.6562784308148" lon="16.367527938628402"><ele>617.0</ele><time>2026-04-11T15:40:56.001Z</time></trkpt><trkpt lat="38.656358948905066" lon="16.367596235089312"><ele>617.0</ele><time>2026-04-11T15:40:57.001Z</time></trkpt><trkpt lat="38.65643546553048" lon="16.367662508483686"><ele>617.0</ele><time>2026-04-11T15:40:58.001Z</time></trkpt><trkpt lat="38.656502387040895" lon="16.36771677369653"><ele>617.0</ele><time>2026-04-11T15:40:59.001Z</time></trkpt><trkpt lat="38.65656849706865" lon="16.36776746284601"><ele>617.0</ele><time>2026-04-11T15:41:00.001Z</time></trkpt><trkpt lat="38.65665581179984" lon="16.367854623995733"><ele>617.0</ele><time>2026-04-11T15:41:02.001Z</time></trkpt><trkpt lat="38.65663066928315" lon="16.36793958150589"><ele>617.0</ele><time>2026-04-11T15:41:06.001Z</time></trkpt><trkpt lat="38.65660246922812" lon="16.368043356165636"><ele>615.25</ele><time>2026-04-11T15:41:20.001Z</time></trkpt><trkpt lat="38.656539072448254" lon="16.368161754431828"><ele>613.5</ele><time>2026-04-11T15:41:22.001Z</time></trkpt><trkpt lat="38.65648816909642" lon="16.368256820269355"><ele>611.75</ele><time>2026-04-11T15:41:23.001Z</time></trkpt><trkpt lat="38.656409060011086" lon="16.368404829758873"><ele>610.0</ele><time>2026-04-11T15:41:24.001Z</time></trkpt><trkpt lat="38.65631116692688" lon="16.368587527881576"><ele>610.0</ele><time>2026-04-11T15:41:25.001Z</time></trkpt><trkpt lat="38.65620410474622" lon="16.368784388494223"><ele>610.0</ele><time>2026-04-11T15:41:26.001Z</time></trkpt><trkpt lat="38.65609443515472" lon="16.36898766590761"><ele>610.0</ele><time>2026-04-11T15:41:27.001Z</time></trkpt><trkpt lat="38.655993384565804" lon="16.369182421052493"><ele>608.0</ele><time>2026-04-11T15:41:28.001Z</time></trkpt><trkpt lat="38.655902957167626" lon="16.36937334381931"><ele>606.0</ele><time>2026-04-11T15:41:29.001Z</time></trkpt><trkpt lat="38.65583259875349" lon="16.36958392221459"><ele>604.0</ele><time>2026-04-11T15:41:30.001Z</time></trkpt><trkpt lat="38.655769902728274" lon="16.36979296163597"><ele>603.3333333333334</ele><time>2026-04-11T15:41:31.001Z</time></trkpt><trkpt lat="38.6557092485423" lon="16.369984254417506"><ele>602.6666666666666</ele><time>2026-04-11T15:41:32.001Z</time></trkpt><trkpt lat="38.65564274370517" lon="16.37016988266079"><ele>602.0</ele><time>2026-04-11T15:41:33.001Z</time></trkpt><trkpt lat="38.655563612600176" lon="16.370339003505347"><ele>602.0</ele><time>2026-04-11T15:41:34.001Z</time></trkpt><trkpt lat="38.65547220454463" lon="16.370499329018177"><ele>602.0</ele><time>2026-04-11T15:41:35.001Z</time></trkpt><trkpt lat="38.655377317814924" lon="16.370659922723696"><ele>602.0</ele><time>2026-04-11T15:41:36.001Z</time></trkpt><trkpt lat="38.65528027111548" lon="16.370810591261712"><ele>601.5</ele><time>2026-04-11T15:41:37.001Z</time></trkpt><trkpt lat="38.65519118352823" lon="16.37095563925081"><ele>601.0</ele><time>2026-04-11T15:41:38.001Z</time></trkpt><trkpt lat="38.655059692464135" lon="16.371059950080898"><ele>600.5</ele><time>2026-04-11T15:41:39.001Z</time></trkpt><trkpt lat="38.65494992428781" lon="16.37117813935991"><ele>600.0</ele><time>2026-04-11T15:41:40.001Z</time></trkpt><trkpt lat="38.6548388474316" lon="16.371298158695684"><ele>599.75</ele><time>2026-04-11T15:41:41.001Z</time></trkpt><trkpt lat="38.654728282931345" lon="16.371421193422048"><ele>599.5</ele><time>2026-04-11T15:41:42.001Z</time></trkpt><trkpt lat="38.65461879381483" lon="16.371546030351364"><ele>599.25</ele><time>2026-04-11T15:41:43.001Z</time></trkpt><trkpt lat="38.65451580161344" lon="16.371668167772203"><ele>599.0</ele><time>2026-04-11T15:41:44.001Z</time></trkpt><trkpt lat="38.65441932346476" lon="16.371777113060276"><ele>599.0</ele><time>2026-04-11T15:41:45.001Z</time></trkpt><trkpt lat="38.65431374621855" lon="16.371876413908684"><ele>599.0</ele><time>2026-04-11T15:41:46.001Z</time></trkpt><trkpt lat="38.65421058809411" lon="16.371982994720025"><ele>599.0</ele><time>2026-04-11T15:41:47.001Z</time></trkpt><trkpt lat="38.65408014115026" lon="16.372061263039132"><ele>599.0</ele><time>2026-04-11T15:41:48.001Z</time></trkpt><trkpt lat="38.65395094091457" lon="16.372161666281066"><ele>598.6666666666666</ele><time>2026-04-11T15:41:49.001Z</time></trkpt><trkpt lat="38.65381382911777" lon="16.372265830959407"><ele>598.3333333333334</ele><time>2026-04-11T15:41:50.001Z</time></trkpt><trkpt lat="38.65368715516263" lon="16.3723663592915"><ele>598.0</ele><time>2026-04-11T15:41:51.001Z</time></trkpt><trkpt lat="38.653573350918826" lon="16.372476147912057"><ele>598.0</ele><time>2026-04-11T15:41:52.001Z</time></trkpt><trkpt lat="38.6534658747669" lon="16.37256248613047"><ele>598.0</ele><time>2026-04-11T15:41:53.001Z</time></trkpt><trkpt lat="38.65337550411193" lon="16.372622898951914"><ele>598.0</ele><time>2026-04-11T15:41:54.001Z</time></trkpt><trkpt lat="38.65328142760464" lon="16.372676152559567"><ele>598.0</ele><time>2026-04-11T15:41:55.001Z</time></trkpt><trkpt lat="38.65322214770058" lon="16.37272341045615"><ele>598.0</ele><time>2026-04-11T15:41:56Z</time></trkpt><trkpt lat="38.65316598179141" lon="16.37282990622984"><ele>598.0</ele><time>2026-04-11T15:41:58Z</time></trkpt><trkpt lat="38.653122001551644" lon="16.372893031592287"><ele>598.0</ele><time>2026-04-11T15:42:00Z</time></trkpt><trkpt lat="38.653258317840084" lon="16.372705879397103"><ele>598.0</ele><time>2026-04-11T15:42:11Z</time></trkpt><trkpt lat="38.65333247076087" lon="16.372678319473724"><ele>598.0</ele><time>2026-04-11T15:42:14Z</time></trkpt><trkpt lat="38.65339931110947" lon="16.37263234494838"><ele>598.0</ele><time>2026-04-11T15:42:15Z</time></trkpt><trkpt lat="38.65346870661374" lon="16.37257814558938"><ele>598.0</ele><time>2026-04-11T15:42:16Z</time></trkpt><trkpt lat="38.65353744415006" lon="16.372521270306954"><ele>598.0</ele><time>2026-04-11T15:42:17Z</time></trkpt><trkpt lat="38.65362686843438" lon="16.3724490336477"><ele>598.0</ele><time>2026-04-11T15:42:19Z</time></trkpt><trkpt lat="38.653712873543" lon="16.372430741580548"><ele>598.0</ele><time>2026-04-11T15:42:31Z</time></trkpt><trkpt lat="38.653761513412974" lon="16.372482615799164"><ele>598.0</ele><time>2026-04-11T15:42:33Z</time></trkpt><trkpt lat="38.65380100948203" lon="16.37259607118645"><ele>598.0</ele><time>2026-04-11T15:42:35Z</time></trkpt><trkpt lat="38.65388582450902" lon="16.37266912961646"><ele>598.0</ele><time>2026-04-11T15:42:36Z</time></trkpt><trkpt lat="38.65400602346907" lon="16.372765733293765"><ele>598.0</ele><time>2026-04-11T15:42:37Z</time></trkpt><trkpt lat="38.65409662723691" lon="16.37284808106299"><ele>598.0</ele><time>2026-04-11T15:42:38Z</time></trkpt><trkpt lat="38.65416252710524" lon="16.3729205303908"><ele>598.0</ele><time>2026-04-11T15:42:39Z</time></trkpt><trkpt lat="38.654226184551796" lon="16.372998272559542"><ele>598.0</ele><time>2026-04-11T15:42:40Z</time></trkpt><trkpt lat="38.654291118969894" lon="16.37310423459462"><ele>597.3333333333334</ele><time>2026-04-11T15:42:41Z</time></trkpt><trkpt lat="38.65438940841967" lon="16.373254129455514"><ele>596.6666666666666</ele><time>2026-04-11T15:42:42Z</time></trkpt><trkpt lat="38.65449855633276" lon="16.373419508472388"><ele>596.0</ele><time>2026-04-11T15:42:43Z</time></trkpt><trkpt lat="38.654591729794845" lon="16.373555143807586"><ele>595.2</ele><time>2026-04-11T15:42:44Z</time></trkpt><trkpt lat="38.654653092567926" lon="16.37366264320046"><ele>594.4000000000001</ele><time>2026-04-11T15:42:45.001Z</time></trkpt><trkpt lat="38.65469322919667" lon="16.37376006151178"><ele>593.6</ele><time>2026-04-11T15:42:46.001Z</time></trkpt><trkpt lat="38.65470597055237" lon="16.37387936317169"><ele>592.8000000000001</ele><time>2026-04-11T15:42:47.001Z</time></trkpt><trkpt lat="38.65472764760009" lon="16.374021947867895"><ele>592.0</ele><time>2026-04-11T15:42:48.001Z</time></trkpt><trkpt lat="38.654745899041146" lon="16.37417202110772"><ele>591.3333333333334</ele><time>2026-04-11T15:42:49.001Z</time></trkpt><trkpt lat="38.654763142691316" lon="16.374301993015752"><ele>590.6666666666667</ele><time>2026-04-11T15:42:50.001Z</time></trkpt><trkpt lat="38.65477984085287" lon="16.37443347836017"><ele>590.0</ele><time>2026-04-11T15:42:51.001Z</time></trkpt><trkpt lat="38.65479023127168" lon="16.374544664711024"><ele>589.3333333333334</ele><time>2026-04-11T15:42:52.001Z</time></trkpt><trkpt lat="38.65480985105115" lon="16.374625331364463"><ele>588.6666666666666</ele><time>2026-04-11T15:42:53.001Z</time></trkpt><trkpt lat="38.65482638358723" lon="16.374723074200432"><ele>588.0</ele><time>2026-04-11T15:42:55.001Z</time></trkpt><trkpt lat="38.65497537479905" lon="16.37471333272575"><ele>588.0</ele><time>2026-04-11T15:42:56.001Z</time></trkpt><trkpt lat="38.65506552940479" lon="16.374720664820828"><ele>588.0</ele><time>2026-04-11T15:42:57.001Z</time></trkpt><trkpt lat="38.65516824980127" lon="16.374738065693407"><ele>588.0</ele><time>2026-04-11T15:42:58.001Z</time></trkpt><trkpt lat="38.655255955741076" lon="16.37478868424458"><ele>588.0</ele><time>2026-04-11T15:42:59.001Z</time></trkpt><trkpt lat="38.65534270457543" lon="16.374826872095607"><ele>588.0</ele><time>2026-04-11T15:43:00.001Z</time></trkpt><trkpt lat="38.655429975328545" lon="16.374854843921216"><ele>587.4</ele><time>2026-04-11T15:43:01.001Z</time></trkpt><trkpt lat="38.65549559605474" lon="16.374920320109656"><ele>586.8</ele><time>2026-04-11T15:43:02.001Z</time></trkpt><trkpt lat="38.6555888712666" lon="16.37496306662841"><ele>586.2</ele><time>2026-04-11T15:43:03.001Z</time></trkpt><trkpt lat="38.655688691994186" lon="16.37502087373356"><ele>585.6</ele><time>2026-04-11T15:43:04.001Z</time></trkpt><trkpt lat="38.65578200698189" lon="16.375074220468644"><ele>585.0</ele><time>2026-04-11T15:43:05.001Z</time></trkpt><trkpt lat="38.65588600981411" lon="16.375113704687298"><ele>585.0</ele><time>2026-04-11T15:43:06.001Z</time></trkpt><trkpt lat="38.65599624246612" lon="16.375140199671677"><ele>585.0</ele><time>2026-04-11T15:43:07.001Z</time></trkpt><trkpt lat="38.65610651742675" lon="16.3751637116079"><ele>585.0</ele><time>2026-04-11T15:43:08.001Z</time></trkpt><trkpt lat="38.65621937163228" lon="16.375192412464703"><ele>585.0</ele><time>2026-04-11T15:43:09.001Z</time></trkpt><trkpt lat="38.65632041595961" lon="16.375239935044515"><ele>585.0</ele><time>2026-04-11T15:43:10.001Z</time></trkpt><trkpt lat="38.65642945081458" lon="16.37528109613747"><ele>584.75</ele><time>2026-04-11T15:43:11.001Z</time></trkpt><trkpt lat="38.656556242493785" lon="16.37533338317675"><ele>584.5</ele><time>2026-04-11T15:43:12.001Z</time></trkpt><trkpt lat="38.6566845983535" lon="16.375437730442545"><ele>584.25</ele><time>2026-04-11T15:43:13.001Z</time></trkpt><trkpt lat="38.65680729232886" lon="16.375561496074482"><ele>584.0</ele><time>2026-04-11T15:43:14.001Z</time></trkpt><trkpt lat="38.6569347143035" lon="16.375689040296706"><ele>579.6666666666666</ele><time>2026-04-11T15:43:15.001Z</time></trkpt><trkpt lat="38.65707519368227" lon="16.37581171655021"><ele>575.3333333333334</ele><time>2026-04-11T15:43:16.001Z</time></trkpt><trkpt lat="38.657196636514115" lon="16.37592488962152"><ele>571.0</ele><time>2026-04-11T15:43:17.001Z</time></trkpt><trkpt lat="38.657303958726786" lon="16.376049247983076"><ele>571.0</ele><time>2026-04-11T15:43:18.001Z</time></trkpt><trkpt lat="38.65739534859617" lon="16.376179682523418"><ele>571.0</ele><time>2026-04-11T15:43:19.001Z</time></trkpt><trkpt lat="38.6574867513212" lon="16.376342509501974"><ele>571.0</ele><time>2026-04-11T15:43:20.001Z</time></trkpt><trkpt lat="38.65754863586749" lon="16.37647334968578"><ele>571.0</ele><time>2026-04-11T15:43:21.001Z</time></trkpt><trkpt lat="38.65761447392944" lon="16.37658355976871"><ele>571.0</ele><time>2026-04-11T15:43:22.001Z</time></trkpt><trkpt lat="38.657666953013404" lon="16.376660826163704"><ele>571.0</ele><time>2026-04-11T15:43:23.001Z</time></trkpt><trkpt lat="38.65772778318065" lon="16.376733164788643"><ele>571.0</ele><time>2026-04-11T15:43:24.001Z</time></trkpt><trkpt lat="38.6577907992559" lon="16.376793931080893"><ele>571.0</ele><time>2026-04-11T15:43:25.001Z</time></trkpt><trkpt lat="38.657829936346815" lon="16.37685728805012"><ele>571.0</ele><time>2026-04-11T15:43:27.001Z</time></trkpt><trkpt lat="38.65788552298767" lon="16.376934757173586"><ele>571.0</ele><time>2026-04-11T15:43:31.001Z</time></trkpt><trkpt lat="38.65795284433117" lon="16.376975009739333"><ele>573.0</ele><time>2026-04-11T15:43:33.001Z</time></trkpt><trkpt lat="38.65786877815712" lon="16.37704036973086"><ele>575.0</ele><time>2026-04-11T15:43:34.001Z</time></trkpt><trkpt lat="38.65786078294278" lon="16.37713343577045"><ele>577.0</ele><time>2026-04-11T15:43:35.001Z</time></trkpt><trkpt lat="38.65785656756642" lon="16.377256936354993"><ele>579.0</ele><time>2026-04-11T15:43:37.001Z</time></trkpt><trkpt lat="38.657838393601" lon="16.377361971675096"><ele>581.0</ele><time>2026-04-11T15:44:38Z</time></trkpt><trkpt lat="38.65785558096981" lon="16.377207363261604"><ele>581.0</ele><time>2026-04-11T15:45:19.001Z</time></trkpt><trkpt lat="38.65780234443663" lon="16.37738138745468"><ele>581.0</ele><time>2026-04-11T15:45:21.001Z</time></trkpt><trkpt lat="38.65786987098344" lon="16.377081076178406"><ele>581.0</ele><time>2026-04-11T15:45:24.001Z</time></trkpt><trkpt lat="38.65791832904613" lon="16.3768849135431"><ele>581.0</ele><time>2026-04-11T15:45:27.001Z</time></trkpt><trkpt lat="38.657875843571134" lon="16.376813826843343"><ele>581.0</ele><time>2026-04-11T15:45:31.001Z</time></trkpt><trkpt lat="38.65787795312989" lon="16.376921339938836"><ele>581.0</ele><time>2026-04-11T15:45:35.001Z</time></trkpt><trkpt lat="38.65787497243781" lon="16.377017587027808"><ele>581.0</ele><time>2026-04-11T15:45:37.001Z</time></trkpt><trkpt lat="38.65788218170524" lon="16.377105441437394"><ele>581.0</ele><time>2026-04-11T15:45:40.001Z</time></trkpt><trkpt lat="38.657882188807626" lon="16.377211998411337"><ele>581.0</ele><time>2026-04-11T15:48:51Z</time></trkpt><trkpt lat="38.65786123041933" lon="16.37731970979163"><ele>581.0</ele><time>2026-04-11T15:48:53Z</time></trkpt><trkpt lat="38.65784526670306" lon="16.377474934465575"><ele>581.0</ele><time>2026-04-11T15:48:54Z</time></trkpt><trkpt lat="38.65780518536051" lon="16.377583630403585"><ele>581.0</ele><time>2026-04-11T15:48:55Z</time></trkpt><trkpt lat="38.657784775049436" lon="16.377738330001318"><ele>581.0</ele><time>2026-04-11T15:48:56Z</time></trkpt><trkpt lat="38.657762744013894" lon="16.37789830056645"><ele>576.3333333333333</ele><time>2026-04-11T15:48:57Z</time></trkpt><trkpt lat="38.657737873454714" lon="16.378078889320133"><ele>571.6666666666666</ele><time>2026-04-11T15:48:58Z</time></trkpt><trkpt lat="38.657711973533125" lon="16.378278669656623"><ele>567.0</ele><time>2026-04-11T15:48:59Z</time></trkpt><trkpt lat="38.657693126407025" lon="16.378471975316938"><ele>567.0</ele><time>2026-04-11T15:49:00Z</time></trkpt><trkpt lat="38.65768131495626" lon="16.37865482900438"><ele>567.0</ele><time>2026-04-11T15:49:01Z</time></trkpt><trkpt lat="38.657693831250825" lon="16.378830654305876"><ele>567.0</ele><time>2026-04-11T15:49:02Z</time></trkpt><trkpt lat="38.65769505944543" lon="16.379004436608135"><ele>567.0</ele><time>2026-04-11T15:49:03Z</time></trkpt><trkpt lat="38.65770642000841" lon="16.37918388388858"><ele>566.25</ele><time>2026-04-11T15:49:04Z</time></trkpt><trkpt lat="38.6577078727514" lon="16.379367517316496"><ele>565.5</ele><time>2026-04-11T15:49:05Z</time></trkpt><trkpt lat="38.65775121522826" lon="16.37953822566201"><ele>564.75</ele><time>2026-04-11T15:49:06Z</time></trkpt><trkpt lat="38.65777490024256" lon="16.379718451199256"><ele>564.0</ele><time>2026-04-11T15:49:07Z</time></trkpt><trkpt lat="38.65779364261138" lon="16.379909653310314"><ele>562.6666666666666</ele><time>2026-04-11T15:49:08Z</time></trkpt><trkpt lat="38.657803921885936" lon="16.380108135038274"><ele>561.3333333333333</ele><time>2026-04-11T15:49:09Z</time></trkpt><trkpt lat="38.65778552181495" lon="16.380312933919104"><ele>560.0</ele><time>2026-04-11T15:49:10Z</time></trkpt><trkpt lat="38.65778295453093" lon="16.380507517614962"><ele>559.0</ele><time>2026-04-11T15:49:11Z</time></trkpt><trkpt lat="38.6577803631573" lon="16.380692916789815"><ele>558.0</ele><time>2026-04-11T15:49:12Z</time></trkpt><trkpt lat="38.65779135981012" lon="16.380868474460655"><ele>557.0</ele><time>2026-04-11T15:49:13Z</time></trkpt><trkpt lat="38.65777658192736" lon="16.38103495534992"><ele>556.0</ele><time>2026-04-11T15:49:14Z</time></trkpt><trkpt lat="38.657748516342025" lon="16.38119168301489"><ele>556.0</ele><time>2026-04-11T15:49:15Z</time></trkpt><trkpt lat="38.657714685235256" lon="16.38134681461498"><ele>556.0</ele><time>2026-04-11T15:49:16Z</time></trkpt><trkpt lat="38.65766640368033" lon="16.381493781580048"><ele>556.0</ele><time>2026-04-11T15:49:17.001Z</time></trkpt><trkpt lat="38.65765349899228" lon="16.3816488517624"><ele>556.0</ele><time>2026-04-11T15:49:18.001Z</time></trkpt><trkpt lat="38.65763169497826" lon="16.381810313729225"><ele>555.0</ele><time>2026-04-11T15:49:19.001Z</time></trkpt><trkpt lat="38.65765187517021" lon="16.381975936771973"><ele>554.0</ele><time>2026-04-11T15:49:20.001Z</time></trkpt><trkpt lat="38.65768422979284" lon="16.382132224735848"><ele>553.0</ele><time>2026-04-11T15:49:21.001Z</time></trkpt><trkpt lat="38.65772890811538" lon="16.382268663702206"><ele>552.0</ele><time>2026-04-11T15:49:22.001Z</time></trkpt><trkpt lat="38.657764631081925" lon="16.3823795887251"><ele>553.0</ele><time>2026-04-11T15:49:23.001Z</time></trkpt><trkpt lat="38.65785622412127" lon="16.382455059436637"><ele>554.0</ele><time>2026-04-11T15:49:24.001Z</time></trkpt><trkpt lat="38.657946639353625" lon="16.382508906574273"><ele>555.0</ele><time>2026-04-11T15:49:25.001Z</time></trkpt><trkpt lat="38.65804874859724" lon="16.38255773943791"><ele>556.0</ele><time>2026-04-11T15:49:26.001Z</time></trkpt><trkpt lat="38.65816159263467" lon="16.382599959934947"><ele>557.0</ele><time>2026-04-11T15:49:27.001Z</time></trkpt><trkpt lat="38.65826359747361" lon="16.382638798796307"><ele>557.0</ele><time>2026-04-11T15:49:28.001Z</time></trkpt><trkpt lat="38.65835318204098" lon="16.382637163955696"><ele>557.0</ele><time>2026-04-11T15:49:29.001Z</time></trkpt><trkpt lat="38.65842293147536" lon="16.382589727477075"><ele>557.0</ele><time>2026-04-11T15:49:30.001Z</time></trkpt><trkpt lat="38.65847488114783" lon="16.382493565847685"><ele>557.0</ele><time>2026-04-11T15:49:31.001Z</time></trkpt><trkpt lat="38.658528633663714" lon="16.38237956285218"><ele>557.0</ele><time>2026-04-11T15:49:32.001Z</time></trkpt><trkpt lat="38.65858479946835" lon="16.382228130914708"><ele>558.25</ele><time>2026-04-11T15:49:33.001Z</time></trkpt><trkpt lat="38.6586647760526" lon="16.38212829527364"><ele>559.5</ele><time>2026-04-11T15:49:34.001Z</time></trkpt><trkpt lat="38.6587568135235" lon="16.382037011546366"><ele>560.75</ele><time>2026-04-11T15:49:35.001Z</time></trkpt><trkpt lat="38.658870946493934" lon="16.381987340426843"><ele>562.0</ele><time>2026-04-11T15:49:36.001Z</time></trkpt><trkpt lat="38.65899877959778" lon="16.381959005610288"><ele>562.0</ele><time>2026-04-11T15:49:37.001Z</time></trkpt><trkpt lat="38.65913927648052" lon="16.38190753450547"><ele>562.0</ele><time>2026-04-11T15:49:38.001Z</time></trkpt><trkpt lat="38.659281800651016" lon="16.381881733814186"><ele>562.0</ele><time>2026-04-11T15:49:39.001Z</time></trkpt><trkpt lat="38.65944098195917" lon="16.381820292124708"><ele>556.6666666666667</ele><time>2026-04-11T15:49:40.001Z</time></trkpt><trkpt lat="38.65958662384224" lon="16.381733592561606"><ele>551.3333333333334</ele><time>2026-04-11T15:49:41.001Z</time></trkpt><trkpt lat="38.65974461185902" lon="16.381642465090955"><ele>546.0</ele><time>2026-04-11T15:49:42.001Z</time></trkpt><trkpt lat="38.65987052675672" lon="16.38152359335044"><ele>546.0</ele><time>2026-04-11T15:49:43.001Z</time></trkpt><trkpt lat="38.6599994901999" lon="16.381436639614726"><ele>546.0</ele><time>2026-04-11T15:49:44.001Z</time></trkpt><trkpt lat="38.660127019905396" lon="16.381395605397298"><ele>546.0</ele><time>2026-04-11T15:49:45.001Z</time></trkpt><trkpt lat="38.66023649291931" lon="16.38134701071073"><ele>546.0</ele><time>2026-04-11T15:49:46.001Z</time></trkpt><trkpt lat="38.66034508738566" lon="16.38130038156852"><ele>545.75</ele><time>2026-04-11T15:49:47.001Z</time></trkpt><trkpt lat="38.66043777783646" lon="16.381183938901962"><ele>545.5</ele><time>2026-04-11T15:49:48.001Z</time></trkpt><trkpt lat="38.660505236510616" lon="16.381018752570462"><ele>545.25</ele><time>2026-04-11T15:49:49.001Z</time></trkpt><trkpt lat="38.660553312571025" lon="16.380918672605375"><ele>545.0</ele><time>2026-04-11T15:49:50.001Z</time></trkpt><trkpt lat="38.660597164047935" lon="16.38081576173363"><ele>545.0</ele><time>2026-04-11T15:49:51.001Z</time></trkpt><trkpt lat="38.66067575410383" lon="16.38076882532787"><ele>545.0</ele><time>2026-04-11T15:49:52.001Z</time></trkpt><trkpt lat="38.660754966898885" lon="16.380802165619254"><ele>545.0</ele><time>2026-04-11T15:49:53.001Z</time></trkpt><trkpt lat="38.66081810301321" lon="16.380846532726355"><ele>545.0</ele><time>2026-04-11T15:49:54.001Z</time></trkpt><trkpt lat="38.660890454582585" lon="16.380913960490926"><ele>545.0</ele><time>2026-04-11T15:49:55.001Z</time></trkpt><trkpt lat="38.66097946711533" lon="16.38096938242262"><ele>545.0</ele><time>2026-04-11T15:49:56.001Z</time></trkpt><trkpt lat="38.66107605011158" lon="16.380965893192535"><ele>544.6</ele><time>2026-04-11T15:49:57.001Z</time></trkpt><trkpt lat="38.6611690971195" lon="16.38094361474035"><ele>544.2</ele><time>2026-04-11T15:49:58.001Z</time></trkpt><trkpt lat="38.66126163710161" lon="16.38088900285608"><ele>543.8</ele><time>2026-04-11T15:49:59.001Z</time></trkpt><trkpt lat="38.66132980893943" lon="16.38079301802461"><ele>543.4</ele><time>2026-04-11T15:50:00.001Z</time></trkpt><trkpt lat="38.661455038432294" lon="16.380747524109193"><ele>543.0</ele><time>2026-04-11T15:50:01.001Z</time></trkpt><trkpt lat="38.66156926802685" lon="16.380783867797778"><ele>543.0</ele><time>2026-04-11T15:50:02.001Z</time></trkpt><trkpt lat="38.661605794802085" lon="16.38098816814992"><ele>543.0</ele><time>2026-04-11T15:50:03.001Z</time></trkpt><trkpt lat="38.66151787787471" lon="16.380798814439995"><ele>543.0</ele><time>2026-04-11T15:50:04.001Z</time></trkpt><trkpt lat="38.66156380539359" lon="16.380898463541428"><ele>543.0</ele><time>2026-04-11T15:50:05.001Z</time></trkpt><trkpt lat="38.661580324573464" lon="16.38099896665303"><ele>543.0</ele><time>2026-04-11T15:50:06.001Z</time></trkpt><trkpt lat="38.661560343768485" lon="16.381104115635253"><ele>543.0</ele><time>2026-04-11T15:50:07.001Z</time></trkpt><trkpt lat="38.66150790737926" lon="16.381230115331405"><ele>543.0</ele><time>2026-04-11T15:50:08.001Z</time></trkpt><trkpt lat="38.66143048645319" lon="16.38137408755849"><ele>543.0</ele><time>2026-04-11T15:50:09.001Z</time></trkpt><trkpt lat="38.66133687684884" lon="16.38154184912681"><ele>545.0</ele><time>2026-04-11T15:50:10.001Z</time></trkpt><trkpt lat="38.66123817919156" lon="16.38172307965918"><ele>547.0</ele><time>2026-04-11T15:50:11.001Z</time></trkpt><trkpt lat="38.661151586562795" lon="16.38191801911663"><ele>549.0</ele><time>2026-04-11T15:50:12.001Z</time></trkpt><trkpt lat="38.66102828267873" lon="16.382104491637506"><ele>546.0</ele><time>2026-04-11T15:50:13.001Z</time></trkpt><trkpt lat="38.660895402090404" lon="16.382305551879888"><ele>543.0</ele><time>2026-04-11T15:50:14.001Z</time></trkpt><trkpt lat="38.660751511400285" lon="16.38249033034594"><ele>540.0</ele><time>2026-04-11T15:50:15.001Z</time></trkpt><trkpt lat="38.660602698023546" lon="16.38270844095334"><ele>540.0</ele><time>2026-04-11T15:50:16.001Z</time></trkpt><trkpt lat="38.660460162693134" lon="16.382943049118982"><ele>540.0</ele><time>2026-04-11T15:50:17.001Z</time></trkpt><trkpt lat="38.660322723564256" lon="16.38315529816099"><ele>540.0</ele><time>2026-04-11T15:50:18.001Z</time></trkpt><trkpt lat="38.66019019788583" lon="16.38334139260497"><ele>539.0</ele><time>2026-04-11T15:50:19.001Z</time></trkpt><trkpt lat="38.66006690750549" lon="16.383513192450827"><ele>538.0</ele><time>2026-04-11T15:50:20.001Z</time></trkpt><trkpt lat="38.65995560293665" lon="16.38367318442378"><ele>537.0</ele><time>2026-04-11T15:50:21.001Z</time></trkpt><trkpt lat="38.65987381293611" lon="16.383802499859907"><ele>538.0</ele><time>2026-04-11T15:50:22.001Z</time></trkpt><trkpt lat="38.65981200700369" lon="16.383943175592673"><ele>539.0</ele><time>2026-04-11T15:50:23.001Z</time></trkpt><trkpt lat="38.65976790587106" lon="16.38407327998724"><ele>540.0</ele><time>2026-04-11T15:50:24Z</time></trkpt><trkpt lat="38.65976827895681" lon="16.384216892833596"><ele>541.0</ele><time>2026-04-11T15:50:25Z</time></trkpt><trkpt lat="38.65979431862825" lon="16.384353260616084"><ele>541.0</ele><time>2026-04-11T15:50:26Z</time></trkpt><trkpt lat="38.659844818248374" lon="16.384557027014765"><ele>541.0</ele><time>2026-04-11T15:50:27Z</time></trkpt><trkpt lat="38.65989386777507" lon="16.384700407837084"><ele>541.0</ele><time>2026-04-11T15:50:28Z</time></trkpt><trkpt lat="38.65993850204908" lon="16.38490088122573"><ele>539.5</ele><time>2026-04-11T15:50:29Z</time></trkpt><trkpt lat="38.65997665997825" lon="16.385069246753655"><ele>538.0</ele><time>2026-04-11T15:50:30Z</time></trkpt><trkpt lat="38.66001545190771" lon="16.38522075979811"><ele>536.5</ele><time>2026-04-11T15:50:31Z</time></trkpt><trkpt lat="38.66009597230475" lon="16.385344954440384"><ele>535.0</ele><time>2026-04-11T15:50:32Z</time></trkpt><trkpt lat="38.66017926589728" lon="16.385449994306555"><ele>536.0</ele><time>2026-04-11T15:50:33Z</time></trkpt><trkpt lat="38.660295468723916" lon="16.38549210821647"><ele>537.0</ele><time>2026-04-11T15:50:34Z</time></trkpt><trkpt lat="38.660394141940245" lon="16.385529963697003"><ele>538.0</ele><time>2026-04-11T15:50:35Z</time></trkpt><trkpt lat="38.66049385889373" lon="16.3856516309521"><ele>539.0</ele><time>2026-04-11T15:50:36Z</time></trkpt><trkpt lat="38.66054993785666" lon="16.385783134637325"><ele>539.0</ele><time>2026-04-11T15:50:37Z</time></trkpt><trkpt lat="38.6605789195949" lon="16.385930008850977"><ele>539.0</ele><time>2026-04-11T15:50:38Z</time></trkpt><trkpt lat="38.66059686411011" lon="16.386070929775926"><ele>539.0</ele><time>2026-04-11T15:50:39Z</time></trkpt><trkpt lat="38.660627520446894" lon="16.386222351401056"><ele>539.0</ele><time>2026-04-11T15:50:40Z</time></trkpt><trkpt lat="38.66066909208201" lon="16.386319493128276"><ele>539.0</ele><time>2026-04-11T15:50:41Z</time></trkpt><trkpt lat="38.660719662375925" lon="16.386403505746422"><ele>539.0</ele><time>2026-04-11T15:50:42Z</time></trkpt><trkpt lat="38.66079714799255" lon="16.386442795631694"><ele>539.0</ele><time>2026-04-11T15:50:43Z</time></trkpt><trkpt lat="38.66087967768408" lon="16.386433352067954"><ele>539.0</ele><time>2026-04-11T15:50:44Z</time></trkpt><trkpt lat="38.6609774479301" lon="16.38639040171284"><ele>539.0</ele><time>2026-04-11T15:50:45Z</time></trkpt><trkpt lat="38.66108714609513" lon="16.386329339087585"><ele>539.0</ele><time>2026-04-11T15:50:46Z</time></trkpt><trkpt lat="38.6612156119897" lon="16.386250197874446"><ele>539.75</ele><time>2026-04-11T15:50:47Z</time></trkpt><trkpt lat="38.66135551022577" lon="16.386189413594398"><ele>540.5</ele><time>2026-04-11T15:50:48Z</time></trkpt><trkpt lat="38.66148754704038" lon="16.386102373359307"><ele>541.25</ele><time>2026-04-11T15:50:49Z</time></trkpt><trkpt lat="38.661614609054546" lon="16.38603541275425"><ele>542.0</ele><time>2026-04-11T15:50:50Z</time></trkpt><trkpt lat="38.66173127412202" lon="16.386033160926164"><ele>542.0</ele><time>2026-04-11T15:50:51Z</time></trkpt><trkpt lat="38.661831934956176" lon="16.38608725627893"><ele>542.0</ele><time>2026-04-11T15:50:52Z</time></trkpt><trkpt lat="38.66194844762018" lon="16.38618235861369"><ele>542.0</ele><time>2026-04-11T15:50:53Z</time></trkpt><trkpt lat="38.66209686934418" lon="16.386300909263603"><ele>542.0</ele><time>2026-04-11T15:50:54Z</time></trkpt><trkpt lat="38.662271764958625" lon="16.386436313063644"><ele>537.3333333333333</ele><time>2026-04-11T15:50:55Z</time></trkpt><trkpt lat="38.662425914651635" lon="16.386584003127524"><ele>532.6666666666666</ele><time>2026-04-11T15:50:56Z</time></trkpt><trkpt lat="38.662539445232774" lon="16.386693307092145"><ele>528.0</ele><time>2026-04-11T15:50:57Z</time></trkpt><trkpt lat="38.66266550643437" lon="16.386757378770163"><ele>527.0</ele><time>2026-04-11T15:50:58Z</time></trkpt><trkpt lat="38.662802053290356" lon="16.386782756270993"><ele>526.0</ele><time>2026-04-11T15:50:59Z</time></trkpt><trkpt lat="38.66294830096516" lon="16.386760972912686"><ele>525.0</ele><time>2026-04-11T15:51:00Z</time></trkpt><trkpt lat="38.66310336987707" lon="16.38668280459991"><ele>525.0</ele><time>2026-04-11T15:51:01Z</time></trkpt><trkpt lat="38.66323561373931" lon="16.386591298059624"><ele>525.0</ele><time>2026-04-11T15:51:02Z</time></trkpt><trkpt lat="38.663378055429234" lon="16.386591753544757"><ele>525.0</ele><time>2026-04-11T15:51:03Z</time></trkpt><trkpt lat="38.663512939456304" lon="16.386631710881545"><ele>525.0</ele><time>2026-04-11T15:51:04Z</time></trkpt><trkpt lat="38.663642521583604" lon="16.38674305762656"><ele>525.3333333333334</ele><time>2026-04-11T15:51:05Z</time></trkpt><trkpt lat="38.663778618158794" lon="16.386883784621325"><ele>525.6666666666667</ele><time>2026-04-11T15:51:06Z</time></trkpt><trkpt lat="38.66391451451166" lon="16.387047693859238"><ele>526.0</ele><time>2026-04-11T15:51:07Z</time></trkpt><trkpt lat="38.66401128367373" lon="16.387200161531254"><ele>526.0</ele><time>2026-04-11T15:51:08Z</time></trkpt><trkpt lat="38.664044776978876" lon="16.38736021603315"><ele>526.0</ele><time>2026-04-11T15:51:09Z</time></trkpt><trkpt lat="38.664065010150594" lon="16.3875516481435"><ele>526.0</ele><time>2026-04-11T15:51:10Z</time></trkpt><trkpt lat="38.664119483066635" lon="16.387753856246167"><ele>526.0</ele><time>2026-04-11T15:51:11Z</time></trkpt><trkpt lat="38.66417426904899" lon="16.38797586452408"><ele>526.0</ele><time>2026-04-11T15:51:12Z</time></trkpt><trkpt lat="38.66429124453414" lon="16.388174339816718"><ele>526.0</ele><time>2026-04-11T15:51:13Z</time></trkpt><trkpt lat="38.66440133958938" lon="16.388324753857223"><ele>526.0</ele><time>2026-04-11T15:51:14Z</time></trkpt><trkpt lat="38.66449361805926" lon="16.388421273862324"><ele>526.0</ele><time>2026-04-11T15:51:15Z</time></trkpt><trkpt lat="38.664591110371184" lon="16.388485245599256"><ele>526.0</ele><time>2026-04-11T15:51:16Z</time></trkpt><trkpt lat="38.664710486145616" lon="16.388487582064553"><ele>526.0</ele><time>2026-04-11T15:51:17Z</time></trkpt><trkpt lat="38.66482778608343" lon="16.38846076093973"><ele>526.0</ele><time>2026-04-11T15:51:18Z</time></trkpt><trkpt lat="38.664981999200435" lon="16.388365552050814"><ele>526.0</ele><time>2026-04-11T15:51:19Z</time></trkpt><trkpt lat="38.66513555481851" lon="16.38828713227301"><ele>526.0</ele><time>2026-04-11T15:51:20Z</time></trkpt><trkpt lat="38.665307576939334" lon="16.388244165001222"><ele>526.0</ele><time>2026-04-11T15:51:21Z</time></trkpt><trkpt lat="38.66545274452468" lon="16.388218394077416"><ele>526.0</ele><time>2026-04-11T15:51:22Z</time></trkpt><trkpt lat="38.665574257583984" lon="16.388223618883266"><ele>526.0</ele><time>2026-04-11T15:51:23Z</time></trkpt><trkpt lat="38.66566963400919" lon="16.38830014626405"><ele>526.0</ele><time>2026-04-11T15:51:24Z</time></trkpt><trkpt lat="38.66573449347905" lon="16.388426719109486"><ele>526.0</ele><time>2026-04-11T15:51:25Z</time></trkpt><trkpt lat="38.66573776913764" lon="16.388594346656607"><ele>526.0</ele><time>2026-04-11T15:51:26Z</time></trkpt><trkpt lat="38.66578490782576" lon="16.38880608595335"><ele>526.0</ele><time>2026-04-11T15:51:27Z</time></trkpt><trkpt lat="38.66583480270598" lon="16.38901251945212"><ele>526.0</ele><time>2026-04-11T15:51:28Z</time></trkpt><trkpt lat="38.66588645676811" lon="16.38923034400757"><ele>524.0</ele><time>2026-04-11T15:51:29Z</time></trkpt><trkpt lat="38.66594064021115" lon="16.389463396169376"><ele>522.0</ele><time>2026-04-11T15:51:30Z</time></trkpt><trkpt lat="38.66599872201139" lon="16.38971203649395"><ele>520.0</ele><time>2026-04-11T15:51:31Z</time></trkpt><trkpt lat="38.66605115648961" lon="16.389935788705756"><ele>520.0</ele><time>2026-04-11T15:51:32.001Z</time></trkpt><trkpt lat="38.66609476584947" lon="16.39013508621576"><ele>520.0</ele><time>2026-04-11T15:51:33.001Z</time></trkpt><trkpt lat="38.666143900503144" lon="16.39031108095878"><ele>520.0</ele><time>2026-04-11T15:51:34.001Z</time></trkpt><trkpt lat="38.66614879694587" lon="16.390485544272188"><ele>520.0</ele><time>2026-04-11T15:51:35.001Z</time></trkpt><trkpt lat="38.66613003445938" lon="16.39065935178311"><ele>520.5</ele><time>2026-04-11T15:51:36.001Z</time></trkpt><trkpt lat="38.66607113834143" lon="16.390830842569997"><ele>521.0</ele><time>2026-04-11T15:51:37.001Z</time></trkpt><trkpt lat="38.666016991146186" lon="16.391006933652807"><ele>521.5</ele><time>2026-04-11T15:51:38.001Z</time></trkpt><trkpt lat="38.665971787795534" lon="16.39118460952637"><ele>522.0</ele><time>2026-04-11T15:51:39.001Z</time></trkpt><trkpt lat="38.665952647379434" lon="16.391365953644875"><ele>522.6</ele><time>2026-04-11T15:51:40.001Z</time></trkpt><trkpt lat="38.6659432717028" lon="16.39153402490004"><ele>523.2</ele><time>2026-04-11T15:51:41.001Z</time></trkpt><trkpt lat="38.66593715869316" lon="16.3916852975116"><ele>523.8</ele><time>2026-04-11T15:51:42.001Z</time></trkpt><trkpt lat="38.665919275220325" lon="16.391813103756764"><ele>524.4</ele><time>2026-04-11T15:51:43.001Z</time></trkpt><trkpt lat="38.66588937112273" lon="16.391907725917616"><ele>525.0</ele><time>2026-04-11T15:51:44.001Z</time></trkpt><trkpt lat="38.66582511827967" lon="16.391955197519387"><ele>525.0</ele><time>2026-04-11T15:51:45.001Z</time></trkpt><trkpt lat="38.665758618705404" lon="16.39197118559719"><ele>525.0</ele><time>2026-04-11T15:51:46.001Z</time></trkpt><trkpt lat="38.665687597171555" lon="16.391969843195685"><ele>525.0</ele><time>2026-04-11T15:51:47.001Z</time></trkpt><trkpt lat="38.665616684224716" lon="16.39198284064338"><ele>525.0</ele><time>2026-04-11T15:51:48.001Z</time></trkpt><trkpt lat="38.665552849527806" lon="16.39201332687697"><ele>525.0</ele><time>2026-04-11T15:51:49.001Z</time></trkpt><trkpt lat="38.66543383932735" lon="16.392037528333514"><ele>525.0</ele><time>2026-04-11T15:51:51.001Z</time></trkpt><trkpt lat="38.66533254796444" lon="16.392061800037215"><ele>524.8</ele><time>2026-04-11T15:51:53.001Z</time></trkpt><trkpt lat="38.66526074154334" lon="16.392109369740258"><ele>524.6</ele><time>2026-04-11T15:51:55.001Z</time></trkpt><trkpt lat="38.66536667420179" lon="16.392211286508516"><ele>524.4</ele><time>2026-04-11T15:51:58.001Z</time></trkpt><trkpt lat="38.665427575847524" lon="16.39230231324452"><ele>524.2</ele><time>2026-04-11T15:52:16.001Z</time></trkpt><trkpt lat="38.665513940117386" lon="16.392398511270407"><ele>524.0</ele><time>2026-04-11T15:52:18.001Z</time></trkpt><trkpt lat="38.665569789496544" lon="16.3924535492584"><ele>525.0</ele><time>2026-04-11T15:52:19.001Z</time></trkpt><trkpt lat="38.66561498027852" lon="16.39255706594462"><ele>526.0</ele><time>2026-04-11T15:52:20.001Z</time></trkpt><trkpt lat="38.66569146068043" lon="16.39264623638131"><ele>527.0</ele><time>2026-04-11T15:52:21.001Z</time></trkpt><trkpt lat="38.66575250558963" lon="16.39274924299768"><ele>528.0</ele><time>2026-04-11T15:52:22.001Z</time></trkpt><trkpt lat="38.66582078097633" lon="16.39285209538156"><ele>529.0</ele><time>2026-04-11T15:52:23.001Z</time></trkpt><trkpt lat="38.66588972157835" lon="16.392942245701693"><ele>529.0</ele><time>2026-04-11T15:52:24.001Z</time></trkpt><trkpt lat="38.66595236437483" lon="16.39299387070789"><ele>529.0</ele><time>2026-04-11T15:52:25.001Z</time></trkpt><trkpt lat="38.666033990190606" lon="16.393020566545736"><ele>529.0</ele><time>2026-04-11T15:52:26Z</time></trkpt><trkpt lat="38.666115544503064" lon="16.393043328505897"><ele>529.0</ele><time>2026-04-11T15:52:27Z</time></trkpt><trkpt lat="38.666213423720116" lon="16.393041400522243"><ele>529.0</ele><time>2026-04-11T15:52:28Z</time></trkpt><trkpt lat="38.66631057222137" lon="16.393043188654772"><ele>529.0</ele><time>2026-04-11T15:52:29Z</time></trkpt><trkpt lat="38.66640777666477" lon="16.39305334520241"><ele>531.0</ele><time>2026-04-11T15:52:30Z</time></trkpt><trkpt lat="38.666501111213876" lon="16.39307277768638"><ele>533.0</ele><time>2026-04-11T15:52:31Z</time></trkpt><trkpt lat="38.66657880441567" lon="16.39311524175837"><ele>535.0</ele><time>2026-04-11T15:52:32Z</time></trkpt><trkpt lat="38.66664589692488" lon="16.393174903105077"><ele>537.0</ele><time>2026-04-11T15:52:33Z</time></trkpt><trkpt lat="38.666689520925296" lon="16.393268744840693"><ele>539.0</ele><time>2026-04-11T15:52:34Z</time></trkpt><trkpt lat="38.66672566141048" lon="16.393368813384317"><ele>541.0</ele><time>2026-04-11T15:52:35Z</time></trkpt><trkpt lat="38.66676492655904" lon="16.39347568145504"><ele>541.0</ele><time>2026-04-11T15:52:36Z</time></trkpt><trkpt lat="38.66681408838953" lon="16.393577668109604"><ele>541.0</ele><time>2026-04-11T15:52:37Z</time></trkpt><trkpt lat="38.666867898029906" lon="16.393687795637035"><ele>541.0</ele><time>2026-04-11T15:52:38Z</time></trkpt><trkpt lat="38.66691341920756" lon="16.393807697818517"><ele>541.0</ele><time>2026-04-11T15:52:39Z</time></trkpt><trkpt lat="38.666961137079845" lon="16.393918636412028"><ele>541.0</ele><time>2026-04-11T15:52:40Z</time></trkpt><trkpt lat="38.66700696150058" lon="16.39401180428141"><ele>541.75</ele><time>2026-04-11T15:52:41Z</time></trkpt><trkpt lat="38.66706542074602" lon="16.39411811365804"><ele>542.5</ele><time>2026-04-11T15:52:42Z</time></trkpt><trkpt lat="38.667136257598834" lon="16.39425171949505"><ele>543.25</ele><time>2026-04-11T15:52:43Z</time></trkpt><trkpt lat="38.667224342809234" lon="16.394406699615214"><ele>544.0</ele><time>2026-04-11T15:52:44Z</time></trkpt><trkpt lat="38.66730829969202" lon="16.394571907274745"><ele>544.3333333333334</ele><time>2026-04-11T15:52:45Z</time></trkpt><trkpt lat="38.66740288485739" lon="16.394750307414917"><ele>544.6666666666666</ele><time>2026-04-11T15:52:46Z</time></trkpt><trkpt lat="38.667494303397966" lon="16.394896547649825"><ele>545.0</ele><time>2026-04-11T15:52:47Z</time></trkpt><trkpt lat="38.66760070325847" lon="16.395025982239503"><ele>545.0</ele><time>2026-04-11T15:52:48Z</time></trkpt><trkpt lat="38.667722578773365" lon="16.39513656143897"><ele>545.0</ele><time>2026-04-11T15:52:49Z</time></trkpt><trkpt lat="38.667855485016275" lon="16.395219837187415"><ele>545.0</ele><time>2026-04-11T15:52:50Z</time></trkpt><trkpt lat="38.66798482374206" lon="16.395311582922144"><ele>545.0</ele><time>2026-04-11T15:52:51Z</time></trkpt><trkpt lat="38.66810202495568" lon="16.39541600663404"><ele>544.3333333333333</ele><time>2026-04-11T15:52:52Z</time></trkpt><trkpt lat="38.66819025947762" lon="16.39557070494154"><ele>543.6666666666666</ele><time>2026-04-11T15:52:53Z</time></trkpt><trkpt lat="38.66828249952116" lon="16.39574955099835"><ele>543.0</ele><time>2026-04-11T15:52:54Z</time></trkpt><trkpt lat="38.6683721841875" lon="16.395933139858865"><ele>543.0</ele><time>2026-04-11T15:52:55Z</time></trkpt><trkpt lat="38.66845903254905" lon="16.396137649905555"><ele>543.0</ele><time>2026-04-11T15:52:56Z</time></trkpt><trkpt lat="38.66854186611423" lon="16.396363977408946"><ele>543.0</ele><time>2026-04-11T15:52:57Z</time></trkpt><trkpt lat="38.668612682049186" lon="16.39660308432064"><ele>544.3333333333334</ele><time>2026-04-11T15:52:58Z</time></trkpt><trkpt lat="38.668672894743544" lon="16.396813497681272"><ele>545.6666666666667</ele><time>2026-04-11T15:52:59Z</time></trkpt><trkpt lat="38.668728567468776" lon="16.397009890657067"><ele>547.0</ele><time>2026-04-11T15:53:00Z</time></trkpt><trkpt lat="38.66879140319459" lon="16.397212336798063"><ele>547.0</ele><time>2026-04-11T15:53:01Z</time></trkpt><trkpt lat="38.66886254004161" lon="16.397387595153702"><ele>547.0</ele><time>2026-04-11T15:53:02Z</time></trkpt><trkpt lat="38.66895115622165" lon="16.397555095586288"><ele>547.0</ele><time>2026-04-11T15:53:03Z</time></trkpt><trkpt lat="38.66906117859984" lon="16.39772144564337"><ele>547.0</ele><time>2026-04-11T15:53:04Z</time></trkpt><trkpt lat="38.66916389700324" lon="16.39790024038037"><ele>547.0</ele><time>2026-04-11T15:53:05Z</time></trkpt><trkpt lat="38.66927457410627" lon="16.39806172044369"><ele>547.0</ele><time>2026-04-11T15:53:06Z</time></trkpt><trkpt lat="38.66939144513223" lon="16.398197298197253"><ele>544.0</ele><time>2026-04-11T15:53:07Z</time></trkpt><trkpt lat="38.66951149792285" lon="16.398322091221612"><ele>541.0</ele><time>2026-04-11T15:53:08Z</time></trkpt><trkpt lat="38.669639596189796" lon="16.398450499324035"><ele>538.0</ele><time>2026-04-11T15:53:09Z</time></trkpt><trkpt lat="38.669753490412894" lon="16.398601051122508"><ele>538.0</ele><time>2026-04-11T15:53:10Z</time></trkpt><trkpt lat="38.66988328089706" lon="16.398732787746656"><ele>538.0</ele><time>2026-04-11T15:53:11Z</time></trkpt><trkpt lat="38.67002715627156" lon="16.398851186544356"><ele>538.0</ele><time>2026-04-11T15:53:12Z</time></trkpt><trkpt lat="38.67016276315272" lon="16.398978432190567"><ele>536.3333333333334</ele><time>2026-04-11T15:53:13Z</time></trkpt><trkpt lat="38.67030405220712" lon="16.399098321883315"><ele>534.6666666666666</ele><time>2026-04-11T15:53:14Z</time></trkpt><trkpt lat="38.67044139669742" lon="16.39923581816365"><ele>533.0</ele><time>2026-04-11T15:53:15Z</time></trkpt><trkpt lat="38.670604196803716" lon="16.39932717501381"><ele>533.0</ele><time>2026-04-11T15:53:16Z</time></trkpt><trkpt lat="38.670765913145594" lon="16.399435966372554"><ele>533.0</ele><time>2026-04-11T15:53:17Z</time></trkpt><trkpt lat="38.67092828014498" lon="16.39953830598443"><ele>533.0</ele><time>2026-04-11T15:53:18Z</time></trkpt><trkpt lat="38.67108481755176" lon="16.39963253771273"><ele>532.3333333333333</ele><time>2026-04-11T15:53:19Z</time></trkpt><trkpt lat="38.67123104062161" lon="16.399730162303623"><ele>531.6666666666666</ele><time>2026-04-11T15:53:20Z</time></trkpt><trkpt lat="38.671348044847804" lon="16.399879811124258"><ele>531.0</ele><time>2026-04-11T15:53:21Z</time></trkpt><trkpt lat="38.67147128110726" lon="16.400051728290343"><ele>531.0</ele><time>2026-04-11T15:53:22Z</time></trkpt><trkpt lat="38.67162157142521" lon="16.40019074555151"><ele>531.0</ele><time>2026-04-11T15:53:23Z</time></trkpt><trkpt lat="38.67177307589876" lon="16.400365273741244"><ele>531.0</ele><time>2026-04-11T15:53:24Z</time></trkpt><trkpt lat="38.67193031237606" lon="16.400521304425872"><ele>531.0</ele><time>2026-04-11T15:53:25Z</time></trkpt><trkpt lat="38.672073088995866" lon="16.40065523986199"><ele>531.0</ele><time>2026-04-11T15:53:26Z</time></trkpt><trkpt lat="38.67219957502544" lon="16.40078557367373"><ele>531.0</ele><time>2026-04-11T15:53:27Z</time></trkpt><trkpt lat="38.67231531737261" lon="16.40092283793024"><ele>531.0</ele><time>2026-04-11T15:53:28Z</time></trkpt><trkpt lat="38.672452758604045" lon="16.401059984896758"><ele>531.0</ele><time>2026-04-11T15:53:29Z</time></trkpt><trkpt lat="38.67259131494229" lon="16.40119624076709"><ele>531.0</ele><time>2026-04-11T15:53:30Z</time></trkpt><trkpt lat="38.67273093222125" lon="16.40132903370441"><ele>529.3333333333334</ele><time>2026-04-11T15:53:31Z</time></trkpt><trkpt lat="38.67288303254576" lon="16.40145218154355"><ele>527.6666666666667</ele><time>2026-04-11T15:53:32Z</time></trkpt><trkpt lat="38.67303973333808" lon="16.40156279729589"><ele>526.0</ele><time>2026-04-11T15:53:33Z</time></trkpt><trkpt lat="38.67319514567344" lon="16.401659254073017"><ele>526.0</ele><time>2026-04-11T15:53:34Z</time></trkpt><trkpt lat="38.67330332081103" lon="16.401795270066142"><ele>526.0</ele><time>2026-04-11T15:53:35Z</time></trkpt><trkpt lat="38.67340467909212" lon="16.40191792372631"><ele>526.0</ele><time>2026-04-11T15:53:36Z</time></trkpt><trkpt lat="38.67349674151316" lon="16.40203646477178"><ele>526.0</ele><time>2026-04-11T15:53:37Z</time></trkpt><trkpt lat="38.673583278467" lon="16.402130598848427"><ele>524.8</ele><time>2026-04-11T15:53:38Z</time></trkpt><trkpt lat="38.67363854491372" lon="16.40221705790893"><ele>523.6</ele><time>2026-04-11T15:53:39Z</time></trkpt><trkpt lat="38.673703834244975" lon="16.40231360265904"><ele>522.4</ele><time>2026-04-11T15:53:41Z</time></trkpt><trkpt lat="38.67373743376726" lon="16.40241339307652"><ele>521.2</ele><time>2026-04-11T15:53:44Z</time></trkpt><trkpt lat="38.67382860189482" lon="16.40253936193739"><ele>520.0</ele><time>2026-04-11T15:53:46Z</time></trkpt><trkpt lat="38.67390779490914" lon="16.40260717617201"><ele>520.0</ele><time>2026-04-11T15:53:47Z</time></trkpt><trkpt lat="38.67398780447578" lon="16.40265380087233"><ele>520.0</ele><time>2026-04-11T15:53:48Z</time></trkpt><trkpt lat="38.674058649835295" lon="16.40270284840136"><ele>520.0</ele><time>2026-04-11T15:53:49Z</time></trkpt><trkpt lat="38.6741263570147" lon="16.402738256775958"><ele>520.0</ele><time>2026-04-11T15:53:50Z</time></trkpt><trkpt lat="38.674195131906544" lon="16.40276883578555"><ele>520.0</ele><time>2026-04-11T15:53:51Z</time></trkpt><trkpt lat="38.67426449110993" lon="16.402798070360134"><ele>520.0</ele><time>2026-04-11T15:53:52Z</time></trkpt><trkpt lat="38.67434405643381" lon="16.402834472855602"><ele>519.5</ele><time>2026-04-11T15:53:53Z</time></trkpt><trkpt lat="38.67444743971166" lon="16.402886236054183"><ele>519.0</ele><time>2026-04-11T15:53:54Z</time></trkpt><trkpt lat="38.674556880343296" lon="16.40294416493006"><ele>518.5</ele><time>2026-04-11T15:53:55Z</time></trkpt><trkpt lat="38.674666437206724" lon="16.403012380443432"><ele>518.0</ele><time>2026-04-11T15:53:56Z</time></trkpt><trkpt lat="38.67476375515299" lon="16.40307972925807"><ele>518.0</ele><time>2026-04-11T15:53:57Z</time></trkpt><trkpt lat="38.67485024368723" lon="16.403154764871335"><ele>518.0</ele><time>2026-04-11T15:53:58Z</time></trkpt><trkpt lat="38.674927023349355" lon="16.40323349049794"><ele>518.0</ele><time>2026-04-11T15:53:59Z</time></trkpt><trkpt lat="38.67496708376418" lon="16.40332403484339"><ele>518.0</ele><time>2026-04-11T15:54:00Z</time></trkpt><trkpt lat="38.67500056369447" lon="16.403397998305124"><ele>518.0</ele><time>2026-04-11T15:54:01Z</time></trkpt><trkpt lat="38.67503865639158" lon="16.403478462968696"><ele>518.0</ele><time>2026-04-11T15:54:02Z</time></trkpt><trkpt lat="38.675165085220264" lon="16.403508292708818"><ele>518.0</ele><time>2026-04-11T15:54:03Z</time></trkpt><trkpt lat="38.675242021120006" lon="16.403608383909834"><ele>518.0</ele><time>2026-04-11T15:54:04Z</time></trkpt><trkpt lat="38.6753351018084" lon="16.403718893321848"><ele>518.0</ele><time>2026-04-11T15:54:05Z</time></trkpt><trkpt lat="38.67543589388716" lon="16.403841146161195"><ele>518.0</ele><time>2026-04-11T15:54:06Z</time></trkpt><trkpt lat="38.6755214308951" lon="16.403945922471074"><ele>516.75</ele><time>2026-04-11T15:54:07Z</time></trkpt><trkpt lat="38.67562749872683" lon="16.404079807733403"><ele>515.5</ele><time>2026-04-11T15:54:08Z</time></trkpt><trkpt lat="38.67573858373916" lon="16.40420527630112"><ele>514.25</ele><time>2026-04-11T15:54:09Z</time></trkpt><trkpt lat="38.67583986364001" lon="16.404332272780284"><ele>513.0</ele><time>2026-04-11T15:54:10Z</time></trkpt><trkpt lat="38.675948150928434" lon="16.404469993929315"><ele>513.0</ele><time>2026-04-11T15:54:11Z</time></trkpt><trkpt lat="38.67605813881581" lon="16.404614391875693"><ele>513.0</ele><time>2026-04-11T15:54:12Z</time></trkpt><trkpt lat="38.676171003329586" lon="16.404759280395233"><ele>513.0</ele><time>2026-04-11T15:54:13Z</time></trkpt><trkpt lat="38.67628437247452" lon="16.404908728334828"><ele>511.33333333333337</ele><time>2026-04-11T15:54:14Z</time></trkpt><trkpt lat="38.67639075966674" lon="16.405061151312623"><ele>509.6666666666667</ele><time>2026-04-11T15:54:15.001Z</time></trkpt><trkpt lat="38.67649623754556" lon="16.405216708298802"><ele>508.0</ele><time>2026-04-11T15:54:16.001Z</time></trkpt><trkpt lat="38.67659506677501" lon="16.40538450514252"><ele>509.6666666666667</ele><time>2026-04-11T15:54:17.001Z</time></trkpt><trkpt lat="38.676696894786986" lon="16.40555365796865"><ele>511.33333333333337</ele><time>2026-04-11T15:54:18.001Z</time></trkpt><trkpt lat="38.6768021181554" lon="16.405715966925122"><ele>513.0</ele><time>2026-04-11T15:54:19.001Z</time></trkpt><trkpt lat="38.676921439293004" lon="16.4058676149485"><ele>514.0</ele><time>2026-04-11T15:54:20.001Z</time></trkpt><trkpt lat="38.677048213274446" lon="16.40601567940922"><ele>515.0</ele><time>2026-04-11T15:54:21.001Z</time></trkpt><trkpt lat="38.67718368214555" lon="16.406127249592178"><ele>516.0</ele><time>2026-04-11T15:54:22.001Z</time></trkpt><trkpt lat="38.67732401007081" lon="16.40623273249605"><ele>516.0</ele><time>2026-04-11T15:54:23.001Z</time></trkpt><trkpt lat="38.677463263749225" lon="16.40631281732586"><ele>516.0</ele><time>2026-04-11T15:54:24.001Z</time></trkpt><trkpt lat="38.67759941919673" lon="16.406370701150305"><ele>516.0</ele><time>2026-04-11T15:54:25.001Z</time></trkpt><trkpt lat="38.677727326783305" lon="16.406407507975317"><ele>516.0</ele><time>2026-04-11T15:54:26.001Z</time></trkpt><trkpt lat="38.67783646297113" lon="16.406444468153747"><ele>518.2</ele><time>2026-04-11T15:54:27.001Z</time></trkpt><trkpt lat="38.677938490572295" lon="16.406482756421532"><ele>520.4000000000001</ele><time>2026-04-11T15:54:28.001Z</time></trkpt><trkpt lat="38.678049150369844" lon="16.406503417588702"><ele>522.6</ele><time>2026-04-11T15:54:29.001Z</time></trkpt><trkpt lat="38.67815830404695" lon="16.40652436006198"><ele>524.8000000000001</ele><time>2026-04-11T15:54:30.001Z</time></trkpt><trkpt lat="38.67827531082409" lon="16.406542157724868"><ele>527.0</ele><time>2026-04-11T15:54:31.001Z</time></trkpt><trkpt lat="38.678409472742814" lon="16.406550185252062"><ele>527.0</ele><time>2026-04-11T15:54:32Z</time></trkpt><trkpt lat="38.678548133026894" lon="16.406560960305004"><ele>527.0</ele><time>2026-04-11T15:54:33Z</time></trkpt><trkpt lat="38.67869096646962" lon="16.40656296566651"><ele>527.0</ele><time>2026-04-11T15:54:34Z</time></trkpt><trkpt lat="38.67883704208012" lon="16.40655313232228"><ele>527.0</ele><time>2026-04-11T15:54:35Z</time></trkpt><trkpt lat="38.678979685725515" lon="16.406551767615575"><ele>527.25</ele><time>2026-04-11T15:54:36Z</time></trkpt><trkpt lat="38.67912571477854" lon="16.40657981199778"><ele>527.5</ele><time>2026-04-11T15:54:37Z</time></trkpt><trkpt lat="38.67926562545938" lon="16.40660712843161"><ele>527.75</ele><time>2026-04-11T15:54:38Z</time></trkpt><trkpt lat="38.67939832372394" lon="16.406658319582743"><ele>528.0</ele><time>2026-04-11T15:54:39Z</time></trkpt><trkpt lat="38.67953356455902" lon="16.406711071707726"><ele>526.5</ele><time>2026-04-11T15:54:40Z</time></trkpt><trkpt lat="38.67966645367773" lon="16.406750590989013"><ele>525.0</ele><time>2026-04-11T15:54:41Z</time></trkpt><trkpt lat="38.67979429124348" lon="16.406785390215646"><ele>523.5</ele><time>2026-04-11T15:54:42Z</time></trkpt><trkpt lat="38.67992204689517" lon="16.406812734441413"><ele>522.0</ele><time>2026-04-11T15:54:43Z</time></trkpt><trkpt lat="38.68004345390971" lon="16.406839787628858"><ele>522.0</ele><time>2026-04-11T15:54:44Z</time></trkpt><trkpt lat="38.68016158931509" lon="16.40688011699411"><ele>522.0</ele><time>2026-04-11T15:54:45Z</time></trkpt><trkpt lat="38.68027394002681" lon="16.40696712830355"><ele>522.0</ele><time>2026-04-11T15:54:46Z</time></trkpt><trkpt lat="38.68040226579404" lon="16.407052938411404"><ele>522.0</ele><time>2026-04-11T15:54:47Z</time></trkpt><trkpt lat="38.68054386019451" lon="16.407137835022596"><ele>522.0</ele><time>2026-04-11T15:54:48Z</time></trkpt><trkpt lat="38.680672599743225" lon="16.40725173279861"><ele>522.0</ele><time>2026-04-11T15:54:49Z</time></trkpt><trkpt lat="38.68078916031639" lon="16.407379308303938"><ele>522.0</ele><time>2026-04-11T15:54:50Z</time></trkpt><trkpt lat="38.680900781474165" lon="16.407515911304692"><ele>522.0</ele><time>2026-04-11T15:54:51Z</time></trkpt><trkpt lat="38.68100951813393" lon="16.407659020364513"><ele>522.0</ele><time>2026-04-11T15:54:52Z</time></trkpt><trkpt lat="38.68111226548938" lon="16.407792660343944"><ele>522.0</ele><time>2026-04-11T15:54:53Z</time></trkpt><trkpt lat="38.68121006475693" lon="16.407911458186966"><ele>522.0</ele><time>2026-04-11T15:54:54Z</time></trkpt><trkpt lat="38.68129704524582" lon="16.407998282471574"><ele>522.6666666666666</ele><time>2026-04-11T15:54:55Z</time></trkpt><trkpt lat="38.68137675241287" lon="16.40806728027158"><ele>523.3333333333334</ele><time>2026-04-11T15:54:56Z</time></trkpt><trkpt lat="38.68144006291128" lon="16.408117802144623"><ele>524.0</ele><time>2026-04-11T15:54:57Z</time></trkpt><trkpt lat="38.681497871477674" lon="16.408154056364165"><ele>524.6666666666667</ele><time>2026-04-11T15:54:58Z</time></trkpt><trkpt lat="38.68158283358007" lon="16.408203982421657"><ele>525.3333333333334</ele><time>2026-04-11T15:55:00Z</time></trkpt><trkpt lat="38.68164690234586" lon="16.408255268054685"><ele>526.0</ele><time>2026-04-11T15:55:03Z</time></trkpt><trkpt lat="38.681776126586776" lon="16.408092947908752"><ele>526.0</ele><time>2026-04-11T15:55:05Z</time></trkpt><trkpt lat="38.6818323309332" lon="16.40801932611399"><ele>526.0</ele><time>2026-04-11T15:55:06Z</time></trkpt><trkpt lat="38.6818896907572" lon="16.407922383553124"><ele>526.0</ele><time>2026-04-11T15:55:07Z</time></trkpt><trkpt lat="38.68196033943741" lon="16.407782151565552"><ele>526.0</ele><time>2026-04-11T15:55:08Z</time></trkpt><trkpt lat="38.682034150981046" lon="16.40764650600263"><ele>526.0</ele><time>2026-04-11T15:55:09Z</time></trkpt><trkpt lat="38.682106834374" lon="16.407523859193745"><ele>524.0</ele><time>2026-04-11T15:55:10Z</time></trkpt><trkpt lat="38.68218000157576" lon="16.407397237702153"><ele>522.0</ele><time>2026-04-11T15:55:11Z</time></trkpt><trkpt lat="38.68225677926358" lon="16.407283811574363"><ele>520.0</ele><time>2026-04-11T15:55:12Z</time></trkpt><trkpt lat="38.68230063599811" lon="16.407151862858434"><ele>518.0</ele><time>2026-04-11T15:55:13Z</time></trkpt><trkpt lat="38.68236411987229" lon="16.407057521118336"><ele>516.0</ele><time>2026-04-11T15:55:14Z</time></trkpt><trkpt lat="38.682422957599826" lon="16.40697283945248"><ele>514.8333333333334</ele><time>2026-04-11T15:55:15Z</time></trkpt><trkpt lat="38.68248467670859" lon="16.40688468513469"><ele>513.6666666666666</ele><time>2026-04-11T15:55:16Z</time></trkpt><trkpt lat="38.68254743991635" lon="16.406799367102057"><ele>512.5</ele><time>2026-04-11T15:55:17Z</time></trkpt><trkpt lat="38.68260531654342" lon="16.406719088747817"><ele>511.3333333333333</ele><time>2026-04-11T15:55:18Z</time></trkpt><trkpt lat="38.68264718177169" lon="16.406631037014503"><ele>510.16666666666663</ele><time>2026-04-11T15:55:19Z</time></trkpt><trkpt lat="38.6827113282577" lon="16.406594418219676"><ele>509.0</ele><time>2026-04-11T15:55:21Z</time></trkpt><trkpt lat="38.68277584689867" lon="16.40653583847262"><ele>507.6</ele><time>2026-04-11T15:55:23Z</time></trkpt><trkpt lat="38.68292728719407" lon="16.406642913527993"><ele>506.2</ele><time>2026-04-11T15:55:25Z</time></trkpt><trkpt lat="38.68300601899203" lon="16.40669343548887"><ele>504.80000000000007</ele><time>2026-04-11T15:55:26Z</time></trkpt><trkpt lat="38.683079264693475" lon="16.406709166480013"><ele>503.40000000000003</ele><time>2026-04-11T15:55:27Z</time></trkpt><trkpt lat="38.68313875329282" lon="16.406742166922893"><ele>502.0</ele><time>2026-04-11T15:55:31Z</time></trkpt><trkpt lat="38.683248924711556" lon="16.406644715698274"><ele>502.0</ele><time>2026-04-11T15:55:40Z</time></trkpt><trkpt lat="38.68328269751592" lon="16.40653811599948"><ele>502.00000000000006</ele><time>2026-04-11T15:55:41Z</time></trkpt><trkpt lat="38.68335467192764" lon="16.406439738586727"><ele>502.00000000000006</ele><time>2026-04-11T15:55:42Z</time></trkpt><trkpt lat="38.68345945709677" lon="16.406356262367773"><ele>502.0</ele><time>2026-04-11T15:55:43Z</time></trkpt><trkpt lat="38.68357008341705" lon="16.406311207998183"><ele>502.0</ele><time>2026-04-11T15:55:44Z</time></trkpt><trkpt lat="38.68368220486635" lon="16.406300749087393"><ele>500.6666666666667</ele><time>2026-04-11T15:55:45Z</time></trkpt><trkpt lat="38.68376958074256" lon="16.406332340339898"><ele>499.33333333333337</ele><time>2026-04-11T15:55:46Z</time></trkpt><trkpt lat="38.683840758160535" lon="16.40641752933834"><ele>498.0</ele><time>2026-04-11T15:55:47Z</time></trkpt><trkpt lat="38.68389951696798" lon="16.406457660587055"><ele>496.66666666666663</ele><time>2026-04-11T15:55:48Z</time></trkpt><trkpt lat="38.68393380348336" lon="16.406535131682855"><ele>495.3333333333333</ele><time>2026-04-11T15:55:50Z</time></trkpt><trkpt lat="38.683972579188264" lon="16.406619597428566"><ele>494.0</ele><time>2026-04-11T15:55:52Z</time></trkpt><trkpt lat="38.683998074202286" lon="16.406710875101616"><ele>494.0</ele><time>2026-04-11T15:55:54Z</time></trkpt><trkpt lat="38.68400358903811" lon="16.406612184603766"><ele>494.0</ele><time>2026-04-11T15:56:04Z</time></trkpt><trkpt lat="38.68393833801336" lon="16.406561767487073"><ele>494.0</ele><time>2026-04-11T15:56:05Z</time></trkpt><trkpt lat="38.68388336613788" lon="16.406476638801355"><ele>494.0</ele><time>2026-04-11T15:56:07Z</time></trkpt><trkpt lat="38.68408544322141" lon="16.40617593158684"><ele>494.3333333333333</ele><time>2026-04-11T15:56:11Z</time></trkpt><trkpt lat="38.68414971419335" lon="16.40612286596115"><ele>494.66666666666663</ele><time>2026-04-11T15:56:12Z</time></trkpt><trkpt lat="38.684208029506614" lon="16.406055858337947"><ele>495.0</ele><time>2026-04-11T15:56:14Z</time></trkpt><trkpt lat="38.684254312773646" lon="16.4059986101432"><ele>495.33333333333337</ele><time>2026-04-11T15:56:17Z</time></trkpt><trkpt lat="38.68435590093803" lon="16.4059203933696"><ele>495.6666666666667</ele><time>2026-04-11T15:56:19Z</time></trkpt><trkpt lat="38.684422141889165" lon="16.40585401761188"><ele>496.0</ele><time>2026-04-11T15:56:20Z</time></trkpt><trkpt lat="38.68449226694087" lon="16.405764450496132"><ele>495.20000000000005</ele><time>2026-04-11T15:56:21Z</time></trkpt><trkpt lat="38.68455503616869" lon="16.405672665435247"><ele>494.40000000000003</ele><time>2026-04-11T15:56:22Z</time></trkpt><trkpt lat="38.68461957765224" lon="16.405580526163234"><ele>493.6</ele><time>2026-04-11T15:56:23Z</time></trkpt><trkpt lat="38.6846783384502" lon="16.40548642054957"><ele>492.8</ele><time>2026-04-11T15:56:24Z</time></trkpt><trkpt lat="38.68473054277295" lon="16.405395412094165"><ele>492.0</ele><time>2026-04-11T15:56:25Z</time></trkpt><trkpt lat="38.684792396224424" lon="16.4053010847903"><ele>490.40000000000003</ele><time>2026-04-11T15:56:26Z</time></trkpt><trkpt lat="38.68485010783353" lon="16.405223473913328"><ele>488.80000000000007</ele><time>2026-04-11T15:56:27Z</time></trkpt><trkpt lat="38.684941603719366" lon="16.405139543417544"><ele>487.2</ele><time>2026-04-11T15:56:29Z</time></trkpt><trkpt lat="38.685011196306604" lon="16.40510391810047"><ele>485.6</ele><time>2026-04-11T15:56:30Z</time></trkpt><trkpt lat="38.68511220248811" lon="16.405054610929227"><ele>484.0</ele><time>2026-04-11T15:56:32Z</time></trkpt><trkpt lat="38.685202765690676" lon="16.40498579369835"><ele>484.0</ele><time>2026-04-11T15:56:34Z</time></trkpt><trkpt lat="38.68522821064292" lon="16.40488709745172"><ele>484.0</ele><time>2026-04-11T15:56:35Z</time></trkpt><trkpt lat="38.68527223282192" lon="16.404816033085332"><ele>484.0</ele><time>2026-04-11T15:56:36Z</time></trkpt><trkpt lat="38.68538047258543" lon="16.40476073059017"><ele>484.0</ele><time>2026-04-11T15:56:38Z</time></trkpt><trkpt lat="38.685452767118385" lon="16.404706653644244"><ele>484.0</ele><time>2026-04-11T15:56:40Z</time></trkpt><trkpt lat="38.68558194187994" lon="16.404620677479738"><ele>480.33333333333337</ele><time>2026-04-11T15:56:42Z</time></trkpt><trkpt lat="38.68569163792756" lon="16.404642848162737"><ele>476.6666666666667</ele><time>2026-04-11T15:56:43Z</time></trkpt><trkpt lat="38.685790270799686" lon="16.404636936405726"><ele>473.0</ele><time>2026-04-11T15:56:44Z</time></trkpt><trkpt lat="38.685871759772056" lon="16.40465116628309"><ele>469.33333333333337</ele><time>2026-04-11T15:56:45Z</time></trkpt><trkpt lat="38.68594173647687" lon="16.40462491579711"><ele>465.6666666666667</ele><time>2026-04-11T15:56:46Z</time></trkpt><trkpt lat="38.68599737223459" lon="16.404552564939607"><ele>462.0</ele><time>2026-04-11T15:56:47Z</time></trkpt><trkpt lat="38.68602376111985" lon="16.404449352055444"><ele>462.0</ele><time>2026-04-11T15:56:48Z</time></trkpt><trkpt lat="38.68603878870788" lon="16.40435732753439"><ele>462.0</ele><time>2026-04-11T15:56:49Z</time></trkpt><trkpt lat="38.68600094504351" lon="16.40425933003719"><ele>462.0</ele><time>2026-04-11T15:56:50Z</time></trkpt><trkpt lat="38.68600004581123" lon="16.404176804815933"><ele>462.0</ele><time>2026-04-11T15:56:51Z</time></trkpt><trkpt lat="38.68598714700303" lon="16.404087006135107"><ele>462.0</ele><time>2026-04-11T15:56:52Z</time></trkpt><trkpt lat="38.685960565165026" lon="16.404004009820312"><ele>462.0</ele><time>2026-04-11T15:56:53Z</time></trkpt><trkpt lat="38.68596913013211" lon="16.40392328471981"><ele>462.0</ele><time>2026-04-11T15:56:54Z</time></trkpt><trkpt lat="38.685946113031" lon="16.403765447416255"><ele>461.6</ele><time>2026-04-11T15:56:56Z</time></trkpt><trkpt lat="38.68594463187859" lon="16.403638942081972"><ele>461.20000000000005</ele><time>2026-04-11T15:56:57Z</time></trkpt><trkpt lat="38.6859182611981" lon="16.40350806343757"><ele>460.8</ele><time>2026-04-11T15:56:58Z</time></trkpt><trkpt lat="38.68591985441132" lon="16.40338899496306"><ele>460.4</ele><time>2026-04-11T15:56:59Z</time></trkpt><trkpt lat="38.68594400209228" lon="16.4032792152857"><ele>460.0</ele><time>2026-04-11T15:57:00Z</time></trkpt><trkpt lat="38.686027269208424" lon="16.40320705137966"><ele>457.8</ele><time>2026-04-11T15:57:01Z</time></trkpt><trkpt lat="38.68612372144916" lon="16.403209404403718"><ele>455.6</ele><time>2026-04-11T15:57:02Z</time></trkpt><trkpt lat="38.686209962447286" lon="16.40318342681988"><ele>453.4</ele><time>2026-04-11T15:57:03Z</time></trkpt><trkpt lat="38.68631277251716" lon="16.403170174545494"><ele>451.2</ele><time>2026-04-11T15:57:04Z</time></trkpt><trkpt lat="38.686425718571584" lon="16.40314400351319"><ele>449.0</ele><time>2026-04-11T15:57:05Z</time></trkpt><trkpt lat="38.686550921226484" lon="16.403109665414114"><ele>449.0</ele><time>2026-04-11T15:57:06Z</time></trkpt><trkpt lat="38.68668381688852" lon="16.4030837298591"><ele>449.0</ele><time>2026-04-11T15:57:07Z</time></trkpt><trkpt lat="38.68683713618011" lon="16.403058648582338"><ele>449.0</ele><time>2026-04-11T15:57:08Z</time></trkpt><trkpt lat="38.68696544788314" lon="16.40303722237048"><ele>449.0</ele><time>2026-04-11T15:57:09Z</time></trkpt><trkpt lat="38.68708866920215" lon="16.403033744024178"><ele>449.25</ele><time>2026-04-11T15:57:10Z</time></trkpt><trkpt lat="38.68719993516324" lon="16.40306027977194"><ele>449.5</ele><time>2026-04-11T15:57:11Z</time></trkpt><trkpt lat="38.68730914677132" lon="16.403114903914073"><ele>449.75</ele><time>2026-04-11T15:57:12Z</time></trkpt><trkpt lat="38.68741255619859" lon="16.403186455517606"><ele>450.0</ele><time>2026-04-11T15:57:13Z</time></trkpt><trkpt lat="38.68752108760459" lon="16.403226069593142"><ele>450.0</ele><time>2026-04-11T15:57:14Z</time></trkpt><trkpt lat="38.68764488161088" lon="16.403221462546032"><ele>450.0</ele><time>2026-04-11T15:57:15Z</time></trkpt><trkpt lat="38.687764395283814" lon="16.40317466574732"><ele>450.0</ele><time>2026-04-11T15:57:16Z</time></trkpt><trkpt lat="38.687883899608735" lon="16.403096720976585"><ele>450.0</ele><time>2026-04-11T15:57:17Z</time></trkpt><trkpt lat="38.68799284429164" lon="16.402982311171534"><ele>451.0</ele><time>2026-04-11T15:57:18Z</time></trkpt><trkpt lat="38.68809303573232" lon="16.40284086724534"><ele>452.0</ele><time>2026-04-11T15:57:19Z</time></trkpt><trkpt lat="38.68817533980257" lon="16.4026970370722"><ele>453.0</ele><time>2026-04-11T15:57:20Z</time></trkpt><trkpt lat="38.688239304683464" lon="16.402543503270483"><ele>454.0</ele><time>2026-04-11T15:57:21Z</time></trkpt><trkpt lat="38.688277184595535" lon="16.402402772375098"><ele>454.0</ele><time>2026-04-11T15:57:22Z</time></trkpt><trkpt lat="38.68831475020809" lon="16.40225493960096"><ele>454.0</ele><time>2026-04-11T15:57:23Z</time></trkpt><trkpt lat="38.68837391603162" lon="16.402116898317143"><ele>454.0</ele><time>2026-04-11T15:57:24Z</time></trkpt><trkpt lat="38.68846052476087" lon="16.401990863535687"><ele>454.0</ele><time>2026-04-11T15:57:25Z</time></trkpt><trkpt lat="38.68856099416635" lon="16.401877523802636"><ele>454.75</ele><time>2026-04-11T15:57:26Z</time></trkpt><trkpt lat="38.688701572852956" lon="16.401827957598506"><ele>455.5</ele><time>2026-04-11T15:57:27Z</time></trkpt><trkpt lat="38.688848918559756" lon="16.401802960852837"><ele>456.25</ele><time>2026-04-11T15:57:28Z</time></trkpt><trkpt lat="38.68900163463884" lon="16.40178755207512"><ele>457.0</ele><time>2026-04-11T15:57:29Z</time></trkpt><trkpt lat="38.68915058325141" lon="16.401795523533906"><ele>457.0</ele><time>2026-04-11T15:57:30Z</time></trkpt><trkpt lat="38.68928506357137" lon="16.40181373992516"><ele>457.0</ele><time>2026-04-11T15:57:31Z</time></trkpt><trkpt lat="38.68940082551222" lon="16.401831978003596"><ele>457.0</ele><time>2026-04-11T15:57:32Z</time></trkpt><trkpt lat="38.68950799338889" lon="16.401842204179914"><ele>457.0</ele><time>2026-04-11T15:57:33Z</time></trkpt><trkpt lat="38.6896111123002" lon="16.40187086068372"><ele>459.25</ele><time>2026-04-11T15:57:34Z</time></trkpt><trkpt lat="38.689738554469024" lon="16.401890497969827"><ele>461.5</ele><time>2026-04-11T15:57:35Z</time></trkpt><trkpt lat="38.68985394751071" lon="16.401953542447227"><ele>463.75</ele><time>2026-04-11T15:57:36Z</time></trkpt><trkpt lat="38.68996800799917" lon="16.40201599191416"><ele>466.0</ele><time>2026-04-11T15:57:37Z</time></trkpt><trkpt lat="38.69007980605775" lon="16.402095567227644"><ele>466.0</ele><time>2026-04-11T15:57:38Z</time></trkpt><trkpt lat="38.69019849503943" lon="16.40215625433468"><ele>466.0</ele><time>2026-04-11T15:57:39Z</time></trkpt><trkpt lat="38.690310591258616" lon="16.40221958746465"><ele>466.0</ele><time>2026-04-11T15:57:40Z</time></trkpt><trkpt lat="38.6904314234337" lon="16.402254163126095"><ele>466.0</ele><time>2026-04-11T15:57:41Z</time></trkpt><trkpt lat="38.69055374306958" lon="16.40229012069919"><ele>466.25</ele><time>2026-04-11T15:57:42Z</time></trkpt><trkpt lat="38.69068322883744" lon="16.40227264142739"><ele>466.5</ele><time>2026-04-11T15:57:43Z</time></trkpt><trkpt lat="38.69080296260994" lon="16.402270071179103"><ele>466.75</ele><time>2026-04-11T15:57:44Z</time></trkpt><trkpt lat="38.690926961334476" lon="16.402248134406992"><ele>467.0</ele><time>2026-04-11T15:57:45Z</time></trkpt><trkpt lat="38.691068560663915" lon="16.40219058705366"><ele>467.75</ele><time>2026-04-11T15:57:46Z</time></trkpt><trkpt lat="38.691197910003396" lon="16.40211907312539"><ele>468.5</ele><time>2026-04-11T15:57:47Z</time></trkpt><trkpt lat="38.69132576528719" lon="16.402047278414564"><ele>469.25</ele><time>2026-04-11T15:57:48Z</time></trkpt><trkpt lat="38.69144245619766" lon="16.40199112117538"><ele>470.0</ele><time>2026-04-11T15:57:49Z</time></trkpt><trkpt lat="38.691550293301084" lon="16.401954947075158"><ele>470.0</ele><time>2026-04-11T15:57:50Z</time></trkpt><trkpt lat="38.691647308571724" lon="16.401909893291894"><ele>470.0</ele><time>2026-04-11T15:57:51Z</time></trkpt><trkpt lat="38.691736900252145" lon="16.401881382556926"><ele>470.0</ele><time>2026-04-11T15:57:52Z</time></trkpt><trkpt lat="38.69183654999436" lon="16.401899407215986"><ele>470.0</ele><time>2026-04-11T15:57:53Z</time></trkpt><trkpt lat="38.691948112109934" lon="16.401919502974003"><ele>470.0</ele><time>2026-04-11T15:57:54Z</time></trkpt><trkpt lat="38.69208763741269" lon="16.4019522606878"><ele>469.66666666666663</ele><time>2026-04-11T15:57:55Z</time></trkpt><trkpt lat="38.692237498621324" lon="16.4019878630531"><ele>469.33333333333337</ele><time>2026-04-11T15:57:56Z</time></trkpt><trkpt lat="38.69239410708392" lon="16.402015394905227"><ele>469.0</ele><time>2026-04-11T15:57:57Z</time></trkpt><trkpt lat="38.69256285361635" lon="16.402057712904952"><ele>469.0</ele><time>2026-04-11T15:57:58Z</time></trkpt><trkpt lat="38.69274486203149" lon="16.40208970052319"><ele>469.0</ele><time>2026-04-11T15:57:59Z</time></trkpt><trkpt lat="38.692897453613284" lon="16.402130122387387"><ele>469.0</ele><time>2026-04-11T15:58:00Z</time></trkpt><trkpt lat="38.693041103389056" lon="16.402178166713888"><ele>469.75</ele><time>2026-04-11T15:58:01Z</time></trkpt><trkpt lat="38.69317273599945" lon="16.40219451264337"><ele>470.5</ele><time>2026-04-11T15:58:02Z</time></trkpt><trkpt lat="38.693295942911014" lon="16.402241177911957"><ele>471.25</ele><time>2026-04-11T15:58:03Z</time></trkpt><trkpt lat="38.693398149864144" lon="16.402312456967206"><ele>472.0</ele><time>2026-04-11T15:58:04Z</time></trkpt><trkpt lat="38.69348643214539" lon="16.402424705432225"><ele>472.0</ele><time>2026-04-11T15:58:05Z</time></trkpt><trkpt lat="38.693564574459494" lon="16.402563540404923"><ele>472.0</ele><time>2026-04-11T15:58:06Z</time></trkpt><trkpt lat="38.693649049134585" lon="16.402721998080107"><ele>472.0</ele><time>2026-04-11T15:58:07Z</time></trkpt><trkpt lat="38.6937526631164" lon="16.402875365497607"><ele>472.0</ele><time>2026-04-11T15:58:08Z</time></trkpt><trkpt lat="38.69383462831843" lon="16.403036991292336"><ele>472.25</ele><time>2026-04-11T15:58:09Z</time></trkpt><trkpt lat="38.693932019391056" lon="16.40318191944557"><ele>472.5</ele><time>2026-04-11T15:58:10Z</time></trkpt><trkpt lat="38.69403508464879" lon="16.403325110504657"><ele>472.75</ele><time>2026-04-11T15:58:11Z</time></trkpt><trkpt lat="38.69415589089643" lon="16.403413003026845"><ele>473.0</ele><time>2026-04-11T15:58:12Z</time></trkpt><trkpt lat="38.694260655727646" lon="16.403499781780123"><ele>473.0</ele><time>2026-04-11T15:58:13Z</time></trkpt><trkpt lat="38.69435632126567" lon="16.403576908844595"><ele>473.0</ele><time>2026-04-11T15:58:14Z</time></trkpt><trkpt lat="38.694461262742756" lon="16.403656968567642"><ele>473.0</ele><time>2026-04-11T15:58:15Z</time></trkpt><trkpt lat="38.69457762293083" lon="16.40374509384775"><ele>473.0</ele><time>2026-04-11T15:58:16Z</time></trkpt><trkpt lat="38.69469838250102" lon="16.40384245697705"><ele>472.66666666666663</ele><time>2026-04-11T15:58:17Z</time></trkpt><trkpt lat="38.69482777810989" lon="16.403942509097906"><ele>472.33333333333337</ele><time>2026-04-11T15:58:18Z</time></trkpt><trkpt lat="38.694948318940966" lon="16.40406713818538"><ele>472.0</ele><time>2026-04-11T15:58:19Z</time></trkpt><trkpt lat="38.69507772048029" lon="16.40417194075518"><ele>472.0</ele><time>2026-04-11T15:58:20Z</time></trkpt><trkpt lat="38.69520074581662" lon="16.404271292037144"><ele>472.0</ele><time>2026-04-11T15:58:21Z</time></trkpt><trkpt lat="38.69531851146169" lon="16.40436742256158"><ele>472.0</ele><time>2026-04-11T15:58:22Z</time></trkpt><trkpt lat="38.695445771568465" lon="16.404471303222678"><ele>472.0</ele><time>2026-04-11T15:58:23Z</time></trkpt><trkpt lat="38.69557524830719" lon="16.404576992258058"><ele>472.0</ele><time>2026-04-11T15:58:24Z</time></trkpt><trkpt lat="38.6956979381398" lon="16.404677243442507"><ele>472.0</ele><time>2026-04-11T15:58:25Z</time></trkpt><trkpt lat="38.6958286699828" lon="16.40473919534641"><ele>472.0</ele><time>2026-04-11T15:58:26Z</time></trkpt><trkpt lat="38.6959379073761" lon="16.40482826562965"><ele>472.0</ele><time>2026-04-11T15:58:27Z</time></trkpt><trkpt lat="38.69604314218651" lon="16.404919958475457"><ele>471.5</ele><time>2026-04-11T15:58:28Z</time></trkpt><trkpt lat="38.696150419216224" lon="16.4050161342151"><ele>471.0</ele><time>2026-04-11T15:58:29Z</time></trkpt><trkpt lat="38.696256622966786" lon="16.405107815026287"><ele>470.5</ele><time>2026-04-11T15:58:30Z</time></trkpt><trkpt lat="38.69637096746567" lon="16.40519654197785"><ele>470.0</ele><time>2026-04-11T15:58:31Z</time></trkpt><trkpt lat="38.69648690542439" lon="16.405288653886924"><ele>470.0</ele><time>2026-04-11T15:58:32Z</time></trkpt><trkpt lat="38.6966009294155" lon="16.405379342309715"><ele>470.0</ele><time>2026-04-11T15:58:33Z</time></trkpt><trkpt lat="38.696717037043236" lon="16.40547625548733"><ele>470.0</ele><time>2026-04-11T15:58:34Z</time></trkpt><trkpt lat="38.696835229708014" lon="16.405586015412823"><ele>470.0</ele><time>2026-04-11T15:58:35Z</time></trkpt><trkpt lat="38.69696870931797" lon="16.40568530801825"><ele>468.0</ele><time>2026-04-11T15:58:36Z</time></trkpt><trkpt lat="38.69709603357366" lon="16.40581305963255"><ele>466.0</ele><time>2026-04-11T15:58:37Z</time></trkpt><trkpt lat="38.69719872810089" lon="16.405956288229888"><ele>464.0</ele><time>2026-04-11T15:58:38Z</time></trkpt><trkpt lat="38.697272460003255" lon="16.406116615371314"><ele>464.0</ele><time>2026-04-11T15:58:39Z</time></trkpt><trkpt lat="38.697328069774166" lon="16.406301250351422"><ele>464.0</ele><time>2026-04-11T15:58:40Z</time></trkpt><trkpt lat="38.69737524816147" lon="16.406513162394187"><ele>464.0</ele><time>2026-04-11T15:58:41Z</time></trkpt><trkpt lat="38.69741955628966" lon="16.406735863363586"><ele>463.66666666666663</ele><time>2026-04-11T15:58:42Z</time></trkpt><trkpt lat="38.69746322388438" lon="16.406942452252437"><ele>463.33333333333337</ele><time>2026-04-11T15:58:43Z</time></trkpt><trkpt lat="38.697486924116006" lon="16.407146032197588"><ele>463.0</ele><time>2026-04-11T15:58:44Z</time></trkpt><trkpt lat="38.697523353998704" lon="16.407326683002218"><ele>462.5</ele><time>2026-04-11T15:58:45Z</time></trkpt><trkpt lat="38.69757218979326" lon="16.407483697948795"><ele>462.0</ele><time>2026-04-11T15:58:46Z</time></trkpt><trkpt lat="38.69760079323262" lon="16.407628944000397"><ele>461.5</ele><time>2026-04-11T15:58:47Z</time></trkpt><trkpt lat="38.69762417902662" lon="16.407768027527723"><ele>461.0</ele><time>2026-04-11T15:58:48Z</time></trkpt><trkpt lat="38.697651461560326" lon="16.407895460815"><ele>461.0</ele><time>2026-04-11T15:58:49Z</time></trkpt><trkpt lat="38.69767132254422" lon="16.408001413087327"><ele>461.00000000000006</ele><time>2026-04-11T15:58:50Z</time></trkpt><trkpt lat="38.69767770277578" lon="16.408091277261434"><ele>461.0</ele><time>2026-04-11T15:58:51Z</time></trkpt><trkpt lat="38.69769168850473" lon="16.408170757078853"><ele>461.0</ele><time>2026-04-11T15:58:52Z</time></trkpt><trkpt lat="38.69770597349091" lon="16.40825052090314"><ele>461.00000000000006</ele><time>2026-04-11T15:58:53Z</time></trkpt><trkpt lat="38.69772004167578" lon="16.408329494837755"><ele>461.0</ele><time>2026-04-11T15:58:54Z</time></trkpt><trkpt lat="38.69774512190974" lon="16.40844974288565"><ele>461.0</ele><time>2026-04-11T15:58:55Z</time></trkpt><trkpt lat="38.69780941471105" lon="16.40856429273404"><ele>458.20000000000005</ele><time>2026-04-11T15:58:57Z</time></trkpt><trkpt lat="38.697920935608316" lon="16.408560825327278"><ele>455.40000000000003</ele><time>2026-04-11T15:58:59Z</time></trkpt><trkpt lat="38.6979721799662" lon="16.40849267234619"><ele>452.6</ele><time>2026-04-11T15:59:00Z</time></trkpt><trkpt lat="38.697992082218576" lon="16.408342332761084"><ele>449.8</ele><time>2026-04-11T15:59:01Z</time></trkpt><trkpt lat="38.697996687168946" lon="16.40817088661587"><ele>447.0</ele><time>2026-04-11T15:59:02Z</time></trkpt><trkpt lat="38.69804336336226" lon="16.407976274566956"><ele>447.0</ele><time>2026-04-11T15:59:03Z</time></trkpt><trkpt lat="38.69807850183163" lon="16.40779857354711"><ele>447.00000000000006</ele><time>2026-04-11T15:59:04Z</time></trkpt><trkpt lat="38.69814767040116" lon="16.407675277565986"><ele>447.00000000000006</ele><time>2026-04-11T15:59:05Z</time></trkpt><trkpt lat="38.698206315407106" lon="16.40758532553615"><ele>447.0</ele><time>2026-04-11T15:59:06Z</time></trkpt><trkpt lat="38.69825725183888" lon="16.40752466305416"><ele>447.0</ele><time>2026-04-11T15:59:07Z</time></trkpt><trkpt lat="38.69832174473214" lon="16.407526394874896"><ele>447.0</ele><time>2026-04-11T15:59:08Z</time></trkpt><trkpt lat="38.698373587492625" lon="16.40757699021627"><ele>447.0</ele><time>2026-04-11T15:59:09Z</time></trkpt><trkpt lat="38.698345088236316" lon="16.40773332960889"><ele>447.0</ele><time>2026-04-11T15:59:10Z</time></trkpt><trkpt lat="38.6983161643661" lon="16.407876055638194"><ele>447.0</ele><time>2026-04-11T15:59:11Z</time></trkpt><trkpt lat="38.698290355574485" lon="16.408059071399812"><ele>446.20000000000005</ele><time>2026-04-11T15:59:12Z</time></trkpt><trkpt lat="38.69826680838009" lon="16.408220367216032"><ele>445.40000000000003</ele><time>2026-04-11T15:59:13Z</time></trkpt><trkpt lat="38.69825746922934" lon="16.408372864233815"><ele>444.59999999999997</ele><time>2026-04-11T15:59:14Z</time></trkpt><trkpt lat="38.69823654320149" lon="16.408493059584387"><ele>443.79999999999995</ele><time>2026-04-11T15:59:15Z</time></trkpt><trkpt lat="38.698231031817656" lon="16.408587797103696"><ele>443.0</ele><time>2026-04-11T15:59:16Z</time></trkpt><trkpt lat="38.69826263461433" lon="16.408668652909817"><ele>443.0</ele><time>2026-04-11T15:59:17Z</time></trkpt><trkpt lat="38.69839936364925" lon="16.40870785710172"><ele>443.0</ele><time>2026-04-11T15:59:19Z</time></trkpt><trkpt lat="38.69849163710481" lon="16.40856676981486"><ele>443.0</ele><time>2026-04-11T15:59:20Z</time></trkpt><trkpt lat="38.69856780001602" lon="16.408427446975846"><ele>443.0</ele><time>2026-04-11T15:59:21Z</time></trkpt><trkpt lat="38.69864585066798" lon="16.408269794719068"><ele>439.5</ele><time>2026-04-11T15:59:22Z</time></trkpt><trkpt lat="38.698697983160216" lon="16.408124264185673"><ele>436.0</ele><time>2026-04-11T15:59:23Z</time></trkpt><trkpt lat="38.69873708963018" lon="16.407964809799886"><ele>432.5</ele><time>2026-04-11T15:59:24Z</time></trkpt><trkpt lat="38.698799793400596" lon="16.40784396631156"><ele>429.0</ele><time>2026-04-11T15:59:25Z</time></trkpt><trkpt lat="38.698865626419106" lon="16.407735527353704"><ele>429.0</ele><time>2026-04-11T15:59:26Z</time></trkpt><trkpt lat="38.69901440957119" lon="16.40767832620112"><ele>429.0</ele><time>2026-04-11T15:59:27Z</time></trkpt><trkpt lat="38.69909281846751" lon="16.407486440295674"><ele>429.0</ele><time>2026-04-11T15:59:28Z</time></trkpt><trkpt lat="38.69919466117625" lon="16.40733502867631"><ele>429.0</ele><time>2026-04-11T15:59:29Z</time></trkpt><trkpt lat="38.699355878489214" lon="16.40724972786593"><ele>429.0</ele><time>2026-04-11T15:59:30Z</time></trkpt><trkpt lat="38.69952521431274" lon="16.407127377839434"><ele>429.0</ele><time>2026-04-11T15:59:31Z</time></trkpt><trkpt lat="38.69966888162194" lon="16.40696464513948"><ele>427.0</ele><time>2026-04-11T15:59:32Z</time></trkpt><trkpt lat="38.69979117005058" lon="16.406816246346537"><ele>425.0</ele><time>2026-04-11T15:59:33Z</time></trkpt><trkpt lat="38.69989251528546" lon="16.406681045399907"><ele>423.0</ele><time>2026-04-11T15:59:34Z</time></trkpt><trkpt lat="38.69995714746378" lon="16.40659876793588"><ele>421.0</ele><time>2026-04-11T15:59:35Z</time></trkpt><trkpt lat="38.69999798658716" lon="16.406531791659585"><ele>421.0</ele><time>2026-04-11T15:59:36Z</time></trkpt><trkpt lat="38.700066811014885" lon="16.40652984043673"><ele>421.0</ele><time>2026-04-11T15:59:37Z</time></trkpt><trkpt lat="38.700099986320446" lon="16.4066912459679"><ele>421.0</ele><time>2026-04-11T15:59:39Z</time></trkpt><trkpt lat="38.70001051241112" lon="16.40680028467645"><ele>421.0</ele><time>2026-04-11T15:59:40Z</time></trkpt><trkpt lat="38.699923779703866" lon="16.406931411717565"><ele>421.0</ele><time>2026-04-11T15:59:41Z</time></trkpt><trkpt lat="38.69982127822168" lon="16.407111901773234"><ele>421.0</ele><time>2026-04-11T15:59:42Z</time></trkpt><trkpt lat="38.69970316676878" lon="16.40730746568291"><ele>421.0</ele><time>2026-04-11T15:59:43Z</time></trkpt><trkpt lat="38.699600914695445" lon="16.407493552763725"><ele>416.33333333333337</ele><time>2026-04-11T15:59:44Z</time></trkpt><trkpt lat="38.69952229440356" lon="16.407690774102296"><ele>411.66666666666663</ele><time>2026-04-11T15:59:45Z</time></trkpt><trkpt lat="38.69946714009948" lon="16.407926015622888"><ele>407.0</ele><time>2026-04-11T15:59:46Z</time></trkpt><trkpt lat="38.69943026014222" lon="16.408141381689557"><ele>404.0</ele><time>2026-04-11T15:59:47Z</time></trkpt><trkpt lat="38.699421133136724" lon="16.40834920963417"><ele>401.0</ele><time>2026-04-11T15:59:48Z</time></trkpt><trkpt lat="38.69943739134795" lon="16.40855101589498"><ele>398.0</ele><time>2026-04-11T15:59:49Z</time></trkpt><trkpt lat="38.699496063892866" lon="16.408759914034782"><ele>399.0</ele><time>2026-04-11T15:59:50Z</time></trkpt><trkpt lat="38.69958917384867" lon="16.408930970651117"><ele>400.0</ele><time>2026-04-11T15:59:51Z</time></trkpt><trkpt lat="38.69968801083763" lon="16.409066048934253"><ele>401.0</ele><time>2026-04-11T15:59:52Z</time></trkpt><trkpt lat="38.69979516018304" lon="16.409169573078668"><ele>402.0</ele><time>2026-04-11T15:59:53Z</time></trkpt><trkpt lat="38.69990161722874" lon="16.409257152434414"><ele>402.0</ele><time>2026-04-11T15:59:54Z</time></trkpt><trkpt lat="38.69996346243019" lon="16.40938200727464"><ele>402.0</ele><time>2026-04-11T15:59:55Z</time></trkpt><trkpt lat="38.69996122677266" lon="16.409532481678966"><ele>402.0</ele><time>2026-04-11T15:59:56Z</time></trkpt><trkpt lat="38.699966483026564" lon="16.409720830905993"><ele>402.0</ele><time>2026-04-11T15:59:57Z</time></trkpt><trkpt lat="38.69996911397211" lon="16.409909919541267"><ele>405.66666666666663</ele><time>2026-04-11T15:59:58Z</time></trkpt><trkpt lat="38.699982680775655" lon="16.41009630992117"><ele>409.3333333333333</ele><time>2026-04-11T15:59:59Z</time></trkpt><trkpt lat="38.700027636071766" lon="16.410285963986688"><ele>413.0</ele><time>2026-04-11T16:00:00Z</time></trkpt><trkpt lat="38.70012947417" lon="16.410465048507074"><ele>414.3333333333333</ele><time>2026-04-11T16:00:01Z</time></trkpt><trkpt lat="38.700244029541665" lon="16.410658790295255"><ele>415.66666666666663</ele><time>2026-04-11T16:00:02Z</time></trkpt><trkpt lat="38.700356087450125" lon="16.410825952223796"><ele>417.0</ele><time>2026-04-11T16:00:03Z</time></trkpt><trkpt lat="38.70047055932965" lon="16.410967347370494"><ele>410.25</ele><time>2026-04-11T16:00:04Z</time></trkpt><trkpt lat="38.700577874292705" lon="16.41106464240796"><ele>403.5</ele><time>2026-04-11T16:00:05Z</time></trkpt><trkpt lat="38.70067071281181" lon="16.411142297896777"><ele>396.75</ele><time>2026-04-11T16:00:06Z</time></trkpt><trkpt lat="38.70077149098857" lon="16.41118757143271"><ele>390.0</ele><time>2026-04-11T16:00:07Z</time></trkpt><trkpt lat="38.7008772143293" lon="16.411193537966977"><ele>390.0</ele><time>2026-04-11T16:00:08Z</time></trkpt><trkpt lat="38.700973678806655" lon="16.4111680103681"><ele>390.0</ele><time>2026-04-11T16:00:09Z</time></trkpt><trkpt lat="38.701093386892396" lon="16.411108512200723"><ele>390.0</ele><time>2026-04-11T16:00:10Z</time></trkpt><trkpt lat="38.70122081741452" lon="16.411021746575024"><ele>390.0</ele><time>2026-04-11T16:00:11Z</time></trkpt><trkpt lat="38.70135461305172" lon="16.410925850209882"><ele>389.0</ele><time>2026-04-11T16:00:12Z</time></trkpt><trkpt lat="38.70149419462193" lon="16.410833276550225"><ele>388.0</ele><time>2026-04-11T16:00:13Z</time></trkpt><trkpt lat="38.70164330507884" lon="16.41076087850451"><ele>387.0</ele><time>2026-04-11T16:00:14Z</time></trkpt><trkpt lat="38.70178975261027" lon="16.410674004251334"><ele>386.33333333333337</ele><time>2026-04-11T16:00:15Z</time></trkpt><trkpt lat="38.70193533605912" lon="16.41056895777618"><ele>385.6666666666667</ele><time>2026-04-11T16:00:16Z</time></trkpt><trkpt lat="38.70207550053804" lon="16.410490729839978"><ele>385.0</ele><time>2026-04-11T16:00:17Z</time></trkpt><trkpt lat="38.702209871086595" lon="16.410415059916456"><ele>388.0</ele><time>2026-04-11T16:00:18Z</time></trkpt><trkpt lat="38.70235071573631" lon="16.410335004205784"><ele>391.0</ele><time>2026-04-11T16:00:19Z</time></trkpt><trkpt lat="38.70250223224258" lon="16.410239533134195"><ele>394.0</ele><time>2026-04-11T16:00:20Z</time></trkpt><trkpt lat="38.702668229786774" lon="16.410133520009282"><ele>391.6666666666667</ele><time>2026-04-11T16:00:21Z</time></trkpt><trkpt lat="38.70286013180179" lon="16.410037988654764"><ele>389.33333333333337</ele><time>2026-04-11T16:00:22Z</time></trkpt><trkpt lat="38.70303237735392" lon="16.409916614103356"><ele>387.0</ele><time>2026-04-11T16:00:23Z</time></trkpt><trkpt lat="38.703165490551605" lon="16.409838964507202"><ele>387.0</ele><time>2026-04-11T16:00:24Z</time></trkpt><trkpt lat="38.70327001114966" lon="16.40978751243078"><ele>387.0</ele><time>2026-04-11T16:00:25Z</time></trkpt><trkpt lat="38.70336283840824" lon="16.40973054406319"><ele>387.0</ele><time>2026-04-11T16:00:26Z</time></trkpt><trkpt lat="38.70345966269282" lon="16.40966641343736"><ele>387.0</ele><time>2026-04-11T16:00:27Z</time></trkpt><trkpt lat="38.70355508799976" lon="16.409609065543016"><ele>387.0</ele><time>2026-04-11T16:00:28Z</time></trkpt><trkpt lat="38.70365341519579" lon="16.40955349949626"><ele>386.8</ele><time>2026-04-11T16:00:29Z</time></trkpt><trkpt lat="38.7037521852017" lon="16.409493758181313"><ele>386.6</ele><time>2026-04-11T16:00:30Z</time></trkpt><trkpt lat="38.703847770426485" lon="16.409434553216858"><ele>386.40000000000003</ele><time>2026-04-11T16:00:31Z</time></trkpt><trkpt lat="38.70395395037421" lon="16.409378095259264"><ele>386.20000000000005</ele><time>2026-04-11T16:00:32Z</time></trkpt><trkpt lat="38.70404725717434" lon="16.40931463033422"><ele>386.0</ele><time>2026-04-11T16:00:33Z</time></trkpt><trkpt lat="38.704152068429735" lon="16.409262790349942"><ele>386.0</ele><time>2026-04-11T16:00:34Z</time></trkpt><trkpt lat="38.704259646178045" lon="16.409200893511578"><ele>386.0</ele><time>2026-04-11T16:00:35Z</time></trkpt><trkpt lat="38.70435573823501" lon="16.40913791508674"><ele>386.0</ele><time>2026-04-11T16:00:36Z</time></trkpt><trkpt lat="38.70446307024281" lon="16.409074239428236"><ele>386.0</ele><time>2026-04-11T16:00:37Z</time></trkpt><trkpt lat="38.70456795389404" lon="16.409011603702126"><ele>386.0</ele><time>2026-04-11T16:00:38Z</time></trkpt><trkpt lat="38.704674695441526" lon="16.408955632061758"><ele>386.0</ele><time>2026-04-11T16:00:39Z</time></trkpt><trkpt lat="38.70478300022266" lon="16.408889188553864"><ele>386.0</ele><time>2026-04-11T16:00:40Z</time></trkpt><trkpt lat="38.70488147622802" lon="16.40883212037414"><ele>386.0</ele><time>2026-04-11T16:00:41Z</time></trkpt><trkpt lat="38.704963619318704" lon="16.40878476312875"><ele>386.0</ele><time>2026-04-11T16:00:42Z</time></trkpt><trkpt lat="38.705053940472276" lon="16.408728979607908"><ele>386.0</ele><time>2026-04-11T16:00:43Z</time></trkpt><trkpt lat="38.70514859043644" lon="16.408672919344625"><ele>386.0</ele><time>2026-04-11T16:00:44Z</time></trkpt><trkpt lat="38.70523771274134" lon="16.40862247848706"><ele>386.0</ele><time>2026-04-11T16:00:45Z</time></trkpt><trkpt lat="38.7053129116994" lon="16.408576342297184"><ele>386.0</ele><time>2026-04-11T16:00:46Z</time></trkpt><trkpt lat="38.70537796174178" lon="16.408540745431974"><ele>386.0</ele><time>2026-04-11T16:00:47Z</time></trkpt><trkpt lat="38.70547728165328" lon="16.40850183562234"><ele>386.16666666666663</ele><time>2026-04-11T16:00:49Z</time></trkpt><trkpt lat="38.705549885306155" lon="16.40854464976748"><ele>386.3333333333333</ele><time>2026-04-11T16:00:51Z</time></trkpt><trkpt lat="38.70558221246045" lon="16.40862731160384"><ele>386.5</ele><time>2026-04-11T16:00:54Z</time></trkpt><trkpt lat="38.705609478256726" lon="16.408731438436213"><ele>386.66666666666663</ele><time>2026-04-11T16:02:12Z</time></trkpt><trkpt lat="38.705660336779445" lon="16.40885255032347"><ele>386.8333333333333</ele><time>2026-04-11T16:02:14Z</time></trkpt><trkpt lat="38.7056876073692" lon="16.40894030135625"><ele>387.0</ele><time>2026-04-11T16:02:15Z</time></trkpt><trkpt lat="38.7057336401935" lon="16.409066463562286"><ele>387.0</ele><time>2026-04-11T16:02:16Z</time></trkpt><trkpt lat="38.70576890332118" lon="16.40916310927218"><ele>387.0</ele><time>2026-04-11T16:02:17Z</time></trkpt><trkpt lat="38.70580640663903" lon="16.409265893903026"><ele>387.0</ele><time>2026-04-11T16:02:18Z</time></trkpt><trkpt lat="38.70585631982048" lon="16.40937756664306"><ele>387.0</ele><time>2026-04-11T16:02:19Z</time></trkpt><trkpt lat="38.70584266938204" lon="16.409543449085184"><ele>387.0</ele><time>2026-04-11T16:02:20Z</time></trkpt><trkpt lat="38.705833482833334" lon="16.40973326983849"><ele>386.75</ele><time>2026-04-11T16:02:21Z</time></trkpt><trkpt lat="38.705822279344176" lon="16.409906085432382"><ele>386.5</ele><time>2026-04-11T16:02:22Z</time></trkpt><trkpt lat="38.70581382230805" lon="16.410072000200753"><ele>386.25</ele><time>2026-04-11T16:02:23Z</time></trkpt><trkpt lat="38.705812932869094" lon="16.410244451429065"><ele>386.0</ele><time>2026-04-11T16:02:24Z</time></trkpt><trkpt lat="38.70582474664931" lon="16.410391205802913"><ele>385.75</ele><time>2026-04-11T16:02:25Z</time></trkpt><trkpt lat="38.705902287548064" lon="16.410511442747804"><ele>385.5</ele><time>2026-04-11T16:02:26Z</time></trkpt><trkpt lat="38.705983654956974" lon="16.41060193794364"><ele>385.25</ele><time>2026-04-11T16:02:27Z</time></trkpt><trkpt lat="38.70608637943839" lon="16.410706458424386"><ele>385.0</ele><time>2026-04-11T16:02:28Z</time></trkpt><trkpt lat="38.70620374495653" lon="16.4108017330299"><ele>385.4</ele><time>2026-04-11T16:02:29Z</time></trkpt><trkpt lat="38.70629068837961" lon="16.41087430207538"><ele>385.8</ele><time>2026-04-11T16:02:30Z</time></trkpt><trkpt lat="38.706367766659305" lon="16.410940925094636"><ele>386.20000000000005</ele><time>2026-04-11T16:02:31Z</time></trkpt><trkpt lat="38.706447777202506" lon="16.411010082349186"><ele>386.6</ele><time>2026-04-11T16:02:32Z</time></trkpt><trkpt lat="38.706532193251896" lon="16.411086026511697"><ele>387.0</ele><time>2026-04-11T16:02:33Z</time></trkpt><trkpt lat="38.70665232398199" lon="16.411198390956486"><ele>387.0</ele><time>2026-04-11T16:02:34Z</time></trkpt><trkpt lat="38.70678996134835" lon="16.41130330254331"><ele>387.0</ele><time>2026-04-11T16:02:35Z</time></trkpt><trkpt lat="38.70692967544703" lon="16.41143851713732"><ele>387.0</ele><time>2026-04-11T16:02:36Z</time></trkpt><trkpt lat="38.70704548154852" lon="16.411533540687763"><ele>387.0</ele><time>2026-04-11T16:02:37Z</time></trkpt><trkpt lat="38.707157196069566" lon="16.411632730645856"><ele>387.0</ele><time>2026-04-11T16:02:38Z</time></trkpt><trkpt lat="38.707246458314955" lon="16.411685195538542"><ele>387.0</ele><time>2026-04-11T16:02:39Z</time></trkpt><trkpt lat="38.707347086687285" lon="16.411711729220297"><ele>387.0</ele><time>2026-04-11T16:02:40Z</time></trkpt><trkpt lat="38.70743758503194" lon="16.411712191071025"><ele>387.0</ele><time>2026-04-11T16:02:41Z</time></trkpt><trkpt lat="38.707547010827135" lon="16.411672631869365"><ele>387.0</ele><time>2026-04-11T16:02:42Z</time></trkpt><trkpt lat="38.707680010694936" lon="16.411601703222022"><ele>387.0</ele><time>2026-04-11T16:02:43Z</time></trkpt><trkpt lat="38.707807661419864" lon="16.411553643555063"><ele>387.0</ele><time>2026-04-11T16:02:44Z</time></trkpt><trkpt lat="38.70795622353846" lon="16.411545251037587"><ele>387.0</ele><time>2026-04-11T16:02:45Z</time></trkpt><trkpt lat="38.7081270668144" lon="16.411619932698244"><ele>387.33333333333337</ele><time>2026-04-11T16:02:46Z</time></trkpt><trkpt lat="38.70832433553668" lon="16.411679117184104"><ele>387.6666666666667</ele><time>2026-04-11T16:02:47Z</time></trkpt><trkpt lat="38.70852395455481" lon="16.411722171711055"><ele>388.0</ele><time>2026-04-11T16:02:48Z</time></trkpt><trkpt lat="38.70867257918824" lon="16.411773105944985"><ele>389.59999999999997</ele><time>2026-04-11T16:02:49Z</time></trkpt><trkpt lat="38.70875870758441" lon="16.41185553841808"><ele>391.2</ele><time>2026-04-11T16:02:50Z</time></trkpt><trkpt lat="38.70893529923858" lon="16.41182378416829"><ele>392.8</ele><time>2026-04-11T16:03:02Z</time></trkpt><trkpt lat="38.70902293514082" lon="16.41181117017765"><ele>394.4</ele><time>2026-04-11T16:03:03Z</time></trkpt><trkpt lat="38.70909294405079" lon="16.41180036256128"><ele>396.0</ele><time>2026-04-11T16:03:04Z</time></trkpt><trkpt lat="38.7091691603327" lon="16.411798065377923"><ele>396.0</ele><time>2026-04-11T16:03:07Z</time></trkpt><trkpt lat="38.70923372636537" lon="16.41180562731848"><ele>396.0</ele><time>2026-04-11T16:03:11Z</time></trkpt><trkpt lat="38.70931059799822" lon="16.41180988614136"><ele>396.0</ele><time>2026-04-11T16:03:13Z</time></trkpt><trkpt lat="38.709418193666615" lon="16.41180943103778"><ele>396.0</ele><time>2026-04-11T16:03:15Z</time></trkpt><trkpt lat="38.709513017434894" lon="16.41180407626851"><ele>396.0</ele><time>2026-04-11T16:03:17Z</time></trkpt><trkpt lat="38.709623636643194" lon="16.411799034741996"><ele>397.2857142857143</ele><time>2026-04-11T16:03:19Z</time></trkpt><trkpt lat="38.709692039135014" lon="16.41179879175762"><ele>398.57142857142856</ele><time>2026-04-11T16:03:20Z</time></trkpt><trkpt lat="38.70976715355372" lon="16.41180221217399"><ele>399.85714285714283</ele><time>2026-04-11T16:03:21Z</time></trkpt><trkpt lat="38.7098383056471" lon="16.411808617703713"><ele>401.1428571428571</ele><time>2026-04-11T16:03:22Z</time></trkpt><trkpt lat="38.70991308448184" lon="16.411813429594194"><ele>402.42857142857144</ele><time>2026-04-11T16:03:23Z</time></trkpt><trkpt lat="38.70998491008751" lon="16.411800355106276"><ele>403.71428571428567</ele><time>2026-04-11T16:03:25Z</time></trkpt><trkpt lat="38.71005553001644" lon="16.4118225957512"><ele>405.0</ele><time>2026-04-11T16:03:29Z</time></trkpt><trkpt lat="38.71013253954013" lon="16.411853095732994"><ele>405.0</ele><time>2026-04-11T16:03:34Z</time></trkpt><trkpt lat="38.71007204810095" lon="16.41199853083399"><ele>405.0</ele><time>2026-04-11T16:03:35Z</time></trkpt><trkpt lat="38.710065046075044" lon="16.412117416199706"><ele>405.0</ele><time>2026-04-11T16:03:36Z</time></trkpt><trkpt lat="38.7100578658257" lon="16.41223932770595"><ele>405.0</ele><time>2026-04-11T16:03:37Z</time></trkpt><trkpt lat="38.710062873690454" lon="16.412336769228787"><ele>405.0</ele><time>2026-04-11T16:03:38Z</time></trkpt><trkpt lat="38.71004716280194" lon="16.41242426849633"><ele>405.5</ele><time>2026-04-11T16:03:39Z</time></trkpt><trkpt lat="38.710035307863926" lon="16.412563149036046"><ele>406.0</ele><time>2026-04-11T16:03:41Z</time></trkpt><trkpt lat="38.71002925959195" lon="16.41265127051336"><ele>406.5</ele><time>2026-04-11T16:03:43Z</time></trkpt><trkpt lat="38.71000804726935" lon="16.41272761794377"><ele>407.0</ele><time>2026-04-11T16:03:46Z</time></trkpt><trkpt lat="38.7099680568932" lon="16.412821112634386"><ele>407.5</ele><time>2026-04-11T16:03:51Z</time></trkpt><trkpt lat="38.70998248881451" lon="16.412937339194386"><ele>408.0</ele><time>2026-04-11T16:03:53Z</time></trkpt><trkpt lat="38.70995582907803" lon="16.413070091636197"><ele>408.5</ele><time>2026-04-11T16:03:55Z</time></trkpt><trkpt lat="38.70993586724501" lon="16.413189734510055"><ele>409.0</ele><time>2026-04-11T16:03:58Z</time></trkpt><trkpt lat="38.71010671008082" lon="16.413270090572055"><ele>409.5</ele><time>2026-04-11T16:03:59Z</time></trkpt><trkpt lat="38.71016537014511" lon="16.413372507788676"><ele>410.0</ele><time>2026-04-11T16:04:01Z</time></trkpt><trkpt lat="38.710221567422245" lon="16.413466697632074"><ele>407.8333333333333</ele><time>2026-04-11T16:04:03Z</time></trkpt><trkpt lat="38.71028189343295" lon="16.41330244713956"><ele>405.66666666666663</ele><time>2026-04-11T16:04:08Z</time></trkpt><trkpt lat="38.710310452739286" lon="16.413211488321814"><ele>403.5</ele><time>2026-04-11T16:04:10Z</time></trkpt><trkpt lat="38.710388155481645" lon="16.413178893974795"><ele>401.33333333333337</ele><time>2026-04-11T16:04:12Z</time></trkpt><trkpt lat="38.71045339784285" lon="16.413183191552218"><ele>399.1666666666667</ele><time>2026-04-11T16:04:13Z</time></trkpt><trkpt lat="38.71052998713236" lon="16.41318812034541"><ele>397.0</ele><time>2026-04-11T16:04:14Z</time></trkpt><trkpt lat="38.71060210146565" lon="16.413210115117174"><ele>397.0</ele><time>2026-04-11T16:04:15Z</time></trkpt><trkpt lat="38.710663240792506" lon="16.41318429963221"><ele>397.0</ele><time>2026-04-11T16:04:16Z</time></trkpt><trkpt lat="38.7107918307619" lon="16.41314004809243"><ele>397.0</ele><time>2026-04-11T16:04:18Z</time></trkpt><trkpt lat="38.71087740463548" lon="16.413119935939022"><ele>397.0</ele><time>2026-04-11T16:04:19Z</time></trkpt><trkpt lat="38.71096604682946" lon="16.413103125240347"><ele>397.0</ele><time>2026-04-11T16:04:20Z</time></trkpt><trkpt lat="38.71106941548123" lon="16.41308439241632"><ele>397.20000000000005</ele><time>2026-04-11T16:04:21Z</time></trkpt><trkpt lat="38.7111793764957" lon="16.41305415870927"><ele>397.4</ele><time>2026-04-11T16:04:22Z</time></trkpt><trkpt lat="38.71128100377811" lon="16.41303206735433"><ele>397.6</ele><time>2026-04-11T16:04:23Z</time></trkpt><trkpt lat="38.711378685471146" lon="16.413039457714547"><ele>397.79999999999995</ele><time>2026-04-11T16:04:24Z</time></trkpt><trkpt lat="38.71147596910536" lon="16.413029659038198"><ele>398.0</ele><time>2026-04-11T16:04:25Z</time></trkpt><trkpt lat="38.711563572584254" lon="16.413020995609152"><ele>398.0</ele><time>2026-04-11T16:04:26Z</time></trkpt><trkpt lat="38.711642290830774" lon="16.41301321084911"><ele>398.0</ele><time>2026-04-11T16:04:27Z</time></trkpt><trkpt lat="38.71171948753113" lon="16.4129851960501"><ele>398.0</ele><time>2026-04-11T16:04:28Z</time></trkpt><trkpt lat="38.71178320156756" lon="16.41297625613317"><ele>398.0</ele><time>2026-04-11T16:04:29Z</time></trkpt><trkpt lat="38.71187833925491" lon="16.41295667266372"><ele>398.0</ele><time>2026-04-11T16:04:31Z</time></trkpt><trkpt lat="38.71193951904737" lon="16.413134015072462"><ele>399.75</ele><time>2026-04-11T16:04:41Z</time></trkpt><trkpt lat="38.711930501773764" lon="16.413310716526265"><ele>401.5</ele><time>2026-04-11T16:04:43Z</time></trkpt><trkpt lat="38.7119272888715" lon="16.41344619425306"><ele>403.25</ele><time>2026-04-11T16:04:44Z</time></trkpt><trkpt lat="38.71192490940915" lon="16.413596660503323"><ele>405.0</ele><time>2026-04-11T16:04:45Z</time></trkpt><trkpt lat="38.71192165664838" lon="16.413737369989423"><ele>404.6</ele><time>2026-04-11T16:04:46Z</time></trkpt><trkpt lat="38.71192880174843" lon="16.4138930157477"><ele>404.2</ele><time>2026-04-11T16:04:47Z</time></trkpt><trkpt lat="38.71191304044691" lon="16.41403233654723"><ele>403.79999999999995</ele><time>2026-04-11T16:04:48Z</time></trkpt><trkpt lat="38.71191567582901" lon="16.4141716079658"><ele>403.4</ele><time>2026-04-11T16:04:49Z</time></trkpt><trkpt lat="38.711927116090415" lon="16.41429877267483"><ele>403.0</ele><time>2026-04-11T16:04:50Z</time></trkpt><trkpt lat="38.711967689527135" lon="16.414432452026453"><ele>403.0</ele><time>2026-04-11T16:04:51Z</time></trkpt><trkpt lat="38.7120164392581" lon="16.414568440022876"><ele>403.0</ele><time>2026-04-11T16:04:52Z</time></trkpt><trkpt lat="38.71204336671452" lon="16.414690205484916"><ele>403.0</ele><time>2026-04-11T16:04:53Z</time></trkpt><trkpt lat="38.712087052296646" lon="16.414802090672364"><ele>403.0</ele><time>2026-04-11T16:04:54Z</time></trkpt><trkpt lat="38.71212708462072" lon="16.41491084775043"><ele>403.0</ele><time>2026-04-11T16:04:55Z</time></trkpt><trkpt lat="38.712165321103065" lon="16.41502499447221"><ele>402.79999999999995</ele><time>2026-04-11T16:04:56Z</time></trkpt><trkpt lat="38.71223560329872" lon="16.41513025228557"><ele>402.6</ele><time>2026-04-11T16:04:57Z</time></trkpt><trkpt lat="38.712269335041725" lon="16.41525080528856"><ele>402.4</ele><time>2026-04-11T16:04:58Z</time></trkpt><trkpt lat="38.71230213750068" lon="16.415371980150216"><ele>402.20000000000005</ele><time>2026-04-11T16:04:59Z</time></trkpt><trkpt lat="38.71233121192543" lon="16.415498174440973"><ele>402.0</ele><time>2026-04-11T16:05:00Z</time></trkpt><trkpt lat="38.71233621431426" lon="16.415637138050727"><ele>401.40000000000003</ele><time>2026-04-11T16:05:01Z</time></trkpt><trkpt lat="38.71235995819728" lon="16.415754265363102"><ele>400.8</ele><time>2026-04-11T16:05:02Z</time></trkpt><trkpt lat="38.712378541930086" lon="16.415883277335794"><ele>400.2</ele><time>2026-04-11T16:05:03Z</time></trkpt><trkpt lat="38.712394469730114" lon="16.416015439282578"><ele>399.6</ele><time>2026-04-11T16:05:04Z</time></trkpt><trkpt lat="38.712408576736784" lon="16.416162183443934"><ele>399.0</ele><time>2026-04-11T16:05:05Z</time></trkpt><trkpt lat="38.71242490595202" lon="16.41633204352009"><ele>398.0</ele><time>2026-04-11T16:05:06Z</time></trkpt><trkpt lat="38.71244103550761" lon="16.416515475898684"><ele>397.0</ele><time>2026-04-11T16:05:07Z</time></trkpt><trkpt lat="38.712454734026856" lon="16.416718418823354"><ele>396.0</ele><time>2026-04-11T16:05:08Z</time></trkpt><trkpt lat="38.71246824178715" lon="16.416937728684342"><ele>396.0</ele><time>2026-04-11T16:05:09Z</time></trkpt><trkpt lat="38.71246874461795" lon="16.417141434965416"><ele>396.0</ele><time>2026-04-11T16:05:10Z</time></trkpt><trkpt lat="38.71246536117481" lon="16.417343745416044"><ele>396.0</ele><time>2026-04-11T16:05:11Z</time></trkpt><trkpt lat="38.712460805201474" lon="16.417533658284416"><ele>395.33333333333337</ele><time>2026-04-11T16:05:12Z</time></trkpt><trkpt lat="38.71245941342266" lon="16.4177277973928"><ele>394.6666666666667</ele><time>2026-04-11T16:05:13Z</time></trkpt><trkpt lat="38.71246291915945" lon="16.417921779002064"><ele>394.0</ele><time>2026-04-11T16:05:14Z</time></trkpt><trkpt lat="38.71248062457001" lon="16.41812526914451"><ele>393.33333333333337</ele><time>2026-04-11T16:05:15Z</time></trkpt><trkpt lat="38.71251743172542" lon="16.41833172708304"><ele>392.66666666666663</ele><time>2026-04-11T16:05:16Z</time></trkpt><trkpt lat="38.712528333303915" lon="16.418545718838306"><ele>392.0</ele><time>2026-04-11T16:05:17Z</time></trkpt><trkpt lat="38.71255111463696" lon="16.418730859856684"><ele>391.75</ele><time>2026-04-11T16:05:18Z</time></trkpt><trkpt lat="38.71254994537076" lon="16.418906973630026"><ele>391.5</ele><time>2026-04-11T16:05:19Z</time></trkpt><trkpt lat="38.712603331698816" lon="16.419094754416427"><ele>391.25</ele><time>2026-04-11T16:05:20Z</time></trkpt><trkpt lat="38.71265156296219" lon="16.4192822261579"><ele>391.0</ele><time>2026-04-11T16:05:21Z</time></trkpt><trkpt lat="38.712698322259264" lon="16.419469952139867"><ele>395.0</ele><time>2026-04-11T16:05:22Z</time></trkpt><trkpt lat="38.712742616798586" lon="16.419660695155354"><ele>399.0</ele><time>2026-04-11T16:05:23Z</time></trkpt><trkpt lat="38.71278170965756" lon="16.419880813894068"><ele>403.0</ele><time>2026-04-11T16:05:24Z</time></trkpt><trkpt lat="38.71279630233529" lon="16.4200879765873"><ele>403.0</ele><time>2026-04-11T16:05:25Z</time></trkpt><trkpt lat="38.71280376547048" lon="16.42028212198517"><ele>403.0</ele><time>2026-04-11T16:05:26Z</time></trkpt><trkpt lat="38.71282888022104" lon="16.420469920890948"><ele>403.0</ele><time>2026-04-11T16:05:27Z</time></trkpt><trkpt lat="38.71288344727116" lon="16.420663098112875"><ele>400.6666666666667</ele><time>2026-04-11T16:05:28Z</time></trkpt><trkpt lat="38.712955989299886" lon="16.420854973749016"><ele>398.33333333333337</ele><time>2026-04-11T16:05:29Z</time></trkpt><trkpt lat="38.71304351369152" lon="16.421046379412562"><ele>396.0</ele><time>2026-04-11T16:05:30Z</time></trkpt><trkpt lat="38.713117497831874" lon="16.421220885439805"><ele>394.75</ele><time>2026-04-11T16:05:31Z</time></trkpt><trkpt lat="38.71318656528969" lon="16.4213612548808"><ele>393.5</ele><time>2026-04-11T16:05:32Z</time></trkpt><trkpt lat="38.713267846504976" lon="16.42148164512809"><ele>392.25</ele><time>2026-04-11T16:05:33Z</time></trkpt><trkpt lat="38.71333041203094" lon="16.421632818172814"><ele>391.0</ele><time>2026-04-11T16:05:34Z</time></trkpt><trkpt lat="38.71337563725557" lon="16.421797526908126"><ele>391.0</ele><time>2026-04-11T16:05:35Z</time></trkpt><trkpt lat="38.71341626604281" lon="16.42196922429781"><ele>391.0</ele><time>2026-04-11T16:05:36Z</time></trkpt><trkpt lat="38.71343830812529" lon="16.422156583231832"><ele>391.0</ele><time>2026-04-11T16:05:37Z</time></trkpt><trkpt lat="38.71343172943829" lon="16.42235285879057"><ele>391.0</ele><time>2026-04-11T16:05:38Z</time></trkpt><trkpt lat="38.713409047567296" lon="16.42255383720807"><ele>390.0</ele><time>2026-04-11T16:05:39Z</time></trkpt><trkpt lat="38.713416695035" lon="16.422771381195627"><ele>389.0</ele><time>2026-04-11T16:05:40Z</time></trkpt><trkpt lat="38.713416379842975" lon="16.422995976125605"><ele>388.0</ele><time>2026-04-11T16:05:41Z</time></trkpt><trkpt lat="38.7134511418193" lon="16.423217975933735"><ele>388.0</ele><time>2026-04-11T16:05:42Z</time></trkpt><trkpt lat="38.7134953148929" lon="16.42343297934197"><ele>388.0</ele><time>2026-04-11T16:05:43Z</time></trkpt><trkpt lat="38.713542903707385" lon="16.423646423889455"><ele>388.0</ele><time>2026-04-11T16:05:44Z</time></trkpt><trkpt lat="38.713602721844964" lon="16.423851244046865"><ele>388.6666666666667</ele><time>2026-04-11T16:05:45Z</time></trkpt><trkpt lat="38.71367331183781" lon="16.424057785872478"><ele>389.33333333333337</ele><time>2026-04-11T16:05:46Z</time></trkpt><trkpt lat="38.71372993117594" lon="16.42425981204995"><ele>390.0</ele><time>2026-04-11T16:05:47Z</time></trkpt><trkpt lat="38.7137956592715" lon="16.424464157403477"><ele>389.0</ele><time>2026-04-11T16:05:48Z</time></trkpt><trkpt lat="38.71386195638165" lon="16.424667537888872"><ele>388.0</ele><time>2026-04-11T16:05:49Z</time></trkpt><trkpt lat="38.713927642739975" lon="16.424877665736417"><ele>387.0</ele><time>2026-04-11T16:05:50Z</time></trkpt><trkpt lat="38.713987583800545" lon="16.425082207702115"><ele>387.0</ele><time>2026-04-11T16:05:51Z</time></trkpt><trkpt lat="38.71404268570047" lon="16.425280238509522"><ele>387.0</ele><time>2026-04-11T16:05:52Z</time></trkpt><trkpt lat="38.71409039347009" lon="16.425472743204853"><ele>387.0</ele><time>2026-04-11T16:05:53Z</time></trkpt><trkpt lat="38.71411930554527" lon="16.425668873169442"><ele>387.33333333333337</ele><time>2026-04-11T16:05:54Z</time></trkpt><trkpt lat="38.714128038186196" lon="16.425883064785307"><ele>387.6666666666667</ele><time>2026-04-11T16:05:55Z</time></trkpt><trkpt lat="38.71411654017289" lon="16.42611051118015"><ele>388.0</ele><time>2026-04-11T16:05:56Z</time></trkpt><trkpt lat="38.71410550805767" lon="16.426341892417845"><ele>388.0</ele><time>2026-04-11T16:05:57Z</time></trkpt><trkpt lat="38.71409102546594" lon="16.426551447138277"><ele>388.0</ele><time>2026-04-11T16:05:58Z</time></trkpt><trkpt lat="38.71407088557533" lon="16.426746774648773"><ele>388.0</ele><time>2026-04-11T16:05:59Z</time></trkpt><trkpt lat="38.7140520211743" lon="16.426929431063126"><ele>388.0</ele><time>2026-04-11T16:06:00Z</time></trkpt><trkpt lat="38.714030162873335" lon="16.42714781508909"><ele>388.0</ele><time>2026-04-11T16:06:01Z</time></trkpt><trkpt lat="38.71401496953321" lon="16.427355458346423"><ele>388.0</ele><time>2026-04-11T16:06:02Z</time></trkpt><trkpt lat="38.714002817688055" lon="16.427534828900544"><ele>388.0</ele><time>2026-04-11T16:06:03Z</time></trkpt><trkpt lat="38.714022573779374" lon="16.42771164164792"><ele>388.0</ele><time>2026-04-11T16:06:04Z</time></trkpt><trkpt lat="38.71403238414403" lon="16.427881968557337"><ele>388.0</ele><time>2026-04-11T16:06:05Z</time></trkpt><trkpt lat="38.714082415947374" lon="16.428015204742795"><ele>388.0</ele><time>2026-04-11T16:06:06Z</time></trkpt><trkpt lat="38.71416446820151" lon="16.428161691980854"><ele>387.75</ele><time>2026-04-11T16:06:07Z</time></trkpt><trkpt lat="38.7142381872981" lon="16.428291235276966"><ele>387.5</ele><time>2026-04-11T16:06:08Z</time></trkpt><trkpt lat="38.71428420609332" lon="16.428432996184252"><ele>387.25</ele><time>2026-04-11T16:06:09Z</time></trkpt><trkpt lat="38.714334936214875" lon="16.428565892420675"><ele>387.0</ele><time>2026-04-11T16:06:10Z</time></trkpt><trkpt lat="38.71437850414348" lon="16.428684615316527"><ele>387.0</ele><time>2026-04-11T16:06:11Z</time></trkpt><trkpt lat="38.71436127411214" lon="16.428798304685372"><ele>387.0</ele><time>2026-04-11T16:06:12Z</time></trkpt><trkpt lat="38.7143681313023" lon="16.428936068104612"><ele>387.0</ele><time>2026-04-11T16:06:13Z</time></trkpt><trkpt lat="38.714367617402544" lon="16.42908814824154"><ele>387.0</ele><time>2026-04-11T16:06:14Z</time></trkpt><trkpt lat="38.714360081522024" lon="16.42925137110263"><ele>387.0</ele><time>2026-04-11T16:06:15Z</time></trkpt><trkpt lat="38.714350872792515" lon="16.429398596851424"><ele>387.0</ele><time>2026-04-11T16:06:16Z</time></trkpt><trkpt lat="38.714340134214595" lon="16.429535706836752"><ele>387.0</ele><time>2026-04-11T16:06:17Z</time></trkpt><trkpt lat="38.71432605999866" lon="16.429637092691582"><ele>387.0</ele><time>2026-04-11T16:06:18Z</time></trkpt><trkpt lat="38.71431246314327" lon="16.429728218324218"><ele>387.0</ele><time>2026-04-11T16:06:20Z</time></trkpt><trkpt lat="38.71441975948178" lon="16.429889651557883"><ele>387.0</ele><time>2026-04-11T16:06:30Z</time></trkpt><trkpt lat="38.71445550283377" lon="16.42998984015334"><ele>387.0</ele><time>2026-04-11T16:06:31Z</time></trkpt><trkpt lat="38.71449669971886" lon="16.430110971943172"><ele>387.0</ele><time>2026-04-11T16:06:32Z</time></trkpt><trkpt lat="38.71454400334544" lon="16.43026220758185"><ele>387.0</ele><time>2026-04-11T16:06:33Z</time></trkpt><trkpt lat="38.714588087506165" lon="16.430411697484157"><ele>387.0</ele><time>2026-04-11T16:06:34Z</time></trkpt><trkpt lat="38.71463533273047" lon="16.43056391427895"><ele>387.0</ele><time>2026-04-11T16:06:35Z</time></trkpt><trkpt lat="38.714691568212956" lon="16.430712623221677"><ele>387.0</ele><time>2026-04-11T16:06:36Z</time></trkpt><trkpt lat="38.714767556932145" lon="16.430842725285178"><ele>387.0</ele><time>2026-04-11T16:06:37Z</time></trkpt><trkpt lat="38.71482423819855" lon="16.4309667795898"><ele>387.0</ele><time>2026-04-11T16:06:38Z</time></trkpt><trkpt lat="38.71488660764024" lon="16.43107272431499"><ele>387.0</ele><time>2026-04-11T16:06:39Z</time></trkpt><trkpt lat="38.71495387722567" lon="16.43115948028179"><ele>387.0</ele><time>2026-04-11T16:06:40Z</time></trkpt><trkpt lat="38.71497983437784" lon="16.431260393632673"><ele>387.0</ele><time>2026-04-11T16:06:41Z</time></trkpt><trkpt lat="38.71501071036508" lon="16.431362826294535"><ele>387.0</ele><time>2026-04-11T16:06:42Z</time></trkpt><trkpt lat="38.71505422096916" lon="16.431499592437927"><ele>387.0</ele><time>2026-04-11T16:06:43Z</time></trkpt><trkpt lat="38.715111796304676" lon="16.4316112417806"><ele>386.75</ele><time>2026-04-11T16:06:44Z</time></trkpt><trkpt lat="38.71518811607999" lon="16.431662428292473"><ele>386.5</ele><time>2026-04-11T16:06:45Z</time></trkpt><trkpt lat="38.71529380619783" lon="16.431723097732597"><ele>386.25</ele><time>2026-04-11T16:06:46Z</time></trkpt><trkpt lat="38.715426623525914" lon="16.43177500037665"><ele>386.0</ele><time>2026-04-11T16:06:47Z</time></trkpt><trkpt lat="38.715601140498684" lon="16.431812085613377"><ele>387.0</ele><time>2026-04-11T16:06:48Z</time></trkpt><trkpt lat="38.71578812057013" lon="16.43187829283266"><ele>388.0</ele><time>2026-04-11T16:06:49Z</time></trkpt><trkpt lat="38.71595181531291" lon="16.431977767590805"><ele>389.0</ele><time>2026-04-11T16:06:50Z</time></trkpt><trkpt lat="38.71608848060264" lon="16.432054662021226"><ele>390.25</ele><time>2026-04-11T16:06:51Z</time></trkpt><trkpt lat="38.71620601365147" lon="16.432126820753883"><ele>391.5</ele><time>2026-04-11T16:06:52Z</time></trkpt><trkpt lat="38.71633332281359" lon="16.432167491793773"><ele>392.75</ele><time>2026-04-11T16:06:53Z</time></trkpt><trkpt lat="38.716465974645736" lon="16.432227628493788"><ele>394.0</ele><time>2026-04-11T16:06:54Z</time></trkpt><trkpt lat="38.71659112159371" lon="16.432298489309765"><ele>394.5</ele><time>2026-04-11T16:06:55Z</time></trkpt><trkpt lat="38.716703529223054" lon="16.432358092546533"><ele>395.0</ele><time>2026-04-11T16:06:56Z</time></trkpt><trkpt lat="38.716797441046154" lon="16.432420694165593"><ele>395.5</ele><time>2026-04-11T16:06:57Z</time></trkpt><trkpt lat="38.71688215669675" lon="16.432494045818963"><ele>396.0</ele><time>2026-04-11T16:06:58Z</time></trkpt><trkpt lat="38.716977822416496" lon="16.432591505206567"><ele>398.75</ele><time>2026-04-11T16:06:59Z</time></trkpt><trkpt lat="38.71709901687984" lon="16.432693787173452"><ele>401.5</ele><time>2026-04-11T16:07:00Z</time></trkpt><trkpt lat="38.71720614424088" lon="16.432781135152084"><ele>404.25</ele><time>2026-04-11T16:07:01Z</time></trkpt><trkpt lat="38.717294183059515" lon="16.43285614045777"><ele>407.0</ele><time>2026-04-11T16:07:02Z</time></trkpt><trkpt lat="38.7173669270396" lon="16.432943766850123"><ele>406.6</ele><time>2026-04-11T16:07:03Z</time></trkpt><trkpt lat="38.71740983738664" lon="16.433060358820207"><ele>406.20000000000005</ele><time>2026-04-11T16:07:04Z</time></trkpt><trkpt lat="38.71745886971882" lon="16.433191191037388"><ele>405.8</ele><time>2026-04-11T16:07:05Z</time></trkpt><trkpt lat="38.71751725475843" lon="16.433313757398373"><ele>405.4</ele><time>2026-04-11T16:07:06Z</time></trkpt><trkpt lat="38.71759682382362" lon="16.43341175159334"><ele>405.0</ele><time>2026-04-11T16:07:07Z</time></trkpt><trkpt lat="38.71767937624385" lon="16.43348769330412"><ele>408.25</ele><time>2026-04-11T16:07:08Z</time></trkpt><trkpt lat="38.717786014226604" lon="16.43353757750908"><ele>411.5</ele><time>2026-04-11T16:07:09Z</time></trkpt><trkpt lat="38.7179070526435" lon="16.433593800779825"><ele>414.75</ele><time>2026-04-11T16:07:10Z</time></trkpt><trkpt lat="38.718044726403406" lon="16.43365217608668"><ele>418.0</ele><time>2026-04-11T16:07:11Z</time></trkpt><trkpt lat="38.718209210604286" lon="16.4337175262807"><ele>419.6666666666667</ele><time>2026-04-11T16:07:12Z</time></trkpt><trkpt lat="38.71838102950754" lon="16.43381330911897"><ele>421.33333333333337</ele><time>2026-04-11T16:07:13Z</time></trkpt><trkpt lat="38.71854364570291" lon="16.433903257921234"><ele>423.0</ele><time>2026-04-11T16:07:14Z</time></trkpt><trkpt lat="38.718661566529285" lon="16.43399494654897"><ele>423.6666666666667</ele><time>2026-04-11T16:07:15Z</time></trkpt><trkpt lat="38.718751914919565" lon="16.434085445166115"><ele>424.33333333333337</ele><time>2026-04-11T16:07:16Z</time></trkpt><trkpt lat="38.71882135612872" lon="16.434153816551675"><ele>425.0</ele><time>2026-04-11T16:07:17Z</time></trkpt><trkpt lat="38.71888004318361" lon="16.434206103000548"><ele>425.6666666666667</ele><time>2026-04-11T16:07:19Z</time></trkpt><trkpt lat="38.718928703816296" lon="16.434260158393766"><ele>426.33333333333337</ele><time>2026-04-11T16:07:20Z</time></trkpt><trkpt lat="38.71897960672438" lon="16.434326625143374"><ele>427.0</ele><time>2026-04-11T16:07:21Z</time></trkpt><trkpt lat="38.71904684919617" lon="16.43441176211793"><ele>427.00000000000006</ele><time>2026-04-11T16:07:23Z</time></trkpt><trkpt lat="38.71907302176874" lon="16.434558777404483"><ele>427.0</ele><time>2026-04-11T16:07:25Z</time></trkpt><trkpt lat="38.71908212819238" lon="16.4346473649677"><ele>427.0</ele><time>2026-04-11T16:07:26Z</time></trkpt><trkpt lat="38.71910646085453" lon="16.43473539548554"><ele>427.0</ele><time>2026-04-11T16:07:27Z</time></trkpt><trkpt lat="38.719108172227315" lon="16.434838038590282"><ele>427.00000000000006</ele><time>2026-04-11T16:07:28Z</time></trkpt><trkpt lat="38.71911033341816" lon="16.434942870006456"><ele>427.0</ele><time>2026-04-11T16:07:29Z</time></trkpt><trkpt lat="38.71912209669312" lon="16.435059921262656"><ele>426.20000000000005</ele><time>2026-04-11T16:07:30Z</time></trkpt><trkpt lat="38.719142550890744" lon="16.43519040698111"><ele>425.40000000000003</ele><time>2026-04-11T16:07:31Z</time></trkpt><trkpt lat="38.71914320374647" lon="16.435325594298664"><ele>424.6</ele><time>2026-04-11T16:07:32Z</time></trkpt><trkpt lat="38.719159674977085" lon="16.43546740194385"><ele>423.79999999999995</ele><time>2026-04-11T16:07:33Z</time></trkpt><trkpt lat="38.71916951118365" lon="16.435614028314788"><ele>423.0</ele><time>2026-04-11T16:07:34Z</time></trkpt><trkpt lat="38.719178806074986" lon="16.435771611384165"><ele>422.25</ele><time>2026-04-11T16:07:35Z</time></trkpt><trkpt lat="38.71919604649657" lon="16.435936104482163"><ele>421.5</ele><time>2026-04-11T16:07:36Z</time></trkpt><trkpt lat="38.719205504969494" lon="16.43610309726802"><ele>420.75</ele><time>2026-04-11T16:07:37Z</time></trkpt><trkpt lat="38.71921549638076" lon="16.436260431597955"><ele>420.0</ele><time>2026-04-11T16:07:38Z</time></trkpt><trkpt lat="38.71923156802617" lon="16.436429637129915"><ele>419.8</ele><time>2026-04-11T16:07:39Z</time></trkpt><trkpt lat="38.7192437732205" lon="16.436595157745735"><ele>419.6</ele><time>2026-04-11T16:07:40Z</time></trkpt><trkpt lat="38.71924568904514" lon="16.436733924760112"><ele>419.4</ele><time>2026-04-11T16:07:41Z</time></trkpt><trkpt lat="38.71925799170385" lon="16.436844909525835"><ele>419.2</ele><time>2026-04-11T16:07:42Z</time></trkpt><trkpt lat="38.71926639924067" lon="16.436936147363586"><ele>419.0</ele><time>2026-04-11T16:07:43Z</time></trkpt><trkpt lat="38.71925963593027" lon="16.437078088103192"><ele>418.2</ele><time>2026-04-11T16:07:45Z</time></trkpt><trkpt lat="38.71925391211154" lon="16.437183958206948"><ele>417.4</ele><time>2026-04-11T16:07:47Z</time></trkpt><trkpt lat="38.7193413092569" lon="16.437288079216334"><ele>416.6</ele><time>2026-04-11T16:07:50Z</time></trkpt><trkpt lat="38.71942299322808" lon="16.43739407797291"><ele>415.8</ele><time>2026-04-11T16:07:52Z</time></trkpt><trkpt lat="38.71946102317456" lon="16.437502922716416"><ele>415.0</ele><time>2026-04-11T16:07:53Z</time></trkpt><trkpt lat="38.719503334436745" lon="16.437645018150757"><ele>411.6666666666667</ele><time>2026-04-11T16:07:54Z</time></trkpt><trkpt lat="38.71955511924457" lon="16.437822603601806"><ele>408.33333333333337</ele><time>2026-04-11T16:07:55Z</time></trkpt><trkpt lat="38.71961416301686" lon="16.438044786800347"><ele>405.0</ele><time>2026-04-11T16:07:56Z</time></trkpt><trkpt lat="38.71965705398148" lon="16.438260862695934"><ele>405.0</ele><time>2026-04-11T16:07:57Z</time></trkpt><trkpt lat="38.71971805643474" lon="16.438445987319767"><ele>405.0</ele><time>2026-04-11T16:07:58Z</time></trkpt><trkpt lat="38.719726625914674" lon="16.438633101442957"><ele>405.0</ele><time>2026-04-11T16:07:59Z</time></trkpt><trkpt lat="38.71973097875" lon="16.438798511197962"><ele>405.0</ele><time>2026-04-11T16:08:00Z</time></trkpt><trkpt lat="38.71972223678875" lon="16.438959547185434"><ele>405.0</ele><time>2026-04-11T16:08:01Z</time></trkpt><trkpt lat="38.719707505713586" lon="16.439108659817183"><ele>405.0</ele><time>2026-04-11T16:08:02Z</time></trkpt><trkpt lat="38.719693557653514" lon="16.439208102474236"><ele>405.0</ele><time>2026-04-11T16:08:03Z</time></trkpt><trkpt lat="38.71967984965203" lon="16.439289056401012"><ele>405.0</ele><time>2026-04-11T16:08:04Z</time></trkpt><trkpt lat="38.719716588131114" lon="16.43942759747903"><ele>405.0</ele><time>2026-04-11T16:08:05Z</time></trkpt><trkpt lat="38.71978665017404" lon="16.439585764643535"><ele>405.8</ele><time>2026-04-11T16:08:07Z</time></trkpt><trkpt lat="38.719832829172596" lon="16.439688015812035"><ele>406.6</ele><time>2026-04-11T16:08:08Z</time></trkpt><trkpt lat="38.719893701027175" lon="16.439819567297313"><ele>407.4</ele><time>2026-04-11T16:08:10Z</time></trkpt><trkpt lat="38.71996125414015" lon="16.43996555780309"><ele>408.2</ele><time>2026-04-11T16:08:12Z</time></trkpt><trkpt lat="38.720012667397484" lon="16.440078095071573"><ele>409.0</ele><time>2026-04-11T16:08:13Z</time></trkpt><trkpt lat="38.72004819884558" lon="16.440159765418866"><ele>409.0</ele><time>2026-04-11T16:08:14Z</time></trkpt><trkpt lat="38.720081021742104" lon="16.4402394041829"><ele>409.0</ele><time>2026-04-11T16:08:15Z</time></trkpt><trkpt lat="38.72011837710081" lon="16.440334387425878"><ele>409.0</ele><time>2026-04-11T16:08:16Z</time></trkpt><trkpt lat="38.72016133764081" lon="16.44044550578112"><ele>409.0</ele><time>2026-04-11T16:08:17Z</time></trkpt><trkpt lat="38.72021349693524" lon="16.440563249555645"><ele>409.0</ele><time>2026-04-11T16:08:18Z</time></trkpt><trkpt lat="38.72026197165654" lon="16.440711421044966"><ele>412.33333333333337</ele><time>2026-04-11T16:08:19Z</time></trkpt><trkpt lat="38.720338543189406" lon="16.440871464223942"><ele>415.66666666666663</ele><time>2026-04-11T16:08:20Z</time></trkpt><trkpt lat="38.72043300044436" lon="16.44104701161881"><ele>419.0</ele><time>2026-04-11T16:08:21Z</time></trkpt><trkpt lat="38.72056981948737" lon="16.441218819250775"><ele>420.75</ele><time>2026-04-11T16:08:22Z</time></trkpt><trkpt lat="38.720691479768014" lon="16.441358412849862"><ele>422.5</ele><time>2026-04-11T16:08:23Z</time></trkpt><trkpt lat="38.72076999531892" lon="16.441469367969354"><ele>424.25</ele><time>2026-04-11T16:08:24Z</time></trkpt><trkpt lat="38.72081202420722" lon="16.441567672561124"><ele>426.0</ele><time>2026-04-11T16:08:25Z</time></trkpt><trkpt lat="38.72082283502138" lon="16.441702878155724"><ele>426.0</ele><time>2026-04-11T16:08:26Z</time></trkpt><trkpt lat="38.720870523648095" lon="16.441870571732146"><ele>426.0</ele><time>2026-04-11T16:08:27Z</time></trkpt><trkpt lat="38.720912980602016" lon="16.442046674516313"><ele>426.0</ele><time>2026-04-11T16:08:28Z</time></trkpt><trkpt lat="38.72097110938372" lon="16.4421555619843"><ele>426.0</ele><time>2026-04-11T16:08:29Z</time></trkpt><trkpt lat="38.721043262602606" lon="16.442205595403067"><ele>428.0</ele><time>2026-04-11T16:08:30Z</time></trkpt><trkpt lat="38.72113086593743" lon="16.442201848123243"><ele>430.0</ele><time>2026-04-11T16:08:31Z</time></trkpt><trkpt lat="38.72125698430108" lon="16.44216747370468"><ele>432.0</ele><time>2026-04-11T16:08:32Z</time></trkpt><trkpt lat="38.721407389546336" lon="16.442090859007347"><ele>434.0</ele><time>2026-04-11T16:08:33Z</time></trkpt><trkpt lat="38.72157674167544" lon="16.44200802922999"><ele>434.0</ele><time>2026-04-11T16:08:34Z</time></trkpt><trkpt lat="38.721764569855566" lon="16.441931665012817"><ele>434.0</ele><time>2026-04-11T16:08:35Z</time></trkpt><trkpt lat="38.72193266207207" lon="16.44187087821067"><ele>434.0</ele><time>2026-04-11T16:08:36Z</time></trkpt><trkpt lat="38.722071763399065" lon="16.44183412060451"><ele>436.5</ele><time>2026-04-11T16:08:37Z</time></trkpt><trkpt lat="38.722195591786914" lon="16.44181257626027"><ele>439.0</ele><time>2026-04-11T16:08:38Z</time></trkpt><trkpt lat="38.72231056360128" lon="16.44185292979014"><ele>441.5</ele><time>2026-04-11T16:08:39Z</time></trkpt><trkpt lat="38.722432610687896" lon="16.441882856065607"><ele>444.0</ele><time>2026-04-11T16:08:40Z</time></trkpt><trkpt lat="38.72255105457615" lon="16.44189578231311"><ele>444.0</ele><time>2026-04-11T16:08:41Z</time></trkpt><trkpt lat="38.72265524038133" lon="16.441927041830613"><ele>444.0</ele><time>2026-04-11T16:08:42Z</time></trkpt><trkpt lat="38.7227606468442" lon="16.441955156577496"><ele>444.0</ele><time>2026-04-11T16:08:43Z</time></trkpt><trkpt lat="38.722872553597675" lon="16.441987159826"><ele>444.0</ele><time>2026-04-11T16:08:44Z</time></trkpt><trkpt lat="38.72299121465673" lon="16.44203357878501"><ele>445.25</ele><time>2026-04-11T16:08:45Z</time></trkpt><trkpt lat="38.723124558530664" lon="16.442039535598944"><ele>446.5</ele><time>2026-04-11T16:08:46Z</time></trkpt><trkpt lat="38.7232736164021" lon="16.442059338894325"><ele>447.75</ele><time>2026-04-11T16:08:47Z</time></trkpt><trkpt lat="38.72342611257865" lon="16.442062262403947"><ele>449.0</ele><time>2026-04-11T16:08:48Z</time></trkpt><trkpt lat="38.72359045597213" lon="16.44206941574257"><ele>451.0</ele><time>2026-04-11T16:08:49Z</time></trkpt><trkpt lat="38.72376032461301" lon="16.44209528807426"><ele>453.0</ele><time>2026-04-11T16:08:50Z</time></trkpt><trkpt lat="38.723926197275745" lon="16.4421597691869"><ele>455.0</ele><time>2026-04-11T16:08:51Z</time></trkpt><trkpt lat="38.72408841593417" lon="16.442206973844414"><ele>456.0</ele><time>2026-04-11T16:08:52Z</time></trkpt><trkpt lat="38.72420770236034" lon="16.442228574724417"><ele>457.0</ele><time>2026-04-11T16:08:53Z</time></trkpt><trkpt lat="38.724326746567534" lon="16.44221112064381"><ele>458.0</ele><time>2026-04-11T16:08:54Z</time></trkpt><trkpt lat="38.72443521050472" lon="16.442188649523036"><ele>459.0</ele><time>2026-04-11T16:08:55Z</time></trkpt><trkpt lat="38.72455415344805" lon="16.44213245330488"><ele>461.66666666666663</ele><time>2026-04-11T16:08:56Z</time></trkpt><trkpt lat="38.724675088648645" lon="16.442035956361973"><ele>464.3333333333333</ele><time>2026-04-11T16:08:57Z</time></trkpt><trkpt lat="38.72480340376437" lon="16.441889891908094"><ele>467.0</ele><time>2026-04-11T16:08:58Z</time></trkpt><trkpt lat="38.72492982336669" lon="16.441704228685584"><ele>467.0</ele><time>2026-04-11T16:08:59Z</time></trkpt><trkpt lat="38.72503187366075" lon="16.441521400131876"><ele>467.0</ele><time>2026-04-11T16:09:00Z</time></trkpt><trkpt lat="38.72511262038709" lon="16.4413745766763"><ele>467.0</ele><time>2026-04-11T16:09:01Z</time></trkpt><trkpt lat="38.725216800027866" lon="16.4412837876475"><ele>467.0</ele><time>2026-04-11T16:09:02Z</time></trkpt><trkpt lat="38.725334824627204" lon="16.44119506049423"><ele>468.25</ele><time>2026-04-11T16:09:03Z</time></trkpt><trkpt lat="38.725472797894646" lon="16.44107611142256"><ele>469.5</ele><time>2026-04-11T16:09:04Z</time></trkpt><trkpt lat="38.72560390626005" lon="16.440977426116415"><ele>470.75</ele><time>2026-04-11T16:09:05Z</time></trkpt><trkpt lat="38.72570597177012" lon="16.44088459990852"><ele>472.0</ele><time>2026-04-11T16:09:06Z</time></trkpt><trkpt lat="38.72579182847651" lon="16.440809675173732"><ele>472.0</ele><time>2026-04-11T16:09:07Z</time></trkpt><trkpt lat="38.72588540958586" lon="16.440772242421613"><ele>472.00000000000006</ele><time>2026-04-11T16:09:08Z</time></trkpt><trkpt lat="38.72597966412341" lon="16.44078371332566"><ele>472.00000000000006</ele><time>2026-04-11T16:09:09Z</time></trkpt><trkpt lat="38.726080829760576" lon="16.44079187455091"><ele>472.0</ele><time>2026-04-11T16:09:10Z</time></trkpt><trkpt lat="38.726206122351016" lon="16.440820024166566"><ele>472.0</ele><time>2026-04-11T16:09:11Z</time></trkpt><trkpt lat="38.72635164717839" lon="16.440869802121426"><ele>472.40000000000003</ele><time>2026-04-11T16:09:12Z</time></trkpt><trkpt lat="38.72648010050594" lon="16.44091373488171"><ele>472.80000000000007</ele><time>2026-04-11T16:09:13Z</time></trkpt><trkpt lat="38.72658853293283" lon="16.4409310765041"><ele>473.2</ele><time>2026-04-11T16:09:14Z</time></trkpt><trkpt lat="38.72669160422068" lon="16.440957601829545"><ele>473.6</ele><time>2026-04-11T16:09:15Z</time></trkpt><trkpt lat="38.72678561646189" lon="16.44095540852842"><ele>474.0</ele><time>2026-04-11T16:09:16Z</time></trkpt><trkpt lat="38.72685669398253" lon="16.44093415823487"><ele>474.6</ele><time>2026-04-11T16:09:17Z</time></trkpt><trkpt lat="38.72691822902378" lon="16.440916556725796"><ele>475.2</ele><time>2026-04-11T16:09:22Z</time></trkpt><trkpt lat="38.7270060297993" lon="16.44099483763254"><ele>475.80000000000007</ele><time>2026-04-11T16:09:57Z</time></trkpt><trkpt lat="38.727089163886504" lon="16.441022779467996"><ele>476.40000000000003</ele><time>2026-04-11T16:09:58Z</time></trkpt><trkpt lat="38.72719251254482" lon="16.441086856223954"><ele>477.0</ele><time>2026-04-11T16:09:59Z</time></trkpt><trkpt lat="38.727346851070116" lon="16.44112787730942"><ele>477.0</ele><time>2026-04-11T16:10:00Z</time></trkpt><trkpt lat="38.72746373523288" lon="16.441190652289645"><ele>477.0</ele><time>2026-04-11T16:10:01Z</time></trkpt><trkpt lat="38.72758223591068" lon="16.44124639742674"><ele>477.0</ele><time>2026-04-11T16:10:02Z</time></trkpt><trkpt lat="38.72769213556897" lon="16.441305045296048"><ele>477.0</ele><time>2026-04-11T16:10:03Z</time></trkpt><trkpt lat="38.72780440946524" lon="16.44132708584244"><ele>475.0</ele><time>2026-04-11T16:10:04Z</time></trkpt><trkpt lat="38.72792474650548" lon="16.44134464518409"><ele>473.0</ele><time>2026-04-11T16:10:05Z</time></trkpt><trkpt lat="38.72806797587712" lon="16.441342175809698"><ele>471.0</ele><time>2026-04-11T16:10:06Z</time></trkpt><trkpt lat="38.72820122542423" lon="16.441334970476163"><ele>469.0</ele><time>2026-04-11T16:10:07Z</time></trkpt><trkpt lat="38.72831447285446" lon="16.441347411519946"><ele>469.0</ele><time>2026-04-11T16:10:08Z</time></trkpt><trkpt lat="38.72842468908094" lon="16.44134739254942"><ele>469.0</ele><time>2026-04-11T16:10:09Z</time></trkpt><trkpt lat="38.72853828825298" lon="16.441343895183394"><ele>469.0</ele><time>2026-04-11T16:10:10Z</time></trkpt><trkpt lat="38.728652052817594" lon="16.441314360783498"><ele>469.0</ele><time>2026-04-11T16:10:11Z</time></trkpt><trkpt lat="38.728755636057905" lon="16.441274770161055"><ele>469.0</ele><time>2026-04-11T16:10:12Z</time></trkpt><trkpt lat="38.72886048008693" lon="16.44123453438647"><ele>470.1666666666667</ele><time>2026-04-11T16:10:13Z</time></trkpt><trkpt lat="38.72896578783795" lon="16.441217652081647"><ele>471.33333333333337</ele><time>2026-04-11T16:10:14Z</time></trkpt><trkpt lat="38.72904693713849" lon="16.441207220179937"><ele>472.5</ele><time>2026-04-11T16:10:15Z</time></trkpt><trkpt lat="38.72911383595131" lon="16.441207253433316"><ele>473.66666666666663</ele><time>2026-04-11T16:10:16Z</time></trkpt><trkpt lat="38.72916974020139" lon="16.441265751896427"><ele>474.8333333333333</ele><time>2026-04-11T16:10:17Z</time></trkpt><trkpt lat="38.72926676450599" lon="16.441282932833367"><ele>476.0</ele><time>2026-04-11T16:10:18Z</time></trkpt><trkpt lat="38.72935205072042" lon="16.441319676358166"><ele>477.6</ele><time>2026-04-11T16:10:19Z</time></trkpt><trkpt lat="38.72941920876512" lon="16.44130986515592"><ele>479.20000000000005</ele><time>2026-04-11T16:10:20Z</time></trkpt><trkpt lat="38.729509367181976" lon="16.44126516614241"><ele>480.79999999999995</ele><time>2026-04-11T16:10:21Z</time></trkpt><trkpt lat="38.72957088892197" lon="16.4413396724792"><ele>482.4</ele><time>2026-04-11T16:10:22Z</time></trkpt><trkpt lat="38.72968189831104" lon="16.441349242518005"><ele>484.0</ele><time>2026-04-11T16:10:23Z</time></trkpt><trkpt lat="38.72981505845115" lon="16.44133941092873"><ele>484.0</ele><time>2026-04-11T16:10:24Z</time></trkpt><trkpt lat="38.729958561538226" lon="16.44133599691799"><ele>484.0</ele><time>2026-04-11T16:10:25Z</time></trkpt><trkpt lat="38.730108430027116" lon="16.441318536491117"><ele>484.0</ele><time>2026-04-11T16:10:26Z</time></trkpt><trkpt lat="38.73021106826739" lon="16.441316873902895"><ele>484.0</ele><time>2026-04-11T16:10:27Z</time></trkpt><trkpt lat="38.73026997104703" lon="16.44135612248861"><ele>484.0</ele><time>2026-04-11T16:10:28Z</time></trkpt><trkpt lat="38.730242363339535" lon="16.44144739126449"><ele>484.0</ele><time>2026-04-11T16:10:30Z</time></trkpt><trkpt lat="38.73016251340531" lon="16.441686585542254"><ele>484.0</ele><time>2026-04-11T16:10:32Z</time></trkpt><trkpt lat="38.73014013569833" lon="16.441811656998713"><ele>484.0</ele><time>2026-04-11T16:10:33Z</time></trkpt><trkpt lat="38.73016491475395" lon="16.441909639023578"><ele>486.2</ele><time>2026-04-11T16:10:34Z</time></trkpt><trkpt lat="38.73024357929432" lon="16.442012165648677"><ele>488.4</ele><time>2026-04-11T16:10:36Z</time></trkpt><trkpt lat="38.73032514861512" lon="16.44196774827254"><ele>490.6</ele><time>2026-04-11T16:10:37Z</time></trkpt><trkpt lat="38.73043041346577" lon="16.441989483071946"><ele>492.8</ele><time>2026-04-11T16:10:38Z</time></trkpt><trkpt lat="38.73056069302477" lon="16.441992980316726"><ele>495.0</ele><time>2026-04-11T16:10:39Z</time></trkpt><trkpt lat="38.730700163899925" lon="16.44202290698719"><ele>495.0</ele><time>2026-04-11T16:10:40Z</time></trkpt><trkpt lat="38.730818260664705" lon="16.442073896076387"><ele>495.0</ele><time>2026-04-11T16:10:41Z</time></trkpt><trkpt lat="38.7308877118629" lon="16.442121317835177"><ele>495.0</ele><time>2026-04-11T16:10:42Z</time></trkpt><trkpt lat="38.73090719521358" lon="16.44220472292817"><ele>495.0</ele><time>2026-04-11T16:10:43Z</time></trkpt><trkpt lat="38.73092417981122" lon="16.442304486630675"><ele>495.0</ele><time>2026-04-11T16:10:44Z</time></trkpt><trkpt lat="38.73095753251579" lon="16.44241680188528"><ele>495.0</ele><time>2026-04-11T16:10:45Z</time></trkpt><trkpt lat="38.731011618288555" lon="16.442502772062923"><ele>499.1666666666667</ele><time>2026-04-11T16:10:46Z</time></trkpt><trkpt lat="38.73107462380221" lon="16.442584399458845"><ele>503.33333333333337</ele><time>2026-04-11T16:10:47Z</time></trkpt><trkpt lat="38.73113987354589" lon="16.442616313390193"><ele>507.5</ele><time>2026-04-11T16:10:48Z</time></trkpt><trkpt lat="38.73121963222506" lon="16.442628142351477"><ele>511.6666666666667</ele><time>2026-04-11T16:10:49Z</time></trkpt><trkpt lat="38.731311534862066" lon="16.44262937298579"><ele>515.8333333333334</ele><time>2026-04-11T16:10:51Z</time></trkpt><trkpt lat="38.73137770606079" lon="16.442619919956247"><ele>520.0</ele><time>2026-04-11T16:11:00Z</time></trkpt><trkpt lat="38.73144728525498" lon="16.44267983535201"><ele>520.0</ele><time>2026-04-11T16:11:02Z</time></trkpt><trkpt lat="38.73153290794082" lon="16.44275172511084"><ele>520.0</ele><time>2026-04-11T16:11:04Z</time></trkpt><trkpt lat="38.73160937611059" lon="16.442818210666776"><ele>520.0</ele><time>2026-04-11T16:11:05Z</time></trkpt><trkpt lat="38.731689687500726" lon="16.44289473485363"><ele>520.0</ele><time>2026-04-11T16:11:06Z</time></trkpt><trkpt lat="38.73174846532273" lon="16.44296499368032"><ele>520.0</ele><time>2026-04-11T16:11:07Z</time></trkpt><trkpt lat="38.7318102749395" lon="16.443040741136347"><ele>519.75</ele><time>2026-04-11T16:11:08Z</time></trkpt><trkpt lat="38.73188440963804" lon="16.443130802705166"><ele>519.5</ele><time>2026-04-11T16:11:09Z</time></trkpt><trkpt lat="38.731955114976614" lon="16.443216961593787"><ele>519.25</ele><time>2026-04-11T16:11:10Z</time></trkpt><trkpt lat="38.73204476078175" lon="16.443298774611602"><ele>519.0</ele><time>2026-04-11T16:11:12Z</time></trkpt><trkpt lat="38.7324965887015" lon="16.442830534052842"><ele>523.2</ele><time>2026-04-11T16:11:14Z</time></trkpt><trkpt lat="38.73259752626128" lon="16.4427968515146"><ele>527.4</ele><time>2026-04-11T16:11:15Z</time></trkpt><trkpt lat="38.73270928997391" lon="16.442770090258822"><ele>531.6</ele><time>2026-04-11T16:11:16Z</time></trkpt><trkpt lat="38.732800941477464" lon="16.4427564990564"><ele>535.8</ele><time>2026-04-11T16:11:17Z</time></trkpt><trkpt lat="38.73290546291821" lon="16.442740884412473"><ele>540.0</ele><time>2026-04-11T16:11:19Z</time></trkpt><trkpt lat="38.7329850090139" lon="16.442747954347784"><ele>541.8333333333334</ele><time>2026-04-11T16:11:21Z</time></trkpt><trkpt lat="38.73307351956623" lon="16.44274651846388"><ele>543.6666666666666</ele><time>2026-04-11T16:11:23Z</time></trkpt><trkpt lat="38.73314255884704" lon="16.44276738328589"><ele>545.5</ele><time>2026-04-11T16:11:24Z</time></trkpt><trkpt lat="38.73320380247622" lon="16.44279337515468"><ele>547.3333333333333</ele><time>2026-04-11T16:11:25Z</time></trkpt><trkpt lat="38.73331606482342" lon="16.44283447737972"><ele>549.1666666666666</ele><time>2026-04-11T16:11:27Z</time></trkpt><trkpt lat="38.733386491029194" lon="16.44286368154798"><ele>551.0</ele><time>2026-04-11T16:11:28Z</time></trkpt><trkpt lat="38.73345337253915" lon="16.442889241756284"><ele>551.0</ele><time>2026-04-11T16:11:29Z</time></trkpt><trkpt lat="38.73352665629994" lon="16.442923236336018"><ele>551.0</ele><time>2026-04-11T16:11:30Z</time></trkpt><trkpt lat="38.73359770079263" lon="16.44297289477843"><ele>551.0</ele><time>2026-04-11T16:11:31Z</time></trkpt><trkpt lat="38.733660920003814" lon="16.44302371208256"><ele>551.0</ele><time>2026-04-11T16:11:32Z</time></trkpt><trkpt lat="38.733709864594864" lon="16.443081165246824"><ele>551.0</ele><time>2026-04-11T16:11:33Z</time></trkpt><trkpt lat="38.73378593513791" lon="16.443186334634557"><ele>551.0</ele><time>2026-04-11T16:11:35Z</time></trkpt><trkpt lat="38.73384828706774" lon="16.443296629199235"><ele>553.3333333333333</ele><time>2026-04-11T16:11:37Z</time></trkpt><trkpt lat="38.73384394968479" lon="16.443395197717535"><ele>555.6666666666666</ele><time>2026-04-11T16:11:39Z</time></trkpt><trkpt lat="38.73385220150978" lon="16.44347675838744"><ele>558.0</ele><time>2026-04-11T16:11:40Z</time></trkpt><trkpt lat="38.7338624062346" lon="16.44357761854224"><ele>560.3333333333334</ele><time>2026-04-11T16:11:41Z</time></trkpt><trkpt lat="38.733873328070665" lon="16.443685566324962"><ele>562.6666666666667</ele><time>2026-04-11T16:11:42Z</time></trkpt><trkpt lat="38.73390337945581" lon="16.443803055664688"><ele>565.0</ele><time>2026-04-11T16:11:43Z</time></trkpt><trkpt lat="38.733904506653765" lon="16.443929228423308"><ele>565.5</ele><time>2026-04-11T16:11:44Z</time></trkpt><trkpt lat="38.73390411311614" lon="16.444048608735255"><ele>566.0</ele><time>2026-04-11T16:11:45Z</time></trkpt><trkpt lat="38.73390125908024" lon="16.444140573755398"><ele>566.5</ele><time>2026-04-11T16:11:46Z</time></trkpt><trkpt lat="38.73389403265076" lon="16.44426920384482"><ele>567.0</ele><time>2026-04-11T16:11:48Z</time></trkpt><trkpt lat="38.733932971334816" lon="16.4443685654165"><ele>567.5</ele><time>2026-04-11T16:11:50Z</time></trkpt><trkpt lat="38.73398182589668" lon="16.444425285754857"><ele>568.0</ele><time>2026-04-11T16:11:51Z</time></trkpt><trkpt lat="38.734044393162506" lon="16.444490083716147"><ele>568.0</ele><time>2026-04-11T16:11:52Z</time></trkpt><trkpt lat="38.734119795858206" lon="16.444560198481607"><ele>568.0</ele><time>2026-04-11T16:11:53Z</time></trkpt><trkpt lat="38.734198378270136" lon="16.444639610237783"><ele>568.0</ele><time>2026-04-11T16:11:54Z</time></trkpt><trkpt lat="38.734278506220924" lon="16.444719203525022"><ele>568.0</ele><time>2026-04-11T16:11:55Z</time></trkpt><trkpt lat="38.73436528511592" lon="16.44481368489003"><ele>568.0</ele><time>2026-04-11T16:11:56Z</time></trkpt><trkpt lat="38.73446199713844" lon="16.444920371597476"><ele>570.3333333333334</ele><time>2026-04-11T16:11:57Z</time></trkpt><trkpt lat="38.73456568342124" lon="16.445028388089064"><ele>572.6666666666666</ele><time>2026-04-11T16:11:58Z</time></trkpt><trkpt lat="38.734686749750026" lon="16.445162044589594"><ele>575.0</ele><time>2026-04-11T16:11:59Z</time></trkpt><trkpt lat="38.73480273020403" lon="16.445329094888784"><ele>574.3333333333333</ele><time>2026-04-11T16:12:00Z</time></trkpt><trkpt lat="38.73494529028849" lon="16.445478758983846"><ele>573.6666666666666</ele><time>2026-04-11T16:12:01Z</time></trkpt><trkpt lat="38.735076782247056" lon="16.445616802351577"><ele>573.0</ele><time>2026-04-11T16:12:02Z</time></trkpt><trkpt lat="38.735220324203105" lon="16.445767025297705"><ele>575.3333333333334</ele><time>2026-04-11T16:12:03Z</time></trkpt><trkpt lat="38.735354270741084" lon="16.445906907122918"><ele>577.6666666666667</ele><time>2026-04-11T16:12:04Z</time></trkpt><trkpt lat="38.73549870005726" lon="16.44605773621743"><ele>580.0</ele><time>2026-04-11T16:12:05Z</time></trkpt><trkpt lat="38.735643773820826" lon="16.446209238274648"><ele>579.6666666666667</ele><time>2026-04-11T16:12:06Z</time></trkpt><trkpt lat="38.735783899692855" lon="16.446355573625148"><ele>579.3333333333334</ele><time>2026-04-11T16:12:07Z</time></trkpt><trkpt lat="38.73592754711406" lon="16.446506424548833"><ele>579.0</ele><time>2026-04-11T16:12:08Z</time></trkpt><trkpt lat="38.736071174664374" lon="16.446656479836587"><ele>580.3333333333334</ele><time>2026-04-11T16:12:09Z</time></trkpt><trkpt lat="38.73621573071216" lon="16.446807227567486"><ele>581.6666666666667</ele><time>2026-04-11T16:12:10Z</time></trkpt><trkpt lat="38.736364943656376" lon="16.446962831643873"><ele>583.0</ele><time>2026-04-11T16:12:11Z</time></trkpt><trkpt lat="38.73652522162186" lon="16.447130615085385"><ele>583.0</ele><time>2026-04-11T16:12:12Z</time></trkpt><trkpt lat="38.73667512921795" lon="16.447287572790877"><ele>583.0</ele><time>2026-04-11T16:12:13Z</time></trkpt><trkpt lat="38.73680881678044" lon="16.447427547701036"><ele>583.0</ele><time>2026-04-11T16:12:14Z</time></trkpt><trkpt lat="38.736932019297356" lon="16.447557204637043"><ele>583.25</ele><time>2026-04-11T16:12:15Z</time></trkpt><trkpt lat="38.737054734083344" lon="16.44768405220702"><ele>583.5</ele><time>2026-04-11T16:12:16Z</time></trkpt><trkpt lat="38.73716666634973" lon="16.447799647025775"><ele>583.75</ele><time>2026-04-11T16:12:17Z</time></trkpt><trkpt lat="38.73727827509588" lon="16.447914907613587"><ele>584.0</ele><time>2026-04-11T16:12:18Z</time></trkpt><trkpt lat="38.73738817089606" lon="16.4480283992612"><ele>583.75</ele><time>2026-04-11T16:12:19Z</time></trkpt><trkpt lat="38.73749410728694" lon="16.448137301666158"><ele>583.5</ele><time>2026-04-11T16:12:20Z</time></trkpt><trkpt lat="38.737608384750835" lon="16.44825082043862"><ele>583.25</ele><time>2026-04-11T16:12:21Z</time></trkpt><trkpt lat="38.737727965342266" lon="16.448358328445742"><ele>583.0</ele><time>2026-04-11T16:12:22Z</time></trkpt><trkpt lat="38.73786357074878" lon="16.44845159136856"><ele>583.0</ele><time>2026-04-11T16:12:23Z</time></trkpt><trkpt lat="38.738012741738146" lon="16.44852020325142"><ele>583.0</ele><time>2026-04-11T16:12:24Z</time></trkpt><trkpt lat="38.73817241921516" lon="16.448538299197775"><ele>583.0</ele><time>2026-04-11T16:12:25Z</time></trkpt><trkpt lat="38.73831267940613" lon="16.448566912715755"><ele>583.0</ele><time>2026-04-11T16:12:26Z</time></trkpt><trkpt lat="38.738434563477355" lon="16.448638486841567"><ele>583.0</ele><time>2026-04-11T16:12:27Z</time></trkpt><trkpt lat="38.738556563092125" lon="16.44871662234196"><ele>583.0</ele><time>2026-04-11T16:12:28Z</time></trkpt><trkpt lat="38.73866361554686" lon="16.448821519264502"><ele>583.0</ele><time>2026-04-11T16:12:29Z</time></trkpt><trkpt lat="38.73876682996401" lon="16.44894705705827"><ele>584.0</ele><time>2026-04-11T16:12:30Z</time></trkpt><trkpt lat="38.738844464777024" lon="16.449106941198373"><ele>585.0</ele><time>2026-04-11T16:12:31Z</time></trkpt><trkpt lat="38.73893823975872" lon="16.44928938781344"><ele>586.0</ele><time>2026-04-11T16:12:32Z</time></trkpt><trkpt lat="38.73903850861643" lon="16.449485886195838"><ele>586.0</ele><time>2026-04-11T16:12:33Z</time></trkpt><trkpt lat="38.73914065265015" lon="16.449686058742756"><ele>586.0</ele><time>2026-04-11T16:12:34Z</time></trkpt><trkpt lat="38.7392449760501" lon="16.4498782689392"><ele>586.0</ele><time>2026-04-11T16:12:35Z</time></trkpt><trkpt lat="38.73936641994962" lon="16.450074207964054"><ele>587.6666666666667</ele><time>2026-04-11T16:12:36Z</time></trkpt><trkpt lat="38.7395130560125" lon="16.450255534782652"><ele>589.3333333333334</ele><time>2026-04-11T16:12:37Z</time></trkpt><trkpt lat="38.739682744680486" lon="16.450435260107213"><ele>591.0</ele><time>2026-04-11T16:12:38Z</time></trkpt><trkpt lat="38.73984130673086" lon="16.45059809033976"><ele>591.0</ele><time>2026-04-11T16:12:39Z</time></trkpt><trkpt lat="38.73998136659094" lon="16.45074226668123"><ele>591.0</ele><time>2026-04-11T16:12:40Z</time></trkpt><trkpt lat="38.74010483930422" lon="16.45086957726654"><ele>591.0</ele><time>2026-04-11T16:12:41Z</time></trkpt><trkpt lat="38.74021886171959" lon="16.450988113921717"><ele>592.5</ele><time>2026-04-11T16:12:42Z</time></trkpt><trkpt lat="38.74032055536823" lon="16.451100980926643"><ele>594.0</ele><time>2026-04-11T16:12:43Z</time></trkpt><trkpt lat="38.74040538433035" lon="16.451235519587417"><ele>595.5</ele><time>2026-04-11T16:12:44Z</time></trkpt><trkpt lat="38.74048204617884" lon="16.451398699529296"><ele>597.0</ele><time>2026-04-11T16:12:45Z</time></trkpt><trkpt lat="38.74055141231366" lon="16.45158827548698"><ele>597.0</ele><time>2026-04-11T16:12:46Z</time></trkpt><trkpt lat="38.74062505500157" lon="16.451785551428298"><ele>597.0</ele><time>2026-04-11T16:12:47Z</time></trkpt><trkpt lat="38.740700781417054" lon="16.451987753755684"><ele>597.0</ele><time>2026-04-11T16:12:48Z</time></trkpt><trkpt lat="38.740777738711174" lon="16.452193659818715"><ele>595.6666666666666</ele><time>2026-04-11T16:12:49Z</time></trkpt><trkpt lat="38.74085135122915" lon="16.452391235112305"><ele>594.3333333333333</ele><time>2026-04-11T16:12:50Z</time></trkpt><trkpt lat="38.74091846579544" lon="16.452571369965472"><ele>593.0</ele><time>2026-04-11T16:12:51Z</time></trkpt><trkpt lat="38.74098052194115" lon="16.452737928113272"><ele>593.0</ele><time>2026-04-11T16:12:52Z</time></trkpt><trkpt lat="38.74104424776273" lon="16.4529089675454"><ele>593.0</ele><time>2026-04-11T16:12:53Z</time></trkpt><trkpt lat="38.74111002002558" lon="16.453085243823228"><ele>593.0</ele><time>2026-04-11T16:12:54Z</time></trkpt><trkpt lat="38.74117394283974" lon="16.453256220744993"><ele>593.0</ele><time>2026-04-11T16:12:55Z</time></trkpt><trkpt lat="38.74124126872023" lon="16.453436299990784"><ele>592.6666666666666</ele><time>2026-04-11T16:12:56Z</time></trkpt><trkpt lat="38.741307494930595" lon="16.453613437957973"><ele>592.3333333333334</ele><time>2026-04-11T16:12:57Z</time></trkpt><trkpt lat="38.74137336547638" lon="16.45378990845933"><ele>592.0</ele><time>2026-04-11T16:12:58Z</time></trkpt><trkpt lat="38.74143863014749" lon="16.45396478428068"><ele>592.0</ele><time>2026-04-11T16:12:59Z</time></trkpt><trkpt lat="38.74150288266079" lon="16.454136747800113"><ele>592.0</ele><time>2026-04-11T16:13:00Z</time></trkpt><trkpt lat="38.74156684387511" lon="16.454301954479174"><ele>592.0</ele><time>2026-04-11T16:13:01Z</time></trkpt><trkpt lat="38.741625578491536" lon="16.454458331727864"><ele>592.0</ele><time>2026-04-11T16:13:02Z</time></trkpt><trkpt lat="38.741680975793976" lon="16.454613383342874"><ele>591.5</ele><time>2026-04-11T16:13:03Z</time></trkpt><trkpt lat="38.74175393059927" lon="16.45477460817198"><ele>591.0</ele><time>2026-04-11T16:13:04Z</time></trkpt><trkpt lat="38.741789720645" lon="16.454956924914104"><ele>590.5</ele><time>2026-04-11T16:13:05Z</time></trkpt><trkpt lat="38.74181578346256" lon="16.455141271215567"><ele>590.0</ele><time>2026-04-11T16:13:06Z</time></trkpt><trkpt lat="38.7418382996392" lon="16.455324867178977"><ele>588.75</ele><time>2026-04-11T16:13:07Z</time></trkpt><trkpt lat="38.74186941352622" lon="16.455510715229106"><ele>587.5</ele><time>2026-04-11T16:13:08Z</time></trkpt><trkpt lat="38.741903906699775" lon="16.45570442475319"><ele>586.25</ele><time>2026-04-11T16:13:09Z</time></trkpt><trkpt lat="38.74191172111947" lon="16.455880847127414"><ele>585.0</ele><time>2026-04-11T16:13:10Z</time></trkpt><trkpt lat="38.7419665166639" lon="16.45603510220512"><ele>585.0</ele><time>2026-04-11T16:13:11Z</time></trkpt><trkpt lat="38.74199372649289" lon="16.45618395863694"><ele>585.0</ele><time>2026-04-11T16:13:12Z</time></trkpt><trkpt lat="38.74203058045777" lon="16.45631262145608"><ele>585.0</ele><time>2026-04-11T16:13:13Z</time></trkpt><trkpt lat="38.74208142250139" lon="16.45641925868386"><ele>585.0</ele><time>2026-04-11T16:13:14Z</time></trkpt><trkpt lat="38.74216415768275" lon="16.456472191786464"><ele>585.0</ele><time>2026-04-11T16:13:15Z</time></trkpt><trkpt lat="38.74226299745365" lon="16.456496686880246"><ele>585.0</ele><time>2026-04-11T16:13:16Z</time></trkpt><trkpt lat="38.7423646220212" lon="16.456424443522657"><ele>585.0</ele><time>2026-04-11T16:13:17Z</time></trkpt><trkpt lat="38.74247671168929" lon="16.45633690017017"><ele>585.0</ele><time>2026-04-11T16:13:18Z</time></trkpt><trkpt lat="38.742593738846935" lon="16.456232852328352"><ele>585.0</ele><time>2026-04-11T16:13:19Z</time></trkpt><trkpt lat="38.7427170369046" lon="16.456122429210126"><ele>583.0</ele><time>2026-04-11T16:13:20Z</time></trkpt><trkpt lat="38.74282439206404" lon="16.456033429358133"><ele>581.0</ele><time>2026-04-11T16:13:21Z</time></trkpt><trkpt lat="38.74292466972804" lon="16.455976797461926"><ele>579.0</ele><time>2026-04-11T16:13:22Z</time></trkpt><trkpt lat="38.74303175159077" lon="16.4559538463557"><ele>577.0</ele><time>2026-04-11T16:13:23Z</time></trkpt><trkpt lat="38.74312032551982" lon="16.456012872392147"><ele>575.0</ele><time>2026-04-11T16:13:24Z</time></trkpt><trkpt lat="38.74318746016025" lon="16.4561025115511"><ele>575.0</ele><time>2026-04-11T16:13:25Z</time></trkpt><trkpt lat="38.74325317213419" lon="16.456260301908987"><ele>575.0</ele><time>2026-04-11T16:13:26Z</time></trkpt><trkpt lat="38.74331782878141" lon="16.45640440442311"><ele>575.0</ele><time>2026-04-11T16:13:27Z</time></trkpt><trkpt lat="38.743391678524404" lon="16.456527568902402"><ele>575.0</ele><time>2026-04-11T16:13:28Z</time></trkpt><trkpt lat="38.74343891734569" lon="16.456657839779602"><ele>574.6</ele><time>2026-04-11T16:13:29Z</time></trkpt><trkpt lat="38.743486359803235" lon="16.456785158347007"><ele>574.2</ele><time>2026-04-11T16:13:30Z</time></trkpt><trkpt lat="38.74353063296871" lon="16.456892360406236"><ele>573.8</ele><time>2026-04-11T16:13:31Z</time></trkpt><trkpt lat="38.743626544387475" lon="16.457015870502946"><ele>573.4</ele><time>2026-04-11T16:13:32Z</time></trkpt><trkpt lat="38.74368332428703" lon="16.457091356172395"><ele>573.0</ele><time>2026-04-11T16:13:33Z</time></trkpt><trkpt lat="38.74376367721277" lon="16.457218249553094"><ele>573.0</ele><time>2026-04-11T16:13:34Z</time></trkpt><trkpt lat="38.74389029579263" lon="16.45735700568729"><ele>573.0</ele><time>2026-04-11T16:13:35Z</time></trkpt><trkpt lat="38.7439703020441" lon="16.45743254670651"><ele>573.0</ele><time>2026-04-11T16:13:36Z</time></trkpt><trkpt lat="38.74404190094064" lon="16.457469581311894"><ele>573.0</ele><time>2026-04-11T16:13:37Z</time></trkpt><trkpt lat="38.74415215780422" lon="16.45745800596144"><ele>573.0</ele><time>2026-04-11T16:13:39Z</time></trkpt><trkpt lat="38.74419918424522" lon="16.45735995550062"><ele>573.0</ele><time>2026-04-11T16:13:42Z</time></trkpt><trkpt lat="38.74416193374805" lon="16.45723348222276"><ele>573.0</ele><time>2026-04-11T16:13:44Z</time></trkpt><trkpt lat="38.744107570006264" lon="16.457155559824695"><ele>573.0</ele><time>2026-04-11T16:13:45Z</time></trkpt><trkpt lat="38.744058419505976" lon="16.457074325650137"><ele>573.0</ele><time>2026-04-11T16:13:46Z</time></trkpt><trkpt lat="38.74400973932328" lon="16.456969767420663"><ele>570.8</ele><time>2026-04-11T16:13:47Z</time></trkpt><trkpt lat="38.74396751656747" lon="16.45685756609319"><ele>568.5999999999999</ele><time>2026-04-11T16:13:48Z</time></trkpt><trkpt lat="38.743913837706906" lon="16.45675317900123"><ele>566.4000000000001</ele><time>2026-04-11T16:13:49Z</time></trkpt><trkpt lat="38.74388253335664" lon="16.45662517760459"><ele>564.2</ele><time>2026-04-11T16:13:50Z</time></trkpt><trkpt lat="38.743865824370474" lon="16.45650029887139"><ele>562.0</ele><time>2026-04-11T16:13:51Z</time></trkpt><trkpt lat="38.74387388357962" lon="16.45636190750646"><ele>560.2</ele><time>2026-04-11T16:13:52Z</time></trkpt><trkpt lat="38.74390189333967" lon="16.456264014344086"><ele>558.4000000000001</ele><time>2026-04-11T16:13:53Z</time></trkpt><trkpt lat="38.74390462252009" lon="16.45615197720138"><ele>556.5999999999999</ele><time>2026-04-11T16:13:54Z</time></trkpt><trkpt lat="38.74389129515583" lon="16.455974440348264"><ele>554.8</ele><time>2026-04-11T16:13:56Z</time></trkpt><trkpt lat="38.7438658181813" lon="16.45584411098235"><ele>553.0</ele><time>2026-04-11T16:13:57Z</time></trkpt><trkpt lat="38.74382178171151" lon="16.455698370698443"><ele>553.0</ele><time>2026-04-11T16:13:58Z</time></trkpt><trkpt lat="38.743758074713895" lon="16.455565193849814"><ele>553.0</ele><time>2026-04-11T16:13:59Z</time></trkpt><trkpt lat="38.74371417668697" lon="16.455430100450343"><ele>553.0</ele><time>2026-04-11T16:14:00Z</time></trkpt><trkpt lat="38.74371084751357" lon="16.455285330156528"><ele>553.0</ele><time>2026-04-11T16:14:01Z</time></trkpt><trkpt lat="38.74372286026289" lon="16.45515999541944"><ele>553.0</ele><time>2026-04-11T16:14:02Z</time></trkpt><trkpt lat="38.74371974933849" lon="16.455014411073595"><ele>553.0</ele><time>2026-04-11T16:14:03Z</time></trkpt><trkpt lat="38.74372776218921" lon="16.45485747620184"><ele>553.0</ele><time>2026-04-11T16:14:04Z</time></trkpt><trkpt lat="38.743666083790366" lon="16.454679389492842"><ele>553.0</ele><time>2026-04-11T16:14:05Z</time></trkpt><trkpt lat="38.743579760527986" lon="16.454561125071763"><ele>553.0</ele><time>2026-04-11T16:14:06Z</time></trkpt><trkpt lat="38.74344602568082" lon="16.454484312609623"><ele>553.0</ele><time>2026-04-11T16:14:07Z</time></trkpt><trkpt lat="38.74330475156003" lon="16.454543907878293"><ele>553.0</ele><time>2026-04-11T16:14:08Z</time></trkpt><trkpt lat="38.7432297470981" lon="16.454494044724424"><ele>553.0</ele><time>2026-04-11T16:14:09Z</time></trkpt><trkpt lat="38.74320512377776" lon="16.454319207526908"><ele>553.0</ele><time>2026-04-11T16:14:11Z</time></trkpt><trkpt lat="38.743220442361164" lon="16.454148351694943"><ele>553.0</ele><time>2026-04-11T16:14:12Z</time></trkpt><trkpt lat="38.74316431890334" lon="16.45394729857471"><ele>553.0</ele><time>2026-04-11T16:14:13Z</time></trkpt><trkpt lat="38.74315264263839" lon="16.453722909289034"><ele>553.0</ele><time>2026-04-11T16:14:14Z</time></trkpt><trkpt lat="38.743188296675456" lon="16.453463320182813"><ele>550.3333333333334</ele><time>2026-04-11T16:14:15Z</time></trkpt><trkpt lat="38.74315340416796" lon="16.45322435089508"><ele>547.6666666666666</ele><time>2026-04-11T16:14:16Z</time></trkpt><trkpt lat="38.74313344503581" lon="16.453032014229187"><ele>545.0</ele><time>2026-04-11T16:14:17Z</time></trkpt><trkpt lat="38.74312964894756" lon="16.452863159956706"><ele>544.0</ele><time>2026-04-11T16:14:18Z</time></trkpt><trkpt lat="38.7431426644387" lon="16.452688220861532"><ele>543.0</ele><time>2026-04-11T16:14:19Z</time></trkpt><trkpt lat="38.74317009349291" lon="16.45251032994379"><ele>542.0</ele><time>2026-04-11T16:14:20Z</time></trkpt><trkpt lat="38.743188771131166" lon="16.452339348780697"><ele>541.0</ele><time>2026-04-11T16:14:21Z</time></trkpt><trkpt lat="38.743222605269146" lon="16.45215758261773"><ele>542.0</ele><time>2026-04-11T16:14:22Z</time></trkpt><trkpt lat="38.74325112946429" lon="16.45198978433709"><ele>543.0</ele><time>2026-04-11T16:14:23Z</time></trkpt><trkpt lat="38.743310608588686" lon="16.451851814504405"><ele>544.0</ele><time>2026-04-11T16:14:24Z</time></trkpt><trkpt lat="38.74338718619606" lon="16.451727436822118"><ele>545.0</ele><time>2026-04-11T16:14:25Z</time></trkpt><trkpt lat="38.743500910462885" lon="16.451617007799573"><ele>541.75</ele><time>2026-04-11T16:14:26Z</time></trkpt><trkpt lat="38.7436395160788" lon="16.45151782897427"><ele>538.5</ele><time>2026-04-11T16:14:27Z</time></trkpt><trkpt lat="38.74373934166278" lon="16.45142979260146"><ele>535.25</ele><time>2026-04-11T16:14:28Z</time></trkpt><trkpt lat="38.7438772702263" lon="16.451325991864632"><ele>532.0</ele><time>2026-04-11T16:14:29Z</time></trkpt><trkpt lat="38.74398283241955" lon="16.451231963089313"><ele>532.0</ele><time>2026-04-11T16:14:30Z</time></trkpt><trkpt lat="38.744090432208004" lon="16.45109869681901"><ele>532.0</ele><time>2026-04-11T16:14:31Z</time></trkpt><trkpt lat="38.74418553329725" lon="16.45093421061523"><ele>532.0</ele><time>2026-04-11T16:14:32Z</time></trkpt><trkpt lat="38.74426690793073" lon="16.45074527066729"><ele>532.0</ele><time>2026-04-11T16:14:33Z</time></trkpt><trkpt lat="38.74434349907304" lon="16.450558213451224"><ele>532.0</ele><time>2026-04-11T16:14:34Z</time></trkpt><trkpt lat="38.74442186546015" lon="16.450396341700298"><ele>532.0</ele><time>2026-04-11T16:14:35Z</time></trkpt><trkpt lat="38.74448930728349" lon="16.450237644627904"><ele>530.75</ele><time>2026-04-11T16:14:36Z</time></trkpt><trkpt lat="38.744532657915585" lon="16.450070591285325"><ele>529.5</ele><time>2026-04-11T16:14:37Z</time></trkpt><trkpt lat="38.74454043914354" lon="16.449897053142355"><ele>528.25</ele><time>2026-04-11T16:14:38Z</time></trkpt><trkpt lat="38.744516950945666" lon="16.449718138818632"><ele>527.0</ele><time>2026-04-11T16:14:39Z</time></trkpt><trkpt lat="38.7444969597508" lon="16.449542481950562"><ele>527.0</ele><time>2026-04-11T16:14:40Z</time></trkpt><trkpt lat="38.74448435870308" lon="16.44936447453571"><ele>527.0</ele><time>2026-04-11T16:14:41Z</time></trkpt><trkpt lat="38.744499870811076" lon="16.449190905561796"><ele>527.0</ele><time>2026-04-11T16:14:42Z</time></trkpt><trkpt lat="38.744475128768684" lon="16.449030633522558"><ele>527.0</ele><time>2026-04-11T16:14:43Z</time></trkpt><trkpt lat="38.74445720515297" lon="16.448893217441466"><ele>530.0</ele><time>2026-04-11T16:14:44Z</time></trkpt><trkpt lat="38.744442717087495" lon="16.44876003324101"><ele>533.0</ele><time>2026-04-11T16:14:45Z</time></trkpt><trkpt lat="38.74447334874686" lon="16.44864596945969"><ele>536.0</ele><time>2026-04-11T16:14:46Z</time></trkpt><trkpt lat="38.744528637542324" lon="16.448570533531086"><ele>539.0</ele><time>2026-04-11T16:14:47Z</time></trkpt><trkpt lat="38.74459082261204" lon="16.4485255595518"><ele>542.0</ele><time>2026-04-11T16:14:48Z</time></trkpt><trkpt lat="38.74467975880164" lon="16.44858509309757"><ele>542.0</ele><time>2026-04-11T16:14:49Z</time></trkpt><trkpt lat="38.74472410410745" lon="16.448686079001252"><ele>542.0</ele><time>2026-04-11T16:14:50Z</time></trkpt><trkpt lat="38.74480552999425" lon="16.448803984995877"><ele>542.0</ele><time>2026-04-11T16:14:51Z</time></trkpt><trkpt lat="38.7449021796924" lon="16.448939820724064"><ele>542.0</ele><time>2026-04-11T16:14:52Z</time></trkpt><trkpt lat="38.74500055279415" lon="16.449084302377802"><ele>543.6666666666666</ele><time>2026-04-11T16:14:53Z</time></trkpt><trkpt lat="38.74511612482197" lon="16.449252676007454"><ele>545.3333333333334</ele><time>2026-04-11T16:14:54Z</time></trkpt><trkpt lat="38.74523929785356" lon="16.449430512398635"><ele>547.0</ele><time>2026-04-11T16:14:55Z</time></trkpt><trkpt lat="38.74535558441489" lon="16.449603317225655"><ele>542.3333333333334</ele><time>2026-04-11T16:14:56Z</time></trkpt><trkpt lat="38.74546164938416" lon="16.44979434343282"><ele>537.6666666666666</ele><time>2026-04-11T16:14:57Z</time></trkpt><trkpt lat="38.74555429358199" lon="16.450021019661513"><ele>533.0</ele><time>2026-04-11T16:14:58Z</time></trkpt><trkpt lat="38.74563373656294" lon="16.450253591883925"><ele>533.0</ele><time>2026-04-11T16:14:59Z</time></trkpt><trkpt lat="38.745714584588406" lon="16.450451013668694"><ele>533.0</ele><time>2026-04-11T16:15:00Z</time></trkpt><trkpt lat="38.745820671647664" lon="16.450613015344477"><ele>533.0</ele><time>2026-04-11T16:15:01Z</time></trkpt><trkpt lat="38.7459522044786" lon="16.45073986955375"><ele>533.3333333333333</ele><time>2026-04-11T16:15:02Z</time></trkpt><trkpt lat="38.74610449487966" lon="16.450833538307805"><ele>533.6666666666666</ele><time>2026-04-11T16:15:03Z</time></trkpt><trkpt lat="38.746246041205055" lon="16.45088339230918"><ele>534.0</ele><time>2026-04-11T16:15:04Z</time></trkpt><trkpt lat="38.74637228882899" lon="16.45094225905908"><ele>534.0</ele><time>2026-04-11T16:15:05Z</time></trkpt><trkpt lat="38.74647539933833" lon="16.45103181202577"><ele>534.0</ele><time>2026-04-11T16:15:06Z</time></trkpt><trkpt lat="38.74655711718837" lon="16.451137700192785"><ele>534.0</ele><time>2026-04-11T16:15:07Z</time></trkpt><trkpt lat="38.746636013089585" lon="16.45125222981068"><ele>534.0</ele><time>2026-04-11T16:15:08Z</time></trkpt><trkpt lat="38.74669320849474" lon="16.451344559973126"><ele>533.6666666666666</ele><time>2026-04-11T16:15:09Z</time></trkpt><trkpt lat="38.746738116217834" lon="16.45144001577034"><ele>533.3333333333334</ele><time>2026-04-11T16:15:10Z</time></trkpt><trkpt lat="38.746772652107886" lon="16.45154595959461"><ele>533.0</ele><time>2026-04-11T16:15:11Z</time></trkpt><trkpt lat="38.7467761420987" lon="16.451634458102074"><ele>532.6666666666667</ele><time>2026-04-11T16:15:12Z</time></trkpt><trkpt lat="38.74679026800232" lon="16.45171963657903"><ele>532.3333333333334</ele><time>2026-04-11T16:15:14Z</time></trkpt><trkpt lat="38.74680424489237" lon="16.45180255298407"><ele>532.0</ele><time>2026-04-11T16:15:18Z</time></trkpt><trkpt lat="38.7469953264245" lon="16.451716600980518"><ele>532.0</ele><time>2026-04-11T16:15:28Z</time></trkpt><trkpt lat="38.747051182097046" lon="16.45167091871926"><ele>532.0</ele><time>2026-04-11T16:15:29Z</time></trkpt><trkpt lat="38.74714088958411" lon="16.45159755033702"><ele>532.0</ele><time>2026-04-11T16:15:31Z</time></trkpt><trkpt lat="38.74720815932849" lon="16.451542532928638"><ele>532.0</ele><time>2026-04-11T16:15:33Z</time></trkpt><trkpt lat="38.74727800975535" lon="16.451680928376515"><ele>532.0</ele><time>2026-04-11T16:15:37Z</time></trkpt><trkpt lat="38.74734381838183" lon="16.451786933436292"><ele>532.0</ele><time>2026-04-11T16:15:38Z</time></trkpt><trkpt lat="38.74742273361674" lon="16.451898720878113"><ele>532.0</ele><time>2026-04-11T16:15:39Z</time></trkpt><trkpt lat="38.74749789824184" lon="16.452001167908897"><ele>532.0</ele><time>2026-04-11T16:15:40Z</time></trkpt><trkpt lat="38.74757126855958" lon="16.452100081265105"><ele>532.0</ele><time>2026-04-11T16:15:41Z</time></trkpt><trkpt lat="38.74764176244879" lon="16.452194754523486"><ele>532.0</ele><time>2026-04-11T16:15:42Z</time></trkpt><trkpt lat="38.747711439172214" lon="16.45228833035151"><ele>529.4</ele><time>2026-04-11T16:15:43Z</time></trkpt><trkpt lat="38.74777841219084" lon="16.452378032822782"><ele>526.8000000000001</ele><time>2026-04-11T16:15:44Z</time></trkpt><trkpt lat="38.74785082322049" lon="16.45246135646339"><ele>524.2</ele><time>2026-04-11T16:15:45Z</time></trkpt><trkpt lat="38.74790660969483" lon="16.452558262251365"><ele>521.6</ele><time>2026-04-11T16:15:46Z</time></trkpt><trkpt lat="38.74797299501561" lon="16.452677630514287"><ele>519.0</ele><time>2026-04-11T16:15:47Z</time></trkpt><trkpt lat="38.748062347825936" lon="16.45277847475488"><ele>519.0</ele><time>2026-04-11T16:15:48Z</time></trkpt><trkpt lat="38.74818172821503" lon="16.452816925688943"><ele>519.0</ele><time>2026-04-11T16:15:49Z</time></trkpt><trkpt lat="38.74828949953191" lon="16.452877262489114"><ele>519.0</ele><time>2026-04-11T16:15:50Z</time></trkpt><trkpt lat="38.74837867000544" lon="16.45295331729614"><ele>519.0</ele><time>2026-04-11T16:15:51Z</time></trkpt><trkpt lat="38.748479179180435" lon="16.453018528743513"><ele>516.8</ele><time>2026-04-11T16:15:52Z</time></trkpt><trkpt lat="38.74858359673308" lon="16.45307188064012"><ele>514.5999999999999</ele><time>2026-04-11T16:15:53Z</time></trkpt><trkpt lat="38.74868255142109" lon="16.45313547622763"><ele>512.4</ele><time>2026-04-11T16:15:54Z</time></trkpt><trkpt lat="38.74877940290624" lon="16.45319252965284"><ele>510.2</ele><time>2026-04-11T16:15:55Z</time></trkpt><trkpt lat="38.748869759701165" lon="16.453246081870187"><ele>508.0</ele><time>2026-04-11T16:15:56Z</time></trkpt><trkpt lat="38.74894693775741" lon="16.453290806064697"><ele>508.00000000000006</ele><time>2026-04-11T16:15:57Z</time></trkpt><trkpt lat="38.74902296609653" lon="16.453317846647376"><ele>508.0</ele><time>2026-04-11T16:15:58Z</time></trkpt><trkpt lat="38.749081495607875" lon="16.453386257209246"><ele>508.0</ele><time>2026-04-11T16:15:59Z</time></trkpt><trkpt lat="38.74915684371428" lon="16.453496705779056"><ele>508.0</ele><time>2026-04-11T16:16:01Z</time></trkpt><trkpt lat="38.74920298181232" lon="16.453574307701"><ele>508.00000000000006</ele><time>2026-04-11T16:16:03Z</time></trkpt><trkpt lat="38.74924957400426" lon="16.453629363009316"><ele>508.0</ele><time>2026-04-11T16:16:08Z</time></trkpt><trkpt lat="38.74934769226089" lon="16.45353716700227"><ele>506.6666666666667</ele><time>2026-04-11T16:16:09Z</time></trkpt><trkpt lat="38.749413135508924" lon="16.453471608871496"><ele>505.33333333333337</ele><time>2026-04-11T16:16:11Z</time></trkpt><trkpt lat="38.74946832926523" lon="16.45342558480839"><ele>504.0</ele><time>2026-04-11T16:16:12Z</time></trkpt><trkpt lat="38.749536117848" lon="16.453371736169856"><ele>502.66666666666663</ele><time>2026-04-11T16:16:13Z</time></trkpt><trkpt lat="38.749613528959436" lon="16.453304361800072"><ele>501.3333333333333</ele><time>2026-04-11T16:16:14Z</time></trkpt><trkpt lat="38.74971040131045" lon="16.45324977874728"><ele>500.0</ele><time>2026-04-11T16:16:15Z</time></trkpt><trkpt lat="38.74980430120189" lon="16.453190787791243"><ele>500.0</ele><time>2026-04-11T16:16:16Z</time></trkpt><trkpt lat="38.74988789886126" lon="16.45311691240192"><ele>500.0</ele><time>2026-04-11T16:16:17Z</time></trkpt><trkpt lat="38.74999610033514" lon="16.45308795561969"><ele>500.0</ele><time>2026-04-11T16:16:18Z</time></trkpt><trkpt lat="38.75010957890867" lon="16.453078638961113"><ele>500.0</ele><time>2026-04-11T16:16:19Z</time></trkpt><trkpt lat="38.75022878338267" lon="16.45308927539507"><ele>500.0</ele><time>2026-04-11T16:16:20Z</time></trkpt><trkpt lat="38.750339781249586" lon="16.45309627950048"><ele>499.6</ele><time>2026-04-11T16:16:21Z</time></trkpt><trkpt lat="38.750443211147754" lon="16.453105445191195"><ele>499.2</ele><time>2026-04-11T16:16:22Z</time></trkpt><trkpt lat="38.750542840198975" lon="16.453123294761618"><ele>498.79999999999995</ele><time>2026-04-11T16:16:23Z</time></trkpt><trkpt lat="38.75063646671812" lon="16.453167688881376"><ele>498.4</ele><time>2026-04-11T16:16:24Z</time></trkpt><trkpt lat="38.75071905849982" lon="16.45323288002099"><ele>498.0</ele><time>2026-04-11T16:16:25Z</time></trkpt><trkpt lat="38.7507965299687" lon="16.453317468314538"><ele>498.0</ele><time>2026-04-11T16:16:26Z</time></trkpt><trkpt lat="38.75088947996547" lon="16.453405057893665"><ele>497.99999999999994</ele><time>2026-04-11T16:16:27Z</time></trkpt><trkpt lat="38.7509701764356" lon="16.453506309195504"><ele>497.99999999999994</ele><time>2026-04-11T16:16:28Z</time></trkpt><trkpt lat="38.751041942508266" lon="16.453603481960993"><ele>498.0</ele><time>2026-04-11T16:16:29Z</time></trkpt><trkpt lat="38.75109303946161" lon="16.453719209189043"><ele>498.0</ele><time>2026-04-11T16:16:30Z</time></trkpt><trkpt lat="38.75114209548986" lon="16.4538129242109"><ele>496.59999999999997</ele><time>2026-04-11T16:16:31Z</time></trkpt><trkpt lat="38.7511790340612" lon="16.453910973540356"><ele>495.19999999999993</ele><time>2026-04-11T16:16:32Z</time></trkpt><trkpt lat="38.75114176769323" lon="16.454017728135074"><ele>493.8</ele><time>2026-04-11T16:16:33Z</time></trkpt><trkpt lat="38.75107244039687" lon="16.45413477939361"><ele>492.4</ele><time>2026-04-11T16:16:34Z</time></trkpt><trkpt lat="38.751010776071624" lon="16.454303356216183"><ele>491.0</ele><time>2026-04-11T16:16:35Z</time></trkpt><trkpt lat="38.7509867388143" lon="16.454481128804996"><ele>489.25</ele><time>2026-04-11T16:16:36Z</time></trkpt><trkpt lat="38.7509630973266" lon="16.454639065963065"><ele>487.5</ele><time>2026-04-11T16:16:37Z</time></trkpt><trkpt lat="38.75097757466657" lon="16.45479466857732"><ele>485.75</ele><time>2026-04-11T16:16:38Z</time></trkpt><trkpt lat="38.75098937927721" lon="16.454959016141416"><ele>484.0</ele><time>2026-04-11T16:16:39Z</time></trkpt><trkpt lat="38.750995867917375" lon="16.45507820920314"><ele>484.00000000000006</ele><time>2026-04-11T16:16:40Z</time></trkpt><trkpt lat="38.751001114308586" lon="16.455174582906942"><ele>484.0</ele><time>2026-04-11T16:16:41Z</time></trkpt><trkpt lat="38.75100627251058" lon="16.455269336513435"><ele>484.0</ele><time>2026-04-11T16:16:42Z</time></trkpt><trkpt lat="38.751013389220496" lon="16.45540006706133"><ele>484.0</ele><time>2026-04-11T16:16:43Z</time></trkpt><trkpt lat="38.751024237009005" lon="16.455526585216244"><ele>484.00000000000006</ele><time>2026-04-11T16:16:44Z</time></trkpt><trkpt lat="38.75104137289101" lon="16.45563744000892"><ele>484.0</ele><time>2026-04-11T16:16:45Z</time></trkpt><trkpt lat="38.75108026489179" lon="16.45574325208988"><ele>484.79999999999995</ele><time>2026-04-11T16:16:46Z</time></trkpt><trkpt lat="38.75114130427493" lon="16.455854769888184"><ele>485.59999999999997</ele><time>2026-04-11T16:16:47Z</time></trkpt><trkpt lat="38.75121673961747" lon="16.455938620154342"><ele>486.4</ele><time>2026-04-11T16:16:48Z</time></trkpt><trkpt lat="38.75131351431441" lon="16.455990969237202"><ele>487.2</ele><time>2026-04-11T16:16:49Z</time></trkpt><trkpt lat="38.75140787634722" lon="16.45602713025454"><ele>488.0</ele><time>2026-04-11T16:16:50Z</time></trkpt><trkpt lat="38.75151289400342" lon="16.456095863159454"><ele>488.0</ele><time>2026-04-11T16:16:51Z</time></trkpt><trkpt lat="38.751611839833586" lon="16.456183297521562"><ele>488.0</ele><time>2026-04-11T16:16:52Z</time></trkpt><trkpt lat="38.75168543203483" lon="16.456314990767336"><ele>488.0</ele><time>2026-04-11T16:16:53Z</time></trkpt><trkpt lat="38.751763780640594" lon="16.456455614196564"><ele>488.0</ele><time>2026-04-11T16:16:54Z</time></trkpt><trkpt lat="38.751850371276376" lon="16.456574757740928"><ele>485.0</ele><time>2026-04-11T16:16:55Z</time></trkpt><trkpt lat="38.751924778333944" lon="16.456682155128373"><ele>481.99999999999994</ele><time>2026-04-11T16:16:56Z</time></trkpt><trkpt lat="38.7520017815969" lon="16.456763904518315"><ele>478.99999999999994</ele><time>2026-04-11T16:16:57Z</time></trkpt><trkpt lat="38.75211690245765" lon="16.456773587963983"><ele>476.0</ele><time>2026-04-11T16:16:58Z</time></trkpt><trkpt lat="38.75223525524102" lon="16.456767424851115"><ele>473.0</ele><time>2026-04-11T16:16:59Z</time></trkpt><trkpt lat="38.752361741837" lon="16.456748142085473"><ele>473.0</ele><time>2026-04-11T16:17:00Z</time></trkpt><trkpt lat="38.75249228334221" lon="16.456745297521454"><ele>473.0</ele><time>2026-04-11T16:17:01Z</time></trkpt><trkpt lat="38.75259972838874" lon="16.456752288709954"><ele>473.0</ele><time>2026-04-11T16:17:02Z</time></trkpt><trkpt lat="38.752721027543565" lon="16.456761554700865"><ele>473.0</ele><time>2026-04-11T16:17:03Z</time></trkpt><trkpt lat="38.752845266395646" lon="16.45678638260661"><ele>473.25</ele><time>2026-04-11T16:17:04Z</time></trkpt><trkpt lat="38.752959330506286" lon="16.456867806822174"><ele>473.5</ele><time>2026-04-11T16:17:05Z</time></trkpt><trkpt lat="38.75306151870733" lon="16.45696082002007"><ele>473.75</ele><time>2026-04-11T16:17:06Z</time></trkpt><trkpt lat="38.7531580502553" lon="16.457073491917203"><ele>474.0</ele><time>2026-04-11T16:17:07Z</time></trkpt><trkpt lat="38.75326095432271" lon="16.457203958855196"><ele>471.33333333333337</ele><time>2026-04-11T16:17:08Z</time></trkpt><trkpt lat="38.75338087184725" lon="16.45734737769694"><ele>468.6666666666667</ele><time>2026-04-11T16:17:09Z</time></trkpt><trkpt lat="38.753513243080924" lon="16.457476725179507"><ele>466.0</ele><time>2026-04-11T16:17:10Z</time></trkpt><trkpt lat="38.75361809174445" lon="16.45760660309074"><ele>466.0</ele><time>2026-04-11T16:17:11Z</time></trkpt><trkpt lat="38.75371083487212" lon="16.45775751854031"><ele>466.0</ele><time>2026-04-11T16:17:12Z</time></trkpt><trkpt lat="38.75380898863599" lon="16.457905033162774"><ele>466.0</ele><time>2026-04-11T16:17:13Z</time></trkpt><trkpt lat="38.753889676294634" lon="16.458049100306255"><ele>466.0</ele><time>2026-04-11T16:17:14Z</time></trkpt><trkpt lat="38.75396971009285" lon="16.458187833535355"><ele>463.75</ele><time>2026-04-11T16:17:15Z</time></trkpt><trkpt lat="38.75398140448135" lon="16.458366977715237"><ele>461.5</ele><time>2026-04-11T16:17:16Z</time></trkpt><trkpt lat="38.75397749226463" lon="16.458555996528524"><ele>459.25</ele><time>2026-04-11T16:17:17Z</time></trkpt><trkpt lat="38.75394182386897" lon="16.458753502396252"><ele>457.0</ele><time>2026-04-11T16:17:18Z</time></trkpt><trkpt lat="38.75389191457857" lon="16.458969444459626"><ele>453.6666666666667</ele><time>2026-04-11T16:17:19Z</time></trkpt><trkpt lat="38.75385365163615" lon="16.459194797037895"><ele>450.33333333333337</ele><time>2026-04-11T16:17:20Z</time></trkpt><trkpt lat="38.753804491927426" lon="16.459444450507586"><ele>447.0</ele><time>2026-04-11T16:17:21Z</time></trkpt><trkpt lat="38.753755647485484" lon="16.45967440188718"><ele>446.0</ele><time>2026-04-11T16:17:22Z</time></trkpt><trkpt lat="38.75370878145978" lon="16.459887039430928"><ele>445.0</ele><time>2026-04-11T16:17:23Z</time></trkpt><trkpt lat="38.75366370036594" lon="16.460081531414797"><ele>444.0</ele><time>2026-04-11T16:17:24Z</time></trkpt><trkpt lat="38.75363196300086" lon="16.46025625486533"><ele>444.0</ele><time>2026-04-11T16:17:25Z</time></trkpt><trkpt lat="38.75361517274939" lon="16.460431555797417"><ele>444.0</ele><time>2026-04-11T16:17:26Z</time></trkpt><trkpt lat="38.75362663649369" lon="16.4606321746653"><ele>444.0</ele><time>2026-04-11T16:17:27Z</time></trkpt><trkpt lat="38.75366594967181" lon="16.46085483714722"><ele>444.0</ele><time>2026-04-11T16:17:28Z</time></trkpt><trkpt lat="38.75371870370732" lon="16.46108061304258"><ele>444.0</ele><time>2026-04-11T16:17:29Z</time></trkpt><trkpt lat="38.753750055143655" lon="16.461281623895328"><ele>444.0</ele><time>2026-04-11T16:17:30Z</time></trkpt><trkpt lat="38.75378856371246" lon="16.461470229447162"><ele>442.5</ele><time>2026-04-11T16:17:31Z</time></trkpt><trkpt lat="38.75382551996702" lon="16.461634519084104"><ele>441.0</ele><time>2026-04-11T16:17:32Z</time></trkpt><trkpt lat="38.753889229886695" lon="16.461762728004626"><ele>439.5</ele><time>2026-04-11T16:17:33Z</time></trkpt><trkpt lat="38.75396823972797" lon="16.461885712504753"><ele>438.0</ele><time>2026-04-11T16:17:34Z</time></trkpt><trkpt lat="38.75408625673556" lon="16.46197002159499"><ele>438.0</ele><time>2026-04-11T16:17:35Z</time></trkpt><trkpt lat="38.754215472704416" lon="16.462015980653717"><ele>438.0</ele><time>2026-04-11T16:17:36Z</time></trkpt><trkpt lat="38.75435805723971" lon="16.462037672553734"><ele>438.0</ele><time>2026-04-11T16:17:37Z</time></trkpt><trkpt lat="38.75450587221219" lon="16.46207133919191"><ele>438.0</ele><time>2026-04-11T16:17:38Z</time></trkpt><trkpt lat="38.7546425664486" lon="16.46211975630748"><ele>436.0</ele><time>2026-04-11T16:17:39Z</time></trkpt><trkpt lat="38.75477050133841" lon="16.462157995221347"><ele>434.0</ele><time>2026-04-11T16:17:40Z</time></trkpt><trkpt lat="38.754890896470556" lon="16.462204598644146"><ele>432.0</ele><time>2026-04-11T16:17:41Z</time></trkpt><trkpt lat="38.7549956797195" lon="16.462290127623373"><ele>430.0</ele><time>2026-04-11T16:17:42Z</time></trkpt><trkpt lat="38.75509720784989" lon="16.46239570561592"><ele>430.0</ele><time>2026-04-11T16:17:43Z</time></trkpt><trkpt lat="38.75518653091662" lon="16.462548229251098"><ele>430.0</ele><time>2026-04-11T16:17:44Z</time></trkpt><trkpt lat="38.755274914717425" lon="16.46272169096938"><ele>430.0</ele><time>2026-04-11T16:17:45Z</time></trkpt><trkpt lat="38.755363677946306" lon="16.462907103242806"><ele>428.33333333333337</ele><time>2026-04-11T16:17:46Z</time></trkpt><trkpt lat="38.75545409330241" lon="16.463095966545914"><ele>426.66666666666663</ele><time>2026-04-11T16:17:47Z</time></trkpt><trkpt lat="38.755557774519296" lon="16.463277075659374"><ele>425.0</ele><time>2026-04-11T16:17:48Z</time></trkpt><trkpt lat="38.75563998398251" lon="16.46345306964976"><ele>425.0</ele><time>2026-04-11T16:17:49Z</time></trkpt><trkpt lat="38.75570701567973" lon="16.463622233780765"><ele>425.0</ele><time>2026-04-11T16:17:50Z</time></trkpt><trkpt lat="38.75577656210603" lon="16.46376586504259"><ele>425.0</ele><time>2026-04-11T16:17:51Z</time></trkpt><trkpt lat="38.75584149157727" lon="16.463899811166186"><ele>425.0</ele><time>2026-04-11T16:17:52Z</time></trkpt><trkpt lat="38.75590369087831" lon="16.464025696286697"><ele>424.0</ele><time>2026-04-11T16:17:53Z</time></trkpt><trkpt lat="38.75597467061275" lon="16.464138480801097"><ele>423.0</ele><time>2026-04-11T16:17:54Z</time></trkpt><trkpt lat="38.7560050770281" lon="16.464274647495916"><ele>422.0</ele><time>2026-04-11T16:17:55Z</time></trkpt><trkpt lat="38.75605446284686" lon="16.464414259003217"><ele>421.0</ele><time>2026-04-11T16:17:56Z</time></trkpt><trkpt lat="38.756054184200266" lon="16.464574293861403"><ele>417.0</ele><time>2026-04-11T16:17:57Z</time></trkpt><trkpt lat="38.756074496489276" lon="16.46472841066537"><ele>413.0</ele><time>2026-04-11T16:17:58Z</time></trkpt><trkpt lat="38.75607840200174" lon="16.464890559194156"><ele>409.0</ele><time>2026-04-11T16:17:59Z</time></trkpt><trkpt lat="38.756074156148216" lon="16.465063211287184"><ele>405.0</ele><time>2026-04-11T16:18:00Z</time></trkpt><trkpt lat="38.75612595121157" lon="16.465226936864834"><ele>405.0</ele><time>2026-04-11T16:18:01Z</time></trkpt><trkpt lat="38.75618581993972" lon="16.465385462939597"><ele>405.0</ele><time>2026-04-11T16:18:02Z</time></trkpt><trkpt lat="38.75626704415424" lon="16.465535840444364"><ele>405.0</ele><time>2026-04-11T16:18:03Z</time></trkpt><trkpt lat="38.756358682789575" lon="16.465706608580938"><ele>405.0</ele><time>2026-04-11T16:18:04Z</time></trkpt><trkpt lat="38.7564526105265" lon="16.46586403325681"><ele>406.25</ele><time>2026-04-11T16:18:05Z</time></trkpt><trkpt lat="38.75653877615472" lon="16.46601495054328"><ele>407.5</ele><time>2026-04-11T16:18:06Z</time></trkpt><trkpt lat="38.756620403459074" lon="16.46616149795434"><ele>408.75</ele><time>2026-04-11T16:18:07Z</time></trkpt><trkpt lat="38.75669731936925" lon="16.466303468628418"><ele>410.0</ele><time>2026-04-11T16:18:08Z</time></trkpt><trkpt lat="38.756761556275556" lon="16.466454330052777"><ele>410.75</ele><time>2026-04-11T16:18:09Z</time></trkpt><trkpt lat="38.75684372224108" lon="16.466582842385808"><ele>411.5</ele><time>2026-04-11T16:18:10Z</time></trkpt><trkpt lat="38.75687581453847" lon="16.466740430676897"><ele>412.25</ele><time>2026-04-11T16:18:11Z</time></trkpt><trkpt lat="38.75689182125926" lon="16.46689133691936"><ele>413.0</ele><time>2026-04-11T16:18:12Z</time></trkpt><trkpt lat="38.75688962592283" lon="16.467068517575814"><ele>411.3333333333333</ele><time>2026-04-11T16:18:13Z</time></trkpt><trkpt lat="38.7568763884463" lon="16.467236962873216"><ele>409.66666666666663</ele><time>2026-04-11T16:18:14Z</time></trkpt><trkpt lat="38.756853257627164" lon="16.467436094892722"><ele>408.0</ele><time>2026-04-11T16:18:15Z</time></trkpt><trkpt lat="38.75683730248166" lon="16.46764401891893"><ele>408.0</ele><time>2026-04-11T16:18:16Z</time></trkpt><trkpt lat="38.756823433428885" lon="16.46783938743971"><ele>408.0</ele><time>2026-04-11T16:18:17Z</time></trkpt><trkpt lat="38.75680475624829" lon="16.46802870195288"><ele>408.0</ele><time>2026-04-11T16:18:18Z</time></trkpt><trkpt lat="38.75677681106001" lon="16.46820298083201"><ele>408.0</ele><time>2026-04-11T16:18:19Z</time></trkpt><trkpt lat="38.75674052027928" lon="16.468348262424616"><ele>407.25</ele><time>2026-04-11T16:18:20Z</time></trkpt><trkpt lat="38.75671188184345" lon="16.46847481893619"><ele>406.5</ele><time>2026-04-11T16:18:21Z</time></trkpt><trkpt lat="38.7566869941783" lon="16.46859507963789"><ele>405.75</ele><time>2026-04-11T16:18:22Z</time></trkpt><trkpt lat="38.756718509004386" lon="16.468734421695565"><ele>405.0</ele><time>2026-04-11T16:18:23Z</time></trkpt><trkpt lat="38.7568386898749" lon="16.468850605184606"><ele>401.66666666666663</ele><time>2026-04-11T16:18:24Z</time></trkpt><trkpt lat="38.75694940285535" lon="16.468973864917718"><ele>398.3333333333333</ele><time>2026-04-11T16:18:25Z</time></trkpt><trkpt lat="38.757074679926376" lon="16.469131557074824"><ele>395.0</ele><time>2026-04-11T16:18:26Z</time></trkpt><trkpt lat="38.75723115550955" lon="16.469297221999927"><ele>395.0</ele><time>2026-04-11T16:18:27Z</time></trkpt><trkpt lat="38.75737182834868" lon="16.46944628751238"><ele>395.0</ele><time>2026-04-11T16:18:28Z</time></trkpt><trkpt lat="38.757484467521415" lon="16.46956724112939"><ele>395.0</ele><time>2026-04-11T16:18:29Z</time></trkpt><trkpt lat="38.757583047152266" lon="16.46968077068369"><ele>394.0</ele><time>2026-04-11T16:18:30Z</time></trkpt><trkpt lat="38.75765317052925" lon="16.469803500848098"><ele>393.0</ele><time>2026-04-11T16:18:31Z</time></trkpt><trkpt lat="38.75769524362362" lon="16.469937354603026"><ele>392.0</ele><time>2026-04-11T16:18:32Z</time></trkpt><trkpt lat="38.75769108907787" lon="16.470085128764637"><ele>391.0</ele><time>2026-04-11T16:18:33Z</time></trkpt><trkpt lat="38.75768703034047" lon="16.470233892848455"><ele>391.0</ele><time>2026-04-11T16:18:34Z</time></trkpt><trkpt lat="38.757692763377996" lon="16.47037229732557"><ele>391.0</ele><time>2026-04-11T16:18:35Z</time></trkpt><trkpt lat="38.757737179064684" lon="16.47051236319171"><ele>391.0</ele><time>2026-04-11T16:18:36Z</time></trkpt><trkpt lat="38.75780615460731" lon="16.47063189596288"><ele>391.0</ele><time>2026-04-11T16:18:37Z</time></trkpt><trkpt lat="38.7578813795273" lon="16.470744755773946"><ele>389.75</ele><time>2026-04-11T16:18:38Z</time></trkpt><trkpt lat="38.7579639181733" lon="16.4708661175593"><ele>388.5</ele><time>2026-04-11T16:18:39Z</time></trkpt><trkpt lat="38.75804502331317" lon="16.47098700664531"><ele>387.25</ele><time>2026-04-11T16:18:40Z</time></trkpt><trkpt lat="38.75811892977331" lon="16.471097674840838"><ele>386.0</ele><time>2026-04-11T16:18:41Z</time></trkpt><trkpt lat="38.75818779753305" lon="16.471200798066615"><ele>387.20000000000005</ele><time>2026-04-11T16:18:42Z</time></trkpt><trkpt lat="38.75825331515849" lon="16.47128719343801"><ele>388.40000000000003</ele><time>2026-04-11T16:18:43Z</time></trkpt><trkpt lat="38.75833306177238" lon="16.471322546879378"><ele>389.6</ele><time>2026-04-11T16:18:44Z</time></trkpt><trkpt lat="38.75842000279679" lon="16.471347846304536"><ele>390.8</ele><time>2026-04-11T16:18:45Z</time></trkpt><trkpt lat="38.758514467974216" lon="16.4713385754216"><ele>392.0</ele><time>2026-04-11T16:18:46Z</time></trkpt><trkpt lat="38.75860997429507" lon="16.471295665748386"><ele>392.0</ele><time>2026-04-11T16:18:47Z</time></trkpt><trkpt lat="38.758704824636915" lon="16.471263695391595"><ele>392.0</ele><time>2026-04-11T16:18:48Z</time></trkpt><trkpt lat="38.758799866247394" lon="16.47127639445944"><ele>392.0</ele><time>2026-04-11T16:18:49Z</time></trkpt><trkpt lat="38.758891234002185" lon="16.471329197055404"><ele>392.0</ele><time>2026-04-11T16:18:50Z</time></trkpt><trkpt lat="38.758966822060984" lon="16.47143371519614"><ele>392.0</ele><time>2026-04-11T16:18:51Z</time></trkpt><trkpt lat="38.75906299726394" lon="16.47152974213952"><ele>392.0</ele><time>2026-04-11T16:18:52Z</time></trkpt><trkpt lat="38.75912343469525" lon="16.47167302944535"><ele>392.0</ele><time>2026-04-11T16:18:53Z</time></trkpt><trkpt lat="38.75918416402315" lon="16.47180963217527"><ele>392.0</ele><time>2026-04-11T16:18:54Z</time></trkpt><trkpt lat="38.75923752560252" lon="16.47194064145745"><ele>392.0</ele><time>2026-04-11T16:18:55Z</time></trkpt><trkpt lat="38.75929753591026" lon="16.47205926976285"><ele>392.40000000000003</ele><time>2026-04-11T16:18:56Z</time></trkpt><trkpt lat="38.759363894198046" lon="16.472168358636875"><ele>392.8</ele><time>2026-04-11T16:18:57Z</time></trkpt><trkpt lat="38.75942907640701" lon="16.472277725526517"><ele>393.2</ele><time>2026-04-11T16:18:58Z</time></trkpt><trkpt lat="38.75949207881068" lon="16.472398548456304"><ele>393.6</ele><time>2026-04-11T16:18:59Z</time></trkpt><trkpt lat="38.759580990010654" lon="16.472486821378844"><ele>394.0</ele><time>2026-04-11T16:19:00Z</time></trkpt><trkpt lat="38.75965536150935" lon="16.472592970847757"><ele>394.0</ele><time>2026-04-11T16:19:01Z</time></trkpt><trkpt lat="38.759736246080415" lon="16.472705733596747"><ele>394.0</ele><time>2026-04-11T16:19:02Z</time></trkpt><trkpt lat="38.759824734525566" lon="16.472823441537386"><ele>394.0</ele><time>2026-04-11T16:19:03Z</time></trkpt><trkpt lat="38.75991586329486" lon="16.472945324731324"><ele>394.0</ele><time>2026-04-11T16:19:04Z</time></trkpt><trkpt lat="38.76000460122312" lon="16.473066105543797"><ele>392.25</ele><time>2026-04-11T16:19:05Z</time></trkpt><trkpt lat="38.760093736055225" lon="16.47318152112901"><ele>390.5</ele><time>2026-04-11T16:19:06Z</time></trkpt><trkpt lat="38.76018462504496" lon="16.4732973841746"><ele>388.75</ele><time>2026-04-11T16:19:07Z</time></trkpt><trkpt lat="38.76027684610668" lon="16.47341198804061"><ele>387.0</ele><time>2026-04-11T16:19:08Z</time></trkpt><trkpt lat="38.760364895515465" lon="16.473533539145343"><ele>387.0</ele><time>2026-04-11T16:19:09Z</time></trkpt><trkpt lat="38.76043895264637" lon="16.473667752173444"><ele>387.0</ele><time>2026-04-11T16:19:10Z</time></trkpt><trkpt lat="38.760489793536394" lon="16.473812992377326"><ele>387.0</ele><time>2026-04-11T16:19:11Z</time></trkpt><trkpt lat="38.76052748682592" lon="16.473973443628438"><ele>387.0</ele><time>2026-04-11T16:19:12Z</time></trkpt><trkpt lat="38.76053768243536" lon="16.47412676226593"><ele>386.0</ele><time>2026-04-11T16:19:13Z</time></trkpt><trkpt lat="38.760531309168684" lon="16.474279853393913"><ele>385.0</ele><time>2026-04-11T16:19:14Z</time></trkpt><trkpt lat="38.76051664193029" lon="16.4744265573291"><ele>384.0</ele><time>2026-04-11T16:19:15Z</time></trkpt><trkpt lat="38.76049492643639" lon="16.474572826708435"><ele>383.0</ele><time>2026-04-11T16:19:16Z</time></trkpt><trkpt lat="38.76045833728779" lon="16.474714949754194"><ele>382.5</ele><time>2026-04-11T16:19:17Z</time></trkpt><trkpt lat="38.76039735831576" lon="16.474845439735734"><ele>382.0</ele><time>2026-04-11T16:19:18Z</time></trkpt><trkpt lat="38.76031809657295" lon="16.474973243759962"><ele>381.5</ele><time>2026-04-11T16:19:19Z</time></trkpt><trkpt lat="38.760231717630916" lon="16.47510318323107"><ele>381.0</ele><time>2026-04-11T16:19:20Z</time></trkpt><trkpt lat="38.76015867651719" lon="16.475246721988633"><ele>379.0</ele><time>2026-04-11T16:19:21Z</time></trkpt><trkpt lat="38.7601021616872" lon="16.475397764183647"><ele>377.0</ele><time>2026-04-11T16:19:22Z</time></trkpt><trkpt lat="38.760054632411354" lon="16.475540674652454"><ele>375.0</ele><time>2026-04-11T16:19:23Z</time></trkpt><trkpt lat="38.76001430536057" lon="16.475684073165823"><ele>373.0</ele><time>2026-04-11T16:19:24Z</time></trkpt><trkpt lat="38.759984830784724" lon="16.475832362848106"><ele>372.75</ele><time>2026-04-11T16:19:25Z</time></trkpt><trkpt lat="38.75997834955636" lon="16.475994665805317"><ele>372.5</ele><time>2026-04-11T16:19:26Z</time></trkpt><trkpt lat="38.75997384582101" lon="16.476158228959573"><ele>372.25</ele><time>2026-04-11T16:19:27Z</time></trkpt><trkpt lat="38.75998182839236" lon="16.47632006427081"><ele>372.0</ele><time>2026-04-11T16:19:28Z</time></trkpt><trkpt lat="38.76002106491908" lon="16.47646344742554"><ele>371.75</ele><time>2026-04-11T16:19:29Z</time></trkpt><trkpt lat="38.7600944248007" lon="16.476578474082437"><ele>371.5</ele><time>2026-04-11T16:19:30Z</time></trkpt><trkpt lat="38.760199246140644" lon="16.476654686991616"><ele>371.25</ele><time>2026-04-11T16:19:31Z</time></trkpt><trkpt lat="38.76031967871369" lon="16.476716280841508"><ele>371.0</ele><time>2026-04-11T16:19:32Z</time></trkpt><trkpt lat="38.76044556011247" lon="16.476767791398533"><ele>371.0</ele><time>2026-04-11T16:19:33Z</time></trkpt><trkpt lat="38.76056537593389" lon="16.47681446716921"><ele>371.0</ele><time>2026-04-11T16:19:34Z</time></trkpt><trkpt lat="38.76068080439054" lon="16.476840335094725"><ele>371.0</ele><time>2026-04-11T16:19:35Z</time></trkpt><trkpt lat="38.760796016676174" lon="16.476817589514418"><ele>371.0</ele><time>2026-04-11T16:19:36Z</time></trkpt><trkpt lat="38.76089546095676" lon="16.476724207658634"><ele>371.0</ele><time>2026-04-11T16:19:37Z</time></trkpt><trkpt lat="38.760957054340736" lon="16.47664950561026"><ele>371.0</ele><time>2026-04-11T16:19:38Z</time></trkpt><trkpt lat="38.761033023686345" lon="16.47652364582287"><ele>371.0</ele><time>2026-04-11T16:19:39Z</time></trkpt><trkpt lat="38.761127073661626" lon="16.476402775392657"><ele>371.0</ele><time>2026-04-11T16:19:40Z</time></trkpt><trkpt lat="38.76123253398687" lon="16.476291430834394"><ele>369.25</ele><time>2026-04-11T16:19:41Z</time></trkpt><trkpt lat="38.76130875925132" lon="16.47615899175042"><ele>367.5</ele><time>2026-04-11T16:19:42Z</time></trkpt><trkpt lat="38.761373166253705" lon="16.476029255929383"><ele>365.75</ele><time>2026-04-11T16:19:43Z</time></trkpt><trkpt lat="38.761452047002884" lon="16.47593443948577"><ele>364.0</ele><time>2026-04-11T16:19:44Z</time></trkpt><trkpt lat="38.76154949715735" lon="16.475891764040647"><ele>364.0</ele><time>2026-04-11T16:19:45Z</time></trkpt><trkpt lat="38.76165800982994" lon="16.47593675633565"><ele>364.0</ele><time>2026-04-11T16:19:46Z</time></trkpt><trkpt lat="38.761774478283584" lon="16.47593571214183"><ele>364.0</ele><time>2026-04-11T16:19:47Z</time></trkpt><trkpt lat="38.761882281073696" lon="16.475937430586466"><ele>364.0</ele><time>2026-04-11T16:19:48Z</time></trkpt><trkpt lat="38.76198118445953" lon="16.475859853762476"><ele>359.4</ele><time>2026-04-11T16:19:49Z</time></trkpt><trkpt lat="38.762038195938054" lon="16.47574256050066"><ele>354.79999999999995</ele><time>2026-04-11T16:19:50Z</time></trkpt><trkpt lat="38.76208664750421" lon="16.475619380501193"><ele>350.20000000000005</ele><time>2026-04-11T16:19:51Z</time></trkpt><trkpt lat="38.76212091622842" lon="16.475489429008345"><ele>345.6</ele><time>2026-04-11T16:19:52Z</time></trkpt><trkpt lat="38.76213793576263" lon="16.475343557711568"><ele>341.0</ele><time>2026-04-11T16:19:53Z</time></trkpt><trkpt lat="38.762135225955234" lon="16.475195901188933"><ele>340.5</ele><time>2026-04-11T16:19:54Z</time></trkpt><trkpt lat="38.76211389942831" lon="16.475054401850514"><ele>340.0</ele><time>2026-04-11T16:19:55Z</time></trkpt><trkpt lat="38.76207417368891" lon="16.474899862411572"><ele>339.5</ele><time>2026-04-11T16:19:56Z</time></trkpt><trkpt lat="38.76201419750073" lon="16.47473557948967"><ele>339.0</ele><time>2026-04-11T16:19:57Z</time></trkpt><trkpt lat="38.76194775011827" lon="16.474574220504888"><ele>335.25</ele><time>2026-04-11T16:19:58Z</time></trkpt><trkpt lat="38.761879300444434" lon="16.47443587551999"><ele>331.5</ele><time>2026-04-11T16:19:59Z</time></trkpt><trkpt lat="38.76180199999698" lon="16.47431424074166"><ele>327.75</ele><time>2026-04-11T16:20:00Z</time></trkpt><trkpt lat="38.761722796397734" lon="16.474209069539828"><ele>324.0</ele><time>2026-04-11T16:20:01Z</time></trkpt><trkpt lat="38.76166269383656" lon="16.474091697865404"><ele>331.75</ele><time>2026-04-11T16:20:02Z</time></trkpt><trkpt lat="38.76165313450317" lon="16.473948313181197"><ele>339.5</ele><time>2026-04-11T16:20:03Z</time></trkpt><trkpt lat="38.76166670041572" lon="16.473771459525267"><ele>347.25</ele><time>2026-04-11T16:20:04Z</time></trkpt><trkpt lat="38.76169259076881" lon="16.473588884280005"><ele>355.0</ele><time>2026-04-11T16:20:05Z</time></trkpt><trkpt lat="38.761708272725485" lon="16.47340863665859"><ele>355.0</ele><time>2026-04-11T16:20:06Z</time></trkpt><trkpt lat="38.76175076891479" lon="16.473245813135268"><ele>355.0</ele><time>2026-04-11T16:20:07Z</time></trkpt><trkpt lat="38.76182251619491" lon="16.47310686218555"><ele>355.0</ele><time>2026-04-11T16:20:08Z</time></trkpt><trkpt lat="38.76193358285965" lon="16.47300885612903"><ele>355.0</ele><time>2026-04-11T16:20:09Z</time></trkpt><trkpt lat="38.762022484930974" lon="16.472895105929542"><ele>346.0</ele><time>2026-04-11T16:20:10Z</time></trkpt><trkpt lat="38.762090589535426" lon="16.472750205321233"><ele>337.0</ele><time>2026-04-11T16:20:11Z</time></trkpt><trkpt lat="38.76213416987047" lon="16.472574828499692"><ele>328.0</ele><time>2026-04-11T16:20:12Z</time></trkpt><trkpt lat="38.76216260775959" lon="16.472426793262404"><ele>319.0</ele><time>2026-04-11T16:20:13Z</time></trkpt><trkpt lat="38.76213345039438" lon="16.472271948550162"><ele>319.0</ele><time>2026-04-11T16:20:14Z</time></trkpt><trkpt lat="38.762064230762256" lon="16.47214721749466"><ele>319.0</ele><time>2026-04-11T16:20:15Z</time></trkpt><trkpt lat="38.76194907755112" lon="16.472041263610596"><ele>319.0</ele><time>2026-04-11T16:20:16Z</time></trkpt><trkpt lat="38.76181372518816" lon="16.471981512863973"><ele>319.0</ele><time>2026-04-11T16:20:17Z</time></trkpt><trkpt lat="38.761705041334274" lon="16.47191743539753"><ele>323.2</ele><time>2026-04-11T16:20:18Z</time></trkpt><trkpt lat="38.76162346855771" lon="16.471876454465004"><ele>327.4</ele><time>2026-04-11T16:20:19Z</time></trkpt><trkpt lat="38.76156519265336" lon="16.47177540322294"><ele>331.6</ele><time>2026-04-11T16:20:20Z</time></trkpt><trkpt lat="38.76153772683887" lon="16.471637096635696"><ele>335.8</ele><time>2026-04-11T16:20:21Z</time></trkpt><trkpt lat="38.76152317730163" lon="16.471480751621087"><ele>340.0</ele><time>2026-04-11T16:20:22Z</time></trkpt><trkpt lat="38.761513351539556" lon="16.47131411984853"><ele>337.75</ele><time>2026-04-11T16:20:23Z</time></trkpt><trkpt lat="38.76151955651566" lon="16.471147234221515"><ele>335.5</ele><time>2026-04-11T16:20:24Z</time></trkpt><trkpt lat="38.7615468347071" lon="16.47099871706236"><ele>333.25</ele><time>2026-04-11T16:20:25Z</time></trkpt><trkpt lat="38.761589439566734" lon="16.47085898842619"><ele>331.0</ele><time>2026-04-11T16:20:26Z</time></trkpt><trkpt lat="38.761624941795674" lon="16.47072137264003"><ele>331.0</ele><time>2026-04-11T16:20:27Z</time></trkpt><trkpt lat="38.76163826149035" lon="16.47056991367181"><ele>331.0</ele><time>2026-04-11T16:20:28Z</time></trkpt><trkpt lat="38.76161480275398" lon="16.470399962349944"><ele>331.0</ele><time>2026-04-11T16:20:29Z</time></trkpt><trkpt lat="38.761550217780325" lon="16.470227410442888"><ele>331.0</ele><time>2026-04-11T16:20:30Z</time></trkpt><trkpt lat="38.76148577207366" lon="16.470078560328048"><ele>328.75</ele><time>2026-04-11T16:20:31Z</time></trkpt><trkpt lat="38.76140799489008" lon="16.469948340234676"><ele>326.5</ele><time>2026-04-11T16:20:32Z</time></trkpt><trkpt lat="38.761302394065254" lon="16.469849926152243"><ele>324.25</ele><time>2026-04-11T16:20:33Z</time></trkpt><trkpt lat="38.76118145815821" lon="16.469789315719815"><ele>322.0</ele><time>2026-04-11T16:20:34Z</time></trkpt><trkpt lat="38.76107383849788" lon="16.46974145225188"><ele>321.75</ele><time>2026-04-11T16:20:35Z</time></trkpt><trkpt lat="38.76097128199882" lon="16.46966439483729"><ele>321.5</ele><time>2026-04-11T16:20:36Z</time></trkpt><trkpt lat="38.76086558721836" lon="16.46956951084246"><ele>321.25</ele><time>2026-04-11T16:20:37Z</time></trkpt><trkpt lat="38.760749214271996" lon="16.469466971558706"><ele>321.0</ele><time>2026-04-11T16:20:38Z</time></trkpt><trkpt lat="38.76062092272368" lon="16.469391577862115"><ele>321.0</ele><time>2026-04-11T16:20:39Z</time></trkpt><trkpt lat="38.76049097651838" lon="16.469354595751007"><ele>321.0</ele><time>2026-04-11T16:20:40Z</time></trkpt><trkpt lat="38.76037279312895" lon="16.469325937726722"><ele>321.0</ele><time>2026-04-11T16:20:41Z</time></trkpt><trkpt lat="38.76027922211941" lon="16.46925837546802"><ele>321.0</ele><time>2026-04-11T16:20:42Z</time></trkpt><trkpt lat="38.76021521816837" lon="16.469138148283008"><ele>322.75</ele><time>2026-04-11T16:20:43Z</time></trkpt><trkpt lat="38.76018196600994" lon="16.46897739156137"><ele>324.5</ele><time>2026-04-11T16:20:44Z</time></trkpt><trkpt lat="38.760184526196504" lon="16.468809371458008"><ele>326.25</ele><time>2026-04-11T16:20:45Z</time></trkpt><trkpt lat="38.76021934781461" lon="16.468675976381537"><ele>328.0</ele><time>2026-04-11T16:20:46Z</time></trkpt><trkpt lat="38.760299587051335" lon="16.46856338810303"><ele>328.0</ele><time>2026-04-11T16:20:47Z</time></trkpt><trkpt lat="38.760404837749284" lon="16.468486414441916"><ele>328.0</ele><time>2026-04-11T16:20:48Z</time></trkpt><trkpt lat="38.76051917531122" lon="16.468465492735326"><ele>328.0</ele><time>2026-04-11T16:20:49Z</time></trkpt><trkpt lat="38.760637384585216" lon="16.46848913940143"><ele>328.0</ele><time>2026-04-11T16:20:50Z</time></trkpt><trkpt lat="38.760746508816034" lon="16.468581646474192"><ele>328.0</ele><time>2026-04-11T16:20:51Z</time></trkpt><trkpt lat="38.760871815255186" lon="16.468654643932496"><ele>328.0</ele><time>2026-04-11T16:20:52Z</time></trkpt><trkpt lat="38.761010305801015" lon="16.468733847740978"><ele>328.0</ele><time>2026-04-11T16:20:53Z</time></trkpt><trkpt lat="38.76114905990768" lon="16.468802054904668"><ele>328.0</ele><time>2026-04-11T16:20:54Z</time></trkpt><trkpt lat="38.76129106031851" lon="16.468853284144437"><ele>325.25</ele><time>2026-04-11T16:20:55Z</time></trkpt><trkpt lat="38.761436414353966" lon="16.46887540156686"><ele>322.5</ele><time>2026-04-11T16:20:56Z</time></trkpt><trkpt lat="38.76156589323138" lon="16.468893554925597"><ele>319.75</ele><time>2026-04-11T16:20:57Z</time></trkpt><trkpt lat="38.76169341463214" lon="16.46892419499479"><ele>317.0</ele><time>2026-04-11T16:20:58Z</time></trkpt><trkpt lat="38.76182753744706" lon="16.468961354323373"><ele>319.75</ele><time>2026-04-11T16:20:59Z</time></trkpt><trkpt lat="38.761938536881225" lon="16.46906214792694"><ele>322.5</ele><time>2026-04-11T16:21:00Z</time></trkpt><trkpt lat="38.76202256787767" lon="16.469191745120156"><ele>325.25</ele><time>2026-04-11T16:21:01Z</time></trkpt><trkpt lat="38.762083630588855" lon="16.469357384810607"><ele>328.0</ele><time>2026-04-11T16:21:02Z</time></trkpt><trkpt lat="38.76210902652261" lon="16.469544129250714"><ele>323.66666666666663</ele><time>2026-04-11T16:21:03Z</time></trkpt><trkpt lat="38.76218179876098" lon="16.46970213308238"><ele>319.3333333333333</ele><time>2026-04-11T16:21:04Z</time></trkpt><trkpt lat="38.762277540777134" lon="16.469864416011802"><ele>315.0</ele><time>2026-04-11T16:21:05Z</time></trkpt><trkpt lat="38.76239352362655" lon="16.47002649436185"><ele>315.0</ele><time>2026-04-11T16:21:06Z</time></trkpt><trkpt lat="38.76251155326663" lon="16.470178556495767"><ele>315.0</ele><time>2026-04-11T16:21:07Z</time></trkpt><trkpt lat="38.762627608508176" lon="16.47031305696843"><ele>315.0</ele><time>2026-04-11T16:21:08Z</time></trkpt><trkpt lat="38.76276461345881" lon="16.470434563473706"><ele>315.6666666666667</ele><time>2026-04-11T16:21:09Z</time></trkpt><trkpt lat="38.76289940674818" lon="16.47052627793298"><ele>316.33333333333337</ele><time>2026-04-11T16:21:10Z</time></trkpt><trkpt lat="38.76301871051165" lon="16.470631783735552"><ele>317.0</ele><time>2026-04-11T16:21:11Z</time></trkpt><trkpt lat="38.76313303846278" lon="16.470779258662617"><ele>317.0</ele><time>2026-04-11T16:21:12Z</time></trkpt><trkpt lat="38.763245973872884" lon="16.470939161147182"><ele>317.0</ele><time>2026-04-11T16:21:13Z</time></trkpt><trkpt lat="38.76331826967402" lon="16.47110113408563"><ele>317.0</ele><time>2026-04-11T16:21:14Z</time></trkpt><trkpt lat="38.76335841878128" lon="16.471295391187198"><ele>312.33333333333337</ele><time>2026-04-11T16:21:15Z</time></trkpt><trkpt lat="38.763379775796935" lon="16.471512357223546"><ele>307.6666666666667</ele><time>2026-04-11T16:21:16Z</time></trkpt><trkpt lat="38.76342611355477" lon="16.47171658971896"><ele>303.0</ele><time>2026-04-11T16:21:17Z</time></trkpt><trkpt lat="38.76351548500747" lon="16.471900125089807"><ele>306.3333333333333</ele><time>2026-04-11T16:21:18Z</time></trkpt><trkpt lat="38.763631668850145" lon="16.47208574397486"><ele>309.66666666666663</ele><time>2026-04-11T16:21:19Z</time></trkpt><trkpt lat="38.763756892220144" lon="16.47227067952546"><ele>313.0</ele><time>2026-04-11T16:21:20Z</time></trkpt><trkpt lat="38.76385793274636" lon="16.472477311184644"><ele>313.0</ele><time>2026-04-11T16:21:21Z</time></trkpt><trkpt lat="38.7639418015244" lon="16.472663927027554"><ele>313.0</ele><time>2026-04-11T16:21:22Z</time></trkpt><trkpt lat="38.7640207721207" lon="16.472856472837357"><ele>313.0</ele><time>2026-04-11T16:21:23Z</time></trkpt><trkpt lat="38.76405233282807" lon="16.473076767907834"><ele>308.66666666666663</ele><time>2026-04-11T16:21:24Z</time></trkpt><trkpt lat="38.76410768026539" lon="16.4732880623098"><ele>304.3333333333333</ele><time>2026-04-11T16:21:25Z</time></trkpt><trkpt lat="38.76414708357286" lon="16.47349334549987"><ele>300.0</ele><time>2026-04-11T16:21:26Z</time></trkpt><trkpt lat="38.764201516374456" lon="16.473705875261295"><ele>301.6666666666667</ele><time>2026-04-11T16:21:27Z</time></trkpt><trkpt lat="38.76428554789788" lon="16.473920993437513"><ele>303.33333333333337</ele><time>2026-04-11T16:21:28Z</time></trkpt><trkpt lat="38.764389774899236" lon="16.474134626911756"><ele>305.0</ele><time>2026-04-11T16:21:29Z</time></trkpt><trkpt lat="38.764501100637915" lon="16.474361014221767"><ele>305.0</ele><time>2026-04-11T16:21:30Z</time></trkpt><trkpt lat="38.76461567370828" lon="16.474593859392144"><ele>305.0</ele><time>2026-04-11T16:21:31Z</time></trkpt><trkpt lat="38.76473258372017" lon="16.474837522090027"><ele>305.0</ele><time>2026-04-11T16:21:32Z</time></trkpt><trkpt lat="38.7648387580832" lon="16.475099517421754"><ele>296.0</ele><time>2026-04-11T16:21:33Z</time></trkpt><trkpt lat="38.76495802579162" lon="16.47535722364273"><ele>287.0</ele><time>2026-04-11T16:21:34Z</time></trkpt><trkpt lat="38.76509112432226" lon="16.475610670842784"><ele>283.5</ele><time>2026-04-11T16:21:35Z</time></trkpt><trkpt lat="38.76520797097667" lon="16.475875327923376"><ele>280.0</ele><time>2026-04-11T16:21:36Z</time></trkpt><trkpt lat="38.765325618360734" lon="16.476137258535626"><ele>278.66666666666663</ele><time>2026-04-11T16:21:37Z</time></trkpt><trkpt lat="38.76543765427869" lon="16.47638289471961"><ele>277.3333333333333</ele><time>2026-04-11T16:21:38Z</time></trkpt><trkpt lat="38.765532076952155" lon="16.476632341259062"><ele>276.0</ele><time>2026-04-11T16:21:39Z</time></trkpt><trkpt lat="38.765635207460754" lon="16.476862831597604"><ele>276.0</ele><time>2026-04-11T16:21:40Z</time></trkpt><trkpt lat="38.76575181116482" lon="16.47707861626716"><ele>276.0</ele><time>2026-04-11T16:21:41Z</time></trkpt><trkpt lat="38.765853474101306" lon="16.4773028977141"><ele>276.0</ele><time>2026-04-11T16:21:42Z</time></trkpt><trkpt lat="38.76595702236591" lon="16.477527773617563"><ele>276.3333333333333</ele><time>2026-04-11T16:21:43Z</time></trkpt><trkpt lat="38.76605650819561" lon="16.477751896002463"><ele>276.66666666666663</ele><time>2026-04-11T16:21:44Z</time></trkpt><trkpt lat="38.766156803172095" lon="16.477980662882928"><ele>277.0</ele><time>2026-04-11T16:21:45Z</time></trkpt><trkpt lat="38.766255944104294" lon="16.47821013921542"><ele>276.0</ele><time>2026-04-11T16:21:46Z</time></trkpt><trkpt lat="38.766351317321835" lon="16.478426944777418"><ele>275.0</ele><time>2026-04-11T16:21:47Z</time></trkpt><trkpt lat="38.76644777548586" lon="16.478655831489966"><ele>274.0</ele><time>2026-04-11T16:21:48Z</time></trkpt><trkpt lat="38.76652657355906" lon="16.478837444641442"><ele>272.66666666666663</ele><time>2026-04-11T16:21:49Z</time></trkpt><trkpt lat="38.766625953665006" lon="16.479012097413822"><ele>271.3333333333333</ele><time>2026-04-11T16:21:50Z</time></trkpt><trkpt lat="38.76670537280065" lon="16.479189414823587"><ele>270.0</ele><time>2026-04-11T16:21:51Z</time></trkpt><trkpt lat="38.76676438475608" lon="16.479351257060216"><ele>270.0</ele><time>2026-04-11T16:21:52Z</time></trkpt><trkpt lat="38.76678008082777" lon="16.479524243426642"><ele>270.0</ele><time>2026-04-11T16:21:53Z</time></trkpt><trkpt lat="38.76681161171502" lon="16.479726668537165"><ele>270.0</ele><time>2026-04-11T16:21:54Z</time></trkpt><trkpt lat="38.76687918857796" lon="16.47991366948998"><ele>270.3333333333333</ele><time>2026-04-11T16:21:55Z</time></trkpt><trkpt lat="38.76694527127963" lon="16.48011744831232"><ele>270.66666666666663</ele><time>2026-04-11T16:21:56Z</time></trkpt><trkpt lat="38.76700740341043" lon="16.480323458116374"><ele>271.0</ele><time>2026-04-11T16:21:57Z</time></trkpt><trkpt lat="38.76707037747849" lon="16.480506918148592"><ele>271.0</ele><time>2026-04-11T16:21:58Z</time></trkpt><trkpt lat="38.76713991972505" lon="16.48067994168284"><ele>271.0</ele><time>2026-04-11T16:21:59Z</time></trkpt><trkpt lat="38.76723053960003" lon="16.480835536059107"><ele>271.0</ele><time>2026-04-11T16:22:00Z</time></trkpt><trkpt lat="38.767347302829016" lon="16.48095147266061"><ele>271.0</ele><time>2026-04-11T16:22:01Z</time></trkpt><trkpt lat="38.767483911738" lon="16.48104494145976"><ele>271.0</ele><time>2026-04-11T16:22:02Z</time></trkpt><trkpt lat="38.76764416378624" lon="16.48109958966542"><ele>271.0</ele><time>2026-04-11T16:22:03Z</time></trkpt><trkpt lat="38.76781160344808" lon="16.4811211401035"><ele>271.0</ele><time>2026-04-11T16:22:04Z</time></trkpt><trkpt lat="38.76798620871976" lon="16.481119935499898"><ele>271.0</ele><time>2026-04-11T16:22:05Z</time></trkpt><trkpt lat="38.76816641360979" lon="16.481114062387384"><ele>271.0</ele><time>2026-04-11T16:22:06Z</time></trkpt><trkpt lat="38.76835585311414" lon="16.481110461826848"><ele>267.66666666666663</ele><time>2026-04-11T16:22:07Z</time></trkpt><trkpt lat="38.76855589173807" lon="16.48110564324672"><ele>264.3333333333333</ele><time>2026-04-11T16:22:08Z</time></trkpt><trkpt lat="38.768760070843456" lon="16.48109982729055"><ele>261.0</ele><time>2026-04-11T16:22:09Z</time></trkpt><trkpt lat="38.768963257632436" lon="16.481098759145727"><ele>261.0</ele><time>2026-04-11T16:22:10Z</time></trkpt><trkpt lat="38.769166653518205" lon="16.481099287298395"><ele>261.0</ele><time>2026-04-11T16:22:11Z</time></trkpt><trkpt lat="38.76936833173285" lon="16.48109867874645"><ele>261.0</ele><time>2026-04-11T16:22:12Z</time></trkpt><trkpt lat="38.769569009196616" lon="16.481093243962714"><ele>260.6666666666667</ele><time>2026-04-11T16:22:13Z</time></trkpt><trkpt lat="38.76976149785108" lon="16.4810916728253"><ele>260.33333333333337</ele><time>2026-04-11T16:22:14Z</time></trkpt><trkpt lat="38.76995539766808" lon="16.481111493861725"><ele>260.0</ele><time>2026-04-11T16:22:15Z</time></trkpt><trkpt lat="38.770157769718324" lon="16.481092695135374"><ele>259.0</ele><time>2026-04-11T16:22:16Z</time></trkpt><trkpt lat="38.770348198492464" lon="16.481095693902542"><ele>258.0</ele><time>2026-04-11T16:22:17Z</time></trkpt><trkpt lat="38.77052462499272" lon="16.4810986826758"><ele>257.0</ele><time>2026-04-11T16:22:18Z</time></trkpt><trkpt lat="38.77069085260374" lon="16.481100152424364"><ele>257.0</ele><time>2026-04-11T16:22:19Z</time></trkpt><trkpt lat="38.77084914078778" lon="16.48111206522442"><ele>257.0</ele><time>2026-04-11T16:22:20Z</time></trkpt><trkpt lat="38.771004563317334" lon="16.481157512551906"><ele>257.0</ele><time>2026-04-11T16:22:21Z</time></trkpt><trkpt lat="38.77115452155108" lon="16.48124512177739"><ele>257.0</ele><time>2026-04-11T16:22:22Z</time></trkpt><trkpt lat="38.77127327956672" lon="16.4813780883903"><ele>257.0</ele><time>2026-04-11T16:22:23Z</time></trkpt><trkpt lat="38.77138512296894" lon="16.48152730694015"><ele>257.0</ele><time>2026-04-11T16:22:24Z</time></trkpt><trkpt lat="38.771482464478915" lon="16.481697750611108"><ele>257.0</ele><time>2026-04-11T16:22:25Z</time></trkpt><trkpt lat="38.77156564893459" lon="16.48189162154913"><ele>257.0</ele><time>2026-04-11T16:22:26Z</time></trkpt><trkpt lat="38.77164956739994" lon="16.482092612073615"><ele>257.0</ele><time>2026-04-11T16:22:27Z</time></trkpt><trkpt lat="38.771750770508056" lon="16.48229371211236"><ele>257.0</ele><time>2026-04-11T16:22:28Z</time></trkpt><trkpt lat="38.77182314791547" lon="16.482513524956122"><ele>257.0</ele><time>2026-04-11T16:22:29Z</time></trkpt><trkpt lat="38.771909999131026" lon="16.48272483814603"><ele>257.0</ele><time>2026-04-11T16:22:30Z</time></trkpt><trkpt lat="38.771995845432656" lon="16.48293374445252"><ele>256.6666666666667</ele><time>2026-04-11T16:22:31Z</time></trkpt><trkpt lat="38.77207980657554" lon="16.483138578142476"><ele>256.3333333333333</ele><time>2026-04-11T16:22:32Z</time></trkpt><trkpt lat="38.77216393749156" lon="16.483343826081096"><ele>256.0</ele><time>2026-04-11T16:22:33Z</time></trkpt><trkpt lat="38.772248774738806" lon="16.48354956790013"><ele>256.0</ele><time>2026-04-11T16:22:34Z</time></trkpt><trkpt lat="38.77233787710686" lon="16.483764982130122"><ele>256.0</ele><time>2026-04-11T16:22:35Z</time></trkpt><trkpt lat="38.772428174654955" lon="16.483983285859985"><ele>256.0</ele><time>2026-04-11T16:22:36Z</time></trkpt><trkpt lat="38.77252104637406" lon="16.484207812911844"><ele>256.0</ele><time>2026-04-11T16:22:37Z</time></trkpt><trkpt lat="38.77263028535187" lon="16.48442711463246"><ele>256.0</ele><time>2026-04-11T16:22:38Z</time></trkpt><trkpt lat="38.77272321549154" lon="16.48466385723989"><ele>256.0</ele><time>2026-04-11T16:22:39Z</time></trkpt><trkpt lat="38.77282248114224" lon="16.48490500265671"><ele>257.3333333333333</ele><time>2026-04-11T16:22:40Z</time></trkpt><trkpt lat="38.772921326796144" lon="16.485143913738607"><ele>258.6666666666667</ele><time>2026-04-11T16:22:41Z</time></trkpt><trkpt lat="38.7730163293825" lon="16.485373565040636"><ele>260.0</ele><time>2026-04-11T16:22:42Z</time></trkpt><trkpt lat="38.77310930057083" lon="16.485602919293687"><ele>260.0</ele><time>2026-04-11T16:22:43Z</time></trkpt><trkpt lat="38.773200742741295" lon="16.485826180037705"><ele>260.0</ele><time>2026-04-11T16:22:44Z</time></trkpt><trkpt lat="38.773292065958955" lon="16.486042337409696"><ele>260.0</ele><time>2026-04-11T16:22:45Z</time></trkpt><trkpt lat="38.77338288617587" lon="16.48625209141658"><ele>260.0</ele><time>2026-04-11T16:22:46Z</time></trkpt><trkpt lat="38.77347086731295" lon="16.486458259080294"><ele>260.0</ele><time>2026-04-11T16:22:47Z</time></trkpt><trkpt lat="38.77355664208759" lon="16.486660046671066"><ele>260.0</ele><time>2026-04-11T16:22:48Z</time></trkpt><trkpt lat="38.773638672114956" lon="16.48685958265674"><ele>261.0</ele><time>2026-04-11T16:22:49Z</time></trkpt><trkpt lat="38.7737197742118" lon="16.487059121135776"><ele>262.0</ele><time>2026-04-11T16:22:50Z</time></trkpt><trkpt lat="38.77379835771527" lon="16.487247720707714"><ele>263.0</ele><time>2026-04-11T16:22:51Z</time></trkpt><trkpt lat="38.773863157539644" lon="16.48740930868107"><ele>263.0</ele><time>2026-04-11T16:22:52Z</time></trkpt><trkpt lat="38.773916303983114" lon="16.48754414687849"><ele>263.0</ele><time>2026-04-11T16:22:53Z</time></trkpt><trkpt lat="38.773964481929355" lon="16.487656600814155"><ele>263.0</ele><time>2026-04-11T16:22:54Z</time></trkpt><trkpt lat="38.77400785417645" lon="16.48774595701395"><ele>263.0</ele><time>2026-04-11T16:22:55Z</time></trkpt><trkpt lat="38.774065909395944" lon="16.487839034942784"><ele>263.0</ele><time>2026-04-11T16:22:57Z</time></trkpt><trkpt lat="38.77410922366111" lon="16.48790292231934"><ele>263.0</ele><time>2026-04-11T16:22:59Z</time></trkpt><trkpt lat="38.77418090721083" lon="16.487783386481407"><ele>263.0</ele><time>2026-04-11T16:23:16Z</time></trkpt><trkpt lat="38.77417297985056" lon="16.487698417154583"><ele>263.0</ele><time>2026-04-11T16:23:18Z</time></trkpt><trkpt lat="38.77418253136131" lon="16.48758205352326"><ele>263.0</ele><time>2026-04-11T16:23:24Z</time></trkpt><trkpt lat="38.77417627376609" lon="16.487482931871426"><ele>263.0</ele><time>2026-04-11T16:23:25Z</time></trkpt><trkpt lat="38.77417727845815" lon="16.487367447600217"><ele>263.0</ele><time>2026-04-11T16:23:26Z</time></trkpt><trkpt lat="38.77417549939009" lon="16.487229239049167"><ele>263.0</ele><time>2026-04-11T16:23:27Z</time></trkpt><trkpt lat="38.774171955853255" lon="16.48709606705803"><ele>263.0</ele><time>2026-04-11T16:23:28Z</time></trkpt><trkpt lat="38.77417241919521" lon="16.486977765752226"><ele>263.0</ele><time>2026-04-11T16:23:29Z</time></trkpt><trkpt lat="38.77416963382294" lon="16.486875535997875"><ele>263.0</ele><time>2026-04-11T16:23:30Z</time></trkpt><trkpt lat="38.774167440063714" lon="16.486781455677587"><ele>263.0</ele><time>2026-04-11T16:23:31Z</time></trkpt><trkpt lat="38.77416922098045" lon="16.486678539230507"><ele>263.0</ele><time>2026-04-11T16:23:32Z</time></trkpt><trkpt lat="38.774167914750734" lon="16.486566486917027"><ele>263.5</ele><time>2026-04-11T16:23:33Z</time></trkpt><trkpt lat="38.77416935610288" lon="16.486440767747396"><ele>264.0</ele><time>2026-04-11T16:23:34Z</time></trkpt><trkpt lat="38.774168390970964" lon="16.48629757115527"><ele>264.5</ele><time>2026-04-11T16:23:35Z</time></trkpt><trkpt lat="38.774165182067776" lon="16.48614127582384"><ele>265.0</ele><time>2026-04-11T16:23:36Z</time></trkpt><trkpt lat="38.77416521557502" lon="16.48597828251728"><ele>265.0</ele><time>2026-04-11T16:23:37Z</time></trkpt><trkpt lat="38.774161123641164" lon="16.485801202897306"><ele>265.0</ele><time>2026-04-11T16:23:38Z</time></trkpt><trkpt lat="38.774160920553065" lon="16.485619073090415"><ele>265.0</ele><time>2026-04-11T16:23:39Z</time></trkpt><trkpt lat="38.77416284785769" lon="16.48543037179667"><ele>265.0</ele><time>2026-04-11T16:23:40Z</time></trkpt><trkpt lat="38.77417326086613" lon="16.485234650945845"><ele>264.66666666666663</ele><time>2026-04-11T16:23:41Z</time></trkpt><trkpt lat="38.77419072960433" lon="16.485034695772043"><ele>264.3333333333333</ele><time>2026-04-11T16:23:42Z</time></trkpt><trkpt lat="38.77421284049347" lon="16.484834158272825"><ele>264.0</ele><time>2026-04-11T16:23:43Z</time></trkpt><trkpt lat="38.77423880371613" lon="16.484628834311025"><ele>264.3333333333333</ele><time>2026-04-11T16:23:44Z</time></trkpt><trkpt lat="38.774263769608076" lon="16.484415150654975"><ele>264.66666666666663</ele><time>2026-04-11T16:23:45Z</time></trkpt><trkpt lat="38.77429586500654" lon="16.484211132964738"><ele>265.0</ele><time>2026-04-11T16:23:46Z</time></trkpt><trkpt lat="38.77432377298024" lon="16.484019070309277"><ele>265.0</ele><time>2026-04-11T16:23:47Z</time></trkpt><trkpt lat="38.774356247188926" lon="16.48383798240766"><ele>265.0</ele><time>2026-04-11T16:23:48Z</time></trkpt><trkpt lat="38.77438951781991" lon="16.483644615611432"><ele>265.0</ele><time>2026-04-11T16:23:49Z</time></trkpt><trkpt lat="38.77442751020652" lon="16.483481403873835"><ele>265.0</ele><time>2026-04-11T16:23:50Z</time></trkpt><trkpt lat="38.774458182461935" lon="16.48328839090025"><ele>264.66666666666663</ele><time>2026-04-11T16:23:51Z</time></trkpt><trkpt lat="38.77451004502921" lon="16.483101478395323"><ele>264.3333333333333</ele><time>2026-04-11T16:23:52Z</time></trkpt><trkpt lat="38.774558129462385" lon="16.482903813883134"><ele>264.0</ele><time>2026-04-11T16:23:53Z</time></trkpt><trkpt lat="38.774605895077535" lon="16.482685113661447"><ele>264.0</ele><time>2026-04-11T16:23:54Z</time></trkpt><trkpt lat="38.774660969735024" lon="16.482465025165475"><ele>264.0</ele><time>2026-04-11T16:23:55Z</time></trkpt><trkpt lat="38.77471697212798" lon="16.482231627752064"><ele>264.0</ele><time>2026-04-11T16:23:56Z</time></trkpt><trkpt lat="38.774771564550235" lon="16.48198937375407"><ele>263.3333333333333</ele><time>2026-04-11T16:23:57Z</time></trkpt><trkpt lat="38.7748312335867" lon="16.4817434072709"><ele>262.66666666666663</ele><time>2026-04-11T16:23:58Z</time></trkpt><trkpt lat="38.77489549537429" lon="16.4814972438827"><ele>262.0</ele><time>2026-04-11T16:23:59Z</time></trkpt><trkpt lat="38.774951298019026" lon="16.48125833754135"><ele>262.0</ele><time>2026-04-11T16:24:00Z</time></trkpt><trkpt lat="38.77500710089276" lon="16.481027534255336"><ele>262.0</ele><time>2026-04-11T16:24:01Z</time></trkpt><trkpt lat="38.77506627566184" lon="16.48078635358754"><ele>262.0</ele><time>2026-04-11T16:24:02Z</time></trkpt><trkpt lat="38.775127587772" lon="16.480542692328058"><ele>260.66666666666663</ele><time>2026-04-11T16:24:03Z</time></trkpt><trkpt lat="38.77519277937065" lon="16.48029671286799"><ele>259.3333333333333</ele><time>2026-04-11T16:24:04Z</time></trkpt><trkpt lat="38.77525710089565" lon="16.480070327665885"><ele>258.0</ele><time>2026-04-11T16:24:05Z</time></trkpt><trkpt lat="38.77531146198221" lon="16.479899951766722"><ele>258.0</ele><time>2026-04-11T16:24:06Z</time></trkpt><trkpt lat="38.77535961297006" lon="16.479750567924444"><ele>258.0</ele><time>2026-04-11T16:24:07Z</time></trkpt><trkpt lat="38.77540184089883" lon="16.479615439907725"><ele>258.0</ele><time>2026-04-11T16:24:08Z</time></trkpt><trkpt lat="38.77544081717031" lon="16.47948638781861"><ele>258.0</ele><time>2026-04-11T16:24:09Z</time></trkpt><trkpt lat="38.775470658488175" lon="16.479385437296514"><ele>258.0</ele><time>2026-04-11T16:24:10Z</time></trkpt><trkpt lat="38.775529994122834" lon="16.479254946803433"><ele>258.4</ele><time>2026-04-11T16:24:12Z</time></trkpt><trkpt lat="38.775571871124235" lon="16.479178774952"><ele>258.8</ele><time>2026-04-11T16:24:14Z</time></trkpt><trkpt lat="38.77570321634867" lon="16.479189062184737"><ele>259.2</ele><time>2026-04-11T16:24:16Z</time></trkpt><trkpt lat="38.77583811707632" lon="16.479197254489232"><ele>259.6</ele><time>2026-04-11T16:24:18Z</time></trkpt><trkpt lat="38.77592453076987" lon="16.479207039210205"><ele>260.0</ele><time>2026-04-11T16:24:19Z</time></trkpt><trkpt lat="38.776021855543334" lon="16.479207691118045"><ele>260.0</ele><time>2026-04-11T16:24:20Z</time></trkpt><trkpt lat="38.77611797456507" lon="16.47918359229558"><ele>260.0</ele><time>2026-04-11T16:24:21Z</time></trkpt><trkpt lat="38.77621174504209" lon="16.47917861508643"><ele>260.0</ele><time>2026-04-11T16:24:22Z</time></trkpt><trkpt lat="38.77631062382062" lon="16.47913725427672"><ele>260.0</ele><time>2026-04-11T16:24:23Z</time></trkpt><trkpt lat="38.77640941258651" lon="16.479100393241037"><ele>260.0</ele><time>2026-04-11T16:24:24Z</time></trkpt><trkpt lat="38.77651573506881" lon="16.479069212345436"><ele>260.0</ele><time>2026-04-11T16:24:25Z</time></trkpt><trkpt lat="38.776625006869544" lon="16.479057127438452"><ele>260.0</ele><time>2026-04-11T16:24:26Z</time></trkpt><trkpt lat="38.77674037869088" lon="16.47906370626836"><ele>260.0</ele><time>2026-04-11T16:24:27Z</time></trkpt><trkpt lat="38.776858715040056" lon="16.479119060207"><ele>260.0</ele><time>2026-04-11T16:24:28Z</time></trkpt><trkpt lat="38.77699720876471" lon="16.479160354853718"><ele>258.25</ele><time>2026-04-11T16:24:29Z</time></trkpt><trkpt lat="38.77713051877221" lon="16.479230451427608"><ele>256.5</ele><time>2026-04-11T16:24:30Z</time></trkpt><trkpt lat="38.77725291687613" lon="16.479300617915403"><ele>254.75</ele><time>2026-04-11T16:24:31Z</time></trkpt><trkpt lat="38.77736840638017" lon="16.47937251028701"><ele>253.0</ele><time>2026-04-11T16:24:32Z</time></trkpt><trkpt lat="38.77746317543424" lon="16.47947754135834"><ele>252.0</ele><time>2026-04-11T16:24:33Z</time></trkpt><trkpt lat="38.777527504058725" lon="16.479649605272296"><ele>251.0</ele><time>2026-04-11T16:24:34Z</time></trkpt><trkpt lat="38.77760535091813" lon="16.47984471284851"><ele>250.0</ele><time>2026-04-11T16:24:35Z</time></trkpt><trkpt lat="38.777700475633196" lon="16.480043689168696"><ele>249.66666666666666</ele><time>2026-04-11T16:24:36Z</time></trkpt><trkpt lat="38.777774997141805" lon="16.480256184910857"><ele>249.33333333333331</ele><time>2026-04-11T16:24:37Z</time></trkpt><trkpt lat="38.77785807054773" lon="16.48045902264317"><ele>249.0</ele><time>2026-04-11T16:24:38Z</time></trkpt><trkpt lat="38.77794855212434" lon="16.480670845439"><ele>247.66666666666669</ele><time>2026-04-11T16:24:39Z</time></trkpt><trkpt lat="38.778038807428935" lon="16.480880792719038"><ele>246.33333333333334</ele><time>2026-04-11T16:24:40Z</time></trkpt><trkpt lat="38.77812167118759" lon="16.481088481477965"><ele>245.0</ele><time>2026-04-11T16:24:41Z</time></trkpt><trkpt lat="38.77820227265269" lon="16.481287836916568"><ele>242.66666666666669</ele><time>2026-04-11T16:24:42Z</time></trkpt><trkpt lat="38.77828187650256" lon="16.481490101150207"><ele>240.33333333333331</ele><time>2026-04-11T16:24:43Z</time></trkpt><trkpt lat="38.77836304055511" lon="16.48168614601889"><ele>238.0</ele><time>2026-04-11T16:24:44Z</time></trkpt><trkpt lat="38.778446549172905" lon="16.481885487436667"><ele>236.33333333333331</ele><time>2026-04-11T16:24:45Z</time></trkpt><trkpt lat="38.778532973095835" lon="16.48207901987842"><ele>234.66666666666669</ele><time>2026-04-11T16:24:46Z</time></trkpt><trkpt lat="38.778620943020925" lon="16.48226654791724"><ele>233.0</ele><time>2026-04-11T16:24:47Z</time></trkpt><trkpt lat="38.778719910700474" lon="16.482433770641993"><ele>232.0</ele><time>2026-04-11T16:24:48Z</time></trkpt><trkpt lat="38.7788116351823" lon="16.48255665996472"><ele>231.0</ele><time>2026-04-11T16:24:49Z</time></trkpt><trkpt lat="38.77887518643008" lon="16.48262254714388"><ele>230.0</ele><time>2026-04-11T16:24:50Z</time></trkpt><trkpt lat="38.77899680408034" lon="16.482657034618956"><ele>229.0</ele><time>2026-04-11T16:24:51Z</time></trkpt><trkpt lat="38.77913399628954" lon="16.482671139530392"><ele>229.0</ele><time>2026-04-11T16:24:52Z</time></trkpt><trkpt lat="38.779285647840624" lon="16.48264229928805"><ele>229.0</ele><time>2026-04-11T16:24:53Z</time></trkpt><trkpt lat="38.77943923723855" lon="16.482570655809972"><ele>229.0</ele><time>2026-04-11T16:24:54Z</time></trkpt><trkpt lat="38.779603973680636" lon="16.48258678240628"><ele>227.0</ele><time>2026-04-11T16:24:55Z</time></trkpt><trkpt lat="38.77977451992465" lon="16.48262654928772"><ele>225.0</ele><time>2026-04-11T16:24:56Z</time></trkpt><trkpt lat="38.779947717771506" lon="16.482681048463963"><ele>223.0</ele><time>2026-04-11T16:24:57Z</time></trkpt><trkpt lat="38.78010825212277" lon="16.482745620569954"><ele>222.66666666666666</ele><time>2026-04-11T16:24:58Z</time></trkpt><trkpt lat="38.78025370414452" lon="16.482826788109953"><ele>222.33333333333331</ele><time>2026-04-11T16:24:59Z</time></trkpt><trkpt lat="38.78038163488985" lon="16.48293827114147"><ele>222.0</ele><time>2026-04-11T16:25:00Z</time></trkpt><trkpt lat="38.780508041172055" lon="16.483034343785977"><ele>222.0</ele><time>2026-04-11T16:25:01Z</time></trkpt><trkpt lat="38.78059968202417" lon="16.483135144419325"><ele>222.0</ele><time>2026-04-11T16:25:02Z</time></trkpt><trkpt lat="38.780713822287765" lon="16.483193684779145"><ele>222.0</ele><time>2026-04-11T16:25:03Z</time></trkpt><trkpt lat="38.78084213825427" lon="16.483188328915446"><ele>222.0</ele><time>2026-04-11T16:25:04Z</time></trkpt><trkpt lat="38.781005730311904" lon="16.483131943824333"><ele>221.0</ele><time>2026-04-11T16:25:05Z</time></trkpt><trkpt lat="38.781175159222535" lon="16.48302313265128"><ele>220.0</ele><time>2026-04-11T16:25:06Z</time></trkpt><trkpt lat="38.781341397484965" lon="16.482920973261514"><ele>219.0</ele><time>2026-04-11T16:25:07Z</time></trkpt><trkpt lat="38.781504018575184" lon="16.482861772265764"><ele>219.0</ele><time>2026-04-11T16:25:08Z</time></trkpt><trkpt lat="38.781644125167595" lon="16.482799230026252"><ele>219.0</ele><time>2026-04-11T16:25:09Z</time></trkpt><trkpt lat="38.781790279632105" lon="16.482767535563934"><ele>219.0</ele><time>2026-04-11T16:25:10Z</time></trkpt><trkpt lat="38.78195970912913" lon="16.48278594686001"><ele>218.66666666666669</ele><time>2026-04-11T16:25:11Z</time></trkpt><trkpt lat="38.7821131398153" lon="16.482810822988412"><ele>218.33333333333334</ele><time>2026-04-11T16:25:12Z</time></trkpt><trkpt lat="38.78226660374378" lon="16.48285018498328"><ele>218.0</ele><time>2026-04-11T16:25:13Z</time></trkpt><trkpt lat="38.782414224651504" lon="16.482897811157514"><ele>219.33333333333334</ele><time>2026-04-11T16:25:14Z</time></trkpt><trkpt lat="38.78255948491918" lon="16.482942778076357"><ele>220.66666666666669</ele><time>2026-04-11T16:25:15Z</time></trkpt><trkpt lat="38.78269874157636" lon="16.4830407682455"><ele>222.0</ele><time>2026-04-11T16:25:16Z</time></trkpt><trkpt lat="38.78285301691341" lon="16.483130631142796"><ele>222.0</ele><time>2026-04-11T16:25:17Z</time></trkpt><trkpt lat="38.78300183295119" lon="16.48324488018766"><ele>222.0</ele><time>2026-04-11T16:25:18Z</time></trkpt><trkpt lat="38.7831427215803" lon="16.483345700288922"><ele>222.0</ele><time>2026-04-11T16:25:19Z</time></trkpt><trkpt lat="38.78326822727511" lon="16.483470840821404"><ele>222.0</ele><time>2026-04-11T16:25:20Z</time></trkpt><trkpt lat="38.78340185013358" lon="16.483603180094708"><ele>222.0</ele><time>2026-04-11T16:25:21Z</time></trkpt><trkpt lat="38.78352457837891" lon="16.48376352385049"><ele>222.0</ele><time>2026-04-11T16:25:22Z</time></trkpt><trkpt lat="38.78363723766029" lon="16.483945431774334"><ele>220.33333333333331</ele><time>2026-04-11T16:25:23Z</time></trkpt><trkpt lat="38.78375628790765" lon="16.484140003540404"><ele>218.66666666666666</ele><time>2026-04-11T16:25:24Z</time></trkpt><trkpt lat="38.78387779050742" lon="16.484339343530802"><ele>217.0</ele><time>2026-04-11T16:25:25Z</time></trkpt><trkpt lat="38.78400169134322" lon="16.484544898454015"><ele>215.66666666666666</ele><time>2026-04-11T16:25:26Z</time></trkpt><trkpt lat="38.78412815093813" lon="16.484754322038373"><ele>214.33333333333331</ele><time>2026-04-11T16:25:27Z</time></trkpt><trkpt lat="38.78426338629903" lon="16.484976870416478"><ele>213.0</ele><time>2026-04-11T16:25:28Z</time></trkpt><trkpt lat="38.784401538044996" lon="16.48520421791209"><ele>212.66666666666669</ele><time>2026-04-11T16:25:29Z</time></trkpt><trkpt lat="38.78453697267488" lon="16.48542709411135"><ele>212.33333333333334</ele><time>2026-04-11T16:25:30Z</time></trkpt><trkpt lat="38.78466809439639" lon="16.485644859257064"><ele>212.0</ele><time>2026-04-11T16:25:31Z</time></trkpt><trkpt lat="38.78478540607659" lon="16.48584082777636"><ele>211.33333333333334</ele><time>2026-04-11T16:25:32Z</time></trkpt><trkpt lat="38.78489930667261" lon="16.48603080327011"><ele>210.66666666666669</ele><time>2026-04-11T16:25:33Z</time></trkpt><trkpt lat="38.78502165801043" lon="16.486234316608645"><ele>210.0</ele><time>2026-04-11T16:25:34Z</time></trkpt><trkpt lat="38.78514575868971" lon="16.486440740464115"><ele>208.33333333333331</ele><time>2026-04-11T16:25:35Z</time></trkpt><trkpt lat="38.78527306418578" lon="16.48665249472785"><ele>206.66666666666666</ele><time>2026-04-11T16:25:36Z</time></trkpt><trkpt lat="38.785405394807526" lon="16.486872607575123"><ele>205.0</ele><time>2026-04-11T16:25:37Z</time></trkpt><trkpt lat="38.78553636357087" lon="16.487089380950632"><ele>204.33333333333331</ele><time>2026-04-11T16:25:38Z</time></trkpt><trkpt lat="38.785663858964256" lon="16.48729892659264"><ele>203.66666666666669</ele><time>2026-04-11T16:25:39Z</time></trkpt><trkpt lat="38.785790990343095" lon="16.487481369135384"><ele>203.0</ele><time>2026-04-11T16:25:40Z</time></trkpt><trkpt lat="38.78590577057672" lon="16.487671237952597"><ele>202.0</ele><time>2026-04-11T16:25:41Z</time></trkpt><trkpt lat="38.78603030067517" lon="16.487869695498876"><ele>201.0</ele><time>2026-04-11T16:25:42Z</time></trkpt><trkpt lat="38.786146691998525" lon="16.488080307672607"><ele>200.0</ele><time>2026-04-11T16:25:43Z</time></trkpt><trkpt lat="38.78629888995647" lon="16.488253880040368"><ele>200.0</ele><time>2026-04-11T16:25:44Z</time></trkpt><trkpt lat="38.78643861333785" lon="16.488442249801338"><ele>200.0</ele><time>2026-04-11T16:25:45Z</time></trkpt><trkpt lat="38.78658271746139" lon="16.48862716340417"><ele>200.0</ele><time>2026-04-11T16:25:46Z</time></trkpt><trkpt lat="38.7867079600732" lon="16.488818374942333"><ele>200.0</ele><time>2026-04-11T16:25:47Z</time></trkpt><trkpt lat="38.78682446717481" lon="16.488988675686173"><ele>200.0</ele><time>2026-04-11T16:25:48Z</time></trkpt><trkpt lat="38.786935144887494" lon="16.48916653014363"><ele>200.0</ele><time>2026-04-11T16:25:49Z</time></trkpt><trkpt lat="38.78701973673879" lon="16.489361415115706"><ele>199.33333333333334</ele><time>2026-04-11T16:25:50Z</time></trkpt><trkpt lat="38.78710116432602" lon="16.489570349979505"><ele>198.66666666666669</ele><time>2026-04-11T16:25:51Z</time></trkpt><trkpt lat="38.78718797491897" lon="16.489776525265825"><ele>198.0</ele><time>2026-04-11T16:25:52Z</time></trkpt><trkpt lat="38.78726105736967" lon="16.489993002137158"><ele>198.0</ele><time>2026-04-11T16:25:53Z</time></trkpt><trkpt lat="38.78733725981351" lon="16.490198889859716"><ele>198.0</ele><time>2026-04-11T16:25:54Z</time></trkpt><trkpt lat="38.78738659198178" lon="16.490399415711614"><ele>198.0</ele><time>2026-04-11T16:25:55Z</time></trkpt><trkpt lat="38.78743588730025" lon="16.49058078983095"><ele>197.75</ele><time>2026-04-11T16:25:56Z</time></trkpt><trkpt lat="38.78748178793908" lon="16.490733956598184"><ele>197.5</ele><time>2026-04-11T16:25:57Z</time></trkpt><trkpt lat="38.7875030382597" lon="16.49088261186579"><ele>197.25</ele><time>2026-04-11T16:25:58Z</time></trkpt><trkpt lat="38.78752229433791" lon="16.49102976927465"><ele>197.0</ele><time>2026-04-11T16:25:59Z</time></trkpt><trkpt lat="38.78754368736881" lon="16.491188212244648"><ele>196.25</ele><time>2026-04-11T16:26:00Z</time></trkpt><trkpt lat="38.787593160138506" lon="16.491343249574268"><ele>195.5</ele><time>2026-04-11T16:26:01Z</time></trkpt><trkpt lat="38.78766569012896" lon="16.491479453022038"><ele>194.75</ele><time>2026-04-11T16:26:02Z</time></trkpt><trkpt lat="38.78777685417233" lon="16.491599731425232"><ele>194.0</ele><time>2026-04-11T16:26:03Z</time></trkpt><trkpt lat="38.787919498723255" lon="16.491676814469276"><ele>193.33333333333334</ele><time>2026-04-11T16:26:04Z</time></trkpt><trkpt lat="38.78808436188084" lon="16.491726539575307"><ele>192.66666666666669</ele><time>2026-04-11T16:26:05Z</time></trkpt><trkpt lat="38.788273740480115" lon="16.491756827537362"><ele>192.0</ele><time>2026-04-11T16:26:06Z</time></trkpt><trkpt lat="38.78845801975362" lon="16.491788134374772"><ele>192.33333333333331</ele><time>2026-04-11T16:26:07Z</time></trkpt><trkpt lat="38.7886300514395" lon="16.491843798979133"><ele>192.66666666666666</ele><time>2026-04-11T16:26:08Z</time></trkpt><trkpt lat="38.78878523515823" lon="16.49189326949871"><ele>193.0</ele><time>2026-04-11T16:26:09Z</time></trkpt><trkpt lat="38.78891073582167" lon="16.49192763335582"><ele>193.0</ele><time>2026-04-11T16:26:10Z</time></trkpt><trkpt lat="38.78901764322878" lon="16.491962440594623"><ele>193.0</ele><time>2026-04-11T16:26:11Z</time></trkpt><trkpt lat="38.789120471592895" lon="16.491995050927393"><ele>193.0</ele><time>2026-04-11T16:26:12Z</time></trkpt><trkpt lat="38.78921994774607" lon="16.49201605371166"><ele>193.0</ele><time>2026-04-11T16:26:13Z</time></trkpt><trkpt lat="38.78933012208125" lon="16.492039408603894"><ele>193.0</ele><time>2026-04-11T16:26:14Z</time></trkpt><trkpt lat="38.78944843120344" lon="16.49206314050895"><ele>192.75</ele><time>2026-04-11T16:26:15Z</time></trkpt><trkpt lat="38.7895753240434" lon="16.492072664932614"><ele>192.5</ele><time>2026-04-11T16:26:16Z</time></trkpt><trkpt lat="38.78970033434136" lon="16.492071244665578"><ele>192.25</ele><time>2026-04-11T16:26:17Z</time></trkpt><trkpt lat="38.78982107757428" lon="16.492064912536417"><ele>192.0</ele><time>2026-04-11T16:26:18Z</time></trkpt><trkpt lat="38.7899593838463" lon="16.49205011465189"><ele>192.0</ele><time>2026-04-11T16:26:19Z</time></trkpt><trkpt lat="38.790105306417075" lon="16.49204238822107"><ele>192.0</ele><time>2026-04-11T16:26:20Z</time></trkpt><trkpt lat="38.79027883990204" lon="16.492027742106316"><ele>192.0</ele><time>2026-04-11T16:26:21Z</time></trkpt><trkpt lat="38.79045798925727" lon="16.49201224719195"><ele>192.66666666666669</ele><time>2026-04-11T16:26:22Z</time></trkpt><trkpt lat="38.79063254043461" lon="16.491999549946538"><ele>193.33333333333334</ele><time>2026-04-11T16:26:23Z</time></trkpt><trkpt lat="38.79079087315678" lon="16.491997449848974"><ele>194.0</ele><time>2026-04-11T16:26:24Z</time></trkpt><trkpt lat="38.790941426418534" lon="16.49201803886981"><ele>194.33333333333334</ele><time>2026-04-11T16:26:25Z</time></trkpt><trkpt lat="38.791093561774986" lon="16.492060449853184"><ele>194.66666666666669</ele><time>2026-04-11T16:26:26Z</time></trkpt><trkpt lat="38.791226683820874" lon="16.49215402911784"><ele>195.0</ele><time>2026-04-11T16:26:27Z</time></trkpt><trkpt lat="38.7913627178351" lon="16.492227014914313"><ele>195.25</ele><time>2026-04-11T16:26:28Z</time></trkpt><trkpt lat="38.79148510548761" lon="16.492317350163248"><ele>195.5</ele><time>2026-04-11T16:26:29Z</time></trkpt><trkpt lat="38.791599288377114" lon="16.49239233245577"><ele>195.75</ele><time>2026-04-11T16:26:30Z</time></trkpt><trkpt lat="38.79170332059891" lon="16.492462915521617"><ele>196.0</ele><time>2026-04-11T16:26:31Z</time></trkpt><trkpt lat="38.79179728860157" lon="16.492527638299677"><ele>196.66666666666666</ele><time>2026-04-11T16:26:32Z</time></trkpt><trkpt lat="38.791884566117616" lon="16.492584233109135"><ele>197.33333333333331</ele><time>2026-04-11T16:26:33Z</time></trkpt><trkpt lat="38.79196239196577" lon="16.492641226458346"><ele>198.0</ele><time>2026-04-11T16:26:34Z</time></trkpt><trkpt lat="38.79203348315561" lon="16.492695361145863"><ele>198.66666666666669</ele><time>2026-04-11T16:26:35Z</time></trkpt><trkpt lat="38.792092274285274" lon="16.492740250844484"><ele>199.33333333333334</ele><time>2026-04-11T16:26:36Z</time></trkpt><trkpt lat="38.79216179285522" lon="16.49279098199171"><ele>200.0</ele><time>2026-04-11T16:26:38Z</time></trkpt><trkpt lat="38.79221011413646" lon="16.492845847454113"><ele>200.0</ele><time>2026-04-11T16:26:40Z</time></trkpt><trkpt lat="38.79230843113479" lon="16.492773773026315"><ele>200.0</ele><time>2026-04-11T16:26:41Z</time></trkpt><trkpt lat="38.79235934352571" lon="16.492694205562543"><ele>200.0</ele><time>2026-04-11T16:26:42Z</time></trkpt><trkpt lat="38.79243331254258" lon="16.492606748382226"><ele>200.0</ele><time>2026-04-11T16:26:43Z</time></trkpt><trkpt lat="38.792524033895546" lon="16.49249467083908"><ele>200.0</ele><time>2026-04-11T16:26:44Z</time></trkpt><trkpt lat="38.79261207725605" lon="16.49236530001483"><ele>200.75</ele><time>2026-04-11T16:26:45Z</time></trkpt><trkpt lat="38.79269801719164" lon="16.49224066838588"><ele>201.5</ele><time>2026-04-11T16:26:46Z</time></trkpt><trkpt lat="38.79279403907014" lon="16.49211240878034"><ele>202.25</ele><time>2026-04-11T16:26:47Z</time></trkpt><trkpt lat="38.79289357116314" lon="16.491979037650704"><ele>203.0</ele><time>2026-04-11T16:26:48Z</time></trkpt><trkpt lat="38.79299261987478" lon="16.491840074642667"><ele>203.0</ele><time>2026-04-11T16:26:49Z</time></trkpt><trkpt lat="38.7930904501013" lon="16.491703474646616"><ele>203.0</ele><time>2026-04-11T16:26:50Z</time></trkpt><trkpt lat="38.793189252436356" lon="16.491572385264444"><ele>203.0</ele><time>2026-04-11T16:26:51Z</time></trkpt><trkpt lat="38.79328115542743" lon="16.491461864987286"><ele>203.0</ele><time>2026-04-11T16:26:52Z</time></trkpt><trkpt lat="38.79339833588353" lon="16.491369752148874"><ele>204.33333333333334</ele><time>2026-04-11T16:26:53Z</time></trkpt><trkpt lat="38.793533642586105" lon="16.49129524191898"><ele>205.66666666666669</ele><time>2026-04-11T16:26:54Z</time></trkpt><trkpt lat="38.79367996174979" lon="16.491222358278385"><ele>207.0</ele><time>2026-04-11T16:26:55Z</time></trkpt><trkpt lat="38.79383483557749" lon="16.491136669828656"><ele>204.0</ele><time>2026-04-11T16:26:56Z</time></trkpt><trkpt lat="38.793984129958936" lon="16.491043149901806"><ele>201.0</ele><time>2026-04-11T16:26:57Z</time></trkpt><trkpt lat="38.79413867740914" lon="16.490960055582722"><ele>198.0</ele><time>2026-04-11T16:26:58Z</time></trkpt><trkpt lat="38.79429217313589" lon="16.490872202995885"><ele>199.33333333333331</ele><time>2026-04-11T16:26:59Z</time></trkpt><trkpt lat="38.79443704188539" lon="16.49079005090699"><ele>200.66666666666666</ele><time>2026-04-11T16:27:00Z</time></trkpt><trkpt lat="38.79458631419906" lon="16.49070418971997"><ele>202.0</ele><time>2026-04-11T16:27:01Z</time></trkpt><trkpt lat="38.794738113959426" lon="16.49061907896893"><ele>202.0</ele><time>2026-04-11T16:27:02Z</time></trkpt><trkpt lat="38.79488542209859" lon="16.4905387112996"><ele>202.0</ele><time>2026-04-11T16:27:03Z</time></trkpt><trkpt lat="38.795017380970656" lon="16.490463229467768"><ele>202.0</ele><time>2026-04-11T16:27:04Z</time></trkpt><trkpt lat="38.79514353991916" lon="16.490382720826805"><ele>202.0</ele><time>2026-04-11T16:27:05Z</time></trkpt><trkpt lat="38.79527255218487" lon="16.490274583586032"><ele>200.66666666666666</ele><time>2026-04-11T16:27:06Z</time></trkpt><trkpt lat="38.79540238940007" lon="16.49013888529927"><ele>199.33333333333331</ele><time>2026-04-11T16:27:07Z</time></trkpt><trkpt lat="38.795533066605735" lon="16.48995944735593"><ele>198.0</ele><time>2026-04-11T16:27:08Z</time></trkpt><trkpt lat="38.795660696884426" lon="16.489761303248205"><ele>197.66666666666669</ele><time>2026-04-11T16:27:09Z</time></trkpt><trkpt lat="38.795791969666084" lon="16.489555064170272"><ele>197.33333333333334</ele><time>2026-04-11T16:27:10Z</time></trkpt><trkpt lat="38.79592403166687" lon="16.489349191115036"><ele>197.0</ele><time>2026-04-11T16:27:11Z</time></trkpt><trkpt lat="38.79605765118254" lon="16.48914482902814"><ele>198.33333333333334</ele><time>2026-04-11T16:27:12Z</time></trkpt><trkpt lat="38.796195281713885" lon="16.48893016187096"><ele>199.66666666666669</ele><time>2026-04-11T16:27:13Z</time></trkpt><trkpt lat="38.796333042908024" lon="16.488718685948744"><ele>201.0</ele><time>2026-04-11T16:27:14Z</time></trkpt><trkpt lat="38.79647011878123" lon="16.48850633461644"><ele>201.0</ele><time>2026-04-11T16:27:15Z</time></trkpt><trkpt lat="38.79660304598343" lon="16.488295260652016"><ele>201.0</ele><time>2026-04-11T16:27:16Z</time></trkpt><trkpt lat="38.796738561354374" lon="16.488088255372347"><ele>201.0</ele><time>2026-04-11T16:27:17Z</time></trkpt><trkpt lat="38.796868514201094" lon="16.48788318849021"><ele>202.0</ele><time>2026-04-11T16:27:18Z</time></trkpt><trkpt lat="38.79699867712822" lon="16.487680977742848"><ele>203.0</ele><time>2026-04-11T16:27:19Z</time></trkpt><trkpt lat="38.797128408418175" lon="16.487479353128286"><ele>204.0</ele><time>2026-04-11T16:27:20Z</time></trkpt><trkpt lat="38.797254370412304" lon="16.48728369121542"><ele>203.66666666666669</ele><time>2026-04-11T16:27:21Z</time></trkpt><trkpt lat="38.797380147530426" lon="16.4870885979179"><ele>203.33333333333334</ele><time>2026-04-11T16:27:22Z</time></trkpt><trkpt lat="38.79750946793824" lon="16.48689224848826"><ele>203.0</ele><time>2026-04-11T16:27:23Z</time></trkpt><trkpt lat="38.79764471277243" lon="16.486692032566904"><ele>203.0</ele><time>2026-04-11T16:27:24Z</time></trkpt><trkpt lat="38.797780245932074" lon="16.486485110367543"><ele>203.0</ele><time>2026-04-11T16:27:25Z</time></trkpt><trkpt lat="38.79791234847091" lon="16.486276535655996"><ele>203.0</ele><time>2026-04-11T16:27:26Z</time></trkpt><trkpt lat="38.79804567407341" lon="16.486067662420165"><ele>203.0</ele><time>2026-04-11T16:27:27Z</time></trkpt><trkpt lat="38.798173095086256" lon="16.485866311354354"><ele>203.0</ele><time>2026-04-11T16:27:28Z</time></trkpt><trkpt lat="38.79829928157393" lon="16.485664574420593"><ele>203.0</ele><time>2026-04-11T16:27:29Z</time></trkpt><trkpt lat="38.798421689526045" lon="16.485472719078878"><ele>203.33333333333334</ele><time>2026-04-11T16:27:30Z</time></trkpt><trkpt lat="38.7985437593871" lon="16.485286041153426"><ele>203.66666666666669</ele><time>2026-04-11T16:27:31Z</time></trkpt><trkpt lat="38.79867121783703" lon="16.485117369403937"><ele>204.0</ele><time>2026-04-11T16:27:32Z</time></trkpt><trkpt lat="38.79881767075165" lon="16.48497062839292"><ele>204.0</ele><time>2026-04-11T16:27:33Z</time></trkpt><trkpt lat="38.79898036169343" lon="16.484839863967913"><ele>204.0</ele><time>2026-04-11T16:27:34Z</time></trkpt><trkpt lat="38.799149598631786" lon="16.484710956561567"><ele>204.0</ele><time>2026-04-11T16:27:35Z</time></trkpt><trkpt lat="38.799316504466645" lon="16.484579203124554"><ele>204.33333333333331</ele><time>2026-04-11T16:27:36Z</time></trkpt><trkpt lat="38.79947616217119" lon="16.484442710226165"><ele>204.66666666666666</ele><time>2026-04-11T16:27:37Z</time></trkpt><trkpt lat="38.79963158406097" lon="16.484306195810397"><ele>205.0</ele><time>2026-04-11T16:27:38Z</time></trkpt><trkpt lat="38.799775294138755" lon="16.484148601202403"><ele>205.0</ele><time>2026-04-11T16:27:39Z</time></trkpt><trkpt lat="38.799911560800076" lon="16.48397143834492"><ele>205.0</ele><time>2026-04-11T16:27:40Z</time></trkpt><trkpt lat="38.80003401686344" lon="16.48377389223053"><ele>205.0</ele><time>2026-04-11T16:27:41Z</time></trkpt><trkpt lat="38.8001464838866" lon="16.483586660303505"><ele>205.66666666666666</ele><time>2026-04-11T16:27:42Z</time></trkpt><trkpt lat="38.800236915519655" lon="16.48340097671228"><ele>206.33333333333331</ele><time>2026-04-11T16:27:43Z</time></trkpt><trkpt lat="38.80037117860272" lon="16.483200419291922"><ele>207.0</ele><time>2026-04-11T16:27:44Z</time></trkpt><trkpt lat="38.800473797960116" lon="16.48302295357368"><ele>206.66666666666669</ele><time>2026-04-11T16:27:45Z</time></trkpt><trkpt lat="38.80057446000028" lon="16.482839189805375"><ele>206.33333333333334</ele><time>2026-04-11T16:27:46Z</time></trkpt><trkpt lat="38.800675947940626" lon="16.482649921901313"><ele>206.0</ele><time>2026-04-11T16:27:47Z</time></trkpt><trkpt lat="38.80078181778354" lon="16.482445745650224"><ele>206.0</ele><time>2026-04-11T16:27:48Z</time></trkpt><trkpt lat="38.80088384443437" lon="16.482228662094915"><ele>206.0</ele><time>2026-04-11T16:27:49Z</time></trkpt><trkpt lat="38.80098579644554" lon="16.48200338718647"><ele>206.0</ele><time>2026-04-11T16:27:50Z</time></trkpt><trkpt lat="38.80108401716884" lon="16.481781411654257"><ele>206.33333333333334</ele><time>2026-04-11T16:27:51Z</time></trkpt><trkpt lat="38.801177062050584" lon="16.48157398021939"><ele>206.66666666666669</ele><time>2026-04-11T16:27:52Z</time></trkpt><trkpt lat="38.80126979254949" lon="16.481367369522445"><ele>207.0</ele><time>2026-04-11T16:27:53Z</time></trkpt><trkpt lat="38.80136394654998" lon="16.48116466724769"><ele>207.0</ele><time>2026-04-11T16:27:54Z</time></trkpt><trkpt lat="38.801455619383795" lon="16.480958386854606"><ele>207.0</ele><time>2026-04-11T16:27:55Z</time></trkpt><trkpt lat="38.801544416373034" lon="16.480753158508683"><ele>207.0</ele><time>2026-04-11T16:27:56Z</time></trkpt><trkpt lat="38.80163226398451" lon="16.480555198243355"><ele>207.0</ele><time>2026-04-11T16:27:57Z</time></trkpt><trkpt lat="38.8017205990248" lon="16.48035833900041"><ele>207.0</ele><time>2026-04-11T16:27:58Z</time></trkpt><trkpt lat="38.80181092618362" lon="16.480164728801235"><ele>207.0</ele><time>2026-04-11T16:27:59Z</time></trkpt><trkpt lat="38.8019015611453" lon="16.479968681562788"><ele>207.0</ele><time>2026-04-11T16:28:00Z</time></trkpt><trkpt lat="38.80198960590447" lon="16.479779875697865"><ele>207.0</ele><time>2026-04-11T16:28:01Z</time></trkpt><trkpt lat="38.80206993066704" lon="16.479607458664315"><ele>207.0</ele><time>2026-04-11T16:28:02Z</time></trkpt><trkpt lat="38.80214287386196" lon="16.479442632281998"><ele>206.5</ele><time>2026-04-11T16:28:03Z</time></trkpt><trkpt lat="38.80221396933687" lon="16.479294004597964"><ele>206.0</ele><time>2026-04-11T16:28:04Z</time></trkpt><trkpt lat="38.80228105026028" lon="16.479154868796286"><ele>205.5</ele><time>2026-04-11T16:28:05Z</time></trkpt><trkpt lat="38.80234176157122" lon="16.479029350360427"><ele>205.0</ele><time>2026-04-11T16:28:06Z</time></trkpt><trkpt lat="38.802404856194286" lon="16.47889485584078"><ele>205.0</ele><time>2026-04-11T16:28:07Z</time></trkpt><trkpt lat="38.80247194264432" lon="16.478737902290767"><ele>205.0</ele><time>2026-04-11T16:28:08Z</time></trkpt><trkpt lat="38.80255604016722" lon="16.478570885405375"><ele>205.0</ele><time>2026-04-11T16:28:09Z</time></trkpt><trkpt lat="38.80263449672949" lon="16.478416543535843"><ele>205.0</ele><time>2026-04-11T16:28:10Z</time></trkpt><trkpt lat="38.802732783663636" lon="16.478262928278593"><ele>205.33333333333331</ele><time>2026-04-11T16:28:11Z</time></trkpt><trkpt lat="38.802848668172366" lon="16.478111898837547"><ele>205.66666666666669</ele><time>2026-04-11T16:28:12Z</time></trkpt><trkpt lat="38.80297321034387" lon="16.4779709545425"><ele>206.0</ele><time>2026-04-11T16:28:13Z</time></trkpt><trkpt lat="38.80308530181924" lon="16.477844290744773"><ele>206.0</ele><time>2026-04-11T16:28:14Z</time></trkpt><trkpt lat="38.803190754351206" lon="16.47772057063417"><ele>206.0</ele><time>2026-04-11T16:28:15Z</time></trkpt><trkpt lat="38.803286849960124" lon="16.477602188721356"><ele>206.0</ele><time>2026-04-11T16:28:16Z</time></trkpt><trkpt lat="38.803387976946325" lon="16.477472094827903"><ele>206.0</ele><time>2026-04-11T16:28:17Z</time></trkpt><trkpt lat="38.80351042987504" lon="16.47733013461521"><ele>206.66666666666669</ele><time>2026-04-11T16:28:18Z</time></trkpt><trkpt lat="38.80362466058168" lon="16.477197635472308"><ele>207.33333333333331</ele><time>2026-04-11T16:28:19Z</time></trkpt><trkpt lat="38.80373723494214" lon="16.477061688587757"><ele>208.0</ele><time>2026-04-11T16:28:20Z</time></trkpt><trkpt lat="38.80384855643646" lon="16.476926909633505"><ele>208.0</ele><time>2026-04-11T16:28:21Z</time></trkpt><trkpt lat="38.80396004858717" lon="16.476796072832"><ele>208.0</ele><time>2026-04-11T16:28:22Z</time></trkpt><trkpt lat="38.80407061746277" lon="16.476669906959625"><ele>208.0</ele><time>2026-04-11T16:28:23Z</time></trkpt><trkpt lat="38.804175284091606" lon="16.476546242988896"><ele>208.0</ele><time>2026-04-11T16:28:24Z</time></trkpt><trkpt lat="38.80428057131816" lon="16.47642161094341"><ele>208.25</ele><time>2026-04-11T16:28:25Z</time></trkpt><trkpt lat="38.804383932515805" lon="16.47629996212143"><ele>208.5</ele><time>2026-04-11T16:28:26Z</time></trkpt><trkpt lat="38.80447429389103" lon="16.47619399854644"><ele>208.75</ele><time>2026-04-11T16:28:27Z</time></trkpt><trkpt lat="38.80456578904756" lon="16.476085370408146"><ele>209.0</ele><time>2026-04-11T16:28:28Z</time></trkpt><trkpt lat="38.80464885366077" lon="16.47598446081069"><ele>209.0</ele><time>2026-04-11T16:28:29Z</time></trkpt><trkpt lat="38.80472529650777" lon="16.475895959060082"><ele>209.0</ele><time>2026-04-11T16:28:30Z</time></trkpt><trkpt lat="38.80479812491501" lon="16.475816167805522"><ele>209.0</ele><time>2026-04-11T16:28:31Z</time></trkpt><trkpt lat="38.80486958257732" lon="16.475728370537045"><ele>209.0</ele><time>2026-04-11T16:28:32Z</time></trkpt><trkpt lat="38.804935726457146" lon="16.475648369468992"><ele>209.0</ele><time>2026-04-11T16:28:33Z</time></trkpt><trkpt lat="38.80499712604172" lon="16.475589764222924"><ele>209.0</ele><time>2026-04-11T16:28:34Z</time></trkpt><trkpt lat="38.80507163147621" lon="16.47552363551446"><ele>209.0</ele><time>2026-04-11T16:28:36Z</time></trkpt><trkpt lat="38.805126244860176" lon="16.475474248108753"><ele>209.0</ele><time>2026-04-11T16:28:38Z</time></trkpt><trkpt lat="38.805164033869616" lon="16.47540397177516"><ele>209.0</ele><time>2026-04-11T16:30:27Z</time></trkpt><trkpt lat="38.805274276017144" lon="16.4753191266694"><ele>209.0</ele><time>2026-04-11T16:30:28Z</time></trkpt><trkpt lat="38.80539809170366" lon="16.475238859872064"><ele>209.0</ele><time>2026-04-11T16:30:29Z</time></trkpt><trkpt lat="38.80510406234555" lon="16.475459489666918"><ele>209.0</ele><time>2026-04-11T16:30:30Z</time></trkpt><trkpt lat="38.805163871598374" lon="16.47540265595183"><ele>209.0</ele><time>2026-04-11T16:30:34Z</time></trkpt><trkpt lat="38.805113296222295" lon="16.47545371732227"><ele>209.0</ele><time>2026-04-11T16:32:34Z</time></trkpt><trkpt lat="38.80502872254047" lon="16.475460967692694"><ele>209.0</ele><time>2026-04-11T16:35:10Z</time></trkpt><trkpt lat="38.80495469047187" lon="16.47556603430866"><ele>209.0</ele><time>2026-04-11T16:35:12Z</time></trkpt><trkpt lat="38.80486654190119" lon="16.475678137528238"><ele>209.0</ele><time>2026-04-11T16:35:14Z</time></trkpt><trkpt lat="38.80480910460608" lon="16.475741378764972"><ele>209.0</ele><time>2026-04-11T16:35:15Z</time></trkpt><trkpt lat="38.8047589451892" lon="16.47580136687021"><ele>209.0</ele><time>2026-04-11T16:35:16Z</time></trkpt><trkpt lat="38.80467477231813" lon="16.47589904268755"><ele>209.0</ele><time>2026-04-11T16:35:18Z</time></trkpt><trkpt lat="38.804623344243886" lon="16.475956789125227"><ele>209.0</ele><time>2026-04-11T16:35:19Z</time></trkpt><trkpt lat="38.80456127608179" lon="16.47603116745684"><ele>209.0</ele><time>2026-04-11T16:35:20Z</time></trkpt><trkpt lat="38.804480393892106" lon="16.476117420578596"><ele>209.0</ele><time>2026-04-11T16:35:21Z</time></trkpt><trkpt lat="38.80439823199136" lon="16.476216813056713"><ele>208.75</ele><time>2026-04-11T16:35:22Z</time></trkpt><trkpt lat="38.80430958858068" lon="16.476324954022584"><ele>208.5</ele><time>2026-04-11T16:35:23Z</time></trkpt><trkpt lat="38.804215868646544" lon="16.4764393292021"><ele>208.25</ele><time>2026-04-11T16:35:24Z</time></trkpt><trkpt lat="38.80411655404535" lon="16.476555743138448"><ele>208.0</ele><time>2026-04-11T16:35:25Z</time></trkpt><trkpt lat="38.804012987465676" lon="16.47667166455071"><ele>208.0</ele><time>2026-04-11T16:35:26Z</time></trkpt><trkpt lat="38.803909239481875" lon="16.47679636329985"><ele>208.0</ele><time>2026-04-11T16:35:27Z</time></trkpt><trkpt lat="38.80380536300498" lon="16.47691978399794"><ele>208.0</ele><time>2026-04-11T16:35:28Z</time></trkpt><trkpt lat="38.803701151135506" lon="16.477045629493457"><ele>208.0</ele><time>2026-04-11T16:35:29Z</time></trkpt><trkpt lat="38.803597747469084" lon="16.477174574341486"><ele>207.33333333333331</ele><time>2026-04-11T16:35:30Z</time></trkpt><trkpt lat="38.80348770760767" lon="16.477304114059294"><ele>206.66666666666669</ele><time>2026-04-11T16:35:31Z</time></trkpt><trkpt lat="38.803376329858324" lon="16.477433757942922"><ele>206.0</ele><time>2026-04-11T16:35:32Z</time></trkpt><trkpt lat="38.80326172724354" lon="16.477569446265125"><ele>206.0</ele><time>2026-04-11T16:35:33Z</time></trkpt><trkpt lat="38.80314593863587" lon="16.477706955039082"><ele>206.0</ele><time>2026-04-11T16:35:34Z</time></trkpt><trkpt lat="38.803025296763806" lon="16.477851629853113"><ele>206.0</ele><time>2026-04-11T16:35:35Z</time></trkpt><trkpt lat="38.80290692941549" lon="16.478001233129138"><ele>206.33333333333334</ele><time>2026-04-11T16:35:36Z</time></trkpt><trkpt lat="38.802787002465024" lon="16.47815288118504"><ele>206.66666666666669</ele><time>2026-04-11T16:35:37Z</time></trkpt><trkpt lat="38.80266868033162" lon="16.478314372766302"><ele>207.0</ele><time>2026-04-11T16:35:38Z</time></trkpt><trkpt lat="38.8025633608493" lon="16.47849501574809"><ele>206.33333333333331</ele><time>2026-04-11T16:35:39Z</time></trkpt><trkpt lat="38.80246574721987" lon="16.47868106221026"><ele>205.66666666666666</ele><time>2026-04-11T16:35:40Z</time></trkpt><trkpt lat="38.80237308697701" lon="16.478871852462557"><ele>205.0</ele><time>2026-04-11T16:35:41Z</time></trkpt><trkpt lat="38.80228054062848" lon="16.479071302822668"><ele>205.0</ele><time>2026-04-11T16:35:42Z</time></trkpt><trkpt lat="38.802191175305005" lon="16.479273206990985"><ele>205.0</ele><time>2026-04-11T16:35:43Z</time></trkpt><trkpt lat="38.80210060539624" lon="16.479477684096146"><ele>205.0</ele><time>2026-04-11T16:35:44Z</time></trkpt><trkpt lat="38.802006887359454" lon="16.47968223711057"><ele>205.33333333333331</ele><time>2026-04-11T16:35:45Z</time></trkpt><trkpt lat="38.801911972105756" lon="16.47989178022674"><ele>205.66666666666669</ele><time>2026-04-11T16:35:46Z</time></trkpt><trkpt lat="38.801817528780184" lon="16.480100963450038"><ele>206.0</ele><time>2026-04-11T16:35:47Z</time></trkpt><trkpt lat="38.80172061277668" lon="16.480311216995222"><ele>206.33333333333334</ele><time>2026-04-11T16:35:48Z</time></trkpt><trkpt lat="38.80162150964544" lon="16.48052309310785"><ele>206.66666666666669</ele><time>2026-04-11T16:35:49Z</time></trkpt><trkpt lat="38.80152576777287" lon="16.48073740419671"><ele>207.0</ele><time>2026-04-11T16:35:50Z</time></trkpt><trkpt lat="38.801429684553085" lon="16.480956417326738"><ele>207.0</ele><time>2026-04-11T16:35:51Z</time></trkpt><trkpt lat="38.80132971226347" lon="16.481172490990474"><ele>207.0</ele><time>2026-04-11T16:35:52Z</time></trkpt><trkpt lat="38.801234421090776" lon="16.481392213120778"><ele>207.0</ele><time>2026-04-11T16:35:53Z</time></trkpt><trkpt lat="38.801136560918884" lon="16.48160989571993"><ele>207.0</ele><time>2026-04-11T16:35:54Z</time></trkpt><trkpt lat="38.801037116108525" lon="16.481828966167306"><ele>207.0</ele><time>2026-04-11T16:35:55Z</time></trkpt><trkpt lat="38.80093659216981" lon="16.4820489244941"><ele>207.0</ele><time>2026-04-11T16:35:56Z</time></trkpt><trkpt lat="38.80083748447816" lon="16.482268614888547"><ele>206.66666666666669</ele><time>2026-04-11T16:35:57Z</time></trkpt><trkpt lat="38.80073461229385" lon="16.48248338912233"><ele>206.33333333333334</ele><time>2026-04-11T16:35:58Z</time></trkpt><trkpt lat="38.80062842070442" lon="16.48268991985635"><ele>206.0</ele><time>2026-04-11T16:35:59Z</time></trkpt><trkpt lat="38.80052051782884" lon="16.482894030653668"><ele>206.33333333333334</ele><time>2026-04-11T16:36:00Z</time></trkpt><trkpt lat="38.8004068581439" lon="16.4830916740574"><ele>206.66666666666669</ele><time>2026-04-11T16:36:01Z</time></trkpt><trkpt lat="38.80029065724258" lon="16.483288594118388"><ele>207.0</ele><time>2026-04-11T16:36:02Z</time></trkpt><trkpt lat="38.800175694798206" lon="16.48348159493373"><ele>206.33333333333331</ele><time>2026-04-11T16:36:03Z</time></trkpt><trkpt lat="38.800067881858254" lon="16.48366865441977"><ele>205.66666666666666</ele><time>2026-04-11T16:36:04Z</time></trkpt><trkpt lat="38.79996554604312" lon="16.48384069490115"><ele>205.0</ele><time>2026-04-11T16:36:05Z</time></trkpt><trkpt lat="38.79986255022879" lon="16.484001179461288"><ele>205.0</ele><time>2026-04-11T16:36:06Z</time></trkpt><trkpt lat="38.79975921742668" lon="16.48414446859531"><ele>205.0</ele><time>2026-04-11T16:36:07Z</time></trkpt><trkpt lat="38.799648109339394" lon="16.484262796365734"><ele>205.0</ele><time>2026-04-11T16:36:08Z</time></trkpt><trkpt lat="38.79952905818812" lon="16.48435776860911"><ele>205.0</ele><time>2026-04-11T16:36:09Z</time></trkpt><trkpt lat="38.79940466465577" lon="16.484451555552255"><ele>204.66666666666666</ele><time>2026-04-11T16:36:10Z</time></trkpt><trkpt lat="38.799266825551996" lon="16.484562742261403"><ele>204.33333333333331</ele><time>2026-04-11T16:36:11Z</time></trkpt><trkpt lat="38.7991312598768" lon="16.484677678733103"><ele>204.0</ele><time>2026-04-11T16:36:12Z</time></trkpt><trkpt lat="38.79901040521275" lon="16.484775822532253"><ele>204.0</ele><time>2026-04-11T16:36:13Z</time></trkpt><trkpt lat="38.798911252347665" lon="16.484860340203184"><ele>204.0</ele><time>2026-04-11T16:36:14Z</time></trkpt><trkpt lat="38.79883914961331" lon="16.484928604626102"><ele>204.0</ele><time>2026-04-11T16:36:15Z</time></trkpt><trkpt lat="38.79878329765087" lon="16.484975201313052"><ele>204.0</ele><time>2026-04-11T16:36:16Z</time></trkpt><trkpt lat="38.79872478734046" lon="16.485044038001085"><ele>204.0</ele><time>2026-04-11T16:36:20Z</time></trkpt><trkpt lat="38.79879894610488" lon="16.484956392833073"><ele>204.0</ele><time>2026-04-11T16:37:35Z</time></trkpt><trkpt lat="38.7988252739316" lon="16.48517404260788"><ele>204.0</ele><time>2026-04-11T16:37:36Z</time></trkpt><trkpt lat="38.79886973166484" lon="16.485241329379782"><ele>204.0</ele><time>2026-04-11T16:37:37Z</time></trkpt><trkpt lat="38.79926428019135" lon="16.48464099116608"><ele>204.33333333333331</ele><time>2026-04-11T16:37:38Z</time></trkpt><trkpt lat="38.79942768207242" lon="16.484500656354854"><ele>204.66666666666666</ele><time>2026-04-11T16:37:39Z</time></trkpt><trkpt lat="38.79959470967246" lon="16.48435444232336"><ele>205.0</ele><time>2026-04-11T16:37:40Z</time></trkpt><trkpt lat="38.79974095404853" lon="16.484226287674087"><ele>205.0</ele><time>2026-04-11T16:37:41Z</time></trkpt><trkpt lat="38.799870676459705" lon="16.484087396514713"><ele>205.0</ele><time>2026-04-11T16:37:42Z</time></trkpt><trkpt lat="38.799983426000175" lon="16.48391548827835"><ele>205.0</ele><time>2026-04-11T16:37:43Z</time></trkpt><trkpt lat="38.800098831937255" lon="16.483715608404665"><ele>205.66666666666666</ele><time>2026-04-11T16:37:44Z</time></trkpt><trkpt lat="38.80022176925078" lon="16.483501182464448"><ele>206.33333333333331</ele><time>2026-04-11T16:37:45Z</time></trkpt><trkpt lat="38.800348383485385" lon="16.483281392463795"><ele>207.0</ele><time>2026-04-11T16:37:46Z</time></trkpt><trkpt lat="38.80045944448876" lon="16.483088630030018"><ele>206.66666666666669</ele><time>2026-04-11T16:37:47Z</time></trkpt><trkpt lat="38.80056036760881" lon="16.482904723076967"><ele>206.33333333333334</ele><time>2026-04-11T16:37:48Z</time></trkpt><trkpt lat="38.80065892613833" lon="16.482721640997084"><ele>206.0</ele><time>2026-04-11T16:37:49Z</time></trkpt><trkpt lat="38.800756742139455" lon="16.482524031601645"><ele>206.0</ele><time>2026-04-11T16:37:50Z</time></trkpt><trkpt lat="38.80085574577634" lon="16.482315396127873"><ele>206.0</ele><time>2026-04-11T16:37:51Z</time></trkpt><trkpt lat="38.80095328917275" lon="16.48209649212082"><ele>206.0</ele><time>2026-04-11T16:37:52Z</time></trkpt><trkpt lat="38.801049122973616" lon="16.481877278441804"><ele>206.33333333333334</ele><time>2026-04-11T16:37:53Z</time></trkpt><trkpt lat="38.80113950348533" lon="16.48167330254121"><ele>206.66666666666669</ele><time>2026-04-11T16:37:54Z</time></trkpt><trkpt lat="38.8012361796629" lon="16.481469108746982"><ele>207.0</ele><time>2026-04-11T16:37:55Z</time></trkpt><trkpt lat="38.801332166167725" lon="16.48125985562065"><ele>207.0</ele><time>2026-04-11T16:37:56Z</time></trkpt><trkpt lat="38.80142468998288" lon="16.481046806315355"><ele>207.0</ele><time>2026-04-11T16:37:57Z</time></trkpt><trkpt lat="38.801517441041895" lon="16.48080991334344"><ele>207.0</ele><time>2026-04-11T16:37:58Z</time></trkpt><trkpt lat="38.801614427740944" lon="16.480594084283958"><ele>207.0</ele><time>2026-04-11T16:37:59Z</time></trkpt><trkpt lat="38.80171364288353" lon="16.48037708964587"><ele>207.0</ele><time>2026-04-11T16:38:00Z</time></trkpt><trkpt lat="38.801820008531834" lon="16.4801483851931"><ele>207.0</ele><time>2026-04-11T16:38:01Z</time></trkpt><trkpt lat="38.80191775620541" lon="16.479930927053687"><ele>207.0</ele><time>2026-04-11T16:38:02Z</time></trkpt><trkpt lat="38.802009429010056" lon="16.479729945184054"><ele>207.0</ele><time>2026-04-11T16:38:03Z</time></trkpt><trkpt lat="38.80210466267736" lon="16.479526211262556"><ele>207.0</ele><time>2026-04-11T16:38:04Z</time></trkpt><trkpt lat="38.80219915646084" lon="16.47931650279625"><ele>206.33333333333331</ele><time>2026-04-11T16:38:05Z</time></trkpt><trkpt lat="38.80229086945961" lon="16.479102242008963"><ele>205.66666666666666</ele><time>2026-04-11T16:38:06Z</time></trkpt><trkpt lat="38.80237777624447" lon="16.478905935357012"><ele>205.0</ele><time>2026-04-11T16:38:07Z</time></trkpt><trkpt lat="38.802473791809895" lon="16.47870211451912"><ele>205.0</ele><time>2026-04-11T16:38:08Z</time></trkpt><trkpt lat="38.802576140669125" lon="16.478508830560486"><ele>205.0</ele><time>2026-04-11T16:38:09Z</time></trkpt><trkpt lat="38.80268842075777" lon="16.478335041127416"><ele>205.0</ele><time>2026-04-11T16:38:10Z</time></trkpt><trkpt lat="38.802812533015924" lon="16.478161314457104"><ele>205.33333333333331</ele><time>2026-04-11T16:38:11Z</time></trkpt><trkpt lat="38.802945332692985" lon="16.477991397689525"><ele>205.66666666666669</ele><time>2026-04-11T16:38:12Z</time></trkpt><trkpt lat="38.803084587433396" lon="16.477829079489076"><ele>206.0</ele><time>2026-04-11T16:38:13Z</time></trkpt><trkpt lat="38.803221896810776" lon="16.477666550224114"><ele>206.0</ele><time>2026-04-11T16:38:14Z</time></trkpt><trkpt lat="38.80335416723244" lon="16.477507043124298"><ele>206.0</ele><time>2026-04-11T16:38:15Z</time></trkpt><trkpt lat="38.80348480440687" lon="16.477349382358053"><ele>206.0</ele><time>2026-04-11T16:38:16Z</time></trkpt><trkpt lat="38.80361427067116" lon="16.477193197194282"><ele>206.66666666666669</ele><time>2026-04-11T16:38:17Z</time></trkpt><trkpt lat="38.80374660361332" lon="16.477035680088992"><ele>207.33333333333331</ele><time>2026-04-11T16:38:18Z</time></trkpt><trkpt lat="38.80387922793381" lon="16.47688261012895"><ele>208.0</ele><time>2026-04-11T16:38:19Z</time></trkpt><trkpt lat="38.80401153346578" lon="16.476727276117543"><ele>208.0</ele><time>2026-04-11T16:38:20Z</time></trkpt><trkpt lat="38.80414307316352" lon="16.476572977248534"><ele>208.0</ele><time>2026-04-11T16:38:21Z</time></trkpt><trkpt lat="38.804273875912514" lon="16.476418106004854"><ele>208.0</ele><time>2026-04-11T16:38:22Z</time></trkpt><trkpt lat="38.80440526014069" lon="16.476261102133165"><ele>208.33333333333331</ele><time>2026-04-11T16:38:23Z</time></trkpt><trkpt lat="38.80453877294818" lon="16.47610596717398"><ele>208.66666666666669</ele><time>2026-04-11T16:38:24Z</time></trkpt><trkpt lat="38.80467066101932" lon="16.475951709035908"><ele>209.0</ele><time>2026-04-11T16:38:25Z</time></trkpt><trkpt lat="38.804781315054605" lon="16.475813554146885"><ele>209.0</ele><time>2026-04-11T16:38:26Z</time></trkpt><trkpt lat="38.80489328170585" lon="16.475707764565456"><ele>209.0</ele><time>2026-04-11T16:38:27Z</time></trkpt><trkpt lat="38.804984817644225" lon="16.47557302916709"><ele>209.0</ele><time>2026-04-11T16:38:28Z</time></trkpt><trkpt lat="38.805098087397646" lon="16.47544718817294"><ele>209.0</ele><time>2026-04-11T16:38:29Z</time></trkpt><trkpt lat="38.805216505897484" lon="16.475313978114023"><ele>210.0</ele><time>2026-04-11T16:38:30Z</time></trkpt><trkpt lat="38.80533792401722" lon="16.47516667577474"><ele>211.0</ele><time>2026-04-11T16:38:31Z</time></trkpt><trkpt lat="38.805461679243564" lon="16.475019856939436"><ele>212.0</ele><time>2026-04-11T16:38:32Z</time></trkpt><trkpt lat="38.80558920753846" lon="16.4748752124758"><ele>212.0</ele><time>2026-04-11T16:38:33Z</time></trkpt><trkpt lat="38.80571255752883" lon="16.474736334787544"><ele>212.0</ele><time>2026-04-11T16:38:34Z</time></trkpt><trkpt lat="38.805835593100106" lon="16.474592905136706"><ele>212.0</ele><time>2026-04-11T16:38:35Z</time></trkpt><trkpt lat="38.805964064393976" lon="16.47444285926629"><ele>212.33333333333334</ele><time>2026-04-11T16:38:36Z</time></trkpt><trkpt lat="38.806096050678825" lon="16.47428439496471"><ele>212.66666666666669</ele><time>2026-04-11T16:38:37Z</time></trkpt><trkpt lat="38.806230113850994" lon="16.474122708111373"><ele>213.0</ele><time>2026-04-11T16:38:37.999Z</time></trkpt><trkpt lat="38.806364084574376" lon="16.473957477099066"><ele>213.0</ele><time>2026-04-11T16:38:38.999Z</time></trkpt><trkpt lat="38.80649754265525" lon="16.47379455801538"><ele>213.0</ele><time>2026-04-11T16:38:39.999Z</time></trkpt><trkpt lat="38.806631336945124" lon="16.473634281067554"><ele>213.0</ele><time>2026-04-11T16:38:40.999Z</time></trkpt><trkpt lat="38.80676594167131" lon="16.47347220489841"><ele>214.0</ele><time>2026-04-11T16:38:41.999Z</time></trkpt><trkpt lat="38.80690027386977" lon="16.473312576276765"><ele>215.0</ele><time>2026-04-11T16:38:42.999Z</time></trkpt><trkpt lat="38.80703959297058" lon="16.473152276450694"><ele>216.0</ele><time>2026-04-11T16:38:43.999Z</time></trkpt><trkpt lat="38.80717907222579" lon="16.47299457745632"><ele>216.66666666666669</ele><time>2026-04-11T16:38:44.999Z</time></trkpt><trkpt lat="38.80731876643" lon="16.472835306440775"><ele>217.33333333333334</ele><time>2026-04-11T16:38:45.999Z</time></trkpt><trkpt lat="38.807457333659265" lon="16.472673635066478"><ele>218.0</ele><time>2026-04-11T16:38:46.999Z</time></trkpt><trkpt lat="38.80759571682829" lon="16.472509789635225"><ele>218.66666666666669</ele><time>2026-04-11T16:38:47.999Z</time></trkpt><trkpt lat="38.807732781494295" lon="16.47234570281736"><ele>219.33333333333331</ele><time>2026-04-11T16:38:48.999Z</time></trkpt><trkpt lat="38.80786892595704" lon="16.47218168067977"><ele>220.0</ele><time>2026-04-11T16:38:49.999Z</time></trkpt><trkpt lat="38.80800276073336" lon="16.472020315561135"><ele>220.0</ele><time>2026-04-11T16:38:50.999Z</time></trkpt><trkpt lat="38.80813669817456" lon="16.471861890352283"><ele>220.0</ele><time>2026-04-11T16:38:52Z</time></trkpt><trkpt lat="38.808269616742706" lon="16.47170575039741"><ele>220.0</ele><time>2026-04-11T16:38:53Z</time></trkpt><trkpt lat="38.80840342400935" lon="16.471548164997593"><ele>220.33333333333331</ele><time>2026-04-11T16:38:54Z</time></trkpt><trkpt lat="38.80853470736611" lon="16.471394723652597"><ele>220.66666666666669</ele><time>2026-04-11T16:38:55Z</time></trkpt><trkpt lat="38.8086667845044" lon="16.47123929771309"><ele>221.0</ele><time>2026-04-11T16:38:56Z</time></trkpt><trkpt lat="38.80879693705958" lon="16.47108220488312"><ele>221.0</ele><time>2026-04-11T16:38:57Z</time></trkpt><trkpt lat="38.80892805332699" lon="16.470924657952168"><ele>221.0</ele><time>2026-04-11T16:38:58Z</time></trkpt><trkpt lat="38.809059698286426" lon="16.470766976304276"><ele>221.0</ele><time>2026-04-11T16:38:59Z</time></trkpt><trkpt lat="38.80919433459235" lon="16.470609241172642"><ele>222.0</ele><time>2026-04-11T16:39:00Z</time></trkpt><trkpt lat="38.80932961109193" lon="16.47045403507619"><ele>223.0</ele><time>2026-04-11T16:39:01Z</time></trkpt><trkpt lat="38.80946682310699" lon="16.470296440757565"><ele>224.0</ele><time>2026-04-11T16:39:02Z</time></trkpt><trkpt lat="38.80960059522802" lon="16.47014012938655"><ele>224.33333333333334</ele><time>2026-04-11T16:39:03Z</time></trkpt><trkpt lat="38.809733489188844" lon="16.469979796774492"><ele>224.66666666666669</ele><time>2026-04-11T16:39:04Z</time></trkpt><trkpt lat="38.80986555627969" lon="16.469823412483123"><ele>225.0</ele><time>2026-04-11T16:39:05Z</time></trkpt><trkpt lat="38.80998696405207" lon="16.46967753285508"><ele>225.0</ele><time>2026-04-11T16:39:06Z</time></trkpt><trkpt lat="38.810112268800324" lon="16.46952842080694"><ele>225.0</ele><time>2026-04-11T16:39:07Z</time></trkpt><trkpt lat="38.81024336536974" lon="16.469384782040734"><ele>225.0</ele><time>2026-04-11T16:39:08Z</time></trkpt><trkpt lat="38.81038114444502" lon="16.46924890724006"><ele>227.0</ele><time>2026-04-11T16:39:09Z</time></trkpt><trkpt lat="38.81052804716465" lon="16.469119233916935"><ele>229.0</ele><time>2026-04-11T16:39:10Z</time></trkpt><trkpt lat="38.81067845936633" lon="16.4689987187426"><ele>231.0</ele><time>2026-04-11T16:39:11Z</time></trkpt><trkpt lat="38.81083466830289" lon="16.468881615827957"><ele>230.33333333333331</ele><time>2026-04-11T16:39:12Z</time></trkpt><trkpt lat="38.81099635578822" lon="16.468774294028314"><ele>229.66666666666666</ele><time>2026-04-11T16:39:13Z</time></trkpt><trkpt lat="38.81116295758495" lon="16.468674097789652"><ele>229.0</ele><time>2026-04-11T16:39:14Z</time></trkpt><trkpt lat="38.811333419309456" lon="16.468580218776825"><ele>229.0</ele><time>2026-04-11T16:39:15Z</time></trkpt><trkpt lat="38.81150442505501" lon="16.468488350084616"><ele>229.0</ele><time>2026-04-11T16:39:16Z</time></trkpt><trkpt lat="38.81168125688427" lon="16.468415867479724"><ele>229.0</ele><time>2026-04-11T16:39:17Z</time></trkpt><trkpt lat="38.81185317387681" lon="16.468324033041146"><ele>229.33333333333331</ele><time>2026-04-11T16:39:18Z</time></trkpt><trkpt lat="38.81202127999089" lon="16.46821440761703"><ele>229.66666666666669</ele><time>2026-04-11T16:39:19Z</time></trkpt><trkpt lat="38.81219459138819" lon="16.46812528537231"><ele>230.0</ele><time>2026-04-11T16:39:20Z</time></trkpt><trkpt lat="38.812361254022385" lon="16.468036341757124"><ele>230.0</ele><time>2026-04-11T16:39:21Z</time></trkpt><trkpt lat="38.81252429993099" lon="16.467948669314893"><ele>230.0</ele><time>2026-04-11T16:39:22Z</time></trkpt><trkpt lat="38.812685010273974" lon="16.46786183069216"><ele>230.0</ele><time>2026-04-11T16:39:23Z</time></trkpt><trkpt lat="38.81284712067981" lon="16.467771300749675"><ele>230.0</ele><time>2026-04-11T16:39:24Z</time></trkpt><trkpt lat="38.81301298753675" lon="16.467684977514317"><ele>230.0</ele><time>2026-04-11T16:39:25Z</time></trkpt><trkpt lat="38.81317466546994" lon="16.46759610251821"><ele>230.0</ele><time>2026-04-11T16:39:26Z</time></trkpt><trkpt lat="38.81334120314518" lon="16.46751961691751"><ele>231.33333333333334</ele><time>2026-04-11T16:39:27Z</time></trkpt><trkpt lat="38.81350692017503" lon="16.467446740621757"><ele>232.66666666666669</ele><time>2026-04-11T16:39:28Z</time></trkpt><trkpt lat="38.81367384480067" lon="16.467388218504755"><ele>234.0</ele><time>2026-04-11T16:39:29Z</time></trkpt><trkpt lat="38.81385026323947" lon="16.467334920709614"><ele>234.0</ele><time>2026-04-11T16:39:30Z</time></trkpt><trkpt lat="38.8140280670787" lon="16.467281220556647"><ele>234.0</ele><time>2026-04-11T16:39:31Z</time></trkpt><trkpt lat="38.814208721520046" lon="16.467229707306746"><ele>234.0</ele><time>2026-04-11T16:39:32Z</time></trkpt><trkpt lat="38.81438890313308" lon="16.467174481854244"><ele>233.33333333333331</ele><time>2026-04-11T16:39:33Z</time></trkpt><trkpt lat="38.814575882942364" lon="16.46714001293048"><ele>232.66666666666666</ele><time>2026-04-11T16:39:34Z</time></trkpt><trkpt lat="38.814762146594646" lon="16.467085156524703"><ele>232.0</ele><time>2026-04-11T16:39:35Z</time></trkpt><trkpt lat="38.81494526880123" lon="16.467009808717872"><ele>232.0</ele><time>2026-04-11T16:39:36Z</time></trkpt><trkpt lat="38.81513220433157" lon="16.466954560363487"><ele>232.0</ele><time>2026-04-11T16:39:37Z</time></trkpt><trkpt lat="38.815322346786175" lon="16.466919450626953"><ele>232.0</ele><time>2026-04-11T16:39:38Z</time></trkpt><trkpt lat="38.8155048712327" lon="16.466844611096807"><ele>234.66666666666666</ele><time>2026-04-11T16:39:39Z</time></trkpt><trkpt lat="38.81569145855272" lon="16.466797410382966"><ele>237.33333333333331</ele><time>2026-04-11T16:39:40Z</time></trkpt><trkpt lat="38.81587459942829" lon="16.466745650230262"><ele>240.0</ele><time>2026-04-11T16:39:41Z</time></trkpt><trkpt lat="38.81605279993829" lon="16.466686928485082"><ele>241.0</ele><time>2026-04-11T16:39:42Z</time></trkpt><trkpt lat="38.81622944459307" lon="16.46662288521396"><ele>242.0</ele><time>2026-04-11T16:39:43Z</time></trkpt><trkpt lat="38.81640561418408" lon="16.46654646266406"><ele>243.0</ele><time>2026-04-11T16:39:44Z</time></trkpt><trkpt lat="38.81657586244954" lon="16.46645273847108"><ele>243.0</ele><time>2026-04-11T16:39:45Z</time></trkpt><trkpt lat="38.81674181691841" lon="16.466344523807194"><ele>243.0</ele><time>2026-04-11T16:39:46Z</time></trkpt><trkpt lat="38.8169011570736" lon="16.466231511770005"><ele>243.0</ele><time>2026-04-11T16:39:47Z</time></trkpt><trkpt lat="38.81706428960714" lon="16.46612510389956"><ele>245.66666666666669</ele><time>2026-04-11T16:39:48Z</time></trkpt><trkpt lat="38.817227110313105" lon="16.46601858126293"><ele>248.33333333333334</ele><time>2026-04-11T16:39:49Z</time></trkpt><trkpt lat="38.81739297446653" lon="16.465909361460454"><ele>251.0</ele><time>2026-04-11T16:39:50Z</time></trkpt><trkpt lat="38.817555120198406" lon="16.465798251877548"><ele>255.0</ele><time>2026-04-11T16:39:51Z</time></trkpt><trkpt lat="38.817717662087794" lon="16.465683332891402"><ele>259.0</ele><time>2026-04-11T16:39:52Z</time></trkpt><trkpt lat="38.81788742142462" lon="16.465571676009777"><ele>263.0</ele><time>2026-04-11T16:39:53Z</time></trkpt><trkpt lat="38.81805590673253" lon="16.465460675818598"><ele>261.6666666666667</ele><time>2026-04-11T16:39:54Z</time></trkpt><trkpt lat="38.81822532685267" lon="16.46534753777692"><ele>260.3333333333333</ele><time>2026-04-11T16:39:55Z</time></trkpt><trkpt lat="38.81839419436863" lon="16.465231510197707"><ele>259.0</ele><time>2026-04-11T16:39:56Z</time></trkpt><trkpt lat="38.81855563849369" lon="16.465108414212935"><ele>265.0</ele><time>2026-04-11T16:39:57Z</time></trkpt><trkpt lat="38.818706751894915" lon="16.464970572361217"><ele>271.0</ele><time>2026-04-11T16:39:58Z</time></trkpt><trkpt lat="38.81883613744474" lon="16.46481998017893"><ele>277.0</ele><time>2026-04-11T16:39:59Z</time></trkpt><trkpt lat="38.818936195763804" lon="16.46466431555166"><ele>275.6</ele><time>2026-04-11T16:40:00Z</time></trkpt><trkpt lat="38.81901381641585" lon="16.464530104345293"><ele>274.2</ele><time>2026-04-11T16:40:01Z</time></trkpt><trkpt lat="38.819070683121716" lon="16.46442571005381"><ele>272.8</ele><time>2026-04-11T16:40:02Z</time></trkpt><trkpt lat="38.81912254539264" lon="16.464349553135815"><ele>271.4</ele><time>2026-04-11T16:40:03Z</time></trkpt><trkpt lat="38.819206583205414" lon="16.464312244561082"><ele>270.0</ele><time>2026-04-11T16:40:05Z</time></trkpt><trkpt lat="38.81924078739396" lon="16.46448187512443"><ele>271.4</ele><time>2026-04-11T16:40:14Z</time></trkpt><trkpt lat="38.81918673298423" lon="16.464628895097043"><ele>272.8</ele><time>2026-04-11T16:40:16Z</time></trkpt><trkpt lat="38.81914854502764" lon="16.464730465725186"><ele>274.2</ele><time>2026-04-11T16:40:17Z</time></trkpt><trkpt lat="38.81909888607029" lon="16.464848494135484"><ele>275.6</ele><time>2026-04-11T16:40:18Z</time></trkpt><trkpt lat="38.81906341574051" lon="16.464972433571255"><ele>277.0</ele><time>2026-04-11T16:40:19Z</time></trkpt><trkpt lat="38.81901032313371" lon="16.465089673622874"><ele>277.0</ele><time>2026-04-11T16:40:20Z</time></trkpt><trkpt lat="38.81895366725062" lon="16.465216726967842"><ele>277.0</ele><time>2026-04-11T16:40:21Z</time></trkpt><trkpt lat="38.8188933545306" lon="16.465355979624803"><ele>277.0</ele><time>2026-04-11T16:40:22Z</time></trkpt><trkpt lat="38.81885641987607" lon="16.465515699026593"><ele>277.0</ele><time>2026-04-11T16:40:23Z</time></trkpt><trkpt lat="38.818845555691794" lon="16.465678299229843"><ele>277.66666666666663</ele><time>2026-04-11T16:40:24Z</time></trkpt><trkpt lat="38.81885958825804" lon="16.465820541277516"><ele>278.3333333333333</ele><time>2026-04-11T16:40:25Z</time></trkpt><trkpt lat="38.81889565658591" lon="16.465914995583166"><ele>279.0</ele><time>2026-04-11T16:40:26Z</time></trkpt><trkpt lat="38.818953809290186" lon="16.465971296489965"><ele>279.6666666666667</ele><time>2026-04-11T16:40:27Z</time></trkpt><trkpt lat="38.819025094535455" lon="16.4659741663575"><ele>280.33333333333337</ele><time>2026-04-11T16:40:28Z</time></trkpt><trkpt lat="38.81910981809965" lon="16.465927536790865"><ele>281.0</ele><time>2026-04-11T16:40:29Z</time></trkpt><trkpt lat="38.81919787673962" lon="16.465830876785116"><ele>281.0</ele><time>2026-04-11T16:40:30Z</time></trkpt><trkpt lat="38.81928219286726" lon="16.465716763029924"><ele>281.0</ele><time>2026-04-11T16:40:31Z</time></trkpt><trkpt lat="38.8193802202167" lon="16.465588018517284"><ele>281.0</ele><time>2026-04-11T16:40:32Z</time></trkpt><trkpt lat="38.819472260461346" lon="16.46544881930577"><ele>281.0</ele><time>2026-04-11T16:40:33Z</time></trkpt><trkpt lat="38.81954778845621" lon="16.465314952669335"><ele>285.0</ele><time>2026-04-11T16:40:34Z</time></trkpt><trkpt lat="38.81962386218453" lon="16.465171297225723"><ele>289.0</ele><time>2026-04-11T16:40:35Z</time></trkpt><trkpt lat="38.81969975973182" lon="16.46503708491772"><ele>293.0</ele><time>2026-04-11T16:40:36Z</time></trkpt><trkpt lat="38.81976785692804" lon="16.464920263836362"><ele>297.0</ele><time>2026-04-11T16:40:37Z</time></trkpt><trkpt lat="38.81983644816099" lon="16.464814833871202"><ele>297.0</ele><time>2026-04-11T16:40:38Z</time></trkpt><trkpt lat="38.81990856806366" lon="16.464715825265472"><ele>297.0</ele><time>2026-04-11T16:40:39Z</time></trkpt><trkpt lat="38.81999747759687" lon="16.464619319317066"><ele>297.0</ele><time>2026-04-11T16:40:40Z</time></trkpt><trkpt lat="38.82010505671646" lon="16.464524227876883"><ele>297.0</ele><time>2026-04-11T16:40:41Z</time></trkpt><trkpt lat="38.82022541990023" lon="16.464432835198995"><ele>301.6666666666667</ele><time>2026-04-11T16:40:42Z</time></trkpt><trkpt lat="38.82035207657458" lon="16.46433706815041"><ele>306.33333333333337</ele><time>2026-04-11T16:40:43Z</time></trkpt><trkpt lat="38.82048170770577" lon="16.464222913953044"><ele>311.0</ele><time>2026-04-11T16:40:44Z</time></trkpt><trkpt lat="38.82061292081175" lon="16.4640976353065"><ele>311.0</ele><time>2026-04-11T16:40:45Z</time></trkpt><trkpt lat="38.82071127894599" lon="16.46393958499231"><ele>311.0</ele><time>2026-04-11T16:40:46Z</time></trkpt><trkpt lat="38.820794589398076" lon="16.46375542561501"><ele>311.0</ele><time>2026-04-11T16:40:47Z</time></trkpt><trkpt lat="38.82087146883671" lon="16.463532608948533"><ele>307.33333333333337</ele><time>2026-04-11T16:40:48Z</time></trkpt><trkpt lat="38.82095408547744" lon="16.463327601060076"><ele>303.6666666666667</ele><time>2026-04-11T16:40:49Z</time></trkpt><trkpt lat="38.82102721682084" lon="16.463154812653983"><ele>300.0</ele><time>2026-04-11T16:40:50Z</time></trkpt><trkpt lat="38.821094876523354" lon="16.46299632779011"><ele>306.25</ele><time>2026-04-11T16:40:51Z</time></trkpt><trkpt lat="38.82115353995245" lon="16.462857535879838"><ele>312.5</ele><time>2026-04-11T16:40:52Z</time></trkpt><trkpt lat="38.821213732957524" lon="16.462709302187445"><ele>318.75</ele><time>2026-04-11T16:40:53Z</time></trkpt><trkpt lat="38.82127824292592" lon="16.46254611865269"><ele>325.0</ele><time>2026-04-11T16:40:54Z</time></trkpt><trkpt lat="38.821347681112364" lon="16.462373223738574"><ele>325.0</ele><time>2026-04-11T16:40:55Z</time></trkpt><trkpt lat="38.82142392301173" lon="16.462202301330993"><ele>325.0</ele><time>2026-04-11T16:40:56Z</time></trkpt><trkpt lat="38.821490089876086" lon="16.462057140165893"><ele>325.0</ele><time>2026-04-11T16:40:57Z</time></trkpt><trkpt lat="38.82154175333141" lon="16.461910573344"><ele>325.0</ele><time>2026-04-11T16:40:58Z</time></trkpt><trkpt lat="38.821577167733686" lon="16.46175851276234"><ele>323.3333333333333</ele><time>2026-04-11T16:40:59Z</time></trkpt><trkpt lat="38.82158850780312" lon="16.46162882017374"><ele>321.66666666666663</ele><time>2026-04-11T16:41:00Z</time></trkpt><trkpt lat="38.821594750940164" lon="16.461535630300702"><ele>320.0</ele><time>2026-04-11T16:41:01Z</time></trkpt><trkpt lat="38.82160465549827" lon="16.46144762557802"><ele>318.3333333333333</ele><time>2026-04-11T16:41:02Z</time></trkpt><trkpt lat="38.82162048567724" lon="16.46135451730511"><ele>316.6666666666667</ele><time>2026-04-11T16:41:03Z</time></trkpt><trkpt lat="38.82163522471588" lon="16.46126909593838"><ele>315.0</ele><time>2026-04-11T16:41:04Z</time></trkpt><trkpt lat="38.82165363691075" lon="16.461183685597067"><ele>313.6</ele><time>2026-04-11T16:41:05Z</time></trkpt><trkpt lat="38.82168629479704" lon="16.461101899493237"><ele>312.2</ele><time>2026-04-11T16:41:06Z</time></trkpt><trkpt lat="38.82173450580959" lon="16.46103384952711"><ele>310.8</ele><time>2026-04-11T16:41:07Z</time></trkpt><trkpt lat="38.82180930891566" lon="16.460981809230816"><ele>309.4</ele><time>2026-04-11T16:41:08Z</time></trkpt><trkpt lat="38.82191621979253" lon="16.46094961257201"><ele>308.0</ele><time>2026-04-11T16:41:09Z</time></trkpt><trkpt lat="38.822031756286655" lon="16.460953006800935"><ele>312.2</ele><time>2026-04-11T16:41:10Z</time></trkpt><trkpt lat="38.822135138242984" lon="16.460905524638754"><ele>316.4</ele><time>2026-04-11T16:41:11Z</time></trkpt><trkpt lat="38.82222951028354" lon="16.460856184458052"><ele>320.59999999999997</ele><time>2026-04-11T16:41:12Z</time></trkpt><trkpt lat="38.822307342625194" lon="16.46079532957608"><ele>324.8</ele><time>2026-04-11T16:41:13Z</time></trkpt><trkpt lat="38.82239289977415" lon="16.460753238009993"><ele>329.0</ele><time>2026-04-11T16:41:14Z</time></trkpt><trkpt lat="38.822475704603754" lon="16.460702286001336"><ele>329.0</ele><time>2026-04-11T16:41:15Z</time></trkpt><trkpt lat="38.82256318306317" lon="16.460660095451868"><ele>329.0</ele><time>2026-04-11T16:41:16Z</time></trkpt><trkpt lat="38.82265548747686" lon="16.460698939619345"><ele>329.0</ele><time>2026-04-11T16:41:17Z</time></trkpt><trkpt lat="38.82274596732899" lon="16.460738756783265"><ele>329.0</ele><time>2026-04-11T16:41:18Z</time></trkpt><trkpt lat="38.82283801129736" lon="16.46079443637087"><ele>329.0</ele><time>2026-04-11T16:41:19Z</time></trkpt><trkpt lat="38.822917258303136" lon="16.46089206322484"><ele>331.25</ele><time>2026-04-11T16:41:20Z</time></trkpt><trkpt lat="38.82299710210897" lon="16.461009448435945"><ele>333.5</ele><time>2026-04-11T16:41:21Z</time></trkpt><trkpt lat="38.82305637056145" lon="16.461143756085818"><ele>335.75</ele><time>2026-04-11T16:41:22Z</time></trkpt><trkpt lat="38.82312567404177" lon="16.46126079322243"><ele>338.0</ele><time>2026-04-11T16:41:23Z</time></trkpt><trkpt lat="38.82319371401525" lon="16.461362821000222"><ele>338.0</ele><time>2026-04-11T16:41:24Z</time></trkpt><trkpt lat="38.823270692499975" lon="16.46143994734896"><ele>338.0</ele><time>2026-04-11T16:41:25Z</time></trkpt><trkpt lat="38.8233394071216" lon="16.46148469276915"><ele>338.0</ele><time>2026-04-11T16:41:26Z</time></trkpt><trkpt lat="38.82341361869546" lon="16.461496237034222"><ele>338.0</ele><time>2026-04-11T16:41:27Z</time></trkpt><trkpt lat="38.823494321244425" lon="16.461523959420486"><ele>338.0</ele><time>2026-04-11T16:41:28Z</time></trkpt><trkpt lat="38.82359797951893" lon="16.461556726699733"><ele>338.0</ele><time>2026-04-11T16:41:29Z</time></trkpt><trkpt lat="38.82368289754878" lon="16.46157762844175"><ele>337.25</ele><time>2026-04-11T16:41:30Z</time></trkpt><trkpt lat="38.82378752401181" lon="16.461611463565507"><ele>336.5</ele><time>2026-04-11T16:41:31Z</time></trkpt><trkpt lat="38.82391909163524" lon="16.461625736017304"><ele>335.75</ele><time>2026-04-11T16:41:32Z</time></trkpt><trkpt lat="38.82404746802613" lon="16.461615553232342"><ele>335.0</ele><time>2026-04-11T16:41:33Z</time></trkpt><trkpt lat="38.82417215272837" lon="16.461553029738184"><ele>335.0</ele><time>2026-04-11T16:41:34Z</time></trkpt><trkpt lat="38.8243032147753" lon="16.461477757970886"><ele>335.0</ele><time>2026-04-11T16:41:35Z</time></trkpt><trkpt lat="38.824444411244016" lon="16.461381889309507"><ele>335.0</ele><time>2026-04-11T16:41:36Z</time></trkpt><trkpt lat="38.824593730254094" lon="16.46127897685846"><ele>335.33333333333337</ele><time>2026-04-11T16:41:37Z</time></trkpt><trkpt lat="38.824753220035134" lon="16.461169662418765"><ele>335.6666666666667</ele><time>2026-04-11T16:41:38Z</time></trkpt><trkpt lat="38.82491636614293" lon="16.461058776286084"><ele>336.0</ele><time>2026-04-11T16:41:39Z</time></trkpt><trkpt lat="38.82509161922535" lon="16.460939581005256"><ele>335.0</ele><time>2026-04-11T16:41:40Z</time></trkpt><trkpt lat="38.82526961342307" lon="16.460820977065037"><ele>334.0</ele><time>2026-04-11T16:41:41Z</time></trkpt><trkpt lat="38.82543785330025" lon="16.46070924704007"><ele>333.0</ele><time>2026-04-11T16:41:42Z</time></trkpt><trkpt lat="38.825605237966656" lon="16.460595114122086"><ele>333.0</ele><time>2026-04-11T16:41:43Z</time></trkpt><trkpt lat="38.825772325134" lon="16.460483007544088"><ele>333.0</ele><time>2026-04-11T16:41:44Z</time></trkpt><trkpt lat="38.8259328148469" lon="16.46037780465246"><ele>333.0</ele><time>2026-04-11T16:41:45Z</time></trkpt><trkpt lat="38.826091421085955" lon="16.460269106029674"><ele>333.3333333333333</ele><time>2026-04-11T16:41:46Z</time></trkpt><trkpt lat="38.82623878346578" lon="16.46015901411293"><ele>333.66666666666663</ele><time>2026-04-11T16:41:47Z</time></trkpt><trkpt lat="38.82637142735651" lon="16.46005184599528"><ele>334.0</ele><time>2026-04-11T16:41:48Z</time></trkpt><trkpt lat="38.82649739522532" lon="16.45995190868208"><ele>334.0</ele><time>2026-04-11T16:41:49Z</time></trkpt><trkpt lat="38.82663618913456" lon="16.459844578188584"><ele>334.0</ele><time>2026-04-11T16:41:50Z</time></trkpt><trkpt lat="38.826783272723354" lon="16.459721990585603"><ele>334.0</ele><time>2026-04-11T16:41:51Z</time></trkpt><trkpt lat="38.82694056047086" lon="16.459589895498034"><ele>334.3333333333333</ele><time>2026-04-11T16:41:52Z</time></trkpt><trkpt lat="38.82708346406573" lon="16.459467057298795"><ele>334.6666666666667</ele><time>2026-04-11T16:41:53Z</time></trkpt><trkpt lat="38.82722008129862" lon="16.459361630326594"><ele>335.0</ele><time>2026-04-11T16:41:54Z</time></trkpt><trkpt lat="38.82733511147627" lon="16.459287876142884"><ele>335.0</ele><time>2026-04-11T16:41:55Z</time></trkpt><trkpt lat="38.82745460680793" lon="16.45921947102634"><ele>335.0</ele><time>2026-04-11T16:41:56Z</time></trkpt><trkpt lat="38.82758033524778" lon="16.459151833335216"><ele>335.0</ele><time>2026-04-11T16:41:57Z</time></trkpt><trkpt lat="38.82771062647773" lon="16.459075904565427"><ele>335.0</ele><time>2026-04-11T16:41:58Z</time></trkpt><trkpt lat="38.82785030064442" lon="16.458999243278512"><ele>334.75</ele><time>2026-04-11T16:41:59Z</time></trkpt><trkpt lat="38.82798586348406" lon="16.458923551206837"><ele>334.5</ele><time>2026-04-11T16:42:00Z</time></trkpt><trkpt lat="38.828109679452915" lon="16.458857389465226"><ele>334.25</ele><time>2026-04-11T16:42:01Z</time></trkpt><trkpt lat="38.82821466958796" lon="16.45880261327164"><ele>334.0</ele><time>2026-04-11T16:42:02Z</time></trkpt><trkpt lat="38.82829349518331" lon="16.458780280981852"><ele>334.0</ele><time>2026-04-11T16:42:03Z</time></trkpt><trkpt lat="38.828376992410696" lon="16.45876802439788"><ele>334.0</ele><time>2026-04-11T16:42:05Z</time></trkpt><trkpt lat="38.82842555358109" lon="16.45904533946505"><ele>334.0</ele><time>2026-04-11T16:42:07Z</time></trkpt><trkpt lat="38.82842383634683" lon="16.459197860881172"><ele>334.0</ele><time>2026-04-11T16:42:08Z</time></trkpt><trkpt lat="38.82842285155915" lon="16.459333951479405"><ele>334.0</ele><time>2026-04-11T16:42:09Z</time></trkpt><trkpt lat="38.82842300055648" lon="16.45942983345396"><ele>334.0</ele><time>2026-04-11T16:42:10Z</time></trkpt><trkpt lat="38.82842480846827" lon="16.459534899119408"><ele>334.0</ele><time>2026-04-11T16:42:11Z</time></trkpt><trkpt lat="38.82843247403102" lon="16.459679545728545"><ele>334.0</ele><time>2026-04-11T16:42:12Z</time></trkpt><trkpt lat="38.82844234959312" lon="16.459847549413585"><ele>334.0</ele><time>2026-04-11T16:42:13Z</time></trkpt><trkpt lat="38.828449651292246" lon="16.460022537120377"><ele>333.0</ele><time>2026-04-11T16:42:14Z</time></trkpt><trkpt lat="38.82845137630904" lon="16.46020477120728"><ele>332.0</ele><time>2026-04-11T16:42:15Z</time></trkpt><trkpt lat="38.828452335640705" lon="16.460399031907503"><ele>331.0</ele><time>2026-04-11T16:42:16Z</time></trkpt><trkpt lat="38.82845493615474" lon="16.46061474995994"><ele>329.66666666666663</ele><time>2026-04-11T16:42:17Z</time></trkpt><trkpt lat="38.828455733573875" lon="16.460860969040198"><ele>328.3333333333333</ele><time>2026-04-11T16:42:18Z</time></trkpt><trkpt lat="38.82845985577332" lon="16.461116096052752"><ele>327.0</ele><time>2026-04-11T16:42:19Z</time></trkpt><trkpt lat="38.82845357083973" lon="16.461396562784405"><ele>325.0</ele><time>2026-04-11T16:42:20Z</time></trkpt><trkpt lat="38.8284736145251" lon="16.461690348822042"><ele>323.0</ele><time>2026-04-11T16:42:21Z</time></trkpt><trkpt lat="38.82846064575031" lon="16.46198242396778"><ele>321.6666666666667</ele><time>2026-04-11T16:42:22Z</time></trkpt><trkpt lat="38.82846465520398" lon="16.462271509266973"><ele>320.3333333333333</ele><time>2026-04-11T16:42:23.001Z</time></trkpt><trkpt lat="38.82846879619429" lon="16.462559152930442"><ele>319.0</ele><time>2026-04-11T16:42:24.001Z</time></trkpt><trkpt lat="38.82847284439784" lon="16.46284035138292"><ele>317.0</ele><time>2026-04-11T16:42:25.001Z</time></trkpt><trkpt lat="38.82849322135693" lon="16.463121279840028"><ele>315.0</ele><time>2026-04-11T16:42:26.001Z</time></trkpt><trkpt lat="38.8284951566757" lon="16.46340944457907"><ele>313.0</ele><time>2026-04-11T16:42:27.001Z</time></trkpt><trkpt lat="38.828496871246145" lon="16.463696422707972"><ele>313.0</ele><time>2026-04-11T16:42:28.001Z</time></trkpt><trkpt lat="38.82849962684123" lon="16.463978637618236"><ele>313.0</ele><time>2026-04-11T16:42:29.001Z</time></trkpt><trkpt lat="38.8285041485863" lon="16.464262236352795"><ele>313.0</ele><time>2026-04-11T16:42:30.001Z</time></trkpt><trkpt lat="38.82851047186606" lon="16.4645429075473"><ele>312.66666666666663</ele><time>2026-04-11T16:42:31.001Z</time></trkpt><trkpt lat="38.828513365258374" lon="16.464821906779722"><ele>312.3333333333333</ele><time>2026-04-11T16:42:32.001Z</time></trkpt><trkpt lat="38.8285141941715" lon="16.465104176996718"><ele>312.0</ele><time>2026-04-11T16:42:33.001Z</time></trkpt><trkpt lat="38.82851606571813" lon="16.4653903091227"><ele>312.0</ele><time>2026-04-11T16:42:34.001Z</time></trkpt><trkpt lat="38.82851976322403" lon="16.465677903088988"><ele>312.0</ele><time>2026-04-11T16:42:35.001Z</time></trkpt><trkpt lat="38.82852498954967" lon="16.46596199417761"><ele>312.0</ele><time>2026-04-11T16:42:36.001Z</time></trkpt><trkpt lat="38.828531539861864" lon="16.466249795921907"><ele>311.6666666666667</ele><time>2026-04-11T16:42:37.001Z</time></trkpt><trkpt lat="38.8285375483862" lon="16.466534345851777"><ele>311.33333333333337</ele><time>2026-04-11T16:42:38.001Z</time></trkpt><trkpt lat="38.82854340234723" lon="16.466822023646753"><ele>311.0</ele><time>2026-04-11T16:42:39.001Z</time></trkpt><trkpt lat="38.828546928944355" lon="16.467107722638016"><ele>310.6666666666667</ele><time>2026-04-11T16:42:40.001Z</time></trkpt><trkpt lat="38.82855181083939" lon="16.467382936300396"><ele>310.3333333333333</ele><time>2026-04-11T16:42:41.001Z</time></trkpt><trkpt lat="38.82855577966865" lon="16.467637194012294"><ele>310.0</ele><time>2026-04-11T16:42:42.001Z</time></trkpt><trkpt lat="38.828559045104576" lon="16.467896738852964"><ele>310.3333333333333</ele><time>2026-04-11T16:42:43.001Z</time></trkpt><trkpt lat="38.828560116648404" lon="16.468172646035693"><ele>310.6666666666667</ele><time>2026-04-11T16:42:44.001Z</time></trkpt><trkpt lat="38.8285644644785" lon="16.468442507923434"><ele>311.0</ele><time>2026-04-11T16:42:45.001Z</time></trkpt><trkpt lat="38.828566446179096" lon="16.46871006250103"><ele>312.33333333333337</ele><time>2026-04-11T16:42:46.001Z</time></trkpt><trkpt lat="38.82857160906618" lon="16.46897758974995"><ele>313.6666666666667</ele><time>2026-04-11T16:42:47.001Z</time></trkpt><trkpt lat="38.828558789429955" lon="16.46922800714588"><ele>315.0</ele><time>2026-04-11T16:42:48.001Z</time></trkpt><trkpt lat="38.82856174740278" lon="16.469476226443543"><ele>315.3333333333333</ele><time>2026-04-11T16:42:49.001Z</time></trkpt><trkpt lat="38.828564566405184" lon="16.46972225185676"><ele>315.66666666666663</ele><time>2026-04-11T16:42:50Z</time></trkpt><trkpt lat="38.82856736909832" lon="16.46996685366011"><ele>316.0</ele><time>2026-04-11T16:42:51Z</time></trkpt><trkpt lat="38.82858528546694" lon="16.470212674612004"><ele>316.0</ele><time>2026-04-11T16:42:52Z</time></trkpt><trkpt lat="38.8285872058599" lon="16.470457457449513"><ele>316.0</ele><time>2026-04-11T16:42:53Z</time></trkpt><trkpt lat="38.8285929006975" lon="16.470704576327037"><ele>316.0</ele><time>2026-04-11T16:42:54Z</time></trkpt><trkpt lat="38.82859661693711" lon="16.470952614796502"><ele>316.0</ele><time>2026-04-11T16:42:55Z</time></trkpt><trkpt lat="38.82858498699101" lon="16.47120127354901"><ele>316.0</ele><time>2026-04-11T16:42:56Z</time></trkpt><trkpt lat="38.828588879758684" lon="16.47144427151915"><ele>316.0</ele><time>2026-04-11T16:42:57Z</time></trkpt><trkpt lat="38.82861661516507" lon="16.471684960623616"><ele>316.66666666666663</ele><time>2026-04-11T16:42:58Z</time></trkpt><trkpt lat="38.828624203886" lon="16.471926816078362"><ele>317.3333333333333</ele><time>2026-04-11T16:42:59Z</time></trkpt><trkpt lat="38.82862799405709" lon="16.472161671736135"><ele>318.0</ele><time>2026-04-11T16:43:00Z</time></trkpt><trkpt lat="38.82862829866084" lon="16.47239054212353"><ele>318.3333333333333</ele><time>2026-04-11T16:43:01Z</time></trkpt><trkpt lat="38.82860625279537" lon="16.47262017957003"><ele>318.66666666666663</ele><time>2026-04-11T16:43:02Z</time></trkpt><trkpt lat="38.82860915318073" lon="16.47283579537919"><ele>319.0</ele><time>2026-04-11T16:43:03Z</time></trkpt><trkpt lat="38.82861280940126" lon="16.47305946634303"><ele>319.0</ele><time>2026-04-11T16:43:04Z</time></trkpt><trkpt lat="38.82861646777625" lon="16.473288170411507"><ele>319.0</ele><time>2026-04-11T16:43:05Z</time></trkpt><trkpt lat="38.828620181132706" lon="16.47352031172985"><ele>319.0</ele><time>2026-04-11T16:43:06Z</time></trkpt><trkpt lat="38.828623937020296" lon="16.473755111663372"><ele>319.0</ele><time>2026-04-11T16:43:07Z</time></trkpt><trkpt lat="38.82862724644603" lon="16.473962001392263"><ele>319.0</ele><time>2026-04-11T16:43:08Z</time></trkpt><trkpt lat="38.828631196143796" lon="16.474208917306086"><ele>319.0</ele><time>2026-04-11T16:43:09Z</time></trkpt><trkpt lat="38.82863517196023" lon="16.474457466449046"><ele>319.0</ele><time>2026-04-11T16:43:10Z</time></trkpt><trkpt lat="38.828639060339654" lon="16.474700549340557"><ele>319.0</ele><time>2026-04-11T16:43:11Z</time></trkpt><trkpt lat="38.82864301331005" lon="16.474947670067696"><ele>319.0</ele><time>2026-04-11T16:43:12Z</time></trkpt><trkpt lat="38.82864695435464" lon="16.475194045247406"><ele>319.3333333333333</ele><time>2026-04-11T16:43:13Z</time></trkpt><trkpt lat="38.828650980547906" lon="16.47544574354772"><ele>319.6666666666667</ele><time>2026-04-11T16:43:14Z</time></trkpt><trkpt lat="38.82865510537913" lon="16.47570360819674"><ele>320.0</ele><time>2026-04-11T16:43:15Z</time></trkpt><trkpt lat="38.82865893350663" lon="16.475961453731845"><ele>320.0</ele><time>2026-04-11T16:43:16Z</time></trkpt><trkpt lat="38.82866281972378" lon="16.476221569921147"><ele>320.0</ele><time>2026-04-11T16:43:17Z</time></trkpt><trkpt lat="38.82866672782892" lon="16.476483151124526"><ele>320.0</ele><time>2026-04-11T16:43:18Z</time></trkpt><trkpt lat="38.82867049015915" lon="16.476734975157374"><ele>320.6666666666667</ele><time>2026-04-11T16:43:19Z</time></trkpt><trkpt lat="38.82867415041836" lon="16.476979967305173"><ele>321.3333333333333</ele><time>2026-04-11T16:43:20Z</time></trkpt><trkpt lat="38.82867708771848" lon="16.477202935275443"><ele>322.0</ele><time>2026-04-11T16:43:21Z</time></trkpt><trkpt lat="38.82867950173453" lon="16.47740842836888"><ele>322.25</ele><time>2026-04-11T16:43:22Z</time></trkpt><trkpt lat="38.8286817732654" lon="16.477601792404425"><ele>322.5</ele><time>2026-04-11T16:43:23Z</time></trkpt><trkpt lat="38.828683913320084" lon="16.477783964546777"><ele>322.75</ele><time>2026-04-11T16:43:24Z</time></trkpt><trkpt lat="38.828686030086054" lon="16.47796415410973"><ele>323.0</ele><time>2026-04-11T16:43:25Z</time></trkpt><trkpt lat="38.82868841111675" lon="16.47814292635989"><ele>323.0</ele><time>2026-04-11T16:43:26Z</time></trkpt><trkpt lat="38.82869068110315" lon="16.47831328323174"><ele>323.0</ele><time>2026-04-11T16:43:27Z</time></trkpt><trkpt lat="38.82869297802916" lon="16.478485662078274"><ele>323.0</ele><time>2026-04-11T16:43:28Z</time></trkpt><trkpt lat="38.82869512911671" lon="16.478647095968874"><ele>323.0</ele><time>2026-04-11T16:43:29Z</time></trkpt><trkpt lat="38.82869731347844" lon="16.478811027075896"><ele>324.25</ele><time>2026-04-11T16:43:30Z</time></trkpt><trkpt lat="38.82869935881472" lon="16.478977030226503"><ele>325.5</ele><time>2026-04-11T16:43:31Z</time></trkpt><trkpt lat="38.828701333154505" lon="16.47915945284293"><ele>326.75</ele><time>2026-04-11T16:43:32Z</time></trkpt><trkpt lat="38.828703650562936" lon="16.479373574032618"><ele>328.0</ele><time>2026-04-11T16:43:33Z</time></trkpt><trkpt lat="38.828706130876604" lon="16.47960658476931"><ele>328.3333333333333</ele><time>2026-04-11T16:43:34Z</time></trkpt><trkpt lat="38.82870867339416" lon="16.47984968220835"><ele>328.6666666666667</ele><time>2026-04-11T16:43:35Z</time></trkpt><trkpt lat="38.82871781872649" lon="16.480101558346007"><ele>329.0</ele><time>2026-04-11T16:43:36Z</time></trkpt><trkpt lat="38.8287196872108" lon="16.480357808394153"><ele>329.33333333333337</ele><time>2026-04-11T16:43:37Z</time></trkpt><trkpt lat="38.82872560176872" lon="16.480612844788077"><ele>329.6666666666667</ele><time>2026-04-11T16:43:38Z</time></trkpt><trkpt lat="38.828730628266165" lon="16.480864681175298"><ele>330.0</ele><time>2026-04-11T16:43:39Z</time></trkpt><trkpt lat="38.8287344312944" lon="16.4811124271734"><ele>331.0</ele><time>2026-04-11T16:43:40Z</time></trkpt><trkpt lat="38.82873594997217" lon="16.481355405563725"><ele>332.0</ele><time>2026-04-11T16:43:41Z</time></trkpt><trkpt lat="38.82873781355143" lon="16.48159834182026"><ele>333.0</ele><time>2026-04-11T16:43:42Z</time></trkpt><trkpt lat="38.8287398558391" lon="16.48184472954886"><ele>333.0</ele><time>2026-04-11T16:43:43Z</time></trkpt><trkpt lat="38.82874489004543" lon="16.48209091525324"><ele>333.0</ele><time>2026-04-11T16:43:44Z</time></trkpt><trkpt lat="38.82875101343536" lon="16.482339756556552"><ele>333.0</ele><time>2026-04-11T16:43:45Z</time></trkpt><trkpt lat="38.828761652020965" lon="16.48258878947585"><ele>333.6666666666667</ele><time>2026-04-11T16:43:46Z</time></trkpt><trkpt lat="38.8287647674814" lon="16.482839749018286"><ele>334.33333333333337</ele><time>2026-04-11T16:43:47Z</time></trkpt><trkpt lat="38.82875349483047" lon="16.48309558088114"><ele>335.0</ele><time>2026-04-11T16:43:48Z</time></trkpt><trkpt lat="38.82875763510357" lon="16.483354427127804"><ele>336.0</ele><time>2026-04-11T16:43:49Z</time></trkpt><trkpt lat="38.82877691304964" lon="16.48360594752854"><ele>337.0</ele><time>2026-04-11T16:43:50Z</time></trkpt><trkpt lat="38.82877516634598" lon="16.48385455122506"><ele>338.0</ele><time>2026-04-11T16:43:51Z</time></trkpt><trkpt lat="38.82877547042523" lon="16.48410300455125"><ele>338.33333333333337</ele><time>2026-04-11T16:43:52Z</time></trkpt><trkpt lat="38.828779223778646" lon="16.48435361323524"><ele>338.6666666666667</ele><time>2026-04-11T16:43:53Z</time></trkpt><trkpt lat="38.82878338884359" lon="16.48460646563377"><ele>339.0</ele><time>2026-04-11T16:43:54Z</time></trkpt><trkpt lat="38.828784694489805" lon="16.484858707463935"><ele>339.3333333333333</ele><time>2026-04-11T16:43:55Z</time></trkpt><trkpt lat="38.82879711074738" lon="16.485115548302723"><ele>339.66666666666663</ele><time>2026-04-11T16:43:56Z</time></trkpt><trkpt lat="38.82880618142678" lon="16.48536884426766"><ele>340.0</ele><time>2026-04-11T16:43:57Z</time></trkpt><trkpt lat="38.828831445735446" lon="16.485622239728997"><ele>340.0</ele><time>2026-04-11T16:43:58Z</time></trkpt><trkpt lat="38.82886520886006" lon="16.4858821987209"><ele>340.0</ele><time>2026-04-11T16:43:59Z</time></trkpt><trkpt lat="38.82890006652016" lon="16.48613336879839"><ele>340.0</ele><time>2026-04-11T16:44:00Z</time></trkpt><trkpt lat="38.82891352944881" lon="16.486392382852234"><ele>339.66666666666663</ele><time>2026-04-11T16:44:01Z</time></trkpt><trkpt lat="38.82894041789432" lon="16.486634550385666"><ele>339.3333333333333</ele><time>2026-04-11T16:44:02Z</time></trkpt><trkpt lat="38.82896689259654" lon="16.486872991609903"><ele>339.0</ele><time>2026-04-11T16:44:03Z</time></trkpt><trkpt lat="38.82899433013169" lon="16.487120104465017"><ele>340.0</ele><time>2026-04-11T16:44:04Z</time></trkpt><trkpt lat="38.829022240659306" lon="16.48736801784491"><ele>341.0</ele><time>2026-04-11T16:44:05Z</time></trkpt><trkpt lat="38.829048944633946" lon="16.487618284484988"><ele>342.0</ele><time>2026-04-11T16:44:06Z</time></trkpt><trkpt lat="38.82908812744342" lon="16.48784698042652"><ele>343.0</ele><time>2026-04-11T16:44:07Z</time></trkpt><trkpt lat="38.829066412638866" lon="16.48807461205237"><ele>344.0</ele><time>2026-04-11T16:44:08Z</time></trkpt><trkpt lat="38.82904158761692" lon="16.488279191281645"><ele>345.0</ele><time>2026-04-11T16:44:09.001Z</time></trkpt><trkpt lat="38.82899260904774" lon="16.488483236544564"><ele>345.0</ele><time>2026-04-11T16:44:10.001Z</time></trkpt><trkpt lat="38.828946923580226" lon="16.488711799071663"><ele>345.0</ele><time>2026-04-11T16:44:11.001Z</time></trkpt><trkpt lat="38.828881407836256" lon="16.48893864766071"><ele>345.0</ele><time>2026-04-11T16:44:12.001Z</time></trkpt><trkpt lat="38.82882077347777" lon="16.489177999121527"><ele>345.0</ele><time>2026-04-11T16:44:13.001Z</time></trkpt><trkpt lat="38.82875736197458" lon="16.48941126551729"><ele>345.0</ele><time>2026-04-11T16:44:14.001Z</time></trkpt><trkpt lat="38.82869374500621" lon="16.489649340895493"><ele>345.0</ele><time>2026-04-11T16:44:15.001Z</time></trkpt><trkpt lat="38.82863395006158" lon="16.489889811285853"><ele>344.6666666666667</ele><time>2026-04-11T16:44:16.001Z</time></trkpt><trkpt lat="38.82856981874409" lon="16.490131580637257"><ele>344.33333333333337</ele><time>2026-04-11T16:44:17.001Z</time></trkpt><trkpt lat="38.82850521400195" lon="16.490372377021156"><ele>344.0</ele><time>2026-04-11T16:44:18.001Z</time></trkpt><trkpt lat="38.828439419762255" lon="16.490618503088946"><ele>344.0</ele><time>2026-04-11T16:44:19.001Z</time></trkpt><trkpt lat="38.828374833996385" lon="16.490856636296083"><ele>344.0</ele><time>2026-04-11T16:44:20.001Z</time></trkpt><trkpt lat="38.82830976986477" lon="16.491097317380774"><ele>344.0</ele><time>2026-04-11T16:44:21.001Z</time></trkpt><trkpt lat="38.828221748575665" lon="16.49132721506596"><ele>345.6666666666667</ele><time>2026-04-11T16:44:22.001Z</time></trkpt><trkpt lat="38.82813976034354" lon="16.49156398907523"><ele>347.3333333333333</ele><time>2026-04-11T16:44:23.001Z</time></trkpt><trkpt lat="38.82807197220757" lon="16.49180621400803"><ele>349.0</ele><time>2026-04-11T16:44:24.001Z</time></trkpt><trkpt lat="38.827978786477594" lon="16.492025889689383"><ele>349.3333333333333</ele><time>2026-04-11T16:44:25.001Z</time></trkpt><trkpt lat="38.8279018290409" lon="16.492246712410715"><ele>349.6666666666667</ele><time>2026-04-11T16:44:26.001Z</time></trkpt><trkpt lat="38.82783312183077" lon="16.49245331596966"><ele>350.0</ele><time>2026-04-11T16:44:27.001Z</time></trkpt><trkpt lat="38.82772770249475" lon="16.49265286503287"><ele>350.0</ele><time>2026-04-11T16:44:28.001Z</time></trkpt><trkpt lat="38.827605545996455" lon="16.492843690635144"><ele>350.0</ele><time>2026-04-11T16:44:29.001Z</time></trkpt><trkpt lat="38.827476372721414" lon="16.49302482891977"><ele>350.0</ele><time>2026-04-11T16:44:30.001Z</time></trkpt><trkpt lat="38.82733320938338" lon="16.493185008847043"><ele>351.0</ele><time>2026-04-11T16:44:31.001Z</time></trkpt><trkpt lat="38.827178236021204" lon="16.493333256347203"><ele>352.0</ele><time>2026-04-11T16:44:32.001Z</time></trkpt><trkpt lat="38.827005117607506" lon="16.493424198827622"><ele>353.0</ele><time>2026-04-11T16:44:33.001Z</time></trkpt><trkpt lat="38.82683602999772" lon="16.49351832468746"><ele>353.6666666666667</ele><time>2026-04-11T16:44:34.001Z</time></trkpt><trkpt lat="38.82666446394898" lon="16.49360529958983"><ele>354.3333333333333</ele><time>2026-04-11T16:44:35.001Z</time></trkpt><trkpt lat="38.82649213111361" lon="16.493692116789383"><ele>355.0</ele><time>2026-04-11T16:44:36.001Z</time></trkpt><trkpt lat="38.82632637153915" lon="16.493775230663786"><ele>355.0</ele><time>2026-04-11T16:44:37.001Z</time></trkpt><trkpt lat="38.82615814473695" lon="16.49385958163047"><ele>355.0</ele><time>2026-04-11T16:44:38.001Z</time></trkpt><trkpt lat="38.82599327539422" lon="16.493942249111733"><ele>355.0</ele><time>2026-04-11T16:44:39.001Z</time></trkpt><trkpt lat="38.82582745952512" lon="16.494027754840236"><ele>355.3333333333333</ele><time>2026-04-11T16:44:40.001Z</time></trkpt><trkpt lat="38.82565683780344" lon="16.494115620523306"><ele>355.6666666666667</ele><time>2026-04-11T16:44:41.001Z</time></trkpt><trkpt lat="38.82548387145623" lon="16.494211882805093"><ele>356.0</ele><time>2026-04-11T16:44:42.001Z</time></trkpt><trkpt lat="38.82530562571912" lon="16.494323739474915"><ele>354.33333333333337</ele><time>2026-04-11T16:44:43.001Z</time></trkpt><trkpt lat="38.825137147590176" lon="16.49444708917359"><ele>352.6666666666667</ele><time>2026-04-11T16:44:44.001Z</time></trkpt><trkpt lat="38.82498153385128" lon="16.494586494576385"><ele>351.0</ele><time>2026-04-11T16:44:45.001Z</time></trkpt><trkpt lat="38.824828319893385" lon="16.49473447072556"><ele>351.0</ele><time>2026-04-11T16:44:46.001Z</time></trkpt><trkpt lat="38.82468230227499" lon="16.494882630413542"><ele>351.0</ele><time>2026-04-11T16:44:47.001Z</time></trkpt><trkpt lat="38.82453521413801" lon="16.495044107973378"><ele>351.0</ele><time>2026-04-11T16:44:48.001Z</time></trkpt><trkpt lat="38.82439387132926" lon="16.495217474958707"><ele>350.6666666666667</ele><time>2026-04-11T16:44:49.001Z</time></trkpt><trkpt lat="38.824258938561094" lon="16.495403884660483"><ele>350.33333333333337</ele><time>2026-04-11T16:44:50.001Z</time></trkpt><trkpt lat="38.82412785807474" lon="16.495597014594185"><ele>350.0</ele><time>2026-04-11T16:44:51.001Z</time></trkpt><trkpt lat="38.8240040389902" lon="16.495788750458928"><ele>350.0</ele><time>2026-04-11T16:44:52.001Z</time></trkpt><trkpt lat="38.82388389558371" lon="16.495976652871132"><ele>350.0</ele><time>2026-04-11T16:44:53.001Z</time></trkpt><trkpt lat="38.8237627828823" lon="16.496166724033024"><ele>350.0</ele><time>2026-04-11T16:44:54.001Z</time></trkpt><trkpt lat="38.823642524351236" lon="16.49635627125738"><ele>350.0</ele><time>2026-04-11T16:44:55.001Z</time></trkpt><trkpt lat="38.82353226635977" lon="16.496532181723573"><ele>350.0</ele><time>2026-04-11T16:44:56Z</time></trkpt><trkpt lat="38.82342645757251" lon="16.496708398719804"><ele>350.0</ele><time>2026-04-11T16:44:57Z</time></trkpt><trkpt lat="38.82332497205595" lon="16.49690550835987"><ele>348.6666666666667</ele><time>2026-04-11T16:44:58Z</time></trkpt><trkpt lat="38.82323421610021" lon="16.497121011994707"><ele>347.3333333333333</ele><time>2026-04-11T16:44:59Z</time></trkpt><trkpt lat="38.82316672722518" lon="16.497355167814053"><ele>346.0</ele><time>2026-04-11T16:45:00Z</time></trkpt><trkpt lat="38.82309037577249" lon="16.497583790869648"><ele>346.0</ele><time>2026-04-11T16:45:01Z</time></trkpt><trkpt lat="38.823018498118984" lon="16.49780826622561"><ele>346.0</ele><time>2026-04-11T16:45:02Z</time></trkpt><trkpt lat="38.822950230465345" lon="16.498011629110337"><ele>346.0</ele><time>2026-04-11T16:45:03Z</time></trkpt><trkpt lat="38.82288264928069" lon="16.498202716447402"><ele>346.3333333333333</ele><time>2026-04-11T16:45:04Z</time></trkpt><trkpt lat="38.82282128247909" lon="16.49839508321961"><ele>346.6666666666667</ele><time>2026-04-11T16:45:05Z</time></trkpt><trkpt lat="38.8227639376344" lon="16.49858775306752"><ele>347.0</ele><time>2026-04-11T16:45:06Z</time></trkpt><trkpt lat="38.8226916928493" lon="16.498789800191673"><ele>347.0</ele><time>2026-04-11T16:45:07Z</time></trkpt><trkpt lat="38.8226534415636" lon="16.499012363276872"><ele>347.0</ele><time>2026-04-11T16:45:08Z</time></trkpt><trkpt lat="38.822669167831386" lon="16.499254694771132"><ele>347.0</ele><time>2026-04-11T16:45:09Z</time></trkpt><trkpt lat="38.82268436200938" lon="16.4995007769945"><ele>346.6666666666667</ele><time>2026-04-11T16:45:10Z</time></trkpt><trkpt lat="38.822719773980545" lon="16.499755884794006"><ele>346.3333333333333</ele><time>2026-04-11T16:45:11Z</time></trkpt><trkpt lat="38.822768088915105" lon="16.50000885409031"><ele>346.0</ele><time>2026-04-11T16:45:12Z</time></trkpt><trkpt lat="38.82281298414988" lon="16.5002684969211"><ele>344.0</ele><time>2026-04-11T16:45:13Z</time></trkpt><trkpt lat="38.822837987114255" lon="16.500529191479018"><ele>342.0</ele><time>2026-04-11T16:45:14Z</time></trkpt><trkpt lat="38.822882352816784" lon="16.500772569507955"><ele>340.0</ele><time>2026-04-11T16:45:15Z</time></trkpt><trkpt lat="38.822946194440824" lon="16.501005243128326"><ele>340.0</ele><time>2026-04-11T16:45:16Z</time></trkpt><trkpt lat="38.82304699567771" lon="16.501221012000833"><ele>340.0</ele><time>2026-04-11T16:45:17Z</time></trkpt><trkpt lat="38.823152815412136" lon="16.50143544737779"><ele>340.0</ele><time>2026-04-11T16:45:18Z</time></trkpt><trkpt lat="38.82327295730519" lon="16.501643152449642"><ele>339.66666666666663</ele><time>2026-04-11T16:45:19Z</time></trkpt><trkpt lat="38.82339772688844" lon="16.50185015160367"><ele>339.3333333333333</ele><time>2026-04-11T16:45:20Z</time></trkpt><trkpt lat="38.823523484599804" lon="16.50205687865202"><ele>339.0</ele><time>2026-04-11T16:45:21Z</time></trkpt><trkpt lat="38.82363665736321" lon="16.502277545882"><ele>337.6666666666667</ele><time>2026-04-11T16:45:22Z</time></trkpt><trkpt lat="38.823759818411304" lon="16.502485093395286"><ele>336.33333333333337</ele><time>2026-04-11T16:45:23Z</time></trkpt><trkpt lat="38.82388263001" lon="16.50269375141174"><ele>335.0</ele><time>2026-04-11T16:45:24Z</time></trkpt><trkpt lat="38.82400253774541" lon="16.502897349698664"><ele>334.6666666666667</ele><time>2026-04-11T16:45:25Z</time></trkpt><trkpt lat="38.8241195000885" lon="16.503095032958576"><ele>334.3333333333333</ele><time>2026-04-11T16:45:26Z</time></trkpt><trkpt lat="38.82423790730872" lon="16.50329509854564"><ele>334.0</ele><time>2026-04-11T16:45:27Z</time></trkpt><trkpt lat="38.8243693797223" lon="16.503482625957137"><ele>333.0</ele><time>2026-04-11T16:45:28Z</time></trkpt><trkpt lat="38.824490184971346" lon="16.503684591695023"><ele>332.0</ele><time>2026-04-11T16:45:29Z</time></trkpt><trkpt lat="38.82460191949208" lon="16.50388015746873"><ele>331.0</ele><time>2026-04-11T16:45:30Z</time></trkpt><trkpt lat="38.824701807656524" lon="16.504068724506844"><ele>330.66666666666663</ele><time>2026-04-11T16:45:31Z</time></trkpt><trkpt lat="38.824800777092" lon="16.504242060268336"><ele>330.3333333333333</ele><time>2026-04-11T16:45:32Z</time></trkpt><trkpt lat="38.82489537081293" lon="16.504409037978167"><ele>330.0</ele><time>2026-04-11T16:45:33Z</time></trkpt><trkpt lat="38.8249894701943" lon="16.50456403809588"><ele>329.5</ele><time>2026-04-11T16:45:34Z</time></trkpt><trkpt lat="38.825084542396276" lon="16.504714810877264"><ele>329.0</ele><time>2026-04-11T16:45:35Z</time></trkpt><trkpt lat="38.82516767454407" lon="16.504856653531682"><ele>328.5</ele><time>2026-04-11T16:45:36Z</time></trkpt><trkpt lat="38.82524145309378" lon="16.504982434212963"><ele>328.0</ele><time>2026-04-11T16:45:37Z</time></trkpt><trkpt lat="38.8253085494297" lon="16.505091407572795"><ele>328.0</ele><time>2026-04-11T16:45:38Z</time></trkpt><trkpt lat="38.825364361861475" lon="16.50518679754936"><ele>328.0</ele><time>2026-04-11T16:45:39Z</time></trkpt><trkpt lat="38.825409241478695" lon="16.505264254394014"><ele>328.0</ele><time>2026-04-11T16:45:40Z</time></trkpt><trkpt lat="38.82546081865033" lon="16.505324186145238"><ele>328.0</ele><time>2026-04-11T16:45:42Z</time></trkpt><trkpt lat="38.82555114156927" lon="16.50519738331545"><ele>328.0</ele><time>2026-04-11T16:45:45Z</time></trkpt><trkpt lat="38.825581184601646" lon="16.505109616435448"><ele>328.0</ele><time>2026-04-11T16:45:46Z</time></trkpt><trkpt lat="38.82562134252611" lon="16.505027219662157"><ele>328.0</ele><time>2026-04-11T16:45:48Z</time></trkpt><trkpt lat="38.82563989444499" lon="16.504949062251598"><ele>328.0</ele><time>2026-04-11T16:46:07.001Z</time></trkpt><trkpt lat="38.825695044930846" lon="16.504834521219504"><ele>328.0</ele><time>2026-04-11T16:46:09.001Z</time></trkpt><trkpt lat="38.825734143566386" lon="16.504753317984797"><ele>328.0</ele><time>2026-04-11T16:46:10.001Z</time></trkpt><trkpt lat="38.825777415879905" lon="16.504663446489136"><ele>328.0</ele><time>2026-04-11T16:46:11.001Z</time></trkpt><trkpt lat="38.82582530063477" lon="16.5045644018472"><ele>328.0</ele><time>2026-04-11T16:46:12.001Z</time></trkpt><trkpt lat="38.82585498868665" lon="16.50445690243281"><ele>327.79999999999995</ele><time>2026-04-11T16:46:13.001Z</time></trkpt><trkpt lat="38.82589900632043" lon="16.504350132265603"><ele>327.6</ele><time>2026-04-11T16:46:14.001Z</time></trkpt><trkpt lat="38.825951795675564" lon="16.504245659063887"><ele>327.4</ele><time>2026-04-11T16:46:15.001Z</time></trkpt><trkpt lat="38.82599733361819" lon="16.50414263270564"><ele>327.20000000000005</ele><time>2026-04-11T16:46:16.001Z</time></trkpt><trkpt lat="38.82607160247877" lon="16.504058253856204"><ele>327.0</ele><time>2026-04-11T16:46:17.001Z</time></trkpt><trkpt lat="38.82612027891451" lon="16.503954216201482"><ele>324.1666666666667</ele><time>2026-04-11T16:46:18.001Z</time></trkpt><trkpt lat="38.82616456067165" lon="16.503839726124788"><ele>321.3333333333333</ele><time>2026-04-11T16:46:19.001Z</time></trkpt><trkpt lat="38.826197379508855" lon="16.503721897273426"><ele>318.5</ele><time>2026-04-11T16:46:20.001Z</time></trkpt><trkpt lat="38.826199756638346" lon="16.503601982559644"><ele>315.66666666666663</ele><time>2026-04-11T16:46:21.001Z</time></trkpt><trkpt lat="38.826210330716926" lon="16.503496826006316"><ele>312.8333333333333</ele><time>2026-04-11T16:46:22.001Z</time></trkpt><trkpt lat="38.8262229751877" lon="16.503403755577242"><ele>310.0</ele><time>2026-04-11T16:46:23.001Z</time></trkpt><trkpt lat="38.82623995583643" lon="16.50324143521454"><ele>310.0</ele><time>2026-04-11T16:46:25.001Z</time></trkpt><trkpt lat="38.82627163718414" lon="16.503135855010722"><ele>310.0</ele><time>2026-04-11T16:46:26.001Z</time></trkpt><trkpt lat="38.826314093375316" lon="16.503017896257802"><ele>310.0</ele><time>2026-04-11T16:46:27.001Z</time></trkpt><trkpt lat="38.82638004123831" lon="16.50292389323128"><ele>310.0</ele><time>2026-04-11T16:46:28.001Z</time></trkpt><trkpt lat="38.82644862590687" lon="16.502846779288213"><ele>310.0</ele><time>2026-04-11T16:46:29.001Z</time></trkpt><trkpt lat="38.82652398836137" lon="16.50274572805412"><ele>310.0</ele><time>2026-04-11T16:46:30.001Z</time></trkpt><trkpt lat="38.82661455305625" lon="16.502654763853585"><ele>310.0</ele><time>2026-04-11T16:46:31.001Z</time></trkpt><trkpt lat="38.826723647060994" lon="16.50255660837582"><ele>310.0</ele><time>2026-04-11T16:46:32.001Z</time></trkpt><trkpt lat="38.826846194186444" lon="16.50247479489221"><ele>310.0</ele><time>2026-04-11T16:46:33.001Z</time></trkpt><trkpt lat="38.826969241540716" lon="16.50241144721104"><ele>307.75</ele><time>2026-04-11T16:46:34.001Z</time></trkpt><trkpt lat="38.82708126283217" lon="16.50236088767791"><ele>305.5</ele><time>2026-04-11T16:46:35.001Z</time></trkpt><trkpt lat="38.82719751788029" lon="16.502308769730625"><ele>303.25</ele><time>2026-04-11T16:46:36.001Z</time></trkpt><trkpt lat="38.82733177637543" lon="16.50225367634924"><ele>301.0</ele><time>2026-04-11T16:46:37.001Z</time></trkpt><trkpt lat="38.827474892397085" lon="16.502205876760513"><ele>301.0</ele><time>2026-04-11T16:46:38.001Z</time></trkpt><trkpt lat="38.82760664968133" lon="16.502183994592627"><ele>301.0</ele><time>2026-04-11T16:46:39.001Z</time></trkpt><trkpt lat="38.827735057843704" lon="16.502150698963373"><ele>301.0</ele><time>2026-04-11T16:46:40.001Z</time></trkpt><trkpt lat="38.82786143634312" lon="16.50217307056914"><ele>301.0</ele><time>2026-04-11T16:46:41.001Z</time></trkpt><trkpt lat="38.8279706785469" lon="16.502205005006196"><ele>301.5</ele><time>2026-04-11T16:46:42.001Z</time></trkpt><trkpt lat="38.82805558079518" lon="16.50226629542816"><ele>302.0</ele><time>2026-04-11T16:46:43.001Z</time></trkpt><trkpt lat="38.82811412311807" lon="16.50239822164127"><ele>302.5</ele><time>2026-04-11T16:46:44.001Z</time></trkpt><trkpt lat="38.82813143681401" lon="16.50257728810344"><ele>303.0</ele><time>2026-04-11T16:46:45.001Z</time></trkpt><trkpt lat="38.82811495683111" lon="16.502775146828697"><ele>301.75</ele><time>2026-04-11T16:46:46.001Z</time></trkpt><trkpt lat="38.82812289777669" lon="16.502959220062852"><ele>300.5</ele><time>2026-04-11T16:46:47.001Z</time></trkpt><trkpt lat="38.82818269579622" lon="16.503119640815054"><ele>299.25</ele><time>2026-04-11T16:46:48.001Z</time></trkpt><trkpt lat="38.82827722995691" lon="16.503264849759184"><ele>298.0</ele><time>2026-04-11T16:46:49.001Z</time></trkpt><trkpt lat="38.8284240894631" lon="16.50337357325871"><ele>296.3333333333333</ele><time>2026-04-11T16:46:50.001Z</time></trkpt><trkpt lat="38.82860050247616" lon="16.503477903577114"><ele>294.6666666666667</ele><time>2026-04-11T16:46:51.001Z</time></trkpt><trkpt lat="38.82875188732835" lon="16.5035681526628"><ele>293.0</ele><time>2026-04-11T16:46:52.001Z</time></trkpt><trkpt lat="38.82887809749022" lon="16.503612562321187"><ele>293.0</ele><time>2026-04-11T16:46:53.001Z</time></trkpt><trkpt lat="38.8289919084747" lon="16.503633009351674"><ele>293.0</ele><time>2026-04-11T16:46:54.001Z</time></trkpt><trkpt lat="38.82911074330896" lon="16.503532824363795"><ele>293.0</ele><time>2026-04-11T16:46:55.001Z</time></trkpt><trkpt lat="38.829207051494166" lon="16.503411956049465"><ele>293.0</ele><time>2026-04-11T16:46:56.001Z</time></trkpt><trkpt lat="38.82927932663042" lon="16.50332320733952"><ele>294.4</ele><time>2026-04-11T16:46:57.001Z</time></trkpt><trkpt lat="38.82935217219448" lon="16.503291278300647"><ele>295.8</ele><time>2026-04-11T16:46:58.001Z</time></trkpt><trkpt lat="38.82943185434835" lon="16.503342488748455"><ele>297.2</ele><time>2026-04-11T16:46:59.001Z</time></trkpt><trkpt lat="38.82948876738387" lon="16.503428420294536"><ele>298.6</ele><time>2026-04-11T16:47:00.001Z</time></trkpt><trkpt lat="38.82947639545078" lon="16.50357747838338"><ele>300.0</ele><time>2026-04-11T16:47:01.001Z</time></trkpt><trkpt lat="38.829393307484864" lon="16.503738408875634"><ele>301.0</ele><time>2026-04-11T16:47:02Z</time></trkpt><trkpt lat="38.82934847422804" lon="16.50394176875324"><ele>302.0</ele><time>2026-04-11T16:47:03Z</time></trkpt><trkpt lat="38.82933236413193" lon="16.504175166556436"><ele>303.0</ele><time>2026-04-11T16:47:04Z</time></trkpt><trkpt lat="38.82937185146187" lon="16.504427213001865"><ele>296.5</ele><time>2026-04-11T16:47:05Z</time></trkpt><trkpt lat="38.82945707283486" lon="16.504696045719275"><ele>290.0</ele><time>2026-04-11T16:47:06Z</time></trkpt><trkpt lat="38.82957560047628" lon="16.504973717044027"><ele>290.0</ele><time>2026-04-11T16:47:07Z</time></trkpt><trkpt lat="38.829688069439406" lon="16.505259702921347"><ele>290.0</ele><time>2026-04-11T16:47:08Z</time></trkpt><trkpt lat="38.82981371069748" lon="16.505566792194873"><ele>286.5</ele><time>2026-04-11T16:47:09Z</time></trkpt><trkpt lat="38.829954930194184" lon="16.50586278272872"><ele>283.0</ele><time>2026-04-11T16:47:10Z</time></trkpt><trkpt lat="38.830066794121876" lon="16.506152472963954"><ele>287.5</ele><time>2026-04-11T16:47:11Z</time></trkpt><trkpt lat="38.83016376224794" lon="16.506415965963974"><ele>292.0</ele><time>2026-04-11T16:47:12Z</time></trkpt><trkpt lat="38.83025718286082" lon="16.506707233172495"><ele>292.0</ele><time>2026-04-11T16:47:13Z</time></trkpt><trkpt lat="38.83036100227945" lon="16.50699214137086"><ele>292.0</ele><time>2026-04-11T16:47:14Z</time></trkpt><trkpt lat="38.83049056894131" lon="16.507266270894327"><ele>287.66666666666663</ele><time>2026-04-11T16:47:15Z</time></trkpt><trkpt lat="38.830586171166765" lon="16.50754957684641"><ele>283.3333333333333</ele><time>2026-04-11T16:47:16Z</time></trkpt><trkpt lat="38.83067760614625" lon="16.507779503657108"><ele>279.0</ele><time>2026-04-11T16:47:17Z</time></trkpt><trkpt lat="38.83076183708111" lon="16.507955708816866"><ele>278.3333333333333</ele><time>2026-04-11T16:47:18Z</time></trkpt><trkpt lat="38.83083826495088" lon="16.508124348274855"><ele>277.66666666666663</ele><time>2026-04-11T16:47:19Z</time></trkpt><trkpt lat="38.830946771982305" lon="16.50827309829594"><ele>277.0</ele><time>2026-04-11T16:47:20Z</time></trkpt><trkpt lat="38.831090810408824" lon="16.508381432395968"><ele>277.0</ele><time>2026-04-11T16:47:21Z</time></trkpt><trkpt lat="38.83123544353648" lon="16.508464236652003"><ele>277.0</ele><time>2026-04-11T16:47:22Z</time></trkpt><trkpt lat="38.83130485804939" lon="16.508613293489088"><ele>277.0</ele><time>2026-04-11T16:47:23Z</time></trkpt><trkpt lat="38.83137744999134" lon="16.50880006549577"><ele>271.3333333333333</ele><time>2026-04-11T16:47:24Z</time></trkpt><trkpt lat="38.831492742749596" lon="16.509008664431622"><ele>265.6666666666667</ele><time>2026-04-11T16:47:25Z</time></trkpt><trkpt lat="38.83162312400261" lon="16.50922513275226"><ele>260.0</ele><time>2026-04-11T16:47:26Z</time></trkpt><trkpt lat="38.83179314773873" lon="16.509424205341173"><ele>256.33333333333337</ele><time>2026-04-11T16:47:27Z</time></trkpt><trkpt lat="38.83190269080469" lon="16.50961493435405"><ele>252.66666666666669</ele><time>2026-04-11T16:47:28Z</time></trkpt><trkpt lat="38.83201618489565" lon="16.509791255751356"><ele>249.0</ele><time>2026-04-11T16:47:29Z</time></trkpt><trkpt lat="38.83214191594847" lon="16.50994854631947"><ele>249.0</ele><time>2026-04-11T16:47:30Z</time></trkpt><trkpt lat="38.83228328640719" lon="16.51007940512147"><ele>249.0</ele><time>2026-04-11T16:47:31Z</time></trkpt><trkpt lat="38.83239346914222" lon="16.51016444667112"><ele>249.0</ele><time>2026-04-11T16:47:32Z</time></trkpt><trkpt lat="38.83249220273756" lon="16.510207520416973"><ele>249.0</ele><time>2026-04-11T16:47:33Z</time></trkpt><trkpt lat="38.83260649958784" lon="16.51019219259991"><ele>247.66666666666669</ele><time>2026-04-11T16:47:34Z</time></trkpt><trkpt lat="38.832757371020634" lon="16.510105976844773"><ele>246.33333333333334</ele><time>2026-04-11T16:47:35Z</time></trkpt><trkpt lat="38.83292029404552" lon="16.50997328020619"><ele>245.0</ele><time>2026-04-11T16:47:36Z</time></trkpt><trkpt lat="38.833068211386" lon="16.509816546493152"><ele>245.0</ele><time>2026-04-11T16:47:37Z</time></trkpt><trkpt lat="38.833175474829396" lon="16.509634025437965"><ele>245.0</ele><time>2026-04-11T16:47:38Z</time></trkpt><trkpt lat="38.833268116188286" lon="16.509536078664915"><ele>245.0</ele><time>2026-04-11T16:47:39Z</time></trkpt><trkpt lat="38.833346186039016" lon="16.50951936271951"><ele>245.0</ele><time>2026-04-11T16:47:40Z</time></trkpt><trkpt lat="38.83341222036461" lon="16.50956213943029"><ele>245.0</ele><time>2026-04-11T16:47:41Z</time></trkpt><trkpt lat="38.8334466095074" lon="16.509658306792844"><ele>245.0</ele><time>2026-04-11T16:47:42Z</time></trkpt><trkpt lat="38.83346093328537" lon="16.509812497417197"><ele>245.0</ele><time>2026-04-11T16:47:43Z</time></trkpt><trkpt lat="38.83344261162462" lon="16.510016252451205"><ele>245.0</ele><time>2026-04-11T16:47:44Z</time></trkpt><trkpt lat="38.833446623838896" lon="16.510243600692778"><ele>247.75</ele><time>2026-04-11T16:47:45Z</time></trkpt><trkpt lat="38.833482812941725" lon="16.510427256727443"><ele>250.5</ele><time>2026-04-11T16:47:46Z</time></trkpt><trkpt lat="38.833573057776455" lon="16.510586381528043"><ele>253.25</ele><time>2026-04-11T16:47:47.001Z</time></trkpt><trkpt lat="38.8336663889724" lon="16.51071166503109"><ele>256.0</ele><time>2026-04-11T16:47:48.001Z</time></trkpt><trkpt lat="38.83367889882502" lon="16.510844460868988"><ele>256.0</ele><time>2026-04-11T16:47:49.001Z</time></trkpt><trkpt lat="38.83365267501248" lon="16.510939709804784"><ele>256.0</ele><time>2026-04-11T16:47:50.001Z</time></trkpt><trkpt lat="38.8335602089144" lon="16.511041066650243"><ele>256.0</ele><time>2026-04-11T16:47:51.001Z</time></trkpt><trkpt lat="38.833507294167745" lon="16.51120073597571"><ele>256.0</ele><time>2026-04-11T16:47:52.001Z</time></trkpt><trkpt lat="38.833505451442875" lon="16.511367522049103"><ele>256.3333333333333</ele><time>2026-04-11T16:47:53.001Z</time></trkpt><trkpt lat="38.83357345318524" lon="16.511569886027253"><ele>256.6666666666667</ele><time>2026-04-11T16:47:54.001Z</time></trkpt><trkpt lat="38.83365875037828" lon="16.51181895545882"><ele>257.0</ele><time>2026-04-11T16:47:55.001Z</time></trkpt><trkpt lat="38.833714693047206" lon="16.512038439294262"><ele>256.25</ele><time>2026-04-11T16:47:56.001Z</time></trkpt><trkpt lat="38.83374321512548" lon="16.51223586159156"><ele>255.5</ele><time>2026-04-11T16:47:57.001Z</time></trkpt><trkpt lat="38.833748335778346" lon="16.51240589834826"><ele>254.75</ele><time>2026-04-11T16:47:58.001Z</time></trkpt><trkpt lat="38.833713072114406" lon="16.512555332573857"><ele>254.0</ele><time>2026-04-11T16:47:59.001Z</time></trkpt><trkpt lat="38.83363436025763" lon="16.51276201821378"><ele>249.0</ele><time>2026-04-11T16:48:00.001Z</time></trkpt><trkpt lat="38.833597435565274" lon="16.51300199585853"><ele>244.0</ele><time>2026-04-11T16:48:01.001Z</time></trkpt><trkpt lat="38.83359778664973" lon="16.51321328612233"><ele>239.0</ele><time>2026-04-11T16:48:02.001Z</time></trkpt><trkpt lat="38.83364683317469" lon="16.51341974614571"><ele>239.0</ele><time>2026-04-11T16:48:03.001Z</time></trkpt><trkpt lat="38.83373795038732" lon="16.513627984874923"><ele>239.0</ele><time>2026-04-11T16:48:04.001Z</time></trkpt><trkpt lat="38.833842568907045" lon="16.51380245638839"><ele>239.0</ele><time>2026-04-11T16:48:05.001Z</time></trkpt><trkpt lat="38.83393070420333" lon="16.513898772975434"><ele>233.0</ele><time>2026-04-11T16:48:06.001Z</time></trkpt><trkpt lat="38.83402772133608" lon="16.513920255008074"><ele>227.0</ele><time>2026-04-11T16:48:07.001Z</time></trkpt><trkpt lat="38.83413634306979" lon="16.51388187135829"><ele>221.0</ele><time>2026-04-11T16:48:08.001Z</time></trkpt><trkpt lat="38.8342705986719" lon="16.513760023645805"><ele>215.0</ele><time>2026-04-11T16:48:09.001Z</time></trkpt><trkpt lat="38.83445444294945" lon="16.513611322355597"><ele>215.0</ele><time>2026-04-11T16:48:10.001Z</time></trkpt><trkpt lat="38.83466164183371" lon="16.513464857244927"><ele>215.0</ele><time>2026-04-11T16:48:11.001Z</time></trkpt><trkpt lat="38.83487217096758" lon="16.513321790255453"><ele>215.0</ele><time>2026-04-11T16:48:12.001Z</time></trkpt><trkpt lat="38.835089529699246" lon="16.513174016481223"><ele>215.0</ele><time>2026-04-11T16:48:13.001Z</time></trkpt><trkpt lat="38.83527091204332" lon="16.513058179050464"><ele>215.0</ele><time>2026-04-11T16:48:14.001Z</time></trkpt><trkpt lat="38.83542652377976" lon="16.51295948619655"><ele>219.0</ele><time>2026-04-11T16:48:15.001Z</time></trkpt><trkpt lat="38.83558396560573" lon="16.512862272239694"><ele>223.0</ele><time>2026-04-11T16:48:16.001Z</time></trkpt><trkpt lat="38.83577490299757" lon="16.51275474379123"><ele>227.0</ele><time>2026-04-11T16:48:17.001Z</time></trkpt><trkpt lat="38.83599088786353" lon="16.512696888080015"><ele>218.0</ele><time>2026-04-11T16:48:18.001Z</time></trkpt><trkpt lat="38.836174418297794" lon="16.51263012521167"><ele>209.0</ele><time>2026-04-11T16:48:19.001Z</time></trkpt><trkpt lat="38.83634659833431" lon="16.512562407852656"><ele>200.0</ele><time>2026-04-11T16:48:20.001Z</time></trkpt><trkpt lat="38.83647363269818" lon="16.512482883309854"><ele>200.0</ele><time>2026-04-11T16:48:21.001Z</time></trkpt><trkpt lat="38.83659827975191" lon="16.512374224917746"><ele>200.0</ele><time>2026-04-11T16:48:22.001Z</time></trkpt><trkpt lat="38.83667802831334" lon="16.5122452988777"><ele>200.0</ele><time>2026-04-11T16:48:23.001Z</time></trkpt><trkpt lat="38.83676428765926" lon="16.512094020537177"><ele>200.0</ele><time>2026-04-11T16:48:24.001Z</time></trkpt><trkpt lat="38.83684020259163" lon="16.511922861117032"><ele>194.66666666666669</ele><time>2026-04-11T16:48:25.001Z</time></trkpt><trkpt lat="38.83695506674141" lon="16.511796116142865"><ele>189.33333333333334</ele><time>2026-04-11T16:48:26.001Z</time></trkpt><trkpt lat="38.837019636869876" lon="16.511622392490853"><ele>184.0</ele><time>2026-04-11T16:48:27.001Z</time></trkpt><trkpt lat="38.83705621862932" lon="16.511390600785724"><ele>185.66666666666669</ele><time>2026-04-11T16:48:28.001Z</time></trkpt><trkpt lat="38.83713514539551" lon="16.51112794305311"><ele>187.33333333333334</ele><time>2026-04-11T16:48:29.001Z</time></trkpt><trkpt lat="38.83722170898957" lon="16.51086028550977"><ele>189.0</ele><time>2026-04-11T16:48:30.001Z</time></trkpt><trkpt lat="38.837295010905684" lon="16.510629034268792"><ele>189.0</ele><time>2026-04-11T16:48:31.001Z</time></trkpt><trkpt lat="38.83735575884454" lon="16.510444133562284"><ele>189.0</ele><time>2026-04-11T16:48:32.001Z</time></trkpt><trkpt lat="38.83740223061017" lon="16.51032269991266"><ele>189.0</ele><time>2026-04-11T16:48:33.001Z</time></trkpt><trkpt lat="38.83744396267997" lon="16.510238901967192"><ele>189.0</ele><time>2026-04-11T16:48:34.001Z</time></trkpt><trkpt lat="38.837529112660526" lon="16.510249686745688"><ele>189.0</ele><time>2026-04-11T16:48:36.001Z</time></trkpt><trkpt lat="38.83755058601602" lon="16.510380919374022"><ele>189.0</ele><time>2026-04-11T16:48:37.001Z</time></trkpt><trkpt lat="38.837511187550405" lon="16.510509122945138"><ele>189.0</ele><time>2026-04-11T16:48:38.001Z</time></trkpt><trkpt lat="38.83745324220068" lon="16.510651330429038"><ele>189.0</ele><time>2026-04-11T16:48:39.001Z</time></trkpt><trkpt lat="38.837401356243824" lon="16.51081648461581"><ele>189.0</ele><time>2026-04-11T16:48:40.001Z</time></trkpt><trkpt lat="38.837376190553655" lon="16.51096349765427"><ele>189.0</ele><time>2026-04-11T16:48:41.001Z</time></trkpt><trkpt lat="38.8373781065755" lon="16.511077952452087"><ele>189.0</ele><time>2026-04-11T16:48:42.001Z</time></trkpt><trkpt lat="38.8373820356699" lon="16.511163404179857"><ele>189.0</ele><time>2026-04-11T16:48:43.001Z</time></trkpt><trkpt lat="38.837493792021235" lon="16.511211579278573"><ele>189.0</ele><time>2026-04-11T16:48:44.001Z</time></trkpt><trkpt lat="38.83757531031575" lon="16.51124256142035"><ele>189.0</ele><time>2026-04-11T16:48:45.001Z</time></trkpt><trkpt lat="38.83767353413629" lon="16.511282912275664"><ele>189.0</ele><time>2026-04-11T16:48:46.001Z</time></trkpt><trkpt lat="38.8377820097731" lon="16.51134673423261"><ele>189.0</ele><time>2026-04-11T16:48:47.001Z</time></trkpt><trkpt lat="38.83789849455724" lon="16.51140195628474"><ele>189.0</ele><time>2026-04-11T16:48:48.001Z</time></trkpt><trkpt lat="38.83799143963603" lon="16.511466665051664"><ele>189.0</ele><time>2026-04-11T16:48:49.001Z</time></trkpt><trkpt lat="38.83807214664155" lon="16.511525710405962"><ele>189.0</ele><time>2026-04-11T16:48:50.001Z</time></trkpt><trkpt lat="38.83813263053442" lon="16.511599113179482"><ele>189.0</ele><time>2026-04-11T16:48:51.001Z</time></trkpt><trkpt lat="38.83816467551721" lon="16.511694397737582"><ele>189.0</ele><time>2026-04-11T16:48:52.001Z</time></trkpt><trkpt lat="38.838146427467976" lon="16.51180051436315"><ele>189.0</ele><time>2026-04-11T16:48:53.001Z</time></trkpt><trkpt lat="38.83808560188771" lon="16.511899158853744"><ele>189.0</ele><time>2026-04-11T16:48:54.001Z</time></trkpt><trkpt lat="38.83801209687795" lon="16.511989899608196"><ele>189.0</ele><time>2026-04-11T16:48:55.001Z</time></trkpt><trkpt lat="38.83793387544835" lon="16.512107157585174"><ele>190.0</ele><time>2026-04-11T16:48:56.001Z</time></trkpt><trkpt lat="38.83784421551475" lon="16.512238424574356"><ele>191.0</ele><time>2026-04-11T16:48:57.001Z</time></trkpt><trkpt lat="38.83778718353589" lon="16.512349006928606"><ele>192.0</ele><time>2026-04-11T16:48:58.001Z</time></trkpt><trkpt lat="38.837748156823835" lon="16.51246882191402"><ele>193.0</ele><time>2026-04-11T16:48:59.001Z</time></trkpt><trkpt lat="38.837726872389496" lon="16.512621818951303"><ele>193.0</ele><time>2026-04-11T16:49:00.001Z</time></trkpt><trkpt lat="38.83770517289328" lon="16.51278495078443"><ele>193.0</ele><time>2026-04-11T16:49:01.001Z</time></trkpt><trkpt lat="38.83766410759714" lon="16.51294109088203"><ele>193.0</ele><time>2026-04-11T16:49:02.001Z</time></trkpt><trkpt lat="38.83764281833738" lon="16.513081290666342"><ele>193.0</ele><time>2026-04-11T16:49:03.001Z</time></trkpt><trkpt lat="38.83762863483116" lon="16.51319860356135"><ele>191.0</ele><time>2026-04-11T16:49:04.001Z</time></trkpt><trkpt lat="38.837619407994225" lon="16.513301837461555"><ele>189.0</ele><time>2026-04-11T16:49:05.001Z</time></trkpt><trkpt lat="38.83761457234217" lon="16.51338530208795"><ele>187.0</ele><time>2026-04-11T16:49:06.001Z</time></trkpt><trkpt lat="38.8376087834879" lon="16.513485218953313"><ele>185.0</ele><time>2026-04-11T16:49:08.001Z</time></trkpt><trkpt lat="38.83761423785748" lon="16.513391075422554"><ele>183.0</ele><time>2026-04-11T16:51:07.001Z</time></trkpt><trkpt lat="38.837561479366535" lon="16.513847918102655"><ele>183.0</ele><time>2026-04-11T16:51:11.001Z</time></trkpt><trkpt lat="38.83752323186544" lon="16.51392523901086"><ele>183.0</ele><time>2026-04-11T16:51:12.001Z</time></trkpt><trkpt lat="38.837461708895624" lon="16.514012659413517"><ele>183.0</ele><time>2026-04-11T16:51:13.001Z</time></trkpt><trkpt lat="38.837375227675544" lon="16.514072717919646"><ele>183.0</ele><time>2026-04-11T16:51:14Z</time></trkpt><trkpt lat="38.83723925482015" lon="16.514147508686055"><ele>183.0</ele><time>2026-04-11T16:51:15Z</time></trkpt><trkpt lat="38.837115065534455" lon="16.514234269269625"><ele>183.0</ele><time>2026-04-11T16:51:16Z</time></trkpt><trkpt lat="38.83700768310057" lon="16.514344467446776"><ele>183.0</ele><time>2026-04-11T16:51:17Z</time></trkpt><trkpt lat="38.83691978101768" lon="16.514435155477585"><ele>183.0</ele><time>2026-04-11T16:51:18Z</time></trkpt><trkpt lat="38.83684071406855" lon="16.514504126532724"><ele>183.0</ele><time>2026-04-11T16:51:19Z</time></trkpt><trkpt lat="38.83676766538771" lon="16.514554208468226"><ele>183.0</ele><time>2026-04-11T16:51:20Z</time></trkpt><trkpt lat="38.83667687021713" lon="16.51460648787963"><ele>183.5</ele><time>2026-04-11T16:51:21Z</time></trkpt><trkpt lat="38.8365568838983" lon="16.51466432740974"><ele>184.0</ele><time>2026-04-11T16:51:22Z</time></trkpt><trkpt lat="38.83647236254592" lon="16.51471465079838"><ele>184.5</ele><time>2026-04-11T16:51:23Z</time></trkpt><trkpt lat="38.8363066179866" lon="16.514800551393307"><ele>185.0</ele><time>2026-04-11T16:51:24Z</time></trkpt><trkpt lat="38.83617920988483" lon="16.514901777677395"><ele>185.0</ele><time>2026-04-11T16:51:25Z</time></trkpt><trkpt lat="38.83606757714598" lon="16.515011169420827"><ele>185.0</ele><time>2026-04-11T16:51:26Z</time></trkpt><trkpt lat="38.835990992579326" lon="16.515105503978482"><ele>185.0</ele><time>2026-04-11T16:51:27Z</time></trkpt><trkpt lat="38.8359119842805" lon="16.51520160374176"><ele>185.0</ele><time>2026-04-11T16:51:28Z</time></trkpt><trkpt lat="38.83583951171955" lon="16.51528327764927"><ele>184.6</ele><time>2026-04-11T16:51:29Z</time></trkpt><trkpt lat="38.835749458297066" lon="16.515340643240148"><ele>184.2</ele><time>2026-04-11T16:51:30Z</time></trkpt><trkpt lat="38.835658108432426" lon="16.515377073025068"><ele>183.8</ele><time>2026-04-11T16:51:31Z</time></trkpt><trkpt lat="38.8355391784319" lon="16.51539592256285"><ele>183.4</ele><time>2026-04-11T16:51:32Z</time></trkpt><trkpt lat="38.835409800994476" lon="16.515411609952793"><ele>183.0</ele><time>2026-04-11T16:51:33Z</time></trkpt><trkpt lat="38.835294518656056" lon="16.51543114558047"><ele>183.0</ele><time>2026-04-11T16:51:34Z</time></trkpt><trkpt lat="38.83519172497922" lon="16.515479372317838"><ele>183.0</ele><time>2026-04-11T16:51:35Z</time></trkpt><trkpt lat="38.83510388542591" lon="16.515583411804453"><ele>183.0</ele><time>2026-04-11T16:51:36Z</time></trkpt><trkpt lat="38.835018363120916" lon="16.515714255632414"><ele>183.0</ele><time>2026-04-11T16:51:37Z</time></trkpt><trkpt lat="38.83493879199812" lon="16.51590595727035"><ele>182.0</ele><time>2026-04-11T16:51:38Z</time></trkpt><trkpt lat="38.834857975259176" lon="16.516111466230782"><ele>181.0</ele><time>2026-04-11T16:51:39Z</time></trkpt><trkpt lat="38.834758225964265" lon="16.516327025721555"><ele>180.0</ele><time>2026-04-11T16:51:40Z</time></trkpt><trkpt lat="38.83467331661957" lon="16.51657944561434"><ele>180.0</ele><time>2026-04-11T16:51:41Z</time></trkpt><trkpt lat="38.83460126934941" lon="16.516860419462574"><ele>180.0</ele><time>2026-04-11T16:51:42Z</time></trkpt><trkpt lat="38.83451206647236" lon="16.51711742463407"><ele>175.5</ele><time>2026-04-11T16:51:43Z</time></trkpt><trkpt lat="38.83436318368043" lon="16.51739964821834"><ele>171.0</ele><time>2026-04-11T16:51:44Z</time></trkpt><trkpt lat="38.83427704917448" lon="16.517634012182608"><ele>171.0</ele><time>2026-04-11T16:51:45Z</time></trkpt><trkpt lat="38.83421860146173" lon="16.51780325154792"><ele>171.0</ele><time>2026-04-11T16:51:46Z</time></trkpt><trkpt lat="38.83417503090409" lon="16.51798448585152"><ele>171.0</ele><time>2026-04-11T16:51:47Z</time></trkpt><trkpt lat="38.83417592412103" lon="16.518202344517537"><ele>172.0</ele><time>2026-04-11T16:51:48Z</time></trkpt><trkpt lat="38.83420695727902" lon="16.518429803777405"><ele>173.0</ele><time>2026-04-11T16:51:49Z</time></trkpt><trkpt lat="38.83415829095025" lon="16.518609265419137"><ele>174.0</ele><time>2026-04-11T16:51:50Z</time></trkpt><trkpt lat="38.834088978640295" lon="16.51882629264539"><ele>174.33333333333334</ele><time>2026-04-11T16:51:51Z</time></trkpt><trkpt lat="38.83403058230755" lon="16.519091983206923"><ele>174.66666666666669</ele><time>2026-04-11T16:51:52Z</time></trkpt><trkpt lat="38.83396617847306" lon="16.519377611475047"><ele>175.0</ele><time>2026-04-11T16:51:53Z</time></trkpt><trkpt lat="38.83391325716816" lon="16.519663821380064"><ele>175.0</ele><time>2026-04-11T16:51:54Z</time></trkpt><trkpt lat="38.833875412852265" lon="16.519854677205334"><ele>175.0</ele><time>2026-04-11T16:51:55Z</time></trkpt><trkpt lat="38.833856202597275" lon="16.520034207766138"><ele>175.0</ele><time>2026-04-11T16:51:56Z</time></trkpt><trkpt lat="38.833858248286845" lon="16.52027246481123"><ele>173.0</ele><time>2026-04-11T16:51:57Z</time></trkpt><trkpt lat="38.833897113185934" lon="16.520538926395325"><ele>171.0</ele><time>2026-04-11T16:51:58Z</time></trkpt><trkpt lat="38.83396054076046" lon="16.520821708884025"><ele>169.0</ele><time>2026-04-11T16:51:59Z</time></trkpt><trkpt lat="38.83401978327893" lon="16.521081031221666"><ele>167.0</ele><time>2026-04-11T16:52:00Z</time></trkpt><trkpt lat="38.83406395073849" lon="16.521346900515105"><ele>165.0</ele><time>2026-04-11T16:52:01Z</time></trkpt><trkpt lat="38.83410846951847" lon="16.521586049787906"><ele>163.0</ele><time>2026-04-11T16:52:02Z</time></trkpt><trkpt lat="38.83415348733655" lon="16.521816182352506"><ele>163.0</ele><time>2026-04-11T16:52:03Z</time></trkpt><trkpt lat="38.83419332060569" lon="16.52203264065008"><ele>163.0</ele><time>2026-04-11T16:52:04Z</time></trkpt><trkpt lat="38.834232879779755" lon="16.522246563761595"><ele>163.0</ele><time>2026-04-11T16:52:05Z</time></trkpt><trkpt lat="38.834288609946796" lon="16.522455508836828"><ele>164.33333333333334</ele><time>2026-04-11T16:52:06Z</time></trkpt><trkpt lat="38.83436839550129" lon="16.522667792717257"><ele>165.66666666666666</ele><time>2026-04-11T16:52:07Z</time></trkpt><trkpt lat="38.83446072545004" lon="16.522838413012096"><ele>167.0</ele><time>2026-04-11T16:52:08Z</time></trkpt><trkpt lat="38.83455330292703" lon="16.522994653902533"><ele>167.0</ele><time>2026-04-11T16:52:09Z</time></trkpt><trkpt lat="38.83463675750172" lon="16.52313491219466"><ele>167.0</ele><time>2026-04-11T16:52:10Z</time></trkpt><trkpt lat="38.83466552204541" lon="16.523239244543365"><ele>167.0</ele><time>2026-04-11T16:52:11Z</time></trkpt><trkpt lat="38.834650504207374" lon="16.52336439932961"><ele>167.0</ele><time>2026-04-11T16:52:12Z</time></trkpt><trkpt lat="38.83455799242544" lon="16.523451750453816"><ele>167.0</ele><time>2026-04-11T16:52:13Z</time></trkpt><trkpt lat="38.83448628061065" lon="16.523582382220688"><ele>167.0</ele><time>2026-04-11T16:52:14Z</time></trkpt><trkpt lat="38.83443133527072" lon="16.52371856409866"><ele>167.0</ele><time>2026-04-11T16:52:15Z</time></trkpt><trkpt lat="38.834370689831985" lon="16.523837292772814"><ele>167.0</ele><time>2026-04-11T16:52:16Z</time></trkpt><trkpt lat="38.83433672323901" lon="16.523966222487815"><ele>167.0</ele><time>2026-04-11T16:52:17Z</time></trkpt><trkpt lat="38.83433897056754" lon="16.524098496974798"><ele>167.0</ele><time>2026-04-11T16:52:18Z</time></trkpt><trkpt lat="38.83438025436058" lon="16.524222341210383"><ele>166.2</ele><time>2026-04-11T16:52:19Z</time></trkpt><trkpt lat="38.83447678938387" lon="16.52432159875952"><ele>165.39999999999998</ele><time>2026-04-11T16:52:20Z</time></trkpt><trkpt lat="38.83457006794603" lon="16.52438585228111"><ele>164.60000000000002</ele><time>2026-04-11T16:52:21Z</time></trkpt><trkpt lat="38.83465959238455" lon="16.52446136757527"><ele>163.8</ele><time>2026-04-11T16:52:22Z</time></trkpt><trkpt lat="38.834707385271955" lon="16.524574150333308"><ele>163.0</ele><time>2026-04-11T16:52:23Z</time></trkpt><trkpt lat="38.83469447369187" lon="16.524743655009413"><ele>161.0</ele><time>2026-04-11T16:52:24Z</time></trkpt><trkpt lat="38.834701072041575" lon="16.524958491687887"><ele>159.0</ele><time>2026-04-11T16:52:25Z</time></trkpt><trkpt lat="38.83470915609634" lon="16.525210579455543"><ele>157.0</ele><time>2026-04-11T16:52:26Z</time></trkpt><trkpt lat="38.83472789781517" lon="16.525491695771414"><ele>155.33333333333334</ele><time>2026-04-11T16:52:27Z</time></trkpt><trkpt lat="38.83472511172518" lon="16.525766887054665"><ele>153.66666666666666</ele><time>2026-04-11T16:52:28Z</time></trkpt><trkpt lat="38.834732905821035" lon="16.52600769855685"><ele>152.0</ele><time>2026-04-11T16:52:29Z</time></trkpt><trkpt lat="38.834746601648035" lon="16.526201427369354"><ele>150.25</ele><time>2026-04-11T16:52:30Z</time></trkpt><trkpt lat="38.83476665801804" lon="16.526355643889055"><ele>148.5</ele><time>2026-04-11T16:52:31Z</time></trkpt><trkpt lat="38.83481234174679" lon="16.52648467238304"><ele>146.75</ele><time>2026-04-11T16:52:32Z</time></trkpt><trkpt lat="38.8349254431254" lon="16.52659130722949"><ele>145.0</ele><time>2026-04-11T16:52:33Z</time></trkpt><trkpt lat="38.83508564807461" lon="16.526746632966773"><ele>144.0</ele><time>2026-04-11T16:52:34Z</time></trkpt><trkpt lat="38.83527467036432" lon="16.52689612352317"><ele>143.0</ele><time>2026-04-11T16:52:35Z</time></trkpt><trkpt lat="38.83546776219788" lon="16.527074444344212"><ele>143.0</ele><time>2026-04-11T16:52:36Z</time></trkpt><trkpt lat="38.835655056057284" lon="16.527249659987614"><ele>143.0</ele><time>2026-04-11T16:52:37Z</time></trkpt><trkpt lat="38.83581643303396" lon="16.52740115986841"><ele>143.0</ele><time>2026-04-11T16:52:38Z</time></trkpt><trkpt lat="38.835901727475935" lon="16.527533509217374"><ele>143.0</ele><time>2026-04-11T16:52:39Z</time></trkpt><trkpt lat="38.835943548648466" lon="16.527628726336033"><ele>143.0</ele><time>2026-04-11T16:52:40Z</time></trkpt><trkpt lat="38.8359459586233" lon="16.527743087723856"><ele>143.0</ele><time>2026-04-11T16:52:41Z</time></trkpt><trkpt lat="38.835882475005896" lon="16.527896098413837"><ele>143.0</ele><time>2026-04-11T16:52:42Z</time></trkpt><trkpt lat="38.835827133919615" lon="16.528116587430286"><ele>142.33333333333331</ele><time>2026-04-11T16:52:43Z</time></trkpt><trkpt lat="38.835782865468694" lon="16.528337707409634"><ele>141.66666666666666</ele><time>2026-04-11T16:52:44Z</time></trkpt><trkpt lat="38.83579323651342" lon="16.52860995328596"><ele>141.0</ele><time>2026-04-11T16:52:45Z</time></trkpt><trkpt lat="38.835832783891654" lon="16.528920893224182"><ele>140.5</ele><time>2026-04-11T16:52:46Z</time></trkpt><trkpt lat="38.83585049140829" lon="16.52922585360036"><ele>140.0</ele><time>2026-04-11T16:52:47Z</time></trkpt><trkpt lat="38.83584767716673" lon="16.529509823088294"><ele>139.0</ele><time>2026-04-11T16:52:48Z</time></trkpt><trkpt lat="38.83587964661433" lon="16.52976230121645"><ele>138.0</ele><time>2026-04-11T16:52:49Z</time></trkpt><trkpt lat="38.83593785975169" lon="16.530022341350204"><ele>137.0</ele><time>2026-04-11T16:52:50Z</time></trkpt><trkpt lat="38.83602933239125" lon="16.530308595131473"><ele>139.0</ele><time>2026-04-11T16:52:51Z</time></trkpt><trkpt lat="38.83608118999904" lon="16.53055949135116"><ele>141.0</ele><time>2026-04-11T16:52:52Z</time></trkpt><trkpt lat="38.83611080906657" lon="16.53083831042362"><ele>143.0</ele><time>2026-04-11T16:52:53Z</time></trkpt><trkpt lat="38.836148962968565" lon="16.53115194257681"><ele>141.33333333333331</ele><time>2026-04-11T16:52:54Z</time></trkpt><trkpt lat="38.83615927754095" lon="16.531445420962907"><ele>139.66666666666666</ele><time>2026-04-11T16:52:55Z</time></trkpt><trkpt lat="38.83617439284103" lon="16.5316890330039"><ele>138.0</ele><time>2026-04-11T16:52:56Z</time></trkpt><trkpt lat="38.83619096863865" lon="16.531906431233484"><ele>139.25</ele><time>2026-04-11T16:52:57Z</time></trkpt><trkpt lat="38.83619784923528" lon="16.532082753573235"><ele>140.5</ele><time>2026-04-11T16:52:58Z</time></trkpt><trkpt lat="38.836186888602384" lon="16.532213960716994"><ele>141.75</ele><time>2026-04-11T16:52:59Z</time></trkpt><trkpt lat="38.83611143551361" lon="16.532331239558097"><ele>143.0</ele><time>2026-04-11T16:53:00Z</time></trkpt><trkpt lat="38.83597932263484" lon="16.532417333950125"><ele>140.33333333333331</ele><time>2026-04-11T16:53:01Z</time></trkpt><trkpt lat="38.835808396324175" lon="16.532525326105834"><ele>137.66666666666666</ele><time>2026-04-11T16:53:02Z</time></trkpt><trkpt lat="38.83562372773729" lon="16.532649168338107"><ele>135.0</ele><time>2026-04-11T16:53:03Z</time></trkpt><trkpt lat="38.83545806847724" lon="16.532748004420036"><ele>135.0</ele><time>2026-04-11T16:53:04Z</time></trkpt><trkpt lat="38.8353386513394" lon="16.532851578329936"><ele>135.0</ele><time>2026-04-11T16:53:05Z</time></trkpt><trkpt lat="38.83520906877466" lon="16.5330040106711"><ele>135.0</ele><time>2026-04-11T16:53:06Z</time></trkpt><trkpt lat="38.83506426005471" lon="16.533225394341596"><ele>135.0</ele><time>2026-04-11T16:53:07Z</time></trkpt><trkpt lat="38.834918527530405" lon="16.533469851912837"><ele>135.0</ele><time>2026-04-11T16:53:08Z</time></trkpt><trkpt lat="38.834767471591285" lon="16.533714993232497"><ele>139.5</ele><time>2026-04-11T16:53:09Z</time></trkpt><trkpt lat="38.83463616098245" lon="16.53394850750048"><ele>144.0</ele><time>2026-04-11T16:53:10Z</time></trkpt><trkpt lat="38.83451550679255" lon="16.53420911589401"><ele>144.0</ele><time>2026-04-11T16:53:11Z</time></trkpt><trkpt lat="38.83444029282726" lon="16.53443098561226"><ele>144.0</ele><time>2026-04-11T16:53:12Z</time></trkpt><trkpt lat="38.83439190407454" lon="16.534562363302207"><ele>144.0</ele><time>2026-04-11T16:53:13Z</time></trkpt><trkpt lat="38.83432677370578" lon="16.534647589865994"><ele>144.0</ele><time>2026-04-11T16:53:14Z</time></trkpt><trkpt lat="38.83422128302239" lon="16.534659924195307"><ele>140.75</ele><time>2026-04-11T16:53:15Z</time></trkpt><trkpt lat="38.83410540219787" lon="16.53462991109749"><ele>137.5</ele><time>2026-04-11T16:53:16Z</time></trkpt><trkpt lat="38.83393573397592" lon="16.534618304927015"><ele>134.25</ele><time>2026-04-11T16:53:17Z</time></trkpt><trkpt lat="38.83378300648192" lon="16.53464569967972"><ele>131.0</ele><time>2026-04-11T16:53:18Z</time></trkpt><trkpt lat="38.83365908714534" lon="16.53470124369765"><ele>131.0</ele><time>2026-04-11T16:53:19Z</time></trkpt><trkpt lat="38.8335636269897" lon="16.534849162009333"><ele>131.0</ele><time>2026-04-11T16:53:20Z</time></trkpt><trkpt lat="38.83345973049209" lon="16.535051778566533"><ele>131.0</ele><time>2026-04-11T16:53:21Z</time></trkpt><trkpt lat="38.83336056839484" lon="16.535350767805614"><ele>128.5</ele><time>2026-04-11T16:53:22Z</time></trkpt><trkpt lat="38.83327518517952" lon="16.53563091591818"><ele>126.0</ele><time>2026-04-11T16:53:23Z</time></trkpt><trkpt lat="38.833178931543145" lon="16.535928475424384"><ele>128.0</ele><time>2026-04-11T16:53:24Z</time></trkpt><trkpt lat="38.833089581486234" lon="16.53623167207304"><ele>130.0</ele><time>2026-04-11T16:53:25Z</time></trkpt><trkpt lat="38.832992419573586" lon="16.536505130747994"><ele>130.0</ele><time>2026-04-11T16:53:26Z</time></trkpt><trkpt lat="38.832902678810285" lon="16.536758713102277"><ele>130.0</ele><time>2026-04-11T16:53:27Z</time></trkpt><trkpt lat="38.832817911420904" lon="16.53701465086222"><ele>130.0</ele><time>2026-04-11T16:53:28Z</time></trkpt><trkpt lat="38.83272866248834" lon="16.537273054254918"><ele>128.33333333333334</ele><time>2026-04-11T16:53:29Z</time></trkpt><trkpt lat="38.83261777435432" lon="16.53748908361417"><ele>126.66666666666666</ele><time>2026-04-11T16:53:30Z</time></trkpt><trkpt lat="38.83250668688578" lon="16.537687874373407"><ele>125.0</ele><time>2026-04-11T16:53:31Z</time></trkpt><trkpt lat="38.832379529647746" lon="16.537881778863625"><ele>127.33333333333333</ele><time>2026-04-11T16:53:32Z</time></trkpt><trkpt lat="38.83225016011095" lon="16.538040076313365"><ele>129.66666666666666</ele><time>2026-04-11T16:53:33Z</time></trkpt><trkpt lat="38.83211135874812" lon="16.538133753680054"><ele>132.0</ele><time>2026-04-11T16:53:34Z</time></trkpt><trkpt lat="38.831973346036825" lon="16.53818924479985"><ele>132.0</ele><time>2026-04-11T16:53:35Z</time></trkpt><trkpt lat="38.831812701913485" lon="16.53821039653095"><ele>132.0</ele><time>2026-04-11T16:53:36Z</time></trkpt><trkpt lat="38.83161777233481" lon="16.53820401451849"><ele>132.0</ele><time>2026-04-11T16:53:37Z</time></trkpt><trkpt lat="38.831392006704846" lon="16.538196058615046"><ele>127.5</ele><time>2026-04-11T16:53:38Z</time></trkpt><trkpt lat="38.83115438936317" lon="16.538187746474897"><ele>123.0</ele><time>2026-04-11T16:53:39Z</time></trkpt><trkpt lat="38.83090393357752" lon="16.538176684649834"><ele>122.5</ele><time>2026-04-11T16:53:40Z</time></trkpt><trkpt lat="38.83064547754616" lon="16.53818108700267"><ele>122.0</ele><time>2026-04-11T16:53:41Z</time></trkpt><trkpt lat="38.830441466727166" lon="16.53816853499749"><ele>122.0</ele><time>2026-04-11T16:53:42Z</time></trkpt><trkpt lat="38.83025677317962" lon="16.53816289109037"><ele>122.0</ele><time>2026-04-11T16:53:43Z</time></trkpt><trkpt lat="38.830075452076976" lon="16.538170290167695"><ele>122.0</ele><time>2026-04-11T16:53:44Z</time></trkpt><trkpt lat="38.82991702839772" lon="16.538236465830813"><ele>122.0</ele><time>2026-04-11T16:53:45Z</time></trkpt><trkpt lat="38.829770527913126" lon="16.538359543114638"><ele>122.0</ele><time>2026-04-11T16:53:46Z</time></trkpt><trkpt lat="38.8296417995039" lon="16.53852597112149"><ele>122.0</ele><time>2026-04-11T16:53:47Z</time></trkpt><trkpt lat="38.829547320337284" lon="16.538745309204693"><ele>119.5</ele><time>2026-04-11T16:53:48Z</time></trkpt><trkpt lat="38.82946599539291" lon="16.5390076616912"><ele>117.0</ele><time>2026-04-11T16:53:49Z</time></trkpt><trkpt lat="38.82941430869668" lon="16.539303708799448"><ele>118.0</ele><time>2026-04-11T16:53:50Z</time></trkpt><trkpt lat="38.829345590587664" lon="16.539592359606722"><ele>119.0</ele><time>2026-04-11T16:53:51Z</time></trkpt><trkpt lat="38.82928973238298" lon="16.539845726963907"><ele>120.0</ele><time>2026-04-11T16:53:52Z</time></trkpt><trkpt lat="38.82923606543912" lon="16.540069648913722"><ele>120.0</ele><time>2026-04-11T16:53:53Z</time></trkpt><trkpt lat="38.829184627409134" lon="16.540227920527187"><ele>120.0</ele><time>2026-04-11T16:53:54Z</time></trkpt><trkpt lat="38.82910482371694" lon="16.54035122897243"><ele>120.0</ele><time>2026-04-11T16:53:55Z</time></trkpt><trkpt lat="38.828973226745745" lon="16.54048039382762"><ele>120.0</ele><time>2026-04-11T16:53:56Z</time></trkpt><trkpt lat="38.82880452199124" lon="16.540613675209176"><ele>121.5</ele><time>2026-04-11T16:53:57Z</time></trkpt><trkpt lat="38.82862203768057" lon="16.540775635300058"><ele>123.0</ele><time>2026-04-11T16:53:58Z</time></trkpt><trkpt lat="38.82842708522113" lon="16.540931063783887"><ele>123.0</ele><time>2026-04-11T16:53:59Z</time></trkpt><trkpt lat="38.82821708544363" lon="16.541106798153304"><ele>123.0</ele><time>2026-04-11T16:54:00Z</time></trkpt><trkpt lat="38.82798598583731" lon="16.541268524387057"><ele>122.0</ele><time>2026-04-11T16:54:01Z</time></trkpt><trkpt lat="38.82776112360576" lon="16.541473116251705"><ele>121.0</ele><time>2026-04-11T16:54:02Z</time></trkpt><trkpt lat="38.827543343270094" lon="16.541639011559806"><ele>121.0</ele><time>2026-04-11T16:54:03Z</time></trkpt><trkpt lat="38.82736982642386" lon="16.54178453684217"><ele>121.0</ele><time>2026-04-11T16:54:04Z</time></trkpt><trkpt lat="38.82719969356582" lon="16.541918729070233"><ele>121.0</ele><time>2026-04-11T16:54:05Z</time></trkpt><trkpt lat="38.827034879482646" lon="16.542036850278176"><ele>122.66666666666667</ele><time>2026-04-11T16:54:06Z</time></trkpt><trkpt lat="38.82688685539721" lon="16.54217342275193"><ele>124.33333333333334</ele><time>2026-04-11T16:54:07Z</time></trkpt><trkpt lat="38.82676831503459" lon="16.5423368700763"><ele>126.0</ele><time>2026-04-11T16:54:08Z</time></trkpt><trkpt lat="38.82665307986805" lon="16.542520742343786"><ele>126.0</ele><time>2026-04-11T16:54:09Z</time></trkpt><trkpt lat="38.8265494759806" lon="16.542765614495522"><ele>126.0</ele><time>2026-04-11T16:54:10Z</time></trkpt><trkpt lat="38.8264602982459" lon="16.543045374098526"><ele>120.66666666666666</ele><time>2026-04-11T16:54:11Z</time></trkpt><trkpt lat="38.82641168251791" lon="16.54332050359893"><ele>115.33333333333333</ele><time>2026-04-11T16:54:12Z</time></trkpt><trkpt lat="38.826396005369766" lon="16.543594292654213"><ele>110.0</ele><time>2026-04-11T16:54:13Z</time></trkpt><trkpt lat="38.826427043183315" lon="16.543872666246884"><ele>109.0</ele><time>2026-04-11T16:54:14Z</time></trkpt><trkpt lat="38.82647698596623" lon="16.544120016803866"><ele>108.0</ele><time>2026-04-11T16:54:15Z</time></trkpt><trkpt lat="38.82648896193161" lon="16.544347981695395"><ele>107.0</ele><time>2026-04-11T16:54:16Z</time></trkpt><trkpt lat="38.82648526375816" lon="16.544573500404752"><ele>105.0</ele><time>2026-04-11T16:54:17Z</time></trkpt><trkpt lat="38.82646050390375" lon="16.544849172424875"><ele>103.0</ele><time>2026-04-11T16:54:18Z</time></trkpt><trkpt lat="38.82642546932462" lon="16.54515398369499"><ele>99.5</ele><time>2026-04-11T16:54:19Z</time></trkpt><trkpt lat="38.82636351992921" lon="16.545480674180485"><ele>96.0</ele><time>2026-04-11T16:54:20Z</time></trkpt><trkpt lat="38.82630131961218" lon="16.545820083249406"><ele>96.0</ele><time>2026-04-11T16:54:21Z</time></trkpt><trkpt lat="38.82623793990053" lon="16.54617206035455"><ele>96.0</ele><time>2026-04-11T16:54:22Z</time></trkpt><trkpt lat="38.82617973287381" lon="16.546490667006193"><ele>96.0</ele><time>2026-04-11T16:54:23Z</time></trkpt><trkpt lat="38.826126998950706" lon="16.5467853167031"><ele>96.0</ele><time>2026-04-11T16:54:24Z</time></trkpt><trkpt lat="38.82606879304249" lon="16.547087978506198"><ele>96.0</ele><time>2026-04-11T16:54:25Z</time></trkpt><trkpt lat="38.825998509592175" lon="16.547406410668607"><ele>96.0</ele><time>2026-04-11T16:54:26Z</time></trkpt><trkpt lat="38.82593768209818" lon="16.547733410521722"><ele>96.5</ele><time>2026-04-11T16:54:27Z</time></trkpt><trkpt lat="38.8258862498134" lon="16.54807211404755"><ele>97.0</ele><time>2026-04-11T16:54:28Z</time></trkpt><trkpt lat="38.82581046029245" lon="16.548406195007768"><ele>96.0</ele><time>2026-04-11T16:54:29Z</time></trkpt><trkpt lat="38.825731271712975" lon="16.54872879209671"><ele>95.0</ele><time>2026-04-11T16:54:30Z</time></trkpt><trkpt lat="38.825637346916224" lon="16.54903176974381"><ele>95.0</ele><time>2026-04-11T16:54:31Z</time></trkpt><trkpt lat="38.825529059629694" lon="16.549334273871604"><ele>95.0</ele><time>2026-04-11T16:54:32Z</time></trkpt><trkpt lat="38.8254169689867" lon="16.549626052344458"><ele>95.5</ele><time>2026-04-11T16:54:33Z</time></trkpt><trkpt lat="38.82528392883129" lon="16.54992327487751"><ele>96.0</ele><time>2026-04-11T16:54:34Z</time></trkpt><trkpt lat="38.825130411055" lon="16.55023554836181"><ele>90.5</ele><time>2026-04-11T16:54:35Z</time></trkpt><trkpt lat="38.824980179717315" lon="16.55053034098514"><ele>85.0</ele><time>2026-04-11T16:54:36Z</time></trkpt><trkpt lat="38.82485004695124" lon="16.550770025960087"><ele>85.0</ele><time>2026-04-11T16:54:37Z</time></trkpt><trkpt lat="38.82473142511104" lon="16.550990298294682"><ele>85.0</ele><time>2026-04-11T16:54:38Z</time></trkpt><trkpt lat="38.82461986664596" lon="16.55119959630333"><ele>85.0</ele><time>2026-04-11T16:54:39Z</time></trkpt><trkpt lat="38.82450602073554" lon="16.551400301801344"><ele>85.33333333333333</ele><time>2026-04-11T16:54:40Z</time></trkpt><trkpt lat="38.82440300337178" lon="16.551593006462838"><ele>85.66666666666667</ele><time>2026-04-11T16:54:41Z</time></trkpt><trkpt lat="38.824317415096324" lon="16.551807929567033"><ele>86.0</ele><time>2026-04-11T16:54:42Z</time></trkpt><trkpt lat="38.824253933319646" lon="16.552063597931213"><ele>84.5</ele><time>2026-04-11T16:54:43Z</time></trkpt><trkpt lat="38.824210804594856" lon="16.552361061801772"><ele>83.0</ele><time>2026-04-11T16:54:44Z</time></trkpt><trkpt lat="38.82419461982788" lon="16.552685053822557"><ele>82.5</ele><time>2026-04-11T16:54:45Z</time></trkpt><trkpt lat="38.824209700311414" lon="16.553022714834853"><ele>82.0</ele><time>2026-04-11T16:54:46Z</time></trkpt><trkpt lat="38.82424693223533" lon="16.553363083597127"><ele>82.0</ele><time>2026-04-11T16:54:47Z</time></trkpt><trkpt lat="38.82429289765138" lon="16.55368352045361"><ele>82.0</ele><time>2026-04-11T16:54:48Z</time></trkpt><trkpt lat="38.82433482725884" lon="16.553973507485605"><ele>80.33333333333333</ele><time>2026-04-11T16:54:49Z</time></trkpt><trkpt lat="38.82434930825718" lon="16.554241060922767"><ele>78.66666666666667</ele><time>2026-04-11T16:54:50Z</time></trkpt><trkpt lat="38.82432456113857" lon="16.554519496833333"><ele>77.0</ele><time>2026-04-11T16:54:51Z</time></trkpt><trkpt lat="38.824264055198405" lon="16.554768959792902"><ele>77.0</ele><time>2026-04-11T16:54:52Z</time></trkpt><trkpt lat="38.824174969240694" lon="16.554991611815378"><ele>77.0</ele><time>2026-04-11T16:54:53Z</time></trkpt><trkpt lat="38.824057138810296" lon="16.555186578992068"><ele>77.0</ele><time>2026-04-11T16:54:54Z</time></trkpt><trkpt lat="38.823907150337824" lon="16.555355983504537"><ele>74.5</ele><time>2026-04-11T16:54:55Z</time></trkpt><trkpt lat="38.82372616991631" lon="16.55551215335277"><ele>72.0</ele><time>2026-04-11T16:54:56Z</time></trkpt><trkpt lat="38.82351326224403" lon="16.55564952038178"><ele>73.0</ele><time>2026-04-11T16:54:57Z</time></trkpt><trkpt lat="38.8233132516491" lon="16.555788402401532"><ele>74.0</ele><time>2026-04-11T16:54:58Z</time></trkpt><trkpt lat="38.82312665307377" lon="16.555922299182516"><ele>75.0</ele><time>2026-04-11T16:54:59Z</time></trkpt><trkpt lat="38.82295859081783" lon="16.55606938472529"><ele>74.0</ele><time>2026-04-11T16:55:00Z</time></trkpt><trkpt lat="38.822798852820505" lon="16.55623411654796"><ele>73.0</ele><time>2026-04-11T16:55:01Z</time></trkpt><trkpt lat="38.82265052658617" lon="16.556430295999082"><ele>72.0</ele><time>2026-04-11T16:55:02Z</time></trkpt><trkpt lat="38.822512682389366" lon="16.556666653099906"><ele>73.0</ele><time>2026-04-11T16:55:03Z</time></trkpt><trkpt lat="38.822384858563225" lon="16.556916646204787"><ele>74.0</ele><time>2026-04-11T16:55:04Z</time></trkpt><trkpt lat="38.822269160871464" lon="16.55715184044959"><ele>74.0</ele><time>2026-04-11T16:55:05Z</time></trkpt><trkpt lat="38.82215569136444" lon="16.55737318750314"><ele>74.0</ele><time>2026-04-11T16:55:06Z</time></trkpt><trkpt lat="38.8220461125504" lon="16.557571285799934"><ele>74.0</ele><time>2026-04-11T16:55:07Z</time></trkpt><trkpt lat="38.82194651710275" lon="16.55775826859678"><ele>73.0</ele><time>2026-04-11T16:55:08Z</time></trkpt><trkpt lat="38.821865118806365" lon="16.557921241238514"><ele>72.0</ele><time>2026-04-11T16:55:09Z</time></trkpt><trkpt lat="38.82180313982494" lon="16.558072942935464"><ele>71.0</ele><time>2026-04-11T16:55:10Z</time></trkpt><trkpt lat="38.82178385571685" lon="16.558243942308835"><ele>70.0</ele><time>2026-04-11T16:55:11Z</time></trkpt><trkpt lat="38.821807126547576" lon="16.558452259672908"><ele>70.0</ele><time>2026-04-11T16:55:12Z</time></trkpt><trkpt lat="38.821875431715675" lon="16.55868249924495"><ele>70.0</ele><time>2026-04-11T16:55:13Z</time></trkpt><trkpt lat="38.82196983093222" lon="16.55893543287863"><ele>70.0</ele><time>2026-04-11T16:55:14Z</time></trkpt><trkpt lat="38.82206802616164" lon="16.5592043321103"><ele>70.0</ele><time>2026-04-11T16:55:15Z</time></trkpt><trkpt lat="38.82215662078349" lon="16.559490591724764"><ele>70.0</ele><time>2026-04-11T16:55:16Z</time></trkpt><trkpt lat="38.822235117183986" lon="16.5597627705269"><ele>70.0</ele><time>2026-04-11T16:55:17Z</time></trkpt><trkpt lat="38.822289289084445" lon="16.55997548048418"><ele>70.0</ele><time>2026-04-11T16:55:18Z</time></trkpt><trkpt lat="38.82231791854517" lon="16.560157512229726"><ele>70.0</ele><time>2026-04-11T16:55:19Z</time></trkpt><trkpt lat="38.82231878165883" lon="16.560324417930293"><ele>70.0</ele><time>2026-04-11T16:55:20Z</time></trkpt><trkpt lat="38.82229325305278" lon="16.560481121155124"><ele>70.0</ele><time>2026-04-11T16:55:21Z</time></trkpt><trkpt lat="38.822251577405765" lon="16.56062399487109"><ele>70.0</ele><time>2026-04-11T16:55:22Z</time></trkpt><trkpt lat="38.82219287612339" lon="16.56073780160185"><ele>70.0</ele><time>2026-04-11T16:55:23Z</time></trkpt><trkpt lat="38.82212691674984" lon="16.560805995553284"><ele>70.0</ele><time>2026-04-11T16:55:24Z</time></trkpt><trkpt lat="38.82206788543589" lon="16.56085647816737"><ele>70.0</ele><time>2026-04-11T16:55:25Z</time></trkpt><trkpt lat="38.82198560453335" lon="16.56096756933354"><ele>70.0</ele><time>2026-04-11T16:55:27Z</time></trkpt><trkpt lat="38.82198582909029" lon="16.56110826709232"><ele>70.0</ele><time>2026-04-11T16:55:29Z</time></trkpt><trkpt lat="38.82200584654101" lon="16.561217109659534"><ele>70.0</ele><time>2026-04-11T16:55:31Z</time></trkpt><trkpt lat="38.82205026092547" lon="16.561309095913813"><ele>70.0</ele><time>2026-04-11T16:55:34Z</time></trkpt><trkpt lat="38.822120375252524" lon="16.561373933887136"><ele>70.0</ele><time>2026-04-11T16:56:17Z</time></trkpt><trkpt lat="38.822159854886976" lon="16.561472922617472"><ele>69.66666666666666</ele><time>2026-04-11T16:56:18Z</time></trkpt><trkpt lat="38.82218263014396" lon="16.561636764814633"><ele>69.33333333333333</ele><time>2026-04-11T16:56:19Z</time></trkpt><trkpt lat="38.822189835886725" lon="16.56185652763937"><ele>69.0</ele><time>2026-04-11T16:56:20Z</time></trkpt><trkpt lat="38.82217068052121" lon="16.56208716078139"><ele>67.0</ele><time>2026-04-11T16:56:21Z</time></trkpt><trkpt lat="38.822113978809405" lon="16.562308666667217"><ele>65.0</ele><time>2026-04-11T16:56:22Z</time></trkpt><trkpt lat="38.822017917081844" lon="16.562524272198672"><ele>63.0</ele><time>2026-04-11T16:56:23Z</time></trkpt><trkpt lat="38.82189075947029" lon="16.56276520139478"><ele>63.66666666666667</ele><time>2026-04-11T16:56:24Z</time></trkpt><trkpt lat="38.82176873788542" lon="16.563018827587516"><ele>64.33333333333334</ele><time>2026-04-11T16:56:25Z</time></trkpt><trkpt lat="38.821701816471666" lon="16.56321639702263"><ele>65.0</ele><time>2026-04-11T16:56:26Z</time></trkpt><trkpt lat="38.821646254060965" lon="16.563343966933214"><ele>65.0</ele><time>2026-04-11T16:56:27Z</time></trkpt><trkpt lat="38.8215736776576" lon="16.56348619955404"><ele>65.0</ele><time>2026-04-11T16:56:28Z</time></trkpt><trkpt lat="38.82148901451335" lon="16.563666024706478"><ele>65.0</ele><time>2026-04-11T16:56:29Z</time></trkpt><trkpt lat="38.82147018805484" lon="16.56387053177073"><ele>63.333333333333336</ele><time>2026-04-11T16:56:30Z</time></trkpt><trkpt lat="38.82130450001549" lon="16.564036041060817"><ele>61.66666666666667</ele><time>2026-04-11T16:56:31Z</time></trkpt><trkpt lat="38.82117353230458" lon="16.564219520752797"><ele>60.0</ele><time>2026-04-11T16:56:32Z</time></trkpt><trkpt lat="38.8210239804168" lon="16.564430756895003"><ele>60.5</ele><time>2026-04-11T16:56:33Z</time></trkpt><trkpt lat="38.82087349790151" lon="16.564654901383477"><ele>61.0</ele><time>2026-04-11T16:56:34Z</time></trkpt><trkpt lat="38.82071976943187" lon="16.5648781766127"><ele>61.0</ele><time>2026-04-11T16:56:35Z</time></trkpt><trkpt lat="38.82055608620829" lon="16.565060680117323"><ele>61.0</ele><time>2026-04-11T16:56:36Z</time></trkpt><trkpt lat="38.82042094594665" lon="16.565231440304956"><ele>61.0</ele><time>2026-04-11T16:56:37Z</time></trkpt><trkpt lat="38.82030707621703" lon="16.56542522534755"><ele>62.0</ele><time>2026-04-11T16:56:38Z</time></trkpt><trkpt lat="38.8201926934496" lon="16.56566464328875"><ele>63.0</ele><time>2026-04-11T16:56:39Z</time></trkpt><trkpt lat="38.82008817963973" lon="16.565943846104176"><ele>59.5</ele><time>2026-04-11T16:56:40Z</time></trkpt><trkpt lat="38.81998953099245" lon="16.566253363915706"><ele>56.0</ele><time>2026-04-11T16:56:41Z</time></trkpt><trkpt lat="38.819881744518625" lon="16.566584869879804"><ele>56.0</ele><time>2026-04-11T16:56:42Z</time></trkpt><trkpt lat="38.81976591754367" lon="16.566922775959757"><ele>56.0</ele><time>2026-04-11T16:56:43Z</time></trkpt><trkpt lat="38.81964682418519" lon="16.567270592372523"><ele>53.5</ele><time>2026-04-11T16:56:44Z</time></trkpt><trkpt lat="38.81954131919523" lon="16.56757810917713"><ele>51.0</ele><time>2026-04-11T16:56:45Z</time></trkpt><trkpt lat="38.81943793573961" lon="16.567878867341722"><ele>49.5</ele><time>2026-04-11T16:56:46Z</time></trkpt><trkpt lat="38.81933435379292" lon="16.568176765761965"><ele>48.0</ele><time>2026-04-11T16:56:47Z</time></trkpt><trkpt lat="38.81923098193342" lon="16.568475661994036"><ele>50.0</ele><time>2026-04-11T16:56:48Z</time></trkpt><trkpt lat="38.81913000474479" lon="16.568768067968676"><ele>52.0</ele><time>2026-04-11T16:56:49Z</time></trkpt><trkpt lat="38.81903780161298" lon="16.569044972621793"><ele>52.0</ele><time>2026-04-11T16:56:50Z</time></trkpt><trkpt lat="38.81895771978152" lon="16.569306841328608"><ele>52.0</ele><time>2026-04-11T16:56:51Z</time></trkpt><trkpt lat="38.8188995866979" lon="16.569570474638503"><ele>52.0</ele><time>2026-04-11T16:56:52Z</time></trkpt><trkpt lat="38.81886570395041" lon="16.569852037689195"><ele>50.5</ele><time>2026-04-11T16:56:53Z</time></trkpt><trkpt lat="38.81886240689789" lon="16.570171634171345"><ele>49.0</ele><time>2026-04-11T16:56:54Z</time></trkpt><trkpt lat="38.81888901162436" lon="16.5705134970773"><ele>47.5</ele><time>2026-04-11T16:56:55Z</time></trkpt><trkpt lat="38.81893435975949" lon="16.57086275776978"><ele>46.0</ele><time>2026-04-11T16:56:56Z</time></trkpt><trkpt lat="38.81896914031034" lon="16.571185904216307"><ele>45.0</ele><time>2026-04-11T16:56:57Z</time></trkpt><trkpt lat="38.81899032595452" lon="16.57150027254178"><ele>44.0</ele><time>2026-04-11T16:56:58Z</time></trkpt><trkpt lat="38.819009042534496" lon="16.571796940355494"><ele>44.0</ele><time>2026-04-11T16:56:59Z</time></trkpt><trkpt lat="38.81901427152775" lon="16.572076640425593"><ele>44.0</ele><time>2026-04-11T16:57:00Z</time></trkpt><trkpt lat="38.81900684059955" lon="16.572354444106562"><ele>44.0</ele><time>2026-04-11T16:57:01Z</time></trkpt><trkpt lat="38.81899363592391" lon="16.572644903114185"><ele>42.5</ele><time>2026-04-11T16:57:02Z</time></trkpt><trkpt lat="38.81896670637189" lon="16.572934489781197"><ele>41.0</ele><time>2026-04-11T16:57:03Z</time></trkpt><trkpt lat="38.81890497897373" lon="16.57321983985835"><ele>41.0</ele><time>2026-04-11T16:57:04Z</time></trkpt><trkpt lat="38.81884241481106" lon="16.57353047797831"><ele>41.0</ele><time>2026-04-11T16:57:05Z</time></trkpt><trkpt lat="38.81878708901159" lon="16.5738656232901"><ele>40.5</ele><time>2026-04-11T16:57:06Z</time></trkpt><trkpt lat="38.81871424923543" lon="16.57421194512225"><ele>40.0</ele><time>2026-04-11T16:57:07Z</time></trkpt><trkpt lat="38.81862461792878" lon="16.5745539971395"><ele>39.5</ele><time>2026-04-11T16:57:08Z</time></trkpt><trkpt lat="38.81856872608606" lon="16.57488615056466"><ele>39.0</ele><time>2026-04-11T16:57:09Z</time></trkpt><trkpt lat="38.818491692416494" lon="16.57520444955479"><ele>38.0</ele><time>2026-04-11T16:57:10Z</time></trkpt><trkpt lat="38.81838525522599" lon="16.575526436345836"><ele>37.0</ele><time>2026-04-11T16:57:11Z</time></trkpt><trkpt lat="38.81828016462518" lon="16.575877538145175"><ele>36.0</ele><time>2026-04-11T16:57:12Z</time></trkpt><trkpt lat="38.81818539103364" lon="16.576238663049764"><ele>35.0</ele><time>2026-04-11T16:57:13Z</time></trkpt><trkpt lat="38.81807322437341" lon="16.576602534498708"><ele>35.0</ele><time>2026-04-11T16:57:14Z</time></trkpt><trkpt lat="38.81796452455666" lon="16.576964966667532"><ele>35.0</ele><time>2026-04-11T16:57:15Z</time></trkpt><trkpt lat="38.81786560779618" lon="16.577304408423572"><ele>35.0</ele><time>2026-04-11T16:57:16Z</time></trkpt><trkpt lat="38.817764407818366" lon="16.57763403506588"><ele>35.0</ele><time>2026-04-11T16:57:17Z</time></trkpt><trkpt lat="38.81766698936264" lon="16.577957086772955"><ele>34.5</ele><time>2026-04-11T16:57:18Z</time></trkpt><trkpt lat="38.817577199975624" lon="16.578261228312797"><ele>34.0</ele><time>2026-04-11T16:57:19Z</time></trkpt><trkpt lat="38.81749316253406" lon="16.578532069530944"><ele>33.66666666666667</ele><time>2026-04-11T16:57:20Z</time></trkpt><trkpt lat="38.817415655164446" lon="16.5787630375602"><ele>33.333333333333336</ele><time>2026-04-11T16:57:21Z</time></trkpt><trkpt lat="38.81732950964488" lon="16.578969793671018"><ele>33.0</ele><time>2026-04-11T16:57:22Z</time></trkpt><trkpt lat="38.817229409104776" lon="16.579166709277825"><ele>33.0</ele><time>2026-04-11T16:57:23Z</time></trkpt><trkpt lat="38.81710558987789" lon="16.579360993007676"><ele>33.0</ele><time>2026-04-11T16:57:24Z</time></trkpt><trkpt lat="38.81695985531263" lon="16.579562624114168"><ele>33.0</ele><time>2026-04-11T16:57:25Z</time></trkpt><trkpt lat="38.816800113396646" lon="16.579772479369893"><ele>33.0</ele><time>2026-04-11T16:57:26Z</time></trkpt><trkpt lat="38.816637444256365" lon="16.579962002483807"><ele>33.0</ele><time>2026-04-11T16:57:27Z</time></trkpt><trkpt lat="38.81647105113511" lon="16.58016509799308"><ele>33.0</ele><time>2026-04-11T16:57:28Z</time></trkpt><trkpt lat="38.8163235820785" lon="16.580403258999617"><ele>31.0</ele><time>2026-04-11T16:57:29Z</time></trkpt><trkpt lat="38.81620351131808" lon="16.58068230453894"><ele>29.0</ele><time>2026-04-11T16:57:30Z</time></trkpt><trkpt lat="38.81609005833471" lon="16.580993258540893"><ele>29.0</ele><time>2026-04-11T16:57:31Z</time></trkpt><trkpt lat="38.81597957848761" lon="16.581314908720113"><ele>29.0</ele><time>2026-04-11T16:57:32Z</time></trkpt><trkpt lat="38.815861356466286" lon="16.581634365350048"><ele>29.0</ele><time>2026-04-11T16:57:33Z</time></trkpt><trkpt lat="38.81574285276625" lon="16.581944825771938"><ele>29.0</ele><time>2026-04-11T16:57:34Z</time></trkpt><trkpt lat="38.81562352618194" lon="16.58225073993717"><ele>28.5</ele><time>2026-04-11T16:57:35Z</time></trkpt><trkpt lat="38.815511319185326" lon="16.582544761856322"><ele>28.0</ele><time>2026-04-11T16:57:36Z</time></trkpt><trkpt lat="38.81539140271758" lon="16.582849083663817"><ele>28.0</ele><time>2026-04-11T16:57:37Z</time></trkpt><trkpt lat="38.81526446064383" lon="16.583171948491156"><ele>28.0</ele><time>2026-04-11T16:57:38Z</time></trkpt><trkpt lat="38.81514768208172" lon="16.58349383973653"><ele>28.5</ele><time>2026-04-11T16:57:39Z</time></trkpt><trkpt lat="38.81503275281857" lon="16.583797931596287"><ele>29.0</ele><time>2026-04-11T16:57:40Z</time></trkpt><trkpt lat="38.814912373962166" lon="16.5840991417119"><ele>29.0</ele><time>2026-04-11T16:57:41Z</time></trkpt><trkpt lat="38.81479143847874" lon="16.58441434629639"><ele>29.0</ele><time>2026-04-11T16:57:42Z</time></trkpt><trkpt lat="38.81466218450448" lon="16.584739977832673"><ele>28.0</ele><time>2026-04-11T16:57:43Z</time></trkpt><trkpt lat="38.81453423106295" lon="16.585073642351897"><ele>27.0</ele><time>2026-04-11T16:57:44Z</time></trkpt><trkpt lat="38.814402309150935" lon="16.585404248864865"><ele>27.0</ele><time>2026-04-11T16:57:45Z</time></trkpt><trkpt lat="38.814273830344604" lon="16.58573372016993"><ele>27.0</ele><time>2026-04-11T16:57:46Z</time></trkpt><trkpt lat="38.81415019611189" lon="16.58607191589965"><ele>26.0</ele><time>2026-04-11T16:57:47Z</time></trkpt><trkpt lat="38.81402029415722" lon="16.586382797754542"><ele>25.0</ele><time>2026-04-11T16:57:48Z</time></trkpt><trkpt lat="38.81389679776514" lon="16.58669797351596"><ele>24.5</ele><time>2026-04-11T16:57:49Z</time></trkpt><trkpt lat="38.81377435826956" lon="16.58701607046273"><ele>24.0</ele><time>2026-04-11T16:57:50Z</time></trkpt><trkpt lat="38.81365643368364" lon="16.587333734929597"><ele>24.0</ele><time>2026-04-11T16:57:51Z</time></trkpt><trkpt lat="38.813534957506704" lon="16.587645572809762"><ele>24.0</ele><time>2026-04-11T16:57:52Z</time></trkpt><trkpt lat="38.81342263721061" lon="16.587931317746868"><ele>24.333333333333336</ele><time>2026-04-11T16:57:53Z</time></trkpt><trkpt lat="38.81332507310262" lon="16.588186863779974"><ele>24.666666666666668</ele><time>2026-04-11T16:57:54Z</time></trkpt><trkpt lat="38.81322510171689" lon="16.58843772604459"><ele>25.0</ele><time>2026-04-11T16:57:55Z</time></trkpt><trkpt lat="38.813134912776505" lon="16.588668750375888"><ele>24.5</ele><time>2026-04-11T16:57:56Z</time></trkpt><trkpt lat="38.813063651957016" lon="16.588849764714546"><ele>24.0</ele><time>2026-04-11T16:57:57Z</time></trkpt><trkpt lat="38.813003755243166" lon="16.58900752686173"><ele>23.5</ele><time>2026-04-11T16:57:58Z</time></trkpt><trkpt lat="38.812925116058324" lon="16.589173086305003"><ele>23.0</ele><time>2026-04-11T16:57:59Z</time></trkpt><trkpt lat="38.81284134789304" lon="16.5893437652603"><ele>23.0</ele><time>2026-04-11T16:58:00Z</time></trkpt><trkpt lat="38.81276899816094" lon="16.589524773740152"><ele>23.0</ele><time>2026-04-11T16:58:01Z</time></trkpt><trkpt lat="38.812715251101764" lon="16.589723353500172"><ele>23.0</ele><time>2026-04-11T16:58:02Z</time></trkpt><trkpt lat="38.81263803824928" lon="16.589958237710697"><ele>23.5</ele><time>2026-04-11T16:58:03Z</time></trkpt><trkpt lat="38.81253877687521" lon="16.590217668628696"><ele>24.0</ele><time>2026-04-11T16:58:04Z</time></trkpt><trkpt lat="38.81243442381849" lon="16.590497691961758"><ele>24.0</ele><time>2026-04-11T16:58:05Z</time></trkpt><trkpt lat="38.81232218447338" lon="16.590800274808778"><ele>24.0</ele><time>2026-04-11T16:58:06Z</time></trkpt><trkpt lat="38.812200367837676" lon="16.59110225268411"><ele>22.0</ele><time>2026-04-11T16:58:07Z</time></trkpt><trkpt lat="38.812078174873434" lon="16.591412196363446"><ele>20.0</ele><time>2026-04-11T16:58:08Z</time></trkpt><trkpt lat="38.81195591139276" lon="16.591721105022447"><ele>20.0</ele><time>2026-04-11T16:58:09Z</time></trkpt><trkpt lat="38.81183245246" lon="16.592031913549263"><ele>20.0</ele><time>2026-04-11T16:58:10Z</time></trkpt><trkpt lat="38.811707468740344" lon="16.592349492359773"><ele>20.0</ele><time>2026-04-11T16:58:11Z</time></trkpt><trkpt lat="38.81159223231494" lon="16.592647670896856"><ele>20.0</ele><time>2026-04-11T16:58:12Z</time></trkpt><trkpt lat="38.81147131353243" lon="16.59295465979573"><ele>19.5</ele><time>2026-04-11T16:58:13Z</time></trkpt><trkpt lat="38.81134993362973" lon="16.59326607178497"><ele>19.0</ele><time>2026-04-11T16:58:14Z</time></trkpt><trkpt lat="38.81123390729407" lon="16.593571762203737"><ele>18.0</ele><time>2026-04-11T16:58:15Z</time></trkpt><trkpt lat="38.81111794940129" lon="16.59386787969194"><ele>17.0</ele><time>2026-04-11T16:58:16Z</time></trkpt><trkpt lat="38.81100064596679" lon="16.594168667169644"><ele>17.0</ele><time>2026-04-11T16:58:17Z</time></trkpt><trkpt lat="38.810890690273055" lon="16.594463189376757"><ele>17.0</ele><time>2026-04-11T16:58:18Z</time></trkpt><trkpt lat="38.81077365194708" lon="16.594761037426665"><ele>16.0</ele><time>2026-04-11T16:58:19Z</time></trkpt><trkpt lat="38.81066415112301" lon="16.59504218522326"><ele>15.0</ele><time>2026-04-11T16:58:20Z</time></trkpt><trkpt lat="38.81056264212094" lon="16.595305561590187"><ele>14.5</ele><time>2026-04-11T16:58:21Z</time></trkpt><trkpt lat="38.810457029377815" lon="16.59557172976251"><ele>14.0</ele><time>2026-04-11T16:58:22Z</time></trkpt><trkpt lat="38.810358895904024" lon="16.59582829763394"><ele>14.0</ele><time>2026-04-11T16:58:23Z</time></trkpt><trkpt lat="38.81026079449854" lon="16.596098471009128"><ele>14.0</ele><time>2026-04-11T16:58:24Z</time></trkpt><trkpt lat="38.810168806110326" lon="16.59633618718916"><ele>14.0</ele><time>2026-04-11T16:58:25Z</time></trkpt><trkpt lat="38.81007363385211" lon="16.596571274471135"><ele>13.666666666666668</ele><time>2026-04-11T16:58:26Z</time></trkpt><trkpt lat="38.809986983856156" lon="16.59678467168715"><ele>13.333333333333332</ele><time>2026-04-11T16:58:27Z</time></trkpt><trkpt lat="38.80987407421864" lon="16.597008788844906"><ele>13.0</ele><time>2026-04-11T16:58:28Z</time></trkpt><trkpt lat="38.809793389582815" lon="16.597215082595795"><ele>12.333333333333332</ele><time>2026-04-11T16:58:29Z</time></trkpt><trkpt lat="38.80971749355503" lon="16.597409132882643"><ele>11.666666666666666</ele><time>2026-04-11T16:58:30Z</time></trkpt><trkpt lat="38.809641653979035" lon="16.597603692026702"><ele>11.0</ele><time>2026-04-11T16:58:31Z</time></trkpt><trkpt lat="38.809568564636045" lon="16.59779210487878"><ele>10.0</ele><time>2026-04-11T16:58:32Z</time></trkpt><trkpt lat="38.80949692904117" lon="16.597976770197757"><ele>9.0</ele><time>2026-04-11T16:58:33Z</time></trkpt><trkpt lat="38.80943003893228" lon="16.598149353330367"><ele>8.0</ele><time>2026-04-11T16:58:34Z</time></trkpt><trkpt lat="38.80938197420621" lon="16.59827493951955"><ele>7.0</ele><time>2026-04-11T16:58:35Z</time></trkpt><trkpt lat="38.80935121873396" lon="16.598402480510313"><ele>7.199999999999999</ele><time>2026-04-11T16:58:36Z</time></trkpt><trkpt lat="38.80931625320465" lon="16.598489564620365"><ele>7.3999999999999995</ele><time>2026-04-11T16:58:37Z</time></trkpt><trkpt lat="38.80927553530184" lon="16.59855304901776"><ele>7.6000000000000005</ele><time>2026-04-11T16:58:38Z</time></trkpt><trkpt lat="38.8092470589174" lon="16.59862745370137"><ele>7.800000000000001</ele><time>2026-04-11T16:58:43Z</time></trkpt><trkpt lat="38.80921664875988" lon="16.598706911075393"><ele>8.0</ele><time>2026-04-11T16:58:51Z</time></trkpt><trkpt lat="38.80935802316298" lon="16.598848309946305"><ele>7.499999999999999</ele><time>2026-04-11T16:58:59Z</time></trkpt><trkpt lat="38.80940383117571" lon="16.598926104101526"><ele>7.0</ele><time>2026-04-11T16:59:24Z</time></trkpt><trkpt lat="38.80947674389045" lon="16.59900443895344"><ele>6.5</ele><time>2026-04-11T16:59:28Z</time></trkpt><trkpt lat="38.80952330546906" lon="16.599076028160827"><ele>6.0</ele><time>2026-04-11T16:59:29Z</time></trkpt><trkpt lat="38.8095720043892" lon="16.599160842818957"><ele>5.5</ele><time>2026-04-11T16:59:30Z</time></trkpt><trkpt lat="38.809623728008916" lon="16.59923780044168"><ele>5.0</ele><time>2026-04-11T16:59:31Z</time></trkpt><trkpt lat="38.80969362832607" lon="16.599337994481996"><ele>5.0</ele><time>2026-04-11T16:59:32Z</time></trkpt><trkpt lat="38.80977776079516" lon="16.599449191507723"><ele>5.0</ele><time>2026-04-11T16:59:33Z</time></trkpt><trkpt lat="38.80987764385789" lon="16.59955852460377"><ele>5.0</ele><time>2026-04-11T16:59:34Z</time></trkpt><trkpt lat="38.809990985849524" lon="16.59966535263391"><ele>5.0</ele><time>2026-04-11T16:59:35Z</time></trkpt><trkpt lat="38.81012766542417" lon="16.599769547608652"><ele>5.0</ele><time>2026-04-11T16:59:36Z</time></trkpt><trkpt lat="38.81029845558644" lon="16.59988524487567"><ele>5.0</ele><time>2026-04-11T16:59:37Z</time></trkpt><trkpt lat="38.81048205994524" lon="16.60001385104559"><ele>5.0</ele><time>2026-04-11T16:59:38Z</time></trkpt><trkpt lat="38.81069242426744" lon="16.600156051910346"><ele>5.0</ele><time>2026-04-11T16:59:39Z</time></trkpt><trkpt lat="38.81091017523607" lon="16.600304203420336"><ele>5.0</ele><time>2026-04-11T16:59:40Z</time></trkpt><trkpt lat="38.811139981303135" lon="16.600465368683654"><ele>4.0</ele><time>2026-04-11T16:59:41Z</time></trkpt><trkpt lat="38.81136242849548" lon="16.60062555514295"><ele>3.0</ele><time>2026-04-11T16:59:42Z</time></trkpt><trkpt lat="38.811560674036734" lon="16.600765588739698"><ele>3.0</ele><time>2026-04-11T16:59:43Z</time></trkpt><trkpt lat="38.81174682972051" lon="16.60089446251301"><ele>3.0</ele><time>2026-04-11T16:59:44Z</time></trkpt><trkpt lat="38.811929141214115" lon="16.601020684398087"><ele>3.0</ele><time>2026-04-11T16:59:45Z</time></trkpt><trkpt lat="38.81211045580526" lon="16.601170446492443"><ele>3.0</ele><time>2026-04-11T16:59:46Z</time></trkpt><trkpt lat="38.812304927449965" lon="16.601281701131892"><ele>3.0</ele><time>2026-04-11T16:59:47Z</time></trkpt><trkpt lat="38.81248032400299" lon="16.60143089680729"><ele>3.0</ele><time>2026-04-11T16:59:48Z</time></trkpt><trkpt lat="38.81265579666712" lon="16.60155451711019"><ele>3.333333333333333</ele><time>2026-04-11T16:59:49Z</time></trkpt><trkpt lat="38.81281970912503" lon="16.60167149928164"><ele>3.6666666666666665</ele><time>2026-04-11T16:59:50Z</time></trkpt><trkpt lat="38.81298336276401" lon="16.601765101797447"><ele>4.0</ele><time>2026-04-11T16:59:51Z</time></trkpt><trkpt lat="38.813135010606025" lon="16.601872593836063"><ele>4.0</ele><time>2026-04-11T16:59:52Z</time></trkpt><trkpt lat="38.81326832320989" lon="16.601988897675707"><ele>4.0</ele><time>2026-04-11T16:59:53Z</time></trkpt><trkpt lat="38.81341334888008" lon="16.602098947562705"><ele>4.0</ele><time>2026-04-11T16:59:54Z</time></trkpt><trkpt lat="38.813556377275575" lon="16.60222460728993"><ele>4.0</ele><time>2026-04-11T16:59:55Z</time></trkpt><trkpt lat="38.81367910896572" lon="16.602339369391803"><ele>4.0</ele><time>2026-04-11T16:59:56Z</time></trkpt><trkpt lat="38.81379134211791" lon="16.602444314684234"><ele>4.0</ele><time>2026-04-11T16:59:57Z</time></trkpt><trkpt lat="38.8139014815301" lon="16.602547982126218"><ele>4.0</ele><time>2026-04-11T16:59:58Z</time></trkpt><trkpt lat="38.814037296780235" lon="16.602675724242427"><ele>4.0</ele><time>2026-04-11T16:59:59Z</time></trkpt><trkpt lat="38.81419969724203" lon="16.60282898396522"><ele>4.0</ele><time>2026-04-11T17:00:00Z</time></trkpt><trkpt lat="38.81437070053561" lon="16.602989833069657"><ele>4.0</ele><time>2026-04-11T17:00:01Z</time></trkpt><trkpt lat="38.81455343262891" lon="16.603159018212892"><ele>4.333333333333333</ele><time>2026-04-11T17:00:02Z</time></trkpt><trkpt lat="38.8147292358797" lon="16.60332468465213"><ele>4.666666666666667</ele><time>2026-04-11T17:00:03Z</time></trkpt><trkpt lat="38.81489170752112" lon="16.60348388244506"><ele>5.0</ele><time>2026-04-11T17:00:04Z</time></trkpt><trkpt lat="38.81504139212909" lon="16.60363486929646"><ele>4.666666666666667</ele><time>2026-04-11T17:00:05Z</time></trkpt><trkpt lat="38.81518269565423" lon="16.60378150170219"><ele>4.333333333333333</ele><time>2026-04-11T17:00:06Z</time></trkpt><trkpt lat="38.8153289908682" lon="16.6039381198449"><ele>4.0</ele><time>2026-04-11T17:00:07Z</time></trkpt><trkpt lat="38.815466992504696" lon="16.604093274166654"><ele>4.0</ele><time>2026-04-11T17:00:08Z</time></trkpt><trkpt lat="38.81560433979869" lon="16.6042397006594"><ele>4.0</ele><time>2026-04-11T17:00:09Z</time></trkpt><trkpt lat="38.81575150940657" lon="16.604351163999794"><ele>4.0</ele><time>2026-04-11T17:00:10Z</time></trkpt><trkpt lat="38.815886748009234" lon="16.604483802285383"><ele>4.333333333333333</ele><time>2026-04-11T17:00:11Z</time></trkpt><trkpt lat="38.81602143124393" lon="16.604612148553315"><ele>4.666666666666667</ele><time>2026-04-11T17:00:12Z</time></trkpt><trkpt lat="38.8161582310861" lon="16.604737509954614"><ele>5.0</ele><time>2026-04-11T17:00:13Z</time></trkpt><trkpt lat="38.81628359706176" lon="16.60489847168348"><ele>5.0</ele><time>2026-04-11T17:00:14Z</time></trkpt><trkpt lat="38.81643194600321" lon="16.60503769409233"><ele>5.0</ele><time>2026-04-11T17:00:15Z</time></trkpt><trkpt lat="38.8165941135424" lon="16.60519039884463"><ele>5.0</ele><time>2026-04-11T17:00:16Z</time></trkpt><trkpt lat="38.81676696661947" lon="16.605352899301877"><ele>5.0</ele><time>2026-04-11T17:00:17Z</time></trkpt><trkpt lat="38.81694359095609" lon="16.60551982939549"><ele>5.0</ele><time>2026-04-11T17:00:18Z</time></trkpt><trkpt lat="38.81711195522094" lon="16.605679965659817"><ele>5.0</ele><time>2026-04-11T17:00:19Z</time></trkpt><trkpt lat="38.81726576860415" lon="16.60583140408429"><ele>5.0</ele><time>2026-04-11T17:00:20Z</time></trkpt><trkpt lat="38.8174147970809" lon="16.605976223777706"><ele>5.0</ele><time>2026-04-11T17:00:21Z</time></trkpt><trkpt lat="38.81756750543021" lon="16.606100875468606"><ele>5.0</ele><time>2026-04-11T17:00:22Z</time></trkpt><trkpt lat="38.81769672974328" lon="16.606259622273456"><ele>4.333333333333334</ele><time>2026-04-11T17:00:23Z</time></trkpt><trkpt lat="38.817836287770895" lon="16.60640972205536"><ele>3.666666666666667</ele><time>2026-04-11T17:00:24Z</time></trkpt><trkpt lat="38.81797750714976" lon="16.60656362910746"><ele>3.0</ele><time>2026-04-11T17:00:25Z</time></trkpt><trkpt lat="38.81812403172401" lon="16.60672429237148"><ele>3.0</ele><time>2026-04-11T17:00:26Z</time></trkpt><trkpt lat="38.81827496620455" lon="16.606889847162485"><ele>3.0</ele><time>2026-04-11T17:00:27Z</time></trkpt><trkpt lat="38.818423355448736" lon="16.607052595158414"><ele>3.0</ele><time>2026-04-11T17:00:28Z</time></trkpt><trkpt lat="38.81857155469143" lon="16.607215609199194"><ele>4.333333333333334</ele><time>2026-04-11T17:00:29Z</time></trkpt><trkpt lat="38.818720397340854" lon="16.60737279016164"><ele>5.666666666666667</ele><time>2026-04-11T17:00:30Z</time></trkpt><trkpt lat="38.81886445663446" lon="16.607528549953862"><ele>7.0</ele><time>2026-04-11T17:00:31Z</time></trkpt><trkpt lat="38.81901258802252" lon="16.607692296990628"><ele>7.0</ele><time>2026-04-11T17:00:32Z</time></trkpt><trkpt lat="38.819158790337625" lon="16.60785509230845"><ele>7.0</ele><time>2026-04-11T17:00:33Z</time></trkpt><trkpt lat="38.819299394294035" lon="16.60801503681459"><ele>7.0</ele><time>2026-04-11T17:00:34Z</time></trkpt><trkpt lat="38.81942262038675" lon="16.608158697838583"><ele>7.5</ele><time>2026-04-11T17:00:35Z</time></trkpt><trkpt lat="38.81953185574941" lon="16.608297671636564"><ele>8.0</ele><time>2026-04-11T17:00:36Z</time></trkpt><trkpt lat="38.81963070826833" lon="16.608434204368784"><ele>8.5</ele><time>2026-04-11T17:00:37Z</time></trkpt><trkpt lat="38.81971770381442" lon="16.608561748818975"><ele>9.0</ele><time>2026-04-11T17:00:38Z</time></trkpt><trkpt lat="38.81980508251714" lon="16.60868988062274"><ele>9.0</ele><time>2026-04-11T17:00:39Z</time></trkpt><trkpt lat="38.81988262250175" lon="16.6088041092128"><ele>9.0</ele><time>2026-04-11T17:00:40Z</time></trkpt><trkpt lat="38.81996930129309" lon="16.608915307298854"><ele>9.0</ele><time>2026-04-11T17:00:41Z</time></trkpt><trkpt lat="38.820034568252616" lon="16.609058590680263"><ele>9.0</ele><time>2026-04-11T17:00:42Z</time></trkpt><trkpt lat="38.8201141899414" lon="16.60915748389025"><ele>9.4</ele><time>2026-04-11T17:00:43Z</time></trkpt><trkpt lat="38.82018299970122" lon="16.609269008643555"><ele>9.8</ele><time>2026-04-11T17:00:44Z</time></trkpt><trkpt lat="38.82024539691162" lon="16.609373014431466"><ele>10.200000000000001</ele><time>2026-04-11T17:00:45Z</time></trkpt><trkpt lat="38.820295310892924" lon="16.60945186952823"><ele>10.600000000000001</ele><time>2026-04-11T17:00:46Z</time></trkpt><trkpt lat="38.82037034846001" lon="16.609560116875624"><ele>11.0</ele><time>2026-04-11T17:00:48Z</time></trkpt><trkpt lat="38.8204405020501" lon="16.609649586749434"><ele>11.0</ele><time>2026-04-11T17:00:50Z</time></trkpt><trkpt lat="38.820502431105965" lon="16.609770304732034"><ele>11.0</ele><time>2026-04-11T17:00:52Z</time></trkpt><trkpt lat="38.82056720998529" lon="16.609856427469502"><ele>11.0</ele><time>2026-04-11T17:00:54Z</time></trkpt><trkpt lat="38.820636143332706" lon="16.609845899218197"><ele>11.0</ele><time>2026-04-11T17:00:56Z</time></trkpt><trkpt lat="38.82067620693376" lon="16.609744667676868"><ele>11.0</ele><time>2026-04-11T17:03:04Z</time></trkpt><trkpt lat="38.82071598900114" lon="16.60967538845978"><ele>11.0</ele><time>2026-04-11T17:03:05Z</time></trkpt><trkpt lat="38.82077954989614" lon="16.609578773712304"><ele>11.4</ele><time>2026-04-11T17:03:06Z</time></trkpt><trkpt lat="38.820861871547464" lon="16.609464376351625"><ele>11.8</ele><time>2026-04-11T17:03:07Z</time></trkpt><trkpt lat="38.82092209532364" lon="16.6093594979148"><ele>12.200000000000001</ele><time>2026-04-11T17:03:08Z</time></trkpt><trkpt lat="38.820958690740284" lon="16.609247524844378"><ele>12.600000000000001</ele><time>2026-04-11T17:03:09Z</time></trkpt><trkpt lat="38.8209602944609" lon="16.609114046105695"><ele>13.0</ele><time>2026-04-11T17:03:10Z</time></trkpt><trkpt lat="38.820922480483965" lon="16.60897852095835"><ele>13.0</ele><time>2026-04-11T17:03:11Z</time></trkpt><trkpt lat="38.82083641460558" lon="16.60884261960176"><ele>13.0</ele><time>2026-04-11T17:03:12Z</time></trkpt><trkpt lat="38.82072006191873" lon="16.608744200607443"><ele>13.0</ele><time>2026-04-11T17:03:13Z</time></trkpt><trkpt lat="38.82055924318432" lon="16.60872084637814"><ele>13.0</ele><time>2026-04-11T17:03:14Z</time></trkpt><trkpt lat="38.82040943660122" lon="16.608671398505294"><ele>12.600000000000001</ele><time>2026-04-11T17:03:15Z</time></trkpt><trkpt lat="38.82030456169497" lon="16.608618842259716"><ele>12.200000000000001</ele><time>2026-04-11T17:03:16Z</time></trkpt><trkpt lat="38.82020648758788" lon="16.608598620459038"><ele>11.8</ele><time>2026-04-11T17:03:17Z</time></trkpt><trkpt lat="38.82015726872648" lon="16.608463004271755"><ele>11.4</ele><time>2026-04-11T17:03:18Z</time></trkpt><trkpt lat="38.82012026270094" lon="16.608369325680155"><ele>11.0</ele><time>2026-04-11T17:03:19Z</time></trkpt><trkpt lat="38.820101860542906" lon="16.608276804941177"><ele>11.0</ele><time>2026-04-11T17:03:20Z</time></trkpt><trkpt lat="38.820091607535424" lon="16.608177423427374"><ele>11.0</ele><time>2026-04-11T17:03:21Z</time></trkpt><trkpt lat="38.82009599767123" lon="16.608056467357926"><ele>11.0</ele><time>2026-04-11T17:03:22Z</time></trkpt><trkpt lat="38.820137025003916" lon="16.60792573461833"><ele>11.0</ele><time>2026-04-11T17:03:23Z</time></trkpt><trkpt lat="38.82014956190326" lon="16.60782018921342"><ele>11.0</ele><time>2026-04-11T17:03:24Z</time></trkpt><trkpt lat="38.820233162186504" lon="16.607736251021507"><ele>12.142857142857142</ele><time>2026-04-11T17:03:25Z</time></trkpt><trkpt lat="38.8202857934027" lon="16.607654290603577"><ele>13.285714285714285</ele><time>2026-04-11T17:03:26Z</time></trkpt><trkpt lat="38.820332469200075" lon="16.60757767684937"><ele>14.428571428571427</ele><time>2026-04-11T17:03:27Z</time></trkpt><trkpt lat="38.82037048384255" lon="16.60749603674128"><ele>15.571428571428573</ele><time>2026-04-11T17:03:28Z</time></trkpt><trkpt lat="38.820412594255465" lon="16.60742638978004"><ele>16.714285714285715</ele><time>2026-04-11T17:03:29Z</time></trkpt><trkpt lat="38.82045936666947" lon="16.607361382648513"><ele>17.857142857142858</ele><time>2026-04-11T17:03:30Z</time></trkpt><trkpt lat="38.82051738246354" lon="16.60729546225088"><ele>19.0</ele><time>2026-04-11T17:03:31Z</time></trkpt><trkpt lat="38.82058118022897" lon="16.607229126830603"><ele>19.0</ele><time>2026-04-11T17:03:32Z</time></trkpt><trkpt lat="38.82065541882799" lon="16.607153430980148"><ele>19.0</ele><time>2026-04-11T17:03:33Z</time></trkpt><trkpt lat="38.82073816531361" lon="16.607074293949754"><ele>19.0</ele><time>2026-04-11T17:03:34Z</time></trkpt><trkpt lat="38.82082530146106" lon="16.60699642023187"><ele>19.0</ele><time>2026-04-11T17:03:35Z</time></trkpt><trkpt lat="38.82092220815413" lon="16.606921516046683"><ele>19.0</ele><time>2026-04-11T17:03:36Z</time></trkpt><trkpt lat="38.82103238134113" lon="16.606847370620425"><ele>20.25</ele><time>2026-04-11T17:03:37Z</time></trkpt><trkpt lat="38.82114369911719" lon="16.60677816366141"><ele>21.5</ele><time>2026-04-11T17:03:38Z</time></trkpt><trkpt lat="38.82124359230304" lon="16.60671854179979"><ele>22.75</ele><time>2026-04-11T17:03:39Z</time></trkpt><trkpt lat="38.82136891240909" lon="16.60664193123851"><ele>24.0</ele><time>2026-04-11T17:03:40Z</time></trkpt><trkpt lat="38.82147738765964" lon="16.60656576953856"><ele>24.0</ele><time>2026-04-11T17:03:41Z</time></trkpt><trkpt lat="38.8215890896413" lon="16.60649122790705"><ele>24.0</ele><time>2026-04-11T17:03:42Z</time></trkpt><trkpt lat="38.82170212579227" lon="16.606408400631338"><ele>24.0</ele><time>2026-04-11T17:03:43Z</time></trkpt><trkpt lat="38.82181112362644" lon="16.6063267212921"><ele>24.0</ele><time>2026-04-11T17:03:44Z</time></trkpt><trkpt lat="38.821920260972696" lon="16.6062487753238"><ele>26.0</ele><time>2026-04-11T17:03:45Z</time></trkpt><trkpt lat="38.822024324942305" lon="16.606172900145463"><ele>28.0</ele><time>2026-04-11T17:03:46Z</time></trkpt><trkpt lat="38.82213650244287" lon="16.606087938226796"><ele>30.0</ele><time>2026-04-11T17:03:47Z</time></trkpt><trkpt lat="38.82224940696197" lon="16.605999289396753"><ele>32.0</ele><time>2026-04-11T17:03:48Z</time></trkpt><trkpt lat="38.822368491844834" lon="16.605897178107853"><ele>32.0</ele><time>2026-04-11T17:03:49Z</time></trkpt><trkpt lat="38.82249085979314" lon="16.605791316990622"><ele>32.0</ele><time>2026-04-11T17:03:50Z</time></trkpt><trkpt lat="38.822609734498215" lon="16.60567608168307"><ele>32.0</ele><time>2026-04-11T17:03:51Z</time></trkpt><trkpt lat="38.82272649062937" lon="16.60555613726538"><ele>32.0</ele><time>2026-04-11T17:03:52Z</time></trkpt><trkpt lat="38.82284336632816" lon="16.605428374285445"><ele>33.0</ele><time>2026-04-11T17:03:53Z</time></trkpt><trkpt lat="38.82295800813917" lon="16.60528994527677"><ele>34.0</ele><time>2026-04-11T17:03:54Z</time></trkpt><trkpt lat="38.823078871131024" lon="16.605138205953235"><ele>35.0</ele><time>2026-04-11T17:03:55Z</time></trkpt><trkpt lat="38.82320112967853" lon="16.604971557422925"><ele>35.0</ele><time>2026-04-11T17:03:56Z</time></trkpt><trkpt lat="38.82332351442214" lon="16.604784302753266"><ele>35.0</ele><time>2026-04-11T17:03:57Z</time></trkpt><trkpt lat="38.82344220752447" lon="16.60459894159158"><ele>35.0</ele><time>2026-04-11T17:03:58Z</time></trkpt><trkpt lat="38.82356189753746" lon="16.6044002106399"><ele>38.666666666666664</ele><time>2026-04-11T17:03:59Z</time></trkpt><trkpt lat="38.823686848520154" lon="16.60419981022127"><ele>42.333333333333336</ele><time>2026-04-11T17:04:00Z</time></trkpt><trkpt lat="38.82381142609937" lon="16.603997658607092"><ele>46.0</ele><time>2026-04-11T17:04:01Z</time></trkpt><trkpt lat="38.82394019960553" lon="16.60378626697729"><ele>45.66666666666667</ele><time>2026-04-11T17:04:02Z</time></trkpt><trkpt lat="38.824065470076896" lon="16.603586554145632"><ele>45.333333333333336</ele><time>2026-04-11T17:04:03Z</time></trkpt><trkpt lat="38.824199851054196" lon="16.603368387448036"><ele>45.0</ele><time>2026-04-11T17:04:04Z</time></trkpt><trkpt lat="38.82433501096325" lon="16.60314896541912"><ele>47.33333333333333</ele><time>2026-04-11T17:04:05Z</time></trkpt><trkpt lat="38.8244706638955" lon="16.602925290115973"><ele>49.666666666666664</ele><time>2026-04-11T17:04:06Z</time></trkpt><trkpt lat="38.82460794295791" lon="16.602699443958542"><ele>52.0</ele><time>2026-04-11T17:04:07Z</time></trkpt><trkpt lat="38.82474467467637" lon="16.602472660675744"><ele>52.0</ele><time>2026-04-11T17:04:08Z</time></trkpt><trkpt lat="38.82488137878447" lon="16.602245237433998"><ele>52.0</ele><time>2026-04-11T17:04:09Z</time></trkpt><trkpt lat="38.825017900907845" lon="16.602017183866536"><ele>52.0</ele><time>2026-04-11T17:04:10Z</time></trkpt><trkpt lat="38.82515670233567" lon="16.60179262981544"><ele>58.0</ele><time>2026-04-11T17:04:11Z</time></trkpt><trkpt lat="38.825297715861026" lon="16.60156313831832"><ele>64.0</ele><time>2026-04-11T17:04:12Z</time></trkpt><trkpt lat="38.825438124022334" lon="16.601333721992237"><ele>65.33333333333333</ele><time>2026-04-11T17:04:13Z</time></trkpt><trkpt lat="38.82558517262178" lon="16.601114758270832"><ele>66.66666666666667</ele><time>2026-04-11T17:04:14Z</time></trkpt><trkpt lat="38.825732001490984" lon="16.600897973927207"><ele>68.0</ele><time>2026-04-11T17:04:15Z</time></trkpt><trkpt lat="38.82587968303351" lon="16.600680764621544"><ele>68.0</ele><time>2026-04-11T17:04:16Z</time></trkpt><trkpt lat="38.826027231128364" lon="16.600462069046376"><ele>68.0</ele><time>2026-04-11T17:04:17Z</time></trkpt><trkpt lat="38.826180191461766" lon="16.600255590212946"><ele>68.0</ele><time>2026-04-11T17:04:18Z</time></trkpt><trkpt lat="38.826312882950454" lon="16.600025300880336"><ele>64.0</ele><time>2026-04-11T17:04:19Z</time></trkpt><trkpt lat="38.82642349399103" lon="16.599763034119793"><ele>60.0</ele><time>2026-04-11T17:04:20Z</time></trkpt><trkpt lat="38.82655682435837" lon="16.599555327098148"><ele>56.0</ele><time>2026-04-11T17:04:21Z</time></trkpt><trkpt lat="38.826706958936825" lon="16.599314402673137"><ele>59.0</ele><time>2026-04-11T17:04:22Z</time></trkpt><trkpt lat="38.8268510424846" lon="16.5990769697904"><ele>62.0</ele><time>2026-04-11T17:04:23Z</time></trkpt><trkpt lat="38.82699190599145" lon="16.598842165797283"><ele>62.0</ele><time>2026-04-11T17:04:24Z</time></trkpt><trkpt lat="38.82713578613172" lon="16.59860747207267"><ele>62.0</ele><time>2026-04-11T17:04:25Z</time></trkpt><trkpt lat="38.82727451103878" lon="16.598370783260016"><ele>62.0</ele><time>2026-04-11T17:04:26Z</time></trkpt><trkpt lat="38.82741302408149" lon="16.59814029647528"><ele>62.0</ele><time>2026-04-11T17:04:27Z</time></trkpt><trkpt lat="38.82755441382912" lon="16.597911322155166"><ele>59.66666666666667</ele><time>2026-04-11T17:04:28Z</time></trkpt><trkpt lat="38.827692331312306" lon="16.597696626156353"><ele>57.33333333333333</ele><time>2026-04-11T17:04:29Z</time></trkpt><trkpt lat="38.82782366447993" lon="16.597484850098848"><ele>55.0</ele><time>2026-04-11T17:04:30Z</time></trkpt><trkpt lat="38.827958819998265" lon="16.597271311871822"><ele>55.0</ele><time>2026-04-11T17:04:31Z</time></trkpt><trkpt lat="38.828093156357546" lon="16.597052571935958"><ele>55.0</ele><time>2026-04-11T17:04:32Z</time></trkpt><trkpt lat="38.828230294785726" lon="16.596836798777208"><ele>55.0</ele><time>2026-04-11T17:04:33Z</time></trkpt><trkpt lat="38.82836600164435" lon="16.596618239326688"><ele>55.33333333333333</ele><time>2026-04-11T17:04:34Z</time></trkpt><trkpt lat="38.828498777574694" lon="16.596412427839006"><ele>55.66666666666667</ele><time>2026-04-11T17:04:35Z</time></trkpt><trkpt lat="38.8286173951352" lon="16.596200172409983"><ele>56.0</ele><time>2026-04-11T17:04:36Z</time></trkpt><trkpt lat="38.828769557774585" lon="16.595963399222715"><ele>53.0</ele><time>2026-04-11T17:04:37Z</time></trkpt><trkpt lat="38.8289091105184" lon="16.59573500998818"><ele>50.0</ele><time>2026-04-11T17:04:38Z</time></trkpt><trkpt lat="38.8290449586867" lon="16.59551107713616"><ele>47.0</ele><time>2026-04-11T17:04:39Z</time></trkpt><trkpt lat="38.82916958559092" lon="16.595317859361213"><ele>47.5</ele><time>2026-04-11T17:04:40Z</time></trkpt><trkpt lat="38.829315773238505" lon="16.595068239066347"><ele>48.0</ele><time>2026-04-11T17:04:41Z</time></trkpt><trkpt lat="38.82945372097664" lon="16.594842396776933"><ele>48.0</ele><time>2026-04-11T17:04:42Z</time></trkpt><trkpt lat="38.82960285035976" lon="16.5946293041349"><ele>48.0</ele><time>2026-04-11T17:04:43Z</time></trkpt><trkpt lat="38.82975537894847" lon="16.59442233190826"><ele>48.0</ele><time>2026-04-11T17:04:44Z</time></trkpt><trkpt lat="38.829915238884546" lon="16.594223000695923"><ele>50.0</ele><time>2026-04-11T17:04:45Z</time></trkpt><trkpt lat="38.830085722952006" lon="16.594030650124058"><ele>52.0</ele><time>2026-04-11T17:04:46Z</time></trkpt><trkpt lat="38.830257771089386" lon="16.593842894463773"><ele>55.0</ele><time>2026-04-11T17:04:47Z</time></trkpt><trkpt lat="38.830427539562976" lon="16.593658977647415"><ele>58.0</ele><time>2026-04-11T17:04:48Z</time></trkpt><trkpt lat="38.83067092725261" lon="16.5935854416785"><ele>58.0</ele><time>2026-04-11T17:04:49Z</time></trkpt><trkpt lat="38.83084045914044" lon="16.593475646780426"><ele>58.0</ele><time>2026-04-11T17:04:50Z</time></trkpt><trkpt lat="38.83101845036669" lon="16.593417783991846"><ele>58.0</ele><time>2026-04-11T17:04:51Z</time></trkpt><trkpt lat="38.83118922030888" lon="16.593394454461308"><ele>57.666666666666664</ele><time>2026-04-11T17:04:52Z</time></trkpt><trkpt lat="38.83138951800784" lon="16.593356397111464"><ele>57.33333333333333</ele><time>2026-04-11T17:04:53Z</time></trkpt><trkpt lat="38.83159542015329" lon="16.59331153014649"><ele>57.0</ele><time>2026-04-11T17:04:54Z</time></trkpt><trkpt lat="38.83180788636836" lon="16.593240877462424"><ele>37.0</ele><time>2026-04-11T17:04:55Z</time></trkpt><trkpt lat="38.83196100259741" lon="16.592420573265436"><ele>37.0</ele><time>2026-04-11T17:04:56Z</time></trkpt><trkpt lat="38.83217079146743" lon="16.59229424826354"><ele>37.0</ele><time>2026-04-11T17:04:57Z</time></trkpt><trkpt lat="38.83238269408859" lon="16.592167161330124"><ele>37.0</ele><time>2026-04-11T17:04:58Z</time></trkpt><trkpt lat="38.83259987708951" lon="16.592040942266355"><ele>37.0</ele><time>2026-04-11T17:04:59Z</time></trkpt><trkpt lat="38.83281691027194" lon="16.591916122797787"><ele>32.5</ele><time>2026-04-11T17:05:00Z</time></trkpt><trkpt lat="38.83303688200356" lon="16.59178797655715"><ele>28.0</ele><time>2026-04-11T17:05:01Z</time></trkpt><trkpt lat="38.83325795427599" lon="16.591655531674306"><ele>31.5</ele><time>2026-04-11T17:05:02Z</time></trkpt><trkpt lat="38.83348049982553" lon="16.591524670651665"><ele>35.0</ele><time>2026-04-11T17:05:03Z</time></trkpt><trkpt lat="38.83370600720217" lon="16.591395970959493"><ele>35.0</ele><time>2026-04-11T17:05:04Z</time></trkpt><trkpt lat="38.833935949308945" lon="16.591262031947018"><ele>35.0</ele><time>2026-04-11T17:05:05Z</time></trkpt><trkpt lat="38.834159596051386" lon="16.59112976757518"><ele>34.5</ele><time>2026-04-11T17:05:06Z</time></trkpt><trkpt lat="38.834387467827646" lon="16.59099433609926"><ele>34.0</ele><time>2026-04-11T17:05:07Z</time></trkpt><trkpt lat="38.83461437680819" lon="16.590863492679777"><ele>34.0</ele><time>2026-04-11T17:05:08Z</time></trkpt><trkpt lat="38.8348388105215" lon="16.59073320659628"><ele>34.0</ele><time>2026-04-11T17:05:09Z</time></trkpt><trkpt lat="38.83506636675752" lon="16.590602813663914"><ele>36.0</ele><time>2026-04-11T17:05:10Z</time></trkpt><trkpt lat="38.835294005700376" lon="16.590468485669486"><ele>38.0</ele><time>2026-04-11T17:05:11Z</time></trkpt><trkpt lat="38.83552045259985" lon="16.590337604953536"><ele>38.0</ele><time>2026-04-11T17:05:12Z</time></trkpt><trkpt lat="38.83574793001368" lon="16.590201371174427"><ele>38.0</ele><time>2026-04-11T17:05:13Z</time></trkpt><trkpt lat="38.835972610326756" lon="16.59007044504007"><ele>44.5</ele><time>2026-04-11T17:05:14Z</time></trkpt><trkpt lat="38.83620028103325" lon="16.589938925919476"><ele>51.0</ele><time>2026-04-11T17:05:15Z</time></trkpt><trkpt lat="38.83642987752758" lon="16.589803196837686"><ele>51.0</ele><time>2026-04-11T17:05:16Z</time></trkpt><trkpt lat="38.83665770767028" lon="16.589670423125728"><ele>51.0</ele><time>2026-04-11T17:05:17Z</time></trkpt><trkpt lat="38.836884184237135" lon="16.589537538074815"><ele>49.0</ele><time>2026-04-11T17:05:18Z</time></trkpt><trkpt lat="38.83711034439384" lon="16.58940451566608"><ele>47.0</ele><time>2026-04-11T17:05:19Z</time></trkpt><trkpt lat="38.837332851390556" lon="16.58927418227625"><ele>47.0</ele><time>2026-04-11T17:05:20Z</time></trkpt><trkpt lat="38.83755691702768" lon="16.5891383359324"><ele>47.0</ele><time>2026-04-11T17:05:21Z</time></trkpt><trkpt lat="38.837778121762824" lon="16.589005661202172"><ele>47.0</ele><time>2026-04-11T17:05:22Z</time></trkpt><trkpt lat="38.8379997208848" lon="16.588872275551445"><ele>47.0</ele><time>2026-04-11T17:05:23Z</time></trkpt><trkpt lat="38.83822034721528" lon="16.588734219701735"><ele>42.0</ele><time>2026-04-11T17:05:24Z</time></trkpt><trkpt lat="38.83843978831625" lon="16.58860270220323"><ele>37.0</ele><time>2026-04-11T17:05:25Z</time></trkpt><trkpt lat="38.83865792579639" lon="16.588471275351324"><ele>36.0</ele><time>2026-04-11T17:05:26Z</time></trkpt><trkpt lat="38.838875111120245" lon="16.588336151799087"><ele>35.0</ele><time>2026-04-11T17:05:27Z</time></trkpt><trkpt lat="38.83909180619078" lon="16.588197077852374"><ele>33.0</ele><time>2026-04-11T17:05:28Z</time></trkpt><trkpt lat="38.83930810747909" lon="16.58805472653054"><ele>31.0</ele><time>2026-04-11T17:05:29Z</time></trkpt><trkpt lat="38.83952287499177" lon="16.58790958703799"><ele>30.0</ele><time>2026-04-11T17:05:30Z</time></trkpt><trkpt lat="38.839733284353606" lon="16.587759409557794"><ele>29.0</ele><time>2026-04-11T17:05:31Z</time></trkpt><trkpt lat="38.83994291173769" lon="16.587605835369306"><ele>32.0</ele><time>2026-04-11T17:05:32Z</time></trkpt><trkpt lat="38.84015244891585" lon="16.587449086400984"><ele>35.0</ele><time>2026-04-11T17:05:33Z</time></trkpt><trkpt lat="38.840360792454696" lon="16.587290410704448"><ele>35.0</ele><time>2026-04-11T17:05:34Z</time></trkpt><trkpt lat="38.8405701870282" lon="16.58712973970576"><ele>35.0</ele><time>2026-04-11T17:05:35Z</time></trkpt><trkpt lat="38.84077692209177" lon="16.586962825860383"><ele>34.5</ele><time>2026-04-11T17:05:36Z</time></trkpt><trkpt lat="38.8409846836029" lon="16.586794494055944"><ele>34.0</ele><time>2026-04-11T17:05:37Z</time></trkpt><trkpt lat="38.84118860551822" lon="16.5865904700039"><ele>34.0</ele><time>2026-04-11T17:05:38Z</time></trkpt><trkpt lat="38.84139047558566" lon="16.58643696009792"><ele>34.0</ele><time>2026-04-11T17:05:39Z</time></trkpt><trkpt lat="38.84159489074745" lon="16.586259568452267"><ele>32.5</ele><time>2026-04-11T17:05:40Z</time></trkpt><trkpt lat="38.84179864888299" lon="16.586078950225968"><ele>31.0</ele><time>2026-04-11T17:05:41Z</time></trkpt><trkpt lat="38.8420030116571" lon="16.585899878150784"><ele>31.0</ele><time>2026-04-11T17:05:42Z</time></trkpt><trkpt lat="38.842209822178425" lon="16.585721759533136"><ele>31.0</ele><time>2026-04-11T17:05:43Z</time></trkpt><trkpt lat="38.842415183541725" lon="16.585545463814604"><ele>31.0</ele><time>2026-04-11T17:05:44Z</time></trkpt><trkpt lat="38.84261601188883" lon="16.58536934777309"><ele>31.0</ele><time>2026-04-11T17:05:45Z</time></trkpt><trkpt lat="38.842817626597046" lon="16.5851920156497"><ele>30.5</ele><time>2026-04-11T17:05:46Z</time></trkpt><trkpt lat="38.84302071743002" lon="16.58501802916644"><ele>30.0</ele><time>2026-04-11T17:05:47Z</time></trkpt><trkpt lat="38.84322519786643" lon="16.584837288860534"><ele>30.0</ele><time>2026-04-11T17:05:48Z</time></trkpt><trkpt lat="38.843426149751004" lon="16.584658346836548"><ele>30.0</ele><time>2026-04-11T17:05:49Z</time></trkpt><trkpt lat="38.84362700199657" lon="16.58448026515265"><ele>29.5</ele><time>2026-04-11T17:05:50Z</time></trkpt><trkpt lat="38.84381658506033" lon="16.58431722065489"><ele>29.0</ele><time>2026-04-11T17:05:51Z</time></trkpt><trkpt lat="38.84402377353673" lon="16.58413100997461"><ele>29.0</ele><time>2026-04-11T17:05:52Z</time></trkpt><trkpt lat="38.84422089584235" lon="16.58395439208681"><ele>29.0</ele><time>2026-04-11T17:05:53Z</time></trkpt><trkpt lat="38.84442112665893" lon="16.583778890741076"><ele>28.5</ele><time>2026-04-11T17:05:54Z</time></trkpt><trkpt lat="38.84461808949149" lon="16.583605015352248"><ele>28.0</ele><time>2026-04-11T17:05:55Z</time></trkpt><trkpt lat="38.84481620018412" lon="16.583429613087247"><ele>28.0</ele><time>2026-04-11T17:05:56Z</time></trkpt><trkpt lat="38.845012978583824" lon="16.583255295992217"><ele>28.0</ele><time>2026-04-11T17:05:57Z</time></trkpt><trkpt lat="38.84521134460684" lon="16.5830813565676"><ele>28.5</ele><time>2026-04-11T17:05:58Z</time></trkpt><trkpt lat="38.84540873111199" lon="16.582904549637313"><ele>29.0</ele><time>2026-04-11T17:05:59Z</time></trkpt><trkpt lat="38.845602053100585" lon="16.58273331735756"><ele>29.0</ele><time>2026-04-11T17:06:00Z</time></trkpt><trkpt lat="38.84580319901425" lon="16.58255594326723"><ele>29.0</ele><time>2026-04-11T17:06:01Z</time></trkpt><trkpt lat="38.84600373614713" lon="16.58238344442038"><ele>29.0</ele><time>2026-04-11T17:06:02Z</time></trkpt><trkpt lat="38.84620474596183" lon="16.582215446362234"><ele>29.0</ele><time>2026-04-11T17:06:03Z</time></trkpt><trkpt lat="38.84640375514857" lon="16.58205068811413"><ele>28.5</ele><time>2026-04-11T17:06:04Z</time></trkpt><trkpt lat="38.84660242470488" lon="16.58188902710243"><ele>28.0</ele><time>2026-04-11T17:06:05Z</time></trkpt><trkpt lat="38.8468012306533" lon="16.581726732997875"><ele>29.0</ele><time>2026-04-11T17:06:06Z</time></trkpt><trkpt lat="38.84699610860975" lon="16.581563755386885"><ele>30.0</ele><time>2026-04-11T17:06:07Z</time></trkpt><trkpt lat="38.84719449766567" lon="16.58140231558891"><ele>30.0</ele><time>2026-04-11T17:06:08Z</time></trkpt><trkpt lat="38.84739073444725" lon="16.5812416115467"><ele>30.0</ele><time>2026-04-11T17:06:09Z</time></trkpt><trkpt lat="38.84758678210917" lon="16.581082595601632"><ele>30.0</ele><time>2026-04-11T17:06:10Z</time></trkpt><trkpt lat="38.84778030814337" lon="16.580923991595125"><ele>30.0</ele><time>2026-04-11T17:06:11Z</time></trkpt><trkpt lat="38.847969162213666" lon="16.58076359003999"><ele>30.0</ele><time>2026-04-11T17:06:12Z</time></trkpt><trkpt lat="38.848159860682514" lon="16.580604066837296"><ele>30.0</ele><time>2026-04-11T17:06:13Z</time></trkpt><trkpt lat="38.84834783282969" lon="16.5804442543864"><ele>29.333333333333336</ele><time>2026-04-11T17:06:14Z</time></trkpt><trkpt lat="38.848535725921714" lon="16.58029069357346"><ele>28.666666666666668</ele><time>2026-04-11T17:06:15Z</time></trkpt><trkpt lat="38.84872347579888" lon="16.58014063182549"><ele>28.0</ele><time>2026-04-11T17:06:16Z</time></trkpt><trkpt lat="38.84891588015886" lon="16.579991595470393"><ele>28.0</ele><time>2026-04-11T17:06:17Z</time></trkpt><trkpt lat="38.84910417919429" lon="16.579848230443357"><ele>28.0</ele><time>2026-04-11T17:06:18Z</time></trkpt><trkpt lat="38.849292841903655" lon="16.579700071286045"><ele>28.0</ele><time>2026-04-11T17:06:19Z</time></trkpt><trkpt lat="38.84948457552876" lon="16.57954943380232"><ele>28.333333333333336</ele><time>2026-04-11T17:06:20Z</time></trkpt><trkpt lat="38.8496752957877" lon="16.57939622526606"><ele>28.666666666666664</ele><time>2026-04-11T17:06:21Z</time></trkpt><trkpt lat="38.84985727425053" lon="16.579253110055998"><ele>29.0</ele><time>2026-04-11T17:06:22Z</time></trkpt><trkpt lat="38.85006327164969" lon="16.579088264490988"><ele>29.5</ele><time>2026-04-11T17:06:23Z</time></trkpt><trkpt lat="38.85025699465417" lon="16.578939861677494"><ele>30.0</ele><time>2026-04-11T17:06:24Z</time></trkpt><trkpt lat="38.85045650969548" lon="16.57878046465901"><ele>29.5</ele><time>2026-04-11T17:06:25Z</time></trkpt><trkpt lat="38.85065739132777" lon="16.578615635700253"><ele>29.0</ele><time>2026-04-11T17:06:26Z</time></trkpt><trkpt lat="38.85085696240432" lon="16.5784522132506"><ele>29.0</ele><time>2026-04-11T17:06:27Z</time></trkpt><trkpt lat="38.85105647338645" lon="16.57828781720228"><ele>29.0</ele><time>2026-04-11T17:06:28Z</time></trkpt><trkpt lat="38.85125984866774" lon="16.578121559706407"><ele>29.0</ele><time>2026-04-11T17:06:29Z</time></trkpt><trkpt lat="38.85146423596334" lon="16.577958068247998"><ele>29.0</ele><time>2026-04-11T17:06:30Z</time></trkpt><trkpt lat="38.85166840145974" lon="16.57779127594835"><ele>29.5</ele><time>2026-04-11T17:06:31Z</time></trkpt><trkpt lat="38.851867404577824" lon="16.57762614843668"><ele>30.0</ele><time>2026-04-11T17:06:32Z</time></trkpt><trkpt lat="38.85206664572563" lon="16.57745950866144"><ele>30.0</ele><time>2026-04-11T17:06:33Z</time></trkpt><trkpt lat="38.852267504499906" lon="16.577294628103658"><ele>30.0</ele><time>2026-04-11T17:06:34Z</time></trkpt><trkpt lat="38.852463998024376" lon="16.577127048917173"><ele>30.0</ele><time>2026-04-11T17:06:35Z</time></trkpt><trkpt lat="38.85265432163287" lon="16.57694851233198"><ele>30.0</ele><time>2026-04-11T17:06:36Z</time></trkpt><trkpt lat="38.852857396251025" lon="16.576786162666732"><ele>30.0</ele><time>2026-04-11T17:06:37Z</time></trkpt><trkpt lat="38.853069900200154" lon="16.576627780928384"><ele>30.0</ele><time>2026-04-11T17:06:38Z</time></trkpt><trkpt lat="38.85327715036977" lon="16.576462005468922"><ele>30.0</ele><time>2026-04-11T17:06:39Z</time></trkpt><trkpt lat="38.85346704030137" lon="16.576304774152483"><ele>30.0</ele><time>2026-04-11T17:06:40Z</time></trkpt><trkpt lat="38.8536618116046" lon="16.576138620737748"><ele>30.0</ele><time>2026-04-11T17:06:41Z</time></trkpt><trkpt lat="38.85385636454537" lon="16.575972144842815"><ele>30.0</ele><time>2026-04-11T17:06:42Z</time></trkpt><trkpt lat="38.854055149444555" lon="16.57580553261477"><ele>30.0</ele><time>2026-04-11T17:06:43Z</time></trkpt><trkpt lat="38.85425333445424" lon="16.57564402238601"><ele>30.0</ele><time>2026-04-11T17:06:44Z</time></trkpt><trkpt lat="38.854449582419605" lon="16.575480630989535"><ele>29.5</ele><time>2026-04-11T17:06:45Z</time></trkpt><trkpt lat="38.854646053012374" lon="16.575312529763824"><ele>29.0</ele><time>2026-04-11T17:06:46Z</time></trkpt><trkpt lat="38.8548431502773" lon="16.575145500896216"><ele>29.0</ele><time>2026-04-11T17:06:47Z</time></trkpt><trkpt lat="38.85503549385399" lon="16.57497940839155"><ele>29.0</ele><time>2026-04-11T17:06:48Z</time></trkpt><trkpt lat="38.85522785258192" lon="16.574811700912335"><ele>29.5</ele><time>2026-04-11T17:06:49Z</time></trkpt><trkpt lat="38.85542030025548" lon="16.574640198296592"><ele>30.0</ele><time>2026-04-11T17:06:50Z</time></trkpt><trkpt lat="38.85561225717358" lon="16.574472712591877"><ele>30.0</ele><time>2026-04-11T17:06:51Z</time></trkpt><trkpt lat="38.85580005566891" lon="16.57429845447606"><ele>30.0</ele><time>2026-04-11T17:06:52Z</time></trkpt><trkpt lat="38.85598832086346" lon="16.574122950706638"><ele>30.5</ele><time>2026-04-11T17:06:53Z</time></trkpt><trkpt lat="38.85617829791984" lon="16.573946985069117"><ele>31.0</ele><time>2026-04-11T17:06:54Z</time></trkpt><trkpt lat="38.856369449489186" lon="16.573773136529226"><ele>30.5</ele><time>2026-04-11T17:06:55Z</time></trkpt><trkpt lat="38.85656091090585" lon="16.573598690035865"><ele>30.0</ele><time>2026-04-11T17:06:56Z</time></trkpt><trkpt lat="38.85674849206968" lon="16.57342136705335"><ele>30.0</ele><time>2026-04-11T17:06:57Z</time></trkpt><trkpt lat="38.85693670590056" lon="16.573244207971314"><ele>30.0</ele><time>2026-04-11T17:06:58Z</time></trkpt><trkpt lat="38.85713014493226" lon="16.573072901200117"><ele>30.0</ele><time>2026-04-11T17:06:59Z</time></trkpt><trkpt lat="38.85732147036395" lon="16.572903963798023"><ele>30.0</ele><time>2026-04-11T17:07:00Z</time></trkpt><trkpt lat="38.85751544118195" lon="16.57273313328882"><ele>31.0</ele><time>2026-04-11T17:07:01Z</time></trkpt><trkpt lat="38.85770629028333" lon="16.572564588510865"><ele>32.0</ele><time>2026-04-11T17:07:02Z</time></trkpt><trkpt lat="38.85789762661658" lon="16.57239521393703"><ele>32.0</ele><time>2026-04-11T17:07:03Z</time></trkpt><trkpt lat="38.85808786921196" lon="16.572224262917914"><ele>32.0</ele><time>2026-04-11T17:07:04Z</time></trkpt><trkpt lat="38.85827646957118" lon="16.572055634101034"><ele>32.5</ele><time>2026-04-11T17:07:05Z</time></trkpt><trkpt lat="38.85846373876211" lon="16.571886938569172"><ele>33.0</ele><time>2026-04-11T17:07:06Z</time></trkpt><trkpt lat="38.85865099543903" lon="16.571716395500918"><ele>33.0</ele><time>2026-04-11T17:07:07Z</time></trkpt><trkpt lat="38.85883575384389" lon="16.571546524793266"><ele>33.0</ele><time>2026-04-11T17:07:08Z</time></trkpt><trkpt lat="38.85902209311273" lon="16.571378596551746"><ele>33.0</ele><time>2026-04-11T17:07:09Z</time></trkpt><trkpt lat="38.85921048698664" lon="16.571212479552337"><ele>33.0</ele><time>2026-04-11T17:07:10Z</time></trkpt><trkpt lat="38.8593958921496" lon="16.571047810088764"><ele>33.5</ele><time>2026-04-11T17:07:11Z</time></trkpt><trkpt lat="38.85957922513837" lon="16.57088208647365"><ele>34.0</ele><time>2026-04-11T17:07:12Z</time></trkpt><trkpt lat="38.85976466580415" lon="16.57071432841565"><ele>34.0</ele><time>2026-04-11T17:07:13Z</time></trkpt><trkpt lat="38.85995084850264" lon="16.570545626752484"><ele>34.0</ele><time>2026-04-11T17:07:14Z</time></trkpt><trkpt lat="38.86013361460226" lon="16.570372407092325"><ele>34.0</ele><time>2026-04-11T17:07:15Z</time></trkpt><trkpt lat="38.86032306338525" lon="16.57020867322056"><ele>34.0</ele><time>2026-04-11T17:07:16Z</time></trkpt><trkpt lat="38.86050998013996" lon="16.570048829819562"><ele>34.0</ele><time>2026-04-11T17:07:17Z</time></trkpt><trkpt lat="38.860680805362485" lon="16.569906110097723"><ele>34.0</ele><time>2026-04-11T17:07:18Z</time></trkpt><trkpt lat="38.86083689319944" lon="16.569765557592657"><ele>34.0</ele><time>2026-04-11T17:07:19Z</time></trkpt><trkpt lat="38.86098746875903" lon="16.56963779369076"><ele>35.0</ele><time>2026-04-11T17:07:20Z</time></trkpt><trkpt lat="38.86113394710683" lon="16.569518676456326"><ele>36.0</ele><time>2026-04-11T17:07:21Z</time></trkpt><trkpt lat="38.86126203592222" lon="16.56940690518606"><ele>37.0</ele><time>2026-04-11T17:07:22Z</time></trkpt><trkpt lat="38.86138854006332" lon="16.56930281521127"><ele>37.0</ele><time>2026-04-11T17:07:23Z</time></trkpt><trkpt lat="38.86151240972439" lon="16.569205785596164"><ele>37.0</ele><time>2026-04-11T17:07:24Z</time></trkpt><trkpt lat="38.861623555719625" lon="16.569112364020384"><ele>37.0</ele><time>2026-04-11T17:07:25Z</time></trkpt><trkpt lat="38.8617285204337" lon="16.569028136886693"><ele>37.0</ele><time>2026-04-11T17:07:26Z</time></trkpt><trkpt lat="38.86183107589561" lon="16.56894540234463"><ele>37.75</ele><time>2026-04-11T17:07:27Z</time></trkpt><trkpt lat="38.861930264639746" lon="16.568871966809393"><ele>38.5</ele><time>2026-04-11T17:07:28Z</time></trkpt><trkpt lat="38.862037148808206" lon="16.568810234997983"><ele>39.25</ele><time>2026-04-11T17:07:29Z</time></trkpt><trkpt lat="38.8621567357009" lon="16.568758681185418"><ele>40.0</ele><time>2026-04-11T17:07:30Z</time></trkpt><trkpt lat="38.862277663557144" lon="16.568719467621378"><ele>40.2</ele><time>2026-04-11T17:07:31Z</time></trkpt><trkpt lat="38.86240353920516" lon="16.568683559997865"><ele>40.4</ele><time>2026-04-11T17:07:32Z</time></trkpt><trkpt lat="38.862458247142854" lon="16.56863639937857"><ele>40.599999999999994</ele><time>2026-04-11T17:07:33Z</time></trkpt><trkpt lat="38.862543697217475" lon="16.568602057447514"><ele>40.8</ele><time>2026-04-11T17:07:34Z</time></trkpt><trkpt lat="38.86262952810427" lon="16.56856025778066"><ele>41.0</ele><time>2026-04-11T17:07:35Z</time></trkpt><trkpt lat="38.86270807540597" lon="16.568504590182364"><ele>41.0</ele><time>2026-04-11T17:07:36Z</time></trkpt><trkpt lat="38.86278566206124" lon="16.568444654718025"><ele>41.0</ele><time>2026-04-11T17:07:37Z</time></trkpt><trkpt lat="38.862864281589275" lon="16.56837345886191"><ele>41.0</ele><time>2026-04-11T17:07:38Z</time></trkpt><trkpt lat="38.862949412276464" lon="16.56829626932379"><ele>41.0</ele><time>2026-04-11T17:07:39Z</time></trkpt><trkpt lat="38.863045315802054" lon="16.568212109037088"><ele>41.0</ele><time>2026-04-11T17:07:40Z</time></trkpt><trkpt lat="38.86312470230912" lon="16.56815216144697"><ele>41.0</ele><time>2026-04-11T17:07:41Z</time></trkpt><trkpt lat="38.863206122870274" lon="16.568096171586518"><ele>41.0</ele><time>2026-04-11T17:07:42Z</time></trkpt><trkpt lat="38.863272123764176" lon="16.56803931632627"><ele>41.0</ele><time>2026-04-11T17:07:43Z</time></trkpt><trkpt lat="38.863353253265096" lon="16.567970802331025"><ele>41.0</ele><time>2026-04-11T17:07:45Z</time></trkpt><trkpt lat="38.86343136794093" lon="16.567935493268518"><ele>41.0</ele><time>2026-04-11T17:07:48Z</time></trkpt><trkpt lat="38.8635270057557" lon="16.56790818345161"><ele>41.166666666666664</ele><time>2026-04-11T17:08:30Z</time></trkpt><trkpt lat="38.86360653042926" lon="16.567928066415277"><ele>41.33333333333333</ele><time>2026-04-11T17:08:32Z</time></trkpt><trkpt lat="38.8636751050701" lon="16.568000512624412"><ele>41.5</ele><time>2026-04-11T17:08:35Z</time></trkpt><trkpt lat="38.86372779372336" lon="16.5680838204145"><ele>41.666666666666664</ele><time>2026-04-11T17:08:37Z</time></trkpt><trkpt lat="38.863801448731245" lon="16.56817555403925"><ele>41.833333333333336</ele><time>2026-04-11T17:08:39Z</time></trkpt><trkpt lat="38.863861087623775" lon="16.568221699374394"><ele>42.0</ele><time>2026-04-11T17:08:40Z</time></trkpt><trkpt lat="38.863933260061216" lon="16.568261346266677"><ele>42.0</ele><time>2026-04-11T17:08:41Z</time></trkpt><trkpt lat="38.86401074986226" lon="16.56829122216445"><ele>42.0</ele><time>2026-04-11T17:08:42Z</time></trkpt><trkpt lat="38.86409956461829" lon="16.568293456907615"><ele>42.0</ele><time>2026-04-11T17:08:43Z</time></trkpt><trkpt lat="38.86419640980831" lon="16.568274026073063"><ele>42.0</ele><time>2026-04-11T17:08:44Z</time></trkpt><trkpt lat="38.86428874483198" lon="16.568226857948435"><ele>42.0</ele><time>2026-04-11T17:08:45Z</time></trkpt><trkpt lat="38.864376523276775" lon="16.5681643774039"><ele>42.6</ele><time>2026-04-11T17:08:46Z</time></trkpt><trkpt lat="38.864426150224055" lon="16.56806293767356"><ele>43.2</ele><time>2026-04-11T17:08:47Z</time></trkpt><trkpt lat="38.86448263320411" lon="16.567961316957046"><ele>43.8</ele><time>2026-04-11T17:08:48Z</time></trkpt><trkpt lat="38.864528824861964" lon="16.567869466361106"><ele>44.4</ele><time>2026-04-11T17:08:49Z</time></trkpt><trkpt lat="38.86453394984261" lon="16.56778205334422"><ele>45.0</ele><time>2026-04-11T17:08:50Z</time></trkpt><trkpt lat="38.86468196717502" lon="16.567690981574078"><ele>45.8</ele><time>2026-04-11T17:08:53Z</time></trkpt><trkpt lat="38.86477895569148" lon="16.567671804425263"><ele>46.6</ele><time>2026-04-11T17:08:55Z</time></trkpt><trkpt lat="38.86486919927273" lon="16.567609808224837"><ele>47.400000000000006</ele><time>2026-04-11T17:08:57Z</time></trkpt><trkpt lat="38.86494373029928" lon="16.56750862225809"><ele>48.2</ele><time>2026-04-11T17:08:59Z</time></trkpt><trkpt lat="38.86501562923353" lon="16.567398767727834"><ele>49.0</ele><time>2026-04-11T17:09:01Z</time></trkpt><trkpt lat="38.8650877751356" lon="16.567275382518975"><ele>50.2</ele><time>2026-04-11T17:09:03Z</time></trkpt><trkpt lat="38.86515030148647" lon="16.56717827182582"><ele>51.400000000000006</ele><time>2026-04-11T17:09:05Z</time></trkpt><trkpt lat="38.86518307156656" lon="16.56705636208662"><ele>52.6</ele><time>2026-04-11T17:09:07Z</time></trkpt><trkpt lat="38.8652625449189" lon="16.5669261005959"><ele>53.8</ele><time>2026-04-11T17:09:09Z</time></trkpt><trkpt lat="38.86530770435988" lon="16.566862900911598"><ele>55.0</ele><time>2026-04-11T17:09:10Z</time></trkpt><trkpt lat="38.8653696639777" lon="16.566785218233587"><ele>55.0</ele><time>2026-04-11T17:09:11Z</time></trkpt><trkpt lat="38.865433544981045" lon="16.566694265504026"><ele>55.0</ele><time>2026-04-11T17:09:12Z</time></trkpt><trkpt lat="38.86552005567868" lon="16.56659886295306"><ele>55.0</ele><time>2026-04-11T17:09:13Z</time></trkpt><trkpt lat="38.8655842797122" lon="16.566500704714446"><ele>55.0</ele><time>2026-04-11T17:09:14Z</time></trkpt><trkpt lat="38.865655755254295" lon="16.566427169865644"><ele>55.0</ele><time>2026-04-11T17:09:15Z</time></trkpt><trkpt lat="38.86575853272174" lon="16.566319075204465"><ele>54.33333333333333</ele><time>2026-04-11T17:09:16Z</time></trkpt><trkpt lat="38.86586392340312" lon="16.566193276750806"><ele>53.66666666666667</ele><time>2026-04-11T17:09:17Z</time></trkpt><trkpt lat="38.86598344696709" lon="16.566055000063812"><ele>53.0</ele><time>2026-04-11T17:09:18Z</time></trkpt><trkpt lat="38.86610411668088" lon="16.565913456639084"><ele>53.0</ele><time>2026-04-11T17:09:19Z</time></trkpt><trkpt lat="38.86623339173587" lon="16.565769355167433"><ele>53.0</ele><time>2026-04-11T17:09:20Z</time></trkpt><trkpt lat="38.86635725672716" lon="16.56562425364551"><ele>53.0</ele><time>2026-04-11T17:09:21Z</time></trkpt><trkpt lat="38.86650282666275" lon="16.565495231513612"><ele>54.0</ele><time>2026-04-11T17:09:22Z</time></trkpt><trkpt lat="38.86665194465458" lon="16.565352639965923"><ele>55.0</ele><time>2026-04-11T17:09:23Z</time></trkpt><trkpt lat="38.86679920535553" lon="16.56520913861985"><ele>56.0</ele><time>2026-04-11T17:09:24Z</time></trkpt><trkpt lat="38.866956771655865" lon="16.565076773661307"><ele>56.0</ele><time>2026-04-11T17:09:25Z</time></trkpt><trkpt lat="38.8671243971983" lon="16.56495615229961"><ele>56.0</ele><time>2026-04-11T17:09:26Z</time></trkpt><trkpt lat="38.867286055639006" lon="16.56483353153921"><ele>56.0</ele><time>2026-04-11T17:09:27Z</time></trkpt><trkpt lat="38.86745026064926" lon="16.564713130124115"><ele>57.333333333333336</ele><time>2026-04-11T17:09:28Z</time></trkpt><trkpt lat="38.86761670280333" lon="16.5645906587332"><ele>58.66666666666667</ele><time>2026-04-11T17:09:29Z</time></trkpt><trkpt lat="38.86778852931489" lon="16.564483213786794"><ele>60.0</ele><time>2026-04-11T17:09:30Z</time></trkpt><trkpt lat="38.86795295386335" lon="16.564364491682326"><ele>56.33333333333333</ele><time>2026-04-11T17:09:31Z</time></trkpt><trkpt lat="38.868106227739716" lon="16.56423884669662"><ele>52.666666666666664</ele><time>2026-04-11T17:09:32Z</time></trkpt><trkpt lat="38.86826185084471" lon="16.564124924277767"><ele>49.0</ele><time>2026-04-11T17:09:33Z</time></trkpt><trkpt lat="38.86841880165652" lon="16.564010523593304"><ele>48.0</ele><time>2026-04-11T17:09:34Z</time></trkpt><trkpt lat="38.86858759109838" lon="16.56389550666432"><ele>47.0</ele><time>2026-04-11T17:09:35Z</time></trkpt><trkpt lat="38.86875788409943" lon="16.563771416514406"><ele>46.0</ele><time>2026-04-11T17:09:36Z</time></trkpt><trkpt lat="38.868929075505505" lon="16.563645168890766"><ele>45.333333333333336</ele><time>2026-04-11T17:09:37Z</time></trkpt><trkpt lat="38.86911121538312" lon="16.56353166024708"><ele>44.666666666666664</ele><time>2026-04-11T17:09:38Z</time></trkpt><trkpt lat="38.8692896065387" lon="16.563378066488934"><ele>44.0</ele><time>2026-04-11T17:09:39Z</time></trkpt><trkpt lat="38.86947375534041" lon="16.563243534987983"><ele>44.0</ele><time>2026-04-11T17:09:40Z</time></trkpt><trkpt lat="38.86965868224766" lon="16.56310261316026"><ele>44.0</ele><time>2026-04-11T17:09:41Z</time></trkpt><trkpt lat="38.86983611595118" lon="16.562953578909887"><ele>44.0</ele><time>2026-04-11T17:09:42Z</time></trkpt><trkpt lat="38.870012669278836" lon="16.562790617426593"><ele>44.33333333333333</ele><time>2026-04-11T17:09:43Z</time></trkpt><trkpt lat="38.87017967576821" lon="16.562636989415505"><ele>44.666666666666664</ele><time>2026-04-11T17:09:44Z</time></trkpt><trkpt lat="38.87034122590971" lon="16.562489588312392"><ele>45.0</ele><time>2026-04-11T17:09:45Z</time></trkpt><trkpt lat="38.87049795670763" lon="16.56234754675557"><ele>45.0</ele><time>2026-04-11T17:09:46Z</time></trkpt><trkpt lat="38.8706488056597" lon="16.562217212832483"><ele>45.0</ele><time>2026-04-11T17:09:47Z</time></trkpt><trkpt lat="38.87079640083276" lon="16.56209905450461"><ele>45.0</ele><time>2026-04-11T17:09:48Z</time></trkpt><trkpt lat="38.870946994703196" lon="16.561995541072058"><ele>44.666666666666664</ele><time>2026-04-11T17:09:49Z</time></trkpt><trkpt lat="38.871107369098134" lon="16.561917158018392"><ele>44.33333333333333</ele><time>2026-04-11T17:09:50Z</time></trkpt><trkpt lat="38.87127479116979" lon="16.56188456445363"><ele>44.0</ele><time>2026-04-11T17:09:51Z</time></trkpt><trkpt lat="38.87141837799526" lon="16.5618330030018"><ele>44.0</ele><time>2026-04-11T17:09:52Z</time></trkpt><trkpt lat="38.87159609792524" lon="16.561795567660436"><ele>44.0</ele><time>2026-04-11T17:09:53Z</time></trkpt><trkpt lat="38.871781186733934" lon="16.561784405685227"><ele>44.0</ele><time>2026-04-11T17:09:54Z</time></trkpt><trkpt lat="38.871989768661685" lon="16.561791209959093"><ele>44.666666666666664</ele><time>2026-04-11T17:09:55Z</time></trkpt><trkpt lat="38.87216925819692" lon="16.561796224853502"><ele>45.333333333333336</ele><time>2026-04-11T17:09:56Z</time></trkpt><trkpt lat="38.87236622867363" lon="16.561819151931303"><ele>46.0</ele><time>2026-04-11T17:09:57Z</time></trkpt><trkpt lat="38.87256887128857" lon="16.561825607285876"><ele>46.333333333333336</ele><time>2026-04-11T17:09:58Z</time></trkpt><trkpt lat="38.87277926731358" lon="16.561812296373564"><ele>46.666666666666664</ele><time>2026-04-11T17:09:59Z</time></trkpt><trkpt lat="38.8729912990075" lon="16.561823167812566"><ele>47.0</ele><time>2026-04-11T17:10:00Z</time></trkpt><trkpt lat="38.87320756557614" lon="16.56183500018612"><ele>47.0</ele><time>2026-04-11T17:10:01Z</time></trkpt><trkpt lat="38.8734229337425" lon="16.561844998409477"><ele>47.0</ele><time>2026-04-11T17:10:02Z</time></trkpt><trkpt lat="38.873636589170694" lon="16.561855290481983"><ele>47.0</ele><time>2026-04-11T17:10:03Z</time></trkpt><trkpt lat="38.87384822134991" lon="16.561863432763044"><ele>46.666666666666664</ele><time>2026-04-11T17:10:04Z</time></trkpt><trkpt lat="38.874058877885574" lon="16.56186444531681"><ele>46.333333333333336</ele><time>2026-04-11T17:10:05Z</time></trkpt><trkpt lat="38.87427944060344" lon="16.561874290788428"><ele>46.0</ele><time>2026-04-11T17:10:06Z</time></trkpt><trkpt lat="38.87449629090082" lon="16.56188526508987"><ele>45.66666666666667</ele><time>2026-04-11T17:10:07Z</time></trkpt><trkpt lat="38.87470860889079" lon="16.561895284090046"><ele>45.333333333333336</ele><time>2026-04-11T17:10:08Z</time></trkpt><trkpt lat="38.8749199735985" lon="16.561902813831374"><ele>45.0</ele><time>2026-04-11T17:10:09Z</time></trkpt><trkpt lat="38.875129888078824" lon="16.561903194331332"><ele>45.666666666666664</ele><time>2026-04-11T17:10:10Z</time></trkpt><trkpt lat="38.875336455396074" lon="16.56188963929273"><ele>46.33333333333333</ele><time>2026-04-11T17:10:11Z</time></trkpt><trkpt lat="38.875538984623674" lon="16.561848580552407"><ele>47.0</ele><time>2026-04-11T17:10:12Z</time></trkpt><trkpt lat="38.87573464000483" lon="16.56176444085762"><ele>47.0</ele><time>2026-04-11T17:10:13Z</time></trkpt><trkpt lat="38.87592039433931" lon="16.56163920311927"><ele>47.0</ele><time>2026-04-11T17:10:14Z</time></trkpt><trkpt lat="38.876093093973374" lon="16.56147704211219"><ele>47.0</ele><time>2026-04-11T17:10:15Z</time></trkpt><trkpt lat="38.87625633313539" lon="16.561287750131008"><ele>47.33333333333333</ele><time>2026-04-11T17:10:16Z</time></trkpt><trkpt lat="38.87641151580826" lon="16.561091699337734"><ele>47.666666666666664</ele><time>2026-04-11T17:10:17Z</time></trkpt><trkpt lat="38.87656425244561" lon="16.560892444773515"><ele>48.0</ele><time>2026-04-11T17:10:18Z</time></trkpt><trkpt lat="38.87671959884798" lon="16.5606908881443"><ele>49.0</ele><time>2026-04-11T17:10:19Z</time></trkpt><trkpt lat="38.87687832401708" lon="16.560487322799833"><ele>50.0</ele><time>2026-04-11T17:10:20Z</time></trkpt><trkpt lat="38.87703613841018" lon="16.56028053251763"><ele>50.0</ele><time>2026-04-11T17:10:21Z</time></trkpt><trkpt lat="38.877198275336426" lon="16.56007650678365"><ele>50.0</ele><time>2026-04-11T17:10:22Z</time></trkpt><trkpt lat="38.87735588683488" lon="16.559877408074925"><ele>50.0</ele><time>2026-04-11T17:10:23Z</time></trkpt><trkpt lat="38.87751967956232" lon="16.559681028233342"><ele>51.0</ele><time>2026-04-11T17:10:24Z</time></trkpt><trkpt lat="38.87767961256377" lon="16.55948283873643"><ele>52.0</ele><time>2026-04-11T17:10:25Z</time></trkpt><trkpt lat="38.87784001215806" lon="16.55927916483144"><ele>53.0</ele><time>2026-04-11T17:10:26Z</time></trkpt><trkpt lat="38.87799261755698" lon="16.559072290624115"><ele>53.0</ele><time>2026-04-11T17:10:27Z</time></trkpt><trkpt lat="38.878146850001464" lon="16.558865144015545"><ele>53.0</ele><time>2026-04-11T17:10:28Z</time></trkpt><trkpt lat="38.878306208460366" lon="16.55866879082033"><ele>53.0</ele><time>2026-04-11T17:10:29Z</time></trkpt><trkpt lat="38.87847155998219" lon="16.558471019423788"><ele>53.0</ele><time>2026-04-11T17:10:30Z</time></trkpt><trkpt lat="38.87863444627172" lon="16.55826649497662"><ele>53.0</ele><time>2026-04-11T17:10:31Z</time></trkpt><trkpt lat="38.87880812606388" lon="16.55806736820934"><ele>53.0</ele><time>2026-04-11T17:10:32Z</time></trkpt><trkpt lat="38.87898443043264" lon="16.55787831523671"><ele>53.0</ele><time>2026-04-11T17:10:33Z</time></trkpt><trkpt lat="38.87916301269521" lon="16.557688744178005"><ele>53.0</ele><time>2026-04-11T17:10:34Z</time></trkpt><trkpt lat="38.87934380234954" lon="16.557508148862972"><ele>53.0</ele><time>2026-04-11T17:10:35Z</time></trkpt><trkpt lat="38.879516738822055" lon="16.557329425004127"><ele>53.0</ele><time>2026-04-11T17:10:36Z</time></trkpt><trkpt lat="38.87969439052178" lon="16.55715537372616"><ele>53.0</ele><time>2026-04-11T17:10:37Z</time></trkpt><trkpt lat="38.879872773756205" lon="16.55698501938641"><ele>53.0</ele><time>2026-04-11T17:10:38Z</time></trkpt><trkpt lat="38.880062527139124" lon="16.556839753939187"><ele>53.333333333333336</ele><time>2026-04-11T17:10:39Z</time></trkpt><trkpt lat="38.88025531350299" lon="16.55672504842063"><ele>53.66666666666667</ele><time>2026-04-11T17:10:40Z</time></trkpt><trkpt lat="38.88046632780141" lon="16.556637353120443"><ele>54.0</ele><time>2026-04-11T17:10:41Z</time></trkpt><trkpt lat="38.880690260348516" lon="16.556562890835455"><ele>54.0</ele><time>2026-04-11T17:10:42Z</time></trkpt><trkpt lat="38.88091540850883" lon="16.55648873542815"><ele>54.0</ele><time>2026-04-11T17:10:43Z</time></trkpt><trkpt lat="38.8811452311982" lon="16.556410373151476"><ele>56.5</ele><time>2026-04-11T17:10:44Z</time></trkpt><trkpt lat="38.88137926230691" lon="16.55632925966447"><ele>59.0</ele><time>2026-04-11T17:10:45Z</time></trkpt><trkpt lat="38.88160072434664" lon="16.556245587590336"><ele>58.0</ele><time>2026-04-11T17:10:46Z</time></trkpt><trkpt lat="38.88180749540957" lon="16.556168324887828"><ele>57.0</ele><time>2026-04-11T17:10:47Z</time></trkpt><trkpt lat="38.881999362303986" lon="16.556100062946985"><ele>56.0</ele><time>2026-04-11T17:10:48Z</time></trkpt><trkpt lat="38.88218106946014" lon="16.556042500164615"><ele>56.0</ele><time>2026-04-11T17:10:49Z</time></trkpt><trkpt lat="38.88236954519332" lon="16.555979798158184"><ele>56.0</ele><time>2026-04-11T17:10:50Z</time></trkpt><trkpt lat="38.88255759556557" lon="16.55591507020581"><ele>56.0</ele><time>2026-04-11T17:10:51Z</time></trkpt><trkpt lat="38.88274708161272" lon="16.555849695999612"><ele>57.333333333333336</ele><time>2026-04-11T17:10:52Z</time></trkpt><trkpt lat="38.88293080353547" lon="16.555788896030325"><ele>58.66666666666667</ele><time>2026-04-11T17:10:53Z</time></trkpt><trkpt lat="38.88309902308609" lon="16.555728053095486"><ele>60.0</ele><time>2026-04-11T17:10:54Z</time></trkpt><trkpt lat="38.8832586930689" lon="16.555668532025578"><ele>60.0</ele><time>2026-04-11T17:10:55Z</time></trkpt><trkpt lat="38.883405205853784" lon="16.555623607547307"><ele>60.0</ele><time>2026-04-11T17:10:56Z</time></trkpt><trkpt lat="38.88354720132629" lon="16.555594976995096"><ele>60.0</ele><time>2026-04-11T17:10:57Z</time></trkpt><trkpt lat="38.883699367138014" lon="16.555591204900097"><ele>60.0</ele><time>2026-04-11T17:10:58Z</time></trkpt><trkpt lat="38.883864608401225" lon="16.555603209967156"><ele>60.66666666666667</ele><time>2026-04-11T17:10:59Z</time></trkpt><trkpt lat="38.88403240292913" lon="16.555623658319295"><ele>61.333333333333336</ele><time>2026-04-11T17:11:00Z</time></trkpt><trkpt lat="38.884210751540216" lon="16.555659834729404"><ele>62.0</ele><time>2026-04-11T17:11:01Z</time></trkpt><trkpt lat="38.88439245541575" lon="16.555708476841286"><ele>60.66666666666667</ele><time>2026-04-11T17:11:02Z</time></trkpt><trkpt lat="38.88457373717367" lon="16.555763175971304"><ele>59.33333333333333</ele><time>2026-04-11T17:11:03Z</time></trkpt><trkpt lat="38.884758563461084" lon="16.555827001745044"><ele>58.0</ele><time>2026-04-11T17:11:04Z</time></trkpt><trkpt lat="38.884943430044025" lon="16.55589140126455"><ele>58.33333333333333</ele><time>2026-04-11T17:11:05Z</time></trkpt><trkpt lat="38.88512626266534" lon="16.55594710357498"><ele>58.66666666666667</ele><time>2026-04-11T17:11:06Z</time></trkpt><trkpt lat="38.88529653144895" lon="16.55599613049792"><ele>59.0</ele><time>2026-04-11T17:11:07Z</time></trkpt><trkpt lat="38.885454913579814" lon="16.556043255605946"><ele>59.0</ele><time>2026-04-11T17:11:08Z</time></trkpt><trkpt lat="38.88560361449569" lon="16.556086550704077"><ele>59.0</ele><time>2026-04-11T17:11:09Z</time></trkpt><trkpt lat="38.88575223688941" lon="16.556136746906702"><ele>59.0</ele><time>2026-04-11T17:11:10Z</time></trkpt><trkpt lat="38.885902113470664" lon="16.556185377757814"><ele>59.75</ele><time>2026-04-11T17:11:11Z</time></trkpt><trkpt lat="38.88604297985578" lon="16.556230654214396"><ele>60.5</ele><time>2026-04-11T17:11:12Z</time></trkpt><trkpt lat="38.88616967784306" lon="16.556273647309297"><ele>61.25</ele><time>2026-04-11T17:11:13Z</time></trkpt><trkpt lat="38.88628830473805" lon="16.55631398626559"><ele>62.0</ele><time>2026-04-11T17:11:14Z</time></trkpt><trkpt lat="38.88641384702042" lon="16.556354615402267"><ele>62.0</ele><time>2026-04-11T17:11:15Z</time></trkpt><trkpt lat="38.88654650707338" lon="16.556395668283137"><ele>62.0</ele><time>2026-04-11T17:11:16Z</time></trkpt><trkpt lat="38.88668694457138" lon="16.5564421924648"><ele>62.0</ele><time>2026-04-11T17:11:17Z</time></trkpt><trkpt lat="38.886832497797066" lon="16.556491540069256"><ele>62.0</ele><time>2026-04-11T17:11:18Z</time></trkpt><trkpt lat="38.88698231030092" lon="16.55654204961868"><ele>63.333333333333336</ele><time>2026-04-11T17:11:19Z</time></trkpt><trkpt lat="38.88713104550324" lon="16.556584578403744"><ele>64.66666666666667</ele><time>2026-04-11T17:11:20Z</time></trkpt><trkpt lat="38.88728005476039" lon="16.556619918113498"><ele>66.0</ele><time>2026-04-11T17:11:21Z</time></trkpt><trkpt lat="38.8874305302058" lon="16.556647727136077"><ele>66.0</ele><time>2026-04-11T17:11:22Z</time></trkpt><trkpt lat="38.887578525422114" lon="16.556667366823973"><ele>66.0</ele><time>2026-04-11T17:11:23Z</time></trkpt><trkpt lat="38.887730267332216" lon="16.55668006993533"><ele>66.0</ele><time>2026-04-11T17:11:24Z</time></trkpt><trkpt lat="38.88788263879349" lon="16.55668368340876"><ele>66.0</ele><time>2026-04-11T17:11:25Z</time></trkpt><trkpt lat="38.88804084045514" lon="16.556686435594365"><ele>66.0</ele><time>2026-04-11T17:11:26Z</time></trkpt><trkpt lat="38.88820011426871" lon="16.556695255193706"><ele>66.0</ele><time>2026-04-11T17:11:27Z</time></trkpt><trkpt lat="38.888354532925995" lon="16.55670876478107"><ele>65.33333333333333</ele><time>2026-04-11T17:11:28Z</time></trkpt><trkpt lat="38.88853179397267" lon="16.556759514387508"><ele>64.66666666666666</ele><time>2026-04-11T17:11:29Z</time></trkpt><trkpt lat="38.888700212664624" lon="16.55682265755101"><ele>64.0</ele><time>2026-04-11T17:11:30Z</time></trkpt><trkpt lat="38.88886987124282" lon="16.556883147544962"><ele>64.0</ele><time>2026-04-11T17:11:31Z</time></trkpt><trkpt lat="38.889040984458425" lon="16.55694692609829"><ele>64.0</ele><time>2026-04-11T17:11:32Z</time></trkpt><trkpt lat="38.88921318887463" lon="16.55700314575489"><ele>64.0</ele><time>2026-04-11T17:11:33Z</time></trkpt><trkpt lat="38.88938223522749" lon="16.557058639105698"><ele>68.0</ele><time>2026-04-11T17:11:34Z</time></trkpt><trkpt lat="38.88953767586157" lon="16.55710429714438"><ele>72.0</ele><time>2026-04-11T17:11:35Z</time></trkpt><trkpt lat="38.88969620801098" lon="16.557153442567845"><ele>76.0</ele><time>2026-04-11T17:11:36Z</time></trkpt><trkpt lat="38.88985145120017" lon="16.55720463975541"><ele>76.0</ele><time>2026-04-11T17:11:37Z</time></trkpt><trkpt lat="38.89001211424189" lon="16.557243562941203"><ele>76.0</ele><time>2026-04-11T17:11:38Z</time></trkpt><trkpt lat="38.89016605888638" lon="16.557256371901843"><ele>76.0</ele><time>2026-04-11T17:11:39Z</time></trkpt><trkpt lat="38.890317041287595" lon="16.557263012753175"><ele>76.0</ele><time>2026-04-11T17:11:40Z</time></trkpt><trkpt lat="38.890476641358376" lon="16.557229845932728"><ele>76.0</ele><time>2026-04-11T17:11:41Z</time></trkpt><trkpt lat="38.890629866335175" lon="16.557188632345717"><ele>76.0</ele><time>2026-04-11T17:11:42Z</time></trkpt><trkpt lat="38.89079100574171" lon="16.557139272203077"><ele>76.0</ele><time>2026-04-11T17:11:43Z</time></trkpt><trkpt lat="38.890951489690906" lon="16.557099898703846"><ele>76.0</ele><time>2026-04-11T17:11:44Z</time></trkpt><trkpt lat="38.891114458145" lon="16.557050294305974"><ele>76.0</ele><time>2026-04-11T17:11:45Z</time></trkpt><trkpt lat="38.89128237082373" lon="16.556997047878795"><ele>75.66666666666666</ele><time>2026-04-11T17:11:46Z</time></trkpt><trkpt lat="38.89145438051876" lon="16.556950533676766"><ele>75.33333333333333</ele><time>2026-04-11T17:11:47Z</time></trkpt><trkpt lat="38.891620546578714" lon="16.55689751785912"><ele>75.0</ele><time>2026-04-11T17:11:48Z</time></trkpt><trkpt lat="38.8917909064313" lon="16.556849381224154"><ele>75.0</ele><time>2026-04-11T17:11:49Z</time></trkpt><trkpt lat="38.89195288146696" lon="16.556806948923473"><ele>75.0</ele><time>2026-04-11T17:11:50Z</time></trkpt><trkpt lat="38.89211226064609" lon="16.556759790110412"><ele>75.0</ele><time>2026-04-11T17:11:51Z</time></trkpt><trkpt lat="38.89226329512968" lon="16.55670889455929"><ele>75.0</ele><time>2026-04-11T17:11:52Z</time></trkpt><trkpt lat="38.89240119003253" lon="16.55667640778106"><ele>75.0</ele><time>2026-04-11T17:11:53Z</time></trkpt><trkpt lat="38.892534679455224" lon="16.55664479670636"><ele>75.0</ele><time>2026-04-11T17:11:54Z</time></trkpt><trkpt lat="38.89265371584483" lon="16.55661637099069"><ele>75.0</ele><time>2026-04-11T17:11:55Z</time></trkpt><trkpt lat="38.89275979468406" lon="16.556581407776378"><ele>74.16666666666667</ele><time>2026-04-11T17:11:56Z</time></trkpt><trkpt lat="38.89285725857895" lon="16.5565431580904"><ele>73.33333333333333</ele><time>2026-04-11T17:11:57Z</time></trkpt><trkpt lat="38.892939994200695" lon="16.55649589876654"><ele>72.5</ele><time>2026-04-11T17:11:58Z</time></trkpt><trkpt lat="38.893001746153416" lon="16.55644707037548"><ele>71.66666666666666</ele><time>2026-04-11T17:11:59Z</time></trkpt><trkpt lat="38.89303750156885" lon="16.556371478002582"><ele>70.83333333333333</ele><time>2026-04-11T17:12:00Z</time></trkpt><trkpt lat="38.89303995156095" lon="16.556275591663553"><ele>70.0</ele><time>2026-04-11T17:12:01Z</time></trkpt><trkpt lat="38.89301360927687" lon="16.556179187476683"><ele>69.6</ele><time>2026-04-11T17:12:02Z</time></trkpt><trkpt lat="38.89298728094222" lon="16.55604775743508"><ele>69.2</ele><time>2026-04-11T17:12:03Z</time></trkpt><trkpt lat="38.89297335773019" lon="16.55592770359455"><ele>68.8</ele><time>2026-04-11T17:12:04Z</time></trkpt><trkpt lat="38.89296326789986" lon="16.555812094006495"><ele>68.4</ele><time>2026-04-11T17:12:05Z</time></trkpt><trkpt lat="38.89297072273596" lon="16.55569372816612"><ele>68.0</ele><time>2026-04-11T17:12:06Z</time></trkpt><trkpt lat="38.893003677620655" lon="16.55560525428982"><ele>68.0</ele><time>2026-04-11T17:12:07Z</time></trkpt><trkpt lat="38.8930586025552" lon="16.555535697798494"><ele>68.0</ele><time>2026-04-11T17:12:09Z</time></trkpt><trkpt lat="38.89310813233536" lon="16.555465169933317"><ele>68.0</ele><time>2026-04-11T17:12:11Z</time></trkpt><trkpt lat="38.8931019359905" lon="16.555379963849187"><ele>68.0</ele><time>2026-04-11T17:12:12Z</time></trkpt><trkpt lat="38.893081090927694" lon="16.555227224641488"><ele>68.0</ele><time>2026-04-11T17:12:14Z</time></trkpt><trkpt lat="38.89306775274357" lon="16.555062607584226"><ele>68.0</ele><time>2026-04-11T17:12:16Z</time></trkpt><trkpt lat="38.89305584580825" lon="16.55496120888924"><ele>68.0</ele><time>2026-04-11T17:12:17Z</time></trkpt><trkpt lat="38.89305201264565" lon="16.554846332961738"><ele>68.0</ele><time>2026-04-11T17:12:18Z</time></trkpt><trkpt lat="38.89305322133692" lon="16.554730544039803"><ele>68.0</ele><time>2026-04-11T17:12:19Z</time></trkpt><trkpt lat="38.89304992601765" lon="16.55457068499342"><ele>68.0</ele><time>2026-04-11T17:12:20Z</time></trkpt><trkpt lat="38.893039935003934" lon="16.554390247662514"><ele>67.25</ele><time>2026-04-11T17:12:21Z</time></trkpt><trkpt lat="38.89302937894024" lon="16.554215779701927"><ele>66.5</ele><time>2026-04-11T17:12:22Z</time></trkpt><trkpt lat="38.89302188579796" lon="16.55405209460958"><ele>65.75</ele><time>2026-04-11T17:12:23Z</time></trkpt><trkpt lat="38.89301604136549" lon="16.553885607022007"><ele>65.0</ele><time>2026-04-11T17:12:24Z</time></trkpt><trkpt lat="38.893007356173655" lon="16.55370665046107"><ele>65.0</ele><time>2026-04-11T17:12:25Z</time></trkpt><trkpt lat="38.89299465663628" lon="16.553523604304406"><ele>65.0</ele><time>2026-04-11T17:12:26Z</time></trkpt><trkpt lat="38.8929811945906" lon="16.55333376399707"><ele>65.0</ele><time>2026-04-11T17:12:27Z</time></trkpt><trkpt lat="38.89296916788989" lon="16.55313899866097"><ele>65.0</ele><time>2026-04-11T17:12:28Z</time></trkpt><trkpt lat="38.89295481741059" lon="16.552937629523495"><ele>66.33333333333334</ele><time>2026-04-11T17:12:29Z</time></trkpt><trkpt lat="38.892939418952075" lon="16.55273690027695"><ele>67.66666666666667</ele><time>2026-04-11T17:12:30Z</time></trkpt><trkpt lat="38.89293025923833" lon="16.552534546842963"><ele>69.0</ele><time>2026-04-11T17:12:31Z</time></trkpt><trkpt lat="38.892921641245266" lon="16.552327841986322"><ele>69.0</ele><time>2026-04-11T17:12:32Z</time></trkpt><trkpt lat="38.892910036954426" lon="16.55211514231347"><ele>69.0</ele><time>2026-04-11T17:12:33Z</time></trkpt><trkpt lat="38.89290169056196" lon="16.55190852450419"><ele>69.0</ele><time>2026-04-11T17:12:34Z</time></trkpt><trkpt lat="38.89289159292355" lon="16.551702071264828"><ele>70.66666666666667</ele><time>2026-04-11T17:12:35Z</time></trkpt><trkpt lat="38.892878980477086" lon="16.551503531885217"><ele>72.33333333333334</ele><time>2026-04-11T17:12:36Z</time></trkpt><trkpt lat="38.89286571735191" lon="16.551307489686224"><ele>74.0</ele><time>2026-04-11T17:12:37Z</time></trkpt><trkpt lat="38.89285297378174" lon="16.551110456917307"><ele>77.66666666666667</ele><time>2026-04-11T17:12:38Z</time></trkpt><trkpt lat="38.89284343278319" lon="16.55091076484363"><ele>81.33333333333333</ele><time>2026-04-11T17:12:39Z</time></trkpt><trkpt lat="38.892834506054314" lon="16.550708376338218"><ele>85.0</ele><time>2026-04-11T17:12:40Z</time></trkpt><trkpt lat="38.892830957713514" lon="16.550518014224572"><ele>84.5</ele><time>2026-04-11T17:12:41Z</time></trkpt><trkpt lat="38.892827606663005" lon="16.550331645860222"><ele>84.0</ele><time>2026-04-11T17:12:42Z</time></trkpt><trkpt lat="38.89282183330005" lon="16.55014714003348"><ele>83.5</ele><time>2026-04-11T17:12:43Z</time></trkpt><trkpt lat="38.89280954043955" lon="16.549959659641296"><ele>83.0</ele><time>2026-04-11T17:12:44Z</time></trkpt><trkpt lat="38.89279912065061" lon="16.549778095555066"><ele>83.0</ele><time>2026-04-11T17:12:45Z</time></trkpt><trkpt lat="38.892790079198065" lon="16.54958989440633"><ele>83.0</ele><time>2026-04-11T17:12:46Z</time></trkpt><trkpt lat="38.8927840077409" lon="16.54939609283525"><ele>83.0</ele><time>2026-04-11T17:12:47Z</time></trkpt><trkpt lat="38.89277661667941" lon="16.549191781928894"><ele>83.0</ele><time>2026-04-11T17:12:48Z</time></trkpt><trkpt lat="38.89277333951823" lon="16.54898408348958"><ele>83.0</ele><time>2026-04-11T17:12:49Z</time></trkpt><trkpt lat="38.89277022823117" lon="16.54876673868919"><ele>83.0</ele><time>2026-04-11T17:12:50Z</time></trkpt><trkpt lat="38.8927703419923" lon="16.54855019497459"><ele>83.0</ele><time>2026-04-11T17:12:51Z</time></trkpt><trkpt lat="38.892771599339106" lon="16.548328115881596"><ele>83.0</ele><time>2026-04-11T17:12:52Z</time></trkpt><trkpt lat="38.89278520906548" lon="16.548106971998084"><ele>83.0</ele><time>2026-04-11T17:12:53Z</time></trkpt><trkpt lat="38.89281075366256" lon="16.547879676980024"><ele>81.0</ele><time>2026-04-11T17:12:54Z</time></trkpt><trkpt lat="38.89284424221425" lon="16.54764740256644"><ele>79.0</ele><time>2026-04-11T17:12:55Z</time></trkpt><trkpt lat="38.89287975983304" lon="16.54740807556876"><ele>77.0</ele><time>2026-04-11T17:12:56Z</time></trkpt><trkpt lat="38.89291271158466" lon="16.547162735594867"><ele>76.0</ele><time>2026-04-11T17:12:57Z</time></trkpt><trkpt lat="38.89294858968039" lon="16.546919820498402"><ele>75.0</ele><time>2026-04-11T17:12:58Z</time></trkpt><trkpt lat="38.89299304073642" lon="16.54668492887968"><ele>74.0</ele><time>2026-04-11T17:12:59Z</time></trkpt><trkpt lat="38.89304498872404" lon="16.546454326972565"><ele>74.0</ele><time>2026-04-11T17:13:00Z</time></trkpt><trkpt lat="38.89310049091186" lon="16.54622561798381"><ele>74.0</ele><time>2026-04-11T17:13:01Z</time></trkpt><trkpt lat="38.893157328490744" lon="16.545997965844588"><ele>74.0</ele><time>2026-04-11T17:13:02Z</time></trkpt><trkpt lat="38.893216493479926" lon="16.545767234121087"><ele>74.0</ele><time>2026-04-11T17:13:03Z</time></trkpt><trkpt lat="38.8932825849297" lon="16.545543559863248"><ele>74.0</ele><time>2026-04-11T17:13:04Z</time></trkpt><trkpt lat="38.89335134217377" lon="16.545319409415974"><ele>74.0</ele><time>2026-04-11T17:13:05Z</time></trkpt><trkpt lat="38.893426779759466" lon="16.545100202220077"><ele>76.66666666666667</ele><time>2026-04-11T17:13:06Z</time></trkpt><trkpt lat="38.89351028649346" lon="16.544885044018987"><ele>79.33333333333333</ele><time>2026-04-11T17:13:07Z</time></trkpt><trkpt lat="38.89360109854981" lon="16.544663502583315"><ele>82.0</ele><time>2026-04-11T17:13:08Z</time></trkpt><trkpt lat="38.8936913232817" lon="16.544441031341393"><ele>82.0</ele><time>2026-04-11T17:13:09Z</time></trkpt><trkpt lat="38.89378704739211" lon="16.544216168595558"><ele>82.0</ele><time>2026-04-11T17:13:10Z</time></trkpt><trkpt lat="38.893882872506424" lon="16.543984126699744"><ele>82.0</ele><time>2026-04-11T17:13:11Z</time></trkpt><trkpt lat="38.893983509440844" lon="16.543751913254205"><ele>82.0</ele><time>2026-04-11T17:13:12Z</time></trkpt><trkpt lat="38.894089045690144" lon="16.543515391440142"><ele>82.0</ele><time>2026-04-11T17:13:13Z</time></trkpt><trkpt lat="38.89419296707861" lon="16.543282412861632"><ele>82.0</ele><time>2026-04-11T17:13:14Z</time></trkpt><trkpt lat="38.894296051181136" lon="16.543048108922044"><ele>80.0</ele><time>2026-04-11T17:13:15Z</time></trkpt><trkpt lat="38.89440085710287" lon="16.54280954564321"><ele>78.0</ele><time>2026-04-11T17:13:16Z</time></trkpt><trkpt lat="38.894505856050955" lon="16.542577590617473"><ele>76.0</ele><time>2026-04-11T17:13:17Z</time></trkpt><trkpt lat="38.894608755362945" lon="16.54234385504253"><ele>76.0</ele><time>2026-04-11T17:13:18Z</time></trkpt><trkpt lat="38.894708359877804" lon="16.542109781229193"><ele>76.0</ele><time>2026-04-11T17:13:19Z</time></trkpt><trkpt lat="38.89480773310265" lon="16.541879763082196"><ele>76.0</ele><time>2026-04-11T17:13:20Z</time></trkpt><trkpt lat="38.89490657168276" lon="16.541650480571036"><ele>75.33333333333333</ele><time>2026-04-11T17:13:21Z</time></trkpt><trkpt lat="38.89500603655064" lon="16.541419294859104"><ele>74.66666666666667</ele><time>2026-04-11T17:13:22Z</time></trkpt><trkpt lat="38.89510035408676" lon="16.541196491139655"><ele>74.0</ele><time>2026-04-11T17:13:23Z</time></trkpt><trkpt lat="38.8952060270109" lon="16.540986882071362"><ele>75.0</ele><time>2026-04-11T17:13:24Z</time></trkpt><trkpt lat="38.895301141884566" lon="16.540770208994363"><ele>76.0</ele><time>2026-04-11T17:13:25Z</time></trkpt><trkpt lat="38.895395891787004" lon="16.540531085943794"><ele>77.0</ele><time>2026-04-11T17:13:26Z</time></trkpt><trkpt lat="38.89550602198257" lon="16.54029524211273"><ele>77.0</ele><time>2026-04-11T17:13:27Z</time></trkpt><trkpt lat="38.895605867612225" lon="16.54006599455066"><ele>77.0</ele><time>2026-04-11T17:13:28Z</time></trkpt><trkpt lat="38.89570324856699" lon="16.539837103906592"><ele>77.0</ele><time>2026-04-11T17:13:29Z</time></trkpt><trkpt lat="38.89579948869986" lon="16.539611741002968"><ele>75.33333333333334</ele><time>2026-04-11T17:13:30Z</time></trkpt><trkpt lat="38.89590125321117" lon="16.53938743715239"><ele>73.66666666666667</ele><time>2026-04-11T17:13:31Z</time></trkpt><trkpt lat="38.89599823623757" lon="16.539164185234068"><ele>72.0</ele><time>2026-04-11T17:13:32Z</time></trkpt><trkpt lat="38.89608463625875" lon="16.538946680985593"><ele>74.0</ele><time>2026-04-11T17:13:33Z</time></trkpt><trkpt lat="38.8961646621464" lon="16.538732268808904"><ele>76.0</ele><time>2026-04-11T17:13:34Z</time></trkpt><trkpt lat="38.89623563768931" lon="16.538505302623463"><ele>78.0</ele><time>2026-04-11T17:13:35Z</time></trkpt><trkpt lat="38.8963028467257" lon="16.538270625193416"><ele>78.0</ele><time>2026-04-11T17:13:36Z</time></trkpt><trkpt lat="38.89635962934524" lon="16.538033987084894"><ele>78.0</ele><time>2026-04-11T17:13:37Z</time></trkpt><trkpt lat="38.89640214498297" lon="16.53779286460843"><ele>78.0</ele><time>2026-04-11T17:13:38Z</time></trkpt><trkpt lat="38.89643925792582" lon="16.5375551831562"><ele>77.66666666666667</ele><time>2026-04-11T17:13:39Z</time></trkpt><trkpt lat="38.89647060263256" lon="16.53731100185878"><ele>77.33333333333334</ele><time>2026-04-11T17:13:40Z</time></trkpt><trkpt lat="38.89650191437418" lon="16.537077944921208"><ele>77.0</ele><time>2026-04-11T17:13:41Z</time></trkpt><trkpt lat="38.89653088014328" lon="16.53685947943572"><ele>77.0</ele><time>2026-04-11T17:13:42Z</time></trkpt><trkpt lat="38.89655736887546" lon="16.536652527817335"><ele>77.0</ele><time>2026-04-11T17:13:43Z</time></trkpt><trkpt lat="38.89658405870115" lon="16.53644760195373"><ele>77.0</ele><time>2026-04-11T17:13:44Z</time></trkpt><trkpt lat="38.89660999908018" lon="16.53625456867527"><ele>77.0</ele><time>2026-04-11T17:13:45Z</time></trkpt><trkpt lat="38.89663412262934" lon="16.536069685547176"><ele>77.0</ele><time>2026-04-11T17:13:46Z</time></trkpt><trkpt lat="38.89665576924703" lon="16.53590133651"><ele>77.0</ele><time>2026-04-11T17:13:47Z</time></trkpt><trkpt lat="38.896666751889626" lon="16.535740715203794"><ele>77.0</ele><time>2026-04-11T17:13:48Z</time></trkpt><trkpt lat="38.89669203307094" lon="16.53562956080814"><ele>77.0</ele><time>2026-04-11T17:13:49Z</time></trkpt><trkpt lat="38.89670949349354" lon="16.535549936609705"><ele>77.0</ele><time>2026-04-11T17:13:50Z</time></trkpt><trkpt lat="38.89675360475071" lon="16.535454796034283"><ele>77.0</ele><time>2026-04-11T17:13:52Z</time></trkpt><trkpt lat="38.89681353094393" lon="16.535396732106094"><ele>77.0</ele><time>2026-04-11T17:13:54Z</time></trkpt><trkpt lat="38.89689808774231" lon="16.535463155250614"><ele>77.0</ele><time>2026-04-11T17:13:55Z</time></trkpt><trkpt lat="38.896965213911564" lon="16.53549455839623"><ele>77.0</ele><time>2026-04-11T17:13:56Z</time></trkpt><trkpt lat="38.89707527768726" lon="16.535507523996014"><ele>77.5</ele><time>2026-04-11T17:13:58Z</time></trkpt><trkpt lat="38.897144186644574" lon="16.535585652426114"><ele>78.0</ele><time>2026-04-11T17:14:01Z</time></trkpt><trkpt lat="38.89717060982858" lon="16.535712367876272"><ele>78.5</ele><time>2026-04-11T17:14:03Z</time></trkpt><trkpt lat="38.89721726682132" lon="16.53576910480879"><ele>79.0</ele><time>2026-04-11T17:14:05Z</time></trkpt><trkpt lat="38.89728224120115" lon="16.53576665251817"><ele>79.5</ele><time>2026-04-11T17:14:13Z</time></trkpt><trkpt lat="38.89738764152418" lon="16.53580677009682"><ele>80.0</ele><time>2026-04-11T17:14:15Z</time></trkpt><trkpt lat="38.89747065937558" lon="16.535827009709347"><ele>80.0</ele><time>2026-04-11T17:14:16Z</time></trkpt><trkpt lat="38.897552629716685" lon="16.53584416056066"><ele>80.0</ele><time>2026-04-11T17:14:17Z</time></trkpt><trkpt lat="38.897629214607434" lon="16.535848415345367"><ele>80.0</ele><time>2026-04-11T17:14:18Z</time></trkpt><trkpt lat="38.89773129086726" lon="16.53580071099632"><ele>80.0</ele><time>2026-04-11T17:14:20Z</time></trkpt><trkpt lat="38.897795498750185" lon="16.53574518067307"><ele>80.0</ele><time>2026-04-11T17:14:23Z</time></trkpt><trkpt lat="38.89782015864039" lon="16.535657039396128"><ele>80.0</ele><time>2026-04-11T17:14:24Z</time></trkpt><trkpt lat="38.89784272141335" lon="16.5355495461982"><ele>81.75</ele><time>2026-04-11T17:14:25Z</time></trkpt><trkpt lat="38.89786792140182" lon="16.535428189667165"><ele>83.5</ele><time>2026-04-11T17:14:26Z</time></trkpt><trkpt lat="38.897894787949745" lon="16.53528936202868"><ele>85.25</ele><time>2026-04-11T17:14:27Z</time></trkpt><trkpt lat="38.8979278575902" lon="16.535113695534157"><ele>87.0</ele><time>2026-04-11T17:14:28Z</time></trkpt><trkpt lat="38.89796016522595" lon="16.534923224932488"><ele>87.0</ele><time>2026-04-11T17:14:29Z</time></trkpt><trkpt lat="38.897988301064295" lon="16.534715985786416"><ele>87.0</ele><time>2026-04-11T17:14:30Z</time></trkpt><trkpt lat="38.898016130716336" lon="16.534487100674777"><ele>87.0</ele><time>2026-04-11T17:14:31Z</time></trkpt><trkpt lat="38.89803898961099" lon="16.534246629367587"><ele>86.66666666666667</ele><time>2026-04-11T17:14:32Z</time></trkpt><trkpt lat="38.89805968619279" lon="16.53399031885612"><ele>86.33333333333334</ele><time>2026-04-11T17:14:33Z</time></trkpt><trkpt lat="38.89807439810534" lon="16.533727919193996"><ele>86.0</ele><time>2026-04-11T17:14:34Z</time></trkpt><trkpt lat="38.89808467667203" lon="16.533457941847086"><ele>85.66666666666667</ele><time>2026-04-11T17:14:35Z</time></trkpt><trkpt lat="38.8980895259374" lon="16.533192216998668"><ele>85.33333333333333</ele><time>2026-04-11T17:14:36Z</time></trkpt><trkpt lat="38.898094081983366" lon="16.532944692368414"><ele>85.0</ele><time>2026-04-11T17:14:37Z</time></trkpt><trkpt lat="38.89809888975732" lon="16.532710026292513"><ele>85.0</ele><time>2026-04-11T17:14:38Z</time></trkpt><trkpt lat="38.898105368786084" lon="16.532481526525043"><ele>85.0</ele><time>2026-04-11T17:14:39Z</time></trkpt><trkpt lat="38.8981124989482" lon="16.532256762231224"><ele>85.0</ele><time>2026-04-11T17:14:40Z</time></trkpt><trkpt lat="38.89811775537585" lon="16.53203238750298"><ele>85.0</ele><time>2026-04-11T17:14:41Z</time></trkpt><trkpt lat="38.89812531088226" lon="16.53181326011972"><ele>85.0</ele><time>2026-04-11T17:14:42Z</time></trkpt><trkpt lat="38.89813266345352" lon="16.5315894044766"><ele>85.0</ele><time>2026-04-11T17:14:43Z</time></trkpt><trkpt lat="38.89814497046478" lon="16.53135035106825"><ele>84.33333333333333</ele><time>2026-04-11T17:14:44Z</time></trkpt><trkpt lat="38.89815293492167" lon="16.531105151762343"><ele>83.66666666666667</ele><time>2026-04-11T17:14:45Z</time></trkpt><trkpt lat="38.89816539711842" lon="16.5308559467841"><ele>83.0</ele><time>2026-04-11T17:14:46Z</time></trkpt><trkpt lat="38.898173983577244" lon="16.530600490872665"><ele>83.33333333333334</ele><time>2026-04-11T17:14:47Z</time></trkpt><trkpt lat="38.8981793125236" lon="16.53034242474293"><ele>83.66666666666667</ele><time>2026-04-11T17:14:48Z</time></trkpt><trkpt lat="38.898187164086586" lon="16.530082420691297"><ele>84.0</ele><time>2026-04-11T17:14:49Z</time></trkpt><trkpt lat="38.898195105664" lon="16.529815586279167"><ele>86.66666666666667</ele><time>2026-04-11T17:14:50Z</time></trkpt><trkpt lat="38.898201548682586" lon="16.529547641617775"><ele>89.33333333333334</ele><time>2026-04-11T17:14:51Z</time></trkpt><trkpt lat="38.89820986215796" lon="16.52928183086981"><ele>92.0</ele><time>2026-04-11T17:14:52Z</time></trkpt><trkpt lat="38.89821494358397" lon="16.52900744884218"><ele>92.0</ele><time>2026-04-11T17:14:53Z</time></trkpt><trkpt lat="38.898222204777596" lon="16.528729456566754"><ele>92.0</ele><time>2026-04-11T17:14:54Z</time></trkpt><trkpt lat="38.898230091751216" lon="16.528461439123554"><ele>92.0</ele><time>2026-04-11T17:14:55Z</time></trkpt><trkpt lat="38.89823882724455" lon="16.528207922176996"><ele>93.0</ele><time>2026-04-11T17:14:56Z</time></trkpt><trkpt lat="38.89825559912918" lon="16.527955701638838"><ele>94.0</ele><time>2026-04-11T17:14:57Z</time></trkpt><trkpt lat="38.898292585590674" lon="16.52769868604824"><ele>95.0</ele><time>2026-04-11T17:14:58Z</time></trkpt><trkpt lat="38.898339305061484" lon="16.52744101186507"><ele>95.33333333333334</ele><time>2026-04-11T17:14:59Z</time></trkpt><trkpt lat="38.89839538990026" lon="16.527169236227138"><ele>95.66666666666667</ele><time>2026-04-11T17:15:00Z</time></trkpt><trkpt lat="38.8984530401262" lon="16.52689077905371"><ele>96.0</ele><time>2026-04-11T17:15:01Z</time></trkpt><trkpt lat="38.89850794688496" lon="16.526610603133054"><ele>98.0</ele><time>2026-04-11T17:15:02Z</time></trkpt><trkpt lat="38.89855867485363" lon="16.52633823105388"><ele>100.0</ele><time>2026-04-11T17:15:03Z</time></trkpt><trkpt lat="38.898606741218565" lon="16.526063945016134"><ele>102.0</ele><time>2026-04-11T17:15:04Z</time></trkpt><trkpt lat="38.89865302550703" lon="16.525789513591356"><ele>102.0</ele><time>2026-04-11T17:15:05Z</time></trkpt><trkpt lat="38.89871568352331" lon="16.525521572808703"><ele>102.0</ele><time>2026-04-11T17:15:06Z</time></trkpt><trkpt lat="38.89877212322217" lon="16.52525830802757"><ele>102.0</ele><time>2026-04-11T17:15:07Z</time></trkpt><trkpt lat="38.89882829581176" lon="16.524983636396414"><ele>103.66666666666666</ele><time>2026-04-11T17:15:08Z</time></trkpt><trkpt lat="38.89888414927694" lon="16.52470758805293"><ele>105.33333333333333</ele><time>2026-04-11T17:15:09Z</time></trkpt><trkpt lat="38.89894122703975" lon="16.524430611724792"><ele>107.0</ele><time>2026-04-11T17:15:10Z</time></trkpt><trkpt lat="38.899001562928824" lon="16.524158011127195"><ele>107.66666666666666</ele><time>2026-04-11T17:15:11Z</time></trkpt><trkpt lat="38.89906005878081" lon="16.523887938909102"><ele>108.33333333333334</ele><time>2026-04-11T17:15:12Z</time></trkpt><trkpt lat="38.89912079804079" lon="16.52361817902309"><ele>109.0</ele><time>2026-04-11T17:15:13Z</time></trkpt><trkpt lat="38.89919234478227" lon="16.523348950249357"><ele>111.5</ele><time>2026-04-11T17:15:14Z</time></trkpt><trkpt lat="38.89927825727693" lon="16.52308015394281"><ele>114.0</ele><time>2026-04-11T17:15:15Z</time></trkpt><trkpt lat="38.899376487453274" lon="16.5228189401507"><ele>114.0</ele><time>2026-04-11T17:15:16Z</time></trkpt><trkpt lat="38.89948656036082" lon="16.52257010529432"><ele>114.0</ele><time>2026-04-11T17:15:17Z</time></trkpt><trkpt lat="38.89960974161145" lon="16.522332572595495"><ele>114.0</ele><time>2026-04-11T17:15:18Z</time></trkpt><trkpt lat="38.89975099668885" lon="16.52210790031762"><ele>113.33333333333334</ele><time>2026-04-11T17:15:19Z</time></trkpt><trkpt lat="38.89990795998127" lon="16.521903913945234"><ele>112.66666666666667</ele><time>2026-04-11T17:15:20Z</time></trkpt><trkpt lat="38.90007262583584" lon="16.521711545221713"><ele>112.0</ele><time>2026-04-11T17:15:21Z</time></trkpt><trkpt lat="38.90024389734435" lon="16.521521795336568"><ele>112.0</ele><time>2026-04-11T17:15:22Z</time></trkpt><trkpt lat="38.90041816134186" lon="16.521336178784026"><ele>112.0</ele><time>2026-04-11T17:15:23Z</time></trkpt><trkpt lat="38.90059378686872" lon="16.521153200538155"><ele>110.5</ele><time>2026-04-11T17:15:24Z</time></trkpt><trkpt lat="38.90076769205075" lon="16.520968528495672"><ele>109.0</ele><time>2026-04-11T17:15:25Z</time></trkpt><trkpt lat="38.9009395146958" lon="16.520778651826994"><ele>109.0</ele><time>2026-04-11T17:15:26Z</time></trkpt><trkpt lat="38.901111794697385" lon="16.520597557613595"><ele>109.0</ele><time>2026-04-11T17:15:27Z</time></trkpt><trkpt lat="38.90128220217517" lon="16.520422374895755"><ele>109.0</ele><time>2026-04-11T17:15:28Z</time></trkpt><trkpt lat="38.901447919625284" lon="16.520239682604196"><ele>110.66666666666667</ele><time>2026-04-11T17:15:29Z</time></trkpt><trkpt lat="38.90160745605608" lon="16.520045607485716"><ele>112.33333333333334</ele><time>2026-04-11T17:15:30Z</time></trkpt><trkpt lat="38.90174859675456" lon="16.519826184326366"><ele>114.0</ele><time>2026-04-11T17:15:31Z</time></trkpt><trkpt lat="38.901871114632605" lon="16.519588372012976"><ele>126.0</ele><time>2026-04-11T17:15:32Z</time></trkpt><trkpt lat="38.90197826055526" lon="16.51933299840563"><ele>138.0</ele><time>2026-04-11T17:15:33Z</time></trkpt><trkpt lat="38.902073864116886" lon="16.519062735757828"><ele>138.0</ele><time>2026-04-11T17:15:34Z</time></trkpt><trkpt lat="38.9021682678918" lon="16.518788145157984"><ele>138.0</ele><time>2026-04-11T17:15:35Z</time></trkpt><trkpt lat="38.9022620120476" lon="16.518514377316123"><ele>131.0</ele><time>2026-04-11T17:15:36Z</time></trkpt><trkpt lat="38.90235988684924" lon="16.518242151453823"><ele>124.0</ele><time>2026-04-11T17:15:37Z</time></trkpt><trkpt lat="38.90245646643401" lon="16.51796896451705"><ele>120.5</ele><time>2026-04-11T17:15:38Z</time></trkpt><trkpt lat="38.90255089977149" lon="16.51769338497737"><ele>117.0</ele><time>2026-04-11T17:15:39Z</time></trkpt><trkpt lat="38.9026445932605" lon="16.51741751840589"><ele>127.0</ele><time>2026-04-11T17:15:40Z</time></trkpt><trkpt lat="38.90273811004455" lon="16.51714476649131"><ele>137.0</ele><time>2026-04-11T17:15:41Z</time></trkpt><trkpt lat="38.90283136245865" lon="16.51688288777051"><ele>137.0</ele><time>2026-04-11T17:15:42Z</time></trkpt><trkpt lat="38.90292130664507" lon="16.5166249376237"><ele>137.0</ele><time>2026-04-11T17:15:43Z</time></trkpt><trkpt lat="38.90300947001905" lon="16.516373744632116"><ele>137.0</ele><time>2026-04-11T17:15:44Z</time></trkpt><trkpt lat="38.90309658647964" lon="16.516117616985884"><ele>126.5</ele><time>2026-04-11T17:15:45Z</time></trkpt><trkpt lat="38.90317156017613" lon="16.51584645209137"><ele>116.0</ele><time>2026-04-11T17:15:46Z</time></trkpt><trkpt lat="38.90323079570978" lon="16.515564836259824"><ele>117.33333333333333</ele><time>2026-04-11T17:15:47Z</time></trkpt><trkpt lat="38.903241261358566" lon="16.515274805554213"><ele>118.66666666666666</ele><time>2026-04-11T17:15:48Z</time></trkpt><trkpt lat="38.90322958588004" lon="16.514991423794186"><ele>120.0</ele><time>2026-04-11T17:15:49Z</time></trkpt><trkpt lat="38.90321501834997" lon="16.514724453904336"><ele>123.0</ele><time>2026-04-11T17:15:50Z</time></trkpt><trkpt lat="38.90322383346334" lon="16.514467008934073"><ele>126.0</ele><time>2026-04-11T17:15:51Z</time></trkpt><trkpt lat="38.903243025650944" lon="16.514222834750907"><ele>129.0</ele><time>2026-04-11T17:15:52Z</time></trkpt><trkpt lat="38.9032666414478" lon="16.513989742941014"><ele>129.0</ele><time>2026-04-11T17:15:53Z</time></trkpt><trkpt lat="38.903285987147115" lon="16.513772902693862"><ele>129.0</ele><time>2026-04-11T17:15:54Z</time></trkpt><trkpt lat="38.90330512656187" lon="16.513563812810975"><ele>129.0</ele><time>2026-04-11T17:15:55Z</time></trkpt><trkpt lat="38.903323622908566" lon="16.513359487108232"><ele>128.5</ele><time>2026-04-11T17:15:56Z</time></trkpt><trkpt lat="38.903341462674355" lon="16.513170294746192"><ele>128.0</ele><time>2026-04-11T17:15:57Z</time></trkpt><trkpt lat="38.90337336039675" lon="16.512985492037195"><ele>127.5</ele><time>2026-04-11T17:15:58Z</time></trkpt><trkpt lat="38.903414853610734" lon="16.51282001887687"><ele>127.0</ele><time>2026-04-11T17:15:59Z</time></trkpt><trkpt lat="38.903454167446476" lon="16.51265995817604"><ele>132.25</ele><time>2026-04-11T17:16:00Z</time></trkpt><trkpt lat="38.90350204094925" lon="16.512512896215753"><ele>137.5</ele><time>2026-04-11T17:16:01Z</time></trkpt><trkpt lat="38.903543082146776" lon="16.512373798712"><ele>142.75</ele><time>2026-04-11T17:16:02Z</time></trkpt><trkpt lat="38.90357930634153" lon="16.512231968005555"><ele>148.0</ele><time>2026-04-11T17:16:03Z</time></trkpt><trkpt lat="38.90361759359511" lon="16.51209122674239"><ele>144.25</ele><time>2026-04-11T17:16:04Z</time></trkpt><trkpt lat="38.90365289006787" lon="16.511961788733206"><ele>140.5</ele><time>2026-04-11T17:16:05Z</time></trkpt><trkpt lat="38.903728739470715" lon="16.51178418715095"><ele>136.75</ele><time>2026-04-11T17:16:06Z</time></trkpt><trkpt lat="38.90377455054523" lon="16.511638675972225"><ele>133.0</ele><time>2026-04-11T17:16:07Z</time></trkpt><trkpt lat="38.903815005385056" lon="16.5115069589785"><ele>133.0</ele><time>2026-04-11T17:16:08Z</time></trkpt><trkpt lat="38.90385852498176" lon="16.511394449963305"><ele>133.0</ele><time>2026-04-11T17:16:09Z</time></trkpt><trkpt lat="38.90389799820744" lon="16.511289967909445"><ele>133.0</ele><time>2026-04-11T17:16:10Z</time></trkpt><trkpt lat="38.903948219036565" lon="16.511210141708563"><ele>133.0</ele><time>2026-04-11T17:16:11Z</time></trkpt><trkpt lat="38.90401604160931" lon="16.511195795740154"><ele>133.0</ele><time>2026-04-11T17:16:12Z</time></trkpt><trkpt lat="38.90407312618374" lon="16.511301728605435"><ele>133.0</ele><time>2026-04-11T17:16:14Z</time></trkpt><trkpt lat="38.90403740455317" lon="16.51144895596901"><ele>133.0</ele><time>2026-04-11T17:16:16Z</time></trkpt><trkpt lat="38.90398682222892" lon="16.511531985092216"><ele>133.0</ele><time>2026-04-11T17:16:17Z</time></trkpt><trkpt lat="38.903944929048336" lon="16.51160350904918"><ele>133.0</ele><time>2026-04-11T17:16:18Z</time></trkpt><trkpt lat="38.903889557405165" lon="16.511693989613544"><ele>133.0</ele><time>2026-04-11T17:16:20Z</time></trkpt><trkpt lat="38.90385738074302" lon="16.511773338389723"><ele>133.0</ele><time>2026-04-11T17:16:23Z</time></trkpt><trkpt lat="38.903821880203644" lon="16.511854488926314"><ele>133.0</ele><time>2026-04-11T17:16:27Z</time></trkpt><trkpt lat="38.90377730348612" lon="16.511985807383198"><ele>136.0</ele><time>2026-04-11T17:16:34Z</time></trkpt><trkpt lat="38.90374946625529" lon="16.512076013100742"><ele>139.0</ele><time>2026-04-11T17:16:35Z</time></trkpt><trkpt lat="38.903718153881044" lon="16.512174419106312"><ele>142.0</ele><time>2026-04-11T17:16:36Z</time></trkpt><trkpt lat="38.90368831045444" lon="16.512281930355652"><ele>145.0</ele><time>2026-04-11T17:16:37Z</time></trkpt><trkpt lat="38.903647700666795" lon="16.512417672747638"><ele>148.0</ele><time>2026-04-11T17:16:38Z</time></trkpt><trkpt lat="38.903615684151774" lon="16.512568316556465"><ele>148.0</ele><time>2026-04-11T17:16:39Z</time></trkpt><trkpt lat="38.903604249182244" lon="16.512721370315006"><ele>148.0</ele><time>2026-04-11T17:16:40Z</time></trkpt><trkpt lat="38.90361617969272" lon="16.51287458777862"><ele>148.0</ele><time>2026-04-11T17:16:41Z</time></trkpt><trkpt lat="38.903648467379476" lon="16.513038342066118"><ele>148.0</ele><time>2026-04-11T17:16:42Z</time></trkpt><trkpt lat="38.9036698246443" lon="16.513213005642395"><ele>149.20000000000002</ele><time>2026-04-11T17:16:43Z</time></trkpt><trkpt lat="38.90368029936591" lon="16.513401331673137"><ele>150.4</ele><time>2026-04-11T17:16:44Z</time></trkpt><trkpt lat="38.903722346874" lon="16.513474423842755"><ele>151.60000000000002</ele><time>2026-04-11T17:16:45Z</time></trkpt><trkpt lat="38.90372679263753" lon="16.513610984042803"><ele>152.8</ele><time>2026-04-11T17:16:46Z</time></trkpt><trkpt lat="38.903728161250974" lon="16.51372747250979"><ele>154.0</ele><time>2026-04-11T17:16:47Z</time></trkpt><trkpt lat="38.90374259113619" lon="16.513827971606503"><ele>154.0</ele><time>2026-04-11T17:16:48Z</time></trkpt><trkpt lat="38.90379078080397" lon="16.51391037042823"><ele>154.0</ele><time>2026-04-11T17:16:49Z</time></trkpt><trkpt lat="38.903873991112285" lon="16.513941524247937"><ele>154.0</ele><time>2026-04-11T17:16:50Z</time></trkpt><trkpt lat="38.9039618491291" lon="16.51391581265542"><ele>154.0</ele><time>2026-04-11T17:16:51Z</time></trkpt><trkpt lat="38.904031464111206" lon="16.513859250321925"><ele>154.0</ele><time>2026-04-11T17:16:52Z</time></trkpt><trkpt lat="38.90405848371762" lon="16.51372345415969"><ele>154.0</ele><time>2026-04-11T17:16:53Z</time></trkpt><trkpt lat="38.90405665468948" lon="16.51358711205755"><ele>154.0</ele><time>2026-04-11T17:16:54Z</time></trkpt><trkpt lat="38.90404215540046" lon="16.51349852701038"><ele>154.0</ele><time>2026-04-11T17:16:55Z</time></trkpt><trkpt lat="38.904021025885704" lon="16.51339090218243"><ele>154.0</ele><time>2026-04-11T17:16:56Z</time></trkpt><trkpt lat="38.9040015493745" lon="16.51329075478106"><ele>154.0</ele><time>2026-04-11T17:16:57Z</time></trkpt><trkpt lat="38.90398759565597" lon="16.513178311375448"><ele>154.0</ele><time>2026-04-11T17:16:58Z</time></trkpt><trkpt lat="38.90398996240584" lon="16.513048728512068"><ele>154.0</ele><time>2026-04-11T17:16:59Z</time></trkpt><trkpt lat="38.904006240575406" lon="16.512925707755354"><ele>154.2</ele><time>2026-04-11T17:17:00Z</time></trkpt><trkpt lat="38.90404791776817" lon="16.512828793231392"><ele>154.4</ele><time>2026-04-11T17:17:01Z</time></trkpt><trkpt lat="38.90410407456803" lon="16.512738099814992"><ele>154.6</ele><time>2026-04-11T17:17:02Z</time></trkpt><trkpt lat="38.90417327499798" lon="16.512675521296853"><ele>154.8</ele><time>2026-04-11T17:17:03Z</time></trkpt><trkpt lat="38.90427254755814" lon="16.512694589147326"><ele>155.0</ele><time>2026-04-11T17:17:04Z</time></trkpt><trkpt lat="38.904362394282124" lon="16.512673867920796"><ele>155.0</ele><time>2026-04-11T17:17:05Z</time></trkpt><trkpt lat="38.90445940380315" lon="16.512671418844356"><ele>155.0</ele><time>2026-04-11T17:17:06Z</time></trkpt><trkpt lat="38.904565944626725" lon="16.51268648250132"><ele>155.0</ele><time>2026-04-11T17:17:07Z</time></trkpt><trkpt lat="38.904659739083776" lon="16.512710295036836"><ele>155.0</ele><time>2026-04-11T17:17:08Z</time></trkpt><trkpt lat="38.90474744401871" lon="16.512751720880217"><ele>155.0</ele><time>2026-04-11T17:17:09Z</time></trkpt><trkpt lat="38.90483472452123" lon="16.512812645250524"><ele>155.0</ele><time>2026-04-11T17:17:10Z</time></trkpt><trkpt lat="38.90492952894122" lon="16.51288237049285"><ele>155.0</ele><time>2026-04-11T17:17:11Z</time></trkpt><trkpt lat="38.90503684026497" lon="16.512956763989845"><ele>155.0</ele><time>2026-04-11T17:17:12Z</time></trkpt><trkpt lat="38.90514904111258" lon="16.513022955916725"><ele>155.0</ele><time>2026-04-11T17:17:13Z</time></trkpt><trkpt lat="38.90531810740986" lon="16.513003412068876"><ele>159.5</ele><time>2026-04-11T17:17:14Z</time></trkpt><trkpt lat="38.905472852957345" lon="16.512995177679688"><ele>164.0</ele><time>2026-04-11T17:17:15Z</time></trkpt><trkpt lat="38.905608593655195" lon="16.512998836013445"><ele>168.5</ele><time>2026-04-11T17:17:16Z</time></trkpt><trkpt lat="38.90572469464737" lon="16.512989324842387"><ele>173.0</ele><time>2026-04-11T17:17:17Z</time></trkpt><trkpt lat="38.905830385672104" lon="16.512972367082618"><ele>174.4</ele><time>2026-04-11T17:17:18Z</time></trkpt><trkpt lat="38.9059216508489" lon="16.51293604002843"><ele>175.8</ele><time>2026-04-11T17:17:19Z</time></trkpt><trkpt lat="38.9059863689686" lon="16.51284824519951"><ele>177.2</ele><time>2026-04-11T17:17:20Z</time></trkpt><trkpt lat="38.906041796839055" lon="16.512771904779605"><ele>178.6</ele><time>2026-04-11T17:17:21Z</time></trkpt><trkpt lat="38.906082599688986" lon="16.512654034513293"><ele>180.0</ele><time>2026-04-11T17:17:22Z</time></trkpt><trkpt lat="38.90611062895315" lon="16.512496346079097"><ele>180.0</ele><time>2026-04-11T17:17:23Z</time></trkpt><trkpt lat="38.90615186405014" lon="16.512310132085833"><ele>180.0</ele><time>2026-04-11T17:17:24Z</time></trkpt><trkpt lat="38.90618188969061" lon="16.51212267661736"><ele>180.0</ele><time>2026-04-11T17:17:25Z</time></trkpt><trkpt lat="38.90621825202407" lon="16.51197690733113"><ele>180.0</ele><time>2026-04-11T17:17:26Z</time></trkpt><trkpt lat="38.906266657546034" lon="16.511864515654352"><ele>178.4</ele><time>2026-04-11T17:17:27Z</time></trkpt><trkpt lat="38.90634910690631" lon="16.511790226436148"><ele>176.8</ele><time>2026-04-11T17:17:28Z</time></trkpt><trkpt lat="38.90646514992799" lon="16.51177844602636"><ele>175.2</ele><time>2026-04-11T17:17:29Z</time></trkpt><trkpt lat="38.906572501076084" lon="16.511791754299328"><ele>173.6</ele><time>2026-04-11T17:17:30Z</time></trkpt><trkpt lat="38.90666595311445" lon="16.511836788561652"><ele>172.0</ele><time>2026-04-11T17:17:31Z</time></trkpt><trkpt lat="38.90673502148473" lon="16.511928583314642"><ele>172.0</ele><time>2026-04-11T17:17:32Z</time></trkpt><trkpt lat="38.90682834081178" lon="16.512046823292884"><ele>172.0</ele><time>2026-04-11T17:17:33Z</time></trkpt><trkpt lat="38.90693834658699" lon="16.51218148419449"><ele>172.0</ele><time>2026-04-11T17:17:34Z</time></trkpt><trkpt lat="38.907056832394225" lon="16.51229237965455"><ele>172.0</ele><time>2026-04-11T17:17:35Z</time></trkpt><trkpt lat="38.907214997212826" lon="16.512334507139368"><ele>174.2</ele><time>2026-04-11T17:17:36Z</time></trkpt><trkpt lat="38.907362284149364" lon="16.512343340062717"><ele>176.39999999999998</ele><time>2026-04-11T17:17:37Z</time></trkpt><trkpt lat="38.90747273550328" lon="16.512318789928354"><ele>178.60000000000002</ele><time>2026-04-11T17:17:38Z</time></trkpt><trkpt lat="38.90756727062901" lon="16.512324888323864"><ele>180.8</ele><time>2026-04-11T17:17:39Z</time></trkpt><trkpt lat="38.907608045356056" lon="16.51240838586752"><ele>183.0</ele><time>2026-04-11T17:17:40Z</time></trkpt><trkpt lat="38.90759026723657" lon="16.512522361088582"><ele>183.0</ele><time>2026-04-11T17:17:41Z</time></trkpt><trkpt lat="38.90752766010818" lon="16.51261999501525"><ele>183.0</ele><time>2026-04-11T17:17:42Z</time></trkpt><trkpt lat="38.907407298408785" lon="16.512627740144247"><ele>183.0</ele><time>2026-04-11T17:17:43Z</time></trkpt><trkpt lat="38.90728233988029" lon="16.512717653209094"><ele>183.0</ele><time>2026-04-11T17:17:44Z</time></trkpt><trkpt lat="38.9071569966135" lon="16.51278983133944"><ele>187.0</ele><time>2026-04-11T17:17:45Z</time></trkpt><trkpt lat="38.9070805299579" lon="16.512925844751106"><ele>191.0</ele><time>2026-04-11T17:17:46Z</time></trkpt><trkpt lat="38.90704299546742" lon="16.513114124990512"><ele>195.0</ele><time>2026-04-11T17:17:47Z</time></trkpt><trkpt lat="38.907032118432866" lon="16.513334509856907"><ele>195.0</ele><time>2026-04-11T17:17:48Z</time></trkpt><trkpt lat="38.90703661661721" lon="16.5135658991405"><ele>195.0</ele><time>2026-04-11T17:17:49Z</time></trkpt><trkpt lat="38.90701159666568" lon="16.51378760233758"><ele>195.0</ele><time>2026-04-11T17:17:50Z</time></trkpt><trkpt lat="38.90699867527212" lon="16.514011598942364"><ele>197.66666666666669</ele><time>2026-04-11T17:17:51Z</time></trkpt><trkpt lat="38.9069867646354" lon="16.51424297637071"><ele>200.33333333333334</ele><time>2026-04-11T17:17:52Z</time></trkpt><trkpt lat="38.90697317868786" lon="16.514478512812914"><ele>203.0</ele><time>2026-04-11T17:17:53Z</time></trkpt><trkpt lat="38.90695075686207" lon="16.514701609038685"><ele>204.5</ele><time>2026-04-11T17:17:54Z</time></trkpt><trkpt lat="38.90692464311866" lon="16.514908738048085"><ele>206.0</ele><time>2026-04-11T17:17:55Z</time></trkpt><trkpt lat="38.9068923278696" lon="16.515087523395596"><ele>207.5</ele><time>2026-04-11T17:17:56Z</time></trkpt><trkpt lat="38.90690339128087" lon="16.51524306003464"><ele>209.0</ele><time>2026-04-11T17:17:57Z</time></trkpt><trkpt lat="38.90692236403527" lon="16.51533895152967"><ele>209.0</ele><time>2026-04-11T17:17:58Z</time></trkpt><trkpt lat="38.90695735335087" lon="16.51541422675963"><ele>209.0</ele><time>2026-04-11T17:17:59Z</time></trkpt><trkpt lat="38.90703769615948" lon="16.515445220864507"><ele>209.0</ele><time>2026-04-11T17:18:00Z</time></trkpt><trkpt lat="38.90721725808161" lon="16.515306431196485"><ele>209.0</ele><time>2026-04-11T17:18:02Z</time></trkpt><trkpt lat="38.90723344456428" lon="16.515183382594362"><ele>209.0</ele><time>2026-04-11T17:18:03Z</time></trkpt><trkpt lat="38.90729702936279" lon="16.515024040175554"><ele>209.0</ele><time>2026-04-11T17:18:04Z</time></trkpt><trkpt lat="38.90735181191438" lon="16.51483467212742"><ele>209.0</ele><time>2026-04-11T17:18:05Z</time></trkpt><trkpt lat="38.90746169649245" lon="16.514710600827865"><ele>209.0</ele><time>2026-04-11T17:18:06Z</time></trkpt><trkpt lat="38.907587546628704" lon="16.514619343740527"><ele>208.0</ele><time>2026-04-11T17:18:07Z</time></trkpt><trkpt lat="38.90769731518433" lon="16.514550240850426"><ele>207.0</ele><time>2026-04-11T17:18:08Z</time></trkpt><trkpt lat="38.90781991625199" lon="16.514529887109898"><ele>206.0</ele><time>2026-04-11T17:18:09Z</time></trkpt><trkpt lat="38.907936366688425" lon="16.514594110508092"><ele>205.0</ele><time>2026-04-11T17:18:10Z</time></trkpt><trkpt lat="38.908063334178564" lon="16.514627860571206"><ele>207.25</ele><time>2026-04-11T17:18:11Z</time></trkpt><trkpt lat="38.90820222173521" lon="16.514670810680776"><ele>209.5</ele><time>2026-04-11T17:18:12Z</time></trkpt><trkpt lat="38.90831200516872" lon="16.514748468214428"><ele>211.75</ele><time>2026-04-11T17:18:13Z</time></trkpt><trkpt lat="38.90841806094348" lon="16.514854442890837"><ele>214.0</ele><time>2026-04-11T17:18:14Z</time></trkpt><trkpt lat="38.908530260516024" lon="16.514980719090563"><ele>214.0</ele><time>2026-04-11T17:18:15Z</time></trkpt><trkpt lat="38.90864262122664" lon="16.51510162433721"><ele>214.0</ele><time>2026-04-11T17:18:16Z</time></trkpt><trkpt lat="38.90874391409673" lon="16.515210620075706"><ele>214.0</ele><time>2026-04-11T17:18:17Z</time></trkpt><trkpt lat="38.90884523770033" lon="16.515305010563974"><ele>214.0</ele><time>2026-04-11T17:18:18Z</time></trkpt><trkpt lat="38.90900043745824" lon="16.515313313973113"><ele>214.0</ele><time>2026-04-11T17:18:19Z</time></trkpt><trkpt lat="38.90916414663788" lon="16.515319446759232"><ele>214.0</ele><time>2026-04-11T17:18:20Z</time></trkpt><trkpt lat="38.90933566558965" lon="16.51531649523472"><ele>214.0</ele><time>2026-04-11T17:18:21Z</time></trkpt><trkpt lat="38.90949354429154" lon="16.5152813486671"><ele>215.0</ele><time>2026-04-11T17:18:22Z</time></trkpt><trkpt lat="38.90962164190245" lon="16.51521054496457"><ele>216.0</ele><time>2026-04-11T17:18:23Z</time></trkpt><trkpt lat="38.90974023400081" lon="16.515140076919028"><ele>217.0</ele><time>2026-04-11T17:18:24Z</time></trkpt><trkpt lat="38.90986996827309" lon="16.515062999337264"><ele>218.0</ele><time>2026-04-11T17:18:25Z</time></trkpt><trkpt lat="38.90999282112846" lon="16.51493356010329"><ele>221.33333333333334</ele><time>2026-04-11T17:18:26Z</time></trkpt><trkpt lat="38.910120960289746" lon="16.514792293072627"><ele>224.66666666666669</ele><time>2026-04-11T17:18:27Z</time></trkpt><trkpt lat="38.91024684650086" lon="16.514651910706533"><ele>228.0</ele><time>2026-04-11T17:18:28Z</time></trkpt><trkpt lat="38.91035719050123" lon="16.514493427609167"><ele>228.60000000000002</ele><time>2026-04-11T17:18:29Z</time></trkpt><trkpt lat="38.91047124609306" lon="16.51437874592005"><ele>229.20000000000002</ele><time>2026-04-11T17:18:30Z</time></trkpt><trkpt lat="38.91055936649513" lon="16.514297822212104"><ele>229.8</ele><time>2026-04-11T17:18:31Z</time></trkpt><trkpt lat="38.91062603427879" lon="16.51425691451308"><ele>230.4</ele><time>2026-04-11T17:18:32Z</time></trkpt><trkpt lat="38.91070055232736" lon="16.514239196226278"><ele>231.0</ele><time>2026-04-11T17:18:33Z</time></trkpt><trkpt lat="38.910783644784956" lon="16.51418824331247"><ele>231.0</ele><time>2026-04-11T17:18:34Z</time></trkpt><trkpt lat="38.91088441199683" lon="16.514114139789164"><ele>231.0</ele><time>2026-04-11T17:18:35Z</time></trkpt><trkpt lat="38.9109725284796" lon="16.514005715259973"><ele>231.0</ele><time>2026-04-11T17:18:36Z</time></trkpt><trkpt lat="38.91107393061528" lon="16.51391712300061"><ele>231.0</ele><time>2026-04-11T17:18:37Z</time></trkpt><trkpt lat="38.911153917830134" lon="16.51379791926308"><ele>230.60000000000002</ele><time>2026-04-11T17:18:38Z</time></trkpt><trkpt lat="38.91123966537123" lon="16.513673204965944"><ele>230.20000000000002</ele><time>2026-04-11T17:18:39Z</time></trkpt><trkpt lat="38.91132558779311" lon="16.513568780312355"><ele>229.79999999999998</ele><time>2026-04-11T17:18:40Z</time></trkpt><trkpt lat="38.91142516954312" lon="16.513526377593156"><ele>229.39999999999998</ele><time>2026-04-11T17:18:41Z</time></trkpt><trkpt lat="38.91151482051062" lon="16.513529522342605"><ele>229.0</ele><time>2026-04-11T17:18:42Z</time></trkpt><trkpt lat="38.91160292299158" lon="16.513562077867817"><ele>229.0</ele><time>2026-04-11T17:18:43Z</time></trkpt><trkpt lat="38.91170428014481" lon="16.513620232339726"><ele>229.0</ele><time>2026-04-11T17:18:44Z</time></trkpt><trkpt lat="38.91182396304415" lon="16.513694700081146"><ele>229.0</ele><time>2026-04-11T17:18:45Z</time></trkpt><trkpt lat="38.911943709177024" lon="16.513738415604085"><ele>229.0</ele><time>2026-04-11T17:18:46Z</time></trkpt><trkpt lat="38.912069097279776" lon="16.513722038631666"><ele>234.0</ele><time>2026-04-11T17:18:47Z</time></trkpt><trkpt lat="38.912204135593804" lon="16.513673166196508"><ele>239.0</ele><time>2026-04-11T17:18:48Z</time></trkpt><trkpt lat="38.9123313483179" lon="16.51354894494218"><ele>244.0</ele><time>2026-04-11T17:18:49Z</time></trkpt><trkpt lat="38.9124687934747" lon="16.513436930297793"><ele>247.0</ele><time>2026-04-11T17:18:50Z</time></trkpt><trkpt lat="38.91260126808934" lon="16.513343379113046"><ele>250.0</ele><time>2026-04-11T17:18:51Z</time></trkpt><trkpt lat="38.9127189018695" lon="16.513283741186573"><ele>253.0</ele><time>2026-04-11T17:18:52Z</time></trkpt><trkpt lat="38.912829050557484" lon="16.513299568481035"><ele>256.0</ele><time>2026-04-11T17:18:53Z</time></trkpt><trkpt lat="38.912901726851715" lon="16.51333725094346"><ele>256.0</ele><time>2026-04-11T17:18:54Z</time></trkpt><trkpt lat="38.91300456448869" lon="16.513400088823374"><ele>256.0</ele><time>2026-04-11T17:18:56Z</time></trkpt><trkpt lat="38.91312340499341" lon="16.51345246442496"><ele>256.0</ele><time>2026-04-11T17:18:58Z</time></trkpt><trkpt lat="38.91318937412528" lon="16.513478540866643"><ele>256.0</ele><time>2026-04-11T17:18:59Z</time></trkpt><trkpt lat="38.9132916527571" lon="16.513492183786948"><ele>256.0</ele><time>2026-04-11T17:19:01Z</time></trkpt><trkpt lat="38.913386963425104" lon="16.513461188499317"><ele>260.75</ele><time>2026-04-11T17:19:03Z</time></trkpt><trkpt lat="38.91348633323697" lon="16.513394863890074"><ele>265.5</ele><time>2026-04-11T17:19:04Z</time></trkpt><trkpt lat="38.913567428086495" lon="16.513290894950718"><ele>270.25</ele><time>2026-04-11T17:19:05Z</time></trkpt><trkpt lat="38.913623839421774" lon="16.513142921798686"><ele>275.0</ele><time>2026-04-11T17:19:06Z</time></trkpt><trkpt lat="38.91366561772412" lon="16.512998378386705"><ele>271.8</ele><time>2026-04-11T17:19:07Z</time></trkpt><trkpt lat="38.913726553383974" lon="16.512904003811013"><ele>268.6</ele><time>2026-04-11T17:19:08Z</time></trkpt><trkpt lat="38.91379639282754" lon="16.512820408363275"><ele>265.4</ele><time>2026-04-11T17:19:09Z</time></trkpt><trkpt lat="38.91389676653859" lon="16.512764233951703"><ele>262.2</ele><time>2026-04-11T17:19:10Z</time></trkpt><trkpt lat="38.91401963388128" lon="16.51270486172475"><ele>259.0</ele><time>2026-04-11T17:19:11Z</time></trkpt><trkpt lat="38.91415580041004" lon="16.512645246087217"><ele>263.5</ele><time>2026-04-11T17:19:12Z</time></trkpt><trkpt lat="38.914293913173466" lon="16.512568206234658"><ele>268.0</ele><time>2026-04-11T17:19:13Z</time></trkpt><trkpt lat="38.91442223217891" lon="16.512448018445703"><ele>272.5</ele><time>2026-04-11T17:19:14Z</time></trkpt><trkpt lat="38.914536939490254" lon="16.512345944510923"><ele>277.0</ele><time>2026-04-11T17:19:15Z</time></trkpt><trkpt lat="38.91464039800427" lon="16.512253107111054"><ele>277.0</ele><time>2026-04-11T17:19:16Z</time></trkpt><trkpt lat="38.91471804542295" lon="16.51213167762909"><ele>277.0</ele><time>2026-04-11T17:19:17Z</time></trkpt><trkpt lat="38.91474816081858" lon="16.511992164853247"><ele>277.0</ele><time>2026-04-11T17:19:18Z</time></trkpt><trkpt lat="38.91478135341993" lon="16.51189175138178"><ele>277.0</ele><time>2026-04-11T17:19:19Z</time></trkpt><trkpt lat="38.91484205880499" lon="16.511833787248342"><ele>277.0</ele><time>2026-04-11T17:19:20Z</time></trkpt><trkpt lat="38.91491932989285" lon="16.51183301169816"><ele>277.0</ele><time>2026-04-11T17:19:21Z</time></trkpt><trkpt lat="38.914936972650956" lon="16.511924337711957"><ele>277.0</ele><time>2026-04-11T17:19:22Z</time></trkpt><trkpt lat="38.91493629915689" lon="16.51206205060478"><ele>277.0</ele><time>2026-04-11T17:19:24Z</time></trkpt><trkpt lat="38.91486734744604" lon="16.51213522786899"><ele>277.0</ele><time>2026-04-11T17:19:25Z</time></trkpt><trkpt lat="38.91477959840341" lon="16.512213518393473"><ele>277.0</ele><time>2026-04-11T17:19:26Z</time></trkpt><trkpt lat="38.9146915091664" lon="16.512309503479187"><ele>277.0</ele><time>2026-04-11T17:19:27Z</time></trkpt><trkpt lat="38.91459787101878" lon="16.512410391431576"><ele>277.0</ele><time>2026-04-11T17:19:28Z</time></trkpt><trkpt lat="38.914518900294674" lon="16.51250579695155"><ele>277.0</ele><time>2026-04-11T17:19:29Z</time></trkpt><trkpt lat="38.91445785090787" lon="16.512570810380417"><ele>277.0</ele><time>2026-04-11T17:19:30Z</time></trkpt><trkpt lat="38.914427464046305" lon="16.512657722440665"><ele>277.0</ele><time>2026-04-11T17:19:31Z</time></trkpt><trkpt lat="38.91440096658601" lon="16.51273321015563"><ele>277.0</ele><time>2026-04-11T17:19:32Z</time></trkpt><trkpt lat="38.914506231220145" lon="16.51281191317269"><ele>277.0</ele><time>2026-04-11T17:19:33Z</time></trkpt><trkpt lat="38.91459559461013" lon="16.512822331519313"><ele>277.0</ele><time>2026-04-11T17:19:34Z</time></trkpt><trkpt lat="38.914707027377766" lon="16.512811196350068"><ele>277.0</ele><time>2026-04-11T17:19:35Z</time></trkpt><trkpt lat="38.914812812284275" lon="16.51267962085411"><ele>277.0</ele><time>2026-04-11T17:19:36Z</time></trkpt><trkpt lat="38.914933570645935" lon="16.51257394381317"><ele>277.0</ele><time>2026-04-11T17:19:37Z</time></trkpt><trkpt lat="38.91505667133056" lon="16.51246116488404"><ele>277.0</ele><time>2026-04-11T17:19:38Z</time></trkpt><trkpt lat="38.91517705413273" lon="16.512351124751476"><ele>277.0</ele><time>2026-04-11T17:19:39Z</time></trkpt><trkpt lat="38.91529115198386" lon="16.51224682965049"><ele>277.0</ele><time>2026-04-11T17:19:40Z</time></trkpt><trkpt lat="38.915382457618584" lon="16.51217400534591"><ele>279.66666666666663</ele><time>2026-04-11T17:19:41Z</time></trkpt><trkpt lat="38.9154676516347" lon="16.512133568511207"><ele>282.3333333333333</ele><time>2026-04-11T17:19:42Z</time></trkpt><trkpt lat="38.91552980130728" lon="16.51214948432435"><ele>285.0</ele><time>2026-04-11T17:19:43Z</time></trkpt><trkpt lat="38.91556726948265" lon="16.51222843916676"><ele>287.6666666666667</ele><time>2026-04-11T17:19:44Z</time></trkpt><trkpt lat="38.91555717315114" lon="16.512329896465374"><ele>290.33333333333337</ele><time>2026-04-11T17:19:45Z</time></trkpt><trkpt lat="38.915498794984" lon="16.512453650131864"><ele>293.0</ele><time>2026-04-11T17:19:46Z</time></trkpt><trkpt lat="38.91541627267569" lon="16.512569574171113"><ele>293.0</ele><time>2026-04-11T17:19:47Z</time></trkpt><trkpt lat="38.9153117839872" lon="16.512704547597977"><ele>293.0</ele><time>2026-04-11T17:19:48Z</time></trkpt><trkpt lat="38.915203915955914" lon="16.512847560277077"><ele>293.0</ele><time>2026-04-11T17:19:49Z</time></trkpt><trkpt lat="38.915107876820066" lon="16.512990392837448"><ele>292.4</ele><time>2026-04-11T17:19:50Z</time></trkpt><trkpt lat="38.915025652336034" lon="16.513114682961316"><ele>291.8</ele><time>2026-04-11T17:19:51Z</time></trkpt><trkpt lat="38.91495932238762" lon="16.513221744694505"><ele>291.2</ele><time>2026-04-11T17:19:52Z</time></trkpt><trkpt lat="38.91492856494866" lon="16.51333643863244"><ele>290.6</ele><time>2026-04-11T17:19:53Z</time></trkpt><trkpt lat="38.91492751799788" lon="16.513456601972504"><ele>290.0</ele><time>2026-04-11T17:19:54Z</time></trkpt><trkpt lat="38.91500838217651" lon="16.51355078550303"><ele>291.8</ele><time>2026-04-11T17:19:55Z</time></trkpt><trkpt lat="38.91511720490227" lon="16.513553887696855"><ele>293.6</ele><time>2026-04-11T17:19:56Z</time></trkpt><trkpt lat="38.91517897368159" lon="16.513572834523483"><ele>295.4</ele><time>2026-04-11T17:19:57Z</time></trkpt><trkpt lat="38.91525146014884" lon="16.513494832425593"><ele>297.2</ele><time>2026-04-11T17:19:58Z</time></trkpt><trkpt lat="38.915402990778595" lon="16.513401616823163"><ele>299.0</ele><time>2026-04-11T17:19:59Z</time></trkpt><trkpt lat="38.91554769606389" lon="16.513284306526007"><ele>299.0</ele><time>2026-04-11T17:20:00Z</time></trkpt><trkpt lat="38.91570410770357" lon="16.513169409001534"><ele>299.0</ele><time>2026-04-11T17:20:01Z</time></trkpt><trkpt lat="38.91585649186315" lon="16.51305491667041"><ele>299.0</ele><time>2026-04-11T17:20:02Z</time></trkpt><trkpt lat="38.916011625376036" lon="16.51293771173353"><ele>300.8</ele><time>2026-04-11T17:20:03Z</time></trkpt><trkpt lat="38.91612762880364" lon="16.512853435974407"><ele>302.59999999999997</ele><time>2026-04-11T17:20:04Z</time></trkpt><trkpt lat="38.9162297544318" lon="16.512782011706594"><ele>304.4</ele><time>2026-04-11T17:20:05Z</time></trkpt><trkpt lat="38.91631429614257" lon="16.512747034465832"><ele>306.2</ele><time>2026-04-11T17:20:06Z</time></trkpt><trkpt lat="38.916419287894534" lon="16.512754610410596"><ele>308.0</ele><time>2026-04-11T17:20:08Z</time></trkpt><trkpt lat="38.91649561030781" lon="16.512760140346103"><ele>308.0</ele><time>2026-04-11T17:20:10Z</time></trkpt><trkpt lat="38.916575083557596" lon="16.512676756590167"><ele>308.0</ele><time>2026-04-11T17:20:13Z</time></trkpt><trkpt lat="38.91663989825784" lon="16.512614122418682"><ele>308.0</ele><time>2026-04-11T17:20:14Z</time></trkpt><trkpt lat="38.91673574243381" lon="16.512520658448256"><ele>308.0</ele><time>2026-04-11T17:20:16Z</time></trkpt><trkpt lat="38.91683985448264" lon="16.512548115685764"><ele>308.0</ele><time>2026-04-11T17:20:18Z</time></trkpt><trkpt lat="38.91691638905021" lon="16.512557613867113"><ele>311.5</ele><time>2026-04-11T17:20:19Z</time></trkpt><trkpt lat="38.91701812234042" lon="16.512549604394987"><ele>315.0</ele><time>2026-04-11T17:20:20Z</time></trkpt><trkpt lat="38.917127556089014" lon="16.512584754405577"><ele>318.5</ele><time>2026-04-11T17:20:21Z</time></trkpt><trkpt lat="38.91724674986684" lon="16.512600106276956"><ele>322.0</ele><time>2026-04-11T17:20:22Z</time></trkpt><trkpt lat="38.917394836046405" lon="16.51260786103566"><ele>322.0</ele><time>2026-04-11T17:20:23Z</time></trkpt><trkpt lat="38.917552023430375" lon="16.512639154256554"><ele>322.0</ele><time>2026-04-11T17:20:24Z</time></trkpt><trkpt lat="38.91769501292752" lon="16.5126968668851"><ele>322.0</ele><time>2026-04-11T17:20:25Z</time></trkpt><trkpt lat="38.9178422260692" lon="16.51275298711332"><ele>323.75</ele><time>2026-04-11T17:20:26Z</time></trkpt><trkpt lat="38.917996491833605" lon="16.512793039510395"><ele>325.5</ele><time>2026-04-11T17:20:27Z</time></trkpt><trkpt lat="38.918129651840935" lon="16.512848845851686"><ele>327.25</ele><time>2026-04-11T17:20:28Z</time></trkpt><trkpt lat="38.91825475820265" lon="16.512898519420794"><ele>329.0</ele><time>2026-04-11T17:20:29Z</time></trkpt><trkpt lat="38.918378231575154" lon="16.51293932938269"><ele>329.79999999999995</ele><time>2026-04-11T17:20:30Z</time></trkpt><trkpt lat="38.91847642886014" lon="16.51299719002362"><ele>330.59999999999997</ele><time>2026-04-11T17:20:31Z</time></trkpt><trkpt lat="38.9185787373234" lon="16.513005869274362"><ele>331.4</ele><time>2026-04-11T17:20:32Z</time></trkpt><trkpt lat="38.91867371430051" lon="16.51301117315836"><ele>332.2</ele><time>2026-04-11T17:20:33Z</time></trkpt><trkpt lat="38.91877968585684" lon="16.512951901714523"><ele>333.0</ele><time>2026-04-11T17:20:34Z</time></trkpt><trkpt lat="38.91888611968253" lon="16.512857000594867"><ele>334.5</ele><time>2026-04-11T17:20:35Z</time></trkpt><trkpt lat="38.91899658090818" lon="16.512780213886163"><ele>336.0</ele><time>2026-04-11T17:20:36Z</time></trkpt><trkpt lat="38.91912443730826" lon="16.51278179240116"><ele>337.5</ele><time>2026-04-11T17:20:37Z</time></trkpt><trkpt lat="38.91929988802425" lon="16.512767061320965"><ele>339.0</ele><time>2026-04-11T17:20:38Z</time></trkpt><trkpt lat="38.91943418320539" lon="16.512728702703846"><ele>344.0</ele><time>2026-04-11T17:20:39Z</time></trkpt><trkpt lat="38.91958628675788" lon="16.512687563603844"><ele>349.0</ele><time>2026-04-11T17:20:40Z</time></trkpt><trkpt lat="38.919720575519236" lon="16.512667397317262"><ele>354.0</ele><time>2026-04-11T17:20:41Z</time></trkpt><trkpt lat="38.91982776934204" lon="16.512652313271726"><ele>359.0</ele><time>2026-04-11T17:20:42Z</time></trkpt><trkpt lat="38.919935679649655" lon="16.51267586934168"><ele>359.0</ele><time>2026-04-11T17:20:43Z</time></trkpt><trkpt lat="38.92005963929279" lon="16.51271256491143"><ele>359.0</ele><time>2026-04-11T17:20:44Z</time></trkpt><trkpt lat="38.920185670551845" lon="16.512750284440536"><ele>359.0</ele><time>2026-04-11T17:20:45Z</time></trkpt><trkpt lat="38.920321066241385" lon="16.51277048032054"><ele>359.0</ele><time>2026-04-11T17:20:46Z</time></trkpt><trkpt lat="38.92045410532608" lon="16.512809477520868"><ele>362.75</ele><time>2026-04-11T17:20:47Z</time></trkpt><trkpt lat="38.9205958788485" lon="16.512778527239252"><ele>366.5</ele><time>2026-04-11T17:20:48Z</time></trkpt><trkpt lat="38.92071891171991" lon="16.512800420685327"><ele>370.25</ele><time>2026-04-11T17:20:49Z</time></trkpt><trkpt lat="38.920822397421745" lon="16.512827743123353"><ele>374.0</ele><time>2026-04-11T17:20:50Z</time></trkpt><trkpt lat="38.92092785137245" lon="16.51287261294683"><ele>373.33333333333337</ele><time>2026-04-11T17:20:51Z</time></trkpt><trkpt lat="38.92102272438154" lon="16.512913375390777"><ele>372.6666666666667</ele><time>2026-04-11T17:20:52Z</time></trkpt><trkpt lat="38.92108544202956" lon="16.512935129334277"><ele>372.0</ele><time>2026-04-11T17:20:53Z</time></trkpt><trkpt lat="38.921156697079844" lon="16.512909244163705"><ele>371.3333333333333</ele><time>2026-04-11T17:20:56Z</time></trkpt><trkpt lat="38.921228379296565" lon="16.512924317226382"><ele>370.66666666666663</ele><time>2026-04-11T17:20:57Z</time></trkpt><trkpt lat="38.92133356791265" lon="16.512906991889793"><ele>370.0</ele><time>2026-04-11T17:20:58Z</time></trkpt><trkpt lat="38.921448182338096" lon="16.512843636964224"><ele>373.25</ele><time>2026-04-11T17:20:59Z</time></trkpt><trkpt lat="38.92156665254909" lon="16.51275669341215"><ele>376.5</ele><time>2026-04-11T17:21:00Z</time></trkpt><trkpt lat="38.92169851774942" lon="16.512716070748823"><ele>379.75</ele><time>2026-04-11T17:21:01Z</time></trkpt><trkpt lat="38.9218458581402" lon="16.51270394591066"><ele>383.0</ele><time>2026-04-11T17:21:02Z</time></trkpt><trkpt lat="38.92199751716759" lon="16.512679361900926"><ele>383.0</ele><time>2026-04-11T17:21:03Z</time></trkpt><trkpt lat="38.92214186260716" lon="16.51268197192373"><ele>383.0</ele><time>2026-04-11T17:21:04Z</time></trkpt><trkpt lat="38.922271649607914" lon="16.512708335328977"><ele>383.0</ele><time>2026-04-11T17:21:05Z</time></trkpt><trkpt lat="38.92240487257719" lon="16.512737509172904"><ele>383.0</ele><time>2026-04-11T17:21:06Z</time></trkpt><trkpt lat="38.92252611585527" lon="16.512778056776877"><ele>383.4</ele><time>2026-04-11T17:21:07Z</time></trkpt><trkpt lat="38.92263984537822" lon="16.5128430513425"><ele>383.79999999999995</ele><time>2026-04-11T17:21:08Z</time></trkpt><trkpt lat="38.92273930448447" lon="16.512930063643573"><ele>384.2</ele><time>2026-04-11T17:21:09Z</time></trkpt><trkpt lat="38.922802498797" lon="16.51302635733015"><ele>384.6</ele><time>2026-04-11T17:21:10Z</time></trkpt><trkpt lat="38.92286648011268" lon="16.51312945331352"><ele>385.0</ele><time>2026-04-11T17:21:11Z</time></trkpt><trkpt lat="38.92293469863585" lon="16.513203487954783"><ele>387.8</ele><time>2026-04-11T17:21:12Z</time></trkpt><trkpt lat="38.92298249593672" lon="16.51327636933342"><ele>390.6</ele><time>2026-04-11T17:21:13Z</time></trkpt><trkpt lat="38.92308360870323" lon="16.513287984222433"><ele>393.4</ele><time>2026-04-11T17:21:14Z</time></trkpt><trkpt lat="38.9231695134292" lon="16.513194711883877"><ele>396.2</ele><time>2026-04-11T17:21:15Z</time></trkpt><trkpt lat="38.92323464518207" lon="16.513156225147718"><ele>399.0</ele><time>2026-04-11T17:21:16Z</time></trkpt><trkpt lat="38.92336179235382" lon="16.513133043410093"><ele>400.0</ele><time>2026-04-11T17:21:17Z</time></trkpt><trkpt lat="38.92345359282117" lon="16.51311877060512"><ele>401.0</ele><time>2026-04-11T17:21:18Z</time></trkpt><trkpt lat="38.92352985136993" lon="16.513092296043837"><ele>402.0</ele><time>2026-04-11T17:21:19Z</time></trkpt><trkpt lat="38.923608125060525" lon="16.513052213248642"><ele>403.0</ele><time>2026-04-11T17:21:20Z</time></trkpt><trkpt lat="38.92367322276318" lon="16.512934034009362"><ele>404.0</ele><time>2026-04-11T17:21:21Z</time></trkpt><trkpt lat="38.92373946968253" lon="16.51281627430959"><ele>404.0</ele><time>2026-04-11T17:21:22Z</time></trkpt><trkpt lat="38.92380340651603" lon="16.512658508511688"><ele>404.0</ele><time>2026-04-11T17:21:23Z</time></trkpt><trkpt lat="38.923877543952436" lon="16.512489808660835"><ele>404.0</ele><time>2026-04-11T17:21:24Z</time></trkpt><trkpt lat="38.923958632297094" lon="16.51238885132778"><ele>404.0</ele><time>2026-04-11T17:21:25Z</time></trkpt><trkpt lat="38.92402630366596" lon="16.512341367455424"><ele>404.0</ele><time>2026-04-11T17:21:26Z</time></trkpt><trkpt lat="38.924092482999285" lon="16.51233696093207"><ele>404.0</ele><time>2026-04-11T17:21:27Z</time></trkpt><trkpt lat="38.924149357932855" lon="16.512449182695722"><ele>404.0</ele><time>2026-04-11T17:21:28Z</time></trkpt><trkpt lat="38.924197903465725" lon="16.512597388236536"><ele>404.0</ele><time>2026-04-11T17:21:29Z</time></trkpt><trkpt lat="38.924279277561894" lon="16.51273555865744"><ele>404.0</ele><time>2026-04-11T17:21:30Z</time></trkpt><trkpt lat="38.92438460997675" lon="16.512887230352657"><ele>408.5</ele><time>2026-04-11T17:21:31Z</time></trkpt><trkpt lat="38.92448824190223" lon="16.51299508120488"><ele>413.0</ele><time>2026-04-11T17:21:32Z</time></trkpt><trkpt lat="38.92461820352149" lon="16.51303656210985"><ele>417.5</ele><time>2026-04-11T17:21:33Z</time></trkpt><trkpt lat="38.924763321788014" lon="16.513061608576674"><ele>422.0</ele><time>2026-04-11T17:21:34Z</time></trkpt><trkpt lat="38.92492452959029" lon="16.513058248751996"><ele>429.0</ele><time>2026-04-11T17:21:35Z</time></trkpt><trkpt lat="38.92509126103456" lon="16.513053675140586"><ele>436.0</ele><time>2026-04-11T17:21:36Z</time></trkpt><trkpt lat="38.925248054346255" lon="16.513080432950364"><ele>443.0</ele><time>2026-04-11T17:21:37Z</time></trkpt><trkpt lat="38.92539734345318" lon="16.513072336664138"><ele>443.0</ele><time>2026-04-11T17:21:38Z</time></trkpt><trkpt lat="38.92551245961685" lon="16.51306186888165"><ele>443.0</ele><time>2026-04-11T17:21:39Z</time></trkpt><trkpt lat="38.92564403427385" lon="16.513034277315285"><ele>443.0</ele><time>2026-04-11T17:21:40Z</time></trkpt><trkpt lat="38.92574600659111" lon="16.51296260677916"><ele>443.0</ele><time>2026-04-11T17:21:41Z</time></trkpt><trkpt lat="38.925814705243475" lon="16.512857580480304"><ele>441.4</ele><time>2026-04-11T17:21:42Z</time></trkpt><trkpt lat="38.925833733171324" lon="16.512759569563787"><ele>439.79999999999995</ele><time>2026-04-11T17:21:43Z</time></trkpt><trkpt lat="38.92582755603829" lon="16.512601659906412"><ele>438.2</ele><time>2026-04-11T17:21:44Z</time></trkpt><trkpt lat="38.92578631716205" lon="16.512456665626324"><ele>436.6</ele><time>2026-04-11T17:21:45Z</time></trkpt><trkpt lat="38.925735769652746" lon="16.51232027925863"><ele>435.0</ele><time>2026-04-11T17:21:46Z</time></trkpt><trkpt lat="38.92569137041695" lon="16.51219352090884"><ele>435.0</ele><time>2026-04-11T17:21:47Z</time></trkpt><trkpt lat="38.92568825099997" lon="16.51210018560891"><ele>435.0</ele><time>2026-04-11T17:21:48Z</time></trkpt><trkpt lat="38.92573087822294" lon="16.512034900163552"><ele>435.0</ele><time>2026-04-11T17:21:49Z</time></trkpt><trkpt lat="38.92582813861041" lon="16.512033135709856"><ele>435.0</ele><time>2026-04-11T17:21:50Z</time></trkpt><trkpt lat="38.92593951594027" lon="16.512102595719217"><ele>435.0</ele><time>2026-04-11T17:21:51Z</time></trkpt><trkpt lat="38.92607820385796" lon="16.51206187056565"><ele>437.0</ele><time>2026-04-11T17:21:52Z</time></trkpt><trkpt lat="38.9262057751085" lon="16.5120223680517"><ele>439.0</ele><time>2026-04-11T17:21:53Z</time></trkpt><trkpt lat="38.926299114517036" lon="16.511993728346834"><ele>441.0</ele><time>2026-04-11T17:21:54Z</time></trkpt><trkpt lat="38.92636059731827" lon="16.51201536003079"><ele>443.0</ele><time>2026-04-11T17:21:55Z</time></trkpt><trkpt lat="38.92630364677768" lon="16.512158460390523"><ele>445.0</ele><time>2026-04-11T17:21:57Z</time></trkpt><trkpt lat="38.92620028778838" lon="16.512168403565063"><ele>445.0</ele><time>2026-04-11T17:21:58Z</time></trkpt><trkpt lat="38.92611387518348" lon="16.51222765529096"><ele>445.0</ele><time>2026-04-11T17:21:59Z</time></trkpt><trkpt lat="38.92604604932805" lon="16.512290169748656"><ele>445.0</ele><time>2026-04-11T17:22:00Z</time></trkpt><trkpt lat="38.92603000242972" lon="16.51240158442882"><ele>445.0</ele><time>2026-04-11T17:22:01Z</time></trkpt><trkpt lat="38.926124787015986" lon="16.51252783958627"><ele>445.0</ele><time>2026-04-11T17:22:02Z</time></trkpt><trkpt lat="38.92615312222482" lon="16.512675752891486"><ele>445.0</ele><time>2026-04-11T17:22:03Z</time></trkpt><trkpt lat="38.926144420715545" lon="16.512819962687512"><ele>445.0</ele><time>2026-04-11T17:22:04Z</time></trkpt><trkpt lat="38.92608763328442" lon="16.51295279917147"><ele>445.0</ele><time>2026-04-11T17:22:05Z</time></trkpt><trkpt lat="38.92603709410982" lon="16.513113275782842"><ele>445.0</ele><time>2026-04-11T17:22:06Z</time></trkpt><trkpt lat="38.92595205679199" lon="16.513225526150922"><ele>444.5</ele><time>2026-04-11T17:22:07Z</time></trkpt><trkpt lat="38.925849299262254" lon="16.513328915843548"><ele>444.0</ele><time>2026-04-11T17:22:08Z</time></trkpt><trkpt lat="38.92578627725357" lon="16.513457741066322"><ele>443.5</ele><time>2026-04-11T17:22:09Z</time></trkpt><trkpt lat="38.92574840163096" lon="16.51358139296648"><ele>443.0</ele><time>2026-04-11T17:22:10Z</time></trkpt><trkpt lat="38.9257584038677" lon="16.51373569712763"><ele>443.3333333333333</ele><time>2026-04-11T17:22:11Z</time></trkpt><trkpt lat="38.925829702136504" lon="16.513899214852252"><ele>443.66666666666663</ele><time>2026-04-11T17:22:12Z</time></trkpt><trkpt lat="38.92594055584901" lon="16.51402786084207"><ele>444.0</ele><time>2026-04-11T17:22:13Z</time></trkpt><trkpt lat="38.926042949200856" lon="16.51417879220335"><ele>448.75</ele><time>2026-04-11T17:22:14Z</time></trkpt><trkpt lat="38.92612011277179" lon="16.514295503556546"><ele>453.5</ele><time>2026-04-11T17:22:15Z</time></trkpt><trkpt lat="38.92616823594737" lon="16.514406589773575"><ele>458.25</ele><time>2026-04-11T17:22:16Z</time></trkpt><trkpt lat="38.926136836629574" lon="16.514518227284125"><ele>463.0</ele><time>2026-04-11T17:22:17Z</time></trkpt><trkpt lat="38.926011609814665" lon="16.514617899635432"><ele>463.0</ele><time>2026-04-11T17:22:18Z</time></trkpt><trkpt lat="38.92600007436942" lon="16.514720072499287"><ele>463.0</ele><time>2026-04-11T17:22:19Z</time></trkpt><trkpt lat="38.92601516115593" lon="16.51488609949458"><ele>463.0</ele><time>2026-04-11T17:22:21Z</time></trkpt><trkpt lat="38.92615591027165" lon="16.51491396276813"><ele>463.0</ele><time>2026-04-11T17:22:22Z</time></trkpt><trkpt lat="38.92627853649364" lon="16.51481743577846"><ele>463.0</ele><time>2026-04-11T17:22:23Z</time></trkpt><trkpt lat="38.9264008045619" lon="16.514729945623753"><ele>463.0</ele><time>2026-04-11T17:22:24Z</time></trkpt><trkpt lat="38.926526737931226" lon="16.514698962848836"><ele>463.0</ele><time>2026-04-11T17:22:25Z</time></trkpt><trkpt lat="38.92664501593598" lon="16.514715514830055"><ele>463.0</ele><time>2026-04-11T17:22:26Z</time></trkpt><trkpt lat="38.92676924732643" lon="16.514759381553297"><ele>465.79999999999995</ele><time>2026-04-11T17:22:27Z</time></trkpt><trkpt lat="38.92685716024914" lon="16.514832685490113"><ele>468.59999999999997</ele><time>2026-04-11T17:22:28Z</time></trkpt><trkpt lat="38.926909162132354" lon="16.514925585025615"><ele>471.40000000000003</ele><time>2026-04-11T17:22:29Z</time></trkpt><trkpt lat="38.92694299426099" lon="16.515048483405923"><ele>474.20000000000005</ele><time>2026-04-11T17:22:30Z</time></trkpt><trkpt lat="38.92693270905382" lon="16.515189917973785"><ele>477.0</ele><time>2026-04-11T17:22:31Z</time></trkpt><trkpt lat="38.92695646430918" lon="16.515314632412547"><ele>472.75</ele><time>2026-04-11T17:22:32Z</time></trkpt><trkpt lat="38.927061814206176" lon="16.515412307534387"><ele>468.5</ele><time>2026-04-11T17:22:33Z</time></trkpt><trkpt lat="38.92720549371225" lon="16.515446919532017"><ele>464.25</ele><time>2026-04-11T17:22:34Z</time></trkpt><trkpt lat="38.9273621213071" lon="16.515485013414356"><ele>460.0</ele><time>2026-04-11T17:22:35Z</time></trkpt><trkpt lat="38.92751668042777" lon="16.51553330821739"><ele>463.8</ele><time>2026-04-11T17:22:36Z</time></trkpt><trkpt lat="38.927652773622036" lon="16.515556793352307"><ele>467.6</ele><time>2026-04-11T17:22:37Z</time></trkpt><trkpt lat="38.92776070360843" lon="16.515549956441948"><ele>471.4</ele><time>2026-04-11T17:22:38Z</time></trkpt><trkpt lat="38.92783565552554" lon="16.515576515240106"><ele>475.2</ele><time>2026-04-11T17:22:39Z</time></trkpt><trkpt lat="38.92790343886094" lon="16.515492792112713"><ele>479.0</ele><time>2026-04-11T17:22:41Z</time></trkpt><trkpt lat="38.92788641362192" lon="16.515357091904626"><ele>479.0</ele><time>2026-04-11T17:22:43Z</time></trkpt><trkpt lat="38.92782268398992" lon="16.51526348236904"><ele>479.0</ele><time>2026-04-11T17:22:46Z</time></trkpt><trkpt lat="38.92780686132054" lon="16.51514269843848"><ele>479.0</ele><time>2026-04-11T17:22:48Z</time></trkpt><trkpt lat="38.92789036923198" lon="16.515090091796043"><ele>479.0</ele><time>2026-04-11T17:22:50Z</time></trkpt><trkpt lat="38.92795869555772" lon="16.515149431468615"><ele>479.0</ele><time>2026-04-11T17:22:51Z</time></trkpt><trkpt lat="38.928051391721795" lon="16.51521022087749"><ele>479.0</ele><time>2026-04-11T17:22:52Z</time></trkpt><trkpt lat="38.92814634371174" lon="16.515275644992812"><ele>479.0</ele><time>2026-04-11T17:22:53Z</time></trkpt><trkpt lat="38.92824251852645" lon="16.51535297489928"><ele>479.0</ele><time>2026-04-11T17:22:54Z</time></trkpt><trkpt lat="38.92831653295374" lon="16.515438881652422"><ele>479.0</ele><time>2026-04-11T17:22:55Z</time></trkpt><trkpt lat="38.928363125615824" lon="16.515535866011888"><ele>479.0</ele><time>2026-04-11T17:22:56Z</time></trkpt><trkpt lat="38.92840974295577" lon="16.515660087020528"><ele>481.25</ele><time>2026-04-11T17:22:57Z</time></trkpt><trkpt lat="38.928457904574316" lon="16.515816208627022"><ele>483.5</ele><time>2026-04-11T17:22:58Z</time></trkpt><trkpt lat="38.92851472586007" lon="16.515993501132105"><ele>485.75</ele><time>2026-04-11T17:22:59Z</time></trkpt><trkpt lat="38.92857731582201" lon="16.51617512041464"><ele>488.0</ele><time>2026-04-11T17:23:00Z</time></trkpt><trkpt lat="38.92864204783501" lon="16.516342784245037"><ele>489.5</ele><time>2026-04-11T17:23:01Z</time></trkpt><trkpt lat="38.92869465196446" lon="16.51651285787459"><ele>491.0</ele><time>2026-04-11T17:23:02Z</time></trkpt><trkpt lat="38.92874347852052" lon="16.516672681121566"><ele>492.5</ele><time>2026-04-11T17:23:03Z</time></trkpt><trkpt lat="38.92878809025816" lon="16.516814312370872"><ele>494.0</ele><time>2026-04-11T17:23:04Z</time></trkpt><trkpt lat="38.92882963329422" lon="16.516941703369746"><ele>494.0</ele><time>2026-04-11T17:23:05Z</time></trkpt><trkpt lat="38.92886969111661" lon="16.51704442728294"><ele>494.0</ele><time>2026-04-11T17:23:06Z</time></trkpt><trkpt lat="38.928921582106675" lon="16.517144260149465"><ele>494.0</ele><time>2026-04-11T17:23:07Z</time></trkpt><trkpt lat="38.92896631516874" lon="16.517265018599517"><ele>494.0</ele><time>2026-04-11T17:23:08Z</time></trkpt><trkpt lat="38.92908411893086" lon="16.51732580152276"><ele>494.0</ele><time>2026-04-11T17:23:09Z</time></trkpt><trkpt lat="38.92917701888895" lon="16.517399008583087"><ele>495.79999999999995</ele><time>2026-04-11T17:23:10Z</time></trkpt><trkpt lat="38.929260362648" lon="16.517474319076435"><ele>497.59999999999997</ele><time>2026-04-11T17:23:11Z</time></trkpt><trkpt lat="38.92932986905112" lon="16.517537189119377"><ele>499.4</ele><time>2026-04-11T17:23:12Z</time></trkpt><trkpt lat="38.92938240889426" lon="16.517590564342914"><ele>501.2</ele><time>2026-04-11T17:23:13Z</time></trkpt><trkpt lat="38.9294759781774" lon="16.5176802183059"><ele>503.0</ele><time>2026-04-11T17:23:15Z</time></trkpt><trkpt lat="38.92954472195181" lon="16.517746572872454"><ele>503.0</ele><time>2026-04-11T17:23:17Z</time></trkpt><trkpt lat="38.929606205375464" lon="16.517800548041834"><ele>502.99999999999994</ele><time>2026-04-11T17:23:19Z</time></trkpt><trkpt lat="38.929653095565286" lon="16.517865959749056"><ele>502.99999999999994</ele><time>2026-04-11T17:23:22Z</time></trkpt><trkpt lat="38.929758379233114" lon="16.517791918645955"><ele>503.0</ele><time>2026-04-11T17:23:25Z</time></trkpt><trkpt lat="38.929828622418185" lon="16.51767172112557"><ele>503.0</ele><time>2026-04-11T17:23:27Z</time></trkpt><trkpt lat="38.92989455267762" lon="16.517568241374164"><ele>503.0</ele><time>2026-04-11T17:23:29Z</time></trkpt><trkpt lat="38.92996716406744" lon="16.5174639865928"><ele>502.99999999999994</ele><time>2026-04-11T17:23:31Z</time></trkpt><trkpt lat="38.93006041653375" lon="16.517331921245233"><ele>502.99999999999994</ele><time>2026-04-11T17:23:33Z</time></trkpt><trkpt lat="38.93012176298531" lon="16.51724020113911"><ele>503.0</ele><time>2026-04-11T17:23:34Z</time></trkpt><trkpt lat="38.93019040579012" lon="16.517146773855554"><ele>503.0</ele><time>2026-04-11T17:23:35Z</time></trkpt><trkpt lat="38.93026138542177" lon="16.517053492799498"><ele>504.4</ele><time>2026-04-11T17:23:36Z</time></trkpt><trkpt lat="38.93033351284739" lon="16.516953509212613"><ele>505.79999999999995</ele><time>2026-04-11T17:23:37Z</time></trkpt><trkpt lat="38.93040922638447" lon="16.516846391123465"><ele>507.2</ele><time>2026-04-11T17:23:38Z</time></trkpt><trkpt lat="38.93048857607817" lon="16.516739795514628"><ele>508.6</ele><time>2026-04-11T17:23:39Z</time></trkpt><trkpt lat="38.930565767481305" lon="16.516628869398062"><ele>510.0</ele><time>2026-04-11T17:23:40Z</time></trkpt><trkpt lat="38.93064305947432" lon="16.516530328819844"><ele>510.0</ele><time>2026-04-11T17:23:41Z</time></trkpt><trkpt lat="38.93072234032191" lon="16.516450524965112"><ele>510.0</ele><time>2026-04-11T17:23:42Z</time></trkpt><trkpt lat="38.930771020908395" lon="16.51639708503567"><ele>510.0</ele><time>2026-04-11T17:23:43Z</time></trkpt><trkpt lat="38.930793022523545" lon="16.516304866397043"><ele>510.0</ele><time>2026-04-11T17:23:55Z</time></trkpt><trkpt lat="38.930867767162" lon="16.516202844310648"><ele>510.0</ele><time>2026-04-11T17:23:57Z</time></trkpt><trkpt lat="38.9309977449493" lon="16.51614323157695"><ele>509.75</ele><time>2026-04-11T17:23:59Z</time></trkpt><trkpt lat="38.93109349347471" lon="16.51614623363697"><ele>509.5</ele><time>2026-04-11T17:24:00Z</time></trkpt><trkpt lat="38.93120139167462" lon="16.516142508804244"><ele>509.25</ele><time>2026-04-11T17:24:01Z</time></trkpt><trkpt lat="38.93132773151362" lon="16.516147713872392"><ele>509.0</ele><time>2026-04-11T17:24:02Z</time></trkpt><trkpt lat="38.93146191795332" lon="16.516150264527376"><ele>509.0</ele><time>2026-04-11T17:24:03Z</time></trkpt><trkpt lat="38.93160859375468" lon="16.516141809301033"><ele>509.0</ele><time>2026-04-11T17:24:04Z</time></trkpt><trkpt lat="38.93173584125077" lon="16.51611514134885"><ele>509.0</ele><time>2026-04-11T17:24:05Z</time></trkpt><trkpt lat="38.93184941656753" lon="16.51607204892428"><ele>509.0</ele><time>2026-04-11T17:24:06Z</time></trkpt><trkpt lat="38.93196315824143" lon="16.51600776417216"><ele>512.25</ele><time>2026-04-11T17:24:07Z</time></trkpt><trkpt lat="38.932058370739696" lon="16.515929935585937"><ele>515.5</ele><time>2026-04-11T17:24:08Z</time></trkpt><trkpt lat="38.9321186920516" lon="16.515823535644774"><ele>518.75</ele><time>2026-04-11T17:24:09Z</time></trkpt><trkpt lat="38.93211089098048" lon="16.515683614486367"><ele>522.0</ele><time>2026-04-11T17:24:10Z</time></trkpt><trkpt lat="38.93205780584577" lon="16.515525202556994"><ele>522.75</ele><time>2026-04-11T17:24:11Z</time></trkpt><trkpt lat="38.93197767651442" lon="16.51536937685614"><ele>523.5</ele><time>2026-04-11T17:24:12Z</time></trkpt><trkpt lat="38.93194964768085" lon="16.515231942955076"><ele>524.25</ele><time>2026-04-11T17:24:13Z</time></trkpt><trkpt lat="38.93193501097165" lon="16.51508639221619"><ele>525.0</ele><time>2026-04-11T17:24:14Z</time></trkpt><trkpt lat="38.93192667588435" lon="16.51497134364297"><ele>525.0</ele><time>2026-04-11T17:24:15Z</time></trkpt><trkpt lat="38.93195173332443" lon="16.51485158058757"><ele>525.0</ele><time>2026-04-11T17:24:16Z</time></trkpt><trkpt lat="38.932011543812116" lon="16.51474134696601"><ele>525.0</ele><time>2026-04-11T17:24:17Z</time></trkpt><trkpt lat="38.9321085796509" lon="16.51463802094127"><ele>525.0</ele><time>2026-04-11T17:24:18Z</time></trkpt><trkpt lat="38.93222159511134" lon="16.51454638924785"><ele>525.6666666666666</ele><time>2026-04-11T17:24:19Z</time></trkpt><trkpt lat="38.93236409652319" lon="16.514464524385275"><ele>526.3333333333333</ele><time>2026-04-11T17:24:20Z</time></trkpt><trkpt lat="38.93251212129289" lon="16.51438312892859"><ele>527.0</ele><time>2026-04-11T17:24:21Z</time></trkpt><trkpt lat="38.932663944516705" lon="16.514297245021698"><ele>527.0</ele><time>2026-04-11T17:24:22Z</time></trkpt><trkpt lat="38.93278716234186" lon="16.514220087650262"><ele>527.0</ele><time>2026-04-11T17:24:23Z</time></trkpt><trkpt lat="38.93290342793449" lon="16.514151759953425"><ele>527.0</ele><time>2026-04-11T17:24:24Z</time></trkpt><trkpt lat="38.93303755963418" lon="16.514109764662276"><ele>527.0</ele><time>2026-04-11T17:24:25Z</time></trkpt><trkpt lat="38.933164867668914" lon="16.5140708200415"><ele>527.0</ele><time>2026-04-11T17:24:26Z</time></trkpt><trkpt lat="38.933277372637356" lon="16.514046564180948"><ele>527.0</ele><time>2026-04-11T17:24:27Z</time></trkpt><trkpt lat="38.933387645835616" lon="16.514060146536828"><ele>527.0</ele><time>2026-04-11T17:24:28Z</time></trkpt><trkpt lat="38.933484860242295" lon="16.51415346360296"><ele>527.0</ele><time>2026-04-11T17:24:29Z</time></trkpt><trkpt lat="38.93356341774103" lon="16.514266717930038"><ele>528.0</ele><time>2026-04-11T17:24:30Z</time></trkpt><trkpt lat="38.933654220411846" lon="16.51436830158742"><ele>529.0</ele><time>2026-04-11T17:24:31Z</time></trkpt><trkpt lat="38.93376155772949" lon="16.514409394978095"><ele>530.0</ele><time>2026-04-11T17:24:32Z</time></trkpt><trkpt lat="38.933827898441294" lon="16.51444518400561"><ele>531.0</ele><time>2026-04-11T17:24:33Z</time></trkpt><trkpt lat="38.93389802616036" lon="16.514443616944497"><ele>532.0</ele><time>2026-04-11T17:24:35Z</time></trkpt><trkpt lat="38.933965158402614" lon="16.514437331562036"><ele>533.0</ele><time>2026-04-11T17:24:36Z</time></trkpt><trkpt lat="38.93408205340376" lon="16.51438921300192"><ele>533.0</ele><time>2026-04-11T17:24:38Z</time></trkpt><trkpt lat="38.93416993293315" lon="16.51432968902812"><ele>533.0</ele><time>2026-04-11T17:24:39Z</time></trkpt><trkpt lat="38.93425348963888" lon="16.51426926363782"><ele>533.0</ele><time>2026-04-11T17:24:40Z</time></trkpt><trkpt lat="38.934345492080666" lon="16.514191429667395"><ele>533.0</ele><time>2026-04-11T17:24:41Z</time></trkpt><trkpt lat="38.93443368653141" lon="16.51412606342706"><ele>533.0</ele><time>2026-04-11T17:24:42Z</time></trkpt><trkpt lat="38.934514740914466" lon="16.514074635062368"><ele>534.25</ele><time>2026-04-11T17:24:43Z</time></trkpt><trkpt lat="38.93458654050158" lon="16.514071581375056"><ele>535.5</ele><time>2026-04-11T17:24:44Z</time></trkpt><trkpt lat="38.93468132927199" lon="16.51414131314522"><ele>536.75</ele><time>2026-04-11T17:24:45Z</time></trkpt><trkpt lat="38.934806913806774" lon="16.514224648720713"><ele>538.0</ele><time>2026-04-11T17:24:46Z</time></trkpt><trkpt lat="38.93494829696207" lon="16.51424862118721"><ele>541.0</ele><time>2026-04-11T17:24:47Z</time></trkpt><trkpt lat="38.93509350176531" lon="16.51423642084724"><ele>544.0</ele><time>2026-04-11T17:24:48Z</time></trkpt><trkpt lat="38.935239786659366" lon="16.514216620629238"><ele>547.0</ele><time>2026-04-11T17:24:49Z</time></trkpt><trkpt lat="38.935380611106524" lon="16.51419426194796"><ele>550.0</ele><time>2026-04-11T17:24:50Z</time></trkpt><trkpt lat="38.93551146958422" lon="16.514167388944802"><ele>550.0</ele><time>2026-04-11T17:24:51Z</time></trkpt><trkpt lat="38.93563888973112" lon="16.514081845031157"><ele>550.0</ele><time>2026-04-11T17:24:52Z</time></trkpt><trkpt lat="38.935743112432334" lon="16.51393893942373"><ele>550.0</ele><time>2026-04-11T17:24:53Z</time></trkpt><trkpt lat="38.93581054079528" lon="16.513771637937012"><ele>550.0</ele><time>2026-04-11T17:24:54Z</time></trkpt><trkpt lat="38.935857320597435" lon="16.513624739841585"><ele>550.0</ele><time>2026-04-11T17:24:55Z</time></trkpt><trkpt lat="38.935922608359164" lon="16.513521367051457"><ele>550.0</ele><time>2026-04-11T17:24:56Z</time></trkpt><trkpt lat="38.93601410707105" lon="16.51350328505653"><ele>550.0</ele><time>2026-04-11T17:24:57Z</time></trkpt><trkpt lat="38.93614199387466" lon="16.51356380902167"><ele>550.0</ele><time>2026-04-11T17:24:58Z</time></trkpt><trkpt lat="38.936286705065825" lon="16.513576395730606"><ele>550.0</ele><time>2026-04-11T17:24:59Z</time></trkpt><trkpt lat="38.93640647033149" lon="16.5135524750932"><ele>550.0</ele><time>2026-04-11T17:25:00Z</time></trkpt><trkpt lat="38.93651954241223" lon="16.513461192694646"><ele>550.0</ele><time>2026-04-11T17:25:01Z</time></trkpt><trkpt lat="38.93660085578201" lon="16.51331949063188"><ele>550.0</ele><time>2026-04-11T17:25:02Z</time></trkpt><trkpt lat="38.93665434457603" lon="16.513132830207514"><ele>550.0</ele><time>2026-04-11T17:25:03Z</time></trkpt><trkpt lat="38.936709270013296" lon="16.51301910214131"><ele>550.0</ele><time>2026-04-11T17:25:04Z</time></trkpt><trkpt lat="38.93679992279906" lon="16.512985160075207"><ele>550.0</ele><time>2026-04-11T17:25:05Z</time></trkpt><trkpt lat="38.93693184041986" lon="16.513020159167425"><ele>550.0</ele><time>2026-04-11T17:25:06Z</time></trkpt><trkpt lat="38.937070294123735" lon="16.513056083166795"><ele>553.6666666666667</ele><time>2026-04-11T17:25:07Z</time></trkpt><trkpt lat="38.93722027497766" lon="16.513084123869863"><ele>557.3333333333334</ele><time>2026-04-11T17:25:08Z</time></trkpt><trkpt lat="38.93737518557818" lon="16.513108698991342"><ele>561.0</ele><time>2026-04-11T17:25:09Z</time></trkpt><trkpt lat="38.93751633742339" lon="16.513152025707377"><ele>566.0</ele><time>2026-04-11T17:25:10Z</time></trkpt><trkpt lat="38.937633686282375" lon="16.513203640102425"><ele>571.0</ele><time>2026-04-11T17:25:11Z</time></trkpt><trkpt lat="38.937738589019744" lon="16.513212596120223"><ele>576.0</ele><time>2026-04-11T17:25:12Z</time></trkpt><trkpt lat="38.937843199788304" lon="16.513157980157295"><ele>581.0</ele><time>2026-04-11T17:25:13Z</time></trkpt><trkpt lat="38.93792427313647" lon="16.51302729438144"><ele>579.3333333333333</ele><time>2026-04-11T17:25:14Z</time></trkpt><trkpt lat="38.937980447176955" lon="16.512854382259757"><ele>577.6666666666666</ele><time>2026-04-11T17:25:15Z</time></trkpt><trkpt lat="38.938003937594154" lon="16.512651402160095"><ele>576.0</ele><time>2026-04-11T17:25:16Z</time></trkpt><trkpt lat="38.93797987400394" lon="16.51239753231281"><ele>576.0</ele><time>2026-04-11T17:25:17Z</time></trkpt><trkpt lat="38.937949294243424" lon="16.512192218837644"><ele>576.0</ele><time>2026-04-11T17:25:18Z</time></trkpt><trkpt lat="38.93794303333272" lon="16.51207660364567"><ele>576.0</ele><time>2026-04-11T17:25:19Z</time></trkpt><trkpt lat="38.937975077247934" lon="16.511974131399132"><ele>576.0</ele><time>2026-04-11T17:25:20Z</time></trkpt><trkpt lat="38.93804966809874" lon="16.511920888771737"><ele>576.0</ele><time>2026-04-11T17:25:21Z</time></trkpt><trkpt lat="38.93817228545086" lon="16.511981929830736"><ele>573.0</ele><time>2026-04-11T17:25:22Z</time></trkpt><trkpt lat="38.938317688547315" lon="16.512034142769554"><ele>570.0</ele><time>2026-04-11T17:25:23Z</time></trkpt><trkpt lat="38.93850045680175" lon="16.51205908640971"><ele>567.0</ele><time>2026-04-11T17:25:24Z</time></trkpt><trkpt lat="38.93869013628352" lon="16.512062320708257"><ele>567.0</ele><time>2026-04-11T17:25:25Z</time></trkpt><trkpt lat="38.938878856684426" lon="16.512033395545863"><ele>567.0</ele><time>2026-04-11T17:25:26Z</time></trkpt><trkpt lat="38.939024661848606" lon="16.512044363323067"><ele>567.0</ele><time>2026-04-11T17:25:27Z</time></trkpt><trkpt lat="38.93916343073431" lon="16.512093391131106"><ele>579.3333333333334</ele><time>2026-04-11T17:25:28Z</time></trkpt><trkpt lat="38.93933718289553" lon="16.51216873748752"><ele>591.6666666666667</ele><time>2026-04-11T17:25:29Z</time></trkpt><trkpt lat="38.939534971858805" lon="16.512255091450765"><ele>604.0</ele><time>2026-04-11T17:25:30Z</time></trkpt><trkpt lat="38.9396811600865" lon="16.51229531122271"><ele>604.0</ele><time>2026-04-11T17:25:31Z</time></trkpt><trkpt lat="38.93977119872742" lon="16.512289788913623"><ele>604.0</ele><time>2026-04-11T17:25:32Z</time></trkpt><trkpt lat="38.93984139068793" lon="16.512221122521673"><ele>604.0</ele><time>2026-04-11T17:25:33Z</time></trkpt><trkpt lat="38.93987501101042" lon="16.5120961248629"><ele>604.0</ele><time>2026-04-11T17:25:34Z</time></trkpt><trkpt lat="38.93986556680276" lon="16.511908583537338"><ele>604.0</ele><time>2026-04-11T17:25:35Z</time></trkpt><trkpt lat="38.93983077185965" lon="16.511671971169953"><ele>603.25</ele><time>2026-04-11T17:25:36Z</time></trkpt><trkpt lat="38.939863994131564" lon="16.511455774899417"><ele>602.5</ele><time>2026-04-11T17:25:37Z</time></trkpt><trkpt lat="38.93988283683662" lon="16.51132328165394"><ele>601.75</ele><time>2026-04-11T17:25:38Z</time></trkpt><trkpt lat="38.939879964042795" lon="16.511207081806926"><ele>601.0</ele><time>2026-04-11T17:25:39Z</time></trkpt><trkpt lat="38.939817366864055" lon="16.511081168852062"><ele>601.0</ele><time>2026-04-11T17:25:40Z</time></trkpt><trkpt lat="38.93967721523705" lon="16.510976062226895"><ele>601.0</ele><time>2026-04-11T17:25:41Z</time></trkpt><trkpt lat="38.939504428799765" lon="16.510896072125885"><ele>601.0</ele><time>2026-04-11T17:25:42Z</time></trkpt><trkpt lat="38.939378483391074" lon="16.5108176034148"><ele>601.0</ele><time>2026-04-11T17:25:43Z</time></trkpt><trkpt lat="38.93929882319021" lon="16.510672210485197"><ele>601.0</ele><time>2026-04-11T17:25:44Z</time></trkpt><trkpt lat="38.939238496627226" lon="16.51048289723134"><ele>601.0</ele><time>2026-04-11T17:25:45Z</time></trkpt><trkpt lat="38.93922422627661" lon="16.510290499299348"><ele>601.0</ele><time>2026-04-11T17:25:46Z</time></trkpt><trkpt lat="38.93927691576461" lon="16.51012964604475"><ele>600.0</ele><time>2026-04-11T17:25:47Z</time></trkpt><trkpt lat="38.93933466137079" lon="16.509881718025134"><ele>599.0</ele><time>2026-04-11T17:25:48Z</time></trkpt><trkpt lat="38.939437545264354" lon="16.50972930635165"><ele>598.0</ele><time>2026-04-11T17:25:49Z</time></trkpt><trkpt lat="38.939533072587615" lon="16.50969870663253"><ele>598.0</ele><time>2026-04-11T17:25:50Z</time></trkpt><trkpt lat="38.93965196585265" lon="16.509690884483952"><ele>598.0</ele><time>2026-04-11T17:25:51Z</time></trkpt><trkpt lat="38.93982392066368" lon="16.509693200272647"><ele>598.0</ele><time>2026-04-11T17:25:52Z</time></trkpt><trkpt lat="38.94001198999546" lon="16.509704760062064"><ele>601.0</ele><time>2026-04-11T17:25:53Z</time></trkpt><trkpt lat="38.94014841538527" lon="16.50975550372063"><ele>604.0</ele><time>2026-04-11T17:25:54Z</time></trkpt><trkpt lat="38.94023491503145" lon="16.509831990457375"><ele>607.0</ele><time>2026-04-11T17:25:55Z</time></trkpt><trkpt lat="38.94032776993001" lon="16.509902647960608"><ele>610.0</ele><time>2026-04-11T17:25:56Z</time></trkpt><trkpt lat="38.94043202196377" lon="16.50996468299271"><ele>610.0</ele><time>2026-04-11T17:25:57Z</time></trkpt><trkpt lat="38.94052416476767" lon="16.50997875447972"><ele>610.0</ele><time>2026-04-11T17:25:58Z</time></trkpt><trkpt lat="38.94060506347975" lon="16.509981031456892"><ele>610.0</ele><time>2026-04-11T17:25:59Z</time></trkpt><trkpt lat="38.940668357422425" lon="16.509945462534922"><ele>610.0</ele><time>2026-04-11T17:26:00Z</time></trkpt><trkpt lat="38.9407234504791" lon="16.509887495285053"><ele>610.0</ele><time>2026-04-11T17:26:01Z</time></trkpt><trkpt lat="38.940775379443195" lon="16.509831690344374"><ele>610.0</ele><time>2026-04-11T17:26:02Z</time></trkpt><trkpt lat="38.940826642437095" lon="16.509781032184733"><ele>610.0</ele><time>2026-04-11T17:26:03Z</time></trkpt><trkpt lat="38.94092174616854" lon="16.50970851283799"><ele>611.1666666666667</ele><time>2026-04-11T17:26:05Z</time></trkpt><trkpt lat="38.94099391666707" lon="16.50963172237362"><ele>612.3333333333334</ele><time>2026-04-11T17:26:07Z</time></trkpt><trkpt lat="38.94104490526795" lon="16.509566693567514"><ele>613.5</ele><time>2026-04-11T17:26:10Z</time></trkpt><trkpt lat="38.94107131098709" lon="16.509489549630494"><ele>614.6666666666666</ele><time>2026-04-11T17:27:54Z</time></trkpt><trkpt lat="38.941100409029524" lon="16.509348653408825"><ele>615.8333333333333</ele><time>2026-04-11T17:27:56Z</time></trkpt><trkpt lat="38.94116355300128" lon="16.509254854259712"><ele>617.0</ele><time>2026-04-11T17:27:58Z</time></trkpt><trkpt lat="38.94123669485544" lon="16.509247512505528"><ele>617.0</ele><time>2026-04-11T17:28:00Z</time></trkpt><trkpt lat="38.94128217890199" lon="16.509376669397184"><ele>617.0</ele><time>2026-04-11T17:28:02Z</time></trkpt><trkpt lat="38.941322710508736" lon="16.50945343701358"><ele>617.0</ele><time>2026-04-11T17:28:03Z</time></trkpt><trkpt lat="38.941319388898954" lon="16.509538813043168"><ele>617.0</ele><time>2026-04-11T17:28:04Z</time></trkpt><trkpt lat="38.94128301492293" lon="16.509624142460964"><ele>617.0</ele><time>2026-04-11T17:28:05Z</time></trkpt><trkpt lat="38.94120837838418" lon="16.509711666191667"><ele>617.0</ele><time>2026-04-11T17:28:06Z</time></trkpt><trkpt lat="38.941113480489605" lon="16.509792002725735"><ele>614.6666666666666</ele><time>2026-04-11T17:28:07Z</time></trkpt><trkpt lat="38.94099631975517" lon="16.509890736291307"><ele>612.3333333333334</ele><time>2026-04-11T17:28:08Z</time></trkpt><trkpt lat="38.94087493774472" lon="16.510027453951142"><ele>610.0</ele><time>2026-04-11T17:28:09Z</time></trkpt><trkpt lat="38.94075784086276" lon="16.510181854494014"><ele>610.0</ele><time>2026-04-11T17:28:10Z</time></trkpt><trkpt lat="38.94065985763513" lon="16.510325351587746"><ele>610.0</ele><time>2026-04-11T17:28:11Z</time></trkpt><trkpt lat="38.94057718852094" lon="16.5104503449527"><ele>610.0</ele><time>2026-04-11T17:28:12Z</time></trkpt><trkpt lat="38.94052548112255" lon="16.5105781429461"><ele>610.0</ele><time>2026-04-11T17:28:13Z</time></trkpt><trkpt lat="38.94048464902493" lon="16.51072648078097"><ele>612.0</ele><time>2026-04-11T17:28:14Z</time></trkpt><trkpt lat="38.94048126868244" lon="16.51090596390706"><ele>614.0</ele><time>2026-04-11T17:28:15Z</time></trkpt><trkpt lat="38.940502741020524" lon="16.511082511606475"><ele>616.0</ele><time>2026-04-11T17:28:16Z</time></trkpt><trkpt lat="38.94053590023998" lon="16.51125177910365"><ele>618.0</ele><time>2026-04-11T17:28:17Z</time></trkpt><trkpt lat="38.94057664472184" lon="16.51142538702999"><ele>618.0</ele><time>2026-04-11T17:28:18Z</time></trkpt><trkpt lat="38.94062993586237" lon="16.511601779129848"><ele>618.0</ele><time>2026-04-11T17:28:19Z</time></trkpt><trkpt lat="38.94069234855811" lon="16.51173659417448"><ele>618.0</ele><time>2026-04-11T17:28:20Z</time></trkpt><trkpt lat="38.94077094799073" lon="16.51182976304713"><ele>618.0</ele><time>2026-04-11T17:28:21Z</time></trkpt><trkpt lat="38.9408741025501" lon="16.51187647159852"><ele>614.5</ele><time>2026-04-11T17:28:22Z</time></trkpt><trkpt lat="38.94097639374796" lon="16.511828166604538"><ele>611.0</ele><time>2026-04-11T17:28:23Z</time></trkpt><trkpt lat="38.94105822361845" lon="16.511760248996232"><ele>607.5</ele><time>2026-04-11T17:28:24Z</time></trkpt><trkpt lat="38.94112982615048" lon="16.511650124695173"><ele>604.0</ele><time>2026-04-11T17:28:25Z</time></trkpt><trkpt lat="38.94119718869829" lon="16.51149910052665"><ele>604.0</ele><time>2026-04-11T17:28:26Z</time></trkpt><trkpt lat="38.941280813763946" lon="16.511329069935943"><ele>604.0</ele><time>2026-04-11T17:28:27Z</time></trkpt><trkpt lat="38.94137583848959" lon="16.51115860211549"><ele>604.0</ele><time>2026-04-11T17:28:28Z</time></trkpt><trkpt lat="38.9414720428542" lon="16.511008858722306"><ele>603.3333333333334</ele><time>2026-04-11T17:28:29Z</time></trkpt><trkpt lat="38.94159131087053" lon="16.510872566760565"><ele>602.6666666666666</ele><time>2026-04-11T17:28:30Z</time></trkpt><trkpt lat="38.94173618246791" lon="16.51074818018198"><ele>602.0</ele><time>2026-04-11T17:28:31Z</time></trkpt><trkpt lat="38.941877373765045" lon="16.510647747130445"><ele>602.0</ele><time>2026-04-11T17:28:32Z</time></trkpt><trkpt lat="38.94199815926627" lon="16.51054058435723"><ele>602.0</ele><time>2026-04-11T17:28:33Z</time></trkpt><trkpt lat="38.942108813952885" lon="16.510386355653555"><ele>602.0</ele><time>2026-04-11T17:28:34Z</time></trkpt><trkpt lat="38.94219634652409" lon="16.510207578086312"><ele>607.25</ele><time>2026-04-11T17:28:35Z</time></trkpt><trkpt lat="38.94226699799595" lon="16.510058542706723"><ele>612.5</ele><time>2026-04-11T17:28:36Z</time></trkpt><trkpt lat="38.942339247819305" lon="16.509931501800008"><ele>617.75</ele><time>2026-04-11T17:28:37Z</time></trkpt><trkpt lat="38.94243596411684" lon="16.509816300364843"><ele>623.0</ele><time>2026-04-11T17:28:38Z</time></trkpt><trkpt lat="38.942545449858244" lon="16.509715152550914"><ele>623.25</ele><time>2026-04-11T17:28:39Z</time></trkpt><trkpt lat="38.94265817395656" lon="16.509633156391367"><ele>623.5</ele><time>2026-04-11T17:28:40Z</time></trkpt><trkpt lat="38.942776440671324" lon="16.5095937158587"><ele>623.75</ele><time>2026-04-11T17:28:41Z</time></trkpt><trkpt lat="38.94288956466757" lon="16.509562023064795"><ele>624.0</ele><time>2026-04-11T17:28:42Z</time></trkpt><trkpt lat="38.943011841756615" lon="16.50952884829616"><ele>626.5</ele><time>2026-04-11T17:28:43Z</time></trkpt><trkpt lat="38.94315745507539" lon="16.509524381712538"><ele>629.0</ele><time>2026-04-11T17:28:44Z</time></trkpt><trkpt lat="38.943300136114864" lon="16.509536144097144"><ele>631.5</ele><time>2026-04-11T17:28:45Z</time></trkpt><trkpt lat="38.94344482929302" lon="16.50952937782039"><ele>634.0</ele><time>2026-04-11T17:28:46Z</time></trkpt><trkpt lat="38.94358438485572" lon="16.509512395402272"><ele>634.25</ele><time>2026-04-11T17:28:47Z</time></trkpt><trkpt lat="38.94369947404141" lon="16.509470901923244"><ele>634.5</ele><time>2026-04-11T17:28:48Z</time></trkpt><trkpt lat="38.943820216535144" lon="16.509436898751158"><ele>634.75</ele><time>2026-04-11T17:28:49Z</time></trkpt><trkpt lat="38.94395177902769" lon="16.509401694451906"><ele>635.0</ele><time>2026-04-11T17:28:50Z</time></trkpt><trkpt lat="38.944071056051" lon="16.509331470083612"><ele>635.0</ele><time>2026-04-11T17:28:51Z</time></trkpt><trkpt lat="38.94417561870921" lon="16.50924259400841"><ele>635.0</ele><time>2026-04-11T17:28:52Z</time></trkpt><trkpt lat="38.94427564005151" lon="16.509178192910888"><ele>635.0</ele><time>2026-04-11T17:28:53Z</time></trkpt><trkpt lat="38.94438453844514" lon="16.50912591049089"><ele>635.0</ele><time>2026-04-11T17:28:54Z</time></trkpt><trkpt lat="38.94448467754689" lon="16.509056818906384"><ele>634.0</ele><time>2026-04-11T17:28:55Z</time></trkpt><trkpt lat="38.94457626254173" lon="16.50898617802462"><ele>633.0</ele><time>2026-04-11T17:28:56Z</time></trkpt><trkpt lat="38.94465642847827" lon="16.50892744378116"><ele>632.0</ele><time>2026-04-11T17:28:57Z</time></trkpt><trkpt lat="38.9447201017384" lon="16.508881069804886"><ele>631.0</ele><time>2026-04-11T17:28:58Z</time></trkpt><trkpt lat="38.94476166490738" lon="16.508815059036856"><ele>630.0</ele><time>2026-04-11T17:28:59Z</time></trkpt><trkpt lat="38.94483003480573" lon="16.50881752857044"><ele>629.0</ele><time>2026-04-11T17:29:04Z</time></trkpt><trkpt lat="38.944913098269105" lon="16.508799653542212"><ele>629.0</ele><time>2026-04-11T17:29:08Z</time></trkpt><trkpt lat="38.944985929692585" lon="16.508793109228797"><ele>629.0</ele><time>2026-04-11T17:29:10Z</time></trkpt><trkpt lat="38.945101673040575" lon="16.508814808643656"><ele>629.0</ele><time>2026-04-11T17:29:12Z</time></trkpt><trkpt lat="38.94517760021908" lon="16.508811224159484"><ele>629.0</ele><time>2026-04-11T17:29:13Z</time></trkpt><trkpt lat="38.94529840240298" lon="16.508782844299564"><ele>629.0</ele><time>2026-04-11T17:29:15Z</time></trkpt><trkpt lat="38.94537206704433" lon="16.50875270117209"><ele>632.1666666666666</ele><time>2026-04-11T17:29:16Z</time></trkpt><trkpt lat="38.94545093396569" lon="16.508721121781015"><ele>635.3333333333333</ele><time>2026-04-11T17:29:17Z</time></trkpt><trkpt lat="38.94553127379883" lon="16.508679954552754"><ele>638.5</ele><time>2026-04-11T17:29:18Z</time></trkpt><trkpt lat="38.945599576970764" lon="16.50863388040394"><ele>641.6666666666666</ele><time>2026-04-11T17:29:19Z</time></trkpt><trkpt lat="38.94566881379477" lon="16.508594466798986"><ele>644.8333333333334</ele><time>2026-04-11T17:29:20Z</time></trkpt><trkpt lat="38.94573648385856" lon="16.508557414131015"><ele>648.0</ele><time>2026-04-11T17:29:21Z</time></trkpt><trkpt lat="38.94582460845581" lon="16.5085392156275"><ele>648.4</ele><time>2026-04-11T17:29:22Z</time></trkpt><trkpt lat="38.945910608509145" lon="16.508546090140737"><ele>648.8</ele><time>2026-04-11T17:29:23Z</time></trkpt><trkpt lat="38.9460139086187" lon="16.508555419576922"><ele>649.2</ele><time>2026-04-11T17:29:24Z</time></trkpt><trkpt lat="38.94612157943891" lon="16.50857694956049"><ele>649.6</ele><time>2026-04-11T17:29:25Z</time></trkpt><trkpt lat="38.94622795363705" lon="16.508589984771433"><ele>650.0</ele><time>2026-04-11T17:29:26Z</time></trkpt><trkpt lat="38.94632476037046" lon="16.5085954874069"><ele>650.0</ele><time>2026-04-11T17:29:27Z</time></trkpt><trkpt lat="38.94640801715179" lon="16.508585068646962"><ele>650.0</ele><time>2026-04-11T17:29:28Z</time></trkpt><trkpt lat="38.946489884589134" lon="16.508571341170278"><ele>650.0</ele><time>2026-04-11T17:29:29Z</time></trkpt><trkpt lat="38.94658642015727" lon="16.508541610190143"><ele>650.0</ele><time>2026-04-11T17:29:30Z</time></trkpt><trkpt lat="38.94668463583341" lon="16.508518481436898"><ele>650.0</ele><time>2026-04-11T17:29:31Z</time></trkpt><trkpt lat="38.9467837937676" lon="16.50848667919628"><ele>649.8333333333333</ele><time>2026-04-11T17:29:32Z</time></trkpt><trkpt lat="38.946864835908364" lon="16.508461278754144"><ele>649.6666666666666</ele><time>2026-04-11T17:29:33Z</time></trkpt><trkpt lat="38.946972772479256" lon="16.508455886504073"><ele>649.5</ele><time>2026-04-11T17:29:35Z</time></trkpt><trkpt lat="38.94705422891858" lon="16.508474503367058"><ele>649.3333333333334</ele><time>2026-04-11T17:29:36Z</time></trkpt><trkpt lat="38.94711188163531" lon="16.50851162528436"><ele>649.1666666666667</ele><time>2026-04-11T17:29:37Z</time></trkpt><trkpt lat="38.94720212999303" lon="16.508583813966126"><ele>649.0</ele><time>2026-04-11T17:29:39Z</time></trkpt><trkpt lat="38.947280056380684" lon="16.508616200311494"><ele>649.0</ele><time>2026-04-11T17:29:41Z</time></trkpt><trkpt lat="38.947313099571154" lon="16.508518577265246"><ele>649.0</ele><time>2026-04-11T17:29:42Z</time></trkpt><trkpt lat="38.947306599172016" lon="16.508392226849207"><ele>649.0</ele><time>2026-04-11T17:29:46Z</time></trkpt><trkpt lat="38.94722230281287" lon="16.508282301296173"><ele>649.0</ele><time>2026-04-11T17:29:48Z</time></trkpt><trkpt lat="38.947167823911066" lon="16.50822048409224"><ele>649.0</ele><time>2026-04-11T17:29:50Z</time></trkpt><trkpt lat="38.94711941984191" lon="16.508165103282494"><ele>649.0</ele><time>2026-04-11T17:40:28Z</time></trkpt><trkpt lat="38.94705542525296" lon="16.50816565698421"><ele>649.0</ele><time>2026-04-11T17:48:47Z</time></trkpt><trkpt lat="38.94699480509124" lon="16.508140972372153"><ele>649.0</ele><time>2026-04-11T17:48:49Z</time></trkpt><trkpt lat="38.94693025169272" lon="16.50811337062309"><ele>649.0</ele><time>2026-04-11T17:48:50Z</time></trkpt><trkpt lat="38.94686465252105" lon="16.508064745348904"><ele>649.0</ele><time>2026-04-11T17:48:51Z</time></trkpt><trkpt lat="38.94679226243248" lon="16.508007811659397"><ele>649.0</ele><time>2026-04-11T17:48:52Z</time></trkpt><trkpt lat="38.94670854774153" lon="16.507944071995848"><ele>649.0</ele><time>2026-04-11T17:48:53Z</time></trkpt><trkpt lat="38.9466263437983" lon="16.507869070867986"><ele>648.4285714285713</ele><time>2026-04-11T17:48:54Z</time></trkpt><trkpt lat="38.94655557760657" lon="16.507805542014715"><ele>647.8571428571429</ele><time>2026-04-11T17:48:55Z</time></trkpt><trkpt lat="38.946501698169506" lon="16.507755954722693"><ele>647.2857142857142</ele><time>2026-04-11T17:48:56Z</time></trkpt><trkpt lat="38.94644905674821" lon="16.50768976613316"><ele>646.7142857142857</ele><time>2026-04-11T17:48:57Z</time></trkpt><trkpt lat="38.9463833910991" lon="16.507648230110128"><ele>646.1428571428571</ele><time>2026-04-11T17:48:58Z</time></trkpt><trkpt lat="38.94631636646054" lon="16.507605713433815"><ele>645.5714285714286</ele><time>2026-04-11T17:48:59Z</time></trkpt><trkpt lat="38.946257288207455" lon="16.50756644521577"><ele>645.0</ele><time>2026-04-11T17:49:00Z</time></trkpt><trkpt lat="38.94619236075067" lon="16.50754655180868"><ele>645.0</ele><time>2026-04-11T17:49:01Z</time></trkpt><trkpt lat="38.94607342709141" lon="16.50758428822765"><ele>645.0</ele><time>2026-04-11T17:49:03Z</time></trkpt><trkpt lat="38.94600396395218" lon="16.507640705519183"><ele>645.0</ele><time>2026-04-11T17:49:04Z</time></trkpt><trkpt lat="38.94592336715791" lon="16.507734124490373"><ele>645.0</ele><time>2026-04-11T17:49:05Z</time></trkpt><trkpt lat="38.94583938795328" lon="16.50779199962293"><ele>645.0</ele><time>2026-04-11T17:49:06Z</time></trkpt><trkpt lat="38.94576939314195" lon="16.507855084349114"><ele>645.5</ele><time>2026-04-11T17:49:07Z</time></trkpt><trkpt lat="38.9457016302452" lon="16.507919084436963"><ele>646.0</ele><time>2026-04-11T17:49:08Z</time></trkpt><trkpt lat="38.94562929706497" lon="16.50797185330367"><ele>646.5</ele><time>2026-04-11T17:49:09Z</time></trkpt><trkpt lat="38.94556590876671" lon="16.50803424573842"><ele>647.0</ele><time>2026-04-11T17:49:10Z</time></trkpt><trkpt lat="38.94549880587038" lon="16.50810876729814"><ele>647.5</ele><time>2026-04-11T17:49:11Z</time></trkpt><trkpt lat="38.945423246075855" lon="16.508159565212377"><ele>648.0</ele><time>2026-04-11T17:49:12Z</time></trkpt><trkpt lat="38.94535220879486" lon="16.508238949402173"><ele>648.0</ele><time>2026-04-11T17:49:13Z</time></trkpt><trkpt lat="38.94528535766411" lon="16.508306317127353"><ele>648.0</ele><time>2026-04-11T17:49:14Z</time></trkpt><trkpt lat="38.94522232779279" lon="16.508371985357265"><ele>648.0</ele><time>2026-04-11T17:49:15Z</time></trkpt><trkpt lat="38.9451589423084" lon="16.508425031568976"><ele>648.0</ele><time>2026-04-11T17:49:16Z</time></trkpt><trkpt lat="38.945103323977" lon="16.50847995096505"><ele>648.0</ele><time>2026-04-11T17:49:17Z</time></trkpt><trkpt lat="38.94504954569774" lon="16.508532558845562"><ele>648.0</ele><time>2026-04-11T17:49:18Z</time></trkpt><trkpt lat="38.9449667329885" lon="16.508587416878438"><ele>646.5999999999999</ele><time>2026-04-11T17:49:20Z</time></trkpt><trkpt lat="38.94489828100517" lon="16.50865898492475"><ele>645.1999999999999</ele><time>2026-04-11T17:49:22Z</time></trkpt><trkpt lat="38.94484477836065" lon="16.50871295794602"><ele>643.8</ele><time>2026-04-11T17:49:25Z</time></trkpt><trkpt lat="38.94493887442133" lon="16.508809616055327"><ele>642.4</ele><time>2026-04-11T17:49:30Z</time></trkpt><trkpt lat="38.945043506084716" lon="16.508813569965906"><ele>641.0</ele><time>2026-04-11T17:49:32Z</time></trkpt><trkpt lat="38.94512826925871" lon="16.50881423170748"><ele>642.4</ele><time>2026-04-11T17:49:34Z</time></trkpt><trkpt lat="38.945199687281516" lon="16.508809225656837"><ele>643.8</ele><time>2026-04-11T17:49:36Z</time></trkpt><trkpt lat="38.945277000548884" lon="16.50879631737946"><ele>645.1999999999999</ele><time>2026-04-11T17:49:38Z</time></trkpt><trkpt lat="38.94538867191101" lon="16.508752002571782"><ele>646.5999999999999</ele><time>2026-04-11T17:49:39Z</time></trkpt><trkpt lat="38.945463662070146" lon="16.508703787977737"><ele>648.0</ele><time>2026-04-11T17:49:40Z</time></trkpt><trkpt lat="38.94558071364131" lon="16.508630309564133"><ele>648.0</ele><time>2026-04-11T17:49:42Z</time></trkpt><trkpt lat="38.9456840296439" lon="16.50856556500349"><ele>648.0</ele><time>2026-04-11T17:49:44Z</time></trkpt><trkpt lat="38.94576931389092" lon="16.508544909890514"><ele>648.0</ele><time>2026-04-11T17:49:46Z</time></trkpt><trkpt lat="38.94586448811475" lon="16.508540743814002"><ele>648.0</ele><time>2026-04-11T17:49:48Z</time></trkpt><trkpt lat="38.94596187376054" lon="16.508548118692296"><ele>648.0</ele><time>2026-04-11T17:49:50Z</time></trkpt><trkpt lat="38.94606825044661" lon="16.508557635730995"><ele>648.3333333333334</ele><time>2026-04-11T17:49:52Z</time></trkpt><trkpt lat="38.94616597421056" lon="16.508571726428517"><ele>648.6666666666666</ele><time>2026-04-11T17:49:54Z</time></trkpt><trkpt lat="38.94623421553319" lon="16.50858019280341"><ele>649.0</ele><time>2026-04-11T17:49:56Z</time></trkpt><trkpt lat="38.94630330727317" lon="16.508583859392544"><ele>649.3333333333333</ele><time>2026-04-11T17:49:58Z</time></trkpt><trkpt lat="38.9463857085891" lon="16.50857369261814"><ele>649.6666666666666</ele><time>2026-04-11T17:50:00Z</time></trkpt><trkpt lat="38.94646319651047" lon="16.50856676628675"><ele>650.0</ele><time>2026-04-11T17:50:02Z</time></trkpt><trkpt lat="38.94654718518938" lon="16.508538361421888"><ele>650.0</ele><time>2026-04-11T17:50:04Z</time></trkpt><trkpt lat="38.94662864308754" lon="16.50851211366452"><ele>650.0</ele><time>2026-04-11T17:50:06Z</time></trkpt><trkpt lat="38.94672158102129" lon="16.508496373389885"><ele>650.0</ele><time>2026-04-11T17:50:08Z</time></trkpt><trkpt lat="38.94682359245112" lon="16.508482910678456"><ele>650.0</ele><time>2026-04-11T17:50:10Z</time></trkpt><trkpt lat="38.94691079903347" lon="16.50847116088112"><ele>650.0</ele><time>2026-04-11T17:50:12Z</time></trkpt><trkpt lat="38.946997912016" lon="16.508465438053385"><ele>649.8333333333333</ele><time>2026-04-11T17:50:14Z</time></trkpt><trkpt lat="38.947070921486215" lon="16.508473829776854"><ele>649.6666666666666</ele><time>2026-04-11T17:50:16Z</time></trkpt><trkpt lat="38.947126759113" lon="16.508518871572925"><ele>649.5</ele><time>2026-04-11T17:50:18Z</time></trkpt><trkpt lat="38.94718624862917" lon="16.508561704018"><ele>649.3333333333334</ele><time>2026-04-11T17:50:20Z</time></trkpt><trkpt lat="38.94728497746408" lon="16.50864357504405"><ele>649.1666666666667</ele><time>2026-04-11T17:50:22Z</time></trkpt><trkpt lat="38.94734091882992" lon="16.508703291987562"><ele>649.0</ele><time>2026-04-11T17:50:23Z</time></trkpt><trkpt lat="38.94738386883803" lon="16.508799966298334"><ele>648.4000000000001</ele><time>2026-04-11T17:50:24Z</time></trkpt><trkpt lat="38.9474293090993" lon="16.508902204839618"><ele>647.8</ele><time>2026-04-11T17:50:25Z</time></trkpt><trkpt lat="38.94748375473175" lon="16.50899631326782"><ele>647.2</ele><time>2026-04-11T17:50:26Z</time></trkpt><trkpt lat="38.94754854822298" lon="16.50909234208104"><ele>646.5999999999999</ele><time>2026-04-11T17:50:27Z</time></trkpt><trkpt lat="38.9476145073972" lon="16.509147897399362"><ele>646.0</ele><time>2026-04-11T17:50:28Z</time></trkpt><trkpt lat="38.94769290400179" lon="16.509226331462834"><ele>650.1999999999999</ele><time>2026-04-11T17:50:29Z</time></trkpt><trkpt lat="38.94777381347978" lon="16.50927361628092"><ele>654.4</ele><time>2026-04-11T17:50:30Z</time></trkpt><trkpt lat="38.94784906718967" lon="16.50937647700359"><ele>658.6</ele><time>2026-04-11T17:50:31Z</time></trkpt><trkpt lat="38.947947266894985" lon="16.509466460520475"><ele>662.8</ele><time>2026-04-11T17:50:32Z</time></trkpt><trkpt lat="38.94803805689274" lon="16.509528550673743"><ele>667.0</ele><time>2026-04-11T17:50:33Z</time></trkpt><trkpt lat="38.94813436437677" lon="16.509560559765035"><ele>664.0</ele><time>2026-04-11T17:50:34Z</time></trkpt><trkpt lat="38.94823753785012" lon="16.509616846785086"><ele>661.0</ele><time>2026-04-11T17:50:35Z</time></trkpt><trkpt lat="38.948352336604835" lon="16.50969488198492"><ele>658.0</ele><time>2026-04-11T17:50:36Z</time></trkpt><trkpt lat="38.94845555628026" lon="16.50976872820977"><ele>655.0</ele><time>2026-04-11T17:50:37Z</time></trkpt><trkpt lat="38.94853921987659" lon="16.50983031396349"><ele>655.0</ele><time>2026-04-11T17:50:38Z</time></trkpt><trkpt lat="38.94862125260255" lon="16.509895436300173"><ele>655.0</ele><time>2026-04-11T17:50:39Z</time></trkpt><trkpt lat="38.94869250297709" lon="16.509966087644774"><ele>655.0</ele><time>2026-04-11T17:50:40Z</time></trkpt><trkpt lat="38.94873700089264" lon="16.510023884514958"><ele>655.0</ele><time>2026-04-11T17:50:41Z</time></trkpt><trkpt lat="38.94878194598327" lon="16.510106397123778"><ele>655.0</ele><time>2026-04-11T17:50:44Z</time></trkpt><trkpt lat="38.94882023232778" lon="16.51017890418839"><ele>655.0</ele><time>2026-04-11T17:51:07Z</time></trkpt><trkpt lat="38.948881309126186" lon="16.51029882252041"><ele>655.0</ele><time>2026-04-11T17:51:09Z</time></trkpt><trkpt lat="38.94891781222014" lon="16.510377938241007"><ele>655.0</ele><time>2026-04-11T17:51:10Z</time></trkpt><trkpt lat="38.948963010716746" lon="16.510477683498834"><ele>655.0</ele><time>2026-04-11T17:51:11Z</time></trkpt><trkpt lat="38.94906192385774" lon="16.510522533219667"><ele>655.0</ele><time>2026-04-11T17:51:12Z</time></trkpt><trkpt lat="38.94913893903056" lon="16.510576975370096"><ele>655.0</ele><time>2026-04-11T17:51:13Z</time></trkpt><trkpt lat="38.94922540764691" lon="16.510626390016316"><ele>655.0</ele><time>2026-04-11T17:51:14Z</time></trkpt><trkpt lat="38.94931385203608" lon="16.510665239620625"><ele>653.0</ele><time>2026-04-11T17:51:15Z</time></trkpt><trkpt lat="38.9493633441861" lon="16.510791786579983"><ele>651.0</ele><time>2026-04-11T17:51:16Z</time></trkpt><trkpt lat="38.94946141911856" lon="16.5108622855447"><ele>649.0</ele><time>2026-04-11T17:51:18Z</time></trkpt><trkpt lat="38.949531751729616" lon="16.510939564902852"><ele>647.0</ele><time>2026-04-11T17:51:19Z</time></trkpt><trkpt lat="38.94963311777625" lon="16.511030951125875"><ele>645.0</ele><time>2026-04-11T17:51:20Z</time></trkpt><trkpt lat="38.94973421530708" lon="16.511128457842442"><ele>645.0</ele><time>2026-04-11T17:51:21Z</time></trkpt><trkpt lat="38.94984177634902" lon="16.511201294137347"><ele>645.0</ele><time>2026-04-11T17:51:22Z</time></trkpt><trkpt lat="38.94993421066682" lon="16.51128808446604"><ele>645.0</ele><time>2026-04-11T17:51:23Z</time></trkpt><trkpt lat="38.95002757394142" lon="16.511348426921508"><ele>645.0</ele><time>2026-04-11T17:51:24Z</time></trkpt><trkpt lat="38.95011048555262" lon="16.511426103229734"><ele>645.0</ele><time>2026-04-11T17:51:25Z</time></trkpt><trkpt lat="38.950219198181095" lon="16.511469603142384"><ele>645.25</ele><time>2026-04-11T17:51:26Z</time></trkpt><trkpt lat="38.95035390534685" lon="16.511425859406817"><ele>645.5</ele><time>2026-04-11T17:51:27Z</time></trkpt><trkpt lat="38.95046952025687" lon="16.511414842416276"><ele>645.75</ele><time>2026-04-11T17:51:28Z</time></trkpt><trkpt lat="38.95057171496992" lon="16.5113965875887"><ele>646.0</ele><time>2026-04-11T17:51:29Z</time></trkpt><trkpt lat="38.950663514479835" lon="16.51138978127087"><ele>646.0</ele><time>2026-04-11T17:51:30Z</time></trkpt><trkpt lat="38.95073621843937" lon="16.511418945485325"><ele>646.0</ele><time>2026-04-11T17:51:31Z</time></trkpt><trkpt lat="38.95080436266394" lon="16.511459310325957"><ele>646.0</ele><time>2026-04-11T17:51:32Z</time></trkpt><trkpt lat="38.950883833065774" lon="16.511510159684164"><ele>646.0</ele><time>2026-04-11T17:51:33Z</time></trkpt><trkpt lat="38.950970331417956" lon="16.511578323739897"><ele>646.0</ele><time>2026-04-11T17:51:34Z</time></trkpt><trkpt lat="38.95108469933498" lon="16.511636854329385"><ele>646.5</ele><time>2026-04-11T17:51:35Z</time></trkpt><trkpt lat="38.95120873356625" lon="16.511669177073422"><ele>647.0</ele><time>2026-04-11T17:51:36Z</time></trkpt><trkpt lat="38.95134923149972" lon="16.511655551467154"><ele>647.5</ele><time>2026-04-11T17:51:37Z</time></trkpt><trkpt lat="38.951488924905064" lon="16.511691447366193"><ele>648.0</ele><time>2026-04-11T17:51:38Z</time></trkpt><trkpt lat="38.95164211447304" lon="16.511708228941142"><ele>649.5</ele><time>2026-04-11T17:51:39Z</time></trkpt><trkpt lat="38.951792908094404" lon="16.51175479136475"><ele>651.0</ele><time>2026-04-11T17:51:40Z</time></trkpt><trkpt lat="38.95193197764026" lon="16.51174961548593"><ele>652.5</ele><time>2026-04-11T17:51:41Z</time></trkpt><trkpt lat="38.952079336148444" lon="16.51173180597086"><ele>654.0</ele><time>2026-04-11T17:51:42Z</time></trkpt><trkpt lat="38.95223221590415" lon="16.511704508599895"><ele>654.0</ele><time>2026-04-11T17:51:43Z</time></trkpt><trkpt lat="38.95237848638888" lon="16.51161210872398"><ele>654.0</ele><time>2026-04-11T17:51:44Z</time></trkpt><trkpt lat="38.952521342493384" lon="16.511537594057614"><ele>654.0</ele><time>2026-04-11T17:51:45Z</time></trkpt><trkpt lat="38.952667013756376" lon="16.51147548408596"><ele>658.5</ele><time>2026-04-11T17:51:46Z</time></trkpt><trkpt lat="38.95282646957573" lon="16.511451226631653"><ele>663.0</ele><time>2026-04-11T17:51:47Z</time></trkpt><trkpt lat="38.95296699258818" lon="16.511394284048574"><ele>667.5</ele><time>2026-04-11T17:51:48Z</time></trkpt><trkpt lat="38.95309551964361" lon="16.51139205295723"><ele>672.0</ele><time>2026-04-11T17:51:49Z</time></trkpt><trkpt lat="38.953225440366154" lon="16.511398464500438"><ele>674.0</ele><time>2026-04-11T17:51:50Z</time></trkpt><trkpt lat="38.953374104062384" lon="16.51143086885454"><ele>676.0</ele><time>2026-04-11T17:51:51Z</time></trkpt><trkpt lat="38.95354272179546" lon="16.51146770529483"><ele>678.0</ele><time>2026-04-11T17:51:52Z</time></trkpt><trkpt lat="38.95371316964317" lon="16.51147123990763"><ele>678.0</ele><time>2026-04-11T17:51:53Z</time></trkpt><trkpt lat="38.95388048087551" lon="16.511468169398253"><ele>678.0</ele><time>2026-04-11T17:51:54Z</time></trkpt><trkpt lat="38.954051431867285" lon="16.511421147335074"><ele>678.0</ele><time>2026-04-11T17:51:55Z</time></trkpt><trkpt lat="38.954223197153404" lon="16.511344909456476"><ele>671.6666666666666</ele><time>2026-04-11T17:51:56Z</time></trkpt><trkpt lat="38.95439671739865" lon="16.511255988929385"><ele>665.3333333333333</ele><time>2026-04-11T17:51:57Z</time></trkpt><trkpt lat="38.95456382676234" lon="16.5111537801675"><ele>659.0</ele><time>2026-04-11T17:51:58Z</time></trkpt><trkpt lat="38.95472600328151" lon="16.511046544206934"><ele>659.0</ele><time>2026-04-11T17:51:59Z</time></trkpt><trkpt lat="38.954896169509674" lon="16.51096733725641"><ele>659.0</ele><time>2026-04-11T17:52:00Z</time></trkpt><trkpt lat="38.95505917574967" lon="16.510886749069723"><ele>659.0</ele><time>2026-04-11T17:52:01Z</time></trkpt><trkpt lat="38.955210821931374" lon="16.51081873881139"><ele>663.25</ele><time>2026-04-11T17:52:02Z</time></trkpt><trkpt lat="38.955360583411775" lon="16.510750623069924"><ele>667.5</ele><time>2026-04-11T17:52:03Z</time></trkpt><trkpt lat="38.955483587448924" lon="16.510649351102508"><ele>671.75</ele><time>2026-04-11T17:52:04Z</time></trkpt><trkpt lat="38.955580899314505" lon="16.510579404198594"><ele>676.0</ele><time>2026-04-11T17:52:05Z</time></trkpt><trkpt lat="38.95565794098828" lon="16.510534411625223"><ele>676.0</ele><time>2026-04-11T17:52:06Z</time></trkpt><trkpt lat="38.95571378063816" lon="16.510490428358434"><ele>676.0</ele><time>2026-04-11T17:52:07Z</time></trkpt><trkpt lat="38.95578152381064" lon="16.510431104214057"><ele>676.0</ele><time>2026-04-11T17:53:07Z</time></trkpt><trkpt lat="38.95586906338674" lon="16.510354062540568"><ele>676.0</ele><time>2026-04-11T17:53:09Z</time></trkpt><trkpt lat="38.95594713651861" lon="16.510301277294136"><ele>676.0</ele><time>2026-04-11T17:53:10Z</time></trkpt><trkpt lat="38.95605301271084" lon="16.510227183478545"><ele>669.75</ele><time>2026-04-11T17:53:11Z</time></trkpt><trkpt lat="38.95616280668191" lon="16.510139920508777"><ele>663.5</ele><time>2026-04-11T17:53:12Z</time></trkpt><trkpt lat="38.95625469188223" lon="16.51006678608636"><ele>657.25</ele><time>2026-04-11T17:53:13Z</time></trkpt><trkpt lat="38.956356557807496" lon="16.51002314665702"><ele>651.0</ele><time>2026-04-11T17:53:14Z</time></trkpt><trkpt lat="38.956471189282055" lon="16.509996401508484"><ele>651.0</ele><time>2026-04-11T17:53:15Z</time></trkpt><trkpt lat="38.95659286331838" lon="16.510040116949533"><ele>651.0</ele><time>2026-04-11T17:53:16Z</time></trkpt><trkpt lat="38.956719804706076" lon="16.510097565159928"><ele>651.0</ele><time>2026-04-11T17:53:17Z</time></trkpt><trkpt lat="38.956856581880956" lon="16.510108079759675"><ele>651.0</ele><time>2026-04-11T17:53:18Z</time></trkpt><trkpt lat="38.95699767840257" lon="16.510133687541167"><ele>653.3333333333334</ele><time>2026-04-11T17:53:19Z</time></trkpt><trkpt lat="38.957152686038036" lon="16.510166204661154"><ele>655.6666666666667</ele><time>2026-04-11T17:53:20Z</time></trkpt><trkpt lat="38.95730559146763" lon="16.510160771508854"><ele>658.0</ele><time>2026-04-11T17:53:21Z</time></trkpt><trkpt lat="38.957487036375625" lon="16.51015223320969"><ele>661.6666666666667</ele><time>2026-04-11T17:53:22Z</time></trkpt><trkpt lat="38.957668653409876" lon="16.51012285642439"><ele>665.3333333333334</ele><time>2026-04-11T17:53:23Z</time></trkpt><trkpt lat="38.95786461906823" lon="16.51013400695474"><ele>669.0</ele><time>2026-04-11T17:53:24Z</time></trkpt><trkpt lat="38.958054185971484" lon="16.510156255822967"><ele>669.0</ele><time>2026-04-11T17:53:25Z</time></trkpt><trkpt lat="38.95824232675343" lon="16.51019137845085"><ele>669.0</ele><time>2026-04-11T17:53:26Z</time></trkpt><trkpt lat="38.95841034908357" lon="16.510256433791326"><ele>669.0</ele><time>2026-04-11T17:53:27Z</time></trkpt><trkpt lat="38.958525560115625" lon="16.510297159849188"><ele>670.25</ele><time>2026-04-11T17:53:28Z</time></trkpt><trkpt lat="38.95862795336166" lon="16.51033427504712"><ele>671.5</ele><time>2026-04-11T17:53:29Z</time></trkpt><trkpt lat="38.95873208979781" lon="16.510401470899705"><ele>672.75</ele><time>2026-04-11T17:53:30Z</time></trkpt><trkpt lat="38.95884016614249" lon="16.510477655388904"><ele>674.0</ele><time>2026-04-11T17:53:31Z</time></trkpt><trkpt lat="38.95892967631412" lon="16.510584828449527"><ele>674.0</ele><time>2026-04-11T17:53:32Z</time></trkpt><trkpt lat="38.95901013168554" lon="16.510729219603398"><ele>674.0</ele><time>2026-04-11T17:53:33Z</time></trkpt><trkpt lat="38.95910181508942" lon="16.510889397817184"><ele>674.0</ele><time>2026-04-11T17:53:34Z</time></trkpt><trkpt lat="38.959199745241904" lon="16.51104617187969"><ele>674.0</ele><time>2026-04-11T17:53:35Z</time></trkpt><trkpt lat="38.95927927068586" lon="16.511183222025966"><ele>680.2</ele><time>2026-04-11T17:53:36Z</time></trkpt><trkpt lat="38.95935277262174" lon="16.5112898337478"><ele>686.4000000000001</ele><time>2026-04-11T17:53:37Z</time></trkpt><trkpt lat="38.959422537500124" lon="16.511378919536142"><ele>692.6</ele><time>2026-04-11T17:53:38Z</time></trkpt><trkpt lat="38.959507333809825" lon="16.5114250745113"><ele>698.8</ele><time>2026-04-11T17:53:39Z</time></trkpt><trkpt lat="38.959601370098525" lon="16.511424962051887"><ele>705.0</ele><time>2026-04-11T17:53:40Z</time></trkpt><trkpt lat="38.95969093270918" lon="16.5113877446401"><ele>705.0</ele><time>2026-04-11T17:53:41Z</time></trkpt><trkpt lat="38.95979584852709" lon="16.511286334530933"><ele>705.0</ele><time>2026-04-11T17:53:42Z</time></trkpt><trkpt lat="38.95988925119344" lon="16.51110895556548"><ele>705.0</ele><time>2026-04-11T17:53:43Z</time></trkpt><trkpt lat="38.95997693814284" lon="16.51095468998743"><ele>705.0</ele><time>2026-04-11T17:53:44Z</time></trkpt><trkpt lat="38.96004128984965" lon="16.5108350461648"><ele>704.25</ele><time>2026-04-11T17:53:45Z</time></trkpt><trkpt lat="38.96013490568065" lon="16.510758497296674"><ele>703.5</ele><time>2026-04-11T17:53:46Z</time></trkpt><trkpt lat="38.96024824761037" lon="16.510689251407573"><ele>702.75</ele><time>2026-04-11T17:53:47Z</time></trkpt><trkpt lat="38.96038748893527" lon="16.51066173385959"><ele>702.0</ele><time>2026-04-11T17:53:48Z</time></trkpt><trkpt lat="38.96053038213349" lon="16.51061756495517"><ele>702.0</ele><time>2026-04-11T17:53:49Z</time></trkpt><trkpt lat="38.96067130189051" lon="16.510582541661098"><ele>702.0</ele><time>2026-04-11T17:53:50Z</time></trkpt><trkpt lat="38.96078781045697" lon="16.51056725365769"><ele>702.0</ele><time>2026-04-11T17:53:51Z</time></trkpt><trkpt lat="38.96092988065601" lon="16.510562541904026"><ele>702.0</ele><time>2026-04-11T17:53:52Z</time></trkpt><trkpt lat="38.96105598758963" lon="16.510563197128576"><ele>706.5</ele><time>2026-04-11T17:53:53Z</time></trkpt><trkpt lat="38.96118008533289" lon="16.51056593205763"><ele>711.0</ele><time>2026-04-11T17:53:54Z</time></trkpt><trkpt lat="38.96130031091585" lon="16.510560175399355"><ele>715.5</ele><time>2026-04-11T17:53:55Z</time></trkpt><trkpt lat="38.961423140192636" lon="16.51052545207918"><ele>720.0</ele><time>2026-04-11T17:53:56Z</time></trkpt><trkpt lat="38.96153870272438" lon="16.510483081214232"><ele>720.0</ele><time>2026-04-11T17:53:57Z</time></trkpt><trkpt lat="38.96168592013565" lon="16.51047824195783"><ele>720.0</ele><time>2026-04-11T17:53:58Z</time></trkpt><trkpt lat="38.961789197806354" lon="16.510293900494048"><ele>720.0</ele><time>2026-04-11T17:53:59Z</time></trkpt><trkpt lat="38.96191645874567" lon="16.510187927739857"><ele>716.5</ele><time>2026-04-11T17:54:00Z</time></trkpt><trkpt lat="38.96204720702705" lon="16.510099503367215"><ele>713.0</ele><time>2026-04-11T17:54:01Z</time></trkpt><trkpt lat="38.96217790901302" lon="16.510027363739887"><ele>709.5</ele><time>2026-04-11T17:54:02Z</time></trkpt><trkpt lat="38.962293906013784" lon="16.509971575146622"><ele>706.0</ele><time>2026-04-11T17:54:03Z</time></trkpt><trkpt lat="38.96240105779012" lon="16.509895995037606"><ele>706.0</ele><time>2026-04-11T17:54:04Z</time></trkpt><trkpt lat="38.962464884702996" lon="16.509790777160514"><ele>706.0</ele><time>2026-04-11T17:54:05Z</time></trkpt><trkpt lat="38.96252472499193" lon="16.509624707075677"><ele>706.0</ele><time>2026-04-11T17:54:06Z</time></trkpt><trkpt lat="38.96256772164491" lon="16.509443406099525"><ele>706.0</ele><time>2026-04-11T17:54:07Z</time></trkpt><trkpt lat="38.96259083474051" lon="16.50929358634993"><ele>708.0</ele><time>2026-04-11T17:54:08Z</time></trkpt><trkpt lat="38.96264372594745" lon="16.509166827306796"><ele>710.0</ele><time>2026-04-11T17:54:09Z</time></trkpt><trkpt lat="38.962752326858975" lon="16.50905641610705"><ele>712.0</ele><time>2026-04-11T17:54:10Z</time></trkpt><trkpt lat="38.962873381624824" lon="16.50894469384465"><ele>714.0</ele><time>2026-04-11T17:54:11Z</time></trkpt><trkpt lat="38.96299963503212" lon="16.50881839136416"><ele>710.6666666666666</ele><time>2026-04-11T17:54:12Z</time></trkpt><trkpt lat="38.96313778436638" lon="16.508709660987876"><ele>707.3333333333333</ele><time>2026-04-11T17:54:13Z</time></trkpt><trkpt lat="38.96326859567937" lon="16.508596184904672"><ele>704.0</ele><time>2026-04-11T17:54:14Z</time></trkpt><trkpt lat="38.96338772921324" lon="16.50848203697459"><ele>713.0</ele><time>2026-04-11T17:54:15Z</time></trkpt><trkpt lat="38.963492143922316" lon="16.50833720109257"><ele>722.0</ele><time>2026-04-11T17:54:16Z</time></trkpt><trkpt lat="38.96360315962028" lon="16.50816350607253"><ele>731.0</ele><time>2026-04-11T17:54:17Z</time></trkpt><trkpt lat="38.96370575754983" lon="16.507986233290538"><ele>727.0</ele><time>2026-04-11T17:54:18Z</time></trkpt><trkpt lat="38.96379904261269" lon="16.50781953526098"><ele>723.0</ele><time>2026-04-11T17:54:19Z</time></trkpt><trkpt lat="38.96390997952005" lon="16.507683479680583"><ele>719.0</ele><time>2026-04-11T17:54:20Z</time></trkpt><trkpt lat="38.963990538805156" lon="16.507508743315064"><ele>719.0</ele><time>2026-04-11T17:54:21Z</time></trkpt><trkpt lat="38.96409123874672" lon="16.50733227966115"><ele>719.0</ele><time>2026-04-11T17:54:22Z</time></trkpt><trkpt lat="38.96419771822698" lon="16.507145002577925"><ele>719.0</ele><time>2026-04-11T17:54:23Z</time></trkpt><trkpt lat="38.96430310165683" lon="16.506939357963635"><ele>726.0</ele><time>2026-04-11T17:54:24Z</time></trkpt><trkpt lat="38.96437849778814" lon="16.506753550666378"><ele>733.0</ele><time>2026-04-11T17:54:25Z</time></trkpt><trkpt lat="38.9644453817154" lon="16.506574946611252"><ele>740.0</ele><time>2026-04-11T17:54:26Z</time></trkpt><trkpt lat="38.964509214359005" lon="16.50640446108781"><ele>740.0</ele><time>2026-04-11T17:54:27Z</time></trkpt><trkpt lat="38.964581479578875" lon="16.506260856674412"><ele>740.0</ele><time>2026-04-11T17:54:28Z</time></trkpt><trkpt lat="38.96467081628069" lon="16.50614887144537"><ele>740.0</ele><time>2026-04-11T17:54:29Z</time></trkpt><trkpt lat="38.964781320594064" lon="16.50607812301483"><ele>740.0</ele><time>2026-04-11T17:54:30Z</time></trkpt><trkpt lat="38.964853122580855" lon="16.505968552945728"><ele>736.5</ele><time>2026-04-11T17:54:31Z</time></trkpt><trkpt lat="38.96490220248621" lon="16.505833318361304"><ele>733.0</ele><time>2026-04-11T17:54:32Z</time></trkpt><trkpt lat="38.96492564402567" lon="16.505661532575875"><ele>729.5</ele><time>2026-04-11T17:54:33Z</time></trkpt><trkpt lat="38.96493509576929" lon="16.505477213682425"><ele>726.0</ele><time>2026-04-11T17:54:34Z</time></trkpt><trkpt lat="38.964929432579055" lon="16.505291127980843"><ele>726.0</ele><time>2026-04-11T17:54:35Z</time></trkpt><trkpt lat="38.96488873961496" lon="16.5051029686541"><ele>726.0</ele><time>2026-04-11T17:54:36Z</time></trkpt><trkpt lat="38.9648272021454" lon="16.504928422484774"><ele>726.0</ele><time>2026-04-11T17:54:37Z</time></trkpt><trkpt lat="38.96476949943725" lon="16.50479176304125"><ele>726.0</ele><time>2026-04-11T17:54:38Z</time></trkpt><trkpt lat="38.96475481418517" lon="16.50464543163611"><ele>725.25</ele><time>2026-04-11T17:54:39Z</time></trkpt><trkpt lat="38.9647664365021" lon="16.50451060767357"><ele>724.5</ele><time>2026-04-11T17:54:40Z</time></trkpt><trkpt lat="38.964809371728144" lon="16.5043563377304"><ele>723.75</ele><time>2026-04-11T17:54:41Z</time></trkpt><trkpt lat="38.964876394644875" lon="16.50421410897502"><ele>723.0</ele><time>2026-04-11T17:54:42Z</time></trkpt><trkpt lat="38.96496484659144" lon="16.504098760237365"><ele>724.3333333333334</ele><time>2026-04-11T17:54:43Z</time></trkpt><trkpt lat="38.96509361456732" lon="16.503995483032966"><ele>725.6666666666667</ele><time>2026-04-11T17:54:44Z</time></trkpt><trkpt lat="38.965236290626684" lon="16.503846506229486"><ele>727.0</ele><time>2026-04-11T17:54:45Z</time></trkpt><trkpt lat="38.96536301380279" lon="16.503662914655568"><ele>727.0</ele><time>2026-04-11T17:54:46Z</time></trkpt><trkpt lat="38.96548381754923" lon="16.503514675737858"><ele>727.0</ele><time>2026-04-11T17:54:47Z</time></trkpt><trkpt lat="38.965583942273085" lon="16.503378109166263"><ele>727.0</ele><time>2026-04-11T17:54:48Z</time></trkpt><trkpt lat="38.965684768398624" lon="16.50326678350799"><ele>727.0</ele><time>2026-04-11T17:54:49Z</time></trkpt><trkpt lat="38.96578888207906" lon="16.50320074588164"><ele>728.6</ele><time>2026-04-11T17:54:50Z</time></trkpt><trkpt lat="38.965889376361794" lon="16.503197331966373"><ele>730.2</ele><time>2026-04-11T17:54:51Z</time></trkpt><trkpt lat="38.96598140775388" lon="16.50325341821482"><ele>731.8</ele><time>2026-04-11T17:54:52Z</time></trkpt><trkpt lat="38.966051049251256" lon="16.503369499135484"><ele>733.4</ele><time>2026-04-11T17:54:53Z</time></trkpt><trkpt lat="38.96614725630988" lon="16.503469383593963"><ele>735.0</ele><time>2026-04-11T17:54:54Z</time></trkpt><trkpt lat="38.96625895218088" lon="16.503498766963983"><ele>735.0</ele><time>2026-04-11T17:54:55Z</time></trkpt><trkpt lat="38.96637394879857" lon="16.503437805525934"><ele>735.0</ele><time>2026-04-11T17:54:56Z</time></trkpt><trkpt lat="38.966506430772924" lon="16.503349713241455"><ele>735.0</ele><time>2026-04-11T17:54:57Z</time></trkpt><trkpt lat="38.96665919800548" lon="16.503277728651234"><ele>735.0</ele><time>2026-04-11T17:54:58Z</time></trkpt><trkpt lat="38.96681068453103" lon="16.503288843162025"><ele>741.75</ele><time>2026-04-11T17:54:59Z</time></trkpt><trkpt lat="38.96695861756786" lon="16.503300715170568"><ele>748.5</ele><time>2026-04-11T17:55:00Z</time></trkpt><trkpt lat="38.96709957988352" lon="16.503299244338514"><ele>755.25</ele><time>2026-04-11T17:55:01Z</time></trkpt><trkpt lat="38.96721546297976" lon="16.50331075873663"><ele>762.0</ele><time>2026-04-11T17:55:02Z</time></trkpt><trkpt lat="38.96731868968117" lon="16.503293111634537"><ele>762.0</ele><time>2026-04-11T17:55:03Z</time></trkpt><trkpt lat="38.96739744219216" lon="16.503247050488806"><ele>762.0</ele><time>2026-04-11T17:55:04Z</time></trkpt><trkpt lat="38.96743721492487" lon="16.503167682578166"><ele>762.0</ele><time>2026-04-11T17:55:05Z</time></trkpt><trkpt lat="38.96745680369296" lon="16.503035423806182"><ele>762.0</ele><time>2026-04-11T17:55:06Z</time></trkpt><trkpt lat="38.967434197846515" lon="16.502881308912038"><ele>762.0</ele><time>2026-04-11T17:55:07Z</time></trkpt><trkpt lat="38.96739027475762" lon="16.502701470643764"><ele>759.5</ele><time>2026-04-11T17:55:08Z</time></trkpt><trkpt lat="38.96734609823465" lon="16.502506160124103"><ele>757.0</ele><time>2026-04-11T17:55:09Z</time></trkpt><trkpt lat="38.96733092931507" lon="16.50233440419898"><ele>754.5</ele><time>2026-04-11T17:55:10Z</time></trkpt><trkpt lat="38.96733724084356" lon="16.50217771186233"><ele>752.0</ele><time>2026-04-11T17:55:11Z</time></trkpt><trkpt lat="38.96737628330221" lon="16.50203427428389"><ele>752.75</ele><time>2026-04-11T17:55:12Z</time></trkpt><trkpt lat="38.96744888158448" lon="16.5019174822802"><ele>753.5</ele><time>2026-04-11T17:55:13Z</time></trkpt><trkpt lat="38.96755438552338" lon="16.501819965494626"><ele>754.25</ele><time>2026-04-11T17:55:14Z</time></trkpt><trkpt lat="38.967685818224936" lon="16.501777649650585"><ele>755.0</ele><time>2026-04-11T17:55:15Z</time></trkpt><trkpt lat="38.967847463639515" lon="16.501715733354068"><ele>755.0</ele><time>2026-04-11T17:55:16Z</time></trkpt><trkpt lat="38.96802650568549" lon="16.501695203816187"><ele>755.0</ele><time>2026-04-11T17:55:17Z</time></trkpt><trkpt lat="38.968223725667904" lon="16.501684046960936"><ele>755.0</ele><time>2026-04-11T17:55:18Z</time></trkpt><trkpt lat="38.968429223511734" lon="16.50167257274862"><ele>757.6666666666666</ele><time>2026-04-11T17:55:19Z</time></trkpt><trkpt lat="38.96861779992801" lon="16.501642438942888"><ele>760.3333333333334</ele><time>2026-04-11T17:55:20Z</time></trkpt><trkpt lat="38.968815406119994" lon="16.50164327050905"><ele>763.0</ele><time>2026-04-11T17:55:21Z</time></trkpt><trkpt lat="38.96898977210554" lon="16.501620337024328"><ele>763.0</ele><time>2026-04-11T17:55:22Z</time></trkpt><trkpt lat="38.969148207114316" lon="16.501579600015514"><ele>763.0</ele><time>2026-04-11T17:55:23Z</time></trkpt><trkpt lat="38.969253867446334" lon="16.501553197541483"><ele>763.0</ele><time>2026-04-11T17:55:24Z</time></trkpt><trkpt lat="38.96936988288861" lon="16.501593023890766"><ele>763.0</ele><time>2026-04-11T17:55:25Z</time></trkpt><trkpt lat="38.9694656187741" lon="16.501707025027947"><ele>762.5</ele><time>2026-04-11T17:55:26Z</time></trkpt><trkpt lat="38.969568315469935" lon="16.501874028367645"><ele>762.0</ele><time>2026-04-11T17:55:27Z</time></trkpt><trkpt lat="38.969667083907446" lon="16.50202629059377"><ele>761.5</ele><time>2026-04-11T17:55:28Z</time></trkpt><trkpt lat="38.96973889692598" lon="16.502154965225174"><ele>761.0</ele><time>2026-04-11T17:55:29Z</time></trkpt><trkpt lat="38.969827182243826" lon="16.50223292931463"><ele>765.25</ele><time>2026-04-11T17:55:30Z</time></trkpt><trkpt lat="38.96993428466809" lon="16.50223985498001"><ele>769.5</ele><time>2026-04-11T17:55:31Z</time></trkpt><trkpt lat="38.970044334372886" lon="16.502150328204873"><ele>773.75</ele><time>2026-04-11T17:55:32Z</time></trkpt><trkpt lat="38.970153828016635" lon="16.50204093433997"><ele>778.0</ele><time>2026-04-11T17:55:33Z</time></trkpt><trkpt lat="38.97027129370722" lon="16.50191846595314"><ele>778.0</ele><time>2026-04-11T17:55:34Z</time></trkpt><trkpt lat="38.970425350911526" lon="16.50182762059358"><ele>778.0</ele><time>2026-04-11T17:55:35Z</time></trkpt><trkpt lat="38.97059811406056" lon="16.50173373051924"><ele>778.0</ele><time>2026-04-11T17:55:36Z</time></trkpt><trkpt lat="38.970763146048256" lon="16.501672762673756"><ele>780.0</ele><time>2026-04-11T17:55:37Z</time></trkpt><trkpt lat="38.970929463634256" lon="16.501635548598227"><ele>782.0</ele><time>2026-04-11T17:55:38Z</time></trkpt><trkpt lat="38.9710776172788" lon="16.501618026801648"><ele>784.0</ele><time>2026-04-11T17:55:39Z</time></trkpt><trkpt lat="38.971227076418685" lon="16.50159597671847"><ele>784.0</ele><time>2026-04-11T17:55:40Z</time></trkpt><trkpt lat="38.97140147529401" lon="16.501531211959467"><ele>784.0</ele><time>2026-04-11T17:55:41Z</time></trkpt><trkpt lat="38.97155199229659" lon="16.501472845861144"><ele>784.0</ele><time>2026-04-11T17:55:42Z</time></trkpt><trkpt lat="38.971696893930655" lon="16.50142610227838"><ele>786.6666666666666</ele><time>2026-04-11T17:55:43Z</time></trkpt><trkpt lat="38.97184420638085" lon="16.501409475116507"><ele>789.3333333333333</ele><time>2026-04-11T17:55:44Z</time></trkpt><trkpt lat="38.97199907942666" lon="16.501414996951702"><ele>792.0</ele><time>2026-04-11T17:55:45Z</time></trkpt><trkpt lat="38.972165120868404" lon="16.501428354688752"><ele>792.0</ele><time>2026-04-11T17:55:46Z</time></trkpt><trkpt lat="38.972338556449884" lon="16.501434584803295"><ele>792.0</ele><time>2026-04-11T17:55:47Z</time></trkpt><trkpt lat="38.97248395503474" lon="16.501436324131205"><ele>792.0</ele><time>2026-04-11T17:55:48Z</time></trkpt><trkpt lat="38.97260983103872" lon="16.501412573827395"><ele>792.0</ele><time>2026-04-11T17:55:49Z</time></trkpt><trkpt lat="38.972735432195336" lon="16.501336345894522"><ele>792.6666666666667</ele><time>2026-04-11T17:55:50Z</time></trkpt><trkpt lat="38.97284313989449" lon="16.50119735321339"><ele>793.3333333333334</ele><time>2026-04-11T17:55:51Z</time></trkpt><trkpt lat="38.97295115371098" lon="16.500999270028966"><ele>794.0</ele><time>2026-04-11T17:55:52Z</time></trkpt><trkpt lat="38.973072173158776" lon="16.500796478718517"><ele>794.0</ele><time>2026-04-11T17:55:53Z</time></trkpt><trkpt lat="38.973215662173274" lon="16.500649194401237"><ele>794.0</ele><time>2026-04-11T17:55:54Z</time></trkpt><trkpt lat="38.97333159236526" lon="16.500527602483352"><ele>794.0</ele><time>2026-04-11T17:55:55Z</time></trkpt><trkpt lat="38.97343739556516" lon="16.500430059881875"><ele>795.75</ele><time>2026-04-11T17:55:56Z</time></trkpt><trkpt lat="38.97349878763946" lon="16.500309942203057"><ele>797.5</ele><time>2026-04-11T17:55:57Z</time></trkpt><trkpt lat="38.97354227888935" lon="16.5001429280623"><ele>799.25</ele><time>2026-04-11T17:55:58Z</time></trkpt><trkpt lat="38.97358929583202" lon="16.499951750372308"><ele>801.0</ele><time>2026-04-11T17:55:59Z</time></trkpt><trkpt lat="38.973655771560715" lon="16.499745567579936"><ele>795.75</ele><time>2026-04-11T17:56:00Z</time></trkpt><trkpt lat="38.973696032154216" lon="16.499565968752787"><ele>790.5</ele><time>2026-04-11T17:56:01Z</time></trkpt><trkpt lat="38.973762383553414" lon="16.49941750901103"><ele>785.25</ele><time>2026-04-11T17:56:02Z</time></trkpt><trkpt lat="38.97384253718458" lon="16.499305127717395"><ele>780.0</ele><time>2026-04-11T17:56:03Z</time></trkpt><trkpt lat="38.97394453454119" lon="16.499241610327534"><ele>780.0</ele><time>2026-04-11T17:56:04Z</time></trkpt><trkpt lat="38.97405274869373" lon="16.49921851195322"><ele>780.0</ele><time>2026-04-11T17:56:05Z</time></trkpt><trkpt lat="38.9741652287305" lon="16.499219918700568"><ele>780.0</ele><time>2026-04-11T17:56:06Z</time></trkpt><trkpt lat="38.974264273292036" lon="16.499193603808514"><ele>780.0</ele><time>2026-04-11T17:56:07Z</time></trkpt><trkpt lat="38.97433782672985" lon="16.49910262529629"><ele>780.0</ele><time>2026-04-11T17:56:08Z</time></trkpt><trkpt lat="38.97439403445842" lon="16.498961993686247"><ele>782.75</ele><time>2026-04-11T17:56:09Z</time></trkpt><trkpt lat="38.97447686420015" lon="16.498803461015495"><ele>785.5</ele><time>2026-04-11T17:56:10Z</time></trkpt><trkpt lat="38.97455287868096" lon="16.498625317691328"><ele>788.25</ele><time>2026-04-11T17:56:11Z</time></trkpt><trkpt lat="38.974630784073604" lon="16.49847997730567"><ele>791.0</ele><time>2026-04-11T17:56:12Z</time></trkpt><trkpt lat="38.974703652035494" lon="16.498352482371008"><ele>791.0</ele><time>2026-04-11T17:56:13Z</time></trkpt><trkpt lat="38.97479879955628" lon="16.498240031862093"><ele>791.0</ele><time>2026-04-11T17:56:14Z</time></trkpt><trkpt lat="38.97491893825436" lon="16.498143444522462"><ele>791.0</ele><time>2026-04-11T17:56:15Z</time></trkpt><trkpt lat="38.97506791809302" lon="16.49804874179481"><ele>791.0</ele><time>2026-04-11T17:56:16Z</time></trkpt><trkpt lat="38.97523186420154" lon="16.49796212778726"><ele>789.25</ele><time>2026-04-11T17:56:17Z</time></trkpt><trkpt lat="38.975388503350324" lon="16.497855629362157"><ele>787.5</ele><time>2026-04-11T17:56:18Z</time></trkpt><trkpt lat="38.97549960127236" lon="16.49773768217647"><ele>785.75</ele><time>2026-04-11T17:56:19Z</time></trkpt><trkpt lat="38.97560965759302" lon="16.49766390873991"><ele>784.0</ele><time>2026-04-11T17:56:20Z</time></trkpt><trkpt lat="38.97572961061648" lon="16.497622365744117"><ele>784.0</ele><time>2026-04-11T17:56:21Z</time></trkpt><trkpt lat="38.97584577582228" lon="16.49753760555818"><ele>784.0</ele><time>2026-04-11T17:56:22Z</time></trkpt><trkpt lat="38.976010497631705" lon="16.49765846949921"><ele>784.0</ele><time>2026-04-11T17:56:23Z</time></trkpt><trkpt lat="38.97616761702839" lon="16.497698868977665"><ele>782.25</ele><time>2026-04-11T17:56:24Z</time></trkpt><trkpt lat="38.97632010618177" lon="16.497748146057646"><ele>780.5</ele><time>2026-04-11T17:56:25Z</time></trkpt><trkpt lat="38.97646348796574" lon="16.497812422727385"><ele>778.75</ele><time>2026-04-11T17:56:26Z</time></trkpt><trkpt lat="38.97657649510665" lon="16.497905068890265"><ele>777.0</ele><time>2026-04-11T17:56:27Z</time></trkpt><trkpt lat="38.97665774366438" lon="16.498024539197992"><ele>785.75</ele><time>2026-04-11T17:56:28Z</time></trkpt><trkpt lat="38.97678549418247" lon="16.498045560560325"><ele>794.5</ele><time>2026-04-11T17:56:29Z</time></trkpt><trkpt lat="38.97693224784616" lon="16.498032211756158"><ele>803.25</ele><time>2026-04-11T17:56:30Z</time></trkpt><trkpt lat="38.977099066876185" lon="16.497976065929667"><ele>812.0</ele><time>2026-04-11T17:56:31Z</time></trkpt><trkpt lat="38.97724882403265" lon="16.497954889315753"><ele>812.0</ele><time>2026-04-11T17:56:32Z</time></trkpt><trkpt lat="38.97737905483555" lon="16.49796004003124"><ele>812.0</ele><time>2026-04-11T17:56:33Z</time></trkpt><trkpt lat="38.97750422753402" lon="16.498012411951578"><ele>812.0</ele><time>2026-04-11T17:56:34Z</time></trkpt><trkpt lat="38.97761184974129" lon="16.498101382646123"><ele>812.0</ele><time>2026-04-11T17:56:35Z</time></trkpt><trkpt lat="38.97773034493132" lon="16.49817589171267"><ele>809.0</ele><time>2026-04-11T17:56:36Z</time></trkpt><trkpt lat="38.97786549336842" lon="16.498186223179413"><ele>806.0</ele><time>2026-04-11T17:56:37Z</time></trkpt><trkpt lat="38.978044251454286" lon="16.498214609863805"><ele>803.0</ele><time>2026-04-11T17:56:38Z</time></trkpt><trkpt lat="38.97823178855307" lon="16.498225797450438"><ele>802.6666666666667</ele><time>2026-04-11T17:56:39Z</time></trkpt><trkpt lat="38.9784215568024" lon="16.498254398998895"><ele>802.3333333333333</ele><time>2026-04-11T17:56:40Z</time></trkpt><trkpt lat="38.97860480647741" lon="16.49828635086181"><ele>802.0</ele><time>2026-04-11T17:56:41Z</time></trkpt><trkpt lat="38.97880897532372" lon="16.498300623469017"><ele>802.0</ele><time>2026-04-11T17:56:42Z</time></trkpt><trkpt lat="38.9789993966135" lon="16.498285917646786"><ele>802.0</ele><time>2026-04-11T17:56:43Z</time></trkpt><trkpt lat="38.97919317333004" lon="16.498258603288416"><ele>802.0</ele><time>2026-04-11T17:56:44Z</time></trkpt><trkpt lat="38.97937961383369" lon="16.498231312905077"><ele>807.3333333333333</ele><time>2026-04-11T17:56:45Z</time></trkpt><trkpt lat="38.97956031605786" lon="16.49820501810439"><ele>812.6666666666667</ele><time>2026-04-11T17:56:46Z</time></trkpt><trkpt lat="38.979725107463615" lon="16.49818301349335"><ele>818.0</ele><time>2026-04-11T17:56:47Z</time></trkpt><trkpt lat="38.97988698253262" lon="16.498162025766398"><ele>818.0</ele><time>2026-04-11T17:56:48Z</time></trkpt><trkpt lat="38.97999344756072" lon="16.498136756296297"><ele>818.0</ele><time>2026-04-11T17:56:49Z</time></trkpt><trkpt lat="38.98010166380911" lon="16.498089186397745"><ele>818.0</ele><time>2026-04-11T17:56:50Z</time></trkpt><trkpt lat="38.980180345140816" lon="16.49798552629441"><ele>818.0</ele><time>2026-04-11T17:56:51Z</time></trkpt><trkpt lat="38.98022681062767" lon="16.497816395055292"><ele>816.75</ele><time>2026-04-11T17:56:52Z</time></trkpt><trkpt lat="38.980277506709676" lon="16.497665723275357"><ele>815.5</ele><time>2026-04-11T17:56:53Z</time></trkpt><trkpt lat="38.98036661443397" lon="16.497571144417986"><ele>814.25</ele><time>2026-04-11T17:56:54Z</time></trkpt><trkpt lat="38.980462740073946" lon="16.49750663173622"><ele>813.0</ele><time>2026-04-11T17:56:55Z</time></trkpt><trkpt lat="38.980588697824125" lon="16.497473548443722"><ele>813.0</ele><time>2026-04-11T17:56:56Z</time></trkpt><trkpt lat="38.98074100242781" lon="16.49744807537867"><ele>813.0</ele><time>2026-04-11T17:56:57Z</time></trkpt><trkpt lat="38.980892227066576" lon="16.497436320605374"><ele>813.0</ele><time>2026-04-11T17:56:58Z</time></trkpt><trkpt lat="38.981025212807744" lon="16.497434420615217"><ele>813.0</ele><time>2026-04-11T17:56:59Z</time></trkpt><trkpt lat="38.98116085759679" lon="16.497474329547835"><ele>812.0</ele><time>2026-04-11T17:57:00Z</time></trkpt><trkpt lat="38.981292840075234" lon="16.49753986283675"><ele>811.0</ele><time>2026-04-11T17:57:01Z</time></trkpt><trkpt lat="38.9814424175311" lon="16.49762644736984"><ele>810.0</ele><time>2026-04-11T17:57:02Z</time></trkpt><trkpt lat="38.98159586664419" lon="16.49771351886519"><ele>809.25</ele><time>2026-04-11T17:57:03Z</time></trkpt><trkpt lat="38.981731961336806" lon="16.497791692963016"><ele>808.5</ele><time>2026-04-11T17:57:04Z</time></trkpt><trkpt lat="38.98184284541729" lon="16.49788123708262"><ele>807.75</ele><time>2026-04-11T17:57:05Z</time></trkpt><trkpt lat="38.981936457591736" lon="16.497992445811164"><ele>807.0</ele><time>2026-04-11T17:57:06Z</time></trkpt><trkpt lat="38.98201610688202" lon="16.498139350092988"><ele>807.0</ele><time>2026-04-11T17:57:07Z</time></trkpt><trkpt lat="38.98208395051498" lon="16.49830255391392"><ele>807.0</ele><time>2026-04-11T17:57:08Z</time></trkpt><trkpt lat="38.9821393441845" lon="16.4984542648509"><ele>807.0</ele><time>2026-04-11T17:57:09Z</time></trkpt><trkpt lat="38.98218621308074" lon="16.49859724501371"><ele>807.0</ele><time>2026-04-11T17:57:10Z</time></trkpt><trkpt lat="38.98221075270653" lon="16.498760098857183"><ele>812.5</ele><time>2026-04-11T17:57:11Z</time></trkpt><trkpt lat="38.98220861713065" lon="16.49892872397893"><ele>818.0</ele><time>2026-04-11T17:57:12Z</time></trkpt><trkpt lat="38.98221397861214" lon="16.4990864256749"><ele>823.5</ele><time>2026-04-11T17:57:13Z</time></trkpt><trkpt lat="38.98224913269337" lon="16.499217789156546"><ele>829.0</ele><time>2026-04-11T17:57:14Z</time></trkpt><trkpt lat="38.98232776818156" lon="16.499323626758304"><ele>829.0</ele><time>2026-04-11T17:57:15Z</time></trkpt><trkpt lat="38.9824600648493" lon="16.499444343638032"><ele>829.0</ele><time>2026-04-11T17:57:16Z</time></trkpt><trkpt lat="38.9826192219049" lon="16.499552801066574"><ele>829.0</ele><time>2026-04-11T17:57:17Z</time></trkpt><trkpt lat="38.98279624590364" lon="16.499631302167302"><ele>832.0</ele><time>2026-04-11T17:57:18Z</time></trkpt><trkpt lat="38.98299311067406" lon="16.49967368468376"><ele>835.0</ele><time>2026-04-11T17:57:19Z</time></trkpt><trkpt lat="38.98321193808902" lon="16.49971241244839"><ele>838.0</ele><time>2026-04-11T17:57:20Z</time></trkpt><trkpt lat="38.98341710520898" lon="16.499733863076393"><ele>838.0</ele><time>2026-04-11T17:57:21Z</time></trkpt><trkpt lat="38.983586304679065" lon="16.499788195610495"><ele>838.0</ele><time>2026-04-11T17:57:22Z</time></trkpt><trkpt lat="38.983732708509336" lon="16.499839389250074"><ele>838.0</ele><time>2026-04-11T17:57:23Z</time></trkpt><trkpt lat="38.98385608919333" lon="16.4999205323057"><ele>838.0</ele><time>2026-04-11T17:57:24Z</time></trkpt><trkpt lat="38.98397768269931" lon="16.500051189181647"><ele>838.0</ele><time>2026-04-11T17:57:25Z</time></trkpt><trkpt lat="38.98410240898489" lon="16.50019761920789"><ele>838.0</ele><time>2026-04-11T17:57:26Z</time></trkpt><trkpt lat="38.98422732741737" lon="16.500323976942298"><ele>843.3333333333333</ele><time>2026-04-11T17:57:27Z</time></trkpt><trkpt lat="38.98436966136359" lon="16.500433105947142"><ele>848.6666666666667</ele><time>2026-04-11T17:57:28Z</time></trkpt><trkpt lat="38.984538525291725" lon="16.500536376975074"><ele>854.0</ele><time>2026-04-11T17:57:29Z</time></trkpt><trkpt lat="38.984707668577954" lon="16.500629899803418"><ele>854.0</ele><time>2026-04-11T17:57:30Z</time></trkpt><trkpt lat="38.98485990319443" lon="16.500712513370093"><ele>854.0</ele><time>2026-04-11T17:57:31Z</time></trkpt><trkpt lat="38.984989871142034" lon="16.50078491318047"><ele>854.0</ele><time>2026-04-11T17:57:32Z</time></trkpt><trkpt lat="38.98511750711356" lon="16.500851667259624"><ele>854.0</ele><time>2026-04-11T17:57:33Z</time></trkpt><trkpt lat="38.98522921304368" lon="16.500953842075813"><ele>854.5</ele><time>2026-04-11T17:57:34Z</time></trkpt><trkpt lat="38.985310080870924" lon="16.501098372402026"><ele>855.0</ele><time>2026-04-11T17:57:35Z</time></trkpt><trkpt lat="38.9853797289349" lon="16.501239799425306"><ele>855.5</ele><time>2026-04-11T17:57:36Z</time></trkpt><trkpt lat="38.98545781547639" lon="16.501416355700663"><ele>856.0</ele><time>2026-04-11T17:57:37Z</time></trkpt><trkpt lat="38.98555328785866" lon="16.501580658034403"><ele>856.0</ele><time>2026-04-11T17:57:38Z</time></trkpt><trkpt lat="38.98565170452655" lon="16.501711737962218"><ele>856.0</ele><time>2026-04-11T17:57:39Z</time></trkpt><trkpt lat="38.985755819520584" lon="16.50178792974719"><ele>856.0</ele><time>2026-04-11T17:57:40Z</time></trkpt><trkpt lat="38.985848463815145" lon="16.501854515171438"><ele>856.0</ele><time>2026-04-11T17:57:41Z</time></trkpt><trkpt lat="38.985981244891384" lon="16.5018617485986"><ele>855.0</ele><time>2026-04-11T17:57:42Z</time></trkpt><trkpt lat="38.98614097515308" lon="16.501812203731298"><ele>854.0</ele><time>2026-04-11T17:57:43Z</time></trkpt><trkpt lat="38.986333930017075" lon="16.501786079716243"><ele>853.0</ele><time>2026-04-11T17:57:44Z</time></trkpt><trkpt lat="38.986528497011875" lon="16.501808115677257"><ele>854.6666666666666</ele><time>2026-04-11T17:57:45Z</time></trkpt><trkpt lat="38.986698701881096" lon="16.501800403182674"><ele>856.3333333333333</ele><time>2026-04-11T17:57:46Z</time></trkpt><trkpt lat="38.98684909334583" lon="16.501805200006597"><ele>858.0</ele><time>2026-04-11T17:57:47Z</time></trkpt><trkpt lat="38.98699245718427" lon="16.501783420437643"><ele>858.0</ele><time>2026-04-11T17:57:48Z</time></trkpt><trkpt lat="38.9871345592198" lon="16.501742714315515"><ele>858.0</ele><time>2026-04-11T17:57:49Z</time></trkpt><trkpt lat="38.98729717345175" lon="16.50166340514971"><ele>858.0</ele><time>2026-04-11T17:57:50Z</time></trkpt><trkpt lat="38.98748118262585" lon="16.501594318561246"><ele>861.0</ele><time>2026-04-11T17:57:51Z</time></trkpt><trkpt lat="38.987649438837764" lon="16.501514761765307"><ele>864.0</ele><time>2026-04-11T17:57:52Z</time></trkpt><trkpt lat="38.987798781942175" lon="16.501445472921787"><ele>867.0</ele><time>2026-04-11T17:57:53Z</time></trkpt><trkpt lat="38.98794032435054" lon="16.50136291817261"><ele>867.0</ele><time>2026-04-11T17:57:54Z</time></trkpt><trkpt lat="38.98808299893248" lon="16.501318078261175"><ele>867.0</ele><time>2026-04-11T17:57:55Z</time></trkpt><trkpt lat="38.98824396774304" lon="16.501293258349477"><ele>867.0</ele><time>2026-04-11T17:57:56Z</time></trkpt><trkpt lat="38.98841777966105" lon="16.501289527649522"><ele>864.0</ele><time>2026-04-11T17:57:57Z</time></trkpt><trkpt lat="38.98858464928114" lon="16.501275965629834"><ele>861.0</ele><time>2026-04-11T17:57:58Z</time></trkpt><trkpt lat="38.98875574291075" lon="16.50121463507691"><ele>858.0</ele><time>2026-04-11T17:57:59Z</time></trkpt><trkpt lat="38.98893008900843" lon="16.501101600911994"><ele>858.0</ele><time>2026-04-11T17:58:00Z</time></trkpt><trkpt lat="38.989106954170566" lon="16.500952069465228"><ele>858.0</ele><time>2026-04-11T17:58:01Z</time></trkpt><trkpt lat="38.98928129661491" lon="16.500818972729682"><ele>858.0</ele><time>2026-04-11T17:58:02Z</time></trkpt><trkpt lat="38.989443220116186" lon="16.500721340776717"><ele>856.6666666666667</ele><time>2026-04-11T17:58:03Z</time></trkpt><trkpt lat="38.98958284985143" lon="16.500616663834805"><ele>855.3333333333334</ele><time>2026-04-11T17:58:04Z</time></trkpt><trkpt lat="38.98971708117291" lon="16.500514979289015"><ele>854.0</ele><time>2026-04-11T17:58:05Z</time></trkpt><trkpt lat="38.989850507417245" lon="16.50040111355527"><ele>854.0</ele><time>2026-04-11T17:58:06Z</time></trkpt><trkpt lat="38.98997053732216" lon="16.50025536477108"><ele>854.0</ele><time>2026-04-11T17:58:07Z</time></trkpt><trkpt lat="38.990111787489894" lon="16.500134819574573"><ele>854.0</ele><time>2026-04-11T17:58:08Z</time></trkpt><trkpt lat="38.99024046542198" lon="16.50000204404906"><ele>860.0</ele><time>2026-04-11T17:58:09Z</time></trkpt><trkpt lat="38.99036988062209" lon="16.49986850778026"><ele>866.0</ele><time>2026-04-11T17:58:10Z</time></trkpt><trkpt lat="38.99049401446114" lon="16.49974042104753"><ele>872.0</ele><time>2026-04-11T17:58:11Z</time></trkpt><trkpt lat="38.99060949318885" lon="16.49962126504381"><ele>871.75</ele><time>2026-04-11T17:58:12Z</time></trkpt><trkpt lat="38.990718052350566" lon="16.499509248930373"><ele>871.5</ele><time>2026-04-11T17:58:13Z</time></trkpt><trkpt lat="38.990823727551636" lon="16.499399217115617"><ele>871.25</ele><time>2026-04-11T17:58:14Z</time></trkpt><trkpt lat="38.9909163352243" lon="16.499302631560237"><ele>871.0</ele><time>2026-04-11T17:58:15Z</time></trkpt><trkpt lat="38.99099652827986" lon="16.499218993882604"><ele>871.0</ele><time>2026-04-11T17:58:16Z</time></trkpt><trkpt lat="38.99107930050781" lon="16.499132666238282"><ele>870.9999999999999</ele><time>2026-04-11T17:58:17Z</time></trkpt><trkpt lat="38.99115947959659" lon="16.499049043121733"><ele>870.9999999999999</ele><time>2026-04-11T17:58:18Z</time></trkpt><trkpt lat="38.99124215192399" lon="16.498962819674244"><ele>871.0</ele><time>2026-04-11T17:58:19Z</time></trkpt><trkpt lat="38.991336536230165" lon="16.498864381132133"><ele>871.0</ele><time>2026-04-11T17:58:20Z</time></trkpt><trkpt lat="38.991438979616234" lon="16.498757810515993"><ele>871.75</ele><time>2026-04-11T17:58:21Z</time></trkpt><trkpt lat="38.99153205327513" lon="16.498633854266973"><ele>872.5</ele><time>2026-04-11T17:58:22Z</time></trkpt><trkpt lat="38.99163767406224" lon="16.498550880985587"><ele>873.25</ele><time>2026-04-11T17:58:23Z</time></trkpt><trkpt lat="38.99173066322665" lon="16.498453865582768"><ele>874.0</ele><time>2026-04-11T17:58:24Z</time></trkpt><trkpt lat="38.991809451335534" lon="16.498346931629765"><ele>874.0</ele><time>2026-04-11T17:58:25Z</time></trkpt><trkpt lat="38.99189535113737" lon="16.498271107408147"><ele>874.0000000000001</ele><time>2026-04-11T17:58:26Z</time></trkpt><trkpt lat="38.99196010002754" lon="16.498212363366356"><ele>874.0000000000001</ele><time>2026-04-11T17:58:27Z</time></trkpt><trkpt lat="38.99203055546029" lon="16.49816570376133"><ele>874.0</ele><time>2026-04-11T17:58:29Z</time></trkpt><trkpt lat="38.99208754373518" lon="16.49805944710128"><ele>874.0</ele><time>2026-04-11T17:58:58Z</time></trkpt><trkpt lat="38.992173975556604" lon="16.497923439946973"><ele>872.8000000000001</ele><time>2026-04-11T17:59:00Z</time></trkpt><trkpt lat="38.99222397028468" lon="16.497829516304552"><ele>871.6000000000001</ele><time>2026-04-11T17:59:01Z</time></trkpt><trkpt lat="38.99226968768502" lon="16.49772002796652"><ele>870.4</ele><time>2026-04-11T17:59:02Z</time></trkpt><trkpt lat="38.992306134404124" lon="16.497576159430437"><ele>869.2</ele><time>2026-04-11T17:59:03Z</time></trkpt><trkpt lat="38.99235470000306" lon="16.497399892295878"><ele>868.0</ele><time>2026-04-11T17:59:04Z</time></trkpt><trkpt lat="38.99240725071083" lon="16.497194626849062"><ele>865.3333333333333</ele><time>2026-04-11T17:59:05Z</time></trkpt><trkpt lat="38.992464905291264" lon="16.49696719597991"><ele>862.6666666666667</ele><time>2026-04-11T17:59:06Z</time></trkpt><trkpt lat="38.99252547069392" lon="16.496728530664104"><ele>860.0</ele><time>2026-04-11T17:59:07Z</time></trkpt><trkpt lat="38.992590384382034" lon="16.49647433078391"><ele>865.6666666666667</ele><time>2026-04-11T17:59:08Z</time></trkpt><trkpt lat="38.992656653832015" lon="16.496222154849505"><ele>871.3333333333333</ele><time>2026-04-11T17:59:09Z</time></trkpt><trkpt lat="38.99272009510845" lon="16.49596650022492"><ele>877.0</ele><time>2026-04-11T17:59:10Z</time></trkpt><trkpt lat="38.992781948032444" lon="16.49570880900442"><ele>877.0</ele><time>2026-04-11T17:59:11Z</time></trkpt><trkpt lat="38.99284408634775" lon="16.495447989280667"><ele>877.0</ele><time>2026-04-11T17:59:12Z</time></trkpt><trkpt lat="38.992906846486" lon="16.495183304394228"><ele>877.0</ele><time>2026-04-11T17:59:13Z</time></trkpt><trkpt lat="38.99297425827895" lon="16.494922439677314"><ele>876.3333333333333</ele><time>2026-04-11T17:59:14Z</time></trkpt><trkpt lat="38.99304461842917" lon="16.494672074150586"><ele>875.6666666666667</ele><time>2026-04-11T17:59:15Z</time></trkpt><trkpt lat="38.99310902306769" lon="16.494418050807923"><ele>875.0</ele><time>2026-04-11T17:59:16Z</time></trkpt><trkpt lat="38.99317438008111" lon="16.49416599347378"><ele>874.6666666666667</ele><time>2026-04-11T17:59:17Z</time></trkpt><trkpt lat="38.993244650266604" lon="16.49392823311567"><ele>874.3333333333333</ele><time>2026-04-11T17:59:18Z</time></trkpt><trkpt lat="38.99332136096006" lon="16.493721839218463"><ele>874.0</ele><time>2026-04-11T17:59:19Z</time></trkpt><trkpt lat="38.99340955434878" lon="16.493555132281745"><ele>874.0</ele><time>2026-04-11T17:59:20Z</time></trkpt><trkpt lat="38.9935312281766" lon="16.493435678217867"><ele>874.0</ele><time>2026-04-11T17:59:21Z</time></trkpt><trkpt lat="38.993671164937815" lon="16.49329484995715"><ele>874.0</ele><time>2026-04-11T17:59:22Z</time></trkpt><trkpt lat="38.993802644807545" lon="16.493129017121575"><ele>874.0</ele><time>2026-04-11T17:59:23Z</time></trkpt><trkpt lat="38.993927082657" lon="16.49299086375342"><ele>874.0</ele><time>2026-04-11T17:59:24Z</time></trkpt><trkpt lat="38.99403576931163" lon="16.492840075272646"><ele>874.0</ele><time>2026-04-11T17:59:25Z</time></trkpt><trkpt lat="38.99413010923186" lon="16.492658050003122"><ele>875.6666666666666</ele><time>2026-04-11T17:59:26Z</time></trkpt><trkpt lat="38.9942025171013" lon="16.492455801826836"><ele>877.3333333333333</ele><time>2026-04-11T17:59:27Z</time></trkpt><trkpt lat="38.99424217957393" lon="16.4922689250203"><ele>879.0</ele><time>2026-04-11T17:59:28Z</time></trkpt><trkpt lat="38.994261089784224" lon="16.49210138798797"><ele>875.5</ele><time>2026-04-11T17:59:29Z</time></trkpt><trkpt lat="38.99429720082252" lon="16.491958999883245"><ele>872.0</ele><time>2026-04-11T17:59:30Z</time></trkpt><trkpt lat="38.99435947458644" lon="16.491853682987017"><ele>868.5</ele><time>2026-04-11T17:59:31Z</time></trkpt><trkpt lat="38.994452826303686" lon="16.491756330099154"><ele>865.0</ele><time>2026-04-11T17:59:32Z</time></trkpt><trkpt lat="38.994565544340865" lon="16.491746884330478"><ele>865.0</ele><time>2026-04-11T17:59:33Z</time></trkpt><trkpt lat="38.99468719594291" lon="16.491721211489594"><ele>865.0</ele><time>2026-04-11T17:59:34Z</time></trkpt><trkpt lat="38.99478931823815" lon="16.491702215912902"><ele>865.0</ele><time>2026-04-11T17:59:35Z</time></trkpt><trkpt lat="38.994854779634736" lon="16.491625859487133"><ele>865.0</ele><time>2026-04-11T17:59:36Z</time></trkpt><trkpt lat="38.99488857707372" lon="16.49150137436986"><ele>865.0</ele><time>2026-04-11T17:59:37Z</time></trkpt><trkpt lat="38.99489693287498" lon="16.49133896206731"><ele>862.5</ele><time>2026-04-11T17:59:38Z</time></trkpt><trkpt lat="38.994886499375504" lon="16.491146376515225"><ele>860.0</ele><time>2026-04-11T17:59:39Z</time></trkpt><trkpt lat="38.99486113150175" lon="16.490981692068484"><ele>857.5</ele><time>2026-04-11T17:59:40Z</time></trkpt><trkpt lat="38.994837997382405" lon="16.49083258804253"><ele>855.0</ele><time>2026-04-11T17:59:41Z</time></trkpt><trkpt lat="38.994851094586124" lon="16.490685616409188"><ele>855.0</ele><time>2026-04-11T17:59:42Z</time></trkpt><trkpt lat="38.994895285201416" lon="16.49054505715397"><ele>855.0</ele><time>2026-04-11T17:59:43Z</time></trkpt><trkpt lat="38.99496987160407" lon="16.490393278932803"><ele>855.0</ele><time>2026-04-11T17:59:44Z</time></trkpt><trkpt lat="38.99506765326412" lon="16.4902202304265"><ele>855.0</ele><time>2026-04-11T17:59:45Z</time></trkpt><trkpt lat="38.99518477726715" lon="16.49004496915244"><ele>854.6666666666667</ele><time>2026-04-11T17:59:46Z</time></trkpt><trkpt lat="38.995279132238025" lon="16.489885710860527"><ele>854.3333333333334</ele><time>2026-04-11T17:59:47Z</time></trkpt><trkpt lat="38.99537188192151" lon="16.489712071019458"><ele>854.0</ele><time>2026-04-11T17:59:48Z</time></trkpt><trkpt lat="38.995448612170996" lon="16.48953557180127"><ele>854.0</ele><time>2026-04-11T17:59:49Z</time></trkpt><trkpt lat="38.995522114261775" lon="16.489375975727672"><ele>854.0</ele><time>2026-04-11T17:59:50Z</time></trkpt><trkpt lat="38.99562259633965" lon="16.489221473349588"><ele>854.0</ele><time>2026-04-11T17:59:51Z</time></trkpt><trkpt lat="38.995728557243154" lon="16.48908701002808"><ele>854.0</ele><time>2026-04-11T17:59:52Z</time></trkpt><trkpt lat="38.99583135682029" lon="16.48898090573668"><ele>854.0</ele><time>2026-04-11T17:59:53Z</time></trkpt><trkpt lat="38.99591321623525" lon="16.488893430669506"><ele>854.0</ele><time>2026-04-11T17:59:54Z</time></trkpt><trkpt lat="38.99596535449755" lon="16.488775423703718"><ele>854.0</ele><time>2026-04-11T17:59:55Z</time></trkpt><trkpt lat="38.9959696434279" lon="16.488631719800797"><ele>857.6666666666667</ele><time>2026-04-11T17:59:56Z</time></trkpt><trkpt lat="38.99595747344954" lon="16.488435266784162"><ele>861.3333333333333</ele><time>2026-04-11T17:59:57Z</time></trkpt><trkpt lat="38.99595803287992" lon="16.488236370364184"><ele>865.0</ele><time>2026-04-11T17:59:58Z</time></trkpt><trkpt lat="38.995977776980425" lon="16.48803198484019"><ele>863.0</ele><time>2026-04-11T17:59:59Z</time></trkpt><trkpt lat="38.996014372092276" lon="16.4878327707842"><ele>861.0</ele><time>2026-04-11T18:00:00Z</time></trkpt><trkpt lat="38.996071317655904" lon="16.487636400558266"><ele>859.0</ele><time>2026-04-11T18:00:01Z</time></trkpt><trkpt lat="38.9961559719829" lon="16.487457194170208"><ele>859.0</ele><time>2026-04-11T18:00:02Z</time></trkpt><trkpt lat="38.996258239158436" lon="16.487313359563483"><ele>859.0</ele><time>2026-04-11T18:00:03Z</time></trkpt><trkpt lat="38.996370501844844" lon="16.487202151862128"><ele>859.0</ele><time>2026-04-11T18:00:04Z</time></trkpt><trkpt lat="38.99647695981702" lon="16.487103651440346"><ele>859.0</ele><time>2026-04-11T18:00:05Z</time></trkpt><trkpt lat="38.99654984210772" lon="16.48700818746382"><ele>855.75</ele><time>2026-04-11T18:00:06Z</time></trkpt><trkpt lat="38.996560622900176" lon="16.486874213170484"><ele>852.5</ele><time>2026-04-11T18:00:07Z</time></trkpt><trkpt lat="38.99653689174825" lon="16.486711458067333"><ele>849.25</ele><time>2026-04-11T18:00:08Z</time></trkpt><trkpt lat="38.9965284791044" lon="16.486569467162905"><ele>846.0</ele><time>2026-04-11T18:00:09Z</time></trkpt><trkpt lat="38.99657419897607" lon="16.48643946173077"><ele>846.0</ele><time>2026-04-11T18:00:10Z</time></trkpt><trkpt lat="38.996665561940425" lon="16.48630269743898"><ele>846.0</ele><time>2026-04-11T18:00:11Z</time></trkpt><trkpt lat="38.996786268083575" lon="16.48614825839329"><ele>846.0</ele><time>2026-04-11T18:00:12Z</time></trkpt><trkpt lat="38.996916270313115" lon="16.485997556919248"><ele>848.5</ele><time>2026-04-11T18:00:13Z</time></trkpt><trkpt lat="38.99704436381262" lon="16.485874296655677"><ele>851.0</ele><time>2026-04-11T18:00:14Z</time></trkpt><trkpt lat="38.997150772534084" lon="16.485787142903305"><ele>853.5</ele><time>2026-04-11T18:00:15Z</time></trkpt><trkpt lat="38.9972469922277" lon="16.485689343322964"><ele>856.0</ele><time>2026-04-11T18:00:16Z</time></trkpt><trkpt lat="38.99732591819066" lon="16.485540594140843"><ele>857.25</ele><time>2026-04-11T18:00:17Z</time></trkpt><trkpt lat="38.99739491979666" lon="16.485345621029847"><ele>858.5</ele><time>2026-04-11T18:00:18Z</time></trkpt><trkpt lat="38.997448645822764" lon="16.48517524664784"><ele>859.75</ele><time>2026-04-11T18:00:19Z</time></trkpt><trkpt lat="38.99751897714243" lon="16.485034043587355"><ele>861.0</ele><time>2026-04-11T18:00:20Z</time></trkpt><trkpt lat="38.99760924683151" lon="16.484919371661565"><ele>861.0</ele><time>2026-04-11T18:00:21Z</time></trkpt><trkpt lat="38.99771192929352" lon="16.484808219647558"><ele>861.0</ele><time>2026-04-11T18:00:22Z</time></trkpt><trkpt lat="38.997806662697414" lon="16.48470269752593"><ele>861.0</ele><time>2026-04-11T18:00:23Z</time></trkpt><trkpt lat="38.997886371912855" lon="16.484575221833055"><ele>861.0</ele><time>2026-04-11T18:00:24Z</time></trkpt><trkpt lat="38.99793640349774" lon="16.48441656321703"><ele>860.0</ele><time>2026-04-11T18:00:25Z</time></trkpt><trkpt lat="38.997958669544964" lon="16.48424457636192"><ele>859.0</ele><time>2026-04-11T18:00:26Z</time></trkpt><trkpt lat="38.99795620751767" lon="16.48406441520579"><ele>858.0</ele><time>2026-04-11T18:00:27Z</time></trkpt><trkpt lat="38.99791346340958" lon="16.483888854578918"><ele>857.0</ele><time>2026-04-11T18:00:28Z</time></trkpt><trkpt lat="38.99785346271623" lon="16.48372333041999"><ele>857.0</ele><time>2026-04-11T18:00:29Z</time></trkpt><trkpt lat="38.99781458857558" lon="16.483551942968866"><ele>857.0</ele><time>2026-04-11T18:00:30Z</time></trkpt><trkpt lat="38.997805800446415" lon="16.48337093766289"><ele>857.0</ele><time>2026-04-11T18:00:31Z</time></trkpt><trkpt lat="38.997833230643415" lon="16.483198220297012"><ele>857.0</ele><time>2026-04-11T18:00:32Z</time></trkpt><trkpt lat="38.99787311393126" lon="16.483016651492054"><ele>857.0</ele><time>2026-04-11T18:00:33Z</time></trkpt><trkpt lat="38.99790111441316" lon="16.482820529667812"><ele>857.0</ele><time>2026-04-11T18:00:34Z</time></trkpt><trkpt lat="38.997910606098706" lon="16.48261885558903"><ele>857.0</ele><time>2026-04-11T18:00:35Z</time></trkpt><trkpt lat="38.99791951134338" lon="16.4824075450293"><ele>857.0</ele><time>2026-04-11T18:00:36Z</time></trkpt><trkpt lat="38.997931690812486" lon="16.482201043130132"><ele>857.0</ele><time>2026-04-11T18:00:37Z</time></trkpt><trkpt lat="38.997957963088155" lon="16.482007408546558"><ele>857.0</ele><time>2026-04-11T18:00:38Z</time></trkpt><trkpt lat="38.99799138437511" lon="16.481812079999223"><ele>856.0</ele><time>2026-04-11T18:00:39Z</time></trkpt><trkpt lat="38.998016610712355" lon="16.481614537942896"><ele>855.0</ele><time>2026-04-11T18:00:40Z</time></trkpt><trkpt lat="38.998022954969215" lon="16.481416653067924"><ele>854.0</ele><time>2026-04-11T18:00:41Z</time></trkpt><trkpt lat="38.99801128669035" lon="16.481213528468473"><ele>852.5</ele><time>2026-04-11T18:00:42Z</time></trkpt><trkpt lat="38.99800494941316" lon="16.481009055305783"><ele>851.0</ele><time>2026-04-11T18:00:43Z</time></trkpt><trkpt lat="38.99801309171318" lon="16.480818357415888"><ele>849.5</ele><time>2026-04-11T18:00:44Z</time></trkpt><trkpt lat="38.998021009266985" lon="16.480641913983913"><ele>848.0</ele><time>2026-04-11T18:00:45Z</time></trkpt><trkpt lat="38.99803382647759" lon="16.480489307767783"><ele>845.5999999999999</ele><time>2026-04-11T18:00:46Z</time></trkpt><trkpt lat="38.99806668690454" lon="16.48034580707469"><ele>843.1999999999999</ele><time>2026-04-11T18:00:47Z</time></trkpt><trkpt lat="38.9981370663257" lon="16.480221172075545"><ele>840.8</ele><time>2026-04-11T18:00:48Z</time></trkpt><trkpt lat="38.99821613248509" lon="16.480129169622817"><ele>838.4</ele><time>2026-04-11T18:00:49Z</time></trkpt><trkpt lat="38.99830655214755" lon="16.4800574720525"><ele>836.0</ele><time>2026-04-11T18:00:50Z</time></trkpt><trkpt lat="38.99839941994829" lon="16.48001958699359"><ele>836.0</ele><time>2026-04-11T18:00:51Z</time></trkpt><trkpt lat="38.99851664594014" lon="16.48002414892102"><ele>836.0</ele><time>2026-04-11T18:00:52Z</time></trkpt><trkpt lat="38.99865210199036" lon="16.480003196315483"><ele>836.0</ele><time>2026-04-11T18:00:53Z</time></trkpt><trkpt lat="38.998798074505736" lon="16.47997998988226"><ele>836.0</ele><time>2026-04-11T18:00:54Z</time></trkpt><trkpt lat="38.99895691726567" lon="16.47995473881535"><ele>836.0</ele><time>2026-04-11T18:00:55Z</time></trkpt><trkpt lat="38.999132152927125" lon="16.479926880179136"><ele>836.0</ele><time>2026-04-11T18:00:56Z</time></trkpt><trkpt lat="38.99930846215331" lon="16.479898850869564"><ele>836.0</ele><time>2026-04-11T18:00:57Z</time></trkpt><trkpt lat="38.99948273100691" lon="16.479851814025277"><ele>837.0</ele><time>2026-04-11T18:00:58Z</time></trkpt><trkpt lat="38.99965737663852" lon="16.479829181188396"><ele>838.0</ele><time>2026-04-11T18:00:59Z</time></trkpt><trkpt lat="38.99981650904184" lon="16.479802202441814"><ele>839.0</ele><time>2026-04-11T18:01:00Z</time></trkpt><trkpt lat="38.99996664973186" lon="16.479783361727915"><ele>839.0</ele><time>2026-04-11T18:01:01Z</time></trkpt><trkpt lat="39.000122105803804" lon="16.479802073030395"><ele>839.0</ele><time>2026-04-11T18:01:02Z</time></trkpt><trkpt lat="39.00028514659883" lon="16.47976734292578"><ele>839.0</ele><time>2026-04-11T18:01:03Z</time></trkpt><trkpt lat="39.000456573571" lon="16.479737784028373"><ele>839.0</ele><time>2026-04-11T18:01:04Z</time></trkpt><trkpt lat="39.00062848639495" lon="16.479699402521007"><ele>839.0</ele><time>2026-04-11T18:01:05Z</time></trkpt><trkpt lat="39.000790922594064" lon="16.479654155202745"><ele>839.0</ele><time>2026-04-11T18:01:06Z</time></trkpt><trkpt lat="39.00095104074688" lon="16.47959890654954"><ele>830.3333333333334</ele><time>2026-04-11T18:01:07Z</time></trkpt><trkpt lat="39.00109878897984" lon="16.479539293623624"><ele>821.6666666666667</ele><time>2026-04-11T18:01:08Z</time></trkpt><trkpt lat="39.0012364495329" lon="16.479465525170482"><ele>813.0</ele><time>2026-04-11T18:01:09Z</time></trkpt><trkpt lat="39.00136972195367" lon="16.479364203739202"><ele>813.0</ele><time>2026-04-11T18:01:10Z</time></trkpt><trkpt lat="39.00149497686255" lon="16.47922748845624"><ele>813.0</ele><time>2026-04-11T18:01:11Z</time></trkpt><trkpt lat="39.00161526322205" lon="16.47906509699531"><ele>813.0</ele><time>2026-04-11T18:01:12Z</time></trkpt><trkpt lat="39.001736168630536" lon="16.47887952101327"><ele>809.3333333333333</ele><time>2026-04-11T18:01:13Z</time></trkpt><trkpt lat="39.00185765703443" lon="16.478691689184934"><ele>805.6666666666666</ele><time>2026-04-11T18:01:14Z</time></trkpt><trkpt lat="39.00197438328419" lon="16.478502199799117"><ele>802.0</ele><time>2026-04-11T18:01:15Z</time></trkpt><trkpt lat="39.00209464674581" lon="16.478304299794583"><ele>802.0</ele><time>2026-04-11T18:01:16Z</time></trkpt><trkpt lat="39.002225216873164" lon="16.478111176817052"><ele>802.0</ele><time>2026-04-11T18:01:17Z</time></trkpt><trkpt lat="39.00235399531333" lon="16.477913473657804"><ele>802.0</ele><time>2026-04-11T18:01:18Z</time></trkpt><trkpt lat="39.002484374319984" lon="16.47771605810098"><ele>804.6666666666666</ele><time>2026-04-11T18:01:19Z</time></trkpt><trkpt lat="39.00261370856582" lon="16.47751234157454"><ele>807.3333333333333</ele><time>2026-04-11T18:01:20Z</time></trkpt><trkpt lat="39.002738733745105" lon="16.477320572194333"><ele>810.0</ele><time>2026-04-11T18:01:21Z</time></trkpt><trkpt lat="39.002856799042725" lon="16.47713938306135"><ele>800.0</ele><time>2026-04-11T18:01:22Z</time></trkpt><trkpt lat="39.00296284669524" lon="16.47695977639724"><ele>790.0</ele><time>2026-04-11T18:01:23Z</time></trkpt><trkpt lat="39.003050957325144" lon="16.47677508688379"><ele>780.0</ele><time>2026-04-11T18:01:24Z</time></trkpt><trkpt lat="39.00311891884436" lon="16.47658547653135"><ele>780.0</ele><time>2026-04-11T18:01:25Z</time></trkpt><trkpt lat="39.00318811011261" lon="16.476407236464294"><ele>780.0</ele><time>2026-04-11T18:01:26Z</time></trkpt><trkpt lat="39.003266619894184" lon="16.47625117783162"><ele>780.0</ele><time>2026-04-11T18:01:27Z</time></trkpt><trkpt lat="39.003367707550964" lon="16.476115092646424"><ele>780.0</ele><time>2026-04-11T18:01:28Z</time></trkpt><trkpt lat="39.00349824927012" lon="16.476002436373285"><ele>785.6666666666667</ele><time>2026-04-11T18:01:29Z</time></trkpt><trkpt lat="39.00365814414092" lon="16.475942142165167"><ele>791.3333333333334</ele><time>2026-04-11T18:01:30Z</time></trkpt><trkpt lat="39.003821937418365" lon="16.475876419238936"><ele>797.0</ele><time>2026-04-11T18:01:31Z</time></trkpt><trkpt lat="39.003977129606064" lon="16.4758201676633"><ele>797.0</ele><time>2026-04-11T18:01:32Z</time></trkpt><trkpt lat="39.00411216520944" lon="16.475727157838527"><ele>797.0</ele><time>2026-04-11T18:01:33Z</time></trkpt><trkpt lat="39.00423403843972" lon="16.47561857326443"><ele>797.0</ele><time>2026-04-11T18:01:34Z</time></trkpt><trkpt lat="39.00434651617737" lon="16.475503344372292"><ele>797.0</ele><time>2026-04-11T18:01:35Z</time></trkpt><trkpt lat="39.00445088316004" lon="16.475378516470705"><ele>796.75</ele><time>2026-04-11T18:01:36Z</time></trkpt><trkpt lat="39.00454310283675" lon="16.475233635715725"><ele>796.5</ele><time>2026-04-11T18:01:37Z</time></trkpt><trkpt lat="39.00462432150612" lon="16.47507166669304"><ele>796.25</ele><time>2026-04-11T18:01:38Z</time></trkpt><trkpt lat="39.00470118410313" lon="16.47490168476497"><ele>796.0</ele><time>2026-04-11T18:01:39Z</time></trkpt><trkpt lat="39.004767639973" lon="16.474718294569154"><ele>788.6666666666666</ele><time>2026-04-11T18:01:40Z</time></trkpt><trkpt lat="39.00483006415568" lon="16.4745267191448"><ele>781.3333333333333</ele><time>2026-04-11T18:01:41Z</time></trkpt><trkpt lat="39.0048975009729" lon="16.474327563754386"><ele>774.0</ele><time>2026-04-11T18:01:42Z</time></trkpt><trkpt lat="39.0049615618828" lon="16.47412617327732"><ele>783.6666666666667</ele><time>2026-04-11T18:01:43Z</time></trkpt><trkpt lat="39.00502397015299" lon="16.47392394670026"><ele>793.3333333333334</ele><time>2026-04-11T18:01:44Z</time></trkpt><trkpt lat="39.00508355413541" lon="16.473722302796055"><ele>803.0</ele><time>2026-04-11T18:01:45Z</time></trkpt><trkpt lat="39.005143866360825" lon="16.47352179561113"><ele>804.3333333333334</ele><time>2026-04-11T18:01:46Z</time></trkpt><trkpt lat="39.00520461183758" lon="16.473326840141365"><ele>805.6666666666667</ele><time>2026-04-11T18:01:47Z</time></trkpt><trkpt lat="39.00526571454579" lon="16.47313862890924"><ele>807.0</ele><time>2026-04-11T18:01:48Z</time></trkpt><trkpt lat="39.00532891573425" lon="16.472949569167994"><ele>804.6666666666667</ele><time>2026-04-11T18:01:49Z</time></trkpt><trkpt lat="39.005387420836534" lon="16.472753131316992"><ele>802.3333333333334</ele><time>2026-04-11T18:01:50Z</time></trkpt><trkpt lat="39.00545237067913" lon="16.472560224948833"><ele>800.0</ele><time>2026-04-11T18:01:51Z</time></trkpt><trkpt lat="39.005517161767926" lon="16.472356893752668"><ele>800.0</ele><time>2026-04-11T18:01:52Z</time></trkpt><trkpt lat="39.00558069294463" lon="16.472143690571574"><ele>800.0</ele><time>2026-04-11T18:01:53Z</time></trkpt><trkpt lat="39.00564894855946" lon="16.471926357699576"><ele>800.0</ele><time>2026-04-11T18:01:54Z</time></trkpt><trkpt lat="39.00571824806657" lon="16.471709450369758"><ele>797.0</ele><time>2026-04-11T18:01:55Z</time></trkpt><trkpt lat="39.005785676437114" lon="16.471486650108304"><ele>794.0</ele><time>2026-04-11T18:01:56Z</time></trkpt><trkpt lat="39.00584770072481" lon="16.471272444739444"><ele>791.0</ele><time>2026-04-11T18:01:57Z</time></trkpt><trkpt lat="39.00591615769324" lon="16.471059216495068"><ele>798.0</ele><time>2026-04-11T18:01:58Z</time></trkpt><trkpt lat="39.0059807819624" lon="16.470846338561714"><ele>805.0</ele><time>2026-04-11T18:01:59Z</time></trkpt><trkpt lat="39.006042771222994" lon="16.470637568442854"><ele>812.0</ele><time>2026-04-11T18:02:00Z</time></trkpt><trkpt lat="39.006097920554886" lon="16.470448811253945"><ele>810.6666666666667</ele><time>2026-04-11T18:02:01Z</time></trkpt><trkpt lat="39.00615861010783" lon="16.470270517550194"><ele>809.3333333333333</ele><time>2026-04-11T18:02:02Z</time></trkpt><trkpt lat="39.006230300651474" lon="16.47008913436269"><ele>808.0</ele><time>2026-04-11T18:02:03Z</time></trkpt><trkpt lat="39.006319411899156" lon="16.46990585074951"><ele>808.0</ele><time>2026-04-11T18:02:04Z</time></trkpt><trkpt lat="39.0064144998307" lon="16.469711090800036"><ele>808.0</ele><time>2026-04-11T18:02:05Z</time></trkpt><trkpt lat="39.006509487696015" lon="16.469509748930122"><ele>808.0</ele><time>2026-04-11T18:02:06Z</time></trkpt><trkpt lat="39.006608575936674" lon="16.469317929414103"><ele>813.3333333333333</ele><time>2026-04-11T18:02:07Z</time></trkpt><trkpt lat="39.00670204322438" lon="16.469127248224986"><ele>818.6666666666667</ele><time>2026-04-11T18:02:08Z</time></trkpt><trkpt lat="39.006784538689914" lon="16.468955514966943"><ele>824.0</ele><time>2026-04-11T18:02:09Z</time></trkpt><trkpt lat="39.006856927844005" lon="16.468797495483795"><ele>827.25</ele><time>2026-04-11T18:02:10Z</time></trkpt><trkpt lat="39.00692832621761" lon="16.46864796203882"><ele>830.5</ele><time>2026-04-11T18:02:11Z</time></trkpt><trkpt lat="39.006994516952034" lon="16.46850823221563"><ele>833.75</ele><time>2026-04-11T18:02:12Z</time></trkpt><trkpt lat="39.00705719119238" lon="16.468367125821"><ele>837.0</ele><time>2026-04-11T18:02:13Z</time></trkpt><trkpt lat="39.0071208059448" lon="16.468267438048354"><ele>837.0</ele><time>2026-04-11T18:02:14Z</time></trkpt><trkpt lat="39.00721873013043" lon="16.468210745670756"><ele>837.0</ele><time>2026-04-11T18:02:15Z</time></trkpt><trkpt lat="39.007325461646154" lon="16.468185959188073"><ele>837.0</ele><time>2026-04-11T18:02:16Z</time></trkpt><trkpt lat="39.00745487211413" lon="16.46814947761992"><ele>837.0</ele><time>2026-04-11T18:02:17Z</time></trkpt><trkpt lat="39.007594086695086" lon="16.468091745087992"><ele>833.3333333333333</ele><time>2026-04-11T18:02:18Z</time></trkpt><trkpt lat="39.007760355459745" lon="16.468050543172836"><ele>829.6666666666666</ele><time>2026-04-11T18:02:19Z</time></trkpt><trkpt lat="39.00792001898659" lon="16.468010231122335"><ele>826.0</ele><time>2026-04-11T18:02:20Z</time></trkpt><trkpt lat="39.00805848589535" lon="16.467971515095"><ele>829.25</ele><time>2026-04-11T18:02:21Z</time></trkpt><trkpt lat="39.008189808094144" lon="16.467928571050013"><ele>832.5</ele><time>2026-04-11T18:02:22Z</time></trkpt><trkpt lat="39.00831045153657" lon="16.467871335266622"><ele>835.75</ele><time>2026-04-11T18:02:23Z</time></trkpt><trkpt lat="39.00843046895833" lon="16.467773540052175"><ele>839.0</ele><time>2026-04-11T18:02:24Z</time></trkpt><trkpt lat="39.00855446290287" lon="16.467651177073837"><ele>839.0</ele><time>2026-04-11T18:02:25Z</time></trkpt><trkpt lat="39.00867288873008" lon="16.467517942284104"><ele>839.0</ele><time>2026-04-11T18:02:26Z</time></trkpt><trkpt lat="39.00877654675727" lon="16.46738857172236"><ele>839.0</ele><time>2026-04-11T18:02:27Z</time></trkpt><trkpt lat="39.00884378880709" lon="16.467258066408863"><ele>839.0</ele><time>2026-04-11T18:02:28Z</time></trkpt><trkpt lat="39.00888824889137" lon="16.467097650857674"><ele>842.5</ele><time>2026-04-11T18:02:29Z</time></trkpt><trkpt lat="39.00892328056997" lon="16.466936197944325"><ele>846.0</ele><time>2026-04-11T18:02:30Z</time></trkpt><trkpt lat="39.008932694085516" lon="16.466765606336992"><ele>849.5</ele><time>2026-04-11T18:02:31Z</time></trkpt><trkpt lat="39.00892150805549" lon="16.466585224250082"><ele>853.0</ele><time>2026-04-11T18:02:32Z</time></trkpt><trkpt lat="39.008895785444544" lon="16.466406812497432"><ele>855.0</ele><time>2026-04-11T18:02:33Z</time></trkpt><trkpt lat="39.00885055234545" lon="16.466244755302004"><ele>857.0</ele><time>2026-04-11T18:02:34Z</time></trkpt><trkpt lat="39.008815205754" lon="16.466098038215822"><ele>859.0</ele><time>2026-04-11T18:02:35Z</time></trkpt><trkpt lat="39.00881010889719" lon="16.46596635805971"><ele>861.0</ele><time>2026-04-11T18:02:36Z</time></trkpt><trkpt lat="39.00883631516795" lon="16.4658243452095"><ele>861.0</ele><time>2026-04-11T18:02:37Z</time></trkpt><trkpt lat="39.008900195989284" lon="16.465667643998042"><ele>861.0</ele><time>2026-04-11T18:02:38Z</time></trkpt><trkpt lat="39.00898650069486" lon="16.46551758005649"><ele>861.0</ele><time>2026-04-11T18:02:39Z</time></trkpt><trkpt lat="39.0090736546108" lon="16.46537058410376"><ele>861.0</ele><time>2026-04-11T18:02:40Z</time></trkpt><trkpt lat="39.00914502007501" lon="16.46519030126024"><ele>859.6666666666667</ele><time>2026-04-11T18:02:41Z</time></trkpt><trkpt lat="39.009211204864336" lon="16.46499290835614"><ele>858.3333333333334</ele><time>2026-04-11T18:02:42Z</time></trkpt><trkpt lat="39.00927649251785" lon="16.464777939414898"><ele>857.0</ele><time>2026-04-11T18:02:43Z</time></trkpt><trkpt lat="39.009344911671676" lon="16.464561862890548"><ele>857.0</ele><time>2026-04-11T18:02:44Z</time></trkpt><trkpt lat="39.00940079703862" lon="16.464347380699415"><ele>857.0</ele><time>2026-04-11T18:02:45Z</time></trkpt><trkpt lat="39.00943635685709" lon="16.464118466110616"><ele>857.0</ele><time>2026-04-11T18:02:46Z</time></trkpt><trkpt lat="39.00945833365115" lon="16.46388050255836"><ele>859.6666666666667</ele><time>2026-04-11T18:02:47Z</time></trkpt><trkpt lat="39.009476728298516" lon="16.46365197845148"><ele>862.3333333333333</ele><time>2026-04-11T18:02:48Z</time></trkpt><trkpt lat="39.009488008863435" lon="16.46343975424899"><ele>865.0</ele><time>2026-04-11T18:02:49Z</time></trkpt><trkpt lat="39.00949239005173" lon="16.463230055292993"><ele>865.0</ele><time>2026-04-11T18:02:50Z</time></trkpt><trkpt lat="39.00948359976686" lon="16.463012350149032"><ele>865.0</ele><time>2026-04-11T18:02:51Z</time></trkpt><trkpt lat="39.00946026339818" lon="16.462785089752433"><ele>865.0</ele><time>2026-04-11T18:02:52Z</time></trkpt><trkpt lat="39.00942966720381" lon="16.462569348535393"><ele>865.75</ele><time>2026-04-11T18:02:53Z</time></trkpt><trkpt lat="39.00938827953956" lon="16.462374666374913"><ele>866.5</ele><time>2026-04-11T18:02:54Z</time></trkpt><trkpt lat="39.009344867282394" lon="16.46221459098107"><ele>867.25</ele><time>2026-04-11T18:02:55Z</time></trkpt><trkpt lat="39.009335935221905" lon="16.462087487655594"><ele>868.0</ele><time>2026-04-11T18:02:56Z</time></trkpt><trkpt lat="39.00935768750686" lon="16.46197746716694"><ele>871.0</ele><time>2026-04-11T18:02:57Z</time></trkpt><trkpt lat="39.00943713334127" lon="16.461900627365843"><ele>874.0</ele><time>2026-04-11T18:02:58Z</time></trkpt><trkpt lat="39.009526503575785" lon="16.46177579486862"><ele>877.0</ele><time>2026-04-11T18:02:59Z</time></trkpt><trkpt lat="39.00965613126827" lon="16.461655893532672"><ele>880.0</ele><time>2026-04-11T18:03:00Z</time></trkpt><trkpt lat="39.00975172297351" lon="16.4615264179823"><ele>880.0</ele><time>2026-04-11T18:03:01Z</time></trkpt><trkpt lat="39.00983631922082" lon="16.461413969579255"><ele>880.0</ele><time>2026-04-11T18:03:02Z</time></trkpt><trkpt lat="39.00990314482173" lon="16.461298390622495"><ele>880.0</ele><time>2026-04-11T18:03:03Z</time></trkpt><trkpt lat="39.009934178077394" lon="16.46113955143073"><ele>880.0</ele><time>2026-04-11T18:03:04Z</time></trkpt><trkpt lat="39.009940558351325" lon="16.460944033127184"><ele>879.75</ele><time>2026-04-11T18:03:05Z</time></trkpt><trkpt lat="39.00993060826102" lon="16.460737839539576"><ele>879.5</ele><time>2026-04-11T18:03:06Z</time></trkpt><trkpt lat="39.00995026891822" lon="16.46058863096575"><ele>879.25</ele><time>2026-04-11T18:03:07Z</time></trkpt><trkpt lat="39.009993222937375" lon="16.460459039697408"><ele>879.0</ele><time>2026-04-11T18:03:08Z</time></trkpt><trkpt lat="39.01007920475554" lon="16.46032040565633"><ele>879.0</ele><time>2026-04-11T18:03:09Z</time></trkpt><trkpt lat="39.01019615709552" lon="16.46019704792892"><ele>879.0</ele><time>2026-04-11T18:03:10Z</time></trkpt><trkpt lat="39.01033900470448" lon="16.46006251283473"><ele>879.0</ele><time>2026-04-11T18:03:11Z</time></trkpt><trkpt lat="39.01048233151296" lon="16.45989469722914"><ele>879.0</ele><time>2026-04-11T18:03:12Z</time></trkpt><trkpt lat="39.01060037940581" lon="16.459712101393716"><ele>879.0</ele><time>2026-04-11T18:03:13Z</time></trkpt><trkpt lat="39.01069630626786" lon="16.459543156167477"><ele>879.0</ele><time>2026-04-11T18:03:14Z</time></trkpt><trkpt lat="39.01073785338055" lon="16.459356734725286"><ele>882.3333333333333</ele><time>2026-04-11T18:03:15Z</time></trkpt><trkpt lat="39.01076120885562" lon="16.459148556401242"><ele>885.6666666666666</ele><time>2026-04-11T18:03:16Z</time></trkpt><trkpt lat="39.01078024850646" lon="16.458922228439434"><ele>889.0</ele><time>2026-04-11T18:03:17Z</time></trkpt><trkpt lat="39.010794235713476" lon="16.45869500549249"><ele>892.0</ele><time>2026-04-11T18:03:18Z</time></trkpt><trkpt lat="39.01080970812968" lon="16.45845402744488"><ele>895.0</ele><time>2026-04-11T18:03:19Z</time></trkpt><trkpt lat="39.01081650751898" lon="16.458214958102147"><ele>898.0</ele><time>2026-04-11T18:03:20Z</time></trkpt><trkpt lat="39.01081590073686" lon="16.457965594562346"><ele>900.3333333333333</ele><time>2026-04-11T18:03:21Z</time></trkpt><trkpt lat="39.01080280746399" lon="16.457727157579665"><ele>902.6666666666667</ele><time>2026-04-11T18:03:22Z</time></trkpt><trkpt lat="39.010777455646206" lon="16.45752469829229"><ele>905.0</ele><time>2026-04-11T18:03:23Z</time></trkpt><trkpt lat="39.01076113095103" lon="16.45736887010466"><ele>905.0</ele><time>2026-04-11T18:03:24Z</time></trkpt><trkpt lat="39.01077000631369" lon="16.4572200368589"><ele>905.0</ele><time>2026-04-11T18:03:25Z</time></trkpt><trkpt lat="39.010824259374495" lon="16.457086630084724"><ele>905.0</ele><time>2026-04-11T18:03:26Z</time></trkpt><trkpt lat="39.01092133796814" lon="16.456981482954095"><ele>905.0</ele><time>2026-04-11T18:03:27Z</time></trkpt><trkpt lat="39.011038554683026" lon="16.456862539519786"><ele>899.0</ele><time>2026-04-11T18:03:28Z</time></trkpt><trkpt lat="39.01114353222508" lon="16.45670502313575"><ele>893.0</ele><time>2026-04-11T18:03:29Z</time></trkpt><trkpt lat="39.01123003862119" lon="16.456509337456946"><ele>887.0</ele><time>2026-04-11T18:03:30Z</time></trkpt><trkpt lat="39.01131301261243" lon="16.456314074313187"><ele>891.5</ele><time>2026-04-11T18:03:31Z</time></trkpt><trkpt lat="39.01138661057602" lon="16.456144286163713"><ele>896.0</ele><time>2026-04-11T18:03:32Z</time></trkpt><trkpt lat="39.01144914436653" lon="16.4559821687228"><ele>900.5</ele><time>2026-04-11T18:03:33Z</time></trkpt><trkpt lat="39.0114907494053" lon="16.45579996865133"><ele>905.0</ele><time>2026-04-11T18:03:34Z</time></trkpt><trkpt lat="39.011521048492135" lon="16.455603519535035"><ele>908.3333333333334</ele><time>2026-04-11T18:03:35Z</time></trkpt><trkpt lat="39.011539313986155" lon="16.45539254130075"><ele>911.6666666666667</ele><time>2026-04-11T18:03:36Z</time></trkpt><trkpt lat="39.01155101821929" lon="16.455164429090043"><ele>915.0</ele><time>2026-04-11T18:03:37Z</time></trkpt><trkpt lat="39.0115457814926" lon="16.45491308840318"><ele>915.0</ele><time>2026-04-11T18:03:38Z</time></trkpt><trkpt lat="39.01157061773607" lon="16.454658632291384"><ele>915.0</ele><time>2026-04-11T18:03:39Z</time></trkpt><trkpt lat="39.01156376810608" lon="16.45438974333436"><ele>915.0</ele><time>2026-04-11T18:03:40Z</time></trkpt><trkpt lat="39.011546356757385" lon="16.454122823847374"><ele>918.3333333333333</ele><time>2026-04-11T18:03:41Z</time></trkpt><trkpt lat="39.011530775702674" lon="16.453869047921927"><ele>921.6666666666666</ele><time>2026-04-11T18:03:42Z</time></trkpt><trkpt lat="39.0115136721696" lon="16.453632819836507"><ele>925.0</ele><time>2026-04-11T18:03:43Z</time></trkpt><trkpt lat="39.01150044540922" lon="16.45344761939104"><ele>926.25</ele><time>2026-04-11T18:03:44Z</time></trkpt><trkpt lat="39.011485004674505" lon="16.453260940388486"><ele>927.5</ele><time>2026-04-11T18:03:45Z</time></trkpt><trkpt lat="39.01148854914608" lon="16.45310730488845"><ele>928.75</ele><time>2026-04-11T18:03:46Z</time></trkpt><trkpt lat="39.01153548970023" lon="16.45295224495042"><ele>930.0</ele><time>2026-04-11T18:03:47Z</time></trkpt><trkpt lat="39.011612049624226" lon="16.452796804286788"><ele>921.6666666666667</ele><time>2026-04-11T18:03:48Z</time></trkpt><trkpt lat="39.01171255022233" lon="16.452614337347196"><ele>913.3333333333334</ele><time>2026-04-11T18:03:49Z</time></trkpt><trkpt lat="39.01177225826435" lon="16.452409410093246"><ele>905.0</ele><time>2026-04-11T18:03:50Z</time></trkpt><trkpt lat="39.01181009116715" lon="16.452237487344167"><ele>908.75</ele><time>2026-04-11T18:03:51Z</time></trkpt><trkpt lat="39.011862530542665" lon="16.452089999280975"><ele>912.5</ele><time>2026-04-11T18:03:52Z</time></trkpt><trkpt lat="39.0119425580527" lon="16.451961524951948"><ele>916.25</ele><time>2026-04-11T18:03:53Z</time></trkpt><trkpt lat="39.01204134096175" lon="16.451842540401262"><ele>920.0</ele><time>2026-04-11T18:03:54Z</time></trkpt><trkpt lat="39.012153186770156" lon="16.45175536266898"><ele>920.0</ele><time>2026-04-11T18:03:55Z</time></trkpt><trkpt lat="39.012280755241775" lon="16.451712997115738"><ele>920.0</ele><time>2026-04-11T18:03:56Z</time></trkpt><trkpt lat="39.01241439743198" lon="16.451703511939947"><ele>920.0</ele><time>2026-04-11T18:03:57Z</time></trkpt><trkpt lat="39.01255628982047" lon="16.451677516703224"><ele>920.0</ele><time>2026-04-11T18:03:58Z</time></trkpt><trkpt lat="39.01269678939055" lon="16.451605678305025"><ele>920.0</ele><time>2026-04-11T18:03:59Z</time></trkpt><trkpt lat="39.01283185631232" lon="16.451508309145574"><ele>920.0</ele><time>2026-04-11T18:04:00Z</time></trkpt><trkpt lat="39.01295862100639" lon="16.451387554465924"><ele>920.0</ele><time>2026-04-11T18:04:01Z</time></trkpt><trkpt lat="39.013067504942484" lon="16.45124107869324"><ele>920.0</ele><time>2026-04-11T18:04:02Z</time></trkpt><trkpt lat="39.01315647647084" lon="16.451078442720615"><ele>920.0</ele><time>2026-04-11T18:04:03Z</time></trkpt><trkpt lat="39.013227267569114" lon="16.450924208532797"><ele>920.0</ele><time>2026-04-11T18:04:04Z</time></trkpt><trkpt lat="39.01328176086501" lon="16.45078537163864"><ele>920.0</ele><time>2026-04-11T18:04:05Z</time></trkpt><trkpt lat="39.013301977498536" lon="16.450628029456293"><ele>923.5</ele><time>2026-04-11T18:04:06Z</time></trkpt><trkpt lat="39.01330531727484" lon="16.450454481782025"><ele>927.0</ele><time>2026-04-11T18:04:07Z</time></trkpt><trkpt lat="39.01330916096307" lon="16.45030613911286"><ele>930.5</ele><time>2026-04-11T18:04:08Z</time></trkpt><trkpt lat="39.013345658622676" lon="16.450143705987198"><ele>934.0</ele><time>2026-04-11T18:04:09Z</time></trkpt><trkpt lat="39.01340491060346" lon="16.449963024992467"><ele>928.3333333333333</ele><time>2026-04-11T18:04:10Z</time></trkpt><trkpt lat="39.01347081970282" lon="16.449771268775713"><ele>922.6666666666667</ele><time>2026-04-11T18:04:11Z</time></trkpt><trkpt lat="39.01354841954442" lon="16.44956624747231"><ele>917.0</ele><time>2026-04-11T18:04:12Z</time></trkpt><trkpt lat="39.013633034550736" lon="16.449361454273376"><ele>917.0</ele><time>2026-04-11T18:04:13Z</time></trkpt><trkpt lat="39.013726145516145" lon="16.449191088133578"><ele>917.0</ele><time>2026-04-11T18:04:14Z</time></trkpt><trkpt lat="39.01381323598796" lon="16.449031438089072"><ele>917.0</ele><time>2026-04-11T18:04:15Z</time></trkpt><trkpt lat="39.013889080589635" lon="16.448858393930948"><ele>919.6666666666667</ele><time>2026-04-11T18:04:16Z</time></trkpt><trkpt lat="39.0139490790915" lon="16.448665534903103"><ele>922.3333333333333</ele><time>2026-04-11T18:04:17Z</time></trkpt><trkpt lat="39.0139983040845" lon="16.44845534708896"><ele>925.0</ele><time>2026-04-11T18:04:18Z</time></trkpt><trkpt lat="39.014046161437776" lon="16.448226782296288"><ele>925.0</ele><time>2026-04-11T18:04:19Z</time></trkpt><trkpt lat="39.01409806041279" lon="16.44799357297502"><ele>925.0</ele><time>2026-04-11T18:04:20Z</time></trkpt><trkpt lat="39.01415290643575" lon="16.447766935546774"><ele>925.0</ele><time>2026-04-11T18:04:21Z</time></trkpt><trkpt lat="39.014198102182334" lon="16.4475574478212"><ele>922.6</ele><time>2026-04-11T18:04:22Z</time></trkpt><trkpt lat="39.014239995619505" lon="16.447382520267357"><ele>920.2</ele><time>2026-04-11T18:04:23Z</time></trkpt><trkpt lat="39.01429212351329" lon="16.447253194857694"><ele>917.8</ele><time>2026-04-11T18:04:24Z</time></trkpt><trkpt lat="39.01434680345219" lon="16.447167535830307"><ele>915.4</ele><time>2026-04-11T18:04:25Z</time></trkpt><trkpt lat="39.01443428587449" lon="16.447120052875473"><ele>913.0</ele><time>2026-04-11T18:04:26Z</time></trkpt><trkpt lat="39.01454456036284" lon="16.44709881130843"><ele>913.0</ele><time>2026-04-11T18:04:27Z</time></trkpt><trkpt lat="39.014663681220235" lon="16.447062304783586"><ele>913.0</ele><time>2026-04-11T18:04:28Z</time></trkpt><trkpt lat="39.01475997478485" lon="16.446991317969278"><ele>913.0</ele><time>2026-04-11T18:04:29Z</time></trkpt><trkpt lat="39.014859075207646" lon="16.44688346225733"><ele>913.0</ele><time>2026-04-11T18:04:30Z</time></trkpt><trkpt lat="39.01495385113997" lon="16.446751353794163"><ele>911.25</ele><time>2026-04-11T18:04:31Z</time></trkpt><trkpt lat="39.01504236682656" lon="16.446628168925066"><ele>909.5</ele><time>2026-04-11T18:04:32Z</time></trkpt><trkpt lat="39.01510629806851" lon="16.446500370681733"><ele>907.75</ele><time>2026-04-11T18:04:33Z</time></trkpt><trkpt lat="39.01515110614717" lon="16.446361524637048"><ele>906.0</ele><time>2026-04-11T18:04:34Z</time></trkpt><trkpt lat="39.01521486983003" lon="16.44623951663489"><ele>906.0</ele><time>2026-04-11T18:04:35Z</time></trkpt><trkpt lat="39.01530087148826" lon="16.446125681287064"><ele>906.0</ele><time>2026-04-11T18:04:36Z</time></trkpt><trkpt lat="39.01542693643725" lon="16.446034013659403"><ele>906.0</ele><time>2026-04-11T18:04:37Z</time></trkpt><trkpt lat="39.01557827367744" lon="16.44595857560725"><ele>906.0</ele><time>2026-04-11T18:04:38Z</time></trkpt><trkpt lat="39.01572717742774" lon="16.44588103401228"><ele>898.3333333333333</ele><time>2026-04-11T18:04:39Z</time></trkpt><trkpt lat="39.01586029930495" lon="16.44577051339747"><ele>890.6666666666666</ele><time>2026-04-11T18:04:40Z</time></trkpt><trkpt lat="39.015977494355816" lon="16.445635780727756"><ele>883.0</ele><time>2026-04-11T18:04:41Z</time></trkpt><trkpt lat="39.01608014310004" lon="16.445481250098847"><ele>887.6666666666666</ele><time>2026-04-11T18:04:42Z</time></trkpt><trkpt lat="39.016167729104524" lon="16.44530165979536"><ele>892.3333333333333</ele><time>2026-04-11T18:04:43Z</time></trkpt><trkpt lat="39.01624161139438" lon="16.4451031707984"><ele>897.0</ele><time>2026-04-11T18:04:44Z</time></trkpt><trkpt lat="39.01630308122951" lon="16.444900500982563"><ele>897.0</ele><time>2026-04-11T18:04:45Z</time></trkpt><trkpt lat="39.016351445677856" lon="16.444715895451"><ele>897.0</ele><time>2026-04-11T18:04:46Z</time></trkpt><trkpt lat="39.016407747161644" lon="16.444546151591613"><ele>897.0</ele><time>2026-04-11T18:04:47Z</time></trkpt><trkpt lat="39.01650954334645" lon="16.44441224967215"><ele>897.0</ele><time>2026-04-11T18:04:48Z</time></trkpt><trkpt lat="39.01661523252572" lon="16.444282740072452"><ele>888.0</ele><time>2026-04-11T18:04:49Z</time></trkpt><trkpt lat="39.0166952956715" lon="16.44413677124328"><ele>879.0</ele><time>2026-04-11T18:04:50Z</time></trkpt><trkpt lat="39.01675859599699" lon="16.443957592439062"><ele>870.0</ele><time>2026-04-11T18:04:51Z</time></trkpt><trkpt lat="39.01679115664157" lon="16.4437539113801"><ele>869.25</ele><time>2026-04-11T18:04:52Z</time></trkpt><trkpt lat="39.016811301943335" lon="16.44356909435506"><ele>868.5</ele><time>2026-04-11T18:04:53Z</time></trkpt><trkpt lat="39.01680554113575" lon="16.443398976463893"><ele>867.75</ele><time>2026-04-11T18:04:54Z</time></trkpt><trkpt lat="39.01677174599093" lon="16.443227819323965"><ele>867.0</ele><time>2026-04-11T18:04:55Z</time></trkpt><trkpt lat="39.01671468226371" lon="16.443053128474478"><ele>865.5</ele><time>2026-04-11T18:04:56Z</time></trkpt><trkpt lat="39.01663779234791" lon="16.442884029475064"><ele>864.0</ele><time>2026-04-11T18:04:57Z</time></trkpt><trkpt lat="39.01654118429103" lon="16.442774268790288"><ele>862.5</ele><time>2026-04-11T18:04:58Z</time></trkpt><trkpt lat="39.01642197664885" lon="16.4426921982481"><ele>861.0</ele><time>2026-04-11T18:04:59Z</time></trkpt><trkpt lat="39.01627030687326" lon="16.44263540691311"><ele>861.0</ele><time>2026-04-11T18:05:00Z</time></trkpt><trkpt lat="39.01610453842821" lon="16.44258689184282"><ele>861.0</ele><time>2026-04-11T18:05:01Z</time></trkpt><trkpt lat="39.01595491675419" lon="16.44251274687519"><ele>861.0</ele><time>2026-04-11T18:05:02Z</time></trkpt><trkpt lat="39.01585393845976" lon="16.442491497357253"><ele>861.0</ele><time>2026-04-11T18:05:03Z</time></trkpt><trkpt lat="39.01578720829815" lon="16.442447109578865"><ele>861.0</ele><time>2026-04-11T18:05:04Z</time></trkpt><trkpt lat="39.015660320586974" lon="16.442248679344495"><ele>861.0</ele><time>2026-04-11T18:05:07Z</time></trkpt><trkpt lat="39.01572561148694" lon="16.44218577040929"><ele>861.0</ele><time>2026-04-11T18:05:08Z</time></trkpt><trkpt lat="39.01582192809862" lon="16.442194480375083"><ele>861.0</ele><time>2026-04-11T18:05:09Z</time></trkpt><trkpt lat="39.01592446209011" lon="16.44223728995169"><ele>861.0</ele><time>2026-04-11T18:05:10Z</time></trkpt><trkpt lat="39.01605225977049" lon="16.442260151546655"><ele>861.0</ele><time>2026-04-11T18:05:11Z</time></trkpt><trkpt lat="39.016196299149655" lon="16.442280845132306"><ele>861.0</ele><time>2026-04-11T18:05:12Z</time></trkpt><trkpt lat="39.01635285280274" lon="16.44224662999499"><ele>861.0</ele><time>2026-04-11T18:05:13Z</time></trkpt><trkpt lat="39.01649982600519" lon="16.442179508849637"><ele>855.75</ele><time>2026-04-11T18:05:14Z</time></trkpt><trkpt lat="39.01661794589785" lon="16.442079033378832"><ele>850.5</ele><time>2026-04-11T18:05:15Z</time></trkpt><trkpt lat="39.0167329545738" lon="16.441975912890122"><ele>845.25</ele><time>2026-04-11T18:05:16Z</time></trkpt><trkpt lat="39.01684362463561" lon="16.4419037668666"><ele>840.0</ele><time>2026-04-11T18:05:17Z</time></trkpt><trkpt lat="39.01695910404807" lon="16.4419012863464"><ele>840.0</ele><time>2026-04-11T18:05:18Z</time></trkpt><trkpt lat="39.017058422533076" lon="16.441943103706553"><ele>840.0</ele><time>2026-04-11T18:05:19Z</time></trkpt><trkpt lat="39.017167795347724" lon="16.442008452659746"><ele>840.0</ele><time>2026-04-11T18:05:20Z</time></trkpt><trkpt lat="39.01724812075226" lon="16.442127577596626"><ele>840.0</ele><time>2026-04-11T18:05:21Z</time></trkpt><trkpt lat="39.01728410763416" lon="16.442284214183424"><ele>841.25</ele><time>2026-04-11T18:05:22Z</time></trkpt><trkpt lat="39.01735066177853" lon="16.44243614191905"><ele>842.5</ele><time>2026-04-11T18:05:23Z</time></trkpt><trkpt lat="39.017440286488046" lon="16.44257152574557"><ele>843.75</ele><time>2026-04-11T18:05:24Z</time></trkpt><trkpt lat="39.017578030670485" lon="16.442665161169046"><ele>845.0</ele><time>2026-04-11T18:05:25Z</time></trkpt><trkpt lat="39.01771807721855" lon="16.44275746217732"><ele>845.0</ele><time>2026-04-11T18:05:26Z</time></trkpt><trkpt lat="39.01782510840362" lon="16.442856354964828"><ele>845.0</ele><time>2026-04-11T18:05:27Z</time></trkpt><trkpt lat="39.017915837970236" lon="16.442960413336532"><ele>845.0</ele><time>2026-04-11T18:05:28Z</time></trkpt><trkpt lat="39.01799430850187" lon="16.443107527983038"><ele>845.0</ele><time>2026-04-11T18:05:29Z</time></trkpt><trkpt lat="39.01807192576278" lon="16.443267494812282"><ele>845.0</ele><time>2026-04-11T18:05:30Z</time></trkpt><trkpt lat="39.01813145672968" lon="16.443414875012643"><ele>845.0</ele><time>2026-04-11T18:05:31Z</time></trkpt><trkpt lat="39.018167138322724" lon="16.443548292426648"><ele>845.0</ele><time>2026-04-11T18:05:32Z</time></trkpt><trkpt lat="39.01814863028512" lon="16.44368045588344"><ele>845.0</ele><time>2026-04-11T18:05:33Z</time></trkpt><trkpt lat="39.01811453265915" lon="16.44382404664669"><ele>845.0</ele><time>2026-04-11T18:05:34Z</time></trkpt><trkpt lat="39.01807416230913" lon="16.444010132955974"><ele>845.0</ele><time>2026-04-11T18:05:35Z</time></trkpt><trkpt lat="39.01805888171621" lon="16.444180766390286"><ele>845.0</ele><time>2026-04-11T18:05:36Z</time></trkpt><trkpt lat="39.01805522553767" lon="16.444325052259927"><ele>845.0</ele><time>2026-04-11T18:05:37Z</time></trkpt><trkpt lat="39.01805256303713" lon="16.4444428138848"><ele>845.0</ele><time>2026-04-11T18:05:38Z</time></trkpt><trkpt lat="39.01808879091344" lon="16.444537677127176"><ele>845.0</ele><time>2026-04-11T18:05:39Z</time></trkpt><trkpt lat="39.01813290034223" lon="16.444600881589963"><ele>845.0</ele><time>2026-04-11T18:05:40Z</time></trkpt><trkpt lat="39.018252914533655" lon="16.44453857258309"><ele>845.0</ele><time>2026-04-11T18:05:41Z</time></trkpt><trkpt lat="39.01831170308824" lon="16.444460804962304"><ele>845.0</ele><time>2026-04-11T18:05:42Z</time></trkpt><trkpt lat="39.0183383896502" lon="16.444308584826487"><ele>838.3333333333334</ele><time>2026-04-11T18:05:43Z</time></trkpt><trkpt lat="39.01837063844209" lon="16.444138487193207"><ele>831.6666666666667</ele><time>2026-04-11T18:05:44Z</time></trkpt><trkpt lat="39.01844101954858" lon="16.44396095957419"><ele>825.0</ele><time>2026-04-11T18:05:45Z</time></trkpt><trkpt lat="39.01853680256314" lon="16.443768178978658"><ele>825.0</ele><time>2026-04-11T18:05:46Z</time></trkpt><trkpt lat="39.0186515047417" lon="16.44356602049073"><ele>825.0</ele><time>2026-04-11T18:05:47Z</time></trkpt><trkpt lat="39.01875427542422" lon="16.44337051338874"><ele>825.0</ele><time>2026-04-11T18:05:48Z</time></trkpt><trkpt lat="39.018843725504546" lon="16.443202437166175"><ele>825.0</ele><time>2026-04-11T18:05:49Z</time></trkpt><trkpt lat="39.018914909423366" lon="16.443080442301742"><ele>825.0</ele><time>2026-04-11T18:05:50Z</time></trkpt><trkpt lat="39.01898418442663" lon="16.442998237087554"><ele>825.0</ele><time>2026-04-11T18:05:51Z</time></trkpt><trkpt lat="39.01906885299355" lon="16.442944583127353"><ele>825.0</ele><time>2026-04-11T18:05:52Z</time></trkpt><trkpt lat="39.01919128763365" lon="16.442922922118935"><ele>825.0</ele><time>2026-04-11T18:05:53Z</time></trkpt><trkpt lat="39.019337110660786" lon="16.442973325678935"><ele>820.6666666666667</ele><time>2026-04-11T18:05:54Z</time></trkpt><trkpt lat="39.01950494602" lon="16.443008725213502"><ele>816.3333333333334</ele><time>2026-04-11T18:05:55Z</time></trkpt><trkpt lat="39.019662322298885" lon="16.44301136483422"><ele>812.0</ele><time>2026-04-11T18:05:56Z</time></trkpt><trkpt lat="39.01980436361254" lon="16.443000180630055"><ele>811.0</ele><time>2026-04-11T18:05:57Z</time></trkpt><trkpt lat="39.019955456237355" lon="16.442936499743293"><ele>810.0</ele><time>2026-04-11T18:05:58Z</time></trkpt><trkpt lat="39.020113165636374" lon="16.442847093091746"><ele>809.0</ele><time>2026-04-11T18:05:59Z</time></trkpt><trkpt lat="39.020245925127554" lon="16.44272119818867"><ele>806.6666666666667</ele><time>2026-04-11T18:06:00Z</time></trkpt><trkpt lat="39.02038109779774" lon="16.442576963568733"><ele>804.3333333333333</ele><time>2026-04-11T18:06:01Z</time></trkpt><trkpt lat="39.020484103128524" lon="16.442454582814577"><ele>802.0</ele><time>2026-04-11T18:06:02Z</time></trkpt><trkpt lat="39.02055225306567" lon="16.442273764689276"><ele>800.3333333333333</ele><time>2026-04-11T18:06:03Z</time></trkpt><trkpt lat="39.02061771196235" lon="16.44209655596239"><ele>798.6666666666667</ele><time>2026-04-11T18:06:04Z</time></trkpt><trkpt lat="39.020697685050095" lon="16.441940504882517"><ele>797.0</ele><time>2026-04-11T18:06:05Z</time></trkpt><trkpt lat="39.020800806287475" lon="16.441788701603116"><ele>794.6666666666667</ele><time>2026-04-11T18:06:06Z</time></trkpt><trkpt lat="39.020953556316016" lon="16.441655214392433"><ele>792.3333333333333</ele><time>2026-04-11T18:06:07Z</time></trkpt><trkpt lat="39.021108548709584" lon="16.441518808350917"><ele>790.0</ele><time>2026-04-11T18:06:08Z</time></trkpt><trkpt lat="39.02126463199459" lon="16.44137968097108"><ele>789.3333333333333</ele><time>2026-04-11T18:06:09Z</time></trkpt><trkpt lat="39.02141856887208" lon="16.44123690637672"><ele>788.6666666666667</ele><time>2026-04-11T18:06:10Z</time></trkpt><trkpt lat="39.0215468125808" lon="16.44109275688486"><ele>788.0</ele><time>2026-04-11T18:06:11Z</time></trkpt><trkpt lat="39.02168014293951" lon="16.44096558511618"><ele>787.6666666666667</ele><time>2026-04-11T18:06:12Z</time></trkpt><trkpt lat="39.02181136898586" lon="16.440830913510457"><ele>787.3333333333333</ele><time>2026-04-11T18:06:13Z</time></trkpt><trkpt lat="39.02193943624271" lon="16.440680497322468"><ele>787.0</ele><time>2026-04-11T18:06:14Z</time></trkpt><trkpt lat="39.02206472298222" lon="16.44051564184259"><ele>784.3333333333333</ele><time>2026-04-11T18:06:15Z</time></trkpt><trkpt lat="39.02218717099793" lon="16.440339119968723"><ele>781.6666666666667</ele><time>2026-04-11T18:06:16Z</time></trkpt><trkpt lat="39.02230917583163" lon="16.44015466117766"><ele>779.0</ele><time>2026-04-11T18:06:17Z</time></trkpt><trkpt lat="39.02243516694793" lon="16.439971274175566"><ele>777.0</ele><time>2026-04-11T18:06:18Z</time></trkpt><trkpt lat="39.022563931642765" lon="16.4398069177045"><ele>775.0</ele><time>2026-04-11T18:06:19Z</time></trkpt><trkpt lat="39.02269254714289" lon="16.43964662703335"><ele>773.0</ele><time>2026-04-11T18:06:20Z</time></trkpt><trkpt lat="39.0228338625268" lon="16.439517109985413"><ele>774.0</ele><time>2026-04-11T18:06:21Z</time></trkpt><trkpt lat="39.022997640690804" lon="16.43945709423685"><ele>775.0</ele><time>2026-04-11T18:06:22Z</time></trkpt><trkpt lat="39.023159461215236" lon="16.439396460005863"><ele>776.0</ele><time>2026-04-11T18:06:23Z</time></trkpt><trkpt lat="39.02333231847941" lon="16.439353030122778"><ele>776.0</ele><time>2026-04-11T18:06:24Z</time></trkpt><trkpt lat="39.02350091562694" lon="16.439288784799437"><ele>776.0</ele><time>2026-04-11T18:06:25Z</time></trkpt><trkpt lat="39.02367561422035" lon="16.43924736285992"><ele>776.0</ele><time>2026-04-11T18:06:26Z</time></trkpt><trkpt lat="39.02385096053405" lon="16.439211475444406"><ele>776.0</ele><time>2026-04-11T18:06:27Z</time></trkpt><trkpt lat="39.02402301973517" lon="16.439170058609324"><ele>776.0</ele><time>2026-04-11T18:06:28Z</time></trkpt><trkpt lat="39.024181507016095" lon="16.43911274447153"><ele>776.0</ele><time>2026-04-11T18:06:29Z</time></trkpt><trkpt lat="39.024326608114585" lon="16.439027962911727"><ele>775.75</ele><time>2026-04-11T18:06:30Z</time></trkpt><trkpt lat="39.02446467367178" lon="16.438978554666484"><ele>775.5</ele><time>2026-04-11T18:06:31Z</time></trkpt><trkpt lat="39.02458040096612" lon="16.438963691077838"><ele>775.25</ele><time>2026-04-11T18:06:32Z</time></trkpt><trkpt lat="39.02468697650141" lon="16.438992110125138"><ele>775.0</ele><time>2026-04-11T18:06:33Z</time></trkpt><trkpt lat="39.024767818792334" lon="16.439075688094103"><ele>775.0</ele><time>2026-04-11T18:06:34Z</time></trkpt><trkpt lat="39.02487961817386" lon="16.43915254786464"><ele>775.0</ele><time>2026-04-11T18:06:35Z</time></trkpt><trkpt lat="39.0250080200062" lon="16.43924082151721"><ele>775.0</ele><time>2026-04-11T18:06:36Z</time></trkpt><trkpt lat="39.02515119000521" lon="16.439313129782438"><ele>775.0</ele><time>2026-04-11T18:06:37Z</time></trkpt><trkpt lat="39.02528375186868" lon="16.43940272954921"><ele>775.25</ele><time>2026-04-11T18:06:38Z</time></trkpt><trkpt lat="39.025421323160735" lon="16.43943514591187"><ele>775.5</ele><time>2026-04-11T18:06:39Z</time></trkpt><trkpt lat="39.0255448598169" lon="16.439438268262922"><ele>775.75</ele><time>2026-04-11T18:06:40Z</time></trkpt><trkpt lat="39.02568384213767" lon="16.439415589668958"><ele>776.0</ele><time>2026-04-11T18:06:41Z</time></trkpt><trkpt lat="39.02580858525823" lon="16.439415839612472"><ele>776.75</ele><time>2026-04-11T18:06:42Z</time></trkpt><trkpt lat="39.02592078506888" lon="16.43942413006115"><ele>777.5</ele><time>2026-04-11T18:06:43Z</time></trkpt><trkpt lat="39.02602875672728" lon="16.4394609849624"><ele>778.25</ele><time>2026-04-11T18:06:44Z</time></trkpt><trkpt lat="39.026130982077895" lon="16.439528942874436"><ele>779.0</ele><time>2026-04-11T18:06:45Z</time></trkpt><trkpt lat="39.02623340884937" lon="16.43960669978758"><ele>776.0</ele><time>2026-04-11T18:06:46Z</time></trkpt><trkpt lat="39.02633563572509" lon="16.439673596624363"><ele>773.0</ele><time>2026-04-11T18:06:47Z</time></trkpt><trkpt lat="39.02643675329735" lon="16.43973253603578"><ele>770.0</ele><time>2026-04-11T18:06:48Z</time></trkpt><trkpt lat="39.02654106932434" lon="16.439784686098356"><ele>767.0</ele><time>2026-04-11T18:06:49Z</time></trkpt><trkpt lat="39.02663891583088" lon="16.439828938952427"><ele>764.0</ele><time>2026-04-11T18:06:50Z</time></trkpt><trkpt lat="39.026724391760766" lon="16.439863838634956"><ele>764.0</ele><time>2026-04-11T18:06:51Z</time></trkpt><trkpt lat="39.02682732928148" lon="16.43988411408996"><ele>764.0</ele><time>2026-04-11T18:06:53Z</time></trkpt><trkpt lat="39.026897740070574" lon="16.43992747942179"><ele>764.0</ele><time>2026-04-11T18:06:57Z</time></trkpt><trkpt lat="39.0269728195384" lon="16.43994821979558"><ele>764.0</ele><time>2026-04-11T18:07:01Z</time></trkpt><trkpt lat="39.02706340058844" lon="16.439956206266917"><ele>764.0</ele><time>2026-04-11T18:07:03Z</time></trkpt><trkpt lat="39.02722005077797" lon="16.43992892325912"><ele>764.0</ele><time>2026-04-11T18:07:05Z</time></trkpt><trkpt lat="39.02732157332475" lon="16.4398749718518"><ele>764.0</ele><time>2026-04-11T18:07:06Z</time></trkpt><trkpt lat="39.02741419214981" lon="16.43978657890107"><ele>764.0</ele><time>2026-04-11T18:07:07Z</time></trkpt><trkpt lat="39.027475287690045" lon="16.439651534283605"><ele>764.0</ele><time>2026-04-11T18:07:08Z</time></trkpt><trkpt lat="39.02752576987281" lon="16.439500446515748"><ele>764.5</ele><time>2026-04-11T18:07:09Z</time></trkpt><trkpt lat="39.02754493687789" lon="16.439341830631886"><ele>765.0</ele><time>2026-04-11T18:07:10Z</time></trkpt><trkpt lat="39.02753465234896" lon="16.439175724835238"><ele>765.5</ele><time>2026-04-11T18:07:11Z</time></trkpt><trkpt lat="39.0275281586537" lon="16.439010937931986"><ele>766.0</ele><time>2026-04-11T18:07:12Z</time></trkpt><trkpt lat="39.02754001709913" lon="16.438832110785125"><ele>766.0</ele><time>2026-04-11T18:07:13Z</time></trkpt><trkpt lat="39.02756684394748" lon="16.438681702113403"><ele>766.0</ele><time>2026-04-11T18:07:14Z</time></trkpt><trkpt lat="39.02759534528612" lon="16.438537543789934"><ele>766.0</ele><time>2026-04-11T18:07:15Z</time></trkpt><trkpt lat="39.02759743643056" lon="16.43839650448225"><ele>766.0</ele><time>2026-04-11T18:07:16Z</time></trkpt><trkpt lat="39.02758783611238" lon="16.43823796128036"><ele>766.0</ele><time>2026-04-11T18:07:17Z</time></trkpt><trkpt lat="39.02756581657342" lon="16.438088490751866"><ele>766.0</ele><time>2026-04-11T18:07:18Z</time></trkpt><trkpt lat="39.02755924519795" lon="16.43797064179608"><ele>766.0</ele><time>2026-04-11T18:07:19Z</time></trkpt><trkpt lat="39.027570221220344" lon="16.437854044018557"><ele>766.0</ele><time>2026-04-11T18:07:20Z</time></trkpt><trkpt lat="39.027617832724765" lon="16.437770886244078"><ele>766.0</ele><time>2026-04-11T18:07:21Z</time></trkpt><trkpt lat="39.0276859046363" lon="16.437734190514995"><ele>766.75</ele><time>2026-04-11T18:07:22Z</time></trkpt><trkpt lat="39.027795380826255" lon="16.43774624647956"><ele>767.5</ele><time>2026-04-11T18:07:23Z</time></trkpt><trkpt lat="39.027919331117914" lon="16.4377313561166"><ele>768.25</ele><time>2026-04-11T18:07:24Z</time></trkpt><trkpt lat="39.02804806805016" lon="16.43768398958915"><ele>769.0</ele><time>2026-04-11T18:07:25Z</time></trkpt><trkpt lat="39.02812695373636" lon="16.437607747353756"><ele>768.9999999999999</ele><time>2026-04-11T18:07:26Z</time></trkpt><trkpt lat="39.028229355663" lon="16.43759377078046"><ele>769.0</ele><time>2026-04-11T18:07:27Z</time></trkpt><trkpt lat="39.02830120990151" lon="16.43755809773826"><ele>769.0</ele><time>2026-04-11T18:07:28Z</time></trkpt><trkpt lat="39.0283215066013" lon="16.437460812553212"><ele>769.0</ele><time>2026-04-11T18:07:29Z</time></trkpt><trkpt lat="39.0283594669457" lon="16.437384613598795"><ele>768.9999999999999</ele><time>2026-04-11T18:07:31Z</time></trkpt><trkpt lat="39.02840743742935" lon="16.43727605705727"><ele>769.0</ele><time>2026-04-11T18:07:36Z</time></trkpt><trkpt lat="39.02847544526384" lon="16.43711095833759"><ele>766.9999999999999</ele><time>2026-04-11T18:07:38Z</time></trkpt><trkpt lat="39.028511571983096" lon="16.43701434607106"><ele>765.0</ele><time>2026-04-11T18:07:39Z</time></trkpt><trkpt lat="39.02853174817082" lon="16.436900734569885"><ele>763.0</ele><time>2026-04-11T18:07:40Z</time></trkpt><trkpt lat="39.02854743839697" lon="16.43679709976101"><ele>761.0</ele><time>2026-04-11T18:07:41Z</time></trkpt><trkpt lat="39.0285434003517" lon="16.43669498696766"><ele>759.0</ele><time>2026-04-11T18:07:42Z</time></trkpt><trkpt lat="39.02852667942218" lon="16.43658144487284"><ele>757.0</ele><time>2026-04-11T18:07:43Z</time></trkpt><trkpt lat="39.028507603794566" lon="16.436484901855412"><ele>757.0</ele><time>2026-04-11T18:07:44Z</time></trkpt><trkpt lat="39.02848951907914" lon="16.43638858473757"><ele>757.0</ele><time>2026-04-11T18:07:45Z</time></trkpt><trkpt lat="39.02845407618429" lon="16.43626822538907"><ele>757.0</ele><time>2026-04-11T18:07:46Z</time></trkpt><trkpt lat="39.02841946917784" lon="16.436175669749336"><ele>757.0</ele><time>2026-04-11T18:07:47Z</time></trkpt><trkpt lat="39.0283983255659" lon="16.43608806668581"><ele>757.0</ele><time>2026-04-11T18:07:48Z</time></trkpt><trkpt lat="39.02836417642775" lon="16.43599733998558"><ele>757.0</ele><time>2026-04-11T18:07:49Z</time></trkpt><trkpt lat="39.02833388821881" lon="16.435909819299443"><ele>757.0</ele><time>2026-04-11T18:07:50Z</time></trkpt><trkpt lat="39.02834709054248" lon="16.435747874682434"><ele>757.0</ele><time>2026-04-11T18:07:52Z</time></trkpt><trkpt lat="39.02839953867548" lon="16.435682057860145"><ele>757.0</ele><time>2026-04-11T18:07:53Z</time></trkpt><trkpt lat="39.028471807489765" lon="16.435657246547567"><ele>757.0</ele><time>2026-04-11T18:07:54Z</time></trkpt><trkpt lat="39.028552670318284" lon="16.435658628079228"><ele>757.0</ele><time>2026-04-11T18:07:55Z</time></trkpt><trkpt lat="39.02864202823854" lon="16.435670535747718"><ele>757.0</ele><time>2026-04-11T18:07:56Z</time></trkpt><trkpt lat="39.02872817042501" lon="16.435686545078177"><ele>757.0</ele><time>2026-04-11T18:07:57Z</time></trkpt><trkpt lat="39.02880787178736" lon="16.435717131511943"><ele>757.0</ele><time>2026-04-11T18:07:58Z</time></trkpt><trkpt lat="39.02888818207386" lon="16.435746278863814"><ele>757.0</ele><time>2026-04-11T18:07:59Z</time></trkpt><trkpt lat="39.0289734185478" lon="16.435746586631463"><ele>757.0</ele><time>2026-04-11T18:08:00Z</time></trkpt><trkpt lat="39.02905236297482" lon="16.435743735562074"><ele>757.0</ele><time>2026-04-11T18:08:01Z</time></trkpt><trkpt lat="39.02914439875548" lon="16.435712792539995"><ele>757.0</ele><time>2026-04-11T18:08:02Z</time></trkpt><trkpt lat="39.02922191846149" lon="16.43566210541976"><ele>755.2</ele><time>2026-04-11T18:08:03Z</time></trkpt><trkpt lat="39.02929768472642" lon="16.435602775127478"><ele>753.4000000000001</ele><time>2026-04-11T18:08:04Z</time></trkpt><trkpt lat="39.02937901054912" lon="16.435553421692475"><ele>751.5999999999999</ele><time>2026-04-11T18:08:05Z</time></trkpt><trkpt lat="39.029456349269545" lon="16.43548289229111"><ele>749.8</ele><time>2026-04-11T18:08:06Z</time></trkpt><trkpt lat="39.02952818568549" lon="16.43541395216174"><ele>748.0</ele><time>2026-04-11T18:08:07Z</time></trkpt><trkpt lat="39.02959314394949" lon="16.4353336390227"><ele>748.0</ele><time>2026-04-11T18:08:08Z</time></trkpt><trkpt lat="39.02963945974831" lon="16.435237380608328"><ele>748.0</ele><time>2026-04-11T18:08:09Z</time></trkpt><trkpt lat="39.0296901797545" lon="16.435136567988483"><ele>748.0</ele><time>2026-04-11T18:08:10Z</time></trkpt><trkpt lat="39.02974055040525" lon="16.43504173218336"><ele>748.0</ele><time>2026-04-11T18:08:11Z</time></trkpt><trkpt lat="39.0298165700345" lon="16.43497248934529"><ele>748.0</ele><time>2026-04-11T18:08:12Z</time></trkpt><trkpt lat="39.029891455132976" lon="16.434894263020023"><ele>748.0</ele><time>2026-04-11T18:08:13Z</time></trkpt><trkpt lat="39.02997482916256" lon="16.434842735236035"><ele>748.0</ele><time>2026-04-11T18:08:14Z</time></trkpt><trkpt lat="39.03006229487545" lon="16.434804630165022"><ele>748.0</ele><time>2026-04-11T18:08:15Z</time></trkpt><trkpt lat="39.03014154651592" lon="16.434755921337278"><ele>748.0</ele><time>2026-04-11T18:08:16Z</time></trkpt><trkpt lat="39.030218186260186" lon="16.43470291281686"><ele>748.0</ele><time>2026-04-11T18:08:17Z</time></trkpt><trkpt lat="39.03028768763125" lon="16.43463168154114"><ele>748.0</ele><time>2026-04-11T18:08:18Z</time></trkpt><trkpt lat="39.03035559731202" lon="16.434552299751214"><ele>746.8333333333334</ele><time>2026-04-11T18:08:19Z</time></trkpt><trkpt lat="39.03041519820568" lon="16.434474993311436"><ele>745.6666666666667</ele><time>2026-04-11T18:08:20Z</time></trkpt><trkpt lat="39.03047525445597" lon="16.434394092389315"><ele>744.5</ele><time>2026-04-11T18:08:21Z</time></trkpt><trkpt lat="39.03053434628696" lon="16.43431449064479"><ele>743.3333333333334</ele><time>2026-04-11T18:08:22Z</time></trkpt><trkpt lat="39.03059661778777" lon="16.434230605666205"><ele>742.1666666666666</ele><time>2026-04-11T18:08:23Z</time></trkpt><trkpt lat="39.030657928602544" lon="16.434153693303003"><ele>741.0</ele><time>2026-04-11T18:08:24Z</time></trkpt><trkpt lat="39.03072224761309" lon="16.43407830178692"><ele>741.0</ele><time>2026-04-11T18:08:25Z</time></trkpt><trkpt lat="39.03078839970891" lon="16.434004950062157"><ele>741.0</ele><time>2026-04-11T18:08:26Z</time></trkpt><trkpt lat="39.03086525003436" lon="16.43398127625406"><ele>741.0</ele><time>2026-04-11T18:08:27Z</time></trkpt><trkpt lat="39.03093564326048" lon="16.433932727665212"><ele>741.0</ele><time>2026-04-11T18:08:28Z</time></trkpt><trkpt lat="39.03100265889871" lon="16.433941053023688"><ele>741.0</ele><time>2026-04-11T18:08:29Z</time></trkpt><trkpt lat="39.031088723151555" lon="16.43393135815504"><ele>741.0</ele><time>2026-04-11T18:08:31Z</time></trkpt><trkpt lat="39.03116674738912" lon="16.433960852570028"><ele>735.75</ele><time>2026-04-11T18:08:34Z</time></trkpt><trkpt lat="39.03108448896451" lon="16.434157584362808"><ele>730.5</ele><time>2026-04-11T18:10:11Z</time></trkpt><trkpt lat="39.03100974289522" lon="16.434260864426893"><ele>725.25</ele><time>2026-04-11T18:10:13Z</time></trkpt><trkpt lat="39.030901254177664" lon="16.434404637786876"><ele>720.0</ele><time>2026-04-11T18:10:15Z</time></trkpt><trkpt lat="39.030835751793724" lon="16.434519537326487"><ele>723.2</ele><time>2026-04-11T18:10:16Z</time></trkpt><trkpt lat="39.03077627100369" lon="16.43464886594052"><ele>726.4</ele><time>2026-04-11T18:10:17Z</time></trkpt><trkpt lat="39.03073622820178" lon="16.434749759155125"><ele>729.5999999999999</ele><time>2026-04-11T18:10:18Z</time></trkpt><trkpt lat="39.03071575693149" lon="16.434856614998477"><ele>732.8</ele><time>2026-04-11T18:10:19Z</time></trkpt><trkpt lat="39.030722050311745" lon="16.434944911608902"><ele>736.0</ele><time>2026-04-11T18:10:20Z</time></trkpt><trkpt lat="39.03074719590345" lon="16.435106283396482"><ele>736.0</ele><time>2026-04-11T18:10:22Z</time></trkpt><trkpt lat="39.030720061446374" lon="16.43520460904122"><ele>736.0</ele><time>2026-04-11T18:10:23Z</time></trkpt><trkpt lat="39.03070192173952" lon="16.43532442487932"><ele>736.0</ele><time>2026-04-11T18:10:24Z</time></trkpt><trkpt lat="39.03068023455288" lon="16.435442289964634"><ele>736.0</ele><time>2026-04-11T18:10:25Z</time></trkpt><trkpt lat="39.03065304040775" lon="16.43554295587331"><ele>736.0</ele><time>2026-04-11T18:10:26Z</time></trkpt><trkpt lat="39.03062324837987" lon="16.43563240259272"><ele>736.0</ele><time>2026-04-11T18:10:27Z</time></trkpt><trkpt lat="39.03057446664648" lon="16.435696937182964"><ele>733.5999999999999</ele><time>2026-04-11T18:10:28Z</time></trkpt><trkpt lat="39.03051347399129" lon="16.43575072285346"><ele>731.2</ele><time>2026-04-11T18:10:29Z</time></trkpt><trkpt lat="39.03042721167846" lon="16.43581429968113"><ele>728.8</ele><time>2026-04-11T18:10:30Z</time></trkpt><trkpt lat="39.03035233340214" lon="16.435892153711613"><ele>726.4000000000001</ele><time>2026-04-11T18:10:31Z</time></trkpt><trkpt lat="39.0302949970439" lon="16.435991319298736"><ele>724.0</ele><time>2026-04-11T18:10:32Z</time></trkpt><trkpt lat="39.030246283502414" lon="16.436112423539914"><ele>724.0</ele><time>2026-04-11T18:10:33Z</time></trkpt><trkpt lat="39.03020253168092" lon="16.43622849611796"><ele>724.0</ele><time>2026-04-11T18:10:34Z</time></trkpt><trkpt lat="39.03015219209106" lon="16.436347934803393"><ele>724.0</ele><time>2026-04-11T18:10:35Z</time></trkpt><trkpt lat="39.030100878804" lon="16.4364438039074"><ele>724.0</ele><time>2026-04-11T18:10:36Z</time></trkpt><trkpt lat="39.03004940844907" lon="16.436541620644796"><ele>724.0</ele><time>2026-04-11T18:10:37Z</time></trkpt><trkpt lat="39.029998278867545" lon="16.436661004904312"><ele>725.4000000000001</ele><time>2026-04-11T18:10:38Z</time></trkpt><trkpt lat="39.02997003173134" lon="16.436776565950886"><ele>726.8</ele><time>2026-04-11T18:10:39Z</time></trkpt><trkpt lat="39.03000268426276" lon="16.436936629473486"><ele>728.2</ele><time>2026-04-11T18:10:40Z</time></trkpt><trkpt lat="39.03003336586779" lon="16.437066736991003"><ele>729.5999999999999</ele><time>2026-04-11T18:10:41Z</time></trkpt><trkpt lat="39.03005851624221" lon="16.437198896334046"><ele>731.0</ele><time>2026-04-11T18:10:42Z</time></trkpt><trkpt lat="39.03007468155121" lon="16.43733799868816"><ele>725.4</ele><time>2026-04-11T18:10:43Z</time></trkpt><trkpt lat="39.03007496485628" lon="16.437475208017762"><ele>719.8</ele><time>2026-04-11T18:10:44Z</time></trkpt><trkpt lat="39.030075160440674" lon="16.437611996518157"><ele>714.1999999999999</ele><time>2026-04-11T18:10:45Z</time></trkpt><trkpt lat="39.030072441895655" lon="16.437739784654276"><ele>708.5999999999999</ele><time>2026-04-11T18:10:46Z</time></trkpt><trkpt lat="39.03005748056677" lon="16.4378519886061"><ele>703.0</ele><time>2026-04-11T18:10:47Z</time></trkpt><trkpt lat="39.030033003248704" lon="16.437948995495866"><ele>706.0</ele><time>2026-04-11T18:10:48Z</time></trkpt><trkpt lat="39.02997107342556" lon="16.43805996583534"><ele>709.0</ele><time>2026-04-11T18:10:49Z</time></trkpt><trkpt lat="39.029906248050565" lon="16.438171643559535"><ele>712.0</ele><time>2026-04-11T18:10:50Z</time></trkpt><trkpt lat="39.02984346601661" lon="16.43829708515865"><ele>715.0</ele><time>2026-04-11T18:10:51Z</time></trkpt><trkpt lat="39.0297868672777" lon="16.438434686380194"><ele>715.0</ele><time>2026-04-11T18:10:52Z</time></trkpt><trkpt lat="39.02974139937821" lon="16.438566772546704"><ele>715.0</ele><time>2026-04-11T18:10:53Z</time></trkpt><trkpt lat="39.02970491833694" lon="16.438697417027456"><ele>715.0</ele><time>2026-04-11T18:10:54Z</time></trkpt><trkpt lat="39.02968478711768" lon="16.438825530370053"><ele>715.0</ele><time>2026-04-11T18:10:55Z</time></trkpt><trkpt lat="39.02968255492145" lon="16.438975885048105"><ele>715.0</ele><time>2026-04-11T18:10:56Z</time></trkpt><trkpt lat="39.029701538871535" lon="16.439130182864933"><ele>715.0</ele><time>2026-04-11T18:10:57Z</time></trkpt><trkpt lat="39.029724275661955" lon="16.43928124233048"><ele>715.0</ele><time>2026-04-11T18:10:58Z</time></trkpt><trkpt lat="39.029746221993676" lon="16.43943392442897"><ele>715.0</ele><time>2026-04-11T18:10:59Z</time></trkpt><trkpt lat="39.029767532986284" lon="16.439588940597282"><ele>715.0</ele><time>2026-04-11T18:11:00Z</time></trkpt><trkpt lat="39.02979004389948" lon="16.439745350074478"><ele>715.0</ele><time>2026-04-11T18:11:01Z</time></trkpt><trkpt lat="39.02980906865721" lon="16.439893710104226"><ele>715.0</ele><time>2026-04-11T18:11:02Z</time></trkpt><trkpt lat="39.029818203631464" lon="16.44003189452763"><ele>715.0</ele><time>2026-04-11T18:11:03Z</time></trkpt><trkpt lat="39.02980839208281" lon="16.4401696601114"><ele>715.0</ele><time>2026-04-11T18:11:04Z</time></trkpt><trkpt lat="39.029787401510944" lon="16.440311931746166"><ele>715.0</ele><time>2026-04-11T18:11:05Z</time></trkpt><trkpt lat="39.02976088725659" lon="16.44046612393893"><ele>714.5</ele><time>2026-04-11T18:11:06Z</time></trkpt><trkpt lat="39.02972757204994" lon="16.44062585405189"><ele>714.0</ele><time>2026-04-11T18:11:07Z</time></trkpt><trkpt lat="39.0296936082545" lon="16.44079936396645"><ele>713.5</ele><time>2026-04-11T18:11:08Z</time></trkpt><trkpt lat="39.02966497707363" lon="16.440965572579827"><ele>713.0</ele><time>2026-04-11T18:11:09Z</time></trkpt><trkpt lat="39.029640074040444" lon="16.441117501552114"><ele>713.0</ele><time>2026-04-11T18:11:10Z</time></trkpt><trkpt lat="39.02961598811635" lon="16.441263923133377"><ele>713.0</ele><time>2026-04-11T18:11:11Z</time></trkpt><trkpt lat="39.029597188549126" lon="16.441418223785362"><ele>713.0</ele><time>2026-04-11T18:11:12Z</time></trkpt><trkpt lat="39.029592237531695" lon="16.44155261606666"><ele>713.0</ele><time>2026-04-11T18:11:13Z</time></trkpt><trkpt lat="39.029614710444875" lon="16.441680224083438"><ele>713.0</ele><time>2026-04-11T18:11:14Z</time></trkpt><trkpt lat="39.02964685665578" lon="16.441785098606246"><ele>708.4</ele><time>2026-04-11T18:11:15Z</time></trkpt><trkpt lat="39.02973519876883" lon="16.441840547198403"><ele>703.8</ele><time>2026-04-11T18:11:16Z</time></trkpt><trkpt lat="39.02980515847593" lon="16.44188865402384"><ele>699.2</ele><time>2026-04-11T18:11:17Z</time></trkpt><trkpt lat="39.02987176293521" lon="16.441914997776635"><ele>694.6</ele><time>2026-04-11T18:11:18Z</time></trkpt><trkpt lat="39.02991342314729" lon="16.44198782664263"><ele>690.0</ele><time>2026-04-11T18:11:19Z</time></trkpt><trkpt lat="39.03003409215742" lon="16.44189640899912"><ele>688.2</ele><time>2026-04-11T18:11:20Z</time></trkpt><trkpt lat="39.03012998650717" lon="16.4418576601788"><ele>686.4</ele><time>2026-04-11T18:11:21Z</time></trkpt><trkpt lat="39.03022328656251" lon="16.44179783220855"><ele>684.5999999999999</ele><time>2026-04-11T18:11:22Z</time></trkpt><trkpt lat="39.030297087290315" lon="16.44171460524868"><ele>682.8</ele><time>2026-04-11T18:11:23Z</time></trkpt><trkpt lat="39.03037183692903" lon="16.441655472479138"><ele>681.0</ele><time>2026-04-11T18:11:24Z</time></trkpt><trkpt lat="39.030459704409594" lon="16.441602422494594"><ele>681.0</ele><time>2026-04-11T18:11:25Z</time></trkpt><trkpt lat="39.03055273612129" lon="16.441577182697525"><ele>681.0</ele><time>2026-04-11T18:11:26Z</time></trkpt><trkpt lat="39.03065048283098" lon="16.441572953131224"><ele>681.0</ele><time>2026-04-11T18:11:27Z</time></trkpt><trkpt lat="39.030745368825706" lon="16.441579829157718"><ele>681.0</ele><time>2026-04-11T18:11:28Z</time></trkpt><trkpt lat="39.03085967102384" lon="16.441571073176576"><ele>681.0</ele><time>2026-04-11T18:11:29Z</time></trkpt><trkpt lat="39.03094972539316" lon="16.44154133326822"><ele>681.75</ele><time>2026-04-11T18:11:30Z</time></trkpt><trkpt lat="39.03105190166423" lon="16.441479883752564"><ele>682.5</ele><time>2026-04-11T18:11:31Z</time></trkpt><trkpt lat="39.03115862307737" lon="16.441418522943337"><ele>683.25</ele><time>2026-04-11T18:11:32Z</time></trkpt><trkpt lat="39.031244290719414" lon="16.441336762405218"><ele>684.0</ele><time>2026-04-11T18:11:33Z</time></trkpt><trkpt lat="39.031340355483195" lon="16.441255899192715"><ele>680.25</ele><time>2026-04-11T18:11:34Z</time></trkpt><trkpt lat="39.031443133803585" lon="16.44113632093577"><ele>676.5</ele><time>2026-04-11T18:11:35Z</time></trkpt><trkpt lat="39.03153637102159" lon="16.44104139505255"><ele>672.75</ele><time>2026-04-11T18:11:36Z</time></trkpt><trkpt lat="39.03164484236275" lon="16.44095442012776"><ele>669.0</ele><time>2026-04-11T18:11:37Z</time></trkpt><trkpt lat="39.031747702429364" lon="16.44084798768503"><ele>668.5</ele><time>2026-04-11T18:11:38Z</time></trkpt><trkpt lat="39.031846556151855" lon="16.440733209224636"><ele>668.0</ele><time>2026-04-11T18:11:39Z</time></trkpt><trkpt lat="39.03194401583407" lon="16.440624746350885"><ele>667.5</ele><time>2026-04-11T18:11:40Z</time></trkpt><trkpt lat="39.03204078782428" lon="16.440521498571943"><ele>667.0</ele><time>2026-04-11T18:11:41Z</time></trkpt><trkpt lat="39.03213466140778" lon="16.440417852969237"><ele>667.0</ele><time>2026-04-11T18:11:42Z</time></trkpt><trkpt lat="39.03223384387865" lon="16.4403263724073"><ele>667.0</ele><time>2026-04-11T18:11:43Z</time></trkpt><trkpt lat="39.03234246532822" lon="16.440240022659705"><ele>667.0</ele><time>2026-04-11T18:11:44Z</time></trkpt><trkpt lat="39.03245433390449" lon="16.44016116609707"><ele>667.0</ele><time>2026-04-11T18:11:45Z</time></trkpt><trkpt lat="39.03256767029286" lon="16.440077577197908"><ele>668.0</ele><time>2026-04-11T18:11:46Z</time></trkpt><trkpt lat="39.03267778637896" lon="16.43998773886849"><ele>669.0</ele><time>2026-04-11T18:11:47Z</time></trkpt><trkpt lat="39.032785729396686" lon="16.439903062947074"><ele>670.0</ele><time>2026-04-11T18:11:48Z</time></trkpt><trkpt lat="39.03289903246059" lon="16.439838457519482"><ele>671.0</ele><time>2026-04-11T18:11:49Z</time></trkpt><trkpt lat="39.03300279944048" lon="16.439753278740262"><ele>671.0</ele><time>2026-04-11T18:11:50Z</time></trkpt><trkpt lat="39.033101659556436" lon="16.43970576524415"><ele>671.0</ele><time>2026-04-11T18:11:51Z</time></trkpt><trkpt lat="39.0332075830202" lon="16.439665169947233"><ele>671.0</ele><time>2026-04-11T18:11:52Z</time></trkpt><trkpt lat="39.033316930785844" lon="16.439680522021945"><ele>671.0</ele><time>2026-04-11T18:11:53Z</time></trkpt><trkpt lat="39.03341903563212" lon="16.439697583353208"><ele>671.0</ele><time>2026-04-11T18:11:54Z</time></trkpt><trkpt lat="39.03351192487466" lon="16.43974241959434"><ele>675.1999999999999</ele><time>2026-04-11T18:11:55Z</time></trkpt><trkpt lat="39.03359393480248" lon="16.439796968178083"><ele>679.4</ele><time>2026-04-11T18:11:56Z</time></trkpt><trkpt lat="39.033678802148216" lon="16.439851939399887"><ele>683.6</ele><time>2026-04-11T18:11:57Z</time></trkpt><trkpt lat="39.033773376129226" lon="16.439881307153655"><ele>687.8</ele><time>2026-04-11T18:11:58Z</time></trkpt><trkpt lat="39.03386138648034" lon="16.439921308403882"><ele>692.0</ele><time>2026-04-11T18:11:59Z</time></trkpt><trkpt lat="39.03398280902133" lon="16.439922231014826"><ele>692.0</ele><time>2026-04-11T18:12:00Z</time></trkpt><trkpt lat="39.03409236358025" lon="16.439880543830416"><ele>692.0</ele><time>2026-04-11T18:12:01Z</time></trkpt><trkpt lat="39.03420314442035" lon="16.43984534876243"><ele>692.0</ele><time>2026-04-11T18:12:02Z</time></trkpt><trkpt lat="39.034310582580936" lon="16.439783080500565"><ele>692.0</ele><time>2026-04-11T18:12:03Z</time></trkpt><trkpt lat="39.034416052445515" lon="16.439704577243855"><ele>688.75</ele><time>2026-04-11T18:12:04Z</time></trkpt><trkpt lat="39.03451197549867" lon="16.439586107840096"><ele>685.5</ele><time>2026-04-11T18:12:05Z</time></trkpt><trkpt lat="39.03459783450517" lon="16.439473714390036"><ele>682.25</ele><time>2026-04-11T18:12:06Z</time></trkpt><trkpt lat="39.03466035763593" lon="16.439346942322945"><ele>679.0</ele><time>2026-04-11T18:12:07Z</time></trkpt><trkpt lat="39.03470601497004" lon="16.43923174376717"><ele>679.0</ele><time>2026-04-11T18:12:08Z</time></trkpt><trkpt lat="39.0347682148328" lon="16.439163276696235"><ele>679.0</ele><time>2026-04-11T18:12:09Z</time></trkpt><trkpt lat="39.03487827041963" lon="16.43917300854747"><ele>679.0</ele><time>2026-04-11T18:12:11Z</time></trkpt><trkpt lat="39.03492361249663" lon="16.439230424741115"><ele>679.0</ele><time>2026-04-11T18:12:12Z</time></trkpt><trkpt lat="39.034963408842856" lon="16.439320079561252"><ele>679.0</ele><time>2026-04-11T18:12:13Z</time></trkpt><trkpt lat="39.03498181528072" lon="16.43941909274534"><ele>679.0</ele><time>2026-04-11T18:12:14Z</time></trkpt><trkpt lat="39.03495369056677" lon="16.439513453202462"><ele>679.0</ele><time>2026-04-11T18:12:15Z</time></trkpt><trkpt lat="39.03490794474123" lon="16.439589211279408"><ele>679.0</ele><time>2026-04-11T18:12:16Z</time></trkpt><trkpt lat="39.03481187059507" lon="16.43958069910842"><ele>679.0</ele><time>2026-04-11T18:12:17Z</time></trkpt><trkpt lat="39.034714919588275" lon="16.439604678820213"><ele>679.0</ele><time>2026-04-11T18:12:18Z</time></trkpt><trkpt lat="39.03462375651111" lon="16.439643949146305"><ele>679.0</ele><time>2026-04-11T18:12:19Z</time></trkpt><trkpt lat="39.03454422879722" lon="16.43973650320616"><ele>685.25</ele><time>2026-04-11T18:12:20Z</time></trkpt><trkpt lat="39.03445657386528" lon="16.439846854243715"><ele>691.5</ele><time>2026-04-11T18:12:21Z</time></trkpt><trkpt lat="39.034360923443046" lon="16.439973107959922"><ele>697.75</ele><time>2026-04-11T18:12:22Z</time></trkpt><trkpt lat="39.03427264063001" lon="16.440068893080777"><ele>704.0</ele><time>2026-04-11T18:12:23Z</time></trkpt><trkpt lat="39.03419059026074" lon="16.440140216114635"><ele>702.0</ele><time>2026-04-11T18:12:24Z</time></trkpt><trkpt lat="39.03410998939463" lon="16.440175382080756"><ele>700.0</ele><time>2026-04-11T18:12:25Z</time></trkpt><trkpt lat="39.034028898641466" lon="16.44018759534772"><ele>698.0</ele><time>2026-04-11T18:12:26Z</time></trkpt><trkpt lat="39.03394251190074" lon="16.44018319424132"><ele>696.0</ele><time>2026-04-11T18:12:27Z</time></trkpt><trkpt lat="39.033855920606754" lon="16.44016693379493"><ele>694.0</ele><time>2026-04-11T18:12:28Z</time></trkpt><trkpt lat="39.03377267851723" lon="16.440184006853787"><ele>692.0</ele><time>2026-04-11T18:12:29Z</time></trkpt><trkpt lat="39.03368067876469" lon="16.44016126430968"><ele>692.0</ele><time>2026-04-11T18:12:30Z</time></trkpt><trkpt lat="39.03357906832889" lon="16.44012197088984"><ele>692.0</ele><time>2026-04-11T18:12:31Z</time></trkpt><trkpt lat="39.03349086168889" lon="16.440119703047966"><ele>692.0</ele><time>2026-04-11T18:12:32Z</time></trkpt><trkpt lat="39.03341345598486" lon="16.44013109078238"><ele>692.0</ele><time>2026-04-11T18:12:33Z</time></trkpt><trkpt lat="39.033354534848975" lon="16.440170788660065"><ele>692.0</ele><time>2026-04-11T18:12:34Z</time></trkpt><trkpt lat="39.03332106663069" lon="16.44024658229636"><ele>692.0</ele><time>2026-04-11T18:12:35Z</time></trkpt><trkpt lat="39.033311496587636" lon="16.44033318631807"><ele>692.0</ele><time>2026-04-11T18:12:36Z</time></trkpt><trkpt lat="39.033371327351965" lon="16.44045671217915"><ele>692.0</ele><time>2026-04-11T18:12:38Z</time></trkpt><trkpt lat="39.03347166129822" lon="16.440536326182208"><ele>692.0</ele><time>2026-04-11T18:12:40Z</time></trkpt><trkpt lat="39.0335793554662" lon="16.44055645707336"><ele>692.0</ele><time>2026-04-11T18:12:42Z</time></trkpt><trkpt lat="39.03364289010622" lon="16.440550756319222"><ele>692.0</ele><time>2026-04-11T18:12:43Z</time></trkpt><trkpt lat="39.03370796853877" lon="16.440527899618342"><ele>691.5</ele><time>2026-04-11T18:12:44Z</time></trkpt><trkpt lat="39.03377310994906" lon="16.440512430463823"><ele>691.0</ele><time>2026-04-11T18:12:45Z</time></trkpt><trkpt lat="39.03389001434053" lon="16.44050845138101"><ele>690.5</ele><time>2026-04-11T18:12:47Z</time></trkpt><trkpt lat="39.034015692366886" lon="16.440501753379568"><ele>690.0</ele><time>2026-04-11T18:12:49Z</time></trkpt><trkpt lat="39.03408370381554" lon="16.440502207781627"><ele>689.5</ele><time>2026-04-11T18:12:50Z</time></trkpt><trkpt lat="39.03415065763458" lon="16.440502941692873"><ele>689.0</ele><time>2026-04-11T18:12:51Z</time></trkpt><trkpt lat="39.034223295236394" lon="16.440500413996983"><ele>692.0</ele><time>2026-04-11T18:12:52Z</time></trkpt><trkpt lat="39.03435036580151" lon="16.44045952278261"><ele>695.0</ele><time>2026-04-11T18:12:54Z</time></trkpt><trkpt lat="39.03441950830004" lon="16.44043023336878"><ele>698.0</ele><time>2026-04-11T18:12:55Z</time></trkpt><trkpt lat="39.03448489353634" lon="16.4403954539794"><ele>701.0</ele><time>2026-04-11T18:12:56Z</time></trkpt><trkpt lat="39.03454748102217" lon="16.440346719749314"><ele>704.0</ele><time>2026-04-11T18:12:57Z</time></trkpt><trkpt lat="39.034647723805314" lon="16.4402826457447"><ele>704.0</ele><time>2026-04-11T18:12:59Z</time></trkpt><trkpt lat="39.034728765989925" lon="16.44022652950059"><ele>704.0</ele><time>2026-04-11T18:13:01Z</time></trkpt><trkpt lat="39.034818623758824" lon="16.440170851488187"><ele>704.0</ele><time>2026-04-11T18:13:03Z</time></trkpt><trkpt lat="39.03491065589139" lon="16.44013303524852"><ele>704.0</ele><time>2026-04-11T18:13:05Z</time></trkpt><trkpt lat="39.03501680208281" lon="16.440103188600123"><ele>704.0</ele><time>2026-04-11T18:13:07Z</time></trkpt><trkpt lat="39.03512733086505" lon="16.440059305916016"><ele>707.3333333333333</ele><time>2026-04-11T18:13:09Z</time></trkpt><trkpt lat="39.03519158218459" lon="16.440048554255753"><ele>710.6666666666666</ele><time>2026-04-11T18:13:10Z</time></trkpt><trkpt lat="39.03526773312805" lon="16.440024263699943"><ele>714.0</ele><time>2026-04-11T18:13:11Z</time></trkpt><trkpt lat="39.03533304723162" lon="16.4400087801516"><ele>717.3333333333334</ele><time>2026-04-11T18:13:12Z</time></trkpt><trkpt lat="39.035390611460585" lon="16.439961140586266"><ele>720.6666666666667</ele><time>2026-04-11T18:13:13Z</time></trkpt><trkpt lat="39.03544991646139" lon="16.439891062028707"><ele>724.0</ele><time>2026-04-11T18:13:14Z</time></trkpt><trkpt lat="39.03550439089141" lon="16.439728028442627"><ele>724.0</ele><time>2026-04-11T18:13:16Z</time></trkpt><trkpt lat="39.035539169476564" lon="16.43964304936693"><ele>724.0</ele><time>2026-04-11T18:13:17Z</time></trkpt><trkpt lat="39.03558592729178" lon="16.439579224310897"><ele>724.0</ele><time>2026-04-11T18:13:18Z</time></trkpt><trkpt lat="39.03565974052447" lon="16.43952373909728"><ele>724.0</ele><time>2026-04-11T18:13:19Z</time></trkpt><trkpt lat="39.03573749062669" lon="16.439462144173422"><ele>724.0</ele><time>2026-04-11T18:13:20Z</time></trkpt><trkpt lat="39.035801071757874" lon="16.439411137064567"><ele>724.0</ele><time>2026-04-11T18:13:21Z</time></trkpt><trkpt lat="39.035878352739346" lon="16.43935298751595"><ele>724.8000000000001</ele><time>2026-04-11T18:13:22Z</time></trkpt><trkpt lat="39.035952179570785" lon="16.43929183941216"><ele>725.6</ele><time>2026-04-11T18:13:23Z</time></trkpt><trkpt lat="39.0360433644719" lon="16.439225259760008"><ele>726.4</ele><time>2026-04-11T18:13:24Z</time></trkpt><trkpt lat="39.03614824602758" lon="16.43916186099736"><ele>727.2</ele><time>2026-04-11T18:13:25Z</time></trkpt><trkpt lat="39.036244107017595" lon="16.439115634117847"><ele>728.0</ele><time>2026-04-11T18:13:26Z</time></trkpt><trkpt lat="39.03634225171655" lon="16.43906781346269"><ele>728.0</ele><time>2026-04-11T18:13:27Z</time></trkpt><trkpt lat="39.036435745553035" lon="16.439016781749377"><ele>728.0</ele><time>2026-04-11T18:13:28Z</time></trkpt><trkpt lat="39.03653360146015" lon="16.438956475244133"><ele>728.0</ele><time>2026-04-11T18:13:29Z</time></trkpt><trkpt lat="39.03662255066462" lon="16.438883785379748"><ele>728.0</ele><time>2026-04-11T18:13:30Z</time></trkpt><trkpt lat="39.03670123240052" lon="16.4388056503442"><ele>728.0</ele><time>2026-04-11T18:13:31Z</time></trkpt><trkpt lat="39.03676504457798" lon="16.43873445636204"><ele>727.5</ele><time>2026-04-11T18:13:32Z</time></trkpt><trkpt lat="39.03683531673864" lon="16.438678988360355"><ele>727.0</ele><time>2026-04-11T18:13:33Z</time></trkpt><trkpt lat="39.036908942853216" lon="16.438648914748054"><ele>726.5</ele><time>2026-04-11T18:13:34Z</time></trkpt><trkpt lat="39.03698354345568" lon="16.438641491629134"><ele>726.0</ele><time>2026-04-11T18:13:35Z</time></trkpt><trkpt lat="39.03704787456271" lon="16.438667390643666"><ele>725.5</ele><time>2026-04-11T18:13:36Z</time></trkpt><trkpt lat="39.03710498932276" lon="16.43880382929979"><ele>725.0</ele><time>2026-04-11T18:13:38Z</time></trkpt><trkpt lat="39.037052352210175" lon="16.43894409043776"><ele>725.5</ele><time>2026-04-11T18:13:40Z</time></trkpt><trkpt lat="39.03698878392765" lon="16.438986328790854"><ele>726.0</ele><time>2026-04-11T18:13:41Z</time></trkpt><trkpt lat="39.03690862762073" lon="16.438992679712673"><ele>726.5</ele><time>2026-04-11T18:13:42Z</time></trkpt><trkpt lat="39.03682643408812" lon="16.43898920043145"><ele>727.0</ele><time>2026-04-11T18:13:43Z</time></trkpt><trkpt lat="39.03675376498567" lon="16.438999741479453"><ele>727.5</ele><time>2026-04-11T18:13:44Z</time></trkpt><trkpt lat="39.036681704644835" lon="16.4390522929678"><ele>728.0</ele><time>2026-04-11T18:13:45Z</time></trkpt><trkpt lat="39.03660899228058" lon="16.43912684703675"><ele>728.0</ele><time>2026-04-11T18:13:46Z</time></trkpt><trkpt lat="39.03653300695362" lon="16.439197553668556"><ele>728.0</ele><time>2026-04-11T18:13:47Z</time></trkpt><trkpt lat="39.03645687118037" lon="16.439271414212257"><ele>728.0</ele><time>2026-04-11T18:13:48Z</time></trkpt><trkpt lat="39.03637823449971" lon="16.43935042137571"><ele>728.0</ele><time>2026-04-11T18:13:49Z</time></trkpt><trkpt lat="39.03629844299314" lon="16.439432605658855"><ele>728.0</ele><time>2026-04-11T18:13:50Z</time></trkpt><trkpt lat="39.03622236519647" lon="16.43952199499088"><ele>728.0</ele><time>2026-04-11T18:13:51Z</time></trkpt><trkpt lat="39.036150478990955" lon="16.43961990872655"><ele>728.0</ele><time>2026-04-11T18:13:52Z</time></trkpt><trkpt lat="39.03608515527136" lon="16.43972487062487"><ele>728.0</ele><time>2026-04-11T18:13:53Z</time></trkpt><trkpt lat="39.03601296938944" lon="16.439825085706993"><ele>728.0</ele><time>2026-04-11T18:13:54Z</time></trkpt><trkpt lat="39.035957045392" lon="16.43994759138714"><ele>728.0</ele><time>2026-04-11T18:13:55Z</time></trkpt><trkpt lat="39.03590878188769" lon="16.44005887407145"><ele>732.1666666666666</ele><time>2026-04-11T18:13:56Z</time></trkpt><trkpt lat="39.03586973979954" lon="16.440160895581865"><ele>736.3333333333333</ele><time>2026-04-11T18:13:57Z</time></trkpt><trkpt lat="39.03584335013978" lon="16.44025846480363"><ele>740.5</ele><time>2026-04-11T18:13:58Z</time></trkpt><trkpt lat="39.035834251899" lon="16.44035486982916"><ele>744.6666666666666</ele><time>2026-04-11T18:13:59Z</time></trkpt><trkpt lat="39.03585396156769" lon="16.440445275512776"><ele>748.8333333333334</ele><time>2026-04-11T18:14:00Z</time></trkpt><trkpt lat="39.035917180362695" lon="16.44052808117887"><ele>753.0</ele><time>2026-04-11T18:14:01Z</time></trkpt><trkpt lat="39.03601593264247" lon="16.440526096590677"><ele>753.0</ele><time>2026-04-11T18:14:02Z</time></trkpt><trkpt lat="39.03608721001635" lon="16.440497652078747"><ele>753.0</ele><time>2026-04-11T18:14:03Z</time></trkpt><trkpt lat="39.03614181608316" lon="16.44043434014797"><ele>753.0</ele><time>2026-04-11T18:14:04Z</time></trkpt><trkpt lat="39.03615966953307" lon="16.44035007947134"><ele>753.0</ele><time>2026-04-11T18:14:05Z</time></trkpt><trkpt lat="39.036183961768465" lon="16.44024869501756"><ele>753.0</ele><time>2026-04-11T18:14:06Z</time></trkpt><trkpt lat="39.03618305028555" lon="16.440136430525655"><ele>753.0</ele><time>2026-04-11T18:14:07Z</time></trkpt><trkpt lat="39.03617143874293" lon="16.44001491256319"><ele>753.0</ele><time>2026-04-11T18:14:08Z</time></trkpt><trkpt lat="39.036188707020024" lon="16.439911411232462"><ele>753.0</ele><time>2026-04-11T18:14:09Z</time></trkpt><trkpt lat="39.03625797677635" lon="16.439848475732163"><ele>753.0</ele><time>2026-04-11T18:14:10Z</time></trkpt><trkpt lat="39.03633071915978" lon="16.43977386870862"><ele>753.0</ele><time>2026-04-11T18:14:11Z</time></trkpt><trkpt lat="39.036426814836744" lon="16.439722401556082"><ele>753.0</ele><time>2026-04-11T18:14:12Z</time></trkpt><trkpt lat="39.03652279680127" lon="16.439644998448667"><ele>753.4</ele><time>2026-04-11T18:14:13Z</time></trkpt><trkpt lat="39.03662889607663" lon="16.43959389505673"><ele>753.8</ele><time>2026-04-11T18:14:14Z</time></trkpt><trkpt lat="39.03672933182373" lon="16.439539007053096"><ele>754.2</ele><time>2026-04-11T18:14:15Z</time></trkpt><trkpt lat="39.03683172406842" lon="16.43947874030616"><ele>754.6</ele><time>2026-04-11T18:14:16Z</time></trkpt><trkpt lat="39.03692331205042" lon="16.439432643165517"><ele>755.0</ele><time>2026-04-11T18:14:17Z</time></trkpt><trkpt lat="39.037014429814434" lon="16.4393955238389"><ele>755.0</ele><time>2026-04-11T18:14:18Z</time></trkpt><trkpt lat="39.03711507245423" lon="16.439399473396605"><ele>755.0</ele><time>2026-04-11T18:14:19Z</time></trkpt><trkpt lat="39.03722214844869" lon="16.439419603433567"><ele>755.0</ele><time>2026-04-11T18:14:20Z</time></trkpt><trkpt lat="39.037315213031256" lon="16.4393940091897"><ele>755.0</ele><time>2026-04-11T18:14:21Z</time></trkpt><trkpt lat="39.03741017131282" lon="16.439353495605843"><ele>755.0</ele><time>2026-04-11T18:14:22Z</time></trkpt><trkpt lat="39.03749236088345" lon="16.439255858650064"><ele>758.5</ele><time>2026-04-11T18:14:23Z</time></trkpt><trkpt lat="39.03756939501089" lon="16.439143288709616"><ele>762.0</ele><time>2026-04-11T18:14:24Z</time></trkpt><trkpt lat="39.03763063986372" lon="16.439043305878773"><ele>765.5</ele><time>2026-04-11T18:14:25Z</time></trkpt><trkpt lat="39.03768364135361" lon="16.438959044979224"><ele>769.0</ele><time>2026-04-11T18:14:26Z</time></trkpt><trkpt lat="39.037745977757396" lon="16.438912198969117"><ele>772.5000000000001</ele><time>2026-04-11T18:14:27Z</time></trkpt><trkpt lat="39.03781772759367" lon="16.43890884148034"><ele>776.0</ele><time>2026-04-11T18:14:28Z</time></trkpt><trkpt lat="39.03787910565139" lon="16.438974830537422"><ele>776.0000000000001</ele><time>2026-04-11T18:14:29Z</time></trkpt><trkpt lat="39.03792588739383" lon="16.439042132137754"><ele>776.0</ele><time>2026-04-11T18:14:30Z</time></trkpt><trkpt lat="39.03794956288243" lon="16.439125734377576"><ele>776.0</ele><time>2026-04-11T18:14:31Z</time></trkpt><trkpt lat="39.037944441827406" lon="16.439214129079733"><ele>776.0</ele><time>2026-04-11T18:14:32Z</time></trkpt><trkpt lat="39.0378898300754" lon="16.439285994848053"><ele>776.0000000000001</ele><time>2026-04-11T18:14:33Z</time></trkpt><trkpt lat="39.03780696152706" lon="16.439337101888725"><ele>776.0</ele><time>2026-04-11T18:14:34Z</time></trkpt><trkpt lat="39.037703908676995" lon="16.439339624982676"><ele>776.0</ele><time>2026-04-11T18:14:35Z</time></trkpt><trkpt lat="39.037610004680914" lon="16.439385821542594"><ele>776.0</ele><time>2026-04-11T18:14:36Z</time></trkpt><trkpt lat="39.037530605677574" lon="16.43944552273596"><ele>776.0</ele><time>2026-04-11T18:14:37Z</time></trkpt><trkpt lat="39.03746216551921" lon="16.439544518925263"><ele>776.0</ele><time>2026-04-11T18:14:38Z</time></trkpt><trkpt lat="39.03739892777557" lon="16.439640577405967"><ele>776.0</ele><time>2026-04-11T18:14:39Z</time></trkpt><trkpt lat="39.037320171559834" lon="16.439707169828484"><ele>777.4</ele><time>2026-04-11T18:14:40Z</time></trkpt><trkpt lat="39.03721961913638" lon="16.43972089943439"><ele>778.8</ele><time>2026-04-11T18:14:41Z</time></trkpt><trkpt lat="39.03711192468576" lon="16.43973603153299"><ele>780.1999999999999</ele><time>2026-04-11T18:14:42Z</time></trkpt><trkpt lat="39.03701355948881" lon="16.439791298892402"><ele>781.5999999999999</ele><time>2026-04-11T18:14:43Z</time></trkpt><trkpt lat="39.03692500512544" lon="16.439877579465794"><ele>783.0</ele><time>2026-04-11T18:14:44Z</time></trkpt><trkpt lat="39.03684458103276" lon="16.43997759855342"><ele>783.0</ele><time>2026-04-11T18:14:45Z</time></trkpt><trkpt lat="39.03677255425302" lon="16.44007899963408"><ele>783.0</ele><time>2026-04-11T18:14:46Z</time></trkpt><trkpt lat="39.0367077742473" lon="16.44018605006404"><ele>783.0</ele><time>2026-04-11T18:14:47Z</time></trkpt><trkpt lat="39.036652232600055" lon="16.440298819492355"><ele>783.0</ele><time>2026-04-11T18:14:48Z</time></trkpt><trkpt lat="39.03660100366387" lon="16.440418798611855"><ele>783.0</ele><time>2026-04-11T18:14:49Z</time></trkpt><trkpt lat="39.0365333953535" lon="16.44052413331524"><ele>780.1666666666666</ele><time>2026-04-11T18:14:50Z</time></trkpt><trkpt lat="39.036486897181895" lon="16.440630439673726"><ele>777.3333333333334</ele><time>2026-04-11T18:14:51Z</time></trkpt><trkpt lat="39.03645219051081" lon="16.440724813751316"><ele>774.5</ele><time>2026-04-11T18:14:52Z</time></trkpt><trkpt lat="39.03643162105033" lon="16.44081719942304"><ele>771.6666666666667</ele><time>2026-04-11T18:14:53Z</time></trkpt><trkpt lat="39.03643946808618" lon="16.440915754155736"><ele>768.8333333333334</ele><time>2026-04-11T18:14:54Z</time></trkpt><trkpt lat="39.03647149756949" lon="16.441002219258824"><ele>766.0</ele><time>2026-04-11T18:14:55Z</time></trkpt><trkpt lat="39.03655336514529" lon="16.441052378476147"><ele>772.1999999999999</ele><time>2026-04-11T18:14:56Z</time></trkpt><trkpt lat="39.036662548770394" lon="16.441010621665075"><ele>778.4</ele><time>2026-04-11T18:14:57Z</time></trkpt><trkpt lat="39.03674476281639" lon="16.44094852143113"><ele>784.6</ele><time>2026-04-11T18:14:58Z</time></trkpt><trkpt lat="39.036795923319275" lon="16.440852347098463"><ele>790.8</ele><time>2026-04-11T18:14:59Z</time></trkpt><trkpt lat="39.03682064544578" lon="16.44072831906942"><ele>797.0</ele><time>2026-04-11T18:15:00Z</time></trkpt><trkpt lat="39.03683587991209" lon="16.44060418772904"><ele>797.0</ele><time>2026-04-11T18:15:01Z</time></trkpt><trkpt lat="39.036868480713906" lon="16.4404984919405"><ele>797.0</ele><time>2026-04-11T18:15:02Z</time></trkpt><trkpt lat="39.03692832838041" lon="16.440417120594432"><ele>797.0</ele><time>2026-04-11T18:15:03Z</time></trkpt><trkpt lat="39.037016168819086" lon="16.440347974724997"><ele>797.0</ele><time>2026-04-11T18:15:04Z</time></trkpt><trkpt lat="39.037116844165226" lon="16.440298382694255"><ele>797.0</ele><time>2026-04-11T18:15:05Z</time></trkpt><trkpt lat="39.037228382504715" lon="16.44026054883138"><ele>799.0</ele><time>2026-04-11T18:15:06Z</time></trkpt><trkpt lat="39.03734061770839" lon="16.440219041952577"><ele>801.0</ele><time>2026-04-11T18:15:07Z</time></trkpt><trkpt lat="39.037453756757316" lon="16.440176169055356"><ele>803.0</ele><time>2026-04-11T18:15:08Z</time></trkpt><trkpt lat="39.037562884674855" lon="16.440137726400906"><ele>805.0</ele><time>2026-04-11T18:15:09Z</time></trkpt><trkpt lat="39.03766630304875" lon="16.440097529402003"><ele>805.0</ele><time>2026-04-11T18:15:10Z</time></trkpt><trkpt lat="39.03775439815232" lon="16.440066583792262"><ele>805.0</ele><time>2026-04-11T18:15:11Z</time></trkpt><trkpt lat="39.037845217056" lon="16.440051854592056"><ele>805.0</ele><time>2026-04-11T18:15:12Z</time></trkpt><trkpt lat="39.03794176143203" lon="16.440064924525355"><ele>805.0</ele><time>2026-04-11T18:15:13Z</time></trkpt><trkpt lat="39.03804163901073" lon="16.44012341111701"><ele>805.0</ele><time>2026-04-11T18:15:14Z</time></trkpt><trkpt lat="39.03814866852716" lon="16.440178082057372"><ele>805.0</ele><time>2026-04-11T18:15:15Z</time></trkpt><trkpt lat="39.038258859575784" lon="16.44023075725518"><ele>805.0</ele><time>2026-04-11T18:15:16Z</time></trkpt><trkpt lat="39.038366987500154" lon="16.440282110438535"><ele>805.0</ele><time>2026-04-11T18:15:17Z</time></trkpt><trkpt lat="39.03848691413591" lon="16.440316420439714"><ele>805.0</ele><time>2026-04-11T18:15:18Z</time></trkpt><trkpt lat="39.038600630361096" lon="16.44037031303274"><ele>807.0</ele><time>2026-04-11T18:15:19Z</time></trkpt><trkpt lat="39.03870344659013" lon="16.44044190498017"><ele>809.0</ele><time>2026-04-11T18:15:20Z</time></trkpt><trkpt lat="39.038813116559346" lon="16.440490364459922"><ele>811.0</ele><time>2026-04-11T18:15:21Z</time></trkpt><trkpt lat="39.038930139747904" lon="16.440503239567352"><ele>813.0</ele><time>2026-04-11T18:15:22Z</time></trkpt><trkpt lat="39.039051410225206" lon="16.440501898972524"><ele>812.5999999999999</ele><time>2026-04-11T18:15:23Z</time></trkpt><trkpt lat="39.03917377074889" lon="16.440459082448694"><ele>812.1999999999999</ele><time>2026-04-11T18:15:24Z</time></trkpt><trkpt lat="39.03928048153802" lon="16.44039288377296"><ele>811.8</ele><time>2026-04-11T18:15:25Z</time></trkpt><trkpt lat="39.0393671333272" lon="16.440362949522246"><ele>811.4</ele><time>2026-04-11T18:15:26Z</time></trkpt><trkpt lat="39.039440698483205" lon="16.440367477889684"><ele>811.0</ele><time>2026-04-11T18:15:27Z</time></trkpt><trkpt lat="39.03950422003024" lon="16.440402583967817"><ele>815.4999999999999</ele><time>2026-04-11T18:15:28Z</time></trkpt><trkpt lat="39.0395263914741" lon="16.440550359706027"><ele>820.0</ele><time>2026-04-11T18:15:30Z</time></trkpt><trkpt lat="39.039489944711676" lon="16.440627566439986"><ele>824.5</ele><time>2026-04-11T18:15:31Z</time></trkpt><trkpt lat="39.03942187206236" lon="16.440684387309112"><ele>829.0</ele><time>2026-04-11T18:15:32Z</time></trkpt><trkpt lat="39.03934243758153" lon="16.440693486916267"><ele>833.4999999999999</ele><time>2026-04-11T18:15:33Z</time></trkpt><trkpt lat="39.03924672022429" lon="16.440674937291924"><ele>838.0</ele><time>2026-04-11T18:15:34Z</time></trkpt><trkpt lat="39.039151990454954" lon="16.440667925404348"><ele>837.25</ele><time>2026-04-11T18:15:35Z</time></trkpt><trkpt lat="39.03904175529349" lon="16.44068009302502"><ele>836.5</ele><time>2026-04-11T18:15:36Z</time></trkpt><trkpt lat="39.03892662864078" lon="16.440706432452373"><ele>835.75</ele><time>2026-04-11T18:15:37Z</time></trkpt><trkpt lat="39.03881095746862" lon="16.440717490473578"><ele>835.0</ele><time>2026-04-11T18:15:38Z</time></trkpt><trkpt lat="39.03868946458589" lon="16.44070766573668"><ele>835.0</ele><time>2026-04-11T18:15:39Z</time></trkpt><trkpt lat="39.038561944026206" lon="16.440689703060475"><ele>835.0</ele><time>2026-04-11T18:15:40Z</time></trkpt><trkpt lat="39.03844568424175" lon="16.440684077277712"><ele>835.0</ele><time>2026-04-11T18:15:41Z</time></trkpt><trkpt lat="39.03832426547744" lon="16.440677828394573"><ele>835.0</ele><time>2026-04-11T18:15:42Z</time></trkpt><trkpt lat="39.03820603234109" lon="16.440674654741716"><ele>832.4</ele><time>2026-04-11T18:15:43Z</time></trkpt><trkpt lat="39.03809364433526" lon="16.440672748784714"><ele>829.8</ele><time>2026-04-11T18:15:44Z</time></trkpt><trkpt lat="39.03799452893009" lon="16.440697663333964"><ele>827.2</ele><time>2026-04-11T18:15:45Z</time></trkpt><trkpt lat="39.03790176501088" lon="16.44075682964019"><ele>824.6</ele><time>2026-04-11T18:15:46Z</time></trkpt><trkpt lat="39.037813607787996" lon="16.44084583012058"><ele>822.0</ele><time>2026-04-11T18:15:47Z</time></trkpt><trkpt lat="39.03773894686717" lon="16.440960346159606"><ele>822.0</ele><time>2026-04-11T18:15:48Z</time></trkpt><trkpt lat="39.037682031375525" lon="16.441083203347777"><ele>822.0</ele><time>2026-04-11T18:15:49Z</time></trkpt><trkpt lat="39.037650617638086" lon="16.44120814421078"><ele>822.0</ele><time>2026-04-11T18:15:50Z</time></trkpt><trkpt lat="39.037633343808714" lon="16.44131983024609"><ele>822.0</ele><time>2026-04-11T18:15:51Z</time></trkpt><trkpt lat="39.03770462130952" lon="16.441411222481438"><ele>822.0</ele><time>2026-04-11T18:15:52Z</time></trkpt><trkpt lat="39.03777542090504" lon="16.441468067876723"><ele>822.0</ele><time>2026-04-11T18:15:53Z</time></trkpt><trkpt lat="39.03786823044818" lon="16.441477731745586"><ele>822.0</ele><time>2026-04-11T18:15:54Z</time></trkpt><trkpt lat="39.03795893397908" lon="16.441436687626414"><ele>822.0</ele><time>2026-04-11T18:15:55Z</time></trkpt><trkpt lat="39.038033044049946" lon="16.44135261728269"><ele>822.0</ele><time>2026-04-11T18:15:56Z</time></trkpt><trkpt lat="39.03808457737331" lon="16.44123803831292"><ele>822.0</ele><time>2026-04-11T18:15:57Z</time></trkpt><trkpt lat="39.038132502122295" lon="16.44112517399129"><ele>822.0</ele><time>2026-04-11T18:15:58Z</time></trkpt><trkpt lat="39.038192653601726" lon="16.441052066143264"><ele>822.0</ele><time>2026-04-11T18:15:59Z</time></trkpt><trkpt lat="39.03827823993505" lon="16.441032433004132"><ele>822.0</ele><time>2026-04-11T18:16:00Z</time></trkpt><trkpt lat="39.038372064953585" lon="16.4411058167737"><ele>822.0</ele><time>2026-04-11T18:16:01Z</time></trkpt><trkpt lat="39.03846353431345" lon="16.44114922131057"><ele>822.0</ele><time>2026-04-11T18:16:02Z</time></trkpt><trkpt lat="39.038555587504625" lon="16.441202632247954"><ele>824.6</ele><time>2026-04-11T18:16:03Z</time></trkpt><trkpt lat="39.03864407815981" lon="16.441259279908383"><ele>827.2</ele><time>2026-04-11T18:16:04Z</time></trkpt><trkpt lat="39.038739505175776" lon="16.441323333386073"><ele>829.8</ele><time>2026-04-11T18:16:05Z</time></trkpt><trkpt lat="39.03883042430377" lon="16.441388477988315"><ele>832.4</ele><time>2026-04-11T18:16:06Z</time></trkpt><trkpt lat="39.03892436678854" lon="16.441443535998552"><ele>835.0</ele><time>2026-04-11T18:16:07Z</time></trkpt><trkpt lat="39.039024124402296" lon="16.441459238094673"><ele>835.6</ele><time>2026-04-11T18:16:08Z</time></trkpt><trkpt lat="39.03912638425381" lon="16.441457910265903"><ele>836.2</ele><time>2026-04-11T18:16:09Z</time></trkpt><trkpt lat="39.03923820927334" lon="16.44144061303295"><ele>836.8</ele><time>2026-04-11T18:16:10Z</time></trkpt><trkpt lat="39.03935247629069" lon="16.441428542160445"><ele>837.4</ele><time>2026-04-11T18:16:11Z</time></trkpt><trkpt lat="39.03947093547121" lon="16.441429530992576"><ele>838.0</ele><time>2026-04-11T18:16:12Z</time></trkpt><trkpt lat="39.03959425018778" lon="16.44143155884758"><ele>840.5</ele><time>2026-04-11T18:16:13Z</time></trkpt><trkpt lat="39.03971835353503" lon="16.441429568871282"><ele>843.0</ele><time>2026-04-11T18:16:14Z</time></trkpt><trkpt lat="39.039844668408385" lon="16.441381193194708"><ele>845.5</ele><time>2026-04-11T18:16:15Z</time></trkpt><trkpt lat="39.03996913938969" lon="16.441344942521496"><ele>848.0</ele><time>2026-04-11T18:16:16Z</time></trkpt><trkpt lat="39.040088370056274" lon="16.4413140535369"><ele>847.75</ele><time>2026-04-11T18:16:17Z</time></trkpt><trkpt lat="39.040210785408526" lon="16.44128800890666"><ele>847.5</ele><time>2026-04-11T18:16:18Z</time></trkpt><trkpt lat="39.04032561724595" lon="16.441283277917254"><ele>847.25</ele><time>2026-04-11T18:16:19Z</time></trkpt><trkpt lat="39.04043749822526" lon="16.44132054898785"><ele>847.0</ele><time>2026-04-11T18:16:20Z</time></trkpt><trkpt lat="39.040555699116375" lon="16.441348444876855"><ele>850.4000000000001</ele><time>2026-04-11T18:16:21Z</time></trkpt><trkpt lat="39.04066857601399" lon="16.44133992066711"><ele>853.8000000000001</ele><time>2026-04-11T18:16:22Z</time></trkpt><trkpt lat="39.04076652498091" lon="16.4413508442028"><ele>857.2</ele><time>2026-04-11T18:16:23Z</time></trkpt><trkpt lat="39.04084470309712" lon="16.44138888426079"><ele>860.6</ele><time>2026-04-11T18:16:24Z</time></trkpt><trkpt lat="39.04093677542454" lon="16.441462714310042"><ele>864.0</ele><time>2026-04-11T18:16:26Z</time></trkpt><trkpt lat="39.040904784476496" lon="16.441608843105286"><ele>864.0</ele><time>2026-04-11T18:16:28Z</time></trkpt><trkpt lat="39.04083598240558" lon="16.441657267825306"><ele>864.0</ele><time>2026-04-11T18:16:29Z</time></trkpt><trkpt lat="39.04075734369704" lon="16.441668000428187"><ele>864.0</ele><time>2026-04-11T18:16:30Z</time></trkpt><trkpt lat="39.0406805909968" lon="16.441629468341585"><ele>864.0</ele><time>2026-04-11T18:16:31Z</time></trkpt><trkpt lat="39.04058777296649" lon="16.441583571432698"><ele>864.0</ele><time>2026-04-11T18:16:32Z</time></trkpt><trkpt lat="39.04048930516717" lon="16.441566890297185"><ele>864.0</ele><time>2026-04-11T18:16:33Z</time></trkpt><trkpt lat="39.040388397867815" lon="16.44159383297223"><ele>864.0</ele><time>2026-04-11T18:16:34Z</time></trkpt><trkpt lat="39.040293443879634" lon="16.44165716680194"><ele>864.0000000000001</ele><time>2026-04-11T18:16:35Z</time></trkpt><trkpt lat="39.04020590514907" lon="16.4417495964266"><ele>864.0000000000001</ele><time>2026-04-11T18:16:36Z</time></trkpt><trkpt lat="39.04011839641915" lon="16.441826911521055"><ele>864.0</ele><time>2026-04-11T18:16:37Z</time></trkpt><trkpt lat="39.04004387936235" lon="16.44190055432762"><ele>864.0</ele><time>2026-04-11T18:16:38Z</time></trkpt><trkpt lat="39.039971740835476" lon="16.44197240749379"><ele>864.1666666666666</ele><time>2026-04-11T18:16:39Z</time></trkpt><trkpt lat="39.0399486335596" lon="16.442084565363945"><ele>864.3333333333333</ele><time>2026-04-11T18:16:40Z</time></trkpt><trkpt lat="39.03996974714153" lon="16.442207317044687"><ele>864.5</ele><time>2026-04-11T18:16:41Z</time></trkpt><trkpt lat="39.040034831808086" lon="16.442286540443256"><ele>864.6666666666666</ele><time>2026-04-11T18:16:42Z</time></trkpt><trkpt lat="39.04012369551481" lon="16.442306668549328"><ele>864.8333333333333</ele><time>2026-04-11T18:16:43Z</time></trkpt><trkpt lat="39.040203099109" lon="16.442291684412048"><ele>865.0</ele><time>2026-04-11T18:16:44Z</time></trkpt><trkpt lat="39.04026406876595" lon="16.442228621121117"><ele>864.8</ele><time>2026-04-11T18:16:45Z</time></trkpt><trkpt lat="39.04031520643334" lon="16.442125079477027"><ele>864.6</ele><time>2026-04-11T18:16:46Z</time></trkpt><trkpt lat="39.04036891090243" lon="16.442024577748697"><ele>864.4000000000001</ele><time>2026-04-11T18:16:47Z</time></trkpt><trkpt lat="39.04044562594115" lon="16.441933475015723"><ele>864.2</ele><time>2026-04-11T18:16:48Z</time></trkpt><trkpt lat="39.04054108068093" lon="16.441875982000898"><ele>864.0</ele><time>2026-04-11T18:16:49Z</time></trkpt><trkpt lat="39.040638800405574" lon="16.441863347330024"><ele>864.0</ele><time>2026-04-11T18:16:50Z</time></trkpt><trkpt lat="39.04073518106805" lon="16.44190077456291"><ele>864.0</ele><time>2026-04-11T18:16:51Z</time></trkpt><trkpt lat="39.04084997664686" lon="16.441917273736507"><ele>864.0</ele><time>2026-04-11T18:16:52Z</time></trkpt><trkpt lat="39.040964110958704" lon="16.441939804932137"><ele>864.0</ele><time>2026-04-11T18:16:53Z</time></trkpt><trkpt lat="39.04108117396595" lon="16.441967465588252"><ele>866.75</ele><time>2026-04-11T18:16:54Z</time></trkpt><trkpt lat="39.04120444185281" lon="16.441941003486065"><ele>869.5</ele><time>2026-04-11T18:16:55Z</time></trkpt><trkpt lat="39.04133586600263" lon="16.441932543748948"><ele>872.25</ele><time>2026-04-11T18:16:56Z</time></trkpt><trkpt lat="39.04146054131221" lon="16.44191727190513"><ele>875.0</ele><time>2026-04-11T18:16:57Z</time></trkpt><trkpt lat="39.04158590822999" lon="16.441910047974105"><ele>875.6</ele><time>2026-04-11T18:16:58Z</time></trkpt><trkpt lat="39.04168838287752" lon="16.44190002369678"><ele>876.2</ele><time>2026-04-11T18:16:59Z</time></trkpt><trkpt lat="39.04179346952406" lon="16.44191354987822"><ele>876.8</ele><time>2026-04-11T18:17:00Z</time></trkpt><trkpt lat="39.04190256275589" lon="16.44195680678928"><ele>877.4</ele><time>2026-04-11T18:17:01Z</time></trkpt><trkpt lat="39.04201781909018" lon="16.442005868378413"><ele>878.0</ele><time>2026-04-11T18:17:02Z</time></trkpt><trkpt lat="39.04214115316772" lon="16.442061764066246"><ele>878.0</ele><time>2026-04-11T18:17:03Z</time></trkpt><trkpt lat="39.042260167943134" lon="16.44211616946171"><ele>878.0</ele><time>2026-04-11T18:17:04Z</time></trkpt><trkpt lat="39.042373456041055" lon="16.44216666725818"><ele>878.0</ele><time>2026-04-11T18:17:05Z</time></trkpt><trkpt lat="39.042476612036054" lon="16.442212009164642"><ele>878.0</ele><time>2026-04-11T18:17:06Z</time></trkpt><trkpt lat="39.042556093118776" lon="16.442280967150595"><ele>882.0</ele><time>2026-04-11T18:17:07Z</time></trkpt><trkpt lat="39.042634175643194" lon="16.44235092348041"><ele>886.0</ele><time>2026-04-11T18:17:08Z</time></trkpt><trkpt lat="39.04269851090772" lon="16.442453968471604"><ele>890.0</ele><time>2026-04-11T18:17:09Z</time></trkpt><trkpt lat="39.04276068006081" lon="16.442584182006794"><ele>894.0</ele><time>2026-04-11T18:17:10Z</time></trkpt><trkpt lat="39.04281728929584" lon="16.44272997149717"><ele>898.0</ele><time>2026-04-11T18:17:11Z</time></trkpt><trkpt lat="39.04286269236693" lon="16.442875456406004"><ele>900.4</ele><time>2026-04-11T18:17:12Z</time></trkpt><trkpt lat="39.04290136774136" lon="16.443026551747042"><ele>902.8</ele><time>2026-04-11T18:17:13Z</time></trkpt><trkpt lat="39.04291272195077" lon="16.443167804278726"><ele>905.2</ele><time>2026-04-11T18:17:14Z</time></trkpt><trkpt lat="39.04290697226471" lon="16.443291679509525"><ele>907.6</ele><time>2026-04-11T18:17:15Z</time></trkpt><trkpt lat="39.0428928611401" lon="16.443415218046674"><ele>910.0</ele><time>2026-04-11T18:17:16Z</time></trkpt><trkpt lat="39.04288340436341" lon="16.44354127534304"><ele>910.0</ele><time>2026-04-11T18:17:17Z</time></trkpt><trkpt lat="39.04289991901635" lon="16.44365461951855"><ele>910.0</ele><time>2026-04-11T18:17:18Z</time></trkpt><trkpt lat="39.04296289972569" lon="16.44377289237074"><ele>910.0</ele><time>2026-04-11T18:17:19Z</time></trkpt><trkpt lat="39.043039867983445" lon="16.443860088267947"><ele>910.0</ele><time>2026-04-11T18:17:20Z</time></trkpt><trkpt lat="39.043141382316016" lon="16.44392620426309"><ele>910.0</ele><time>2026-04-11T18:17:21Z</time></trkpt><trkpt lat="39.0432511966516" lon="16.443972211046752"><ele>908.25</ele><time>2026-04-11T18:17:22Z</time></trkpt><trkpt lat="39.043363656625374" lon="16.444025019851292"><ele>906.5</ele><time>2026-04-11T18:17:23Z</time></trkpt><trkpt lat="39.043472927402604" lon="16.444084863037855"><ele>904.75</ele><time>2026-04-11T18:17:24Z</time></trkpt><trkpt lat="39.0435808492076" lon="16.444157808069626"><ele>903.0</ele><time>2026-04-11T18:17:25Z</time></trkpt><trkpt lat="39.04367777016767" lon="16.44426855780714"><ele>903.0</ele><time>2026-04-11T18:17:26Z</time></trkpt><trkpt lat="39.043768050837194" lon="16.444369257827937"><ele>903.0</ele><time>2026-04-11T18:17:27Z</time></trkpt><trkpt lat="39.04386544305705" lon="16.44444491936144"><ele>903.0</ele><time>2026-04-11T18:17:28Z</time></trkpt><trkpt lat="39.043956518308676" lon="16.44451494885161"><ele>903.0</ele><time>2026-04-11T18:17:29Z</time></trkpt><trkpt lat="39.04406097025471" lon="16.444559888253135"><ele>903.0</ele><time>2026-04-11T18:17:30Z</time></trkpt><trkpt lat="39.04417254909771" lon="16.44457926710411"><ele>904.0</ele><time>2026-04-11T18:17:31Z</time></trkpt><trkpt lat="39.04429016720975" lon="16.44456972266957"><ele>905.0</ele><time>2026-04-11T18:17:32Z</time></trkpt><trkpt lat="39.04440559165113" lon="16.44453654163666"><ele>906.0</ele><time>2026-04-11T18:17:33Z</time></trkpt><trkpt lat="39.04450804684357" lon="16.44450685263131"><ele>907.0</ele><time>2026-04-11T18:17:34Z</time></trkpt><trkpt lat="39.04459137235434" lon="16.444540593286302"><ele>908.0</ele><time>2026-04-11T18:17:35Z</time></trkpt><trkpt lat="39.04465595215367" lon="16.444603808704105"><ele>909.5999999999999</ele><time>2026-04-11T18:17:36Z</time></trkpt><trkpt lat="39.044716683364264" lon="16.444697603495445"><ele>911.1999999999999</ele><time>2026-04-11T18:17:37Z</time></trkpt><trkpt lat="39.04472315428448" lon="16.44484245469535"><ele>912.8</ele><time>2026-04-11T18:17:38Z</time></trkpt><trkpt lat="39.04476452571775" lon="16.444974201091817"><ele>914.4</ele><time>2026-04-11T18:17:39Z</time></trkpt><trkpt lat="39.044803087121736" lon="16.445081803774105"><ele>916.0</ele><time>2026-04-11T18:17:40Z</time></trkpt><trkpt lat="39.0448543100616" lon="16.44516293841594"><ele>916.0</ele><time>2026-04-11T18:17:41Z</time></trkpt><trkpt lat="39.04491405478165" lon="16.44522833930895"><ele>915.9999999999999</ele><time>2026-04-11T18:17:42Z</time></trkpt><trkpt lat="39.04501148116782" lon="16.44522455294029"><ele>915.9999999999999</ele><time>2026-04-11T18:17:43Z</time></trkpt><trkpt lat="39.04508730078782" lon="16.44520029251399"><ele>916.0</ele><time>2026-04-11T18:17:44Z</time></trkpt><trkpt lat="39.045169210622404" lon="16.44512380721185"><ele>916.0</ele><time>2026-04-11T18:17:45Z</time></trkpt><trkpt lat="39.045231915235476" lon="16.445020208730057"><ele>918.3333333333333</ele><time>2026-04-11T18:17:46Z</time></trkpt><trkpt lat="39.04528748719484" lon="16.44491368665593"><ele>920.6666666666666</ele><time>2026-04-11T18:17:47Z</time></trkpt><trkpt lat="39.045343958365365" lon="16.444828189378335"><ele>923.0</ele><time>2026-04-11T18:17:48Z</time></trkpt><trkpt lat="39.045409400342585" lon="16.444783101956865"><ele>925.3333333333333</ele><time>2026-04-11T18:17:49Z</time></trkpt><trkpt lat="39.04549686451932" lon="16.444779279304157"><ele>927.6666666666666</ele><time>2026-04-11T18:17:50Z</time></trkpt><trkpt lat="39.0455734159458" lon="16.4448393346073"><ele>930.0</ele><time>2026-04-11T18:17:51Z</time></trkpt><trkpt lat="39.04562582737173" lon="16.444935144022434"><ele>930.0</ele><time>2026-04-11T18:17:52Z</time></trkpt><trkpt lat="39.04561757914196" lon="16.445058998906465"><ele>930.0</ele><time>2026-04-11T18:17:53Z</time></trkpt><trkpt lat="39.04560319814979" lon="16.445156826866658"><ele>930.0</ele><time>2026-04-11T18:17:54Z</time></trkpt><trkpt lat="39.04553474378334" lon="16.44524844801822"><ele>930.0</ele><time>2026-04-11T18:17:55Z</time></trkpt><trkpt lat="39.04544191718577" lon="16.445298374770815"><ele>930.0</ele><time>2026-04-11T18:17:56Z</time></trkpt><trkpt lat="39.045364048676134" lon="16.445379832776236"><ele>929.0</ele><time>2026-04-11T18:17:57Z</time></trkpt><trkpt lat="39.045278661332915" lon="16.44546358163311"><ele>928.0</ele><time>2026-04-11T18:17:58Z</time></trkpt><trkpt lat="39.04519110761384" lon="16.44555692230285"><ele>927.0</ele><time>2026-04-11T18:17:59Z</time></trkpt><trkpt lat="39.045103898620766" lon="16.445644564849275"><ele>926.0</ele><time>2026-04-11T18:18:00Z</time></trkpt><trkpt lat="39.04501635397803" lon="16.44572614282089"><ele>925.0</ele><time>2026-04-11T18:18:01Z</time></trkpt><trkpt lat="39.04493113354891" lon="16.445809073199943"><ele>925.0</ele><time>2026-04-11T18:18:02Z</time></trkpt><trkpt lat="39.044850588233025" lon="16.445890173961715"><ele>925.0</ele><time>2026-04-11T18:18:03Z</time></trkpt><trkpt lat="39.04477421611804" lon="16.44596332300521"><ele>925.0</ele><time>2026-04-11T18:18:04Z</time></trkpt><trkpt lat="39.044711562803776" lon="16.44604198147059"><ele>925.0</ele><time>2026-04-11T18:18:05Z</time></trkpt><trkpt lat="39.0446667974026" lon="16.446148389920534"><ele>925.0</ele><time>2026-04-11T18:18:06Z</time></trkpt><trkpt lat="39.04465842032723" lon="16.446281999873477"><ele>927.4</ele><time>2026-04-11T18:18:07Z</time></trkpt><trkpt lat="39.04466245110871" lon="16.446409601572665"><ele>929.8</ele><time>2026-04-11T18:18:08Z</time></trkpt><trkpt lat="39.044688952525135" lon="16.4465404949801"><ele>932.2</ele><time>2026-04-11T18:18:09Z</time></trkpt><trkpt lat="39.04471122507372" lon="16.446672373638282"><ele>934.6</ele><time>2026-04-11T18:18:10Z</time></trkpt><trkpt lat="39.04473566460967" lon="16.44681728411838"><ele>937.0</ele><time>2026-04-11T18:18:11Z</time></trkpt><trkpt lat="39.044760616588924" lon="16.44696961669479"><ele>937.0</ele><time>2026-04-11T18:18:12Z</time></trkpt><trkpt lat="39.044785800636646" lon="16.447124451948426"><ele>937.0</ele><time>2026-04-11T18:18:13Z</time></trkpt><trkpt lat="39.04481159295293" lon="16.4472824417582"><ele>937.0</ele><time>2026-04-11T18:18:14Z</time></trkpt><trkpt lat="39.04485214125531" lon="16.447437944345097"><ele>937.0</ele><time>2026-04-11T18:18:15Z</time></trkpt><trkpt lat="39.044862259247104" lon="16.447592796196208"><ele>939.0</ele><time>2026-04-11T18:18:16Z</time></trkpt><trkpt lat="39.04488743390857" lon="16.447743703537153"><ele>941.0</ele><time>2026-04-11T18:18:17Z</time></trkpt><trkpt lat="39.04491445227051" lon="16.44789522188192"><ele>943.0</ele><time>2026-04-11T18:18:18Z</time></trkpt><trkpt lat="39.04494253242415" lon="16.448041417801264"><ele>945.0</ele><time>2026-04-11T18:18:19Z</time></trkpt><trkpt lat="39.04498200565942" lon="16.448178307044518"><ele>946.0</ele><time>2026-04-11T18:18:20Z</time></trkpt><trkpt lat="39.04503961138728" lon="16.44830381070744"><ele>947.0</ele><time>2026-04-11T18:18:21Z</time></trkpt><trkpt lat="39.04511270848029" lon="16.448425000671886"><ele>948.0</ele><time>2026-04-11T18:18:22Z</time></trkpt><trkpt lat="39.04520874765448" lon="16.448531256967"><ele>949.0</ele><time>2026-04-11T18:18:23Z</time></trkpt><trkpt lat="39.04529065328569" lon="16.448641699308045"><ele>949.0</ele><time>2026-04-11T18:18:24Z</time></trkpt><trkpt lat="39.04536680878134" lon="16.44875227325841"><ele>949.0</ele><time>2026-04-11T18:18:25Z</time></trkpt><trkpt lat="39.04544051523929" lon="16.448870203674602"><ele>949.0</ele><time>2026-04-11T18:18:26Z</time></trkpt><trkpt lat="39.04550247338235" lon="16.448993282711704"><ele>949.0</ele><time>2026-04-11T18:18:27Z</time></trkpt><trkpt lat="39.04553119789232" lon="16.44913910268078"><ele>950.0</ele><time>2026-04-11T18:18:28Z</time></trkpt><trkpt lat="39.04558380762481" lon="16.449276848890904"><ele>951.0</ele><time>2026-04-11T18:18:29Z</time></trkpt><trkpt lat="39.04562223391764" lon="16.449424662563032"><ele>952.0</ele><time>2026-04-11T18:18:30Z</time></trkpt><trkpt lat="39.04565856729579" lon="16.449576645742482"><ele>953.0</ele><time>2026-04-11T18:18:31Z</time></trkpt><trkpt lat="39.045687192283005" lon="16.449735976984396"><ele>955.25</ele><time>2026-04-11T18:18:32Z</time></trkpt><trkpt lat="39.04570368737915" lon="16.449900687130008"><ele>957.5</ele><time>2026-04-11T18:18:33Z</time></trkpt><trkpt lat="39.04571815613267" lon="16.450063295691713"><ele>959.75</ele><time>2026-04-11T18:18:34Z</time></trkpt><trkpt lat="39.04572854096216" lon="16.450219588427107"><ele>962.0</ele><time>2026-04-11T18:18:35Z</time></trkpt><trkpt lat="39.04573084272266" lon="16.450370532734986"><ele>963.5</ele><time>2026-04-11T18:18:36Z</time></trkpt><trkpt lat="39.045713633559345" lon="16.450518470864044"><ele>965.0</ele><time>2026-04-11T18:18:37Z</time></trkpt><trkpt lat="39.04567091099094" lon="16.45065777074347"><ele>966.5</ele><time>2026-04-11T18:18:38Z</time></trkpt><trkpt lat="39.04565601019969" lon="16.450807252981797"><ele>968.0</ele><time>2026-04-11T18:18:39Z</time></trkpt><trkpt lat="39.04563125200437" lon="16.450941470801183"><ele>968.0</ele><time>2026-04-11T18:18:40Z</time></trkpt><trkpt lat="39.04561218083461" lon="16.451063056558972"><ele>968.0</ele><time>2026-04-11T18:18:41Z</time></trkpt><trkpt lat="39.04559444606843" lon="16.451188932997237"><ele>968.0</ele><time>2026-04-11T18:18:42Z</time></trkpt><trkpt lat="39.04558327399396" lon="16.45132513879415"><ele>968.0</ele><time>2026-04-11T18:18:43Z</time></trkpt><trkpt lat="39.04557743812784" lon="16.45146911489416"><ele>968.0</ele><time>2026-04-11T18:18:44Z</time></trkpt><trkpt lat="39.0455772382006" lon="16.4516124301791"><ele>968.8</ele><time>2026-04-11T18:18:45Z</time></trkpt><trkpt lat="39.04558293183893" lon="16.45174934308647"><ele>969.5999999999999</ele><time>2026-04-11T18:18:46Z</time></trkpt><trkpt lat="39.04559958396937" lon="16.4518841082095"><ele>970.4000000000001</ele><time>2026-04-11T18:18:47Z</time></trkpt><trkpt lat="39.045630686063" lon="16.45201469629482"><ele>971.2</ele><time>2026-04-11T18:18:48Z</time></trkpt><trkpt lat="39.04566171343638" lon="16.452141856025474"><ele>972.0</ele><time>2026-04-11T18:18:49Z</time></trkpt><trkpt lat="39.04568870991496" lon="16.452278572804776"><ele>972.6</ele><time>2026-04-11T18:18:50Z</time></trkpt><trkpt lat="39.045706309186386" lon="16.45242122504476"><ele>973.2</ele><time>2026-04-11T18:18:51Z</time></trkpt><trkpt lat="39.04571667442959" lon="16.452560639818238"><ele>973.8</ele><time>2026-04-11T18:18:52Z</time></trkpt><trkpt lat="39.04571770332554" lon="16.452687130571878"><ele>974.4</ele><time>2026-04-11T18:18:53Z</time></trkpt><trkpt lat="39.04570651070616" lon="16.452807249199005"><ele>975.0</ele><time>2026-04-11T18:18:54Z</time></trkpt><trkpt lat="39.04569495775037" lon="16.452919888545328"><ele>975.3333333333334</ele><time>2026-04-11T18:18:55Z</time></trkpt><trkpt lat="39.04568005863908" lon="16.45302736905179"><ele>975.6666666666667</ele><time>2026-04-11T18:18:56Z</time></trkpt><trkpt lat="39.04566510765847" lon="16.4531390580426"><ele>976.0</ele><time>2026-04-11T18:18:57Z</time></trkpt><trkpt lat="39.045655015583534" lon="16.453228753489228"><ele>976.3333333333334</ele><time>2026-04-11T18:18:58Z</time></trkpt><trkpt lat="39.045656815524204" lon="16.453327687477334"><ele>976.6666666666667</ele><time>2026-04-11T18:18:59Z</time></trkpt><trkpt lat="39.04567759514506" lon="16.45342718574124"><ele>977.0</ele><time>2026-04-11T18:19:00Z</time></trkpt><trkpt lat="39.04572509441244" lon="16.453535641055733"><ele>975.5</ele><time>2026-04-11T18:19:01Z</time></trkpt><trkpt lat="39.04580245647865" lon="16.453638358272027"><ele>974.0</ele><time>2026-04-11T18:19:02Z</time></trkpt><trkpt lat="39.04590380499185" lon="16.45372930495496"><ele>972.5</ele><time>2026-04-11T18:19:03Z</time></trkpt><trkpt lat="39.04601816113074" lon="16.45381311263643"><ele>971.0</ele><time>2026-04-11T18:19:04Z</time></trkpt><trkpt lat="39.04613016525174" lon="16.453895213685623"><ele>970.75</ele><time>2026-04-11T18:19:05Z</time></trkpt><trkpt lat="39.046246373252764" lon="16.45397891801565"><ele>970.5</ele><time>2026-04-11T18:19:06Z</time></trkpt><trkpt lat="39.04636062789375" lon="16.454063916349487"><ele>970.25</ele><time>2026-04-11T18:19:07Z</time></trkpt><trkpt lat="39.04647786519391" lon="16.454156392248795"><ele>970.0</ele><time>2026-04-11T18:19:08Z</time></trkpt><trkpt lat="39.04659800742479" lon="16.454241809229856"><ele>969.0</ele><time>2026-04-11T18:19:09Z</time></trkpt><trkpt lat="39.046716439516004" lon="16.454323990398617"><ele>968.0</ele><time>2026-04-11T18:19:10Z</time></trkpt><trkpt lat="39.04683276739695" lon="16.454394518563735"><ele>967.0</ele><time>2026-04-11T18:19:11Z</time></trkpt><trkpt lat="39.04694880289156" lon="16.454462639096672"><ele>966.0</ele><time>2026-04-11T18:19:12Z</time></trkpt><trkpt lat="39.04706521556784" lon="16.454521234148615"><ele>966.0</ele><time>2026-04-11T18:19:13Z</time></trkpt><trkpt lat="39.047193649126115" lon="16.45458218871068"><ele>966.0</ele><time>2026-04-11T18:19:14Z</time></trkpt><trkpt lat="39.04731923305803" lon="16.45463685640283"><ele>966.0</ele><time>2026-04-11T18:19:15Z</time></trkpt><trkpt lat="39.047448395293586" lon="16.454684752059507"><ele>966.0</ele><time>2026-04-11T18:19:16Z</time></trkpt><trkpt lat="39.047568796307324" lon="16.454729308791478"><ele>966.75</ele><time>2026-04-11T18:19:17Z</time></trkpt><trkpt lat="39.047686552748786" lon="16.454763424928746"><ele>967.5</ele><time>2026-04-11T18:19:18Z</time></trkpt><trkpt lat="39.047802741853204" lon="16.454783503290802"><ele>968.25</ele><time>2026-04-11T18:19:19Z</time></trkpt><trkpt lat="39.047903964292544" lon="16.454814348684348"><ele>969.0</ele><time>2026-04-11T18:19:20Z</time></trkpt><trkpt lat="39.04801444851225" lon="16.454827233403414"><ele>969.0</ele><time>2026-04-11T18:19:21Z</time></trkpt><trkpt lat="39.04811504454632" lon="16.454847255400864"><ele>969.0</ele><time>2026-04-11T18:19:22Z</time></trkpt><trkpt lat="39.04820653913166" lon="16.454876216233803"><ele>969.0</ele><time>2026-04-11T18:19:23Z</time></trkpt><trkpt lat="39.04829081154082" lon="16.454908150064345"><ele>969.0</ele><time>2026-04-11T18:19:24Z</time></trkpt><trkpt lat="39.04836015775228" lon="16.454958445329495"><ele>969.0</ele><time>2026-04-11T18:19:25Z</time></trkpt><trkpt lat="39.04840214019867" lon="16.455019897205425"><ele>969.0</ele><time>2026-04-11T18:19:26Z</time></trkpt><trkpt lat="39.04848649957287" lon="16.455107841417856"><ele>969.75</ele><time>2026-04-11T18:19:28Z</time></trkpt><trkpt lat="39.04862706828762" lon="16.455044871522006"><ele>970.5</ele><time>2026-04-11T18:19:30Z</time></trkpt><trkpt lat="39.04871059737453" lon="16.45497147798701"><ele>971.25</ele><time>2026-04-11T18:19:31Z</time></trkpt><trkpt lat="39.04880695441589" lon="16.454907079303386"><ele>972.0</ele><time>2026-04-11T18:19:32Z</time></trkpt><trkpt lat="39.04891855120078" lon="16.454839004516234"><ele>972.0</ele><time>2026-04-11T18:19:33Z</time></trkpt><trkpt lat="39.04903584790832" lon="16.454783593084855"><ele>972.0</ele><time>2026-04-11T18:19:34Z</time></trkpt><trkpt lat="39.049158812875646" lon="16.45472916750308"><ele>972.0</ele><time>2026-04-11T18:19:35Z</time></trkpt><trkpt lat="39.04927868740428" lon="16.454670264777537"><ele>972.0</ele><time>2026-04-11T18:19:36Z</time></trkpt><trkpt lat="39.04938805555392" lon="16.454620704660712"><ele>970.75</ele><time>2026-04-11T18:19:37Z</time></trkpt><trkpt lat="39.049500251336" lon="16.454572420779087"><ele>969.5</ele><time>2026-04-11T18:19:38Z</time></trkpt><trkpt lat="39.0496184146847" lon="16.45452872668885"><ele>968.25</ele><time>2026-04-11T18:19:39Z</time></trkpt><trkpt lat="39.04974096781428" lon="16.454521781066553"><ele>967.0</ele><time>2026-04-11T18:19:40Z</time></trkpt><trkpt lat="39.049867692459515" lon="16.454517606385334"><ele>967.75</ele><time>2026-04-11T18:19:41Z</time></trkpt><trkpt lat="39.049996605908206" lon="16.454522837561147"><ele>968.5</ele><time>2026-04-11T18:19:42Z</time></trkpt><trkpt lat="39.05012920052231" lon="16.454523767363938"><ele>969.25</ele><time>2026-04-11T18:19:43Z</time></trkpt><trkpt lat="39.05026615850552" lon="16.45452455169598"><ele>970.0</ele><time>2026-04-11T18:19:44Z</time></trkpt><trkpt lat="39.0504053352384" lon="16.454503841276097"><ele>970.0</ele><time>2026-04-11T18:19:45Z</time></trkpt><trkpt lat="39.05054719780435" lon="16.45452436815112"><ele>970.0</ele><time>2026-04-11T18:19:46Z</time></trkpt><trkpt lat="39.050696014658435" lon="16.45452473419591"><ele>970.0</ele><time>2026-04-11T18:19:47Z</time></trkpt><trkpt lat="39.0508589574453" lon="16.4545056166843"><ele>969.3333333333333</ele><time>2026-04-11T18:19:48Z</time></trkpt><trkpt lat="39.05100392753717" lon="16.454517557458832"><ele>968.6666666666667</ele><time>2026-04-11T18:19:49Z</time></trkpt><trkpt lat="39.05116149671768" lon="16.45451782878884"><ele>968.0</ele><time>2026-04-11T18:19:50Z</time></trkpt><trkpt lat="39.05132003317723" lon="16.454517961617263"><ele>968.0</ele><time>2026-04-11T18:19:51Z</time></trkpt><trkpt lat="39.0514768952305" lon="16.45451458325512"><ele>968.0</ele><time>2026-04-11T18:19:52Z</time></trkpt><trkpt lat="39.05163513966547" lon="16.454515855269065"><ele>968.0</ele><time>2026-04-11T18:19:53Z</time></trkpt><trkpt lat="39.051795440387224" lon="16.45453258089472"><ele>967.0</ele><time>2026-04-11T18:19:54Z</time></trkpt><trkpt lat="39.051957714273215" lon="16.454533549918647"><ele>966.0</ele><time>2026-04-11T18:19:55Z</time></trkpt><trkpt lat="39.05211049503304" lon="16.454534293877586"><ele>965.0</ele><time>2026-04-11T18:19:56Z</time></trkpt><trkpt lat="39.052264052814515" lon="16.454534988470392"><ele>965.0</ele><time>2026-04-11T18:19:57Z</time></trkpt><trkpt lat="39.052417187385274" lon="16.454535068163732"><ele>965.0</ele><time>2026-04-11T18:19:58Z</time></trkpt><trkpt lat="39.05256358062445" lon="16.454535055720243"><ele>965.0</ele><time>2026-04-11T18:19:59Z</time></trkpt><trkpt lat="39.052706821979534" lon="16.45453458153263"><ele>965.0</ele><time>2026-04-11T18:20:00Z</time></trkpt><trkpt lat="39.05284710923839" lon="16.454534117127107"><ele>963.75</ele><time>2026-04-11T18:20:01Z</time></trkpt><trkpt lat="39.052989544521544" lon="16.454533645618266"><ele>962.5</ele><time>2026-04-11T18:20:02Z</time></trkpt><trkpt lat="39.05312039070029" lon="16.454532293553267"><ele>961.25</ele><time>2026-04-11T18:20:03Z</time></trkpt><trkpt lat="39.05324059671397" lon="16.45453123739829"><ele>960.0</ele><time>2026-04-11T18:20:04Z</time></trkpt><trkpt lat="39.05334733962997" lon="16.454526394251786"><ele>959.5</ele><time>2026-04-11T18:20:05Z</time></trkpt><trkpt lat="39.05346684568197" lon="16.454517366991496"><ele>959.0</ele><time>2026-04-11T18:20:06Z</time></trkpt><trkpt lat="39.05358293313539" lon="16.454486367954477"><ele>958.5</ele><time>2026-04-11T18:20:07Z</time></trkpt><trkpt lat="39.05370024980506" lon="16.454495766604893"><ele>958.0</ele><time>2026-04-11T18:20:08Z</time></trkpt><trkpt lat="39.05382099088518" lon="16.454486372261346"><ele>958.0</ele><time>2026-04-11T18:20:09Z</time></trkpt><trkpt lat="39.0539456696302" lon="16.4544786121659"><ele>958.0</ele><time>2026-04-11T18:20:10Z</time></trkpt><trkpt lat="39.05405997340309" lon="16.454472939391255"><ele>958.0</ele><time>2026-04-11T18:20:11Z</time></trkpt><trkpt lat="39.05417781669562" lon="16.454469658932297"><ele>958.0</ele><time>2026-04-11T18:20:12Z</time></trkpt><trkpt lat="39.05429449141088" lon="16.454454629551417"><ele>957.4</ele><time>2026-04-11T18:20:13Z</time></trkpt><trkpt lat="39.054407927911335" lon="16.45450017015271"><ele>956.8</ele><time>2026-04-11T18:20:14Z</time></trkpt><trkpt lat="39.05450719935744" lon="16.454553024918532"><ele>956.2</ele><time>2026-04-11T18:20:15Z</time></trkpt><trkpt lat="39.05460560526284" lon="16.454617960470568"><ele>955.6</ele><time>2026-04-11T18:20:16Z</time></trkpt><trkpt lat="39.0546964577327" lon="16.454693017805855"><ele>955.0</ele><time>2026-04-11T18:20:17Z</time></trkpt><trkpt lat="39.05478157902533" lon="16.45473921292389"><ele>954.9999999999999</ele><time>2026-04-11T18:20:18Z</time></trkpt><trkpt lat="39.05485411360676" lon="16.454744679028238"><ele>955.0</ele><time>2026-04-11T18:20:19Z</time></trkpt><trkpt lat="39.05492513061514" lon="16.45473228397844"><ele>955.0</ele><time>2026-04-11T18:20:20Z</time></trkpt><trkpt lat="39.054979297016644" lon="16.4546665484764"><ele>955.0</ele><time>2026-04-11T18:20:21Z</time></trkpt><trkpt lat="39.05501658366015" lon="16.454579333343673"><ele>954.9999999999999</ele><time>2026-04-11T18:20:22Z</time></trkpt><trkpt lat="39.05505063214943" lon="16.454488629578847"><ele>955.0</ele><time>2026-04-11T18:20:23Z</time></trkpt><trkpt lat="39.05508801054598" lon="16.454402410949744"><ele>954.9999999999999</ele><time>2026-04-11T18:20:24Z</time></trkpt><trkpt lat="39.05511949701192" lon="16.454330626390608"><ele>955.0</ele><time>2026-04-11T18:20:25Z</time></trkpt><trkpt lat="39.05516072304639" lon="16.454246191550215"><ele>955.0</ele><time>2026-04-11T18:20:26Z</time></trkpt><trkpt lat="39.0551991687263" lon="16.45416636589581"><ele>955.0</ele><time>2026-04-11T18:20:27Z</time></trkpt><trkpt lat="39.055231609423444" lon="16.45408035876665"><ele>954.9999999999999</ele><time>2026-04-11T18:20:28Z</time></trkpt><trkpt lat="39.05527773062908" lon="16.45398285752214"><ele>955.0</ele><time>2026-04-11T18:20:29Z</time></trkpt><trkpt lat="39.05532077817766" lon="16.453881900782946"><ele>955.0</ele><time>2026-04-11T18:20:30Z</time></trkpt><trkpt lat="39.05535775087632" lon="16.45379086040912"><ele>955.0</ele><time>2026-04-11T18:20:31Z</time></trkpt><trkpt lat="39.055446193361604" lon="16.45369329267812"><ele>955.0</ele><time>2026-04-11T18:20:33Z</time></trkpt><trkpt lat="39.0555638932184" lon="16.453686803258627"><ele>955.0</ele><time>2026-04-11T18:20:35Z</time></trkpt><trkpt lat="39.05568039819777" lon="16.453728351501262"><ele>955.0</ele><time>2026-04-11T18:20:37Z</time></trkpt><trkpt lat="39.05580486395578" lon="16.4537509644916"><ele>955.2</ele><time>2026-04-11T18:20:39Z</time></trkpt><trkpt lat="39.055873505822326" lon="16.45375752358519"><ele>955.4</ele><time>2026-04-11T18:20:40Z</time></trkpt><trkpt lat="39.05600998823294" lon="16.45373603516717"><ele>955.5999999999999</ele><time>2026-04-11T18:20:42Z</time></trkpt><trkpt lat="39.05609215599372" lon="16.453694692103937"><ele>955.8</ele><time>2026-04-11T18:20:43Z</time></trkpt><trkpt lat="39.05615903100657" lon="16.453625771439604"><ele>956.0</ele><time>2026-04-11T18:20:44Z</time></trkpt><trkpt lat="39.05625058962653" lon="16.453569825984573"><ele>956.0</ele><time>2026-04-11T18:20:45Z</time></trkpt><trkpt lat="39.05633787902535" lon="16.453496789157818"><ele>955.9999999999999</ele><time>2026-04-11T18:20:46Z</time></trkpt><trkpt lat="39.05642100916486" lon="16.453407380178998"><ele>955.9999999999999</ele><time>2026-04-11T18:20:47Z</time></trkpt><trkpt lat="39.05651786428582" lon="16.45334694882146"><ele>956.0</ele><time>2026-04-11T18:20:48Z</time></trkpt><trkpt lat="39.05660650036261" lon="16.453273302882113"><ele>956.0</ele><time>2026-04-11T18:20:49Z</time></trkpt><trkpt lat="39.05669157214018" lon="16.453201513792976"><ele>955.5999999999999</ele><time>2026-04-11T18:20:50Z</time></trkpt><trkpt lat="39.05677776735203" lon="16.45312900074816"><ele>955.1999999999999</ele><time>2026-04-11T18:20:51Z</time></trkpt><trkpt lat="39.056861947054394" lon="16.453058183275367"><ele>954.8000000000001</ele><time>2026-04-11T18:20:52Z</time></trkpt><trkpt lat="39.05694682181848" lon="16.45298097188413"><ele>954.4000000000001</ele><time>2026-04-11T18:20:53Z</time></trkpt><trkpt lat="39.05703484654123" lon="16.452900458118503"><ele>954.0</ele><time>2026-04-11T18:20:54Z</time></trkpt><trkpt lat="39.057127213408265" lon="16.4528214373262"><ele>954.0</ele><time>2026-04-11T18:20:55Z</time></trkpt><trkpt lat="39.057220461626365" lon="16.452740203492336"><ele>954.0</ele><time>2026-04-11T18:20:56Z</time></trkpt><trkpt lat="39.05731747183521" lon="16.452657748384226"><ele>954.0</ele><time>2026-04-11T18:20:57Z</time></trkpt><trkpt lat="39.05741756103808" lon="16.45257803487204"><ele>954.0</ele><time>2026-04-11T18:20:58Z</time></trkpt><trkpt lat="39.0575140328167" lon="16.452493596263935"><ele>953.4000000000001</ele><time>2026-04-11T18:20:59Z</time></trkpt><trkpt lat="39.0576066474208" lon="16.45241927075238"><ele>952.8000000000001</ele><time>2026-04-11T18:21:00Z</time></trkpt><trkpt lat="39.05769462039066" lon="16.45235799661098"><ele>952.1999999999999</ele><time>2026-04-11T18:21:01Z</time></trkpt><trkpt lat="39.05776234130052" lon="16.452301643864086"><ele>951.5999999999999</ele><time>2026-04-11T18:21:02Z</time></trkpt><trkpt lat="39.0578470571432" lon="16.452234654015296"><ele>951.0</ele><time>2026-04-11T18:21:04Z</time></trkpt><trkpt lat="39.057934279489224" lon="16.452168314033454"><ele>951.0</ele><time>2026-04-11T18:21:06Z</time></trkpt><trkpt lat="39.058057248311876" lon="16.452115175756678"><ele>950.9999999999999</ele><time>2026-04-11T18:21:08Z</time></trkpt><trkpt lat="39.05813547326683" lon="16.452130990495036"><ele>950.9999999999999</ele><time>2026-04-11T18:21:09Z</time></trkpt><trkpt lat="39.058195546062734" lon="16.45222210645894"><ele>951.0</ele><time>2026-04-11T18:21:10Z</time></trkpt><trkpt lat="39.058251432632055" lon="16.452306363714627"><ele>951.0</ele><time>2026-04-11T18:21:11Z</time></trkpt><trkpt lat="39.05831773911802" lon="16.45237657636862"><ele>950.1999999999999</ele><time>2026-04-11T18:21:12Z</time></trkpt><trkpt lat="39.058378882852395" lon="16.452486439922033"><ele>949.3999999999999</ele><time>2026-04-11T18:21:13Z</time></trkpt><trkpt lat="39.058448065811056" lon="16.45258418951586"><ele>948.6</ele><time>2026-04-11T18:21:14Z</time></trkpt><trkpt lat="39.05852016552402" lon="16.452685569238387"><ele>947.8</ele><time>2026-04-11T18:21:15Z</time></trkpt><trkpt lat="39.058601379195046" lon="16.452800321636328"><ele>947.0</ele><time>2026-04-11T18:21:16Z</time></trkpt><trkpt lat="39.05868212958026" lon="16.452914900650644"><ele>945.5</ele><time>2026-04-11T18:21:17Z</time></trkpt><trkpt lat="39.05876539918713" lon="16.453035887198435"><ele>944.0</ele><time>2026-04-11T18:21:18Z</time></trkpt><trkpt lat="39.05885162194015" lon="16.45315727208946"><ele>942.5</ele><time>2026-04-11T18:21:19Z</time></trkpt><trkpt lat="39.05893599441828" lon="16.45327520279673"><ele>941.0</ele><time>2026-04-11T18:21:20Z</time></trkpt><trkpt lat="39.05903370705013" lon="16.453382193563797"><ele>941.0</ele><time>2026-04-11T18:21:21Z</time></trkpt><trkpt lat="39.05911394640622" lon="16.453503555252848"><ele>941.0</ele><time>2026-04-11T18:21:22Z</time></trkpt><trkpt lat="39.0591985110608" lon="16.45362101541378"><ele>941.0</ele><time>2026-04-11T18:21:23Z</time></trkpt><trkpt lat="39.05927865757789" lon="16.453739937697044"><ele>941.0</ele><time>2026-04-11T18:21:24Z</time></trkpt><trkpt lat="39.059359225301186" lon="16.45385471972757"><ele>941.0</ele><time>2026-04-11T18:21:25Z</time></trkpt><trkpt lat="39.05943953533749" lon="16.4539613217478"><ele>940.9999999999999</ele><time>2026-04-11T18:21:26Z</time></trkpt><trkpt lat="39.05952073597959" lon="16.454060658497813"><ele>940.9999999999999</ele><time>2026-04-11T18:21:27Z</time></trkpt><trkpt lat="39.05959960541304" lon="16.454142971947572"><ele>941.0</ele><time>2026-04-11T18:21:28Z</time></trkpt><trkpt lat="39.05967973538224" lon="16.45422313398892"><ele>941.0</ele><time>2026-04-11T18:21:29Z</time></trkpt><trkpt lat="39.05976712744522" lon="16.454296775915584"><ele>941.0</ele><time>2026-04-11T18:21:30Z</time></trkpt><trkpt lat="39.05985227465224" lon="16.454389844617122"><ele>940.9999999999999</ele><time>2026-04-11T18:21:31Z</time></trkpt><trkpt lat="39.05994246272645" lon="16.454468924014858"><ele>940.9999999999999</ele><time>2026-04-11T18:21:32Z</time></trkpt><trkpt lat="39.06003694745085" lon="16.454526859045963"><ele>941.0</ele><time>2026-04-11T18:21:33Z</time></trkpt><trkpt lat="39.06011405029827" lon="16.454612733831446"><ele>941.0</ele><time>2026-04-11T18:21:34Z</time></trkpt><trkpt lat="39.060208026527036" lon="16.454664121872277"><ele>939.8</ele><time>2026-04-11T18:21:35Z</time></trkpt><trkpt lat="39.06031381410537" lon="16.454666964887856"><ele>938.5999999999999</ele><time>2026-04-11T18:21:36Z</time></trkpt><trkpt lat="39.06041353471578" lon="16.454678007468328"><ele>937.4</ele><time>2026-04-11T18:21:37Z</time></trkpt><trkpt lat="39.06051999899356" lon="16.454700440010747"><ele>936.2</ele><time>2026-04-11T18:21:38Z</time></trkpt><trkpt lat="39.06063718544285" lon="16.454701715079064"><ele>935.0</ele><time>2026-04-11T18:21:39Z</time></trkpt><trkpt lat="39.06074777864868" lon="16.454707624520392"><ele>933.8</ele><time>2026-04-11T18:21:40Z</time></trkpt><trkpt lat="39.060854653521524" lon="16.45470469086193"><ele>932.6</ele><time>2026-04-11T18:21:41Z</time></trkpt><trkpt lat="39.06095901314433" lon="16.454721956394724"><ele>931.4000000000001</ele><time>2026-04-11T18:21:42Z</time></trkpt><trkpt lat="39.06106007754585" lon="16.45469456998193"><ele>930.2</ele><time>2026-04-11T18:21:43Z</time></trkpt><trkpt lat="39.06115391600012" lon="16.45463978243133"><ele>929.0</ele><time>2026-04-11T18:21:44Z</time></trkpt><trkpt lat="39.06124973604599" lon="16.45457364215326"><ele>930.4000000000001</ele><time>2026-04-11T18:21:45Z</time></trkpt><trkpt lat="39.06134921735274" lon="16.454555254029298"><ele>931.8000000000001</ele><time>2026-04-11T18:21:46Z</time></trkpt><trkpt lat="39.06145495524902" lon="16.45456422836049"><ele>933.1999999999999</ele><time>2026-04-11T18:21:47Z</time></trkpt><trkpt lat="39.06156665873191" lon="16.454581337355098"><ele>934.5999999999999</ele><time>2026-04-11T18:21:48Z</time></trkpt><trkpt lat="39.06168785887506" lon="16.45459413937912"><ele>936.0</ele><time>2026-04-11T18:21:49Z</time></trkpt><trkpt lat="39.06180366387649" lon="16.454605699413822"><ele>936.0</ele><time>2026-04-11T18:21:50Z</time></trkpt><trkpt lat="39.06191472028914" lon="16.454613772993685"><ele>935.9999999999999</ele><time>2026-04-11T18:21:51Z</time></trkpt><trkpt lat="39.062007215593596" lon="16.454624973653793"><ele>935.9999999999999</ele><time>2026-04-11T18:21:52Z</time></trkpt><trkpt lat="39.062106883795785" lon="16.45464450050603"><ele>936.0</ele><time>2026-04-11T18:21:53Z</time></trkpt><trkpt lat="39.06220550968192" lon="16.454623613567545"><ele>936.0</ele><time>2026-04-11T18:21:54Z</time></trkpt><trkpt lat="39.062288353161534" lon="16.45455795577801"><ele>936.0</ele><time>2026-04-11T18:21:55Z</time></trkpt><trkpt lat="39.06233203889" lon="16.45444248133024"><ele>935.9999999999999</ele><time>2026-04-11T18:21:56Z</time></trkpt><trkpt lat="39.062371707742194" lon="16.454333366877286"><ele>935.9999999999999</ele><time>2026-04-11T18:21:57Z</time></trkpt><trkpt lat="39.06240616390688" lon="16.454213602554855"><ele>936.0</ele><time>2026-04-11T18:21:58Z</time></trkpt><trkpt lat="39.06243977685336" lon="16.454078700356835"><ele>936.0</ele><time>2026-04-11T18:21:59Z</time></trkpt><trkpt lat="39.06247690433207" lon="16.453940761606628"><ele>933.8</ele><time>2026-04-11T18:22:00Z</time></trkpt><trkpt lat="39.06251121341674" lon="16.453811445281097"><ele>931.5999999999999</ele><time>2026-04-11T18:22:01Z</time></trkpt><trkpt lat="39.06253518498395" lon="16.453675135525515"><ele>929.4</ele><time>2026-04-11T18:22:02Z</time></trkpt><trkpt lat="39.06254254592964" lon="16.453533410361338"><ele>927.2</ele><time>2026-04-11T18:22:03Z</time></trkpt><trkpt lat="39.06253502493122" lon="16.45338795639713"><ele>925.0</ele><time>2026-04-11T18:22:04Z</time></trkpt><trkpt lat="39.06252685103174" lon="16.453239769216232"><ele>924.2</ele><time>2026-04-11T18:22:05Z</time></trkpt><trkpt lat="39.062510514417056" lon="16.453093186690996"><ele>923.4</ele><time>2026-04-11T18:22:06Z</time></trkpt><trkpt lat="39.0624795037616" lon="16.452955577868"><ele>922.5999999999999</ele><time>2026-04-11T18:22:07Z</time></trkpt><trkpt lat="39.06244556442646" lon="16.45284052360115"><ele>921.8</ele><time>2026-04-11T18:22:08Z</time></trkpt><trkpt lat="39.06240537822809" lon="16.452744946749448"><ele>921.0</ele><time>2026-04-11T18:22:09Z</time></trkpt><trkpt lat="39.06239141409217" lon="16.45264944138241"><ele>921.0</ele><time>2026-04-11T18:22:10Z</time></trkpt><trkpt lat="39.0624152573613" lon="16.45254523402912"><ele>920.9999999999999</ele><time>2026-04-11T18:22:11Z</time></trkpt><trkpt lat="39.062467183909284" lon="16.452492663441383"><ele>920.9999999999999</ele><time>2026-04-11T18:22:12Z</time></trkpt><trkpt lat="39.06254746204618" lon="16.452458716315345"><ele>921.0</ele><time>2026-04-11T18:22:13Z</time></trkpt><trkpt lat="39.06264631255918" lon="16.452465242831863"><ele>921.0</ele><time>2026-04-11T18:22:14Z</time></trkpt><trkpt lat="39.062770611422074" lon="16.452481279020045"><ele>921.0</ele><time>2026-04-11T18:22:15Z</time></trkpt><trkpt lat="39.06288920117298" lon="16.452498091249552"><ele>920.9999999999999</ele><time>2026-04-11T18:22:16Z</time></trkpt><trkpt lat="39.06295426673886" lon="16.45249328081688"><ele>920.9999999999999</ele><time>2026-04-11T18:22:17Z</time></trkpt><trkpt lat="39.063053610757926" lon="16.452491793254893"><ele>921.0</ele><time>2026-04-11T18:22:18Z</time></trkpt><trkpt lat="39.06313881838034" lon="16.45245446357793"><ele>921.0</ele><time>2026-04-11T18:22:19Z</time></trkpt><trkpt lat="39.06321069361681" lon="16.452374095566213"><ele>921.0</ele><time>2026-04-11T18:22:20Z</time></trkpt><trkpt lat="39.06327780805123" lon="16.45226776996892"><ele>921.0</ele><time>2026-04-11T18:22:21Z</time></trkpt><trkpt lat="39.06336353281087" lon="16.452168991374396"><ele>921.0</ele><time>2026-04-11T18:22:22Z</time></trkpt><trkpt lat="39.063465607319806" lon="16.452101417318897"><ele>921.0</ele><time>2026-04-11T18:22:23Z</time></trkpt><trkpt lat="39.063579884644746" lon="16.452104182512024"><ele>920.4</ele><time>2026-04-11T18:22:24Z</time></trkpt><trkpt lat="39.063688338096775" lon="16.45206712542267"><ele>919.8</ele><time>2026-04-11T18:22:25Z</time></trkpt><trkpt lat="39.06378636911124" lon="16.452080854884567"><ele>919.1999999999999</ele><time>2026-04-11T18:22:26Z</time></trkpt><trkpt lat="39.06386814244985" lon="16.45212225635322"><ele>918.5999999999999</ele><time>2026-04-11T18:22:27Z</time></trkpt><trkpt lat="39.06393150591417" lon="16.452214893041443"><ele>918.0</ele><time>2026-04-11T18:22:28Z</time></trkpt><trkpt lat="39.06396719083259" lon="16.452307674985594"><ele>917.2</ele><time>2026-04-11T18:22:29Z</time></trkpt><trkpt lat="39.063994173222326" lon="16.452410324725886"><ele>916.4</ele><time>2026-04-11T18:22:30Z</time></trkpt><trkpt lat="39.06402599547413" lon="16.45253578055339"><ele>915.6000000000001</ele><time>2026-04-11T18:22:31Z</time></trkpt><trkpt lat="39.06406009612711" lon="16.45266966414206"><ele>914.8000000000001</ele><time>2026-04-11T18:22:32Z</time></trkpt><trkpt lat="39.06409847116734" lon="16.45281951886866"><ele>914.0</ele><time>2026-04-11T18:22:33Z</time></trkpt><trkpt lat="39.06415269240544" lon="16.452963123906553"><ele>912.5</ele><time>2026-04-11T18:22:34Z</time></trkpt><trkpt lat="39.064194793758" lon="16.453115265300717"><ele>911.0</ele><time>2026-04-11T18:22:35Z</time></trkpt><trkpt lat="39.064238429964185" lon="16.453273166958454"><ele>909.5</ele><time>2026-04-11T18:22:36Z</time></trkpt><trkpt lat="39.064325547857024" lon="16.453404343878965"><ele>908.0</ele><time>2026-04-11T18:22:37Z</time></trkpt><trkpt lat="39.06439971025788" lon="16.45354387187815"><ele>908.0</ele><time>2026-04-11T18:22:38Z</time></trkpt><trkpt lat="39.06446768556403" lon="16.453674385754702"><ele>908.0</ele><time>2026-04-11T18:22:39Z</time></trkpt><trkpt lat="39.06452622673867" lon="16.453803879962454"><ele>908.0</ele><time>2026-04-11T18:22:40Z</time></trkpt><trkpt lat="39.06462008202022" lon="16.453909853433732"><ele>908.0</ele><time>2026-04-11T18:22:41Z</time></trkpt><trkpt lat="39.064736512915964" lon="16.45396123937788"><ele>907.25</ele><time>2026-04-11T18:22:42Z</time></trkpt><trkpt lat="39.06485496968958" lon="16.454012574393712"><ele>906.5</ele><time>2026-04-11T18:22:43Z</time></trkpt><trkpt lat="39.06497765567289" lon="16.45405704581516"><ele>905.75</ele><time>2026-04-11T18:22:44Z</time></trkpt><trkpt lat="39.0651007949577" lon="16.454106610964782"><ele>905.0</ele><time>2026-04-11T18:22:45Z</time></trkpt><trkpt lat="39.065217212922455" lon="16.45415830234633"><ele>905.0</ele><time>2026-04-11T18:22:46Z</time></trkpt><trkpt lat="39.06533286616177" lon="16.454197002040505"><ele>905.0</ele><time>2026-04-11T18:22:47Z</time></trkpt><trkpt lat="39.06544001167226" lon="16.4542247615373"><ele>905.0</ele><time>2026-04-11T18:22:48Z</time></trkpt><trkpt lat="39.065559060948665" lon="16.454227102930965"><ele>905.0</ele><time>2026-04-11T18:22:49Z</time></trkpt><trkpt lat="39.065690533173125" lon="16.454195679970123"><ele>903.5</ele><time>2026-04-11T18:22:50Z</time></trkpt><trkpt lat="39.06582705997261" lon="16.45415912245257"><ele>902.0</ele><time>2026-04-11T18:22:51Z</time></trkpt><trkpt lat="39.0659582378861" lon="16.454114082857764"><ele>900.5</ele><time>2026-04-11T18:22:52Z</time></trkpt><trkpt lat="39.06609114367227" lon="16.454070804542635"><ele>899.0</ele><time>2026-04-11T18:22:53Z</time></trkpt><trkpt lat="39.06623003774711" lon="16.4540333881277"><ele>899.0</ele><time>2026-04-11T18:22:54Z</time></trkpt><trkpt lat="39.06637141904883" lon="16.453999701116402"><ele>899.0</ele><time>2026-04-11T18:22:55Z</time></trkpt><trkpt lat="39.06651330816732" lon="16.45395448404482"><ele>899.0</ele><time>2026-04-11T18:22:56Z</time></trkpt><trkpt lat="39.06664764547105" lon="16.45391317595014"><ele>899.0</ele><time>2026-04-11T18:22:57Z</time></trkpt><trkpt lat="39.06678036266612" lon="16.45387664240342"><ele>898.75</ele><time>2026-04-11T18:22:58Z</time></trkpt><trkpt lat="39.06691313406348" lon="16.45384144893781"><ele>898.5</ele><time>2026-04-11T18:22:59Z</time></trkpt><trkpt lat="39.0670491837089" lon="16.453804689708388"><ele>898.25</ele><time>2026-04-11T18:23:00Z</time></trkpt><trkpt lat="39.067184781586256" lon="16.453768124223814"><ele>898.0</ele><time>2026-04-11T18:23:01Z</time></trkpt><trkpt lat="39.06731970609628" lon="16.453730519801034"><ele>895.75</ele><time>2026-04-11T18:23:02Z</time></trkpt><trkpt lat="39.067448235699445" lon="16.4536919383101"><ele>893.5</ele><time>2026-04-11T18:23:03Z</time></trkpt><trkpt lat="39.067577792177" lon="16.45364831703554"><ele>891.25</ele><time>2026-04-11T18:23:04Z</time></trkpt><trkpt lat="39.067688565190934" lon="16.45362925173125"><ele>889.0</ele><time>2026-04-11T18:23:05Z</time></trkpt><trkpt lat="39.06778903310799" lon="16.45364893956702"><ele>889.0</ele><time>2026-04-11T18:23:06Z</time></trkpt><trkpt lat="39.067894199484215" lon="16.453723223135494"><ele>889.0</ele><time>2026-04-11T18:23:07Z</time></trkpt><trkpt lat="39.06798694169539" lon="16.453826526486434"><ele>889.0</ele><time>2026-04-11T18:23:08Z</time></trkpt><trkpt lat="39.06808427352025" lon="16.45390779139231"><ele>889.0</ele><time>2026-04-11T18:23:09Z</time></trkpt><trkpt lat="39.06813961959704" lon="16.454036761710785"><ele>888.2</ele><time>2026-04-11T18:23:10Z</time></trkpt><trkpt lat="39.068218291792284" lon="16.454130356715833"><ele>887.4000000000001</ele><time>2026-04-11T18:23:11Z</time></trkpt><trkpt lat="39.06830095493865" lon="16.454225107451983"><ele>886.6</ele><time>2026-04-11T18:23:12Z</time></trkpt><trkpt lat="39.068380659698526" lon="16.4543250355285"><ele>885.8</ele><time>2026-04-11T18:23:13Z</time></trkpt><trkpt lat="39.06846601333504" lon="16.45442656082152"><ele>885.0</ele><time>2026-04-11T18:23:14Z</time></trkpt><trkpt lat="39.068551130152905" lon="16.45452527589492"><ele>885.5</ele><time>2026-04-11T18:23:15Z</time></trkpt><trkpt lat="39.06863672145993" lon="16.45462616510857"><ele>886.0</ele><time>2026-04-11T18:23:16Z</time></trkpt><trkpt lat="39.06872357366253" lon="16.454729525237216"><ele>886.5</ele><time>2026-04-11T18:23:17Z</time></trkpt><trkpt lat="39.068807850827746" lon="16.4548361606856"><ele>887.0</ele><time>2026-04-11T18:23:18Z</time></trkpt><trkpt lat="39.068886365809625" lon="16.454933298988443"><ele>887.0</ele><time>2026-04-11T18:23:19Z</time></trkpt><trkpt lat="39.06895177604968" lon="16.455024167494276"><ele>887.0</ele><time>2026-04-11T18:23:20Z</time></trkpt><trkpt lat="39.06899052110592" lon="16.45512936284162"><ele>887.0</ele><time>2026-04-11T18:23:21Z</time></trkpt><trkpt lat="39.06900454349315" lon="16.455250492388146"><ele>887.0</ele><time>2026-04-11T18:23:22Z</time></trkpt><trkpt lat="39.068996846567266" lon="16.455377538834572"><ele>887.0</ele><time>2026-04-11T18:23:23Z</time></trkpt><trkpt lat="39.06895741789374" lon="16.455497942709904"><ele>888.0</ele><time>2026-04-11T18:23:24Z</time></trkpt><trkpt lat="39.06890881418024" lon="16.455618803249312"><ele>889.0</ele><time>2026-04-11T18:23:25Z</time></trkpt><trkpt lat="39.06884982983462" lon="16.455743280687937"><ele>890.0</ele><time>2026-04-11T18:23:26Z</time></trkpt><trkpt lat="39.068792317546475" lon="16.45587999248126"><ele>891.0</ele><time>2026-04-11T18:23:27Z</time></trkpt><trkpt lat="39.06873546459202" lon="16.4560131832864"><ele>891.0</ele><time>2026-04-11T18:23:28Z</time></trkpt><trkpt lat="39.06867397056444" lon="16.456152391924313"><ele>891.0</ele><time>2026-04-11T18:23:29Z</time></trkpt><trkpt lat="39.068611366977784" lon="16.456300904189792"><ele>891.0</ele><time>2026-04-11T18:23:30Z</time></trkpt><trkpt lat="39.06854716494004" lon="16.45644955252796"><ele>891.0</ele><time>2026-04-11T18:23:31Z</time></trkpt><trkpt lat="39.06848492488403" lon="16.45659547192087"><ele>892.5</ele><time>2026-04-11T18:23:32Z</time></trkpt><trkpt lat="39.06842397423063" lon="16.456738179861304"><ele>894.0</ele><time>2026-04-11T18:23:33Z</time></trkpt><trkpt lat="39.06836845774775" lon="16.456875945179377"><ele>895.5</ele><time>2026-04-11T18:23:34Z</time></trkpt><trkpt lat="39.06832212295415" lon="16.457000921769435"><ele>897.0</ele><time>2026-04-11T18:23:35Z</time></trkpt><trkpt lat="39.06828415133574" lon="16.45713167871657"><ele>897.5</ele><time>2026-04-11T18:23:36Z</time></trkpt><trkpt lat="39.068265522990934" lon="16.45727813416531"><ele>898.0</ele><time>2026-04-11T18:23:37Z</time></trkpt><trkpt lat="39.06826521196631" lon="16.45743989341088"><ele>898.5</ele><time>2026-04-11T18:23:38Z</time></trkpt><trkpt lat="39.068265755432904" lon="16.457610331276523"><ele>899.0</ele><time>2026-04-11T18:23:39Z</time></trkpt><trkpt lat="39.068269749123026" lon="16.457767308265094"><ele>900.75</ele><time>2026-04-11T18:23:40Z</time></trkpt><trkpt lat="39.06828860450967" lon="16.45791125876574"><ele>902.5</ele><time>2026-04-11T18:23:41Z</time></trkpt><trkpt lat="39.068342635987406" lon="16.458043497174778"><ele>904.25</ele><time>2026-04-11T18:23:42Z</time></trkpt><trkpt lat="39.06842772346461" lon="16.45814898917605"><ele>906.0</ele><time>2026-04-11T18:23:43Z</time></trkpt><trkpt lat="39.068530758084556" lon="16.458227393741648"><ele>906.25</ele><time>2026-04-11T18:23:44Z</time></trkpt><trkpt lat="39.06864373457175" lon="16.45830912942499"><ele>906.5</ele><time>2026-04-11T18:23:45Z</time></trkpt><trkpt lat="39.06876183955032" lon="16.45839338041997"><ele>906.75</ele><time>2026-04-11T18:23:46Z</time></trkpt><trkpt lat="39.06887950900507" lon="16.45848120056704"><ele>907.0</ele><time>2026-04-11T18:23:47Z</time></trkpt><trkpt lat="39.06898185863978" lon="16.458590610856138"><ele>907.0</ele><time>2026-04-11T18:23:48Z</time></trkpt><trkpt lat="39.0690951249038" lon="16.458670459818563"><ele>907.0</ele><time>2026-04-11T18:23:49Z</time></trkpt><trkpt lat="39.06919433906055" lon="16.45877590625727"><ele>907.0</ele><time>2026-04-11T18:23:50Z</time></trkpt><trkpt lat="39.069293080837944" lon="16.458876487100678"><ele>907.0</ele><time>2026-04-11T18:23:51Z</time></trkpt><trkpt lat="39.069392409876414" lon="16.458971902076595"><ele>908.75</ele><time>2026-04-11T18:23:52Z</time></trkpt><trkpt lat="39.0695084761845" lon="16.459049446558428"><ele>910.5</ele><time>2026-04-11T18:23:53Z</time></trkpt><trkpt lat="39.06962584765661" lon="16.459123416821882"><ele>912.25</ele><time>2026-04-11T18:23:54Z</time></trkpt><trkpt lat="39.06974344727072" lon="16.459193615572485"><ele>914.0</ele><time>2026-04-11T18:23:55Z</time></trkpt><trkpt lat="39.06985938989898" lon="16.459269961291586"><ele>916.0</ele><time>2026-04-11T18:23:56Z</time></trkpt><trkpt lat="39.06994468205888" lon="16.45938193205766"><ele>918.0</ele><time>2026-04-11T18:23:57Z</time></trkpt><trkpt lat="39.070033278260034" lon="16.459498052234434"><ele>920.0</ele><time>2026-04-11T18:23:58Z</time></trkpt><trkpt lat="39.07012360381262" lon="16.459616751385038"><ele>922.0</ele><time>2026-04-11T18:23:59Z</time></trkpt><trkpt lat="39.07021571724757" lon="16.459737800416878"><ele>922.0</ele><time>2026-04-11T18:24:00Z</time></trkpt><trkpt lat="39.07030917402325" lon="16.459860614320423"><ele>922.0</ele><time>2026-04-11T18:24:01Z</time></trkpt><trkpt lat="39.07040458147563" lon="16.459985347932115"><ele>922.0</ele><time>2026-04-11T18:24:02Z</time></trkpt><trkpt lat="39.07050164150164" lon="16.46010906981705"><ele>922.0</ele><time>2026-04-11T18:24:03Z</time></trkpt><trkpt lat="39.07059907210949" lon="16.460224975468048"><ele>922.0</ele><time>2026-04-11T18:24:04Z</time></trkpt><trkpt lat="39.0707178282612" lon="16.460305839878156"><ele>922.0</ele><time>2026-04-11T18:24:05Z</time></trkpt><trkpt lat="39.0708319485551" lon="16.460392165218828"><ele>922.0</ele><time>2026-04-11T18:24:06Z</time></trkpt><trkpt lat="39.070955373619164" lon="16.46047621983833"><ele>922.0</ele><time>2026-04-11T18:24:07Z</time></trkpt><trkpt lat="39.071074675307266" lon="16.460554848403948"><ele>925.0</ele><time>2026-04-11T18:24:08Z</time></trkpt><trkpt lat="39.07119245898608" lon="16.46063319565264"><ele>928.0</ele><time>2026-04-11T18:24:09Z</time></trkpt><trkpt lat="39.07130225380459" lon="16.460734383429426"><ele>931.0</ele><time>2026-04-11T18:24:10Z</time></trkpt><trkpt lat="39.07142495090189" lon="16.460801923310534"><ele>934.0</ele><time>2026-04-11T18:24:11Z</time></trkpt><trkpt lat="39.071538686818734" lon="16.460888556175558"><ele>937.75</ele><time>2026-04-11T18:24:12Z</time></trkpt><trkpt lat="39.07165145114985" lon="16.460974508188585"><ele>941.5</ele><time>2026-04-11T18:24:13Z</time></trkpt><trkpt lat="39.071763152715405" lon="16.46105867385366"><ele>945.25</ele><time>2026-04-11T18:24:14Z</time></trkpt><trkpt lat="39.07187425100389" lon="16.461126627776448"><ele>949.0</ele><time>2026-04-11T18:24:15Z</time></trkpt><trkpt lat="39.07198038639654" lon="16.46116739518249"><ele>949.0</ele><time>2026-04-11T18:24:16Z</time></trkpt><trkpt lat="39.07209398490001" lon="16.461173745883613"><ele>949.0000000000001</ele><time>2026-04-11T18:24:17Z</time></trkpt><trkpt lat="39.07221219853437" lon="16.461160970593887"><ele>949.0000000000001</ele><time>2026-04-11T18:24:18Z</time></trkpt><trkpt lat="39.07232647202114" lon="16.461141890230873"><ele>949.0</ele><time>2026-04-11T18:24:19Z</time></trkpt><trkpt lat="39.07242732873116" lon="16.461131566322234"><ele>949.0</ele><time>2026-04-11T18:24:20Z</time></trkpt><trkpt lat="39.07253040781893" lon="16.461128570238984"><ele>948.0</ele><time>2026-04-11T18:24:21Z</time></trkpt><trkpt lat="39.072634732133984" lon="16.461142775532473"><ele>947.0000000000001</ele><time>2026-04-11T18:24:22Z</time></trkpt><trkpt lat="39.07273831805468" lon="16.461177009219806"><ele>946.0000000000001</ele><time>2026-04-11T18:24:23Z</time></trkpt><trkpt lat="39.07284628820864" lon="16.461219849712702"><ele>945.0</ele><time>2026-04-11T18:24:24Z</time></trkpt><trkpt lat="39.07295699496417" lon="16.461266612580644"><ele>944.0</ele><time>2026-04-11T18:24:25Z</time></trkpt><trkpt lat="39.07307385398353" lon="16.46130653611717"><ele>944.0</ele><time>2026-04-11T18:24:26Z</time></trkpt><trkpt lat="39.07319701108547" lon="16.461345956582747"><ele>944.0</ele><time>2026-04-11T18:24:27Z</time></trkpt><trkpt lat="39.07332075469517" lon="16.46137736120186"><ele>944.0</ele><time>2026-04-11T18:24:28Z</time></trkpt><trkpt lat="39.07345463034231" lon="16.461370180094686"><ele>944.0</ele><time>2026-04-11T18:24:29Z</time></trkpt><trkpt lat="39.073589146433925" lon="16.461347203103916"><ele>946.5</ele><time>2026-04-11T18:24:30Z</time></trkpt><trkpt lat="39.07370900368391" lon="16.46130636943388"><ele>949.0</ele><time>2026-04-11T18:24:31Z</time></trkpt><trkpt lat="39.07382417301002" lon="16.461238859335463"><ele>951.5</ele><time>2026-04-11T18:24:32Z</time></trkpt><trkpt lat="39.07393017806493" lon="16.461143337947217"><ele>954.0</ele><time>2026-04-11T18:24:33Z</time></trkpt><trkpt lat="39.07402260237362" lon="16.46104249941974"><ele>956.6</ele><time>2026-04-11T18:24:34Z</time></trkpt><trkpt lat="39.07410476272324" lon="16.460964855789772"><ele>959.2</ele><time>2026-04-11T18:24:35Z</time></trkpt><trkpt lat="39.074185508461056" lon="16.460917015730914"><ele>961.8000000000001</ele><time>2026-04-11T18:24:36Z</time></trkpt><trkpt lat="39.07426718388448" lon="16.460919199829434"><ele>964.4000000000001</ele><time>2026-04-11T18:24:37Z</time></trkpt><trkpt lat="39.07434918935225" lon="16.460968797109437"><ele>967.0</ele><time>2026-04-11T18:24:38Z</time></trkpt><trkpt lat="39.074416943556464" lon="16.4610576161411"><ele>967.0</ele><time>2026-04-11T18:24:39Z</time></trkpt><trkpt lat="39.07447780321915" lon="16.461146531004726"><ele>967.0</ele><time>2026-04-11T18:24:40Z</time></trkpt><trkpt lat="39.0745461418348" lon="16.461187414858312"><ele>967.0</ele><time>2026-04-11T18:24:41Z</time></trkpt><trkpt lat="39.07464159251289" lon="16.461191850832396"><ele>967.0</ele><time>2026-04-11T18:24:42Z</time></trkpt><trkpt lat="39.07473837656159" lon="16.461189852166033"><ele>967.0</ele><time>2026-04-11T18:24:43Z</time></trkpt><trkpt lat="39.07482853138542" lon="16.46121206639256"><ele>967.0</ele><time>2026-04-11T18:24:44Z</time></trkpt><trkpt lat="39.0749002697823" lon="16.46126324898701"><ele>967.0</ele><time>2026-04-11T18:24:45Z</time></trkpt><trkpt lat="39.074968503207465" lon="16.46134638607998"><ele>967.0</ele><time>2026-04-11T18:24:46Z</time></trkpt><trkpt lat="39.07502846347147" lon="16.46145057186188"><ele>967.0</ele><time>2026-04-11T18:24:47Z</time></trkpt><trkpt lat="39.07509655125493" lon="16.461558724508286"><ele>967.0</ele><time>2026-04-11T18:24:48Z</time></trkpt><trkpt lat="39.07518303319494" lon="16.461653968901203"><ele>967.5</ele><time>2026-04-11T18:24:49Z</time></trkpt><trkpt lat="39.075289814647945" lon="16.461734110076343"><ele>968.0</ele><time>2026-04-11T18:24:50Z</time></trkpt><trkpt lat="39.07539711642064" lon="16.46179785213968"><ele>968.5</ele><time>2026-04-11T18:24:51Z</time></trkpt><trkpt lat="39.075500513227446" lon="16.461861501106764"><ele>969.0</ele><time>2026-04-11T18:24:52Z</time></trkpt><trkpt lat="39.075605417158414" lon="16.461924332823536"><ele>969.0</ele><time>2026-04-11T18:24:53Z</time></trkpt><trkpt lat="39.075710642794164" lon="16.46199550014589"><ele>969.0000000000001</ele><time>2026-04-11T18:24:54Z</time></trkpt><trkpt lat="39.07581709686829" lon="16.462061698309075"><ele>969.0000000000001</ele><time>2026-04-11T18:24:55Z</time></trkpt><trkpt lat="39.07591402884132" lon="16.462121723866357"><ele>969.0</ele><time>2026-04-11T18:24:56Z</time></trkpt><trkpt lat="39.076006194434235" lon="16.462169408162058"><ele>969.0</ele><time>2026-04-11T18:24:57Z</time></trkpt><trkpt lat="39.07609706005615" lon="16.462183619116562"><ele>969.6</ele><time>2026-04-11T18:24:58Z</time></trkpt><trkpt lat="39.0761957516871" lon="16.462194696810645"><ele>970.2</ele><time>2026-04-11T18:24:59Z</time></trkpt><trkpt lat="39.076285366545235" lon="16.462129150245044"><ele>970.8000000000001</ele><time>2026-04-11T18:25:00Z</time></trkpt><trkpt lat="39.07636596589511" lon="16.462071700118308"><ele>971.4000000000001</ele><time>2026-04-11T18:25:01Z</time></trkpt><trkpt lat="39.07645145370179" lon="16.462039089552295"><ele>972.0</ele><time>2026-04-11T18:25:02Z</time></trkpt><trkpt lat="39.07653150356827" lon="16.462039934372477"><ele>973.6666666666666</ele><time>2026-04-11T18:25:03Z</time></trkpt><trkpt lat="39.07659724010618" lon="16.462103606136438"><ele>975.3333333333333</ele><time>2026-04-11T18:25:04Z</time></trkpt><trkpt lat="39.07663619397792" lon="16.462190277468025"><ele>977.0</ele><time>2026-04-11T18:25:05Z</time></trkpt><trkpt lat="39.07666292607458" lon="16.46227756569565"><ele>978.6666666666666</ele><time>2026-04-11T18:25:06Z</time></trkpt><trkpt lat="39.07666933081375" lon="16.462389916624115"><ele>980.3333333333333</ele><time>2026-04-11T18:25:07Z</time></trkpt><trkpt lat="39.07665918180599" lon="16.462504412052635"><ele>982.0</ele><time>2026-04-11T18:25:08Z</time></trkpt><trkpt lat="39.0766199197094" lon="16.462606416870894"><ele>981.4000000000001</ele><time>2026-04-11T18:25:09Z</time></trkpt><trkpt lat="39.076565229952095" lon="16.462710576212757"><ele>980.8000000000001</ele><time>2026-04-11T18:25:10Z</time></trkpt><trkpt lat="39.076525786537" lon="16.462828297169334"><ele>980.2</ele><time>2026-04-11T18:25:11Z</time></trkpt><trkpt lat="39.076469257951196" lon="16.462935910988474"><ele>979.6</ele><time>2026-04-11T18:25:12Z</time></trkpt><trkpt lat="39.07641897754945" lon="16.463048515298574"><ele>979.0</ele><time>2026-04-11T18:25:13Z</time></trkpt><trkpt lat="39.07637042242034" lon="16.463161272819438"><ele>979.0</ele><time>2026-04-11T18:25:14Z</time></trkpt><trkpt lat="39.076317153626874" lon="16.46325577567945"><ele>979.0000000000001</ele><time>2026-04-11T18:25:15Z</time></trkpt><trkpt lat="39.07626642619548" lon="16.463333067418283"><ele>979.0000000000001</ele><time>2026-04-11T18:25:16Z</time></trkpt><trkpt lat="39.076198379655985" lon="16.463405172486276"><ele>979.0</ele><time>2026-04-11T18:25:17Z</time></trkpt><trkpt lat="39.07611002598782" lon="16.463430887349865"><ele>979.0</ele><time>2026-04-11T18:25:18Z</time></trkpt><trkpt lat="39.07601527649494" lon="16.46348214946826"><ele>979.0</ele><time>2026-04-11T18:25:19Z</time></trkpt><trkpt lat="39.07591407688369" lon="16.463513908603222"><ele>979.0000000000001</ele><time>2026-04-11T18:25:20Z</time></trkpt><trkpt lat="39.0758156787015" lon="16.46355106036847"><ele>979.0000000000001</ele><time>2026-04-11T18:25:21Z</time></trkpt><trkpt lat="39.0757203471899" lon="16.46359251956789"><ele>979.0</ele><time>2026-04-11T18:25:22Z</time></trkpt><trkpt lat="39.075630994446385" lon="16.46365962119157"><ele>979.0</ele><time>2026-04-11T18:25:23Z</time></trkpt><trkpt lat="39.07555034806815" lon="16.463750590241506"><ele>979.8000000000001</ele><time>2026-04-11T18:25:24Z</time></trkpt><trkpt lat="39.07549071759287" lon="16.46386608000059"><ele>980.6000000000001</ele><time>2026-04-11T18:25:25Z</time></trkpt><trkpt lat="39.07543181085777" lon="16.463985427385236"><ele>981.4</ele><time>2026-04-11T18:25:26Z</time></trkpt><trkpt lat="39.0753693729862" lon="16.464104043847836"><ele>982.2</ele><time>2026-04-11T18:25:27Z</time></trkpt><trkpt lat="39.07529559752579" lon="16.46421651689841"><ele>983.0</ele><time>2026-04-11T18:25:28Z</time></trkpt><trkpt lat="39.07522670516362" lon="16.46433324664522"><ele>983.0</ele><time>2026-04-11T18:25:29Z</time></trkpt><trkpt lat="39.075154368900876" lon="16.46444515559931"><ele>983.0</ele><time>2026-04-11T18:25:30Z</time></trkpt><trkpt lat="39.0750736399583" lon="16.464544842674144"><ele>983.0</ele><time>2026-04-11T18:25:31Z</time></trkpt><trkpt lat="39.07498270139755" lon="16.464629217035757"><ele>983.0</ele><time>2026-04-11T18:25:32Z</time></trkpt><trkpt lat="39.07487136779263" lon="16.464663843387747"><ele>984.5</ele><time>2026-04-11T18:25:33Z</time></trkpt><trkpt lat="39.074773025620786" lon="16.46473761198941"><ele>986.0</ele><time>2026-04-11T18:25:34Z</time></trkpt><trkpt lat="39.07467550690469" lon="16.464804408967904"><ele>987.5</ele><time>2026-04-11T18:25:35Z</time></trkpt><trkpt lat="39.074586775330026" lon="16.464896288626388"><ele>989.0</ele><time>2026-04-11T18:25:36Z</time></trkpt><trkpt lat="39.07450915344482" lon="16.46500489953655"><ele>989.0</ele><time>2026-04-11T18:25:37Z</time></trkpt><trkpt lat="39.074439647527484" lon="16.465121592531663"><ele>989.0</ele><time>2026-04-11T18:25:38Z</time></trkpt><trkpt lat="39.07436443602751" lon="16.465232621336906"><ele>989.0</ele><time>2026-04-11T18:25:39Z</time></trkpt><trkpt lat="39.074265329138754" lon="16.465304332064054"><ele>989.0</ele><time>2026-04-11T18:25:40Z</time></trkpt><trkpt lat="39.07416963421982" lon="16.465387227646296"><ele>992.0</ele><time>2026-04-11T18:25:41Z</time></trkpt><trkpt lat="39.074069231974306" lon="16.465447099154222"><ele>995.0</ele><time>2026-04-11T18:25:42Z</time></trkpt><trkpt lat="39.07396020692508" lon="16.465503317459135"><ele>998.0</ele><time>2026-04-11T18:25:43Z</time></trkpt><trkpt lat="39.07385047097667" lon="16.46555327044042"><ele>1001.0</ele><time>2026-04-11T18:25:44Z</time></trkpt><trkpt lat="39.07375222961451" lon="16.4656383342943"><ele>1001.0</ele><time>2026-04-11T18:25:45Z</time></trkpt><trkpt lat="39.07365064365244" lon="16.465729397248683"><ele>1001.0</ele><time>2026-04-11T18:25:46Z</time></trkpt><trkpt lat="39.07355771669741" lon="16.46583610132355"><ele>1001.0</ele><time>2026-04-11T18:25:47Z</time></trkpt><trkpt lat="39.07346534369992" lon="16.465935218466417"><ele>1001.0</ele><time>2026-04-11T18:25:48Z</time></trkpt><trkpt lat="39.0733639571928" lon="16.466024411331965"><ele>1002.25</ele><time>2026-04-11T18:25:49Z</time></trkpt><trkpt lat="39.0732542848721" lon="16.46611167387943"><ele>1003.5</ele><time>2026-04-11T18:25:50Z</time></trkpt><trkpt lat="39.07313459766225" lon="16.466175797462427"><ele>1004.75</ele><time>2026-04-11T18:25:51Z</time></trkpt><trkpt lat="39.07303119183255" lon="16.466275386236195"><ele>1006.0</ele><time>2026-04-11T18:25:52Z</time></trkpt><trkpt lat="39.07292835359063" lon="16.46634739067936"><ele>1006.0</ele><time>2026-04-11T18:25:53Z</time></trkpt><trkpt lat="39.07284148266127" lon="16.46642385740525"><ele>1006.0</ele><time>2026-04-11T18:25:54Z</time></trkpt><trkpt lat="39.072759436447825" lon="16.466527235597862"><ele>1006.0</ele><time>2026-04-11T18:25:55Z</time></trkpt><trkpt lat="39.072685479098666" lon="16.466656153357818"><ele>1006.0</ele><time>2026-04-11T18:25:56Z</time></trkpt><trkpt lat="39.0726271067919" lon="16.466797779215334"><ele>1006.0</ele><time>2026-04-11T18:25:57Z</time></trkpt><trkpt lat="39.07257008927902" lon="16.466949205660253"><ele>1006.0</ele><time>2026-04-11T18:25:58Z</time></trkpt><trkpt lat="39.0725130331987" lon="16.467091828862245"><ele>1006.0</ele><time>2026-04-11T18:25:59Z</time></trkpt><trkpt lat="39.072468978089645" lon="16.467216281674297"><ele>1006.0</ele><time>2026-04-11T18:26:00Z</time></trkpt><trkpt lat="39.07242073607918" lon="16.46733660173893"><ele>1006.1999999999999</ele><time>2026-04-11T18:26:01Z</time></trkpt><trkpt lat="39.072413838500744" lon="16.46748286355312"><ele>1006.3999999999999</ele><time>2026-04-11T18:26:02Z</time></trkpt><trkpt lat="39.07244599119209" lon="16.467615682550452"><ele>1006.6</ele><time>2026-04-11T18:26:03Z</time></trkpt><trkpt lat="39.07249408946848" lon="16.46772146130693"><ele>1006.8</ele><time>2026-04-11T18:26:04Z</time></trkpt><trkpt lat="39.07255404485281" lon="16.467812489782855"><ele>1007.0</ele><time>2026-04-11T18:26:05Z</time></trkpt><trkpt lat="39.072620303097" lon="16.467896181696638"><ele>1007.0</ele><time>2026-04-11T18:26:06Z</time></trkpt><trkpt lat="39.07271248266618" lon="16.46794231277601"><ele>1007.0</ele><time>2026-04-11T18:26:07Z</time></trkpt><trkpt lat="39.072809921475475" lon="16.467949700578323"><ele>1007.0</ele><time>2026-04-11T18:26:08Z</time></trkpt><trkpt lat="39.07292148856601" lon="16.467946586411585"><ele>1007.0</ele><time>2026-04-11T18:26:09Z</time></trkpt><trkpt lat="39.0730315396656" lon="16.467944438575646"><ele>1007.0</ele><time>2026-04-11T18:26:10Z</time></trkpt><trkpt lat="39.07312571039241" lon="16.467940359767585"><ele>1006.4000000000001</ele><time>2026-04-11T18:26:11Z</time></trkpt><trkpt lat="39.073204747259844" lon="16.467950252278765"><ele>1005.8000000000001</ele><time>2026-04-11T18:26:12Z</time></trkpt><trkpt lat="39.07327992072741" lon="16.468004741600875"><ele>1005.2</ele><time>2026-04-11T18:26:13Z</time></trkpt><trkpt lat="39.07333503737328" lon="16.468094234740782"><ele>1004.6</ele><time>2026-04-11T18:26:14Z</time></trkpt><trkpt lat="39.073368260234226" lon="16.468210387603943"><ele>1004.0</ele><time>2026-04-11T18:26:15Z</time></trkpt><trkpt lat="39.07339248870525" lon="16.468340604350956"><ele>1003.4000000000001</ele><time>2026-04-11T18:26:16Z</time></trkpt><trkpt lat="39.073418229959366" lon="16.468467255679208"><ele>1002.8000000000001</ele><time>2026-04-11T18:26:17Z</time></trkpt><trkpt lat="39.07344296354542" lon="16.46858809885664"><ele>1002.1999999999999</ele><time>2026-04-11T18:26:18Z</time></trkpt><trkpt lat="39.07346835601186" lon="16.468711695149537"><ele>1001.5999999999999</ele><time>2026-04-11T18:26:19Z</time></trkpt><trkpt lat="39.07349886063882" lon="16.468829116610795"><ele>1001.0</ele><time>2026-04-11T18:26:20Z</time></trkpt><trkpt lat="39.07354249132242" lon="16.468934815328097"><ele>999.0</ele><time>2026-04-11T18:26:21Z</time></trkpt><trkpt lat="39.07361161636869" lon="16.469011292935484"><ele>996.9999999999999</ele><time>2026-04-11T18:26:22Z</time></trkpt><trkpt lat="39.073707707738755" lon="16.469045173764584"><ele>994.9999999999999</ele><time>2026-04-11T18:26:23Z</time></trkpt><trkpt lat="39.073818754613676" lon="16.46904239222189"><ele>993.0</ele><time>2026-04-11T18:26:24Z</time></trkpt><trkpt lat="39.073931450012296" lon="16.4690312707379"><ele>991.0</ele><time>2026-04-11T18:26:25Z</time></trkpt><trkpt lat="39.074039535797056" lon="16.469014258889977"><ele>992.5999999999999</ele><time>2026-04-11T18:26:26Z</time></trkpt><trkpt lat="39.07414140930631" lon="16.469020278248063"><ele>994.1999999999999</ele><time>2026-04-11T18:26:27Z</time></trkpt><trkpt lat="39.074226059140955" lon="16.469070062712703"><ele>995.8000000000001</ele><time>2026-04-11T18:26:28Z</time></trkpt><trkpt lat="39.07428412593942" lon="16.46916101931843"><ele>997.4000000000001</ele><time>2026-04-11T18:26:29Z</time></trkpt><trkpt lat="39.074298238053714" lon="16.46928242019449"><ele>999.0</ele><time>2026-04-11T18:26:30Z</time></trkpt><trkpt lat="39.07425332795761" lon="16.469381832617188"><ele>999.0</ele><time>2026-04-11T18:26:31Z</time></trkpt><trkpt lat="39.074199817260165" lon="16.469467068332865"><ele>999.0000000000001</ele><time>2026-04-11T18:26:32Z</time></trkpt><trkpt lat="39.074144086632955" lon="16.46958391940938"><ele>999.0000000000001</ele><time>2026-04-11T18:26:33Z</time></trkpt><trkpt lat="39.074073188476504" lon="16.469692009279434"><ele>999.0</ele><time>2026-04-11T18:26:34Z</time></trkpt><trkpt lat="39.0740202686488" lon="16.469797770323705"><ele>999.0</ele><time>2026-04-11T18:26:35Z</time></trkpt><trkpt lat="39.07398129974577" lon="16.469922972517757"><ele>994.5</ele><time>2026-04-11T18:26:36Z</time></trkpt><trkpt lat="39.07396809150832" lon="16.47006571813125"><ele>990.0</ele><time>2026-04-11T18:26:37Z</time></trkpt><trkpt lat="39.07398468999297" lon="16.470208256584826"><ele>985.5</ele><time>2026-04-11T18:26:38Z</time></trkpt><trkpt lat="39.07402965414637" lon="16.470341379202683"><ele>981.0</ele><time>2026-04-11T18:26:39Z</time></trkpt><trkpt lat="39.07409168981467" lon="16.47046832214899"><ele>981.5</ele><time>2026-04-11T18:26:40Z</time></trkpt><trkpt lat="39.074168396339516" lon="16.470590081896866"><ele>982.0</ele><time>2026-04-11T18:26:41Z</time></trkpt><trkpt lat="39.0742579331582" lon="16.470712644108502"><ele>982.5</ele><time>2026-04-11T18:26:42Z</time></trkpt><trkpt lat="39.07434770345703" lon="16.470841803275995"><ele>983.0</ele><time>2026-04-11T18:26:43Z</time></trkpt><trkpt lat="39.07442694840214" lon="16.47096621803441"><ele>983.0</ele><time>2026-04-11T18:26:44Z</time></trkpt><trkpt lat="39.07451214196099" lon="16.471080946725593"><ele>983.0</ele><time>2026-04-11T18:26:45Z</time></trkpt><trkpt lat="39.07460828153905" lon="16.471183445644353"><ele>983.0</ele><time>2026-04-11T18:26:46Z</time></trkpt><trkpt lat="39.074713372195866" lon="16.47127114413991"><ele>983.0</ele><time>2026-04-11T18:26:47Z</time></trkpt><trkpt lat="39.074817655847674" lon="16.47133203171648"><ele>981.5999999999999</ele><time>2026-04-11T18:26:48Z</time></trkpt><trkpt lat="39.07491565645042" lon="16.471356657544963"><ele>980.1999999999999</ele><time>2026-04-11T18:26:49Z</time></trkpt><trkpt lat="39.07502429837254" lon="16.47132906893717"><ele>978.8</ele><time>2026-04-11T18:26:50Z</time></trkpt><trkpt lat="39.07509829172058" lon="16.471233188834244"><ele>977.4</ele><time>2026-04-11T18:26:51Z</time></trkpt><trkpt lat="39.07518109382819" lon="16.471184591779135"><ele>976.0</ele><time>2026-04-11T18:26:52Z</time></trkpt><trkpt lat="39.07527275728437" lon="16.471141295895578"><ele>975.25</ele><time>2026-04-11T18:26:53Z</time></trkpt><trkpt lat="39.07535642359864" lon="16.47120181040774"><ele>974.5</ele><time>2026-04-11T18:26:54Z</time></trkpt><trkpt lat="39.075457343113" lon="16.47127172852599"><ele>973.75</ele><time>2026-04-11T18:26:55Z</time></trkpt><trkpt lat="39.07557323630186" lon="16.471305992184075"><ele>973.0</ele><time>2026-04-11T18:26:56Z</time></trkpt><trkpt lat="39.075690789402834" lon="16.471340306642247"><ele>972.4</ele><time>2026-04-11T18:26:57Z</time></trkpt><trkpt lat="39.07580740129397" lon="16.471362561868663"><ele>971.8</ele><time>2026-04-11T18:26:58Z</time></trkpt><trkpt lat="39.07591591449627" lon="16.47139026263539"><ele>971.2</ele><time>2026-04-11T18:26:59Z</time></trkpt><trkpt lat="39.07602250155276" lon="16.47140218864226"><ele>970.6</ele><time>2026-04-11T18:27:00Z</time></trkpt><trkpt lat="39.076132604154566" lon="16.47137294368571"><ele>970.0</ele><time>2026-04-11T18:27:01Z</time></trkpt><trkpt lat="39.07624809320536" lon="16.471307001833296"><ele>971.5</ele><time>2026-04-11T18:27:02Z</time></trkpt><trkpt lat="39.07635280812397" lon="16.471235225941058"><ele>973.0</ele><time>2026-04-11T18:27:03Z</time></trkpt><trkpt lat="39.07645815602255" lon="16.471173477616478"><ele>974.5</ele><time>2026-04-11T18:27:04Z</time></trkpt><trkpt lat="39.07656299761303" lon="16.4711153273496"><ele>976.0</ele><time>2026-04-11T18:27:05Z</time></trkpt><trkpt lat="39.07667002275822" lon="16.47105335962714"><ele>976.0</ele><time>2026-04-11T18:27:06Z</time></trkpt><trkpt lat="39.076773668487" lon="16.470992219693784"><ele>975.9999999999999</ele><time>2026-04-11T18:27:07Z</time></trkpt><trkpt lat="39.07688156791546" lon="16.470946116876366"><ele>975.9999999999999</ele><time>2026-04-11T18:27:08Z</time></trkpt><trkpt lat="39.076976693355945" lon="16.470890711865422"><ele>976.0</ele><time>2026-04-11T18:27:09Z</time></trkpt><trkpt lat="39.077063128980406" lon="16.47086571931643"><ele>976.0</ele><time>2026-04-11T18:27:10Z</time></trkpt><trkpt lat="39.07713716556539" lon="16.470904450190815"><ele>976.0</ele><time>2026-04-11T18:27:11Z</time></trkpt><trkpt lat="39.077179295553584" lon="16.470976877081085"><ele>975.9999999999999</ele><time>2026-04-11T18:27:12Z</time></trkpt><trkpt lat="39.07724314891482" lon="16.471046629057412"><ele>975.9999999999999</ele><time>2026-04-11T18:27:13Z</time></trkpt><trkpt lat="39.07733478181481" lon="16.47113253543799"><ele>976.0</ele><time>2026-04-11T18:27:14Z</time></trkpt><trkpt lat="39.07741811967863" lon="16.471235793041107"><ele>976.0</ele><time>2026-04-11T18:27:15Z</time></trkpt><trkpt lat="39.077504000055136" lon="16.471337098382477"><ele>973.5999999999999</ele><time>2026-04-11T18:27:16Z</time></trkpt><trkpt lat="39.07756096162365" lon="16.471438784961673"><ele>971.1999999999999</ele><time>2026-04-11T18:27:17Z</time></trkpt><trkpt lat="39.07762301106114" lon="16.47151874826849"><ele>968.8000000000001</ele><time>2026-04-11T18:27:18Z</time></trkpt><trkpt lat="39.077655185104526" lon="16.47162663601756"><ele>966.4000000000001</ele><time>2026-04-11T18:27:19Z</time></trkpt><trkpt lat="39.07764030973827" lon="16.47174754380423"><ele>964.0</ele><time>2026-04-11T18:27:20Z</time></trkpt><trkpt lat="39.07756780203328" lon="16.471849221824087"><ele>964.0</ele><time>2026-04-11T18:27:21Z</time></trkpt><trkpt lat="39.077513558468866" lon="16.47197075516023"><ele>964.0000000000001</ele><time>2026-04-11T18:27:22Z</time></trkpt><trkpt lat="39.07746328533281" lon="16.472093713616644"><ele>964.0000000000001</ele><time>2026-04-11T18:27:23Z</time></trkpt><trkpt lat="39.07742920548962" lon="16.472221867250113"><ele>964.0</ele><time>2026-04-11T18:27:24Z</time></trkpt><trkpt lat="39.077366952065795" lon="16.472317536224384"><ele>964.0</ele><time>2026-04-11T18:27:25Z</time></trkpt><trkpt lat="39.077300804788266" lon="16.47241585292088"><ele>964.25</ele><time>2026-04-11T18:27:26Z</time></trkpt><trkpt lat="39.077218793390415" lon="16.472498547561294"><ele>964.5</ele><time>2026-04-11T18:27:27Z</time></trkpt><trkpt lat="39.07712118691741" lon="16.47258193588907"><ele>964.75</ele><time>2026-04-11T18:27:28Z</time></trkpt><trkpt lat="39.077012296155" lon="16.47266403899902"><ele>965.0</ele><time>2026-04-11T18:27:29Z</time></trkpt><trkpt lat="39.07689712344744" lon="16.472740447755854"><ele>965.0</ele><time>2026-04-11T18:27:30Z</time></trkpt><trkpt lat="39.07678583722402" lon="16.47281480389202"><ele>965.0</ele><time>2026-04-11T18:27:31Z</time></trkpt><trkpt lat="39.07666975723823" lon="16.47289392807896"><ele>965.0</ele><time>2026-04-11T18:27:32Z</time></trkpt><trkpt lat="39.07656505008389" lon="16.47299435994509"><ele>965.0</ele><time>2026-04-11T18:27:33Z</time></trkpt><trkpt lat="39.07645544232761" lon="16.47308385436589"><ele>966.0</ele><time>2026-04-11T18:27:34Z</time></trkpt><trkpt lat="39.07633481131362" lon="16.47315865907105"><ele>967.0</ele><time>2026-04-11T18:27:35Z</time></trkpt><trkpt lat="39.076223216196" lon="16.47325419907937"><ele>968.0</ele><time>2026-04-11T18:27:36Z</time></trkpt><trkpt lat="39.076111075935216" lon="16.473351829958546"><ele>969.0</ele><time>2026-04-11T18:27:37Z</time></trkpt><trkpt lat="39.075998906431145" lon="16.47345083196256"><ele>969.0</ele><time>2026-04-11T18:27:38Z</time></trkpt><trkpt lat="39.07589268235629" lon="16.473545426026842"><ele>969.0</ele><time>2026-04-11T18:27:39Z</time></trkpt><trkpt lat="39.075808022101256" lon="16.47364696521551"><ele>969.0</ele><time>2026-04-11T18:27:40Z</time></trkpt><trkpt lat="39.0757218161696" lon="16.473727357681003"><ele>969.0</ele><time>2026-04-11T18:27:41Z</time></trkpt><trkpt lat="39.07563988391428" lon="16.473824995617512"><ele>970.0</ele><time>2026-04-11T18:27:42Z</time></trkpt><trkpt lat="39.07556244061136" lon="16.47394352015328"><ele>971.0</ele><time>2026-04-11T18:27:43Z</time></trkpt><trkpt lat="39.07549852515965" lon="16.47406398617"><ele>972.0</ele><time>2026-04-11T18:27:44Z</time></trkpt><trkpt lat="39.07543425943118" lon="16.474210423271035"><ele>973.0</ele><time>2026-04-11T18:27:45Z</time></trkpt><trkpt lat="39.07540374075483" lon="16.474340961657038"><ele>973.0</ele><time>2026-04-11T18:27:46Z</time></trkpt><trkpt lat="39.07539621670238" lon="16.474473660670913"><ele>973.0</ele><time>2026-04-11T18:27:47Z</time></trkpt><trkpt lat="39.075424513761014" lon="16.47457302286239"><ele>973.0</ele><time>2026-04-11T18:27:48Z</time></trkpt><trkpt lat="39.07547364609334" lon="16.474666063866575"><ele>973.0</ele><time>2026-04-11T18:27:49Z</time></trkpt><trkpt lat="39.075550324780636" lon="16.474740068707792"><ele>973.0</ele><time>2026-04-11T18:27:50Z</time></trkpt><trkpt lat="39.07564347441588" lon="16.474808043655436"><ele>974.75</ele><time>2026-04-11T18:27:51Z</time></trkpt><trkpt lat="39.07575179483743" lon="16.47485883931112"><ele>976.5</ele><time>2026-04-11T18:27:52Z</time></trkpt><trkpt lat="39.07587201686016" lon="16.47490648229369"><ele>978.25</ele><time>2026-04-11T18:27:53Z</time></trkpt><trkpt lat="39.075990833690724" lon="16.4749627770617"><ele>980.0</ele><time>2026-04-11T18:27:54Z</time></trkpt><trkpt lat="39.07610407444011" lon="16.475039037064427"><ele>980.0</ele><time>2026-04-11T18:27:55Z</time></trkpt><trkpt lat="39.076213242867425" lon="16.47512102239448"><ele>980.0</ele><time>2026-04-11T18:27:56Z</time></trkpt><trkpt lat="39.07632175523468" lon="16.475200516010577"><ele>980.0</ele><time>2026-04-11T18:27:57Z</time></trkpt><trkpt lat="39.07642965805022" lon="16.475243408113087"><ele>980.0</ele><time>2026-04-11T18:27:58Z</time></trkpt><trkpt lat="39.076546466896495" lon="16.475248008441685"><ele>980.0</ele><time>2026-04-11T18:27:59Z</time></trkpt><trkpt lat="39.076650814265506" lon="16.47521357823276"><ele>980.0</ele><time>2026-04-11T18:28:00Z</time></trkpt><trkpt lat="39.07674387584491" lon="16.47515807479512"><ele>980.0</ele><time>2026-04-11T18:28:01Z</time></trkpt><trkpt lat="39.07684415689064" lon="16.47512056246151"><ele>980.0</ele><time>2026-04-11T18:28:02Z</time></trkpt><trkpt lat="39.07693886724387" lon="16.47513071819194"><ele>980.0</ele><time>2026-04-11T18:28:03Z</time></trkpt><trkpt lat="39.077029558252946" lon="16.475172409883992"><ele>980.0</ele><time>2026-04-11T18:28:04Z</time></trkpt><trkpt lat="39.07710083279409" lon="16.475233851891698"><ele>980.0</ele><time>2026-04-11T18:28:05Z</time></trkpt><trkpt lat="39.07710495441907" lon="16.475365373028716"><ele>980.0</ele><time>2026-04-11T18:28:06Z</time></trkpt><trkpt lat="39.07716156392943" lon="16.475509676926496"><ele>980.0</ele><time>2026-04-11T18:28:07Z</time></trkpt><trkpt lat="39.07722058992743" lon="16.475651113067094"><ele>980.0</ele><time>2026-04-11T18:28:08Z</time></trkpt><trkpt lat="39.077275746236936" lon="16.475786263051685"><ele>976.8</ele><time>2026-04-11T18:28:09Z</time></trkpt><trkpt lat="39.077337110728735" lon="16.475902284753122"><ele>973.6</ele><time>2026-04-11T18:28:10Z</time></trkpt><trkpt lat="39.077414096972305" lon="16.475982280114522"><ele>970.4000000000001</ele><time>2026-04-11T18:28:11Z</time></trkpt><trkpt lat="39.07750629442482" lon="16.476018030832563"><ele>967.2</ele><time>2026-04-11T18:28:12Z</time></trkpt><trkpt lat="39.077606093182105" lon="16.47600642991182"><ele>964.0</ele><time>2026-04-11T18:28:13Z</time></trkpt><trkpt lat="39.077715106135955" lon="16.475960544747327"><ele>964.0</ele><time>2026-04-11T18:28:14Z</time></trkpt><trkpt lat="39.07781709853423" lon="16.475905231942807"><ele>964.0000000000001</ele><time>2026-04-11T18:28:15Z</time></trkpt><trkpt lat="39.07792389604149" lon="16.47584847140127"><ele>964.0000000000001</ele><time>2026-04-11T18:28:16Z</time></trkpt><trkpt lat="39.07803331585572" lon="16.475806465277447"><ele>964.0</ele><time>2026-04-11T18:28:17Z</time></trkpt><trkpt lat="39.07813914352025" lon="16.475773202656228"><ele>964.0</ele><time>2026-04-11T18:28:18Z</time></trkpt><trkpt lat="39.078231717827364" lon="16.47574260303082"><ele>962.8000000000001</ele><time>2026-04-11T18:28:19Z</time></trkpt><trkpt lat="39.078325456055964" lon="16.475750557040527"><ele>961.6000000000001</ele><time>2026-04-11T18:28:20Z</time></trkpt><trkpt lat="39.0784152702751" lon="16.47580329259735"><ele>960.4</ele><time>2026-04-11T18:28:21Z</time></trkpt><trkpt lat="39.078503454409095" lon="16.475888897521184"><ele>959.2</ele><time>2026-04-11T18:28:22Z</time></trkpt><trkpt lat="39.078584364016415" lon="16.475954908592417"><ele>958.0</ele><time>2026-04-11T18:28:23Z</time></trkpt><trkpt lat="39.07870002755456" lon="16.475971662846305"><ele>958.0</ele><time>2026-04-11T18:28:24Z</time></trkpt><trkpt lat="39.07882092721095" lon="16.475957034790543"><ele>958.0</ele><time>2026-04-11T18:28:25Z</time></trkpt><trkpt lat="39.078943427107006" lon="16.475954829860367"><ele>958.0</ele><time>2026-04-11T18:28:26Z</time></trkpt><trkpt lat="39.07905894037881" lon="16.475955583727018"><ele>958.0</ele><time>2026-04-11T18:28:27Z</time></trkpt><trkpt lat="39.079155065999515" lon="16.475960035458233"><ele>957.5999999999999</ele><time>2026-04-11T18:28:28Z</time></trkpt><trkpt lat="39.0792428244556" lon="16.475982383799852"><ele>957.1999999999999</ele><time>2026-04-11T18:28:29Z</time></trkpt><trkpt lat="39.07931538367383" lon="16.47604089798443"><ele>956.8</ele><time>2026-04-11T18:28:30Z</time></trkpt><trkpt lat="39.07935986396565" lon="16.47615449253022"><ele>956.4</ele><time>2026-04-11T18:28:31Z</time></trkpt><trkpt lat="39.079431198797444" lon="16.47625422972397"><ele>956.0</ele><time>2026-04-11T18:28:32Z</time></trkpt><trkpt lat="39.07950434254052" lon="16.47636606708982"><ele>954.8</ele><time>2026-04-11T18:28:33Z</time></trkpt><trkpt lat="39.07957736861472" lon="16.476475710654434"><ele>953.5999999999999</ele><time>2026-04-11T18:28:34Z</time></trkpt><trkpt lat="39.07966050272649" lon="16.47657172121466"><ele>952.4</ele><time>2026-04-11T18:28:35Z</time></trkpt><trkpt lat="39.07975707170235" lon="16.476637506406576"><ele>951.2</ele><time>2026-04-11T18:28:36Z</time></trkpt><trkpt lat="39.07986242533177" lon="16.476684625930268"><ele>950.0</ele><time>2026-04-11T18:28:37Z</time></trkpt><trkpt lat="39.0799851764422" lon="16.476710535607886"><ele>950.0</ele><time>2026-04-11T18:28:38Z</time></trkpt><trkpt lat="39.08010310305199" lon="16.476739342934096"><ele>950.0</ele><time>2026-04-11T18:28:39Z</time></trkpt><trkpt lat="39.080218786956266" lon="16.476768533145357"><ele>950.0</ele><time>2026-04-11T18:28:40Z</time></trkpt><trkpt lat="39.08033865446013" lon="16.47679163670123"><ele>950.0</ele><time>2026-04-11T18:28:41Z</time></trkpt><trkpt lat="39.080461918415416" lon="16.476796440184163"><ele>950.0</ele><time>2026-04-11T18:28:42Z</time></trkpt><trkpt lat="39.080575768892515" lon="16.476795056677627"><ele>950.0</ele><time>2026-04-11T18:28:43Z</time></trkpt><trkpt lat="39.08068395150587" lon="16.476810348365067"><ele>950.0</ele><time>2026-04-11T18:28:44Z</time></trkpt><trkpt lat="39.08079262926078" lon="16.476826418446475"><ele>950.0</ele><time>2026-04-11T18:28:45Z</time></trkpt><trkpt lat="39.08088448788402" lon="16.47686074164984"><ele>950.0</ele><time>2026-04-11T18:28:46Z</time></trkpt><trkpt lat="39.080943101033284" lon="16.47694615142032"><ele>950.0000000000001</ele><time>2026-04-11T18:28:47Z</time></trkpt><trkpt lat="39.08099888805498" lon="16.477033202691945"><ele>950.0</ele><time>2026-04-11T18:28:48Z</time></trkpt><trkpt lat="39.08107025934366" lon="16.47710876896286"><ele>950.0</ele><time>2026-04-11T18:28:49Z</time></trkpt><trkpt lat="39.08111384093194" lon="16.477206212264065"><ele>950.0</ele><time>2026-04-11T18:28:50Z</time></trkpt><trkpt lat="39.08112759351913" lon="16.47729585471428"><ele>950.0000000000001</ele><time>2026-04-11T18:28:51Z</time></trkpt><trkpt lat="39.08108927630786" lon="16.477386681674133"><ele>950.0</ele><time>2026-04-11T18:28:52Z</time></trkpt><trkpt lat="39.08103216149176" lon="16.477457866844087"><ele>950.0</ele><time>2026-04-11T18:28:53Z</time></trkpt><trkpt lat="39.080956070878784" lon="16.477492849146522"><ele>950.0</ele><time>2026-04-11T18:28:54Z</time></trkpt><trkpt lat="39.080870767332605" lon="16.47753755615033"><ele>950.0</ele><time>2026-04-11T18:28:55Z</time></trkpt><trkpt lat="39.08077948207951" lon="16.47758386280115"><ele>950.0</ele><time>2026-04-11T18:28:56Z</time></trkpt><trkpt lat="39.08068307223296" lon="16.47763987903908"><ele>950.0</ele><time>2026-04-11T18:28:57Z</time></trkpt><trkpt lat="39.08057075148691" lon="16.47767634658108"><ele>949.0</ele><time>2026-04-11T18:28:58Z</time></trkpt><trkpt lat="39.08044647693206" lon="16.47770725430882"><ele>948.0</ele><time>2026-04-11T18:28:59Z</time></trkpt><trkpt lat="39.080322688594556" lon="16.47773297061213"><ele>947.0</ele><time>2026-04-11T18:29:00Z</time></trkpt><trkpt lat="39.08019207876186" lon="16.47775764012382"><ele>946.0</ele><time>2026-04-11T18:29:01Z</time></trkpt><trkpt lat="39.080074096355304" lon="16.47777765685589"><ele>946.0</ele><time>2026-04-11T18:29:02Z</time></trkpt><trkpt lat="39.07996609520294" lon="16.477807890496017"><ele>946.0</ele><time>2026-04-11T18:29:03Z</time></trkpt><trkpt lat="39.0798532977941" lon="16.477847652985034"><ele>946.0</ele><time>2026-04-11T18:29:04Z</time></trkpt><trkpt lat="39.07974110777952" lon="16.477903243745907"><ele>946.0</ele><time>2026-04-11T18:29:05Z</time></trkpt><trkpt lat="39.079636037925034" lon="16.477971649960114"><ele>948.4</ele><time>2026-04-11T18:29:06Z</time></trkpt><trkpt lat="39.0795348826357" lon="16.478047068740686"><ele>950.8</ele><time>2026-04-11T18:29:07Z</time></trkpt><trkpt lat="39.07943243744772" lon="16.47813101663351"><ele>953.1999999999999</ele><time>2026-04-11T18:29:08Z</time></trkpt><trkpt lat="39.07934315886869" lon="16.47820610613919"><ele>955.5999999999999</ele><time>2026-04-11T18:29:09Z</time></trkpt><trkpt lat="39.07926347701004" lon="16.478274980317746"><ele>958.0</ele><time>2026-04-11T18:29:10Z</time></trkpt><trkpt lat="39.07917458983209" lon="16.478354484964836"><ele>958.0</ele><time>2026-04-11T18:29:11Z</time></trkpt><trkpt lat="39.07910603821432" lon="16.47845071691195"><ele>958.0</ele><time>2026-04-11T18:29:12Z</time></trkpt><trkpt lat="39.07904028220639" lon="16.47855460808558"><ele>958.0</ele><time>2026-04-11T18:29:13Z</time></trkpt><trkpt lat="39.07899162509004" lon="16.47867840271644"><ele>958.0</ele><time>2026-04-11T18:29:14Z</time></trkpt><trkpt lat="39.07894635197592" lon="16.478803062788728"><ele>958.0</ele><time>2026-04-11T18:29:15Z</time></trkpt><trkpt lat="39.078895944802305" lon="16.478908618963036"><ele>960.3333333333333</ele><time>2026-04-11T18:29:16Z</time></trkpt><trkpt lat="39.07885338170696" lon="16.478995513412517"><ele>962.6666666666666</ele><time>2026-04-11T18:29:17Z</time></trkpt><trkpt lat="39.07881520879516" lon="16.47906050324186"><ele>965.0</ele><time>2026-04-11T18:29:18Z</time></trkpt><trkpt lat="39.07875312893047" lon="16.479087059865222"><ele>967.3333333333333</ele><time>2026-04-11T18:29:19Z</time></trkpt><trkpt lat="39.07866374621101" lon="16.479073521737703"><ele>969.6666666666666</ele><time>2026-04-11T18:29:20Z</time></trkpt><trkpt lat="39.07858266037859" lon="16.479029391571917"><ele>972.0</ele><time>2026-04-11T18:29:21Z</time></trkpt><trkpt lat="39.07852813591395" lon="16.478959302777294"><ele>972.0</ele><time>2026-04-11T18:29:22Z</time></trkpt><trkpt lat="39.07847451652563" lon="16.47887702377055"><ele>972.0</ele><time>2026-04-11T18:29:23Z</time></trkpt><trkpt lat="39.078410555938795" lon="16.478811438884716"><ele>972.0</ele><time>2026-04-11T18:29:24Z</time></trkpt><trkpt lat="39.07831453613403" lon="16.478768840155738"><ele>972.0</ele><time>2026-04-11T18:29:25Z</time></trkpt><trkpt lat="39.078203634873134" lon="16.47876960052331"><ele>972.0</ele><time>2026-04-11T18:29:26Z</time></trkpt><trkpt lat="39.078094836877796" lon="16.47880135685415"><ele>973.4000000000001</ele><time>2026-04-11T18:29:27Z</time></trkpt><trkpt lat="39.07798254015343" lon="16.47880240244223"><ele>974.8000000000001</ele><time>2026-04-11T18:29:28Z</time></trkpt><trkpt lat="39.077870126057505" lon="16.478819848093483"><ele>976.2</ele><time>2026-04-11T18:29:29Z</time></trkpt><trkpt lat="39.077762869933366" lon="16.478838624926908"><ele>977.6</ele><time>2026-04-11T18:29:30Z</time></trkpt><trkpt lat="39.07767489142245" lon="16.478857223149554"><ele>979.0</ele><time>2026-04-11T18:29:31Z</time></trkpt><trkpt lat="39.07758812774002" lon="16.478884027380595"><ele>979.0</ele><time>2026-04-11T18:29:32Z</time></trkpt><trkpt lat="39.07751073356406" lon="16.478944067326456"><ele>979.0000000000001</ele><time>2026-04-11T18:29:33Z</time></trkpt><trkpt lat="39.07746917369179" lon="16.4790881220834"><ele>979.0000000000001</ele><time>2026-04-11T18:29:34Z</time></trkpt><trkpt lat="39.077420278249804" lon="16.47918666191735"><ele>979.0</ele><time>2026-04-11T18:29:35Z</time></trkpt><trkpt lat="39.07735672593238" lon="16.47925847551938"><ele>979.0</ele><time>2026-04-11T18:29:36Z</time></trkpt><trkpt lat="39.07726731868195" lon="16.479268523295485"><ele>977.4000000000001</ele><time>2026-04-11T18:29:37Z</time></trkpt><trkpt lat="39.077166948463315" lon="16.47925087480754"><ele>975.8000000000001</ele><time>2026-04-11T18:29:38Z</time></trkpt><trkpt lat="39.077051893349285" lon="16.47925930953064"><ele>974.1999999999999</ele><time>2026-04-11T18:29:39Z</time></trkpt><trkpt lat="39.07696358197914" lon="16.47929687041693"><ele>972.5999999999999</ele><time>2026-04-11T18:29:40Z</time></trkpt><trkpt lat="39.07687583952505" lon="16.47937033230766"><ele>971.0</ele><time>2026-04-11T18:29:41Z</time></trkpt><trkpt lat="39.07680988701505" lon="16.479453593715085"><ele>971.0000000000001</ele><time>2026-04-11T18:29:42Z</time></trkpt><trkpt lat="39.076753784541964" lon="16.47952497948091"><ele>971.0</ele><time>2026-04-11T18:29:43Z</time></trkpt><trkpt lat="39.07669395783524" lon="16.47958716144739"><ele>971.0</ele><time>2026-04-11T18:29:44Z</time></trkpt><trkpt lat="39.076631728408714" lon="16.479619553974594"><ele>971.0</ele><time>2026-04-11T18:29:45Z</time></trkpt><trkpt lat="39.07655349368424" lon="16.479638799647976"><ele>971.0000000000001</ele><time>2026-04-11T18:29:46Z</time></trkpt><trkpt lat="39.07645666697603" lon="16.47965236328346"><ele>971.0</ele><time>2026-04-11T18:29:47Z</time></trkpt><trkpt lat="39.07635028994383" lon="16.479665070255585"><ele>974.5999999999999</ele><time>2026-04-11T18:29:48Z</time></trkpt><trkpt lat="39.076249925270076" lon="16.479677847156594"><ele>978.1999999999999</ele><time>2026-04-11T18:29:49Z</time></trkpt><trkpt lat="39.0761440796264" lon="16.479697867036347"><ele>981.8000000000001</ele><time>2026-04-11T18:29:50Z</time></trkpt><trkpt lat="39.07603565976131" lon="16.479722781456125"><ele>985.4000000000001</ele><time>2026-04-11T18:29:51Z</time></trkpt><trkpt lat="39.075922991047456" lon="16.47975806490345"><ele>989.0</ele><time>2026-04-11T18:29:52Z</time></trkpt><trkpt lat="39.07581853160345" lon="16.47981626024962"><ele>985.5</ele><time>2026-04-11T18:29:53Z</time></trkpt><trkpt lat="39.0757193669968" lon="16.479897216756573"><ele>982.0</ele><time>2026-04-11T18:29:54Z</time></trkpt><trkpt lat="39.07562780701606" lon="16.479992293405612"><ele>978.5</ele><time>2026-04-11T18:29:55Z</time></trkpt><trkpt lat="39.07554191115374" lon="16.48009329000026"><ele>975.0</ele><time>2026-04-11T18:29:56Z</time></trkpt><trkpt lat="39.07547208097691" lon="16.48018837765524"><ele>975.0</ele><time>2026-04-11T18:29:57Z</time></trkpt><trkpt lat="39.075420966306545" lon="16.48029081779726"><ele>975.0</ele><time>2026-04-11T18:29:58Z</time></trkpt><trkpt lat="39.075407602446106" lon="16.480427896275003"><ele>975.0</ele><time>2026-04-11T18:29:59Z</time></trkpt><trkpt lat="39.07542580488986" lon="16.480561251080314"><ele>975.0</ele><time>2026-04-11T18:30:00Z</time></trkpt><trkpt lat="39.07548210815312" lon="16.480674709358873"><ele>975.0</ele><time>2026-04-11T18:30:01Z</time></trkpt><trkpt lat="39.0755343478466" lon="16.48079111042978"><ele>975.0</ele><time>2026-04-11T18:30:02Z</time></trkpt><trkpt lat="39.07557393491749" lon="16.480917625701434"><ele>975.0</ele><time>2026-04-11T18:30:03Z</time></trkpt><trkpt lat="39.075600153353335" lon="16.48105711856267"><ele>975.0</ele><time>2026-04-11T18:30:04Z</time></trkpt><trkpt lat="39.07563217198482" lon="16.481205910940467"><ele>975.0</ele><time>2026-04-11T18:30:05Z</time></trkpt><trkpt lat="39.07566142295579" lon="16.481344607806665"><ele>975.0</ele><time>2026-04-11T18:30:06Z</time></trkpt><trkpt lat="39.0756823713674" lon="16.4814601420258"><ele>975.0</ele><time>2026-04-11T18:30:07Z</time></trkpt><trkpt lat="39.07569351943763" lon="16.481567213085757"><ele>975.0</ele><time>2026-04-11T18:30:08Z</time></trkpt><trkpt lat="39.07571557115369" lon="16.481677183638883"><ele>975.0</ele><time>2026-04-11T18:30:09Z</time></trkpt><trkpt lat="39.07574403921781" lon="16.481771304408742"><ele>975.0</ele><time>2026-04-11T18:30:10Z</time></trkpt><trkpt lat="39.075782156736345" lon="16.481861172715"><ele>975.0</ele><time>2026-04-11T18:30:11Z</time></trkpt><trkpt lat="39.075864278889654" lon="16.48190435215232"><ele>975.0</ele><time>2026-04-11T18:30:12Z</time></trkpt><trkpt lat="39.07594090083949" lon="16.48194041271278"><ele>980.8</ele><time>2026-04-11T18:30:13Z</time></trkpt><trkpt lat="39.076023485797805" lon="16.481937595665116"><ele>986.6</ele><time>2026-04-11T18:30:14Z</time></trkpt><trkpt lat="39.07611253977283" lon="16.48191813637465"><ele>992.4000000000001</ele><time>2026-04-11T18:30:15Z</time></trkpt><trkpt lat="39.07620116435299" lon="16.481895166548373"><ele>998.2</ele><time>2026-04-11T18:30:16Z</time></trkpt><trkpt lat="39.07630243748412" lon="16.481873086104017"><ele>1004.0</ele><time>2026-04-11T18:30:17Z</time></trkpt><trkpt lat="39.07640149690472" lon="16.481851244002534"><ele>1004.0000000000001</ele><time>2026-04-11T18:30:18Z</time></trkpt><trkpt lat="39.076499731570465" lon="16.4818242557717"><ele>1004.0</ele><time>2026-04-11T18:30:19Z</time></trkpt><trkpt lat="39.07658270951924" lon="16.481810990640383"><ele>1004.0</ele><time>2026-04-11T18:30:20Z</time></trkpt><trkpt lat="39.07666625759989" lon="16.48182770756212"><ele>1004.0</ele><time>2026-04-11T18:30:21Z</time></trkpt><trkpt lat="39.076738931609775" lon="16.48187796173187"><ele>1004.0000000000001</ele><time>2026-04-11T18:30:22Z</time></trkpt><trkpt lat="39.076771835038606" lon="16.481958429771673"><ele>1004.0</ele><time>2026-04-11T18:30:23Z</time></trkpt><trkpt lat="39.076774105254856" lon="16.48205117381529"><ele>1005.6666666666667</ele><time>2026-04-11T18:30:24Z</time></trkpt><trkpt lat="39.0767191042898" lon="16.48213299830898"><ele>1007.3333333333334</ele><time>2026-04-11T18:30:25Z</time></trkpt><trkpt lat="39.07666495844629" lon="16.482213897820802"><ele>1009.0</ele><time>2026-04-11T18:30:26Z</time></trkpt><trkpt lat="39.07662357626764" lon="16.482298982594052"><ele>1010.6666666666667</ele><time>2026-04-11T18:30:27Z</time></trkpt><trkpt lat="39.07660523112172" lon="16.482401844379215"><ele>1012.3333333333334</ele><time>2026-04-11T18:30:28Z</time></trkpt><trkpt lat="39.076619922563765" lon="16.482514552082666"><ele>1014.0</ele><time>2026-04-11T18:30:29Z</time></trkpt><trkpt lat="39.076663037345696" lon="16.482611205684414"><ele>1014.0</ele><time>2026-04-11T18:30:30Z</time></trkpt><trkpt lat="39.076730128775004" lon="16.482684993507302"><ele>1014.0000000000001</ele><time>2026-04-11T18:30:31Z</time></trkpt><trkpt lat="39.07680795029125" lon="16.482750172955793"><ele>1014.0000000000001</ele><time>2026-04-11T18:30:32Z</time></trkpt><trkpt lat="39.07688593075702" lon="16.48281755473956"><ele>1014.0</ele><time>2026-04-11T18:30:33Z</time></trkpt><trkpt lat="39.07696967448967" lon="16.482885050448225"><ele>1014.0</ele><time>2026-04-11T18:30:34Z</time></trkpt><trkpt lat="39.07705743343308" lon="16.482953872434642"><ele>1012.8000000000001</ele><time>2026-04-11T18:30:35Z</time></trkpt><trkpt lat="39.077144433580465" lon="16.483021654016678"><ele>1011.6000000000001</ele><time>2026-04-11T18:30:36Z</time></trkpt><trkpt lat="39.0772383510794" lon="16.483081249161266"><ele>1010.4</ele><time>2026-04-11T18:30:37Z</time></trkpt><trkpt lat="39.07733663469803" lon="16.48313650687377"><ele>1009.2</ele><time>2026-04-11T18:30:38Z</time></trkpt><trkpt lat="39.07743916866657" lon="16.483194983848406"><ele>1008.0</ele><time>2026-04-11T18:30:39Z</time></trkpt><trkpt lat="39.0775382172412" lon="16.483252880707827"><ele>1012.0</ele><time>2026-04-11T18:30:40Z</time></trkpt><trkpt lat="39.07764397443694" lon="16.483295417544323"><ele>1016.0</ele><time>2026-04-11T18:30:41Z</time></trkpt><trkpt lat="39.077752657522645" lon="16.48333899086871"><ele>1020.0</ele><time>2026-04-11T18:30:42Z</time></trkpt><trkpt lat="39.07785836658802" lon="16.483392507698632"><ele>1024.0</ele><time>2026-04-11T18:30:43Z</time></trkpt><trkpt lat="39.07797076838226" lon="16.48344857875429"><ele>1024.0</ele><time>2026-04-11T18:30:44Z</time></trkpt><trkpt lat="39.07808568745368" lon="16.483503377216714"><ele>1024.0</ele><time>2026-04-11T18:30:45Z</time></trkpt><trkpt lat="39.078201497606074" lon="16.483553593224983"><ele>1024.0</ele><time>2026-04-11T18:30:46Z</time></trkpt><trkpt lat="39.07831034111332" lon="16.483602810483628"><ele>1024.0</ele><time>2026-04-11T18:30:47Z</time></trkpt><trkpt lat="39.07841790212398" lon="16.483644237015238"><ele>1027.75</ele><time>2026-04-11T18:30:48Z</time></trkpt><trkpt lat="39.07853223003423" lon="16.48366539386099"><ele>1031.5</ele><time>2026-04-11T18:30:49Z</time></trkpt><trkpt lat="39.0786547045648" lon="16.4836928522018"><ele>1035.25</ele><time>2026-04-11T18:30:50Z</time></trkpt><trkpt lat="39.078773325653785" lon="16.483686410967113"><ele>1039.0</ele><time>2026-04-11T18:30:51Z</time></trkpt><trkpt lat="39.07889176346163" lon="16.483675485780342"><ele>1039.0</ele><time>2026-04-11T18:30:52Z</time></trkpt><trkpt lat="39.07900729058039" lon="16.483664308157817"><ele>1039.0</ele><time>2026-04-11T18:30:53Z</time></trkpt><trkpt lat="39.079127034853336" lon="16.483668494641275"><ele>1039.0</ele><time>2026-04-11T18:30:54Z</time></trkpt><trkpt lat="39.07925144588326" lon="16.48368247937657"><ele>1039.0</ele><time>2026-04-11T18:30:55Z</time></trkpt><trkpt lat="39.07937910774976" lon="16.4836954782928"><ele>1040.25</ele><time>2026-04-11T18:30:56Z</time></trkpt><trkpt lat="39.07950482219972" lon="16.483712337218382"><ele>1041.5</ele><time>2026-04-11T18:30:57Z</time></trkpt><trkpt lat="39.07963487704683" lon="16.48373411767107"><ele>1042.75</ele><time>2026-04-11T18:30:58Z</time></trkpt><trkpt lat="39.07976994935015" lon="16.483759775180452"><ele>1044.0</ele><time>2026-04-11T18:30:59Z</time></trkpt><trkpt lat="39.0799085846496" lon="16.483787322534976"><ele>1042.0</ele><time>2026-04-11T18:31:00Z</time></trkpt><trkpt lat="39.08004159348807" lon="16.483816084514356"><ele>1040.0</ele><time>2026-04-11T18:31:01Z</time></trkpt><trkpt lat="39.08017184487741" lon="16.483845119693033"><ele>1038.0</ele><time>2026-04-11T18:31:02Z</time></trkpt><trkpt lat="39.08030675326072" lon="16.483870743296915"><ele>1036.0</ele><time>2026-04-11T18:31:03Z</time></trkpt><trkpt lat="39.080421781732845" lon="16.48389697937112"><ele>1036.0</ele><time>2026-04-11T18:31:04Z</time></trkpt><trkpt lat="39.08052444818292" lon="16.483919095636182"><ele>1036.0</ele><time>2026-04-11T18:31:05Z</time></trkpt><trkpt lat="39.0806200464764" lon="16.483892829107308"><ele>1036.0</ele><time>2026-04-11T18:31:06Z</time></trkpt><trkpt lat="39.08071866456102" lon="16.483849273295085"><ele>1036.0</ele><time>2026-04-11T18:31:07Z</time></trkpt><trkpt lat="39.080805537671324" lon="16.483765754711275"><ele>1036.0</ele><time>2026-04-11T18:31:08Z</time></trkpt><trkpt lat="39.08089230966368" lon="16.48366405290692"><ele>1041.25</ele><time>2026-04-11T18:31:09Z</time></trkpt><trkpt lat="39.08097713279222" lon="16.483560879647726"><ele>1046.5</ele><time>2026-04-11T18:31:10Z</time></trkpt><trkpt lat="39.08108843954154" lon="16.483493965571643"><ele>1051.75</ele><time>2026-04-11T18:31:11Z</time></trkpt><trkpt lat="39.0811974021148" lon="16.48342714958695"><ele>1057.0</ele><time>2026-04-11T18:31:12Z</time></trkpt><trkpt lat="39.08131865236206" lon="16.48337468836455"><ele>1057.0</ele><time>2026-04-11T18:31:13Z</time></trkpt><trkpt lat="39.08144312402248" lon="16.483380427042764"><ele>1057.0</ele><time>2026-04-11T18:31:14Z</time></trkpt><trkpt lat="39.081570029553625" lon="16.483355834685288"><ele>1057.0</ele><time>2026-04-11T18:31:15Z</time></trkpt><trkpt lat="39.081689803202934" lon="16.48334630905399"><ele>1057.0</ele><time>2026-04-11T18:31:16Z</time></trkpt><trkpt lat="39.08180639477105" lon="16.48332073529543"><ele>1056.0</ele><time>2026-04-11T18:31:17Z</time></trkpt><trkpt lat="39.081928730880094" lon="16.483293952511342"><ele>1055.0</ele><time>2026-04-11T18:31:18Z</time></trkpt><trkpt lat="39.08205111854223" lon="16.48327241944143"><ele>1054.0</ele><time>2026-04-11T18:31:19Z</time></trkpt><trkpt lat="39.08218188347314" lon="16.483252785710246"><ele>1053.0</ele><time>2026-04-11T18:31:20Z</time></trkpt><trkpt lat="39.08230388085737" lon="16.483236618229967"><ele>1053.0</ele><time>2026-04-11T18:31:21Z</time></trkpt><trkpt lat="39.082417412055904" lon="16.483217329212906"><ele>1053.0</ele><time>2026-04-11T18:31:22Z</time></trkpt><trkpt lat="39.082541941368945" lon="16.4832020834816"><ele>1053.0</ele><time>2026-04-11T18:31:23Z</time></trkpt><trkpt lat="39.08266116523552" lon="16.483176835529715"><ele>1053.0</ele><time>2026-04-11T18:31:24Z</time></trkpt><trkpt lat="39.082786771143596" lon="16.483158730813905"><ele>1053.0</ele><time>2026-04-11T18:31:25Z</time></trkpt><trkpt lat="39.0829158086967" lon="16.48313304977956"><ele>1053.0</ele><time>2026-04-11T18:31:26Z</time></trkpt><trkpt lat="39.08303254052577" lon="16.48312671177382"><ele>1053.0</ele><time>2026-04-11T18:31:27Z</time></trkpt><trkpt lat="39.08312410097113" lon="16.48317785561449"><ele>1053.0</ele><time>2026-04-11T18:31:28Z</time></trkpt><trkpt lat="39.08317920485195" lon="16.483245809352226"><ele>1053.0</ele><time>2026-04-11T18:31:29Z</time></trkpt><trkpt lat="39.0832302027889" lon="16.483337727970138"><ele>1054.4</ele><time>2026-04-11T18:31:30Z</time></trkpt><trkpt lat="39.08328743557911" lon="16.48343512539975"><ele>1055.8</ele><time>2026-04-11T18:31:31Z</time></trkpt><trkpt lat="39.08335668723198" lon="16.48351941897254"><ele>1057.2</ele><time>2026-04-11T18:31:32Z</time></trkpt><trkpt lat="39.08342174592015" lon="16.483610268853642"><ele>1058.6</ele><time>2026-04-11T18:31:33Z</time></trkpt><trkpt lat="39.08349322702823" lon="16.48368557960419"><ele>1060.0</ele><time>2026-04-11T18:31:34Z</time></trkpt><trkpt lat="39.08359551219846" lon="16.483683743936986"><ele>1060.0</ele><time>2026-04-11T18:31:35Z</time></trkpt><trkpt lat="39.083692304379106" lon="16.483678984301566"><ele>1060.0</ele><time>2026-04-11T18:31:36Z</time></trkpt><trkpt lat="39.08378023927077" lon="16.483671724892357"><ele>1060.0</ele><time>2026-04-11T18:31:37Z</time></trkpt><trkpt lat="39.08386426052767" lon="16.483649113455392"><ele>1060.0</ele><time>2026-04-11T18:31:38Z</time></trkpt><trkpt lat="39.083944050858804" lon="16.48359996533771"><ele>1060.0</ele><time>2026-04-11T18:31:39Z</time></trkpt><trkpt lat="39.084012500349914" lon="16.483530683208034"><ele>1060.0</ele><time>2026-04-11T18:31:40Z</time></trkpt><trkpt lat="39.084071833407606" lon="16.483453796003634"><ele>1061.6</ele><time>2026-04-11T18:31:41Z</time></trkpt><trkpt lat="39.08413214829874" lon="16.483373052327327"><ele>1063.2</ele><time>2026-04-11T18:31:42Z</time></trkpt><trkpt lat="39.084196105532065" lon="16.483284374440593"><ele>1064.8</ele><time>2026-04-11T18:31:43Z</time></trkpt><trkpt lat="39.08426121761604" lon="16.48319549392472"><ele>1066.4</ele><time>2026-04-11T18:31:44Z</time></trkpt><trkpt lat="39.084329376083296" lon="16.483124087527806"><ele>1068.0</ele><time>2026-04-11T18:31:45Z</time></trkpt><trkpt lat="39.08440323543317" lon="16.48306554186369"><ele>1068.0</ele><time>2026-04-11T18:31:46Z</time></trkpt><trkpt lat="39.08448603861481" lon="16.483026051540154"><ele>1068.0</ele><time>2026-04-11T18:31:47Z</time></trkpt><trkpt lat="39.084590384189845" lon="16.483010501556134"><ele>1068.0</ele><time>2026-04-11T18:31:48Z</time></trkpt><trkpt lat="39.08468778590372" lon="16.483066105373677"><ele>1068.0</ele><time>2026-04-11T18:31:49Z</time></trkpt><trkpt lat="39.084785965448155" lon="16.48310229382423"><ele>1068.0</ele><time>2026-04-11T18:31:50Z</time></trkpt><trkpt lat="39.08488383610004" lon="16.483125928001314"><ele>1069.0</ele><time>2026-04-11T18:31:51Z</time></trkpt><trkpt lat="39.08498042636099" lon="16.483158580493818"><ele>1070.0</ele><time>2026-04-11T18:31:52Z</time></trkpt><trkpt lat="39.085082377529496" lon="16.48315293720451"><ele>1071.0</ele><time>2026-04-11T18:31:53Z</time></trkpt><trkpt lat="39.08518345651223" lon="16.483130057454968"><ele>1072.0</ele><time>2026-04-11T18:31:54Z</time></trkpt><trkpt lat="39.08529146956193" lon="16.48309948170949"><ele>1073.0</ele><time>2026-04-11T18:31:55Z</time></trkpt><trkpt lat="39.08539670135882" lon="16.48307685242903"><ele>1073.0</ele><time>2026-04-11T18:31:56Z</time></trkpt><trkpt lat="39.08549480859828" lon="16.48305433062905"><ele>1073.0</ele><time>2026-04-11T18:31:57Z</time></trkpt><trkpt lat="39.08559493894009" lon="16.483056122426103"><ele>1073.0</ele><time>2026-04-11T18:31:58Z</time></trkpt><trkpt lat="39.08568036343616" lon="16.48308966532738"><ele>1073.0</ele><time>2026-04-11T18:31:59Z</time></trkpt><trkpt lat="39.08575214531293" lon="16.483150378058898"><ele>1073.0</ele><time>2026-04-11T18:32:00Z</time></trkpt><trkpt lat="39.08578502208668" lon="16.483251393028564"><ele>1074.5</ele><time>2026-04-11T18:32:01Z</time></trkpt><trkpt lat="39.0858091779288" lon="16.48335753337353"><ele>1076.0</ele><time>2026-04-11T18:32:02Z</time></trkpt><trkpt lat="39.08582499729113" lon="16.48347061891507"><ele>1077.5</ele><time>2026-04-11T18:32:03Z</time></trkpt><trkpt lat="39.08585425881929" lon="16.483577424730935"><ele>1079.0</ele><time>2026-04-11T18:32:04Z</time></trkpt><trkpt lat="39.085887548211446" lon="16.483682242572424"><ele>1080.5</ele><time>2026-04-11T18:32:05Z</time></trkpt><trkpt lat="39.0859487640977" lon="16.48376216424217"><ele>1082.0</ele><time>2026-04-11T18:32:06Z</time></trkpt><trkpt lat="39.08603438354899" lon="16.48380628655556"><ele>1082.0</ele><time>2026-04-11T18:32:07Z</time></trkpt><trkpt lat="39.086130159432244" lon="16.483806425201337"><ele>1082.0</ele><time>2026-04-11T18:32:08Z</time></trkpt><trkpt lat="39.08623291085588" lon="16.483794140948564"><ele>1082.0</ele><time>2026-04-11T18:32:09Z</time></trkpt><trkpt lat="39.08633672223977" lon="16.483779710459014"><ele>1082.0</ele><time>2026-04-11T18:32:10Z</time></trkpt><trkpt lat="39.086437922562176" lon="16.48374700508177"><ele>1082.0</ele><time>2026-04-11T18:32:11Z</time></trkpt><trkpt lat="39.0865345985394" lon="16.4836761830238"><ele>1082.5</ele><time>2026-04-11T18:32:12Z</time></trkpt><trkpt lat="39.0866151313767" lon="16.483586672483657"><ele>1083.0</ele><time>2026-04-11T18:32:13Z</time></trkpt><trkpt lat="39.086684282843954" lon="16.48351989683711"><ele>1083.5</ele><time>2026-04-11T18:32:14Z</time></trkpt><trkpt lat="39.086755225915134" lon="16.483504913277592"><ele>1084.0</ele><time>2026-04-11T18:32:15Z</time></trkpt><trkpt lat="39.08682083210101" lon="16.483543538738484"><ele>1084.5</ele><time>2026-04-11T18:32:16Z</time></trkpt><trkpt lat="39.086877472999404" lon="16.483621035730913"><ele>1085.0</ele><time>2026-04-11T18:32:17Z</time></trkpt><trkpt lat="39.08690334360941" lon="16.483725519596682"><ele>1085.1666666666667</ele><time>2026-04-11T18:32:18Z</time></trkpt><trkpt lat="39.08688357696314" lon="16.483825642105543"><ele>1085.3333333333335</ele><time>2026-04-11T18:32:19Z</time></trkpt><trkpt lat="39.086812931533046" lon="16.483890283455974"><ele>1085.5</ele><time>2026-04-11T18:32:20Z</time></trkpt><trkpt lat="39.0867413967622" lon="16.483940863239233"><ele>1085.6666666666667</ele><time>2026-04-11T18:32:21Z</time></trkpt><trkpt lat="39.086668604178534" lon="16.484022318284737"><ele>1085.8333333333333</ele><time>2026-04-11T18:32:22Z</time></trkpt><trkpt lat="39.08660178833674" lon="16.484110244542556"><ele>1086.0</ele><time>2026-04-11T18:32:23Z</time></trkpt><trkpt lat="39.08654390426795" lon="16.484221675038352"><ele>1086.0</ele><time>2026-04-11T18:32:24Z</time></trkpt><trkpt lat="39.08647859170605" lon="16.48432032690354"><ele>1086.0</ele><time>2026-04-11T18:32:25Z</time></trkpt><trkpt lat="39.08645284437117" lon="16.48442633515399"><ele>1086.0</ele><time>2026-04-11T18:32:26Z</time></trkpt><trkpt lat="39.08647686546299" lon="16.484541470191687"><ele>1086.0</ele><time>2026-04-11T18:32:27Z</time></trkpt><trkpt lat="39.08652033680796" lon="16.484661928220767"><ele>1086.0</ele><time>2026-04-11T18:32:28Z</time></trkpt><trkpt lat="39.08659011539051" lon="16.484774624744613"><ele>1088.8</ele><time>2026-04-11T18:32:29Z</time></trkpt><trkpt lat="39.08668338217888" lon="16.484860921803527"><ele>1091.6</ele><time>2026-04-11T18:32:30Z</time></trkpt><trkpt lat="39.08677519000473" lon="16.4849340055008"><ele>1094.4</ele><time>2026-04-11T18:32:31Z</time></trkpt><trkpt lat="39.08687704843491" lon="16.484979888463887"><ele>1097.2</ele><time>2026-04-11T18:32:32Z</time></trkpt><trkpt lat="39.08698754307548" lon="16.484992447827963"><ele>1100.0</ele><time>2026-04-11T18:32:33Z</time></trkpt><trkpt lat="39.08709678629665" lon="16.48499429845846"><ele>1100.0</ele><time>2026-04-11T18:32:34Z</time></trkpt><trkpt lat="39.087210636384775" lon="16.4850035090002"><ele>1100.0</ele><time>2026-04-11T18:32:35Z</time></trkpt><trkpt lat="39.08730513100065" lon="16.485023835810512"><ele>1100.0</ele><time>2026-04-11T18:32:36Z</time></trkpt><trkpt lat="39.087390888199586" lon="16.485043263666608"><ele>1100.0</ele><time>2026-04-11T18:32:37Z</time></trkpt><trkpt lat="39.0874559664094" lon="16.48510670024273"><ele>1100.0</ele><time>2026-04-11T18:32:38Z</time></trkpt><trkpt lat="39.087514563476724" lon="16.485199434363942"><ele>1102.8</ele><time>2026-04-11T18:32:39Z</time></trkpt><trkpt lat="39.08758046465997" lon="16.48531734287449"><ele>1105.6</ele><time>2026-04-11T18:32:40Z</time></trkpt><trkpt lat="39.08765075821334" lon="16.485413141427642"><ele>1108.4</ele><time>2026-04-11T18:32:41Z</time></trkpt><trkpt lat="39.087689004520485" lon="16.485531347192747"><ele>1111.2</ele><time>2026-04-11T18:32:42Z</time></trkpt><trkpt lat="39.08772497236146" lon="16.48562703045173"><ele>1114.0</ele><time>2026-04-11T18:32:43Z</time></trkpt><trkpt lat="39.087743931308516" lon="16.485722162172205"><ele>1114.0</ele><time>2026-04-11T18:32:44Z</time></trkpt><trkpt lat="39.08773066684786" lon="16.485843954513832"><ele>1114.0</ele><time>2026-04-11T18:32:45Z</time></trkpt><trkpt lat="39.087685363391465" lon="16.485937446286513"><ele>1114.0</ele><time>2026-04-11T18:32:46Z</time></trkpt><trkpt lat="39.08761924266244" lon="16.48599285351713"><ele>1114.0</ele><time>2026-04-11T18:32:47Z</time></trkpt><trkpt lat="39.08754416336752" lon="16.48608561547629"><ele>1114.0</ele><time>2026-04-11T18:32:48Z</time></trkpt><trkpt lat="39.08748098228278" lon="16.48617584279732"><ele>1112.4</ele><time>2026-04-11T18:32:49Z</time></trkpt><trkpt lat="39.08743060872568" lon="16.486286479316234"><ele>1110.8000000000002</ele><time>2026-04-11T18:32:50Z</time></trkpt><trkpt lat="39.08741982840403" lon="16.486426226281974"><ele>1109.1999999999998</ele><time>2026-04-11T18:32:51Z</time></trkpt><trkpt lat="39.08746509899784" lon="16.48655931299192"><ele>1107.6</ele><time>2026-04-11T18:32:52Z</time></trkpt><trkpt lat="39.08751998095368" lon="16.48668499357603"><ele>1106.0</ele><time>2026-04-11T18:32:53Z</time></trkpt><trkpt lat="39.08756680268587" lon="16.486812761942257"><ele>1110.25</ele><time>2026-04-11T18:32:54Z</time></trkpt><trkpt lat="39.08762301166968" lon="16.486940422336627"><ele>1114.5</ele><time>2026-04-11T18:32:55Z</time></trkpt><trkpt lat="39.087678137417925" lon="16.48706568405112"><ele>1118.75</ele><time>2026-04-11T18:32:56Z</time></trkpt><trkpt lat="39.08773497283793" lon="16.48719747661861"><ele>1123.0</ele><time>2026-04-11T18:32:57Z</time></trkpt><trkpt lat="39.08779675645286" lon="16.487325292723067"><ele>1123.5</ele><time>2026-04-11T18:32:58Z</time></trkpt><trkpt lat="39.087850110235784" lon="16.487455007301612"><ele>1124.0</ele><time>2026-04-11T18:32:59Z</time></trkpt><trkpt lat="39.08789880278416" lon="16.48760140675729"><ele>1124.5</ele><time>2026-04-11T18:33:00Z</time></trkpt><trkpt lat="39.08794365134076" lon="16.487759294405766"><ele>1125.0</ele><time>2026-04-11T18:33:01Z</time></trkpt><trkpt lat="39.08796785682844" lon="16.487924674917167"><ele>1128.0</ele><time>2026-04-11T18:33:02Z</time></trkpt><trkpt lat="39.088002334573474" lon="16.48806461985352"><ele>1131.0</ele><time>2026-04-11T18:33:03Z</time></trkpt><trkpt lat="39.08804610505457" lon="16.48819734233457"><ele>1134.0</ele><time>2026-04-11T18:33:04Z</time></trkpt><trkpt lat="39.08809288935506" lon="16.48832835554499"><ele>1137.0</ele><time>2026-04-11T18:33:05Z</time></trkpt><trkpt lat="39.08815281714081" lon="16.488480724611566"><ele>1137.0</ele><time>2026-04-11T18:33:06Z</time></trkpt><trkpt lat="39.08822457745515" lon="16.488600191780506"><ele>1137.0</ele><time>2026-04-11T18:33:07Z</time></trkpt><trkpt lat="39.08827733868448" lon="16.4887491661058"><ele>1137.0</ele><time>2026-04-11T18:33:08Z</time></trkpt><trkpt lat="39.08835685598362" lon="16.488878599623774"><ele>1137.0</ele><time>2026-04-11T18:33:09Z</time></trkpt><trkpt lat="39.08841271364291" lon="16.489024634320504"><ele>1138.5</ele><time>2026-04-11T18:33:10Z</time></trkpt><trkpt lat="39.088488173501524" lon="16.4891580791775"><ele>1140.0</ele><time>2026-04-11T18:33:11Z</time></trkpt><trkpt lat="39.0885437017985" lon="16.489302507912473"><ele>1141.5</ele><time>2026-04-11T18:33:12Z</time></trkpt><trkpt lat="39.08860891393862" lon="16.489438725914212"><ele>1143.0</ele><time>2026-04-11T18:33:13Z</time></trkpt><trkpt lat="39.0886669924511" lon="16.489576685917708"><ele>1143.5</ele><time>2026-04-11T18:33:14Z</time></trkpt><trkpt lat="39.08872869346441" lon="16.489716186018317"><ele>1144.0</ele><time>2026-04-11T18:33:15Z</time></trkpt><trkpt lat="39.08879414567959" lon="16.489840567501773"><ele>1144.5</ele><time>2026-04-11T18:33:16Z</time></trkpt><trkpt lat="39.08884883567163" lon="16.489974572703872"><ele>1145.0</ele><time>2026-04-11T18:33:17Z</time></trkpt><trkpt lat="39.088909602685895" lon="16.490090411998768"><ele>1145.0</ele><time>2026-04-11T18:33:18Z</time></trkpt><trkpt lat="39.08899307509768" lon="16.490185199675103"><ele>1145.0</ele><time>2026-04-11T18:33:19Z</time></trkpt><trkpt lat="39.0890603602641" lon="16.490292727525627"><ele>1145.0</ele><time>2026-04-11T18:33:20Z</time></trkpt><trkpt lat="39.08916593666841" lon="16.490348341523223"><ele>1145.0</ele><time>2026-04-11T18:33:21Z</time></trkpt><trkpt lat="39.08926435753261" lon="16.490414698070175"><ele>1145.0</ele><time>2026-04-11T18:33:22Z</time></trkpt><trkpt lat="39.089365081730406" lon="16.490453362994874"><ele>1144.25</ele><time>2026-04-11T18:33:23Z</time></trkpt><trkpt lat="39.08947306286232" lon="16.490473459336723"><ele>1143.5</ele><time>2026-04-11T18:33:24Z</time></trkpt><trkpt lat="39.08958627899626" lon="16.490524651061477"><ele>1142.75</ele><time>2026-04-11T18:33:25Z</time></trkpt><trkpt lat="39.08969711013283" lon="16.490560296415044"><ele>1142.0</ele><time>2026-04-11T18:33:26Z</time></trkpt><trkpt lat="39.089817702948096" lon="16.490573741186076"><ele>1140.25</ele><time>2026-04-11T18:33:27Z</time></trkpt><trkpt lat="39.089935659069134" lon="16.4906066195961"><ele>1138.5</ele><time>2026-04-11T18:33:28Z</time></trkpt><trkpt lat="39.090048679539365" lon="16.49063679377717"><ele>1136.75</ele><time>2026-04-11T18:33:29Z</time></trkpt><trkpt lat="39.09015687979688" lon="16.490671105212822"><ele>1135.0</ele><time>2026-04-11T18:33:30Z</time></trkpt><trkpt lat="39.09027897693361" lon="16.49069716688387"><ele>1135.0</ele><time>2026-04-11T18:33:31Z</time></trkpt><trkpt lat="39.09039689606264" lon="16.49073468711815"><ele>1135.0</ele><time>2026-04-11T18:33:32Z</time></trkpt><trkpt lat="39.09049948281007" lon="16.490790867874434"><ele>1135.0</ele><time>2026-04-11T18:33:33Z</time></trkpt><trkpt lat="39.09060590728648" lon="16.490858191357834"><ele>1135.0</ele><time>2026-04-11T18:33:34Z</time></trkpt><trkpt lat="39.09071442595469" lon="16.490930613471118"><ele>1133.25</ele><time>2026-04-11T18:33:35Z</time></trkpt><trkpt lat="39.090823392374524" lon="16.491007686146936"><ele>1131.5</ele><time>2026-04-11T18:33:36Z</time></trkpt><trkpt lat="39.090932427200585" lon="16.49109075253522"><ele>1129.75</ele><time>2026-04-11T18:33:37Z</time></trkpt><trkpt lat="39.09104950076391" lon="16.491185889961884"><ele>1128.0</ele><time>2026-04-11T18:33:38Z</time></trkpt><trkpt lat="39.091163810633454" lon="16.491302590616844"><ele>1127.75</ele><time>2026-04-11T18:33:39Z</time></trkpt><trkpt lat="39.0912996549932" lon="16.49139213834414"><ele>1127.5</ele><time>2026-04-11T18:33:40Z</time></trkpt><trkpt lat="39.0914165324374" lon="16.491490991967336"><ele>1127.25</ele><time>2026-04-11T18:33:41Z</time></trkpt><trkpt lat="39.091534550435874" lon="16.491587787854513"><ele>1127.0</ele><time>2026-04-11T18:33:42Z</time></trkpt><trkpt lat="39.09164113304396" lon="16.49168379385181"><ele>1125.4</ele><time>2026-04-11T18:33:43Z</time></trkpt><trkpt lat="39.091722450658104" lon="16.49177740598502"><ele>1123.8000000000002</ele><time>2026-04-11T18:33:44Z</time></trkpt><trkpt lat="39.09177846477851" lon="16.491888307908184"><ele>1122.2</ele><time>2026-04-11T18:33:45Z</time></trkpt><trkpt lat="39.09177933986432" lon="16.492017038146127"><ele>1120.6000000000001</ele><time>2026-04-11T18:33:46Z</time></trkpt><trkpt lat="39.09177201091249" lon="16.492139183513014"><ele>1119.0</ele><time>2026-04-11T18:33:47Z</time></trkpt><trkpt lat="39.0917696186322" lon="16.492271432449588"><ele>1118.8</ele><time>2026-04-11T18:33:48Z</time></trkpt><trkpt lat="39.09175476727553" lon="16.492405857804606"><ele>1118.6000000000001</ele><time>2026-04-11T18:33:49Z</time></trkpt><trkpt lat="39.09174266344059" lon="16.49254550424088"><ele>1118.4</ele><time>2026-04-11T18:33:50Z</time></trkpt><trkpt lat="39.09173545821053" lon="16.492690742303232"><ele>1118.2</ele><time>2026-04-11T18:33:51Z</time></trkpt><trkpt lat="39.091735543306655" lon="16.492840609205324"><ele>1118.0</ele><time>2026-04-11T18:33:52Z</time></trkpt><trkpt lat="39.091724315032636" lon="16.49299484774625"><ele>1117.5</ele><time>2026-04-11T18:33:53Z</time></trkpt><trkpt lat="39.09175099337971" lon="16.493152386179197"><ele>1117.0</ele><time>2026-04-11T18:33:54Z</time></trkpt><trkpt lat="39.091761027171565" lon="16.49331286862816"><ele>1116.5</ele><time>2026-04-11T18:33:55Z</time></trkpt><trkpt lat="39.09177616929989" lon="16.493480310206206"><ele>1116.0</ele><time>2026-04-11T18:33:56Z</time></trkpt><trkpt lat="39.09178466480596" lon="16.493649503682747"><ele>1115.75</ele><time>2026-04-11T18:33:57Z</time></trkpt><trkpt lat="39.0917941563822" lon="16.493819659949946"><ele>1115.5</ele><time>2026-04-11T18:33:58Z</time></trkpt><trkpt lat="39.09180835586161" lon="16.49398673833341"><ele>1115.25</ele><time>2026-04-11T18:33:59Z</time></trkpt><trkpt lat="39.09182702007396" lon="16.494147926429427"><ele>1115.0</ele><time>2026-04-11T18:34:00Z</time></trkpt><trkpt lat="39.09183976338413" lon="16.494301611264824"><ele>1115.0</ele><time>2026-04-11T18:34:01Z</time></trkpt><trkpt lat="39.0918516920778" lon="16.494441286903896"><ele>1115.0</ele><time>2026-04-11T18:34:02Z</time></trkpt><trkpt lat="39.09185778550073" lon="16.4945749686531"><ele>1115.0</ele><time>2026-04-11T18:34:03Z</time></trkpt><trkpt lat="39.09186634177357" lon="16.4946968472306"><ele>1115.0</ele><time>2026-04-11T18:34:04Z</time></trkpt><trkpt lat="39.09189084045716" lon="16.49481560567805"><ele>1115.0</ele><time>2026-04-11T18:34:05Z</time></trkpt><trkpt lat="39.09192358162765" lon="16.494928302426544"><ele>1114.4</ele><time>2026-04-11T18:34:06Z</time></trkpt><trkpt lat="39.09196369690928" lon="16.495035493088963"><ele>1113.8</ele><time>2026-04-11T18:34:07Z</time></trkpt><trkpt lat="39.092014568609734" lon="16.495143720120094"><ele>1113.2</ele><time>2026-04-11T18:34:08Z</time></trkpt><trkpt lat="39.09207902511272" lon="16.495246576573322"><ele>1112.6</ele><time>2026-04-11T18:34:09Z</time></trkpt><trkpt lat="39.09215265605478" lon="16.495352962485818"><ele>1112.0</ele><time>2026-04-11T18:34:10Z</time></trkpt><trkpt lat="39.09222547820991" lon="16.495453973876494"><ele>1112.0</ele><time>2026-04-11T18:34:11Z</time></trkpt><trkpt lat="39.092308051929315" lon="16.495531530116295"><ele>1112.0</ele><time>2026-04-11T18:34:12Z</time></trkpt><trkpt lat="39.092413201682504" lon="16.49557764995043"><ele>1112.0</ele><time>2026-04-11T18:34:13Z</time></trkpt><trkpt lat="39.09252659553196" lon="16.495596222512184"><ele>1112.0</ele><time>2026-04-11T18:34:14Z</time></trkpt><trkpt lat="39.09262443641293" lon="16.495607611622837"><ele>1112.0</ele><time>2026-04-11T18:34:15Z</time></trkpt><trkpt lat="39.09270563738784" lon="16.495612503321787"><ele>1112.0</ele><time>2026-04-11T18:34:16Z</time></trkpt><trkpt lat="39.09279404529207" lon="16.495615585595438"><ele>1112.0</ele><time>2026-04-11T18:34:17Z</time></trkpt><trkpt lat="39.09297974388775" lon="16.49562293750752"><ele>1112.0</ele><time>2026-04-11T18:34:18Z</time></trkpt><trkpt lat="39.093087008810464" lon="16.49561398502043"><ele>1112.0</ele><time>2026-04-11T18:34:19Z</time></trkpt><trkpt lat="39.093187837913945" lon="16.495598387661303"><ele>1113.0</ele><time>2026-04-11T18:34:20Z</time></trkpt><trkpt lat="39.09328585467174" lon="16.49559005243515"><ele>1114.0</ele><time>2026-04-11T18:34:21Z</time></trkpt><trkpt lat="39.09337906566693" lon="16.495597544779116"><ele>1115.0</ele><time>2026-04-11T18:34:22Z</time></trkpt><trkpt lat="39.093469660843624" lon="16.495617272432238"><ele>1116.0</ele><time>2026-04-11T18:34:23Z</time></trkpt><trkpt lat="39.09353537168808" lon="16.495714770487993"><ele>1117.0</ele><time>2026-04-11T18:34:24Z</time></trkpt><trkpt lat="39.09355553221845" lon="16.495823655667728"><ele>1117.0</ele><time>2026-04-11T18:34:25Z</time></trkpt><trkpt lat="39.09358536121761" lon="16.495941911839786"><ele>1117.0</ele><time>2026-04-11T18:34:26Z</time></trkpt><trkpt lat="39.09363647657592" lon="16.496057518837553"><ele>1117.0</ele><time>2026-04-11T18:34:27Z</time></trkpt><trkpt lat="39.09365334960366" lon="16.496181816317264"><ele>1117.0</ele><time>2026-04-11T18:34:28Z</time></trkpt><trkpt lat="39.09368537100391" lon="16.49629783139683"><ele>1117.0</ele><time>2026-04-11T18:34:29Z</time></trkpt><trkpt lat="39.09371572173248" lon="16.49641142632685"><ele>1116.5</ele><time>2026-04-11T18:34:30Z</time></trkpt><trkpt lat="39.09374275943169" lon="16.4965231315413"><ele>1116.0</ele><time>2026-04-11T18:34:31Z</time></trkpt><trkpt lat="39.09377765818356" lon="16.496635522653964"><ele>1115.5</ele><time>2026-04-11T18:34:32Z</time></trkpt><trkpt lat="39.093761338840075" lon="16.496752662180914"><ele>1115.0</ele><time>2026-04-11T18:34:33Z</time></trkpt><trkpt lat="39.0937294056902" lon="16.496840460883185"><ele>1114.5</ele><time>2026-04-11T18:34:34Z</time></trkpt><trkpt lat="39.09365943042546" lon="16.496875592047"><ele>1114.0</ele><time>2026-04-11T18:34:35Z</time></trkpt><trkpt lat="39.09359006773992" lon="16.496915687559746"><ele>1114.0</ele><time>2026-04-11T18:34:36Z</time></trkpt><trkpt lat="39.093517481004376" lon="16.496980003851103"><ele>1114.0</ele><time>2026-04-11T18:34:37Z</time></trkpt><trkpt lat="39.09344391791035" lon="16.49707791559201"><ele>1114.0</ele><time>2026-04-11T18:34:38Z</time></trkpt><trkpt lat="39.093383575158185" lon="16.49719404396749"><ele>1114.0</ele><time>2026-04-11T18:34:39Z</time></trkpt><trkpt lat="39.09334496419925" lon="16.497352114428228"><ele>1114.0</ele><time>2026-04-11T18:34:40Z</time></trkpt><trkpt lat="39.09331021803769" lon="16.49749253066603"><ele>1114.0</ele><time>2026-04-11T18:34:41Z</time></trkpt><trkpt lat="39.09325836630532" lon="16.497620945104163"><ele>1114.0</ele><time>2026-04-11T18:34:42Z</time></trkpt><trkpt lat="39.09322728299249" lon="16.497760459852444"><ele>1114.0</ele><time>2026-04-11T18:34:43Z</time></trkpt><trkpt lat="39.09323563794486" lon="16.497899643777895"><ele>1114.0</ele><time>2026-04-11T18:34:44Z</time></trkpt><trkpt lat="39.0932535015898" lon="16.498021196992905"><ele>1114.0</ele><time>2026-04-11T18:34:45Z</time></trkpt><trkpt lat="39.09328943732901" lon="16.49813632584496"><ele>1116.0</ele><time>2026-04-11T18:34:46Z</time></trkpt><trkpt lat="39.09334308927834" lon="16.49823876270428"><ele>1118.0</ele><time>2026-04-11T18:34:47Z</time></trkpt><trkpt lat="39.09342900281526" lon="16.498332885533"><ele>1120.0</ele><time>2026-04-11T18:34:48Z</time></trkpt><trkpt lat="39.09351551012527" lon="16.498431820429815"><ele>1122.0</ele><time>2026-04-11T18:34:49Z</time></trkpt><trkpt lat="39.09358528777102" lon="16.498547859384963"><ele>1124.0</ele><time>2026-04-11T18:34:50Z</time></trkpt><trkpt lat="39.09366452076304" lon="16.498660808098037"><ele>1123.5</ele><time>2026-04-11T18:34:51Z</time></trkpt><trkpt lat="39.09374196637688" lon="16.498774568243945"><ele>1123.0</ele><time>2026-04-11T18:34:52Z</time></trkpt><trkpt lat="39.09382329979442" lon="16.49888843147021"><ele>1122.5</ele><time>2026-04-11T18:34:53Z</time></trkpt><trkpt lat="39.093901657767304" lon="16.49899967971532"><ele>1122.0</ele><time>2026-04-11T18:34:54Z</time></trkpt><trkpt lat="39.093980384432406" lon="16.499104355141437"><ele>1122.0</ele><time>2026-04-11T18:34:55Z</time></trkpt><trkpt lat="39.0940596981674" lon="16.499211257645964"><ele>1122.0</ele><time>2026-04-11T18:34:56Z</time></trkpt><trkpt lat="39.094130130607255" lon="16.499329050769425"><ele>1122.0</ele><time>2026-04-11T18:34:57Z</time></trkpt><trkpt lat="39.094224494786374" lon="16.499417554347765"><ele>1122.0</ele><time>2026-04-11T18:34:58Z</time></trkpt><trkpt lat="39.0943036114079" lon="16.499523712273284"><ele>1123.25</ele><time>2026-04-11T18:34:59Z</time></trkpt><trkpt lat="39.09439322161285" lon="16.49963539191096"><ele>1124.5</ele><time>2026-04-11T18:35:00Z</time></trkpt><trkpt lat="39.09447860103478" lon="16.49975707333471"><ele>1125.75</ele><time>2026-04-11T18:35:01Z</time></trkpt><trkpt lat="39.09457168890343" lon="16.499872241735535"><ele>1127.0</ele><time>2026-04-11T18:35:02Z</time></trkpt><trkpt lat="39.094659332319736" lon="16.49999588966172"><ele>1127.0</ele><time>2026-04-11T18:35:03Z</time></trkpt><trkpt lat="39.09474560634138" lon="16.500109413048907"><ele>1127.0</ele><time>2026-04-11T18:35:04Z</time></trkpt><trkpt lat="39.09482686640761" lon="16.500226228048604"><ele>1127.0</ele><time>2026-04-11T18:35:05Z</time></trkpt><trkpt lat="39.09490121629128" lon="16.50034209937119"><ele>1127.0</ele><time>2026-04-11T18:35:06Z</time></trkpt><trkpt lat="39.09496772301408" lon="16.500455001902232"><ele>1128.0</ele><time>2026-04-11T18:35:07Z</time></trkpt><trkpt lat="39.095032265161564" lon="16.500578334606182"><ele>1129.0</ele><time>2026-04-11T18:35:08Z</time></trkpt><trkpt lat="39.095093742530445" lon="16.500708376658547"><ele>1130.0</ele><time>2026-04-11T18:35:09Z</time></trkpt><trkpt lat="39.09515236568026" lon="16.500847223587893"><ele>1131.0</ele><time>2026-04-11T18:35:10Z</time></trkpt><trkpt lat="39.09521051989862" lon="16.500987492259153"><ele>1131.0</ele><time>2026-04-11T18:35:11Z</time></trkpt><trkpt lat="39.09526533814844" lon="16.50113499498625"><ele>1131.0</ele><time>2026-04-11T18:35:12Z</time></trkpt><trkpt lat="39.09531760633343" lon="16.501285079794833"><ele>1131.0</ele><time>2026-04-11T18:35:13Z</time></trkpt><trkpt lat="39.09536863703192" lon="16.50143629869942"><ele>1131.0</ele><time>2026-04-11T18:35:14Z</time></trkpt><trkpt lat="39.09541918828239" lon="16.501588460374546"><ele>1130.5</ele><time>2026-04-11T18:35:15Z</time></trkpt><trkpt lat="39.09546588893972" lon="16.50174023331315"><ele>1130.0</ele><time>2026-04-11T18:35:16Z</time></trkpt><trkpt lat="39.09550813698861" lon="16.501890987369194"><ele>1129.5</ele><time>2026-04-11T18:35:17Z</time></trkpt><trkpt lat="39.09554450088137" lon="16.50204429305469"><ele>1129.0</ele><time>2026-04-11T18:35:18Z</time></trkpt><trkpt lat="39.09557921393627" lon="16.502198785475994"><ele>1128.5</ele><time>2026-04-11T18:35:19Z</time></trkpt><trkpt lat="39.09561491358151" lon="16.502346195621435"><ele>1128.0</ele><time>2026-04-11T18:35:20Z</time></trkpt><trkpt lat="39.0956469950952" lon="16.502502934820782"><ele>1127.5</ele><time>2026-04-11T18:35:21Z</time></trkpt><trkpt lat="39.09568027812785" lon="16.5026514989423"><ele>1127.0</ele><time>2026-04-11T18:35:22Z</time></trkpt><trkpt lat="39.0957167549212" lon="16.50281110727602"><ele>1126.75</ele><time>2026-04-11T18:35:23Z</time></trkpt><trkpt lat="39.095751768787245" lon="16.502963367030798"><ele>1126.5</ele><time>2026-04-11T18:35:24Z</time></trkpt><trkpt lat="39.09578507912413" lon="16.50311093925786"><ele>1126.25</ele><time>2026-04-11T18:35:25Z</time></trkpt><trkpt lat="39.09582860707477" lon="16.503264637023477"><ele>1126.0</ele><time>2026-04-11T18:35:26Z</time></trkpt><trkpt lat="39.09585766123694" lon="16.503417547067244"><ele>1126.25</ele><time>2026-04-11T18:35:27Z</time></trkpt><trkpt lat="39.095944192533835" lon="16.50354785298387"><ele>1126.5</ele><time>2026-04-11T18:35:28Z</time></trkpt><trkpt lat="39.09601485617057" lon="16.50368839103799"><ele>1126.75</ele><time>2026-04-11T18:35:29Z</time></trkpt><trkpt lat="39.096089596124244" lon="16.503825080004646"><ele>1127.0</ele><time>2026-04-11T18:35:30Z</time></trkpt><trkpt lat="39.096151919611074" lon="16.50397396114262"><ele>1127.0</ele><time>2026-04-11T18:35:31Z</time></trkpt><trkpt lat="39.09623312928127" lon="16.504088412785837"><ele>1127.0</ele><time>2026-04-11T18:35:32Z</time></trkpt><trkpt lat="39.096293176972566" lon="16.504214570436055"><ele>1127.0</ele><time>2026-04-11T18:35:33Z</time></trkpt><trkpt lat="39.096362627534745" lon="16.504331736719788"><ele>1127.0</ele><time>2026-04-11T18:35:34Z</time></trkpt><trkpt lat="39.09643203539573" lon="16.504456947017676"><ele>1127.0</ele><time>2026-04-11T18:35:35Z</time></trkpt><trkpt lat="39.0965024426045" lon="16.50458085652886"><ele>1127.0</ele><time>2026-04-11T18:35:36Z</time></trkpt><trkpt lat="39.09657064197962" lon="16.504702884512064"><ele>1127.0</ele><time>2026-04-11T18:35:37Z</time></trkpt><trkpt lat="39.0966505622441" lon="16.50482154779529"><ele>1127.0</ele><time>2026-04-11T18:35:38Z</time></trkpt><trkpt lat="39.096720887312365" lon="16.504940330325486"><ele>1127.8</ele><time>2026-04-11T18:35:39Z</time></trkpt><trkpt lat="39.096788156725864" lon="16.50506104474437"><ele>1128.6</ele><time>2026-04-11T18:35:40Z</time></trkpt><trkpt lat="39.09683828536455" lon="16.505171579637864"><ele>1129.3999999999999</ele><time>2026-04-11T18:35:41Z</time></trkpt><trkpt lat="39.09688332167097" lon="16.505275492744317"><ele>1130.2</ele><time>2026-04-11T18:35:42Z</time></trkpt><trkpt lat="39.09691415592181" lon="16.505366806342252"><ele>1131.0</ele><time>2026-04-11T18:35:43Z</time></trkpt><trkpt lat="39.09693462172684" lon="16.505461889084025"><ele>1131.7142857142858</ele><time>2026-04-11T18:35:44Z</time></trkpt><trkpt lat="39.09694104527532" lon="16.505552292540063"><ele>1132.4285714285716</ele><time>2026-04-11T18:35:45Z</time></trkpt><trkpt lat="39.096923528543755" lon="16.505635543508383"><ele>1133.142857142857</ele><time>2026-04-11T18:35:46Z</time></trkpt><trkpt lat="39.096894537187225" lon="16.505709878611224"><ele>1133.857142857143</ele><time>2026-04-11T18:35:47Z</time></trkpt><trkpt lat="39.09685222274316" lon="16.505783089447217"><ele>1134.5714285714284</ele><time>2026-04-11T18:35:48Z</time></trkpt><trkpt lat="39.09679556139957" lon="16.505857193201507"><ele>1135.2857142857142</ele><time>2026-04-11T18:35:49Z</time></trkpt><trkpt lat="39.09673059716555" lon="16.50592414070297"><ele>1136.0</ele><time>2026-04-11T18:35:50Z</time></trkpt><trkpt lat="39.096655846837706" lon="16.505975566742467"><ele>1135.0</ele><time>2026-04-11T18:35:51Z</time></trkpt><trkpt lat="39.09656480514728" lon="16.50601070598368"><ele>1134.0</ele><time>2026-04-11T18:35:52Z</time></trkpt><trkpt lat="39.096471157927475" lon="16.50602254233937"><ele>1133.0</ele><time>2026-04-11T18:35:53Z</time></trkpt><trkpt lat="39.096371762791804" lon="16.50602255816843"><ele>1132.0</ele><time>2026-04-11T18:35:54Z</time></trkpt><trkpt lat="39.09626653433044" lon="16.506016264092676"><ele>1131.0</ele><time>2026-04-11T18:35:55Z</time></trkpt><trkpt lat="39.096148657694386" lon="16.50601374236621"><ele>1131.0</ele><time>2026-04-11T18:35:56Z</time></trkpt><trkpt lat="39.09603377992133" lon="16.50601217439875"><ele>1131.0</ele><time>2026-04-11T18:35:57Z</time></trkpt><trkpt lat="39.09591364804591" lon="16.506019046202724"><ele>1131.0</ele><time>2026-04-11T18:35:58Z</time></trkpt><trkpt lat="39.095791368594114" lon="16.505998289835915"><ele>1131.0</ele><time>2026-04-11T18:35:59Z</time></trkpt><trkpt lat="39.095658598089734" lon="16.50601416946087"><ele>1130.5</ele><time>2026-04-11T18:36:00Z</time></trkpt><trkpt lat="39.09553202384749" lon="16.506013793962424"><ele>1130.0</ele><time>2026-04-11T18:36:01Z</time></trkpt><trkpt lat="39.09540279936895" lon="16.506014253711893"><ele>1129.5</ele><time>2026-04-11T18:36:02Z</time></trkpt><trkpt lat="39.09527162692966" lon="16.506006259655717"><ele>1129.0</ele><time>2026-04-11T18:36:03Z</time></trkpt><trkpt lat="39.09514506360401" lon="16.506006802226725"><ele>1129.0</ele><time>2026-04-11T18:36:04Z</time></trkpt><trkpt lat="39.09501569596169" lon="16.50600874719244"><ele>1129.0</ele><time>2026-04-11T18:36:05Z</time></trkpt><trkpt lat="39.09488087935228" lon="16.50600607598542"><ele>1129.0</ele><time>2026-04-11T18:36:06Z</time></trkpt><trkpt lat="39.094749646698844" lon="16.506003205155363"><ele>1129.0</ele><time>2026-04-11T18:36:07Z</time></trkpt><trkpt lat="39.09461526433053" lon="16.50599811493076"><ele>1127.75</ele><time>2026-04-11T18:36:08Z</time></trkpt><trkpt lat="39.094481598722524" lon="16.50599103107536"><ele>1126.5</ele><time>2026-04-11T18:36:09Z</time></trkpt><trkpt lat="39.09434385856893" lon="16.50599109734477"><ele>1125.25</ele><time>2026-04-11T18:36:10Z</time></trkpt><trkpt lat="39.09420528548052" lon="16.505986216859586"><ele>1124.0</ele><time>2026-04-11T18:36:11Z</time></trkpt><trkpt lat="39.09406800864803" lon="16.50598521729032"><ele>1122.75</ele><time>2026-04-11T18:36:12Z</time></trkpt><trkpt lat="39.093935526761534" lon="16.505981340796794"><ele>1121.5</ele><time>2026-04-11T18:36:13Z</time></trkpt><trkpt lat="39.09380604361786" lon="16.505980118805542"><ele>1120.25</ele><time>2026-04-11T18:36:14Z</time></trkpt><trkpt lat="39.09367833423554" lon="16.505988514248216"><ele>1119.0</ele><time>2026-04-11T18:36:15Z</time></trkpt><trkpt lat="39.09355114529592" lon="16.50601464523199"><ele>1119.0</ele><time>2026-04-11T18:36:16Z</time></trkpt><trkpt lat="39.0934292954613" lon="16.506066069720735"><ele>1119.0</ele><time>2026-04-11T18:36:17Z</time></trkpt><trkpt lat="39.093316609262175" lon="16.506140271231434"><ele>1119.0</ele><time>2026-04-11T18:36:18Z</time></trkpt><trkpt lat="39.09320490989153" lon="16.50624189112689"><ele>1119.0</ele><time>2026-04-11T18:36:19Z</time></trkpt><trkpt lat="39.093108785557206" lon="16.506355665588174"><ele>1119.5</ele><time>2026-04-11T18:36:20Z</time></trkpt><trkpt lat="39.09300303041568" lon="16.506456930679615"><ele>1120.0</ele><time>2026-04-11T18:36:21Z</time></trkpt><trkpt lat="39.09290850355676" lon="16.50656073066188"><ele>1120.5</ele><time>2026-04-11T18:36:22Z</time></trkpt><trkpt lat="39.092800571414315" lon="16.506679433201082"><ele>1121.0</ele><time>2026-04-11T18:36:23Z</time></trkpt><trkpt lat="39.09270535812978" lon="16.506784147575903"><ele>1121.0</ele><time>2026-04-11T18:36:24Z</time></trkpt><trkpt lat="39.092615853984434" lon="16.506903935459167"><ele>1121.0</ele><time>2026-04-11T18:36:25Z</time></trkpt><trkpt lat="39.09256028810411" lon="16.506948922331873"><ele>1121.0</ele><time>2026-04-11T18:36:26Z</time></trkpt><trkpt lat="39.092468593613766" lon="16.50699802361628"><ele>1121.0</ele><time>2026-04-11T18:36:27Z</time></trkpt><trkpt lat="39.09238245074315" lon="16.50704145044477"><ele>1121.0</ele><time>2026-04-11T18:36:28Z</time></trkpt><trkpt lat="39.09228179842599" lon="16.50705580550765"><ele>1119.8</ele><time>2026-04-11T18:36:29Z</time></trkpt><trkpt lat="39.092168395309315" lon="16.507054902695902"><ele>1118.6</ele><time>2026-04-11T18:36:30Z</time></trkpt><trkpt lat="39.092058368560075" lon="16.507056957131823"><ele>1117.4</ele><time>2026-04-11T18:36:31Z</time></trkpt><trkpt lat="39.09195297826363" lon="16.507044325693577"><ele>1116.2</ele><time>2026-04-11T18:36:32Z</time></trkpt><trkpt lat="39.09185012805528" lon="16.507045638253388"><ele>1115.0</ele><time>2026-04-11T18:36:33Z</time></trkpt><trkpt lat="39.09174184698214" lon="16.50704437726752"><ele>1115.0</ele><time>2026-04-11T18:36:34Z</time></trkpt><trkpt lat="39.091619756003475" lon="16.507043171597253"><ele>1115.0</ele><time>2026-04-11T18:36:35Z</time></trkpt><trkpt lat="39.091488471707876" lon="16.507015364244968"><ele>1115.0</ele><time>2026-04-11T18:36:36Z</time></trkpt><trkpt lat="39.091351265478906" lon="16.5069818238908"><ele>1115.0</ele><time>2026-04-11T18:36:37Z</time></trkpt><trkpt lat="39.09121894201043" lon="16.506935681820526"><ele>1113.75</ele><time>2026-04-11T18:36:38Z</time></trkpt><trkpt lat="39.0910811613663" lon="16.506891668261108"><ele>1112.5</ele><time>2026-04-11T18:36:39Z</time></trkpt><trkpt lat="39.09094119459279" lon="16.506849704164356"><ele>1111.25</ele><time>2026-04-11T18:36:40Z</time></trkpt><trkpt lat="39.09079874831071" lon="16.506813363788908"><ele>1110.0</ele><time>2026-04-11T18:36:41Z</time></trkpt><trkpt lat="39.09066306089968" lon="16.506774169866976"><ele>1109.0</ele><time>2026-04-11T18:36:42Z</time></trkpt><trkpt lat="39.09052907191966" lon="16.50673695080355"><ele>1108.0</ele><time>2026-04-11T18:36:43Z</time></trkpt><trkpt lat="39.09040505336252" lon="16.506683119145872"><ele>1107.0</ele><time>2026-04-11T18:36:44Z</time></trkpt><trkpt lat="39.090275435203765" lon="16.506665321473932"><ele>1106.0</ele><time>2026-04-11T18:36:45Z</time></trkpt><trkpt lat="39.090153749315135" lon="16.506606935202004"><ele>1106.0</ele><time>2026-04-11T18:36:46Z</time></trkpt><trkpt lat="39.09002897365973" lon="16.506572069238178"><ele>1106.0</ele><time>2026-04-11T18:36:47Z</time></trkpt><trkpt lat="39.08990109794061" lon="16.506559545893992"><ele>1106.0</ele><time>2026-04-11T18:36:48Z</time></trkpt><trkpt lat="39.08976783566457" lon="16.506569733728494"><ele>1106.0</ele><time>2026-04-11T18:36:49Z</time></trkpt><trkpt lat="39.08962994833114" lon="16.50659975101865"><ele>1105.25</ele><time>2026-04-11T18:36:50Z</time></trkpt><trkpt lat="39.08949065708385" lon="16.50663483647725"><ele>1104.5</ele><time>2026-04-11T18:36:51Z</time></trkpt><trkpt lat="39.08934754812523" lon="16.506668013205996"><ele>1103.75</ele><time>2026-04-11T18:36:52Z</time></trkpt><trkpt lat="39.089203698510495" lon="16.506701361602826"><ele>1103.0</ele><time>2026-04-11T18:36:53Z</time></trkpt><trkpt lat="39.08905960618161" lon="16.50673484558535"><ele>1102.25</ele><time>2026-04-11T18:36:54Z</time></trkpt><trkpt lat="39.08891819771228" lon="16.506767706246777"><ele>1101.5</ele><time>2026-04-11T18:36:55Z</time></trkpt><trkpt lat="39.08878213366676" lon="16.50681993449996"><ele>1100.75</ele><time>2026-04-11T18:36:56Z</time></trkpt><trkpt lat="39.08864401135434" lon="16.506845495852186"><ele>1100.0</ele><time>2026-04-11T18:36:57Z</time></trkpt><trkpt lat="39.088503189095825" lon="16.506875726349005"><ele>1100.0</ele><time>2026-04-11T18:36:58Z</time></trkpt><trkpt lat="39.0883609590246" lon="16.506918686834823"><ele>1100.0</ele><time>2026-04-11T18:36:59Z</time></trkpt><trkpt lat="39.0882176118708" lon="16.506932170876237"><ele>1100.0</ele><time>2026-04-11T18:37:00Z</time></trkpt><trkpt lat="39.08807659360836" lon="16.506965558575594"><ele>1100.0</ele><time>2026-04-11T18:37:01Z</time></trkpt><trkpt lat="39.08793783489782" lon="16.506997837723592"><ele>1100.0</ele><time>2026-04-11T18:37:02Z</time></trkpt><trkpt lat="39.08779995144671" lon="16.507029351584567"><ele>1100.0</ele><time>2026-04-11T18:37:03Z</time></trkpt><trkpt lat="39.08766769624057" lon="16.507059583215984"><ele>1100.0</ele><time>2026-04-11T18:37:04Z</time></trkpt><trkpt lat="39.08753801258374" lon="16.50710242126895"><ele>1100.0</ele><time>2026-04-11T18:37:05Z</time></trkpt><trkpt lat="39.08740580751222" lon="16.507107689106366"><ele>1101.25</ele><time>2026-04-11T18:37:06Z</time></trkpt><trkpt lat="39.087276365305016" lon="16.507079396620167"><ele>1102.5</ele><time>2026-04-11T18:37:07Z</time></trkpt><trkpt lat="39.08714532086969" lon="16.507058839521612"><ele>1103.75</ele><time>2026-04-11T18:37:08Z</time></trkpt><trkpt lat="39.08700485385232" lon="16.507030913401227"><ele>1105.0</ele><time>2026-04-11T18:37:09Z</time></trkpt><trkpt lat="39.086864967249284" lon="16.507005312332005"><ele>1102.5</ele><time>2026-04-11T18:37:10Z</time></trkpt><trkpt lat="39.08672603461271" lon="16.506979885846338"><ele>1100.0</ele><time>2026-04-11T18:37:11Z</time></trkpt><trkpt lat="39.0865771227904" lon="16.5069527479334"><ele>1097.5</ele><time>2026-04-11T18:37:12Z</time></trkpt><trkpt lat="39.08644282076865" lon="16.506928734276652"><ele>1095.0</ele><time>2026-04-11T18:37:13Z</time></trkpt><trkpt lat="39.086313580257986" lon="16.506905625617605"><ele>1093.75</ele><time>2026-04-11T18:37:14Z</time></trkpt><trkpt lat="39.08619039910801" lon="16.50688246730114"><ele>1092.5</ele><time>2026-04-11T18:37:15Z</time></trkpt><trkpt lat="39.08606360833375" lon="16.50686059457312"><ele>1091.25</ele><time>2026-04-11T18:37:16Z</time></trkpt><trkpt lat="39.08593473053327" lon="16.506846512483087"><ele>1090.0</ele><time>2026-04-11T18:37:17Z</time></trkpt><trkpt lat="39.085806810711496" lon="16.506850316771036"><ele>1089.5</ele><time>2026-04-11T18:37:18Z</time></trkpt><trkpt lat="39.08567075931967" lon="16.50689330704571"><ele>1089.0</ele><time>2026-04-11T18:37:19Z</time></trkpt><trkpt lat="39.08554094446145" lon="16.506964411533076"><ele>1088.5</ele><time>2026-04-11T18:37:20Z</time></trkpt><trkpt lat="39.08541304336809" lon="16.507067534137345"><ele>1088.0</ele><time>2026-04-11T18:37:21Z</time></trkpt><trkpt lat="39.08529259930432" lon="16.50717626050395"><ele>1087.25</ele><time>2026-04-11T18:37:22Z</time></trkpt><trkpt lat="39.085172849481296" lon="16.50728472667798"><ele>1086.5</ele><time>2026-04-11T18:37:23Z</time></trkpt><trkpt lat="39.085052718578254" lon="16.50739278892615"><ele>1085.75</ele><time>2026-04-11T18:37:24Z</time></trkpt><trkpt lat="39.084929654670475" lon="16.507498787999776"><ele>1085.0</ele><time>2026-04-11T18:37:25Z</time></trkpt><trkpt lat="39.08480685987129" lon="16.50760455542736"><ele>1085.0</ele><time>2026-04-11T18:37:26Z</time></trkpt><trkpt lat="39.0846883220206" lon="16.507705073796195"><ele>1085.0</ele><time>2026-04-11T18:37:27Z</time></trkpt><trkpt lat="39.08457919040891" lon="16.507790603054215"><ele>1085.0</ele><time>2026-04-11T18:37:28Z</time></trkpt><trkpt lat="39.084476364466184" lon="16.50787119040052"><ele>1085.0</ele><time>2026-04-11T18:37:29Z</time></trkpt><trkpt lat="39.08438335605719" lon="16.507944113804236"><ele>1085.8</ele><time>2026-04-11T18:37:30Z</time></trkpt><trkpt lat="39.08429256324721" lon="16.508012843605233"><ele>1086.6</ele><time>2026-04-11T18:37:31Z</time></trkpt><trkpt lat="39.08421893990301" lon="16.50806857619743"><ele>1087.4</ele><time>2026-04-11T18:37:32Z</time></trkpt><trkpt lat="39.08410689430361" lon="16.508150725024805"><ele>1088.2</ele><time>2026-04-11T18:37:33Z</time></trkpt><trkpt lat="39.08401044338652" lon="16.508219532715213"><ele>1089.0</ele><time>2026-04-11T18:37:34Z</time></trkpt><trkpt lat="39.08392417257472" lon="16.50829516391661"><ele>1089.0</ele><time>2026-04-11T18:37:35Z</time></trkpt><trkpt lat="39.08383688528216" lon="16.50832806834452"><ele>1089.0</ele><time>2026-04-11T18:37:36Z</time></trkpt><trkpt lat="39.083754075301044" lon="16.50834524802437"><ele>1089.0</ele><time>2026-04-11T18:37:37Z</time></trkpt><trkpt lat="39.083676216184514" lon="16.50835669659314"><ele>1089.0</ele><time>2026-04-11T18:37:38Z</time></trkpt><trkpt lat="39.08359997650204" lon="16.50835904876629"><ele>1089.0</ele><time>2026-04-11T18:37:39Z</time></trkpt><trkpt lat="39.08351388640881" lon="16.508343399187602"><ele>1089.0</ele><time>2026-04-11T18:37:40Z</time></trkpt><trkpt lat="39.083413858848246" lon="16.50831398473838"><ele>1089.0</ele><time>2026-04-11T18:37:41Z</time></trkpt><trkpt lat="39.08331419650033" lon="16.508283445696602"><ele>1089.0</ele><time>2026-04-11T18:37:42Z</time></trkpt><trkpt lat="39.08322061790873" lon="16.508252390114514"><ele>1089.0</ele><time>2026-04-11T18:37:43Z</time></trkpt><trkpt lat="39.08312234356316" lon="16.508215760010913"><ele>1089.0</ele><time>2026-04-11T18:37:44Z</time></trkpt><trkpt lat="39.083016001891025" lon="16.508172526267067"><ele>1089.0</ele><time>2026-04-11T18:37:45Z</time></trkpt><trkpt lat="39.08290530469849" lon="16.508151490222644"><ele>1087.75</ele><time>2026-04-11T18:37:46Z</time></trkpt><trkpt lat="39.082784234131324" lon="16.508114273902493"><ele>1086.5</ele><time>2026-04-11T18:37:47Z</time></trkpt><trkpt lat="39.08267889984203" lon="16.508068890801752"><ele>1085.25</ele><time>2026-04-11T18:37:48Z</time></trkpt><trkpt lat="39.082569035897905" lon="16.50804658337565"><ele>1084.0</ele><time>2026-04-11T18:37:49Z</time></trkpt><trkpt lat="39.08244672903227" lon="16.508035575956786"><ele>1083.25</ele><time>2026-04-11T18:37:50Z</time></trkpt><trkpt lat="39.082327918878384" lon="16.508052709473716"><ele>1082.5</ele><time>2026-04-11T18:37:51Z</time></trkpt><trkpt lat="39.08220245679382" lon="16.50803605413803"><ele>1081.75</ele><time>2026-04-11T18:37:52Z</time></trkpt><trkpt lat="39.08207884968832" lon="16.50805192117835"><ele>1081.0</ele><time>2026-04-11T18:37:53Z</time></trkpt><trkpt lat="39.08196065252151" lon="16.508070002366527"><ele>1081.0</ele><time>2026-04-11T18:37:54Z</time></trkpt><trkpt lat="39.08182463559514" lon="16.50809907794129"><ele>1081.0</ele><time>2026-04-11T18:37:55Z</time></trkpt><trkpt lat="39.08170014743716" lon="16.50812767511603"><ele>1081.0</ele><time>2026-04-11T18:37:56Z</time></trkpt><trkpt lat="39.081581657542195" lon="16.508163191038363"><ele>1081.0</ele><time>2026-04-11T18:37:57Z</time></trkpt><trkpt lat="39.08145801926141" lon="16.50819437771976"><ele>1080.5</ele><time>2026-04-11T18:37:58Z</time></trkpt><trkpt lat="39.08132848255684" lon="16.50821326866322"><ele>1080.0</ele><time>2026-04-11T18:37:59Z</time></trkpt><trkpt lat="39.08121030960253" lon="16.50823863457453"><ele>1079.5</ele><time>2026-04-11T18:38:00Z</time></trkpt><trkpt lat="39.08108459777879" lon="16.50826531285668"><ele>1079.0</ele><time>2026-04-11T18:38:01Z</time></trkpt><trkpt lat="39.08095738536643" lon="16.508298001375902"><ele>1079.0</ele><time>2026-04-11T18:38:02Z</time></trkpt><trkpt lat="39.08083398780886" lon="16.508318210107696"><ele>1079.0</ele><time>2026-04-11T18:38:03Z</time></trkpt><trkpt lat="39.08072033811331" lon="16.508335584166392"><ele>1079.0</ele><time>2026-04-11T18:38:04Z</time></trkpt><trkpt lat="39.080589425532665" lon="16.508374468300126"><ele>1079.0</ele><time>2026-04-11T18:38:05Z</time></trkpt><trkpt lat="39.08046252728487" lon="16.508400925937206"><ele>1078.5</ele><time>2026-04-11T18:38:06Z</time></trkpt><trkpt lat="39.0803296035845" lon="16.50842666952344"><ele>1078.0</ele><time>2026-04-11T18:38:07Z</time></trkpt><trkpt lat="39.0802040638134" lon="16.508456840692997"><ele>1077.5</ele><time>2026-04-11T18:38:08Z</time></trkpt><trkpt lat="39.08007564204612" lon="16.508482787458135"><ele>1077.0</ele><time>2026-04-11T18:38:09Z</time></trkpt><trkpt lat="39.0799412431242" lon="16.508503978155016"><ele>1076.5</ele><time>2026-04-11T18:38:10Z</time></trkpt><trkpt lat="39.07980830945634" lon="16.508533739682903"><ele>1076.0</ele><time>2026-04-11T18:38:11Z</time></trkpt><trkpt lat="39.07967716701623" lon="16.508569941568236"><ele>1075.5</ele><time>2026-04-11T18:38:12Z</time></trkpt><trkpt lat="39.079541022751265" lon="16.508602549426005"><ele>1075.0</ele><time>2026-04-11T18:38:13Z</time></trkpt><trkpt lat="39.07939914804878" lon="16.50861169917442"><ele>1075.0</ele><time>2026-04-11T18:38:14Z</time></trkpt><trkpt lat="39.07926116971891" lon="16.508640705353923"><ele>1075.0</ele><time>2026-04-11T18:38:15Z</time></trkpt><trkpt lat="39.07912375002216" lon="16.508698306474844"><ele>1075.0</ele><time>2026-04-11T18:38:16Z</time></trkpt><trkpt lat="39.07898725899005" lon="16.508738076755712"><ele>1075.0</ele><time>2026-04-11T18:38:17Z</time></trkpt><trkpt lat="39.07885724115466" lon="16.508789041681514"><ele>1074.5</ele><time>2026-04-11T18:38:18Z</time></trkpt><trkpt lat="39.07872682069966" lon="16.508849140562276"><ele>1074.0</ele><time>2026-04-11T18:38:19Z</time></trkpt><trkpt lat="39.07860802801202" lon="16.508929412197368"><ele>1073.5</ele><time>2026-04-11T18:38:20Z</time></trkpt><trkpt lat="39.07848178180445" lon="16.509018477182103"><ele>1073.0</ele><time>2026-04-11T18:38:21Z</time></trkpt><trkpt lat="39.078365196729955" lon="16.509113971369004"><ele>1072.25</ele><time>2026-04-11T18:38:22Z</time></trkpt><trkpt lat="39.078251298678296" lon="16.509208409606398"><ele>1071.5</ele><time>2026-04-11T18:38:23Z</time></trkpt><trkpt lat="39.078129332528036" lon="16.50930653471701"><ele>1070.75</ele><time>2026-04-11T18:38:24Z</time></trkpt><trkpt lat="39.07800704411076" lon="16.509402864344644"><ele>1070.0</ele><time>2026-04-11T18:38:25Z</time></trkpt><trkpt lat="39.077888230691435" lon="16.509517560587327"><ele>1070.75</ele><time>2026-04-11T18:38:26Z</time></trkpt><trkpt lat="39.07776698172802" lon="16.509620107913722"><ele>1071.5</ele><time>2026-04-11T18:38:27Z</time></trkpt><trkpt lat="39.07764757289254" lon="16.509707451069698"><ele>1072.25</ele><time>2026-04-11T18:38:28Z</time></trkpt><trkpt lat="39.07752527226384" lon="16.509801414581688"><ele>1073.0</ele><time>2026-04-11T18:38:29Z</time></trkpt><trkpt lat="39.07740736454058" lon="16.509912805795153"><ele>1073.0</ele><time>2026-04-11T18:38:30Z</time></trkpt><trkpt lat="39.07728311982131" lon="16.510005998620038"><ele>1073.0</ele><time>2026-04-11T18:38:31Z</time></trkpt><trkpt lat="39.07716344295354" lon="16.510118747818304"><ele>1073.0</ele><time>2026-04-11T18:38:32Z</time></trkpt><trkpt lat="39.077041951729676" lon="16.51021377282534"><ele>1073.0</ele><time>2026-04-11T18:38:33Z</time></trkpt><trkpt lat="39.07692133426729" lon="16.510317980897643"><ele>1071.75</ele><time>2026-04-11T18:38:34Z</time></trkpt><trkpt lat="39.07679845366888" lon="16.510423985379422"><ele>1070.5</ele><time>2026-04-11T18:38:35Z</time></trkpt><trkpt lat="39.076661872226786" lon="16.510518067161126"><ele>1069.25</ele><time>2026-04-11T18:38:36Z</time></trkpt><trkpt lat="39.076560482029116" lon="16.510622427049775"><ele>1068.0</ele><time>2026-04-11T18:38:37Z</time></trkpt><trkpt lat="39.076432477829236" lon="16.510718816170446"><ele>1068.0</ele><time>2026-04-11T18:38:38Z</time></trkpt><trkpt lat="39.07631035561104" lon="16.51081385921221"><ele>1068.0</ele><time>2026-04-11T18:38:39Z</time></trkpt><trkpt lat="39.07619616942111" lon="16.510921457838517"><ele>1068.0</ele><time>2026-04-11T18:38:40Z</time></trkpt><trkpt lat="39.07607763730837" lon="16.511008255912348"><ele>1068.0</ele><time>2026-04-11T18:38:41Z</time></trkpt><trkpt lat="39.07593745805141" lon="16.51110096387699"><ele>1068.0</ele><time>2026-04-11T18:38:42Z</time></trkpt><trkpt lat="39.07582547248655" lon="16.511195688082207"><ele>1068.0</ele><time>2026-04-11T18:38:43Z</time></trkpt><trkpt lat="39.07571431700088" lon="16.511307139025295"><ele>1068.0</ele><time>2026-04-11T18:38:44Z</time></trkpt><trkpt lat="39.075608127175485" lon="16.511396383275386"><ele>1068.0</ele><time>2026-04-11T18:38:45Z</time></trkpt><trkpt lat="39.07548833689353" lon="16.5114928454674"><ele>1068.0</ele><time>2026-04-11T18:38:46Z</time></trkpt><trkpt lat="39.07537156599633" lon="16.511550899856786"><ele>1068.0</ele><time>2026-04-11T18:38:47Z</time></trkpt><trkpt lat="39.07525549873607" lon="16.511666497377107"><ele>1068.0</ele><time>2026-04-11T18:38:48Z</time></trkpt><trkpt lat="39.07515131905571" lon="16.511770646072957"><ele>1068.0</ele><time>2026-04-11T18:38:49Z</time></trkpt><trkpt lat="39.07502063164932" lon="16.51186740306506"><ele>1068.0</ele><time>2026-04-11T18:38:50Z</time></trkpt><trkpt lat="39.07495004893859" lon="16.512029003401945"><ele>1068.0</ele><time>2026-04-11T18:38:51Z</time></trkpt><trkpt lat="39.07486844937843" lon="16.51215416241439"><ele>1068.0</ele><time>2026-04-11T18:38:52Z</time></trkpt><trkpt lat="39.07477833181111" lon="16.512289687941273"><ele>1068.0</ele><time>2026-04-11T18:38:53Z</time></trkpt><trkpt lat="39.07468197547799" lon="16.512428624133985"><ele>1067.5</ele><time>2026-04-11T18:38:54Z</time></trkpt><trkpt lat="39.07460859415945" lon="16.51254368116868"><ele>1067.0</ele><time>2026-04-11T18:38:55Z</time></trkpt><trkpt lat="39.07455994517076" lon="16.512700460586036"><ele>1066.5</ele><time>2026-04-11T18:38:56Z</time></trkpt><trkpt lat="39.074509471809186" lon="16.512820739739027"><ele>1066.0</ele><time>2026-04-11T18:38:57Z</time></trkpt><trkpt lat="39.07445177036742" lon="16.51292579934785"><ele>1066.0</ele><time>2026-04-11T18:38:58Z</time></trkpt><trkpt lat="39.074406442671915" lon="16.51299931037393"><ele>1066.0</ele><time>2026-04-11T18:38:59Z</time></trkpt><trkpt lat="39.07437654077061" lon="16.51307339713336"><ele>1066.0</ele><time>2026-04-11T18:39:00Z</time></trkpt><trkpt lat="39.07431903656632" lon="16.513151911427922"><ele>1066.0</ele><time>2026-04-11T18:39:02Z</time></trkpt><trkpt lat="39.074370069199034" lon="16.51324747640683"><ele>1066.0</ele><time>2026-04-11T18:39:04Z</time></trkpt><trkpt lat="39.07439809453934" lon="16.513333163347344"><ele>1066.0</ele><time>2026-04-11T18:39:06Z</time></trkpt><trkpt lat="39.07442888582169" lon="16.513430941410775"><ele>1066.0</ele><time>2026-04-11T18:39:08Z</time></trkpt><trkpt lat="39.07447310834022" lon="16.51351504220657"><ele>1066.0</ele><time>2026-04-11T18:39:10Z</time></trkpt><trkpt lat="39.07450102337279" lon="16.51360265081401"><ele>1066.0</ele><time>2026-04-11T18:39:12Z</time></trkpt><trkpt lat="39.074649276090405" lon="16.5133098190876"><ele>1066.0</ele><time>2026-04-11T18:39:22Z</time></trkpt><trkpt lat="39.07460527445712" lon="16.513540463365583"><ele>1066.0</ele><time>2026-04-11T18:39:23Z</time></trkpt><trkpt lat="39.074545337544976" lon="16.51350860244953"><ele>1066.0</ele><time>2026-04-11T18:39:28Z</time></trkpt><trkpt lat="39.07452204741869" lon="16.51358455618013"><ele>1066.0</ele><time>2026-04-11T18:39:34Z</time></trkpt><trkpt lat="39.07449743523243" lon="16.51350288835223"><ele>1066.0</ele><time>2026-04-11T18:45:02Z</time></trkpt><trkpt lat="39.07458166993321" lon="16.51356254509252"><ele>1066.0</ele><time>2026-04-11T18:46:20Z</time></trkpt><trkpt lat="39.07461399423433" lon="16.51365271611008"><ele>1066.0</ele><time>2026-04-11T18:46:27Z</time></trkpt><trkpt lat="39.074701415001115" lon="16.513639667489777"><ele>1068.0</ele><time>2026-04-11T18:46:34Z</time></trkpt><trkpt lat="39.074844776596905" lon="16.51384716171714"><ele>1070.0</ele><time>2026-04-11T18:51:01.001Z</time></trkpt><trkpt lat="39.07459870152314" lon="16.51385820557773"><ele>1070.0</ele><time>2026-04-11T18:51:02Z</time></trkpt><trkpt lat="39.0745352802808" lon="16.51387656634969"><ele>1070.0</ele><time>2026-04-11T18:51:03Z</time></trkpt><trkpt lat="39.07459880367124" lon="16.51386355429843"><ele>1070.0</ele><time>2026-04-11T18:51:09Z</time></trkpt><trkpt lat="39.074659953822774" lon="16.513835592853106"><ele>1070.0</ele><time>2026-04-11T18:51:20Z</time></trkpt><trkpt lat="39.07474281128686" lon="16.513879939276208"><ele>1070.0</ele><time>2026-04-11T18:51:23Z</time></trkpt><trkpt lat="39.07478617783232" lon="16.513939655626903"><ele>1070.0</ele><time>2026-04-11T18:51:41Z</time></trkpt><trkpt lat="39.07486375639852" lon="16.513973371010323"><ele>1070.0</ele><time>2026-04-11T18:52:45Z</time></trkpt><trkpt lat="39.074755295534395" lon="16.513936661515814"><ele>1070.0</ele><time>2026-04-11T18:53:04Z</time></trkpt><trkpt lat="39.07491122968088" lon="16.513975209521124"><ele>1070.0</ele><time>2026-04-11T19:11:53Z</time></trkpt><trkpt lat="39.074803756252784" lon="16.51394200269037"><ele>1070.0</ele><time>2026-04-11T19:12:08Z</time></trkpt><trkpt lat="39.0747057370175" lon="16.513884062749458"><ele>1070.0</ele><time>2026-04-11T19:12:11Z</time></trkpt><trkpt lat="39.074771166284094" lon="16.51392272990632"><ele>1070.0</ele><time>2026-04-11T19:12:12Z</time></trkpt><trkpt lat="39.07472250251687" lon="16.513769650170932"><ele>1070.0</ele><time>2026-04-11T19:15:24.652Z</time></trkpt><trkpt lat="39.074671741613734" lon="16.513604284129926"><ele>1070.0</ele><time>2026-04-11T19:15:32.417Z</time></trkpt><trkpt lat="39.07475962003676" lon="16.513848434067654"><ele>1070.0</ele><time>2026-04-11T19:18:02.67Z</time></trkpt><trkpt lat="39.07469647882212" lon="16.513901484834737"><ele>1070.0</ele><time>2026-04-11T19:55:46.851Z</time></trkpt><trkpt lat="39.07468795" lon="16.51402664"><ele>1070.0</ele><time>2026-04-11T19:56:01.854Z</time></trkpt><trkpt lat="39.07471842006003" lon="16.51374798207846"><ele>1070.0</ele><time>2026-04-11T19:58:29.085Z</time></trkpt><trkpt lat="39.074803609265956" lon="16.513726868832784"><ele>1070.0</ele><time>2026-04-11T19:58:34.663Z</time></trkpt><trkpt lat="39.074749818277276" lon="16.51377103795084"><ele>1070.0</ele><time>2026-04-11T20:04:01Z</time></trkpt><trkpt lat="39.074734803364954" lon="16.513967166736293"><ele>1070.0</ele><time>2026-04-11T20:04:17Z</time></trkpt><trkpt lat="39.07469434062618" lon="16.513835468375266"><ele>1070.0</ele><time>2026-04-11T20:04:28Z</time></trkpt><trkpt lat="39.0747130894273" lon="16.513749186801075"><ele>1070.0</ele><time>2026-04-11T20:08:01Z</time></trkpt><trkpt lat="39.074664350729286" lon="16.513810654612733"><ele>1070.0</ele><time>2026-04-11T20:08:28Z</time></trkpt><trkpt lat="39.07459677857842" lon="16.51379471636591"><ele>1070.0</ele><time>2026-04-11T20:08:50Z</time></trkpt><trkpt lat="39.074706673884904" lon="16.513740165178852"><ele>1070.0</ele><time>2026-04-11T20:10:02.375Z</time></trkpt><trkpt lat="39.0746347030742" lon="16.513779219024595"><ele>1070.0</ele><time>2026-04-11T20:10:09Z</time></trkpt><trkpt lat="39.07455281349254" lon="16.513831459146687"><ele>1070.0</ele><time>2026-04-11T20:10:13Z</time></trkpt><trkpt lat="39.07446959469085" lon="16.513874200357552"><ele>1070.0</ele><time>2026-04-11T20:10:15Z</time></trkpt><trkpt lat="39.0743766465661" lon="16.51392193855275"><ele>1070.0</ele><time>2026-04-11T20:10:19Z</time></trkpt><trkpt lat="39.07428173445771" lon="16.513973987682654"><ele>1070.0</ele><time>2026-04-11T20:10:24Z</time></trkpt><trkpt lat="39.07422203994087" lon="16.514003611239076"><ele>1070.0</ele><time>2026-04-11T20:10:29Z</time></trkpt><trkpt lat="39.07431665267033" lon="16.513952946532463"><ele>1070.0</ele><time>2026-04-11T20:12:09.44Z</time></trkpt><trkpt lat="39.07438965040099" lon="16.513895888530918"><ele>1070.0</ele><time>2026-04-11T20:14:58.253Z</time></trkpt><trkpt lat="39.07446526557226" lon="16.513830988505266"><ele>1070.0</ele><time>2026-04-11T20:17:42.226Z</time></trkpt><trkpt lat="39.07453992792248" lon="16.51380387070351"><ele>1070.0</ele><time>2026-04-11T20:24:10.003Z</time></trkpt><trkpt lat="39.07475838061426" lon="16.513852764601364"><ele>1070.0</ele><time>2026-04-11T20:26:40.016Z</time></trkpt><trkpt lat="39.074721521857924" lon="16.513760875000855"><ele>1070.0</ele><time>2026-04-11T20:37:20.021Z</time></trkpt><trkpt lat="39.07481002" lon="16.51372528"><ele>1070.0</ele><time>2026-04-11T20:37:35.436Z</time></trkpt><trkpt lat="39.074682212308446" lon="16.514025435513833"><ele>1070.0</ele><time>2026-04-11T21:02:53Z</time></trkpt><trkpt lat="39.07476262994204" lon="16.513842887048867"><ele>1070.0</ele><time>2026-04-11T21:04:56Z</time></trkpt><trkpt lat="39.07469368355881" lon="16.513864179652508"><ele>1070.0</ele><time>2026-04-11T21:15:17.025Z</time></trkpt><trkpt lat="39.07465516248442" lon="16.5136618148635"><ele>1070.0</ele><time>2026-04-11T21:15:31.768Z</time></trkpt><trkpt lat="39.07455584705827" lon="16.513621700003444"><ele>1070.0</ele><time>2026-04-11T21:17:21Z</time></trkpt><trkpt lat="39.07449224837125" lon="16.51367235843892"><ele>1070.0</ele><time>2026-04-11T21:17:28Z</time></trkpt><trkpt lat="39.07444830244248" lon="16.51359733784974"><ele>1069.3333333333335</ele><time>2026-04-11T21:17:35Z</time></trkpt><trkpt lat="39.07445048669101" lon="16.51344162154274"><ele>1068.6666666666667</ele><time>2026-04-11T21:17:45Z</time></trkpt><trkpt lat="39.074428816039095" lon="16.513345869016632"><ele>1068.0</ele><time>2026-04-11T21:17:51Z</time></trkpt><trkpt lat="39.0744283714528" lon="16.51326136237545"><ele>1067.3333333333333</ele><time>2026-04-11T21:17:55Z</time></trkpt><trkpt lat="39.0744175270783" lon="16.513174059319258"><ele>1066.6666666666665</ele><time>2026-04-11T21:18:03Z</time></trkpt><trkpt lat="39.07437286908173" lon="16.51309938857943"><ele>1066.0</ele><time>2026-04-11T21:18:08Z</time></trkpt><trkpt lat="39.07433825712349" lon="16.513014450968157"><ele>1066.0</ele><time>2026-04-11T21:18:15Z</time></trkpt><trkpt lat="39.07433567060016" lon="16.512882294630856"><ele>1066.0</ele><time>2026-04-11T21:18:25Z</time></trkpt><trkpt lat="39.07427768388043" lon="16.51293946956273"><ele>1066.0</ele><time>2026-04-11T21:18:31Z</time></trkpt><trkpt lat="39.07420530882022" lon="16.51295565002113"><ele>1066.0</ele><time>2026-04-11T21:18:35Z</time></trkpt><trkpt lat="39.07413574679105" lon="16.51295558827192"><ele>1066.0</ele><time>2026-04-11T21:18:39Z</time></trkpt><trkpt lat="39.07408623019205" lon="16.513011118158655"><ele>1066.0</ele><time>2026-04-11T21:18:44Z</time></trkpt><trkpt lat="39.07401776340235" lon="16.513070570060457"><ele>1066.0</ele><time>2026-04-11T21:18:52Z</time></trkpt><trkpt lat="39.07401622732075" lon="16.512981206930515"><ele>1066.0</ele><time>2026-04-11T21:19:10Z</time></trkpt><trkpt lat="39.07408312179781" lon="16.512944178903584"><ele>1066.0</ele><time>2026-04-11T21:19:14Z</time></trkpt><trkpt lat="39.07415253560282" lon="16.51292799522004"><ele>1066.0</ele><time>2026-04-11T21:19:17Z</time></trkpt><trkpt lat="39.07422830248696" lon="16.512902620840144"><ele>1066.0</ele><time>2026-04-11T21:19:21.999Z</time></trkpt><trkpt lat="39.074315285784785" lon="16.512862885979462"><ele>1066.0</ele><time>2026-04-11T21:19:26.999Z</time></trkpt><trkpt lat="39.07423694993479" lon="16.512903320047"><ele>1065.8</ele><time>2026-04-11T21:20:02Z</time></trkpt><trkpt lat="39.0741713628889" lon="16.51286666442523"><ele>1065.6</ele><time>2026-04-11T21:20:08Z</time></trkpt><trkpt lat="39.07433918042815" lon="16.512844997646067"><ele>1065.4</ele><time>2026-04-11T21:21:15Z</time></trkpt><trkpt lat="39.074273948449715" lon="16.512839232362268"><ele>1065.2</ele><time>2026-04-11T21:21:22Z</time></trkpt><trkpt lat="39.074182105018444" lon="16.512783428349376"><ele>1065.0</ele><time>2026-04-11T21:21:27Z</time></trkpt><trkpt lat="39.07418552324106" lon="16.512678740561487"><ele>1065.0</ele><time>2026-04-11T21:21:29Z</time></trkpt><trkpt lat="39.074187963466436" lon="16.51280011284586"><ele>1065.0</ele><time>2026-04-11T21:21:37Z</time></trkpt><trkpt lat="39.07406425068766" lon="16.51284815075531"><ele>1065.0</ele><time>2026-04-11T21:21:50Z</time></trkpt><trkpt lat="39.07395367979917" lon="16.512785274550797"><ele>1065.0</ele><time>2026-04-11T21:21:55Z</time></trkpt><trkpt lat="39.07409599124618" lon="16.51282976404867"><ele>1065.3333333333333</ele><time>2026-04-11T21:22:01Z</time></trkpt><trkpt lat="39.07408368311736" lon="16.51256424376416"><ele>1065.6666666666665</ele><time>2026-04-11T21:22:10Z</time></trkpt><trkpt lat="39.07409543967503" lon="16.51274503353516"><ele>1066.0</ele><time>2026-04-11T21:22:13Z</time></trkpt><trkpt lat="39.07405524780847" lon="16.51286949908091"><ele>1066.0</ele><time>2026-04-11T21:22:33Z</time></trkpt><trkpt lat="39.07391341477476" lon="16.51277557743007"><ele>1066.0</ele><time>2026-04-11T21:22:39Z</time></trkpt><trkpt lat="39.074037309808595" lon="16.512814351657642"><ele>1066.0</ele><time>2026-04-11T21:22:41Z</time></trkpt><trkpt lat="39.074097480720674" lon="16.512874970530547"><ele>1066.0</ele><time>2026-04-11T21:22:51Z</time></trkpt><trkpt lat="39.074064787778646" lon="16.51279154082046"><ele>1066.0</ele><time>2026-04-11T21:23:26Z</time></trkpt><trkpt lat="39.07409421567504" lon="16.51263489860882"><ele>1066.0</ele><time>2026-04-11T21:24:11Z</time></trkpt><trkpt lat="39.07387937422755" lon="16.512520993143795"><ele>1066.0</ele><time>2026-04-11T21:24:35Z</time></trkpt><trkpt lat="39.074127641544045" lon="16.512559472604078"><ele>1066.0</ele><time>2026-04-11T21:24:38Z</time></trkpt><trkpt lat="39.07411378851271" lon="16.512811542682563"><ele>1066.0</ele><time>2026-04-11T21:25:10Z</time></trkpt><trkpt lat="39.07417581860259" lon="16.512710700348187"><ele>1066.0</ele><time>2026-04-11T21:28:03Z</time></trkpt><trkpt lat="39.07400877159878" lon="16.51275723306101"><ele>1066.0</ele><time>2026-04-11T21:28:44Z</time></trkpt><trkpt lat="39.07406724262675" lon="16.512853653128143"><ele>1066.0</ele><time>2026-04-11T21:30:40Z</time></trkpt><trkpt lat="39.07404537782004" lon="16.512731462732436"><ele>1066.0</ele><time>2026-04-11T21:31:07Z</time></trkpt><trkpt lat="39.07406014227514" lon="16.512883599567065"><ele>1066.0</ele><time>2026-04-11T21:31:21Z</time></trkpt><trkpt lat="39.07404550354859" lon="16.512731043637274"><ele>1066.0</ele><time>2026-04-11T21:31:50Z</time></trkpt><trkpt lat="39.07404056373439" lon="16.51281210423982"><ele>1066.0</ele><time>2026-04-11T21:32:46Z</time></trkpt><trkpt lat="39.07401678017894" lon="16.512942602669856"><ele>1066.0</ele><time>2026-04-11T21:32:47Z</time></trkpt><trkpt lat="39.07403400898042" lon="16.512847084136425"><ele>1066.0</ele><time>2026-04-11T21:32:59Z</time></trkpt><trkpt lat="39.07404483299633" lon="16.512731546551468"><ele>1066.0</ele><time>2026-04-11T21:33:03Z</time></trkpt><trkpt lat="39.074114189674766" lon="16.512867607220613"><ele>1066.0</ele><time>2026-04-11T21:33:19Z</time></trkpt><trkpt lat="39.07404956146491" lon="16.512865093797807"><ele>1066.0</ele><time>2026-04-11T21:34:13Z</time></trkpt><trkpt lat="39.07408206583504" lon="16.512967790555237"><ele>1066.0</ele><time>2026-04-11T21:34:26Z</time></trkpt><trkpt lat="39.07403810071291" lon="16.513089039752447"><ele>1066.0</ele><time>2026-04-11T21:35:05Z</time></trkpt><trkpt lat="39.07397790647544" lon="16.51304881819838"><ele>1066.0</ele><time>2026-04-11T21:35:08Z</time></trkpt><trkpt lat="39.073889719330204" lon="16.51289074770445"><ele>1066.0</ele><time>2026-04-11T21:35:10Z</time></trkpt><trkpt lat="39.07392553536579" lon="16.512981446548107"><ele>1066.0</ele><time>2026-04-11T21:35:14Z</time></trkpt><trkpt lat="39.074117914671525" lon="16.512986579581476"><ele>1066.0</ele><time>2026-04-11T21:36:27Z</time></trkpt><trkpt lat="39.07407592422962" lon="16.512919380362174"><ele>1066.0</ele><time>2026-04-11T21:36:43Z</time></trkpt><trkpt lat="39.07402318049194" lon="16.512988335429093"><ele>1066.0</ele><time>2026-04-11T21:40:29Z</time></trkpt><trkpt lat="39.073933749944985" lon="16.513130377872685"><ele>1066.0</ele><time>2026-04-11T21:43:26Z</time></trkpt><trkpt lat="39.07398445388937" lon="16.513042269417525"><ele>1066.0</ele><time>2026-04-11T21:43:53Z</time></trkpt><trkpt lat="39.0740470925632" lon="16.51305442890614"><ele>1066.0</ele><time>2026-04-11T21:44:04Z</time></trkpt><trkpt lat="39.07412259083109" lon="16.513019706388764"><ele>1066.0</ele><time>2026-04-11T21:44:09Z</time></trkpt><trkpt lat="39.07416523195694" lon="16.51296001317825"><ele>1066.0</ele><time>2026-04-11T21:44:16Z</time></trkpt><trkpt lat="39.0742358301536" lon="16.512952115478242"><ele>1066.0</ele><time>2026-04-11T21:44:23Z</time></trkpt><trkpt lat="39.074302462324205" lon="16.512962826958123"><ele>1066.0</ele><time>2026-04-11T21:44:33Z</time></trkpt><trkpt lat="39.07432593648184" lon="16.513040139671766"><ele>1066.0</ele><time>2026-04-11T21:44:43Z</time></trkpt><trkpt lat="39.074353048943586" lon="16.51311956413691"><ele>1066.0</ele><time>2026-04-11T21:45:15Z</time></trkpt><trkpt lat="39.07436906074338" lon="16.513203747839476"><ele>1066.0</ele><time>2026-04-11T21:45:22Z</time></trkpt><trkpt lat="39.074338392341424" lon="16.513283412538435"><ele>1066.0</ele><time>2026-04-11T21:45:29Z</time></trkpt><trkpt lat="39.074391583342226" lon="16.513356903548566"><ele>1066.0</ele><time>2026-04-11T21:45:38Z</time></trkpt><trkpt lat="39.07443361557131" lon="16.513423968498874"><ele>1066.0</ele><time>2026-04-11T21:45:46Z</time></trkpt><trkpt lat="39.07447194528031" lon="16.513501745594553"><ele>1066.0</ele><time>2026-04-11T21:45:56Z</time></trkpt><trkpt lat="39.07451207608574" lon="16.5135683301969"><ele>1066.0</ele><time>2026-04-11T21:46:02Z</time></trkpt><trkpt lat="39.07453112321953" lon="16.513653264129733"><ele>1066.0</ele><time>2026-04-11T21:46:12Z</time></trkpt><trkpt lat="39.07450979905235" lon="16.513558435187953"><ele>1066.0</ele><time>2026-04-11T21:46:36Z</time></trkpt><trkpt lat="39.07455885904061" lon="16.513503067784242"><ele>1066.0</ele><time>2026-04-11T21:46:59Z</time></trkpt><trkpt lat="39.07461698193877" lon="16.513459815358363"><ele>1066.0</ele><time>2026-04-11T21:47:36Z</time></trkpt><trkpt lat="39.07464304398794" lon="16.51354751867205"><ele>1066.0</ele><time>2026-04-11T21:52:43Z</time></trkpt><trkpt lat="39.074669957404076" lon="16.513628308008073"><ele>1066.0</ele><time>2026-04-11T21:52:48Z</time></trkpt><trkpt lat="39.074645902753716" lon="16.513549923156667"><ele>1066.0</ele><time>2026-04-11T21:53:01Z</time></trkpt><trkpt lat="39.07470792535606" lon="16.513614915326716"><ele>1066.0</ele><time>2026-04-11T21:53:09Z</time></trkpt><trkpt lat="39.07475699574304" lon="16.51386947882951"><ele>1066.0</ele><time>2026-04-11T21:53:40Z</time></trkpt><trkpt lat="39.074692368685916" lon="16.513858743819192"><ele>1066.0</ele><time>2026-04-11T21:53:42Z</time></trkpt><trkpt lat="39.07479551580407" lon="16.513800193706814"><ele>1066.8</ele><time>2026-04-11T21:53:52Z</time></trkpt><trkpt lat="39.07477466600576" lon="16.51391188829499"><ele>1067.6</ele><time>2026-04-11T21:54:00Z</time></trkpt><trkpt lat="39.07490823021827" lon="16.51402309405303"><ele>1068.4</ele><time>2026-04-11T21:54:06Z</time></trkpt><trkpt lat="39.074835143235205" lon="16.513954613353363"><ele>1069.2</ele><time>2026-04-11T21:54:11Z</time></trkpt><trkpt lat="39.07490748976632" lon="16.513919814861225"><ele>1070.0</ele><time>2026-04-11T21:54:24Z</time></trkpt><trkpt lat="39.07484870138426" lon="16.513961109454552"><ele>1070.0</ele><time>2026-04-11T21:59:54Z</time></trkpt><trkpt lat="39.074790462068044" lon="16.513924346388563"><ele>1070.0</ele><time>2026-04-11T22:02:13Z</time></trkpt><trkpt lat="39.07486829775878" lon="16.513919535995758"><ele>1070.0</ele><time>2026-04-11T22:02:17Z</time></trkpt><trkpt lat="39.07475424688486" lon="16.513899289696667"><ele>1070.0</ele><time>2026-04-11T22:03:25Z</time></trkpt><trkpt lat="39.07503695696523" lon="16.513988496751075"><ele>1070.0</ele><time>2026-04-11T22:06:27Z</time></trkpt><trkpt lat="39.07476873335132" lon="16.514002470377164"><ele>1070.0</ele><time>2026-04-11T22:06:31Z</time></trkpt><trkpt lat="39.07503695696523" lon="16.513988496751075"><ele>1070.0</ele><time>2026-04-11T22:12:10Z</time></trkpt><trkpt lat="39.07478710686013" lon="16.513925886316024"><ele>1070.0</ele><time>2026-04-11T22:12:16Z</time></trkpt><trkpt lat="39.07503695696523" lon="16.513988496751075"><ele>1070.0</ele><time>2026-04-11T22:12:45Z</time></trkpt><trkpt lat="39.07478690171445" lon="16.513909870814565"><ele>1070.0</ele><time>2026-04-11T22:12:47Z</time></trkpt><trkpt lat="39.07503695696523" lon="16.513988496751075"><ele>1070.0</ele><time>2026-04-11T22:13:15Z</time></trkpt><trkpt lat="39.07485180124451" lon="16.513945411028626"><ele>1070.0</ele><time>2026-04-11T22:13:18Z</time></trkpt><trkpt lat="39.07503695696523" lon="16.513988496751075"><ele>1070.0</ele><time>2026-04-11T22:13:47Z</time></trkpt><trkpt lat="39.07486347287627" lon="16.513946643848648"><ele>1070.0</ele><time>2026-04-11T22:13:53Z</time></trkpt><trkpt lat="39.074936275511696" lon="16.5140382827673"><ele>1070.0</ele><time>2026-04-12T04:17:53Z</time></trkpt><trkpt lat="39.0749875826149" lon="16.514125385546503"><ele>1070.0</ele><time>2026-04-12T04:18:11Z</time></trkpt><trkpt lat="39.07502743430508" lon="16.51405539888088"><ele>1070.0</ele><time>2026-04-12T04:18:17Z</time></trkpt><trkpt lat="39.0750886282842" lon="16.513952883342675"><ele>1070.0</ele><time>2026-04-12T04:19:07Z</time></trkpt><trkpt lat="39.07488117015015" lon="16.513915608466558"><ele>1070.0</ele><time>2026-04-12T04:23:16Z</time></trkpt><trkpt lat="39.07480850429367" lon="16.51395150706298"><ele>1070.0</ele><time>2026-04-12T04:29:21.001Z</time></trkpt><trkpt lat="39.074880535917906" lon="16.51395909414303"><ele>1070.0</ele><time>2026-04-12T05:01:37Z</time></trkpt><trkpt lat="39.0749986967459" lon="16.513997073666754"><ele>1070.0</ele><time>2026-04-12T05:01:44Z</time></trkpt><trkpt lat="39.07506670516684" lon="16.514042763139447"><ele>1070.0</ele><time>2026-04-12T05:01:59Z</time></trkpt><trkpt lat="39.075142352272415" lon="16.51408735511723"><ele>1070.0</ele><time>2026-04-12T05:02:11.001Z</time></trkpt><trkpt lat="39.075026851951066" lon="16.513993866906095"><ele>1071.1666666666667</ele><time>2026-04-12T05:02:22.001Z</time></trkpt><trkpt lat="39.0751008827773" lon="16.513993647559726"><ele>1072.3333333333335</ele><time>2026-04-12T05:02:47.001Z</time></trkpt><trkpt lat="39.07517890118267" lon="16.51401302542978"><ele>1073.5</ele><time>2026-04-12T05:02:51.001Z</time></trkpt><trkpt lat="39.07511233998228" lon="16.51397663098952"><ele>1074.6666666666667</ele><time>2026-04-12T05:03:05.001Z</time></trkpt><trkpt lat="39.075024416581925" lon="16.514004420469032"><ele>1075.8333333333333</ele><time>2026-04-12T05:03:51Z</time></trkpt><trkpt lat="39.07507268738268" lon="16.513909896676655"><ele>1077.0</ele><time>2026-04-12T05:05:05.001Z</time></trkpt><trkpt lat="39.07500131746601" lon="16.513852690242878"><ele>1077.0</ele><time>2026-04-12T05:05:12.001Z</time></trkpt><trkpt lat="39.074991060106434" lon="16.513956483941822"><ele>1077.0</ele><time>2026-04-12T05:05:48Z</time></trkpt><trkpt lat="39.07498121259044" lon="16.514068738865415"><ele>1077.0</ele><time>2026-04-12T05:06:01Z</time></trkpt><trkpt lat="39.07494381596828" lon="16.51398268689299"><ele>1077.0</ele><time>2026-04-12T05:06:24Z</time></trkpt><trkpt lat="39.07501166998414" lon="16.51398606374162"><ele>1077.0</ele><time>2026-04-12T05:06:35.001Z</time></trkpt><trkpt lat="39.07508872132148" lon="16.513986998014712"><ele>1077.0</ele><time>2026-04-12T05:06:56.001Z</time></trkpt><trkpt lat="39.074955231130026" lon="16.513973507853777"><ele>1077.0</ele><time>2026-04-12T05:07:04.001Z</time></trkpt><trkpt lat="39.07493258807798" lon="16.51412326189172"><ele>1077.0</ele><time>2026-04-12T05:08:04Z</time></trkpt><trkpt lat="39.07499936091037" lon="16.514110380531513"><ele>1077.0</ele><time>2026-04-12T05:08:18Z</time></trkpt><trkpt lat="39.07495326120585" lon="16.513988223867326"><ele>1077.0</ele><time>2026-04-12T05:08:29Z</time></trkpt><trkpt lat="39.07497298799096" lon="16.513900947269917"><ele>1077.0</ele><time>2026-04-12T05:09:51Z</time></trkpt><trkpt lat="39.07503029809078" lon="16.513857598598005"><ele>1077.0</ele><time>2026-04-12T05:09:52Z</time></trkpt><trkpt lat="39.07499157561862" lon="16.51394010618912"><ele>1077.0</ele><time>2026-04-12T05:10:17Z</time></trkpt><trkpt lat="39.074938900745195" lon="16.513989251598055"><ele>1077.0</ele><time>2026-04-12T05:10:22Z</time></trkpt><trkpt lat="39.07483980459295" lon="16.51397405618945"><ele>1077.0</ele><time>2026-04-12T05:10:37.001Z</time></trkpt><trkpt lat="39.07495103087763" lon="16.51395795478527"><ele>1077.0</ele><time>2026-04-12T05:12:40Z</time></trkpt><trkpt lat="39.07485242984483" lon="16.5139150701438"><ele>1077.0</ele><time>2026-04-12T05:15:23.001Z</time></trkpt><trkpt lat="39.07470640936195" lon="16.51394617893445"><ele>1075.6</ele><time>2026-04-12T05:15:51.001Z</time></trkpt><trkpt lat="39.074762785263424" lon="16.51387275773567"><ele>1074.2</ele><time>2026-04-12T05:16:00.001Z</time></trkpt><trkpt lat="39.07474442084181" lon="16.51379391789395"><ele>1072.8</ele><time>2026-04-12T05:16:06.001Z</time></trkpt><trkpt lat="39.07487084634545" lon="16.513789157025855"><ele>1071.4</ele><time>2026-04-12T05:16:13.001Z</time></trkpt><trkpt lat="39.074808919916116" lon="16.513590859189737"><ele>1070.0</ele><time>2026-04-12T05:16:44.023Z</time></trkpt><trkpt lat="39.07484208217818" lon="16.513511345212354"><ele>1069.2</ele><time>2026-04-12T05:16:47.024Z</time></trkpt><trkpt lat="39.074898877918535" lon="16.513454322292187"><ele>1068.4</ele><time>2026-04-12T05:16:51.024Z</time></trkpt><trkpt lat="39.074802741420896" lon="16.51342246209084"><ele>1067.6</ele><time>2026-04-12T05:16:57.001Z</time></trkpt><trkpt lat="39.074701369061266" lon="16.513460702249944"><ele>1066.8</ele><time>2026-04-12T05:17:13.001Z</time></trkpt><trkpt lat="39.07470446888981" lon="16.513591207009448"><ele>1066.0</ele><time>2026-04-12T05:17:16.001Z</time></trkpt><trkpt lat="39.07462004399232" lon="16.513610013777612"><ele>1066.0</ele><time>2026-04-12T05:17:31.001Z</time></trkpt><trkpt lat="39.074540987174785" lon="16.513598364125766"><ele>1066.0</ele><time>2026-04-12T05:17:35.001Z</time></trkpt><trkpt lat="39.074500647801635" lon="16.513534999153812"><ele>1066.0</ele><time>2026-04-12T05:18:26.001Z</time></trkpt><trkpt lat="39.07456144188752" lon="16.513562424195804"><ele>1066.0</ele><time>2026-04-12T05:18:47Z</time></trkpt><trkpt lat="39.0745985316916" lon="16.513637850442908"><ele>1066.0</ele><time>2026-04-12T05:18:59.001Z</time></trkpt><trkpt lat="39.07457796930327" lon="16.513511722648705"><ele>1066.0</ele><time>2026-04-12T05:21:15.001Z</time></trkpt><trkpt lat="39.074729215390285" lon="16.513379970580825"><ele>1066.0</ele><time>2026-04-12T05:21:24.001Z</time></trkpt><trkpt lat="39.074551302984034" lon="16.513455694369394"><ele>1066.0</ele><time>2026-04-12T05:21:32.001Z</time></trkpt><trkpt lat="39.074729215390285" lon="16.513379970580825"><ele>1066.0</ele><time>2026-04-12T05:21:52.001Z</time></trkpt><trkpt lat="39.07457414165909" lon="16.513510223882374"><ele>1066.0</ele><time>2026-04-12T05:21:58.001Z</time></trkpt><trkpt lat="39.07464979287575" lon="16.513632530558034"><ele>1066.0</ele><time>2026-04-12T05:23:05.542Z</time></trkpt><trkpt lat="39.074729436958414" lon="16.513808114133123"><ele>1066.0</ele><time>2026-04-12T05:23:07.001Z</time></trkpt><trkpt lat="39.07478158951335" lon="16.51387713967991"><ele>1066.0</ele><time>2026-04-12T05:23:10.001Z</time></trkpt><trkpt lat="39.07486594821554" lon="16.513993231461043"><ele>1068.0</ele><time>2026-04-12T05:23:22Z</time></trkpt><trkpt lat="39.07484047026642" lon="16.5144428391421"><ele>1070.0</ele><time>2026-04-12T05:23:25Z</time></trkpt><trkpt lat="39.07602944240816" lon="16.51606095029979"><ele>1080.0</ele><time>2026-04-12T05:23:27Z</time></trkpt><trkpt lat="39.0755395843755" lon="16.51507009592371"><ele>1080.0</ele><time>2026-04-12T05:23:28Z</time></trkpt><trkpt lat="39.075580267521545" lon="16.514993649313386"><ele>1080.0</ele><time>2026-04-12T05:23:29Z</time></trkpt><trkpt lat="39.07560918339346" lon="16.514781709764858"><ele>1080.0</ele><time>2026-04-12T05:23:30Z</time></trkpt><trkpt lat="39.07553985189685" lon="16.514743206792787"><ele>1080.0</ele><time>2026-04-12T05:23:31Z</time></trkpt><trkpt lat="39.07520120264888" lon="16.51459836106522"><ele>1079.0</ele><time>2026-04-12T05:23:32Z</time></trkpt><trkpt lat="39.07503133622303" lon="16.51421348174633"><ele>1078.0</ele><time>2026-04-12T05:23:33Z</time></trkpt><trkpt lat="39.07494855361796" lon="16.514131802496113"><ele>1077.0</ele><time>2026-04-12T05:23:34Z</time></trkpt><trkpt lat="39.074869135583526" lon="16.514037956546655"><ele>1077.0</ele><time>2026-04-12T05:23:36Z</time></trkpt><trkpt lat="39.07484134654916" lon="16.513939615543485"><ele>1077.0</ele><time>2026-04-12T05:25:25Z</time></trkpt><trkpt lat="39.07483576179747" lon="16.513857223606298"><ele>1077.0</ele><time>2026-04-12T05:25:37Z</time></trkpt><trkpt lat="39.074897271362424" lon="16.513947040676747"><ele>1077.0</ele><time>2026-04-12T05:25:40Z</time></trkpt><trkpt lat="39.074822530818125" lon="16.513979228477808"><ele>1077.0</ele><time>2026-04-12T05:28:05Z</time></trkpt><trkpt lat="39.0749442655898" lon="16.51398089725259"><ele>1077.0</ele><time>2026-04-12T05:28:43Z</time></trkpt><trkpt lat="39.07489200847014" lon="16.514031105614645"><ele>1077.0</ele><time>2026-04-12T05:29:14Z</time></trkpt><trkpt lat="39.074966235645924" lon="16.514031089449702"><ele>1077.0</ele><time>2026-04-12T05:30:53Z</time></trkpt><trkpt lat="39.07490209306537" lon="16.51400546897409"><ele>1077.0</ele><time>2026-04-12T05:31:01Z</time></trkpt><trkpt lat="39.074837187338915" lon="16.514036396876254"><ele>1077.0</ele><time>2026-04-12T05:31:08Z</time></trkpt><trkpt lat="39.07492850510689" lon="16.51400216079287"><ele>1077.0</ele><time>2026-04-12T05:31:39Z</time></trkpt><trkpt lat="39.07490187200231" lon="16.514146338143895"><ele>1077.0</ele><time>2026-04-12T05:32:21Z</time></trkpt><trkpt lat="39.074826434030236" lon="16.514099596743634"><ele>1075.8333333333333</ele><time>2026-04-12T05:32:23Z</time></trkpt><trkpt lat="39.07477930184073" lon="16.514045408936717"><ele>1074.6666666666667</ele><time>2026-04-12T05:32:25Z</time></trkpt><trkpt lat="39.07488061800477" lon="16.514107494017697"><ele>1073.5</ele><time>2026-04-12T05:32:30Z</time></trkpt><trkpt lat="39.07485243546634" lon="16.513999750253916"><ele>1072.3333333333335</ele><time>2026-04-12T05:32:32Z</time></trkpt><trkpt lat="39.074787635798906" lon="16.513971114763546"><ele>1071.1666666666667</ele><time>2026-04-12T05:33:34Z</time></trkpt><trkpt lat="39.074707095666454" lon="16.51393910003134"><ele>1070.0</ele><time>2026-04-12T05:33:37Z</time></trkpt><trkpt lat="39.074631624051975" lon="16.513908886487197"><ele>1070.0</ele><time>2026-04-12T05:33:39.001Z</time></trkpt><trkpt lat="39.074712028503896" lon="16.513952625156783"><ele>1070.0</ele><time>2026-04-12T05:33:45.999Z</time></trkpt><trkpt lat="39.07474445512335" lon="16.51402656344707"><ele>1070.0</ele><time>2026-04-12T05:33:46.999Z</time></trkpt><trkpt lat="39.07473648735574" lon="16.514117342432815"><ele>1070.0</ele><time>2026-04-12T05:33:47.999Z</time></trkpt><trkpt lat="39.074802298617875" lon="16.514194723391885"><ele>1070.0</ele><time>2026-04-12T05:33:48.999Z</time></trkpt><trkpt lat="39.07479800043677" lon="16.514103295242446"><ele>1070.0</ele><time>2026-04-12T05:33:57Z</time></trkpt><trkpt lat="39.074757315205744" lon="16.514011730520817"><ele>1070.0</ele><time>2026-04-12T05:34:02Z</time></trkpt><trkpt lat="39.074870811311" lon="16.51408137735436"><ele>1070.0</ele><time>2026-04-12T05:34:07Z</time></trkpt><trkpt lat="39.07479709205509" lon="16.51405359881673"><ele>1070.0</ele><time>2026-04-12T05:34:39Z</time></trkpt><trkpt lat="39.0747422491146" lon="16.51400801301818"><ele>1070.0</ele><time>2026-04-12T05:34:43Z</time></trkpt><trkpt lat="39.07484049762832" lon="16.51400544249733"><ele>1070.0</ele><time>2026-04-12T05:36:03.999Z</time></trkpt><trkpt lat="39.07477589469652" lon="16.513990146937527"><ele>1070.0</ele><time>2026-04-12T05:38:09.999Z</time></trkpt><trkpt lat="39.074838228401774" lon="16.51400750126758"><ele>1070.0</ele><time>2026-04-12T05:38:42Z</time></trkpt><trkpt lat="39.07489771212004" lon="16.514043425046598"><ele>1070.0</ele><time>2026-04-12T05:38:49Z</time></trkpt><trkpt lat="39.07494959746086" lon="16.514093019718842"><ele>1070.0</ele><time>2026-04-12T05:38:54Z</time></trkpt><trkpt lat="39.07483490375936" lon="16.514006198988724"><ele>1070.0</ele><time>2026-04-12T05:41:08.001Z</time></trkpt><trkpt lat="39.074775788961894" lon="16.51368906013698"><ele>1069.0</ele><time>2026-04-12T05:58:14Z</time></trkpt><trkpt lat="39.074754789806576" lon="16.513561461791213"><ele>1068.0</ele><time>2026-04-12T06:00:57.001Z</time></trkpt><trkpt lat="39.074696550715096" lon="16.513593230465148"><ele>1067.0</ele><time>2026-04-12T06:01:05Z</time></trkpt><trkpt lat="39.0746500216226" lon="16.513662805671043"><ele>1066.0</ele><time>2026-04-12T06:01:08Z</time></trkpt><trkpt lat="39.07452663464962" lon="16.5133372296821"><ele>1066.0</ele><time>2026-04-12T06:04:01.024Z</time></trkpt><trkpt lat="39.07446725812892" lon="16.513251720065913"><ele>1066.0</ele><time>2026-04-12T06:04:03.016Z</time></trkpt><trkpt lat="39.07439612494101" lon="16.513201738094804"><ele>1066.0</ele><time>2026-04-12T06:04:06.022Z</time></trkpt><trkpt lat="39.074273070037016" lon="16.513139842211377"><ele>1066.0</ele><time>2026-04-12T06:04:25.001Z</time></trkpt><trkpt lat="39.074581129627596" lon="16.51333538814525"><ele>1066.0</ele><time>2026-04-12T06:04:27.001Z</time></trkpt><trkpt lat="39.07469840708032" lon="16.513318448310326"><ele>1066.0</ele><time>2026-04-12T06:04:45Z</time></trkpt><trkpt lat="39.074710383748496" lon="16.513625643501346"><ele>1066.0</ele><time>2026-04-12T06:05:11Z</time></trkpt><trkpt lat="39.07468295777407" lon="16.513743730995774"><ele>1067.0</ele><time>2026-04-12T06:30:13.021Z</time></trkpt><trkpt lat="39.074827715308786" lon="16.513804615103833"><ele>1068.0</ele><time>2026-04-12T06:30:35Z</time></trkpt><trkpt lat="39.0749300340585" lon="16.513925971615343"><ele>1069.0</ele><time>2026-04-12T06:31:34Z</time></trkpt><trkpt lat="39.07499682172284" lon="16.513980184544103"><ele>1070.0</ele><time>2026-04-12T06:46:10Z</time></trkpt><trkpt lat="39.074905306287356" lon="16.51391302214825"><ele>1070.0</ele><time>2026-04-12T06:56:58Z</time></trkpt><trkpt lat="39.07487790340284" lon="16.51401371047318"><ele>1070.0</ele><time>2026-04-12T06:57:39Z</time></trkpt><trkpt lat="39.07489957757224" lon="16.513927644134046"><ele>1070.0</ele><time>2026-04-12T06:57:58Z</time></trkpt><trkpt lat="39.07464997855714" lon="16.51362829610393"><ele>1069.4285714285713</ele><time>2026-04-12T06:58:20.43Z</time></trkpt><trkpt lat="39.074626284804694" lon="16.513540563336463"><ele>1068.857142857143</ele><time>2026-04-12T06:58:32.023Z</time></trkpt><trkpt lat="39.074561679623685" lon="16.513532695354783"><ele>1068.2857142857142</ele><time>2026-04-12T06:58:54Z</time></trkpt><trkpt lat="39.07450052698535" lon="16.513497490035498"><ele>1067.7142857142858</ele><time>2026-04-12T06:59:04Z</time></trkpt><trkpt lat="39.07455768745429" lon="16.513537728742396"><ele>1067.142857142857</ele><time>2026-04-12T07:15:09Z</time></trkpt><trkpt lat="39.07462479692091" lon="16.51354058753495"><ele>1066.5714285714284</ele><time>2026-04-12T07:33:01Z</time></trkpt><trkpt lat="39.07460935891201" lon="16.513650095450267"><ele>1066.0</ele><time>2026-04-12T07:33:05Z</time></trkpt><trkpt lat="39.0745481744402" lon="16.513676762125407"><ele>1066.0</ele><time>2026-04-12T07:33:07Z</time></trkpt><trkpt lat="39.07447527226615" lon="16.513603115442915"><ele>1066.0</ele><time>2026-04-12T07:33:09Z</time></trkpt><trkpt lat="39.07443084701057" lon="16.513510888272695"><ele>1066.0</ele><time>2026-04-12T07:33:12Z</time></trkpt><trkpt lat="39.0744363593695" lon="16.513409972201043"><ele>1066.0</ele><time>2026-04-12T07:33:17Z</time></trkpt><trkpt lat="39.074399475703366" lon="16.51332452470264"><ele>1066.0</ele><time>2026-04-12T07:33:30Z</time></trkpt><trkpt lat="39.074334620117384" lon="16.513303457026826"><ele>1066.0</ele><time>2026-04-12T07:33:33Z</time></trkpt><trkpt lat="39.074321397744505" lon="16.513221055635306"><ele>1066.0</ele><time>2026-04-12T07:34:17Z</time></trkpt><trkpt lat="39.07435205756817" lon="16.51313071902817"><ele>1066.0</ele><time>2026-04-12T07:34:48Z</time></trkpt><trkpt lat="39.074410153307156" lon="16.513033314393365"><ele>1066.0</ele><time>2026-04-12T07:34:49Z</time></trkpt><trkpt lat="39.07447699865112" lon="16.512934211750615"><ele>1066.0</ele><time>2026-04-12T07:34:50Z</time></trkpt><trkpt lat="39.07456697025482" lon="16.51285312297556"><ele>1066.0</ele><time>2026-04-12T07:34:52Z</time></trkpt><trkpt lat="39.07460545867607" lon="16.512779346549696"><ele>1065.8333333333333</ele><time>2026-04-12T07:34:53Z</time></trkpt><trkpt lat="39.074640227876074" lon="16.51270351406431"><ele>1065.6666666666665</ele><time>2026-04-12T07:34:54Z</time></trkpt><trkpt lat="39.074650625061324" lon="16.51259602575411"><ele>1065.5</ele><time>2026-04-12T07:34:55Z</time></trkpt><trkpt lat="39.07471377753517" lon="16.512507732535063"><ele>1065.3333333333333</ele><time>2026-04-12T07:34:56Z</time></trkpt><trkpt lat="39.07475391816312" lon="16.512422650198403"><ele>1065.1666666666667</ele><time>2026-04-12T07:34:57Z</time></trkpt><trkpt lat="39.0748642081985" lon="16.512367478486127"><ele>1065.0</ele><time>2026-04-12T07:34:58Z</time></trkpt><trkpt lat="39.07492237845948" lon="16.51226396621035"><ele>1065.6</ele><time>2026-04-12T07:34:59Z</time></trkpt><trkpt lat="39.07498332044145" lon="16.51215796737039"><ele>1066.2</ele><time>2026-04-12T07:35:00Z</time></trkpt><trkpt lat="39.07504566969605" lon="16.51204517697159"><ele>1066.8</ele><time>2026-04-12T07:35:01Z</time></trkpt><trkpt lat="39.0751101753014" lon="16.511926916558238"><ele>1067.4</ele><time>2026-04-12T07:35:02Z</time></trkpt><trkpt lat="39.07518706590911" lon="16.511821916449797"><ele>1068.0</ele><time>2026-04-12T07:35:03Z</time></trkpt><trkpt lat="39.075278721640224" lon="16.511729423132298"><ele>1068.0</ele><time>2026-04-12T07:35:04Z</time></trkpt><trkpt lat="39.0753666773755" lon="16.511651871299176"><ele>1068.0</ele><time>2026-04-12T07:35:05Z</time></trkpt><trkpt lat="39.075495887047225" lon="16.5115813861101"><ele>1068.0</ele><time>2026-04-12T07:35:06Z</time></trkpt><trkpt lat="39.07561829632656" lon="16.51152260009195"><ele>1068.0</ele><time>2026-04-12T07:35:07Z</time></trkpt><trkpt lat="39.0757193391451" lon="16.511428944681537"><ele>1068.0</ele><time>2026-04-12T07:35:08Z</time></trkpt><trkpt lat="39.075822505167146" lon="16.511329646165343"><ele>1068.0</ele><time>2026-04-12T07:35:09Z</time></trkpt><trkpt lat="39.07592325604979" lon="16.51124191069367"><ele>1068.0</ele><time>2026-04-12T07:35:10Z</time></trkpt><trkpt lat="39.07602751754739" lon="16.5111082400615"><ele>1068.0</ele><time>2026-04-12T07:35:11Z</time></trkpt><trkpt lat="39.07610832577" lon="16.51101825902419"><ele>1068.0</ele><time>2026-04-12T07:35:12Z</time></trkpt><trkpt lat="39.07620743192408" lon="16.510949954868998"><ele>1068.0</ele><time>2026-04-12T07:35:13Z</time></trkpt><trkpt lat="39.07627913570899" lon="16.51088668090752"><ele>1068.0</ele><time>2026-04-12T07:35:14Z</time></trkpt><trkpt lat="39.076377434616994" lon="16.510813246435944"><ele>1068.0</ele><time>2026-04-12T07:35:15Z</time></trkpt><trkpt lat="39.076466227430984" lon="16.510748258428755"><ele>1068.0</ele><time>2026-04-12T07:35:16Z</time></trkpt><trkpt lat="39.07655738650276" lon="16.510681801789914"><ele>1069.0</ele><time>2026-04-12T07:35:17Z</time></trkpt><trkpt lat="39.07664065839823" lon="16.510588361161016"><ele>1070.0</ele><time>2026-04-12T07:35:18Z</time></trkpt><trkpt lat="39.07673289577295" lon="16.5105262472812"><ele>1071.0</ele><time>2026-04-12T07:35:19Z</time></trkpt><trkpt lat="39.07681530784223" lon="16.51044454845189"><ele>1072.0</ele><time>2026-04-12T07:35:20Z</time></trkpt><trkpt lat="39.076890878149094" lon="16.51038175269959"><ele>1073.0</ele><time>2026-04-12T07:35:21Z</time></trkpt><trkpt lat="39.07697135437897" lon="16.51033776704018"><ele>1073.0</ele><time>2026-04-12T07:35:22Z</time></trkpt><trkpt lat="39.077033260633435" lon="16.51026350888196"><ele>1073.0</ele><time>2026-04-12T07:35:23Z</time></trkpt><trkpt lat="39.0771218885355" lon="16.51020559097162"><ele>1073.0</ele><time>2026-04-12T07:35:24Z</time></trkpt><trkpt lat="39.077182210715314" lon="16.510143736315914"><ele>1073.0</ele><time>2026-04-12T07:35:25Z</time></trkpt><trkpt lat="39.07724677768209" lon="16.510076390154445"><ele>1073.0</ele><time>2026-04-12T07:35:26Z</time></trkpt><trkpt lat="39.077300473772716" lon="16.510011535099878"><ele>1073.0</ele><time>2026-04-12T07:35:27Z</time></trkpt><trkpt lat="39.077358386408726" lon="16.50997131133307"><ele>1073.0</ele><time>2026-04-12T07:35:28Z</time></trkpt><trkpt lat="39.077413765359736" lon="16.509921137201903"><ele>1073.0</ele><time>2026-04-12T07:35:29Z</time></trkpt><trkpt lat="39.07753084705755" lon="16.509844826260366"><ele>1073.0</ele><time>2026-04-12T07:35:31Z</time></trkpt><trkpt lat="39.077581706880935" lon="16.509785003749172"><ele>1073.0</ele><time>2026-04-12T07:35:32Z</time></trkpt><trkpt lat="39.07764577815404" lon="16.509742203311855"><ele>1073.0</ele><time>2026-04-12T07:35:33Z</time></trkpt><trkpt lat="39.07770964534277" lon="16.509689890275524"><ele>1073.0</ele><time>2026-04-12T07:35:34Z</time></trkpt><trkpt lat="39.07776933424202" lon="16.50963055046773"><ele>1073.4285714285713</ele><time>2026-04-12T07:35:35Z</time></trkpt><trkpt lat="39.07782937269863" lon="16.509593557812558"><ele>1073.8571428571427</ele><time>2026-04-12T07:35:36Z</time></trkpt><trkpt lat="39.07789915657537" lon="16.509573605032273"><ele>1074.2857142857142</ele><time>2026-04-12T07:35:37Z</time></trkpt><trkpt lat="39.077932507853944" lon="16.509500593494263"><ele>1074.7142857142858</ele><time>2026-04-12T07:35:38Z</time></trkpt><trkpt lat="39.07800581001583" lon="16.509444522856068"><ele>1075.1428571428573</ele><time>2026-04-12T07:35:39Z</time></trkpt><trkpt lat="39.07807160144294" lon="16.50938945024418"><ele>1075.5714285714287</ele><time>2026-04-12T07:35:40Z</time></trkpt><trkpt lat="39.078137997978054" lon="16.509343683821346"><ele>1076.0</ele><time>2026-04-12T07:35:41Z</time></trkpt><trkpt lat="39.078193467213" lon="16.509275166338288"><ele>1075.5</ele><time>2026-04-12T07:35:42Z</time></trkpt><trkpt lat="39.07825400229281" lon="16.50924005684161"><ele>1075.0</ele><time>2026-04-12T07:35:43Z</time></trkpt><trkpt lat="39.078315319361636" lon="16.509187784079238"><ele>1074.5</ele><time>2026-04-12T07:35:44Z</time></trkpt><trkpt lat="39.078400054813365" lon="16.50912779986972"><ele>1074.0</ele><time>2026-04-12T07:35:45Z</time></trkpt><trkpt lat="39.078479274200845" lon="16.509066013324386"><ele>1073.5</ele><time>2026-04-12T07:35:46Z</time></trkpt><trkpt lat="39.07856344562272" lon="16.50900402253378"><ele>1073.0</ele><time>2026-04-12T07:35:47Z</time></trkpt><trkpt lat="39.078651244645386" lon="16.508939979144433"><ele>1073.0</ele><time>2026-04-12T07:35:48Z</time></trkpt><trkpt lat="39.078743298279605" lon="16.5088774485152"><ele>1073.0</ele><time>2026-04-12T07:35:49Z</time></trkpt><trkpt lat="39.07885225449065" lon="16.50883481910535"><ele>1073.0</ele><time>2026-04-12T07:35:50Z</time></trkpt><trkpt lat="39.078956471317134" lon="16.508784232140588"><ele>1073.0</ele><time>2026-04-12T07:35:51Z</time></trkpt><trkpt lat="39.07908011597948" lon="16.508749161222376"><ele>1073.6666666666667</ele><time>2026-04-12T07:35:52Z</time></trkpt><trkpt lat="39.07922508220649" lon="16.5087070773677"><ele>1074.3333333333333</ele><time>2026-04-12T07:35:53Z</time></trkpt><trkpt lat="39.07938435828926" lon="16.50866406847781"><ele>1075.0</ele><time>2026-04-12T07:35:54Z</time></trkpt><trkpt lat="39.07955964283201" lon="16.508618102208086"><ele>1075.0</ele><time>2026-04-12T07:35:55Z</time></trkpt><trkpt lat="39.079730166562776" lon="16.508572110737916"><ele>1075.0</ele><time>2026-04-12T07:35:56Z</time></trkpt><trkpt lat="39.079877808336605" lon="16.508541178224"><ele>1075.0</ele><time>2026-04-12T07:35:57Z</time></trkpt><trkpt lat="39.08001542885257" lon="16.50850678438852"><ele>1075.4</ele><time>2026-04-12T07:35:58Z</time></trkpt><trkpt lat="39.08014007612809" lon="16.50848230206515"><ele>1075.8</ele><time>2026-04-12T07:35:59Z</time></trkpt><trkpt lat="39.08023707789951" lon="16.508464582969726"><ele>1076.2</ele><time>2026-04-12T07:36:00Z</time></trkpt><trkpt lat="39.08033332154637" lon="16.508449079029518"><ele>1076.6</ele><time>2026-04-12T07:36:01Z</time></trkpt><trkpt lat="39.08043056611747" lon="16.508427719482892"><ele>1077.0</ele><time>2026-04-12T07:36:02Z</time></trkpt><trkpt lat="39.080520816196184" lon="16.50840568896719"><ele>1077.0</ele><time>2026-04-12T07:36:03Z</time></trkpt><trkpt lat="39.08061365038359" lon="16.508392311015896"><ele>1077.0</ele><time>2026-04-12T07:36:04Z</time></trkpt><trkpt lat="39.08070235071661" lon="16.50837872789639"><ele>1077.0</ele><time>2026-04-12T07:36:05Z</time></trkpt><trkpt lat="39.080802697831835" lon="16.50837059636179"><ele>1077.0</ele><time>2026-04-12T07:36:06Z</time></trkpt><trkpt lat="39.08087759824243" lon="16.508360000199673"><ele>1077.0</ele><time>2026-04-12T07:36:07Z</time></trkpt><trkpt lat="39.08097801124481" lon="16.508334639701463"><ele>1077.4</ele><time>2026-04-12T07:36:08Z</time></trkpt><trkpt lat="39.081072264325925" lon="16.50831107712147"><ele>1077.8000000000002</ele><time>2026-04-12T07:36:09Z</time></trkpt><trkpt lat="39.08117130084419" lon="16.508290686248255"><ele>1078.2</ele><time>2026-04-12T07:36:10Z</time></trkpt><trkpt lat="39.08127186885743" lon="16.50826794659753"><ele>1078.6000000000001</ele><time>2026-04-12T07:36:11Z</time></trkpt><trkpt lat="39.08137959492569" lon="16.508248621631953"><ele>1079.0</ele><time>2026-04-12T07:36:12Z</time></trkpt><trkpt lat="39.0814917833329" lon="16.508226011735594"><ele>1079.5</ele><time>2026-04-12T07:36:13Z</time></trkpt><trkpt lat="39.08162905169835" lon="16.50820000723772"><ele>1080.0</ele><time>2026-04-12T07:36:14Z</time></trkpt><trkpt lat="39.08174045381836" lon="16.50816312853932"><ele>1080.5</ele><time>2026-04-12T07:36:15Z</time></trkpt><trkpt lat="39.081860800058536" lon="16.508144385804716"><ele>1081.0</ele><time>2026-04-12T07:36:16Z</time></trkpt><trkpt lat="39.08198987029471" lon="16.508119033757342"><ele>1081.0</ele><time>2026-04-12T07:36:17Z</time></trkpt><trkpt lat="39.082110503032425" lon="16.50809768443702"><ele>1081.0</ele><time>2026-04-12T07:36:18Z</time></trkpt><trkpt lat="39.08223990953847" lon="16.508086461778777"><ele>1081.0</ele><time>2026-04-12T07:36:19Z</time></trkpt><trkpt lat="39.08236492763641" lon="16.508074803584112"><ele>1081.0</ele><time>2026-04-12T07:36:20Z</time></trkpt><trkpt lat="39.08249256745929" lon="16.508079993100324"><ele>1081.75</ele><time>2026-04-12T07:36:21Z</time></trkpt><trkpt lat="39.08262205320133" lon="16.508092223411992"><ele>1082.5</ele><time>2026-04-12T07:36:22Z</time></trkpt><trkpt lat="39.0827482389511" lon="16.508122261521407"><ele>1083.25</ele><time>2026-04-12T07:36:23Z</time></trkpt><trkpt lat="39.08287403006257" lon="16.508164370548634"><ele>1084.0</ele><time>2026-04-12T07:36:24Z</time></trkpt><trkpt lat="39.082991408395415" lon="16.508210656382527"><ele>1084.0</ele><time>2026-04-12T07:36:25Z</time></trkpt><trkpt lat="39.083109082684835" lon="16.508272110505075"><ele>1084.0</ele><time>2026-04-12T07:36:26Z</time></trkpt><trkpt lat="39.08321230027079" lon="16.508362878695593"><ele>1084.0</ele><time>2026-04-12T07:36:27Z</time></trkpt><trkpt lat="39.08333750729208" lon="16.508435229830003"><ele>1084.0</ele><time>2026-04-12T07:36:28Z</time></trkpt><trkpt lat="39.08344638696857" lon="16.508522040370554"><ele>1085.6666666666665</ele><time>2026-04-12T07:36:29Z</time></trkpt><trkpt lat="39.08357690719745" lon="16.50861979006338"><ele>1087.3333333333333</ele><time>2026-04-12T07:36:30Z</time></trkpt><trkpt lat="39.08370777895073" lon="16.508724221649423"><ele>1089.0</ele><time>2026-04-12T07:36:31Z</time></trkpt><trkpt lat="39.083837244504714" lon="16.508826641323093"><ele>1090.25</ele><time>2026-04-12T07:36:32Z</time></trkpt><trkpt lat="39.08393538254114" lon="16.508916168807815"><ele>1091.5</ele><time>2026-04-12T07:36:33Z</time></trkpt><trkpt lat="39.084054162774336" lon="16.50899866536235"><ele>1092.75</ele><time>2026-04-12T07:36:34Z</time></trkpt><trkpt lat="39.08416140543214" lon="16.509086110282585"><ele>1094.0</ele><time>2026-04-12T07:36:35Z</time></trkpt><trkpt lat="39.084265196730286" lon="16.509166729567877"><ele>1096.0</ele><time>2026-04-12T07:36:36Z</time></trkpt><trkpt lat="39.08436543921321" lon="16.509244592415"><ele>1098.0</ele><time>2026-04-12T07:36:37Z</time></trkpt><trkpt lat="39.08447494074959" lon="16.509358256761086"><ele>1100.0</ele><time>2026-04-12T07:36:38Z</time></trkpt><trkpt lat="39.08457778397401" lon="16.509411041997406"><ele>1102.0</ele><time>2026-04-12T07:36:39Z</time></trkpt><trkpt lat="39.08468030578406" lon="16.509485690756396"><ele>1102.0</ele><time>2026-04-12T07:36:40Z</time></trkpt><trkpt lat="39.084785689369276" lon="16.50957510559352"><ele>1102.0</ele><time>2026-04-12T07:36:41Z</time></trkpt><trkpt lat="39.084888694106276" lon="16.50966035519156"><ele>1102.0</ele><time>2026-04-12T07:36:42Z</time></trkpt><trkpt lat="39.08498282722238" lon="16.509743353605042"><ele>1102.0</ele><time>2026-04-12T07:36:43Z</time></trkpt><trkpt lat="39.08507597884462" lon="16.509825262799357"><ele>1103.25</ele><time>2026-04-12T07:36:44Z</time></trkpt><trkpt lat="39.085182193079945" lon="16.509925471122546"><ele>1104.5</ele><time>2026-04-12T07:36:45Z</time></trkpt><trkpt lat="39.085284206998544" lon="16.510007660977678"><ele>1105.75</ele><time>2026-04-12T07:36:46Z</time></trkpt><trkpt lat="39.08537276714475" lon="16.51014614340303"><ele>1107.0</ele><time>2026-04-12T07:36:47Z</time></trkpt><trkpt lat="39.08546869801521" lon="16.51022615557635"><ele>1107.0</ele><time>2026-04-12T07:36:48Z</time></trkpt><trkpt lat="39.08557649909735" lon="16.51030597057638"><ele>1107.0</ele><time>2026-04-12T07:36:49Z</time></trkpt><trkpt lat="39.085672493024056" lon="16.51040399090078"><ele>1107.0</ele><time>2026-04-12T07:36:50Z</time></trkpt><trkpt lat="39.08576967074494" lon="16.510512888325106"><ele>1107.0</ele><time>2026-04-12T07:36:51Z</time></trkpt><trkpt lat="39.08586876064245" lon="16.51061614171004"><ele>1107.75</ele><time>2026-04-12T07:36:52Z</time></trkpt><trkpt lat="39.085964579070364" lon="16.510728854801137"><ele>1108.5</ele><time>2026-04-12T07:36:53Z</time></trkpt><trkpt lat="39.086069531520536" lon="16.510815295155236"><ele>1109.25</ele><time>2026-04-12T07:36:54Z</time></trkpt><trkpt lat="39.08616969788288" lon="16.51092509561236"><ele>1110.0</ele><time>2026-04-12T07:36:55Z</time></trkpt><trkpt lat="39.086273809217474" lon="16.511025073768046"><ele>1110.0</ele><time>2026-04-12T07:36:56Z</time></trkpt><trkpt lat="39.08637213994346" lon="16.51112925214936"><ele>1110.0</ele><time>2026-04-12T07:36:57Z</time></trkpt><trkpt lat="39.086473602352676" lon="16.51123029696102"><ele>1110.0</ele><time>2026-04-12T07:36:58Z</time></trkpt><trkpt lat="39.08657420780317" lon="16.511337002989194"><ele>1110.0</ele><time>2026-04-12T07:36:59Z</time></trkpt><trkpt lat="39.08667663335251" lon="16.51142793030932"><ele>1110.25</ele><time>2026-04-12T07:37:00Z</time></trkpt><trkpt lat="39.08677245214475" lon="16.511536593759843"><ele>1110.5</ele><time>2026-04-12T07:37:01Z</time></trkpt><trkpt lat="39.08687554013813" lon="16.51165171901574"><ele>1110.75</ele><time>2026-04-12T07:37:02Z</time></trkpt><trkpt lat="39.08698231702353" lon="16.511774239635162"><ele>1111.0</ele><time>2026-04-12T07:37:03Z</time></trkpt><trkpt lat="39.08708984786383" lon="16.511872270411533"><ele>1111.0</ele><time>2026-04-12T07:37:04Z</time></trkpt><trkpt lat="39.08719187814959" lon="16.511998681129803"><ele>1111.0</ele><time>2026-04-12T07:37:05Z</time></trkpt><trkpt lat="39.087296972460216" lon="16.512102916568647"><ele>1111.0</ele><time>2026-04-12T07:37:06Z</time></trkpt><trkpt lat="39.08740144785254" lon="16.51220309848454"><ele>1111.0</ele><time>2026-04-12T07:37:07Z</time></trkpt><trkpt lat="39.08751520182466" lon="16.5122981522878"><ele>1113.0</ele><time>2026-04-12T07:37:08Z</time></trkpt><trkpt lat="39.08761503981109" lon="16.512419443713362"><ele>1115.0</ele><time>2026-04-12T07:37:09Z</time></trkpt><trkpt lat="39.087715314243084" lon="16.512534305371"><ele>1117.0</ele><time>2026-04-12T07:37:10Z</time></trkpt><trkpt lat="39.087808333698085" lon="16.512645018727333"><ele>1119.0</ele><time>2026-04-12T07:37:11Z</time></trkpt><trkpt lat="39.087888479075744" lon="16.512695715513974"><ele>1119.0</ele><time>2026-04-12T07:37:12Z</time></trkpt><trkpt lat="39.08797258055581" lon="16.512776758109442"><ele>1119.0</ele><time>2026-04-12T07:37:13Z</time></trkpt><trkpt lat="39.08804210030881" lon="16.51285995695308"><ele>1119.0</ele><time>2026-04-12T07:37:14Z</time></trkpt><trkpt lat="39.088120437903854" lon="16.512934520343737"><ele>1119.0</ele><time>2026-04-12T07:37:15Z</time></trkpt><trkpt lat="39.0882000569525" lon="16.513010563394953"><ele>1119.0</ele><time>2026-04-12T07:37:16Z</time></trkpt><trkpt lat="39.08827935155142" lon="16.513088506160898"><ele>1121.25</ele><time>2026-04-12T07:37:17Z</time></trkpt><trkpt lat="39.088362174966356" lon="16.513186697455044"><ele>1123.5</ele><time>2026-04-12T07:37:18Z</time></trkpt><trkpt lat="39.08845140031293" lon="16.5132839796436"><ele>1125.75</ele><time>2026-04-12T07:37:19Z</time></trkpt><trkpt lat="39.088542984242125" lon="16.51337172829189"><ele>1128.0</ele><time>2026-04-12T07:37:20Z</time></trkpt><trkpt lat="39.088663765341465" lon="16.51349016667609"><ele>1128.0</ele><time>2026-04-12T07:37:21Z</time></trkpt><trkpt lat="39.08877246090372" lon="16.51360632874796"><ele>1128.0</ele><time>2026-04-12T07:37:22Z</time></trkpt><trkpt lat="39.08887754266718" lon="16.51371648328615"><ele>1128.0</ele><time>2026-04-12T07:37:23Z</time></trkpt><trkpt lat="39.08900711900074" lon="16.513842625830595"><ele>1128.0</ele><time>2026-04-12T07:37:24Z</time></trkpt><trkpt lat="39.089120424507215" lon="16.513963447531985"><ele>1131.75</ele><time>2026-04-12T07:37:25Z</time></trkpt><trkpt lat="39.08923846980065" lon="16.514093828935103"><ele>1135.5</ele><time>2026-04-12T07:37:26Z</time></trkpt><trkpt lat="39.08934545583529" lon="16.514205882370767"><ele>1139.25</ele><time>2026-04-12T07:37:27Z</time></trkpt><trkpt lat="39.089456400784236" lon="16.514315253949192"><ele>1143.0</ele><time>2026-04-12T07:37:28Z</time></trkpt><trkpt lat="39.08958103795535" lon="16.514436737455075"><ele>1143.0</ele><time>2026-04-12T07:37:29Z</time></trkpt><trkpt lat="39.089697759113186" lon="16.514564905078142"><ele>1143.0</ele><time>2026-04-12T07:37:30Z</time></trkpt><trkpt lat="39.0898105868027" lon="16.514677240300713"><ele>1143.0</ele><time>2026-04-12T07:37:31Z</time></trkpt><trkpt lat="39.089924646582" lon="16.51479772367876"><ele>1143.0</ele><time>2026-04-12T07:37:32Z</time></trkpt><trkpt lat="39.09002701129107" lon="16.514932824562774"><ele>1145.0</ele><time>2026-04-12T07:37:33Z</time></trkpt><trkpt lat="39.09015150165077" lon="16.5150306049006"><ele>1147.0</ele><time>2026-04-12T07:37:34Z</time></trkpt><trkpt lat="39.090264870348626" lon="16.515144770817304"><ele>1149.0</ele><time>2026-04-12T07:37:35Z</time></trkpt><trkpt lat="39.09037047349367" lon="16.51526242002264"><ele>1151.0</ele><time>2026-04-12T07:37:36Z</time></trkpt><trkpt lat="39.09047713937948" lon="16.515395485086113"><ele>1153.5</ele><time>2026-04-12T07:37:37Z</time></trkpt><trkpt lat="39.09056981426871" lon="16.515532906854716"><ele>1156.0</ele><time>2026-04-12T07:37:38Z</time></trkpt><trkpt lat="39.09064462518944" lon="16.515696687016312"><ele>1158.5</ele><time>2026-04-12T07:37:39Z</time></trkpt><trkpt lat="39.090712634177336" lon="16.515854813532236"><ele>1161.0</ele><time>2026-04-12T07:37:40Z</time></trkpt><trkpt lat="39.0907352535042" lon="16.516039393553093"><ele>1159.5</ele><time>2026-04-12T07:37:41Z</time></trkpt><trkpt lat="39.09076243105604" lon="16.516217256070206"><ele>1158.0</ele><time>2026-04-12T07:37:42Z</time></trkpt><trkpt lat="39.09077036954467" lon="16.516410169384805"><ele>1156.5</ele><time>2026-04-12T07:37:43Z</time></trkpt><trkpt lat="39.0907780233861" lon="16.516603435503516"><ele>1155.0</ele><time>2026-04-12T07:37:44Z</time></trkpt><trkpt lat="39.090782513922264" lon="16.516796732145743"><ele>1153.75</ele><time>2026-04-12T07:37:45Z</time></trkpt><trkpt lat="39.09078737733891" lon="16.516985139229135"><ele>1152.5</ele><time>2026-04-12T07:37:46Z</time></trkpt><trkpt lat="39.09079392365911" lon="16.51716216247146"><ele>1151.25</ele><time>2026-04-12T07:37:47Z</time></trkpt><trkpt lat="39.09079833929038" lon="16.517344089983233"><ele>1150.0</ele><time>2026-04-12T07:37:48Z</time></trkpt><trkpt lat="39.09078705371561" lon="16.51753368063736"><ele>1150.0</ele><time>2026-04-12T07:37:49Z</time></trkpt><trkpt lat="39.090772871305454" lon="16.51770665046083"><ele>1150.0</ele><time>2026-04-12T07:37:50Z</time></trkpt><trkpt lat="39.090700472811434" lon="16.517883576733308"><ele>1150.0</ele><time>2026-04-12T07:37:51Z</time></trkpt><trkpt lat="39.09061959410115" lon="16.518056781694096"><ele>1150.0</ele><time>2026-04-12T07:37:52Z</time></trkpt><trkpt lat="39.09054794130217" lon="16.518242537173617"><ele>1150.3333333333333</ele><time>2026-04-12T07:37:53Z</time></trkpt><trkpt lat="39.090473619618265" lon="16.518424300849592"><ele>1150.6666666666667</ele><time>2026-04-12T07:37:54Z</time></trkpt><trkpt lat="39.09040414976056" lon="16.518612411410757"><ele>1151.0</ele><time>2026-04-12T07:37:55Z</time></trkpt><trkpt lat="39.090357628437324" lon="16.5188017740332"><ele>1151.0</ele><time>2026-04-12T07:37:56Z</time></trkpt><trkpt lat="39.090349674660594" lon="16.51899322975981"><ele>1151.0</ele><time>2026-04-12T07:37:57Z</time></trkpt><trkpt lat="39.090381525340725" lon="16.519184749674366"><ele>1151.0</ele><time>2026-04-12T07:37:58Z</time></trkpt><trkpt lat="39.090440253923205" lon="16.51935980070167"><ele>1151.0</ele><time>2026-04-12T07:37:59Z</time></trkpt><trkpt lat="39.09052306898679" lon="16.519521896217167"><ele>1149.6666666666667</ele><time>2026-04-12T07:38:00Z</time></trkpt><trkpt lat="39.09062532177005" lon="16.519660571697003"><ele>1148.3333333333333</ele><time>2026-04-12T07:38:01Z</time></trkpt><trkpt lat="39.09073911784967" lon="16.519805518716336"><ele>1147.0</ele><time>2026-04-12T07:38:02Z</time></trkpt><trkpt lat="39.09086684337994" lon="16.519912709748382"><ele>1143.75</ele><time>2026-04-12T07:38:03Z</time></trkpt><trkpt lat="39.090983713149456" lon="16.52003606361304"><ele>1140.5</ele><time>2026-04-12T07:38:04Z</time></trkpt><trkpt lat="39.091083432900994" lon="16.520179747505427"><ele>1137.25</ele><time>2026-04-12T07:38:05Z</time></trkpt><trkpt lat="39.0911354005512" lon="16.520351022328768"><ele>1134.0</ele><time>2026-04-12T07:38:06Z</time></trkpt><trkpt lat="39.09118034001984" lon="16.52052008701235"><ele>1132.25</ele><time>2026-04-12T07:38:07Z</time></trkpt><trkpt lat="39.09121405299739" lon="16.5206935418413"><ele>1130.5</ele><time>2026-04-12T07:38:08Z</time></trkpt><trkpt lat="39.091243628775366" lon="16.52087040303727"><ele>1128.75</ele><time>2026-04-12T07:38:09Z</time></trkpt><trkpt lat="39.09127078733328" lon="16.521034439610702"><ele>1127.0</ele><time>2026-04-12T07:38:10Z</time></trkpt><trkpt lat="39.09129741433582" lon="16.52119058523015"><ele>1125.25</ele><time>2026-04-12T07:38:11Z</time></trkpt><trkpt lat="39.09132673593584" lon="16.521357070991048"><ele>1123.5</ele><time>2026-04-12T07:38:12Z</time></trkpt><trkpt lat="39.09136579508738" lon="16.521524721981198"><ele>1121.75</ele><time>2026-04-12T07:38:13Z</time></trkpt><trkpt lat="39.09139891807407" lon="16.521695502994586"><ele>1120.0</ele><time>2026-04-12T07:38:14Z</time></trkpt><trkpt lat="39.0914313134277" lon="16.521868349636485"><ele>1120.0</ele><time>2026-04-12T07:38:15Z</time></trkpt><trkpt lat="39.091461272582485" lon="16.522045246513226"><ele>1120.0</ele><time>2026-04-12T07:38:16Z</time></trkpt><trkpt lat="39.091486092250776" lon="16.52220870078725"><ele>1120.0</ele><time>2026-04-12T07:38:17Z</time></trkpt><trkpt lat="39.09150899668436" lon="16.522375423111047"><ele>1120.0</ele><time>2026-04-12T07:38:18Z</time></trkpt><trkpt lat="39.09152494301793" lon="16.52253419147979"><ele>1117.6</ele><time>2026-04-12T07:38:19Z</time></trkpt><trkpt lat="39.09153577428817" lon="16.522687376037997"><ele>1115.2</ele><time>2026-04-12T07:38:20Z</time></trkpt><trkpt lat="39.09153679083121" lon="16.52283055502178"><ele>1112.8</ele><time>2026-04-12T07:38:21Z</time></trkpt><trkpt lat="39.09153950853834" lon="16.52296500060417"><ele>1110.4</ele><time>2026-04-12T07:38:22Z</time></trkpt><trkpt lat="39.091546760592806" lon="16.523083093148475"><ele>1108.0</ele><time>2026-04-12T07:38:23Z</time></trkpt><trkpt lat="39.091534776162554" lon="16.523177086493845"><ele>1103.25</ele><time>2026-04-12T07:38:24Z</time></trkpt><trkpt lat="39.09155252398876" lon="16.523374086806093"><ele>1098.5</ele><time>2026-04-12T07:38:25Z</time></trkpt><trkpt lat="39.091550269696675" lon="16.52350317716205"><ele>1093.75</ele><time>2026-04-12T07:38:26Z</time></trkpt><trkpt lat="39.09155346555023" lon="16.52363824806936"><ele>1089.0</ele><time>2026-04-12T07:38:27Z</time></trkpt><trkpt lat="39.09156017500224" lon="16.523772743632215"><ele>1085.5</ele><time>2026-04-12T07:38:28Z</time></trkpt><trkpt lat="39.091568098356156" lon="16.523909485854286"><ele>1082.0</ele><time>2026-04-12T07:38:29Z</time></trkpt><trkpt lat="39.09156556832141" lon="16.52405233691327"><ele>1078.5</ele><time>2026-04-12T07:38:30Z</time></trkpt><trkpt lat="39.0915709210448" lon="16.524202463684357"><ele>1075.0</ele><time>2026-04-12T07:38:31Z</time></trkpt><trkpt lat="39.091578228845684" lon="16.524354109907897"><ele>1075.0</ele><time>2026-04-12T07:38:32Z</time></trkpt><trkpt lat="39.091584421180386" lon="16.524511178448044"><ele>1075.0</ele><time>2026-04-12T07:38:33Z</time></trkpt><trkpt lat="39.09159152677608" lon="16.524672585010613"><ele>1075.0</ele><time>2026-04-12T07:38:34Z</time></trkpt><trkpt lat="39.09158977785046" lon="16.524832007705143"><ele>1075.0</ele><time>2026-04-12T07:38:35Z</time></trkpt><trkpt lat="39.09159381618707" lon="16.52498275651933"><ele>1084.25</ele><time>2026-04-12T07:38:36Z</time></trkpt><trkpt lat="39.09159755239169" lon="16.525137459686498"><ele>1093.5</ele><time>2026-04-12T07:38:37Z</time></trkpt><trkpt lat="39.091600470161694" lon="16.525295634675874"><ele>1102.75</ele><time>2026-04-12T07:38:38Z</time></trkpt><trkpt lat="39.091605593957816" lon="16.525466666758934"><ele>1112.0</ele><time>2026-04-12T07:38:39Z</time></trkpt><trkpt lat="39.09160982566217" lon="16.525634115534274"><ele>1114.25</ele><time>2026-04-12T07:38:40Z</time></trkpt><trkpt lat="39.09161239729961" lon="16.525788755378432"><ele>1116.5</ele><time>2026-04-12T07:38:41Z</time></trkpt><trkpt lat="39.09161209902539" lon="16.525930776407822"><ele>1118.75</ele><time>2026-04-12T07:38:42Z</time></trkpt><trkpt lat="39.091618434837926" lon="16.52607544014194"><ele>1121.0</ele><time>2026-04-12T07:38:43Z</time></trkpt><trkpt lat="39.091627649116255" lon="16.52621863622976"><ele>1123.25</ele><time>2026-04-12T07:38:44Z</time></trkpt><trkpt lat="39.091644311822485" lon="16.526365037176213"><ele>1125.5</ele><time>2026-04-12T07:38:45Z</time></trkpt><trkpt lat="39.09168988188302" lon="16.52649915662599"><ele>1127.75</ele><time>2026-04-12T07:38:46Z</time></trkpt><trkpt lat="39.09175837062378" lon="16.526611850847434"><ele>1130.0</ele><time>2026-04-12T07:38:47Z</time></trkpt><trkpt lat="39.09187476626606" lon="16.526691842731974"><ele>1130.0</ele><time>2026-04-12T07:38:48Z</time></trkpt><trkpt lat="39.09198795312061" lon="16.526768219368194"><ele>1130.0</ele><time>2026-04-12T07:38:49Z</time></trkpt><trkpt lat="39.09210635260459" lon="16.526808792526996"><ele>1130.0</ele><time>2026-04-12T07:38:50Z</time></trkpt><trkpt lat="39.09223171527303" lon="16.526817091100103"><ele>1130.0</ele><time>2026-04-12T07:38:51Z</time></trkpt><trkpt lat="39.09234381281738" lon="16.526763212963456"><ele>1131.5</ele><time>2026-04-12T07:38:52Z</time></trkpt><trkpt lat="39.09245189279846" lon="16.52670319232071"><ele>1133.0</ele><time>2026-04-12T07:38:53Z</time></trkpt><trkpt lat="39.09256505895796" lon="16.52666625866953"><ele>1134.5</ele><time>2026-04-12T07:38:54Z</time></trkpt><trkpt lat="39.09267631219967" lon="16.52663041841192"><ele>1136.0</ele><time>2026-04-12T07:38:55Z</time></trkpt><trkpt lat="39.09279256460931" lon="16.526593426719387"><ele>1136.0</ele><time>2026-04-12T07:38:56Z</time></trkpt><trkpt lat="39.09290666160948" lon="16.526561084225587"><ele>1136.0</ele><time>2026-04-12T07:38:57Z</time></trkpt><trkpt lat="39.093022509448886" lon="16.52652996955606"><ele>1136.0</ele><time>2026-04-12T07:38:58Z</time></trkpt><trkpt lat="39.093136074017266" lon="16.526505037864037"><ele>1136.0</ele><time>2026-04-12T07:38:59Z</time></trkpt><trkpt lat="39.0932518893825" lon="16.526499824695726"><ele>1136.25</ele><time>2026-04-12T07:39:00Z</time></trkpt><trkpt lat="39.09336540916306" lon="16.526564102586732"><ele>1136.5</ele><time>2026-04-12T07:39:01Z</time></trkpt><trkpt lat="39.09347030808532" lon="16.526623059382427"><ele>1136.75</ele><time>2026-04-12T07:39:02Z</time></trkpt><trkpt lat="39.09358843175387" lon="16.52668638855508"><ele>1137.0</ele><time>2026-04-12T07:39:03Z</time></trkpt><trkpt lat="39.09371719579891" lon="16.52675596316734"><ele>1137.0</ele><time>2026-04-12T07:39:04Z</time></trkpt><trkpt lat="39.09382120416542" lon="16.52681304577007"><ele>1137.0</ele><time>2026-04-12T07:39:05Z</time></trkpt><trkpt lat="39.09393737805864" lon="16.526860004514845"><ele>1137.0</ele><time>2026-04-12T07:39:06Z</time></trkpt><trkpt lat="39.09404561906938" lon="16.526933738539128"><ele>1137.0</ele><time>2026-04-12T07:39:07Z</time></trkpt><trkpt lat="39.0941818350334" lon="16.52700674745818"><ele>1140.25</ele><time>2026-04-12T07:39:08Z</time></trkpt><trkpt lat="39.094303608843724" lon="16.52707675807728"><ele>1143.5</ele><time>2026-04-12T07:39:09Z</time></trkpt><trkpt lat="39.0944287111861" lon="16.527136708053437"><ele>1146.75</ele><time>2026-04-12T07:39:10Z</time></trkpt><trkpt lat="39.09455347388911" lon="16.52721708372785"><ele>1150.0</ele><time>2026-04-12T07:39:11Z</time></trkpt><trkpt lat="39.09469563522751" lon="16.527315585917098"><ele>1150.0</ele><time>2026-04-12T07:39:12Z</time></trkpt><trkpt lat="39.09481052575765" lon="16.527380925700875"><ele>1150.0</ele><time>2026-04-12T07:39:13Z</time></trkpt><trkpt lat="39.094916344424874" lon="16.527440960126324"><ele>1150.0</ele><time>2026-04-12T07:39:14Z</time></trkpt><trkpt lat="39.09501982755526" lon="16.52749431215704"><ele>1150.0</ele><time>2026-04-12T07:39:15Z</time></trkpt><trkpt lat="39.09513671992275" lon="16.52752533938502"><ele>1148.0</ele><time>2026-04-12T07:39:16Z</time></trkpt><trkpt lat="39.09524569687682" lon="16.527552667890628"><ele>1146.0</ele><time>2026-04-12T07:39:17Z</time></trkpt><trkpt lat="39.09537793361294" lon="16.527517266228447"><ele>1144.0</ele><time>2026-04-12T07:39:18Z</time></trkpt><trkpt lat="39.09549626321083" lon="16.527453461986987"><ele>1142.0</ele><time>2026-04-12T07:39:19Z</time></trkpt><trkpt lat="39.09560997282313" lon="16.52736820548385"><ele>1142.0</ele><time>2026-04-12T07:39:20Z</time></trkpt><trkpt lat="39.09569886406289" lon="16.527252802135784"><ele>1142.0</ele><time>2026-04-12T07:39:21Z</time></trkpt><trkpt lat="39.095780210828664" lon="16.52711865890045"><ele>1142.0</ele><time>2026-04-12T07:39:22Z</time></trkpt><trkpt lat="39.09586042319676" lon="16.52698686664929"><ele>1142.0</ele><time>2026-04-12T07:39:23Z</time></trkpt><trkpt lat="39.09595472519989" lon="16.52684094922122"><ele>1143.25</ele><time>2026-04-12T07:39:24Z</time></trkpt><trkpt lat="39.09604769032985" lon="16.52668638366323"><ele>1144.5</ele><time>2026-04-12T07:39:25Z</time></trkpt><trkpt lat="39.09613036863328" lon="16.52654000772449"><ele>1145.75</ele><time>2026-04-12T07:39:26Z</time></trkpt><trkpt lat="39.09621477669904" lon="16.526416873120432"><ele>1147.0</ele><time>2026-04-12T07:39:27Z</time></trkpt><trkpt lat="39.09630141208321" lon="16.526309949268637"><ele>1147.4</ele><time>2026-04-12T07:39:28Z</time></trkpt><trkpt lat="39.096399809639756" lon="16.5262218686139"><ele>1147.8000000000002</ele><time>2026-04-12T07:39:29Z</time></trkpt><trkpt lat="39.096502621022935" lon="16.526175314933738"><ele>1148.2</ele><time>2026-04-12T07:39:30Z</time></trkpt><trkpt lat="39.09658766603115" lon="16.5261257377875"><ele>1148.6000000000001</ele><time>2026-04-12T07:39:31Z</time></trkpt><trkpt lat="39.09668157263094" lon="16.526077576220704"><ele>1149.0</ele><time>2026-04-12T07:39:32Z</time></trkpt><trkpt lat="39.0968112421406" lon="16.526023700828755"><ele>1149.0</ele><time>2026-04-12T07:39:33Z</time></trkpt><trkpt lat="39.09692213416541" lon="16.52597333046743"><ele>1149.0</ele><time>2026-04-12T07:39:34Z</time></trkpt><trkpt lat="39.097024899702454" lon="16.525906646364977"><ele>1149.0</ele><time>2026-04-12T07:39:35Z</time></trkpt><trkpt lat="39.097131373025384" lon="16.525838432826678"><ele>1149.0</ele><time>2026-04-12T07:39:36Z</time></trkpt><trkpt lat="39.09721852761692" lon="16.52573439222225"><ele>1149.0</ele><time>2026-04-12T07:39:37Z</time></trkpt><trkpt lat="39.09728931235416" lon="16.5256098294799"><ele>1149.0</ele><time>2026-04-12T07:39:38Z</time></trkpt><trkpt lat="39.09733272246635" lon="16.525464045249617"><ele>1149.0</ele><time>2026-04-12T07:39:39Z</time></trkpt><trkpt lat="39.097364458765206" lon="16.525305024861524"><ele>1149.0</ele><time>2026-04-12T07:39:40Z</time></trkpt><trkpt lat="39.09739960162514" lon="16.52514296246887"><ele>1148.5</ele><time>2026-04-12T07:39:41Z</time></trkpt><trkpt lat="39.09743659090077" lon="16.524960242317388"><ele>1148.0</ele><time>2026-04-12T07:39:42Z</time></trkpt><trkpt lat="39.097475692292704" lon="16.52477255972625"><ele>1147.5</ele><time>2026-04-12T07:39:43Z</time></trkpt><trkpt lat="39.09752389139907" lon="16.524591675580535"><ele>1147.0</ele><time>2026-04-12T07:39:44Z</time></trkpt><trkpt lat="39.09759444015204" lon="16.524441514006543"><ele>1147.0</ele><time>2026-04-12T07:39:45Z</time></trkpt><trkpt lat="39.097683840880045" lon="16.52431267381798"><ele>1147.0</ele><time>2026-04-12T07:39:46Z</time></trkpt><trkpt lat="39.09779237513222" lon="16.524220678836695"><ele>1147.0</ele><time>2026-04-12T07:39:47Z</time></trkpt><trkpt lat="39.09790976703468" lon="16.524146898076115"><ele>1147.0</ele><time>2026-04-12T07:39:48Z</time></trkpt><trkpt lat="39.09803411154384" lon="16.52410013978637"><ele>1147.0</ele><time>2026-04-12T07:39:49Z</time></trkpt><trkpt lat="39.098163696433915" lon="16.524088836125472"><ele>1147.0</ele><time>2026-04-12T07:39:50Z</time></trkpt><trkpt lat="39.0982878945695" lon="16.524045957721345"><ele>1147.0</ele><time>2026-04-12T07:39:51Z</time></trkpt><trkpt lat="39.09840827851988" lon="16.523979255028507"><ele>1147.0</ele><time>2026-04-12T07:39:52Z</time></trkpt><trkpt lat="39.09853647298978" lon="16.523912739060098"><ele>1152.25</ele><time>2026-04-12T07:39:53Z</time></trkpt><trkpt lat="39.09866952057219" lon="16.52387298147222"><ele>1157.5</ele><time>2026-04-12T07:39:54Z</time></trkpt><trkpt lat="39.09879190923208" lon="16.52386277833152"><ele>1162.75</ele><time>2026-04-12T07:39:55Z</time></trkpt><trkpt lat="39.09890863169528" lon="16.523870952503245"><ele>1168.0</ele><time>2026-04-12T07:39:56Z</time></trkpt><trkpt lat="39.09902888466109" lon="16.523892672892273"><ele>1169.75</ele><time>2026-04-12T07:39:57Z</time></trkpt><trkpt lat="39.099142900314206" lon="16.523913869842943"><ele>1171.5</ele><time>2026-04-12T07:39:58Z</time></trkpt><trkpt lat="39.09926742865582" lon="16.523971100898088"><ele>1173.25</ele><time>2026-04-12T07:39:59Z</time></trkpt><trkpt lat="39.09938910515837" lon="16.524069474066433"><ele>1175.0</ele><time>2026-04-12T07:40:00Z</time></trkpt><trkpt lat="39.099493200984924" lon="16.524171558569567"><ele>1175.0</ele><time>2026-04-12T07:40:01Z</time></trkpt><trkpt lat="39.09959707473529" lon="16.524287190269714"><ele>1175.0</ele><time>2026-04-12T07:40:02Z</time></trkpt><trkpt lat="39.09969797484211" lon="16.524385376349578"><ele>1175.0</ele><time>2026-04-12T07:40:03Z</time></trkpt><trkpt lat="39.099789106629984" lon="16.524504798310684"><ele>1175.0</ele><time>2026-04-12T07:40:04Z</time></trkpt><trkpt lat="39.0998760766736" lon="16.524616997902974"><ele>1178.0</ele><time>2026-04-12T07:40:05Z</time></trkpt><trkpt lat="39.09996829407481" lon="16.52473473333997"><ele>1181.0</ele><time>2026-04-12T07:40:06Z</time></trkpt><trkpt lat="39.10008049046503" lon="16.524856318111546"><ele>1184.0</ele><time>2026-04-12T07:40:07Z</time></trkpt><trkpt lat="39.10017069832594" lon="16.5250077484337"><ele>1187.0</ele><time>2026-04-12T07:40:08Z</time></trkpt><trkpt lat="39.10025216432172" lon="16.525167755122336"><ele>1187.0</ele><time>2026-04-12T07:40:09Z</time></trkpt><trkpt lat="39.100324792314176" lon="16.52532491723084"><ele>1187.0</ele><time>2026-04-12T07:40:10Z</time></trkpt><trkpt lat="39.10039235068691" lon="16.525476636244655"><ele>1187.0</ele><time>2026-04-12T07:40:11Z</time></trkpt><trkpt lat="39.10045924114593" lon="16.525608189662222"><ele>1187.0</ele><time>2026-04-12T07:40:12Z</time></trkpt><trkpt lat="39.10052057862871" lon="16.52573765326835"><ele>1189.5</ele><time>2026-04-12T07:40:13Z</time></trkpt><trkpt lat="39.100574849857495" lon="16.525891150378875"><ele>1192.0</ele><time>2026-04-12T07:40:14Z</time></trkpt><trkpt lat="39.100655680949146" lon="16.526039263093008"><ele>1194.5</ele><time>2026-04-12T07:40:15Z</time></trkpt><trkpt lat="39.10074864865769" lon="16.526148327848173"><ele>1197.0</ele><time>2026-04-12T07:40:16Z</time></trkpt><trkpt lat="39.1008337462556" lon="16.52627644874719"><ele>1197.0</ele><time>2026-04-12T07:40:17Z</time></trkpt><trkpt lat="39.100960592929546" lon="16.526346390573952"><ele>1197.0</ele><time>2026-04-12T07:40:18Z</time></trkpt><trkpt lat="39.101102121146226" lon="16.526401596279836"><ele>1197.0</ele><time>2026-04-12T07:40:19Z</time></trkpt><trkpt lat="39.101252864593874" lon="16.526458982942426"><ele>1197.0</ele><time>2026-04-12T07:40:20Z</time></trkpt><trkpt lat="39.10139192523319" lon="16.526508111621382"><ele>1197.0</ele><time>2026-04-12T07:40:21Z</time></trkpt><trkpt lat="39.101525248915806" lon="16.526561938260514"><ele>1197.0</ele><time>2026-04-12T07:40:22Z</time></trkpt><trkpt lat="39.10166492327103" lon="16.526617809143772"><ele>1197.0</ele><time>2026-04-12T07:40:23Z</time></trkpt><trkpt lat="39.10177366537401" lon="16.526669570679392"><ele>1197.0</ele><time>2026-04-12T07:40:24Z</time></trkpt><trkpt lat="39.1018839514612" lon="16.526716354080047"><ele>1196.25</ele><time>2026-04-12T07:40:25Z</time></trkpt><trkpt lat="39.10201555517563" lon="16.526757713842525"><ele>1195.5</ele><time>2026-04-12T07:40:26Z</time></trkpt><trkpt lat="39.10213248342931" lon="16.526799847080074"><ele>1194.75</ele><time>2026-04-12T07:40:27Z</time></trkpt><trkpt lat="39.10225409994535" lon="16.526842961089216"><ele>1194.0</ele><time>2026-04-12T07:40:28Z</time></trkpt><trkpt lat="39.10235638977286" lon="16.52688768070478"><ele>1193.0</ele><time>2026-04-12T07:40:29Z</time></trkpt><trkpt lat="39.102461944495246" lon="16.526923756428793"><ele>1192.0</ele><time>2026-04-12T07:40:30Z</time></trkpt><trkpt lat="39.102582892311815" lon="16.526974708182806"><ele>1191.0</ele><time>2026-04-12T07:40:31Z</time></trkpt><trkpt lat="39.10271354008275" lon="16.527027879881963"><ele>1190.0</ele><time>2026-04-12T07:40:32Z</time></trkpt><trkpt lat="39.102844515627986" lon="16.527078049834657"><ele>1193.0</ele><time>2026-04-12T07:40:33Z</time></trkpt><trkpt lat="39.10296221982023" lon="16.527108075465822"><ele>1196.0</ele><time>2026-04-12T07:40:34Z</time></trkpt><trkpt lat="39.103076647295595" lon="16.527154955519055"><ele>1199.0</ele><time>2026-04-12T07:40:35Z</time></trkpt><trkpt lat="39.10321892602321" lon="16.527229815835213"><ele>1202.0</ele><time>2026-04-12T07:40:36Z</time></trkpt><trkpt lat="39.10336634579621" lon="16.52729058006959"><ele>1202.0</ele><time>2026-04-12T07:40:37Z</time></trkpt><trkpt lat="39.1034965053064" lon="16.527354923339338"><ele>1202.0</ele><time>2026-04-12T07:40:38Z</time></trkpt><trkpt lat="39.10361160796662" lon="16.527474897002957"><ele>1202.0</ele><time>2026-04-12T07:40:39Z</time></trkpt><trkpt lat="39.103705772177584" lon="16.527600448050777"><ele>1202.0</ele><time>2026-04-12T07:40:40Z</time></trkpt><trkpt lat="39.10379039099078" lon="16.52777261658092"><ele>1205.5</ele><time>2026-04-12T07:40:41Z</time></trkpt><trkpt lat="39.103852972165235" lon="16.527909991717536"><ele>1209.0</ele><time>2026-04-12T07:40:42Z</time></trkpt><trkpt lat="39.1038969741582" lon="16.528070805272762"><ele>1212.5</ele><time>2026-04-12T07:40:43Z</time></trkpt><trkpt lat="39.103931067723174" lon="16.528245933900195"><ele>1216.0</ele><time>2026-04-12T07:40:44Z</time></trkpt><trkpt lat="39.103913793868074" lon="16.52842050171928"><ele>1216.0</ele><time>2026-04-12T07:40:45Z</time></trkpt><trkpt lat="39.10388709082363" lon="16.528594208012066"><ele>1216.0</ele><time>2026-04-12T07:40:46Z</time></trkpt><trkpt lat="39.10383765732242" lon="16.528755145004116"><ele>1216.0</ele><time>2026-04-12T07:40:47Z</time></trkpt><trkpt lat="39.10376355930023" lon="16.52889104658251"><ele>1216.0</ele><time>2026-04-12T07:40:48Z</time></trkpt><trkpt lat="39.10367006655402" lon="16.529006854829202"><ele>1218.0</ele><time>2026-04-12T07:40:49Z</time></trkpt><trkpt lat="39.103557608303774" lon="16.529110607920206"><ele>1220.0</ele><time>2026-04-12T07:40:50Z</time></trkpt><trkpt lat="39.103426308992624" lon="16.52915216713384"><ele>1222.0</ele><time>2026-04-12T07:40:51Z</time></trkpt><trkpt lat="39.10330172114598" lon="16.529200840225773"><ele>1224.0</ele><time>2026-04-12T07:40:52Z</time></trkpt><trkpt lat="39.10317885474476" lon="16.529237405058474"><ele>1224.0</ele><time>2026-04-12T07:40:53Z</time></trkpt><trkpt lat="39.1030464644111" lon="16.52927755315093"><ele>1224.0</ele><time>2026-04-12T07:40:54Z</time></trkpt><trkpt lat="39.102935045844916" lon="16.529336835340796"><ele>1224.0</ele><time>2026-04-12T07:40:55Z</time></trkpt><trkpt lat="39.10279664081675" lon="16.529403132592112"><ele>1224.0</ele><time>2026-04-12T07:40:56Z</time></trkpt><trkpt lat="39.10269111026368" lon="16.529471666958045"><ele>1224.25</ele><time>2026-04-12T07:40:57Z</time></trkpt><trkpt lat="39.102578567529044" lon="16.52956360980407"><ele>1224.5</ele><time>2026-04-12T07:40:58Z</time></trkpt><trkpt lat="39.10243912902422" lon="16.529677110788658"><ele>1224.75</ele><time>2026-04-12T07:40:59Z</time></trkpt><trkpt lat="39.10231741823991" lon="16.52977191231303"><ele>1225.0</ele><time>2026-04-12T07:41:00Z</time></trkpt><trkpt lat="39.1022049459325" lon="16.529893240918437"><ele>1225.0</ele><time>2026-04-12T07:41:01Z</time></trkpt><trkpt lat="39.10211071362561" lon="16.52998603442439"><ele>1225.0</ele><time>2026-04-12T07:41:02Z</time></trkpt><trkpt lat="39.101984114902834" lon="16.530033191128627"><ele>1225.0</ele><time>2026-04-12T07:41:03Z</time></trkpt><trkpt lat="39.101844945342854" lon="16.530068745936447"><ele>1225.0</ele><time>2026-04-12T07:41:04Z</time></trkpt><trkpt lat="39.10170105753304" lon="16.530095290632588"><ele>1229.5</ele><time>2026-04-12T07:41:05Z</time></trkpt><trkpt lat="39.101558321327595" lon="16.53012477448657"><ele>1234.0</ele><time>2026-04-12T07:41:06Z</time></trkpt><trkpt lat="39.10142510452766" lon="16.53016459096998"><ele>1238.5</ele><time>2026-04-12T07:41:07Z</time></trkpt><trkpt lat="39.10129196487456" lon="16.53022884401166"><ele>1243.0</ele><time>2026-04-12T07:41:08Z</time></trkpt><trkpt lat="39.10116018163098" lon="16.530300496651456"><ele>1243.0</ele><time>2026-04-12T07:41:09Z</time></trkpt><trkpt lat="39.101029981587075" lon="16.530388130821795"><ele>1243.0</ele><time>2026-04-12T07:41:10Z</time></trkpt><trkpt lat="39.10090108031522" lon="16.530473705890767"><ele>1243.0</ele><time>2026-04-12T07:41:11Z</time></trkpt><trkpt lat="39.100768242929405" lon="16.5305548795344"><ele>1243.0</ele><time>2026-04-12T07:41:12Z</time></trkpt><trkpt lat="39.100645894532185" lon="16.53062952351413"><ele>1240.5</ele><time>2026-04-12T07:41:13Z</time></trkpt><trkpt lat="39.100521450961274" lon="16.53068795529608"><ele>1238.0</ele><time>2026-04-12T07:41:14Z</time></trkpt><trkpt lat="39.100378362429346" lon="16.530728027807097"><ele>1235.5</ele><time>2026-04-12T07:41:15Z</time></trkpt><trkpt lat="39.10025111122983" lon="16.530768170508455"><ele>1233.0</ele><time>2026-04-12T07:41:16Z</time></trkpt><trkpt lat="39.1001329151958" lon="16.530799657217585"><ele>1233.0</ele><time>2026-04-12T07:41:17Z</time></trkpt><trkpt lat="39.10001914328195" lon="16.530820998054608"><ele>1233.0</ele><time>2026-04-12T07:41:18Z</time></trkpt><trkpt lat="39.09990066622781" lon="16.53085533567778"><ele>1233.0</ele><time>2026-04-12T07:41:19Z</time></trkpt><trkpt lat="39.099775508075886" lon="16.530887368987713"><ele>1233.0</ele><time>2026-04-12T07:41:20Z</time></trkpt><trkpt lat="39.09964804058494" lon="16.53091482252214"><ele>1235.0</ele><time>2026-04-12T07:41:21Z</time></trkpt><trkpt lat="39.09951430037557" lon="16.530951675660695"><ele>1237.0</ele><time>2026-04-12T07:41:22Z</time></trkpt><trkpt lat="39.09937596542594" lon="16.530997603203794"><ele>1239.0</ele><time>2026-04-12T07:41:23Z</time></trkpt><trkpt lat="39.099262432509384" lon="16.5310484143966"><ele>1241.0</ele><time>2026-04-12T07:41:24Z</time></trkpt><trkpt lat="39.099166827670565" lon="16.53106902143049"><ele>1241.0</ele><time>2026-04-12T07:41:25Z</time></trkpt><trkpt lat="39.09908496360761" lon="16.531089183706445"><ele>1241.0</ele><time>2026-04-12T07:41:26Z</time></trkpt><trkpt lat="39.09897080918491" lon="16.53112490069107"><ele>1241.0</ele><time>2026-04-12T07:41:27Z</time></trkpt><trkpt lat="39.09890901991857" lon="16.531144440086212"><ele>1241.0</ele><time>2026-04-12T07:41:28Z</time></trkpt><trkpt lat="39.098811964685396" lon="16.531169489726697"><ele>1241.0</ele><time>2026-04-12T07:41:29Z</time></trkpt><trkpt lat="39.098709078784445" lon="16.531226825135025"><ele>1239.3999999999999</ele><time>2026-04-12T07:41:30Z</time></trkpt><trkpt lat="39.09860613104105" lon="16.531295111529182"><ele>1237.8</ele><time>2026-04-12T07:41:31Z</time></trkpt><trkpt lat="39.098511682924354" lon="16.531372564850514"><ele>1236.1999999999998</ele><time>2026-04-12T07:41:32Z</time></trkpt><trkpt lat="39.09842680254136" lon="16.531460867185245"><ele>1234.6</ele><time>2026-04-12T07:41:33Z</time></trkpt><trkpt lat="39.098348705182524" lon="16.53156017166578"><ele>1233.0</ele><time>2026-04-12T07:41:34Z</time></trkpt><trkpt lat="39.09827086007114" lon="16.53168794251165"><ele>1234.6666666666667</ele><time>2026-04-12T07:41:35Z</time></trkpt><trkpt lat="39.09818486741048" lon="16.531867189438323"><ele>1236.3333333333335</ele><time>2026-04-12T07:41:36Z</time></trkpt><trkpt lat="39.09812391406747" lon="16.53209569603911"><ele>1238.0</ele><time>2026-04-12T07:41:37Z</time></trkpt><trkpt lat="39.09809054847182" lon="16.532403162493477"><ele>1232.5</ele><time>2026-04-12T07:41:38Z</time></trkpt><trkpt lat="39.098128521867714" lon="16.532756724985212"><ele>1227.0</ele><time>2026-04-12T07:41:39Z</time></trkpt><trkpt lat="39.09805611539072" lon="16.532514405168545"><ele>1227.0</ele><time>2026-04-12T07:41:40Z</time></trkpt><trkpt lat="39.09807904973628" lon="16.532693415799994"><ele>1227.0</ele><time>2026-04-12T07:41:41Z</time></trkpt><trkpt lat="39.09811459579049" lon="16.532873029556683"><ele>1227.0</ele><time>2026-04-12T07:41:42Z</time></trkpt><trkpt lat="39.098168122272185" lon="16.53303940831731"><ele>1227.0</ele><time>2026-04-12T07:41:43Z</time></trkpt><trkpt lat="39.098226331390876" lon="16.533178194959827"><ele>1231.25</ele><time>2026-04-12T07:41:44Z</time></trkpt><trkpt lat="39.09828949657831" lon="16.533299795780163"><ele>1235.5</ele><time>2026-04-12T07:41:45Z</time></trkpt><trkpt lat="39.098348112822755" lon="16.53342892119322"><ele>1239.75</ele><time>2026-04-12T07:41:46Z</time></trkpt><trkpt lat="39.09841320707098" lon="16.53354987916774"><ele>1244.0</ele><time>2026-04-12T07:41:47Z</time></trkpt><trkpt lat="39.09849092353084" lon="16.533666673107682"><ele>1243.25</ele><time>2026-04-12T07:41:48Z</time></trkpt><trkpt lat="39.09857959015975" lon="16.533777590593015"><ele>1242.5</ele><time>2026-04-12T07:41:49Z</time></trkpt><trkpt lat="39.09868150440777" lon="16.533878247824823"><ele>1241.75</ele><time>2026-04-12T07:41:50Z</time></trkpt><trkpt lat="39.098793215564186" lon="16.533956829379854"><ele>1241.0</ele><time>2026-04-12T07:41:51Z</time></trkpt><trkpt lat="39.09890381262221" lon="16.534037496263064"><ele>1241.0</ele><time>2026-04-12T07:41:52Z</time></trkpt><trkpt lat="39.099033830474525" lon="16.534086342762564"><ele>1241.0</ele><time>2026-04-12T07:41:53Z</time></trkpt><trkpt lat="39.09915997207152" lon="16.534130456642686"><ele>1241.0</ele><time>2026-04-12T07:41:54Z</time></trkpt><trkpt lat="39.0992804923168" lon="16.5341716300959"><ele>1241.0</ele><time>2026-04-12T07:41:55Z</time></trkpt><trkpt lat="39.09939793324553" lon="16.53421744508056"><ele>1243.25</ele><time>2026-04-12T07:41:56Z</time></trkpt><trkpt lat="39.09951983115224" lon="16.53426296019734"><ele>1245.5</ele><time>2026-04-12T07:41:57Z</time></trkpt><trkpt lat="39.099636335617205" lon="16.53430069968274"><ele>1247.75</ele><time>2026-04-12T07:41:58Z</time></trkpt><trkpt lat="39.09972869046514" lon="16.534321921221963"><ele>1250.0</ele><time>2026-04-12T07:41:59Z</time></trkpt><trkpt lat="39.09984534115425" lon="16.534396035313847"><ele>1251.75</ele><time>2026-04-12T07:42:00Z</time></trkpt><trkpt lat="39.09994922315171" lon="16.53448616279538"><ele>1253.5</ele><time>2026-04-12T07:42:01Z</time></trkpt><trkpt lat="39.10003937744047" lon="16.534590446737038"><ele>1255.25</ele><time>2026-04-12T07:42:02Z</time></trkpt><trkpt lat="39.1001059899485" lon="16.534755320086752"><ele>1257.0</ele><time>2026-04-12T07:42:03Z</time></trkpt><trkpt lat="39.10020359198619" lon="16.534955262758757"><ele>1257.0</ele><time>2026-04-12T07:42:04Z</time></trkpt><trkpt lat="39.10033810327047" lon="16.535182527460204"><ele>1257.0</ele><time>2026-04-12T07:42:05Z</time></trkpt><trkpt lat="39.10042068119723" lon="16.535401704662178"><ele>1257.0</ele><time>2026-04-12T07:42:06Z</time></trkpt><trkpt lat="39.10027436727691" lon="16.53532066960284"><ele>1259.25</ele><time>2026-04-12T07:42:07Z</time></trkpt><trkpt lat="39.10027559249586" lon="16.5354798258053"><ele>1261.5</ele><time>2026-04-12T07:42:08Z</time></trkpt><trkpt lat="39.10027011674795" lon="16.535640160295323"><ele>1263.75</ele><time>2026-04-12T07:42:09Z</time></trkpt><trkpt lat="39.100273852628874" lon="16.535796968226116"><ele>1266.0</ele><time>2026-04-12T07:42:10Z</time></trkpt><trkpt lat="39.10026692762633" lon="16.535953643971578"><ele>1266.0</ele><time>2026-04-12T07:42:11Z</time></trkpt><trkpt lat="39.100270194475215" lon="16.536081586972994"><ele>1266.0</ele><time>2026-04-12T07:42:12Z</time></trkpt><trkpt lat="39.10027258501191" lon="16.536201747352393"><ele>1266.0</ele><time>2026-04-12T07:42:13Z</time></trkpt><trkpt lat="39.100274625332986" lon="16.53630430417264"><ele>1266.0</ele><time>2026-04-12T07:42:14Z</time></trkpt><trkpt lat="39.100276550844775" lon="16.536401090117696"><ele>1266.0</ele><time>2026-04-12T07:42:15Z</time></trkpt><trkpt lat="39.10027863066135" lon="16.536494350536223"><ele>1266.0</ele><time>2026-04-12T07:42:16Z</time></trkpt><trkpt lat="39.100280856272995" lon="16.53658307016438"><ele>1266.6</ele><time>2026-04-12T07:42:17Z</time></trkpt><trkpt lat="39.10029596221396" lon="16.53669644964547"><ele>1267.1999999999998</ele><time>2026-04-12T07:42:19Z</time></trkpt><trkpt lat="39.10029033954383" lon="16.536836694229365"><ele>1267.8000000000002</ele><time>2026-04-12T07:42:21Z</time></trkpt><trkpt lat="39.100290110387704" lon="16.53694591990269"><ele>1268.4</ele><time>2026-04-12T07:42:23Z</time></trkpt><trkpt lat="39.100286160941195" lon="16.537038336764457"><ele>1269.0</ele><time>2026-04-12T07:42:25Z</time></trkpt><trkpt lat="39.10030307282453" lon="16.53716115361559"><ele>1269.0</ele><time>2026-04-12T07:42:28Z</time></trkpt><trkpt lat="39.10036784794239" lon="16.53721917134685"><ele>1269.0</ele><time>2026-04-12T07:42:30Z</time></trkpt><trkpt lat="39.10046517637067" lon="16.53725858785628"><ele>1269.0</ele><time>2026-04-12T07:42:32Z</time></trkpt><trkpt lat="39.10053572098437" lon="16.537231884693806"><ele>1269.0</ele><time>2026-04-12T07:42:33Z</time></trkpt><trkpt lat="39.100635904035876" lon="16.537193962485023"><ele>1269.0</ele><time>2026-04-12T07:42:35Z</time></trkpt><trkpt lat="39.100710160561526" lon="16.53716392031218"><ele>1269.0</ele><time>2026-04-12T07:42:36Z</time></trkpt><trkpt lat="39.100779971271685" lon="16.537166067819292"><ele>1268.6000000000001</ele><time>2026-04-12T07:42:37Z</time></trkpt><trkpt lat="39.100867883330245" lon="16.537160003947374"><ele>1268.2</ele><time>2026-04-12T07:42:38Z</time></trkpt><trkpt lat="39.10096720195664" lon="16.537185265474836"><ele>1267.8000000000002</ele><time>2026-04-12T07:42:39Z</time></trkpt><trkpt lat="39.10106922258492" lon="16.537186111602363"><ele>1267.4</ele><time>2026-04-12T07:42:40Z</time></trkpt><trkpt lat="39.1011706028382" lon="16.537217981384572"><ele>1267.0</ele><time>2026-04-12T07:42:41Z</time></trkpt><trkpt lat="39.10127878519704" lon="16.53726258795801"><ele>1267.0</ele><time>2026-04-12T07:42:42Z</time></trkpt><trkpt lat="39.10138012714776" lon="16.537314407487"><ele>1267.0</ele><time>2026-04-12T07:42:43Z</time></trkpt><trkpt lat="39.101476312679154" lon="16.537362398944577"><ele>1267.0</ele><time>2026-04-12T07:42:44Z</time></trkpt><trkpt lat="39.10155518898894" lon="16.537405695336325"><ele>1267.0</ele><time>2026-04-12T07:42:45Z</time></trkpt><trkpt lat="39.10162854812941" lon="16.537446477243833"><ele>1267.0</ele><time>2026-04-12T07:42:46Z</time></trkpt><trkpt lat="39.101698997186915" lon="16.537482742866636"><ele>1267.75</ele><time>2026-04-12T07:42:47Z</time></trkpt><trkpt lat="39.10179691708094" lon="16.537529534521145"><ele>1268.5</ele><time>2026-04-12T07:42:49Z</time></trkpt><trkpt lat="39.10189166353126" lon="16.537574792080225"><ele>1269.25</ele><time>2026-04-12T07:42:51Z</time></trkpt><trkpt lat="39.10199336706382" lon="16.537290557746296"><ele>1270.0</ele><time>2026-04-12T07:42:53Z</time></trkpt><trkpt lat="39.10204803384586" lon="16.537240201386464"><ele>1270.0</ele><time>2026-04-12T07:42:54Z</time></trkpt><trkpt lat="39.10216825440334" lon="16.537169752954853"><ele>1270.0</ele><time>2026-04-12T07:42:56Z</time></trkpt><trkpt lat="39.10224864734897" lon="16.537179068354007"><ele>1270.0</ele><time>2026-04-12T07:42:57Z</time></trkpt><trkpt lat="39.102304470518575" lon="16.537293288234753"><ele>1270.0</ele><time>2026-04-12T07:42:58Z</time></trkpt><trkpt lat="39.10241238283302" lon="16.537361540858715"><ele>1270.0</ele><time>2026-04-12T07:42:59Z</time></trkpt><trkpt lat="39.10250085636203" lon="16.537409733639816"><ele>1269.6</ele><time>2026-04-12T07:43:00Z</time></trkpt><trkpt lat="39.10260122409004" lon="16.53744454439564"><ele>1269.2</ele><time>2026-04-12T07:43:01Z</time></trkpt><trkpt lat="39.102714522305774" lon="16.53742995171754"><ele>1268.8</ele><time>2026-04-12T07:43:02Z</time></trkpt><trkpt lat="39.102816264314825" lon="16.53741678176482"><ele>1268.4</ele><time>2026-04-12T07:43:03Z</time></trkpt><trkpt lat="39.10290289566592" lon="16.537379247247863"><ele>1268.0</ele><time>2026-04-12T07:43:04Z</time></trkpt><trkpt lat="39.10300162881648" lon="16.537343541523036"><ele>1268.0</ele><time>2026-04-12T07:43:05Z</time></trkpt><trkpt lat="39.10309653262094" lon="16.537319033966263"><ele>1268.0</ele><time>2026-04-12T07:43:06Z</time></trkpt><trkpt lat="39.10321590732559" lon="16.537291439300937"><ele>1268.0</ele><time>2026-04-12T07:43:07Z</time></trkpt><trkpt lat="39.103319783890406" lon="16.537238482100484"><ele>1268.0</ele><time>2026-04-12T07:43:08Z</time></trkpt><trkpt lat="39.10341095834092" lon="16.53712638486548"><ele>1267.8</ele><time>2026-04-12T07:43:09Z</time></trkpt><trkpt lat="39.10349999890527" lon="16.537035397712394"><ele>1267.6</ele><time>2026-04-12T07:43:10Z</time></trkpt><trkpt lat="39.103597166535955" lon="16.536996193731852"><ele>1267.4</ele><time>2026-04-12T07:43:11Z</time></trkpt><trkpt lat="39.10368463824415" lon="16.536991331235097"><ele>1267.2</ele><time>2026-04-12T07:43:12Z</time></trkpt><trkpt lat="39.10377120202449" lon="16.537016192723783"><ele>1267.0</ele><time>2026-04-12T07:43:13Z</time></trkpt><trkpt lat="39.10384322618421" lon="16.537081936276405"><ele>1267.0</ele><time>2026-04-12T07:43:14Z</time></trkpt><trkpt lat="39.10391211243039" lon="16.537170409635078"><ele>1267.0</ele><time>2026-04-12T07:43:15Z</time></trkpt><trkpt lat="39.10398666015442" lon="16.537259793775952"><ele>1267.0</ele><time>2026-04-12T07:43:16Z</time></trkpt><trkpt lat="39.10405534178319" lon="16.53734431517131"><ele>1267.0</ele><time>2026-04-12T07:43:17Z</time></trkpt><trkpt lat="39.10412379469851" lon="16.537428554985368"><ele>1267.0</ele><time>2026-04-12T07:43:18Z</time></trkpt><trkpt lat="39.104212029510535" lon="16.537486983464195"><ele>1265.25</ele><time>2026-04-12T07:43:19Z</time></trkpt><trkpt lat="39.10434727658631" lon="16.53748952641592"><ele>1263.5</ele><time>2026-04-12T07:43:20Z</time></trkpt><trkpt lat="39.10447140531573" lon="16.5374378350147"><ele>1261.75</ele><time>2026-04-12T07:43:21Z</time></trkpt><trkpt lat="39.104589782244354" lon="16.537419456314414"><ele>1260.0</ele><time>2026-04-12T07:43:22Z</time></trkpt><trkpt lat="39.10468299177885" lon="16.53739617251636"><ele>1260.0</ele><time>2026-04-12T07:43:23Z</time></trkpt><trkpt lat="39.104819794135636" lon="16.537361997043817"><ele>1260.0</ele><time>2026-04-12T07:43:24Z</time></trkpt><trkpt lat="39.10493610303277" lon="16.53733294114995"><ele>1260.0</ele><time>2026-04-12T07:43:25Z</time></trkpt><trkpt lat="39.10505135774115" lon="16.53728380094034"><ele>1260.0</ele><time>2026-04-12T07:43:26Z</time></trkpt><trkpt lat="39.105170628815" lon="16.53726368280857"><ele>1258.5</ele><time>2026-04-12T07:43:27Z</time></trkpt><trkpt lat="39.105262512362835" lon="16.537225661941797"><ele>1257.0</ele><time>2026-04-12T07:43:28Z</time></trkpt><trkpt lat="39.105381098861265" lon="16.537167300286924"><ele>1255.5</ele><time>2026-04-12T07:43:29Z</time></trkpt><trkpt lat="39.10545519010062" lon="16.537051498106322"><ele>1254.0</ele><time>2026-04-12T07:43:30Z</time></trkpt><trkpt lat="39.10547470430127" lon="16.536897166900207"><ele>1251.5</ele><time>2026-04-12T07:43:31Z</time></trkpt><trkpt lat="39.10549956962074" lon="16.536763305910934"><ele>1249.0</ele><time>2026-04-12T07:43:32Z</time></trkpt><trkpt lat="39.1055441784058" lon="16.53659934775174"><ele>1246.5</ele><time>2026-04-12T07:43:33Z</time></trkpt><trkpt lat="39.10562794129082" lon="16.53648651873241"><ele>1244.0</ele><time>2026-04-12T07:43:34Z</time></trkpt><trkpt lat="39.10572552277164" lon="16.536380656649484"><ele>1245.25</ele><time>2026-04-12T07:43:35Z</time></trkpt><trkpt lat="39.105836904178354" lon="16.536266376738773"><ele>1246.5</ele><time>2026-04-12T07:43:36Z</time></trkpt><trkpt lat="39.10593892264529" lon="16.536177376518285"><ele>1247.75</ele><time>2026-04-12T07:43:37Z</time></trkpt><trkpt lat="39.10603646383128" lon="16.53610348975257"><ele>1249.0</ele><time>2026-04-12T07:43:38Z</time></trkpt><trkpt lat="39.10613687041113" lon="16.536039166498938"><ele>1248.0</ele><time>2026-04-12T07:43:39Z</time></trkpt><trkpt lat="39.10625485026806" lon="16.53599676280758"><ele>1247.0</ele><time>2026-04-12T07:43:40Z</time></trkpt><trkpt lat="39.1063676679842" lon="16.535969728206616"><ele>1246.0</ele><time>2026-04-12T07:43:41Z</time></trkpt><trkpt lat="39.10645963014882" lon="16.5359512671596"><ele>1245.0</ele><time>2026-04-12T07:43:42Z</time></trkpt><trkpt lat="39.10656116040087" lon="16.535899380984944"><ele>1244.0</ele><time>2026-04-12T07:43:43Z</time></trkpt><trkpt lat="39.1066330526803" lon="16.535840130192735"><ele>1244.0</ele><time>2026-04-12T07:43:44Z</time></trkpt><trkpt lat="39.10668881217835" lon="16.535712780387428"><ele>1244.0</ele><time>2026-04-12T07:43:45Z</time></trkpt><trkpt lat="39.10674653385038" lon="16.535589749513868"><ele>1244.0</ele><time>2026-04-12T07:43:46Z</time></trkpt><trkpt lat="39.10677273855664" lon="16.53545370314202"><ele>1244.0</ele><time>2026-04-12T07:43:47Z</time></trkpt><trkpt lat="39.10679471068223" lon="16.535317145073616"><ele>1244.0</ele><time>2026-04-12T07:43:48Z</time></trkpt><trkpt lat="39.10678282973514" lon="16.535163741309713"><ele>1239.6000000000001</ele><time>2026-04-12T07:43:49Z</time></trkpt><trkpt lat="39.1068264074222" lon="16.53505778078431"><ele>1235.2</ele><time>2026-04-12T07:43:50Z</time></trkpt><trkpt lat="39.10686699247582" lon="16.534964208760346"><ele>1230.8000000000002</ele><time>2026-04-12T07:43:51Z</time></trkpt><trkpt lat="39.10695641260367" lon="16.534899095833783"><ele>1226.4</ele><time>2026-04-12T07:43:52Z</time></trkpt><trkpt lat="39.10707099552378" lon="16.534817022216146"><ele>1222.0</ele><time>2026-04-12T07:43:53Z</time></trkpt><trkpt lat="39.107145214115214" lon="16.534835302496976"><ele>1222.0</ele><time>2026-04-12T07:43:54Z</time></trkpt><trkpt lat="39.10716770831613" lon="16.534952351995802"><ele>1222.0</ele><time>2026-04-12T07:43:55Z</time></trkpt><trkpt lat="39.107252349285034" lon="16.53506253589334"><ele>1222.0</ele><time>2026-04-12T07:43:56Z</time></trkpt><trkpt lat="39.107337164024734" lon="16.5351455032695"><ele>1222.0</ele><time>2026-04-12T07:43:57Z</time></trkpt><trkpt lat="39.10740994816027" lon="16.535216945650998"><ele>1222.0</ele><time>2026-04-12T07:43:58Z</time></trkpt><trkpt lat="39.10747314642303" lon="16.535278978689156"><ele>1222.6666666666665</ele><time>2026-04-12T07:43:59Z</time></trkpt><trkpt lat="39.10753736871113" lon="16.535339656936372"><ele>1223.3333333333333</ele><time>2026-04-12T07:44:00Z</time></trkpt><trkpt lat="39.10762572018965" lon="16.535391253374485"><ele>1224.0</ele><time>2026-04-12T07:44:01Z</time></trkpt><trkpt lat="39.10771370248823" lon="16.53540232287746"><ele>1224.6666666666667</ele><time>2026-04-12T07:44:02Z</time></trkpt><trkpt lat="39.10778259113768" lon="16.535338947361716"><ele>1225.3333333333335</ele><time>2026-04-12T07:44:03Z</time></trkpt><trkpt lat="39.10784467153339" lon="16.53524327656374"><ele>1226.0</ele><time>2026-04-12T07:44:04Z</time></trkpt><trkpt lat="39.10787493712104" lon="16.535152558041307"><ele>1226.0</ele><time>2026-04-12T07:44:05Z</time></trkpt><trkpt lat="39.1078412483134" lon="16.535052868209814"><ele>1226.0</ele><time>2026-04-12T07:44:06Z</time></trkpt><trkpt lat="39.10779160232735" lon="16.534954131214707"><ele>1226.0</ele><time>2026-04-12T07:44:07Z</time></trkpt><trkpt lat="39.10773333627401" lon="16.534838941378947"><ele>1226.0</ele><time>2026-04-12T07:44:08Z</time></trkpt><trkpt lat="39.10768010351951" lon="16.534696116719598"><ele>1226.0</ele><time>2026-04-12T07:44:09Z</time></trkpt><trkpt lat="39.1076346561658" lon="16.534539744452193"><ele>1223.0</ele><time>2026-04-12T07:44:10Z</time></trkpt><trkpt lat="39.10759957119736" lon="16.534394304020115"><ele>1220.0</ele><time>2026-04-12T07:44:11Z</time></trkpt><trkpt lat="39.10758179274226" lon="16.534223502739927"><ele>1217.0</ele><time>2026-04-12T07:44:12Z</time></trkpt><trkpt lat="39.10758292525045" lon="16.53407312188046"><ele>1214.0</ele><time>2026-04-12T07:44:13Z</time></trkpt><trkpt lat="39.10761113174686" lon="16.5339359249443"><ele>1214.0</ele><time>2026-04-12T07:44:14Z</time></trkpt><trkpt lat="39.10767514173735" lon="16.533803438384986"><ele>1214.0</ele><time>2026-04-12T07:44:15Z</time></trkpt><trkpt lat="39.10773780434438" lon="16.533686285248113"><ele>1214.0</ele><time>2026-04-12T07:44:16Z</time></trkpt><trkpt lat="39.10779916701986" lon="16.533556257390963"><ele>1214.0</ele><time>2026-04-12T07:44:17Z</time></trkpt><trkpt lat="39.107836347172494" lon="16.53339375994446"><ele>1213.0</ele><time>2026-04-12T07:44:19Z</time></trkpt><trkpt lat="39.10777276931725" lon="16.533280223069564"><ele>1212.0</ele><time>2026-04-12T07:44:20Z</time></trkpt><trkpt lat="39.10768988562943" lon="16.533202531931867"><ele>1211.0</ele><time>2026-04-12T07:44:21Z</time></trkpt><trkpt lat="39.10760555092914" lon="16.533138941292467"><ele>1210.0</ele><time>2026-04-12T07:44:22Z</time></trkpt><trkpt lat="39.10754395074199" lon="16.5331069272745"><ele>1209.0</ele><time>2026-04-12T07:44:23Z</time></trkpt><trkpt lat="39.10749150114477" lon="16.533043651893312"><ele>1208.0</ele><time>2026-04-12T07:44:24Z</time></trkpt><trkpt lat="39.10744786225689" lon="16.53293543365968"><ele>1208.0</ele><time>2026-04-12T07:44:25Z</time></trkpt><trkpt lat="39.10740602372944" lon="16.532849265314926"><ele>1208.0</ele><time>2026-04-12T07:44:26Z</time></trkpt><trkpt lat="39.10738253681702" lon="16.532758707976914"><ele>1208.0</ele><time>2026-04-12T07:44:27Z</time></trkpt><trkpt lat="39.107387153013875" lon="16.532648222256785"><ele>1208.0</ele><time>2026-04-12T07:44:28Z</time></trkpt><trkpt lat="39.10740798666129" lon="16.53253795461505"><ele>1208.0</ele><time>2026-04-12T07:44:29Z</time></trkpt><trkpt lat="39.10743357412983" lon="16.532421994985686"><ele>1208.0</ele><time>2026-04-12T07:44:30Z</time></trkpt><trkpt lat="39.10747132357401" lon="16.532299375915052"><ele>1208.0</ele><time>2026-04-12T07:44:31Z</time></trkpt><trkpt lat="39.10749766799841" lon="16.5321927069374"><ele>1208.0</ele><time>2026-04-12T07:44:32Z</time></trkpt><trkpt lat="39.107527506740944" lon="16.53208458740348"><ele>1208.0</ele><time>2026-04-12T07:44:33Z</time></trkpt><trkpt lat="39.10756696761295" lon="16.531998906026022"><ele>1208.0</ele><time>2026-04-12T07:44:34Z</time></trkpt><trkpt lat="39.107636778757715" lon="16.531925321900033"><ele>1208.0</ele><time>2026-04-12T07:44:35Z</time></trkpt><trkpt lat="39.10773027006681" lon="16.531891209825"><ele>1208.0</ele><time>2026-04-12T07:44:36Z</time></trkpt><trkpt lat="39.10781988899776" lon="16.531872067125416"><ele>1207.0</ele><time>2026-04-12T07:44:37Z</time></trkpt><trkpt lat="39.10790911390556" lon="16.53187112499275"><ele>1206.0</ele><time>2026-04-12T07:44:38Z</time></trkpt><trkpt lat="39.10800914326274" lon="16.531882505033497"><ele>1205.0</ele><time>2026-04-12T07:44:39Z</time></trkpt><trkpt lat="39.10811256472936" lon="16.531886083712518"><ele>1204.0</ele><time>2026-04-12T07:44:40Z</time></trkpt><trkpt lat="39.10820648906256" lon="16.531876091244783"><ele>1203.0</ele><time>2026-04-12T07:44:41Z</time></trkpt><trkpt lat="39.108299184425455" lon="16.531831104244272"><ele>1203.0</ele><time>2026-04-12T07:44:42Z</time></trkpt><trkpt lat="39.108392181127705" lon="16.531758933932675"><ele>1203.0</ele><time>2026-04-12T07:44:43Z</time></trkpt><trkpt lat="39.10846499538761" lon="16.531662650586924"><ele>1203.0</ele><time>2026-04-12T07:44:44Z</time></trkpt><trkpt lat="39.108562252063514" lon="16.531590877145188"><ele>1203.0</ele><time>2026-04-12T07:44:45Z</time></trkpt><trkpt lat="39.10865741811358" lon="16.531505723593504"><ele>1203.0</ele><time>2026-04-12T07:44:46Z</time></trkpt><trkpt lat="39.108752750566524" lon="16.531502011410176"><ele>1203.0</ele><time>2026-04-12T07:44:47Z</time></trkpt><trkpt lat="39.10882554846036" lon="16.531513183717347"><ele>1203.0</ele><time>2026-04-12T07:44:48Z</time></trkpt><trkpt lat="39.108910141227085" lon="16.531534695392256"><ele>1203.0</ele><time>2026-04-12T07:44:49Z</time></trkpt><trkpt lat="39.10902526850054" lon="16.531575817540457"><ele>1203.0</ele><time>2026-04-12T07:44:50Z</time></trkpt><trkpt lat="39.10914140067907" lon="16.53161653479456"><ele>1203.0</ele><time>2026-04-12T07:44:51Z</time></trkpt><trkpt lat="39.109236835410634" lon="16.531648199420786"><ele>1203.0</ele><time>2026-04-12T07:44:52Z</time></trkpt><trkpt lat="39.109324871430495" lon="16.53167448775542"><ele>1203.0</ele><time>2026-04-12T07:44:53Z</time></trkpt><trkpt lat="39.10944368041168" lon="16.531692764361452"><ele>1203.0</ele><time>2026-04-12T07:44:54Z</time></trkpt><trkpt lat="39.109512004967996" lon="16.531687715762505"><ele>1203.0</ele><time>2026-04-12T07:44:55Z</time></trkpt><trkpt lat="39.1095878476498" lon="16.531656839562658"><ele>1203.0</ele><time>2026-04-12T07:44:56Z</time></trkpt><trkpt lat="39.10964721373114" lon="16.53156384552358"><ele>1203.0</ele><time>2026-04-12T07:44:57Z</time></trkpt><trkpt lat="39.10969748064809" lon="16.53144485091289"><ele>1203.0</ele><time>2026-04-12T07:44:58Z</time></trkpt><trkpt lat="39.109727350270745" lon="16.531309694192622"><ele>1203.0</ele><time>2026-04-12T07:44:59Z</time></trkpt><trkpt lat="39.1097893127607" lon="16.53121961548658"><ele>1203.0</ele><time>2026-04-12T07:45:00Z</time></trkpt><trkpt lat="39.109898418409955" lon="16.531179424841252"><ele>1203.0</ele><time>2026-04-12T07:45:01Z</time></trkpt><trkpt lat="39.109988939139996" lon="16.531161449504996"><ele>1198.8</ele><time>2026-04-12T07:45:02Z</time></trkpt><trkpt lat="39.11006960849428" lon="16.531170137383526"><ele>1194.6</ele><time>2026-04-12T07:45:03Z</time></trkpt><trkpt lat="39.110186440548276" lon="16.53117461328976"><ele>1190.4</ele><time>2026-04-12T07:45:04Z</time></trkpt><trkpt lat="39.11028884184772" lon="16.531168620112574"><ele>1186.2</ele><time>2026-04-12T07:45:05Z</time></trkpt><trkpt lat="39.110396837186705" lon="16.53116990724296"><ele>1182.0</ele><time>2026-04-12T07:45:06Z</time></trkpt><trkpt lat="39.110507348968234" lon="16.5311885869105"><ele>1185.0</ele><time>2026-04-12T07:45:07Z</time></trkpt><trkpt lat="39.11060245530395" lon="16.531231943169637"><ele>1188.0</ele><time>2026-04-12T07:45:08Z</time></trkpt><trkpt lat="39.110695633947465" lon="16.531277249057833"><ele>1191.0</ele><time>2026-04-12T07:45:09Z</time></trkpt><trkpt lat="39.110785537659744" lon="16.53129993318386"><ele>1194.0</ele><time>2026-04-12T07:45:10Z</time></trkpt><trkpt lat="39.11086901693679" lon="16.53136355812473"><ele>1197.0</ele><time>2026-04-12T07:45:11Z</time></trkpt><trkpt lat="39.110971953026976" lon="16.531416251999"><ele>1197.0</ele><time>2026-04-12T07:45:12Z</time></trkpt><trkpt lat="39.11103909596284" lon="16.53143236599784"><ele>1197.0</ele><time>2026-04-12T07:45:13Z</time></trkpt><trkpt lat="39.11112531873461" lon="16.531389106492384"><ele>1197.0</ele><time>2026-04-12T07:45:14Z</time></trkpt><trkpt lat="39.11118384365136" lon="16.531333672678624"><ele>1197.0</ele><time>2026-04-12T07:45:15Z</time></trkpt><trkpt lat="39.111243026353755" lon="16.531259880141146"><ele>1197.0</ele><time>2026-04-12T07:45:16Z</time></trkpt><trkpt lat="39.111278094343305" lon="16.531171880039178"><ele>1197.0</ele><time>2026-04-12T07:45:17Z</time></trkpt><trkpt lat="39.11128062375039" lon="16.531078821957905"><ele>1194.0</ele><time>2026-04-12T07:45:18Z</time></trkpt><trkpt lat="39.11125311317387" lon="16.530960488105286"><ele>1191.0</ele><time>2026-04-12T07:45:19Z</time></trkpt><trkpt lat="39.11119653494193" lon="16.53085580867604"><ele>1188.0</ele><time>2026-04-12T07:45:20Z</time></trkpt><trkpt lat="39.11112706695214" lon="16.530759593744957"><ele>1185.0</ele><time>2026-04-12T07:45:21Z</time></trkpt><trkpt lat="39.11104989198851" lon="16.53065156923676"><ele>1182.0</ele><time>2026-04-12T07:45:22Z</time></trkpt><trkpt lat="39.11097895422141" lon="16.530543861121288"><ele>1182.0</ele><time>2026-04-12T07:45:23Z</time></trkpt><trkpt lat="39.11090689966975" lon="16.53043508699687"><ele>1182.0</ele><time>2026-04-12T07:45:24Z</time></trkpt><trkpt lat="39.11084025325274" lon="16.530318717926242"><ele>1182.0</ele><time>2026-04-12T07:45:25Z</time></trkpt><trkpt lat="39.1107738859623" lon="16.530207880800628"><ele>1182.0</ele><time>2026-04-12T07:45:26Z</time></trkpt><trkpt lat="39.11070401341385" lon="16.530104133920084"><ele>1182.0</ele><time>2026-04-12T07:45:27Z</time></trkpt><trkpt lat="39.11063518339283" lon="16.530000345191564"><ele>1181.4</ele><time>2026-04-12T07:45:28Z</time></trkpt><trkpt lat="39.11057368697841" lon="16.52989595290425"><ele>1180.8000000000002</ele><time>2026-04-12T07:45:29Z</time></trkpt><trkpt lat="39.11051819510053" lon="16.52978775424262"><ele>1180.2</ele><time>2026-04-12T07:45:30Z</time></trkpt><trkpt lat="39.1104784821181" lon="16.5296761128092"><ele>1179.6000000000001</ele><time>2026-04-12T07:45:31Z</time></trkpt><trkpt lat="39.1104630076764" lon="16.529563162214508"><ele>1179.0</ele><time>2026-04-12T07:45:32Z</time></trkpt><trkpt lat="39.11048115294591" lon="16.52943286931797"><ele>1179.0</ele><time>2026-04-12T07:45:33Z</time></trkpt><trkpt lat="39.110536313942376" lon="16.529308853809066"><ele>1179.0</ele><time>2026-04-12T07:45:34Z</time></trkpt><trkpt lat="39.11061022140366" lon="16.529205228604482"><ele>1179.0</ele><time>2026-04-12T07:45:35Z</time></trkpt><trkpt lat="39.1107006929434" lon="16.529091468495906"><ele>1179.0</ele><time>2026-04-12T07:45:36Z</time></trkpt><trkpt lat="39.110767292710015" lon="16.528988708690687"><ele>1179.75</ele><time>2026-04-12T07:45:37Z</time></trkpt><trkpt lat="39.1108672579946" lon="16.528862481786767"><ele>1180.5</ele><time>2026-04-12T07:45:38Z</time></trkpt><trkpt lat="39.11097120617203" lon="16.528725660625913"><ele>1181.25</ele><time>2026-04-12T07:45:39Z</time></trkpt><trkpt lat="39.1110719324479" lon="16.52858819583376"><ele>1182.0</ele><time>2026-04-12T07:45:40Z</time></trkpt><trkpt lat="39.111171496692" lon="16.528456264786325"><ele>1181.5</ele><time>2026-04-12T07:45:41Z</time></trkpt><trkpt lat="39.11126443340517" lon="16.52833805902941"><ele>1181.0</ele><time>2026-04-12T07:45:42Z</time></trkpt><trkpt lat="39.111373288970384" lon="16.52824896143021"><ele>1180.5</ele><time>2026-04-12T07:45:43Z</time></trkpt><trkpt lat="39.11149097230696" lon="16.528166160659037"><ele>1180.0</ele><time>2026-04-12T07:45:44Z</time></trkpt><trkpt lat="39.11161579063344" lon="16.528091741866543"><ele>1180.0</ele><time>2026-04-12T07:45:45Z</time></trkpt><trkpt lat="39.11174309769028" lon="16.528048910631238"><ele>1180.0</ele><time>2026-04-12T07:45:46Z</time></trkpt><trkpt lat="39.111865071988085" lon="16.52800980449865"><ele>1180.0</ele><time>2026-04-12T07:45:47Z</time></trkpt><trkpt lat="39.11197822628393" lon="16.527955017594923"><ele>1180.0</ele><time>2026-04-12T07:45:48Z</time></trkpt><trkpt lat="39.11207906717233" lon="16.527874837381933"><ele>1177.6</ele><time>2026-04-12T07:45:49Z</time></trkpt><trkpt lat="39.11217303447607" lon="16.527787702167657"><ele>1175.2</ele><time>2026-04-12T07:45:50Z</time></trkpt><trkpt lat="39.112265884768696" lon="16.52771183014587"><ele>1172.8</ele><time>2026-04-12T07:45:51Z</time></trkpt><trkpt lat="39.11235663174831" lon="16.52762774251243"><ele>1170.4</ele><time>2026-04-12T07:45:52Z</time></trkpt><trkpt lat="39.11244796142217" lon="16.527556576546292"><ele>1168.0</ele><time>2026-04-12T07:45:53Z</time></trkpt><trkpt lat="39.112557386403914" lon="16.527576237252937"><ele>1168.0</ele><time>2026-04-12T07:45:54Z</time></trkpt><trkpt lat="39.11264723459049" lon="16.52760424783516"><ele>1168.0</ele><time>2026-04-12T07:45:55Z</time></trkpt><trkpt lat="39.11275280211121" lon="16.527636024400746"><ele>1168.0</ele><time>2026-04-12T07:45:56Z</time></trkpt><trkpt lat="39.11286222461934" lon="16.5276591198067"><ele>1168.0</ele><time>2026-04-12T07:45:57Z</time></trkpt><trkpt lat="39.1129786048723" lon="16.527675663602427"><ele>1168.0</ele><time>2026-04-12T07:45:58Z</time></trkpt><trkpt lat="39.11309891241073" lon="16.5276764414395"><ele>1168.0</ele><time>2026-04-12T07:45:59Z</time></trkpt><trkpt lat="39.11322442595029" lon="16.527635632310705"><ele>1168.0</ele><time>2026-04-12T07:46:00Z</time></trkpt><trkpt lat="39.113355454834185" lon="16.527590648129177"><ele>1168.0</ele><time>2026-04-12T07:46:01Z</time></trkpt><trkpt lat="39.113474157882486" lon="16.52751698020753"><ele>1168.0</ele><time>2026-04-12T07:46:02Z</time></trkpt><trkpt lat="39.11357968862039" lon="16.527424282675753"><ele>1169.0</ele><time>2026-04-12T07:46:03Z</time></trkpt><trkpt lat="39.11368127577017" lon="16.527339951806105"><ele>1170.0</ele><time>2026-04-12T07:46:04Z</time></trkpt><trkpt lat="39.113784352887684" lon="16.527263612754055"><ele>1171.0</ele><time>2026-04-12T07:46:05Z</time></trkpt><trkpt lat="39.113886008264494" lon="16.52718642119254"><ele>1172.0</ele><time>2026-04-12T07:46:06Z</time></trkpt><trkpt lat="39.113977878861505" lon="16.527117954247082"><ele>1171.0</ele><time>2026-04-12T07:46:07Z</time></trkpt><trkpt lat="39.114058356028536" lon="16.527050155789325"><ele>1170.0</ele><time>2026-04-12T07:46:08Z</time></trkpt><trkpt lat="39.11409526060589" lon="16.526938297511585"><ele>1169.0</ele><time>2026-04-12T07:46:09Z</time></trkpt><trkpt lat="39.11410650011206" lon="16.526819106316076"><ele>1168.0</ele><time>2026-04-12T07:46:10Z</time></trkpt><trkpt lat="39.11406777207708" lon="16.526685131832437"><ele>1167.0</ele><time>2026-04-12T07:46:11Z</time></trkpt><trkpt lat="39.11403828163014" lon="16.52652931312709"><ele>1166.8</ele><time>2026-04-12T07:46:12Z</time></trkpt><trkpt lat="39.11401561967547" lon="16.526417077390605"><ele>1166.6</ele><time>2026-04-12T07:46:13Z</time></trkpt><trkpt lat="39.11398853726532" lon="16.526295652399906"><ele>1166.3999999999999</ele><time>2026-04-12T07:46:14Z</time></trkpt><trkpt lat="39.11395068061307" lon="16.526183966691367"><ele>1166.2</ele><time>2026-04-12T07:46:15Z</time></trkpt><trkpt lat="39.11387780813844" lon="16.526091903327824"><ele>1166.0</ele><time>2026-04-12T07:46:16Z</time></trkpt><trkpt lat="39.11378258525427" lon="16.526040960866943"><ele>1166.0</ele><time>2026-04-12T07:46:17Z</time></trkpt><trkpt lat="39.113650496150136" lon="16.52596381148744"><ele>1166.0</ele><time>2026-04-12T07:46:18Z</time></trkpt><trkpt lat="39.11354167241633" lon="16.52590041540987"><ele>1166.0</ele><time>2026-04-12T07:46:19Z</time></trkpt><trkpt lat="39.113431607784335" lon="16.525829924939067"><ele>1166.0</ele><time>2026-04-12T07:46:20Z</time></trkpt><trkpt lat="39.11331947286924" lon="16.52575710376457"><ele>1165.2</ele><time>2026-04-12T07:46:21Z</time></trkpt><trkpt lat="39.1132125650838" lon="16.52568748378718"><ele>1164.3999999999999</ele><time>2026-04-12T07:46:22Z</time></trkpt><trkpt lat="39.113115879494245" lon="16.52562640397697"><ele>1163.6</ele><time>2026-04-12T07:46:23Z</time></trkpt><trkpt lat="39.11302523971136" lon="16.52556827630168"><ele>1162.8</ele><time>2026-04-12T07:46:24Z</time></trkpt><trkpt lat="39.112940317595566" lon="16.525502080801914"><ele>1162.0</ele><time>2026-04-12T07:46:25Z</time></trkpt><trkpt lat="39.11286331148984" lon="16.525421554261463"><ele>1162.8333333333333</ele><time>2026-04-12T07:46:26Z</time></trkpt><trkpt lat="39.11279265568421" lon="16.52530943007605"><ele>1163.6666666666665</ele><time>2026-04-12T07:46:27Z</time></trkpt><trkpt lat="39.112758268002565" lon="16.52522297561065"><ele>1164.5</ele><time>2026-04-12T07:46:28Z</time></trkpt><trkpt lat="39.112739727500525" lon="16.52511677399797"><ele>1165.3333333333333</ele><time>2026-04-12T07:46:29Z</time></trkpt><trkpt lat="39.112754589664554" lon="16.52501366094165"><ele>1166.1666666666667</ele><time>2026-04-12T07:46:30Z</time></trkpt><trkpt lat="39.11278417434341" lon="16.5249006159366"><ele>1167.0</ele><time>2026-04-12T07:46:31Z</time></trkpt><trkpt lat="39.112818872431795" lon="16.52478022715046"><ele>1167.0</ele><time>2026-04-12T07:46:32Z</time></trkpt><trkpt lat="39.11285082966524" lon="16.52464238823794"><ele>1167.0</ele><time>2026-04-12T07:46:33Z</time></trkpt><trkpt lat="39.11287380205594" lon="16.524510846545454"><ele>1167.0</ele><time>2026-04-12T07:46:34Z</time></trkpt><trkpt lat="39.1128830610537" lon="16.524385806144657"><ele>1167.0</ele><time>2026-04-12T07:46:35Z</time></trkpt><trkpt lat="39.112871067156114" lon="16.524256602756804"><ele>1167.0</ele><time>2026-04-12T07:46:36Z</time></trkpt><trkpt lat="39.11282006966776" lon="16.524134309889654"><ele>1167.75</ele><time>2026-04-12T07:46:37Z</time></trkpt><trkpt lat="39.11273104001467" lon="16.524040674456646"><ele>1168.5</ele><time>2026-04-12T07:46:38Z</time></trkpt><trkpt lat="39.11262864140287" lon="16.52396920063957"><ele>1169.25</ele><time>2026-04-12T07:46:39Z</time></trkpt><trkpt lat="39.112526724092376" lon="16.523901629968268"><ele>1170.0</ele><time>2026-04-12T07:46:40Z</time></trkpt><trkpt lat="39.112449518228665" lon="16.52380965306563"><ele>1169.6</ele><time>2026-04-12T07:46:41Z</time></trkpt><trkpt lat="39.112376603096116" lon="16.52372760178396"><ele>1169.2</ele><time>2026-04-12T07:46:42Z</time></trkpt><trkpt lat="39.112316212055326" lon="16.523624735377286"><ele>1168.8</ele><time>2026-04-12T07:46:43Z</time></trkpt><trkpt lat="39.112299311189346" lon="16.523488244721662"><ele>1168.4</ele><time>2026-04-12T07:46:44Z</time></trkpt><trkpt lat="39.1123102029812" lon="16.523345604880166"><ele>1168.0</ele><time>2026-04-12T07:46:45Z</time></trkpt><trkpt lat="39.11232538558489" lon="16.523207382691613"><ele>1168.0</ele><time>2026-04-12T07:46:46Z</time></trkpt><trkpt lat="39.11232638798082" lon="16.523077144628818"><ele>1168.0</ele><time>2026-04-12T07:46:47Z</time></trkpt><trkpt lat="39.11229892360119" lon="16.522966760023017"><ele>1168.0</ele><time>2026-04-12T07:46:48Z</time></trkpt><trkpt lat="39.11222417587264" lon="16.522871895030626"><ele>1168.0</ele><time>2026-04-12T07:46:49Z</time></trkpt><trkpt lat="39.11212133102107" lon="16.522811226661208"><ele>1168.0</ele><time>2026-04-12T07:46:50Z</time></trkpt><trkpt lat="39.11200097657169" lon="16.522778131682983"><ele>1168.25</ele><time>2026-04-12T07:46:51Z</time></trkpt><trkpt lat="39.11187644438059" lon="16.52275302539673"><ele>1168.5</ele><time>2026-04-12T07:46:52Z</time></trkpt><trkpt lat="39.111751377961504" lon="16.522717762793455"><ele>1168.75</ele><time>2026-04-12T07:46:53Z</time></trkpt><trkpt lat="39.111631341928195" lon="16.522674064082175"><ele>1169.0</ele><time>2026-04-12T07:46:54Z</time></trkpt><trkpt lat="39.111503819601886" lon="16.522614632286796"><ele>1169.0</ele><time>2026-04-12T07:46:55Z</time></trkpt><trkpt lat="39.11138188066872" lon="16.522542001609754"><ele>1169.0</ele><time>2026-04-12T07:46:56Z</time></trkpt><trkpt lat="39.1112669566846" lon="16.52245433008119"><ele>1169.0</ele><time>2026-04-12T07:46:57Z</time></trkpt><trkpt lat="39.111151980436695" lon="16.522357567861274"><ele>1169.0</ele><time>2026-04-12T07:46:58Z</time></trkpt><trkpt lat="39.11104511394226" lon="16.52226029112902"><ele>1169.0</ele><time>2026-04-12T07:46:59Z</time></trkpt><trkpt lat="39.110935170825094" lon="16.52218237287839"><ele>1169.0</ele><time>2026-04-12T07:47:00Z</time></trkpt><trkpt lat="39.11082221375347" lon="16.52213668065215"><ele>1169.0</ele><time>2026-04-12T07:47:01Z</time></trkpt><trkpt lat="39.110702965249196" lon="16.522128243781545"><ele>1169.0</ele><time>2026-04-12T07:47:02Z</time></trkpt><trkpt lat="39.11058533699195" lon="16.522146452037962"><ele>1168.0</ele><time>2026-04-12T07:47:03Z</time></trkpt><trkpt lat="39.11046839878039" lon="16.52214772433858"><ele>1167.0</ele><time>2026-04-12T07:47:04Z</time></trkpt><trkpt lat="39.11037920384322" lon="16.522083381295346"><ele>1166.0</ele><time>2026-04-12T07:47:05Z</time></trkpt><trkpt lat="39.110320219016046" lon="16.52198152901395"><ele>1165.0</ele><time>2026-04-12T07:47:06Z</time></trkpt><trkpt lat="39.11027679436287" lon="16.521850751797935"><ele>1164.0</ele><time>2026-04-12T07:47:07Z</time></trkpt><trkpt lat="39.110261660031156" lon="16.521712223042243"><ele>1164.0</ele><time>2026-04-12T07:47:08Z</time></trkpt><trkpt lat="39.11028387912558" lon="16.521573408613296"><ele>1164.0</ele><time>2026-04-12T07:47:09Z</time></trkpt><trkpt lat="39.11035098530259" lon="16.521454766825553"><ele>1164.0</ele><time>2026-04-12T07:47:10Z</time></trkpt><trkpt lat="39.110377574800765" lon="16.521315287757215"><ele>1164.0</ele><time>2026-04-12T07:47:11Z</time></trkpt><trkpt lat="39.11042738208625" lon="16.521190710481115"><ele>1164.0</ele><time>2026-04-12T07:47:12Z</time></trkpt><trkpt lat="39.11046108885947" lon="16.521069229246194"><ele>1165.0</ele><time>2026-04-12T07:47:13Z</time></trkpt><trkpt lat="39.11047031318865" lon="16.52093664181287"><ele>1166.0</ele><time>2026-04-12T07:47:14Z</time></trkpt><trkpt lat="39.11044682571925" lon="16.52079057526961"><ele>1167.0</ele><time>2026-04-12T07:47:15Z</time></trkpt><trkpt lat="39.11038800985189" lon="16.520659675113816"><ele>1168.0</ele><time>2026-04-12T07:47:16Z</time></trkpt><trkpt lat="39.11032254403852" lon="16.520512973850106"><ele>1168.8</ele><time>2026-04-12T07:47:17Z</time></trkpt><trkpt lat="39.110258516536426" lon="16.52036825504154"><ele>1169.6</ele><time>2026-04-12T07:47:18Z</time></trkpt><trkpt lat="39.11021143772063" lon="16.5202324996869"><ele>1170.4</ele><time>2026-04-12T07:47:19Z</time></trkpt><trkpt lat="39.11017306821752" lon="16.520106047763914"><ele>1171.2</ele><time>2026-04-12T07:47:20Z</time></trkpt><trkpt lat="39.11015468528111" lon="16.51998488774985"><ele>1172.0</ele><time>2026-04-12T07:47:21Z</time></trkpt><trkpt lat="39.11015042416169" lon="16.519879051958952"><ele>1172.0</ele><time>2026-04-12T07:47:22Z</time></trkpt><trkpt lat="39.1101522727355" lon="16.51978911643943"><ele>1172.0</ele><time>2026-04-12T07:47:23Z</time></trkpt><trkpt lat="39.11015400173377" lon="16.519616337549387"><ele>1172.0</ele><time>2026-04-12T07:47:25Z</time></trkpt><trkpt lat="39.110137407717716" lon="16.519521535343692"><ele>1172.0</ele><time>2026-04-12T07:47:26Z</time></trkpt><trkpt lat="39.11010934249055" lon="16.519437295050757"><ele>1172.0</ele><time>2026-04-12T07:47:27Z</time></trkpt><trkpt lat="39.11006129798524" lon="16.51937159343903"><ele>1172.0</ele><time>2026-04-12T07:47:28Z</time></trkpt><trkpt lat="39.109982685810344" lon="16.519328929450108"><ele>1174.1666666666667</ele><time>2026-04-12T07:47:29Z</time></trkpt><trkpt lat="39.109893225722246" lon="16.519311636592942"><ele>1176.3333333333335</ele><time>2026-04-12T07:47:30Z</time></trkpt><trkpt lat="39.10979299222636" lon="16.519314083322886"><ele>1178.5</ele><time>2026-04-12T07:47:31Z</time></trkpt><trkpt lat="39.109698332286676" lon="16.519310494891386"><ele>1180.6666666666667</ele><time>2026-04-12T07:47:32Z</time></trkpt><trkpt lat="39.10963087498035" lon="16.519276957320216"><ele>1182.8333333333333</ele><time>2026-04-12T07:47:33Z</time></trkpt><trkpt lat="39.109584822973616" lon="16.51919157399635"><ele>1185.0</ele><time>2026-04-12T07:47:34Z</time></trkpt><trkpt lat="39.10954028384033" lon="16.51908824535916"><ele>1185.0</ele><time>2026-04-12T07:47:35Z</time></trkpt><trkpt lat="39.10951063420027" lon="16.519004007374416"><ele>1185.0</ele><time>2026-04-12T07:47:36Z</time></trkpt><trkpt lat="39.10948449499997" lon="16.51888791023722"><ele>1185.0</ele><time>2026-04-12T07:47:37Z</time></trkpt><trkpt lat="39.109452388159916" lon="16.518750929599634"><ele>1185.0</ele><time>2026-04-12T07:47:38Z</time></trkpt><trkpt lat="39.109415324584376" lon="16.518596912043648"><ele>1185.0</ele><time>2026-04-12T07:47:39Z</time></trkpt><trkpt lat="39.10937231022204" lon="16.51843284936009"><ele>1185.6666666666667</ele><time>2026-04-12T07:47:40Z</time></trkpt><trkpt lat="39.109323833895346" lon="16.518246075690133"><ele>1186.3333333333335</ele><time>2026-04-12T07:47:41Z</time></trkpt><trkpt lat="39.10927403971395" lon="16.518034153495343"><ele>1187.0</ele><time>2026-04-12T07:47:42Z</time></trkpt><trkpt lat="39.10924748020761" lon="16.51781542571879"><ele>1187.0</ele><time>2026-04-12T07:47:43Z</time></trkpt><trkpt lat="39.1091753262369" lon="16.517641841021238"><ele>1187.0</ele><time>2026-04-12T07:47:44Z</time></trkpt><trkpt lat="39.109103287578925" lon="16.51749312502145"><ele>1187.0</ele><time>2026-04-12T07:47:45Z</time></trkpt><trkpt lat="39.10901342091426" lon="16.51736949598033"><ele>1187.0</ele><time>2026-04-12T07:47:46Z</time></trkpt><trkpt lat="39.108933089542695" lon="16.517238889703464"><ele>1187.0</ele><time>2026-04-12T07:47:47Z</time></trkpt><trkpt lat="39.10886131155965" lon="16.517084677549807"><ele>1187.0</ele><time>2026-04-12T07:47:48Z</time></trkpt><trkpt lat="39.10882116183037" lon="16.51694551688478"><ele>1187.0</ele><time>2026-04-12T07:47:49Z</time></trkpt><trkpt lat="39.10880461888454" lon="16.51680014492301"><ele>1187.0</ele><time>2026-04-12T07:47:50Z</time></trkpt><trkpt lat="39.108765710199066" lon="16.516682565056968"><ele>1185.8</ele><time>2026-04-12T07:47:51Z</time></trkpt><trkpt lat="39.10870774182427" lon="16.51657511172472"><ele>1184.6</ele><time>2026-04-12T07:47:52Z</time></trkpt><trkpt lat="39.10861832215882" lon="16.51647876317268"><ele>1183.3999999999999</ele><time>2026-04-12T07:47:53Z</time></trkpt><trkpt lat="39.1085452939697" lon="16.516429942046912"><ele>1182.2</ele><time>2026-04-12T07:47:54Z</time></trkpt><trkpt lat="39.108474265498934" lon="16.516307606166915"><ele>1181.0</ele><time>2026-04-12T07:47:55Z</time></trkpt><trkpt lat="39.10845155962668" lon="16.516193117440057"><ele>1179.8</ele><time>2026-04-12T07:47:56Z</time></trkpt><trkpt lat="39.10846571298803" lon="16.516055660726828"><ele>1178.6</ele><time>2026-04-12T07:47:57Z</time></trkpt><trkpt lat="39.1084901028029" lon="16.51593397355313"><ele>1177.4</ele><time>2026-04-12T07:47:58Z</time></trkpt><trkpt lat="39.10852018170134" lon="16.515823220526677"><ele>1176.2</ele><time>2026-04-12T07:47:59Z</time></trkpt><trkpt lat="39.108550895714394" lon="16.515713044372145"><ele>1175.0</ele><time>2026-04-12T07:48:00Z</time></trkpt><trkpt lat="39.108573935654974" lon="16.515512936324036"><ele>1172.5</ele><time>2026-04-12T07:48:02Z</time></trkpt><trkpt lat="39.10855571787461" lon="16.51534424942608"><ele>1170.0</ele><time>2026-04-12T07:48:03Z</time></trkpt><trkpt lat="39.10853229436959" lon="16.515231181860226"><ele>1167.5</ele><time>2026-04-12T07:48:04Z</time></trkpt><trkpt lat="39.10848328363421" lon="16.51508381168113"><ele>1165.0</ele><time>2026-04-12T07:48:06Z</time></trkpt><trkpt lat="39.10841774797174" lon="16.514981254762667"><ele>1165.0</ele><time>2026-04-12T07:48:07Z</time></trkpt><trkpt lat="39.10831349384152" lon="16.514866766154803"><ele>1165.0</ele><time>2026-04-12T07:48:08Z</time></trkpt><trkpt lat="39.108215078069335" lon="16.514763436421127"><ele>1165.0</ele><time>2026-04-12T07:48:09Z</time></trkpt><trkpt lat="39.10811535356557" lon="16.514692708524777"><ele>1165.0</ele><time>2026-04-12T07:48:10Z</time></trkpt><trkpt lat="39.10801016744994" lon="16.514635132596315"><ele>1164.0</ele><time>2026-04-12T07:48:11Z</time></trkpt><trkpt lat="39.1078972926726" lon="16.514594514880315"><ele>1163.0</ele><time>2026-04-12T07:48:12Z</time></trkpt><trkpt lat="39.10777017912925" lon="16.51459846275199"><ele>1162.0</ele><time>2026-04-12T07:48:13Z</time></trkpt><trkpt lat="39.107645765302046" lon="16.51458314796088"><ele>1161.0</ele><time>2026-04-12T07:48:14Z</time></trkpt><trkpt lat="39.107525801964826" lon="16.51456986660506"><ele>1154.75</ele><time>2026-04-12T07:48:15Z</time></trkpt><trkpt lat="39.10740434782999" lon="16.514537457988975"><ele>1148.5</ele><time>2026-04-12T07:48:16Z</time></trkpt><trkpt lat="39.10728307681903" lon="16.514520056163757"><ele>1142.25</ele><time>2026-04-12T07:48:17Z</time></trkpt><trkpt lat="39.10715684446724" lon="16.514532964827563"><ele>1136.0</ele><time>2026-04-12T07:48:18Z</time></trkpt><trkpt lat="39.10700887983874" lon="16.514524512220884"><ele>1136.0</ele><time>2026-04-12T07:48:19Z</time></trkpt><trkpt lat="39.10691161588648" lon="16.51456821761987"><ele>1136.0</ele><time>2026-04-12T07:48:20Z</time></trkpt><trkpt lat="39.10680870827514" lon="16.51461725359245"><ele>1136.0</ele><time>2026-04-12T07:48:21Z</time></trkpt><trkpt lat="39.10670240586634" lon="16.514655263106757"><ele>1136.0</ele><time>2026-04-12T07:48:22Z</time></trkpt><trkpt lat="39.106602458843234" lon="16.5146980366091"><ele>1136.0</ele><time>2026-04-12T07:48:23Z</time></trkpt><trkpt lat="39.106501155193975" lon="16.514726183581377"><ele>1135.8</ele><time>2026-04-12T07:48:24Z</time></trkpt><trkpt lat="39.10640780011165" lon="16.51476123969447"><ele>1135.6</ele><time>2026-04-12T07:48:25Z</time></trkpt><trkpt lat="39.106314913686795" lon="16.514793952027695"><ele>1135.4</ele><time>2026-04-12T07:48:26Z</time></trkpt><trkpt lat="39.10622220218831" lon="16.514824007334518"><ele>1135.2</ele><time>2026-04-12T07:48:27Z</time></trkpt><trkpt lat="39.106131672228" lon="16.514858817961237"><ele>1135.0</ele><time>2026-04-12T07:48:28Z</time></trkpt><trkpt lat="39.10604493719324" lon="16.514895288206425"><ele>1135.0</ele><time>2026-04-12T07:48:29Z</time></trkpt><trkpt lat="39.10597170525861" lon="16.51492087811348"><ele>1135.0</ele><time>2026-04-12T07:48:30Z</time></trkpt><trkpt lat="39.10590916512111" lon="16.514932941063872"><ele>1135.0</ele><time>2026-04-12T07:48:31Z</time></trkpt><trkpt lat="39.10583587504658" lon="16.514935061133333"><ele>1135.0</ele><time>2026-04-12T07:48:32Z</time></trkpt><trkpt lat="39.10577815121989" lon="16.514901004215297"><ele>1135.0</ele><time>2026-04-12T07:48:33Z</time></trkpt><trkpt lat="39.10571685518359" lon="16.51478109459988"><ele>1135.0</ele><time>2026-04-12T07:48:35Z</time></trkpt><trkpt lat="39.105718615435066" lon="16.51464445343831"><ele>1133.6</ele><time>2026-04-12T07:48:37Z</time></trkpt><trkpt lat="39.10579013950439" lon="16.51452905292831"><ele>1132.2</ele><time>2026-04-12T07:48:39Z</time></trkpt><trkpt lat="39.10584893717197" lon="16.514492647167312"><ele>1130.8</ele><time>2026-04-12T07:48:40Z</time></trkpt><trkpt lat="39.105948753036316" lon="16.514425212655457"><ele>1129.4</ele><time>2026-04-12T07:48:42Z</time></trkpt><trkpt lat="39.106010412990386" lon="16.51437870615276"><ele>1128.0</ele><time>2026-04-12T07:48:44Z</time></trkpt><trkpt lat="39.106090486970686" lon="16.51432017324359"><ele>1128.0</ele><time>2026-04-12T07:48:50Z</time></trkpt><trkpt lat="39.106149939944935" lon="16.514275022569645"><ele>1128.0</ele><time>2026-04-12T07:48:52Z</time></trkpt><trkpt lat="39.10630975058371" lon="16.51415535481998"><ele>1128.0</ele><time>2026-04-12T07:48:56Z</time></trkpt><trkpt lat="39.10636652853374" lon="16.514118250397974"><ele>1128.0</ele><time>2026-04-12T07:49:00Z</time></trkpt><trkpt lat="39.10642182846785" lon="16.514062792256205"><ele>1128.0</ele><time>2026-04-12T07:49:28Z</time></trkpt><trkpt lat="39.10648287736863" lon="16.51400846795052"><ele>1128.0</ele><time>2026-04-12T07:49:34Z</time></trkpt><trkpt lat="39.10653399123609" lon="16.513937712879876"><ele>1128.0</ele><time>2026-04-12T07:49:37Z</time></trkpt><trkpt lat="39.10659178601304" lon="16.513895639838374"><ele>1128.0</ele><time>2026-04-12T07:49:39Z</time></trkpt><trkpt lat="39.10664499231652" lon="16.513839703357135"><ele>1128.0</ele><time>2026-04-12T07:49:42Z</time></trkpt><trkpt lat="39.10666460302519" lon="16.513700992293753"><ele>1128.0</ele><time>2026-04-12T07:49:44Z</time></trkpt><trkpt lat="39.10670023384078" lon="16.51359997881554"><ele>1128.0</ele><time>2026-04-12T07:49:46Z</time></trkpt><trkpt lat="39.10676303812203" lon="16.51351592021057"><ele>1127.2</ele><time>2026-04-12T07:49:48Z</time></trkpt><trkpt lat="39.1068331625346" lon="16.513425924856698"><ele>1126.4</ele><time>2026-04-12T07:49:50Z</time></trkpt><trkpt lat="39.1069080591655" lon="16.513323565665644"><ele>1125.6000000000001</ele><time>2026-04-12T07:49:52Z</time></trkpt><trkpt lat="39.10699204938124" lon="16.513220372705195"><ele>1124.8</ele><time>2026-04-12T07:49:54Z</time></trkpt><trkpt lat="39.10703612881755" lon="16.513149346304353"><ele>1124.0</ele><time>2026-04-12T07:49:55Z</time></trkpt><trkpt lat="39.10714725987208" lon="16.513078735348206"><ele>1124.0</ele><time>2026-04-12T07:49:57Z</time></trkpt><trkpt lat="39.107262013562455" lon="16.513030891493695"><ele>1124.0</ele><time>2026-04-12T07:49:59Z</time></trkpt><trkpt lat="39.10733393176018" lon="16.51299478989978"><ele>1124.0</ele><time>2026-04-12T07:50:01Z</time></trkpt><trkpt lat="39.10740996120841" lon="16.512978929913018"><ele>1124.0</ele><time>2026-04-12T07:50:04Z</time></trkpt><trkpt lat="39.10747974018594" lon="16.512990981154783"><ele>1124.0</ele><time>2026-04-12T07:50:07Z</time></trkpt><trkpt lat="39.10754201925388" lon="16.513039148597347"><ele>1124.0</ele><time>2026-04-12T07:50:11Z</time></trkpt><trkpt lat="39.10759311072298" lon="16.513091462390637"><ele>1123.857142857143</ele><time>2026-04-12T07:50:43Z</time></trkpt><trkpt lat="39.10754350164153" lon="16.51303003475519"><ele>1123.7142857142858</ele><time>2026-04-12T07:52:36Z</time></trkpt><trkpt lat="39.1075093936437" lon="16.512955517420995"><ele>1123.5714285714284</ele><time>2026-04-12T07:52:52Z</time></trkpt><trkpt lat="39.107542520577425" lon="16.513033524930297"><ele>1123.4285714285716</ele><time>2026-04-12T07:53:26Z</time></trkpt><trkpt lat="39.1075019422501" lon="16.51296839664783"><ele>1123.2857142857142</ele><time>2026-04-12T07:54:02Z</time></trkpt><trkpt lat="39.107546894464036" lon="16.513026498039252"><ele>1123.142857142857</ele><time>2026-04-12T07:55:39Z</time></trkpt><trkpt lat="39.10762048562974" lon="16.513060085269036"><ele>1123.0</ele><time>2026-04-12T07:56:59Z</time></trkpt><trkpt lat="39.10756233036401" lon="16.513024688159085"><ele>1122.9999999999998</ele><time>2026-04-12T07:58:02Z</time></trkpt><trkpt lat="39.107510906601455" lon="16.512966967891895"><ele>1123.0</ele><time>2026-04-12T07:58:11Z</time></trkpt><trkpt lat="39.10755607536914" lon="16.513046181111623"><ele>1123.0</ele><time>2026-04-12T08:00:06Z</time></trkpt><trkpt lat="39.107605221587484" lon="16.513105038777407"><ele>1123.0</ele><time>2026-04-12T08:00:11Z</time></trkpt><trkpt lat="39.10754897544328" lon="16.5130432014371"><ele>1123.0</ele><time>2026-04-12T08:05:50Z</time></trkpt><trkpt lat="39.10749769482469" lon="16.51298983296998"><ele>1122.9999999999998</ele><time>2026-04-12T08:05:58.001Z</time></trkpt><trkpt lat="39.107560470301" lon="16.513021514702757"><ele>1123.0</ele><time>2026-04-12T08:24:11Z</time></trkpt><trkpt lat="39.107475655642844" lon="16.51298958067887"><ele>1123.2</ele><time>2026-04-12T08:28:07Z</time></trkpt><trkpt lat="39.107398613531934" lon="16.512972799435456"><ele>1123.4</ele><time>2026-04-12T08:28:08Z</time></trkpt><trkpt lat="39.107323054177286" lon="16.512952583276935"><ele>1123.6000000000001</ele><time>2026-04-12T08:28:09Z</time></trkpt><trkpt lat="39.10723789284896" lon="16.513005808096104"><ele>1123.8</ele><time>2026-04-12T08:28:10Z</time></trkpt><trkpt lat="39.107131981348914" lon="16.513062412546873"><ele>1124.0</ele><time>2026-04-12T08:28:11Z</time></trkpt><trkpt lat="39.10702204474058" lon="16.5131461902949"><ele>1124.0</ele><time>2026-04-12T08:28:12Z</time></trkpt><trkpt lat="39.106953336271054" lon="16.51322260533507"><ele>1124.0</ele><time>2026-04-12T08:28:13Z</time></trkpt><trkpt lat="39.1068756087513" lon="16.51329176505858"><ele>1124.0</ele><time>2026-04-12T08:28:14Z</time></trkpt><trkpt lat="39.10680312354639" lon="16.51337909487802"><ele>1124.0</ele><time>2026-04-12T08:28:15Z</time></trkpt><trkpt lat="39.10673195918106" lon="16.513472130444526"><ele>1124.0</ele><time>2026-04-12T08:28:16Z</time></trkpt><trkpt lat="39.106671809857744" lon="16.513556626700254"><ele>1124.0</ele><time>2026-04-12T08:28:17Z</time></trkpt><trkpt lat="39.1066241575339" lon="16.5136290447683"><ele>1124.0</ele><time>2026-04-12T08:28:18Z</time></trkpt><trkpt lat="39.10661388671365" lon="16.51375435359081"><ele>1124.0</ele><time>2026-04-12T08:28:20Z</time></trkpt><trkpt lat="39.1065862093965" lon="16.513848535649007"><ele>1124.0</ele><time>2026-04-12T08:28:27Z</time></trkpt><trkpt lat="39.10665462474755" lon="16.513815630691727"><ele>1124.0</ele><time>2026-04-12T08:28:35Z</time></trkpt><trkpt lat="39.10670376096986" lon="16.513747809344384"><ele>1124.0</ele><time>2026-04-12T08:28:36Z</time></trkpt><trkpt lat="39.10677108282543" lon="16.51369462882168"><ele>1124.0000000000002</ele><time>2026-04-12T08:28:37Z</time></trkpt><trkpt lat="39.10682522920864" lon="16.513632800622457"><ele>1124.0</ele><time>2026-04-12T08:28:38Z</time></trkpt><trkpt lat="39.10687915009498" lon="16.51357256183964"><ele>1124.0</ele><time>2026-04-12T08:28:39Z</time></trkpt><trkpt lat="39.106926809707105" lon="16.51351260483462"><ele>1124.0</ele><time>2026-04-12T08:28:40Z</time></trkpt><trkpt lat="39.106988155018314" lon="16.51346783521366"><ele>1124.0</ele><time>2026-04-12T08:28:43Z</time></trkpt><trkpt lat="39.107057029806576" lon="16.513454292686593"><ele>1124.0000000000002</ele><time>2026-04-12T08:28:57Z</time></trkpt><trkpt lat="39.10714287694957" lon="16.513438897705473"><ele>1124.0</ele><time>2026-04-12T08:28:59Z</time></trkpt><trkpt lat="39.1072499562076" lon="16.51344527138553"><ele>1124.0</ele><time>2026-04-12T08:29:01Z</time></trkpt><trkpt lat="39.10734844769416" lon="16.51343938590189"><ele>1124.0</ele><time>2026-04-12T08:29:03Z</time></trkpt><trkpt lat="39.10744718000892" lon="16.513473617062314"><ele>1124.0</ele><time>2026-04-12T08:29:05Z</time></trkpt><trkpt lat="39.10748839267872" lon="16.51359188740995"><ele>1124.0</ele><time>2026-04-12T08:29:07Z</time></trkpt><trkpt lat="39.10752196257053" lon="16.513672636284202"><ele>1124.0</ele><time>2026-04-12T08:29:09Z</time></trkpt><trkpt lat="39.10760568245264" lon="16.51378170498297"><ele>1127.4</ele><time>2026-04-12T08:29:11Z</time></trkpt><trkpt lat="39.107644228378525" lon="16.513856962972355"><ele>1130.8000000000002</ele><time>2026-04-12T08:29:12Z</time></trkpt><trkpt lat="39.10770736511186" lon="16.513957848715474"><ele>1134.1999999999998</ele><time>2026-04-12T08:29:14Z</time></trkpt><trkpt lat="39.107778165578736" lon="16.513989273199893"><ele>1137.6</ele><time>2026-04-12T08:29:15Z</time></trkpt><trkpt lat="39.10790727504214" lon="16.513985485450814"><ele>1141.0</ele><time>2026-04-12T08:29:17Z</time></trkpt><trkpt lat="39.10798937475234" lon="16.513916453635062"><ele>1141.0</ele><time>2026-04-12T08:29:18Z</time></trkpt><trkpt lat="39.10805055842789" lon="16.513871738092263"><ele>1141.0</ele><time>2026-04-12T08:29:19Z</time></trkpt><trkpt lat="39.10814616480378" lon="16.513801298561166"><ele>1141.0</ele><time>2026-04-12T08:29:21Z</time></trkpt><trkpt lat="39.10824051287183" lon="16.513793634248366"><ele>1141.0</ele><time>2026-04-12T08:29:23Z</time></trkpt><trkpt lat="39.10835234296891" lon="16.51393718342848"><ele>1141.0</ele><time>2026-04-12T08:29:24Z</time></trkpt><trkpt lat="39.10839901872298" lon="16.514003994671196"><ele>1140.5</ele><time>2026-04-12T08:29:25Z</time></trkpt><trkpt lat="39.108457102203374" lon="16.514066725967627"><ele>1140.0</ele><time>2026-04-12T08:29:26Z</time></trkpt><trkpt lat="39.1085341264625" lon="16.514148506327334"><ele>1139.5</ele><time>2026-04-12T08:29:27Z</time></trkpt><trkpt lat="39.10860674752609" lon="16.514226280236976"><ele>1139.0</ele><time>2026-04-12T08:29:28Z</time></trkpt><trkpt lat="39.10865449813377" lon="16.51428417359239"><ele>1138.5</ele><time>2026-04-12T08:29:29Z</time></trkpt><trkpt lat="39.108711365611995" lon="16.51436048551447"><ele>1138.0</ele><time>2026-04-12T08:29:30Z</time></trkpt><trkpt lat="39.108764317786324" lon="16.514407021385015"><ele>1138.0</ele><time>2026-04-12T08:29:31Z</time></trkpt><trkpt lat="39.10882148053397" lon="16.51444392256269"><ele>1138.0</ele><time>2026-04-12T08:29:32Z</time></trkpt><trkpt lat="39.108935826204544" lon="16.514421467094373"><ele>1138.0</ele><time>2026-04-12T08:29:33Z</time></trkpt><trkpt lat="39.10900953686888" lon="16.514445055934107"><ele>1138.0</ele><time>2026-04-12T08:29:34Z</time></trkpt><trkpt lat="39.1090778552286" lon="16.514489387729068"><ele>1138.0</ele><time>2026-04-12T08:29:36Z</time></trkpt><trkpt lat="39.10915718111361" lon="16.514579812998956"><ele>1138.0</ele><time>2026-04-12T08:29:38Z</time></trkpt><trkpt lat="39.10923681364802" lon="16.514651010296177"><ele>1139.4</ele><time>2026-04-12T08:29:40Z</time></trkpt><trkpt lat="39.109362853235716" lon="16.514740842688724"><ele>1140.8</ele><time>2026-04-12T08:29:44Z</time></trkpt><trkpt lat="39.109442368907196" lon="16.514779968795786"><ele>1142.2</ele><time>2026-04-12T08:29:45Z</time></trkpt><trkpt lat="39.10950803770364" lon="16.51474622951844"><ele>1143.6</ele><time>2026-04-12T08:29:46Z</time></trkpt><trkpt lat="39.10960455208799" lon="16.51465220144087"><ele>1145.0</ele><time>2026-04-12T08:29:47Z</time></trkpt><trkpt lat="39.10968882151634" lon="16.51457173246845"><ele>1144.0</ele><time>2026-04-12T08:29:48Z</time></trkpt><trkpt lat="39.10975239940675" lon="16.514521001792904"><ele>1143.0</ele><time>2026-04-12T08:29:49Z</time></trkpt><trkpt lat="39.109865060103274" lon="16.51453008543655"><ele>1142.0</ele><time>2026-04-12T08:29:51Z</time></trkpt><trkpt lat="39.10997818309245" lon="16.51458752979186"><ele>1141.0</ele><time>2026-04-12T08:29:53Z</time></trkpt><trkpt lat="39.11007707676116" lon="16.51464882196161"><ele>1140.0</ele><time>2026-04-12T08:29:55Z</time></trkpt><trkpt lat="39.11016282871106" lon="16.514713185570177"><ele>1140.0</ele><time>2026-04-12T08:29:57Z</time></trkpt><trkpt lat="39.11024552755826" lon="16.51474158859954"><ele>1140.0</ele><time>2026-04-12T08:29:59Z</time></trkpt><trkpt lat="39.11035511323598" lon="16.514727408504395"><ele>1140.0</ele><time>2026-04-12T08:30:01Z</time></trkpt><trkpt lat="39.11044499238439" lon="16.514697060247226"><ele>1140.0</ele><time>2026-04-12T08:30:03Z</time></trkpt><trkpt lat="39.110494771340626" lon="16.514646691163737"><ele>1140.0</ele><time>2026-04-12T08:30:04Z</time></trkpt><trkpt lat="39.11055948733732" lon="16.51454100536245"><ele>1137.4</ele><time>2026-04-12T08:30:05Z</time></trkpt><trkpt lat="39.110621851709325" lon="16.514485410115636"><ele>1134.8</ele><time>2026-04-12T08:30:06Z</time></trkpt><trkpt lat="39.11074390135316" lon="16.514396883373564"><ele>1132.2</ele><time>2026-04-12T08:30:08Z</time></trkpt><trkpt lat="39.110808373799735" lon="16.514376191858148"><ele>1129.6</ele><time>2026-04-12T08:30:09Z</time></trkpt><trkpt lat="39.110871431970274" lon="16.51435547908871"><ele>1127.0</ele><time>2026-04-12T08:30:10Z</time></trkpt><trkpt lat="39.110984348106896" lon="16.5143571350317"><ele>1127.0</ele><time>2026-04-12T08:30:12Z</time></trkpt><trkpt lat="39.11104761893172" lon="16.514373395025647"><ele>1127.0</ele><time>2026-04-12T08:30:13Z</time></trkpt><trkpt lat="39.11113424308342" lon="16.514454787287242"><ele>1127.0</ele><time>2026-04-12T08:30:15Z</time></trkpt><trkpt lat="39.11118328569112" lon="16.51452802218788"><ele>1127.0</ele><time>2026-04-12T08:30:16Z</time></trkpt><trkpt lat="39.111251313829996" lon="16.51459084556279"><ele>1127.0</ele><time>2026-04-12T08:30:17Z</time></trkpt><trkpt lat="39.11133433932773" lon="16.51464760935497"><ele>1127.0</ele><time>2026-04-12T08:30:18Z</time></trkpt><trkpt lat="39.11142184068602" lon="16.514693823692838"><ele>1130.6666666666667</ele><time>2026-04-12T08:30:19Z</time></trkpt><trkpt lat="39.11149877639091" lon="16.514701382488276"><ele>1134.3333333333335</ele><time>2026-04-12T08:30:20Z</time></trkpt><trkpt lat="39.11158515401204" lon="16.51468283817428"><ele>1138.0</ele><time>2026-04-12T08:30:21Z</time></trkpt><trkpt lat="39.1116554466318" lon="16.514697685450294"><ele>1141.6666666666667</ele><time>2026-04-12T08:30:22Z</time></trkpt><trkpt lat="39.11172223542018" lon="16.514683052174846"><ele>1145.3333333333333</ele><time>2026-04-12T08:30:23Z</time></trkpt><trkpt lat="39.11185836607393" lon="16.514709228528954"><ele>1149.0</ele><time>2026-04-12T08:30:25Z</time></trkpt><trkpt lat="39.11192654672459" lon="16.51471041850656"><ele>1149.0</ele><time>2026-04-12T08:30:26Z</time></trkpt><trkpt lat="39.11199626639317" lon="16.514759791131038"><ele>1149.0</ele><time>2026-04-12T08:30:27Z</time></trkpt><trkpt lat="39.11206647365944" lon="16.51481402774935"><ele>1149.0</ele><time>2026-04-12T08:30:28Z</time></trkpt><trkpt lat="39.112141669211226" lon="16.51486291433873"><ele>1149.0</ele><time>2026-04-12T08:30:29Z</time></trkpt><trkpt lat="39.112225615205126" lon="16.51493707345854"><ele>1149.0</ele><time>2026-04-12T08:30:30Z</time></trkpt><trkpt lat="39.112326281326176" lon="16.515007748742516"><ele>1147.1666666666667</ele><time>2026-04-12T08:30:31Z</time></trkpt><trkpt lat="39.11242876724443" lon="16.515073317679008"><ele>1145.3333333333333</ele><time>2026-04-12T08:30:32Z</time></trkpt><trkpt lat="39.112504287443286" lon="16.515119576958945"><ele>1143.5</ele><time>2026-04-12T08:30:33Z</time></trkpt><trkpt lat="39.112575151651804" lon="16.51513694019691"><ele>1141.6666666666665</ele><time>2026-04-12T08:30:34Z</time></trkpt><trkpt lat="39.112637208312876" lon="16.51517894544494"><ele>1139.8333333333333</ele><time>2026-04-12T08:30:35Z</time></trkpt><trkpt lat="39.112731926460235" lon="16.515231097904216"><ele>1138.0</ele><time>2026-04-12T08:30:37Z</time></trkpt><trkpt lat="39.112799381290664" lon="16.515266415888007"><ele>1138.0</ele><time>2026-04-12T08:30:41Z</time></trkpt><trkpt lat="39.11287204548774" lon="16.51525974579236"><ele>1138.0</ele><time>2026-04-12T08:30:45Z</time></trkpt><trkpt lat="39.112939129090506" lon="16.51515994106391"><ele>1138.0</ele><time>2026-04-12T08:30:47Z</time></trkpt><trkpt lat="39.11295295731234" lon="16.515034650101878"><ele>1138.0</ele><time>2026-04-12T08:30:48Z</time></trkpt><trkpt lat="39.11289906236867" lon="16.51494779023079"><ele>1138.0</ele><time>2026-04-12T08:30:51Z</time></trkpt><trkpt lat="39.11283203212794" lon="16.514876697579332"><ele>1138.0</ele><time>2026-04-12T08:30:52Z</time></trkpt><trkpt lat="39.112711348397234" lon="16.5148225085645"><ele>1138.0</ele><time>2026-04-12T08:30:53Z</time></trkpt><trkpt lat="39.11258348990541" lon="16.514720394262397"><ele>1138.0</ele><time>2026-04-12T08:30:54Z</time></trkpt><trkpt lat="39.11245731957578" lon="16.51456355224953"><ele>1138.0</ele><time>2026-04-12T08:30:55Z</time></trkpt><trkpt lat="39.11236068994092" lon="16.51445144342681"><ele>1136.8</ele><time>2026-04-12T08:30:56Z</time></trkpt><trkpt lat="39.112275724866016" lon="16.514360253831093"><ele>1135.6</ele><time>2026-04-12T08:30:57Z</time></trkpt><trkpt lat="39.112178669926614" lon="16.514282050331445"><ele>1134.4</ele><time>2026-04-12T08:30:58Z</time></trkpt><trkpt lat="39.112094727739894" lon="16.514210760609945"><ele>1133.2</ele><time>2026-04-12T08:30:59Z</time></trkpt><trkpt lat="39.11201623305688" lon="16.514172383716957"><ele>1132.0</ele><time>2026-04-12T08:31:00Z</time></trkpt><trkpt lat="39.11191190156813" lon="16.51415299658263"><ele>1132.0</ele><time>2026-04-12T08:31:01Z</time></trkpt><trkpt lat="39.11178804367197" lon="16.514152655189463"><ele>1132.0</ele><time>2026-04-12T08:31:02Z</time></trkpt><trkpt lat="39.11168606975745" lon="16.514154734781798"><ele>1132.0</ele><time>2026-04-12T08:31:03Z</time></trkpt><trkpt lat="39.11160338935308" lon="16.51412601166613"><ele>1132.0</ele><time>2026-04-12T08:31:04Z</time></trkpt><trkpt lat="39.111546872789155" lon="16.514067771290723"><ele>1132.0</ele><time>2026-04-12T08:31:05Z</time></trkpt><trkpt lat="39.111488270663365" lon="16.513933984165252"><ele>1131.0</ele><time>2026-04-12T08:31:07Z</time></trkpt><trkpt lat="39.11144397950529" lon="16.513745086950163"><ele>1130.0</ele><time>2026-04-12T08:31:09Z</time></trkpt><trkpt lat="39.111398634937" lon="16.513651280992907"><ele>1129.0</ele><time>2026-04-12T08:31:10Z</time></trkpt><trkpt lat="39.111361900211406" lon="16.513516934611935"><ele>1128.0</ele><time>2026-04-12T08:31:12Z</time></trkpt><trkpt lat="39.111308687675745" lon="16.513420931993807"><ele>1127.0</ele><time>2026-04-12T08:31:14Z</time></trkpt><trkpt lat="39.11132211613237" lon="16.5133104690406"><ele>1127.75</ele><time>2026-04-12T08:31:16Z</time></trkpt><trkpt lat="39.11135396885882" lon="16.513201772611175"><ele>1128.5</ele><time>2026-04-12T08:31:19Z</time></trkpt><trkpt lat="39.11153131747743" lon="16.513152468074615"><ele>1129.25</ele><time>2026-04-12T08:31:20Z</time></trkpt><trkpt lat="39.11166338414635" lon="16.513087753563934"><ele>1130.0</ele><time>2026-04-12T08:31:21Z</time></trkpt><trkpt lat="39.11175583227248" lon="16.51298127644613"><ele>1127.0</ele><time>2026-04-12T08:31:22Z</time></trkpt><trkpt lat="39.111854825634836" lon="16.51288781916241"><ele>1124.0</ele><time>2026-04-12T08:31:23Z</time></trkpt><trkpt lat="39.11196328973892" lon="16.512766715713024"><ele>1121.0</ele><time>2026-04-12T08:31:24Z</time></trkpt><trkpt lat="39.11204652440318" lon="16.512654563272395"><ele>1118.0</ele><time>2026-04-12T08:31:25Z</time></trkpt><trkpt lat="39.11212651304979" lon="16.51256078108376"><ele>1118.0</ele><time>2026-04-12T08:31:26Z</time></trkpt><trkpt lat="39.11219905139093" lon="16.512472497818692"><ele>1118.0</ele><time>2026-04-12T08:31:27Z</time></trkpt><trkpt lat="39.112278477243606" lon="16.512372567294424"><ele>1118.0</ele><time>2026-04-12T08:31:28Z</time></trkpt><trkpt lat="39.11234700981225" lon="16.51222810654944"><ele>1118.0</ele><time>2026-04-12T08:31:29Z</time></trkpt><trkpt lat="39.11240784999546" lon="16.512066532382903"><ele>1120.8</ele><time>2026-04-12T08:31:30Z</time></trkpt><trkpt lat="39.11246214938822" lon="16.511920497370316"><ele>1123.6</ele><time>2026-04-12T08:31:31Z</time></trkpt><trkpt lat="39.11250676469543" lon="16.511800141931417"><ele>1126.4</ele><time>2026-04-12T08:31:32Z</time></trkpt><trkpt lat="39.11254383117075" lon="16.51171623053493"><ele>1129.2</ele><time>2026-04-12T08:31:33Z</time></trkpt><trkpt lat="39.112606496961064" lon="16.511623188948064"><ele>1132.0</ele><time>2026-04-12T08:31:34Z</time></trkpt><trkpt lat="39.11267386896643" lon="16.51156478019468"><ele>1132.0</ele><time>2026-04-12T08:31:35Z</time></trkpt><trkpt lat="39.112730066250606" lon="16.511521520941745"><ele>1132.0</ele><time>2026-04-12T08:31:36Z</time></trkpt><trkpt lat="39.112815622989714" lon="16.511449425858714"><ele>1132.0</ele><time>2026-04-12T08:31:38Z</time></trkpt><trkpt lat="39.11288927913943" lon="16.511421154097036"><ele>1132.0</ele><time>2026-04-12T08:31:39Z</time></trkpt><trkpt lat="39.112962537564265" lon="16.51138738414165"><ele>1132.0</ele><time>2026-04-12T08:31:40Z</time></trkpt><trkpt lat="39.11305850407929" lon="16.511344221496277"><ele>1132.0</ele><time>2026-04-12T08:31:41Z</time></trkpt><trkpt lat="39.113120981818916" lon="16.51130691926265"><ele>1128.8</ele><time>2026-04-12T08:31:43Z</time></trkpt><trkpt lat="39.11311886650015" lon="16.511082739306445"><ele>1125.6</ele><time>2026-04-12T08:31:45Z</time></trkpt><trkpt lat="39.113109431583666" lon="16.510986580116434"><ele>1122.3999999999999</ele><time>2026-04-12T08:31:46Z</time></trkpt><trkpt lat="39.11310108825016" lon="16.510901546617642"><ele>1119.2</ele><time>2026-04-12T08:31:50Z</time></trkpt><trkpt lat="39.11316540036234" lon="16.510865298653233"><ele>1116.0</ele><time>2026-04-12T08:31:54Z</time></trkpt><trkpt lat="39.113237566779645" lon="16.51067922070438"><ele>1118.8</ele><time>2026-04-12T08:31:56Z</time></trkpt><trkpt lat="39.11328211462521" lon="16.51057947541384"><ele>1121.6</ele><time>2026-04-12T08:31:57Z</time></trkpt><trkpt lat="39.113344743564156" lon="16.510498238807358"><ele>1124.4</ele><time>2026-04-12T08:31:58Z</time></trkpt><trkpt lat="39.11336826157619" lon="16.51039939886638"><ele>1127.2</ele><time>2026-04-12T08:31:59Z</time></trkpt><trkpt lat="39.1134217176191" lon="16.51021627051497"><ele>1130.0</ele><time>2026-04-12T08:32:01Z</time></trkpt><trkpt lat="39.11344281535673" lon="16.510125323657746"><ele>1130.0</ele><time>2026-04-12T08:32:02Z</time></trkpt><trkpt lat="39.113493535300904" lon="16.510020087114953"><ele>1130.0</ele><time>2026-04-12T08:32:04Z</time></trkpt><trkpt lat="39.11356352154895" lon="16.50990697396271"><ele>1130.0</ele><time>2026-04-12T08:32:06Z</time></trkpt><trkpt lat="39.11357323681935" lon="16.509784855288217"><ele>1130.0</ele><time>2026-04-12T08:32:08Z</time></trkpt><trkpt lat="39.11357922167982" lon="16.509702666204387"><ele>1130.0</ele><time>2026-04-12T08:32:09Z</time></trkpt><trkpt lat="39.113597074062156" lon="16.509570223723443"><ele>1128.1666666666667</ele><time>2026-04-12T08:32:11Z</time></trkpt><trkpt lat="39.113624353437245" lon="16.5094553000242"><ele>1126.3333333333335</ele><time>2026-04-12T08:32:13Z</time></trkpt><trkpt lat="39.11365637512569" lon="16.50934493776691"><ele>1124.5</ele><time>2026-04-12T08:32:15Z</time></trkpt><trkpt lat="39.11366976737996" lon="16.509249124214183"><ele>1122.6666666666667</ele><time>2026-04-12T08:32:16Z</time></trkpt><trkpt lat="39.11369235245677" lon="16.509160658534473"><ele>1120.8333333333333</ele><time>2026-04-12T08:32:17Z</time></trkpt><trkpt lat="39.113724300569515" lon="16.509087661022836"><ele>1119.0</ele><time>2026-04-12T08:32:18Z</time></trkpt><trkpt lat="39.113754267749705" lon="16.50900055450899"><ele>1119.0</ele><time>2026-04-12T08:32:19Z</time></trkpt><trkpt lat="39.1137763338084" lon="16.50887622024541"><ele>1119.0</ele><time>2026-04-12T08:32:20Z</time></trkpt><trkpt lat="39.113816637155615" lon="16.50878517521384"><ele>1119.0</ele><time>2026-04-12T08:32:21Z</time></trkpt><trkpt lat="39.11391099089155" lon="16.508661543125058"><ele>1119.0</ele><time>2026-04-12T08:32:23Z</time></trkpt><trkpt lat="39.11399911431447" lon="16.50855341037141"><ele>1119.0</ele><time>2026-04-12T08:32:24Z</time></trkpt><trkpt lat="39.11412300494726" lon="16.50847354166361"><ele>1121.6000000000001</ele><time>2026-04-12T08:32:25Z</time></trkpt><trkpt lat="39.11421674697255" lon="16.508409472723677"><ele>1124.2</ele><time>2026-04-12T08:32:26Z</time></trkpt><trkpt lat="39.11429538811292" lon="16.5083774503187"><ele>1126.8000000000002</ele><time>2026-04-12T08:32:27Z</time></trkpt><trkpt lat="39.11439700871902" lon="16.50834564284103"><ele>1129.4</ele><time>2026-04-12T08:32:28Z</time></trkpt><trkpt lat="39.114525955569604" lon="16.508322796070562"><ele>1132.0</ele><time>2026-04-12T08:32:29Z</time></trkpt><trkpt lat="39.11465830674666" lon="16.508277563123894"><ele>1132.0</ele><time>2026-04-12T08:32:30Z</time></trkpt><trkpt lat="39.114784133026674" lon="16.50820219723617"><ele>1132.0</ele><time>2026-04-12T08:32:31Z</time></trkpt><trkpt lat="39.11490825131733" lon="16.508109245292097"><ele>1132.0</ele><time>2026-04-12T08:32:32Z</time></trkpt><trkpt lat="39.11503860817359" lon="16.507997797060796"><ele>1132.0</ele><time>2026-04-12T08:32:33Z</time></trkpt><trkpt lat="39.11515891770568" lon="16.507897831052524"><ele>1131.8</ele><time>2026-04-12T08:32:34Z</time></trkpt><trkpt lat="39.11524896901929" lon="16.507824104854837"><ele>1131.6</ele><time>2026-04-12T08:32:35Z</time></trkpt><trkpt lat="39.115314365679076" lon="16.507786375447818"><ele>1131.3999999999999</ele><time>2026-04-12T08:32:36Z</time></trkpt><trkpt lat="39.11538821796124" lon="16.507740316865384"><ele>1131.2</ele><time>2026-04-12T08:32:38Z</time></trkpt><trkpt lat="39.11550457012202" lon="16.507730884567223"><ele>1131.0</ele><time>2026-04-12T08:32:41Z</time></trkpt><trkpt lat="39.11559267332916" lon="16.507659297475627"><ele>1131.0</ele><time>2026-04-12T08:32:44Z</time></trkpt><trkpt lat="39.11566524621404" lon="16.507539690310512"><ele>1131.0</ele><time>2026-04-12T08:32:47Z</time></trkpt><trkpt lat="39.11565775312804" lon="16.507399868264553"><ele>1131.0</ele><time>2026-04-12T08:32:49Z</time></trkpt><trkpt lat="39.11564577208893" lon="16.507317657464323"><ele>1131.0</ele><time>2026-04-12T08:32:50Z</time></trkpt><trkpt lat="39.11564476385149" lon="16.507234531615193"><ele>1131.0</ele><time>2026-04-12T08:32:52Z</time></trkpt><trkpt lat="39.1156787199658" lon="16.507137513200185"><ele>1131.0</ele><time>2026-04-12T08:32:54Z</time></trkpt><trkpt lat="39.11570181721821" lon="16.5070377716299"><ele>1132.5</ele><time>2026-04-12T08:32:55Z</time></trkpt><trkpt lat="39.11575030847874" lon="16.506933011127693"><ele>1134.0</ele><time>2026-04-12T08:32:56Z</time></trkpt><trkpt lat="39.11578597718427" lon="16.506855114439745"><ele>1135.5</ele><time>2026-04-12T08:32:57Z</time></trkpt><trkpt lat="39.11581099738552" lon="16.506774933432535"><ele>1137.0</ele><time>2026-04-12T08:32:59Z</time></trkpt><trkpt lat="39.115844235921955" lon="16.506704031861567"><ele>1138.5</ele><time>2026-04-12T08:33:01Z</time></trkpt><trkpt lat="39.11592495989555" lon="16.506606710600984"><ele>1140.0</ele><time>2026-04-12T08:33:03Z</time></trkpt><trkpt lat="39.11598522231553" lon="16.506565544251394"><ele>1140.0</ele><time>2026-04-12T08:33:05Z</time></trkpt><trkpt lat="39.116067619113366" lon="16.506477467504496"><ele>1140.0</ele><time>2026-04-12T08:33:08Z</time></trkpt><trkpt lat="39.11614261534221" lon="16.50642898981665"><ele>1140.0</ele><time>2026-04-12T08:33:09Z</time></trkpt><trkpt lat="39.11623598998145" lon="16.5063540342206"><ele>1140.0</ele><time>2026-04-12T08:33:10Z</time></trkpt><trkpt lat="39.116299181209584" lon="16.506242935210683"><ele>1140.0</ele><time>2026-04-12T08:33:11Z</time></trkpt><trkpt lat="39.11638730618317" lon="16.506142306432118"><ele>1140.8333333333333</ele><time>2026-04-12T08:33:12Z</time></trkpt><trkpt lat="39.11645767016805" lon="16.506089900125357"><ele>1141.6666666666667</ele><time>2026-04-12T08:33:13Z</time></trkpt><trkpt lat="39.11654536529235" lon="16.50604388582313"><ele>1142.5</ele><time>2026-04-12T08:33:15Z</time></trkpt><trkpt lat="39.11660362118059" lon="16.50599220804437"><ele>1143.3333333333335</ele><time>2026-04-12T08:33:18Z</time></trkpt><trkpt lat="39.116650534421545" lon="16.505872658353336"><ele>1144.1666666666667</ele><time>2026-04-12T08:33:21Z</time></trkpt><trkpt lat="39.11661956103991" lon="16.505787613096825"><ele>1145.0</ele><time>2026-04-12T08:33:26Z</time></trkpt><trkpt lat="39.116580888062536" lon="16.505716677132284"><ele>1146.0</ele><time>2026-04-12T08:33:31Z</time></trkpt><trkpt lat="39.11651738060792" lon="16.50569051884676"><ele>1147.0</ele><time>2026-04-12T08:33:58Z</time></trkpt><trkpt lat="39.116346652646854" lon="16.505739908392187"><ele>1148.0</ele><time>2026-04-12T08:34:23Z</time></trkpt><trkpt lat="39.116211104644826" lon="16.50580977438363"><ele>1149.0</ele><time>2026-04-12T08:34:24Z</time></trkpt><trkpt lat="39.11608037005822" lon="16.505873537630848"><ele>1149.0</ele><time>2026-04-12T08:34:25Z</time></trkpt><trkpt lat="39.115952431681414" lon="16.50592820384475"><ele>1149.0</ele><time>2026-04-12T08:34:26Z</time></trkpt><trkpt lat="39.1158513655889" lon="16.50597181331828"><ele>1149.0</ele><time>2026-04-12T08:34:27Z</time></trkpt><trkpt lat="39.11576584442856" lon="16.50601424199538"><ele>1149.0</ele><time>2026-04-12T08:34:28Z</time></trkpt><trkpt lat="39.11566888667254" lon="16.506069829352708"><ele>1149.0</ele><time>2026-04-12T08:34:30Z</time></trkpt><trkpt lat="39.115602485562555" lon="16.506125886847624"><ele>1148.2</ele><time>2026-04-12T08:34:32Z</time></trkpt><trkpt lat="39.11555485740843" lon="16.506182782711164"><ele>1147.4</ele><time>2026-04-12T08:34:34Z</time></trkpt><trkpt lat="39.115516417986306" lon="16.506257326168274"><ele>1146.6</ele><time>2026-04-12T08:34:35Z</time></trkpt><trkpt lat="39.11544696386847" lon="16.506333656722678"><ele>1145.8</ele><time>2026-04-12T08:34:36Z</time></trkpt><trkpt lat="39.115382820058905" lon="16.506451098717942"><ele>1145.0</ele><time>2026-04-12T08:34:37Z</time></trkpt><trkpt lat="39.11528745215643" lon="16.50659310655757"><ele>1145.0</ele><time>2026-04-12T08:34:38Z</time></trkpt><trkpt lat="39.115209627447236" lon="16.506750076803268"><ele>1145.0</ele><time>2026-04-12T08:34:39Z</time></trkpt><trkpt lat="39.11514326260859" lon="16.506880463446592"><ele>1145.0</ele><time>2026-04-12T08:34:40Z</time></trkpt><trkpt lat="39.115084134263" lon="16.507012263740787"><ele>1145.0</ele><time>2026-04-12T08:34:41Z</time></trkpt><trkpt lat="39.115026560327955" lon="16.507129891776252"><ele>1142.6666666666667</ele><time>2026-04-12T08:34:42Z</time></trkpt><trkpt lat="39.11496172270028" lon="16.507194807707265"><ele>1140.3333333333335</ele><time>2026-04-12T08:34:43Z</time></trkpt><trkpt lat="39.11491742289748" lon="16.50725512392364"><ele>1138.0</ele><time>2026-04-12T08:34:44Z</time></trkpt><trkpt lat="39.11482090609886" lon="16.507295956452815"><ele>1135.6666666666667</ele><time>2026-04-12T08:34:46Z</time></trkpt><trkpt lat="39.1147538306622" lon="16.50730873643141"><ele>1133.3333333333333</ele><time>2026-04-12T08:34:48Z</time></trkpt><trkpt lat="39.11467572238859" lon="16.507272626303777"><ele>1131.0</ele><time>2026-04-12T08:34:54Z</time></trkpt><trkpt lat="39.11459000674249" lon="16.50723370772286"><ele>1131.0</ele><time>2026-04-12T08:34:56Z</time></trkpt><trkpt lat="39.11450932044516" lon="16.507142818200656"><ele>1131.0</ele><time>2026-04-12T08:34:58Z</time></trkpt><trkpt lat="39.114410545112335" lon="16.507089486904857"><ele>1131.0</ele><time>2026-04-12T08:34:59Z</time></trkpt><trkpt lat="39.114293881285185" lon="16.50703057664974"><ele>1131.0</ele><time>2026-04-12T08:35:00Z</time></trkpt><trkpt lat="39.114224571972755" lon="16.5069953237061"><ele>1131.0</ele><time>2026-04-12T08:35:01Z</time></trkpt><trkpt lat="39.114185018162004" lon="16.50685311022299"><ele>1131.0</ele><time>2026-04-12T08:35:04Z</time></trkpt><trkpt lat="39.11419377427702" lon="16.506768651542437"><ele>1131.0</ele><time>2026-04-12T08:35:05Z</time></trkpt><trkpt lat="39.1142136001843" lon="16.50666223934316"><ele>1131.0</ele><time>2026-04-12T08:35:06Z</time></trkpt><trkpt lat="39.11427351445083" lon="16.506559740212463"><ele>1131.0</ele><time>2026-04-12T08:35:07Z</time></trkpt><trkpt lat="39.114334591990385" lon="16.506452789439034"><ele>1131.0</ele><time>2026-04-12T08:35:08Z</time></trkpt><trkpt lat="39.11438433981721" lon="16.50633347241586"><ele>1131.25</ele><time>2026-04-12T08:35:10Z</time></trkpt><trkpt lat="39.11435634206822" lon="16.506145262263836"><ele>1131.5</ele><time>2026-04-12T08:35:12Z</time></trkpt><trkpt lat="39.114332331911825" lon="16.506004944971288"><ele>1131.75</ele><time>2026-04-12T08:35:13Z</time></trkpt><trkpt lat="39.11431235490833" lon="16.505866401205147"><ele>1132.0</ele><time>2026-04-12T08:35:14Z</time></trkpt><trkpt lat="39.11430208894508" lon="16.50570285059495"><ele>1132.0</ele><time>2026-04-12T08:35:15Z</time></trkpt><trkpt lat="39.11429967336421" lon="16.5055394791182"><ele>1132.0</ele><time>2026-04-12T08:35:16Z</time></trkpt><trkpt lat="39.11430619727287" lon="16.50541893282002"><ele>1132.0</ele><time>2026-04-12T08:35:17Z</time></trkpt><trkpt lat="39.114328486857325" lon="16.505300606645818"><ele>1132.0</ele><time>2026-04-12T08:35:18Z</time></trkpt><trkpt lat="39.11435297534947" lon="16.505141929608772"><ele>1132.0</ele><time>2026-04-12T08:35:19Z</time></trkpt><trkpt lat="39.11439206164222" lon="16.50487754084968"><ele>1131.5</ele><time>2026-04-12T08:35:20Z</time></trkpt><trkpt lat="39.114401278367815" lon="16.504657685417822"><ele>1131.0</ele><time>2026-04-12T08:35:21Z</time></trkpt><trkpt lat="39.1144580860943" lon="16.504499863776225"><ele>1130.5</ele><time>2026-04-12T08:35:22Z</time></trkpt><trkpt lat="39.11447882558526" lon="16.50434392891952"><ele>1130.0</ele><time>2026-04-12T08:35:23Z</time></trkpt><trkpt lat="39.114487068018136" lon="16.504158517941256"><ele>1129.5</ele><time>2026-04-12T08:35:24Z</time></trkpt><trkpt lat="39.11448803418746" lon="16.503966904082514"><ele>1129.0</ele><time>2026-04-12T08:35:25Z</time></trkpt><trkpt lat="39.114486538204204" lon="16.50376769983327"><ele>1128.5</ele><time>2026-04-12T08:35:26Z</time></trkpt><trkpt lat="39.114473448383706" lon="16.503579947474787"><ele>1128.0</ele><time>2026-04-12T08:35:27Z</time></trkpt><trkpt lat="39.114468410457576" lon="16.50341686647644"><ele>1128.0</ele><time>2026-04-12T08:35:28Z</time></trkpt><trkpt lat="39.11446007584124" lon="16.503270049601714"><ele>1128.0</ele><time>2026-04-12T08:35:29Z</time></trkpt><trkpt lat="39.11445672692524" lon="16.503153047804716"><ele>1128.0</ele><time>2026-04-12T08:35:30Z</time></trkpt><trkpt lat="39.11445696778352" lon="16.503055650091962"><ele>1128.0</ele><time>2026-04-12T08:35:31Z</time></trkpt><trkpt lat="39.114474877351356" lon="16.502959785936593"><ele>1128.0</ele><time>2026-04-12T08:35:32Z</time></trkpt><trkpt lat="39.11446930781474" lon="16.50287870614326"><ele>1128.0</ele><time>2026-04-12T08:35:33Z</time></trkpt><trkpt lat="39.11444494654779" lon="16.502775605400615"><ele>1128.75</ele><time>2026-04-12T08:35:35Z</time></trkpt><trkpt lat="39.114388715097085" lon="16.5026876343187"><ele>1129.5</ele><time>2026-04-12T08:35:38Z</time></trkpt><trkpt lat="39.1143194692454" lon="16.50241077712453"><ele>1130.25</ele><time>2026-04-12T08:35:41Z</time></trkpt><trkpt lat="39.11426318784877" lon="16.502262775994108"><ele>1131.0</ele><time>2026-04-12T08:35:42Z</time></trkpt><trkpt lat="39.114241055045575" lon="16.502141740969886"><ele>1131.75</ele><time>2026-04-12T08:35:43Z</time></trkpt><trkpt lat="39.11422017634337" lon="16.501971750533666"><ele>1132.5</ele><time>2026-04-12T08:35:44Z</time></trkpt><trkpt lat="39.114181032830196" lon="16.501800656427342"><ele>1133.25</ele><time>2026-04-12T08:35:45Z</time></trkpt><trkpt lat="39.11413894955716" lon="16.50166998070055"><ele>1134.0</ele><time>2026-04-12T08:35:46Z</time></trkpt><trkpt lat="39.11410135768817" lon="16.501544273226397"><ele>1131.5</ele><time>2026-04-12T08:35:47Z</time></trkpt><trkpt lat="39.11404536345335" lon="16.50142720983047"><ele>1129.0</ele><time>2026-04-12T08:35:48Z</time></trkpt><trkpt lat="39.11395690266222" lon="16.501278545777904"><ele>1126.5</ele><time>2026-04-12T08:35:49Z</time></trkpt><trkpt lat="39.11390245105352" lon="16.501127970690884"><ele>1124.0</ele><time>2026-04-12T08:35:50Z</time></trkpt><trkpt lat="39.11385683230552" lon="16.501023475891046"><ele>1124.0</ele><time>2026-04-12T08:35:51Z</time></trkpt><trkpt lat="39.11377131049697" lon="16.50098816407224"><ele>1124.0</ele><time>2026-04-12T08:35:52Z</time></trkpt><trkpt lat="39.11374497926318" lon="16.50091047519779"><ele>1124.0</ele><time>2026-04-12T08:35:53Z</time></trkpt><trkpt lat="39.11373208468466" lon="16.500790122474108"><ele>1124.0</ele><time>2026-04-12T08:35:54Z</time></trkpt><trkpt lat="39.11370787235729" lon="16.500627704446742"><ele>1124.0</ele><time>2026-04-12T08:35:55Z</time></trkpt><trkpt lat="39.113666827459085" lon="16.500510710499434"><ele>1125.4</ele><time>2026-04-12T08:35:56Z</time></trkpt><trkpt lat="39.11358990890091" lon="16.500405223705002"><ele>1126.8000000000002</ele><time>2026-04-12T08:35:57Z</time></trkpt><trkpt lat="39.11350004738974" lon="16.50029695294522"><ele>1128.1999999999998</ele><time>2026-04-12T08:35:58Z</time></trkpt><trkpt lat="39.113421511429685" lon="16.500218019879856"><ele>1129.6</ele><time>2026-04-12T08:35:59Z</time></trkpt><trkpt lat="39.113361232487804" lon="16.50014068397909"><ele>1131.0</ele><time>2026-04-12T08:36:00Z</time></trkpt><trkpt lat="39.11326257594713" lon="16.50002453036868"><ele>1129.6</ele><time>2026-04-12T08:36:02Z</time></trkpt><trkpt lat="39.11321196314492" lon="16.499933462831784"><ele>1128.1999999999998</ele><time>2026-04-12T08:36:04Z</time></trkpt><trkpt lat="39.11315301225995" lon="16.499890546250892"><ele>1126.8000000000002</ele><time>2026-04-12T08:36:09Z</time></trkpt><trkpt lat="39.11314744946447" lon="16.49979325417125"><ele>1125.4</ele><time>2026-04-12T08:36:40Z</time></trkpt><trkpt lat="39.11309613298572" lon="16.499683864375783"><ele>1124.0</ele><time>2026-04-12T08:36:43Z</time></trkpt><trkpt lat="39.11302237307846" lon="16.49951820877579"><ele>1124.0</ele><time>2026-04-12T08:36:45Z</time></trkpt><trkpt lat="39.1129999210445" lon="16.499382197284774"><ele>1124.0</ele><time>2026-04-12T08:36:47Z</time></trkpt><trkpt lat="39.11302484362839" lon="16.499221387737446"><ele>1124.0</ele><time>2026-04-12T08:36:49Z</time></trkpt><trkpt lat="39.11303896896019" lon="16.499082582883634"><ele>1124.0</ele><time>2026-04-12T08:36:50Z</time></trkpt><trkpt lat="39.11307034418432" lon="16.49896551869522"><ele>1124.0</ele><time>2026-04-12T08:36:51Z</time></trkpt><trkpt lat="39.11311107487088" lon="16.498840674708543"><ele>1124.6000000000001</ele><time>2026-04-12T08:36:52Z</time></trkpt><trkpt lat="39.11315340844858" lon="16.498743673367485"><ele>1125.2</ele><time>2026-04-12T08:36:53Z</time></trkpt><trkpt lat="39.113195555825726" lon="16.498606822799054"><ele>1125.8000000000002</ele><time>2026-04-12T08:36:55Z</time></trkpt><trkpt lat="39.11321940683991" lon="16.498489391640035"><ele>1126.4</ele><time>2026-04-12T08:36:57Z</time></trkpt><trkpt lat="39.1131951480714" lon="16.4983675243682"><ele>1127.0</ele><time>2026-04-12T08:36:59Z</time></trkpt><trkpt lat="39.11311745494071" lon="16.49823712214968"><ele>1127.0</ele><time>2026-04-12T08:37:01Z</time></trkpt><trkpt lat="39.11307839160034" lon="16.4981677453398"><ele>1127.0</ele><time>2026-04-12T08:37:02Z</time></trkpt><trkpt lat="39.113026636237514" lon="16.498099758937034"><ele>1127.0</ele><time>2026-04-12T08:37:03Z</time></trkpt><trkpt lat="39.11297099287449" lon="16.498056333883437"><ele>1127.0</ele><time>2026-04-12T08:37:04Z</time></trkpt><trkpt lat="39.11285731047981" lon="16.498047441198498"><ele>1127.0</ele><time>2026-04-12T08:37:06Z</time></trkpt><trkpt lat="39.1127984344207" lon="16.498123507867117"><ele>1127.0</ele><time>2026-04-12T08:37:08Z</time></trkpt><trkpt lat="39.11274226405148" lon="16.4981814984565"><ele>1127.0</ele><time>2026-04-12T08:37:16Z</time></trkpt><trkpt lat="39.11267083440959" lon="16.498337974464505"><ele>1127.0</ele><time>2026-04-12T08:37:19Z</time></trkpt><trkpt lat="39.11262461791007" lon="16.49839728033308"><ele>1127.0</ele><time>2026-04-12T08:37:20Z</time></trkpt><trkpt lat="39.112542889902464" lon="16.498509042337368"><ele>1127.0</ele><time>2026-04-12T08:37:22Z</time></trkpt><trkpt lat="39.11245322983422" lon="16.49858745752486"><ele>1127.0</ele><time>2026-04-12T08:37:24Z</time></trkpt><trkpt lat="39.11234441465935" lon="16.49866209344325"><ele>1128.2</ele><time>2026-04-12T08:37:27Z</time></trkpt><trkpt lat="39.112243776222684" lon="16.498719158427587"><ele>1129.4</ele><time>2026-04-12T08:37:29Z</time></trkpt><trkpt lat="39.11217265442571" lon="16.498799315102637"><ele>1130.6</ele><time>2026-04-12T08:37:31Z</time></trkpt><trkpt lat="39.11206906874175" lon="16.49890093024696"><ele>1131.8</ele><time>2026-04-12T08:37:33Z</time></trkpt><trkpt lat="39.11199867942376" lon="16.498963030752304"><ele>1133.0</ele><time>2026-04-12T08:37:34Z</time></trkpt><trkpt lat="39.11189995527914" lon="16.49906007581524"><ele>1133.0</ele><time>2026-04-12T08:37:35Z</time></trkpt><trkpt lat="39.11181723729966" lon="16.499149674238776"><ele>1133.0</ele><time>2026-04-12T08:37:36Z</time></trkpt><trkpt lat="39.1117745303314" lon="16.499219979375724"><ele>1133.0</ele><time>2026-04-12T08:37:37Z</time></trkpt><trkpt lat="39.111747833569694" lon="16.499305423239086"><ele>1133.0</ele><time>2026-04-12T08:37:38Z</time></trkpt><trkpt lat="39.11170416105152" lon="16.499427460012143"><ele>1133.0</ele><time>2026-04-12T08:37:39Z</time></trkpt><trkpt lat="39.11167791469893" lon="16.499567604796855"><ele>1132.1666666666667</ele><time>2026-04-12T08:37:40Z</time></trkpt><trkpt lat="39.111659827142425" lon="16.499675845222878"><ele>1131.3333333333335</ele><time>2026-04-12T08:37:41Z</time></trkpt><trkpt lat="39.11165618145468" lon="16.499820977001324"><ele>1130.5</ele><time>2026-04-12T08:37:42Z</time></trkpt><trkpt lat="39.111648738098566" lon="16.499931820733963"><ele>1129.6666666666667</ele><time>2026-04-12T08:37:43Z</time></trkpt><trkpt lat="39.11164107679949" lon="16.500031269972403"><ele>1128.8333333333333</ele><time>2026-04-12T08:37:44Z</time></trkpt><trkpt lat="39.111636015606166" lon="16.50012740898351"><ele>1128.0</ele><time>2026-04-12T08:37:45Z</time></trkpt><trkpt lat="39.11163021044715" lon="16.500247493061476"><ele>1128.0</ele><time>2026-04-12T08:37:46Z</time></trkpt><trkpt lat="39.1116265223779" lon="16.500383976958847"><ele>1128.0</ele><time>2026-04-12T08:37:47Z</time></trkpt><trkpt lat="39.1116321927379" lon="16.50051928119799"><ele>1128.0</ele><time>2026-04-12T08:37:48Z</time></trkpt><trkpt lat="39.11164635279182" lon="16.500658687192256"><ele>1128.0</ele><time>2026-04-12T08:37:49Z</time></trkpt><trkpt lat="39.111686810057215" lon="16.50081085911207"><ele>1128.0</ele><time>2026-04-12T08:37:50Z</time></trkpt><trkpt lat="39.11175277198286" lon="16.50099607179778"><ele>1130.5</ele><time>2026-04-12T08:37:51Z</time></trkpt><trkpt lat="39.111810900928226" lon="16.50118145994442"><ele>1133.0</ele><time>2026-04-12T08:37:52Z</time></trkpt><trkpt lat="39.111847636371344" lon="16.501326358930978"><ele>1135.5</ele><time>2026-04-12T08:37:53Z</time></trkpt><trkpt lat="39.11183835899823" lon="16.501449384393535"><ele>1138.0</ele><time>2026-04-12T08:37:54Z</time></trkpt><trkpt lat="39.11186240255462" lon="16.501560616971524"><ele>1141.2</ele><time>2026-04-12T08:37:55Z</time></trkpt><trkpt lat="39.11188755773377" lon="16.50169253193575"><ele>1144.4</ele><time>2026-04-12T08:37:56Z</time></trkpt><trkpt lat="39.1119977097299" lon="16.501799266130753"><ele>1147.6000000000001</ele><time>2026-04-12T08:37:58Z</time></trkpt><trkpt lat="39.112036169982936" lon="16.501897785932897"><ele>1150.8</ele><time>2026-04-12T08:37:59Z</time></trkpt><trkpt lat="39.11209031108805" lon="16.50200868422274"><ele>1154.0</ele><time>2026-04-12T08:38:00Z</time></trkpt><trkpt lat="39.112143836318864" lon="16.5020969180843"><ele>1157.2</ele><time>2026-04-12T08:38:01Z</time></trkpt><trkpt lat="39.11219889351661" lon="16.50220520065318"><ele>1160.4</ele><time>2026-04-12T08:38:02Z</time></trkpt><trkpt lat="39.1122687617364" lon="16.502339822208544"><ele>1163.6</ele><time>2026-04-12T08:38:03Z</time></trkpt><trkpt lat="39.11233291896469" lon="16.502457909207713"><ele>1166.8</ele><time>2026-04-12T08:38:04Z</time></trkpt><trkpt lat="39.112385332623916" lon="16.502567315194398"><ele>1170.0</ele><time>2026-04-12T08:38:05Z</time></trkpt><trkpt lat="39.11240540524784" lon="16.50271270344042"><ele>1164.8</ele><time>2026-04-12T08:38:06Z</time></trkpt><trkpt lat="39.112441854014385" lon="16.502838998930798"><ele>1159.6</ele><time>2026-04-12T08:38:07Z</time></trkpt><trkpt lat="39.11249290136259" lon="16.50294884642858"><ele>1154.4</ele><time>2026-04-12T08:38:08Z</time></trkpt><trkpt lat="39.112521698502306" lon="16.503059503391107"><ele>1149.2</ele><time>2026-04-12T08:38:09Z</time></trkpt><trkpt lat="39.112574754606285" lon="16.503171605095556"><ele>1144.0</ele><time>2026-04-12T08:38:10Z</time></trkpt><trkpt lat="39.11264481159235" lon="16.503309416123408"><ele>1144.0</ele><time>2026-04-12T08:38:11Z</time></trkpt><trkpt lat="39.11270805523231" lon="16.503432502893542"><ele>1144.0</ele><time>2026-04-12T08:38:12Z</time></trkpt><trkpt lat="39.1127693152563" lon="16.503576043823116"><ele>1144.0</ele><time>2026-04-12T08:38:13Z</time></trkpt><trkpt lat="39.112878473686315" lon="16.503707130835636"><ele>1144.0</ele><time>2026-04-12T08:38:14Z</time></trkpt><trkpt lat="39.11292880099155" lon="16.503805307489102"><ele>1146.8333333333333</ele><time>2026-04-12T08:38:15Z</time></trkpt><trkpt lat="39.112965578750625" lon="16.503883200646804"><ele>1149.6666666666665</ele><time>2026-04-12T08:38:16Z</time></trkpt><trkpt lat="39.11298031694044" lon="16.50396652821363"><ele>1152.5</ele><time>2026-04-12T08:38:17Z</time></trkpt><trkpt lat="39.11298044900824" lon="16.50406179094524"><ele>1155.3333333333333</ele><time>2026-04-12T08:38:18Z</time></trkpt><trkpt lat="39.11296522566583" lon="16.504190452822645"><ele>1158.1666666666667</ele><time>2026-04-12T08:38:19Z</time></trkpt><trkpt lat="39.11295253648123" lon="16.504345071828613"><ele>1161.0</ele><time>2026-04-12T08:38:20Z</time></trkpt><trkpt lat="39.11292738949486" lon="16.50444742740927"><ele>1161.0</ele><time>2026-04-12T08:38:21Z</time></trkpt><trkpt lat="39.11290400907256" lon="16.504526115221033"><ele>1161.0</ele><time>2026-04-12T08:38:22Z</time></trkpt><trkpt lat="39.11282641104033" lon="16.504566621628822"><ele>1161.0</ele><time>2026-04-12T08:38:23Z</time></trkpt><trkpt lat="39.11277307729799" lon="16.504652255582492"><ele>1161.0</ele><time>2026-04-12T08:38:24Z</time></trkpt><trkpt lat="39.11275752350838" lon="16.504784399038876"><ele>1161.0</ele><time>2026-04-12T08:38:26Z</time></trkpt><trkpt lat="39.11285224146517" lon="16.50486205419456"><ele>1162.2</ele><time>2026-04-12T08:38:27Z</time></trkpt><trkpt lat="39.11290453718286" lon="16.50496859361271"><ele>1163.3999999999999</ele><time>2026-04-12T08:38:28Z</time></trkpt><trkpt lat="39.11295363447479" lon="16.505080033584196"><ele>1164.6</ele><time>2026-04-12T08:38:29Z</time></trkpt><trkpt lat="39.11298787745279" lon="16.50520783111718"><ele>1165.8</ele><time>2026-04-12T08:38:30Z</time></trkpt><trkpt lat="39.113003269938794" lon="16.505357649553183"><ele>1167.0</ele><time>2026-04-12T08:38:31Z</time></trkpt><trkpt lat="39.113014148243714" lon="16.50554938973144"><ele>1167.0</ele><time>2026-04-12T08:38:32Z</time></trkpt><trkpt lat="39.113014638944954" lon="16.50575754954783"><ele>1167.0</ele><time>2026-04-12T08:38:33Z</time></trkpt><trkpt lat="39.113016109450925" lon="16.505937886415854"><ele>1167.0</ele><time>2026-04-12T08:38:34Z</time></trkpt><trkpt lat="39.1129861045839" lon="16.50608881575004"><ele>1167.0</ele><time>2026-04-12T08:38:35Z</time></trkpt><trkpt lat="39.11297549039628" lon="16.50621210411828"><ele>1166.5</ele><time>2026-04-12T08:38:36Z</time></trkpt><trkpt lat="39.112950180003445" lon="16.506365281663154"><ele>1166.0</ele><time>2026-04-12T08:38:37Z</time></trkpt><trkpt lat="39.11297103753481" lon="16.50654384037267"><ele>1165.5</ele><time>2026-04-12T08:38:38Z</time></trkpt><trkpt lat="39.11298797822608" lon="16.506758222178313"><ele>1165.0</ele><time>2026-04-12T08:38:39Z</time></trkpt><trkpt lat="39.11295880059339" lon="16.506981604567937"><ele>1161.4</ele><time>2026-04-12T08:38:40Z</time></trkpt><trkpt lat="39.11294063642986" lon="16.507135649811634"><ele>1157.8</ele><time>2026-04-12T08:38:41Z</time></trkpt><trkpt lat="39.11291737016509" lon="16.507257304525407"><ele>1154.2</ele><time>2026-04-12T08:38:42Z</time></trkpt><trkpt lat="39.11287173936186" lon="16.507383412355814"><ele>1150.6</ele><time>2026-04-12T08:38:43Z</time></trkpt><trkpt lat="39.11281486755994" lon="16.50749108070395"><ele>1147.0</ele><time>2026-04-12T08:38:44Z</time></trkpt><trkpt lat="39.11274891467531" lon="16.50759338410854"><ele>1147.0</ele><time>2026-04-12T08:38:45Z</time></trkpt><trkpt lat="39.11266515004442" lon="16.507656583159303"><ele>1147.0</ele><time>2026-04-12T08:38:46Z</time></trkpt><trkpt lat="39.11252118989669" lon="16.50773113132919"><ele>1147.0</ele><time>2026-04-12T08:38:47Z</time></trkpt><trkpt lat="39.112376110121694" lon="16.507816082591166"><ele>1147.0</ele><time>2026-04-12T08:38:48Z</time></trkpt><trkpt lat="39.11226211642206" lon="16.507891860039003"><ele>1149.2</ele><time>2026-04-12T08:38:49Z</time></trkpt><trkpt lat="39.11217336270369" lon="16.507981825818238"><ele>1151.4</ele><time>2026-04-12T08:38:50Z</time></trkpt><trkpt lat="39.112116654689075" lon="16.50806390989963"><ele>1153.6</ele><time>2026-04-12T08:38:51Z</time></trkpt><trkpt lat="39.112095521420976" lon="16.508188939093447"><ele>1155.8</ele><time>2026-04-12T08:38:52Z</time></trkpt><trkpt lat="39.1120894371798" lon="16.508318011400842"><ele>1158.0</ele><time>2026-04-12T08:38:53Z</time></trkpt><trkpt lat="39.1120579994942" lon="16.50842431852143"><ele>1158.0</ele><time>2026-04-12T08:38:54Z</time></trkpt><trkpt lat="39.112034041380696" lon="16.50852132212149"><ele>1158.0</ele><time>2026-04-12T08:38:55Z</time></trkpt><trkpt lat="39.111987822402284" lon="16.50860267735347"><ele>1158.0</ele><time>2026-04-12T08:38:56Z</time></trkpt><trkpt lat="39.111898263423605" lon="16.508705478790038"><ele>1158.0</ele><time>2026-04-12T08:38:57Z</time></trkpt><trkpt lat="39.111782686542384" lon="16.508834585667056"><ele>1158.0</ele><time>2026-04-12T08:38:58Z</time></trkpt><trkpt lat="39.11166402979603" lon="16.508956579802135"><ele>1158.8</ele><time>2026-04-12T08:38:59Z</time></trkpt><trkpt lat="39.11157492304565" lon="16.509032126391713"><ele>1159.6</ele><time>2026-04-12T08:39:00Z</time></trkpt><trkpt lat="39.11151321919598" lon="16.509095755774524"><ele>1160.4</ele><time>2026-04-12T08:39:01Z</time></trkpt><trkpt lat="39.11146061349031" lon="16.509154420738604"><ele>1161.2</ele><time>2026-04-12T08:39:02Z</time></trkpt><trkpt lat="39.11150002249973" lon="16.509307149693758"><ele>1162.0</ele><time>2026-04-12T08:39:04Z</time></trkpt><trkpt lat="39.111549073319445" lon="16.509413528690157"><ele>1159.5</ele><time>2026-04-12T08:39:05Z</time></trkpt><trkpt lat="39.111560838946964" lon="16.509595394620742"><ele>1157.0</ele><time>2026-04-12T08:39:07Z</time></trkpt><trkpt lat="39.1115249300726" lon="16.509753388862777"><ele>1154.5</ele><time>2026-04-12T08:39:08Z</time></trkpt><trkpt lat="39.111493907322775" lon="16.509933481386252"><ele>1152.0</ele><time>2026-04-12T08:39:09Z</time></trkpt><trkpt lat="39.111478445831835" lon="16.510087913841822"><ele>1152.0</ele><time>2026-04-12T08:39:10Z</time></trkpt><trkpt lat="39.11142846604236" lon="16.510207792895734"><ele>1152.0</ele><time>2026-04-12T08:39:11Z</time></trkpt><trkpt lat="39.1113750203856" lon="16.510307610170123"><ele>1152.0</ele><time>2026-04-12T08:39:12Z</time></trkpt><trkpt lat="39.11126371203104" lon="16.51040330441597"><ele>1152.0</ele><time>2026-04-12T08:39:13Z</time></trkpt><trkpt lat="39.111161047723094" lon="16.51051450911154"><ele>1146.6</ele><time>2026-04-12T08:39:14Z</time></trkpt><trkpt lat="39.11107847611583" lon="16.51058901450164"><ele>1141.2</ele><time>2026-04-12T08:39:16Z</time></trkpt><trkpt lat="39.11099169851997" lon="16.5105645270647"><ele>1135.8</ele><time>2026-04-12T08:39:18Z</time></trkpt><trkpt lat="39.110886942008705" lon="16.510539107560675"><ele>1130.4</ele><time>2026-04-12T08:39:20Z</time></trkpt><trkpt lat="39.11082206154325" lon="16.51049904984432"><ele>1125.0</ele><time>2026-04-12T08:39:21Z</time></trkpt><trkpt lat="39.11073181331752" lon="16.51045797491936"><ele>1124.2</ele><time>2026-04-12T08:39:22Z</time></trkpt><trkpt lat="39.11063462060115" lon="16.510458768585764"><ele>1123.4</ele><time>2026-04-12T08:39:23Z</time></trkpt><trkpt lat="39.11053510550996" lon="16.51050860283734"><ele>1122.6</ele><time>2026-04-12T08:39:24Z</time></trkpt><trkpt lat="39.11041731115315" lon="16.510537905535028"><ele>1121.8</ele><time>2026-04-12T08:39:25Z</time></trkpt><trkpt lat="39.11030148482528" lon="16.510595038731584"><ele>1121.0</ele><time>2026-04-12T08:39:26Z</time></trkpt><trkpt lat="39.11022102862973" lon="16.510584113387175"><ele>1121.0</ele><time>2026-04-12T08:39:27Z</time></trkpt><trkpt lat="39.11015760323064" lon="16.51055240091675"><ele>1121.0</ele><time>2026-04-12T08:39:28Z</time></trkpt><trkpt lat="39.110106912990645" lon="16.510486177020514"><ele>1121.0</ele><time>2026-04-12T08:39:29Z</time></trkpt><trkpt lat="39.11007443787994" lon="16.510366045385695"><ele>1121.0</ele><time>2026-04-12T08:39:30Z</time></trkpt><trkpt lat="39.110013656063224" lon="16.510255380294613"><ele>1121.0</ele><time>2026-04-12T08:39:31Z</time></trkpt><trkpt lat="39.10998184302831" lon="16.510178663423734"><ele>1121.0</ele><time>2026-04-12T08:39:32Z</time></trkpt><trkpt lat="39.10987541878246" lon="16.51013756914535"><ele>1122.0</ele><time>2026-04-12T08:39:34Z</time></trkpt><trkpt lat="39.10980091398196" lon="16.510155649401018"><ele>1123.0</ele><time>2026-04-12T08:39:36Z</time></trkpt><trkpt lat="39.1096675667682" lon="16.51023857543309"><ele>1124.0</ele><time>2026-04-12T08:39:38Z</time></trkpt><trkpt lat="39.109561353437805" lon="16.510304519661368"><ele>1125.0</ele><time>2026-04-12T08:39:40Z</time></trkpt><trkpt lat="39.10948236531927" lon="16.510273126867016"><ele>1126.0</ele><time>2026-04-12T08:39:42Z</time></trkpt><trkpt lat="39.109453378508306" lon="16.510138375796448"><ele>1126.0</ele><time>2026-04-12T08:39:44Z</time></trkpt><trkpt lat="39.10944399890543" lon="16.510030077763957"><ele>1126.0</ele><time>2026-04-12T08:39:45Z</time></trkpt><trkpt lat="39.109385979398255" lon="16.50991463665828"><ele>1126.0</ele><time>2026-04-12T08:39:47Z</time></trkpt><trkpt lat="39.109310749932945" lon="16.509884788532048"><ele>1126.0</ele><time>2026-04-12T08:39:48Z</time></trkpt><trkpt lat="39.10921036102711" lon="16.50984636460299"><ele>1126.0</ele><time>2026-04-12T08:39:49Z</time></trkpt><trkpt lat="39.109070230267136" lon="16.509795797444365"><ele>1126.1666666666665</ele><time>2026-04-12T08:39:50Z</time></trkpt><trkpt lat="39.10894675142321" lon="16.50977091580684"><ele>1126.3333333333333</ele><time>2026-04-12T08:39:51Z</time></trkpt><trkpt lat="39.10884796081077" lon="16.50976816734788"><ele>1126.5</ele><time>2026-04-12T08:39:52Z</time></trkpt><trkpt lat="39.10877743810097" lon="16.509746948570097"><ele>1126.6666666666667</ele><time>2026-04-12T08:39:53Z</time></trkpt><trkpt lat="39.108717846491324" lon="16.509701913011337"><ele>1126.8333333333335</ele><time>2026-04-12T08:39:54Z</time></trkpt><trkpt lat="39.10866211912666" lon="16.509633257233585"><ele>1127.0</ele><time>2026-04-12T08:39:55Z</time></trkpt><trkpt lat="39.108613360564505" lon="16.50953857177058"><ele>1127.0</ele><time>2026-04-12T08:39:56Z</time></trkpt><trkpt lat="39.10856621375808" lon="16.509426459994025"><ele>1127.0</ele><time>2026-04-12T08:39:57Z</time></trkpt><trkpt lat="39.1085166128392" lon="16.509282565310183"><ele>1127.0</ele><time>2026-04-12T08:39:58Z</time></trkpt><trkpt lat="39.10847423231335" lon="16.509094493207428"><ele>1127.0</ele><time>2026-04-12T08:39:59Z</time></trkpt><trkpt lat="39.1084496595599" lon="16.508962818715165"><ele>1127.0</ele><time>2026-04-12T08:40:00Z</time></trkpt><trkpt lat="39.108429674451486" lon="16.508837920767828"><ele>1127.0</ele><time>2026-04-12T08:40:01Z</time></trkpt><trkpt lat="39.10838677042193" lon="16.50874968660884"><ele>1127.0</ele><time>2026-04-12T08:40:02Z</time></trkpt><trkpt lat="39.108326257395085" lon="16.50866806406847"><ele>1127.0</ele><time>2026-04-12T08:40:03Z</time></trkpt><trkpt lat="39.108230968528275" lon="16.50858456111006"><ele>1127.0</ele><time>2026-04-12T08:40:04Z</time></trkpt><trkpt lat="39.1081208205903" lon="16.508514835713914"><ele>1127.0</ele><time>2026-04-12T08:40:05Z</time></trkpt><trkpt lat="39.10806316265648" lon="16.508476186818342"><ele>1127.0</ele><time>2026-04-12T08:40:06Z</time></trkpt><trkpt lat="39.10802655763147" lon="16.508401069905737"><ele>1127.0</ele><time>2026-04-12T08:40:08Z</time></trkpt><trkpt lat="39.10797489764974" lon="16.508277518820332"><ele>1127.0</ele><time>2026-04-12T08:40:10Z</time></trkpt><trkpt lat="39.10796458443249" lon="16.50807689318003"><ele>1127.0</ele><time>2026-04-12T08:40:12Z</time></trkpt><trkpt lat="39.107971997440394" lon="16.50792020356511"><ele>1132.25</ele><time>2026-04-12T08:40:13Z</time></trkpt><trkpt lat="39.107981362450325" lon="16.507722703438624"><ele>1137.5</ele><time>2026-04-12T08:40:14Z</time></trkpt><trkpt lat="39.10800761843337" lon="16.507548699341385"><ele>1142.75</ele><time>2026-04-12T08:40:15Z</time></trkpt><trkpt lat="39.1080335165213" lon="16.507435694178586"><ele>1148.0</ele><time>2026-04-12T08:40:16Z</time></trkpt><trkpt lat="39.1080611179214" lon="16.507348765758287"><ele>1148.0</ele><time>2026-04-12T08:40:17Z</time></trkpt><trkpt lat="39.108100998851995" lon="16.50725773109177"><ele>1148.0</ele><time>2026-04-12T08:40:18Z</time></trkpt><trkpt lat="39.10812700393208" lon="16.507180294239117"><ele>1148.0</ele><time>2026-04-12T08:40:19Z</time></trkpt><trkpt lat="39.10811098714592" lon="16.507085138316864"><ele>1148.0</ele><time>2026-04-12T08:40:21Z</time></trkpt><trkpt lat="39.10798775537933" lon="16.50700998823092"><ele>1148.0</ele><time>2026-04-12T08:40:23Z</time></trkpt><trkpt lat="39.10792604598693" lon="16.507036210598496"><ele>1148.0</ele><time>2026-04-12T08:40:24Z</time></trkpt><trkpt lat="39.10786757013704" lon="16.507107204145456"><ele>1148.0</ele><time>2026-04-12T08:40:25Z</time></trkpt><trkpt lat="39.10781276960815" lon="16.507224571745436"><ele>1148.0</ele><time>2026-04-12T08:40:26Z</time></trkpt><trkpt lat="39.1077089532885" lon="16.507335385512988"><ele>1148.0</ele><time>2026-04-12T08:40:27Z</time></trkpt><trkpt lat="39.10760458999806" lon="16.507463497721773"><ele>1148.0</ele><time>2026-04-12T08:40:28Z</time></trkpt><trkpt lat="39.107491143577704" lon="16.507613144730378"><ele>1148.0</ele><time>2026-04-12T08:40:29Z</time></trkpt><trkpt lat="39.107453204290174" lon="16.50772652784022"><ele>1148.0</ele><time>2026-04-12T08:40:30Z</time></trkpt><trkpt lat="39.107333101894376" lon="16.507833317305547"><ele>1148.0</ele><time>2026-04-12T08:40:32Z</time></trkpt><trkpt lat="39.10724704367059" lon="16.507886096696975"><ele>1148.0</ele><time>2026-04-12T08:40:33Z</time></trkpt><trkpt lat="39.10719756298926" lon="16.50795637193652"><ele>1148.0</ele><time>2026-04-12T08:40:34Z</time></trkpt><trkpt lat="39.107176418477664" lon="16.508061678581075"><ele>1146.0</ele><time>2026-04-12T08:40:35Z</time></trkpt><trkpt lat="39.10718483380334" lon="16.508216307924773"><ele>1144.0</ele><time>2026-04-12T08:40:36Z</time></trkpt><trkpt lat="39.10717354023371" lon="16.50833374140809"><ele>1142.0</ele><time>2026-04-12T08:40:37Z</time></trkpt><trkpt lat="39.1071252004901" lon="16.50845799669569"><ele>1140.0</ele><time>2026-04-12T08:40:38Z</time></trkpt><trkpt lat="39.10706786607441" lon="16.508525578171575"><ele>1138.0</ele><time>2026-04-12T08:40:39Z</time></trkpt><trkpt lat="39.10699601667064" lon="16.508548426659114"><ele>1138.0</ele><time>2026-04-12T08:40:40Z</time></trkpt><trkpt lat="39.10690897472616" lon="16.508542508636218"><ele>1138.0</ele><time>2026-04-12T08:40:41Z</time></trkpt><trkpt lat="39.1068112627102" lon="16.508508633607477"><ele>1138.0</ele><time>2026-04-12T08:40:42Z</time></trkpt><trkpt lat="39.10672184586514" lon="16.508436877445412"><ele>1138.0</ele><time>2026-04-12T08:40:43Z</time></trkpt><trkpt lat="39.10662518506218" lon="16.508348085268146"><ele>1138.0</ele><time>2026-04-12T08:40:44Z</time></trkpt><trkpt lat="39.10651407086392" lon="16.508239456788147"><ele>1138.5</ele><time>2026-04-12T08:40:45Z</time></trkpt><trkpt lat="39.10640985175715" lon="16.508099997244322"><ele>1139.0</ele><time>2026-04-12T08:40:46Z</time></trkpt><trkpt lat="39.10631697570013" lon="16.508001321758016"><ele>1139.5</ele><time>2026-04-12T08:40:47Z</time></trkpt><trkpt lat="39.106217910452976" lon="16.50793085493339"><ele>1140.0</ele><time>2026-04-12T08:40:48Z</time></trkpt><trkpt lat="39.106125629904916" lon="16.50783638868565"><ele>1142.3333333333333</ele><time>2026-04-12T08:40:49Z</time></trkpt><trkpt lat="39.10604908438516" lon="16.507796860781497"><ele>1144.6666666666667</ele><time>2026-04-12T08:40:50Z</time></trkpt><trkpt lat="39.106002449483185" lon="16.507742133438335"><ele>1147.0</ele><time>2026-04-12T08:40:51Z</time></trkpt><trkpt lat="39.10593701019571" lon="16.507664255379296"><ele>1149.3333333333335</ele><time>2026-04-12T08:40:52Z</time></trkpt><trkpt lat="39.105873557564045" lon="16.507646929942585"><ele>1151.6666666666667</ele><time>2026-04-12T08:40:53Z</time></trkpt><trkpt lat="39.10577285676338" lon="16.50772721954254"><ele>1154.0</ele><time>2026-04-12T08:40:55Z</time></trkpt><trkpt lat="39.10578555539626" lon="16.50781934405568"><ele>1150.5</ele><time>2026-04-12T08:40:56Z</time></trkpt><trkpt lat="39.10580196160773" lon="16.507962230020087"><ele>1147.0</ele><time>2026-04-12T08:40:57Z</time></trkpt><trkpt lat="39.1058219029797" lon="16.50811647636245"><ele>1143.5</ele><time>2026-04-12T08:40:58Z</time></trkpt><trkpt lat="39.10581759691191" lon="16.50826832452497"><ele>1140.0</ele><time>2026-04-12T08:40:59Z</time></trkpt><trkpt lat="39.10579901045818" lon="16.508406989192743"><ele>1137.8</ele><time>2026-04-12T08:41:00Z</time></trkpt><trkpt lat="39.10574358949442" lon="16.508566598888223"><ele>1135.6</ele><time>2026-04-12T08:41:01Z</time></trkpt><trkpt lat="39.105720388494355" lon="16.508710831865937"><ele>1133.4</ele><time>2026-04-12T08:41:03Z</time></trkpt><trkpt lat="39.105653666882134" lon="16.50880826220863"><ele>1131.2</ele><time>2026-04-12T08:41:06Z</time></trkpt><trkpt lat="39.10560493678651" lon="16.508870588048136"><ele>1129.0</ele><time>2026-04-12T08:41:07Z</time></trkpt><trkpt lat="39.105521531979896" lon="16.508993910119205"><ele>1129.0</ele><time>2026-04-12T08:41:08Z</time></trkpt><trkpt lat="39.10546836456756" lon="16.509072537163586"><ele>1129.0</ele><time>2026-04-12T08:41:09Z</time></trkpt><trkpt lat="39.10540813134903" lon="16.509097799369002"><ele>1129.0</ele><time>2026-04-12T08:41:10Z</time></trkpt><trkpt lat="39.10533608889079" lon="16.509074298669685"><ele>1129.0</ele><time>2026-04-12T08:41:11Z</time></trkpt><trkpt lat="39.10522688105299" lon="16.50905290896829"><ele>1129.0</ele><time>2026-04-12T08:41:12Z</time></trkpt><trkpt lat="39.10515088559597" lon="16.509054417466896"><ele>1129.0</ele><time>2026-04-12T08:41:13Z</time></trkpt><trkpt lat="39.10504915554834" lon="16.509069582115714"><ele>1129.0</ele><time>2026-04-12T08:41:15Z</time></trkpt><trkpt lat="39.10495867349128" lon="16.50908145616423"><ele>1129.0</ele><time>2026-04-12T08:41:16Z</time></trkpt><trkpt lat="39.10486636273757" lon="16.5090931795704"><ele>1129.0</ele><time>2026-04-12T08:41:17Z</time></trkpt><trkpt lat="39.1047980055954" lon="16.50914425174749"><ele>1129.0</ele><time>2026-04-12T08:41:18Z</time></trkpt><trkpt lat="39.10468449207778" lon="16.50915779978969"><ele>1129.0</ele><time>2026-04-12T08:41:20Z</time></trkpt><trkpt lat="39.104616714074446" lon="16.509153161918096"><ele>1129.0</ele><time>2026-04-12T08:41:21Z</time></trkpt><trkpt lat="39.104542252125064" lon="16.50913068791381"><ele>1127.8</ele><time>2026-04-12T08:41:22Z</time></trkpt><trkpt lat="39.10447707516356" lon="16.509044665884158"><ele>1126.6000000000001</ele><time>2026-04-12T08:41:24Z</time></trkpt><trkpt lat="39.104491814837615" lon="16.50894254181206"><ele>1125.4</ele><time>2026-04-12T08:41:25Z</time></trkpt><trkpt lat="39.104512836560815" lon="16.508804267505493"><ele>1124.2</ele><time>2026-04-12T08:41:26Z</time></trkpt><trkpt lat="39.10454086518646" lon="16.508660150444747"><ele>1123.0</ele><time>2026-04-12T08:41:27Z</time></trkpt><trkpt lat="39.1045651046437" lon="16.508528872715296"><ele>1126.0</ele><time>2026-04-12T08:41:28Z</time></trkpt><trkpt lat="39.10457480162401" lon="16.508420333554746"><ele>1129.0</ele><time>2026-04-12T08:41:29Z</time></trkpt><trkpt lat="39.10454083593237" lon="16.508238085536753"><ele>1132.0</ele><time>2026-04-12T08:41:31Z</time></trkpt><trkpt lat="39.104473757708284" lon="16.508213021905963"><ele>1135.0</ele><time>2026-04-12T08:41:32Z</time></trkpt><trkpt lat="39.10439572745006" lon="16.50821666977191"><ele>1138.0</ele><time>2026-04-12T08:41:33Z</time></trkpt><trkpt lat="39.104296974098496" lon="16.508237840869555"><ele>1138.0</ele><time>2026-04-12T08:41:34Z</time></trkpt><trkpt lat="39.104155160017484" lon="16.508263346890818"><ele>1138.0</ele><time>2026-04-12T08:41:35Z</time></trkpt><trkpt lat="39.10399772722477" lon="16.508263982716095"><ele>1138.0</ele><time>2026-04-12T08:41:36Z</time></trkpt><trkpt lat="39.103870495333915" lon="16.50825338076969"><ele>1138.0</ele><time>2026-04-12T08:41:37Z</time></trkpt><trkpt lat="39.10377778603981" lon="16.50825519569371"><ele>1136.8333333333333</ele><time>2026-04-12T08:41:38Z</time></trkpt><trkpt lat="39.10368923701477" lon="16.508293372843127"><ele>1135.6666666666665</ele><time>2026-04-12T08:41:39Z</time></trkpt><trkpt lat="39.103624450375726" lon="16.50830436627528"><ele>1134.5</ele><time>2026-04-12T08:41:40Z</time></trkpt><trkpt lat="39.10354732144809" lon="16.508233603060656"><ele>1133.3333333333333</ele><time>2026-04-12T08:41:43Z</time></trkpt><trkpt lat="39.10348854657169" lon="16.508133435550764"><ele>1132.1666666666667</ele><time>2026-04-12T08:41:45Z</time></trkpt><trkpt lat="39.10349353633637" lon="16.5080322137337"><ele>1131.0</ele><time>2026-04-12T08:41:46Z</time></trkpt><trkpt lat="39.103493464210175" lon="16.507886663426817"><ele>1132.3333333333333</ele><time>2026-04-12T08:41:47Z</time></trkpt><trkpt lat="39.103481803509524" lon="16.50778315820639"><ele>1133.6666666666667</ele><time>2026-04-12T08:41:48Z</time></trkpt><trkpt lat="39.10340265420522" lon="16.507761455824973"><ele>1135.0</ele><time>2026-04-12T08:41:50Z</time></trkpt><trkpt lat="39.10333651636647" lon="16.507792221880894"><ele>1136.3333333333335</ele><time>2026-04-12T08:41:51Z</time></trkpt><trkpt lat="39.10325749553247" lon="16.507830799619448"><ele>1137.6666666666667</ele><time>2026-04-12T08:41:52Z</time></trkpt><trkpt lat="39.10316350244911" lon="16.50791562031031"><ele>1139.0</ele><time>2026-04-12T08:41:53Z</time></trkpt><trkpt lat="39.10311131249947" lon="16.507981041417693"><ele>1139.0</ele><time>2026-04-12T08:41:54Z</time></trkpt><trkpt lat="39.10302572736692" lon="16.508036658694103"><ele>1139.0</ele><time>2026-04-12T08:41:56Z</time></trkpt><trkpt lat="39.10295353632803" lon="16.508047515649675"><ele>1139.0</ele><time>2026-04-12T08:41:57Z</time></trkpt><trkpt lat="39.102872793572324" lon="16.508100449409223"><ele>1139.0</ele><time>2026-04-12T08:41:59Z</time></trkpt><trkpt lat="39.102901195755614" lon="16.50818430837748"><ele>1139.0</ele><time>2026-04-12T08:42:01Z</time></trkpt><trkpt lat="39.10293411298946" lon="16.50827727902075"><ele>1139.0</ele><time>2026-04-12T08:42:02Z</time></trkpt><trkpt lat="39.10288222492944" lon="16.50835857249088"><ele>1139.0</ele><time>2026-04-12T08:42:04Z</time></trkpt><trkpt lat="39.102817130709084" lon="16.508337181051584"><ele>1139.0</ele><time>2026-04-12T08:42:05Z</time></trkpt><trkpt lat="39.102702512882566" lon="16.508308072120442"><ele>1139.0</ele><time>2026-04-12T08:42:07Z</time></trkpt><trkpt lat="39.102628003077335" lon="16.50828601692569"><ele>1139.0</ele><time>2026-04-12T08:42:08Z</time></trkpt><trkpt lat="39.10254047701978" lon="16.508279053004745"><ele>1139.0</ele><time>2026-04-12T08:42:09Z</time></trkpt><trkpt lat="39.10244272407688" lon="16.508291402998257"><ele>1139.0</ele><time>2026-04-12T08:42:11Z</time></trkpt><trkpt lat="39.102420682360695" lon="16.508414999306734"><ele>1139.0</ele><time>2026-04-12T08:42:13Z</time></trkpt><trkpt lat="39.102430998356844" lon="16.508533132174723"><ele>1139.0</ele><time>2026-04-12T08:42:14Z</time></trkpt><trkpt lat="39.1024490375243" lon="16.50863296181382"><ele>1139.0</ele><time>2026-04-12T08:42:15Z</time></trkpt><trkpt lat="39.10238083699184" lon="16.50878501242333"><ele>1139.0</ele><time>2026-04-12T08:42:17Z</time></trkpt><trkpt lat="39.10230104145397" lon="16.50888498828305"><ele>1139.0</ele><time>2026-04-12T08:42:18Z</time></trkpt><trkpt lat="39.102223704965034" lon="16.50897361661055"><ele>1139.0</ele><time>2026-04-12T08:42:19Z</time></trkpt><trkpt lat="39.102155399508234" lon="16.509034693484214"><ele>1139.0</ele><time>2026-04-12T08:42:20Z</time></trkpt><trkpt lat="39.10208512800359" lon="16.509029594793063"><ele>1139.0</ele><time>2026-04-12T08:42:21Z</time></trkpt><trkpt lat="39.102010241651044" lon="16.508952103781795"><ele>1139.0</ele><time>2026-04-12T08:42:23Z</time></trkpt><trkpt lat="39.101945948743264" lon="16.508914897459956"><ele>1139.0</ele><time>2026-04-12T08:42:24Z</time></trkpt><trkpt lat="39.10186253456884" lon="16.508878052720323"><ele>1139.0</ele><time>2026-04-12T08:42:25Z</time></trkpt><trkpt lat="39.101759022559804" lon="16.508877945603274"><ele>1139.0</ele><time>2026-04-12T08:42:26Z</time></trkpt><trkpt lat="39.1016823292152" lon="16.508913644364924"><ele>1139.0</ele><time>2026-04-12T08:42:27Z</time></trkpt><trkpt lat="39.10161741237255" lon="16.508992320821683"><ele>1139.0</ele><time>2026-04-12T08:42:29Z</time></trkpt><trkpt lat="39.10162742106988" lon="16.509072942579667"><ele>1139.0</ele><time>2026-04-12T08:42:31Z</time></trkpt><trkpt lat="39.10164698375204" lon="16.509153311228136"><ele>1139.0</ele><time>2026-04-12T08:42:33Z</time></trkpt><trkpt lat="39.10164990216785" lon="16.50923567982661"><ele>1139.0</ele><time>2026-04-12T08:42:35Z</time></trkpt><trkpt lat="39.10162413308864" lon="16.509390448159273"><ele>1139.6000000000001</ele><time>2026-04-12T08:42:37Z</time></trkpt><trkpt lat="39.101531192701025" lon="16.509515724323936"><ele>1140.2</ele><time>2026-04-12T08:42:41Z</time></trkpt><trkpt lat="39.10146266366941" lon="16.509596237910188"><ele>1140.8000000000002</ele><time>2026-04-12T08:42:43Z</time></trkpt><trkpt lat="39.10139264719235" lon="16.509633524034488"><ele>1141.4</ele><time>2026-04-12T08:42:44Z</time></trkpt><trkpt lat="39.10131769488663" lon="16.5095951097585"><ele>1142.0</ele><time>2026-04-12T08:42:45Z</time></trkpt><trkpt lat="39.101248940861154" lon="16.509563236705308"><ele>1142.0</ele><time>2026-04-12T08:42:46Z</time></trkpt><trkpt lat="39.10107148365053" lon="16.509478374726925"><ele>1142.0</ele><time>2026-04-12T08:42:48Z</time></trkpt><trkpt lat="39.10098947404148" lon="16.509445747873823"><ele>1142.0</ele><time>2026-04-12T08:42:49Z</time></trkpt><trkpt lat="39.10092646952567" lon="16.50942861422589"><ele>1142.0</ele><time>2026-04-12T08:42:50Z</time></trkpt><trkpt lat="39.10092843327131" lon="16.509509934473456"><ele>1142.0</ele><time>2026-04-12T08:47:06Z</time></trkpt><trkpt lat="39.100894725161595" lon="16.50942762997435"><ele>1142.0</ele><time>2026-04-12T08:47:11Z</time></trkpt><trkpt lat="39.10082462271022" lon="16.50943602241384"><ele>1142.0</ele><time>2026-04-12T08:47:16Z</time></trkpt><trkpt lat="39.100766976552684" lon="16.50938790344499"><ele>1142.0</ele><time>2026-04-12T08:47:18Z</time></trkpt><trkpt lat="39.100691263451864" lon="16.5093111476705"><ele>1142.0</ele><time>2026-04-12T08:47:20Z</time></trkpt><trkpt lat="39.100611591776286" lon="16.509231971279416"><ele>1142.0</ele><time>2026-04-12T08:47:22Z</time></trkpt><trkpt lat="39.100548277697825" lon="16.509200316765916"><ele>1142.0</ele><time>2026-04-12T08:47:23Z</time></trkpt><trkpt lat="39.1004775181997" lon="16.50917652928782"><ele>1141.0</ele><time>2026-04-12T08:47:24Z</time></trkpt><trkpt lat="39.10039195233424" lon="16.509148167474258"><ele>1140.0</ele><time>2026-04-12T08:47:25Z</time></trkpt><trkpt lat="39.100308433022796" lon="16.50914311767902"><ele>1139.0</ele><time>2026-04-12T08:47:26Z</time></trkpt><trkpt lat="39.100222249864835" lon="16.50915084910374"><ele>1138.0</ele><time>2026-04-12T08:47:27Z</time></trkpt><trkpt lat="39.10013513819463" lon="16.50917247867782"><ele>1137.0</ele><time>2026-04-12T08:47:28Z</time></trkpt><trkpt lat="39.10004914145162" lon="16.509194218929103"><ele>1136.0</ele><time>2026-04-12T08:47:29Z</time></trkpt><trkpt lat="39.09995899046906" lon="16.509207823900137"><ele>1135.2</ele><time>2026-04-12T08:47:30Z</time></trkpt><trkpt lat="39.09986276848877" lon="16.509201910829763"><ele>1134.3999999999999</ele><time>2026-04-12T08:47:31Z</time></trkpt><trkpt lat="39.09977978714401" lon="16.509175803525142"><ele>1133.6</ele><time>2026-04-12T08:47:32Z</time></trkpt><trkpt lat="39.09971056636429" lon="16.509131452122304"><ele>1132.8</ele><time>2026-04-12T08:47:33Z</time></trkpt><trkpt lat="39.09962942851555" lon="16.509057545684946"><ele>1132.0</ele><time>2026-04-12T08:47:34Z</time></trkpt><trkpt lat="39.099538011891774" lon="16.508966207879368"><ele>1132.0</ele><time>2026-04-12T08:47:35Z</time></trkpt><trkpt lat="39.09942803727785" lon="16.508868858617323"><ele>1132.0</ele><time>2026-04-12T08:47:36Z</time></trkpt><trkpt lat="39.099341303194926" lon="16.50878342742222"><ele>1132.0</ele><time>2026-04-12T08:47:37Z</time></trkpt><trkpt lat="39.09925357185624" lon="16.508700818452226"><ele>1132.0</ele><time>2026-04-12T08:47:38Z</time></trkpt><trkpt lat="39.099163088941864" lon="16.508620025330053"><ele>1131.8</ele><time>2026-04-12T08:47:39Z</time></trkpt><trkpt lat="39.09905233502357" lon="16.508554185232512"><ele>1131.6</ele><time>2026-04-12T08:47:40Z</time></trkpt><trkpt lat="39.09895980626218" lon="16.508498963403284"><ele>1131.3999999999999</ele><time>2026-04-12T08:47:41Z</time></trkpt><trkpt lat="39.09885700337281" lon="16.50845647340846"><ele>1131.2</ele><time>2026-04-12T08:47:42Z</time></trkpt><trkpt lat="39.09874612878524" lon="16.50842546005396"><ele>1131.0</ele><time>2026-04-12T08:47:43Z</time></trkpt><trkpt lat="39.09864320998209" lon="16.508400782868648"><ele>1131.0</ele><time>2026-04-12T08:47:44Z</time></trkpt><trkpt lat="39.09855003317568" lon="16.508362796668685"><ele>1131.0</ele><time>2026-04-12T08:47:45Z</time></trkpt><trkpt lat="39.09846234191791" lon="16.50832202074845"><ele>1131.0</ele><time>2026-04-12T08:47:46Z</time></trkpt><trkpt lat="39.09837827484179" lon="16.50827579862141"><ele>1131.0</ele><time>2026-04-12T08:47:47Z</time></trkpt><trkpt lat="39.09830652868414" lon="16.508224054894395"><ele>1131.0</ele><time>2026-04-12T08:47:48Z</time></trkpt><trkpt lat="39.09824095896491" lon="16.508145775701898"><ele>1131.0</ele><time>2026-04-12T08:47:49Z</time></trkpt><trkpt lat="39.098170464288216" lon="16.508059705612258"><ele>1131.0</ele><time>2026-04-12T08:47:50Z</time></trkpt><trkpt lat="39.09810159003132" lon="16.50796499465497"><ele>1131.0</ele><time>2026-04-12T08:47:51Z</time></trkpt><trkpt lat="39.09803934198582" lon="16.507867942243397"><ele>1131.0</ele><time>2026-04-12T08:47:52Z</time></trkpt><trkpt lat="39.09798541636685" lon="16.507768175760635"><ele>1131.0</ele><time>2026-04-12T08:47:53Z</time></trkpt><trkpt lat="39.09792880001939" lon="16.50766296728375"><ele>1132.0</ele><time>2026-04-12T08:47:54Z</time></trkpt><trkpt lat="39.097868910937194" lon="16.507558147448883"><ele>1133.0</ele><time>2026-04-12T08:47:55Z</time></trkpt><trkpt lat="39.097808315884464" lon="16.50745319238453"><ele>1134.0</ele><time>2026-04-12T08:47:56Z</time></trkpt><trkpt lat="39.097754446297735" lon="16.50734332025474"><ele>1135.0</ele><time>2026-04-12T08:47:57Z</time></trkpt><trkpt lat="39.097707503409445" lon="16.50722738482741"><ele>1136.0</ele><time>2026-04-12T08:47:58Z</time></trkpt><trkpt lat="39.09766417879905" lon="16.507102513399097"><ele>1136.6</ele><time>2026-04-12T08:47:59Z</time></trkpt><trkpt lat="39.0976162201901" lon="16.506972355755757"><ele>1137.1999999999998</ele><time>2026-04-12T08:48:00Z</time></trkpt><trkpt lat="39.097574905828424" lon="16.506843514843883"><ele>1137.8000000000002</ele><time>2026-04-12T08:48:01Z</time></trkpt><trkpt lat="39.09753689961822" lon="16.506698150168113"><ele>1138.4</ele><time>2026-04-12T08:48:02Z</time></trkpt><trkpt lat="39.09748386035473" lon="16.506603998019617"><ele>1139.0</ele><time>2026-04-12T08:48:03Z</time></trkpt><trkpt lat="39.09742312272088" lon="16.506512812887497"><ele>1138.4</ele><time>2026-04-12T08:48:04Z</time></trkpt><trkpt lat="39.09735024065007" lon="16.50642970421418"><ele>1137.8000000000002</ele><time>2026-04-12T08:48:05Z</time></trkpt><trkpt lat="39.09728508435839" lon="16.506340540217035"><ele>1137.1999999999998</ele><time>2026-04-12T08:48:06Z</time></trkpt><trkpt lat="39.09720891128131" lon="16.50625535970044"><ele>1136.6</ele><time>2026-04-12T08:48:07Z</time></trkpt><trkpt lat="39.09711659087661" lon="16.506177954839746"><ele>1136.0</ele><time>2026-04-12T08:48:08Z</time></trkpt><trkpt lat="39.09701811809477" lon="16.506118659384768"><ele>1136.0</ele><time>2026-04-12T08:48:09Z</time></trkpt><trkpt lat="39.09691456447111" lon="16.506068962805617"><ele>1136.0</ele><time>2026-04-12T08:48:10Z</time></trkpt><trkpt lat="39.096823215306664" lon="16.50602753330971"><ele>1136.0</ele><time>2026-04-12T08:48:11Z</time></trkpt><trkpt lat="39.09673575572796" lon="16.506023101453355"><ele>1136.0</ele><time>2026-04-12T08:48:12Z</time></trkpt><trkpt lat="39.09663379207032" lon="16.506016478938736"><ele>1136.0</ele><time>2026-04-12T08:48:13Z</time></trkpt><trkpt lat="39.09651263671456" lon="16.5060126315147"><ele>1134.75</ele><time>2026-04-12T08:48:14Z</time></trkpt><trkpt lat="39.096384774147324" lon="16.506005277718074"><ele>1133.5</ele><time>2026-04-12T08:48:15Z</time></trkpt><trkpt lat="39.0962493617155" lon="16.506003081798585"><ele>1132.25</ele><time>2026-04-12T08:48:16Z</time></trkpt><trkpt lat="39.09611041242875" lon="16.505997571974586"><ele>1131.0</ele><time>2026-04-12T08:48:17Z</time></trkpt><trkpt lat="39.09596369383342" lon="16.505988552698373"><ele>1131.0</ele><time>2026-04-12T08:48:18Z</time></trkpt><trkpt lat="39.09581006939358" lon="16.505978986397924"><ele>1131.0</ele><time>2026-04-12T08:48:19Z</time></trkpt><trkpt lat="39.095652083909854" lon="16.50597333412759"><ele>1131.0</ele><time>2026-04-12T08:48:20Z</time></trkpt><trkpt lat="39.0954899491664" lon="16.505967964825427"><ele>1130.3333333333333</ele><time>2026-04-12T08:48:21Z</time></trkpt><trkpt lat="39.095319028332995" lon="16.505966108593487"><ele>1129.6666666666665</ele><time>2026-04-12T08:48:22Z</time></trkpt><trkpt lat="39.095151784310545" lon="16.50596756194908"><ele>1129.0</ele><time>2026-04-12T08:48:23Z</time></trkpt><trkpt lat="39.09498549605916" lon="16.505973165905672"><ele>1127.3333333333333</ele><time>2026-04-12T08:48:24Z</time></trkpt><trkpt lat="39.09482609006065" lon="16.505969646421725"><ele>1125.6666666666667</ele><time>2026-04-12T08:48:25Z</time></trkpt><trkpt lat="39.0946602192771" lon="16.50597029057956"><ele>1124.0</ele><time>2026-04-12T08:48:26Z</time></trkpt><trkpt lat="39.094493227688524" lon="16.505969540868673"><ele>1124.0</ele><time>2026-04-12T08:48:27Z</time></trkpt><trkpt lat="39.09433008622076" lon="16.505966240004156"><ele>1124.0</ele><time>2026-04-12T08:48:28Z</time></trkpt><trkpt lat="39.09416458031511" lon="16.505967748029555"><ele>1124.0</ele><time>2026-04-12T08:48:29Z</time></trkpt><trkpt lat="39.0940023927442" lon="16.50596169860569"><ele>1122.3333333333335</ele><time>2026-04-12T08:48:30Z</time></trkpt><trkpt lat="39.09384333095245" lon="16.505959773723507"><ele>1120.6666666666667</ele><time>2026-04-12T08:48:31Z</time></trkpt><trkpt lat="39.09369085926347" lon="16.50596874478875"><ele>1119.0</ele><time>2026-04-12T08:48:32Z</time></trkpt><trkpt lat="39.09354472200079" lon="16.505996148604943"><ele>1119.0</ele><time>2026-04-12T08:48:33Z</time></trkpt><trkpt lat="39.09340168068666" lon="16.506078147371515"><ele>1119.0</ele><time>2026-04-12T08:48:34Z</time></trkpt><trkpt lat="39.09326982151657" lon="16.50617142717487"><ele>1119.0</ele><time>2026-04-12T08:48:35Z</time></trkpt><trkpt lat="39.093147812154804" lon="16.506301511485535"><ele>1119.6666666666667</ele><time>2026-04-12T08:48:36Z</time></trkpt><trkpt lat="39.09303168444739" lon="16.506446581243335"><ele>1120.3333333333335</ele><time>2026-04-12T08:48:37Z</time></trkpt><trkpt lat="39.092905859126425" lon="16.506591237750893"><ele>1121.0</ele><time>2026-04-12T08:48:38Z</time></trkpt><trkpt lat="39.092781687344214" lon="16.50673233032307"><ele>1121.0</ele><time>2026-04-12T08:48:39Z</time></trkpt><trkpt lat="39.09266084693058" lon="16.506860949072966"><ele>1121.0</ele><time>2026-04-12T08:48:40Z</time></trkpt><trkpt lat="39.09253401110302" lon="16.506965368172203"><ele>1121.0</ele><time>2026-04-12T08:48:41Z</time></trkpt><trkpt lat="39.0924204081547" lon="16.507033993461675"><ele>1121.0</ele><time>2026-04-12T08:48:42Z</time></trkpt><trkpt lat="39.092282610241796" lon="16.507055443801427"><ele>1119.0</ele><time>2026-04-12T08:48:43Z</time></trkpt><trkpt lat="39.092128130231316" lon="16.507048717664095"><ele>1117.0</ele><time>2026-04-12T08:48:44Z</time></trkpt><trkpt lat="39.091963559682966" lon="16.507039114978312"><ele>1115.0</ele><time>2026-04-12T08:48:45Z</time></trkpt><trkpt lat="39.091799955102104" lon="16.507031603894497"><ele>1115.0</ele><time>2026-04-12T08:48:46Z</time></trkpt><trkpt lat="39.09164839289112" lon="16.507021988654625"><ele>1115.0</ele><time>2026-04-12T08:48:47Z</time></trkpt><trkpt lat="39.091489308976534" lon="16.507002008100738"><ele>1115.0</ele><time>2026-04-12T08:48:48Z</time></trkpt><trkpt lat="39.091328289901355" lon="16.506960615674213"><ele>1113.3333333333335</ele><time>2026-04-12T08:48:49Z</time></trkpt><trkpt lat="39.09116159907477" lon="16.506899179607437"><ele>1111.6666666666667</ele><time>2026-04-12T08:48:50Z</time></trkpt><trkpt lat="39.091001104080156" lon="16.506838972707552"><ele>1110.0</ele><time>2026-04-12T08:48:51Z</time></trkpt><trkpt lat="39.09084104957027" lon="16.506786503843983"><ele>1108.6666666666667</ele><time>2026-04-12T08:48:52Z</time></trkpt><trkpt lat="39.09068473408536" lon="16.50673553094573"><ele>1107.3333333333335</ele><time>2026-04-12T08:48:53Z</time></trkpt><trkpt lat="39.09053324201517" lon="16.5066918016856"><ele>1106.0</ele><time>2026-04-12T08:48:54Z</time></trkpt><trkpt lat="39.09039255534589" lon="16.506651089747805"><ele>1106.0</ele><time>2026-04-12T08:48:55Z</time></trkpt><trkpt lat="39.09025436448273" lon="16.50660850785796"><ele>1106.0</ele><time>2026-04-12T08:48:56Z</time></trkpt><trkpt lat="39.090114288951064" lon="16.50657409811709"><ele>1106.0</ele><time>2026-04-12T08:48:57Z</time></trkpt><trkpt lat="39.0899656486342" lon="16.5065415885534"><ele>1106.0</ele><time>2026-04-12T08:48:58Z</time></trkpt><trkpt lat="39.08980744519113" lon="16.5065404853721"><ele>1105.0</ele><time>2026-04-12T08:48:59Z</time></trkpt><trkpt lat="39.08964443725475" lon="16.506567126961123"><ele>1104.0</ele><time>2026-04-12T08:49:00Z</time></trkpt><trkpt lat="39.08948085237828" lon="16.506610310935212"><ele>1103.0</ele><time>2026-04-12T08:49:01Z</time></trkpt><trkpt lat="39.08931718306916" lon="16.506662041493755"><ele>1103.0</ele><time>2026-04-12T08:49:02Z</time></trkpt><trkpt lat="39.089144659148694" lon="16.506703668925116"><ele>1103.0</ele><time>2026-04-12T08:49:03Z</time></trkpt><trkpt lat="39.08897259273895" lon="16.50675260513869"><ele>1103.0</ele><time>2026-04-12T08:49:04Z</time></trkpt><trkpt lat="39.088806773951035" lon="16.506785953447086"><ele>1102.0</ele><time>2026-04-12T08:49:05Z</time></trkpt><trkpt lat="39.08864747736533" lon="16.506825372500288"><ele>1101.0</ele><time>2026-04-12T08:49:06Z</time></trkpt><trkpt lat="39.08848364232047" lon="16.506862371522455"><ele>1100.0</ele><time>2026-04-12T08:49:07Z</time></trkpt><trkpt lat="39.088322685432594" lon="16.506903709543103"><ele>1099.0</ele><time>2026-04-12T08:49:08Z</time></trkpt><trkpt lat="39.08816073290445" lon="16.50694001181679"><ele>1098.0</ele><time>2026-04-12T08:49:09Z</time></trkpt><trkpt lat="39.087997073102834" lon="16.506977451015633"><ele>1097.0</ele><time>2026-04-12T08:49:10Z</time></trkpt><trkpt lat="39.08784183459188" lon="16.507017847697778"><ele>1097.0</ele><time>2026-04-12T08:49:11Z</time></trkpt><trkpt lat="39.08768478964023" lon="16.507025783957726"><ele>1097.0</ele><time>2026-04-12T08:49:12Z</time></trkpt><trkpt lat="39.08751447581772" lon="16.507055585549406"><ele>1097.0</ele><time>2026-04-12T08:49:13Z</time></trkpt><trkpt lat="39.087349130024165" lon="16.507070343114528"><ele>1096.3333333333335</ele><time>2026-04-12T08:49:14Z</time></trkpt><trkpt lat="39.087187790416024" lon="16.507055169965213"><ele>1095.6666666666667</ele><time>2026-04-12T08:49:15Z</time></trkpt><trkpt lat="39.08702179632831" lon="16.50702662176896"><ele>1095.0</ele><time>2026-04-12T08:49:16Z</time></trkpt><trkpt lat="39.08686421452327" lon="16.506986993914282"><ele>1095.0</ele><time>2026-04-12T08:49:17Z</time></trkpt><trkpt lat="39.08669356007255" lon="16.506946495505876"><ele>1095.0</ele><time>2026-04-12T08:49:18Z</time></trkpt><trkpt lat="39.08653261064129" lon="16.506916414765357"><ele>1095.0</ele><time>2026-04-12T08:49:19Z</time></trkpt><trkpt lat="39.086367410815754" lon="16.506904367452943"><ele>1093.75</ele><time>2026-04-12T08:49:20Z</time></trkpt><trkpt lat="39.086215028193294" lon="16.506880371018575"><ele>1092.5</ele><time>2026-04-12T08:49:21Z</time></trkpt><trkpt lat="39.08608226684722" lon="16.50685355196111"><ele>1091.25</ele><time>2026-04-12T08:49:22Z</time></trkpt><trkpt lat="39.08594518396811" lon="16.506837317897343"><ele>1090.0</ele><time>2026-04-12T08:49:23Z</time></trkpt><trkpt lat="39.085795758171926" lon="16.50683927403067"><ele>1089.3333333333333</ele><time>2026-04-12T08:49:24Z</time></trkpt><trkpt lat="39.085634481311274" lon="16.506899979550685"><ele>1088.6666666666667</ele><time>2026-04-12T08:49:25Z</time></trkpt><trkpt lat="39.08547779281015" lon="16.506982854700166"><ele>1088.0</ele><time>2026-04-12T08:49:26Z</time></trkpt><trkpt lat="39.08532716025402" lon="16.507103964137773"><ele>1087.0</ele><time>2026-04-12T08:49:27Z</time></trkpt><trkpt lat="39.08518526886228" lon="16.507257519164863"><ele>1086.0</ele><time>2026-04-12T08:49:28Z</time></trkpt><trkpt lat="39.08503928608711" lon="16.50740322153447"><ele>1085.0</ele><time>2026-04-12T08:49:29Z</time></trkpt><trkpt lat="39.08488739556181" lon="16.50752783091547"><ele>1085.0</ele><time>2026-04-12T08:49:30Z</time></trkpt><trkpt lat="39.08471986511508" lon="16.507670333107235"><ele>1085.0</ele><time>2026-04-12T08:49:31Z</time></trkpt><trkpt lat="39.084556405533895" lon="16.507794695979484"><ele>1085.0</ele><time>2026-04-12T08:49:32Z</time></trkpt><trkpt lat="39.084407098440494" lon="16.5079095788524"><ele>1086.0</ele><time>2026-04-12T08:49:33Z</time></trkpt><trkpt lat="39.08426907851805" lon="16.508010620751914"><ele>1087.0</ele><time>2026-04-12T08:49:34Z</time></trkpt><trkpt lat="39.08414787413074" lon="16.508100346487872"><ele>1088.0</ele><time>2026-04-12T08:49:35Z</time></trkpt><trkpt lat="39.08403468134112" lon="16.508183223593928"><ele>1089.0</ele><time>2026-04-12T08:49:36Z</time></trkpt><trkpt lat="39.083929533917555" lon="16.508247845001772"><ele>1089.0</ele><time>2026-04-12T08:49:37Z</time></trkpt><trkpt lat="39.083829142981905" lon="16.508289200237467"><ele>1089.0</ele><time>2026-04-12T08:49:38Z</time></trkpt><trkpt lat="39.083753286126054" lon="16.508333625035473"><ele>1089.0</ele><time>2026-04-12T08:49:39Z</time></trkpt><trkpt lat="39.08367119447941" lon="16.508392522980444"><ele>1089.0</ele><time>2026-04-12T08:49:41Z</time></trkpt><trkpt lat="39.083512022852354" lon="16.508304790784194"><ele>1089.0</ele><time>2026-04-12T08:50:02Z</time></trkpt><trkpt lat="39.08343757040635" lon="16.508288715731346"><ele>1089.0</ele><time>2026-04-12T08:50:03Z</time></trkpt><trkpt lat="39.08334188931843" lon="16.508253267077585"><ele>1089.0</ele><time>2026-04-12T08:50:04Z</time></trkpt><trkpt lat="39.08323201104626" lon="16.50821740542286"><ele>1089.0</ele><time>2026-04-12T08:50:05Z</time></trkpt><trkpt lat="39.08311415452919" lon="16.508172480149394"><ele>1089.0</ele><time>2026-04-12T08:50:06Z</time></trkpt><trkpt lat="39.08299110890829" lon="16.50812213660641"><ele>1087.75</ele><time>2026-04-12T08:50:07Z</time></trkpt><trkpt lat="39.08286317682431" lon="16.508083532063242"><ele>1086.5</ele><time>2026-04-12T08:50:08Z</time></trkpt><trkpt lat="39.08272772483583" lon="16.50804296608661"><ele>1085.25</ele><time>2026-04-12T08:50:09Z</time></trkpt><trkpt lat="39.08258872932952" lon="16.508018966096053"><ele>1084.0</ele><time>2026-04-12T08:50:10Z</time></trkpt><trkpt lat="39.08244658972582" lon="16.508009525311074"><ele>1083.0</ele><time>2026-04-12T08:50:11Z</time></trkpt><trkpt lat="39.08230246986939" lon="16.50801056430266"><ele>1082.0</ele><time>2026-04-12T08:50:12Z</time></trkpt><trkpt lat="39.0821461430769" lon="16.508019226478318"><ele>1081.0</ele><time>2026-04-12T08:50:13Z</time></trkpt><trkpt lat="39.08199232005547" lon="16.50804560285017"><ele>1081.0</ele><time>2026-04-12T08:50:14Z</time></trkpt><trkpt lat="39.081839740257685" lon="16.50808362946217"><ele>1081.0</ele><time>2026-04-12T08:50:15Z</time></trkpt><trkpt lat="39.0816767248847" lon="16.50813153213959"><ele>1081.0</ele><time>2026-04-12T08:50:16Z</time></trkpt><trkpt lat="39.08151199807659" lon="16.50816928521075"><ele>1080.3333333333333</ele><time>2026-04-12T08:50:17Z</time></trkpt><trkpt lat="39.08134277523704" lon="16.508206197627185"><ele>1079.6666666666667</ele><time>2026-04-12T08:50:18Z</time></trkpt><trkpt lat="39.08117375514812" lon="16.508236572714726"><ele>1079.0</ele><time>2026-04-12T08:50:19Z</time></trkpt><trkpt lat="39.08100852261064" lon="16.508268787081068"><ele>1079.0</ele><time>2026-04-12T08:50:20Z</time></trkpt><trkpt lat="39.080856187626445" lon="16.5082955845826"><ele>1079.0</ele><time>2026-04-12T08:50:21Z</time></trkpt><trkpt lat="39.08072791718019" lon="16.508337605288595"><ele>1079.0</ele><time>2026-04-12T08:50:22Z</time></trkpt><trkpt lat="39.08060210577528" lon="16.50836634339093"><ele>1079.0</ele><time>2026-04-12T08:50:23Z</time></trkpt><trkpt lat="39.080491165686766" lon="16.508383183331777"><ele>1078.5</ele><time>2026-04-12T08:50:24Z</time></trkpt><trkpt lat="39.080362240905345" lon="16.50840435341823"><ele>1078.0</ele><time>2026-04-12T08:50:25Z</time></trkpt><trkpt lat="39.080225299820384" lon="16.50843434673841"><ele>1077.5</ele><time>2026-04-12T08:50:26Z</time></trkpt><trkpt lat="39.080105509049275" lon="16.50845545103739"><ele>1077.0</ele><time>2026-04-12T08:50:27Z</time></trkpt><trkpt lat="39.07998374269053" lon="16.508475649134517"><ele>1076.5</ele><time>2026-04-12T08:50:28Z</time></trkpt><trkpt lat="39.079857255851444" lon="16.508505772072677"><ele>1076.0</ele><time>2026-04-12T08:50:29Z</time></trkpt><trkpt lat="39.07972290293257" lon="16.508531783756904"><ele>1075.5</ele><time>2026-04-12T08:50:30Z</time></trkpt><trkpt lat="39.07958360096" lon="16.50855648638839"><ele>1075.0</ele><time>2026-04-12T08:50:31Z</time></trkpt><trkpt lat="39.079439602793364" lon="16.50858593241166"><ele>1075.0</ele><time>2026-04-12T08:50:32Z</time></trkpt><trkpt lat="39.079294333072255" lon="16.508613297112895"><ele>1075.0</ele><time>2026-04-12T08:50:33Z</time></trkpt><trkpt lat="39.07913977481153" lon="16.508649529775084"><ele>1075.0</ele><time>2026-04-12T08:50:34Z</time></trkpt><trkpt lat="39.0789936033783" lon="16.508691580346497"><ele>1074.3333333333333</ele><time>2026-04-12T08:50:35Z</time></trkpt><trkpt lat="39.078848495282394" lon="16.5087520153488"><ele>1073.6666666666667</ele><time>2026-04-12T08:50:36Z</time></trkpt><trkpt lat="39.078702946499654" lon="16.50881958291235"><ele>1073.0</ele><time>2026-04-12T08:50:37Z</time></trkpt><trkpt lat="39.07856344848854" lon="16.5089046590605"><ele>1073.0</ele><time>2026-04-12T08:50:38Z</time></trkpt><trkpt lat="39.07843406186971" lon="16.509014658317483"><ele>1073.0</ele><time>2026-04-12T08:50:39Z</time></trkpt><trkpt lat="39.078310311680625" lon="16.50911587073333"><ele>1073.0</ele><time>2026-04-12T08:50:40Z</time></trkpt><trkpt lat="39.0781886884743" lon="16.50921892679649"><ele>1073.0</ele><time>2026-04-12T08:50:41Z</time></trkpt><trkpt lat="39.078066594044245" lon="16.509325589930135"><ele>1072.0</ele><time>2026-04-12T08:50:42Z</time></trkpt><trkpt lat="39.07793557456784" lon="16.509434150772062"><ele>1071.0</ele><time>2026-04-12T08:50:43Z</time></trkpt><trkpt lat="39.07780725322527" lon="16.50954732067971"><ele>1070.0</ele><time>2026-04-12T08:50:44Z</time></trkpt><trkpt lat="39.077675731860914" lon="16.509657006338045"><ele>1071.0</ele><time>2026-04-12T08:50:45Z</time></trkpt><trkpt lat="39.07754136537691" lon="16.509772781431668"><ele>1072.0</ele><time>2026-04-12T08:50:46Z</time></trkpt><trkpt lat="39.077402297558" lon="16.509891593092984"><ele>1073.0</ele><time>2026-04-12T08:50:47Z</time></trkpt><trkpt lat="39.077274114864124" lon="16.510001751997144"><ele>1073.0</ele><time>2026-04-12T08:50:48Z</time></trkpt><trkpt lat="39.07713251237634" lon="16.510119409111166"><ele>1073.0</ele><time>2026-04-12T08:50:49Z</time></trkpt><trkpt lat="39.07699379408459" lon="16.510243440572825"><ele>1073.0</ele><time>2026-04-12T08:50:50Z</time></trkpt><trkpt lat="39.07685453684784" lon="16.510362152568614"><ele>1071.3333333333335</ele><time>2026-04-12T08:50:51Z</time></trkpt><trkpt lat="39.07671577552487" lon="16.510473140621695"><ele>1069.6666666666667</ele><time>2026-04-12T08:50:52Z</time></trkpt><trkpt lat="39.07657180427115" lon="16.51059313565374"><ele>1068.0</ele><time>2026-04-12T08:50:53Z</time></trkpt><trkpt lat="39.07644254372717" lon="16.51070086998252"><ele>1068.0</ele><time>2026-04-12T08:50:54Z</time></trkpt><trkpt lat="39.076300884697424" lon="16.510830343920773"><ele>1068.0</ele><time>2026-04-12T08:50:55Z</time></trkpt><trkpt lat="39.076149456620534" lon="16.510947681705325"><ele>1068.0</ele><time>2026-04-12T08:50:56Z</time></trkpt><trkpt lat="39.0760023275302" lon="16.511070564393336"><ele>1068.0</ele><time>2026-04-12T08:50:57Z</time></trkpt><trkpt lat="39.07586824870834" lon="16.511207363891693"><ele>1068.0</ele><time>2026-04-12T08:50:58Z</time></trkpt><trkpt lat="39.075725465435944" lon="16.51132600180532"><ele>1068.0</ele><time>2026-04-12T08:50:59Z</time></trkpt><trkpt lat="39.07557409955361" lon="16.511435299904228"><ele>1068.0</ele><time>2026-04-12T08:51:00Z</time></trkpt><trkpt lat="39.075419832747535" lon="16.511561412754563"><ele>1068.0</ele><time>2026-04-12T08:51:01Z</time></trkpt><trkpt lat="39.07528782575357" lon="16.51167858204353"><ele>1068.0</ele><time>2026-04-12T08:51:02Z</time></trkpt><trkpt lat="39.07516027677696" lon="16.51180111342496"><ele>1068.0</ele><time>2026-04-12T08:51:03Z</time></trkpt><trkpt lat="39.075053907050844" lon="16.511919964709374"><ele>1068.0</ele><time>2026-04-12T08:51:04Z</time></trkpt><trkpt lat="39.074965744491074" lon="16.5120336327651"><ele>1068.0</ele><time>2026-04-12T08:51:05Z</time></trkpt><trkpt lat="39.07488080749418" lon="16.512164201491327"><ele>1068.0</ele><time>2026-04-12T08:51:06Z</time></trkpt><trkpt lat="39.0748036064955" lon="16.51230158944718"><ele>1067.25</ele><time>2026-04-12T08:51:07Z</time></trkpt><trkpt lat="39.07472362630015" lon="16.512429951616987"><ele>1066.5</ele><time>2026-04-12T08:51:08Z</time></trkpt><trkpt lat="39.07466633862266" lon="16.512547018753047"><ele>1065.75</ele><time>2026-04-12T08:51:09Z</time></trkpt><trkpt lat="39.074587894116206" lon="16.512672031167085"><ele>1065.0</ele><time>2026-04-12T08:51:11Z</time></trkpt><trkpt lat="39.074489614797805" lon="16.512860123397036"><ele>1065.1666666666667</ele><time>2026-04-12T08:51:12Z</time></trkpt><trkpt lat="39.074431131614375" lon="16.51294400013019"><ele>1065.3333333333333</ele><time>2026-04-12T08:51:13Z</time></trkpt><trkpt lat="39.07440136344877" lon="16.51301797445103"><ele>1065.5</ele><time>2026-04-12T08:51:14Z</time></trkpt><trkpt lat="39.074346777013155" lon="16.51312925037894"><ele>1065.6666666666665</ele><time>2026-04-12T08:51:16Z</time></trkpt><trkpt lat="39.0742844711857" lon="16.5132164533265"><ele>1065.8333333333333</ele><time>2026-04-12T08:51:18Z</time></trkpt><trkpt lat="39.07428936252233" lon="16.513331055254092"><ele>1066.0</ele><time>2026-04-12T08:51:20Z</time></trkpt><trkpt lat="39.07426728992123" lon="16.513437893937912"><ele>1066.0</ele><time>2026-04-12T08:51:22Z</time></trkpt><trkpt lat="39.074136387747885" lon="16.513469782990313"><ele>1066.0</ele><time>2026-04-12T08:51:24Z</time></trkpt><trkpt lat="39.074091742047074" lon="16.513532315576235"><ele>1066.0</ele><time>2026-04-12T08:51:25Z</time></trkpt><trkpt lat="39.07403900719132" lon="16.51359763083816"><ele>1066.0</ele><time>2026-04-12T08:51:26Z</time></trkpt><trkpt lat="39.074059670471485" lon="16.513758711988082"><ele>1066.0</ele><time>2026-04-12T08:51:27Z</time></trkpt><trkpt lat="39.07401262798776" lon="16.513819013724753"><ele>1068.0</ele><time>2026-04-12T08:51:28Z</time></trkpt><trkpt lat="39.07394540036255" lon="16.51390583037785"><ele>1070.0</ele><time>2026-04-12T08:51:30Z</time></trkpt><trkpt lat="39.07391571760773" lon="16.51397941457213"><ele>1072.0</ele><time>2026-04-12T08:51:33Z</time></trkpt><trkpt lat="39.07389350672804" lon="16.51412274032085"><ele>1074.0</ele><time>2026-04-12T08:52:00Z</time></trkpt><trkpt lat="39.073924745110254" lon="16.51419788016337"><ele>1076.0</ele><time>2026-04-12T08:52:01Z</time></trkpt><trkpt lat="39.07397214830323" lon="16.51434532920986"><ele>1076.0</ele><time>2026-04-12T08:52:03Z</time></trkpt><trkpt lat="39.07400965412027" lon="16.51441166015459"><ele>1076.0</ele><time>2026-04-12T08:52:04Z</time></trkpt><trkpt lat="39.074049360986336" lon="16.514475833937645"><ele>1076.0</ele><time>2026-04-12T08:52:05Z</time></trkpt><trkpt lat="39.07410245065507" lon="16.514599117073434"><ele>1076.0</ele><time>2026-04-12T08:52:06Z</time></trkpt><trkpt lat="39.07415082759601" lon="16.51474995472706"><ele>1076.0</ele><time>2026-04-12T08:52:08Z</time></trkpt><trkpt lat="39.074149617024055" lon="16.51484657474264"><ele>1076.0</ele><time>2026-04-12T08:52:09Z</time></trkpt><trkpt lat="39.07411345234555" lon="16.5149541189394"><ele>1079.0</ele><time>2026-04-12T08:52:10Z</time></trkpt><trkpt lat="39.07406189254845" lon="16.51503188302401"><ele>1082.0</ele><time>2026-04-12T08:52:11Z</time></trkpt><trkpt lat="39.07400461228813" lon="16.5151243577882"><ele>1085.0</ele><time>2026-04-12T08:52:12Z</time></trkpt><trkpt lat="39.07396436452514" lon="16.515222523516798"><ele>1088.0</ele><time>2026-04-12T08:52:13Z</time></trkpt><trkpt lat="39.07394999751037" lon="16.51531533381616"><ele>1091.0</ele><time>2026-04-12T08:52:14Z</time></trkpt><trkpt lat="39.07394345222" lon="16.515454782398095"><ele>1094.0</ele><time>2026-04-12T08:52:15Z</time></trkpt><trkpt lat="39.07392593940988" lon="16.515586913590564"><ele>1094.0</ele><time>2026-04-12T08:52:16Z</time></trkpt><trkpt lat="39.07391838268686" lon="16.515733337789044"><ele>1094.0</ele><time>2026-04-12T08:52:17Z</time></trkpt><trkpt lat="39.073893961952294" lon="16.51592098186815"><ele>1094.0</ele><time>2026-04-12T08:52:18Z</time></trkpt><trkpt lat="39.07384159525928" lon="16.516079259090187"><ele>1094.0</ele><time>2026-04-12T08:52:19Z</time></trkpt><trkpt lat="39.073792281044575" lon="16.516195199397078"><ele>1094.3333333333335</ele><time>2026-04-12T08:52:20Z</time></trkpt><trkpt lat="39.073745589721675" lon="16.51632007289951"><ele>1094.6666666666667</ele><time>2026-04-12T08:52:21Z</time></trkpt><trkpt lat="39.073713341467915" lon="16.516397024510184"><ele>1095.0</ele><time>2026-04-12T08:52:22Z</time></trkpt><trkpt lat="39.07375941539139" lon="16.516501484026254"><ele>1095.3333333333333</ele><time>2026-04-12T08:52:24Z</time></trkpt><trkpt lat="39.07379967601477" lon="16.516568136804867"><ele>1095.6666666666665</ele><time>2026-04-12T08:52:25Z</time></trkpt><trkpt lat="39.073885007156484" lon="16.516662920674857"><ele>1096.0</ele><time>2026-04-12T08:52:26Z</time></trkpt><trkpt lat="39.07393708990894" lon="16.516708772201454"><ele>1096.0</ele><time>2026-04-12T08:52:27Z</time></trkpt><trkpt lat="39.07397354500189" lon="16.516787163442643"><ele>1096.0</ele><time>2026-04-12T08:52:28Z</time></trkpt><trkpt lat="39.074018632994076" lon="16.516919528522617"><ele>1096.0</ele><time>2026-04-12T08:52:30Z</time></trkpt><trkpt lat="39.07405877928357" lon="16.51700950238682"><ele>1096.0</ele><time>2026-04-12T08:52:32Z</time></trkpt><trkpt lat="39.07412979480091" lon="16.51708237427188"><ele>1096.0</ele><time>2026-04-12T08:52:34Z</time></trkpt><trkpt lat="39.07420384538986" lon="16.517142871600175"><ele>1096.0</ele><time>2026-04-12T08:52:36Z</time></trkpt><trkpt lat="39.07425689361814" lon="16.517241233672273"><ele>1097.5</ele><time>2026-04-12T08:52:37Z</time></trkpt><trkpt lat="39.07430464161523" lon="16.517325210793725"><ele>1099.0</ele><time>2026-04-12T08:52:38Z</time></trkpt><trkpt lat="39.07435943548977" lon="16.517425194552434"><ele>1100.5</ele><time>2026-04-12T08:52:39Z</time></trkpt><trkpt lat="39.07439819049449" lon="16.517503271181752"><ele>1102.0</ele><time>2026-04-12T08:52:40Z</time></trkpt><trkpt lat="39.07442923614293" lon="16.5175764672695"><ele>1103.5</ele><time>2026-04-12T08:52:41Z</time></trkpt><trkpt lat="39.0744579012691" lon="16.517651490529783"><ele>1105.0</ele><time>2026-04-12T08:52:42Z</time></trkpt><trkpt lat="39.07449184179574" lon="16.517746456529192"><ele>1105.0</ele><time>2026-04-12T08:52:43Z</time></trkpt><trkpt lat="39.074526427136114" lon="16.51784322677601"><ele>1105.0</ele><time>2026-04-12T08:52:44Z</time></trkpt><trkpt lat="39.07456829329699" lon="16.517960368437276"><ele>1105.0</ele><time>2026-04-12T08:52:45Z</time></trkpt><trkpt lat="39.07459468630005" lon="16.518069326400212"><ele>1105.0</ele><time>2026-04-12T08:52:46Z</time></trkpt><trkpt lat="39.07460430790481" lon="16.518174678191027"><ele>1105.0</ele><time>2026-04-12T08:52:47Z</time></trkpt><trkpt lat="39.07459618819759" lon="16.51827479870861"><ele>1105.0</ele><time>2026-04-12T08:52:48Z</time></trkpt><trkpt lat="39.074592058150124" lon="16.518389358101622"><ele>1106.2857142857142</ele><time>2026-04-12T08:52:49Z</time></trkpt><trkpt lat="39.07459297761101" lon="16.518490497897837"><ele>1107.5714285714287</ele><time>2026-04-12T08:52:50Z</time></trkpt><trkpt lat="39.07459876450421" lon="16.5185918110682"><ele>1108.857142857143</ele><time>2026-04-12T08:52:51Z</time></trkpt><trkpt lat="39.0746302132839" lon="16.51868545385277"><ele>1110.142857142857</ele><time>2026-04-12T08:52:52Z</time></trkpt><trkpt lat="39.07463951689039" lon="16.518779634288368"><ele>1111.4285714285713</ele><time>2026-04-12T08:52:53Z</time></trkpt><trkpt lat="39.074668545826306" lon="16.51885699864888"><ele>1112.7142857142858</ele><time>2026-04-12T08:52:54Z</time></trkpt><trkpt lat="39.0746851972298" lon="16.518947486999952"><ele>1114.0</ele><time>2026-04-12T08:52:55Z</time></trkpt><trkpt lat="39.074717959369366" lon="16.519034600985805"><ele>1116.1666666666665</ele><time>2026-04-12T08:52:56Z</time></trkpt><trkpt lat="39.07473854173838" lon="16.519131873449936"><ele>1118.3333333333333</ele><time>2026-04-12T08:52:57Z</time></trkpt><trkpt lat="39.07477819433522" lon="16.51922013079804"><ele>1120.5</ele><time>2026-04-12T08:52:58Z</time></trkpt><trkpt lat="39.074834161728496" lon="16.519297682903304"><ele>1122.6666666666667</ele><time>2026-04-12T08:52:59Z</time></trkpt><trkpt lat="39.0748721786546" lon="16.51940409887167"><ele>1124.8333333333335</ele><time>2026-04-12T08:53:00Z</time></trkpt><trkpt lat="39.074940356566614" lon="16.51948055788515"><ele>1127.0</ele><time>2026-04-12T08:53:01Z</time></trkpt><trkpt lat="39.0750389435989" lon="16.519531583299656"><ele>1127.8333333333335</ele><time>2026-04-12T08:53:02Z</time></trkpt><trkpt lat="39.07511240482655" lon="16.519614558042722"><ele>1128.6666666666667</ele><time>2026-04-12T08:53:03Z</time></trkpt><trkpt lat="39.075196510542206" lon="16.519675258476894"><ele>1129.5</ele><time>2026-04-12T08:53:04Z</time></trkpt><trkpt lat="39.07527019924226" lon="16.51975166612163"><ele>1130.3333333333333</ele><time>2026-04-12T08:53:05Z</time></trkpt><trkpt lat="39.07532289368982" lon="16.519805394381045"><ele>1131.1666666666665</ele><time>2026-04-12T08:53:06Z</time></trkpt><trkpt lat="39.075388543153394" lon="16.51984919474819"><ele>1132.0</ele><time>2026-04-12T08:53:07Z</time></trkpt><trkpt lat="39.07546154448618" lon="16.519881579618254"><ele>1132.0</ele><time>2026-04-12T08:53:08Z</time></trkpt><trkpt lat="39.07557795525879" lon="16.51989849796495"><ele>1132.0</ele><time>2026-04-12T08:53:11Z</time></trkpt><trkpt lat="39.07565370730767" lon="16.519891615561573"><ele>1132.0</ele><time>2026-04-12T08:53:13Z</time></trkpt><trkpt lat="39.07581815592106" lon="16.519833761946334"><ele>1132.0</ele><time>2026-04-12T08:53:16Z</time></trkpt><trkpt lat="39.07606424538016" lon="16.519730778717655"><ele>1134.25</ele><time>2026-04-12T08:53:17Z</time></trkpt><trkpt lat="39.076238824560306" lon="16.519666623343447"><ele>1136.5</ele><time>2026-04-12T08:53:18Z</time></trkpt><trkpt lat="39.07637384340956" lon="16.51966392966896"><ele>1138.75</ele><time>2026-04-12T08:53:19Z</time></trkpt><trkpt lat="39.07643436289031" lon="16.51970276930744"><ele>1141.0</ele><time>2026-04-12T08:53:21Z</time></trkpt><trkpt lat="39.076522678960345" lon="16.519771952716113"><ele>1142.5</ele><time>2026-04-12T08:53:23Z</time></trkpt><trkpt lat="39.0766062855472" lon="16.519878247636765"><ele>1144.0</ele><time>2026-04-12T08:53:24Z</time></trkpt><trkpt lat="39.07669035567437" lon="16.519946555866838"><ele>1145.5</ele><time>2026-04-12T08:53:26Z</time></trkpt><trkpt lat="39.07677193110484" lon="16.51998055176823"><ele>1147.0</ele><time>2026-04-12T08:53:27Z</time></trkpt><trkpt lat="39.07695038332806" lon="16.519909101510468"><ele>1147.0</ele><time>2026-04-12T08:53:28Z</time></trkpt><trkpt lat="39.07707288046784" lon="16.519858992657014"><ele>1147.0</ele><time>2026-04-12T08:53:29Z</time></trkpt><trkpt lat="39.077160852252725" lon="16.519850536372743"><ele>1147.0</ele><time>2026-04-12T08:53:30Z</time></trkpt><trkpt lat="39.07723299039726" lon="16.519866501975468"><ele>1147.0</ele><time>2026-04-12T08:53:31Z</time></trkpt><trkpt lat="39.07729296843277" lon="16.51993116230889"><ele>1147.0</ele><time>2026-04-12T08:53:33Z</time></trkpt><trkpt lat="39.07734100283269" lon="16.520008033362238"><ele>1147.0</ele><time>2026-04-12T08:53:34Z</time></trkpt><trkpt lat="39.07736645396948" lon="16.520120507228814"><ele>1147.0</ele><time>2026-04-12T08:53:35Z</time></trkpt><trkpt lat="39.07738318328664" lon="16.520238938065162"><ele>1147.0</ele><time>2026-04-12T08:53:36Z</time></trkpt><trkpt lat="39.07737739635027" lon="16.520324357706972"><ele>1147.0</ele><time>2026-04-12T08:53:37Z</time></trkpt><trkpt lat="39.077366216716094" lon="16.520405861944365"><ele>1147.0</ele><time>2026-04-12T08:53:38Z</time></trkpt><trkpt lat="39.07734654877512" lon="16.52049979862883"><ele>1147.0</ele><time>2026-04-12T08:53:40Z</time></trkpt><trkpt lat="39.07732589397625" lon="16.520590020295"><ele>1147.0</ele><time>2026-04-12T08:53:43Z</time></trkpt><trkpt lat="39.07724694230014" lon="16.520857170433704"><ele>1149.6</ele><time>2026-04-12T08:53:45Z</time></trkpt><trkpt lat="39.07719310865026" lon="16.52097485837751"><ele>1152.2</ele><time>2026-04-12T08:53:46Z</time></trkpt><trkpt lat="39.07712884680668" lon="16.521095398928843"><ele>1154.8</ele><time>2026-04-12T08:53:47Z</time></trkpt><trkpt lat="39.07707587909328" lon="16.521179923814298"><ele>1157.4</ele><time>2026-04-12T08:53:48Z</time></trkpt><trkpt lat="39.077004175143685" lon="16.52127447758307"><ele>1160.0</ele><time>2026-04-12T08:53:49Z</time></trkpt><trkpt lat="39.076953455218565" lon="16.521335693102454"><ele>1161.5</ele><time>2026-04-12T08:53:50Z</time></trkpt><trkpt lat="39.07686272634998" lon="16.521439522382874"><ele>1163.0</ele><time>2026-04-12T08:53:52Z</time></trkpt><trkpt lat="39.07682749482484" lon="16.521507374101326"><ele>1164.5</ele><time>2026-04-12T08:53:53Z</time></trkpt><trkpt lat="39.07677770965467" lon="16.52156081028589"><ele>1166.0</ele><time>2026-04-12T08:53:54Z</time></trkpt><trkpt lat="39.076723856352096" lon="16.521619156585256"><ele>1167.5</ele><time>2026-04-12T08:53:55Z</time></trkpt><trkpt lat="39.07667349761702" lon="16.52166982861675"><ele>1169.0</ele><time>2026-04-12T08:53:56Z</time></trkpt><trkpt lat="39.076602691638854" lon="16.52178368128672"><ele>1170.2</ele><time>2026-04-12T08:53:58Z</time></trkpt><trkpt lat="39.07653509545857" lon="16.521854879888437"><ele>1171.4</ele><time>2026-04-12T08:54:00Z</time></trkpt><trkpt lat="39.076487795502636" lon="16.52191976560876"><ele>1172.6</ele><time>2026-04-12T08:54:01Z</time></trkpt><trkpt lat="39.07641893895297" lon="16.52201045926908"><ele>1173.8</ele><time>2026-04-12T08:54:03Z</time></trkpt><trkpt lat="39.07634941726874" lon="16.522102359754292"><ele>1175.0</ele><time>2026-04-12T08:54:05Z</time></trkpt><trkpt lat="39.076287765678835" lon="16.522223040327088"><ele>1175.1666666666667</ele><time>2026-04-12T08:54:07Z</time></trkpt><trkpt lat="39.076247241898585" lon="16.522307575213304"><ele>1175.3333333333335</ele><time>2026-04-12T08:54:08Z</time></trkpt><trkpt lat="39.07619975364428" lon="16.52240257621758"><ele>1175.5</ele><time>2026-04-12T08:54:10Z</time></trkpt><trkpt lat="39.07615309058472" lon="16.52247723926606"><ele>1175.6666666666667</ele><time>2026-04-12T08:54:11Z</time></trkpt><trkpt lat="39.07613954044563" lon="16.522571576135498"><ele>1175.8333333333333</ele><time>2026-04-12T08:54:12Z</time></trkpt><trkpt lat="39.076089839990104" lon="16.522682449844883"><ele>1176.0</ele><time>2026-04-12T08:54:13Z</time></trkpt><trkpt lat="39.07604757591393" lon="16.522804629556234"><ele>1176.0</ele><time>2026-04-12T08:54:14Z</time></trkpt><trkpt lat="39.0760176967552" lon="16.522895636149855"><ele>1176.0</ele><time>2026-04-12T08:54:15Z</time></trkpt><trkpt lat="39.075969609498806" lon="16.522990041277794"><ele>1176.0</ele><time>2026-04-12T08:54:16Z</time></trkpt><trkpt lat="39.07588846856385" lon="16.523102945288326"><ele>1176.0</ele><time>2026-04-12T08:54:17Z</time></trkpt><trkpt lat="39.075741297058975" lon="16.52321964136433"><ele>1174.6</ele><time>2026-04-12T08:54:18Z</time></trkpt><trkpt lat="39.07565010715659" lon="16.52328562222251"><ele>1173.1999999999998</ele><time>2026-04-12T08:54:19Z</time></trkpt><trkpt lat="39.07557526459597" lon="16.523366904767734"><ele>1171.8000000000002</ele><time>2026-04-12T08:54:20Z</time></trkpt><trkpt lat="39.07551535280025" lon="16.52345236050456"><ele>1170.4</ele><time>2026-04-12T08:54:21Z</time></trkpt><trkpt lat="39.07546096694446" lon="16.523556357897576"><ele>1169.0</ele><time>2026-04-12T08:54:22Z</time></trkpt><trkpt lat="39.07541305214088" lon="16.523650686463093"><ele>1169.4</ele><time>2026-04-12T08:54:23Z</time></trkpt><trkpt lat="39.075350124078774" lon="16.523744505522476"><ele>1169.8000000000002</ele><time>2026-04-12T08:54:24Z</time></trkpt><trkpt lat="39.07529337297075" lon="16.52381822036308"><ele>1170.1999999999998</ele><time>2026-04-12T08:54:25Z</time></trkpt><trkpt lat="39.075207355980204" lon="16.52387234386467"><ele>1170.6</ele><time>2026-04-12T08:54:26Z</time></trkpt><trkpt lat="39.07513541707377" lon="16.523912233509908"><ele>1171.0</ele><time>2026-04-12T08:54:27Z</time></trkpt><trkpt lat="39.075003771522404" lon="16.52397923965603"><ele>1171.0</ele><time>2026-04-12T08:54:29Z</time></trkpt><trkpt lat="39.0749419047266" lon="16.52400469994464"><ele>1171.0</ele><time>2026-04-12T08:54:30Z</time></trkpt><trkpt lat="39.07483155215199" lon="16.524061691012705"><ele>1171.0</ele><time>2026-04-12T08:54:32Z</time></trkpt><trkpt lat="39.0747642461781" lon="16.524085593884646"><ele>1171.0</ele><time>2026-04-12T08:54:33Z</time></trkpt><trkpt lat="39.07467455811805" lon="16.524105668804506"><ele>1171.0</ele><time>2026-04-12T08:54:34Z</time></trkpt><trkpt lat="39.074574865835075" lon="16.524126388340257"><ele>1171.0</ele><time>2026-04-12T08:54:35Z</time></trkpt><trkpt lat="39.074469330726174" lon="16.524183581325378"><ele>1172.0</ele><time>2026-04-12T08:54:36Z</time></trkpt><trkpt lat="39.07437369111834" lon="16.524257737727996"><ele>1173.0</ele><time>2026-04-12T08:54:37Z</time></trkpt><trkpt lat="39.07424737802254" lon="16.524352663653136"><ele>1174.0</ele><time>2026-04-12T08:54:38Z</time></trkpt><trkpt lat="39.07410498625581" lon="16.524456120705576"><ele>1175.0</ele><time>2026-04-12T08:54:39Z</time></trkpt><trkpt lat="39.073979331467974" lon="16.52460582989679"><ele>1179.6666666666667</ele><time>2026-04-12T08:54:40Z</time></trkpt><trkpt lat="39.07382580008134" lon="16.524747575540186"><ele>1184.3333333333333</ele><time>2026-04-12T08:54:41Z</time></trkpt><trkpt lat="39.07371761772751" lon="16.524862840530197"><ele>1189.0</ele><time>2026-04-12T08:54:42Z</time></trkpt><trkpt lat="39.073612908694905" lon="16.524972234871758"><ele>1189.0</ele><time>2026-04-12T08:54:43Z</time></trkpt><trkpt lat="39.07350286271853" lon="16.525062690929744"><ele>1189.0</ele><time>2026-04-12T08:54:44Z</time></trkpt><trkpt lat="39.073374301976344" lon="16.52516758174053"><ele>1189.0</ele><time>2026-04-12T08:54:45Z</time></trkpt><trkpt lat="39.07326660195396" lon="16.525309094108994"><ele>1189.0</ele><time>2026-04-12T08:54:46Z</time></trkpt><trkpt lat="39.07314856142155" lon="16.525472546555886"><ele>1191.6666666666665</ele><time>2026-04-12T08:54:47Z</time></trkpt><trkpt lat="39.07302490225933" lon="16.52561599228945"><ele>1194.3333333333333</ele><time>2026-04-12T08:54:48Z</time></trkpt><trkpt lat="39.07292850947719" lon="16.525761442882136"><ele>1197.0</ele><time>2026-04-12T08:54:49Z</time></trkpt><trkpt lat="39.07285016564845" lon="16.52593380275772"><ele>1197.0</ele><time>2026-04-12T08:54:50Z</time></trkpt><trkpt lat="39.072761165242966" lon="16.526034897565633"><ele>1197.0</ele><time>2026-04-12T08:54:51Z</time></trkpt><trkpt lat="39.07268522353111" lon="16.52609229147088"><ele>1197.0</ele><time>2026-04-12T08:54:52Z</time></trkpt><trkpt lat="39.07261770412816" lon="16.5261566498108"><ele>1197.0</ele><time>2026-04-12T08:54:53Z</time></trkpt><trkpt lat="39.07255115481407" lon="16.526160521956733"><ele>1197.0</ele><time>2026-04-12T08:54:54Z</time></trkpt><trkpt lat="39.07245553787415" lon="16.526102727868498"><ele>1198.6</ele><time>2026-04-12T08:54:55Z</time></trkpt><trkpt lat="39.07235749520499" lon="16.5260574076047"><ele>1200.2</ele><time>2026-04-12T08:54:56Z</time></trkpt><trkpt lat="39.07228439419046" lon="16.525941929473177"><ele>1201.8</ele><time>2026-04-12T08:54:57Z</time></trkpt><trkpt lat="39.07220243972855" lon="16.5258794884255"><ele>1203.4</ele><time>2026-04-12T08:54:58Z</time></trkpt><trkpt lat="39.07211075644955" lon="16.525833518231757"><ele>1205.0</ele><time>2026-04-12T08:54:59Z</time></trkpt><trkpt lat="39.07201912449085" lon="16.5258206197369"><ele>1205.0</ele><time>2026-04-12T08:55:00Z</time></trkpt><trkpt lat="39.07191395709702" lon="16.52585325231726"><ele>1205.0</ele><time>2026-04-12T08:55:01Z</time></trkpt><trkpt lat="39.07177774270644" lon="16.52590160580556"><ele>1205.0</ele><time>2026-04-12T08:55:02Z</time></trkpt><trkpt lat="39.07166142151066" lon="16.52597240885708"><ele>1205.0</ele><time>2026-04-12T08:55:03Z</time></trkpt><trkpt lat="39.07150918864136" lon="16.52605291040418"><ele>1206.75</ele><time>2026-04-12T08:55:04Z</time></trkpt><trkpt lat="39.07136866354681" lon="16.526138115864814"><ele>1208.5</ele><time>2026-04-12T08:55:05Z</time></trkpt><trkpt lat="39.07124954732918" lon="16.5261914578629"><ele>1210.25</ele><time>2026-04-12T08:55:06Z</time></trkpt><trkpt lat="39.07116389651549" lon="16.526278311370145"><ele>1212.0</ele><time>2026-04-12T08:55:07Z</time></trkpt><trkpt lat="39.07108389676717" lon="16.526364883208966"><ele>1212.2</ele><time>2026-04-12T08:55:08Z</time></trkpt><trkpt lat="39.07101514816531" lon="16.526467908008453"><ele>1212.4</ele><time>2026-04-12T08:55:09Z</time></trkpt><trkpt lat="39.0709125498889" lon="16.526534650348633"><ele>1212.6</ele><time>2026-04-12T08:55:10Z</time></trkpt><trkpt lat="39.07082090977643" lon="16.52660328271365"><ele>1212.8</ele><time>2026-04-12T08:55:11Z</time></trkpt><trkpt lat="39.07072141832314" lon="16.52667517957741"><ele>1213.0</ele><time>2026-04-12T08:55:12Z</time></trkpt><trkpt lat="39.070583503267855" lon="16.526774221273765"><ele>1213.0</ele><time>2026-04-12T08:55:13Z</time></trkpt><trkpt lat="39.070462580907986" lon="16.526861060185812"><ele>1213.0</ele><time>2026-04-12T08:55:14Z</time></trkpt><trkpt lat="39.07035493577188" lon="16.526926801795216"><ele>1213.0</ele><time>2026-04-12T08:55:15Z</time></trkpt><trkpt lat="39.070242099039376" lon="16.526989535143517"><ele>1213.0</ele><time>2026-04-12T08:55:16Z</time></trkpt><trkpt lat="39.070109729438535" lon="16.527068745739978"><ele>1213.8</ele><time>2026-04-12T08:55:17Z</time></trkpt><trkpt lat="39.06999372548899" lon="16.527138736746213"><ele>1214.6</ele><time>2026-04-12T08:55:18Z</time></trkpt><trkpt lat="39.069929573123076" lon="16.527203092624674"><ele>1215.4</ele><time>2026-04-12T08:55:19Z</time></trkpt><trkpt lat="39.069849842818236" lon="16.527270339332052"><ele>1216.2</ele><time>2026-04-12T08:55:20Z</time></trkpt><trkpt lat="39.069729248900884" lon="16.52736779749753"><ele>1217.0</ele><time>2026-04-12T08:55:21Z</time></trkpt><trkpt lat="39.069574634069845" lon="16.52746468200715"><ele>1217.3333333333335</ele><time>2026-04-12T08:55:22Z</time></trkpt><trkpt lat="39.06940941744975" lon="16.527570416938037"><ele>1217.6666666666667</ele><time>2026-04-12T08:55:23Z</time></trkpt><trkpt lat="39.06925912693257" lon="16.527667133523572"><ele>1218.0</ele><time>2026-04-12T08:55:24Z</time></trkpt><trkpt lat="39.06912982853359" lon="16.527728157395934"><ele>1219.6</ele><time>2026-04-12T08:55:25Z</time></trkpt><trkpt lat="39.06902024719876" lon="16.52777486207771"><ele>1221.1999999999998</ele><time>2026-04-12T08:55:26Z</time></trkpt><trkpt lat="39.06891766218903" lon="16.527808960972223"><ele>1222.8</ele><time>2026-04-12T08:55:27Z</time></trkpt><trkpt lat="39.068833460034995" lon="16.527809849482253"><ele>1224.3999999999999</ele><time>2026-04-12T08:55:28Z</time></trkpt><trkpt lat="39.068749121655166" lon="16.527795028579447"><ele>1226.0</ele><time>2026-04-12T08:55:29Z</time></trkpt><trkpt lat="39.06864411961111" lon="16.527724523046"><ele>1226.0</ele><time>2026-04-12T08:55:30Z</time></trkpt><trkpt lat="39.06851334285861" lon="16.527665473597203"><ele>1226.0</ele><time>2026-04-12T08:55:31Z</time></trkpt><trkpt lat="39.06835936669951" lon="16.52763792724631"><ele>1226.0</ele><time>2026-04-12T08:55:32Z</time></trkpt><trkpt lat="39.068179183679874" lon="16.527591129392846"><ele>1228.0</ele><time>2026-04-12T08:55:33Z</time></trkpt><trkpt lat="39.068018068990085" lon="16.527538996922683"><ele>1230.0</ele><time>2026-04-12T08:55:34Z</time></trkpt><trkpt lat="39.067877205800826" lon="16.527488520380405"><ele>1232.0</ele><time>2026-04-12T08:55:35Z</time></trkpt><trkpt lat="39.06775453963337" lon="16.527444980856448"><ele>1234.0</ele><time>2026-04-12T08:55:36Z</time></trkpt><trkpt lat="39.06763486562312" lon="16.527402333582238"><ele>1234.0</ele><time>2026-04-12T08:55:37Z</time></trkpt><trkpt lat="39.0675342443256" lon="16.52737334689979"><ele>1234.0</ele><time>2026-04-12T08:55:38Z</time></trkpt><trkpt lat="39.067412013460924" lon="16.527372139390007"><ele>1234.0</ele><time>2026-04-12T08:55:39Z</time></trkpt><trkpt lat="39.067255163779556" lon="16.527366027778513"><ele>1234.0</ele><time>2026-04-12T08:55:40Z</time></trkpt><trkpt lat="39.06710781986182" lon="16.527368344005044"><ele>1236.0</ele><time>2026-04-12T08:55:41Z</time></trkpt><trkpt lat="39.06698728783749" lon="16.527358688682213"><ele>1238.0</ele><time>2026-04-12T08:55:42Z</time></trkpt><trkpt lat="39.066875328843956" lon="16.527346135597135"><ele>1240.0</ele><time>2026-04-12T08:55:43Z</time></trkpt><trkpt lat="39.066740005603734" lon="16.527354966092428"><ele>1242.0</ele><time>2026-04-12T08:55:44Z</time></trkpt><trkpt lat="39.06663366758708" lon="16.52735231764027"><ele>1243.25</ele><time>2026-04-12T08:55:45Z</time></trkpt><trkpt lat="39.0665448926026" lon="16.52738207680837"><ele>1244.5</ele><time>2026-04-12T08:55:46Z</time></trkpt><trkpt lat="39.066471655321784" lon="16.527448079411624"><ele>1245.75</ele><time>2026-04-12T08:55:47Z</time></trkpt><trkpt lat="39.0663604487442" lon="16.527526707013088"><ele>1247.0</ele><time>2026-04-12T08:55:48Z</time></trkpt><trkpt lat="39.06623791375007" lon="16.52765299870463"><ele>1247.0</ele><time>2026-04-12T08:55:49Z</time></trkpt><trkpt lat="39.06608981251784" lon="16.527766410740895"><ele>1247.0</ele><time>2026-04-12T08:55:50Z</time></trkpt><trkpt lat="39.06593460188917" lon="16.527866785501594"><ele>1247.0</ele><time>2026-04-12T08:55:51Z</time></trkpt><trkpt lat="39.065775720434885" lon="16.528005965308072"><ele>1245.3333333333335</ele><time>2026-04-12T08:55:52Z</time></trkpt><trkpt lat="39.06562871766844" lon="16.528128109901406"><ele>1243.6666666666667</ele><time>2026-04-12T08:55:53Z</time></trkpt><trkpt lat="39.06549846004304" lon="16.528244136043263"><ele>1242.0</ele><time>2026-04-12T08:55:54Z</time></trkpt><trkpt lat="39.06537249585366" lon="16.528354993537636"><ele>1242.0</ele><time>2026-04-12T08:55:55Z</time></trkpt><trkpt lat="39.06526830710912" lon="16.528464746338127"><ele>1242.0</ele><time>2026-04-12T08:55:56Z</time></trkpt><trkpt lat="39.06516336312641" lon="16.528543199935985"><ele>1242.0</ele><time>2026-04-12T08:55:57Z</time></trkpt><trkpt lat="39.065063202997955" lon="16.528637274979335"><ele>1242.0</ele><time>2026-04-12T08:55:58Z</time></trkpt><trkpt lat="39.064942272427004" lon="16.528761958319727"><ele>1246.6666666666667</ele><time>2026-04-12T08:55:59Z</time></trkpt><trkpt lat="39.0648226558296" lon="16.52891770195493"><ele>1251.3333333333335</ele><time>2026-04-12T08:56:00Z</time></trkpt><trkpt lat="39.064687239049405" lon="16.529075771211524"><ele>1256.0</ele><time>2026-04-12T08:56:01Z</time></trkpt><trkpt lat="39.06453871393572" lon="16.529197186021346"><ele>1256.0</ele><time>2026-04-12T08:56:02Z</time></trkpt><trkpt lat="39.06442095061519" lon="16.529363804393952"><ele>1256.0</ele><time>2026-04-12T08:56:03Z</time></trkpt><trkpt lat="39.064330562334554" lon="16.529484259408363"><ele>1256.0</ele><time>2026-04-12T08:56:04Z</time></trkpt><trkpt lat="39.06422886448405" lon="16.529616490705546"><ele>1256.0</ele><time>2026-04-12T08:56:05Z</time></trkpt><trkpt lat="39.064128685834085" lon="16.529766990864086"><ele>1259.5</ele><time>2026-04-12T08:56:06Z</time></trkpt><trkpt lat="39.064021056286386" lon="16.529907647126322"><ele>1263.0</ele><time>2026-04-12T08:56:07Z</time></trkpt><trkpt lat="39.06391501965836" lon="16.530067513794457"><ele>1266.5</ele><time>2026-04-12T08:56:08Z</time></trkpt><trkpt lat="39.06381759079948" lon="16.530181542008577"><ele>1270.0</ele><time>2026-04-12T08:56:09Z</time></trkpt><trkpt lat="39.06374778849685" lon="16.53023694403477"><ele>1270.0</ele><time>2026-04-12T08:56:10Z</time></trkpt><trkpt lat="39.063663462133654" lon="16.53031517247533"><ele>1270.0</ele><time>2026-04-12T08:56:12Z</time></trkpt><trkpt lat="39.063625319350884" lon="16.530415603472445"><ele>1270.0</ele><time>2026-04-12T08:58:03Z</time></trkpt><trkpt lat="39.06370214807576" lon="16.530284869782594"><ele>1270.0</ele><time>2026-04-12T08:58:07Z</time></trkpt><trkpt lat="39.063728325674205" lon="16.530122135456196"><ele>1270.0</ele><time>2026-04-12T08:58:08Z</time></trkpt><trkpt lat="39.06364074037017" lon="16.530419557727644"><ele>1268.5</ele><time>2026-04-12T08:58:09Z</time></trkpt><trkpt lat="39.06359504345244" lon="16.530475991934757"><ele>1267.0</ele><time>2026-04-12T08:59:14Z</time></trkpt><trkpt lat="39.06348243697995" lon="16.53056989324845"><ele>1265.5</ele><time>2026-04-12T08:59:16Z</time></trkpt><trkpt lat="39.063396316683374" lon="16.53065307524484"><ele>1264.0</ele><time>2026-04-12T08:59:17Z</time></trkpt><trkpt lat="39.06326669551749" lon="16.530768809808542"><ele>1267.25</ele><time>2026-04-12T08:59:18Z</time></trkpt><trkpt lat="39.063130815040786" lon="16.53089035081139"><ele>1270.5</ele><time>2026-04-12T08:59:19Z</time></trkpt><trkpt lat="39.06304067714749" lon="16.530947414201712"><ele>1273.75</ele><time>2026-04-12T08:59:20Z</time></trkpt><trkpt lat="39.06290934942566" lon="16.53104764334381"><ele>1277.0</ele><time>2026-04-12T08:59:21Z</time></trkpt><trkpt lat="39.06278691415662" lon="16.531166613459845"><ele>1275.0</ele><time>2026-04-12T08:59:22Z</time></trkpt><trkpt lat="39.0627043876415" lon="16.53126640648103"><ele>1273.0</ele><time>2026-04-12T08:59:23Z</time></trkpt><trkpt lat="39.06263236096376" lon="16.531343898377887"><ele>1271.0</ele><time>2026-04-12T08:59:24Z</time></trkpt><trkpt lat="39.06255743945082" lon="16.531389814694087"><ele>1269.0</ele><time>2026-04-12T08:59:25Z</time></trkpt><trkpt lat="39.0624776519592" lon="16.53144825078476"><ele>1267.0</ele><time>2026-04-12T08:59:26Z</time></trkpt><trkpt lat="39.06241674178504" lon="16.531479101355952"><ele>1265.0</ele><time>2026-04-12T08:59:27Z</time></trkpt><trkpt lat="39.062300350117546" lon="16.53149875466123"><ele>1264.5</ele><time>2026-04-12T08:59:28Z</time></trkpt><trkpt lat="39.06216953289786" lon="16.531507284380634"><ele>1264.0</ele><time>2026-04-12T08:59:29Z</time></trkpt><trkpt lat="39.0620438818554" lon="16.531472242690917"><ele>1263.5</ele><time>2026-04-12T08:59:30Z</time></trkpt><trkpt lat="39.0619045473841" lon="16.531450341216978"><ele>1263.0</ele><time>2026-04-12T08:59:31Z</time></trkpt><trkpt lat="39.06174042283829" lon="16.53140289298257"><ele>1264.75</ele><time>2026-04-12T08:59:32Z</time></trkpt><trkpt lat="39.06160316273177" lon="16.53135170847154"><ele>1266.5</ele><time>2026-04-12T08:59:33Z</time></trkpt><trkpt lat="39.06144503434297" lon="16.531296344789226"><ele>1268.25</ele><time>2026-04-12T08:59:34Z</time></trkpt><trkpt lat="39.061320592384426" lon="16.531245682035053"><ele>1270.0</ele><time>2026-04-12T08:59:35Z</time></trkpt><trkpt lat="39.061211733524274" lon="16.531237639039674"><ele>1270.0</ele><time>2026-04-12T08:59:36Z</time></trkpt><trkpt lat="39.06112398961315" lon="16.531235486402455"><ele>1270.0</ele><time>2026-04-12T08:59:37Z</time></trkpt><trkpt lat="39.061056289451855" lon="16.53122370920424"><ele>1270.0</ele><time>2026-04-12T08:59:38Z</time></trkpt><trkpt lat="39.06095381029488" lon="16.531254935317396"><ele>1270.0</ele><time>2026-04-12T08:59:40Z</time></trkpt><trkpt lat="39.06089549747272" lon="16.531356434046696"><ele>1270.0</ele><time>2026-04-12T08:59:42Z</time></trkpt><trkpt lat="39.060842010632356" lon="16.531458973886092"><ele>1273.3333333333333</ele><time>2026-04-12T08:59:44Z</time></trkpt><trkpt lat="39.06076024624026" lon="16.53155961307564"><ele>1276.6666666666665</ele><time>2026-04-12T08:59:46Z</time></trkpt><trkpt lat="39.06072633474795" lon="16.531631433882325"><ele>1280.0</ele><time>2026-04-12T08:59:48Z</time></trkpt><trkpt lat="39.06067194115059" lon="16.531708442076894"><ele>1283.3333333333333</ele><time>2026-04-12T08:59:51Z</time></trkpt><trkpt lat="39.060600300153304" lon="16.5318108220746"><ele>1286.6666666666667</ele><time>2026-04-12T08:59:59Z</time></trkpt><trkpt lat="39.06055386939997" lon="16.5318685693854"><ele>1290.0</ele><time>2026-04-12T09:00:00Z</time></trkpt><trkpt lat="39.06048768672915" lon="16.531955927343418"><ele>1290.0</ele><time>2026-04-12T09:00:01Z</time></trkpt><trkpt lat="39.06041659506083" lon="16.53202755418656"><ele>1290.0</ele><time>2026-04-12T09:00:02Z</time></trkpt><trkpt lat="39.06034890747155" lon="16.53209308778667"><ele>1290.0</ele><time>2026-04-12T09:00:03Z</time></trkpt><trkpt lat="39.060266728142274" lon="16.53215718163201"><ele>1290.0</ele><time>2026-04-12T09:00:04Z</time></trkpt><trkpt lat="39.06017126443156" lon="16.53223200267734"><ele>1290.0</ele><time>2026-04-12T09:00:05Z</time></trkpt><trkpt lat="39.060090766672594" lon="16.532295756502766"><ele>1288.4</ele><time>2026-04-12T09:00:06Z</time></trkpt><trkpt lat="39.06000125847079" lon="16.53239963052968"><ele>1286.8</ele><time>2026-04-12T09:00:07Z</time></trkpt><trkpt lat="39.059927045477394" lon="16.532447216702614"><ele>1285.1999999999998</ele><time>2026-04-12T09:00:08Z</time></trkpt><trkpt lat="39.059851154459736" lon="16.53248270821425"><ele>1283.6</ele><time>2026-04-12T09:00:09Z</time></trkpt><trkpt lat="39.05973308679581" lon="16.532562998814107"><ele>1282.0</ele><time>2026-04-12T09:00:10Z</time></trkpt><trkpt lat="39.059557345052035" lon="16.532606314390804"><ele>1282.0</ele><time>2026-04-12T09:00:11Z</time></trkpt><trkpt lat="39.059424451136216" lon="16.532664555822603"><ele>1282.0</ele><time>2026-04-12T09:00:12Z</time></trkpt><trkpt lat="39.05934435019543" lon="16.532681260392117"><ele>1282.0</ele><time>2026-04-12T09:00:13Z</time></trkpt><trkpt lat="39.05926234560505" lon="16.5327363870388"><ele>1282.0</ele><time>2026-04-12T09:00:14Z</time></trkpt><trkpt lat="39.059175733812765" lon="16.53280360541155"><ele>1282.0</ele><time>2026-04-12T09:00:15Z</time></trkpt><trkpt lat="39.05906637513127" lon="16.53290003817914"><ele>1280.25</ele><time>2026-04-12T09:00:16Z</time></trkpt><trkpt lat="39.058981106241156" lon="16.533038261057364"><ele>1278.5</ele><time>2026-04-12T09:00:17Z</time></trkpt><trkpt lat="39.05887246585369" lon="16.53317499927173"><ele>1276.75</ele><time>2026-04-12T09:00:18Z</time></trkpt><trkpt lat="39.058770015063686" lon="16.533312863441747"><ele>1275.0</ele><time>2026-04-12T09:00:19Z</time></trkpt><trkpt lat="39.05868736501663" lon="16.533421611662543"><ele>1275.0</ele><time>2026-04-12T09:00:20Z</time></trkpt><trkpt lat="39.05861826641184" lon="16.533523341931726"><ele>1275.0</ele><time>2026-04-12T09:00:21Z</time></trkpt><trkpt lat="39.05855499905033" lon="16.533603755806972"><ele>1275.0</ele><time>2026-04-12T09:00:22Z</time></trkpt><trkpt lat="39.05847369011112" lon="16.533674391781734"><ele>1275.0</ele><time>2026-04-12T09:00:23Z</time></trkpt><trkpt lat="39.05837514594525" lon="16.533731005611624"><ele>1275.0</ele><time>2026-04-12T09:00:24Z</time></trkpt><trkpt lat="39.05826877258837" lon="16.53373815025006"><ele>1268.2</ele><time>2026-04-12T09:00:25Z</time></trkpt><trkpt lat="39.058169606068624" lon="16.53380180801377"><ele>1261.4</ele><time>2026-04-12T09:00:26Z</time></trkpt><trkpt lat="39.058068804186526" lon="16.533825434910057"><ele>1254.6</ele><time>2026-04-12T09:00:27Z</time></trkpt><trkpt lat="39.05798806008897" lon="16.533859693309694"><ele>1247.8</ele><time>2026-04-12T09:00:28Z</time></trkpt><trkpt lat="39.05790715454955" lon="16.533875201016"><ele>1241.0</ele><time>2026-04-12T09:00:29Z</time></trkpt><trkpt lat="39.05782863011382" lon="16.533882283781246"><ele>1241.0</ele><time>2026-04-12T09:00:30Z</time></trkpt><trkpt lat="39.057716614489955" lon="16.53385679292945"><ele>1241.0</ele><time>2026-04-12T09:00:31Z</time></trkpt><trkpt lat="39.057606817660776" lon="16.533784182399035"><ele>1241.0</ele><time>2026-04-12T09:00:32Z</time></trkpt><trkpt lat="39.05748167539034" lon="16.5337220359487"><ele>1241.0</ele><time>2026-04-12T09:00:33Z</time></trkpt><trkpt lat="39.05737483987357" lon="16.53367582525576"><ele>1242.0</ele><time>2026-04-12T09:00:34Z</time></trkpt><trkpt lat="39.057273998053795" lon="16.533643716601357"><ele>1243.0</ele><time>2026-04-12T09:00:35Z</time></trkpt><trkpt lat="39.05719420527581" lon="16.533625289145508"><ele>1244.0</ele><time>2026-04-12T09:00:36Z</time></trkpt><trkpt lat="39.057099925270165" lon="16.533634275835343"><ele>1245.0</ele><time>2026-04-12T09:00:37Z</time></trkpt><trkpt lat="39.05701905142117" lon="16.53369156398823"><ele>1246.0</ele><time>2026-04-12T09:00:38Z</time></trkpt><trkpt lat="39.05694765926907" lon="16.533761448565283"><ele>1246.0</ele><time>2026-04-12T09:00:39Z</time></trkpt><trkpt lat="39.056856227567586" lon="16.533854171784668"><ele>1246.0</ele><time>2026-04-12T09:00:40Z</time></trkpt><trkpt lat="39.056759760321484" lon="16.533963520637165"><ele>1246.0</ele><time>2026-04-12T09:00:41Z</time></trkpt><trkpt lat="39.056660781837" lon="16.534062745571703"><ele>1246.0</ele><time>2026-04-12T09:00:42Z</time></trkpt><trkpt lat="39.05652611261719" lon="16.534190620628706"><ele>1245.0</ele><time>2026-04-12T09:00:43Z</time></trkpt><trkpt lat="39.05638496361675" lon="16.53430215165572"><ele>1244.0</ele><time>2026-04-12T09:00:44Z</time></trkpt><trkpt lat="39.056252703197444" lon="16.53439974957719"><ele>1243.0</ele><time>2026-04-12T09:00:45Z</time></trkpt><trkpt lat="39.056162379103746" lon="16.53448313388685"><ele>1242.0</ele><time>2026-04-12T09:00:46Z</time></trkpt><trkpt lat="39.05608648912775" lon="16.534604277511427"><ele>1242.25</ele><time>2026-04-12T09:00:47Z</time></trkpt><trkpt lat="39.05599599605008" lon="16.53472894586301"><ele>1242.5</ele><time>2026-04-12T09:00:48Z</time></trkpt><trkpt lat="39.055914085243245" lon="16.53484434977537"><ele>1242.75</ele><time>2026-04-12T09:00:49Z</time></trkpt><trkpt lat="39.055793743045584" lon="16.53501493858833"><ele>1243.0</ele><time>2026-04-12T09:00:50Z</time></trkpt><trkpt lat="39.055654094620856" lon="16.535210327317394"><ele>1243.0</ele><time>2026-04-12T09:00:51Z</time></trkpt><trkpt lat="39.05553716755891" lon="16.535359942740186"><ele>1243.0</ele><time>2026-04-12T09:00:52Z</time></trkpt><trkpt lat="39.05544741384487" lon="16.53548156876851"><ele>1243.0</ele><time>2026-04-12T09:00:53Z</time></trkpt><trkpt lat="39.05536004748142" lon="16.535600644869728"><ele>1243.0</ele><time>2026-04-12T09:00:54Z</time></trkpt><trkpt lat="39.055283656891575" lon="16.53571797161584"><ele>1244.4</ele><time>2026-04-12T09:00:55Z</time></trkpt><trkpt lat="39.05519747469196" lon="16.535783790382563"><ele>1245.8</ele><time>2026-04-12T09:00:56Z</time></trkpt><trkpt lat="39.05511575421327" lon="16.535878053767128"><ele>1247.2</ele><time>2026-04-12T09:00:57Z</time></trkpt><trkpt lat="39.055056091910465" lon="16.535974233748444"><ele>1248.6</ele><time>2026-04-12T09:00:58Z</time></trkpt><trkpt lat="39.0549632478899" lon="16.536065664469454"><ele>1250.0</ele><time>2026-04-12T09:01:00Z</time></trkpt><trkpt lat="39.05490254868456" lon="16.536105331435838"><ele>1247.4</ele><time>2026-04-12T09:01:01Z</time></trkpt><trkpt lat="39.05483666157551" lon="16.53614142800579"><ele>1244.8</ele><time>2026-04-12T09:01:02Z</time></trkpt><trkpt lat="39.05476652205283" lon="16.536190665277875"><ele>1242.2</ele><time>2026-04-12T09:01:03Z</time></trkpt><trkpt lat="39.054649111232656" lon="16.53622965247566"><ele>1239.6</ele><time>2026-04-12T09:01:04Z</time></trkpt><trkpt lat="39.05452527476248" lon="16.536262885794677"><ele>1237.0</ele><time>2026-04-12T09:01:05Z</time></trkpt><trkpt lat="39.054392729042775" lon="16.536279719433352"><ele>1237.0</ele><time>2026-04-12T09:01:06Z</time></trkpt><trkpt lat="39.05428640418158" lon="16.53628023036854"><ele>1237.0</ele><time>2026-04-12T09:01:07Z</time></trkpt><trkpt lat="39.05419502956605" lon="16.536275217833545"><ele>1237.0</ele><time>2026-04-12T09:01:08Z</time></trkpt><trkpt lat="39.05410315213648" lon="16.536282695257974"><ele>1237.0</ele><time>2026-04-12T09:01:09Z</time></trkpt><trkpt lat="39.05402968151585" lon="16.536260241830536"><ele>1237.0</ele><time>2026-04-12T09:01:10Z</time></trkpt><trkpt lat="39.05393192372875" lon="16.53619301271881"><ele>1233.6666666666665</ele><time>2026-04-12T09:01:12Z</time></trkpt><trkpt lat="39.05383079853606" lon="16.53614787702722"><ele>1230.3333333333333</ele><time>2026-04-12T09:02:39Z</time></trkpt><trkpt lat="39.05375069760247" lon="16.536119506479537"><ele>1227.0</ele><time>2026-04-12T09:02:41Z</time></trkpt><trkpt lat="39.05367834458647" lon="16.536097559604574"><ele>1223.6666666666667</ele><time>2026-04-12T09:02:43Z</time></trkpt><trkpt lat="39.05358153584879" lon="16.536087037900252"><ele>1220.3333333333335</ele><time>2026-04-12T09:02:45Z</time></trkpt><trkpt lat="39.05349421360286" lon="16.536093604480797"><ele>1217.0</ele><time>2026-04-12T09:02:47Z</time></trkpt><trkpt lat="39.0531693246769" lon="16.536126191532393"><ele>1215.8333333333335</ele><time>2026-04-12T09:02:49Z</time></trkpt><trkpt lat="39.05310166174994" lon="16.53622213426644"><ele>1214.6666666666667</ele><time>2026-04-12T09:02:51Z</time></trkpt><trkpt lat="39.053058787708046" lon="16.536316905762614"><ele>1213.5</ele><time>2026-04-12T09:02:52Z</time></trkpt><trkpt lat="39.053014386169046" lon="16.536405973431123"><ele>1212.3333333333333</ele><time>2026-04-12T09:02:53Z</time></trkpt><trkpt lat="39.05294955893045" lon="16.536438471645244"><ele>1211.1666666666665</ele><time>2026-04-12T09:02:54Z</time></trkpt><trkpt lat="39.05289176665739" lon="16.53648546577799"><ele>1210.0</ele><time>2026-04-12T09:02:55Z</time></trkpt><trkpt lat="39.052822176655944" lon="16.536541760933734"><ele>1210.0</ele><time>2026-04-12T09:02:56Z</time></trkpt><trkpt lat="39.05272629033401" lon="16.53659878191723"><ele>1210.0</ele><time>2026-04-12T09:02:57Z</time></trkpt><trkpt lat="39.05259428083986" lon="16.53665111638308"><ele>1210.0</ele><time>2026-04-12T09:02:58Z</time></trkpt><trkpt lat="39.0524485850126" lon="16.536697749468246"><ele>1210.0</ele><time>2026-04-12T09:02:59Z</time></trkpt><trkpt lat="39.052299791656196" lon="16.536741917930424"><ele>1207.25</ele><time>2026-04-12T09:03:00Z</time></trkpt><trkpt lat="39.05215779996515" lon="16.53678529110865"><ele>1204.5</ele><time>2026-04-12T09:03:01Z</time></trkpt><trkpt lat="39.05202554130145" lon="16.536829009657925"><ele>1201.75</ele><time>2026-04-12T09:03:02Z</time></trkpt><trkpt lat="39.05192484079195" lon="16.536941704385267"><ele>1199.0</ele><time>2026-04-12T09:03:03Z</time></trkpt><trkpt lat="39.05179539544084" lon="16.5370156832014"><ele>1199.75</ele><time>2026-04-12T09:03:04Z</time></trkpt><trkpt lat="39.05167564093684" lon="16.537076675622732"><ele>1200.5</ele><time>2026-04-12T09:03:05Z</time></trkpt><trkpt lat="39.05158011632152" lon="16.537128738527887"><ele>1201.25</ele><time>2026-04-12T09:03:06Z</time></trkpt><trkpt lat="39.051425666045624" lon="16.537066242479437"><ele>1202.0</ele><time>2026-04-12T09:03:07Z</time></trkpt><trkpt lat="39.051335713295586" lon="16.536992847872032"><ele>1200.0</ele><time>2026-04-12T09:03:08Z</time></trkpt><trkpt lat="39.05124165033836" lon="16.536930615621117"><ele>1198.0</ele><time>2026-04-12T09:03:09Z</time></trkpt><trkpt lat="39.051178063690514" lon="16.53685481164722"><ele>1196.0</ele><time>2026-04-12T09:03:10Z</time></trkpt><trkpt lat="39.051073988686504" lon="16.53678570526763"><ele>1194.0</ele><time>2026-04-12T09:03:11Z</time></trkpt><trkpt lat="39.05094875036938" lon="16.536743577835907"><ele>1192.0</ele><time>2026-04-12T09:03:13Z</time></trkpt><trkpt lat="39.05085329540774" lon="16.536734671806066"><ele>1192.6666666666665</ele><time>2026-04-12T09:03:14Z</time></trkpt><trkpt lat="39.05072926793857" lon="16.536737489212374"><ele>1193.3333333333333</ele><time>2026-04-12T09:03:15Z</time></trkpt><trkpt lat="39.050596256051605" lon="16.536748193901506"><ele>1194.0</ele><time>2026-04-12T09:03:16Z</time></trkpt><trkpt lat="39.05038855051666" lon="16.536775093654313"><ele>1194.0</ele><time>2026-04-12T09:03:17Z</time></trkpt><trkpt lat="39.05021228487618" lon="16.53685189853903"><ele>1194.0</ele><time>2026-04-12T09:03:18Z</time></trkpt><trkpt lat="39.05007704754043" lon="16.536920132940978"><ele>1194.0</ele><time>2026-04-12T09:03:19Z</time></trkpt><trkpt lat="39.04993740218492" lon="16.53697752634382"><ele>1194.4</ele><time>2026-04-12T09:03:20Z</time></trkpt><trkpt lat="39.049809918664145" lon="16.53702410394692"><ele>1194.8000000000002</ele><time>2026-04-12T09:03:21Z</time></trkpt><trkpt lat="39.04971212846535" lon="16.537061471794352"><ele>1195.1999999999998</ele><time>2026-04-12T09:03:22Z</time></trkpt><trkpt lat="39.04963684281729" lon="16.53710116018784"><ele>1195.6</ele><time>2026-04-12T09:03:23Z</time></trkpt><trkpt lat="39.04958091463139" lon="16.537144141970995"><ele>1196.0</ele><time>2026-04-12T09:03:24Z</time></trkpt><trkpt lat="39.04952187674123" lon="16.537210117815196"><ele>1193.5</ele><time>2026-04-12T09:03:25Z</time></trkpt><trkpt lat="39.049470604035655" lon="16.53728077208287"><ele>1191.0</ele><time>2026-04-12T09:03:26Z</time></trkpt><trkpt lat="39.04937708326901" lon="16.53749736330965"><ele>1188.5</ele><time>2026-04-12T09:03:27Z</time></trkpt><trkpt lat="39.04929471040149" lon="16.537667970409107"><ele>1186.0</ele><time>2026-04-12T09:03:28Z</time></trkpt><trkpt lat="39.04920750363729" lon="16.53779066909708"><ele>1186.0</ele><time>2026-04-12T09:03:29Z</time></trkpt><trkpt lat="39.049155997163076" lon="16.537845740400964"><ele>1186.0</ele><time>2026-04-12T09:03:30Z</time></trkpt><trkpt lat="39.04907715259331" lon="16.537927557890384"><ele>1186.0</ele><time>2026-04-12T09:03:31Z</time></trkpt><trkpt lat="39.04898061012372" lon="16.538009328071237"><ele>1186.0</ele><time>2026-04-12T09:03:32Z</time></trkpt><trkpt lat="39.04886609332946" lon="16.53810831388048"><ele>1186.0</ele><time>2026-04-12T09:03:33Z</time></trkpt><trkpt lat="39.048719953162646" lon="16.538218483540167"><ele>1179.0</ele><time>2026-04-12T09:03:34Z</time></trkpt><trkpt lat="39.04852722102368" lon="16.538352669605587"><ele>1172.0</ele><time>2026-04-12T09:03:35Z</time></trkpt><trkpt lat="39.04837226950622" lon="16.538482277896783"><ele>1165.0</ele><time>2026-04-12T09:03:36Z</time></trkpt><trkpt lat="39.04820985937758" lon="16.538586188179856"><ele>1160.3333333333333</ele><time>2026-04-12T09:03:37Z</time></trkpt><trkpt lat="39.04806733487414" lon="16.538682432628455"><ele>1155.6666666666667</ele><time>2026-04-12T09:03:38Z</time></trkpt><trkpt lat="39.047913129083156" lon="16.53875780287278"><ele>1151.0</ele><time>2026-04-12T09:03:39Z</time></trkpt><trkpt lat="39.04775428191578" lon="16.538839186785967"><ele>1151.0</ele><time>2026-04-12T09:03:40Z</time></trkpt><trkpt lat="39.04758878362785" lon="16.53893486124936"><ele>1151.0</ele><time>2026-04-12T09:03:41Z</time></trkpt><trkpt lat="39.04737426140808" lon="16.539045408490757"><ele>1151.0</ele><time>2026-04-12T09:03:42Z</time></trkpt><trkpt lat="39.04723522819278" lon="16.539158525391358"><ele>1149.0</ele><time>2026-04-12T09:03:43Z</time></trkpt><trkpt lat="39.047086347466774" lon="16.539242665779234"><ele>1147.0</ele><time>2026-04-12T09:03:44Z</time></trkpt><trkpt lat="39.046944802570685" lon="16.53935220134672"><ele>1145.0</ele><time>2026-04-12T09:03:45Z</time></trkpt><trkpt lat="39.046791664754565" lon="16.539435290589243"><ele>1145.0</ele><time>2026-04-12T09:03:46Z</time></trkpt><trkpt lat="39.046709399987435" lon="16.53947801550384"><ele>1145.0</ele><time>2026-04-12T09:03:47Z</time></trkpt><trkpt lat="39.04662848642384" lon="16.539506050214317"><ele>1145.0</ele><time>2026-04-12T09:03:48Z</time></trkpt><trkpt lat="39.04655628657289" lon="16.539514073615997"><ele>1145.0</ele><time>2026-04-12T09:03:49Z</time></trkpt><trkpt lat="39.046477171528956" lon="16.5394835484837"><ele>1145.0</ele><time>2026-04-12T09:03:50Z</time></trkpt><trkpt lat="39.046363078721406" lon="16.53942951869133"><ele>1145.0</ele><time>2026-04-12T09:03:51Z</time></trkpt><trkpt lat="39.04624240846905" lon="16.539382219042224"><ele>1144.0</ele><time>2026-04-12T09:03:52Z</time></trkpt><trkpt lat="39.04613897784388" lon="16.539341676899326"><ele>1143.0</ele><time>2026-04-12T09:03:53Z</time></trkpt><trkpt lat="39.04605803288755" lon="16.539304394897766"><ele>1142.0</ele><time>2026-04-12T09:03:54Z</time></trkpt><trkpt lat="39.045954428364645" lon="16.53928271867802"><ele>1141.0</ele><time>2026-04-12T09:03:55Z</time></trkpt><trkpt lat="39.045867320715686" lon="16.539313225714697"><ele>1140.0</ele><time>2026-04-12T09:03:56Z</time></trkpt><trkpt lat="39.045816717216596" lon="16.539361496474665"><ele>1140.0</ele><time>2026-04-12T09:03:57Z</time></trkpt><trkpt lat="39.045804080612925" lon="16.53950038917149"><ele>1140.0</ele><time>2026-04-12T09:03:58Z</time></trkpt><trkpt lat="39.045780485357476" lon="16.53961975178622"><ele>1140.0</ele><time>2026-04-12T09:03:59Z</time></trkpt><trkpt lat="39.045736496498314" lon="16.539785427560393"><ele>1140.0</ele><time>2026-04-12T09:04:00Z</time></trkpt><trkpt lat="39.04568769935635" lon="16.53997040553541"><ele>1135.0</ele><time>2026-04-12T09:04:01Z</time></trkpt><trkpt lat="39.045634041281495" lon="16.540171301281916"><ele>1130.0</ele><time>2026-04-12T09:04:02Z</time></trkpt><trkpt lat="39.04560464345765" lon="16.540308167781046"><ele>1125.0</ele><time>2026-04-12T09:04:03Z</time></trkpt><trkpt lat="39.04556064243864" lon="16.540459273954628"><ele>1120.0</ele><time>2026-04-12T09:04:04Z</time></trkpt><trkpt lat="39.0455340914079" lon="16.540608074948082"><ele>1119.2</ele><time>2026-04-12T09:04:05Z</time></trkpt><trkpt lat="39.045472278699364" lon="16.54074324298148"><ele>1118.4</ele><time>2026-04-12T09:04:06Z</time></trkpt><trkpt lat="39.04540955213485" lon="16.540889605872948"><ele>1117.6</ele><time>2026-04-12T09:04:07Z</time></trkpt><trkpt lat="39.045329056504166" lon="16.540959258775395"><ele>1116.8</ele><time>2026-04-12T09:04:08Z</time></trkpt><trkpt lat="39.0452556002168" lon="16.540996773777813"><ele>1116.0</ele><time>2026-04-12T09:04:09Z</time></trkpt><trkpt lat="39.04514352380072" lon="16.541054558236"><ele>1116.0</ele><time>2026-04-12T09:04:10Z</time></trkpt><trkpt lat="39.04501951646455" lon="16.541110092360608"><ele>1116.0</ele><time>2026-04-12T09:04:11Z</time></trkpt><trkpt lat="39.04492216748427" lon="16.54113935267466"><ele>1116.0</ele><time>2026-04-12T09:04:12Z</time></trkpt><trkpt lat="39.044854002238296" lon="16.54118326658931"><ele>1116.0</ele><time>2026-04-12T09:04:13Z</time></trkpt><trkpt lat="39.044764064180896" lon="16.54131201442967"><ele>1116.0</ele><time>2026-04-12T09:04:14Z</time></trkpt><trkpt lat="39.04475514420906" lon="16.541449856362526"><ele>1114.3999999999999</ele><time>2026-04-12T09:04:15Z</time></trkpt><trkpt lat="39.044742280783616" lon="16.541569773731297"><ele>1112.8</ele><time>2026-04-12T09:04:16Z</time></trkpt><trkpt lat="39.04473398157907" lon="16.54167943009159"><ele>1111.1999999999998</ele><time>2026-04-12T09:04:17Z</time></trkpt><trkpt lat="39.04472705328547" lon="16.54179311243484"><ele>1109.6</ele><time>2026-04-12T09:04:18Z</time></trkpt><trkpt lat="39.044697552261354" lon="16.54195781407117"><ele>1108.0</ele><time>2026-04-12T09:04:19Z</time></trkpt><trkpt lat="39.0446821055851" lon="16.542093156372363"><ele>1107.3333333333333</ele><time>2026-04-12T09:04:20Z</time></trkpt><trkpt lat="39.04466982755423" lon="16.54221366346448"><ele>1106.6666666666665</ele><time>2026-04-12T09:04:21Z</time></trkpt><trkpt lat="39.04463487892917" lon="16.54230410812184"><ele>1106.0</ele><time>2026-04-12T09:04:22Z</time></trkpt><trkpt lat="39.04461682515948" lon="16.542386396745616"><ele>1105.3333333333333</ele><time>2026-04-12T09:04:23Z</time></trkpt><trkpt lat="39.0445896368312" lon="16.542462794659823"><ele>1104.6666666666667</ele><time>2026-04-12T09:04:24Z</time></trkpt><trkpt lat="39.04453448223469" lon="16.54253816383826"><ele>1104.0</ele><time>2026-04-12T09:04:25Z</time></trkpt><trkpt lat="39.044429314405775" lon="16.542610069371477"><ele>1104.0</ele><time>2026-04-12T09:04:27Z</time></trkpt><trkpt lat="39.04434805629921" lon="16.542602934284638"><ele>1104.0</ele><time>2026-04-12T09:04:28Z</time></trkpt><trkpt lat="39.044283315574496" lon="16.542569939717243"><ele>1104.0</ele><time>2026-04-12T09:04:29Z</time></trkpt><trkpt lat="39.044207903579135" lon="16.542562215611063"><ele>1104.0</ele><time>2026-04-12T09:04:30Z</time></trkpt><trkpt lat="39.04414586648527" lon="16.54249765396215"><ele>1104.0</ele><time>2026-04-12T09:04:31Z</time></trkpt><trkpt lat="39.04402804267089" lon="16.542474234276874"><ele>1104.0</ele><time>2026-04-12T09:04:33Z</time></trkpt><trkpt lat="39.04397140136898" lon="16.542511982426763"><ele>1104.2</ele><time>2026-04-12T09:04:34Z</time></trkpt><trkpt lat="39.04395380239325" lon="16.5425909971282"><ele>1104.4</ele><time>2026-04-12T09:04:35Z</time></trkpt><trkpt lat="39.043907451166596" lon="16.542653016979735"><ele>1104.6</ele><time>2026-04-12T09:04:38Z</time></trkpt><trkpt lat="39.04383622847017" lon="16.54275211516989"><ele>1104.8</ele><time>2026-04-12T09:04:40Z</time></trkpt><trkpt lat="39.04377024515589" lon="16.542843923370565"><ele>1105.0</ele><time>2026-04-12T09:04:41Z</time></trkpt><trkpt lat="39.04374522459293" lon="16.543019987956008"><ele>1105.0</ele><time>2026-04-12T09:04:42Z</time></trkpt><trkpt lat="39.04370917683396" lon="16.543144233557765"><ele>1105.0</ele><time>2026-04-12T09:04:43Z</time></trkpt><trkpt lat="39.043643598820076" lon="16.54318662526815"><ele>1105.0</ele><time>2026-04-12T09:04:45Z</time></trkpt><trkpt lat="39.04371880533852" lon="16.543175218482745"><ele>1105.0</ele><time>2026-04-12T09:04:51Z</time></trkpt><trkpt lat="39.04374251288025" lon="16.54302393622459"><ele>1105.0</ele><time>2026-04-12T09:04:53Z</time></trkpt><trkpt lat="39.04377252182409" lon="16.54291667015645"><ele>1105.0</ele><time>2026-04-12T09:04:54Z</time></trkpt><trkpt lat="39.043815449104144" lon="16.542840715871808"><ele>1105.0</ele><time>2026-04-12T09:04:55Z</time></trkpt><trkpt lat="39.043877856603544" lon="16.542753691221797"><ele>1105.0</ele><time>2026-04-12T09:04:57Z</time></trkpt><trkpt lat="39.04395181489197" lon="16.54275222971981"><ele>1105.0</ele><time>2026-04-12T09:05:01Z</time></trkpt><trkpt lat="39.04396582310155" lon="16.542885336775512"><ele>1105.0</ele><time>2026-04-12T09:05:03Z</time></trkpt><trkpt lat="39.043979067819365" lon="16.543017345297883"><ele>1105.0</ele><time>2026-04-12T09:05:04Z</time></trkpt><trkpt lat="39.043993978084046" lon="16.543192857941676"><ele>1105.0</ele><time>2026-04-12T09:05:05Z</time></trkpt><trkpt lat="39.04402607941464" lon="16.54337666444159"><ele>1105.0</ele><time>2026-04-12T09:05:06Z</time></trkpt><trkpt lat="39.04403363062668" lon="16.54353665541943"><ele>1105.0</ele><time>2026-04-12T09:05:07Z</time></trkpt><trkpt lat="39.044040354454594" lon="16.54366155611984"><ele>1105.0</ele><time>2026-04-12T09:05:08Z</time></trkpt><trkpt lat="39.04403330637128" lon="16.543801531673118"><ele>1103.4</ele><time>2026-04-12T09:05:09Z</time></trkpt><trkpt lat="39.04404866933232" lon="16.54392992979383"><ele>1101.8</ele><time>2026-04-12T09:05:10Z</time></trkpt><trkpt lat="39.0439471947635" lon="16.5440488619643"><ele>1100.2</ele><time>2026-04-12T09:05:11Z</time></trkpt><trkpt lat="39.04387507485276" lon="16.54412665006454"><ele>1098.6</ele><time>2026-04-12T09:05:12Z</time></trkpt><trkpt lat="39.043779374984034" lon="16.54421340377032"><ele>1097.0</ele><time>2026-04-12T09:05:13Z</time></trkpt><trkpt lat="39.04372468153813" lon="16.544318086573877"><ele>1097.0</ele><time>2026-04-12T09:05:14Z</time></trkpt><trkpt lat="39.04359975091989" lon="16.544432975250924"><ele>1097.0</ele><time>2026-04-12T09:05:15Z</time></trkpt><trkpt lat="39.04345943853204" lon="16.54446060238686"><ele>1097.0</ele><time>2026-04-12T09:05:16Z</time></trkpt><trkpt lat="39.043312958774756" lon="16.54446158249814"><ele>1097.0</ele><time>2026-04-12T09:05:17Z</time></trkpt><trkpt lat="39.04316913315038" lon="16.544482525232585"><ele>1091.25</ele><time>2026-04-12T09:05:18Z</time></trkpt><trkpt lat="39.0430325710652" lon="16.544491128910302"><ele>1085.5</ele><time>2026-04-12T09:05:19Z</time></trkpt><trkpt lat="39.04289194448402" lon="16.54447237779296"><ele>1079.75</ele><time>2026-04-12T09:05:20Z</time></trkpt><trkpt lat="39.04273660478429" lon="16.5444653278954"><ele>1074.0</ele><time>2026-04-12T09:05:21Z</time></trkpt><trkpt lat="39.042539169031016" lon="16.54446329149589"><ele>1070.3333333333333</ele><time>2026-04-12T09:05:22Z</time></trkpt><trkpt lat="39.04232802590336" lon="16.544485545549232"><ele>1066.6666666666665</ele><time>2026-04-12T09:05:23Z</time></trkpt><trkpt lat="39.042139165349916" lon="16.544530911906435"><ele>1063.0</ele><time>2026-04-12T09:05:24Z</time></trkpt><trkpt lat="39.041995097791734" lon="16.544539617439156"><ele>1065.25</ele><time>2026-04-12T09:05:25Z</time></trkpt><trkpt lat="39.041832527494186" lon="16.544563801580022"><ele>1067.5</ele><time>2026-04-12T09:05:26Z</time></trkpt><trkpt lat="39.04168855402567" lon="16.54455908957292"><ele>1069.75</ele><time>2026-04-12T09:05:27Z</time></trkpt><trkpt lat="39.04156310188166" lon="16.544543273282986"><ele>1072.0</ele><time>2026-04-12T09:05:28Z</time></trkpt><trkpt lat="39.04143510253892" lon="16.544519734723274"><ele>1069.0</ele><time>2026-04-12T09:05:29Z</time></trkpt><trkpt lat="39.04128938252592" lon="16.544501514123326"><ele>1066.0</ele><time>2026-04-12T09:05:30Z</time></trkpt><trkpt lat="39.04119933269879" lon="16.54451698236898"><ele>1063.0</ele><time>2026-04-12T09:05:31Z</time></trkpt><trkpt lat="39.04109779934738" lon="16.544546298085272"><ele>1060.0</ele><time>2026-04-12T09:05:32Z</time></trkpt><trkpt lat="39.041036230971166" lon="16.544582280743096"><ele>1057.0</ele><time>2026-04-12T09:05:33Z</time></trkpt><trkpt lat="39.04095001529335" lon="16.544662860199782"><ele>1057.0</ele><time>2026-04-12T09:05:34Z</time></trkpt><trkpt lat="39.04090287280732" lon="16.54473268033242"><ele>1057.0</ele><time>2026-04-12T09:05:35Z</time></trkpt><trkpt lat="39.04084152184199" lon="16.54479991558053"><ele>1057.0</ele><time>2026-04-12T09:05:36Z</time></trkpt><trkpt lat="39.04077991538061" lon="16.544942439441478"><ele>1057.0</ele><time>2026-04-12T09:05:38Z</time></trkpt><trkpt lat="39.04079068749445" lon="16.54508087806062"><ele>1057.0</ele><time>2026-04-12T09:05:39Z</time></trkpt><trkpt lat="39.04080859984042" lon="16.545168457580438"><ele>1057.0</ele><time>2026-04-12T09:05:40Z</time></trkpt><trkpt lat="39.04086089484399" lon="16.545250579020934"><ele>1057.0</ele><time>2026-04-12T09:05:41Z</time></trkpt><trkpt lat="39.040913256406334" lon="16.54534241490807"><ele>1057.0</ele><time>2026-04-12T09:05:42Z</time></trkpt><trkpt lat="39.04096386123097" lon="16.545437929817734"><ele>1057.0</ele><time>2026-04-12T09:05:43Z</time></trkpt><trkpt lat="39.041014977500886" lon="16.545513009511847"><ele>1057.0</ele><time>2026-04-12T09:05:44Z</time></trkpt><trkpt lat="39.041064343976004" lon="16.545599708111673"><ele>1057.0</ele><time>2026-04-12T09:05:45Z</time></trkpt><trkpt lat="39.041092966178574" lon="16.54567260088556"><ele>1054.8</ele><time>2026-04-12T09:05:46Z</time></trkpt><trkpt lat="39.04108964384758" lon="16.54576612689424"><ele>1052.6</ele><time>2026-04-12T09:05:47Z</time></trkpt><trkpt lat="39.0410699395576" lon="16.5458652593581"><ele>1050.3999999999999</ele><time>2026-04-12T09:05:48Z</time></trkpt><trkpt lat="39.0409979149156" lon="16.545941453218223"><ele>1048.2</ele><time>2026-04-12T09:05:49Z</time></trkpt><trkpt lat="39.04091325605732" lon="16.54605056110639"><ele>1046.0</ele><time>2026-04-12T09:05:50Z</time></trkpt><trkpt lat="39.04084773368225" lon="16.546132027096007"><ele>1045.0</ele><time>2026-04-12T09:05:51Z</time></trkpt><trkpt lat="39.040786072316266" lon="16.546193487197417"><ele>1044.0</ele><time>2026-04-12T09:05:52Z</time></trkpt><trkpt lat="39.040690416547015" lon="16.546219234820224"><ele>1043.0</ele><time>2026-04-12T09:05:53Z</time></trkpt><trkpt lat="39.04052296369498" lon="16.546286728253172"><ele>1042.0</ele><time>2026-04-12T09:05:54Z</time></trkpt><trkpt lat="39.0403468845557" lon="16.546292279499088"><ele>1042.0</ele><time>2026-04-12T09:05:55Z</time></trkpt><trkpt lat="39.040200443997975" lon="16.546287568932584"><ele>1042.0</ele><time>2026-04-12T09:05:56Z</time></trkpt><trkpt lat="39.040083298999555" lon="16.546311752738205"><ele>1042.0</ele><time>2026-04-12T09:05:57Z</time></trkpt><trkpt lat="39.03995445956676" lon="16.546332730597513"><ele>1042.0</ele><time>2026-04-12T09:05:58Z</time></trkpt><trkpt lat="39.039798296926186" lon="16.546358237388976"><ele>1037.6666666666665</ele><time>2026-04-12T09:05:59Z</time></trkpt><trkpt lat="39.03964950484184" lon="16.546411397612868"><ele>1033.3333333333333</ele><time>2026-04-12T09:06:00Z</time></trkpt><trkpt lat="39.03947987031207" lon="16.546471273370333"><ele>1029.0</ele><time>2026-04-12T09:06:01Z</time></trkpt><trkpt lat="39.039289210582055" lon="16.54658848694424"><ele>1024.0</ele><time>2026-04-12T09:06:02Z</time></trkpt><trkpt lat="39.03911432457539" lon="16.546684259363737"><ele>1019.0</ele><time>2026-04-12T09:06:03Z</time></trkpt><trkpt lat="39.03898053723949" lon="16.546796973160312"><ele>1014.0</ele><time>2026-04-12T09:06:04Z</time></trkpt><trkpt lat="39.03883878045189" lon="16.546822337489623"><ele>1014.0</ele><time>2026-04-12T09:06:05Z</time></trkpt><trkpt lat="39.03873287707091" lon="16.546862871526134"><ele>1014.0000000000001</ele><time>2026-04-12T09:06:06Z</time></trkpt><trkpt lat="39.03863271527668" lon="16.54693086730987"><ele>1014.0000000000001</ele><time>2026-04-12T09:06:07Z</time></trkpt><trkpt lat="39.038534850331764" lon="16.547006355884186"><ele>1014.0</ele><time>2026-04-12T09:06:08Z</time></trkpt><trkpt lat="39.03845166914724" lon="16.54707353186474"><ele>1014.0</ele><time>2026-04-12T09:06:09Z</time></trkpt><trkpt lat="39.03836857592177" lon="16.547126623252353"><ele>1011.75</ele><time>2026-04-12T09:06:10Z</time></trkpt><trkpt lat="39.03823963895409" lon="16.54707937756424"><ele>1009.5</ele><time>2026-04-12T09:06:11Z</time></trkpt><trkpt lat="39.03809610112757" lon="16.547100613322943"><ele>1007.25</ele><time>2026-04-12T09:06:12Z</time></trkpt><trkpt lat="39.03799944224049" lon="16.547136821246255"><ele>1005.0</ele><time>2026-04-12T09:06:13Z</time></trkpt><trkpt lat="39.03788515417896" lon="16.547184557308597"><ele>1005.0</ele><time>2026-04-12T09:06:14Z</time></trkpt><trkpt lat="39.03775836885521" lon="16.547267724896944"><ele>1005.0</ele><time>2026-04-12T09:06:15Z</time></trkpt><trkpt lat="39.03763372599771" lon="16.547348715366883"><ele>1005.0</ele><time>2026-04-12T09:06:16Z</time></trkpt><trkpt lat="39.03755502770467" lon="16.54745353821081"><ele>1005.0</ele><time>2026-04-12T09:06:17Z</time></trkpt><trkpt lat="39.037487006081186" lon="16.547562189510025"><ele>1004.0</ele><time>2026-04-12T09:06:18Z</time></trkpt><trkpt lat="39.03741444006464" lon="16.54765568675343"><ele>1003.0</ele><time>2026-04-12T09:06:19Z</time></trkpt><trkpt lat="39.037352502548636" lon="16.54778342098436"><ele>1002.0</ele><time>2026-04-12T09:06:20Z</time></trkpt><trkpt lat="39.03729764169164" lon="16.547878056605274"><ele>1001.0</ele><time>2026-04-12T09:06:21Z</time></trkpt><trkpt lat="39.03718576328839" lon="16.54785681580885"><ele>1000.0</ele><time>2026-04-12T09:06:22Z</time></trkpt><trkpt lat="39.03706814612023" lon="16.547826446604187"><ele>1000.0</ele><time>2026-04-12T09:06:23Z</time></trkpt><trkpt lat="39.03700270737758" lon="16.547833321991448"><ele>1000.0</ele><time>2026-04-12T09:06:24Z</time></trkpt><trkpt lat="39.036897838340956" lon="16.54788544551008"><ele>1000.0</ele><time>2026-04-12T09:06:25Z</time></trkpt><trkpt lat="39.03684662818657" lon="16.54802748664629"><ele>1000.0</ele><time>2026-04-12T09:06:26Z</time></trkpt><trkpt lat="39.03678851666115" lon="16.548134832662253"><ele>1000.0</ele><time>2026-04-12T09:06:27Z</time></trkpt><trkpt lat="39.036728356752135" lon="16.54819229622847"><ele>996.25</ele><time>2026-04-12T09:06:28Z</time></trkpt><trkpt lat="39.03656896507653" lon="16.548203361926912"><ele>992.5</ele><time>2026-04-12T09:06:30Z</time></trkpt><trkpt lat="39.03644983860553" lon="16.548188932492472"><ele>988.75</ele><time>2026-04-12T09:06:31Z</time></trkpt><trkpt lat="39.036346625315964" lon="16.548213066111074"><ele>985.0</ele><time>2026-04-12T09:06:32Z</time></trkpt><trkpt lat="39.036253677240786" lon="16.548257818939486"><ele>985.0</ele><time>2026-04-12T09:06:33Z</time></trkpt><trkpt lat="39.03614725498841" lon="16.54831432233549"><ele>985.0</ele><time>2026-04-12T09:06:34Z</time></trkpt><trkpt lat="39.03608003851574" lon="16.548441039652747"><ele>985.0</ele><time>2026-04-12T09:06:35Z</time></trkpt><trkpt lat="39.0360271582244" lon="16.54856614397758"><ele>985.0</ele><time>2026-04-12T09:06:36Z</time></trkpt><trkpt lat="39.0359931731545" lon="16.548718782007946"><ele>986.0</ele><time>2026-04-12T09:06:37Z</time></trkpt><trkpt lat="39.035929082611055" lon="16.548836173284336"><ele>987.0</ele><time>2026-04-12T09:06:38Z</time></trkpt><trkpt lat="39.035852999624275" lon="16.548919692564564"><ele>988.0</ele><time>2026-04-12T09:06:39Z</time></trkpt><trkpt lat="39.03575103023671" lon="16.548982396250114"><ele>989.0</ele><time>2026-04-12T09:06:40Z</time></trkpt><trkpt lat="39.03558533375392" lon="16.54908206942332"><ele>985.25</ele><time>2026-04-12T09:06:41Z</time></trkpt><trkpt lat="39.03546515947882" lon="16.549144566264005"><ele>981.5</ele><time>2026-04-12T09:06:42Z</time></trkpt><trkpt lat="39.03535027334484" lon="16.549180623750804"><ele>977.75</ele><time>2026-04-12T09:06:43Z</time></trkpt><trkpt lat="39.035226074141086" lon="16.54918889320208"><ele>974.0</ele><time>2026-04-12T09:06:44Z</time></trkpt><trkpt lat="39.03511467706084" lon="16.549234361853458"><ele>974.0</ele><time>2026-04-12T09:06:45Z</time></trkpt><trkpt lat="39.03497883729206" lon="16.549318417905454"><ele>974.0</ele><time>2026-04-12T09:06:46Z</time></trkpt><trkpt lat="39.03478936370186" lon="16.54944432235629"><ele>974.0</ele><time>2026-04-12T09:06:47Z</time></trkpt><trkpt lat="39.034641633043144" lon="16.549545136790115"><ele>971.4000000000001</ele><time>2026-04-12T09:06:48Z</time></trkpt><trkpt lat="39.034533064938984" lon="16.5496186378486"><ele>968.8000000000001</ele><time>2026-04-12T09:06:49Z</time></trkpt><trkpt lat="39.03444122201466" lon="16.549680815818427"><ele>966.1999999999999</ele><time>2026-04-12T09:06:50Z</time></trkpt><trkpt lat="39.0343430762335" lon="16.549747260826873"><ele>963.5999999999999</ele><time>2026-04-12T09:06:51Z</time></trkpt><trkpt lat="39.03424621996192" lon="16.549810478215235"><ele>961.0</ele><time>2026-04-12T09:06:52Z</time></trkpt><trkpt lat="39.03415462498459" lon="16.54987116507138"><ele>956.5999999999999</ele><time>2026-04-12T09:06:53Z</time></trkpt><trkpt lat="39.034087064955386" lon="16.549926805104523"><ele>952.1999999999999</ele><time>2026-04-12T09:06:54Z</time></trkpt><trkpt lat="39.034044856962446" lon="16.55004885645743"><ele>947.8000000000001</ele><time>2026-04-12T09:06:55Z</time></trkpt><trkpt lat="39.03399831868397" lon="16.550120556778452"><ele>943.4000000000001</ele><time>2026-04-12T09:06:56Z</time></trkpt><trkpt lat="39.03385995853136" lon="16.550172584877824"><ele>939.0</ele><time>2026-04-12T09:06:58Z</time></trkpt><trkpt lat="39.033734166706346" lon="16.55013050017911"><ele>939.0</ele><time>2026-04-12T09:06:59Z</time></trkpt><trkpt lat="39.033632216133945" lon="16.550119997518358"><ele>939.0</ele><time>2026-04-12T09:07:00Z</time></trkpt><trkpt lat="39.03353153776378" lon="16.55008457051034"><ele>939.0</ele><time>2026-04-12T09:07:01Z</time></trkpt><trkpt lat="39.033409767635185" lon="16.55008745722395"><ele>939.0</ele><time>2026-04-12T09:07:02Z</time></trkpt><trkpt lat="39.03325954665065" lon="16.550112625852503"><ele>935.6666666666666</ele><time>2026-04-12T09:07:03Z</time></trkpt><trkpt lat="39.03316972181907" lon="16.550145684810655"><ele>932.3333333333333</ele><time>2026-04-12T09:07:04Z</time></trkpt><trkpt lat="39.03309957000801" lon="16.550211349852773"><ele>929.0</ele><time>2026-04-12T09:07:05Z</time></trkpt><trkpt lat="39.03304315661732" lon="16.550278312794877"><ele>925.6666666666666</ele><time>2026-04-12T09:07:06Z</time></trkpt><trkpt lat="39.03297748346782" lon="16.55031038688782"><ele>922.3333333333333</ele><time>2026-04-12T09:07:07Z</time></trkpt><trkpt lat="39.03287764729404" lon="16.550271284746565"><ele>919.0</ele><time>2026-04-12T09:07:08Z</time></trkpt><trkpt lat="39.03277420752547" lon="16.55023796664464"><ele>919.0</ele><time>2026-04-12T09:07:09Z</time></trkpt><trkpt lat="39.03267506400103" lon="16.55017273041329"><ele>919.0000000000001</ele><time>2026-04-12T09:07:10Z</time></trkpt><trkpt lat="39.03262081670649" lon="16.550085906818648"><ele>919.0000000000001</ele><time>2026-04-12T09:07:11Z</time></trkpt><trkpt lat="39.03262401887457" lon="16.549969928264478"><ele>919.0</ele><time>2026-04-12T09:07:12Z</time></trkpt><trkpt lat="39.03256924275132" lon="16.549889415703934"><ele>919.0</ele><time>2026-04-12T09:07:14Z</time></trkpt><trkpt lat="39.032434169865596" lon="16.549884658551857"><ele>913.4000000000001</ele><time>2026-04-12T09:07:16Z</time></trkpt><trkpt lat="39.032314892925214" lon="16.549943340119587"><ele>907.8000000000001</ele><time>2026-04-12T09:07:17Z</time></trkpt><trkpt lat="39.03222734025119" lon="16.550038590399733"><ele>902.1999999999999</ele><time>2026-04-12T09:07:18Z</time></trkpt><trkpt lat="39.03221822377089" lon="16.55011925119359"><ele>896.5999999999999</ele><time>2026-04-12T09:07:19Z</time></trkpt><trkpt lat="39.03217979647709" lon="16.550214557249674"><ele>891.0</ele><time>2026-04-12T09:07:20Z</time></trkpt><trkpt lat="39.032191711363886" lon="16.550353278304858"><ele>888.8</ele><time>2026-04-12T09:07:21Z</time></trkpt><trkpt lat="39.032252972073735" lon="16.55041567079539"><ele>886.5999999999999</ele><time>2026-04-12T09:07:22Z</time></trkpt><trkpt lat="39.03233762426012" lon="16.55051770624172"><ele>884.4</ele><time>2026-04-12T09:07:23Z</time></trkpt><trkpt lat="39.03238851725702" lon="16.55062730950686"><ele>882.2</ele><time>2026-04-12T09:07:25Z</time></trkpt><trkpt lat="39.03242242603099" lon="16.550710223076244"><ele>880.0</ele><time>2026-04-12T09:07:26Z</time></trkpt><trkpt lat="39.03228990490766" lon="16.550640410234735"><ele>880.0</ele><time>2026-04-12T09:09:34Z</time></trkpt><trkpt lat="39.032211469956955" lon="16.550549521534766"><ele>880.0</ele><time>2026-04-12T09:09:36Z</time></trkpt><trkpt lat="39.032156221874494" lon="16.550465317830046"><ele>880.0</ele><time>2026-04-12T09:09:38Z</time></trkpt><trkpt lat="39.03199700286711" lon="16.550235480207878"><ele>880.0</ele><time>2026-04-12T09:09:40Z</time></trkpt><trkpt lat="39.031950969130634" lon="16.550132582183636"><ele>879.6666666666666</ele><time>2026-04-12T09:09:41Z</time></trkpt><trkpt lat="39.03190936376404" lon="16.550033325832292"><ele>879.3333333333333</ele><time>2026-04-12T09:09:42Z</time></trkpt><trkpt lat="39.031876359545116" lon="16.5499282458887"><ele>879.0</ele><time>2026-04-12T09:09:43Z</time></trkpt><trkpt lat="39.0318584706472" lon="16.549811924127443"><ele>878.6666666666667</ele><time>2026-04-12T09:09:44Z</time></trkpt><trkpt lat="39.03185785290923" lon="16.54970512174472"><ele>878.3333333333334</ele><time>2026-04-12T09:09:45Z</time></trkpt><trkpt lat="39.03188415178552" lon="16.54960286076527"><ele>878.0</ele><time>2026-04-12T09:09:46Z</time></trkpt><trkpt lat="39.0319418447653" lon="16.54952643783299"><ele>878.0</ele><time>2026-04-12T09:09:47Z</time></trkpt><trkpt lat="39.032076633889545" lon="16.549400506831923"><ele>878.0</ele><time>2026-04-12T09:09:48Z</time></trkpt><trkpt lat="39.03209540986716" lon="16.54931501677171"><ele>878.0</ele><time>2026-04-12T09:09:50Z</time></trkpt><trkpt lat="39.03197889123907" lon="16.54922269167803"><ele>878.0</ele><time>2026-04-12T09:09:53Z</time></trkpt><trkpt lat="39.031894745362294" lon="16.549230260682727"><ele>878.0</ele><time>2026-04-12T09:09:54Z</time></trkpt><trkpt lat="39.031766016835924" lon="16.549225664143197"><ele>878.0</ele><time>2026-04-12T09:09:55Z</time></trkpt><trkpt lat="39.03166855584754" lon="16.549225524253615"><ele>878.0</ele><time>2026-04-12T09:09:56Z</time></trkpt><trkpt lat="39.031569172037855" lon="16.549229996050794"><ele>878.0</ele><time>2026-04-12T09:09:57Z</time></trkpt><trkpt lat="39.03146865253345" lon="16.549244645733197"><ele>878.0</ele><time>2026-04-12T09:09:58Z</time></trkpt><trkpt lat="39.03136143229326" lon="16.54929008798771"><ele>874.0</ele><time>2026-04-12T09:09:59Z</time></trkpt><trkpt lat="39.0312677961969" lon="16.54935896584734"><ele>870.0</ele><time>2026-04-12T09:10:00Z</time></trkpt><trkpt lat="39.03119431674693" lon="16.549426351949123"><ele>866.0</ele><time>2026-04-12T09:10:01Z</time></trkpt><trkpt lat="39.03114858987777" lon="16.549492731450872"><ele>862.0</ele><time>2026-04-12T09:10:02Z</time></trkpt><trkpt lat="39.031145562599" lon="16.549657207287794"><ele>858.0</ele><time>2026-04-12T09:10:04Z</time></trkpt><trkpt lat="39.03118693495231" lon="16.549779360601395"><ele>858.0</ele><time>2026-04-12T09:10:05Z</time></trkpt><trkpt lat="39.03121592073989" lon="16.549883421564836"><ele>858.0</ele><time>2026-04-12T09:10:06Z</time></trkpt><trkpt lat="39.03122468364505" lon="16.54997083188108"><ele>858.0</ele><time>2026-04-12T09:10:07Z</time></trkpt><trkpt lat="39.03121691563926" lon="16.550077329624408"><ele>858.0</ele><time>2026-04-12T09:10:08Z</time></trkpt><trkpt lat="39.031196759042345" lon="16.550179245518844"><ele>858.0</ele><time>2026-04-12T09:10:09Z</time></trkpt><trkpt lat="39.03116987866967" lon="16.55028699020145"><ele>858.0</ele><time>2026-04-12T09:10:10Z</time></trkpt><trkpt lat="39.03113194747064" lon="16.550401432226995"><ele>857.3333333333334</ele><time>2026-04-12T09:10:11Z</time></trkpt><trkpt lat="39.03106871160425" lon="16.550515298789314"><ele>856.6666666666667</ele><time>2026-04-12T09:10:12Z</time></trkpt><trkpt lat="39.031011285007594" lon="16.55060930622568"><ele>856.0</ele><time>2026-04-12T09:10:13Z</time></trkpt><trkpt lat="39.030958504086264" lon="16.550682561056995"><ele>855.3333333333334</ele><time>2026-04-12T09:10:14Z</time></trkpt><trkpt lat="39.0309240369362" lon="16.550752209326976"><ele>854.6666666666667</ele><time>2026-04-12T09:10:15Z</time></trkpt><trkpt lat="39.03081994289841" lon="16.550740628082373"><ele>854.0</ele><time>2026-04-12T09:10:17Z</time></trkpt><trkpt lat="39.03077224789004" lon="16.550685703836283"><ele>848.6</ele><time>2026-04-12T09:10:18Z</time></trkpt><trkpt lat="39.030734724068374" lon="16.550579203820657"><ele>843.2</ele><time>2026-04-12T09:10:19Z</time></trkpt><trkpt lat="39.03066360028715" lon="16.550454169233458"><ele>837.8000000000001</ele><time>2026-04-12T09:10:20Z</time></trkpt><trkpt lat="39.03060512371087" lon="16.550367169212286"><ele>832.4000000000001</ele><time>2026-04-12T09:10:21Z</time></trkpt><trkpt lat="39.03055569863528" lon="16.550273657509138"><ele>827.0</ele><time>2026-04-12T09:10:23Z</time></trkpt><trkpt lat="39.030668790963155" lon="16.55020881664447"><ele>827.0</ele><time>2026-04-12T09:10:24Z</time></trkpt><trkpt lat="39.03071088720816" lon="16.550102173291076"><ele>827.0</ele><time>2026-04-12T09:10:27Z</time></trkpt><trkpt lat="39.03065692619722" lon="16.54999688054131"><ele>827.0</ele><time>2026-04-12T09:10:29Z</time></trkpt><trkpt lat="39.030584186996094" lon="16.549977730478627"><ele>827.0</ele><time>2026-04-12T09:10:30Z</time></trkpt><trkpt lat="39.03048578908628" lon="16.5499477049496"><ele>827.0</ele><time>2026-04-12T09:10:31Z</time></trkpt><trkpt lat="39.030376135772336" lon="16.54990075926292"><ele>827.0</ele><time>2026-04-12T09:10:32Z</time></trkpt><trkpt lat="39.03026944955456" lon="16.549844531449555"><ele>827.0</ele><time>2026-04-12T09:10:33Z</time></trkpt><trkpt lat="39.030185176976474" lon="16.54979883191111"><ele>827.0</ele><time>2026-04-12T09:10:34Z</time></trkpt><trkpt lat="39.03009973050753" lon="16.549792410856153"><ele>827.0</ele><time>2026-04-12T09:10:35Z</time></trkpt><trkpt lat="39.03001976314498" lon="16.54981872404729"><ele>827.0</ele><time>2026-04-12T09:10:36Z</time></trkpt><trkpt lat="39.02995697142515" lon="16.549877997944044"><ele>819.8</ele><time>2026-04-12T09:10:37Z</time></trkpt><trkpt lat="39.02989585077152" lon="16.5499550370815"><ele>812.6</ele><time>2026-04-12T09:10:38Z</time></trkpt><trkpt lat="39.029854079221266" lon="16.550075748116313"><ele>805.4</ele><time>2026-04-12T09:10:39Z</time></trkpt><trkpt lat="39.02984340978218" lon="16.550212604098036"><ele>798.1999999999999</ele><time>2026-04-12T09:10:40Z</time></trkpt><trkpt lat="39.0298734786469" lon="16.55036367131583"><ele>791.0</ele><time>2026-04-12T09:10:41Z</time></trkpt><trkpt lat="39.02990716916898" lon="16.550474576769698"><ele>791.0</ele><time>2026-04-12T09:10:42Z</time></trkpt><trkpt lat="39.0299409932426" lon="16.550563286205037"><ele>791.0</ele><time>2026-04-12T09:10:43Z</time></trkpt><trkpt lat="39.02994930797073" lon="16.55074059743697"><ele>791.0</ele><time>2026-04-12T09:10:45Z</time></trkpt><trkpt lat="39.02990306702213" lon="16.550811598217138"><ele>791.0</ele><time>2026-04-12T09:10:46Z</time></trkpt><trkpt lat="39.02985148333516" lon="16.550923667731276"><ele>791.0</ele><time>2026-04-12T09:10:47Z</time></trkpt><trkpt lat="39.02979065450278" lon="16.551040120250327"><ele>791.0000000000001</ele><time>2026-04-12T09:10:48Z</time></trkpt><trkpt lat="39.029738437844834" lon="16.551128878427516"><ele>791.0</ele><time>2026-04-12T09:10:49Z</time></trkpt><trkpt lat="39.029695008138305" lon="16.551193738937034"><ele>791.0</ele><time>2026-04-12T09:10:50Z</time></trkpt><trkpt lat="39.02961705493372" lon="16.55127058502482"><ele>791.0</ele><time>2026-04-12T09:10:52Z</time></trkpt><trkpt lat="39.02955927771641" lon="16.551402592686625"><ele>791.0000000000001</ele><time>2026-04-12T09:10:54Z</time></trkpt><trkpt lat="39.02960894277998" lon="16.55148014961306"><ele>791.0</ele><time>2026-04-12T09:14:07Z</time></trkpt><trkpt lat="39.02955558789815" lon="16.55152481534971"><ele>793.5999999999999</ele><time>2026-04-12T09:16:35Z</time></trkpt><trkpt lat="39.02950283727868" lon="16.55163080329041"><ele>796.2</ele><time>2026-04-12T09:16:37Z</time></trkpt><trkpt lat="39.029450495653336" lon="16.55168148334034"><ele>798.8</ele><time>2026-04-12T09:16:38Z</time></trkpt><trkpt lat="39.029349735564985" lon="16.551819493953413"><ele>801.4000000000001</ele><time>2026-04-12T09:16:40Z</time></trkpt><trkpt lat="39.02928286861161" lon="16.551917116789713"><ele>804.0</ele><time>2026-04-12T09:16:41Z</time></trkpt><trkpt lat="39.02921656846316" lon="16.552021358416088"><ele>805.0</ele><time>2026-04-12T09:16:42Z</time></trkpt><trkpt lat="39.02913829480269" lon="16.55209888126772"><ele>806.0</ele><time>2026-04-12T09:16:43Z</time></trkpt><trkpt lat="39.02905094983249" lon="16.552184170818254"><ele>807.0</ele><time>2026-04-12T09:16:44Z</time></trkpt><trkpt lat="39.0289520846343" lon="16.552282981998516"><ele>808.0</ele><time>2026-04-12T09:16:45Z</time></trkpt><trkpt lat="39.02884597358801" lon="16.552386839110103"><ele>808.0</ele><time>2026-04-12T09:16:46Z</time></trkpt><trkpt lat="39.02873435058536" lon="16.552490996649738"><ele>808.0</ele><time>2026-04-12T09:16:47Z</time></trkpt><trkpt lat="39.028631364243715" lon="16.5525911670261"><ele>808.0</ele><time>2026-04-12T09:16:48Z</time></trkpt><trkpt lat="39.02851838254908" lon="16.55269657394435"><ele>808.0</ele><time>2026-04-12T09:16:49Z</time></trkpt><trkpt lat="39.028410125348834" lon="16.552803372180488"><ele>805.25</ele><time>2026-04-12T09:16:50Z</time></trkpt><trkpt lat="39.02829248538586" lon="16.552924857154956"><ele>802.5</ele><time>2026-04-12T09:16:51Z</time></trkpt><trkpt lat="39.028204791641805" lon="16.553007548385533"><ele>799.75</ele><time>2026-04-12T09:16:52Z</time></trkpt><trkpt lat="39.02810969336676" lon="16.55309760324249"><ele>797.0</ele><time>2026-04-12T09:16:53Z</time></trkpt><trkpt lat="39.028018870485646" lon="16.553184571757786"><ele>797.0</ele><time>2026-04-12T09:16:54Z</time></trkpt><trkpt lat="39.027928874651366" lon="16.553272972333723"><ele>797.0</ele><time>2026-04-12T09:16:55Z</time></trkpt><trkpt lat="39.02784609285027" lon="16.553373347561394"><ele>797.0</ele><time>2026-04-12T09:16:56Z</time></trkpt><trkpt lat="39.027766777615476" lon="16.55347986994059"><ele>797.0</ele><time>2026-04-12T09:16:57Z</time></trkpt><trkpt lat="39.02769335195546" lon="16.553593110159703"><ele>795.5</ele><time>2026-04-12T09:16:58Z</time></trkpt><trkpt lat="39.02761762090192" lon="16.553713044599"><ele>794.0</ele><time>2026-04-12T09:16:59Z</time></trkpt><trkpt lat="39.02754894730846" lon="16.553837130118968"><ele>792.5</ele><time>2026-04-12T09:17:00Z</time></trkpt><trkpt lat="39.027482210178036" lon="16.55396488321732"><ele>791.0</ele><time>2026-04-12T09:17:01Z</time></trkpt><trkpt lat="39.02741661807895" lon="16.55409615506554"><ele>788.75</ele><time>2026-04-12T09:17:02Z</time></trkpt><trkpt lat="39.02734944743552" lon="16.554229550218697"><ele>786.5</ele><time>2026-04-12T09:17:03Z</time></trkpt><trkpt lat="39.02728013525894" lon="16.554375508461828"><ele>784.25</ele><time>2026-04-12T09:17:04Z</time></trkpt><trkpt lat="39.02721162630316" lon="16.554510170919315"><ele>782.0</ele><time>2026-04-12T09:17:05Z</time></trkpt><trkpt lat="39.02714213396904" lon="16.554650045580146"><ele>781.5</ele><time>2026-04-12T09:17:06Z</time></trkpt><trkpt lat="39.02707108500205" lon="16.554796153179165"><ele>781.0</ele><time>2026-04-12T09:17:07Z</time></trkpt><trkpt lat="39.027001057664684" lon="16.554937272109726"><ele>780.5</ele><time>2026-04-12T09:17:08Z</time></trkpt><trkpt lat="39.026930710277014" lon="16.555081111467853"><ele>780.0</ele><time>2026-04-12T09:17:09Z</time></trkpt><trkpt lat="39.026858981160025" lon="16.555225138370176"><ele>780.0</ele><time>2026-04-12T09:17:10Z</time></trkpt><trkpt lat="39.02678777077515" lon="16.5553608890009"><ele>780.0</ele><time>2026-04-12T09:17:11Z</time></trkpt><trkpt lat="39.02671942593792" lon="16.55549601767176"><ele>780.0</ele><time>2026-04-12T09:17:12Z</time></trkpt><trkpt lat="39.02665336003814" lon="16.555632623099633"><ele>780.0</ele><time>2026-04-12T09:17:13Z</time></trkpt><trkpt lat="39.02658684714267" lon="16.555766206345915"><ele>779.5</ele><time>2026-04-12T09:17:14Z</time></trkpt><trkpt lat="39.026517658802" lon="16.555894968696144"><ele>779.0</ele><time>2026-04-12T09:17:15Z</time></trkpt><trkpt lat="39.02645443567078" lon="16.556021888235573"><ele>778.5</ele><time>2026-04-12T09:17:16Z</time></trkpt><trkpt lat="39.02639176135637" lon="16.556147444566346"><ele>778.0</ele><time>2026-04-12T09:17:17Z</time></trkpt><trkpt lat="39.02632112288834" lon="16.55626407754147"><ele>779.25</ele><time>2026-04-12T09:17:18Z</time></trkpt><trkpt lat="39.02623021310374" lon="16.556371887589073"><ele>780.5</ele><time>2026-04-12T09:17:19Z</time></trkpt><trkpt lat="39.026129181111024" lon="16.556477411199747"><ele>781.75</ele><time>2026-04-12T09:17:20Z</time></trkpt><trkpt lat="39.026009605888284" lon="16.556580802581376"><ele>783.0</ele><time>2026-04-12T09:17:21Z</time></trkpt><trkpt lat="39.02588294951466" lon="16.556665784368302"><ele>785.0</ele><time>2026-04-12T09:17:22Z</time></trkpt><trkpt lat="39.02575085683854" lon="16.556731850619613"><ele>787.0</ele><time>2026-04-12T09:17:23Z</time></trkpt><trkpt lat="39.025616025611846" lon="16.556782782639527"><ele>789.0</ele><time>2026-04-12T09:17:24Z</time></trkpt><trkpt lat="39.02548283852629" lon="16.55682086741685"><ele>791.0</ele><time>2026-04-12T09:17:25Z</time></trkpt><trkpt lat="39.025351803077875" lon="16.55684625311515"><ele>791.0</ele><time>2026-04-12T09:17:26Z</time></trkpt><trkpt lat="39.025223439558665" lon="16.556865382698867"><ele>791.0</ele><time>2026-04-12T09:17:27Z</time></trkpt><trkpt lat="39.025101164379635" lon="16.556888429661672"><ele>791.0</ele><time>2026-04-12T09:17:28Z</time></trkpt><trkpt lat="39.02498190209606" lon="16.556905689007987"><ele>791.0</ele><time>2026-04-12T09:17:29Z</time></trkpt><trkpt lat="39.02486982928697" lon="16.556929622346516"><ele>794.5</ele><time>2026-04-12T09:17:30Z</time></trkpt><trkpt lat="39.02475467496289" lon="16.556955630002452"><ele>798.0</ele><time>2026-04-12T09:17:31Z</time></trkpt><trkpt lat="39.0246411151561" lon="16.55698030632909"><ele>801.5</ele><time>2026-04-12T09:17:32Z</time></trkpt><trkpt lat="39.02453037719545" lon="16.557001963010837"><ele>805.0</ele><time>2026-04-12T09:17:33Z</time></trkpt><trkpt lat="39.0244221219896" lon="16.557016612688944"><ele>800.9999999999999</ele><time>2026-04-12T09:17:34Z</time></trkpt><trkpt lat="39.024320138935934" lon="16.557038219127865"><ele>797.0</ele><time>2026-04-12T09:17:35Z</time></trkpt><trkpt lat="39.024227844237366" lon="16.557054893567955"><ele>793.0</ele><time>2026-04-12T09:17:36Z</time></trkpt><trkpt lat="39.02414443686037" lon="16.557061378762768"><ele>789.0</ele><time>2026-04-12T09:17:37Z</time></trkpt><trkpt lat="39.02407307441958" lon="16.55707875683155"><ele>784.9999999999999</ele><time>2026-04-12T09:17:38Z</time></trkpt><trkpt lat="39.02401476822072" lon="16.55713217714075"><ele>781.0</ele><time>2026-04-12T09:17:39Z</time></trkpt><trkpt lat="39.02394491268356" lon="16.55721058374791"><ele>780.8</ele><time>2026-04-12T09:17:40Z</time></trkpt><trkpt lat="39.02388922479571" lon="16.55729796738882"><ele>780.5999999999999</ele><time>2026-04-12T09:17:41Z</time></trkpt><trkpt lat="39.02382717540658" lon="16.557351981598615"><ele>780.4</ele><time>2026-04-12T09:17:42Z</time></trkpt><trkpt lat="39.023718591107524" lon="16.557317556138376"><ele>780.2</ele><time>2026-04-12T09:17:43Z</time></trkpt><trkpt lat="39.023568017894824" lon="16.557428623529454"><ele>780.0</ele><time>2026-04-12T09:17:44Z</time></trkpt><trkpt lat="39.02343037787592" lon="16.55736847087711"><ele>780.0</ele><time>2026-04-12T09:17:45Z</time></trkpt><trkpt lat="39.02332230209431" lon="16.55729676431357"><ele>780.0</ele><time>2026-04-12T09:17:46Z</time></trkpt><trkpt lat="39.02318423139586" lon="16.557243856451176"><ele>780.0</ele><time>2026-04-12T09:17:47Z</time></trkpt><trkpt lat="39.02308312494947" lon="16.557166275080284"><ele>780.0</ele><time>2026-04-12T09:17:48Z</time></trkpt><trkpt lat="39.022993352244065" lon="16.557022651131255"><ele>784.75</ele><time>2026-04-12T09:17:49Z</time></trkpt><trkpt lat="39.02286529812748" lon="16.55690745940444"><ele>789.5</ele><time>2026-04-12T09:17:50Z</time></trkpt><trkpt lat="39.02276987320361" lon="16.556821913305896"><ele>794.25</ele><time>2026-04-12T09:17:51Z</time></trkpt><trkpt lat="39.02269053350198" lon="16.55676999347509"><ele>799.0</ele><time>2026-04-12T09:17:52Z</time></trkpt><trkpt lat="39.02260356265003" lon="16.556693360780343"><ele>799.0</ele><time>2026-04-12T09:17:53Z</time></trkpt><trkpt lat="39.02249399106966" lon="16.55671164609791"><ele>799.0</ele><time>2026-04-12T09:17:54Z</time></trkpt><trkpt lat="39.02240373231217" lon="16.556772481354095"><ele>799.0</ele><time>2026-04-12T09:17:55Z</time></trkpt><trkpt lat="39.02229158667917" lon="16.55687804944428"><ele>799.0</ele><time>2026-04-12T09:17:56Z</time></trkpt><trkpt lat="39.02229868298716" lon="16.55705500436733"><ele>802.25</ele><time>2026-04-12T09:17:57Z</time></trkpt><trkpt lat="39.02231632259761" lon="16.557174231906615"><ele>805.5</ele><time>2026-04-12T09:17:58Z</time></trkpt><trkpt lat="39.022319102531846" lon="16.557306293266617"><ele>808.75</ele><time>2026-04-12T09:17:59Z</time></trkpt><trkpt lat="39.02238516484619" lon="16.55753676304497"><ele>812.0</ele><time>2026-04-12T09:18:00Z</time></trkpt><trkpt lat="39.02238904289882" lon="16.557723919271673"><ele>808.5</ele><time>2026-04-12T09:18:01Z</time></trkpt><trkpt lat="39.02239925547617" lon="16.557882300935066"><ele>805.0</ele><time>2026-04-12T09:18:02Z</time></trkpt><trkpt lat="39.02240520634248" lon="16.558013146806147"><ele>801.5</ele><time>2026-04-12T09:18:03Z</time></trkpt><trkpt lat="39.02240826703684" lon="16.558128434793836"><ele>798.0</ele><time>2026-04-12T09:18:04Z</time></trkpt><trkpt lat="39.02233719736585" lon="16.558327914422843"><ele>798.0</ele><time>2026-04-12T09:18:06Z</time></trkpt><trkpt lat="39.02233192087917" lon="16.558471504370143"><ele>798.0</ele><time>2026-04-12T09:18:07Z</time></trkpt><trkpt lat="39.022348757969596" lon="16.558632496870864"><ele>798.0</ele><time>2026-04-12T09:18:08Z</time></trkpt><trkpt lat="39.022370741654456" lon="16.558798180363656"><ele>798.0</ele><time>2026-04-12T09:18:09Z</time></trkpt><trkpt lat="39.022389850392436" lon="16.558942033653487"><ele>793.4</ele><time>2026-04-12T09:18:10Z</time></trkpt><trkpt lat="39.02239323773329" lon="16.559105725877124"><ele>788.8</ele><time>2026-04-12T09:18:11Z</time></trkpt><trkpt lat="39.02236760547327" lon="16.559234351693856"><ele>784.2</ele><time>2026-04-12T09:18:12Z</time></trkpt><trkpt lat="39.02232457566506" lon="16.559344080790385"><ele>779.6</ele><time>2026-04-12T09:18:13Z</time></trkpt><trkpt lat="39.02225094323887" lon="16.559419792343963"><ele>775.0</ele><time>2026-04-12T09:18:14Z</time></trkpt><trkpt lat="39.02217569755843" lon="16.559454765433173"><ele>770.75</ele><time>2026-04-12T09:18:15Z</time></trkpt><trkpt lat="39.022034205650286" lon="16.55957699646895"><ele>766.5</ele><time>2026-04-12T09:18:16Z</time></trkpt><trkpt lat="39.02192784347343" lon="16.559689675432796"><ele>762.25</ele><time>2026-04-12T09:18:17Z</time></trkpt><trkpt lat="39.02185367789935" lon="16.559808478758782"><ele>758.0</ele><time>2026-04-12T09:18:18Z</time></trkpt><trkpt lat="39.02177591454017" lon="16.559891694940852"><ele>758.0</ele><time>2026-04-12T09:18:19Z</time></trkpt><trkpt lat="39.02169573118297" lon="16.559951862453328"><ele>758.0</ele><time>2026-04-12T09:18:20Z</time></trkpt><trkpt lat="39.02157004314126" lon="16.56000032455063"><ele>758.0</ele><time>2026-04-12T09:18:21Z</time></trkpt><trkpt lat="39.021426927478345" lon="16.560001320867404"><ele>758.0</ele><time>2026-04-12T09:18:22Z</time></trkpt><trkpt lat="39.02132299449111" lon="16.560026119471505"><ele>757.75</ele><time>2026-04-12T09:18:23Z</time></trkpt><trkpt lat="39.021242558419914" lon="16.560122799819826"><ele>757.5</ele><time>2026-04-12T09:18:24Z</time></trkpt><trkpt lat="39.021222034347154" lon="16.560278470164004"><ele>757.25</ele><time>2026-04-12T09:18:25Z</time></trkpt><trkpt lat="39.021238855086736" lon="16.560435154212357"><ele>757.0</ele><time>2026-04-12T09:18:26Z</time></trkpt><trkpt lat="39.02128859187327" lon="16.560583094222793"><ele>751.6</ele><time>2026-04-12T09:18:27Z</time></trkpt><trkpt lat="39.021359346005376" lon="16.560711762714103"><ele>746.2</ele><time>2026-04-12T09:18:28Z</time></trkpt><trkpt lat="39.02138774720451" lon="16.5608060383341"><ele>740.8</ele><time>2026-04-12T09:18:29Z</time></trkpt><trkpt lat="39.02136584307726" lon="16.560898346071436"><ele>735.4</ele><time>2026-04-12T09:18:30Z</time></trkpt><trkpt lat="39.0212809861397" lon="16.560970974271644"><ele>730.0</ele><time>2026-04-12T09:18:31Z</time></trkpt><trkpt lat="39.021186314175694" lon="16.560950815940128"><ele>730.0</ele><time>2026-04-12T09:18:32Z</time></trkpt><trkpt lat="39.021098231683176" lon="16.560853961537855"><ele>730.0</ele><time>2026-04-12T09:18:33Z</time></trkpt><trkpt lat="39.021010263272295" lon="16.56075761671272"><ele>730.0</ele><time>2026-04-12T09:18:34Z</time></trkpt><trkpt lat="39.02092746170057" lon="16.560648491294994"><ele>730.0</ele><time>2026-04-12T09:18:35Z</time></trkpt><trkpt lat="39.020829926558804" lon="16.560500129416283"><ele>733.75</ele><time>2026-04-12T09:18:36Z</time></trkpt><trkpt lat="39.02074163607943" lon="16.560392054245533"><ele>737.5</ele><time>2026-04-12T09:18:37Z</time></trkpt><trkpt lat="39.02063891447484" lon="16.560305269949755"><ele>741.25</ele><time>2026-04-12T09:18:38Z</time></trkpt><trkpt lat="39.020523373078944" lon="16.56023195202996"><ele>745.0</ele><time>2026-04-12T09:18:39Z</time></trkpt><trkpt lat="39.020415436218464" lon="16.560151442714773"><ele>745.0</ele><time>2026-04-12T09:18:40Z</time></trkpt><trkpt lat="39.0202999574101" lon="16.560068678893572"><ele>745.0</ele><time>2026-04-12T09:18:41Z</time></trkpt><trkpt lat="39.020189876705075" lon="16.559979580861643"><ele>745.0</ele><time>2026-04-12T09:18:42Z</time></trkpt><trkpt lat="39.02007037405731" lon="16.559916869226992"><ele>745.0</ele><time>2026-04-12T09:18:43Z</time></trkpt><trkpt lat="39.01996970962478" lon="16.559898070267483"><ele>747.0</ele><time>2026-04-12T09:18:44Z</time></trkpt><trkpt lat="39.019835711559324" lon="16.559910062222638"><ele>749.0</ele><time>2026-04-12T09:18:45Z</time></trkpt><trkpt lat="39.01972117784336" lon="16.559893240318527"><ele>751.0</ele><time>2026-04-12T09:18:46Z</time></trkpt><trkpt lat="39.019608083460035" lon="16.559919809367777"><ele>753.0</ele><time>2026-04-12T09:18:47Z</time></trkpt><trkpt lat="39.01951853861027" lon="16.56000559270959"><ele>753.0</ele><time>2026-04-12T09:18:48Z</time></trkpt><trkpt lat="39.0194312294861" lon="16.560130395657648"><ele>753.0</ele><time>2026-04-12T09:18:49Z</time></trkpt><trkpt lat="39.01934832917848" lon="16.560260618230764"><ele>753.0</ele><time>2026-04-12T09:18:50Z</time></trkpt><trkpt lat="39.01927209375126" lon="16.56039218044603"><ele>753.0</ele><time>2026-04-12T09:18:51Z</time></trkpt><trkpt lat="39.01918980151221" lon="16.56051948913571"><ele>746.5</ele><time>2026-04-12T09:18:52Z</time></trkpt><trkpt lat="39.01911297427138" lon="16.5606452469308"><ele>740.0</ele><time>2026-04-12T09:18:53Z</time></trkpt><trkpt lat="39.01905015658091" lon="16.560765710395504"><ele>733.5</ele><time>2026-04-12T09:18:54Z</time></trkpt><trkpt lat="39.01898875153872" lon="16.56089631291128"><ele>727.0</ele><time>2026-04-12T09:18:55Z</time></trkpt><trkpt lat="39.01892069041352" lon="16.56101801732228"><ele>727.0</ele><time>2026-04-12T09:18:56Z</time></trkpt><trkpt lat="39.018855670677766" lon="16.561128483803333"><ele>727.0</ele><time>2026-04-12T09:18:57Z</time></trkpt><trkpt lat="39.01878487545893" lon="16.561221324699737"><ele>727.0</ele><time>2026-04-12T09:18:58Z</time></trkpt><trkpt lat="39.01870864548933" lon="16.56126116340569"><ele>727.0</ele><time>2026-04-12T09:18:59Z</time></trkpt><trkpt lat="39.01861653463203" lon="16.56118843222874"><ele>727.0</ele><time>2026-04-12T09:19:00Z</time></trkpt><trkpt lat="39.01852233335631" lon="16.56114015724853"><ele>727.0</ele><time>2026-04-12T09:19:01Z</time></trkpt><trkpt lat="39.018429881785075" lon="16.561064444398536"><ele>727.0</ele><time>2026-04-12T09:19:02Z</time></trkpt><trkpt lat="39.01836410243387" lon="16.560956188665422"><ele>727.0</ele><time>2026-04-12T09:19:03Z</time></trkpt><trkpt lat="39.01830392086806" lon="16.5608278155374"><ele>727.0</ele><time>2026-04-12T09:19:04Z</time></trkpt><trkpt lat="39.01823093235266" lon="16.560713141103435"><ele>727.0</ele><time>2026-04-12T09:19:05Z</time></trkpt><trkpt lat="39.01815988133216" lon="16.560607778944142"><ele>726.6</ele><time>2026-04-12T09:19:06Z</time></trkpt><trkpt lat="39.0180699287793" lon="16.56054643035938"><ele>726.2</ele><time>2026-04-12T09:19:07Z</time></trkpt><trkpt lat="39.01797182168532" lon="16.560522990941163"><ele>725.8</ele><time>2026-04-12T09:19:08Z</time></trkpt><trkpt lat="39.01786912535325" lon="16.560568292561058"><ele>725.4</ele><time>2026-04-12T09:19:09Z</time></trkpt><trkpt lat="39.01780258225915" lon="16.56068294703485"><ele>725.0</ele><time>2026-04-12T09:19:10Z</time></trkpt><trkpt lat="39.01776492774498" lon="16.56082801160258"><ele>725.0</ele><time>2026-04-12T09:19:11Z</time></trkpt><trkpt lat="39.01770498392398" lon="16.560969500230726"><ele>725.0</ele><time>2026-04-12T09:19:12Z</time></trkpt><trkpt lat="39.01762932967272" lon="16.561076690453817"><ele>725.0</ele><time>2026-04-12T09:19:13Z</time></trkpt><trkpt lat="39.01753369815035" lon="16.56115460991796"><ele>725.0</ele><time>2026-04-12T09:19:14Z</time></trkpt><trkpt lat="39.0174538159312" lon="16.561227493531653"><ele>725.0</ele><time>2026-04-12T09:19:15Z</time></trkpt><trkpt lat="39.01734208654496" lon="16.561265936553752"><ele>722.4</ele><time>2026-04-12T09:19:16Z</time></trkpt><trkpt lat="39.01723204832957" lon="16.56128332437651"><ele>719.8</ele><time>2026-04-12T09:19:17Z</time></trkpt><trkpt lat="39.017122050261804" lon="16.561299780781372"><ele>717.2</ele><time>2026-04-12T09:19:18Z</time></trkpt><trkpt lat="39.01702355672765" lon="16.561291505004906"><ele>714.6</ele><time>2026-04-12T09:19:19Z</time></trkpt><trkpt lat="39.016938489377225" lon="16.561219568205054"><ele>712.0</ele><time>2026-04-12T09:19:20Z</time></trkpt><trkpt lat="39.0168760929501" lon="16.561103814969016"><ele>712.0</ele><time>2026-04-12T09:19:21Z</time></trkpt><trkpt lat="39.01682660946323" lon="16.56096973225623"><ele>712.0</ele><time>2026-04-12T09:19:22Z</time></trkpt><trkpt lat="39.01677517400137" lon="16.56083836791414"><ele>712.0</ele><time>2026-04-12T09:19:23Z</time></trkpt><trkpt lat="39.01673370812032" lon="16.56070759418726"><ele>712.0</ele><time>2026-04-12T09:19:24Z</time></trkpt><trkpt lat="39.016698757716725" lon="16.560581452510313"><ele>712.0</ele><time>2026-04-12T09:19:25Z</time></trkpt><trkpt lat="39.01666068641093" lon="16.56047355430801"><ele>711.25</ele><time>2026-04-12T09:19:26Z</time></trkpt><trkpt lat="39.01660329597137" lon="16.560401981490593"><ele>710.5</ele><time>2026-04-12T09:19:27Z</time></trkpt><trkpt lat="39.01643790516529" lon="16.560363676688684"><ele>709.75</ele><time>2026-04-12T09:19:29Z</time></trkpt><trkpt lat="39.01631099207039" lon="16.560408025167803"><ele>709.0</ele><time>2026-04-12T09:19:30Z</time></trkpt><trkpt lat="39.01604130624501" lon="16.5605486988987"><ele>709.0</ele><time>2026-04-12T09:19:31Z</time></trkpt><trkpt lat="39.016096386732535" lon="16.560489627417166"><ele>709.0</ele><time>2026-04-12T09:19:32Z</time></trkpt><trkpt lat="39.016008507719185" lon="16.560579111769552"><ele>709.0</ele><time>2026-04-12T09:19:33Z</time></trkpt><trkpt lat="39.01594881594104" lon="16.56069929850882"><ele>709.0</ele><time>2026-04-12T09:19:34Z</time></trkpt><trkpt lat="39.015907124891925" lon="16.560834161855393"><ele>709.0</ele><time>2026-04-12T09:19:35Z</time></trkpt><trkpt lat="39.01586927273012" lon="16.56094626092783"><ele>715.0</ele><time>2026-04-12T09:19:36Z</time></trkpt><trkpt lat="39.01580848420698" lon="16.561086506661482"><ele>721.0</ele><time>2026-04-12T09:19:37Z</time></trkpt><trkpt lat="39.015723490266254" lon="16.561127584115344"><ele>727.0</ele><time>2026-04-12T09:19:38Z</time></trkpt><trkpt lat="39.01562397009141" lon="16.56115101751023"><ele>733.0</ele><time>2026-04-12T09:19:39Z</time></trkpt><trkpt lat="39.01552548244856" lon="16.561147486729226"><ele>739.0</ele><time>2026-04-12T09:19:40Z</time></trkpt><trkpt lat="39.015432800694875" lon="16.56119184099417"><ele>736.8000000000001</ele><time>2026-04-12T09:19:41Z</time></trkpt><trkpt lat="39.01536885951607" lon="16.561249687067924"><ele>734.6</ele><time>2026-04-12T09:19:42Z</time></trkpt><trkpt lat="39.015362221622" lon="16.561425235723533"><ele>732.4</ele><time>2026-04-12T09:19:43Z</time></trkpt><trkpt lat="39.015347576958014" lon="16.561556736081247"><ele>730.2</ele><time>2026-04-12T09:19:44Z</time></trkpt><trkpt lat="39.01533042337983" lon="16.561700515354108"><ele>728.0</ele><time>2026-04-12T09:19:45Z</time></trkpt><trkpt lat="39.01531180539534" lon="16.56183215713466"><ele>728.0</ele><time>2026-04-12T09:19:46Z</time></trkpt><trkpt lat="39.01529831743935" lon="16.561969305460334"><ele>728.0</ele><time>2026-04-12T09:19:47Z</time></trkpt><trkpt lat="39.015287469551915" lon="16.562084203037365"><ele>728.0</ele><time>2026-04-12T09:19:48Z</time></trkpt><trkpt lat="39.015312366166675" lon="16.56218122403374"><ele>728.0</ele><time>2026-04-12T09:19:49Z</time></trkpt><trkpt lat="39.015336687673816" lon="16.562274224022733"><ele>728.0</ele><time>2026-04-12T09:19:50Z</time></trkpt><trkpt lat="39.015418171651525" lon="16.562332629984656"><ele>728.0</ele><time>2026-04-12T09:19:51Z</time></trkpt><trkpt lat="39.015504130648836" lon="16.562403644191352"><ele>728.2</ele><time>2026-04-12T09:19:52Z</time></trkpt><trkpt lat="39.01551886865731" lon="16.5625030191204"><ele>728.4</ele><time>2026-04-12T09:19:53Z</time></trkpt><trkpt lat="39.015550678798995" lon="16.56260633212913"><ele>728.6</ele><time>2026-04-12T09:19:54Z</time></trkpt><trkpt lat="39.015554940768546" lon="16.5628084656628"><ele>728.8000000000001</ele><time>2026-04-12T09:19:56Z</time></trkpt><trkpt lat="39.015587440668675" lon="16.562958292390974"><ele>729.0</ele><time>2026-04-12T09:19:57Z</time></trkpt><trkpt lat="39.01561772379843" lon="16.563084271188302"><ele>725.6</ele><time>2026-04-12T09:19:58Z</time></trkpt><trkpt lat="39.015651817166074" lon="16.56316897173161"><ele>722.2</ele><time>2026-04-12T09:19:59Z</time></trkpt><trkpt lat="39.015710500896056" lon="16.563268070143028"><ele>718.8000000000001</ele><time>2026-04-12T09:20:00Z</time></trkpt><trkpt lat="39.015784221955286" lon="16.563369985145858"><ele>715.4000000000001</ele><time>2026-04-12T09:20:01Z</time></trkpt><trkpt lat="39.01586833490755" lon="16.563458112595487"><ele>712.0</ele><time>2026-04-12T09:20:02Z</time></trkpt><trkpt lat="39.01601098645506" lon="16.563550454703066"><ele>701.6666666666667</ele><time>2026-04-12T09:20:03Z</time></trkpt><trkpt lat="39.01609385784675" lon="16.56363210895418"><ele>691.3333333333334</ele><time>2026-04-12T09:20:04Z</time></trkpt><trkpt lat="39.01617804940298" lon="16.5637150640358"><ele>681.0</ele><time>2026-04-12T09:20:05Z</time></trkpt><trkpt lat="39.01591459810636" lon="16.56383940497087"><ele>683.1999999999999</ele><time>2026-04-12T09:20:06Z</time></trkpt><trkpt lat="39.01585937201084" lon="16.563951875779033"><ele>685.4</ele><time>2026-04-12T09:20:07Z</time></trkpt><trkpt lat="39.015807375283394" lon="16.564051359525294"><ele>687.6</ele><time>2026-04-12T09:20:08Z</time></trkpt><trkpt lat="39.01573519067797" lon="16.564131252538797"><ele>689.8</ele><time>2026-04-12T09:20:09Z</time></trkpt><trkpt lat="39.01564421143583" lon="16.564090140114654"><ele>692.0</ele><time>2026-04-12T09:20:10Z</time></trkpt><trkpt lat="39.0155699847445" lon="16.564004878888138"><ele>692.0</ele><time>2026-04-12T09:20:11Z</time></trkpt><trkpt lat="39.01545960315954" lon="16.563932707551675"><ele>692.0</ele><time>2026-04-12T09:20:12Z</time></trkpt><trkpt lat="39.0153512356047" lon="16.563910557726384"><ele>692.0</ele><time>2026-04-12T09:20:13Z</time></trkpt><trkpt lat="39.015270738235" lon="16.563925825532273"><ele>692.0</ele><time>2026-04-12T09:20:14Z</time></trkpt><trkpt lat="39.01522568576531" lon="16.56401109935808"><ele>692.0</ele><time>2026-04-12T09:20:15Z</time></trkpt><trkpt lat="39.01522538530791" lon="16.56412655154993"><ele>692.0</ele><time>2026-04-12T09:20:16Z</time></trkpt><trkpt lat="39.01524484356015" lon="16.564261141752674"><ele>692.0</ele><time>2026-04-12T09:20:17Z</time></trkpt><trkpt lat="39.01526293628389" lon="16.56443505927747"><ele>692.0</ele><time>2026-04-12T09:20:18Z</time></trkpt><trkpt lat="39.01527009365508" lon="16.564587829283052"><ele>692.0</ele><time>2026-04-12T09:20:19Z</time></trkpt><trkpt lat="39.01527393988622" lon="16.56472431445589"><ele>694.8</ele><time>2026-04-12T09:20:20Z</time></trkpt><trkpt lat="39.01528679542064" lon="16.564859636233894"><ele>697.6</ele><time>2026-04-12T09:20:21Z</time></trkpt><trkpt lat="39.01534704443187" lon="16.564954472499853"><ele>700.4</ele><time>2026-04-12T09:20:22Z</time></trkpt><trkpt lat="39.015460814878054" lon="16.56500668403889"><ele>703.1999999999999</ele><time>2026-04-12T09:20:23Z</time></trkpt><trkpt lat="39.01555650121294" lon="16.565063182163556"><ele>706.0</ele><time>2026-04-12T09:20:24Z</time></trkpt><trkpt lat="39.015683121074915" lon="16.56513742099526"><ele>706.0</ele><time>2026-04-12T09:20:25Z</time></trkpt><trkpt lat="39.01579280951747" lon="16.565152294089465"><ele>706.0</ele><time>2026-04-12T09:20:26Z</time></trkpt><trkpt lat="39.01591105556516" lon="16.56514142896985"><ele>706.0</ele><time>2026-04-12T09:20:27Z</time></trkpt><trkpt lat="39.01601652910759" lon="16.565129636591873"><ele>706.0</ele><time>2026-04-12T09:20:28Z</time></trkpt><trkpt lat="39.0161090001916" lon="16.565157734691184"><ele>706.0</ele><time>2026-04-12T09:20:29Z</time></trkpt><trkpt lat="39.016174452233415" lon="16.56525986460009"><ele>704.5</ele><time>2026-04-12T09:20:30Z</time></trkpt><trkpt lat="39.016251994701506" lon="16.565371894524343"><ele>703.0</ele><time>2026-04-12T09:20:31Z</time></trkpt><trkpt lat="39.01635426597243" lon="16.565467014317647"><ele>701.5</ele><time>2026-04-12T09:20:32Z</time></trkpt><trkpt lat="39.01644117136795" lon="16.565564384652298"><ele>700.0</ele><time>2026-04-12T09:20:33Z</time></trkpt><trkpt lat="39.01654912880538" lon="16.565622067903224"><ele>700.0</ele><time>2026-04-12T09:20:34Z</time></trkpt><trkpt lat="39.016646468874804" lon="16.565684277358553"><ele>700.0</ele><time>2026-04-12T09:20:35Z</time></trkpt><trkpt lat="39.01671673714659" lon="16.565785803653387"><ele>700.0</ele><time>2026-04-12T09:20:36Z</time></trkpt><trkpt lat="39.016810360515365" lon="16.56587337634874"><ele>700.0</ele><time>2026-04-12T09:20:37Z</time></trkpt><trkpt lat="39.016876798708395" lon="16.565964073579412"><ele>700.0</ele><time>2026-04-12T09:20:38Z</time></trkpt><trkpt lat="39.016949451652884" lon="16.566055949900896"><ele>699.4</ele><time>2026-04-12T09:20:39Z</time></trkpt><trkpt lat="39.01702220532096" lon="16.566146478500382"><ele>698.8</ele><time>2026-04-12T09:20:40Z</time></trkpt><trkpt lat="39.01709955444979" lon="16.566245462987244"><ele>698.2</ele><time>2026-04-12T09:20:41Z</time></trkpt><trkpt lat="39.017180054928694" lon="16.566325808551536"><ele>697.6</ele><time>2026-04-12T09:20:42Z</time></trkpt><trkpt lat="39.0172782707325" lon="16.56641451441916"><ele>697.0</ele><time>2026-04-12T09:20:43Z</time></trkpt><trkpt lat="39.01738151186217" lon="16.56650434705692"><ele>686.0</ele><time>2026-04-12T09:20:44Z</time></trkpt><trkpt lat="39.01748876205824" lon="16.566596996719156"><ele>675.0</ele><time>2026-04-12T09:20:45Z</time></trkpt><trkpt lat="39.01758365437026" lon="16.56665926527387"><ele>664.0</ele><time>2026-04-12T09:20:46Z</time></trkpt><trkpt lat="39.01768923795803" lon="16.56673164466106"><ele>653.0</ele><time>2026-04-12T09:20:47Z</time></trkpt><trkpt lat="39.01778321303231" lon="16.566812119397206"><ele>653.0</ele><time>2026-04-12T09:20:48Z</time></trkpt><trkpt lat="39.01785314203033" lon="16.566937279710615"><ele>653.0</ele><time>2026-04-12T09:20:49Z</time></trkpt><trkpt lat="39.017941868508856" lon="16.56703581973354"><ele>653.0</ele><time>2026-04-12T09:20:50Z</time></trkpt><trkpt lat="39.018016831212066" lon="16.56714474203848"><ele>653.0</ele><time>2026-04-12T09:20:51Z</time></trkpt><trkpt lat="39.01809156428958" lon="16.567254468902632"><ele>657.5999999999999</ele><time>2026-04-12T09:20:52Z</time></trkpt><trkpt lat="39.0181399580572" lon="16.56738672867161"><ele>662.1999999999999</ele><time>2026-04-12T09:20:53Z</time></trkpt><trkpt lat="39.018218508625495" lon="16.56749110011893"><ele>666.8</ele><time>2026-04-12T09:20:54Z</time></trkpt><trkpt lat="39.018297918817694" lon="16.5675874262404"><ele>671.4</ele><time>2026-04-12T09:20:55Z</time></trkpt><trkpt lat="39.01839275783899" lon="16.567637572101344"><ele>676.0</ele><time>2026-04-12T09:20:56Z</time></trkpt><trkpt lat="39.01851616290277" lon="16.5676497837208"><ele>669.1999999999999</ele><time>2026-04-12T09:20:57Z</time></trkpt><trkpt lat="39.01864410037676" lon="16.567648025016926"><ele>662.4</ele><time>2026-04-12T09:20:58Z</time></trkpt><trkpt lat="39.018750238574064" lon="16.567662886420518"><ele>655.6</ele><time>2026-04-12T09:20:59Z</time></trkpt><trkpt lat="39.018829369625195" lon="16.567720168589883"><ele>648.8</ele><time>2026-04-12T09:21:00Z</time></trkpt><trkpt lat="39.01891437563819" lon="16.567762011948833"><ele>642.0</ele><time>2026-04-12T09:21:01Z</time></trkpt><trkpt lat="39.018960778648406" lon="16.567881391504134"><ele>642.0</ele><time>2026-04-12T09:21:02Z</time></trkpt><trkpt lat="39.01903544487075" lon="16.568009664338526"><ele>642.0</ele><time>2026-04-12T09:21:03Z</time></trkpt><trkpt lat="39.01909596274416" lon="16.56812283314518"><ele>642.0</ele><time>2026-04-12T09:21:04Z</time></trkpt><trkpt lat="39.01913384319382" lon="16.56821657458401"><ele>642.0</ele><time>2026-04-12T09:21:05Z</time></trkpt><trkpt lat="39.01917067251631" lon="16.56828614206237"><ele>642.0</ele><time>2026-04-12T09:21:06Z</time></trkpt><trkpt lat="39.019228156988575" lon="16.56834651917416"><ele>637.4</ele><time>2026-04-12T09:21:07Z</time></trkpt><trkpt lat="39.01931162306025" lon="16.568430565446118"><ele>632.8000000000001</ele><time>2026-04-12T09:21:09Z</time></trkpt><trkpt lat="39.01934736919727" lon="16.568537036098952"><ele>628.2</ele><time>2026-04-12T09:21:11Z</time></trkpt><trkpt lat="39.01936003875966" lon="16.568639781750115"><ele>623.6</ele><time>2026-04-12T09:21:13Z</time></trkpt><trkpt lat="39.01940252583042" lon="16.56870617658198"><ele>619.0</ele><time>2026-04-12T09:21:22Z</time></trkpt><trkpt lat="39.01956128229023" lon="16.568626343278538"><ele>619.0</ele><time>2026-04-12T09:21:24Z</time></trkpt><trkpt lat="39.019572283660146" lon="16.568449648532948"><ele>619.0</ele><time>2026-04-12T09:21:26Z</time></trkpt><trkpt lat="39.01959844318589" lon="16.56830935733468"><ele>619.0</ele><time>2026-04-12T09:21:28Z</time></trkpt><trkpt lat="39.01959526237536" lon="16.568418014175233"><ele>619.0</ele><time>2026-04-12T09:21:30Z</time></trkpt><trkpt lat="39.01967090506803" lon="16.56842532169724"><ele>619.0</ele><time>2026-04-12T09:21:32Z</time></trkpt><trkpt lat="39.01974982825963" lon="16.568432942967657"><ele>619.0</ele><time>2026-04-12T09:21:34Z</time></trkpt><trkpt lat="39.019836655186324" lon="16.568440695353814"><ele>619.0</ele><time>2026-04-12T09:21:38Z</time></trkpt><trkpt lat="39.01983066080993" lon="16.568309392061263"><ele>619.0</ele><time>2026-04-12T09:21:40Z</time></trkpt><trkpt lat="39.01980368662409" lon="16.568213556824954"><ele>619.0</ele><time>2026-04-12T09:21:44Z</time></trkpt><trkpt lat="39.019750058937625" lon="16.568136334980593"><ele>619.0</ele><time>2026-04-12T09:21:46Z</time></trkpt><trkpt lat="39.01967951402156" lon="16.56806010810485"><ele>619.0</ele><time>2026-04-12T09:21:48Z</time></trkpt><trkpt lat="39.01956706947058" lon="16.568003911311493"><ele>619.0</ele><time>2026-04-12T09:21:50Z</time></trkpt><trkpt lat="39.019480130633205" lon="16.567921653899507"><ele>619.0</ele><time>2026-04-12T09:21:52Z</time></trkpt><trkpt lat="39.019521586899465" lon="16.56783848928585"><ele>619.0</ele><time>2026-04-12T09:21:54Z</time></trkpt><trkpt lat="39.019578737106315" lon="16.567753166516283"><ele>619.0</ele><time>2026-04-12T09:21:56Z</time></trkpt><trkpt lat="39.01972348094699" lon="16.567824407208033"><ele>619.0</ele><time>2026-04-12T09:21:57Z</time></trkpt><trkpt lat="39.01983133238611" lon="16.56782396018009"><ele>613.0</ele><time>2026-04-12T09:21:58Z</time></trkpt><trkpt lat="39.01993522957991" lon="16.567820308317568"><ele>607.0</ele><time>2026-04-12T09:21:59Z</time></trkpt><trkpt lat="39.020049215722096" lon="16.56787162106616"><ele>601.0</ele><time>2026-04-12T09:22:00Z</time></trkpt><trkpt lat="39.02015986349163" lon="16.567915807623542"><ele>595.0</ele><time>2026-04-12T09:22:01Z</time></trkpt><trkpt lat="39.020258629341484" lon="16.56797928254265"><ele>594.6</ele><time>2026-04-12T09:22:02Z</time></trkpt><trkpt lat="39.020351585696154" lon="16.568022378561942"><ele>594.2</ele><time>2026-04-12T09:22:03Z</time></trkpt><trkpt lat="39.0204436200623" lon="16.56804016145311"><ele>593.8</ele><time>2026-04-12T09:22:04Z</time></trkpt><trkpt lat="39.020504206110374" lon="16.568072655178046"><ele>593.4</ele><time>2026-04-12T09:22:05Z</time></trkpt><trkpt lat="39.02053928639998" lon="16.568163116832487"><ele>593.0</ele><time>2026-04-12T09:22:07Z</time></trkpt><trkpt lat="39.020473189996224" lon="16.568327420555182"><ele>593.0</ele><time>2026-04-12T09:22:09Z</time></trkpt><trkpt lat="39.02044519833112" lon="16.56843436345284"><ele>593.0</ele><time>2026-04-12T09:22:10Z</time></trkpt><trkpt lat="39.02042260397672" lon="16.568529400184254"><ele>593.0</ele><time>2026-04-12T09:22:11Z</time></trkpt><trkpt lat="39.02039716415395" lon="16.568676072104353"><ele>593.0</ele><time>2026-04-12T09:22:12Z</time></trkpt><trkpt lat="39.02037903518245" lon="16.568808052640748"><ele>593.0</ele><time>2026-04-12T09:22:14Z</time></trkpt><trkpt lat="39.02036130163159" lon="16.568913183265767"><ele>592.0</ele><time>2026-04-12T09:22:15Z</time></trkpt><trkpt lat="39.02034603544886" lon="16.56901881843259"><ele>591.0</ele><time>2026-04-12T09:22:16Z</time></trkpt><trkpt lat="39.020289293532926" lon="16.569091319665635"><ele>590.0</ele><time>2026-04-12T09:22:17Z</time></trkpt><trkpt lat="39.02023948067966" lon="16.569175279268496"><ele>589.0</ele><time>2026-04-12T09:22:18Z</time></trkpt><trkpt lat="39.02016638369882" lon="16.569264188571193"><ele>588.0</ele><time>2026-04-12T09:22:19Z</time></trkpt><trkpt lat="39.02011431689218" lon="16.569352047829785"><ele>587.0</ele><time>2026-04-12T09:22:20Z</time></trkpt><trkpt lat="39.0200590255332" lon="16.569407908983134"><ele>587.0</ele><time>2026-04-12T09:22:21Z</time></trkpt><trkpt lat="39.01997240173495" lon="16.569486575319345"><ele>587.0</ele><time>2026-04-12T09:22:23Z</time></trkpt><trkpt lat="39.019941997291035" lon="16.569558276475252"><ele>587.0</ele><time>2026-04-12T09:22:27Z</time></trkpt><trkpt lat="39.02006080703736" lon="16.569544244629142"><ele>587.0</ele><time>2026-04-12T09:22:31Z</time></trkpt><trkpt lat="39.02012219064" lon="16.56947575027071"><ele>587.0</ele><time>2026-04-12T09:22:32Z</time></trkpt><trkpt lat="39.02019085836321" lon="16.569402443462906"><ele>587.0</ele><time>2026-04-12T09:22:33Z</time></trkpt><trkpt lat="39.02026496618347" lon="16.569323262015303"><ele>587.0</ele><time>2026-04-12T09:22:34Z</time></trkpt><trkpt lat="39.02032026089509" lon="16.56923733759575"><ele>587.0</ele><time>2026-04-12T09:22:35Z</time></trkpt><trkpt lat="39.02041063785384" lon="16.56916024855722"><ele>587.0</ele><time>2026-04-12T09:22:36Z</time></trkpt><trkpt lat="39.02047849797574" lon="16.569040883691017"><ele>587.0</ele><time>2026-04-12T09:22:37Z</time></trkpt><trkpt lat="39.020514604604195" lon="16.568905477145957"><ele>587.0</ele><time>2026-04-12T09:22:38Z</time></trkpt><trkpt lat="39.0205448364149" lon="16.56875685924014"><ele>587.0</ele><time>2026-04-12T09:22:39Z</time></trkpt><trkpt lat="39.020569852232335" lon="16.568604008406343"><ele>587.0</ele><time>2026-04-12T09:22:40Z</time></trkpt><trkpt lat="39.02060048759281" lon="16.56844786546856"><ele>587.0</ele><time>2026-04-12T09:22:41Z</time></trkpt><trkpt lat="39.020641493448" lon="16.56830743862562"><ele>588.2</ele><time>2026-04-12T09:22:42Z</time></trkpt><trkpt lat="39.02066799887553" lon="16.568172403110978"><ele>589.4000000000001</ele><time>2026-04-12T09:22:43Z</time></trkpt><trkpt lat="39.02068957501898" lon="16.568047369774245"><ele>590.5999999999999</ele><time>2026-04-12T09:22:44Z</time></trkpt><trkpt lat="39.020674412073504" lon="16.56794089297219"><ele>591.8</ele><time>2026-04-12T09:22:45Z</time></trkpt><trkpt lat="39.02061755677709" lon="16.56788948144716"><ele>593.0</ele><time>2026-04-12T09:22:47Z</time></trkpt><trkpt lat="39.02031915900381" lon="16.56771655670012"><ele>593.5</ele><time>2026-04-12T09:22:49Z</time></trkpt><trkpt lat="39.020191155182324" lon="16.567669710674082"><ele>594.0</ele><time>2026-04-12T09:22:50Z</time></trkpt><trkpt lat="39.02006966423094" lon="16.567607397317364"><ele>594.5</ele><time>2026-04-12T09:22:51Z</time></trkpt><trkpt lat="39.019961369503534" lon="16.56752941827486"><ele>595.0</ele><time>2026-04-12T09:22:52Z</time></trkpt><trkpt lat="39.019862790651025" lon="16.56743298361625"><ele>595.0</ele><time>2026-04-12T09:22:53Z</time></trkpt><trkpt lat="39.019769387654016" lon="16.56734481297162"><ele>595.0</ele><time>2026-04-12T09:22:54Z</time></trkpt><trkpt lat="39.01967994303126" lon="16.56727163642188"><ele>595.0</ele><time>2026-04-12T09:22:55Z</time></trkpt><trkpt lat="39.019620200255304" lon="16.56717713120915"><ele>595.0</ele><time>2026-04-12T09:22:56Z</time></trkpt><trkpt lat="39.01963493797988" lon="16.567042655750434"><ele>595.0</ele><time>2026-04-12T09:22:57Z</time></trkpt><trkpt lat="39.019669896079954" lon="16.566936107138503"><ele>590.0</ele><time>2026-04-12T09:22:58Z</time></trkpt><trkpt lat="39.01970194977142" lon="16.5668126375755"><ele>585.0</ele><time>2026-04-12T09:22:59Z</time></trkpt><trkpt lat="39.0197518686727" lon="16.56669465700239"><ele>580.0</ele><time>2026-04-12T09:23:00Z</time></trkpt><trkpt lat="39.01983461791924" lon="16.56662858732193"><ele>575.0</ele><time>2026-04-12T09:23:01Z</time></trkpt><trkpt lat="39.01991794159576" lon="16.566567047739458"><ele>570.0</ele><time>2026-04-12T09:23:02Z</time></trkpt><trkpt lat="39.02003389462673" lon="16.56658860447869"><ele>568.0</ele><time>2026-04-12T09:23:03Z</time></trkpt><trkpt lat="39.02014473126009" lon="16.566658158205193"><ele>566.0</ele><time>2026-04-12T09:23:04Z</time></trkpt><trkpt lat="39.020243106674" lon="16.566759796590375"><ele>564.0</ele><time>2026-04-12T09:23:05Z</time></trkpt><trkpt lat="39.020309453745384" lon="16.56690969753356"><ele>562.0</ele><time>2026-04-12T09:23:06Z</time></trkpt><trkpt lat="39.02041535294672" lon="16.56699656847725"><ele>562.0</ele><time>2026-04-12T09:23:07Z</time></trkpt><trkpt lat="39.020529447466025" lon="16.567035901112853"><ele>562.0</ele><time>2026-04-12T09:23:08Z</time></trkpt><trkpt lat="39.02065291856342" lon="16.567020544274616"><ele>562.0</ele><time>2026-04-12T09:23:09Z</time></trkpt><trkpt lat="39.0207669924298" lon="16.566950118928364"><ele>562.0</ele><time>2026-04-12T09:23:10Z</time></trkpt><trkpt lat="39.02083170768571" lon="16.566767308965908"><ele>560.25</ele><time>2026-04-12T09:23:11Z</time></trkpt><trkpt lat="39.02087681025212" lon="16.566604761400658"><ele>558.5</ele><time>2026-04-12T09:23:12Z</time></trkpt><trkpt lat="39.02091240127326" lon="16.566447576318872"><ele>556.75</ele><time>2026-04-12T09:23:13Z</time></trkpt><trkpt lat="39.02095217956264" lon="16.5663065971972"><ele>555.0</ele><time>2026-04-12T09:23:14Z</time></trkpt><trkpt lat="39.02100614829912" lon="16.56618823133426"><ele>562.0</ele><time>2026-04-12T09:23:15Z</time></trkpt><trkpt lat="39.02110410289676" lon="16.566138241403557"><ele>569.0</ele><time>2026-04-12T09:23:16Z</time></trkpt><trkpt lat="39.02121699651768" lon="16.566122500779677"><ele>576.0</ele><time>2026-04-12T09:23:17Z</time></trkpt><trkpt lat="39.02134545577813" lon="16.566091509446117"><ele>583.0</ele><time>2026-04-12T09:23:18Z</time></trkpt><trkpt lat="39.02148382769458" lon="16.566097993951924"><ele>583.0</ele><time>2026-04-12T09:23:19Z</time></trkpt><trkpt lat="39.02160896526671" lon="16.56611799755475"><ele>583.0</ele><time>2026-04-12T09:23:20Z</time></trkpt><trkpt lat="39.02172282081413" lon="16.566140997917152"><ele>583.0</ele><time>2026-04-12T09:23:21Z</time></trkpt><trkpt lat="39.021829741503595" lon="16.566125060659964"><ele>583.0</ele><time>2026-04-12T09:23:22Z</time></trkpt><trkpt lat="39.02191477563271" lon="16.566031987417453"><ele>578.25</ele><time>2026-04-12T09:23:23Z</time></trkpt><trkpt lat="39.02194869726295" lon="16.565894483398758"><ele>573.5</ele><time>2026-04-12T09:23:24Z</time></trkpt><trkpt lat="39.0220041494817" lon="16.56572111452653"><ele>568.75</ele><time>2026-04-12T09:23:25Z</time></trkpt><trkpt lat="39.022058812470554" lon="16.565580122511225"><ele>564.0</ele><time>2026-04-12T09:23:26Z</time></trkpt><trkpt lat="39.022137276287886" lon="16.565446964110297"><ele>573.25</ele><time>2026-04-12T09:23:27Z</time></trkpt><trkpt lat="39.02218119877303" lon="16.56531169962657"><ele>582.5</ele><time>2026-04-12T09:23:28Z</time></trkpt><trkpt lat="39.02225182739043" lon="16.565188794206524"><ele>591.75</ele><time>2026-04-12T09:23:29Z</time></trkpt><trkpt lat="39.02231835438387" lon="16.565065525594505"><ele>601.0</ele><time>2026-04-12T09:23:30Z</time></trkpt><trkpt lat="39.02238248113041" lon="16.56494876069446"><ele>601.0</ele><time>2026-04-12T09:23:31Z</time></trkpt><trkpt lat="39.02244863882453" lon="16.564828918145583"><ele>601.0</ele><time>2026-04-12T09:23:32Z</time></trkpt><trkpt lat="39.02255074909869" lon="16.5647654748749"><ele>601.0</ele><time>2026-04-12T09:23:33Z</time></trkpt><trkpt lat="39.02266931021869" lon="16.56477796034507"><ele>601.0</ele><time>2026-04-12T09:23:34Z</time></trkpt><trkpt lat="39.02278553715697" lon="16.564711975932912"><ele>586.5</ele><time>2026-04-12T09:23:35Z</time></trkpt><trkpt lat="39.022887138171804" lon="16.56488518905523"><ele>572.0</ele><time>2026-04-12T09:23:36Z</time></trkpt><trkpt lat="39.022973786563306" lon="16.564997494521002"><ele>557.5</ele><time>2026-04-12T09:23:37Z</time></trkpt><trkpt lat="39.02306196707409" lon="16.56506297869227"><ele>543.0</ele><time>2026-04-12T09:23:38Z</time></trkpt><trkpt lat="39.02316119936804" lon="16.56509773632836"><ele>543.0</ele><time>2026-04-12T09:23:39Z</time></trkpt><trkpt lat="39.023269378334156" lon="16.56509911804965"><ele>543.0</ele><time>2026-04-12T09:23:40Z</time></trkpt><trkpt lat="39.023387838886414" lon="16.565078982135717"><ele>543.0</ele><time>2026-04-12T09:23:41Z</time></trkpt><trkpt lat="39.023504344382644" lon="16.565038394299286"><ele>543.0</ele><time>2026-04-12T09:23:42Z</time></trkpt><trkpt lat="39.0236106079827" lon="16.565017875934767"><ele>540.6</ele><time>2026-04-12T09:23:43Z</time></trkpt><trkpt lat="39.02371321103821" lon="16.564999458517313"><ele>538.1999999999999</ele><time>2026-04-12T09:23:44Z</time></trkpt><trkpt lat="39.023813851033154" lon="16.564988900137553"><ele>535.8</ele><time>2026-04-12T09:23:45Z</time></trkpt><trkpt lat="39.02390765174915" lon="16.56497819469146"><ele>533.4</ele><time>2026-04-12T09:23:46Z</time></trkpt><trkpt lat="39.02400448311502" lon="16.5650020692833"><ele>531.0</ele><time>2026-04-12T09:23:47Z</time></trkpt><trkpt lat="39.024105363112845" lon="16.565031049606173"><ele>530.8</ele><time>2026-04-12T09:23:48Z</time></trkpt><trkpt lat="39.02418137707312" lon="16.565099856062055"><ele>530.6</ele><time>2026-04-12T09:23:49Z</time></trkpt><trkpt lat="39.02426606814154" lon="16.565142642121476"><ele>530.4</ele><time>2026-04-12T09:23:50Z</time></trkpt><trkpt lat="39.024360824983" lon="16.56517403104304"><ele>530.2</ele><time>2026-04-12T09:23:51Z</time></trkpt><trkpt lat="39.024456133648876" lon="16.565161144274526"><ele>530.0</ele><time>2026-04-12T09:23:52Z</time></trkpt><trkpt lat="39.024552928703166" lon="16.56508853533836"><ele>530.0</ele><time>2026-04-12T09:23:53Z</time></trkpt><trkpt lat="39.024630263295315" lon="16.565001471170156"><ele>530.0</ele><time>2026-04-12T09:23:54Z</time></trkpt><trkpt lat="39.024694773901786" lon="16.564901333998893"><ele>530.0</ele><time>2026-04-12T09:23:55Z</time></trkpt><trkpt lat="39.02475687774252" lon="16.564780476609087"><ele>530.0</ele><time>2026-04-12T09:23:56Z</time></trkpt><trkpt lat="39.02482448528981" lon="16.56466119996674"><ele>530.0</ele><time>2026-04-12T09:23:57Z</time></trkpt><trkpt lat="39.024879532255504" lon="16.564525189905723"><ele>528.0</ele><time>2026-04-12T09:23:58Z</time></trkpt><trkpt lat="39.02493241464789" lon="16.56435719825705"><ele>526.0</ele><time>2026-04-12T09:23:59Z</time></trkpt><trkpt lat="39.02498057219614" lon="16.564186479592347"><ele>524.0</ele><time>2026-04-12T09:24:00Z</time></trkpt><trkpt lat="39.025027061043936" lon="16.56400436334278"><ele>522.0</ele><time>2026-04-12T09:24:01Z</time></trkpt><trkpt lat="39.02505747487775" lon="16.563823811175943"><ele>524.5</ele><time>2026-04-12T09:24:02Z</time></trkpt><trkpt lat="39.025096961855475" lon="16.56364478139677"><ele>527.0</ele><time>2026-04-12T09:24:03Z</time></trkpt><trkpt lat="39.02511873151059" lon="16.563485019038676"><ele>529.5</ele><time>2026-04-12T09:24:04Z</time></trkpt><trkpt lat="39.02514562703489" lon="16.56332389331896"><ele>532.0</ele><time>2026-04-12T09:24:05Z</time></trkpt><trkpt lat="39.02517399065662" lon="16.56317458338263"><ele>532.0</ele><time>2026-04-12T09:24:06Z</time></trkpt><trkpt lat="39.025224874977305" lon="16.563035993434607"><ele>532.0</ele><time>2026-04-12T09:24:07Z</time></trkpt><trkpt lat="39.02530409447735" lon="16.562927798699754"><ele>532.0</ele><time>2026-04-12T09:24:08Z</time></trkpt><trkpt lat="39.02540111513372" lon="16.562799627372158"><ele>532.0</ele><time>2026-04-12T09:24:09Z</time></trkpt><trkpt lat="39.025484987401164" lon="16.562679749738315"><ele>527.75</ele><time>2026-04-12T09:24:10Z</time></trkpt><trkpt lat="39.0255707211582" lon="16.56256707005363"><ele>523.5</ele><time>2026-04-12T09:24:11Z</time></trkpt><trkpt lat="39.02564590008451" lon="16.56245541082002"><ele>519.25</ele><time>2026-04-12T09:24:12Z</time></trkpt><trkpt lat="39.02573456887274" lon="16.562371250776884"><ele>515.0</ele><time>2026-04-12T09:24:13Z</time></trkpt><trkpt lat="39.02583586099253" lon="16.56229899310323"><ele>515.0</ele><time>2026-04-12T09:24:14Z</time></trkpt><trkpt lat="39.025966660008265" lon="16.56226080200648"><ele>515.0</ele><time>2026-04-12T09:24:15Z</time></trkpt><trkpt lat="39.02610263781651" lon="16.562250702011294"><ele>515.0</ele><time>2026-04-12T09:24:16Z</time></trkpt><trkpt lat="39.026192390325285" lon="16.562216869924438"><ele>515.0</ele><time>2026-04-12T09:24:17Z</time></trkpt><trkpt lat="39.026296183531464" lon="16.562239211418124"><ele>515.0</ele><time>2026-04-12T09:24:18Z</time></trkpt><trkpt lat="39.026372231263" lon="16.562308075316764"><ele>515.0</ele><time>2026-04-12T09:24:19Z</time></trkpt><trkpt lat="39.02636278743688" lon="16.562457779213926"><ele>515.0</ele><time>2026-04-12T09:24:20Z</time></trkpt><trkpt lat="39.02638748861526" lon="16.562581567481313"><ele>515.0</ele><time>2026-04-12T09:24:21Z</time></trkpt><trkpt lat="39.026421992542836" lon="16.562743795779724"><ele>515.0</ele><time>2026-04-12T09:24:22Z</time></trkpt><trkpt lat="39.0264489504752" lon="16.562885230623802"><ele>512.6</ele><time>2026-04-12T09:24:23Z</time></trkpt><trkpt lat="39.0264625800699" lon="16.56301363866753"><ele>510.2</ele><time>2026-04-12T09:24:24Z</time></trkpt><trkpt lat="39.026447443433526" lon="16.563138157041436"><ele>507.79999999999995</ele><time>2026-04-12T09:24:25Z</time></trkpt><trkpt lat="39.026372691160574" lon="16.563246411638417"><ele>505.4</ele><time>2026-04-12T09:24:26Z</time></trkpt><trkpt lat="39.02627480871504" lon="16.56335878654299"><ele>503.0</ele><time>2026-04-12T09:24:27Z</time></trkpt><trkpt lat="39.02616778243861" lon="16.563443765984378"><ele>503.0</ele><time>2026-04-12T09:24:28Z</time></trkpt><trkpt lat="39.02606866706777" lon="16.563564259286665"><ele>503.0</ele><time>2026-04-12T09:24:29Z</time></trkpt><trkpt lat="39.025966173028365" lon="16.563678496791052"><ele>503.0</ele><time>2026-04-12T09:24:30Z</time></trkpt><trkpt lat="39.0258930477707" lon="16.563796299879566"><ele>503.0</ele><time>2026-04-12T09:24:31Z</time></trkpt><trkpt lat="39.02584821032789" lon="16.563926486404835"><ele>504.0</ele><time>2026-04-12T09:24:32Z</time></trkpt><trkpt lat="39.0258447968375" lon="16.564090885445943"><ele>505.0</ele><time>2026-04-12T09:24:33Z</time></trkpt><trkpt lat="39.02586106716676" lon="16.564245835472942"><ele>506.0</ele><time>2026-04-12T09:24:34Z</time></trkpt><trkpt lat="39.02586928523174" lon="16.564447067451255"><ele>507.0</ele><time>2026-04-12T09:24:35Z</time></trkpt><trkpt lat="39.025882788763795" lon="16.564626775137175"><ele>506.20000000000005</ele><time>2026-04-12T09:24:36Z</time></trkpt><trkpt lat="39.02588730696428" lon="16.56481118631315"><ele>505.40000000000003</ele><time>2026-04-12T09:24:37Z</time></trkpt><trkpt lat="39.02588072622346" lon="16.56495232959583"><ele>504.59999999999997</ele><time>2026-04-12T09:24:38Z</time></trkpt><trkpt lat="39.02585127764806" lon="16.565073469579858"><ele>503.79999999999995</ele><time>2026-04-12T09:24:39Z</time></trkpt><trkpt lat="39.02580359049589" lon="16.56517176097682"><ele>503.0</ele><time>2026-04-12T09:24:40Z</time></trkpt><trkpt lat="39.02574035685985" lon="16.565315743752482"><ele>500.75</ele><time>2026-04-12T09:24:41Z</time></trkpt><trkpt lat="39.025696496973744" lon="16.565496886776526"><ele>498.5</ele><time>2026-04-12T09:24:42Z</time></trkpt><trkpt lat="39.02569894102436" lon="16.565673425751328"><ele>496.25</ele><time>2026-04-12T09:24:43Z</time></trkpt><trkpt lat="39.02567813830641" lon="16.565821875975352"><ele>494.0</ele><time>2026-04-12T09:24:44Z</time></trkpt><trkpt lat="39.02560667644895" lon="16.565937478725132"><ele>494.0</ele><time>2026-04-12T09:24:45Z</time></trkpt><trkpt lat="39.025520838125026" lon="16.56604494851709"><ele>494.0</ele><time>2026-04-12T09:24:46Z</time></trkpt><trkpt lat="39.02540703932557" lon="16.566170906880213"><ele>494.0</ele><time>2026-04-12T09:24:47Z</time></trkpt><trkpt lat="39.02529473755536" lon="16.566298098228486"><ele>494.0</ele><time>2026-04-12T09:24:48Z</time></trkpt><trkpt lat="39.0251823567717" lon="16.566400018070983"><ele>495.0</ele><time>2026-04-12T09:24:49Z</time></trkpt><trkpt lat="39.02508417200679" lon="16.566506902805667"><ele>496.0</ele><time>2026-04-12T09:24:50Z</time></trkpt><trkpt lat="39.025028213421095" lon="16.56665813468582"><ele>497.0</ele><time>2026-04-12T09:24:51Z</time></trkpt><trkpt lat="39.024980637183305" lon="16.566818990851957"><ele>498.0</ele><time>2026-04-12T09:24:52Z</time></trkpt><trkpt lat="39.02490303525687" lon="16.566925190889695"><ele>498.0</ele><time>2026-04-12T09:24:53Z</time></trkpt><trkpt lat="39.02480765305575" lon="16.566981194642004"><ele>498.0</ele><time>2026-04-12T09:24:54Z</time></trkpt><trkpt lat="39.024672195734716" lon="16.56703512437057"><ele>498.0</ele><time>2026-04-12T09:24:55Z</time></trkpt><trkpt lat="39.02453417235689" lon="16.567114635398926"><ele>498.0</ele><time>2026-04-12T09:24:56Z</time></trkpt><trkpt lat="39.02439653641438" lon="16.56716494801369"><ele>503.0</ele><time>2026-04-12T09:24:57Z</time></trkpt><trkpt lat="39.024274015907395" lon="16.567245040121946"><ele>508.0</ele><time>2026-04-12T09:24:58Z</time></trkpt><trkpt lat="39.02417213416974" lon="16.56734229945553"><ele>513.0</ele><time>2026-04-12T09:24:59Z</time></trkpt><trkpt lat="39.02418056777609" lon="16.56751371723246"><ele>518.0</ele><time>2026-04-12T09:25:00Z</time></trkpt><trkpt lat="39.024207813482136" lon="16.567701430850814"><ele>524.0</ele><time>2026-04-12T09:25:01Z</time></trkpt><trkpt lat="39.02420858049923" lon="16.567912036047094"><ele>530.0</ele><time>2026-04-12T09:25:02Z</time></trkpt><trkpt lat="39.024177796875826" lon="16.568076206042274"><ele>536.0</ele><time>2026-04-12T09:25:03Z</time></trkpt><trkpt lat="39.0241400793526" lon="16.56825406366853"><ele>542.0</ele><time>2026-04-12T09:25:04Z</time></trkpt><trkpt lat="39.02411671061059" lon="16.568416625807725"><ele>535.25</ele><time>2026-04-12T09:25:05Z</time></trkpt><trkpt lat="39.02408196158294" lon="16.56856438731899"><ele>528.5</ele><time>2026-04-12T09:25:06Z</time></trkpt><trkpt lat="39.024034669144356" lon="16.568686111458952"><ele>521.75</ele><time>2026-04-12T09:25:07Z</time></trkpt><trkpt lat="39.02394567868055" lon="16.568784060862097"><ele>515.0</ele><time>2026-04-12T09:25:08Z</time></trkpt><trkpt lat="39.02377494252593" lon="16.568816848245692"><ele>515.0</ele><time>2026-04-12T09:25:09Z</time></trkpt><trkpt lat="39.023708908604355" lon="16.568881056094945"><ele>515.0</ele><time>2026-04-12T09:25:10Z</time></trkpt><trkpt lat="39.02367763370345" lon="16.568961272940363"><ele>515.0</ele><time>2026-04-12T09:25:11Z</time></trkpt><trkpt lat="39.023661572551525" lon="16.56908828778504"><ele>515.0</ele><time>2026-04-12T09:25:12Z</time></trkpt><trkpt lat="39.023613715680504" lon="16.569400112529657"><ele>517.75</ele><time>2026-04-12T09:25:13Z</time></trkpt><trkpt lat="39.02357199574767" lon="16.569565136786704"><ele>520.5</ele><time>2026-04-12T09:25:14Z</time></trkpt><trkpt lat="39.02348740826142" lon="16.56967725713164"><ele>523.25</ele><time>2026-04-12T09:25:15Z</time></trkpt><trkpt lat="39.02341240525691" lon="16.56980132330632"><ele>526.0</ele><time>2026-04-12T09:25:16Z</time></trkpt><trkpt lat="39.023400686310005" lon="16.569966957039764"><ele>526.0</ele><time>2026-04-12T09:25:17Z</time></trkpt><trkpt lat="39.023473881058806" lon="16.570128680093227"><ele>526.0</ele><time>2026-04-12T09:25:18Z</time></trkpt><trkpt lat="39.02358013179954" lon="16.570251082842685"><ele>526.0</ele><time>2026-04-12T09:25:19Z</time></trkpt><trkpt lat="39.02376447524715" lon="16.57030399002568"><ele>526.0</ele><time>2026-04-12T09:25:20Z</time></trkpt><trkpt lat="39.02389004116014" lon="16.570308277256952"><ele>526.0</ele><time>2026-04-12T09:25:21Z</time></trkpt><trkpt lat="39.02398908570364" lon="16.570343273149664"><ele>526.0</ele><time>2026-04-12T09:25:22Z</time></trkpt><trkpt lat="39.024056299190995" lon="16.57041992999836"><ele>526.0</ele><time>2026-04-12T09:25:23Z</time></trkpt><trkpt lat="39.024079777132826" lon="16.570531152930137"><ele>526.0</ele><time>2026-04-12T09:25:24Z</time></trkpt><trkpt lat="39.02411473112552" lon="16.570681527645785"><ele>531.5</ele><time>2026-04-12T09:25:25Z</time></trkpt><trkpt lat="39.02418418481589" lon="16.570836214648494"><ele>537.0</ele><time>2026-04-12T09:25:26Z</time></trkpt><trkpt lat="39.024213854577084" lon="16.57099740567627"><ele>542.5</ele><time>2026-04-12T09:25:27Z</time></trkpt><trkpt lat="39.024247998794294" lon="16.571140205961242"><ele>548.0</ele><time>2026-04-12T09:25:28Z</time></trkpt><trkpt lat="39.024310870360104" lon="16.571278339343973"><ele>548.0</ele><time>2026-04-12T09:25:29Z</time></trkpt><trkpt lat="39.024422267165654" lon="16.571354712138902"><ele>548.0</ele><time>2026-04-12T09:25:30Z</time></trkpt><trkpt lat="39.024495341318506" lon="16.571434466741678"><ele>548.0</ele><time>2026-04-12T09:25:31Z</time></trkpt><trkpt lat="39.02451443923185" lon="16.571522888363788"><ele>548.0</ele><time>2026-04-12T09:25:32Z</time></trkpt><trkpt lat="39.02451297906432" lon="16.571654450270458"><ele>548.0</ele><time>2026-04-12T09:25:33Z</time></trkpt><trkpt lat="39.02446741164908" lon="16.57176515693629"><ele>548.0</ele><time>2026-04-12T09:25:34Z</time></trkpt><trkpt lat="39.024382023871496" lon="16.571805488863777"><ele>548.0</ele><time>2026-04-12T09:25:35Z</time></trkpt><trkpt lat="39.02429775666933" lon="16.571774743760464"><ele>548.0</ele><time>2026-04-12T09:25:36Z</time></trkpt><trkpt lat="39.02422738146517" lon="16.571804897458225"><ele>548.0</ele><time>2026-04-12T09:25:37Z</time></trkpt><trkpt lat="39.02414055944118" lon="16.571833165017352"><ele>548.0</ele><time>2026-04-12T09:25:38Z</time></trkpt><trkpt lat="39.02403800868339" lon="16.571847329198715"><ele>548.0</ele><time>2026-04-12T09:25:39Z</time></trkpt><trkpt lat="39.02396473128536" lon="16.57183767999274"><ele>553.0</ele><time>2026-04-12T09:25:40Z</time></trkpt><trkpt lat="39.023887169949006" lon="16.571864731206706"><ele>558.0</ele><time>2026-04-12T09:25:42Z</time></trkpt><trkpt lat="39.02353517318072" lon="16.572222125729123"><ele>558.0</ele><time>2026-04-12T09:25:43Z</time></trkpt><trkpt lat="39.02343250820498" lon="16.572348428262845"><ele>558.0</ele><time>2026-04-12T09:25:44Z</time></trkpt><trkpt lat="39.023303863625" lon="16.572428915111754"><ele>558.0</ele><time>2026-04-12T09:25:45Z</time></trkpt><trkpt lat="39.023157120824635" lon="16.572514279568956"><ele>558.0</ele><time>2026-04-12T09:25:46Z</time></trkpt><trkpt lat="39.02309428331727" lon="16.572604994132632"><ele>553.5</ele><time>2026-04-12T09:25:47Z</time></trkpt><trkpt lat="39.02306940169915" lon="16.572763864311078"><ele>549.0</ele><time>2026-04-12T09:25:48Z</time></trkpt><trkpt lat="39.023089464461286" lon="16.572938641760192"><ele>544.5</ele><time>2026-04-12T09:25:49Z</time></trkpt><trkpt lat="39.02307082841549" lon="16.57311332275295"><ele>540.0</ele><time>2026-04-12T09:25:50Z</time></trkpt><trkpt lat="39.02302690968499" lon="16.573252106609488"><ele>540.0</ele><time>2026-04-12T09:25:51Z</time></trkpt><trkpt lat="39.022894435399145" lon="16.57330802449102"><ele>540.0</ele><time>2026-04-12T09:25:52Z</time></trkpt><trkpt lat="39.02278380972972" lon="16.573409974064933"><ele>540.0</ele><time>2026-04-12T09:25:53Z</time></trkpt><trkpt lat="39.02271684848846" lon="16.57354918035831"><ele>540.0</ele><time>2026-04-12T09:25:54Z</time></trkpt><trkpt lat="39.02267041662153" lon="16.573733889685453"><ele>543.25</ele><time>2026-04-12T09:25:55Z</time></trkpt><trkpt lat="39.02264130061971" lon="16.573929482412403"><ele>546.5</ele><time>2026-04-12T09:25:56Z</time></trkpt><trkpt lat="39.02262353756576" lon="16.574099495524976"><ele>549.75</ele><time>2026-04-12T09:25:57Z</time></trkpt><trkpt lat="39.02260694836277" lon="16.574250627409988"><ele>553.0</ele><time>2026-04-12T09:25:58Z</time></trkpt><trkpt lat="39.02256885164849" lon="16.574372135312416"><ele>556.3333333333334</ele><time>2026-04-12T09:25:59Z</time></trkpt><trkpt lat="39.0225351605954" lon="16.574565167544026"><ele>559.6666666666666</ele><time>2026-04-12T09:26:00Z</time></trkpt><trkpt lat="39.02238676981793" lon="16.574673562563266"><ele>563.0</ele><time>2026-04-12T09:26:01Z</time></trkpt><trkpt lat="39.022298051105366" lon="16.574812275095276"><ele>557.0</ele><time>2026-04-12T09:26:02Z</time></trkpt><trkpt lat="39.02225433883597" lon="16.574974279770387"><ele>551.0</ele><time>2026-04-12T09:26:03Z</time></trkpt><trkpt lat="39.02225117609332" lon="16.57512906839186"><ele>545.0</ele><time>2026-04-12T09:26:04Z</time></trkpt><trkpt lat="39.02229728602779" lon="16.57528045908522"><ele>539.0</ele><time>2026-04-12T09:26:05Z</time></trkpt><trkpt lat="39.02238584803982" lon="16.575388087631115"><ele>539.0</ele><time>2026-04-12T09:26:06Z</time></trkpt><trkpt lat="39.02245387346278" lon="16.57547427691542"><ele>539.0</ele><time>2026-04-12T09:26:07Z</time></trkpt><trkpt lat="39.02251033916936" lon="16.57556637262537"><ele>539.0</ele><time>2026-04-12T09:26:08Z</time></trkpt><trkpt lat="39.02255245432901" lon="16.5756309599163"><ele>539.0</ele><time>2026-04-12T09:26:09Z</time></trkpt><trkpt lat="39.02258691621971" lon="16.575698867009493"><ele>539.0</ele><time>2026-04-12T09:26:12Z</time></trkpt><trkpt lat="39.02255451869544" lon="16.57561941352009"><ele>539.0</ele><time>2026-04-12T09:29:15Z</time></trkpt><trkpt lat="39.02262652212957" lon="16.575670223163083"><ele>543.4</ele><time>2026-04-12T09:30:27Z</time></trkpt><trkpt lat="39.02267348345299" lon="16.57584022779949"><ele>547.8</ele><time>2026-04-12T09:30:36Z</time></trkpt><trkpt lat="39.022722951170856" lon="16.575970600907944"><ele>552.2</ele><time>2026-04-12T09:30:37Z</time></trkpt><trkpt lat="39.02273165769373" lon="16.57607639433778"><ele>556.6</ele><time>2026-04-12T09:30:38Z</time></trkpt><trkpt lat="39.022684716106475" lon="16.576199255574675"><ele>561.0</ele><time>2026-04-12T09:30:39Z</time></trkpt><trkpt lat="39.022627879278176" lon="16.57630288418788"><ele>560.25</ele><time>2026-04-12T09:30:40Z</time></trkpt><trkpt lat="39.02256020246045" lon="16.576387832272044"><ele>559.5</ele><time>2026-04-12T09:30:41Z</time></trkpt><trkpt lat="39.022483671869445" lon="16.57647278460825"><ele>558.75</ele><time>2026-04-12T09:30:42Z</time></trkpt><trkpt lat="39.02237183611442" lon="16.576575474027443"><ele>558.0</ele><time>2026-04-12T09:30:43Z</time></trkpt><trkpt lat="39.022283212311876" lon="16.576681049211658"><ele>558.0</ele><time>2026-04-12T09:30:44Z</time></trkpt><trkpt lat="39.02214300460298" lon="16.576682942963245"><ele>558.0</ele><time>2026-04-12T09:30:45Z</time></trkpt><trkpt lat="39.02200027101384" lon="16.576667872791564"><ele>558.0</ele><time>2026-04-12T09:30:46Z</time></trkpt><trkpt lat="39.021857223219904" lon="16.57668401261938"><ele>558.0</ele><time>2026-04-12T09:30:47Z</time></trkpt><trkpt lat="39.02172429933175" lon="16.57673333948423"><ele>552.5</ele><time>2026-04-12T09:30:48Z</time></trkpt><trkpt lat="39.02160145036258" lon="16.57675004635738"><ele>547.0</ele><time>2026-04-12T09:30:49Z</time></trkpt><trkpt lat="39.02148657007008" lon="16.576708457201068"><ele>541.5</ele><time>2026-04-12T09:30:50Z</time></trkpt><trkpt lat="39.02138076720644" lon="16.576719175476658"><ele>536.0</ele><time>2026-04-12T09:30:51Z</time></trkpt><trkpt lat="39.021253241726676" lon="16.576731658720306"><ele>536.0</ele><time>2026-04-12T09:30:52Z</time></trkpt><trkpt lat="39.02114020300247" lon="16.576752205491616"><ele>536.0</ele><time>2026-04-12T09:30:53Z</time></trkpt><trkpt lat="39.021048042400324" lon="16.576817665488925"><ele>536.0</ele><time>2026-04-12T09:30:54Z</time></trkpt><trkpt lat="39.02096000505162" lon="16.576934993407544"><ele>536.0</ele><time>2026-04-12T09:30:55Z</time></trkpt><trkpt lat="39.020909804822764" lon="16.57707132290723"><ele>539.75</ele><time>2026-04-12T09:30:56Z</time></trkpt><trkpt lat="39.020906848122436" lon="16.57723142052516"><ele>543.5</ele><time>2026-04-12T09:30:57Z</time></trkpt><trkpt lat="39.02093464612874" lon="16.57736678325296"><ele>547.25</ele><time>2026-04-12T09:30:58Z</time></trkpt><trkpt lat="39.021001192122036" lon="16.577479362813254"><ele>551.0</ele><time>2026-04-12T09:30:59Z</time></trkpt><trkpt lat="39.02106896770344" lon="16.57760457696058"><ele>551.0</ele><time>2026-04-12T09:31:00Z</time></trkpt><trkpt lat="39.021100637239584" lon="16.57770382664015"><ele>551.0</ele><time>2026-04-12T09:31:01Z</time></trkpt><trkpt lat="39.02110378610009" lon="16.577789406745943"><ele>551.0</ele><time>2026-04-12T09:31:02Z</time></trkpt><trkpt lat="39.02109056582298" lon="16.57787267845196"><ele>551.0</ele><time>2026-04-12T09:31:03Z</time></trkpt><trkpt lat="39.02105305969943" lon="16.5779641952201"><ele>551.0</ele><time>2026-04-12T09:31:04Z</time></trkpt><trkpt lat="39.02100947657991" lon="16.578075048214632"><ele>551.0</ele><time>2026-04-12T09:31:05Z</time></trkpt><trkpt lat="39.02096413291187" lon="16.57821384487605"><ele>551.2</ele><time>2026-04-12T09:31:06Z</time></trkpt><trkpt lat="39.02096581012085" lon="16.57834097471706"><ele>551.4000000000001</ele><time>2026-04-12T09:31:07Z</time></trkpt><trkpt lat="39.020963150859025" lon="16.578479677080598"><ele>551.6</ele><time>2026-04-12T09:31:08Z</time></trkpt><trkpt lat="39.020994007258025" lon="16.57862903814868"><ele>551.8000000000001</ele><time>2026-04-12T09:31:09Z</time></trkpt><trkpt lat="39.021031376515566" lon="16.578776648218554"><ele>552.0</ele><time>2026-04-12T09:31:10Z</time></trkpt><trkpt lat="39.021036924951986" lon="16.57894698964725"><ele>551.4</ele><time>2026-04-12T09:31:11Z</time></trkpt><trkpt lat="39.02104393096218" lon="16.579067921677016"><ele>550.8000000000001</ele><time>2026-04-12T09:31:12Z</time></trkpt><trkpt lat="39.02102533747549" lon="16.579185553594016"><ele>550.2</ele><time>2026-04-12T09:31:13Z</time></trkpt><trkpt lat="39.02095510163498" lon="16.57927477051117"><ele>549.6</ele><time>2026-04-12T09:31:14Z</time></trkpt><trkpt lat="39.02091215726351" lon="16.579356011129686"><ele>549.0</ele><time>2026-04-12T09:31:15Z</time></trkpt><trkpt lat="39.02085390819577" lon="16.57946300702563"><ele>549.8</ele><time>2026-04-12T09:31:16Z</time></trkpt><trkpt lat="39.02081965341593" lon="16.57955717898018"><ele>550.5999999999999</ele><time>2026-04-12T09:31:17Z</time></trkpt><trkpt lat="39.02081142156764" lon="16.579740289804217"><ele>551.4</ele><time>2026-04-12T09:31:19Z</time></trkpt><trkpt lat="39.02082219169862" lon="16.57986312369058"><ele>552.1999999999999</ele><time>2026-04-12T09:31:20Z</time></trkpt><trkpt lat="39.020828977734084" lon="16.57994566241625"><ele>553.0</ele><time>2026-04-12T09:31:21Z</time></trkpt><trkpt lat="39.020844547456235" lon="16.580122915358928"><ele>553.0</ele><time>2026-04-12T09:31:23Z</time></trkpt><trkpt lat="39.02086640260993" lon="16.580335305556932"><ele>553.0</ele><time>2026-04-12T09:31:25Z</time></trkpt><trkpt lat="39.02086382306157" lon="16.580487933679418"><ele>553.0</ele><time>2026-04-12T09:31:26Z</time></trkpt><trkpt lat="39.0208762818358" lon="16.580631294614243"><ele>553.0</ele><time>2026-04-12T09:31:27Z</time></trkpt><trkpt lat="39.02088567303449" lon="16.580748441208783"><ele>552.5</ele><time>2026-04-12T09:31:28Z</time></trkpt><trkpt lat="39.020894976219445" lon="16.580864490073"><ele>552.0</ele><time>2026-04-12T09:31:29Z</time></trkpt><trkpt lat="39.02090553935262" lon="16.580996256638628"><ele>551.5</ele><time>2026-04-12T09:31:30Z</time></trkpt><trkpt lat="39.02091436396941" lon="16.581113159302518"><ele>551.0</ele><time>2026-04-12T09:31:31Z</time></trkpt><trkpt lat="39.020920566703914" lon="16.581199940956946"><ele>550.5</ele><time>2026-04-12T09:31:32Z</time></trkpt><trkpt lat="39.0209249813928" lon="16.581296057964536"><ele>550.0</ele><time>2026-04-12T09:31:33Z</time></trkpt><trkpt lat="39.02092080071242" lon="16.581389862459204"><ele>549.6666666666667</ele><time>2026-04-12T09:31:34Z</time></trkpt><trkpt lat="39.02088408213206" lon="16.581504198632974"><ele>549.3333333333334</ele><time>2026-04-12T09:31:35Z</time></trkpt><trkpt lat="39.020862501403066" lon="16.581589496537404"><ele>549.0</ele><time>2026-04-12T09:31:36Z</time></trkpt><trkpt lat="39.02084539193777" lon="16.581680365485177"><ele>548.6666666666666</ele><time>2026-04-12T09:31:37Z</time></trkpt><trkpt lat="39.02084403433458" lon="16.581787898624164"><ele>548.3333333333333</ele><time>2026-04-12T09:31:40Z</time></trkpt><trkpt lat="39.02086598034484" lon="16.581901902026743"><ele>548.0</ele><time>2026-04-12T09:31:42Z</time></trkpt><trkpt lat="39.020891633806734" lon="16.582009763517807"><ele>549.0</ele><time>2026-04-12T09:31:44Z</time></trkpt><trkpt lat="39.02090823349204" lon="16.582089488081067"><ele>550.0</ele><time>2026-04-12T09:31:48Z</time></trkpt><trkpt lat="39.02090960078752" lon="16.582186047284246"><ele>551.0</ele><time>2026-04-12T09:31:56Z</time></trkpt><trkpt lat="39.02091134443773" lon="16.58230110713891"><ele>552.0</ele><time>2026-04-12T09:31:59Z</time></trkpt><trkpt lat="39.020722512724454" lon="16.58233595923882"><ele>553.0</ele><time>2026-04-12T09:32:00Z</time></trkpt><trkpt lat="39.02065258695596" lon="16.582359335650334"><ele>551.3333333333334</ele><time>2026-04-12T09:32:01Z</time></trkpt><trkpt lat="39.020584792910405" lon="16.582324744515134"><ele>549.6666666666667</ele><time>2026-04-12T09:32:02Z</time></trkpt><trkpt lat="39.02048897697938" lon="16.58226477379005"><ele>548.0</ele><time>2026-04-12T09:32:05Z</time></trkpt><trkpt lat="39.02042263038517" lon="16.582269759500758"><ele>546.3333333333334</ele><time>2026-04-12T09:32:07Z</time></trkpt><trkpt lat="39.02035723967872" lon="16.582242294300784"><ele>544.6666666666666</ele><time>2026-04-12T09:32:17Z</time></trkpt><trkpt lat="39.02028353214411" lon="16.58222357758712"><ele>543.0</ele><time>2026-04-12T10:02:29Z</time></trkpt><trkpt lat="39.02035129032203" lon="16.58220358317705"><ele>543.0</ele><time>2026-04-12T10:04:30Z</time></trkpt><trkpt lat="39.020380774456" lon="16.58231526228957"><ele>543.0</ele><time>2026-04-12T10:09:50Z</time></trkpt><trkpt lat="39.02044979478203" lon="16.582308172184288"><ele>543.0</ele><time>2026-04-12T10:09:53Z</time></trkpt><trkpt lat="39.02052874419285" lon="16.582330405527546"><ele>543.0</ele><time>2026-04-12T10:11:14Z</time></trkpt><trkpt lat="39.02059735142032" lon="16.582367489095653"><ele>543.0</ele><time>2026-04-12T10:11:20Z</time></trkpt><trkpt lat="39.02066324242931" lon="16.582335812774627"><ele>543.0</ele><time>2026-04-12T10:11:23Z</time></trkpt><trkpt lat="39.02072887500354" lon="16.582318492602298"><ele>543.0</ele><time>2026-04-12T10:11:25Z</time></trkpt><trkpt lat="39.020800344252656" lon="16.582281945866384"><ele>543.0</ele><time>2026-04-12T10:11:28Z</time></trkpt><trkpt lat="39.020857144319656" lon="16.58220288186361"><ele>543.0</ele><time>2026-04-12T10:11:30Z</time></trkpt><trkpt lat="39.02091130505946" lon="16.582141879612355"><ele>543.0</ele><time>2026-04-12T10:11:33Z</time></trkpt><trkpt lat="39.02096539566994" lon="16.582061130311676"><ele>543.0</ele><time>2026-04-12T10:11:42Z</time></trkpt><trkpt lat="39.02091961761111" lon="16.58199521106036"><ele>543.0</ele><time>2026-04-12T10:11:46Z</time></trkpt><trkpt lat="39.02089154035079" lon="16.581902963461456"><ele>544.0</ele><time>2026-04-12T10:11:49Z</time></trkpt><trkpt lat="39.02087832695254" lon="16.581804808020593"><ele>545.0</ele><time>2026-04-12T10:11:51Z</time></trkpt><trkpt lat="39.02087987319897" lon="16.581681053968456"><ele>546.0</ele><time>2026-04-12T10:11:53Z</time></trkpt><trkpt lat="39.020899669556535" lon="16.581555638391354"><ele>547.0</ele><time>2026-04-12T10:11:55Z</time></trkpt><trkpt lat="39.02092777762588" lon="16.581410401742854"><ele>548.0</ele><time>2026-04-12T10:11:57Z</time></trkpt><trkpt lat="39.02094610424952" lon="16.581273196940977"><ele>548.3333333333333</ele><time>2026-04-12T10:11:59Z</time></trkpt><trkpt lat="39.02095190103149" lon="16.581170835779982"><ele>548.6666666666666</ele><time>2026-04-12T10:12:00Z</time></trkpt><trkpt lat="39.02094535572755" lon="16.58108177125117"><ele>549.0</ele><time>2026-04-12T10:12:01Z</time></trkpt><trkpt lat="39.02093766980786" lon="16.58097719037544"><ele>549.3333333333334</ele><time>2026-04-12T10:12:02Z</time></trkpt><trkpt lat="39.02092827190887" lon="16.580861926249533"><ele>549.6666666666667</ele><time>2026-04-12T10:12:03Z</time></trkpt><trkpt lat="39.020884056899185" lon="16.580770736516573"><ele>550.0</ele><time>2026-04-12T10:12:04Z</time></trkpt><trkpt lat="39.020829814735244" lon="16.580640387709227"><ele>550.0</ele><time>2026-04-12T10:12:06Z</time></trkpt><trkpt lat="39.0208683187913" lon="16.580525683127025"><ele>550.0</ele><time>2026-04-12T10:12:07Z</time></trkpt><trkpt lat="39.020872280561875" lon="16.580431532707014"><ele>550.0</ele><time>2026-04-12T10:12:08Z</time></trkpt><trkpt lat="39.02088600339921" lon="16.580345661739806"><ele>550.0</ele><time>2026-04-12T10:12:09Z</time></trkpt><trkpt lat="39.020871813995775" lon="16.580239338303265"><ele>550.0</ele><time>2026-04-12T10:12:10Z</time></trkpt><trkpt lat="39.02087037013388" lon="16.58013032469877"><ele>550.0</ele><time>2026-04-12T10:12:11Z</time></trkpt><trkpt lat="39.02086127163992" lon="16.58002251234237"><ele>549.8333333333334</ele><time>2026-04-12T10:12:12Z</time></trkpt><trkpt lat="39.02083784312224" lon="16.579907339250877"><ele>549.6666666666667</ele><time>2026-04-12T10:12:13Z</time></trkpt><trkpt lat="39.02084477355165" lon="16.579814568824606"><ele>549.5</ele><time>2026-04-12T10:12:14Z</time></trkpt><trkpt lat="39.020828592082715" lon="16.57969968613832"><ele>549.3333333333334</ele><time>2026-04-12T10:12:15Z</time></trkpt><trkpt lat="39.02083253665533" lon="16.5796021954607"><ele>549.1666666666666</ele><time>2026-04-12T10:12:16Z</time></trkpt><trkpt lat="39.02085123322903" lon="16.579514190032764"><ele>549.0</ele><time>2026-04-12T10:12:17Z</time></trkpt><trkpt lat="39.020904775450674" lon="16.579439594039304"><ele>549.0</ele><time>2026-04-12T10:12:18Z</time></trkpt><trkpt lat="39.02095693932468" lon="16.579348401183143"><ele>549.0</ele><time>2026-04-12T10:12:19Z</time></trkpt><trkpt lat="39.020994736848394" lon="16.57924509340295"><ele>549.0</ele><time>2026-04-12T10:12:20Z</time></trkpt><trkpt lat="39.02104414914897" lon="16.579157962698407"><ele>549.0</ele><time>2026-04-12T10:12:21Z</time></trkpt><trkpt lat="39.02107438590418" lon="16.57905837799193"><ele>549.0</ele><time>2026-04-12T10:12:22Z</time></trkpt><trkpt lat="39.02109846618359" lon="16.57895478135049"><ele>549.0</ele><time>2026-04-12T10:12:23Z</time></trkpt><trkpt lat="39.021110685246214" lon="16.578863086380167"><ele>549.0</ele><time>2026-04-12T10:12:24Z</time></trkpt><trkpt lat="39.021072856047866" lon="16.57875617868139"><ele>549.0</ele><time>2026-04-12T10:12:25Z</time></trkpt><trkpt lat="39.021049763472625" lon="16.578647960210784"><ele>549.0</ele><time>2026-04-12T10:12:26Z</time></trkpt><trkpt lat="39.02102581714269" lon="16.578535088496533"><ele>549.0</ele><time>2026-04-12T10:12:27Z</time></trkpt><trkpt lat="39.02100799215969" lon="16.57841380147607"><ele>549.0</ele><time>2026-04-12T10:12:28Z</time></trkpt><trkpt lat="39.02100061115799" lon="16.5782271408986"><ele>549.3333333333334</ele><time>2026-04-12T10:12:30Z</time></trkpt><trkpt lat="39.02104920251747" lon="16.57811122005778"><ele>549.6666666666666</ele><time>2026-04-12T10:12:31Z</time></trkpt><trkpt lat="39.02104490676229" lon="16.57801504782897"><ele>550.0</ele><time>2026-04-12T10:12:32Z</time></trkpt><trkpt lat="39.021087579699895" lon="16.577930090221738"><ele>550.3333333333333</ele><time>2026-04-12T10:12:33Z</time></trkpt><trkpt lat="39.021130760344995" lon="16.57784481684043"><ele>550.6666666666666</ele><time>2026-04-12T10:12:34Z</time></trkpt><trkpt lat="39.02116843242739" lon="16.577751584636818"><ele>551.0</ele><time>2026-04-12T10:12:35Z</time></trkpt><trkpt lat="39.02115429169082" lon="16.577657619295298"><ele>551.0</ele><time>2026-04-12T10:12:36Z</time></trkpt><trkpt lat="39.021112278085454" lon="16.57755511563137"><ele>551.0</ele><time>2026-04-12T10:12:37Z</time></trkpt><trkpt lat="39.02105613621516" lon="16.577454505349458"><ele>551.0</ele><time>2026-04-12T10:12:38Z</time></trkpt><trkpt lat="39.02099448974373" lon="16.577386314663322"><ele>551.0</ele><time>2026-04-12T10:12:39Z</time></trkpt><trkpt lat="39.02094962389554" lon="16.577294051086366"><ele>551.0</ele><time>2026-04-12T10:12:40Z</time></trkpt><trkpt lat="39.02092845085977" lon="16.57719605126695"><ele>551.0</ele><time>2026-04-12T10:12:41.001Z</time></trkpt><trkpt lat="39.020948971865025" lon="16.5770674996182"><ele>548.5</ele><time>2026-04-12T10:12:42.001Z</time></trkpt><trkpt lat="39.02098728040948" lon="16.57696363739499"><ele>546.0</ele><time>2026-04-12T10:12:43.001Z</time></trkpt><trkpt lat="39.021055318281235" lon="16.576887100004377"><ele>543.5</ele><time>2026-04-12T10:12:44.001Z</time></trkpt><trkpt lat="39.021108168611235" lon="16.576802579951643"><ele>541.0</ele><time>2026-04-12T10:12:45.001Z</time></trkpt><trkpt lat="39.021200199051634" lon="16.57677688548072"><ele>538.5</ele><time>2026-04-12T10:12:46.001Z</time></trkpt><trkpt lat="39.02128629204224" lon="16.576765727862377"><ele>536.0</ele><time>2026-04-12T10:12:47.001Z</time></trkpt><trkpt lat="39.0213774556707" lon="16.57674786255819"><ele>536.0</ele><time>2026-04-12T10:12:48.001Z</time></trkpt><trkpt lat="39.021467519486485" lon="16.576742700337846"><ele>536.0</ele><time>2026-04-12T10:12:49.001Z</time></trkpt><trkpt lat="39.02155811717723" lon="16.576726445054835"><ele>536.0</ele><time>2026-04-12T10:12:50.001Z</time></trkpt><trkpt lat="39.02165421502547" lon="16.576702394519028"><ele>536.0</ele><time>2026-04-12T10:12:51.001Z</time></trkpt><trkpt lat="39.021748944834044" lon="16.57669699220885"><ele>536.0</ele><time>2026-04-12T10:12:52.001Z</time></trkpt><trkpt lat="39.021842380224186" lon="16.576660873660902"><ele>540.4</ele><time>2026-04-12T10:12:53.001Z</time></trkpt><trkpt lat="39.02194011091607" lon="16.576642209237626"><ele>544.8</ele><time>2026-04-12T10:12:54.001Z</time></trkpt><trkpt lat="39.02204574006045" lon="16.57663087772588"><ele>549.1999999999999</ele><time>2026-04-12T10:12:55.001Z</time></trkpt><trkpt lat="39.02214472570827" lon="16.576624747446605"><ele>553.6</ele><time>2026-04-12T10:12:56.001Z</time></trkpt><trkpt lat="39.02224469411895" lon="16.57660151225547"><ele>558.0</ele><time>2026-04-12T10:12:57Z</time></trkpt><trkpt lat="39.022371017187545" lon="16.57658279399969"><ele>558.0</ele><time>2026-04-12T10:12:58Z</time></trkpt><trkpt lat="39.02248058797597" lon="16.57653850941625"><ele>558.0</ele><time>2026-04-12T10:12:59Z</time></trkpt><trkpt lat="39.022600611012955" lon="16.576404564273346"><ele>558.0</ele><time>2026-04-12T10:13:01Z</time></trkpt><trkpt lat="39.02266392681394" lon="16.57631221117752"><ele>558.0</ele><time>2026-04-12T10:13:02Z</time></trkpt><trkpt lat="39.02271493117244" lon="16.576210163772213"><ele>558.6</ele><time>2026-04-12T10:13:03Z</time></trkpt><trkpt lat="39.02275742744272" lon="16.57609269735061"><ele>559.1999999999999</ele><time>2026-04-12T10:13:04Z</time></trkpt><trkpt lat="39.02275864005303" lon="16.57597361345214"><ele>559.8</ele><time>2026-04-12T10:13:05Z</time></trkpt><trkpt lat="39.02273043384091" lon="16.575866274061855"><ele>560.4</ele><time>2026-04-12T10:13:06Z</time></trkpt><trkpt lat="39.022687788291584" lon="16.5757621717311"><ele>561.0</ele><time>2026-04-12T10:13:07Z</time></trkpt><trkpt lat="39.02262539601443" lon="16.575639275613646"><ele>561.0</ele><time>2026-04-12T10:13:08Z</time></trkpt><trkpt lat="39.022566246178314" lon="16.575546646708446"><ele>561.0</ele><time>2026-04-12T10:13:09Z</time></trkpt><trkpt lat="39.022513633145905" lon="16.57545527914531"><ele>561.0</ele><time>2026-04-12T10:13:10Z</time></trkpt><trkpt lat="39.022457352116874" lon="16.575366829428134"><ele>561.0</ele><time>2026-04-12T10:13:11Z</time></trkpt><trkpt lat="39.02239900615571" lon="16.575289524641"><ele>561.0</ele><time>2026-04-12T10:13:12Z</time></trkpt><trkpt lat="39.022357241051424" lon="16.575210787896477"><ele>561.0</ele><time>2026-04-12T10:13:13Z</time></trkpt><trkpt lat="39.02232664802748" lon="16.575096951071906"><ele>561.3333333333334</ele><time>2026-04-12T10:13:15Z</time></trkpt><trkpt lat="39.02232251952713" lon="16.574974523253395"><ele>561.6666666666666</ele><time>2026-04-12T10:13:17Z</time></trkpt><trkpt lat="39.022348765156366" lon="16.57483207920388"><ele>562.0</ele><time>2026-04-12T10:13:19Z</time></trkpt><trkpt lat="39.02237943873687" lon="16.574757770494312"><ele>562.3333333333333</ele><time>2026-04-12T10:13:20Z</time></trkpt><trkpt lat="39.022412553592474" lon="16.57467619918088"><ele>562.6666666666666</ele><time>2026-04-12T10:13:21Z</time></trkpt><trkpt lat="39.02244894530034" lon="16.57459312106812"><ele>563.0</ele><time>2026-04-12T10:13:22Z</time></trkpt><trkpt lat="39.02249192318691" lon="16.574523405448538"><ele>561.5714285714286</ele><time>2026-04-12T10:13:23Z</time></trkpt><trkpt lat="39.02254593466118" lon="16.57445822902635"><ele>560.1428571428571</ele><time>2026-04-12T10:13:24Z</time></trkpt><trkpt lat="39.02259372393653" lon="16.574389758394453"><ele>558.7142857142858</ele><time>2026-04-12T10:13:25Z</time></trkpt><trkpt lat="39.02262740257108" lon="16.57431208958538"><ele>557.2857142857142</ele><time>2026-04-12T10:13:26Z</time></trkpt><trkpt lat="39.022644908545956" lon="16.574231026707835"><ele>555.8571428571429</ele><time>2026-04-12T10:13:27Z</time></trkpt><trkpt lat="39.02265789432359" lon="16.574139728953945"><ele>554.4285714285714</ele><time>2026-04-12T10:13:28Z</time></trkpt><trkpt lat="39.02267687969526" lon="16.57403410492495"><ele>553.0</ele><time>2026-04-12T10:13:29Z</time></trkpt><trkpt lat="39.022697122174115" lon="16.573948287527557"><ele>553.0</ele><time>2026-04-12T10:13:30Z</time></trkpt><trkpt lat="39.02271745816817" lon="16.573840532404382"><ele>553.0</ele><time>2026-04-12T10:13:31Z</time></trkpt><trkpt lat="39.02273787066782" lon="16.573715551394066"><ele>553.0</ele><time>2026-04-12T10:13:32Z</time></trkpt><trkpt lat="39.022754948523165" lon="16.573599308649285"><ele>553.0</ele><time>2026-04-12T10:13:33Z</time></trkpt><trkpt lat="39.02278351926061" lon="16.573503318556845"><ele>553.0</ele><time>2026-04-12T10:13:34Z</time></trkpt><trkpt lat="39.02284149800009" lon="16.57341536758797"><ele>553.0</ele><time>2026-04-12T10:13:35Z</time></trkpt><trkpt lat="39.022918626331304" lon="16.57333249049938"><ele>550.4</ele><time>2026-04-12T10:13:36Z</time></trkpt><trkpt lat="39.023019525945436" lon="16.573264248994892"><ele>547.8</ele><time>2026-04-12T10:13:37Z</time></trkpt><trkpt lat="39.02310648915189" lon="16.573184891444136"><ele>545.2</ele><time>2026-04-12T10:13:38Z</time></trkpt><trkpt lat="39.02314755569554" lon="16.573082712489683"><ele>542.6</ele><time>2026-04-12T10:13:39Z</time></trkpt><trkpt lat="39.02316790777148" lon="16.572951423932327"><ele>540.0</ele><time>2026-04-12T10:13:40Z</time></trkpt><trkpt lat="39.02314296521389" lon="16.572802379832414"><ele>543.6</ele><time>2026-04-12T10:13:41Z</time></trkpt><trkpt lat="39.023151751397705" lon="16.57267567212931"><ele>547.2</ele><time>2026-04-12T10:13:42Z</time></trkpt><trkpt lat="39.02317012721248" lon="16.57255815968723"><ele>550.8</ele><time>2026-04-12T10:13:43Z</time></trkpt><trkpt lat="39.02323687262289" lon="16.572459238416826"><ele>554.4</ele><time>2026-04-12T10:13:44Z</time></trkpt><trkpt lat="39.02334685144143" lon="16.572437685581253"><ele>558.0</ele><time>2026-04-12T10:13:45Z</time></trkpt><trkpt lat="39.02344155144157" lon="16.572392055318023"><ele>558.0</ele><time>2026-04-12T10:13:46Z</time></trkpt><trkpt lat="39.02352912853591" lon="16.572342458645604"><ele>558.0</ele><time>2026-04-12T10:13:47Z</time></trkpt><trkpt lat="39.02359901946239" lon="16.57225463766645"><ele>558.0</ele><time>2026-04-12T10:13:48Z</time></trkpt><trkpt lat="39.02365033329557" lon="16.57213577244005"><ele>558.0</ele><time>2026-04-12T10:13:49Z</time></trkpt><trkpt lat="39.02370064323922" lon="16.57201494337661"><ele>558.0</ele><time>2026-04-12T10:13:50Z</time></trkpt><trkpt lat="39.02376233543856" lon="16.571924255101617"><ele>555.5</ele><time>2026-04-12T10:13:51Z</time></trkpt><trkpt lat="39.02386954507545" lon="16.571925779547747"><ele>553.0</ele><time>2026-04-12T10:13:52Z</time></trkpt><trkpt lat="39.023985509679974" lon="16.571917728710403"><ele>550.5</ele><time>2026-04-12T10:13:53Z</time></trkpt><trkpt lat="39.024112065541686" lon="16.57188952516688"><ele>548.0</ele><time>2026-04-12T10:13:54Z</time></trkpt><trkpt lat="39.02424228693762" lon="16.571853714620275"><ele>548.0</ele><time>2026-04-12T10:13:55Z</time></trkpt><trkpt lat="39.024358565270674" lon="16.571828542218608"><ele>548.0</ele><time>2026-04-12T10:13:56Z</time></trkpt><trkpt lat="39.02446220176485" lon="16.571805326037044"><ele>548.0</ele><time>2026-04-12T10:13:57Z</time></trkpt><trkpt lat="39.02453918109788" lon="16.57175850777318"><ele>548.0</ele><time>2026-04-12T10:13:58Z</time></trkpt><trkpt lat="39.02458135206413" lon="16.571641487800434"><ele>548.0</ele><time>2026-04-12T10:13:59Z</time></trkpt><trkpt lat="39.02456991008959" lon="16.57148554562098"><ele>548.0</ele><time>2026-04-12T10:14:00Z</time></trkpt><trkpt lat="39.024512766546785" lon="16.571347667790757"><ele>548.0</ele><time>2026-04-12T10:14:01Z</time></trkpt><trkpt lat="39.02441129363671" lon="16.571256908012913"><ele>548.0</ele><time>2026-04-12T10:14:02Z</time></trkpt><trkpt lat="39.02431532774425" lon="16.571194313348887"><ele>548.0</ele><time>2026-04-12T10:14:03Z</time></trkpt><trkpt lat="39.02425202735875" lon="16.571083464636285"><ele>548.75</ele><time>2026-04-12T10:14:04Z</time></trkpt><trkpt lat="39.02422884275897" lon="16.570918898856522"><ele>549.5</ele><time>2026-04-12T10:14:05Z</time></trkpt><trkpt lat="39.02419245149996" lon="16.570755565706474"><ele>550.25</ele><time>2026-04-12T10:14:06Z</time></trkpt><trkpt lat="39.02414257490275" lon="16.570615725608285"><ele>551.0</ele><time>2026-04-12T10:14:07Z</time></trkpt><trkpt lat="39.02410399868099" lon="16.570479151310405"><ele>544.75</ele><time>2026-04-12T10:14:08Z</time></trkpt><trkpt lat="39.024068247402724" lon="16.570353551991875"><ele>538.5</ele><time>2026-04-12T10:14:09Z</time></trkpt><trkpt lat="39.02399075474127" lon="16.57026510410041"><ele>532.25</ele><time>2026-04-12T10:14:10Z</time></trkpt><trkpt lat="39.02386497862945" lon="16.57024709493223"><ele>526.0</ele><time>2026-04-12T10:14:11Z</time></trkpt><trkpt lat="39.023740412317366" lon="16.57027294417079"><ele>526.0</ele><time>2026-04-12T10:14:12Z</time></trkpt><trkpt lat="39.02363311540322" lon="16.57024684985117"><ele>526.0</ele><time>2026-04-12T10:14:13Z</time></trkpt><trkpt lat="39.02354202624095" lon="16.57017559075052"><ele>526.0</ele><time>2026-04-12T10:14:14Z</time></trkpt><trkpt lat="39.023473073894536" lon="16.570055612774844"><ele>526.0</ele><time>2026-04-12T10:14:15Z</time></trkpt><trkpt lat="39.0234404143515" lon="16.56990174478735"><ele>526.0</ele><time>2026-04-12T10:14:16Z</time></trkpt><trkpt lat="39.02345692017035" lon="16.569741020961203"><ele>526.0</ele><time>2026-04-12T10:14:17Z</time></trkpt><trkpt lat="39.0235280954984" lon="16.56960831527241"><ele>526.0</ele><time>2026-04-12T10:14:18Z</time></trkpt><trkpt lat="39.02362249373003" lon="16.569492337261174"><ele>526.0</ele><time>2026-04-12T10:14:19Z</time></trkpt><trkpt lat="39.023687632183375" lon="16.569349509419872"><ele>523.25</ele><time>2026-04-12T10:14:20Z</time></trkpt><trkpt lat="39.023690594638495" lon="16.569183673312562"><ele>520.5</ele><time>2026-04-12T10:14:21Z</time></trkpt><trkpt lat="39.02368865695367" lon="16.56903763976319"><ele>517.75</ele><time>2026-04-12T10:14:22Z</time></trkpt><trkpt lat="39.02373453994029" lon="16.56890171506613"><ele>515.0</ele><time>2026-04-12T10:14:23Z</time></trkpt><trkpt lat="39.02382784267079" lon="16.568784610611658"><ele>515.0</ele><time>2026-04-12T10:14:24Z</time></trkpt><trkpt lat="39.023968101517575" lon="16.568764857288794"><ele>515.0</ele><time>2026-04-12T10:14:25Z</time></trkpt><trkpt lat="39.024063831970004" lon="16.568695528664232"><ele>515.0</ele><time>2026-04-12T10:14:26Z</time></trkpt><trkpt lat="39.024141078788375" lon="16.568580604773075"><ele>515.0</ele><time>2026-04-12T10:14:27Z</time></trkpt><trkpt lat="39.024162971928284" lon="16.56840122069385"><ele>515.75</ele><time>2026-04-12T10:14:28Z</time></trkpt><trkpt lat="39.02418105766515" lon="16.56821816979887"><ele>516.5</ele><time>2026-04-12T10:14:29Z</time></trkpt><trkpt lat="39.024210003643525" lon="16.568051420638024"><ele>517.25</ele><time>2026-04-12T10:14:30Z</time></trkpt><trkpt lat="39.02423719725702" lon="16.567890724701325"><ele>518.0</ele><time>2026-04-12T10:14:31Z</time></trkpt><trkpt lat="39.024246909803146" lon="16.567731916596816"><ele>518.0</ele><time>2026-04-12T10:14:32Z</time></trkpt><trkpt lat="39.02424259698983" lon="16.56757708768342"><ele>518.0</ele><time>2026-04-12T10:14:33Z</time></trkpt><trkpt lat="39.02424820326423" lon="16.56741787061587"><ele>518.0</ele><time>2026-04-12T10:14:34Z</time></trkpt><trkpt lat="39.024279974910506" lon="16.567272643164593"><ele>518.0</ele><time>2026-04-12T10:14:35Z</time></trkpt><trkpt lat="39.02437070216573" lon="16.56717678070279"><ele>518.0</ele><time>2026-04-12T10:14:36Z</time></trkpt><trkpt lat="39.024494808188834" lon="16.567155788061413"><ele>518.0</ele><time>2026-04-12T10:14:37Z</time></trkpt><trkpt lat="39.02463096842873" lon="16.567097727970037"><ele>518.0</ele><time>2026-04-12T10:14:38Z</time></trkpt><trkpt lat="39.02475532826261" lon="16.567037954360405"><ele>518.0</ele><time>2026-04-12T10:14:39.001Z</time></trkpt><trkpt lat="39.02487432446658" lon="16.56699327359052"><ele>519.5</ele><time>2026-04-12T10:14:40.001Z</time></trkpt><trkpt lat="39.02497245351042" lon="16.566908665224798"><ele>521.0</ele><time>2026-04-12T10:14:41.001Z</time></trkpt><trkpt lat="39.02506591093767" lon="16.566809613463956"><ele>522.5</ele><time>2026-04-12T10:14:42.001Z</time></trkpt><trkpt lat="39.02508469608068" lon="16.566628336196352"><ele>524.0</ele><time>2026-04-12T10:14:43.001Z</time></trkpt><trkpt lat="39.02514184483048" lon="16.56648829263595"><ele>524.0</ele><time>2026-04-12T10:14:44.001Z</time></trkpt><trkpt lat="39.02524544398466" lon="16.56640103634536"><ele>524.0</ele><time>2026-04-12T10:14:45.001Z</time></trkpt><trkpt lat="39.02534732300354" lon="16.566276536052683"><ele>524.0</ele><time>2026-04-12T10:14:46.001Z</time></trkpt><trkpt lat="39.025446195911826" lon="16.56617438627629"><ele>524.0</ele><time>2026-04-12T10:14:47.001Z</time></trkpt><trkpt lat="39.025538979089205" lon="16.566071864523114"><ele>516.5</ele><time>2026-04-12T10:14:48.001Z</time></trkpt><trkpt lat="39.025630070899126" lon="16.565968819004834"><ele>509.0</ele><time>2026-04-12T10:14:49.001Z</time></trkpt><trkpt lat="39.02570784889058" lon="16.56583736257514"><ele>501.5</ele><time>2026-04-12T10:14:50.001Z</time></trkpt><trkpt lat="39.02575567130988" lon="16.565667105817337"><ele>494.0</ele><time>2026-04-12T10:14:51.001Z</time></trkpt><trkpt lat="39.02576287317195" lon="16.565489471903522"><ele>496.25</ele><time>2026-04-12T10:14:52.001Z</time></trkpt><trkpt lat="39.02577794356738" lon="16.56532844523297"><ele>498.5</ele><time>2026-04-12T10:14:53.001Z</time></trkpt><trkpt lat="39.02582530095323" lon="16.56517931916689"><ele>500.75</ele><time>2026-04-12T10:14:54.001Z</time></trkpt><trkpt lat="39.025890467962064" lon="16.56504478446799"><ele>503.0</ele><time>2026-04-12T10:14:55.001Z</time></trkpt><trkpt lat="39.02593217961957" lon="16.56490328614073"><ele>504.0</ele><time>2026-04-12T10:14:56.001Z</time></trkpt><trkpt lat="39.025935296451124" lon="16.564753970036964"><ele>505.0</ele><time>2026-04-12T10:14:57.001Z</time></trkpt><trkpt lat="39.025918081839144" lon="16.564584892598166"><ele>506.0</ele><time>2026-04-12T10:14:58.001Z</time></trkpt><trkpt lat="39.02590488505998" lon="16.564411863957538"><ele>507.0</ele><time>2026-04-12T10:14:59.001Z</time></trkpt><trkpt lat="39.02589871478606" lon="16.564241429756486"><ele>507.0</ele><time>2026-04-12T10:15:00.001Z</time></trkpt><trkpt lat="39.02589229587651" lon="16.564071675620205"><ele>507.0</ele><time>2026-04-12T10:15:01.001Z</time></trkpt><trkpt lat="39.02588934641241" lon="16.563917004508625"><ele>507.0</ele><time>2026-04-12T10:15:02.001Z</time></trkpt><trkpt lat="39.02589969076062" lon="16.56376152122904"><ele>507.0</ele><time>2026-04-12T10:15:03Z</time></trkpt><trkpt lat="39.02600887119301" lon="16.563676017708378"><ele>506.0</ele><time>2026-04-12T10:15:04Z</time></trkpt><trkpt lat="39.02611421644712" lon="16.56355515602345"><ele>505.0</ele><time>2026-04-12T10:15:05Z</time></trkpt><trkpt lat="39.02620846124396" lon="16.563456346813027"><ele>504.0</ele><time>2026-04-12T10:15:06Z</time></trkpt><trkpt lat="39.0263255297123" lon="16.56336091842133"><ele>503.0</ele><time>2026-04-12T10:15:07Z</time></trkpt><trkpt lat="39.026418924871756" lon="16.5632446313836"><ele>503.0</ele><time>2026-04-12T10:15:08Z</time></trkpt><trkpt lat="39.02649423050275" lon="16.563113710433413"><ele>503.0</ele><time>2026-04-12T10:15:09Z</time></trkpt><trkpt lat="39.02652625886728" lon="16.562951123256703"><ele>503.0</ele><time>2026-04-12T10:15:10Z</time></trkpt><trkpt lat="39.02648393556935" lon="16.562782018343803"><ele>503.0</ele><time>2026-04-12T10:15:11Z</time></trkpt><trkpt lat="39.02644731019464" lon="16.5626180287555"><ele>506.0</ele><time>2026-04-12T10:15:12Z</time></trkpt><trkpt lat="39.026413865837725" lon="16.562464200623307"><ele>509.0</ele><time>2026-04-12T10:15:13Z</time></trkpt><trkpt lat="39.026377006363106" lon="16.562326021887415"><ele>512.0</ele><time>2026-04-12T10:15:14Z</time></trkpt><trkpt lat="39.02633759178064" lon="16.562202653063398"><ele>515.0</ele><time>2026-04-12T10:15:15Z</time></trkpt><trkpt lat="39.026237301493765" lon="16.56212175998525"><ele>515.0</ele><time>2026-04-12T10:15:16Z</time></trkpt><trkpt lat="39.02611483150146" lon="16.562117656571292"><ele>515.0</ele><time>2026-04-12T10:15:17Z</time></trkpt><trkpt lat="39.025984302309276" lon="16.562197924254512"><ele>515.0</ele><time>2026-04-12T10:15:18Z</time></trkpt><trkpt lat="39.02583870284605" lon="16.562254537877585"><ele>515.0</ele><time>2026-04-12T10:15:19Z</time></trkpt><trkpt lat="39.02570594798752" lon="16.562312564046326"><ele>526.5</ele><time>2026-04-12T10:15:20Z</time></trkpt><trkpt lat="39.02559554598045" lon="16.56240831877134"><ele>538.0</ele><time>2026-04-12T10:15:21Z</time></trkpt><trkpt lat="39.0255238119322" lon="16.56253776576714"><ele>549.5</ele><time>2026-04-12T10:15:22Z</time></trkpt><trkpt lat="39.025433018138145" lon="16.562632395176657"><ele>561.0</ele><time>2026-04-12T10:15:23Z</time></trkpt><trkpt lat="39.02536064170506" lon="16.562751221437146"><ele>561.0</ele><time>2026-04-12T10:15:24Z</time></trkpt><trkpt lat="39.025284335286436" lon="16.5628562040219"><ele>561.0</ele><time>2026-04-12T10:15:25Z</time></trkpt><trkpt lat="39.025211939932426" lon="16.562959163338846"><ele>561.0</ele><time>2026-04-12T10:15:26Z</time></trkpt><trkpt lat="39.02513883062433" lon="16.563069395025234"><ele>561.0</ele><time>2026-04-12T10:15:27Z</time></trkpt><trkpt lat="39.02508876784293" lon="16.563183340137385"><ele>561.0</ele><time>2026-04-12T10:15:28Z</time></trkpt><trkpt lat="39.02507649854792" lon="16.56335605860055"><ele>562.5</ele><time>2026-04-12T10:15:29Z</time></trkpt><trkpt lat="39.02504743825597" lon="16.563514205603845"><ele>564.0</ele><time>2026-04-12T10:15:30Z</time></trkpt><trkpt lat="39.02501795698513" lon="16.563673769944838"><ele>565.5</ele><time>2026-04-12T10:15:31Z</time></trkpt><trkpt lat="39.02498689398358" lon="16.563836260558816"><ele>567.0</ele><time>2026-04-12T10:15:32Z</time></trkpt><trkpt lat="39.02494790275325" lon="16.563997258857093"><ele>567.0</ele><time>2026-04-12T10:15:33Z</time></trkpt><trkpt lat="39.02491802104287" lon="16.564170444728695"><ele>567.0</ele><time>2026-04-12T10:15:34Z</time></trkpt><trkpt lat="39.02488739523989" lon="16.56433355674921"><ele>567.0</ele><time>2026-04-12T10:15:35Z</time></trkpt><trkpt lat="39.024846743939165" lon="16.56449108546364"><ele>567.0</ele><time>2026-04-12T10:15:36Z</time></trkpt><trkpt lat="39.0247927115267" lon="16.56464481371379"><ele>557.75</ele><time>2026-04-12T10:15:37Z</time></trkpt><trkpt lat="39.02472056214701" lon="16.564784723735155"><ele>548.5</ele><time>2026-04-12T10:15:38Z</time></trkpt><trkpt lat="39.02462872307717" lon="16.564910827879544"><ele>539.25</ele><time>2026-04-12T10:15:39Z</time></trkpt><trkpt lat="39.024527182267875" lon="16.56502172289357"><ele>530.0</ele><time>2026-04-12T10:15:40Z</time></trkpt><trkpt lat="39.02442671615836" lon="16.56511778686359"><ele>530.0</ele><time>2026-04-12T10:15:41Z</time></trkpt><trkpt lat="39.02432179748952" lon="16.565151930721022"><ele>530.0</ele><time>2026-04-12T10:15:42Z</time></trkpt><trkpt lat="39.024222957298704" lon="16.565074941244436"><ele>530.0</ele><time>2026-04-12T10:15:43Z</time></trkpt><trkpt lat="39.02410720980075" lon="16.56501185010635"><ele>530.0</ele><time>2026-04-12T10:15:44Z</time></trkpt><trkpt lat="39.02400119084025" lon="16.56493467608624"><ele>530.25</ele><time>2026-04-12T10:15:45Z</time></trkpt><trkpt lat="39.0238819398095" lon="16.56492008822815"><ele>530.5</ele><time>2026-04-12T10:15:46Z</time></trkpt><trkpt lat="39.02373464761952" lon="16.56494562259905"><ele>530.75</ele><time>2026-04-12T10:15:47Z</time></trkpt><trkpt lat="39.02359627943313" lon="16.56498398192267"><ele>531.0</ele><time>2026-04-12T10:15:48Z</time></trkpt><trkpt lat="39.023458193688306" lon="16.565008447985672"><ele>531.0</ele><time>2026-04-12T10:15:49Z</time></trkpt><trkpt lat="39.02332671951888" lon="16.56502533898784"><ele>531.0</ele><time>2026-04-12T10:15:50Z</time></trkpt><trkpt lat="39.0231946156118" lon="16.565045405790585"><ele>531.0</ele><time>2026-04-12T10:15:51Z</time></trkpt><trkpt lat="39.02307314156573" lon="16.56502588130393"><ele>531.0</ele><time>2026-04-12T10:15:52Z</time></trkpt><trkpt lat="39.022949127665875" lon="16.564955583174"><ele>534.0</ele><time>2026-04-12T10:15:53Z</time></trkpt><trkpt lat="39.02283059365251" lon="16.564837819811718"><ele>537.0</ele><time>2026-04-12T10:15:54Z</time></trkpt><trkpt lat="39.022708916540175" lon="16.56474565049335"><ele>540.0</ele><time>2026-04-12T10:15:55Z</time></trkpt><trkpt lat="39.022593502287116" lon="16.5646962563655"><ele>543.0</ele><time>2026-04-12T10:15:56Z</time></trkpt><trkpt lat="39.02246273283686" lon="16.564736512004643"><ele>562.3333333333334</ele><time>2026-04-12T10:15:57Z</time></trkpt><trkpt lat="39.02233837848079" lon="16.56483857961967"><ele>581.6666666666667</ele><time>2026-04-12T10:15:58Z</time></trkpt><trkpt lat="39.02225716777214" lon="16.56499351654448"><ele>601.0</ele><time>2026-04-12T10:15:59Z</time></trkpt><trkpt lat="39.02217481385342" lon="16.565171298247467"><ele>601.0</ele><time>2026-04-12T10:16:00Z</time></trkpt><trkpt lat="39.02210656672778" lon="16.565335840084327"><ele>601.0</ele><time>2026-04-12T10:16:01Z</time></trkpt><trkpt lat="39.02203780785621" lon="16.565503923894457"><ele>601.0</ele><time>2026-04-12T10:16:02Z</time></trkpt><trkpt lat="39.021971933055354" lon="16.565672926718733"><ele>601.0</ele><time>2026-04-12T10:16:03Z</time></trkpt><trkpt lat="39.021914350402554" lon="16.565842643573095"><ele>596.5</ele><time>2026-04-12T10:16:04Z</time></trkpt><trkpt lat="39.021861447765815" lon="16.565983311784994"><ele>592.0</ele><time>2026-04-12T10:16:05Z</time></trkpt><trkpt lat="39.021794688050925" lon="16.566083538646406"><ele>587.5</ele><time>2026-04-12T10:16:06Z</time></trkpt><trkpt lat="39.02169763572394" lon="16.566132280526837"><ele>583.0</ele><time>2026-04-12T10:16:07Z</time></trkpt><trkpt lat="39.021575998985284" lon="16.566101746928464"><ele>583.0</ele><time>2026-04-12T10:16:08Z</time></trkpt><trkpt lat="39.021447549376724" lon="16.56605681545521"><ele>583.0</ele><time>2026-04-12T10:16:09Z</time></trkpt><trkpt lat="39.02130815231942" lon="16.56602930011124"><ele>583.0</ele><time>2026-04-12T10:16:10Z</time></trkpt><trkpt lat="39.02116974274517" lon="16.566065872102865"><ele>583.0</ele><time>2026-04-12T10:16:11Z</time></trkpt><trkpt lat="39.02105312055775" lon="16.56610584656297"><ele>583.0</ele><time>2026-04-12T10:16:12Z</time></trkpt><trkpt lat="39.020957007427924" lon="16.566184863228727"><ele>583.0</ele><time>2026-04-12T10:16:13Z</time></trkpt><trkpt lat="39.02088651389475" lon="16.56633834223812"><ele>583.0</ele><time>2026-04-12T10:16:14Z</time></trkpt><trkpt lat="39.020826806219134" lon="16.56651525731043"><ele>583.0</ele><time>2026-04-12T10:16:15Z</time></trkpt><trkpt lat="39.02079264729601" lon="16.566694682829617"><ele>577.75</ele><time>2026-04-12T10:16:16Z</time></trkpt><trkpt lat="39.02074458161368" lon="16.566839792721478"><ele>572.5</ele><time>2026-04-12T10:16:17Z</time></trkpt><trkpt lat="39.02066738666694" lon="16.56694301840253"><ele>567.25</ele><time>2026-04-12T10:16:18.001Z</time></trkpt><trkpt lat="39.02053785821254" lon="16.566987131606293"><ele>562.0</ele><time>2026-04-12T10:16:19.001Z</time></trkpt><trkpt lat="39.02040429889698" lon="16.566952424252396"><ele>562.0</ele><time>2026-04-12T10:16:20.001Z</time></trkpt><trkpt lat="39.02028798925351" lon="16.566859256907904"><ele>562.0</ele><time>2026-04-12T10:16:21.001Z</time></trkpt><trkpt lat="39.02018574761967" lon="16.56669033794958"><ele>562.0</ele><time>2026-04-12T10:16:22.001Z</time></trkpt><trkpt lat="39.020082121261574" lon="16.56658105867219"><ele>562.0</ele><time>2026-04-12T10:16:23.001Z</time></trkpt><trkpt lat="39.019961945398464" lon="16.566539832904205"><ele>564.0</ele><time>2026-04-12T10:16:24.001Z</time></trkpt><trkpt lat="39.019834127844085" lon="16.566537948604918"><ele>566.0</ele><time>2026-04-12T10:16:25.001Z</time></trkpt><trkpt lat="39.01973045787717" lon="16.566618338600044"><ele>568.0</ele><time>2026-04-12T10:16:26.001Z</time></trkpt><trkpt lat="39.01964877130747" lon="16.566741704607107"><ele>570.0</ele><time>2026-04-12T10:16:27.001Z</time></trkpt><trkpt lat="39.01962200673458" lon="16.56691129828193"><ele>576.25</ele><time>2026-04-12T10:16:28.001Z</time></trkpt><trkpt lat="39.019600334419565" lon="16.567088342292426"><ele>582.5</ele><time>2026-04-12T10:16:29.001Z</time></trkpt><trkpt lat="39.019631513723056" lon="16.567257335954064"><ele>588.75</ele><time>2026-04-12T10:16:30.001Z</time></trkpt><trkpt lat="39.019722734084745" lon="16.567404642090008"><ele>595.0</ele><time>2026-04-12T10:16:31.001Z</time></trkpt><trkpt lat="39.019860402729044" lon="16.567510210280147"><ele>587.75</ele><time>2026-04-12T10:16:32.001Z</time></trkpt><trkpt lat="39.019987217530364" lon="16.567598236923608"><ele>580.5</ele><time>2026-04-12T10:16:33.001Z</time></trkpt><trkpt lat="39.020102886906095" lon="16.567675293547723"><ele>573.25</ele><time>2026-04-12T10:16:34.001Z</time></trkpt><trkpt lat="39.020226198211" lon="16.56773690841102"><ele>566.0</ele><time>2026-04-12T10:16:35.001Z</time></trkpt><trkpt lat="39.020344868491605" lon="16.567805603293397"><ele>566.0</ele><time>2026-04-12T10:16:36.001Z</time></trkpt><trkpt lat="39.020453680982875" lon="16.567850527011586"><ele>566.0</ele><time>2026-04-12T10:16:37.001Z</time></trkpt><trkpt lat="39.02055658000592" lon="16.567896729901726"><ele>566.0</ele><time>2026-04-12T10:16:38.001Z</time></trkpt><trkpt lat="39.02062980412279" lon="16.567956455506284"><ele>566.0</ele><time>2026-04-12T10:16:39.001Z</time></trkpt><trkpt lat="39.02066329484345" lon="16.568048895869385"><ele>566.0</ele><time>2026-04-12T10:16:40.001Z</time></trkpt><trkpt lat="39.02066755753821" lon="16.568179956767565"><ele>571.25</ele><time>2026-04-12T10:16:41.001Z</time></trkpt><trkpt lat="39.02060590012875" lon="16.568329014101195"><ele>576.5</ele><time>2026-04-12T10:16:42.001Z</time></trkpt><trkpt lat="39.02058400083448" lon="16.56848132447481"><ele>581.75</ele><time>2026-04-12T10:16:43.001Z</time></trkpt><trkpt lat="39.02054526981606" lon="16.568644693677523"><ele>587.0</ele><time>2026-04-12T10:16:44.001Z</time></trkpt><trkpt lat="39.020509164256964" lon="16.56880227486727"><ele>587.0</ele><time>2026-04-12T10:16:45.001Z</time></trkpt><trkpt lat="39.020463115140814" lon="16.568952910395097"><ele>587.0</ele><time>2026-04-12T10:16:46.001Z</time></trkpt><trkpt lat="39.020421470361285" lon="16.56909323486445"><ele>587.0</ele><time>2026-04-12T10:16:47.001Z</time></trkpt><trkpt lat="39.02034223252221" lon="16.56920591598335"><ele>587.0</ele><time>2026-04-12T10:16:48.001Z</time></trkpt><trkpt lat="39.02023902482047" lon="16.569309420908798"><ele>587.0</ele><time>2026-04-12T10:16:49.001Z</time></trkpt><trkpt lat="39.02013634668149" lon="16.569408600593174"><ele>587.0</ele><time>2026-04-12T10:16:50.001Z</time></trkpt><trkpt lat="39.02003937712963" lon="16.569514420819434"><ele>587.0</ele><time>2026-04-12T10:16:51.001Z</time></trkpt><trkpt lat="39.01994103561668" lon="16.569618249146796"><ele>587.0</ele><time>2026-04-12T10:16:52.001Z</time></trkpt><trkpt lat="39.01984412642233" lon="16.56972781278438"><ele>586.75</ele><time>2026-04-12T10:16:53.001Z</time></trkpt><trkpt lat="39.019744864461295" lon="16.569831613566976"><ele>586.5</ele><time>2026-04-12T10:16:54.001Z</time></trkpt><trkpt lat="39.019645395930915" lon="16.569935626460133"><ele>586.25</ele><time>2026-04-12T10:16:55.001Z</time></trkpt><trkpt lat="39.019543694724234" lon="16.570038248097774"><ele>586.0</ele><time>2026-04-12T10:16:56.001Z</time></trkpt><trkpt lat="39.0194406773011" lon="16.57013737850158"><ele>586.0</ele><time>2026-04-12T10:16:57.001Z</time></trkpt><trkpt lat="39.01932935348454" lon="16.570224869732858"><ele>586.0</ele><time>2026-04-12T10:16:58.001Z</time></trkpt><trkpt lat="39.019212367372525" lon="16.57028519349085"><ele>586.0</ele><time>2026-04-12T10:16:59.001Z</time></trkpt><trkpt lat="39.01908424274857" lon="16.57032183259109"><ele>586.0</ele><time>2026-04-12T10:17:00.001Z</time></trkpt><trkpt lat="39.01896689665804" lon="16.5703520253224"><ele>586.0</ele><time>2026-04-12T10:17:01.001Z</time></trkpt><trkpt lat="39.018839709034886" lon="16.57034884443167"><ele>586.0</ele><time>2026-04-12T10:17:02.001Z</time></trkpt><trkpt lat="39.018709556811075" lon="16.570324465428154"><ele>586.0</ele><time>2026-04-12T10:17:03.001Z</time></trkpt><trkpt lat="39.018589826864435" lon="16.57028957952915"><ele>586.0</ele><time>2026-04-12T10:17:04.001Z</time></trkpt><trkpt lat="39.01847165976149" lon="16.57023142217236"><ele>586.0</ele><time>2026-04-12T10:17:05.001Z</time></trkpt><trkpt lat="39.01835688283644" lon="16.570148642242835"><ele>586.0</ele><time>2026-04-12T10:17:06.001Z</time></trkpt><trkpt lat="39.018249923446156" lon="16.57004377468797"><ele>586.0</ele><time>2026-04-12T10:17:07.001Z</time></trkpt><trkpt lat="39.01815115932275" lon="16.56992829110682"><ele>586.0</ele><time>2026-04-12T10:17:08.001Z</time></trkpt><trkpt lat="39.01806149508647" lon="16.569801677262053"><ele>581.75</ele><time>2026-04-12T10:17:09Z</time></trkpt><trkpt lat="39.01797743961335" lon="16.56966127905163"><ele>577.5</ele><time>2026-04-12T10:17:10Z</time></trkpt><trkpt lat="39.017895609988415" lon="16.569524021919822"><ele>573.25</ele><time>2026-04-12T10:17:11Z</time></trkpt><trkpt lat="39.01780665729323" lon="16.569391460795952"><ele>569.0</ele><time>2026-04-12T10:17:12Z</time></trkpt><trkpt lat="39.017684512945095" lon="16.569318082352616"><ele>578.75</ele><time>2026-04-12T10:17:13Z</time></trkpt><trkpt lat="39.017570896666875" lon="16.56925620418521"><ele>588.5</ele><time>2026-04-12T10:17:14Z</time></trkpt><trkpt lat="39.01744137051206" lon="16.569254926416118"><ele>598.25</ele><time>2026-04-12T10:17:15Z</time></trkpt><trkpt lat="39.01730693570975" lon="16.569307952311426"><ele>608.0</ele><time>2026-04-12T10:17:16Z</time></trkpt><trkpt lat="39.01719283290221" lon="16.569414125327185"><ele>601.5</ele><time>2026-04-12T10:17:17Z</time></trkpt><trkpt lat="39.01710626975557" lon="16.569545612697578"><ele>595.0</ele><time>2026-04-12T10:17:18Z</time></trkpt><trkpt lat="39.01702954103571" lon="16.56968915999228"><ele>588.5</ele><time>2026-04-12T10:17:19Z</time></trkpt><trkpt lat="39.016942516418695" lon="16.56977980507769"><ele>582.0</ele><time>2026-04-12T10:17:20Z</time></trkpt><trkpt lat="39.01681443018073" lon="16.569826015647582"><ele>582.0</ele><time>2026-04-12T10:17:21Z</time></trkpt><trkpt lat="39.0166774947439" lon="16.569829791350827"><ele>582.0</ele><time>2026-04-12T10:17:22Z</time></trkpt><trkpt lat="39.01655596443622" lon="16.5698242233631"><ele>582.0</ele><time>2026-04-12T10:17:23Z</time></trkpt><trkpt lat="39.01644188078784" lon="16.56975634766507"><ele>582.0</ele><time>2026-04-12T10:17:24Z</time></trkpt><trkpt lat="39.01633461393499" lon="16.56966923154708"><ele>583.25</ele><time>2026-04-12T10:17:25Z</time></trkpt><trkpt lat="39.01621473006452" lon="16.569617906132827"><ele>584.5</ele><time>2026-04-12T10:17:26Z</time></trkpt><trkpt lat="39.016091020467215" lon="16.569681197262305"><ele>585.75</ele><time>2026-04-12T10:17:27Z</time></trkpt><trkpt lat="39.01595639088209" lon="16.569689077399637"><ele>587.0</ele><time>2026-04-12T10:17:28Z</time></trkpt><trkpt lat="39.01582767713573" lon="16.56967393063193"><ele>592.75</ele><time>2026-04-12T10:17:29Z</time></trkpt><trkpt lat="39.01570201364093" lon="16.56961469633889"><ele>598.5</ele><time>2026-04-12T10:17:30Z</time></trkpt><trkpt lat="39.01558315466702" lon="16.56957124626656"><ele>604.25</ele><time>2026-04-12T10:17:31Z</time></trkpt><trkpt lat="39.0154904493898" lon="16.56958064281321"><ele>610.0</ele><time>2026-04-12T10:17:32Z</time></trkpt><trkpt lat="39.01540814373581" lon="16.56968302939084"><ele>610.0</ele><time>2026-04-12T10:17:33Z</time></trkpt><trkpt lat="39.01536676294449" lon="16.569815880977124"><ele>610.0</ele><time>2026-04-12T10:17:34Z</time></trkpt><trkpt lat="39.01537790685988" lon="16.569997119711225"><ele>610.0</ele><time>2026-04-12T10:17:35Z</time></trkpt><trkpt lat="39.01541920896692" lon="16.570148449300742"><ele>610.0</ele><time>2026-04-12T10:17:36Z</time></trkpt><trkpt lat="39.015526642667474" lon="16.57026566021154"><ele>607.2</ele><time>2026-04-12T10:17:37Z</time></trkpt><trkpt lat="39.01556693932974" lon="16.57038775556673"><ele>604.4</ele><time>2026-04-12T10:17:38Z</time></trkpt><trkpt lat="39.01561170463348" lon="16.57052687307918"><ele>601.6</ele><time>2026-04-12T10:17:39Z</time></trkpt><trkpt lat="39.01564350658772" lon="16.57066361552418"><ele>598.8</ele><time>2026-04-12T10:17:40Z</time></trkpt><trkpt lat="39.015652480343206" lon="16.57079207668954"><ele>596.0</ele><time>2026-04-12T10:17:41Z</time></trkpt><trkpt lat="39.01560503653274" lon="16.570897485163975"><ele>596.0</ele><time>2026-04-12T10:17:42Z</time></trkpt><trkpt lat="39.01556839442255" lon="16.57097477044697"><ele>596.0</ele><time>2026-04-12T10:17:43Z</time></trkpt><trkpt lat="39.01540061760413" lon="16.570924443739287"><ele>596.0</ele><time>2026-04-12T10:17:44Z</time></trkpt><trkpt lat="39.01526800881889" lon="16.570937341603024"><ele>596.0</ele><time>2026-04-12T10:17:45Z</time></trkpt><trkpt lat="39.01513237293962" lon="16.57091698857843"><ele>596.0</ele><time>2026-04-12T10:17:46Z</time></trkpt><trkpt lat="39.0150005547665" lon="16.570909065113675"><ele>596.0</ele><time>2026-04-12T10:17:47Z</time></trkpt><trkpt lat="39.01486971226531" lon="16.570903206504873"><ele>596.0</ele><time>2026-04-12T10:17:48Z</time></trkpt><trkpt lat="39.01474769150785" lon="16.57091861670008"><ele>596.0</ele><time>2026-04-12T10:17:49Z</time></trkpt><trkpt lat="39.01463574250302" lon="16.5709464696358"><ele>590.0</ele><time>2026-04-12T10:17:50Z</time></trkpt><trkpt lat="39.01454401680448" lon="16.571041263862515"><ele>584.0</ele><time>2026-04-12T10:17:51Z</time></trkpt><trkpt lat="39.014462274657085" lon="16.571169447123367"><ele>578.0</ele><time>2026-04-12T10:17:52Z</time></trkpt><trkpt lat="39.01437211922063" lon="16.57126117330067"><ele>572.0</ele><time>2026-04-12T10:17:53Z</time></trkpt><trkpt lat="39.014259238067055" lon="16.571299488923117"><ele>578.25</ele><time>2026-04-12T10:17:54Z</time></trkpt><trkpt lat="39.01413740753952" lon="16.57128882490349"><ele>584.5</ele><time>2026-04-12T10:17:55Z</time></trkpt><trkpt lat="39.014017255682546" lon="16.571222673283465"><ele>590.75</ele><time>2026-04-12T10:17:56Z</time></trkpt><trkpt lat="39.01388590614745" lon="16.57114444393771"><ele>597.0</ele><time>2026-04-12T10:17:57Z</time></trkpt><trkpt lat="39.01375797979278" lon="16.571088634905028"><ele>604.25</ele><time>2026-04-12T10:17:58Z</time></trkpt><trkpt lat="39.01363425147424" lon="16.57103470650902"><ele>611.5</ele><time>2026-04-12T10:17:59Z</time></trkpt><trkpt lat="39.013515362440344" lon="16.570990811016216"><ele>618.75</ele><time>2026-04-12T10:18:00Z</time></trkpt><trkpt lat="39.01339854772141" lon="16.57096799427493"><ele>626.0</ele><time>2026-04-12T10:18:01Z</time></trkpt><trkpt lat="39.01328696379876" lon="16.57100615458317"><ele>636.5</ele><time>2026-04-12T10:18:02Z</time></trkpt><trkpt lat="39.01318158973729" lon="16.57109954682958"><ele>647.0</ele><time>2026-04-12T10:18:03Z</time></trkpt><trkpt lat="39.013116768738335" lon="16.57123097384273"><ele>657.5</ele><time>2026-04-12T10:18:04Z</time></trkpt><trkpt lat="39.01311957455759" lon="16.571384015236767"><ele>668.0</ele><time>2026-04-12T10:18:05Z</time></trkpt><trkpt lat="39.013160120623986" lon="16.57148548162799"><ele>668.0</ele><time>2026-04-12T10:18:06Z</time></trkpt><trkpt lat="39.01319312246781" lon="16.571647117345776"><ele>668.0</ele><time>2026-04-12T10:18:07Z</time></trkpt><trkpt lat="39.01318401455732" lon="16.571823869796944"><ele>668.0</ele><time>2026-04-12T10:18:08Z</time></trkpt><trkpt lat="39.0131386404562" lon="16.571984324948254"><ele>668.0</ele><time>2026-04-12T10:18:09Z</time></trkpt><trkpt lat="39.01308848700925" lon="16.572130213747627"><ele>666.5</ele><time>2026-04-12T10:18:10Z</time></trkpt><trkpt lat="39.01301885486605" lon="16.572286151743715"><ele>665.0</ele><time>2026-04-12T10:18:11Z</time></trkpt><trkpt lat="39.012970408157834" lon="16.57243660250262"><ele>663.5</ele><time>2026-04-12T10:18:12Z</time></trkpt><trkpt lat="39.012923431364044" lon="16.572572255909826"><ele>662.0</ele><time>2026-04-12T10:18:13Z</time></trkpt><trkpt lat="39.012892381028706" lon="16.57270974426523"><ele>662.0</ele><time>2026-04-12T10:18:14Z</time></trkpt><trkpt lat="39.01288465128691" lon="16.57285485427772"><ele>662.0</ele><time>2026-04-12T10:18:15Z</time></trkpt><trkpt lat="39.01291432359105" lon="16.572998120192686"><ele>662.0</ele><time>2026-04-12T10:18:16.001Z</time></trkpt><trkpt lat="39.0129858402771" lon="16.573138063236996"><ele>662.0</ele><time>2026-04-12T10:18:17.001Z</time></trkpt><trkpt lat="39.01306820094328" lon="16.573278695252462"><ele>663.5</ele><time>2026-04-12T10:18:18.001Z</time></trkpt><trkpt lat="39.01314505445952" lon="16.57342093786153"><ele>665.0</ele><time>2026-04-12T10:18:19.001Z</time></trkpt><trkpt lat="39.01321467397216" lon="16.573569008363656"><ele>666.5</ele><time>2026-04-12T10:18:20.001Z</time></trkpt><trkpt lat="39.01327820458186" lon="16.573710354074024"><ele>668.0</ele><time>2026-04-12T10:18:21.001Z</time></trkpt><trkpt lat="39.01331951106829" lon="16.57385782970758"><ele>668.5</ele><time>2026-04-12T10:18:22.001Z</time></trkpt><trkpt lat="39.01334546549092" lon="16.574012912945026"><ele>669.0</ele><time>2026-04-12T10:18:23.001Z</time></trkpt><trkpt lat="39.01332556428041" lon="16.574154672387174"><ele>669.5</ele><time>2026-04-12T10:18:24.001Z</time></trkpt><trkpt lat="39.013254748408606" lon="16.574250067442282"><ele>670.0</ele><time>2026-04-12T10:18:25.001Z</time></trkpt><trkpt lat="39.01317937951226" lon="16.574395292787067"><ele>668.5</ele><time>2026-04-12T10:18:26.001Z</time></trkpt><trkpt lat="39.01310151080378" lon="16.574549244553605"><ele>667.0</ele><time>2026-04-12T10:18:27.001Z</time></trkpt><trkpt lat="39.01306355229603" lon="16.57472877499444"><ele>665.5</ele><time>2026-04-12T10:18:28.001Z</time></trkpt><trkpt lat="39.01303272455183" lon="16.57490991454529"><ele>664.0</ele><time>2026-04-12T10:18:29.001Z</time></trkpt><trkpt lat="39.01303994731712" lon="16.57508859672218"><ele>664.0</ele><time>2026-04-12T10:18:30.001Z</time></trkpt><trkpt lat="39.01308543046794" lon="16.575261233269085"><ele>664.0</ele><time>2026-04-12T10:18:31.001Z</time></trkpt><trkpt lat="39.01312593922226" lon="16.575430578196375"><ele>664.0</ele><time>2026-04-12T10:18:32.001Z</time></trkpt><trkpt lat="39.01312486180939" lon="16.575606166944507"><ele>664.0</ele><time>2026-04-12T10:18:33.001Z</time></trkpt><trkpt lat="39.01312704494461" lon="16.57577473085978"><ele>661.8000000000001</ele><time>2026-04-12T10:18:34.001Z</time></trkpt><trkpt lat="39.01317022748514" lon="16.575921762893138"><ele>659.6</ele><time>2026-04-12T10:18:35.001Z</time></trkpt><trkpt lat="39.01320288351329" lon="16.57606689313169"><ele>657.4</ele><time>2026-04-12T10:18:36.001Z</time></trkpt><trkpt lat="39.01321859439733" lon="16.576190312082044"><ele>655.2</ele><time>2026-04-12T10:18:37.001Z</time></trkpt><trkpt lat="39.0131946856372" lon="16.576308460308027"><ele>653.0</ele><time>2026-04-12T10:18:38.001Z</time></trkpt><trkpt lat="39.013097136156006" lon="16.5763844540061"><ele>647.6</ele><time>2026-04-12T10:18:39.001Z</time></trkpt><trkpt lat="39.01301346740872" lon="16.576517319954263"><ele>642.1999999999999</ele><time>2026-04-12T10:18:40.001Z</time></trkpt><trkpt lat="39.01297699358156" lon="16.576652012640352"><ele>636.8</ele><time>2026-04-12T10:18:41.001Z</time></trkpt><trkpt lat="39.01292761719734" lon="16.576739527254823"><ele>631.4</ele><time>2026-04-12T10:18:42.001Z</time></trkpt><trkpt lat="39.01285989255401" lon="16.576794745772023"><ele>626.0</ele><time>2026-04-12T10:18:44.001Z</time></trkpt><trkpt lat="39.01274698981169" lon="16.57672121344242"><ele>626.0</ele><time>2026-04-12T10:18:45.001Z</time></trkpt><trkpt lat="39.01263883217738" lon="16.57672281341517"><ele>626.0</ele><time>2026-04-12T10:18:46.001Z</time></trkpt><trkpt lat="39.01255759823068" lon="16.576772089941645"><ele>626.0</ele><time>2026-04-12T10:18:47.001Z</time></trkpt><trkpt lat="39.0124813369797" lon="16.5768838508607"><ele>626.0</ele><time>2026-04-12T10:18:48.001Z</time></trkpt><trkpt lat="39.012410567229715" lon="16.576997315593132"><ele>626.0</ele><time>2026-04-12T10:18:49.001Z</time></trkpt><trkpt lat="39.01233794311165" lon="16.57709558647857"><ele>629.25</ele><time>2026-04-12T10:18:50.001Z</time></trkpt><trkpt lat="39.012283101770414" lon="16.577200096565353"><ele>632.5</ele><time>2026-04-12T10:18:51.001Z</time></trkpt><trkpt lat="39.01224890545306" lon="16.57733277128613"><ele>635.75</ele><time>2026-04-12T10:18:52.001Z</time></trkpt><trkpt lat="39.01222514017951" lon="16.577489170771667"><ele>639.0</ele><time>2026-04-12T10:18:53.001Z</time></trkpt><trkpt lat="39.01220332430603" lon="16.577646814963888"><ele>639.0</ele><time>2026-04-12T10:18:54.001Z</time></trkpt><trkpt lat="39.01219832823919" lon="16.57780069823716"><ele>639.0</ele><time>2026-04-12T10:18:55.001Z</time></trkpt><trkpt lat="39.012210046058584" lon="16.577945481256524"><ele>639.0</ele><time>2026-04-12T10:18:56.001Z</time></trkpt><trkpt lat="39.01225672404983" lon="16.57808487063135"><ele>639.0</ele><time>2026-04-12T10:18:57.001Z</time></trkpt><trkpt lat="39.01231047419922" lon="16.578211825855934"><ele>635.4</ele><time>2026-04-12T10:18:58.001Z</time></trkpt><trkpt lat="39.01232549401304" lon="16.57833969672348"><ele>631.8</ele><time>2026-04-12T10:18:59.001Z</time></trkpt><trkpt lat="39.01230092296295" lon="16.57845912820658"><ele>628.2</ele><time>2026-04-12T10:19:00.001Z</time></trkpt><trkpt lat="39.01224170949903" lon="16.578562873102108"><ele>624.6</ele><time>2026-04-12T10:19:01.001Z</time></trkpt><trkpt lat="39.01214641599628" lon="16.578629944340825"><ele>621.0</ele><time>2026-04-12T10:19:02.001Z</time></trkpt><trkpt lat="39.012055504032645" lon="16.57879665069796"><ele>616.5</ele><time>2026-04-12T10:19:03.001Z</time></trkpt><trkpt lat="39.01197364863213" lon="16.578971996927486"><ele>612.0</ele><time>2026-04-12T10:19:04.001Z</time></trkpt><trkpt lat="39.011951961761554" lon="16.579108080367508"><ele>607.5</ele><time>2026-04-12T10:19:05.001Z</time></trkpt><trkpt lat="39.01190292733275" lon="16.57926489149583"><ele>603.0</ele><time>2026-04-12T10:19:06.001Z</time></trkpt><trkpt lat="39.01184003790364" lon="16.579345629372398"><ele>603.0</ele><time>2026-04-12T10:19:07.001Z</time></trkpt><trkpt lat="39.01177515398762" lon="16.579397580747298"><ele>603.0</ele><time>2026-04-12T10:19:08.001Z</time></trkpt><trkpt lat="39.01168677693519" lon="16.57938078844418"><ele>603.0</ele><time>2026-04-12T10:19:09.001Z</time></trkpt><trkpt lat="39.01158024694493" lon="16.57926198128235"><ele>603.0</ele><time>2026-04-12T10:19:10.001Z</time></trkpt><trkpt lat="39.01148710309567" lon="16.579146560320726"><ele>603.0</ele><time>2026-04-12T10:19:11.001Z</time></trkpt><trkpt lat="39.01140725401687" lon="16.579029912998486"><ele>598.5</ele><time>2026-04-12T10:19:12.001Z</time></trkpt><trkpt lat="39.0113637739977" lon="16.578892820161318"><ele>594.0</ele><time>2026-04-12T10:19:13.001Z</time></trkpt><trkpt lat="39.01134407856414" lon="16.578728376766698"><ele>589.5</ele><time>2026-04-12T10:19:14.001Z</time></trkpt><trkpt lat="39.01133280031797" lon="16.578554436943286"><ele>585.0</ele><time>2026-04-12T10:19:15Z</time></trkpt><trkpt lat="39.0113000081146" lon="16.57838560224585"><ele>585.0</ele><time>2026-04-12T10:19:16Z</time></trkpt><trkpt lat="39.011227956521154" lon="16.5782317858846"><ele>585.0</ele><time>2026-04-12T10:19:17Z</time></trkpt><trkpt lat="39.01112331120914" lon="16.578093998580247"><ele>585.0</ele><time>2026-04-12T10:19:18Z</time></trkpt><trkpt lat="39.01102781340889" lon="16.577969256118525"><ele>585.0</ele><time>2026-04-12T10:19:19Z</time></trkpt><trkpt lat="39.01098235062299" lon="16.57787791038541"><ele>579.25</ele><time>2026-04-12T10:19:20Z</time></trkpt><trkpt lat="39.01093121995733" lon="16.577710107408716"><ele>573.5</ele><time>2026-04-12T10:19:21Z</time></trkpt><trkpt lat="39.01089775198153" lon="16.577536662886807"><ele>567.75</ele><time>2026-04-12T10:19:22Z</time></trkpt><trkpt lat="39.01085295889638" lon="16.57736192813374"><ele>562.0</ele><time>2026-04-12T10:19:23Z</time></trkpt><trkpt lat="39.01080797711792" lon="16.57717104394586"><ele>571.0</ele><time>2026-04-12T10:19:24Z</time></trkpt><trkpt lat="39.010760017472414" lon="16.576988199840393"><ele>580.0</ele><time>2026-04-12T10:19:25Z</time></trkpt><trkpt lat="39.010718258740205" lon="16.576829576285736"><ele>589.0</ele><time>2026-04-12T10:19:26Z</time></trkpt><trkpt lat="39.010679944307725" lon="16.576680406098205"><ele>598.0</ele><time>2026-04-12T10:19:27Z</time></trkpt><trkpt lat="39.01063885347865" lon="16.576520955353118"><ele>598.0</ele><time>2026-04-12T10:19:28Z</time></trkpt><trkpt lat="39.01060959479841" lon="16.576356840128028"><ele>598.0</ele><time>2026-04-12T10:19:29Z</time></trkpt><trkpt lat="39.01060634138391" lon="16.57619147240446"><ele>598.0</ele><time>2026-04-12T10:19:30Z</time></trkpt><trkpt lat="39.0106418818047" lon="16.576022922024606"><ele>598.0</ele><time>2026-04-12T10:19:31Z</time></trkpt><trkpt lat="39.010662353593034" lon="16.575859923707146"><ele>603.5</ele><time>2026-04-12T10:19:32Z</time></trkpt><trkpt lat="39.01060770502297" lon="16.575714389249292"><ele>609.0</ele><time>2026-04-12T10:19:33Z</time></trkpt><trkpt lat="39.010531620901766" lon="16.575564173471324"><ele>614.5</ele><time>2026-04-12T10:19:34Z</time></trkpt><trkpt lat="39.010508537343064" lon="16.575409436212624"><ele>620.0</ele><time>2026-04-12T10:19:35Z</time></trkpt><trkpt lat="39.01048389183494" lon="16.57526965288493"><ele>624.4</ele><time>2026-04-12T10:19:36Z</time></trkpt><trkpt lat="39.01040523380663" lon="16.575155666769284"><ele>628.8</ele><time>2026-04-12T10:19:37Z</time></trkpt><trkpt lat="39.010298287933956" lon="16.575083728242447"><ele>633.2</ele><time>2026-04-12T10:19:38Z</time></trkpt><trkpt lat="39.01020337821897" lon="16.575045375833103"><ele>637.6</ele><time>2026-04-12T10:19:39Z</time></trkpt><trkpt lat="39.01013981606343" lon="16.575058640841203"><ele>642.0</ele><time>2026-04-12T10:19:40Z</time></trkpt><trkpt lat="39.01004557218513" lon="16.575150233612014"><ele>642.0</ele><time>2026-04-12T10:19:41Z</time></trkpt><trkpt lat="39.010041861062675" lon="16.575348383387446"><ele>642.0</ele><time>2026-04-12T10:19:42Z</time></trkpt><trkpt lat="39.009989164201706" lon="16.57549370777015"><ele>642.0</ele><time>2026-04-12T10:19:43Z</time></trkpt><trkpt lat="39.00993311880454" lon="16.575644713289467"><ele>642.0</ele><time>2026-04-12T10:19:44Z</time></trkpt><trkpt lat="39.00988059088148" lon="16.57577792654029"><ele>641.2</ele><time>2026-04-12T10:19:45Z</time></trkpt><trkpt lat="39.009839024824394" lon="16.575884318539938"><ele>640.4000000000001</ele><time>2026-04-12T10:19:46Z</time></trkpt><trkpt lat="39.00978768664143" lon="16.5759863700418"><ele>639.5999999999999</ele><time>2026-04-12T10:19:47Z</time></trkpt><trkpt lat="39.009698652267026" lon="16.576093055593823"><ele>638.8</ele><time>2026-04-12T10:19:48Z</time></trkpt><trkpt lat="39.00962558370308" lon="16.576160595868576"><ele>638.0</ele><time>2026-04-12T10:19:49Z</time></trkpt><trkpt lat="39.00952155739745" lon="16.576210961051462"><ele>631.0</ele><time>2026-04-12T10:19:50Z</time></trkpt><trkpt lat="39.00939860430769" lon="16.576226613783607"><ele>624.0</ele><time>2026-04-12T10:19:51Z</time></trkpt><trkpt lat="39.009269312270035" lon="16.576248954330406"><ele>617.0</ele><time>2026-04-12T10:19:52Z</time></trkpt><trkpt lat="39.00912852911455" lon="16.576275133610206"><ele>610.0</ele><time>2026-04-12T10:19:53Z</time></trkpt><trkpt lat="39.00899209229812" lon="16.576317096914263"><ele>610.0</ele><time>2026-04-12T10:19:54Z</time></trkpt><trkpt lat="39.00884943788266" lon="16.57633110007456"><ele>610.0</ele><time>2026-04-12T10:19:55Z</time></trkpt><trkpt lat="39.00870853456161" lon="16.57635216240298"><ele>610.0</ele><time>2026-04-12T10:19:56Z</time></trkpt><trkpt lat="39.00857254418671" lon="16.57637355770345"><ele>610.0</ele><time>2026-04-12T10:19:57Z</time></trkpt><trkpt lat="39.00844341647675" lon="16.576403857465067"><ele>609.75</ele><time>2026-04-12T10:19:58Z</time></trkpt><trkpt lat="39.00832454663317" lon="16.576407918791904"><ele>609.5</ele><time>2026-04-12T10:19:59Z</time></trkpt><trkpt lat="39.008198549558934" lon="16.576376992423565"><ele>609.25</ele><time>2026-04-12T10:20:00Z</time></trkpt><trkpt lat="39.0080771997046" lon="16.576302307905447"><ele>609.0</ele><time>2026-04-12T10:20:01Z</time></trkpt><trkpt lat="39.00796185116751" lon="16.57622817056615"><ele>609.0</ele><time>2026-04-12T10:20:02Z</time></trkpt><trkpt lat="39.007824773367496" lon="16.576204933029643"><ele>609.0</ele><time>2026-04-12T10:20:03Z</time></trkpt><trkpt lat="39.00768456750718" lon="16.576230633365178"><ele>609.0</ele><time>2026-04-12T10:20:04Z</time></trkpt><trkpt lat="39.007545732096666" lon="16.576259874004556"><ele>609.0</ele><time>2026-04-12T10:20:05Z</time></trkpt><trkpt lat="39.00740451993965" lon="16.576232637669186"><ele>613.75</ele><time>2026-04-12T10:20:06Z</time></trkpt><trkpt lat="39.007264991524714" lon="16.576190991713638"><ele>618.5</ele><time>2026-04-12T10:20:07Z</time></trkpt><trkpt lat="39.00712570354781" lon="16.57615646527213"><ele>623.25</ele><time>2026-04-12T10:20:08Z</time></trkpt><trkpt lat="39.00699929753692" lon="16.57612565397617"><ele>628.0</ele><time>2026-04-12T10:20:09Z</time></trkpt><trkpt lat="39.00687053387319" lon="16.576142720917417"><ele>628.0</ele><time>2026-04-12T10:20:10Z</time></trkpt><trkpt lat="39.006746593167904" lon="16.57622005011454"><ele>628.0</ele><time>2026-04-12T10:20:11Z</time></trkpt><trkpt lat="39.0066679536409" lon="16.57634411100955"><ele>628.0</ele><time>2026-04-12T10:20:12Z</time></trkpt><trkpt lat="39.00661091618434" lon="16.5764832697703"><ele>628.0</ele><time>2026-04-12T10:20:13Z</time></trkpt><trkpt lat="39.00653175712177" lon="16.576575991291147"><ele>624.25</ele><time>2026-04-12T10:20:14Z</time></trkpt><trkpt lat="39.00642420838516" lon="16.57656643260939"><ele>620.5</ele><time>2026-04-12T10:20:15Z</time></trkpt><trkpt lat="39.00632173157825" lon="16.57649061493817"><ele>616.75</ele><time>2026-04-12T10:20:16Z</time></trkpt><trkpt lat="39.00627987719583" lon="16.576344412827925"><ele>613.0</ele><time>2026-04-12T10:20:17Z</time></trkpt><trkpt lat="39.006301107702754" lon="16.57619999174621"><ele>618.0</ele><time>2026-04-12T10:20:18.001Z</time></trkpt><trkpt lat="39.00627492659689" lon="16.57603291099614"><ele>623.0</ele><time>2026-04-12T10:20:19.001Z</time></trkpt><trkpt lat="39.00625471473528" lon="16.575875124230503"><ele>628.0</ele><time>2026-04-12T10:20:20.001Z</time></trkpt><trkpt lat="39.00618735124526" lon="16.575744449421055"><ele>633.0</ele><time>2026-04-12T10:20:21.001Z</time></trkpt><trkpt lat="39.006066020833195" lon="16.57565666425619"><ele>633.0</ele><time>2026-04-12T10:20:22.001Z</time></trkpt><trkpt lat="39.00594369771605" lon="16.575639751856542"><ele>633.0</ele><time>2026-04-12T10:20:23.001Z</time></trkpt><trkpt lat="39.00586355271048" lon="16.575593665940566"><ele>633.0</ele><time>2026-04-12T10:20:24.001Z</time></trkpt><trkpt lat="39.00579326532561" lon="16.575563100751996"><ele>633.0</ele><time>2026-04-12T10:20:25.001Z</time></trkpt><trkpt lat="39.00573135265755" lon="16.57552209083621"><ele>633.0</ele><time>2026-04-12T10:20:27.001Z</time></trkpt><trkpt lat="39.005669895088445" lon="16.57540578827733"><ele>631.4</ele><time>2026-04-12T10:20:29.001Z</time></trkpt><trkpt lat="39.00565253010851" lon="16.57532402925284"><ele>629.8</ele><time>2026-04-12T10:20:30.001Z</time></trkpt><trkpt lat="39.00567456009251" lon="16.575227171781947"><ele>628.2</ele><time>2026-04-12T10:20:31.001Z</time></trkpt><trkpt lat="39.00569492546547" lon="16.57507722077336"><ele>626.6</ele><time>2026-04-12T10:20:32.001Z</time></trkpt><trkpt lat="39.00570855728338" lon="16.57488172860455"><ele>625.0</ele><time>2026-04-12T10:20:33.001Z</time></trkpt><trkpt lat="39.005711451531454" lon="16.57473617260709"><ele>625.0</ele><time>2026-04-12T10:20:34.001Z</time></trkpt><trkpt lat="39.00566001928606" lon="16.574609193789403"><ele>625.0</ele><time>2026-04-12T10:20:35.001Z</time></trkpt><trkpt lat="39.005565786084254" lon="16.57451744504642"><ele>625.0</ele><time>2026-04-12T10:20:36.001Z</time></trkpt><trkpt lat="39.00545464872723" lon="16.574373475711937"><ele>625.0</ele><time>2026-04-12T10:20:37.001Z</time></trkpt><trkpt lat="39.005319272607345" lon="16.574168979855465"><ele>638.5</ele><time>2026-04-12T10:20:38.001Z</time></trkpt><trkpt lat="39.00518651099107" lon="16.573911609516475"><ele>652.0</ele><time>2026-04-12T10:20:39.001Z</time></trkpt><trkpt lat="39.00501882134502" lon="16.57370294771463"><ele>661.0</ele><time>2026-04-12T10:20:40.001Z</time></trkpt><trkpt lat="39.00485142052717" lon="16.573530776708598"><ele>670.0</ele><time>2026-04-12T10:20:41.001Z</time></trkpt><trkpt lat="39.004703687724046" lon="16.57340469744145"><ele>679.0</ele><time>2026-04-12T10:20:42.001Z</time></trkpt><trkpt lat="39.004588450956525" lon="16.57333997286851"><ele>679.0</ele><time>2026-04-12T10:20:43.001Z</time></trkpt><trkpt lat="39.00448940962641" lon="16.57328543293768"><ele>679.0</ele><time>2026-04-12T10:20:44.001Z</time></trkpt><trkpt lat="39.00439787679533" lon="16.573311278529168"><ele>679.0</ele><time>2026-04-12T10:20:45.001Z</time></trkpt><trkpt lat="39.00431519147845" lon="16.573426016463507"><ele>679.0</ele><time>2026-04-12T10:20:46.001Z</time></trkpt><trkpt lat="39.004239774281324" lon="16.57356463929851"><ele>675.5</ele><time>2026-04-12T10:20:47.001Z</time></trkpt><trkpt lat="39.00422230075248" lon="16.57372587629915"><ele>672.0</ele><time>2026-04-12T10:20:48.001Z</time></trkpt><trkpt lat="39.00423070283954" lon="16.573887206850145"><ele>668.5</ele><time>2026-04-12T10:20:49.001Z</time></trkpt><trkpt lat="39.0042152507074" lon="16.574055516897534"><ele>665.0</ele><time>2026-04-12T10:20:50.001Z</time></trkpt><trkpt lat="39.00419822837022" lon="16.574221210996203"><ele>671.75</ele><time>2026-04-12T10:20:51.001Z</time></trkpt><trkpt lat="39.00414500275772" lon="16.574351926578185"><ele>678.5</ele><time>2026-04-12T10:20:52.001Z</time></trkpt><trkpt lat="39.004063641641444" lon="16.57445937305725"><ele>685.25</ele><time>2026-04-12T10:20:53.001Z</time></trkpt><trkpt lat="39.003958513947644" lon="16.57452761906829"><ele>692.0</ele><time>2026-04-12T10:20:54.001Z</time></trkpt><trkpt lat="39.00381320285297" lon="16.57463051013832"><ele>692.0</ele><time>2026-04-12T10:20:55.001Z</time></trkpt><trkpt lat="39.0037109493111" lon="16.574715330363126"><ele>692.0</ele><time>2026-04-12T10:20:56.001Z</time></trkpt><trkpt lat="39.00359422785" lon="16.574802369114835"><ele>692.0</ele><time>2026-04-12T10:20:57.001Z</time></trkpt><trkpt lat="39.00350414998312" lon="16.574920035882606"><ele>692.0</ele><time>2026-04-12T10:20:58.001Z</time></trkpt><trkpt lat="39.0034441344363" lon="16.575072435993555"><ele>692.0</ele><time>2026-04-12T10:20:59.001Z</time></trkpt><trkpt lat="39.003430728148544" lon="16.57526328456405"><ele>692.0</ele><time>2026-04-12T10:21:00.001Z</time></trkpt><trkpt lat="39.00341293969443" lon="16.57544305225165"><ele>692.0</ele><time>2026-04-12T10:21:01.001Z</time></trkpt><trkpt lat="39.00339168605807" lon="16.575629965703452"><ele>692.0</ele><time>2026-04-12T10:21:02.001Z</time></trkpt><trkpt lat="39.003400985169336" lon="16.57580504417097"><ele>695.25</ele><time>2026-04-12T10:21:03.001Z</time></trkpt><trkpt lat="39.00339797383076" lon="16.57598644962407"><ele>698.5</ele><time>2026-04-12T10:21:04.001Z</time></trkpt><trkpt lat="39.00338942998816" lon="16.57615692927465"><ele>701.75</ele><time>2026-04-12T10:21:05.001Z</time></trkpt><trkpt lat="39.00337643700149" lon="16.576304138803405"><ele>705.0</ele><time>2026-04-12T10:21:06.001Z</time></trkpt><trkpt lat="39.003317507288536" lon="16.576416571130977"><ele>705.0</ele><time>2026-04-12T10:21:07.001Z</time></trkpt><trkpt lat="39.00320904618133" lon="16.576496176897095"><ele>705.0</ele><time>2026-04-12T10:21:08.001Z</time></trkpt><trkpt lat="39.0030890797196" lon="16.576548893436403"><ele>705.0</ele><time>2026-04-12T10:21:09.001Z</time></trkpt><trkpt lat="39.003005532988865" lon="16.57656916359132"><ele>705.0</ele><time>2026-04-12T10:21:10.001Z</time></trkpt><trkpt lat="39.00288965736805" lon="16.57665989103868"><ele>705.0</ele><time>2026-04-12T10:21:11.001Z</time></trkpt><trkpt lat="39.0027907237132" lon="16.576780159783034"><ele>705.0</ele><time>2026-04-12T10:21:12.001Z</time></trkpt><trkpt lat="39.00272505378571" lon="16.576940938872177"><ele>705.0</ele><time>2026-04-12T10:21:13.001Z</time></trkpt><trkpt lat="39.00269871107321" lon="16.57712747952379"><ele>705.0</ele><time>2026-04-12T10:21:14.001Z</time></trkpt><trkpt lat="39.00269079525959" lon="16.577322393428908"><ele>701.6666666666666</ele><time>2026-04-12T10:21:15.001Z</time></trkpt><trkpt lat="39.002674658322526" lon="16.57751677400083"><ele>698.3333333333333</ele><time>2026-04-12T10:21:16.001Z</time></trkpt><trkpt lat="39.002659286728594" lon="16.577714150082755"><ele>695.0</ele><time>2026-04-12T10:21:17.001Z</time></trkpt><trkpt lat="39.00264304714432" lon="16.577912206473517"><ele>694.6666666666666</ele><time>2026-04-12T10:21:18.001Z</time></trkpt><trkpt lat="39.00262659304841" lon="16.57811203555549"><ele>694.3333333333334</ele><time>2026-04-12T10:21:19.001Z</time></trkpt><trkpt lat="39.00260241967159" lon="16.578305459184183"><ele>694.0</ele><time>2026-04-12T10:21:20.001Z</time></trkpt><trkpt lat="39.00258530913583" lon="16.578493006890948"><ele>692.25</ele><time>2026-04-12T10:21:21Z</time></trkpt><trkpt lat="39.00259855838515" lon="16.578696938114387"><ele>690.5</ele><time>2026-04-12T10:21:22Z</time></trkpt><trkpt lat="39.00261077373886" lon="16.578831106282788"><ele>688.75</ele><time>2026-04-12T10:21:23Z</time></trkpt><trkpt lat="39.00262963002653" lon="16.578990459740787"><ele>687.0</ele><time>2026-04-12T10:21:24Z</time></trkpt><trkpt lat="39.0026354437881" lon="16.579079186154974"><ele>687.0</ele><time>2026-04-12T10:21:25Z</time></trkpt><trkpt lat="39.002599012062156" lon="16.579218584689716"><ele>687.0</ele><time>2026-04-12T10:21:26Z</time></trkpt><trkpt lat="39.002549812723785" lon="16.57928446695941"><ele>687.0</ele><time>2026-04-12T10:21:27Z</time></trkpt><trkpt lat="39.00243586257651" lon="16.579264776258796"><ele>687.0</ele><time>2026-04-12T10:21:28Z</time></trkpt><trkpt lat="39.00237009656443" lon="16.579158618904863"><ele>687.0</ele><time>2026-04-12T10:21:29Z</time></trkpt><trkpt lat="39.00231886113427" lon="16.579025711650917"><ele>680.0</ele><time>2026-04-12T10:21:30Z</time></trkpt><trkpt lat="39.00220354075974" lon="16.578930316311126"><ele>673.0</ele><time>2026-04-12T10:21:31Z</time></trkpt><trkpt lat="39.0020530952208" lon="16.57889596928681"><ele>666.0</ele><time>2026-04-12T10:21:32Z</time></trkpt><trkpt lat="39.0018517595799" lon="16.578808068941843"><ele>666.0</ele><time>2026-04-12T10:21:33Z</time></trkpt><trkpt lat="39.00175353339559" lon="16.5787151178003"><ele>666.0</ele><time>2026-04-12T10:21:34Z</time></trkpt><trkpt lat="39.001672650765556" lon="16.578598009631843"><ele>666.0</ele><time>2026-04-12T10:21:35Z</time></trkpt><trkpt lat="39.001631699598306" lon="16.578432485131305"><ele>666.0</ele><time>2026-04-12T10:21:36Z</time></trkpt><trkpt lat="39.00155584524321" lon="16.578293781774747"><ele>673.5</ele><time>2026-04-12T10:21:37Z</time></trkpt><trkpt lat="39.001452229363736" lon="16.578220171652323"><ele>681.0</ele><time>2026-04-12T10:21:38Z</time></trkpt><trkpt lat="39.00130775491009" lon="16.5781947172202"><ele>688.5</ele><time>2026-04-12T10:21:39Z</time></trkpt><trkpt lat="39.00115778728117" lon="16.57819288539805"><ele>696.0</ele><time>2026-04-12T10:21:40Z</time></trkpt><trkpt lat="39.00104516489577" lon="16.57811639483588"><ele>696.0</ele><time>2026-04-12T10:21:41Z</time></trkpt><trkpt lat="39.000956187669594" lon="16.57802572376622"><ele>696.0</ele><time>2026-04-12T10:21:42Z</time></trkpt><trkpt lat="39.00083818055391" lon="16.57798739820315"><ele>696.0</ele><time>2026-04-12T10:21:43Z</time></trkpt><trkpt lat="39.000702621782324" lon="16.57801612185951"><ele>696.0</ele><time>2026-04-12T10:21:44Z</time></trkpt><trkpt lat="39.00054870770824" lon="16.578048902226953"><ele>699.5</ele><time>2026-04-12T10:21:45Z</time></trkpt><trkpt lat="39.00041413668494" lon="16.578057293887337"><ele>703.0</ele><time>2026-04-12T10:21:46Z</time></trkpt><trkpt lat="39.000283864355275" lon="16.57803377231488"><ele>706.5</ele><time>2026-04-12T10:21:47Z</time></trkpt><trkpt lat="39.000171105975745" lon="16.57804091013211"><ele>710.0</ele><time>2026-04-12T10:21:48Z</time></trkpt><trkpt lat="39.00006293017959" lon="16.578097310933853"><ele>710.0</ele><time>2026-04-12T10:21:49Z</time></trkpt><trkpt lat="38.99996414158926" lon="16.578253324303386"><ele>710.0</ele><time>2026-04-12T10:21:50Z</time></trkpt><trkpt lat="38.99989969262521" lon="16.57841171560718"><ele>710.0</ele><time>2026-04-12T10:21:51Z</time></trkpt><trkpt lat="38.99981571689297" lon="16.578552477696366"><ele>710.0</ele><time>2026-04-12T10:21:52Z</time></trkpt><trkpt lat="38.99969643045376" lon="16.57862947297756"><ele>710.0</ele><time>2026-04-12T10:21:53Z</time></trkpt><trkpt lat="38.999552313610394" lon="16.578669843318647"><ele>710.0</ele><time>2026-04-12T10:21:54Z</time></trkpt><trkpt lat="38.99938697627213" lon="16.578693587768754"><ele>710.0</ele><time>2026-04-12T10:21:55Z</time></trkpt><trkpt lat="38.99925472650345" lon="16.57881602454337"><ele>706.75</ele><time>2026-04-12T10:21:56Z</time></trkpt><trkpt lat="38.999150454263514" lon="16.5789189942174"><ele>703.5</ele><time>2026-04-12T10:21:57Z</time></trkpt><trkpt lat="38.99905444084921" lon="16.57902845058494"><ele>700.25</ele><time>2026-04-12T10:21:58Z</time></trkpt><trkpt lat="38.99895377319611" lon="16.579042437704214"><ele>697.0</ele><time>2026-04-12T10:21:59Z</time></trkpt><trkpt lat="38.99885235240042" lon="16.579027138855018"><ele>697.0</ele><time>2026-04-12T10:22:00Z</time></trkpt><trkpt lat="38.99877239107302" lon="16.57887505032184"><ele>697.0</ele><time>2026-04-12T10:22:01Z</time></trkpt><trkpt lat="38.99866669511524" lon="16.578766483374118"><ele>697.0</ele><time>2026-04-12T10:22:02Z</time></trkpt><trkpt lat="38.99856036506838" lon="16.57863326364366"><ele>697.0</ele><time>2026-04-12T10:22:03Z</time></trkpt><trkpt lat="38.998458947835246" lon="16.578523763615355"><ele>703.0</ele><time>2026-04-12T10:22:04Z</time></trkpt><trkpt lat="38.99839430654158" lon="16.578375113291653"><ele>709.0</ele><time>2026-04-12T10:22:05Z</time></trkpt><trkpt lat="38.99832108864869" lon="16.578227788283126"><ele>715.0</ele><time>2026-04-12T10:22:06Z</time></trkpt><trkpt lat="38.9982458078983" lon="16.578073209676887"><ele>721.0</ele><time>2026-04-12T10:22:07Z</time></trkpt><trkpt lat="38.99812100073867" lon="16.57803220154095"><ele>721.0</ele><time>2026-04-12T10:22:08Z</time></trkpt><trkpt lat="38.99799518039795" lon="16.577979484438682"><ele>721.0</ele><time>2026-04-12T10:22:09Z</time></trkpt><trkpt lat="38.99785192749203" lon="16.577930238241144"><ele>721.0</ele><time>2026-04-12T10:22:10Z</time></trkpt><trkpt lat="38.99772716441449" lon="16.577880739416646"><ele>721.0</ele><time>2026-04-12T10:22:11Z</time></trkpt><trkpt lat="38.99761183990454" lon="16.577788019548628"><ele>723.25</ele><time>2026-04-12T10:22:12Z</time></trkpt><trkpt lat="38.997499372476575" lon="16.577724202233927"><ele>725.5</ele><time>2026-04-12T10:22:13Z</time></trkpt><trkpt lat="38.99737871080264" lon="16.577682907342123"><ele>727.75</ele><time>2026-04-12T10:22:14Z</time></trkpt><trkpt lat="38.99726944148944" lon="16.57770092313157"><ele>730.0</ele><time>2026-04-12T10:22:15Z</time></trkpt><trkpt lat="38.99718748378255" lon="16.5778094882726"><ele>726.0</ele><time>2026-04-12T10:22:16Z</time></trkpt><trkpt lat="38.99709789732972" lon="16.577940942150907"><ele>722.0</ele><time>2026-04-12T10:22:17Z</time></trkpt><trkpt lat="38.9970204494261" lon="16.578061215965548"><ele>718.0</ele><time>2026-04-12T10:22:18Z</time></trkpt><trkpt lat="38.99694638035977" lon="16.578145997966732"><ele>714.0</ele><time>2026-04-12T10:22:19Z</time></trkpt><trkpt lat="38.99686336985678" lon="16.578189440150926"><ele>710.0</ele><time>2026-04-12T10:22:20Z</time></trkpt><trkpt lat="38.9967757144868" lon="16.578168587144706"><ele>710.0</ele><time>2026-04-12T10:22:21Z</time></trkpt><trkpt lat="38.996690946767174" lon="16.578124611688576"><ele>710.0</ele><time>2026-04-12T10:22:22Z</time></trkpt><trkpt lat="38.99664556838505" lon="16.57799519384539"><ele>710.0</ele><time>2026-04-12T10:22:23Z</time></trkpt><trkpt lat="38.99665596454162" lon="16.57786061630076"><ele>710.0</ele><time>2026-04-12T10:22:24Z</time></trkpt><trkpt lat="38.99667482761341" lon="16.577701772733224"><ele>710.0</ele><time>2026-04-12T10:22:25Z</time></trkpt><trkpt lat="38.99668326413105" lon="16.577517601784265"><ele>715.0</ele><time>2026-04-12T10:22:26Z</time></trkpt><trkpt lat="38.99672334432934" lon="16.577355013710935"><ele>720.0</ele><time>2026-04-12T10:22:27Z</time></trkpt><trkpt lat="38.99677137014768" lon="16.577204279065743"><ele>725.0</ele><time>2026-04-12T10:22:28Z</time></trkpt><trkpt lat="38.99685984736008" lon="16.57708773341477"><ele>730.0</ele><time>2026-04-12T10:22:29Z</time></trkpt><trkpt lat="38.996990500777834" lon="16.577048915309017"><ele>730.0</ele><time>2026-04-12T10:22:30Z</time></trkpt><trkpt lat="38.99712131837666" lon="16.57704953705922"><ele>730.0</ele><time>2026-04-12T10:22:31Z</time></trkpt><trkpt lat="38.997263502828496" lon="16.577040934278468"><ele>730.0</ele><time>2026-04-12T10:22:32Z</time></trkpt><trkpt lat="38.99739718073224" lon="16.577055667603645"><ele>730.0</ele><time>2026-04-12T10:22:33.001Z</time></trkpt><trkpt lat="38.997535944170714" lon="16.577043713640325"><ele>736.25</ele><time>2026-04-12T10:22:34.001Z</time></trkpt><trkpt lat="38.997667651502475" lon="16.576987470913245"><ele>742.5</ele><time>2026-04-12T10:22:35.001Z</time></trkpt><trkpt lat="38.99779036276636" lon="16.57688153535014"><ele>748.75</ele><time>2026-04-12T10:22:36.001Z</time></trkpt><trkpt lat="38.99788315137942" lon="16.576727113121933"><ele>755.0</ele><time>2026-04-12T10:22:37.001Z</time></trkpt><trkpt lat="38.99796310171883" lon="16.576555815901777"><ele>755.0</ele><time>2026-04-12T10:22:38.001Z</time></trkpt><trkpt lat="38.998033377522624" lon="16.576379021331924"><ele>755.0</ele><time>2026-04-12T10:22:39.001Z</time></trkpt><trkpt lat="38.998109546101816" lon="16.576198880891813"><ele>755.0</ele><time>2026-04-12T10:22:40.001Z</time></trkpt><trkpt lat="38.99816958597442" lon="16.57601021492892"><ele>754.75</ele><time>2026-04-12T10:22:41.001Z</time></trkpt><trkpt lat="38.998225626412186" lon="16.575837633949924"><ele>754.5</ele><time>2026-04-12T10:22:42.001Z</time></trkpt><trkpt lat="38.998283612818575" lon="16.575692297517804"><ele>754.25</ele><time>2026-04-12T10:22:43.001Z</time></trkpt><trkpt lat="38.998351267744845" lon="16.57556575493327"><ele>754.0</ele><time>2026-04-12T10:22:44.001Z</time></trkpt><trkpt lat="38.99846010061873" lon="16.57548571188604"><ele>754.0</ele><time>2026-04-12T10:22:45.001Z</time></trkpt><trkpt lat="38.99860697672021" lon="16.575458632407713"><ele>754.0</ele><time>2026-04-12T10:22:46.001Z</time></trkpt><trkpt lat="38.998745740991225" lon="16.57547984878032"><ele>754.0</ele><time>2026-04-12T10:22:47.001Z</time></trkpt><trkpt lat="38.998869893630925" lon="16.575541398622697"><ele>754.0</ele><time>2026-04-12T10:22:48.001Z</time></trkpt><trkpt lat="38.999016096479856" lon="16.575601735653592"><ele>754.0</ele><time>2026-04-12T10:22:49.001Z</time></trkpt><trkpt lat="38.99914024083365" lon="16.575669600268878"><ele>754.0</ele><time>2026-04-12T10:22:50.001Z</time></trkpt><trkpt lat="38.99926044979262" lon="16.575717021172167"><ele>754.0</ele><time>2026-04-12T10:22:51.001Z</time></trkpt><trkpt lat="38.99937260304797" lon="16.57571780928407"><ele>754.0</ele><time>2026-04-12T10:22:52.001Z</time></trkpt><trkpt lat="38.999511819576405" lon="16.575646215161907"><ele>758.25</ele><time>2026-04-12T10:22:53.001Z</time></trkpt><trkpt lat="38.99960962487277" lon="16.575538959945593"><ele>762.5</ele><time>2026-04-12T10:22:54.001Z</time></trkpt><trkpt lat="38.99966392507225" lon="16.575409469827562"><ele>766.75</ele><time>2026-04-12T10:22:55.001Z</time></trkpt><trkpt lat="38.99963838458616" lon="16.575223380301622"><ele>771.0</ele><time>2026-04-12T10:22:56.001Z</time></trkpt><trkpt lat="38.99964479311486" lon="16.57503487801828"><ele>771.0</ele><time>2026-04-12T10:22:57.001Z</time></trkpt><trkpt lat="38.9996471453194" lon="16.57484571319646"><ele>771.0</ele><time>2026-04-12T10:22:58.001Z</time></trkpt><trkpt lat="38.99965045732167" lon="16.574681862970216"><ele>771.0</ele><time>2026-04-12T10:22:59.001Z</time></trkpt><trkpt lat="38.99967666540848" lon="16.574531416575766"><ele>771.0</ele><time>2026-04-12T10:23:00.001Z</time></trkpt><trkpt lat="38.999722224475" lon="16.574421197222865"><ele>763.75</ele><time>2026-04-12T10:23:01.001Z</time></trkpt><trkpt lat="38.99981843203964" lon="16.57440330024763"><ele>756.5</ele><time>2026-04-12T10:23:02.001Z</time></trkpt><trkpt lat="38.99996772699927" lon="16.57447906592569"><ele>749.25</ele><time>2026-04-12T10:23:03.001Z</time></trkpt><trkpt lat="39.00009972274885" lon="16.574508193618456"><ele>742.0</ele><time>2026-04-12T10:23:04.001Z</time></trkpt><trkpt lat="39.00022169906379" lon="16.574513504793728"><ele>742.0</ele><time>2026-04-12T10:23:05.001Z</time></trkpt><trkpt lat="39.00033837746585" lon="16.574456847856865"><ele>742.0</ele><time>2026-04-12T10:23:06.001Z</time></trkpt><trkpt lat="39.00045386020247" lon="16.574345257788096"><ele>742.0</ele><time>2026-04-12T10:23:07.001Z</time></trkpt><trkpt lat="39.000546456181475" lon="16.574203768807017"><ele>742.0</ele><time>2026-04-12T10:23:08.001Z</time></trkpt><trkpt lat="39.000601117528845" lon="16.574040590538644"><ele>742.0</ele><time>2026-04-12T10:23:09.001Z</time></trkpt><trkpt lat="39.0006107868863" lon="16.57384176484546"><ele>742.0</ele><time>2026-04-12T10:23:10.001Z</time></trkpt><trkpt lat="39.00061367852041" lon="16.57364559650421"><ele>742.0</ele><time>2026-04-12T10:23:11.001Z</time></trkpt><trkpt lat="39.00063335434644" lon="16.573449074552677"><ele>742.5</ele><time>2026-04-12T10:23:12.001Z</time></trkpt><trkpt lat="39.00070609515608" lon="16.573281827498807"><ele>743.0</ele><time>2026-04-12T10:23:13.001Z</time></trkpt><trkpt lat="39.00076793878095" lon="16.57311094537677"><ele>743.5</ele><time>2026-04-12T10:23:14.001Z</time></trkpt><trkpt lat="39.00079809611017" lon="16.57295218321898"><ele>744.0</ele><time>2026-04-12T10:23:15.001Z</time></trkpt><trkpt lat="39.00082799298801" lon="16.572793920163726"><ele>744.0</ele><time>2026-04-12T10:23:16.001Z</time></trkpt><trkpt lat="39.000799761681314" lon="16.57263090152112"><ele>744.0</ele><time>2026-04-12T10:23:17.001Z</time></trkpt><trkpt lat="39.000723833813744" lon="16.572497595690933"><ele>744.0</ele><time>2026-04-12T10:23:18.001Z</time></trkpt><trkpt lat="39.00060393351448" lon="16.57240177388617"><ele>744.0</ele><time>2026-04-12T10:23:19.001Z</time></trkpt><trkpt lat="39.00046107788848" lon="16.572334071077975"><ele>744.0</ele><time>2026-04-12T10:23:20.001Z</time></trkpt><trkpt lat="39.00032912304823" lon="16.572258110797936"><ele>744.0</ele><time>2026-04-12T10:23:21.001Z</time></trkpt><trkpt lat="39.000196800927434" lon="16.572157313245146"><ele>744.0</ele><time>2026-04-12T10:23:22.001Z</time></trkpt><trkpt lat="39.00007978291256" lon="16.572026269530692"><ele>756.0</ele><time>2026-04-12T10:23:23.001Z</time></trkpt><trkpt lat="38.99997884134762" lon="16.571866553817834"><ele>768.0</ele><time>2026-04-12T10:23:24.001Z</time></trkpt><trkpt lat="38.99989361857635" lon="16.571697737100624"><ele>780.0</ele><time>2026-04-12T10:23:25.001Z</time></trkpt><trkpt lat="38.99981207371485" lon="16.571527795592033"><ele>780.0</ele><time>2026-04-12T10:23:26.001Z</time></trkpt><trkpt lat="38.99973058134463" lon="16.571352798661778"><ele>780.0</ele><time>2026-04-12T10:23:27Z</time></trkpt><trkpt lat="38.9996262855983" lon="16.571211228974846"><ele>780.0</ele><time>2026-04-12T10:23:28Z</time></trkpt><trkpt lat="38.99950090030011" lon="16.571097465338255"><ele>779.0</ele><time>2026-04-12T10:23:29Z</time></trkpt><trkpt lat="38.99937828877939" lon="16.57100630438864"><ele>778.0</ele><time>2026-04-12T10:23:30Z</time></trkpt><trkpt lat="38.999271222415935" lon="16.570909747060806"><ele>777.0</ele><time>2026-04-12T10:23:31Z</time></trkpt><trkpt lat="38.999187034888145" lon="16.570811894508974"><ele>776.0</ele><time>2026-04-12T10:23:32Z</time></trkpt><trkpt lat="38.99911786597921" lon="16.57070736940038"><ele>776.0</ele><time>2026-04-12T10:23:33Z</time></trkpt><trkpt lat="38.99909831926097" lon="16.570586085631287"><ele>776.0</ele><time>2026-04-12T10:23:34Z</time></trkpt><trkpt lat="38.99914534008142" lon="16.570477494503677"><ele>776.0</ele><time>2026-04-12T10:23:35Z</time></trkpt><trkpt lat="38.99924894650679" lon="16.570378012445957"><ele>776.0</ele><time>2026-04-12T10:23:36Z</time></trkpt><trkpt lat="38.99933582490215" lon="16.57026207695144"><ele>776.0</ele><time>2026-04-12T10:23:37Z</time></trkpt><trkpt lat="38.99942007805242" lon="16.57014018237655"><ele>783.75</ele><time>2026-04-12T10:23:38Z</time></trkpt><trkpt lat="38.99952602561002" lon="16.570028176249508"><ele>791.5</ele><time>2026-04-12T10:23:39Z</time></trkpt><trkpt lat="38.99963692828222" lon="16.569941793790232"><ele>799.25</ele><time>2026-04-12T10:23:40Z</time></trkpt><trkpt lat="38.999740991253724" lon="16.569857163044706"><ele>807.0</ele><time>2026-04-12T10:23:41Z</time></trkpt><trkpt lat="38.99982876045037" lon="16.569725275433427"><ele>807.0</ele><time>2026-04-12T10:23:42Z</time></trkpt><trkpt lat="38.999873711424094" lon="16.569565327661557"><ele>807.0</ele><time>2026-04-12T10:23:43Z</time></trkpt><trkpt lat="38.999867195164434" lon="16.56939740432943"><ele>807.0</ele><time>2026-04-12T10:23:44Z</time></trkpt><trkpt lat="38.99980936796598" lon="16.569247118435282"><ele>807.0</ele><time>2026-04-12T10:23:45Z</time></trkpt><trkpt lat="38.99970378054885" lon="16.569131011353697"><ele>807.5</ele><time>2026-04-12T10:23:46Z</time></trkpt><trkpt lat="38.99961415616594" lon="16.56902355465528"><ele>808.0</ele><time>2026-04-12T10:23:47Z</time></trkpt><trkpt lat="38.999566258015975" lon="16.56890104805813"><ele>808.5</ele><time>2026-04-12T10:23:48Z</time></trkpt><trkpt lat="38.99955127388119" lon="16.568730454525046"><ele>809.0</ele><time>2026-04-12T10:23:49Z</time></trkpt><trkpt lat="38.99955492541983" lon="16.568557587877475"><ele>811.0</ele><time>2026-04-12T10:23:50Z</time></trkpt><trkpt lat="38.99957358956247" lon="16.568383402847942"><ele>813.0</ele><time>2026-04-12T10:23:51Z</time></trkpt><trkpt lat="38.999615067500116" lon="16.568225831158376"><ele>815.0</ele><time>2026-04-12T10:23:52Z</time></trkpt><trkpt lat="38.999663524032734" lon="16.568089123424404"><ele>817.0</ele><time>2026-04-12T10:23:53Z</time></trkpt><trkpt lat="38.999679615603384" lon="16.567946216878777"><ele>816.75</ele><time>2026-04-12T10:23:54Z</time></trkpt><trkpt lat="38.999653209687736" lon="16.567773185757325"><ele>816.5</ele><time>2026-04-12T10:23:55Z</time></trkpt><trkpt lat="38.99963252639059" lon="16.567587274585247"><ele>816.25</ele><time>2026-04-12T10:23:56Z</time></trkpt><trkpt lat="38.999629284069584" lon="16.567416900541502"><ele>816.0</ele><time>2026-04-12T10:23:57Z</time></trkpt><trkpt lat="38.999647408617356" lon="16.567276887308"><ele>816.0</ele><time>2026-04-12T10:23:58Z</time></trkpt><trkpt lat="38.9996967178721" lon="16.567135269052624"><ele>816.0</ele><time>2026-04-12T10:23:59Z</time></trkpt><trkpt lat="38.99972796527123" lon="16.566996985635136"><ele>816.0</ele><time>2026-04-12T10:24:00Z</time></trkpt><trkpt lat="38.99971792826173" lon="16.566858656074157"><ele>816.0</ele><time>2026-04-12T10:24:01Z</time></trkpt><trkpt lat="38.99964073899487" lon="16.56673829414747"><ele>820.0</ele><time>2026-04-12T10:24:02Z</time></trkpt><trkpt lat="38.99953782052363" lon="16.566641358073426"><ele>824.0</ele><time>2026-04-12T10:24:03Z</time></trkpt><trkpt lat="38.999423500738075" lon="16.566538906641355"><ele>828.0</ele><time>2026-04-12T10:24:04Z</time></trkpt><trkpt lat="38.999291852347305" lon="16.566475543645627"><ele>832.0</ele><time>2026-04-12T10:24:05Z</time></trkpt><trkpt lat="38.99917075360086" lon="16.566474427997328"><ele>824.75</ele><time>2026-04-12T10:24:06Z</time></trkpt><trkpt lat="38.99902888404023" lon="16.56653561298501"><ele>817.5</ele><time>2026-04-12T10:24:07Z</time></trkpt><trkpt lat="38.998900667663825" lon="16.56657095772059"><ele>810.25</ele><time>2026-04-12T10:24:08Z</time></trkpt><trkpt lat="38.9987934765544" lon="16.566607830342882"><ele>803.0</ele><time>2026-04-12T10:24:09Z</time></trkpt><trkpt lat="38.99867481689449" lon="16.56672626565437"><ele>803.0</ele><time>2026-04-12T10:24:10Z</time></trkpt><trkpt lat="38.99863755507741" lon="16.566904829648376"><ele>803.0</ele><time>2026-04-12T10:24:11Z</time></trkpt><trkpt lat="38.998535717000216" lon="16.56706326838555"><ele>803.0</ele><time>2026-04-12T10:24:12Z</time></trkpt><trkpt lat="38.998452139551986" lon="16.567175013837478"><ele>803.0</ele><time>2026-04-12T10:24:13Z</time></trkpt><trkpt lat="38.998325930093166" lon="16.567267974388912"><ele>799.75</ele><time>2026-04-12T10:24:14Z</time></trkpt><trkpt lat="38.998205940381496" lon="16.567349055453278"><ele>796.5</ele><time>2026-04-12T10:24:15Z</time></trkpt><trkpt lat="38.998094464761934" lon="16.567441718658067"><ele>793.25</ele><time>2026-04-12T10:24:16Z</time></trkpt><trkpt lat="38.99796727746719" lon="16.567489396277864"><ele>790.0</ele><time>2026-04-12T10:24:17Z</time></trkpt><trkpt lat="38.99784773239956" lon="16.56754190224911"><ele>790.0</ele><time>2026-04-12T10:24:18Z</time></trkpt><trkpt lat="38.997741457174236" lon="16.567522218424486"><ele>790.0</ele><time>2026-04-12T10:24:19Z</time></trkpt><trkpt lat="38.997686745402156" lon="16.56740073671489"><ele>790.0</ele><time>2026-04-12T10:24:20Z</time></trkpt><trkpt lat="38.997680408839166" lon="16.56724353219382"><ele>790.0</ele><time>2026-04-12T10:24:21Z</time></trkpt><trkpt lat="38.99769413846323" lon="16.567122477904668"><ele>790.0</ele><time>2026-04-12T10:24:22Z</time></trkpt><trkpt lat="38.99769727051042" lon="16.566875679927833"><ele>795.5</ele><time>2026-04-12T10:24:23Z</time></trkpt><trkpt lat="38.997704936218014" lon="16.566711500416044"><ele>801.0</ele><time>2026-04-12T10:24:24Z</time></trkpt><trkpt lat="38.99764449072904" lon="16.566583556735413"><ele>806.5</ele><time>2026-04-12T10:24:25Z</time></trkpt><trkpt lat="38.99755470452079" lon="16.56652231065416"><ele>812.0</ele><time>2026-04-12T10:24:26Z</time></trkpt><trkpt lat="38.99743479978955" lon="16.566545673311992"><ele>812.0</ele><time>2026-04-12T10:24:27Z</time></trkpt><trkpt lat="38.997249025788754" lon="16.56661973782893"><ele>812.0</ele><time>2026-04-12T10:24:28Z</time></trkpt><trkpt lat="38.99710182434312" lon="16.566715185282288"><ele>812.0</ele><time>2026-04-12T10:24:29Z</time></trkpt><trkpt lat="38.99697212215995" lon="16.566773768417434"><ele>812.0</ele><time>2026-04-12T10:24:30Z</time></trkpt><trkpt lat="38.996858704540585" lon="16.566822187473054"><ele>812.0</ele><time>2026-04-12T10:24:31Z</time></trkpt><trkpt lat="38.99672424870506" lon="16.566808298993397"><ele>812.0</ele><time>2026-04-12T10:24:32Z</time></trkpt><trkpt lat="38.996603845491485" lon="16.56673484352421"><ele>812.0</ele><time>2026-04-12T10:24:33Z</time></trkpt><trkpt lat="38.996529913997854" lon="16.566569054840567"><ele>812.0</ele><time>2026-04-12T10:24:34Z</time></trkpt><trkpt lat="38.99648775198818" lon="16.56637753713966"><ele>812.0</ele><time>2026-04-12T10:24:35Z</time></trkpt><trkpt lat="38.99649842011639" lon="16.566204874507314"><ele>812.0</ele><time>2026-04-12T10:24:36Z</time></trkpt><trkpt lat="38.99646151353434" lon="16.56607784026974"><ele>812.0</ele><time>2026-04-12T10:24:37Z</time></trkpt><trkpt lat="38.99634991294067" lon="16.56599711764945"><ele>812.0</ele><time>2026-04-12T10:24:38Z</time></trkpt><trkpt lat="38.99624063599558" lon="16.566044596237273"><ele>812.0</ele><time>2026-04-12T10:24:39Z</time></trkpt><trkpt lat="38.9961636420699" lon="16.566150889150375"><ele>812.0</ele><time>2026-04-12T10:24:40Z</time></trkpt><trkpt lat="38.99607490949278" lon="16.566320320765723"><ele>812.0</ele><time>2026-04-12T10:24:41Z</time></trkpt><trkpt lat="38.9959935462385" lon="16.56648438638402"><ele>812.0</ele><time>2026-04-12T10:24:42Z</time></trkpt><trkpt lat="38.99589865969016" lon="16.56660300266979"><ele>812.0</ele><time>2026-04-12T10:24:43Z</time></trkpt><trkpt lat="38.99580022625429" lon="16.566709793482094"><ele>812.0</ele><time>2026-04-12T10:24:44Z</time></trkpt><trkpt lat="38.99567374020203" lon="16.56680725860351"><ele>812.0</ele><time>2026-04-12T10:24:45Z</time></trkpt><trkpt lat="38.99552704064151" lon="16.566908426147688"><ele>815.3333333333334</ele><time>2026-04-12T10:24:46Z</time></trkpt><trkpt lat="38.995378037081835" lon="16.56700204141262"><ele>818.6666666666667</ele><time>2026-04-12T10:24:47Z</time></trkpt><trkpt lat="38.99522287292537" lon="16.567107401277113"><ele>822.0</ele><time>2026-04-12T10:24:48Z</time></trkpt><trkpt lat="38.99510855318301" lon="16.567240421798985"><ele>820.5</ele><time>2026-04-12T10:24:49Z</time></trkpt><trkpt lat="38.99499739412348" lon="16.567351240957983"><ele>819.0</ele><time>2026-04-12T10:24:50Z</time></trkpt><trkpt lat="38.994886435947556" lon="16.56743128153608"><ele>817.5</ele><time>2026-04-12T10:24:51Z</time></trkpt><trkpt lat="38.994763864901444" lon="16.567457522157707"><ele>816.0</ele><time>2026-04-12T10:24:52.001Z</time></trkpt><trkpt lat="38.99462191963371" lon="16.567426020636596"><ele>816.0</ele><time>2026-04-12T10:24:53.001Z</time></trkpt><trkpt lat="38.994443884876915" lon="16.567406804503054"><ele>816.0</ele><time>2026-04-12T10:24:54.001Z</time></trkpt><trkpt lat="38.99428569790604" lon="16.567364525737894"><ele>816.0</ele><time>2026-04-12T10:24:55.001Z</time></trkpt><trkpt lat="38.99412508016288" lon="16.567340674241322"><ele>817.6666666666667</ele><time>2026-04-12T10:24:56.001Z</time></trkpt><trkpt lat="38.9939684190437" lon="16.56731555347173"><ele>819.3333333333334</ele><time>2026-04-12T10:24:57.001Z</time></trkpt><trkpt lat="38.99380254664074" lon="16.567295826834016"><ele>821.0</ele><time>2026-04-12T10:24:58.001Z</time></trkpt><trkpt lat="38.99363370811322" lon="16.567293467296548"><ele>821.0</ele><time>2026-04-12T10:24:59.001Z</time></trkpt><trkpt lat="38.993470444331855" lon="16.56729089985758"><ele>821.0</ele><time>2026-04-12T10:25:00.001Z</time></trkpt><trkpt lat="38.99330211938803" lon="16.56730988146438"><ele>821.0</ele><time>2026-04-12T10:25:01.001Z</time></trkpt><trkpt lat="38.99315221874831" lon="16.567312371128548"><ele>823.25</ele><time>2026-04-12T10:25:02.001Z</time></trkpt><trkpt lat="38.993006897607664" lon="16.56730591299666"><ele>825.5</ele><time>2026-04-12T10:25:03.001Z</time></trkpt><trkpt lat="38.992857576281295" lon="16.56728719203442"><ele>827.75</ele><time>2026-04-12T10:25:04.001Z</time></trkpt><trkpt lat="38.99271136149713" lon="16.567260100307895"><ele>830.0</ele><time>2026-04-12T10:25:05.001Z</time></trkpt><trkpt lat="38.992569060216674" lon="16.56719651358601"><ele>830.0</ele><time>2026-04-12T10:25:06.001Z</time></trkpt><trkpt lat="38.99243425583211" lon="16.567106462602457"><ele>830.0</ele><time>2026-04-12T10:25:07.001Z</time></trkpt><trkpt lat="38.992301449285435" lon="16.567021224928578"><ele>830.0</ele><time>2026-04-12T10:25:08.001Z</time></trkpt><trkpt lat="38.992181676458124" lon="16.566961422884663"><ele>830.0</ele><time>2026-04-12T10:25:09.001Z</time></trkpt><trkpt lat="38.9920757917179" lon="16.566933986322482"><ele>830.0</ele><time>2026-04-12T10:25:10.001Z</time></trkpt><trkpt lat="38.99198831262165" lon="16.56695421726959"><ele>830.0</ele><time>2026-04-12T10:25:11.001Z</time></trkpt><trkpt lat="38.99189662294006" lon="16.56700462864466"><ele>830.0</ele><time>2026-04-12T10:25:12.001Z</time></trkpt><trkpt lat="38.991812913541025" lon="16.56705783533873"><ele>830.0</ele><time>2026-04-12T10:25:13.001Z</time></trkpt><trkpt lat="38.99171684268722" lon="16.567115558353716"><ele>830.0</ele><time>2026-04-12T10:25:14.001Z</time></trkpt><trkpt lat="38.991638547521426" lon="16.567195083854514"><ele>829.6</ele><time>2026-04-12T10:25:15.001Z</time></trkpt><trkpt lat="38.99155449541606" lon="16.56725100981495"><ele>829.2</ele><time>2026-04-12T10:25:16.001Z</time></trkpt><trkpt lat="38.991481326151465" lon="16.56730300785976"><ele>828.8</ele><time>2026-04-12T10:25:17.001Z</time></trkpt><trkpt lat="38.991375168551734" lon="16.56735783957503"><ele>828.4</ele><time>2026-04-12T10:25:19.001Z</time></trkpt><trkpt lat="38.99131050388437" lon="16.567372292853086"><ele>828.0</ele><time>2026-04-12T10:25:21.001Z</time></trkpt><trkpt lat="38.99121606291425" lon="16.56740462343918"><ele>828.0</ele><time>2026-04-12T10:26:13Z</time></trkpt><trkpt lat="38.99114671571354" lon="16.567423209083216"><ele>828.0</ele><time>2026-04-12T10:26:14Z</time></trkpt><trkpt lat="38.9910701357985" lon="16.567443736469045"><ele>828.0</ele><time>2026-04-12T10:26:15Z</time></trkpt><trkpt lat="38.99099076342285" lon="16.567457761337085"><ele>828.0</ele><time>2026-04-12T10:26:16Z</time></trkpt><trkpt lat="38.99090351665786" lon="16.567485579536335"><ele>828.0</ele><time>2026-04-12T10:26:17Z</time></trkpt><trkpt lat="38.990815463544216" lon="16.567520377772404"><ele>828.0</ele><time>2026-04-12T10:26:18Z</time></trkpt><trkpt lat="38.99076196953199" lon="16.5675931940021"><ele>831.0</ele><time>2026-04-12T10:26:19Z</time></trkpt><trkpt lat="38.99073075658157" lon="16.56771550695756"><ele>834.0</ele><time>2026-04-12T10:26:20Z</time></trkpt><trkpt lat="38.99074818936529" lon="16.567840973975727"><ele>837.0</ele><time>2026-04-12T10:26:21Z</time></trkpt><trkpt lat="38.99081597893746" lon="16.567966812834307"><ele>840.0</ele><time>2026-04-12T10:26:22Z</time></trkpt><trkpt lat="38.99089198831373" lon="16.568095295445392"><ele>843.0</ele><time>2026-04-12T10:26:23Z</time></trkpt><trkpt lat="38.99097201735741" lon="16.568227622794037"><ele>839.0</ele><time>2026-04-12T10:26:24Z</time></trkpt><trkpt lat="38.99100677027211" lon="16.568374090985735"><ele>835.0</ele><time>2026-04-12T10:26:25Z</time></trkpt><trkpt lat="38.9910067366276" lon="16.56852069548791"><ele>831.0</ele><time>2026-04-12T10:26:26Z</time></trkpt><trkpt lat="38.99096649785559" lon="16.568655586795664"><ele>827.0</ele><time>2026-04-12T10:26:27Z</time></trkpt><trkpt lat="38.99090048632122" lon="16.568733511901232"><ele>823.0</ele><time>2026-04-12T10:26:28Z</time></trkpt><trkpt lat="38.99078120317338" lon="16.56877113062067"><ele>823.0</ele><time>2026-04-12T10:26:29Z</time></trkpt><trkpt lat="38.99064455115344" lon="16.56874193920948"><ele>823.0</ele><time>2026-04-12T10:26:30Z</time></trkpt><trkpt lat="38.9905005235931" lon="16.568710545104263"><ele>823.0</ele><time>2026-04-12T10:26:31Z</time></trkpt><trkpt lat="38.990344581067106" lon="16.568718117867984"><ele>823.0</ele><time>2026-04-12T10:26:32Z</time></trkpt><trkpt lat="38.9902074979524" lon="16.56877232091143"><ele>823.0</ele><time>2026-04-12T10:26:33Z</time></trkpt><trkpt lat="38.990074446095086" lon="16.568795725312537"><ele>823.0</ele><time>2026-04-12T10:26:34Z</time></trkpt><trkpt lat="38.989940382790124" lon="16.568799691414192"><ele>823.0</ele><time>2026-04-12T10:26:35Z</time></trkpt><trkpt lat="38.98981067548219" lon="16.5687779392016"><ele>823.0</ele><time>2026-04-12T10:26:36Z</time></trkpt><trkpt lat="38.98970041475449" lon="16.568714449551265"><ele>823.5</ele><time>2026-04-12T10:26:37Z</time></trkpt><trkpt lat="38.989591990676146" lon="16.568656920260324"><ele>824.0</ele><time>2026-04-12T10:26:38Z</time></trkpt><trkpt lat="38.98944146764763" lon="16.568680721357293"><ele>824.5</ele><time>2026-04-12T10:26:39Z</time></trkpt><trkpt lat="38.98929067570021" lon="16.568748543432285"><ele>825.0</ele><time>2026-04-12T10:26:40Z</time></trkpt><trkpt lat="38.989166050788214" lon="16.56881076663306"><ele>826.25</ele><time>2026-04-12T10:26:41Z</time></trkpt><trkpt lat="38.98905278862275" lon="16.568868330518654"><ele>827.5</ele><time>2026-04-12T10:26:42Z</time></trkpt><trkpt lat="38.98893817719929" lon="16.5689562086546"><ele>828.75</ele><time>2026-04-12T10:26:43Z</time></trkpt><trkpt lat="38.988824398312374" lon="16.5690435080238"><ele>830.0</ele><time>2026-04-12T10:26:44Z</time></trkpt><trkpt lat="38.988742573090775" lon="16.56916202967602"><ele>830.0</ele><time>2026-04-12T10:26:45Z</time></trkpt><trkpt lat="38.98865816208274" lon="16.569239261232013"><ele>830.0</ele><time>2026-04-12T10:26:46Z</time></trkpt><trkpt lat="38.988557360157316" lon="16.569250945703303"><ele>830.0</ele><time>2026-04-12T10:26:47Z</time></trkpt><trkpt lat="38.98845563858277" lon="16.56921431441715"><ele>830.0</ele><time>2026-04-12T10:26:48Z</time></trkpt><trkpt lat="38.988336202777084" lon="16.569176120351578"><ele>830.0</ele><time>2026-04-12T10:26:49Z</time></trkpt><trkpt lat="38.98821301494117" lon="16.569176722431656"><ele>833.25</ele><time>2026-04-12T10:26:50Z</time></trkpt><trkpt lat="38.98808788752265" lon="16.5692158444772"><ele>836.5</ele><time>2026-04-12T10:26:51Z</time></trkpt><trkpt lat="38.98795480269331" lon="16.569275062642728"><ele>839.75</ele><time>2026-04-12T10:26:52Z</time></trkpt><trkpt lat="38.98780685561238" lon="16.569307771181336"><ele>843.0</ele><time>2026-04-12T10:26:53Z</time></trkpt><trkpt lat="38.98765681004294" lon="16.569309082320547"><ele>843.0</ele><time>2026-04-12T10:26:54Z</time></trkpt><trkpt lat="38.987513354754725" lon="16.56928582593536"><ele>843.0</ele><time>2026-04-12T10:26:55Z</time></trkpt><trkpt lat="38.98738132101269" lon="16.56929915441609"><ele>843.0</ele><time>2026-04-12T10:26:56Z</time></trkpt><trkpt lat="38.98725353472427" lon="16.5693799017246"><ele>843.0</ele><time>2026-04-12T10:26:57Z</time></trkpt><trkpt lat="38.987153907502154" lon="16.569525283934148"><ele>833.0</ele><time>2026-04-12T10:26:58Z</time></trkpt><trkpt lat="38.98700369204893" lon="16.569715187643325"><ele>823.0</ele><time>2026-04-12T10:26:59Z</time></trkpt><trkpt lat="38.986825962508995" lon="16.5699172982103"><ele>813.0</ele><time>2026-04-12T10:27:00Z</time></trkpt><trkpt lat="38.986683444332876" lon="16.57011759717018"><ele>815.3333333333333</ele><time>2026-04-12T10:27:01Z</time></trkpt><trkpt lat="38.98653650247112" lon="16.57033999845789"><ele>817.6666666666666</ele><time>2026-04-12T10:27:02Z</time></trkpt><trkpt lat="38.98642983141973" lon="16.570508767294875"><ele>820.0</ele><time>2026-04-12T10:27:03Z</time></trkpt><trkpt lat="38.98631865970723" lon="16.57072983027733"><ele>820.0</ele><time>2026-04-12T10:27:04Z</time></trkpt><trkpt lat="38.98619558699525" lon="16.57092998206124"><ele>820.0</ele><time>2026-04-12T10:27:05Z</time></trkpt><trkpt lat="38.98607721721793" lon="16.57110214970538"><ele>820.0</ele><time>2026-04-12T10:27:06Z</time></trkpt><trkpt lat="38.98596456516834" lon="16.57125659590682"><ele>818.0</ele><time>2026-04-12T10:27:07Z</time></trkpt><trkpt lat="38.985854742678804" lon="16.57139386881403"><ele>816.0</ele><time>2026-04-12T10:27:08Z</time></trkpt><trkpt lat="38.98574437057373" lon="16.57146908891384"><ele>814.0</ele><time>2026-04-12T10:27:09Z</time></trkpt><trkpt lat="38.985891744038" lon="16.571423149346035"><ele>812.0</ele><time>2026-04-12T10:27:10Z</time></trkpt><trkpt lat="38.985817938566164" lon="16.571491112161087"><ele>812.0</ele><time>2026-04-12T10:27:12Z</time></trkpt><trkpt lat="38.98574330687033" lon="16.57152282155653"><ele>812.0</ele><time>2026-04-12T10:27:20Z</time></trkpt><trkpt lat="38.9856085908862" lon="16.571443864332306"><ele>812.0</ele><time>2026-04-12T10:27:22Z</time></trkpt><trkpt lat="38.98554903176986" lon="16.571351949244878"><ele>812.0</ele><time>2026-04-12T10:27:23Z</time></trkpt><trkpt lat="38.98549843002517" lon="16.571207145631448"><ele>812.0</ele><time>2026-04-12T10:27:24.001Z</time></trkpt><trkpt lat="38.9854432165952" lon="16.571039583682232"><ele>816.75</ele><time>2026-04-12T10:27:25.001Z</time></trkpt><trkpt lat="38.98538001880059" lon="16.570887115996282"><ele>821.5</ele><time>2026-04-12T10:27:26.001Z</time></trkpt><trkpt lat="38.98528483281893" lon="16.570763068743187"><ele>826.25</ele><time>2026-04-12T10:27:27.001Z</time></trkpt><trkpt lat="38.98517674889417" lon="16.570650934454445"><ele>831.0</ele><time>2026-04-12T10:27:28.001Z</time></trkpt><trkpt lat="38.985088295288286" lon="16.570531758698767"><ele>828.75</ele><time>2026-04-12T10:27:29.001Z</time></trkpt><trkpt lat="38.98500847401205" lon="16.57039256141165"><ele>826.5</ele><time>2026-04-12T10:27:30.001Z</time></trkpt><trkpt lat="38.98494776301669" lon="16.570237455814468"><ele>824.25</ele><time>2026-04-12T10:27:31.001Z</time></trkpt><trkpt lat="38.98487220492856" lon="16.570075555743422"><ele>822.0</ele><time>2026-04-12T10:27:32.001Z</time></trkpt><trkpt lat="38.984772003587615" lon="16.56996426412393"><ele>822.0</ele><time>2026-04-12T10:27:33.001Z</time></trkpt><trkpt lat="38.9846486517693" lon="16.569895319899764"><ele>822.0</ele><time>2026-04-12T10:27:34.001Z</time></trkpt><trkpt lat="38.984510125472816" lon="16.569876759485258"><ele>822.0</ele><time>2026-04-12T10:27:35.001Z</time></trkpt><trkpt lat="38.98438447715078" lon="16.569871144037762"><ele>822.0</ele><time>2026-04-12T10:27:36.001Z</time></trkpt><trkpt lat="38.98426576919141" lon="16.569833059527955"><ele>822.0</ele><time>2026-04-12T10:27:37.001Z</time></trkpt><trkpt lat="38.984183239176815" lon="16.569751011404854"><ele>822.0</ele><time>2026-04-12T10:27:38.001Z</time></trkpt><trkpt lat="38.98409836331556" lon="16.569597097079786"><ele>822.0</ele><time>2026-04-12T10:27:39Z</time></trkpt><trkpt lat="38.984066232468" lon="16.5694363339168"><ele>822.0</ele><time>2026-04-12T10:27:40Z</time></trkpt><trkpt lat="38.98406519932493" lon="16.569261429852954"><ele>817.0</ele><time>2026-04-12T10:27:41Z</time></trkpt><trkpt lat="38.98409991283585" lon="16.569085105960486"><ele>812.0</ele><time>2026-04-12T10:27:42Z</time></trkpt><trkpt lat="38.984129669349606" lon="16.568888184680304"><ele>807.0</ele><time>2026-04-12T10:27:43Z</time></trkpt><trkpt lat="38.98413200359957" lon="16.568702837896186"><ele>802.0</ele><time>2026-04-12T10:27:44Z</time></trkpt><trkpt lat="38.98408704197349" lon="16.5685271072903"><ele>800.6666666666666</ele><time>2026-04-12T10:27:45Z</time></trkpt><trkpt lat="38.98399641968883" lon="16.56836982297971"><ele>799.3333333333333</ele><time>2026-04-12T10:27:46Z</time></trkpt><trkpt lat="38.9838796528226" lon="16.568233698224645"><ele>798.0</ele><time>2026-04-12T10:27:47Z</time></trkpt><trkpt lat="38.98374324413666" lon="16.568120134616116"><ele>798.0</ele><time>2026-04-12T10:27:48Z</time></trkpt><trkpt lat="38.98359812729001" lon="16.568041044151638"><ele>798.0</ele><time>2026-04-12T10:27:49Z</time></trkpt><trkpt lat="38.98346009652809" lon="16.567961419462993"><ele>798.0</ele><time>2026-04-12T10:27:50Z</time></trkpt><trkpt lat="38.98333711093243" lon="16.567860470181948"><ele>794.5</ele><time>2026-04-12T10:27:51Z</time></trkpt><trkpt lat="38.98322376896806" lon="16.567755066078334"><ele>791.0</ele><time>2026-04-12T10:27:52Z</time></trkpt><trkpt lat="38.98310387067332" lon="16.56769592586"><ele>787.5</ele><time>2026-04-12T10:27:53Z</time></trkpt><trkpt lat="38.98296876140638" lon="16.567698081010548"><ele>784.0</ele><time>2026-04-12T10:27:54Z</time></trkpt><trkpt lat="38.98284521776146" lon="16.567750540370003"><ele>784.0</ele><time>2026-04-12T10:27:55Z</time></trkpt><trkpt lat="38.98270919529649" lon="16.56784856837011"><ele>784.0</ele><time>2026-04-12T10:27:56Z</time></trkpt><trkpt lat="38.98260110915938" lon="16.56797667645273"><ele>784.0</ele><time>2026-04-12T10:27:57Z</time></trkpt><trkpt lat="38.982481330972135" lon="16.568102920684954"><ele>783.0</ele><time>2026-04-12T10:27:58Z</time></trkpt><trkpt lat="38.982340833220505" lon="16.568235603889498"><ele>782.0</ele><time>2026-04-12T10:27:59Z</time></trkpt><trkpt lat="38.982192853129604" lon="16.568321719241027"><ele>781.0</ele><time>2026-04-12T10:28:00Z</time></trkpt><trkpt lat="38.98209572279504" lon="16.568303053381328"><ele>780.0</ele><time>2026-04-12T10:28:01Z</time></trkpt><trkpt lat="38.981991069307206" lon="16.568282616922275"><ele>780.0</ele><time>2026-04-12T10:28:02Z</time></trkpt><trkpt lat="38.981920523075885" lon="16.568143702110543"><ele>780.0</ele><time>2026-04-12T10:28:03Z</time></trkpt><trkpt lat="38.981832196206575" lon="16.56797897962676"><ele>780.0</ele><time>2026-04-12T10:28:04Z</time></trkpt><trkpt lat="38.98168073347752" lon="16.567879548657878"><ele>779.4</ele><time>2026-04-12T10:28:05Z</time></trkpt><trkpt lat="38.981592535045344" lon="16.5678020263622"><ele>778.8</ele><time>2026-04-12T10:28:06Z</time></trkpt><trkpt lat="38.98151414957011" lon="16.567828550399145"><ele>778.2</ele><time>2026-04-12T10:28:07Z</time></trkpt><trkpt lat="38.98142654330097" lon="16.567889500293198"><ele>777.6</ele><time>2026-04-12T10:28:08Z</time></trkpt><trkpt lat="38.98132739825447" lon="16.567970070577022"><ele>777.0</ele><time>2026-04-12T10:28:09Z</time></trkpt><trkpt lat="38.98119610170821" lon="16.568065666656544"><ele>777.0</ele><time>2026-04-12T10:28:10Z</time></trkpt><trkpt lat="38.981105284089175" lon="16.568203790002627"><ele>777.0</ele><time>2026-04-12T10:28:11Z</time></trkpt><trkpt lat="38.98109459667876" lon="16.568346552283387"><ele>777.0</ele><time>2026-04-12T10:28:12Z</time></trkpt><trkpt lat="38.981082894781" lon="16.56846290992891"><ele>777.0</ele><time>2026-04-12T10:28:13Z</time></trkpt><trkpt lat="38.981087674073585" lon="16.568567886555353"><ele>777.0</ele><time>2026-04-12T10:28:14Z</time></trkpt><trkpt lat="38.981047463495464" lon="16.568689069606467"><ele>776.3333333333333</ele><time>2026-04-12T10:28:16Z</time></trkpt><trkpt lat="38.980868716045826" lon="16.568808793856373"><ele>775.6666666666666</ele><time>2026-04-12T10:28:18Z</time></trkpt><trkpt lat="38.98075252602486" lon="16.56887425755906"><ele>775.0</ele><time>2026-04-12T10:28:19Z</time></trkpt><trkpt lat="38.98060357358291" lon="16.568963192957685"><ele>775.0</ele><time>2026-04-12T10:28:20Z</time></trkpt><trkpt lat="38.980508937296854" lon="16.569051722225815"><ele>775.0</ele><time>2026-04-12T10:28:21Z</time></trkpt><trkpt lat="38.98041930871318" lon="16.56915504330912"><ele>775.0</ele><time>2026-04-12T10:28:22Z</time></trkpt><trkpt lat="38.980369361236114" lon="16.569298177008584"><ele>775.0</ele><time>2026-04-12T10:28:23Z</time></trkpt><trkpt lat="38.98035559236518" lon="16.56946437400505"><ele>772.25</ele><time>2026-04-12T10:28:24Z</time></trkpt><trkpt lat="38.980347487164785" lon="16.56963768229934"><ele>769.5</ele><time>2026-04-12T10:28:25Z</time></trkpt><trkpt lat="38.98032722128413" lon="16.569814008326624"><ele>766.75</ele><time>2026-04-12T10:28:26Z</time></trkpt><trkpt lat="38.980307969774714" lon="16.569963916009975"><ele>764.0</ele><time>2026-04-12T10:28:27Z</time></trkpt><trkpt lat="38.98028409619759" lon="16.570110711282354"><ele>764.0</ele><time>2026-04-12T10:28:28Z</time></trkpt><trkpt lat="38.98023840010684" lon="16.570237001142416"><ele>764.0</ele><time>2026-04-12T10:28:29Z</time></trkpt><trkpt lat="38.98015112534284" lon="16.570338296373876"><ele>764.0</ele><time>2026-04-12T10:28:30Z</time></trkpt><trkpt lat="38.98002056452205" lon="16.570397503784918"><ele>764.0</ele><time>2026-04-12T10:28:31Z</time></trkpt><trkpt lat="38.97988493375947" lon="16.570388296162832"><ele>765.5</ele><time>2026-04-12T10:28:32Z</time></trkpt><trkpt lat="38.97975481880118" lon="16.57036219287148"><ele>767.0</ele><time>2026-04-12T10:28:33Z</time></trkpt><trkpt lat="38.979647636482426" lon="16.570392493300893"><ele>768.5</ele><time>2026-04-12T10:28:34Z</time></trkpt><trkpt lat="38.979525654106034" lon="16.570483471661547"><ele>770.0</ele><time>2026-04-12T10:28:35Z</time></trkpt><trkpt lat="38.97944271071285" lon="16.57059728902372"><ele>770.0</ele><time>2026-04-12T10:28:36Z</time></trkpt><trkpt lat="38.97933998406804" lon="16.570696482310765"><ele>770.0</ele><time>2026-04-12T10:28:37Z</time></trkpt><trkpt lat="38.979237740978114" lon="16.570744712569383"><ele>770.0</ele><time>2026-04-12T10:28:38Z</time></trkpt><trkpt lat="38.979150705963995" lon="16.570769937165295"><ele>770.0</ele><time>2026-04-12T10:28:39Z</time></trkpt><trkpt lat="38.97905018161642" lon="16.57081317934637"><ele>770.0</ele><time>2026-04-12T10:28:41Z</time></trkpt><trkpt lat="38.97898559414621" lon="16.570838834466805"><ele>774.75</ele><time>2026-04-12T10:30:00Z</time></trkpt><trkpt lat="38.97886361949802" lon="16.57088741824085"><ele>779.5</ele><time>2026-04-12T10:30:02Z</time></trkpt><trkpt lat="38.97877287905089" lon="16.570942996406227"><ele>784.25</ele><time>2026-04-12T10:30:04Z</time></trkpt><trkpt lat="38.97869294956702" lon="16.571022487971913"><ele>789.0</ele><time>2026-04-12T10:30:05Z</time></trkpt><trkpt lat="38.978624916004826" lon="16.57115047832215"><ele>782.25</ele><time>2026-04-12T10:30:06Z</time></trkpt><trkpt lat="38.97859306613783" lon="16.571263071039034"><ele>775.5</ele><time>2026-04-12T10:30:07Z</time></trkpt><trkpt lat="38.97860034087885" lon="16.571405266336885"><ele>768.75</ele><time>2026-04-12T10:30:08Z</time></trkpt><trkpt lat="38.97864699616697" lon="16.571552062327623"><ele>762.0</ele><time>2026-04-12T10:30:09Z</time></trkpt><trkpt lat="38.97870909635774" lon="16.57169672039712"><ele>762.0</ele><time>2026-04-12T10:30:10Z</time></trkpt><trkpt lat="38.978783046128285" lon="16.571834722932905"><ele>762.0</ele><time>2026-04-12T10:30:11Z</time></trkpt><trkpt lat="38.97884471012743" lon="16.571978935542067"><ele>762.0</ele><time>2026-04-12T10:30:12Z</time></trkpt><trkpt lat="38.97889996643995" lon="16.57212337816163"><ele>762.0</ele><time>2026-04-12T10:30:13Z</time></trkpt><trkpt lat="38.97891940905084" lon="16.57227729909024"><ele>761.6</ele><time>2026-04-12T10:30:14Z</time></trkpt><trkpt lat="38.9789022539476" lon="16.57238751974331"><ele>761.2</ele><time>2026-04-12T10:30:15Z</time></trkpt><trkpt lat="38.97886614959036" lon="16.572498596807876"><ele>760.8</ele><time>2026-04-12T10:30:16Z</time></trkpt><trkpt lat="38.9788143044246" lon="16.572602627279544"><ele>760.4</ele><time>2026-04-12T10:30:17Z</time></trkpt><trkpt lat="38.97873128753416" lon="16.57265560106501"><ele>760.0</ele><time>2026-04-12T10:30:18Z</time></trkpt><trkpt lat="38.978617707274225" lon="16.572709213639268"><ele>760.0</ele><time>2026-04-12T10:30:19Z</time></trkpt><trkpt lat="38.97849498021552" lon="16.572770975255363"><ele>760.0</ele><time>2026-04-12T10:30:20Z</time></trkpt><trkpt lat="38.97836566444365" lon="16.572836052593463"><ele>760.0</ele><time>2026-04-12T10:30:21Z</time></trkpt><trkpt lat="38.97824287302125" lon="16.572898497131998"><ele>760.0</ele><time>2026-04-12T10:30:22Z</time></trkpt><trkpt lat="38.97813088551183" lon="16.572977529216338"><ele>765.5</ele><time>2026-04-12T10:30:23Z</time></trkpt><trkpt lat="38.978034814975615" lon="16.573049390916076"><ele>771.0</ele><time>2026-04-12T10:30:24Z</time></trkpt><trkpt lat="38.9779791003903" lon="16.573183619506864"><ele>776.5</ele><time>2026-04-12T10:30:25Z</time></trkpt><trkpt lat="38.978033516297764" lon="16.573364224186253"><ele>782.0</ele><time>2026-04-12T10:30:26Z</time></trkpt><trkpt lat="38.97811504842494" lon="16.573496198483205"><ele>782.0</ele><time>2026-04-12T10:30:27Z</time></trkpt><trkpt lat="38.97826919270356" lon="16.573590188165785"><ele>782.0</ele><time>2026-04-12T10:30:28Z</time></trkpt><trkpt lat="38.97836307783169" lon="16.573672611871626"><ele>782.0</ele><time>2026-04-12T10:30:29Z</time></trkpt><trkpt lat="38.97844108828531" lon="16.57373809122684"><ele>782.0</ele><time>2026-04-12T10:30:30Z</time></trkpt><trkpt lat="38.97845682117306" lon="16.573831326148355"><ele>771.25</ele><time>2026-04-12T10:30:31Z</time></trkpt><trkpt lat="38.978448801735" lon="16.57397106950416"><ele>760.5</ele><time>2026-04-12T10:30:32Z</time></trkpt><trkpt lat="38.9784632039694" lon="16.57413510367382"><ele>749.75</ele><time>2026-04-12T10:30:33Z</time></trkpt><trkpt lat="38.97841569814262" lon="16.574272406008234"><ele>739.0</ele><time>2026-04-12T10:30:34Z</time></trkpt><trkpt lat="38.97838872610655" lon="16.574418702585234"><ele>742.0</ele><time>2026-04-12T10:30:35Z</time></trkpt><trkpt lat="38.978444875985524" lon="16.57458187865422"><ele>745.0</ele><time>2026-04-12T10:30:36Z</time></trkpt><trkpt lat="38.97851463317643" lon="16.57472462009542"><ele>748.0</ele><time>2026-04-12T10:30:37Z</time></trkpt><trkpt lat="38.978621880893975" lon="16.574841534009845"><ele>751.0</ele><time>2026-04-12T10:30:38Z</time></trkpt><trkpt lat="38.97874862457011" lon="16.57493898406848"><ele>751.0</ele><time>2026-04-12T10:30:39Z</time></trkpt><trkpt lat="38.978804060113106" lon="16.575069019170478"><ele>751.0</ele><time>2026-04-12T10:30:40Z</time></trkpt><trkpt lat="38.978818942443844" lon="16.575228803313227"><ele>751.0</ele><time>2026-04-12T10:30:41Z</time></trkpt><trkpt lat="38.97873170151474" lon="16.5753402974472"><ele>751.0</ele><time>2026-04-12T10:30:42Z</time></trkpt><trkpt lat="38.97865889269345" lon="16.575487754714498"><ele>746.0</ele><time>2026-04-12T10:30:43Z</time></trkpt><trkpt lat="38.9785768326394" lon="16.575637378621003"><ele>741.0</ele><time>2026-04-12T10:30:44Z</time></trkpt><trkpt lat="38.97847304999514" lon="16.5757928556961"><ele>736.0</ele><time>2026-04-12T10:30:45Z</time></trkpt><trkpt lat="38.978359482532355" lon="16.57591736988443"><ele>744.0</ele><time>2026-04-12T10:30:46Z</time></trkpt><trkpt lat="38.978274902960585" lon="16.576065983753956"><ele>752.0</ele><time>2026-04-12T10:30:47Z</time></trkpt><trkpt lat="38.97827564203696" lon="16.576243990816327"><ele>760.0</ele><time>2026-04-12T10:30:48Z</time></trkpt><trkpt lat="38.97825915995532" lon="16.576424470605417"><ele>768.0</ele><time>2026-04-12T10:30:49Z</time></trkpt><trkpt lat="38.97826228788141" lon="16.576591814414165"><ele>768.0</ele><time>2026-04-12T10:30:50Z</time></trkpt><trkpt lat="38.97826005215395" lon="16.5767493754781"><ele>768.0</ele><time>2026-04-12T10:30:51Z</time></trkpt><trkpt lat="38.978255910195024" lon="16.5768958994522"><ele>768.0</ele><time>2026-04-12T10:30:52Z</time></trkpt><trkpt lat="38.97823193764129" lon="16.577067474586247"><ele>768.0</ele><time>2026-04-12T10:30:53Z</time></trkpt><trkpt lat="38.9781867419062" lon="16.577186358095346"><ele>763.0</ele><time>2026-04-12T10:30:54Z</time></trkpt><trkpt lat="38.97810342872264" lon="16.577229499071436"><ele>758.0</ele><time>2026-04-12T10:30:55Z</time></trkpt><trkpt lat="38.97796292823442" lon="16.5772679985501"><ele>753.0</ele><time>2026-04-12T10:30:56Z</time></trkpt><trkpt lat="38.97781585539175" lon="16.57735269688742"><ele>748.0</ele><time>2026-04-12T10:30:57Z</time></trkpt><trkpt lat="38.977683879519155" lon="16.577404157315577"><ele>748.0</ele><time>2026-04-12T10:30:58Z</time></trkpt><trkpt lat="38.97757189623533" lon="16.577385966178028"><ele>748.0</ele><time>2026-04-12T10:30:59Z</time></trkpt><trkpt lat="38.97745320016017" lon="16.577313571946682"><ele>748.0</ele><time>2026-04-12T10:31:00Z</time></trkpt><trkpt lat="38.977319810212485" lon="16.577233966260394"><ele>748.0</ele><time>2026-04-12T10:31:01Z</time></trkpt><trkpt lat="38.97714081961718" lon="16.577280145927844"><ele>748.75</ele><time>2026-04-12T10:31:03Z</time></trkpt><trkpt lat="38.97705067477209" lon="16.57737832219098"><ele>749.5</ele><time>2026-04-12T10:31:04Z</time></trkpt><trkpt lat="38.977077607866065" lon="16.577589769996134"><ele>750.25</ele><time>2026-04-12T10:31:05Z</time></trkpt><trkpt lat="38.977120362733935" lon="16.577715549658627"><ele>751.0</ele><time>2026-04-12T10:31:06Z</time></trkpt><trkpt lat="38.97716514087334" lon="16.57797055316534"><ele>751.0</ele><time>2026-04-12T10:31:07Z</time></trkpt><trkpt lat="38.97723946595831" lon="16.578140269397153"><ele>751.0</ele><time>2026-04-12T10:31:08Z</time></trkpt><trkpt lat="38.977322424354846" lon="16.57825419683119"><ele>751.0</ele><time>2026-04-12T10:31:09Z</time></trkpt><trkpt lat="38.977364765901584" lon="16.578402359521224"><ele>751.0</ele><time>2026-04-12T10:31:10Z</time></trkpt><trkpt lat="38.977387605247586" lon="16.578536039344456"><ele>751.0</ele><time>2026-04-12T10:31:11Z</time></trkpt><trkpt lat="38.97730406342183" lon="16.578641521965707"><ele>751.0</ele><time>2026-04-12T10:31:12Z</time></trkpt><trkpt lat="38.97721167089986" lon="16.578730738008314"><ele>751.0</ele><time>2026-04-12T10:31:13Z</time></trkpt><trkpt lat="38.97708661333893" lon="16.578854040753832"><ele>751.0</ele><time>2026-04-12T10:31:14Z</time></trkpt><trkpt lat="38.97698203695432" lon="16.57895468965128"><ele>749.5</ele><time>2026-04-12T10:31:15Z</time></trkpt><trkpt lat="38.97686052013455" lon="16.57906207538058"><ele>748.0</ele><time>2026-04-12T10:31:16Z</time></trkpt><trkpt lat="38.97676421612551" lon="16.579136118280168"><ele>746.5</ele><time>2026-04-12T10:31:17Z</time></trkpt><trkpt lat="38.97665687684156" lon="16.579203965974788"><ele>745.0</ele><time>2026-04-12T10:31:18Z</time></trkpt><trkpt lat="38.97653603766357" lon="16.57920237804372"><ele>745.0</ele><time>2026-04-12T10:31:19Z</time></trkpt><trkpt lat="38.976417472779566" lon="16.57916574733559"><ele>745.0</ele><time>2026-04-12T10:31:20Z</time></trkpt><trkpt lat="38.97629902587315" lon="16.579093534639632"><ele>745.0</ele><time>2026-04-12T10:31:21Z</time></trkpt><trkpt lat="38.97615315903144" lon="16.57903680155776"><ele>745.0</ele><time>2026-04-12T10:31:22Z</time></trkpt><trkpt lat="38.97602067752927" lon="16.578980626091802"><ele>745.0</ele><time>2026-04-12T10:31:23Z</time></trkpt><trkpt lat="38.9759059959426" lon="16.57889135682869"><ele>745.0</ele><time>2026-04-12T10:31:24Z</time></trkpt><trkpt lat="38.975806485423014" lon="16.578804520706566"><ele>745.0</ele><time>2026-04-12T10:31:25Z</time></trkpt><trkpt lat="38.97573089591414" lon="16.578688282715675"><ele>745.0</ele><time>2026-04-12T10:31:26Z</time></trkpt><trkpt lat="38.975641704581705" lon="16.578590631460212"><ele>752.5</ele><time>2026-04-12T10:31:27Z</time></trkpt><trkpt lat="38.97551121097648" lon="16.57852927749591"><ele>760.0</ele><time>2026-04-12T10:31:28Z</time></trkpt><trkpt lat="38.975377816622974" lon="16.578484638345717"><ele>767.5</ele><time>2026-04-12T10:31:29Z</time></trkpt><trkpt lat="38.97524562977971" lon="16.578545498378215"><ele>775.0</ele><time>2026-04-12T10:31:30Z</time></trkpt><trkpt lat="38.975096989212936" lon="16.578614647548587"><ele>768.0</ele><time>2026-04-12T10:31:31Z</time></trkpt><trkpt lat="38.97498211070198" lon="16.578726980366827"><ele>761.0</ele><time>2026-04-12T10:31:32Z</time></trkpt><trkpt lat="38.974916048495466" lon="16.578886241708485"><ele>754.0</ele><time>2026-04-12T10:31:33Z</time></trkpt><trkpt lat="38.974882767740624" lon="16.579072325558982"><ele>747.0</ele><time>2026-04-12T10:31:34Z</time></trkpt><trkpt lat="38.9748447843212" lon="16.579266344292968"><ele>747.0</ele><time>2026-04-12T10:31:35Z</time></trkpt><trkpt lat="38.97475368579992" lon="16.5794311023552"><ele>747.0</ele><time>2026-04-12T10:31:36Z</time></trkpt><trkpt lat="38.97469427622309" lon="16.579585984402875"><ele>747.0</ele><time>2026-04-12T10:31:37Z</time></trkpt><trkpt lat="38.97469471896743" lon="16.57977246857777"><ele>747.0</ele><time>2026-04-12T10:31:38Z</time></trkpt><trkpt lat="38.97475497665053" lon="16.579959861062658"><ele>744.3333333333334</ele><time>2026-04-12T10:31:39Z</time></trkpt><trkpt lat="38.97485048656657" lon="16.580133489706913"><ele>741.6666666666667</ele><time>2026-04-12T10:31:40Z</time></trkpt><trkpt lat="38.97492068211771" lon="16.580308918790905"><ele>739.0</ele><time>2026-04-12T10:31:41Z</time></trkpt><trkpt lat="38.97496323888939" lon="16.580493487930642"><ele>739.0</ele><time>2026-04-12T10:31:42Z</time></trkpt><trkpt lat="38.97497815069474" lon="16.580689300609702"><ele>739.0</ele><time>2026-04-12T10:31:43Z</time></trkpt><trkpt lat="38.974994773421024" lon="16.580897751420814"><ele>739.0</ele><time>2026-04-12T10:31:44Z</time></trkpt><trkpt lat="38.97500304131457" lon="16.581070024390144"><ele>736.75</ele><time>2026-04-12T10:31:45Z</time></trkpt><trkpt lat="38.975028232348855" lon="16.581254725820276"><ele>734.5</ele><time>2026-04-12T10:31:46Z</time></trkpt><trkpt lat="38.975053801718644" lon="16.581407043343795"><ele>732.25</ele><time>2026-04-12T10:31:47Z</time></trkpt><trkpt lat="38.97503244184938" lon="16.581543015926105"><ele>730.0</ele><time>2026-04-12T10:31:48Z</time></trkpt><trkpt lat="38.97496116500393" lon="16.581638287556967"><ele>730.0</ele><time>2026-04-12T10:31:49Z</time></trkpt><trkpt lat="38.97486772653028" lon="16.58166499147544"><ele>730.0</ele><time>2026-04-12T10:31:50Z</time></trkpt><trkpt lat="38.974734586123226" lon="16.581728610637725"><ele>730.0</ele><time>2026-04-12T10:31:51Z</time></trkpt><trkpt lat="38.97463359755252" lon="16.581863594399938"><ele>730.0</ele><time>2026-04-12T10:31:52Z</time></trkpt><trkpt lat="38.974590862576115" lon="16.582017979949978"><ele>726.75</ele><time>2026-04-12T10:31:53Z</time></trkpt><trkpt lat="38.97459827339795" lon="16.582189443586728"><ele>723.5</ele><time>2026-04-12T10:31:54Z</time></trkpt><trkpt lat="38.97463424292709" lon="16.582365181183906"><ele>720.25</ele><time>2026-04-12T10:31:55Z</time></trkpt><trkpt lat="38.97466638113038" lon="16.58253574765967"><ele>717.0</ele><time>2026-04-12T10:31:56Z</time></trkpt><trkpt lat="38.97469671421593" lon="16.582697118178984"><ele>719.5</ele><time>2026-04-12T10:31:57Z</time></trkpt><trkpt lat="38.974730848453916" lon="16.582860503231654"><ele>722.0</ele><time>2026-04-12T10:31:58Z</time></trkpt><trkpt lat="38.97481179891355" lon="16.58298807591893"><ele>724.5</ele><time>2026-04-12T10:31:59Z</time></trkpt><trkpt lat="38.97491449019047" lon="16.58306760290859"><ele>727.0</ele><time>2026-04-12T10:32:00Z</time></trkpt><trkpt lat="38.975053698875975" lon="16.583065697645228"><ele>716.5</ele><time>2026-04-12T10:32:01Z</time></trkpt><trkpt lat="38.975177721097374" lon="16.583117827850362"><ele>706.0</ele><time>2026-04-12T10:32:02Z</time></trkpt><trkpt lat="38.97524535638841" lon="16.583237259648353"><ele>695.5</ele><time>2026-04-12T10:32:03Z</time></trkpt><trkpt lat="38.97530697385311" lon="16.583354537057524"><ele>685.0</ele><time>2026-04-12T10:32:04Z</time></trkpt><trkpt lat="38.97534536361021" lon="16.583514245701757"><ele>685.0</ele><time>2026-04-12T10:32:05Z</time></trkpt><trkpt lat="38.97532219526934" lon="16.58361679384258"><ele>685.0</ele><time>2026-04-12T10:32:06Z</time></trkpt><trkpt lat="38.97523314751386" lon="16.583728791765974"><ele>685.0</ele><time>2026-04-12T10:32:07Z</time></trkpt><trkpt lat="38.97513083965924" lon="16.583851375960478"><ele>685.0</ele><time>2026-04-12T10:32:08Z</time></trkpt><trkpt lat="38.975028186668396" lon="16.583937563572814"><ele>691.25</ele><time>2026-04-12T10:32:09Z</time></trkpt><trkpt lat="38.97495079788416" lon="16.584081780173765"><ele>697.5</ele><time>2026-04-12T10:32:10Z</time></trkpt><trkpt lat="38.974910708920724" lon="16.584254729198452"><ele>703.75</ele><time>2026-04-12T10:32:11Z</time></trkpt><trkpt lat="38.9748945131947" lon="16.584426110740804"><ele>710.0</ele><time>2026-04-12T10:32:12Z</time></trkpt><trkpt lat="38.97487344228644" lon="16.584622049735586"><ele>710.0</ele><time>2026-04-12T10:32:13Z</time></trkpt><trkpt lat="38.974872358606426" lon="16.584761633901962"><ele>710.0</ele><time>2026-04-12T10:32:14Z</time></trkpt><trkpt lat="38.974862632886534" lon="16.584917566025936"><ele>710.0</ele><time>2026-04-12T10:32:15Z</time></trkpt><trkpt lat="38.974839590328116" lon="16.58507925072815"><ele>710.0</ele><time>2026-04-12T10:32:16Z</time></trkpt><trkpt lat="38.97483173093332" lon="16.585219025356004"><ele>710.0</ele><time>2026-04-12T10:32:17Z</time></trkpt><trkpt lat="38.97481851779253" lon="16.585336786118734"><ele>710.0</ele><time>2026-04-12T10:32:18Z</time></trkpt><trkpt lat="38.97480510295009" lon="16.585440074398242"><ele>710.0</ele><time>2026-04-12T10:32:19Z</time></trkpt><trkpt lat="38.974781816905704" lon="16.58552612160235"><ele>710.0</ele><time>2026-04-12T10:32:20Z</time></trkpt><trkpt lat="38.974739839060724" lon="16.585597249321616"><ele>710.0</ele><time>2026-04-12T10:32:21Z</time></trkpt><trkpt lat="38.97468605167778" lon="16.585648948229608"><ele>710.0</ele><time>2026-04-12T10:32:22Z</time></trkpt><trkpt lat="38.97461944891876" lon="16.58566610624186"><ele>710.0</ele><time>2026-04-12T10:32:23Z</time></trkpt><trkpt lat="38.974515399603696" lon="16.585703745146805"><ele>710.0</ele><time>2026-04-12T10:32:25Z</time></trkpt><trkpt lat="38.97443256349281" lon="16.585614042167137"><ele>710.0</ele><time>2026-04-12T10:32:26Z</time></trkpt><trkpt lat="38.974336112553885" lon="16.585505219962446"><ele>710.0</ele><time>2026-04-12T10:32:28Z</time></trkpt><trkpt lat="38.97428425805954" lon="16.58538531958439"><ele>710.0</ele><time>2026-04-12T10:32:30Z</time></trkpt><trkpt lat="38.974234585708835" lon="16.585291965168945"><ele>710.0</ele><time>2026-04-12T10:32:32Z</time></trkpt><trkpt lat="38.97418578725148" lon="16.58522173510524"><ele>712.6</ele><time>2026-04-12T10:32:35Z</time></trkpt><trkpt lat="38.97413930179326" lon="16.58513769841585"><ele>715.2</ele><time>2026-04-12T10:32:39Z</time></trkpt><trkpt lat="38.97407530303326" lon="16.58507923868285"><ele>717.8</ele><time>2026-04-12T10:32:46Z</time></trkpt><trkpt lat="38.97399911266355" lon="16.585027247556443"><ele>720.4</ele><time>2026-04-12T10:32:48Z</time></trkpt><trkpt lat="38.97390082305874" lon="16.584958540171346"><ele>723.0</ele><time>2026-04-12T10:32:50Z</time></trkpt><trkpt lat="38.97378159491749" lon="16.58488038274358"><ele>723.0</ele><time>2026-04-12T10:32:52Z</time></trkpt><trkpt lat="38.97370112614436" lon="16.584809509568842"><ele>723.0</ele><time>2026-04-12T10:32:53Z</time></trkpt><trkpt lat="38.9736060122292" lon="16.584774726336583"><ele>723.0</ele><time>2026-04-12T10:32:54Z</time></trkpt><trkpt lat="38.97350747791362" lon="16.584758079025903"><ele>723.0</ele><time>2026-04-12T10:32:55Z</time></trkpt><trkpt lat="38.9734150493763" lon="16.58478775848843"><ele>723.0</ele><time>2026-04-12T10:32:56Z</time></trkpt><trkpt lat="38.97331843286983" lon="16.584804091369612"><ele>719.0</ele><time>2026-04-12T10:32:57Z</time></trkpt><trkpt lat="38.97317581085766" lon="16.584861929995384"><ele>715.0</ele><time>2026-04-12T10:32:58Z</time></trkpt><trkpt lat="38.973062093763886" lon="16.58484739338642"><ele>711.0</ele><time>2026-04-12T10:32:59Z</time></trkpt><trkpt lat="38.97293159232245" lon="16.58480572500537"><ele>707.0</ele><time>2026-04-12T10:33:00Z</time></trkpt><trkpt lat="38.972787840321686" lon="16.584789640739018"><ele>707.0</ele><time>2026-04-12T10:33:01Z</time></trkpt><trkpt lat="38.97264845877535" lon="16.58478556764271"><ele>707.0</ele><time>2026-04-12T10:33:02Z</time></trkpt><trkpt lat="38.9725164570975" lon="16.584792888578384"><ele>707.0</ele><time>2026-04-12T10:33:03Z</time></trkpt><trkpt lat="38.972388196041244" lon="16.58479881852126"><ele>707.0</ele><time>2026-04-12T10:33:04Z</time></trkpt><trkpt lat="38.97226551104699" lon="16.584805332048983"><ele>705.0</ele><time>2026-04-12T10:33:05Z</time></trkpt><trkpt lat="38.97214912221205" lon="16.584813840659116"><ele>703.0</ele><time>2026-04-12T10:33:06Z</time></trkpt><trkpt lat="38.972024511409394" lon="16.58485808496214"><ele>701.0</ele><time>2026-04-12T10:33:07Z</time></trkpt><trkpt lat="38.97193190000235" lon="16.584943136961854"><ele>699.0</ele><time>2026-04-12T10:33:08Z</time></trkpt><trkpt lat="38.971877629321185" lon="16.585090671879076"><ele>699.0</ele><time>2026-04-12T10:33:09Z</time></trkpt><trkpt lat="38.97186726097978" lon="16.585265602963702"><ele>699.0</ele><time>2026-04-12T10:33:10Z</time></trkpt><trkpt lat="38.971873128240176" lon="16.58543706881224"><ele>699.0</ele><time>2026-04-12T10:33:11Z</time></trkpt><trkpt lat="38.971866589932205" lon="16.585584833280237"><ele>699.0</ele><time>2026-04-12T10:33:12Z</time></trkpt><trkpt lat="38.971816908789144" lon="16.585699398969414"><ele>697.5</ele><time>2026-04-12T10:33:13Z</time></trkpt><trkpt lat="38.971719919266825" lon="16.58573368823636"><ele>696.0</ele><time>2026-04-12T10:33:14Z</time></trkpt><trkpt lat="38.971620662709924" lon="16.585723454563126"><ele>694.5</ele><time>2026-04-12T10:33:15Z</time></trkpt><trkpt lat="38.971521614809575" lon="16.585653546830315"><ele>693.0</ele><time>2026-04-12T10:33:16Z</time></trkpt><trkpt lat="38.97138789547869" lon="16.585588396813215"><ele>693.0</ele><time>2026-04-12T10:33:17Z</time></trkpt><trkpt lat="38.97127909847224" lon="16.58549865454403"><ele>693.0</ele><time>2026-04-12T10:33:18Z</time></trkpt><trkpt lat="38.97119225633593" lon="16.58540974102976"><ele>693.0</ele><time>2026-04-12T10:33:19Z</time></trkpt><trkpt lat="38.97104199264427" lon="16.585354492529532"><ele>693.0</ele><time>2026-04-12T10:33:20Z</time></trkpt><trkpt lat="38.97089669250775" lon="16.585313324477593"><ele>694.25</ele><time>2026-04-12T10:33:21Z</time></trkpt><trkpt lat="38.9707606324528" lon="16.58530351014835"><ele>695.5</ele><time>2026-04-12T10:33:22Z</time></trkpt><trkpt lat="38.97063994745884" lon="16.58531767439816"><ele>696.75</ele><time>2026-04-12T10:33:23Z</time></trkpt><trkpt lat="38.97053499991305" lon="16.58539205084731"><ele>698.0</ele><time>2026-04-12T10:33:24Z</time></trkpt><trkpt lat="38.97046204614308" lon="16.585547820359956"><ele>698.0</ele><time>2026-04-12T10:33:25Z</time></trkpt><trkpt lat="38.97042065721154" lon="16.585724200461552"><ele>698.0</ele><time>2026-04-12T10:33:26Z</time></trkpt><trkpt lat="38.97040186216438" lon="16.58591438937742"><ele>698.0</ele><time>2026-04-12T10:33:27Z</time></trkpt><trkpt lat="38.97039317473939" lon="16.586115397758785"><ele>698.0</ele><time>2026-04-12T10:33:28Z</time></trkpt><trkpt lat="38.970391609408814" lon="16.586278940962675"><ele>692.75</ele><time>2026-04-12T10:33:29Z</time></trkpt><trkpt lat="38.9704065354902" lon="16.5864495918917"><ele>687.5</ele><time>2026-04-12T10:33:30Z</time></trkpt><trkpt lat="38.9703634737083" lon="16.58658854334397"><ele>682.25</ele><time>2026-04-12T10:33:31Z</time></trkpt><trkpt lat="38.97025740357046" lon="16.586666082430316"><ele>677.0</ele><time>2026-04-12T10:33:32Z</time></trkpt><trkpt lat="38.9701405858181" lon="16.58674295108038"><ele>677.0</ele><time>2026-04-12T10:33:33Z</time></trkpt><trkpt lat="38.97002979599731" lon="16.58679674919536"><ele>677.0</ele><time>2026-04-12T10:33:34Z</time></trkpt><trkpt lat="38.96992893609574" lon="16.58680594771026"><ele>677.0</ele><time>2026-04-12T10:33:35Z</time></trkpt><trkpt lat="38.96983515926909" lon="16.586711362162013"><ele>677.0</ele><time>2026-04-12T10:33:36Z</time></trkpt><trkpt lat="38.96971742488383" lon="16.58668532857792"><ele>686.6666666666666</ele><time>2026-04-12T10:33:37Z</time></trkpt><trkpt lat="38.96955499389474" lon="16.5867447911319"><ele>696.3333333333334</ele><time>2026-04-12T10:33:38Z</time></trkpt><trkpt lat="38.96941441709659" lon="16.586812264222917"><ele>706.0</ele><time>2026-04-12T10:33:39Z</time></trkpt><trkpt lat="38.969271710107655" lon="16.58684828626718"><ele>709.5</ele><time>2026-04-12T10:33:40Z</time></trkpt><trkpt lat="38.96914011325647" lon="16.586901785487477"><ele>713.0</ele><time>2026-04-12T10:33:41Z</time></trkpt><trkpt lat="38.96901895042137" lon="16.586977895677382"><ele>716.5</ele><time>2026-04-12T10:33:42Z</time></trkpt><trkpt lat="38.96889132987699" lon="16.58700877912208"><ele>720.0</ele><time>2026-04-12T10:33:43Z</time></trkpt><trkpt lat="38.968777483437606" lon="16.587005580443265"><ele>720.0</ele><time>2026-04-12T10:33:44Z</time></trkpt><trkpt lat="38.96864656074932" lon="16.586942058649583"><ele>720.0</ele><time>2026-04-12T10:33:45Z</time></trkpt><trkpt lat="38.968500240975004" lon="16.586859674745035"><ele>720.0</ele><time>2026-04-12T10:33:46Z</time></trkpt><trkpt lat="38.968358972114004" lon="16.58678291928071"><ele>718.0</ele><time>2026-04-12T10:33:47Z</time></trkpt><trkpt lat="38.96821981415824" lon="16.5867394675983"><ele>716.0</ele><time>2026-04-12T10:33:48Z</time></trkpt><trkpt lat="38.96807317296867" lon="16.586719178091222"><ele>714.0</ele><time>2026-04-12T10:33:49Z</time></trkpt><trkpt lat="38.96792237328814" lon="16.586743584721756"><ele>712.0</ele><time>2026-04-12T10:33:50Z</time></trkpt><trkpt lat="38.96776330712572" lon="16.586791008002912"><ele>712.0</ele><time>2026-04-12T10:33:51Z</time></trkpt><trkpt lat="38.96761439690669" lon="16.586823325881873"><ele>712.0</ele><time>2026-04-12T10:33:52Z</time></trkpt><trkpt lat="38.96748082855654" lon="16.58685868704989"><ele>712.0</ele><time>2026-04-12T10:33:53Z</time></trkpt><trkpt lat="38.967345466737285" lon="16.586941930127896"><ele>712.0</ele><time>2026-04-12T10:33:54Z</time></trkpt><trkpt lat="38.96722137181959" lon="16.58704904219533"><ele>696.3333333333334</ele><time>2026-04-12T10:33:55Z</time></trkpt><trkpt lat="38.9671120140413" lon="16.587244180531272"><ele>680.6666666666666</ele><time>2026-04-12T10:33:56Z</time></trkpt><trkpt lat="38.9670022792927" lon="16.587325539579737"><ele>665.0</ele><time>2026-04-12T10:33:57Z</time></trkpt><trkpt lat="38.966889594132496" lon="16.587432819135742"><ele>665.0</ele><time>2026-04-12T10:33:58Z</time></trkpt><trkpt lat="38.96676061211316" lon="16.587579857614756"><ele>665.0</ele><time>2026-04-12T10:33:59Z</time></trkpt><trkpt lat="38.966634621194416" lon="16.587736556862456"><ele>665.0</ele><time>2026-04-12T10:34:00Z</time></trkpt><trkpt lat="38.966513741629406" lon="16.587895215704965"><ele>664.3333333333333</ele><time>2026-04-12T10:34:01Z</time></trkpt><trkpt lat="38.9663981658247" lon="16.58807698660368"><ele>663.6666666666666</ele><time>2026-04-12T10:34:02Z</time></trkpt><trkpt lat="38.96632014096951" lon="16.588248225239127"><ele>663.0</ele><time>2026-04-12T10:34:03Z</time></trkpt><trkpt lat="38.96625583884417" lon="16.588438821508312"><ele>663.0</ele><time>2026-04-12T10:34:04Z</time></trkpt><trkpt lat="38.9662177407799" lon="16.588622760629175"><ele>663.0</ele><time>2026-04-12T10:34:05Z</time></trkpt><trkpt lat="38.9661702765383" lon="16.588804248939105"><ele>663.0</ele><time>2026-04-12T10:34:06Z</time></trkpt><trkpt lat="38.966114017851424" lon="16.588950083170513"><ele>663.0</ele><time>2026-04-12T10:34:07Z</time></trkpt><trkpt lat="38.96606142664753" lon="16.589051336830135"><ele>664.0</ele><time>2026-04-12T10:34:08Z</time></trkpt><trkpt lat="38.965994474004276" lon="16.589127809030074"><ele>665.0</ele><time>2026-04-12T10:34:09Z</time></trkpt><trkpt lat="38.965872726261395" lon="16.589165343626977"><ele>666.0</ele><time>2026-04-12T10:34:10Z</time></trkpt><trkpt lat="38.96576957769739" lon="16.58907414228005"><ele>667.0</ele><time>2026-04-12T10:34:11Z</time></trkpt><trkpt lat="38.96566616883713" lon="16.589020128741907"><ele>667.0</ele><time>2026-04-12T10:34:12Z</time></trkpt><trkpt lat="38.965525323766556" lon="16.58893678289414"><ele>667.0</ele><time>2026-04-12T10:34:13Z</time></trkpt><trkpt lat="38.965410870371926" lon="16.588850344661857"><ele>667.0</ele><time>2026-04-12T10:34:14Z</time></trkpt><trkpt lat="38.96530526986392" lon="16.588763068410803"><ele>667.0</ele><time>2026-04-12T10:34:15Z</time></trkpt><trkpt lat="38.96519208079741" lon="16.588780881890663"><ele>667.0</ele><time>2026-04-12T10:34:16Z</time></trkpt><trkpt lat="38.96509745175045" lon="16.588829889349693"><ele>667.0</ele><time>2026-04-12T10:34:17Z</time></trkpt><trkpt lat="38.96500037398968" lon="16.588926558555826"><ele>667.0</ele><time>2026-04-12T10:34:18Z</time></trkpt><trkpt lat="38.96491846343392" lon="16.589034622326043"><ele>667.0</ele><time>2026-04-12T10:34:19Z</time></trkpt><trkpt lat="38.964831117340175" lon="16.58916494571252"><ele>666.4000000000001</ele><time>2026-04-12T10:34:20Z</time></trkpt><trkpt lat="38.96474388383722" lon="16.58929286587457"><ele>665.8000000000001</ele><time>2026-04-12T10:34:21Z</time></trkpt><trkpt lat="38.96469061812302" lon="16.589437922505677"><ele>665.2</ele><time>2026-04-12T10:34:22Z</time></trkpt><trkpt lat="38.964637017731995" lon="16.58953393782262"><ele>664.6</ele><time>2026-04-12T10:34:23Z</time></trkpt><trkpt lat="38.96456680008932" lon="16.589599091245283"><ele>664.0</ele><time>2026-04-12T10:34:24Z</time></trkpt><trkpt lat="38.96446729777218" lon="16.589586894122824"><ele>664.0</ele><time>2026-04-12T10:34:25Z</time></trkpt><trkpt lat="38.9643892004609" lon="16.5894928134222"><ele>664.0</ele><time>2026-04-12T10:34:26Z</time></trkpt><trkpt lat="38.964341376805436" lon="16.589346502006297"><ele>664.0</ele><time>2026-04-12T10:34:27Z</time></trkpt><trkpt lat="38.96430419282442" lon="16.58919057566616"><ele>664.0</ele><time>2026-04-12T10:34:28Z</time></trkpt><trkpt lat="38.96429386225008" lon="16.589034932866557"><ele>664.0</ele><time>2026-04-12T10:34:29Z</time></trkpt><trkpt lat="38.96428819617984" lon="16.588869677110146"><ele>664.0</ele><time>2026-04-12T10:34:30Z</time></trkpt><trkpt lat="38.96426571327924" lon="16.588712204054513"><ele>664.0</ele><time>2026-04-12T10:34:31Z</time></trkpt><trkpt lat="38.96420814503473" lon="16.588583441902077"><ele>664.0</ele><time>2026-04-12T10:34:32Z</time></trkpt><trkpt lat="38.96411766809743" lon="16.588479077100775"><ele>661.75</ele><time>2026-04-12T10:34:33Z</time></trkpt><trkpt lat="38.96402890786627" lon="16.588385408238853"><ele>659.5</ele><time>2026-04-12T10:34:34Z</time></trkpt><trkpt lat="38.96397028705949" lon="16.588278261651592"><ele>657.25</ele><time>2026-04-12T10:34:35Z</time></trkpt><trkpt lat="38.964004597964724" lon="16.588142580390084"><ele>655.0</ele><time>2026-04-12T10:34:36Z</time></trkpt><trkpt lat="38.96405978341233" lon="16.58799124772674"><ele>654.75</ele><time>2026-04-12T10:34:37Z</time></trkpt><trkpt lat="38.96410182671874" lon="16.58782810026893"><ele>654.5</ele><time>2026-04-12T10:34:38Z</time></trkpt><trkpt lat="38.96409967923623" lon="16.587655449052995"><ele>654.25</ele><time>2026-04-12T10:34:39Z</time></trkpt><trkpt lat="38.964066221860676" lon="16.587491606769746"><ele>654.0</ele><time>2026-04-12T10:34:40Z</time></trkpt><trkpt lat="38.96401280520113" lon="16.587342644584062"><ele>654.0</ele><time>2026-04-12T10:34:41Z</time></trkpt><trkpt lat="38.96396995404279" lon="16.58719427637863"><ele>654.0</ele><time>2026-04-12T10:34:42Z</time></trkpt><trkpt lat="38.96393223654607" lon="16.587002209878445"><ele>654.0</ele><time>2026-04-12T10:34:43Z</time></trkpt><trkpt lat="38.963906926683315" lon="16.58678742247247"><ele>654.0</ele><time>2026-04-12T10:34:44Z</time></trkpt><trkpt lat="38.96393099550851" lon="16.586633956414172"><ele>653.5</ele><time>2026-04-12T10:34:45Z</time></trkpt><trkpt lat="38.963989864565555" lon="16.58646325446633"><ele>653.0</ele><time>2026-04-12T10:34:47Z</time></trkpt><trkpt lat="38.963983009402746" lon="16.58633662679758"><ele>652.5</ele><time>2026-04-12T10:34:48Z</time></trkpt><trkpt lat="38.96394197475414" lon="16.586199945913457"><ele>652.0</ele><time>2026-04-12T10:34:49Z</time></trkpt><trkpt lat="38.963876146988774" lon="16.586105419009627"><ele>652.0</ele><time>2026-04-12T10:34:50Z</time></trkpt><trkpt lat="38.96382352330461" lon="16.58592306277453"><ele>652.0</ele><time>2026-04-12T10:34:52Z</time></trkpt><trkpt lat="38.9637644130889" lon="16.585844740972195"><ele>652.0</ele><time>2026-04-12T10:34:53Z</time></trkpt><trkpt lat="38.96370856097767" lon="16.585764050613868"><ele>652.0</ele><time>2026-04-12T10:34:54Z</time></trkpt><trkpt lat="38.96367495974145" lon="16.585666956521674"><ele>652.0</ele><time>2026-04-12T10:34:55Z</time></trkpt><trkpt lat="38.963626071421196" lon="16.585567282104698"><ele>652.0</ele><time>2026-04-12T10:34:56Z</time></trkpt><trkpt lat="38.963566308961184" lon="16.58547325604106"><ele>652.0</ele><time>2026-04-12T10:34:57Z</time></trkpt><trkpt lat="38.963488791560174" lon="16.585377746670652"><ele>652.0</ele><time>2026-04-12T10:34:58Z</time></trkpt><trkpt lat="38.96339433406902" lon="16.58529380341098"><ele>652.0</ele><time>2026-04-12T10:34:59Z</time></trkpt><trkpt lat="38.963279697852606" lon="16.585254472444465"><ele>652.0</ele><time>2026-04-12T10:35:00Z</time></trkpt><trkpt lat="38.96319871767681" lon="16.585249905514733"><ele>649.4</ele><time>2026-04-12T10:35:01Z</time></trkpt><trkpt lat="38.963088589914285" lon="16.58525225076629"><ele>646.8000000000001</ele><time>2026-04-12T10:35:02Z</time></trkpt><trkpt lat="38.96297684349389" lon="16.585249010006024"><ele>644.2</ele><time>2026-04-12T10:35:03Z</time></trkpt><trkpt lat="38.962863828407905" lon="16.585260728442695"><ele>641.6</ele><time>2026-04-12T10:35:04Z</time></trkpt><trkpt lat="38.962757687557726" lon="16.58526724988247"><ele>639.0</ele><time>2026-04-12T10:35:05Z</time></trkpt><trkpt lat="38.96265567766271" lon="16.585289819942503"><ele>638.0</ele><time>2026-04-12T10:35:06Z</time></trkpt><trkpt lat="38.96256048551311" lon="16.585360805538553"><ele>637.0</ele><time>2026-04-12T10:35:07Z</time></trkpt><trkpt lat="38.962483003688476" lon="16.58546666937211"><ele>636.0</ele><time>2026-04-12T10:35:08Z</time></trkpt><trkpt lat="38.962411072713415" lon="16.585599127507823"><ele>635.0</ele><time>2026-04-12T10:35:09Z</time></trkpt><trkpt lat="38.96233699488369" lon="16.585716772058742"><ele>633.4</ele><time>2026-04-12T10:35:10Z</time></trkpt><trkpt lat="38.96225748755241" lon="16.585817534468877"><ele>631.8</ele><time>2026-04-12T10:35:11Z</time></trkpt><trkpt lat="38.96216353545108" lon="16.585890128791664"><ele>630.2</ele><time>2026-04-12T10:35:12Z</time></trkpt><trkpt lat="38.96205774631349" lon="16.58591207777525"><ele>628.6</ele><time>2026-04-12T10:35:13Z</time></trkpt><trkpt lat="38.96194219094512" lon="16.585887646101448"><ele>627.0</ele><time>2026-04-12T10:35:14Z</time></trkpt><trkpt lat="38.96182605895308" lon="16.585878845183096"><ele>626.25</ele><time>2026-04-12T10:35:15Z</time></trkpt><trkpt lat="38.96169346601105" lon="16.585852459872363"><ele>625.5</ele><time>2026-04-12T10:35:16Z</time></trkpt><trkpt lat="38.96156689030913" lon="16.585855979484197"><ele>624.75</ele><time>2026-04-12T10:35:17Z</time></trkpt><trkpt lat="38.961435110565155" lon="16.58587510722369"><ele>624.0</ele><time>2026-04-12T10:35:18Z</time></trkpt><trkpt lat="38.961309456107315" lon="16.58588902049643"><ele>624.0</ele><time>2026-04-12T10:35:19Z</time></trkpt><trkpt lat="38.96117808288564" lon="16.585907211621986"><ele>624.0</ele><time>2026-04-12T10:35:20Z</time></trkpt><trkpt lat="38.9610503817284" lon="16.585936121330835"><ele>624.0</ele><time>2026-04-12T10:35:21Z</time></trkpt><trkpt lat="38.96092880355259" lon="16.585987881445277"><ele>624.0</ele><time>2026-04-12T10:35:22Z</time></trkpt><trkpt lat="38.96081878034697" lon="16.586055067876973"><ele>621.75</ele><time>2026-04-12T10:35:23Z</time></trkpt><trkpt lat="38.96073170353684" lon="16.586195100481245"><ele>619.5</ele><time>2026-04-12T10:35:24Z</time></trkpt><trkpt lat="38.96064873262602" lon="16.586331384879266"><ele>617.25</ele><time>2026-04-12T10:35:25Z</time></trkpt><trkpt lat="38.960568041912005" lon="16.586451172316792"><ele>615.0</ele><time>2026-04-12T10:35:26Z</time></trkpt><trkpt lat="38.96047272120628" lon="16.586558138792387"><ele>615.0</ele><time>2026-04-12T10:35:27Z</time></trkpt><trkpt lat="38.96035284807164" lon="16.586623592709262"><ele>615.0</ele><time>2026-04-12T10:35:28Z</time></trkpt><trkpt lat="38.960201053993444" lon="16.58659923416691"><ele>615.0</ele><time>2026-04-12T10:35:29Z</time></trkpt><trkpt lat="38.9600420260171" lon="16.586588252560173"><ele>615.0</ele><time>2026-04-12T10:35:30Z</time></trkpt><trkpt lat="38.9599581575389" lon="16.586613785990888"><ele>615.75</ele><time>2026-04-12T10:35:31Z</time></trkpt><trkpt lat="38.95987869109594" lon="16.586695060297487"><ele>616.5</ele><time>2026-04-12T10:35:32Z</time></trkpt><trkpt lat="38.95981434228761" lon="16.586876210086636"><ele>617.25</ele><time>2026-04-12T10:35:33Z</time></trkpt><trkpt lat="38.95977201004162" lon="16.587042087676085"><ele>618.0</ele><time>2026-04-12T10:35:34Z</time></trkpt><trkpt lat="38.959742206064185" lon="16.587196564295287"><ele>614.25</ele><time>2026-04-12T10:35:35Z</time></trkpt><trkpt lat="38.959644261997525" lon="16.587321185752"><ele>610.5</ele><time>2026-04-12T10:35:36Z</time></trkpt><trkpt lat="38.95951190461576" lon="16.587397323665407"><ele>606.75</ele><time>2026-04-12T10:35:37Z</time></trkpt><trkpt lat="38.95939881682521" lon="16.587451543179558"><ele>603.0</ele><time>2026-04-12T10:35:38Z</time></trkpt><trkpt lat="38.959307233933224" lon="16.587532676939933"><ele>603.0</ele><time>2026-04-12T10:35:39Z</time></trkpt><trkpt lat="38.95926866626847" lon="16.587680385335243"><ele>603.0</ele><time>2026-04-12T10:35:40Z</time></trkpt><trkpt lat="38.95926912780662" lon="16.58785404023545"><ele>603.0</ele><time>2026-04-12T10:35:41Z</time></trkpt><trkpt lat="38.95931383888675" lon="16.588019861807634"><ele>603.0</ele><time>2026-04-12T10:35:42Z</time></trkpt><trkpt lat="38.9593690859578" lon="16.588170526629845"><ele>599.75</ele><time>2026-04-12T10:35:43Z</time></trkpt><trkpt lat="38.95942207257211" lon="16.588316002379752"><ele>596.5</ele><time>2026-04-12T10:35:44Z</time></trkpt><trkpt lat="38.95945954441161" lon="16.58846640348229"><ele>593.25</ele><time>2026-04-12T10:35:45Z</time></trkpt><trkpt lat="38.959463037121225" lon="16.588625488152168"><ele>590.0</ele><time>2026-04-12T10:35:46Z</time></trkpt><trkpt lat="38.95944178741559" lon="16.58878297597602"><ele>587.0</ele><time>2026-04-12T10:35:47Z</time></trkpt><trkpt lat="38.95942425696386" lon="16.588940610778224"><ele>584.0</ele><time>2026-04-12T10:35:48Z</time></trkpt><trkpt lat="38.95939596218097" lon="16.589096188844465"><ele>581.0</ele><time>2026-04-12T10:35:49Z</time></trkpt><trkpt lat="38.95933951810062" lon="16.589252168321234"><ele>578.0</ele><time>2026-04-12T10:35:50Z</time></trkpt><trkpt lat="38.959288219521156" lon="16.58937033825436"><ele>578.0</ele><time>2026-04-12T10:35:51Z</time></trkpt><trkpt lat="38.959215181736774" lon="16.589492874130027"><ele>578.0</ele><time>2026-04-12T10:35:52Z</time></trkpt><trkpt lat="38.959145522506226" lon="16.58961818325291"><ele>578.0</ele><time>2026-04-12T10:35:53Z</time></trkpt><trkpt lat="38.95906775592703" lon="16.589739440793863"><ele>578.0</ele><time>2026-04-12T10:35:54Z</time></trkpt><trkpt lat="38.95898780667924" lon="16.58986508517072"><ele>577.0</ele><time>2026-04-12T10:35:55Z</time></trkpt><trkpt lat="38.958906501172365" lon="16.58999736898526"><ele>576.0</ele><time>2026-04-12T10:35:56Z</time></trkpt><trkpt lat="38.95882687118637" lon="16.59012951830833"><ele>575.0</ele><time>2026-04-12T10:35:57Z</time></trkpt><trkpt lat="38.95874253822874" lon="16.590268455038128"><ele>574.0</ele><time>2026-04-12T10:35:58Z</time></trkpt><trkpt lat="38.958656106957434" lon="16.590411040424925"><ele>574.0</ele><time>2026-04-12T10:35:59Z</time></trkpt><trkpt lat="38.9585676160472" lon="16.590554572838034"><ele>574.0</ele><time>2026-04-12T10:36:00Z</time></trkpt><trkpt lat="38.95848640543329" lon="16.590690809871486"><ele>574.0</ele><time>2026-04-12T10:36:01Z</time></trkpt><trkpt lat="38.958417758825654" lon="16.590803765724758"><ele>574.0</ele><time>2026-04-12T10:36:02Z</time></trkpt><trkpt lat="38.95832025201951" lon="16.590864759416476"><ele>576.25</ele><time>2026-04-12T10:36:03Z</time></trkpt><trkpt lat="38.95820783141806" lon="16.59085216255916"><ele>578.5</ele><time>2026-04-12T10:36:04Z</time></trkpt><trkpt lat="38.95808812083307" lon="16.590786134445896"><ele>580.75</ele><time>2026-04-12T10:36:05Z</time></trkpt><trkpt lat="38.95799382713942" lon="16.590687761773005"><ele>583.0</ele><time>2026-04-12T10:36:06Z</time></trkpt><trkpt lat="38.957882126250134" lon="16.59062780671532"><ele>583.0</ele><time>2026-04-12T10:36:07Z</time></trkpt><trkpt lat="38.95776356778149" lon="16.590632725870236"><ele>583.0</ele><time>2026-04-12T10:36:08Z</time></trkpt><trkpt lat="38.957658008209094" lon="16.590702126191456"><ele>583.0</ele><time>2026-04-12T10:36:09Z</time></trkpt><trkpt lat="38.95758131596411" lon="16.590843922576347"><ele>583.0</ele><time>2026-04-12T10:36:10Z</time></trkpt><trkpt lat="38.957517219361534" lon="16.590994204695537"><ele>584.25</ele><time>2026-04-12T10:36:11Z</time></trkpt><trkpt lat="38.957460565524556" lon="16.591134470239663"><ele>585.5</ele><time>2026-04-12T10:36:12Z</time></trkpt><trkpt lat="38.957398331778485" lon="16.591270554848965"><ele>586.75</ele><time>2026-04-12T10:36:13Z</time></trkpt><trkpt lat="38.957333965530474" lon="16.59138640076401"><ele>588.0</ele><time>2026-04-12T10:36:14Z</time></trkpt><trkpt lat="38.95727275824109" lon="16.591517885413136"><ele>584.0</ele><time>2026-04-12T10:36:15Z</time></trkpt><trkpt lat="38.95719835866631" lon="16.59162863143926"><ele>580.0</ele><time>2026-04-12T10:36:16Z</time></trkpt><trkpt lat="38.95709818664591" lon="16.591694985787864"><ele>576.0</ele><time>2026-04-12T10:36:17Z</time></trkpt><trkpt lat="38.95698110378303" lon="16.591739675309263"><ele>572.0</ele><time>2026-04-12T10:36:18Z</time></trkpt><trkpt lat="38.956863871184126" lon="16.591790777023782"><ele>572.0</ele><time>2026-04-12T10:36:19Z</time></trkpt><trkpt lat="38.956744048207646" lon="16.591827123230694"><ele>572.0</ele><time>2026-04-12T10:36:20Z</time></trkpt><trkpt lat="38.95662358239143" lon="16.59186750959955"><ele>572.0</ele><time>2026-04-12T10:36:21Z</time></trkpt><trkpt lat="38.95650660535358" lon="16.591905735570904"><ele>572.0</ele><time>2026-04-12T10:36:22Z</time></trkpt><trkpt lat="38.956386095832485" lon="16.59191977125709"><ele>573.5</ele><time>2026-04-12T10:36:23Z</time></trkpt><trkpt lat="38.956261102590375" lon="16.591910708149957"><ele>575.0</ele><time>2026-04-12T10:36:24Z</time></trkpt><trkpt lat="38.95614059706967" lon="16.591885422392934"><ele>576.5</ele><time>2026-04-12T10:36:25Z</time></trkpt><trkpt lat="38.95602315014364" lon="16.591873188746128"><ele>578.0</ele><time>2026-04-12T10:36:26Z</time></trkpt><trkpt lat="38.9559097583124" lon="16.591893010832905"><ele>578.75</ele><time>2026-04-12T10:36:27Z</time></trkpt><trkpt lat="38.9558063258083" lon="16.59193606818693"><ele>579.5</ele><time>2026-04-12T10:36:28Z</time></trkpt><trkpt lat="38.955692897838894" lon="16.5919809718197"><ele>580.25</ele><time>2026-04-12T10:36:29Z</time></trkpt><trkpt lat="38.95557482727282" lon="16.59200394962615"><ele>581.0</ele><time>2026-04-12T10:36:30Z</time></trkpt><trkpt lat="38.955452915844425" lon="16.59203253405044"><ele>581.0</ele><time>2026-04-12T10:36:31Z</time></trkpt><trkpt lat="38.955339163498806" lon="16.592050245435665"><ele>581.0</ele><time>2026-04-12T10:36:32Z</time></trkpt><trkpt lat="38.955232005368934" lon="16.59206407080016"><ele>581.0</ele><time>2026-04-12T10:36:33Z</time></trkpt><trkpt lat="38.95514085208151" lon="16.592053516672657"><ele>581.0</ele><time>2026-04-12T10:36:34Z</time></trkpt><trkpt lat="38.95509266619262" lon="16.591952990406984"><ele>581.0</ele><time>2026-04-12T10:36:35Z</time></trkpt><trkpt lat="38.95506600476122" lon="16.591876585857865"><ele>581.0</ele><time>2026-04-12T10:36:36Z</time></trkpt><trkpt lat="38.95505408188623" lon="16.59178553964255"><ele>581.0</ele><time>2026-04-12T10:36:37Z</time></trkpt><trkpt lat="38.95504277977522" lon="16.591679020160957"><ele>581.0</ele><time>2026-04-12T10:36:38Z</time></trkpt><trkpt lat="38.95502812457057" lon="16.591576458958954"><ele>581.0</ele><time>2026-04-12T10:36:39Z</time></trkpt><trkpt lat="38.9550176733429" lon="16.59142217108926"><ele>581.0</ele><time>2026-04-12T10:36:40Z</time></trkpt><trkpt lat="38.954969301895815" lon="16.59127124423165"><ele>579.0</ele><time>2026-04-12T10:36:42Z</time></trkpt><trkpt lat="38.95491791078488" lon="16.59110706798562"><ele>577.0</ele><time>2026-04-12T10:36:43Z</time></trkpt><trkpt lat="38.9548574125652" lon="16.59098926405462"><ele>575.0</ele><time>2026-04-12T10:36:44Z</time></trkpt><trkpt lat="38.95479508617829" lon="16.59087643418034"><ele>573.0</ele><time>2026-04-12T10:36:45Z</time></trkpt><trkpt lat="38.95474274374498" lon="16.59076434764701"><ele>573.0</ele><time>2026-04-12T10:36:46Z</time></trkpt><trkpt lat="38.954707817235544" lon="16.590636202222033"><ele>573.0</ele><time>2026-04-12T10:36:47Z</time></trkpt><trkpt lat="38.954683129232166" lon="16.590464314976707"><ele>573.0</ele><time>2026-04-12T10:36:48Z</time></trkpt><trkpt lat="38.954671538540126" lon="16.59027066404251"><ele>573.0</ele><time>2026-04-12T10:36:49Z</time></trkpt><trkpt lat="38.95463924526367" lon="16.590084542039897"><ele>574.5</ele><time>2026-04-12T10:36:50Z</time></trkpt><trkpt lat="38.95458421694887" lon="16.589913518453145"><ele>576.0</ele><time>2026-04-12T10:36:51Z</time></trkpt><trkpt lat="38.954525406240236" lon="16.589758485328552"><ele>577.5</ele><time>2026-04-12T10:36:52Z</time></trkpt><trkpt lat="38.95446557173472" lon="16.58960516161867"><ele>579.0</ele><time>2026-04-12T10:36:53Z</time></trkpt><trkpt lat="38.95441284242489" lon="16.589451742280616"><ele>580.25</ele><time>2026-04-12T10:36:54Z</time></trkpt><trkpt lat="38.95436159016451" lon="16.58929401237068"><ele>581.5</ele><time>2026-04-12T10:36:55Z</time></trkpt><trkpt lat="38.95432159663141" lon="16.589131016359172"><ele>582.75</ele><time>2026-04-12T10:36:56Z</time></trkpt><trkpt lat="38.95429985717837" lon="16.58896313503423"><ele>584.0</ele><time>2026-04-12T10:36:57Z</time></trkpt><trkpt lat="38.9543057555335" lon="16.58878534097789"><ele>583.0</ele><time>2026-04-12T10:36:58Z</time></trkpt><trkpt lat="38.95432694855203" lon="16.588614180808452"><ele>582.0</ele><time>2026-04-12T10:36:59Z</time></trkpt><trkpt lat="38.95434781294602" lon="16.588441904648644"><ele>581.0</ele><time>2026-04-12T10:37:00Z</time></trkpt><trkpt lat="38.95436521345478" lon="16.58826545971416"><ele>580.0</ele><time>2026-04-12T10:37:01Z</time></trkpt><trkpt lat="38.95438068249483" lon="16.58807709356447"><ele>580.0</ele><time>2026-04-12T10:37:02Z</time></trkpt><trkpt lat="38.954384784973165" lon="16.587879236015716"><ele>580.0</ele><time>2026-04-12T10:37:03Z</time></trkpt><trkpt lat="38.954389804764006" lon="16.58767431579231"><ele>580.0</ele><time>2026-04-12T10:37:04Z</time></trkpt><trkpt lat="38.95440013858332" lon="16.587479576439634"><ele>577.5</ele><time>2026-04-12T10:37:05Z</time></trkpt><trkpt lat="38.954417700026056" lon="16.587300688115796"><ele>575.0</ele><time>2026-04-12T10:37:06Z</time></trkpt><trkpt lat="38.95441966816956" lon="16.587127370292972"><ele>572.5</ele><time>2026-04-12T10:37:07Z</time></trkpt><trkpt lat="38.9543716297527" lon="16.58693082228564"><ele>570.0</ele><time>2026-04-12T10:37:08Z</time></trkpt><trkpt lat="38.95427832436137" lon="16.586701540938286"><ele>555.5</ele><time>2026-04-12T10:37:09Z</time></trkpt><trkpt lat="38.954169423378175" lon="16.5864288789912"><ele>541.0</ele><time>2026-04-12T10:37:10Z</time></trkpt><trkpt lat="38.95407161490701" lon="16.586121316507793"><ele>541.0</ele><time>2026-04-12T10:37:11Z</time></trkpt><trkpt lat="38.95397980863365" lon="16.585806618772033"><ele>541.0</ele><time>2026-04-12T10:37:12Z</time></trkpt><trkpt lat="38.953867935905826" lon="16.58551813617665"><ele>543.0</ele><time>2026-04-12T10:37:13Z</time></trkpt><trkpt lat="38.95377087033898" lon="16.58525711011917"><ele>545.0</ele><time>2026-04-12T10:37:14Z</time></trkpt><trkpt lat="38.953677375716985" lon="16.585025961900232"><ele>547.0</ele><time>2026-04-12T10:37:15Z</time></trkpt><trkpt lat="38.95359989360413" lon="16.58482554526821"><ele>547.0</ele><time>2026-04-12T10:37:16Z</time></trkpt><trkpt lat="38.95351980969745" lon="16.58465634055006"><ele>547.0</ele><time>2026-04-12T10:37:17Z</time></trkpt><trkpt lat="38.95345521400873" lon="16.58452173836187"><ele>547.0</ele><time>2026-04-12T10:37:18Z</time></trkpt><trkpt lat="38.95339941281796" lon="16.58439116827593"><ele>547.0</ele><time>2026-04-12T10:37:19Z</time></trkpt><trkpt lat="38.95332508715214" lon="16.584273821450505"><ele>543.25</ele><time>2026-04-12T10:37:20Z</time></trkpt><trkpt lat="38.95321828336963" lon="16.584177945291426"><ele>539.5</ele><time>2026-04-12T10:37:21Z</time></trkpt><trkpt lat="38.95309409563391" lon="16.58410816691138"><ele>535.75</ele><time>2026-04-12T10:37:22Z</time></trkpt><trkpt lat="38.95294588141326" lon="16.58407028209234"><ele>532.0</ele><time>2026-04-12T10:37:23Z</time></trkpt><trkpt lat="38.95280612349225" lon="16.584028028483278"><ele>532.0</ele><time>2026-04-12T10:37:24Z</time></trkpt><trkpt lat="38.95266934142731" lon="16.58397558888653"><ele>532.0</ele><time>2026-04-12T10:37:25Z</time></trkpt><trkpt lat="38.952535282392176" lon="16.583928453115544"><ele>532.0</ele><time>2026-04-12T10:37:26Z</time></trkpt><trkpt lat="38.952401201331504" lon="16.58388514261097"><ele>532.0</ele><time>2026-04-12T10:37:27Z</time></trkpt><trkpt lat="38.9522699521984" lon="16.5837982493287"><ele>533.75</ele><time>2026-04-12T10:37:28Z</time></trkpt><trkpt lat="38.952143938267014" lon="16.58370551703884"><ele>535.5</ele><time>2026-04-12T10:37:29Z</time></trkpt><trkpt lat="38.95201389994406" lon="16.583615487437"><ele>537.25</ele><time>2026-04-12T10:37:30Z</time></trkpt><trkpt lat="38.951882852803465" lon="16.583528715418975"><ele>539.0</ele><time>2026-04-12T10:37:31Z</time></trkpt><trkpt lat="38.95175858414151" lon="16.583468782327934"><ele>534.25</ele><time>2026-04-12T10:37:32Z</time></trkpt><trkpt lat="38.95163275762043" lon="16.583427841790147"><ele>529.5</ele><time>2026-04-12T10:37:33Z</time></trkpt><trkpt lat="38.951507913966076" lon="16.583382540251524"><ele>524.75</ele><time>2026-04-12T10:37:34Z</time></trkpt><trkpt lat="38.951389027316914" lon="16.583289850760117"><ele>520.0</ele><time>2026-04-12T10:37:35Z</time></trkpt><trkpt lat="38.9512828029106" lon="16.583143482479418"><ele>520.0</ele><time>2026-04-12T10:37:36Z</time></trkpt><trkpt lat="38.95120422046296" lon="16.58297276195356"><ele>520.0</ele><time>2026-04-12T10:37:37Z</time></trkpt><trkpt lat="38.95113013757958" lon="16.582825627324073"><ele>520.0</ele><time>2026-04-12T10:37:38Z</time></trkpt><trkpt lat="38.95106389571245" lon="16.582687776699064"><ele>520.0</ele><time>2026-04-12T10:37:39Z</time></trkpt><trkpt lat="38.95099303484872" lon="16.5825597206657"><ele>522.5</ele><time>2026-04-12T10:37:40Z</time></trkpt><trkpt lat="38.95091305146271" lon="16.582433853153624"><ele>525.0</ele><time>2026-04-12T10:37:41Z</time></trkpt><trkpt lat="38.95080324091927" lon="16.58232323922788"><ele>527.5</ele><time>2026-04-12T10:37:42Z</time></trkpt><trkpt lat="38.95067434230945" lon="16.582238747394175"><ele>530.0</ele><time>2026-04-12T10:37:43Z</time></trkpt><trkpt lat="38.950540943923016" lon="16.582167611795043"><ele>524.0</ele><time>2026-04-12T10:37:44Z</time></trkpt><trkpt lat="38.95042517265254" lon="16.5820782691709"><ele>518.0</ele><time>2026-04-12T10:37:45Z</time></trkpt><trkpt lat="38.95032636139982" lon="16.581962489959306"><ele>512.0</ele><time>2026-04-12T10:37:46Z</time></trkpt><trkpt lat="38.950230872246955" lon="16.581835593841586"><ele>506.0</ele><time>2026-04-12T10:37:47Z</time></trkpt><trkpt lat="38.950134970119144" lon="16.581726534803185"><ele>503.5</ele><time>2026-04-12T10:37:48Z</time></trkpt><trkpt lat="38.95002542117536" lon="16.58163339943778"><ele>501.0</ele><time>2026-04-12T10:37:49Z</time></trkpt><trkpt lat="38.94989466809239" lon="16.58157233870056"><ele>498.5</ele><time>2026-04-12T10:37:50Z</time></trkpt><trkpt lat="38.94975672925885" lon="16.58154555086375"><ele>496.0</ele><time>2026-04-12T10:37:51Z</time></trkpt><trkpt lat="38.949614384085436" lon="16.581562847732688"><ele>496.0</ele><time>2026-04-12T10:37:52Z</time></trkpt><trkpt lat="38.94948023068471" lon="16.581631465926623"><ele>496.0</ele><time>2026-04-12T10:37:53Z</time></trkpt><trkpt lat="38.94936785351955" lon="16.58174677606365"><ele>496.0</ele><time>2026-04-12T10:37:54Z</time></trkpt><trkpt lat="38.94929014123303" lon="16.58188717932613"><ele>496.0</ele><time>2026-04-12T10:37:55Z</time></trkpt><trkpt lat="38.949213398778426" lon="16.582023527792852"><ele>494.0</ele><time>2026-04-12T10:37:56Z</time></trkpt><trkpt lat="38.94910690125552" lon="16.582116037523466"><ele>492.0</ele><time>2026-04-12T10:37:57Z</time></trkpt><trkpt lat="38.94897268965058" lon="16.582148558789985"><ele>490.0</ele><time>2026-04-12T10:37:58Z</time></trkpt><trkpt lat="38.948825798342966" lon="16.582205491684174"><ele>488.0</ele><time>2026-04-12T10:37:59Z</time></trkpt><trkpt lat="38.948673772539905" lon="16.582233331768116"><ele>488.0</ele><time>2026-04-12T10:38:00Z</time></trkpt><trkpt lat="38.94851902618278" lon="16.582271856454195"><ele>488.0</ele><time>2026-04-12T10:38:01Z</time></trkpt><trkpt lat="38.94836638180749" lon="16.58231151868936"><ele>488.0</ele><time>2026-04-12T10:38:02Z</time></trkpt><trkpt lat="38.948203203995234" lon="16.58234895913"><ele>488.3333333333333</ele><time>2026-04-12T10:38:03Z</time></trkpt><trkpt lat="38.948047192386476" lon="16.582388377290318"><ele>488.66666666666663</ele><time>2026-04-12T10:38:04Z</time></trkpt><trkpt lat="38.94789860977257" lon="16.58242060123671"><ele>489.0</ele><time>2026-04-12T10:38:05Z</time></trkpt><trkpt lat="38.947754415010074" lon="16.58243849833246"><ele>489.0</ele><time>2026-04-12T10:38:06Z</time></trkpt><trkpt lat="38.94761378185994" lon="16.582439136436324"><ele>489.0</ele><time>2026-04-12T10:38:07Z</time></trkpt><trkpt lat="38.94747713350418" lon="16.582434576075403"><ele>489.0</ele><time>2026-04-12T10:38:08Z</time></trkpt><trkpt lat="38.94734056062658" lon="16.5824204995441"><ele>489.0</ele><time>2026-04-12T10:38:09Z</time></trkpt><trkpt lat="38.947209531099695" lon="16.58236222825165"><ele>486.5</ele><time>2026-04-12T10:38:10Z</time></trkpt><trkpt lat="38.94710265095621" lon="16.58224826449862"><ele>484.0</ele><time>2026-04-12T10:38:11Z</time></trkpt><trkpt lat="38.9470228966283" lon="16.58208194976312"><ele>481.5</ele><time>2026-04-12T10:38:12Z</time></trkpt><trkpt lat="38.94696394409006" lon="16.58189315150476"><ele>479.0</ele><time>2026-04-12T10:38:13Z</time></trkpt><trkpt lat="38.9468968573135" lon="16.58172066968379"><ele>477.66666666666663</ele><time>2026-04-12T10:38:14Z</time></trkpt><trkpt lat="38.9468150959784" lon="16.581544042299992"><ele>476.33333333333337</ele><time>2026-04-12T10:38:15Z</time></trkpt><trkpt lat="38.94673280947229" lon="16.581378700821727"><ele>475.0</ele><time>2026-04-12T10:38:16Z</time></trkpt><trkpt lat="38.94665345298876" lon="16.581209849761432"><ele>476.0</ele><time>2026-04-12T10:38:17Z</time></trkpt><trkpt lat="38.9465892726586" lon="16.58102045764572"><ele>477.0</ele><time>2026-04-12T10:38:18Z</time></trkpt><trkpt lat="38.94654599591798" lon="16.58082368499644"><ele>478.0</ele><time>2026-04-12T10:38:19Z</time></trkpt><trkpt lat="38.946507296652946" lon="16.58063105410328"><ele>478.0</ele><time>2026-04-12T10:38:20Z</time></trkpt><trkpt lat="38.94646241332364" lon="16.580453579930285"><ele>478.0</ele><time>2026-04-12T10:38:21Z</time></trkpt><trkpt lat="38.94641210310321" lon="16.58029745639703"><ele>478.0</ele><time>2026-04-12T10:38:22Z</time></trkpt><trkpt lat="38.94634435192831" lon="16.5801635477288"><ele>478.0</ele><time>2026-04-12T10:38:23Z</time></trkpt><trkpt lat="38.946232104947036" lon="16.580046892274083"><ele>479.6666666666667</ele><time>2026-04-12T10:38:24Z</time></trkpt><trkpt lat="38.94608541264435" lon="16.5799645688567"><ele>481.33333333333337</ele><time>2026-04-12T10:38:25Z</time></trkpt><trkpt lat="38.945943426506275" lon="16.579890520433043"><ele>483.0</ele><time>2026-04-12T10:38:26Z</time></trkpt><trkpt lat="38.94580622710706" lon="16.57982723888837"><ele>483.0</ele><time>2026-04-12T10:38:27Z</time></trkpt><trkpt lat="38.94565956595406" lon="16.57977739483398"><ele>483.0</ele><time>2026-04-12T10:38:28Z</time></trkpt><trkpt lat="38.94550863331187" lon="16.57975598910276"><ele>483.0</ele><time>2026-04-12T10:38:29Z</time></trkpt><trkpt lat="38.945327969105044" lon="16.57973713564068"><ele>483.0</ele><time>2026-04-12T10:38:30Z</time></trkpt><trkpt lat="38.94523892816892" lon="16.579886644682052"><ele>483.0</ele><time>2026-04-12T10:38:31Z</time></trkpt><trkpt lat="38.94514099760934" lon="16.580000888846822"><ele>483.0</ele><time>2026-04-12T10:38:32Z</time></trkpt><trkpt lat="38.945042908795166" lon="16.580115267197623"><ele>483.0</ele><time>2026-04-12T10:38:33Z</time></trkpt><trkpt lat="38.944942096330216" lon="16.580221404410025"><ele>482.5</ele><time>2026-04-12T10:38:34Z</time></trkpt><trkpt lat="38.94482559452224" lon="16.580274149389403"><ele>482.0</ele><time>2026-04-12T10:38:35Z</time></trkpt><trkpt lat="38.9447198183341" lon="16.58022330244275"><ele>481.5</ele><time>2026-04-12T10:38:36Z</time></trkpt><trkpt lat="38.944617275494586" lon="16.580112007092207"><ele>481.0</ele><time>2026-04-12T10:38:37Z</time></trkpt><trkpt lat="38.944561869835184" lon="16.57994839883045"><ele>481.0</ele><time>2026-04-12T10:38:38Z</time></trkpt><trkpt lat="38.94457736323064" lon="16.57975845208576"><ele>481.0</ele><time>2026-04-12T10:38:39Z</time></trkpt><trkpt lat="38.94457911255275" lon="16.579572489264258"><ele>481.0</ele><time>2026-04-12T10:38:40Z</time></trkpt><trkpt lat="38.944600549168186" lon="16.579409126792775"><ele>481.0</ele><time>2026-04-12T10:38:41Z</time></trkpt><trkpt lat="38.944591266183494" lon="16.579244254396322"><ele>477.25</ele><time>2026-04-12T10:38:42Z</time></trkpt><trkpt lat="38.944557073774384" lon="16.579086634922326"><ele>473.5</ele><time>2026-04-12T10:38:43Z</time></trkpt><trkpt lat="38.94449123239651" lon="16.57894203165377"><ele>469.75</ele><time>2026-04-12T10:38:44Z</time></trkpt><trkpt lat="38.944392114141124" lon="16.578816502786797"><ele>466.0</ele><time>2026-04-12T10:38:45Z</time></trkpt><trkpt lat="38.94427861377091" lon="16.578729430240408"><ele>465.75</ele><time>2026-04-12T10:38:46Z</time></trkpt><trkpt lat="38.94417300791813" lon="16.57865773057614"><ele>465.5</ele><time>2026-04-12T10:38:47Z</time></trkpt><trkpt lat="38.94407369337458" lon="16.578588422074553"><ele>465.25</ele><time>2026-04-12T10:38:48Z</time></trkpt><trkpt lat="38.943949842017226" lon="16.5785890300044"><ele>465.0</ele><time>2026-04-12T10:38:49Z</time></trkpt><trkpt lat="38.94383014707225" lon="16.578656461759326"><ele>470.25</ele><time>2026-04-12T10:38:50Z</time></trkpt><trkpt lat="38.943735359955646" lon="16.578750895818033"><ele>475.5</ele><time>2026-04-12T10:38:51Z</time></trkpt><trkpt lat="38.9436507834066" lon="16.578829466014284"><ele>480.75</ele><time>2026-04-12T10:38:52Z</time></trkpt><trkpt lat="38.94354417975723" lon="16.578842548466195"><ele>486.0</ele><time>2026-04-12T10:38:53Z</time></trkpt><trkpt lat="38.943433075158566" lon="16.57879000024019"><ele>486.25</ele><time>2026-04-12T10:38:54Z</time></trkpt><trkpt lat="38.94332168403231" lon="16.578719519428887"><ele>486.5</ele><time>2026-04-12T10:38:55Z</time></trkpt><trkpt lat="38.94321134004553" lon="16.578675957640275"><ele>486.75</ele><time>2026-04-12T10:38:56Z</time></trkpt><trkpt lat="38.943091206139705" lon="16.57868168950505"><ele>487.0</ele><time>2026-04-12T10:38:57Z</time></trkpt><trkpt lat="38.942961543176885" lon="16.578709515098435"><ele>487.0</ele><time>2026-04-12T10:38:58Z</time></trkpt><trkpt lat="38.94283601112755" lon="16.57872730144899"><ele>487.0</ele><time>2026-04-12T10:38:59Z</time></trkpt><trkpt lat="38.94273882822099" lon="16.578694724890525"><ele>487.0</ele><time>2026-04-12T10:39:00Z</time></trkpt><trkpt lat="38.94267452334476" lon="16.578599998766542"><ele>487.0</ele><time>2026-04-12T10:39:01Z</time></trkpt><trkpt lat="38.942626057572994" lon="16.578445104440753"><ele>485.0</ele><time>2026-04-12T10:39:02Z</time></trkpt><trkpt lat="38.94257587681724" lon="16.578332108270725"><ele>483.00000000000006</ele><time>2026-04-12T10:39:03Z</time></trkpt><trkpt lat="38.942528520943924" lon="16.57823418081611"><ele>481.00000000000006</ele><time>2026-04-12T10:39:04Z</time></trkpt><trkpt lat="38.94246840517144" lon="16.578134271981632"><ele>479.0</ele><time>2026-04-12T10:39:05Z</time></trkpt><trkpt lat="38.94238282439014" lon="16.57807490211482"><ele>477.0</ele><time>2026-04-12T10:39:06Z</time></trkpt><trkpt lat="38.94228685079192" lon="16.57804458072966"><ele>477.0</ele><time>2026-04-12T10:39:07Z</time></trkpt><trkpt lat="38.942177104485815" lon="16.578186001102033"><ele>477.0</ele><time>2026-04-12T10:39:08Z</time></trkpt><trkpt lat="38.942110957150604" lon="16.578202875065788"><ele>477.0</ele><time>2026-04-12T10:39:09Z</time></trkpt><trkpt lat="38.94203059118199" lon="16.578308143848446"><ele>477.0</ele><time>2026-04-12T10:39:10Z</time></trkpt><trkpt lat="38.941931155399644" lon="16.578400467572493"><ele>477.0</ele><time>2026-04-12T10:39:11Z</time></trkpt><trkpt lat="38.94181815749341" lon="16.578454956496394"><ele>477.0</ele><time>2026-04-12T10:39:12Z</time></trkpt><trkpt lat="38.94169093423256" lon="16.57847468713485"><ele>477.0</ele><time>2026-04-12T10:39:13Z</time></trkpt><trkpt lat="38.94156861474897" lon="16.578542109558253"><ele>477.0</ele><time>2026-04-12T10:39:14Z</time></trkpt><trkpt lat="38.94144327496304" lon="16.5785897192887"><ele>475.75</ele><time>2026-04-12T10:39:15Z</time></trkpt><trkpt lat="38.94132439476365" lon="16.578658671023"><ele>474.5</ele><time>2026-04-12T10:39:16Z</time></trkpt><trkpt lat="38.94121870921142" lon="16.578735976739416"><ele>473.25</ele><time>2026-04-12T10:39:17Z</time></trkpt><trkpt lat="38.94112926071024" lon="16.57883213314856"><ele>472.0</ele><time>2026-04-12T10:39:18Z</time></trkpt><trkpt lat="38.941071207573174" lon="16.578946907286504"><ele>474.8</ele><time>2026-04-12T10:39:19Z</time></trkpt><trkpt lat="38.94105651530897" lon="16.579093493965587"><ele>477.6</ele><time>2026-04-12T10:39:20Z</time></trkpt><trkpt lat="38.94105632321712" lon="16.57924229330172"><ele>480.40000000000003</ele><time>2026-04-12T10:39:21Z</time></trkpt><trkpt lat="38.94103203292488" lon="16.579375675165"><ele>483.20000000000005</ele><time>2026-04-12T10:39:22Z</time></trkpt><trkpt lat="38.94099427377042" lon="16.579474925667608"><ele>486.0</ele><time>2026-04-12T10:39:23Z</time></trkpt><trkpt lat="38.94091535714161" lon="16.579522795956972"><ele>483.8</ele><time>2026-04-12T10:39:24Z</time></trkpt><trkpt lat="38.94082591332121" lon="16.579441889587407"><ele>481.6</ele><time>2026-04-12T10:39:25Z</time></trkpt><trkpt lat="38.940737015549466" lon="16.57937520109837"><ele>479.4</ele><time>2026-04-12T10:39:26Z</time></trkpt><trkpt lat="38.940630989163864" lon="16.57932456753157"><ele>477.2</ele><time>2026-04-12T10:39:27Z</time></trkpt><trkpt lat="38.94053317378003" lon="16.579233688157338"><ele>475.0</ele><time>2026-04-12T10:39:28Z</time></trkpt><trkpt lat="38.940443436833135" lon="16.57915922879637"><ele>475.0</ele><time>2026-04-12T10:39:29Z</time></trkpt><trkpt lat="38.940366768358" lon="16.5790685016583"><ele>475.0</ele><time>2026-04-12T10:39:30Z</time></trkpt><trkpt lat="38.94031221372054" lon="16.578956432435017"><ele>475.0</ele><time>2026-04-12T10:39:31Z</time></trkpt><trkpt lat="38.94025205556122" lon="16.578868419087417"><ele>475.0</ele><time>2026-04-12T10:39:32Z</time></trkpt><trkpt lat="38.94019468060668" lon="16.578790367945718"><ele>475.0</ele><time>2026-04-12T10:39:33Z</time></trkpt><trkpt lat="38.94014592878841" lon="16.578707800693213"><ele>475.50000000000006</ele><time>2026-04-12T10:39:34Z</time></trkpt><trkpt lat="38.9400808711532" lon="16.578644171960704"><ele>476.0</ele><time>2026-04-12T10:39:35Z</time></trkpt><trkpt lat="38.940001570723076" lon="16.578616384917208"><ele>476.5</ele><time>2026-04-12T10:39:36Z</time></trkpt><trkpt lat="38.9399267152468" lon="16.57862780013709"><ele>477.0</ele><time>2026-04-12T10:39:37Z</time></trkpt><trkpt lat="38.93985042153734" lon="16.578673000802254"><ele>477.50000000000006</ele><time>2026-04-12T10:39:38Z</time></trkpt><trkpt lat="38.93977527734407" lon="16.57872720481128"><ele>478.0</ele><time>2026-04-12T10:39:39Z</time></trkpt><trkpt lat="38.93969130767446" lon="16.57876766972605"><ele>478.0</ele><time>2026-04-12T10:39:40Z</time></trkpt><trkpt lat="38.939596632334805" lon="16.578798579608943"><ele>477.99999999999994</ele><time>2026-04-12T10:39:41Z</time></trkpt><trkpt lat="38.93949570677196" lon="16.578835136884983"><ele>477.99999999999994</ele><time>2026-04-12T10:39:42Z</time></trkpt><trkpt lat="38.93939287628197" lon="16.578878455092404"><ele>478.0</ele><time>2026-04-12T10:39:43Z</time></trkpt><trkpt lat="38.93929585517983" lon="16.578916877433823"><ele>478.0</ele><time>2026-04-12T10:39:44Z</time></trkpt><trkpt lat="38.93920006790833" lon="16.57895029812183"><ele>477.59999999999997</ele><time>2026-04-12T10:39:45Z</time></trkpt><trkpt lat="38.93910603727156" lon="16.578986729404523"><ele>477.19999999999993</ele><time>2026-04-12T10:39:46Z</time></trkpt><trkpt lat="38.93901041587856" lon="16.579018442751096"><ele>476.8</ele><time>2026-04-12T10:39:47Z</time></trkpt><trkpt lat="38.93891731570511" lon="16.579063750080593"><ele>476.4</ele><time>2026-04-12T10:39:48Z</time></trkpt><trkpt lat="38.9388189901139" lon="16.579105868982126"><ele>476.0</ele><time>2026-04-12T10:39:49Z</time></trkpt><trkpt lat="38.93871739840446" lon="16.57915912856908"><ele>476.0</ele><time>2026-04-12T10:39:50Z</time></trkpt><trkpt lat="38.93861651748608" lon="16.57922258679698"><ele>476.0</ele><time>2026-04-12T10:39:51Z</time></trkpt><trkpt lat="38.9385287548639" lon="16.57932867689081"><ele>476.0</ele><time>2026-04-12T10:39:52Z</time></trkpt><trkpt lat="38.93845676609049" lon="16.57946192566121"><ele>476.0</ele><time>2026-04-12T10:39:53Z</time></trkpt><trkpt lat="38.938384881114864" lon="16.579604053849764"><ele>474.0</ele><time>2026-04-12T10:39:54Z</time></trkpt><trkpt lat="38.93831960717011" lon="16.57973190710651"><ele>472.0</ele><time>2026-04-12T10:39:55Z</time></trkpt><trkpt lat="38.938250247090046" lon="16.579857281116855"><ele>470.0</ele><time>2026-04-12T10:39:56Z</time></trkpt><trkpt lat="38.938201301649165" lon="16.580009911321202"><ele>468.0</ele><time>2026-04-12T10:39:57Z</time></trkpt><trkpt lat="38.93819841438481" lon="16.580192834921885"><ele>471.5</ele><time>2026-04-12T10:39:58Z</time></trkpt><trkpt lat="38.93824840755936" lon="16.58035988392357"><ele>475.0</ele><time>2026-04-12T10:39:59Z</time></trkpt><trkpt lat="38.93828296954031" lon="16.58049502623767"><ele>478.5</ele><time>2026-04-12T10:40:00Z</time></trkpt><trkpt lat="38.93824618280808" lon="16.580621425324292"><ele>482.0</ele><time>2026-04-12T10:40:01Z</time></trkpt><trkpt lat="38.93812958904778" lon="16.580683502757985"><ele>482.0</ele><time>2026-04-12T10:40:02Z</time></trkpt><trkpt lat="38.937978783612785" lon="16.58070606140946"><ele>482.0</ele><time>2026-04-12T10:40:03Z</time></trkpt><trkpt lat="38.937804055789314" lon="16.58074892572051"><ele>482.0</ele><time>2026-04-12T10:40:04Z</time></trkpt><trkpt lat="38.93765315852369" lon="16.580732663952663"><ele>477.75</ele><time>2026-04-12T10:40:05Z</time></trkpt><trkpt lat="38.93750362719553" lon="16.580696208742214"><ele>473.5</ele><time>2026-04-12T10:40:06Z</time></trkpt><trkpt lat="38.93737819424121" lon="16.580676100673603"><ele>469.25</ele><time>2026-04-12T10:40:07Z</time></trkpt><trkpt lat="38.93726714568441" lon="16.580655370575933"><ele>465.0</ele><time>2026-04-12T10:40:08Z</time></trkpt><trkpt lat="38.93716288376757" lon="16.580642937823963"><ele>465.0</ele><time>2026-04-12T10:40:09Z</time></trkpt><trkpt lat="38.93704791633358" lon="16.580623852754186"><ele>465.0</ele><time>2026-04-12T10:40:10Z</time></trkpt><trkpt lat="38.93693334884973" lon="16.580601521349625"><ele>465.0</ele><time>2026-04-12T10:40:11Z</time></trkpt><trkpt lat="38.93681722916364" lon="16.580579467777277"><ele>465.0</ele><time>2026-04-12T10:40:12Z</time></trkpt><trkpt lat="38.936718879701466" lon="16.580555909051075"><ele>465.0</ele><time>2026-04-12T10:40:13Z</time></trkpt><trkpt lat="38.93663676351427" lon="16.580535076409486"><ele>463.4</ele><time>2026-04-12T10:40:14Z</time></trkpt><trkpt lat="38.93655984576103" lon="16.580497762146877"><ele>461.8</ele><time>2026-04-12T10:40:15Z</time></trkpt><trkpt lat="38.93648139374967" lon="16.580444748119675"><ele>460.20000000000005</ele><time>2026-04-12T10:40:16Z</time></trkpt><trkpt lat="38.936390654578226" lon="16.580410166843194"><ele>458.6</ele><time>2026-04-12T10:40:17Z</time></trkpt><trkpt lat="38.936321695711186" lon="16.58030346954942"><ele>457.0</ele><time>2026-04-12T10:40:18Z</time></trkpt><trkpt lat="38.93623394317561" lon="16.5802480431817"><ele>456.00000000000006</ele><time>2026-04-12T10:40:20Z</time></trkpt><trkpt lat="38.93617300797204" lon="16.580208809503702"><ele>455.0</ele><time>2026-04-12T10:40:22Z</time></trkpt><trkpt lat="38.9361342431287" lon="16.58011017276771"><ele>454.0</ele><time>2026-04-12T10:40:25Z</time></trkpt><trkpt lat="38.93607873542229" lon="16.58004182729432"><ele>453.0</ele><time>2026-04-12T10:40:27Z</time></trkpt><trkpt lat="38.93600804414586" lon="16.57995155640393"><ele>452.00000000000006</ele><time>2026-04-12T10:40:29Z</time></trkpt><trkpt lat="38.935957696180616" lon="16.57987913331268"><ele>451.0</ele><time>2026-04-12T10:40:30Z</time></trkpt><trkpt lat="38.93589064515117" lon="16.579788410435434"><ele>453.5</ele><time>2026-04-12T10:40:31Z</time></trkpt><trkpt lat="38.93582284267659" lon="16.579697025909795"><ele>456.0</ele><time>2026-04-12T10:40:32Z</time></trkpt><trkpt lat="38.93574326945811" lon="16.579598882896494"><ele>458.5</ele><time>2026-04-12T10:40:33Z</time></trkpt><trkpt lat="38.93565454901426" lon="16.57948372565397"><ele>461.0</ele><time>2026-04-12T10:40:34Z</time></trkpt><trkpt lat="38.93555755887697" lon="16.579362752404396"><ele>461.0</ele><time>2026-04-12T10:40:35Z</time></trkpt><trkpt lat="38.93546025654684" lon="16.57924869185364"><ele>461.0</ele><time>2026-04-12T10:40:36Z</time></trkpt><trkpt lat="38.9353543408895" lon="16.579127371476417"><ele>461.0</ele><time>2026-04-12T10:40:37Z</time></trkpt><trkpt lat="38.93525846636107" lon="16.579011387888475"><ele>461.0</ele><time>2026-04-12T10:40:38Z</time></trkpt><trkpt lat="38.93516128461248" lon="16.578891906818015"><ele>460.25</ele><time>2026-04-12T10:40:39Z</time></trkpt><trkpt lat="38.935022331056786" lon="16.57886224937632"><ele>459.5</ele><time>2026-04-12T10:40:40Z</time></trkpt><trkpt lat="38.93490532675028" lon="16.578768394919578"><ele>458.75</ele><time>2026-04-12T10:40:41Z</time></trkpt><trkpt lat="38.934779603767566" lon="16.578705274527007"><ele>458.0</ele><time>2026-04-12T10:40:42Z</time></trkpt><trkpt lat="38.93464574155407" lon="16.578642019817057"><ele>458.0</ele><time>2026-04-12T10:40:43Z</time></trkpt><trkpt lat="38.9345144726252" lon="16.57859001261237"><ele>458.0</ele><time>2026-04-12T10:40:44Z</time></trkpt><trkpt lat="38.93438364992019" lon="16.578539817357232"><ele>458.0</ele><time>2026-04-12T10:40:45Z</time></trkpt><trkpt lat="38.934252685674046" lon="16.57849484060022"><ele>458.0</ele><time>2026-04-12T10:40:46Z</time></trkpt><trkpt lat="38.93412185247946" lon="16.578459652394262"><ele>454.75</ele><time>2026-04-12T10:40:47Z</time></trkpt><trkpt lat="38.933996000372765" lon="16.578404541149656"><ele>451.5</ele><time>2026-04-12T10:40:48Z</time></trkpt><trkpt lat="38.933878795447576" lon="16.57836307941685"><ele>448.25</ele><time>2026-04-12T10:40:49Z</time></trkpt><trkpt lat="38.93375145235078" lon="16.578312788633166"><ele>445.0</ele><time>2026-04-12T10:40:50Z</time></trkpt><trkpt lat="38.93361563828273" lon="16.578264182354527"><ele>445.0</ele><time>2026-04-12T10:40:51Z</time></trkpt><trkpt lat="38.93347198050598" lon="16.5782189695747"><ele>445.0</ele><time>2026-04-12T10:40:52Z</time></trkpt><trkpt lat="38.933322129283994" lon="16.578166717822647"><ele>445.0</ele><time>2026-04-12T10:40:53Z</time></trkpt><trkpt lat="38.93317003089877" lon="16.578115034717026"><ele>444.6666666666667</ele><time>2026-04-12T10:40:54Z</time></trkpt><trkpt lat="38.93301553199179" lon="16.578066370629582"><ele>444.33333333333337</ele><time>2026-04-12T10:40:55Z</time></trkpt><trkpt lat="38.93285631452351" lon="16.578029312828484"><ele>444.0</ele><time>2026-04-12T10:40:56Z</time></trkpt><trkpt lat="38.93267906421282" lon="16.57799750348411"><ele>444.0</ele><time>2026-04-12T10:40:57Z</time></trkpt><trkpt lat="38.93250225856152" lon="16.577991906448005"><ele>444.0</ele><time>2026-04-12T10:40:58Z</time></trkpt><trkpt lat="38.932330049474004" lon="16.578006426843398"><ele>444.0</ele><time>2026-04-12T10:40:59Z</time></trkpt><trkpt lat="38.93215858781329" lon="16.57802128552954"><ele>444.0</ele><time>2026-04-12T10:41:00Z</time></trkpt><trkpt lat="38.931990975549354" lon="16.57804926997307"><ele>444.0</ele><time>2026-04-12T10:41:01Z</time></trkpt><trkpt lat="38.93182192026705" lon="16.578088062420825"><ele>444.0</ele><time>2026-04-12T10:41:02Z</time></trkpt><trkpt lat="38.931653946874356" lon="16.578133864366485"><ele>434.66666666666663</ele><time>2026-04-12T10:41:03Z</time></trkpt><trkpt lat="38.931486680509174" lon="16.578178504248346"><ele>425.3333333333333</ele><time>2026-04-12T10:41:04Z</time></trkpt><trkpt lat="38.93131973330024" lon="16.578225991777536"><ele>416.0</ele><time>2026-04-12T10:41:05Z</time></trkpt><trkpt lat="38.931153410563" lon="16.578269467431586"><ele>416.0</ele><time>2026-04-12T10:41:06Z</time></trkpt><trkpt lat="38.930986521012734" lon="16.578312099792544"><ele>416.0</ele><time>2026-04-12T10:41:07Z</time></trkpt><trkpt lat="38.9308189798109" lon="16.578357225365476"><ele>416.0</ele><time>2026-04-12T10:41:08Z</time></trkpt><trkpt lat="38.930652576748514" lon="16.578398799371453"><ele>413.66666666666663</ele><time>2026-04-12T10:41:09Z</time></trkpt><trkpt lat="38.930486869770256" lon="16.578427944627123"><ele>411.33333333333337</ele><time>2026-04-12T10:41:10Z</time></trkpt><trkpt lat="38.93031726501036" lon="16.578437422850314"><ele>409.0</ele><time>2026-04-12T10:41:11Z</time></trkpt><trkpt lat="38.93014625543362" lon="16.578434348538813"><ele>412.6666666666667</ele><time>2026-04-12T10:41:12Z</time></trkpt><trkpt lat="38.92998273180669" lon="16.57839731083249"><ele>416.33333333333337</ele><time>2026-04-12T10:41:13Z</time></trkpt><trkpt lat="38.92981232909846" lon="16.57834522899245"><ele>420.0</ele><time>2026-04-12T10:41:14Z</time></trkpt><trkpt lat="38.92964830668132" lon="16.578267388876217"><ele>420.0</ele><time>2026-04-12T10:41:15Z</time></trkpt><trkpt lat="38.92949502595087" lon="16.578170801406458"><ele>420.0</ele><time>2026-04-12T10:41:16Z</time></trkpt><trkpt lat="38.92934580286109" lon="16.578054786468183"><ele>420.0</ele><time>2026-04-12T10:41:17Z</time></trkpt><trkpt lat="38.92920574978754" lon="16.57792865120166"><ele>418.66666666666663</ele><time>2026-04-12T10:41:18Z</time></trkpt><trkpt lat="38.92907242386278" lon="16.57779431144287"><ele>417.3333333333333</ele><time>2026-04-12T10:41:19Z</time></trkpt><trkpt lat="38.92893570615435" lon="16.577653856983567"><ele>416.0</ele><time>2026-04-12T10:41:20Z</time></trkpt><trkpt lat="38.928805257171234" lon="16.57752034220319"><ele>416.0</ele><time>2026-04-12T10:41:21Z</time></trkpt><trkpt lat="38.92866388799592" lon="16.57737809621011"><ele>416.0</ele><time>2026-04-12T10:41:22Z</time></trkpt><trkpt lat="38.92851446312371" lon="16.57722776298912"><ele>416.0</ele><time>2026-04-12T10:41:23Z</time></trkpt><trkpt lat="38.928360415143445" lon="16.577071841642383"><ele>414.3333333333333</ele><time>2026-04-12T10:41:24Z</time></trkpt><trkpt lat="38.92820531367039" lon="16.576917628623534"><ele>412.66666666666663</ele><time>2026-04-12T10:41:25Z</time></trkpt><trkpt lat="38.928050726221194" lon="16.576762356784656"><ele>411.0</ele><time>2026-04-12T10:41:26Z</time></trkpt><trkpt lat="38.92788771367788" lon="16.576617382956673"><ele>411.0</ele><time>2026-04-12T10:41:27Z</time></trkpt><trkpt lat="38.9276897256748" lon="16.57651430123485"><ele>411.0</ele><time>2026-04-12T10:41:28Z</time></trkpt><trkpt lat="38.927498926184846" lon="16.576410863136918"><ele>411.0</ele><time>2026-04-12T10:41:29Z</time></trkpt><trkpt lat="38.92730762611486" lon="16.576393873003408"><ele>414.33333333333337</ele><time>2026-04-12T10:41:30Z</time></trkpt><trkpt lat="38.92712814033509" lon="16.576403017337142"><ele>417.6666666666667</ele><time>2026-04-12T10:41:31Z</time></trkpt><trkpt lat="38.92696292173052" lon="16.576432762373436"><ele>421.0</ele><time>2026-04-12T10:41:32Z</time></trkpt><trkpt lat="38.926832729393475" lon="16.57646548760677"><ele>418.33333333333337</ele><time>2026-04-12T10:41:33Z</time></trkpt><trkpt lat="38.92671501356233" lon="16.5765030634489"><ele>415.66666666666663</ele><time>2026-04-12T10:41:34Z</time></trkpt><trkpt lat="38.926501293861875" lon="16.576737821985184"><ele>413.0</ele><time>2026-04-12T10:41:35Z</time></trkpt><trkpt lat="38.92637168829334" lon="16.57688023139355"><ele>420.3333333333333</ele><time>2026-04-12T10:41:36Z</time></trkpt><trkpt lat="38.92622820891737" lon="16.577042216935332"><ele>427.66666666666663</ele><time>2026-04-12T10:41:37Z</time></trkpt><trkpt lat="38.92609013164013" lon="16.577228009156176"><ele>435.0</ele><time>2026-04-12T10:41:38Z</time></trkpt><trkpt lat="38.92595395345286" lon="16.577417488280844"><ele>432.33333333333337</ele><time>2026-04-12T10:41:39Z</time></trkpt><trkpt lat="38.92582155953384" lon="16.577599230723997"><ele>429.6666666666667</ele><time>2026-04-12T10:41:40Z</time></trkpt><trkpt lat="38.92569249458475" lon="16.577776044291554"><ele>427.0</ele><time>2026-04-12T10:41:41Z</time></trkpt><trkpt lat="38.92557623811149" lon="16.57795000148995"><ele>427.0</ele><time>2026-04-12T10:41:42Z</time></trkpt><trkpt lat="38.92543117661666" lon="16.57811703497439"><ele>427.0</ele><time>2026-04-12T10:41:43Z</time></trkpt><trkpt lat="38.92529932311979" lon="16.578292872021976"><ele>427.0</ele><time>2026-04-12T10:41:44Z</time></trkpt><trkpt lat="38.92516091190656" lon="16.578466835748028"><ele>427.0</ele><time>2026-04-12T10:41:45Z</time></trkpt><trkpt lat="38.925018501517066" lon="16.57864218804878"><ele>427.0</ele><time>2026-04-12T10:41:46.019Z</time></trkpt><trkpt lat="38.92487629006991" lon="16.578820363219343"><ele>427.0</ele><time>2026-04-12T10:41:47.023Z</time></trkpt><trkpt lat="38.924737844121836" lon="16.57899456846029"><ele>428.0</ele><time>2026-04-12T10:41:48.021Z</time></trkpt><trkpt lat="38.924597606389774" lon="16.57917415775133"><ele>429.0</ele><time>2026-04-12T10:41:49.02Z</time></trkpt><trkpt lat="38.92446037680149" lon="16.579352652992878"><ele>430.0</ele><time>2026-04-12T10:41:50.016Z</time></trkpt><trkpt lat="38.92431375057396" lon="16.579526723978606"><ele>425.5</ele><time>2026-04-12T10:41:51.018Z</time></trkpt><trkpt lat="38.924168982374795" lon="16.57970059639952"><ele>421.0</ele><time>2026-04-12T10:41:52.022Z</time></trkpt><trkpt lat="38.923489884509635" lon="16.580558996663036"><ele>418.33333333333337</ele><time>2026-04-12T10:41:57Z</time></trkpt><trkpt lat="38.92335823410449" lon="16.580721435254713"><ele>415.66666666666663</ele><time>2026-04-12T10:41:58Z</time></trkpt><trkpt lat="38.92315200125544" lon="16.580667541210648"><ele>413.0</ele><time>2026-04-12T10:41:59Z</time></trkpt><trkpt lat="38.923022824432195" lon="16.580778820291695"><ele>413.0</ele><time>2026-04-12T10:42:00Z</time></trkpt><trkpt lat="38.92284197874266" lon="16.580762784375537"><ele>413.0</ele><time>2026-04-12T10:42:01Z</time></trkpt><trkpt lat="38.92267660413028" lon="16.580765670702032"><ele>413.0</ele><time>2026-04-12T10:42:02Z</time></trkpt><trkpt lat="38.92251024549825" lon="16.580776454355334"><ele>411.3333333333333</ele><time>2026-04-12T10:42:03Z</time></trkpt><trkpt lat="38.92235578224693" lon="16.58077548091827"><ele>409.66666666666663</ele><time>2026-04-12T10:42:04Z</time></trkpt><trkpt lat="38.9221926707127" lon="16.580765012854975"><ele>408.0</ele><time>2026-04-12T10:42:05Z</time></trkpt><trkpt lat="38.92201743722746" lon="16.580762081584655"><ele>408.0</ele><time>2026-04-12T10:42:06Z</time></trkpt><trkpt lat="38.9218500685027" lon="16.580764777091492"><ele>408.0</ele><time>2026-04-12T10:42:07Z</time></trkpt><trkpt lat="38.92168590334172" lon="16.580744938606657"><ele>408.0</ele><time>2026-04-12T10:42:08Z</time></trkpt><trkpt lat="38.92152468016311" lon="16.580745901344446"><ele>405.0</ele><time>2026-04-12T10:42:09Z</time></trkpt><trkpt lat="38.92136977351339" lon="16.580706634203633"><ele>402.0</ele><time>2026-04-12T10:42:10Z</time></trkpt><trkpt lat="38.921198895353065" lon="16.580629652034546"><ele>399.0</ele><time>2026-04-12T10:42:11Z</time></trkpt><trkpt lat="38.92104215686415" lon="16.580520597130178"><ele>399.0</ele><time>2026-04-12T10:42:12Z</time></trkpt><trkpt lat="38.92090451165032" lon="16.580381423903944"><ele>399.0</ele><time>2026-04-12T10:42:13Z</time></trkpt><trkpt lat="38.92078547613666" lon="16.58020855461999"><ele>399.0</ele><time>2026-04-12T10:42:14Z</time></trkpt><trkpt lat="38.92068840331663" lon="16.580007613139326"><ele>396.33333333333337</ele><time>2026-04-12T10:42:15Z</time></trkpt><trkpt lat="38.92061232505461" lon="16.579786107527447"><ele>393.6666666666667</ele><time>2026-04-12T10:42:16Z</time></trkpt><trkpt lat="38.92055048126388" lon="16.57956781490482"><ele>391.0</ele><time>2026-04-12T10:42:17Z</time></trkpt><trkpt lat="38.92048139694844" lon="16.579344066856375"><ele>383.6666666666667</ele><time>2026-04-12T10:42:18Z</time></trkpt><trkpt lat="38.92039369519423" lon="16.579138485185887"><ele>376.33333333333337</ele><time>2026-04-12T10:42:19Z</time></trkpt><trkpt lat="38.92028081443491" lon="16.578951660858504"><ele>369.0</ele><time>2026-04-12T10:42:20Z</time></trkpt><trkpt lat="38.92015194662243" lon="16.578787369191584"><ele>365.3333333333333</ele><time>2026-04-12T10:42:21Z</time></trkpt><trkpt lat="38.92001054711124" lon="16.578645896450748"><ele>361.66666666666663</ele><time>2026-04-12T10:42:22Z</time></trkpt><trkpt lat="38.91985375974221" lon="16.57854098346432"><ele>358.0</ele><time>2026-04-12T10:42:23Z</time></trkpt><trkpt lat="38.919680749467965" lon="16.578466213615403"><ele>358.0</ele><time>2026-04-12T10:42:24Z</time></trkpt><trkpt lat="38.91949522565519" lon="16.578424603133108"><ele>358.0</ele><time>2026-04-12T10:42:25Z</time></trkpt><trkpt lat="38.91931857211916" lon="16.578418605465792"><ele>358.0</ele><time>2026-04-12T10:42:26Z</time></trkpt><trkpt lat="38.91914233366915" lon="16.578446434769585"><ele>361.3333333333333</ele><time>2026-04-12T10:42:27Z</time></trkpt><trkpt lat="38.91896489546915" lon="16.578486895516505"><ele>364.6666666666667</ele><time>2026-04-12T10:42:28Z</time></trkpt><trkpt lat="38.918784531083965" lon="16.57854093115033"><ele>368.0</ele><time>2026-04-12T10:42:29Z</time></trkpt><trkpt lat="38.91861099331186" lon="16.578580389286614"><ele>368.0</ele><time>2026-04-12T10:42:30Z</time></trkpt><trkpt lat="38.918444107349686" lon="16.578619701172382"><ele>368.0</ele><time>2026-04-12T10:42:31Z</time></trkpt><trkpt lat="38.918271253336506" lon="16.57865952845069"><ele>368.0</ele><time>2026-04-12T10:42:32Z</time></trkpt><trkpt lat="38.91809883445776" lon="16.57869345800121"><ele>371.6666666666667</ele><time>2026-04-12T10:42:33Z</time></trkpt><trkpt lat="38.91792413682123" lon="16.5787303176855"><ele>375.3333333333333</ele><time>2026-04-12T10:42:34Z</time></trkpt><trkpt lat="38.91774875174602" lon="16.57876868633453"><ele>379.0</ele><time>2026-04-12T10:42:35Z</time></trkpt><trkpt lat="38.91758052086051" lon="16.57879938446569"><ele>375.0</ele><time>2026-04-12T10:42:36Z</time></trkpt><trkpt lat="38.91741346007939" lon="16.578809545045146"><ele>371.0</ele><time>2026-04-12T10:42:37Z</time></trkpt><trkpt lat="38.917240889320006" lon="16.57879665300278"><ele>367.0</ele><time>2026-04-12T10:42:38Z</time></trkpt><trkpt lat="38.917073110775135" lon="16.57875283594233"><ele>367.0</ele><time>2026-04-12T10:42:39Z</time></trkpt><trkpt lat="38.91691124731533" lon="16.578702994633165"><ele>367.0</ele><time>2026-04-12T10:42:40Z</time></trkpt><trkpt lat="38.91676628832358" lon="16.5786014935352"><ele>367.0</ele><time>2026-04-12T10:42:41Z</time></trkpt><trkpt lat="38.91664561293113" lon="16.57851855163693"><ele>361.0</ele><time>2026-04-12T10:42:42Z</time></trkpt><trkpt lat="38.916517992210764" lon="16.578393018583025"><ele>355.0</ele><time>2026-04-12T10:42:43Z</time></trkpt><trkpt lat="38.91639752095232" lon="16.578250324959075"><ele>349.0</ele><time>2026-04-12T10:42:44Z</time></trkpt><trkpt lat="38.916277235606174" lon="16.57811608309867"><ele>349.0</ele><time>2026-04-12T10:42:45Z</time></trkpt><trkpt lat="38.91614827864418" lon="16.577983978733833"><ele>349.0</ele><time>2026-04-12T10:42:46Z</time></trkpt><trkpt lat="38.916021519265726" lon="16.577840964374595"><ele>349.0</ele><time>2026-04-12T10:42:47Z</time></trkpt><trkpt lat="38.91592942524985" lon="16.57771583559372"><ele>332.0</ele><time>2026-04-12T10:42:48Z</time></trkpt><trkpt lat="38.91578882623924" lon="16.577562193334977"><ele>315.0</ele><time>2026-04-12T10:42:49Z</time></trkpt><trkpt lat="38.91566302634545" lon="16.57741232315588"><ele>298.0</ele><time>2026-04-12T10:42:50Z</time></trkpt><trkpt lat="38.915535342467535" lon="16.577266050234392"><ele>298.0</ele><time>2026-04-12T10:42:51Z</time></trkpt><trkpt lat="38.9154026817012" lon="16.577118477338043"><ele>298.0</ele><time>2026-04-12T10:42:52Z</time></trkpt><trkpt lat="38.91526617705" lon="16.576971065349124"><ele>298.0</ele><time>2026-04-12T10:42:53Z</time></trkpt><trkpt lat="38.915127624862535" lon="16.57681432522686"><ele>278.3333333333333</ele><time>2026-04-12T10:42:54Z</time></trkpt><trkpt lat="38.91498910699722" lon="16.576656054886797"><ele>258.6666666666667</ele><time>2026-04-12T10:42:55Z</time></trkpt><trkpt lat="38.91484650805413" lon="16.576493864688956"><ele>239.0</ele><time>2026-04-12T10:42:56Z</time></trkpt><trkpt lat="38.91470475099525" lon="16.576333400401868"><ele>239.66666666666669</ele><time>2026-04-12T10:42:57Z</time></trkpt><trkpt lat="38.91455943443437" lon="16.576175335373566"><ele>240.33333333333331</ele><time>2026-04-12T10:42:58Z</time></trkpt><trkpt lat="38.91441887346481" lon="16.57602381664546"><ele>241.0</ele><time>2026-04-12T10:42:59Z</time></trkpt><trkpt lat="38.91428076573606" lon="16.575865155986197"><ele>246.0</ele><time>2026-04-12T10:43:00Z</time></trkpt><trkpt lat="38.914151231649996" lon="16.575717972936978"><ele>251.0</ele><time>2026-04-12T10:43:01Z</time></trkpt><trkpt lat="38.91401940307437" lon="16.57557389470944"><ele>256.0</ele><time>2026-04-12T10:43:02Z</time></trkpt><trkpt lat="38.91384355463116" lon="16.575421664428003"><ele>264.66666666666663</ele><time>2026-04-12T10:43:03Z</time></trkpt><trkpt lat="38.91374360543784" lon="16.57529018956819"><ele>273.3333333333333</ele><time>2026-04-12T10:43:04Z</time></trkpt><trkpt lat="38.91362499991652" lon="16.575156108519074"><ele>282.0</ele><time>2026-04-12T10:43:05Z</time></trkpt><trkpt lat="38.91350670237676" lon="16.57502531079112"><ele>290.3333333333333</ele><time>2026-04-12T10:43:06Z</time></trkpt><trkpt lat="38.91338811239347" lon="16.574896912080337"><ele>298.66666666666663</ele><time>2026-04-12T10:43:07Z</time></trkpt><trkpt lat="38.91327175408428" lon="16.57476425893893"><ele>307.0</ele><time>2026-04-12T10:43:08Z</time></trkpt><trkpt lat="38.91316015233112" lon="16.57462490795365"><ele>313.0</ele><time>2026-04-12T10:43:09Z</time></trkpt><trkpt lat="38.91304008931787" lon="16.57448586834073"><ele>319.0</ele><time>2026-04-12T10:43:10Z</time></trkpt><trkpt lat="38.91288630227091" lon="16.57431650137126"><ele>325.0</ele><time>2026-04-12T10:43:11Z</time></trkpt><trkpt lat="38.91272874444366" lon="16.57416427416935"><ele>325.66666666666663</ele><time>2026-04-12T10:43:12Z</time></trkpt><trkpt lat="38.91256476003513" lon="16.574026138788472"><ele>326.3333333333333</ele><time>2026-04-12T10:43:13Z</time></trkpt><trkpt lat="38.91241194458246" lon="16.573951430064863"><ele>327.0</ele><time>2026-04-12T10:43:14Z</time></trkpt><trkpt lat="38.91224173677607" lon="16.573872505511044"><ele>327.0</ele><time>2026-04-12T10:43:15Z</time></trkpt><trkpt lat="38.91207333399077" lon="16.57382556338143"><ele>327.0</ele><time>2026-04-12T10:43:16Z</time></trkpt><trkpt lat="38.91192881541805" lon="16.573799629253717"><ele>327.0</ele><time>2026-04-12T10:43:17Z</time></trkpt><trkpt lat="38.91170990719294" lon="16.573749169225966"><ele>324.3333333333333</ele><time>2026-04-12T10:43:18Z</time></trkpt><trkpt lat="38.911514134606804" lon="16.573680840435134"><ele>321.66666666666663</ele><time>2026-04-12T10:43:19Z</time></trkpt><trkpt lat="38.911325271187756" lon="16.57363351521469"><ele>319.0</ele><time>2026-04-12T10:43:20Z</time></trkpt><trkpt lat="38.91113970236269" lon="16.57359032223424"><ele>319.0</ele><time>2026-04-12T10:43:21Z</time></trkpt><trkpt lat="38.91095947848515" lon="16.573551100019376"><ele>319.0</ele><time>2026-04-12T10:43:22Z</time></trkpt><trkpt lat="38.910779502812105" lon="16.573508598188983"><ele>319.0</ele><time>2026-04-12T10:43:23Z</time></trkpt><trkpt lat="38.910596905632396" lon="16.57346562011963"><ele>317.66666666666663</ele><time>2026-04-12T10:43:24Z</time></trkpt><trkpt lat="38.91041520197857" lon="16.573421922030814"><ele>316.3333333333333</ele><time>2026-04-12T10:43:25Z</time></trkpt><trkpt lat="38.910236174615434" lon="16.57338061194325"><ele>315.0</ele><time>2026-04-12T10:43:26Z</time></trkpt><trkpt lat="38.9100569025944" lon="16.573345036749668"><ele>315.0</ele><time>2026-04-12T10:43:27Z</time></trkpt><trkpt lat="38.90987884643835" lon="16.57330859490529"><ele>315.0</ele><time>2026-04-12T10:43:28Z</time></trkpt><trkpt lat="38.90970022435379" lon="16.57327367954384"><ele>315.0</ele><time>2026-04-12T10:43:29Z</time></trkpt><trkpt lat="38.90951556575907" lon="16.5732469734922"><ele>315.0</ele><time>2026-04-12T10:43:30Z</time></trkpt><trkpt lat="38.90933308015292" lon="16.573209624407884"><ele>315.0</ele><time>2026-04-12T10:43:31Z</time></trkpt><trkpt lat="38.909159713756836" lon="16.573275925411167"><ele>315.0</ele><time>2026-04-12T10:43:32Z</time></trkpt><trkpt lat="38.908983578497605" lon="16.57332123319096"><ele>314.0</ele><time>2026-04-12T10:43:33Z</time></trkpt><trkpt lat="38.90880719482797" lon="16.573387883439704"><ele>313.0</ele><time>2026-04-12T10:43:34Z</time></trkpt><trkpt lat="38.908629428147556" lon="16.57346659436295"><ele>312.0</ele><time>2026-04-12T10:43:35Z</time></trkpt><trkpt lat="38.90846864812535" lon="16.573567111286142"><ele>309.0</ele><time>2026-04-12T10:43:36Z</time></trkpt><trkpt lat="38.908311596131405" lon="16.573690723841725"><ele>306.0</ele><time>2026-04-12T10:43:37Z</time></trkpt><trkpt lat="38.90815671522369" lon="16.573827672437787"><ele>303.0</ele><time>2026-04-12T10:43:38Z</time></trkpt><trkpt lat="38.90800996742173" lon="16.57397407944786"><ele>303.0</ele><time>2026-04-12T10:43:39Z</time></trkpt><trkpt lat="38.907865359189444" lon="16.57413500786514"><ele>303.0</ele><time>2026-04-12T10:43:40Z</time></trkpt><trkpt lat="38.90773061426223" lon="16.574304715307555"><ele>303.0</ele><time>2026-04-12T10:43:41Z</time></trkpt><trkpt lat="38.90760586935825" lon="16.574477434765964"><ele>302.0</ele><time>2026-04-12T10:43:42Z</time></trkpt><trkpt lat="38.907452680207875" lon="16.57464026580363"><ele>301.0</ele><time>2026-04-12T10:43:43Z</time></trkpt><trkpt lat="38.90730594131748" lon="16.57480150644319"><ele>300.0</ele><time>2026-04-12T10:43:44Z</time></trkpt><trkpt lat="38.90716381893812" lon="16.574957956453453"><ele>300.0</ele><time>2026-04-12T10:43:45Z</time></trkpt><trkpt lat="38.90701491969197" lon="16.5751040275713"><ele>300.0</ele><time>2026-04-12T10:43:46Z</time></trkpt><trkpt lat="38.906858647634785" lon="16.575229244515764"><ele>300.0</ele><time>2026-04-12T10:43:47Z</time></trkpt><trkpt lat="38.906695720654945" lon="16.575333927812363"><ele>302.6666666666667</ele><time>2026-04-12T10:43:48Z</time></trkpt><trkpt lat="38.906540048640046" lon="16.575425258021713"><ele>305.33333333333337</ele><time>2026-04-12T10:43:49Z</time></trkpt><trkpt lat="38.90638645932851" lon="16.575504898953984"><ele>308.0</ele><time>2026-04-12T10:43:50Z</time></trkpt><trkpt lat="38.90623467730662" lon="16.575585584007577"><ele>308.0</ele><time>2026-04-12T10:43:51Z</time></trkpt><trkpt lat="38.90608307289577" lon="16.57566309041105"><ele>308.0</ele><time>2026-04-12T10:43:52Z</time></trkpt><trkpt lat="38.905933315733364" lon="16.575739845931874"><ele>308.0</ele><time>2026-04-12T10:43:53Z</time></trkpt><trkpt lat="38.90578664005544" lon="16.57581994248254"><ele>308.0</ele><time>2026-04-12T10:43:54Z</time></trkpt><trkpt lat="38.90565155409452" lon="16.575898785403158"><ele>308.0</ele><time>2026-04-12T10:43:55Z</time></trkpt><trkpt lat="38.905527523269505" lon="16.57599420611692"><ele>308.0</ele><time>2026-04-12T10:43:56Z</time></trkpt><trkpt lat="38.9054167088634" lon="16.576114069266428"><ele>308.0</ele><time>2026-04-12T10:43:57Z</time></trkpt><trkpt lat="38.9053190233251" lon="16.576252711447435"><ele>308.0</ele><time>2026-04-12T10:43:58Z</time></trkpt><trkpt lat="38.90522818775512" lon="16.576397170572104"><ele>308.0</ele><time>2026-04-12T10:43:59Z</time></trkpt><trkpt lat="38.905154979298395" lon="16.576560403811214"><ele>308.0</ele><time>2026-04-12T10:44:00Z</time></trkpt><trkpt lat="38.90509604195017" lon="16.576748676415175"><ele>308.0</ele><time>2026-04-12T10:44:01Z</time></trkpt><trkpt lat="38.90505960695776" lon="16.576955373349726"><ele>309.6666666666667</ele><time>2026-04-12T10:44:02Z</time></trkpt><trkpt lat="38.905048486844734" lon="16.57716302801042"><ele>311.3333333333333</ele><time>2026-04-12T10:44:03Z</time></trkpt><trkpt lat="38.9050618038536" lon="16.577360732647"><ele>313.0</ele><time>2026-04-12T10:44:04Z</time></trkpt><trkpt lat="38.905097706320035" lon="16.577533829942286"><ele>313.0</ele><time>2026-04-12T10:44:05Z</time></trkpt><trkpt lat="38.90513826675114" lon="16.577718646034207"><ele>313.0</ele><time>2026-04-12T10:44:06Z</time></trkpt><trkpt lat="38.905219855491445" lon="16.577856481080573"><ele>313.0</ele><time>2026-04-12T10:44:07Z</time></trkpt><trkpt lat="38.90524077692975" lon="16.577997250874972"><ele>313.0</ele><time>2026-04-12T10:44:08Z</time></trkpt><trkpt lat="38.90528814616488" lon="16.578110034745286"><ele>312.5</ele><time>2026-04-12T10:44:09Z</time></trkpt><trkpt lat="38.905319644788264" lon="16.578199910994304"><ele>312.0</ele><time>2026-04-12T10:44:10Z</time></trkpt><trkpt lat="38.90534713765142" lon="16.57830608233329"><ele>311.5</ele><time>2026-04-12T10:44:11Z</time></trkpt><trkpt lat="38.90531445662705" lon="16.57839743511969"><ele>311.0</ele><time>2026-04-12T10:44:13Z</time></trkpt><trkpt lat="38.90523947787729" lon="16.578408221556227"><ele>310.5</ele><time>2026-04-12T10:44:15Z</time></trkpt><trkpt lat="38.90529853394074" lon="16.578501407561895"><ele>310.0</ele><time>2026-04-12T10:44:16Z</time></trkpt><trkpt lat="38.9053281044082" lon="16.57861629494634"><ele>309.5</ele><time>2026-04-12T10:44:17Z</time></trkpt><trkpt lat="38.905345236192105" lon="16.578714074031183"><ele>309.0</ele><time>2026-04-12T10:44:18Z</time></trkpt><trkpt lat="38.90527741199558" lon="16.578824464194962"><ele>308.5</ele><time>2026-04-12T10:44:20Z</time></trkpt><trkpt lat="38.90526464090874" lon="16.578916804617236"><ele>308.0</ele><time>2026-04-12T10:44:21Z</time></trkpt><trkpt lat="38.90524904762128" lon="16.57902250396159"><ele>307.5</ele><time>2026-04-12T10:44:22Z</time></trkpt><trkpt lat="38.90523013122151" lon="16.57913132305928"><ele>307.0</ele><time>2026-04-12T10:44:23Z</time></trkpt><trkpt lat="38.905215071304426" lon="16.579220139453344"><ele>307.0</ele><time>2026-04-12T10:44:24Z</time></trkpt><trkpt lat="38.905188714975594" lon="16.579356560261967"><ele>307.0</ele><time>2026-04-12T10:44:26Z</time></trkpt><trkpt lat="38.905150767433625" lon="16.57951127227067"><ele>307.0</ele><time>2026-04-12T10:44:28Z</time></trkpt><trkpt lat="38.90513039169653" lon="16.579594261791485"><ele>307.0</ele><time>2026-04-12T10:44:29Z</time></trkpt><trkpt lat="38.90508317201402" lon="16.5797349899825"><ele>307.0</ele><time>2026-04-12T10:44:31Z</time></trkpt><trkpt lat="38.90506279138294" lon="16.579814146998178"><ele>307.2</ele><time>2026-04-12T10:44:32Z</time></trkpt><trkpt lat="38.90503934873054" lon="16.579890306336832"><ele>307.4</ele><time>2026-04-12T10:44:33Z</time></trkpt><trkpt lat="38.90499424801985" lon="16.58005165744952"><ele>307.6</ele><time>2026-04-12T10:44:35Z</time></trkpt><trkpt lat="38.90495501514836" lon="16.58018157479328"><ele>307.8</ele><time>2026-04-12T10:44:37Z</time></trkpt><trkpt lat="38.904920191661965" lon="16.580291122895492"><ele>308.0</ele><time>2026-04-12T10:44:39Z</time></trkpt><trkpt lat="38.904891350225945" lon="16.580391944055506"><ele>306.83333333333337</ele><time>2026-04-12T10:44:41Z</time></trkpt><trkpt lat="38.90484830945128" lon="16.58050937382921"><ele>305.6666666666667</ele><time>2026-04-12T10:44:43Z</time></trkpt><trkpt lat="38.904808216301994" lon="16.58063147728504"><ele>304.5</ele><time>2026-04-12T10:44:45Z</time></trkpt><trkpt lat="38.90476969808922" lon="16.580748970852888"><ele>303.3333333333333</ele><time>2026-04-12T10:44:47Z</time></trkpt><trkpt lat="38.90473188034615" lon="16.580818857485717"><ele>302.16666666666663</ele><time>2026-04-12T10:44:48Z</time></trkpt><trkpt lat="38.9046868953372" lon="16.580886708903858"><ele>301.0</ele><time>2026-04-12T10:44:49Z</time></trkpt><trkpt lat="38.90460471863282" lon="16.580985407576392"><ele>301.0</ele><time>2026-04-12T10:44:51Z</time></trkpt><trkpt lat="38.90454935999817" lon="16.581051534025015"><ele>301.0</ele><time>2026-04-12T10:44:52Z</time></trkpt><trkpt lat="38.90448013323477" lon="16.58111679467856"><ele>301.0</ele><time>2026-04-12T10:44:53Z</time></trkpt><trkpt lat="38.90440345514017" lon="16.581191759308755"><ele>301.0</ele><time>2026-04-12T10:44:54Z</time></trkpt><trkpt lat="38.904304279709734" lon="16.581255015194625"><ele>301.0</ele><time>2026-04-12T10:44:55Z</time></trkpt><trkpt lat="38.904220918254396" lon="16.581351424120694"><ele>300.5</ele><time>2026-04-12T10:44:56Z</time></trkpt><trkpt lat="38.904122089073375" lon="16.581433775949076"><ele>300.0</ele><time>2026-04-12T10:44:57Z</time></trkpt><trkpt lat="38.90402174962498" lon="16.58151991757615"><ele>299.5</ele><time>2026-04-12T10:44:58Z</time></trkpt><trkpt lat="38.90393327715006" lon="16.581603947479334"><ele>299.0</ele><time>2026-04-12T10:44:59Z</time></trkpt><trkpt lat="38.90383707377101" lon="16.581686678187783"><ele>299.0</ele><time>2026-04-12T10:45:00Z</time></trkpt><trkpt lat="38.90374250283506" lon="16.581768929462942"><ele>299.0</ele><time>2026-04-12T10:45:01Z</time></trkpt><trkpt lat="38.90365038445317" lon="16.581850121264498"><ele>299.0</ele><time>2026-04-12T10:45:02Z</time></trkpt><trkpt lat="38.90355421881122" lon="16.581934203278088"><ele>299.0</ele><time>2026-04-12T10:45:03Z</time></trkpt><trkpt lat="38.903465125705466" lon="16.582016709602815"><ele>296.25</ele><time>2026-04-12T10:45:04Z</time></trkpt><trkpt lat="38.90336912488273" lon="16.582087622433622"><ele>293.5</ele><time>2026-04-12T10:45:05Z</time></trkpt><trkpt lat="38.903286320291414" lon="16.582188092309636"><ele>290.75</ele><time>2026-04-12T10:45:06Z</time></trkpt><trkpt lat="38.90318513228431" lon="16.582270061036677"><ele>288.0</ele><time>2026-04-12T10:45:07Z</time></trkpt><trkpt lat="38.903083613016626" lon="16.582358508905735"><ele>288.0</ele><time>2026-04-12T10:45:08Z</time></trkpt><trkpt lat="38.90297512962701" lon="16.582454773310825"><ele>288.0</ele><time>2026-04-12T10:45:09Z</time></trkpt><trkpt lat="38.902872297927665" lon="16.58254444545838"><ele>288.0</ele><time>2026-04-12T10:45:10Z</time></trkpt><trkpt lat="38.902769550278144" lon="16.58264430105782"><ele>288.0</ele><time>2026-04-12T10:45:11Z</time></trkpt><trkpt lat="38.90265504165516" lon="16.58272759468272"><ele>287.0</ele><time>2026-04-12T10:45:12Z</time></trkpt><trkpt lat="38.90254714333972" lon="16.58282644055028"><ele>286.0</ele><time>2026-04-12T10:45:13Z</time></trkpt><trkpt lat="38.90245576301549" lon="16.5829420966159"><ele>285.0</ele><time>2026-04-12T10:45:14Z</time></trkpt><trkpt lat="38.902320457738945" lon="16.5830294260529"><ele>284.0</ele><time>2026-04-12T10:45:15Z</time></trkpt><trkpt lat="38.90219782565291" lon="16.583127082590057"><ele>283.5</ele><time>2026-04-12T10:45:16Z</time></trkpt><trkpt lat="38.902072401078506" lon="16.583230912612333"><ele>283.0</ele><time>2026-04-12T10:45:17Z</time></trkpt><trkpt lat="38.90194658993661" lon="16.583334917306164"><ele>282.5</ele><time>2026-04-12T10:45:18Z</time></trkpt><trkpt lat="38.901827377829555" lon="16.583441599778425"><ele>282.0</ele><time>2026-04-12T10:45:19Z</time></trkpt><trkpt lat="38.90171195314936" lon="16.58354425640637"><ele>282.0</ele><time>2026-04-12T10:45:20Z</time></trkpt><trkpt lat="38.90159048519134" lon="16.583635909204695"><ele>282.0</ele><time>2026-04-12T10:45:21Z</time></trkpt><trkpt lat="38.901479593906195" lon="16.583730960854506"><ele>282.0</ele><time>2026-04-12T10:45:22Z</time></trkpt><trkpt lat="38.90136588638551" lon="16.583820895346026"><ele>282.0</ele><time>2026-04-12T10:45:23Z</time></trkpt><trkpt lat="38.90124886430135" lon="16.583925503115676"><ele>280.25</ele><time>2026-04-12T10:45:24Z</time></trkpt><trkpt lat="38.901136122000416" lon="16.58402174326195"><ele>278.5</ele><time>2026-04-12T10:45:25Z</time></trkpt><trkpt lat="38.90102246019474" lon="16.584106471055062"><ele>276.75</ele><time>2026-04-12T10:45:26Z</time></trkpt><trkpt lat="38.9009216354169" lon="16.58422193670373"><ele>275.0</ele><time>2026-04-12T10:45:27Z</time></trkpt><trkpt lat="38.90080191992942" lon="16.58430458018331"><ele>275.0</ele><time>2026-04-12T10:45:28Z</time></trkpt><trkpt lat="38.900690634000014" lon="16.584397635255534"><ele>275.0</ele><time>2026-04-12T10:45:29Z</time></trkpt><trkpt lat="38.90058256709996" lon="16.58448207650417"><ele>275.0</ele><time>2026-04-12T10:45:30Z</time></trkpt><trkpt lat="38.900477183569045" lon="16.584554704751586"><ele>275.0</ele><time>2026-04-12T10:45:31Z</time></trkpt><trkpt lat="38.900364840152264" lon="16.58463048223488"><ele>271.75</ele><time>2026-04-12T10:45:32Z</time></trkpt><trkpt lat="38.90023976659181" lon="16.584647869941115"><ele>268.5</ele><time>2026-04-12T10:45:33Z</time></trkpt><trkpt lat="38.900107058929976" lon="16.58464794403821"><ele>265.25</ele><time>2026-04-12T10:45:34Z</time></trkpt><trkpt lat="38.89997198069811" lon="16.584631107228034"><ele>262.0</ele><time>2026-04-12T10:45:35Z</time></trkpt><trkpt lat="38.899836908676455" lon="16.584572463061136"><ele>265.75</ele><time>2026-04-12T10:45:36Z</time></trkpt><trkpt lat="38.89970912355194" lon="16.5844931390479"><ele>269.5</ele><time>2026-04-12T10:45:37Z</time></trkpt><trkpt lat="38.899582260851716" lon="16.584393276117385"><ele>273.25</ele><time>2026-04-12T10:45:38Z</time></trkpt><trkpt lat="38.89946308931577" lon="16.5842733818493"><ele>277.0</ele><time>2026-04-12T10:45:39Z</time></trkpt><trkpt lat="38.899338162592116" lon="16.584148110768055"><ele>271.66666666666663</ele><time>2026-04-12T10:45:40Z</time></trkpt><trkpt lat="38.89920737334306" lon="16.584029849750586"><ele>266.3333333333333</ele><time>2026-04-12T10:45:41Z</time></trkpt><trkpt lat="38.89906537384837" lon="16.583907440065186"><ele>261.0</ele><time>2026-04-12T10:45:42Z</time></trkpt><trkpt lat="38.89894034270731" lon="16.583820428919733"><ele>261.0</ele><time>2026-04-12T10:45:43Z</time></trkpt><trkpt lat="38.89880194119395" lon="16.58375672537122"><ele>261.0</ele><time>2026-04-12T10:45:44Z</time></trkpt><trkpt lat="38.898655430224224" lon="16.583706305665412"><ele>261.0</ele><time>2026-04-12T10:45:45Z</time></trkpt><trkpt lat="38.8985063485284" lon="16.583701471007977"><ele>261.0</ele><time>2026-04-12T10:45:46Z</time></trkpt><trkpt lat="38.898372870063675" lon="16.583731388272458"><ele>259.0</ele><time>2026-04-12T10:45:47Z</time></trkpt><trkpt lat="38.89824183518971" lon="16.58379764013417"><ele>257.0</ele><time>2026-04-12T10:45:48Z</time></trkpt><trkpt lat="38.898117734653304" lon="16.583880351890457"><ele>255.0</ele><time>2026-04-12T10:45:49Z</time></trkpt><trkpt lat="38.898003961223004" lon="16.583987669846618"><ele>253.0</ele><time>2026-04-12T10:45:50Z</time></trkpt><trkpt lat="38.89790503854466" lon="16.58411785602955"><ele>253.0</ele><time>2026-04-12T10:45:51Z</time></trkpt><trkpt lat="38.897817805784946" lon="16.584271772143634"><ele>253.0</ele><time>2026-04-12T10:45:52Z</time></trkpt><trkpt lat="38.89773513274014" lon="16.584430579402227"><ele>253.0</ele><time>2026-04-12T10:45:53Z</time></trkpt><trkpt lat="38.89764206313084" lon="16.584597197452947"><ele>250.0</ele><time>2026-04-12T10:45:54Z</time></trkpt><trkpt lat="38.89756084533178" lon="16.58476135971997"><ele>247.0</ele><time>2026-04-12T10:45:55Z</time></trkpt><trkpt lat="38.89747349249649" lon="16.584923049863395"><ele>244.0</ele><time>2026-04-12T10:45:56Z</time></trkpt><trkpt lat="38.89739498928482" lon="16.5850842050081"><ele>244.0</ele><time>2026-04-12T10:45:57Z</time></trkpt><trkpt lat="38.897306095338664" lon="16.585237127064335"><ele>244.0</ele><time>2026-04-12T10:45:58Z</time></trkpt><trkpt lat="38.897201649697706" lon="16.5853952029789"><ele>244.0</ele><time>2026-04-12T10:45:59Z</time></trkpt><trkpt lat="38.89711420724238" lon="16.585548813517075"><ele>242.66666666666666</ele><time>2026-04-12T10:46:00Z</time></trkpt><trkpt lat="38.896999333627335" lon="16.585692764741047"><ele>241.33333333333331</ele><time>2026-04-12T10:46:01Z</time></trkpt><trkpt lat="38.89687040703206" lon="16.58581907978737"><ele>240.0</ele><time>2026-04-12T10:46:02Z</time></trkpt><trkpt lat="38.89673506589081" lon="16.585932257242984"><ele>240.0</ele><time>2026-04-12T10:46:03Z</time></trkpt><trkpt lat="38.896578645499645" lon="16.58602419029884"><ele>240.0</ele><time>2026-04-12T10:46:04Z</time></trkpt><trkpt lat="38.89642921862324" lon="16.586112067138817"><ele>240.0</ele><time>2026-04-12T10:46:05Z</time></trkpt><trkpt lat="38.89628016449382" lon="16.586195667143745"><ele>237.66666666666669</ele><time>2026-04-12T10:46:06Z</time></trkpt><trkpt lat="38.89612939147725" lon="16.5862804258961"><ele>235.33333333333334</ele><time>2026-04-12T10:46:07Z</time></trkpt><trkpt lat="38.895983296637766" lon="16.58636448102226"><ele>233.0</ele><time>2026-04-12T10:46:08Z</time></trkpt><trkpt lat="38.89583411513546" lon="16.58644879784889"><ele>233.0</ele><time>2026-04-12T10:46:09Z</time></trkpt><trkpt lat="38.89568611687835" lon="16.58653239570623"><ele>233.0</ele><time>2026-04-12T10:46:10Z</time></trkpt><trkpt lat="38.895549199421545" lon="16.586608912965595"><ele>233.0</ele><time>2026-04-12T10:46:11Z</time></trkpt><trkpt lat="38.8954176781851" lon="16.58669574484747"><ele>233.0</ele><time>2026-04-12T10:46:12Z</time></trkpt><trkpt lat="38.89528936931321" lon="16.586814850818325"><ele>233.0</ele><time>2026-04-12T10:46:13Z</time></trkpt><trkpt lat="38.895171531979415" lon="16.586921855580556"><ele>233.0</ele><time>2026-04-12T10:46:14Z</time></trkpt><trkpt lat="38.895066025497016" lon="16.58706305902684"><ele>231.0</ele><time>2026-04-12T10:46:15Z</time></trkpt><trkpt lat="38.89499035578809" lon="16.587237959468315"><ele>229.0</ele><time>2026-04-12T10:46:16Z</time></trkpt><trkpt lat="38.89494230450276" lon="16.58742731784202"><ele>227.0</ele><time>2026-04-12T10:46:17Z</time></trkpt><trkpt lat="38.89483451680755" lon="16.5875780409655"><ele>227.0</ele><time>2026-04-12T10:46:18Z</time></trkpt><trkpt lat="38.894938390379934" lon="16.587829822762505"><ele>227.0</ele><time>2026-04-12T10:46:19Z</time></trkpt><trkpt lat="38.894974947669795" lon="16.588029743733326"><ele>227.0</ele><time>2026-04-12T10:46:20Z</time></trkpt><trkpt lat="38.895043532961175" lon="16.58821697592398"><ele>223.0</ele><time>2026-04-12T10:46:21Z</time></trkpt><trkpt lat="38.89513947779639" lon="16.58838444814694"><ele>219.0</ele><time>2026-04-12T10:46:22Z</time></trkpt><trkpt lat="38.895258514013264" lon="16.588521231326155"><ele>215.0</ele><time>2026-04-12T10:46:23Z</time></trkpt><trkpt lat="38.89539035701391" lon="16.588633201639087"><ele>211.66666666666669</ele><time>2026-04-12T10:46:24Z</time></trkpt><trkpt lat="38.895537636241606" lon="16.588710774878045"><ele>208.33333333333331</ele><time>2026-04-12T10:46:25Z</time></trkpt><trkpt lat="38.895691882735896" lon="16.588748385308786"><ele>205.0</ele><time>2026-04-12T10:46:26Z</time></trkpt><trkpt lat="38.89584812633319" lon="16.588747640226178"><ele>202.33333333333331</ele><time>2026-04-12T10:46:27Z</time></trkpt><trkpt lat="38.8959986816658" lon="16.588711333921374"><ele>199.66666666666669</ele><time>2026-04-12T10:46:28Z</time></trkpt><trkpt lat="38.89614026838756" lon="16.588640750126313"><ele>197.0</ele><time>2026-04-12T10:46:29Z</time></trkpt><trkpt lat="38.89627924799993" lon="16.588553195500715"><ele>200.75</ele><time>2026-04-12T10:46:30Z</time></trkpt><trkpt lat="38.896420137683194" lon="16.588468903858963"><ele>204.5</ele><time>2026-04-12T10:46:31Z</time></trkpt><trkpt lat="38.896555296051076" lon="16.588403011593833"><ele>208.25</ele><time>2026-04-12T10:46:32Z</time></trkpt><trkpt lat="38.89669433513789" lon="16.588360206451537"><ele>212.0</ele><time>2026-04-12T10:46:33Z</time></trkpt><trkpt lat="38.89683749810674" lon="16.58834848509228"><ele>212.0</ele><time>2026-04-12T10:46:34Z</time></trkpt><trkpt lat="38.89698859828841" lon="16.588355486174176"><ele>212.0</ele><time>2026-04-12T10:46:35Z</time></trkpt><trkpt lat="38.89714099839101" lon="16.58838691466268"><ele>212.0</ele><time>2026-04-12T10:46:36Z</time></trkpt><trkpt lat="38.897298115862824" lon="16.588419695544182"><ele>212.0</ele><time>2026-04-12T10:46:37Z</time></trkpt><trkpt lat="38.89745636418518" lon="16.588445893419546"><ele>212.0</ele><time>2026-04-12T10:46:38Z</time></trkpt><trkpt lat="38.89760549276542" lon="16.58847021952596"><ele>212.0</ele><time>2026-04-12T10:46:39Z</time></trkpt><trkpt lat="38.897758660422866" lon="16.58849275692651"><ele>213.0</ele><time>2026-04-12T10:46:40Z</time></trkpt><trkpt lat="38.89790811897401" lon="16.588507293656214"><ele>214.0</ele><time>2026-04-12T10:46:41Z</time></trkpt><trkpt lat="38.8980545107007" lon="16.588509588517272"><ele>215.0</ele><time>2026-04-12T10:46:42Z</time></trkpt><trkpt lat="38.8982025031448" lon="16.588486456192705"><ele>216.0</ele><time>2026-04-12T10:46:43Z</time></trkpt><trkpt lat="38.89835272540425" lon="16.588446041677845"><ele>209.33333333333331</ele><time>2026-04-12T10:46:44Z</time></trkpt><trkpt lat="38.898498023734234" lon="16.58839422463566"><ele>202.66666666666666</ele><time>2026-04-12T10:46:45Z</time></trkpt><trkpt lat="38.89863909407768" lon="16.58832756209341"><ele>196.0</ele><time>2026-04-12T10:46:46Z</time></trkpt><trkpt lat="38.89877685237277" lon="16.588253506274874"><ele>196.0</ele><time>2026-04-12T10:46:47Z</time></trkpt><trkpt lat="38.89891720576841" lon="16.58817590124746"><ele>196.0</ele><time>2026-04-12T10:46:48Z</time></trkpt><trkpt lat="38.89905321206142" lon="16.58809965306128"><ele>196.0</ele><time>2026-04-12T10:46:49Z</time></trkpt><trkpt lat="38.89919091414493" lon="16.588026338394794"><ele>195.75</ele><time>2026-04-12T10:46:50Z</time></trkpt><trkpt lat="38.89932309105422" lon="16.587958280828147"><ele>195.5</ele><time>2026-04-12T10:46:51Z</time></trkpt><trkpt lat="38.899452801109355" lon="16.58789102758272"><ele>195.25</ele><time>2026-04-12T10:46:52Z</time></trkpt><trkpt lat="38.89957258252512" lon="16.587820240202156"><ele>195.0</ele><time>2026-04-12T10:46:53Z</time></trkpt><trkpt lat="38.89968523603718" lon="16.587763498880577"><ele>195.0</ele><time>2026-04-12T10:46:54Z</time></trkpt><trkpt lat="38.89978539732043" lon="16.587702020651506"><ele>195.0</ele><time>2026-04-12T10:46:55Z</time></trkpt><trkpt lat="38.89986915891395" lon="16.587635458227226"><ele>195.0</ele><time>2026-04-12T10:46:56Z</time></trkpt><trkpt lat="38.89995306854287" lon="16.58756044303452"><ele>195.0</ele><time>2026-04-12T10:46:57Z</time></trkpt><trkpt lat="38.90002537465315" lon="16.58748226636054"><ele>195.0</ele><time>2026-04-12T10:46:58Z</time></trkpt><trkpt lat="38.900134371883105" lon="16.587365822935872"><ele>193.0</ele><time>2026-04-12T10:46:59Z</time></trkpt><trkpt lat="38.900251271459915" lon="16.58722110344495"><ele>191.0</ele><time>2026-04-12T10:47:00Z</time></trkpt><trkpt lat="38.90031393655341" lon="16.58712428218432"><ele>189.0</ele><time>2026-04-12T10:47:01Z</time></trkpt><trkpt lat="38.900340025704324" lon="16.587050556501396"><ele>187.0</ele><time>2026-04-12T10:47:03Z</time></trkpt><trkpt lat="38.90044221358544" lon="16.586900140801465"><ele>187.0</ele><time>2026-04-12T10:47:05Z</time></trkpt><trkpt lat="38.900568016051274" lon="16.586622994212025"><ele>187.0</ele><time>2026-04-12T10:47:06Z</time></trkpt><trkpt lat="38.90065696114708" lon="16.586452805384333"><ele>187.0</ele><time>2026-04-12T10:47:07Z</time></trkpt><trkpt lat="38.90073032407442" lon="16.586323919844734"><ele>187.0</ele><time>2026-04-12T10:47:08Z</time></trkpt><trkpt lat="38.90081284411626" lon="16.58623190265775"><ele>187.0</ele><time>2026-04-12T10:47:09Z</time></trkpt><trkpt lat="38.90091116634995" lon="16.586140063846834"><ele>187.0</ele><time>2026-04-12T10:47:10Z</time></trkpt><trkpt lat="38.900999581527756" lon="16.586076274231328"><ele>187.0</ele><time>2026-04-12T10:47:11Z</time></trkpt><trkpt lat="38.90112169669326" lon="16.58605556533141"><ele>188.5</ele><time>2026-04-12T10:47:12Z</time></trkpt><trkpt lat="38.90125777236625" lon="16.586048275738992"><ele>190.0</ele><time>2026-04-12T10:47:13Z</time></trkpt><trkpt lat="38.90138620675705" lon="16.586095883396364"><ele>191.5</ele><time>2026-04-12T10:47:14Z</time></trkpt><trkpt lat="38.90153131175473" lon="16.586159483887755"><ele>193.0</ele><time>2026-04-12T10:47:15Z</time></trkpt><trkpt lat="38.901648786796414" lon="16.586207638681447"><ele>189.5</ele><time>2026-04-12T10:47:16Z</time></trkpt><trkpt lat="38.90178280102019" lon="16.586266454461608"><ele>186.0</ele><time>2026-04-12T10:47:17Z</time></trkpt><trkpt lat="38.90192356419328" lon="16.58633257480952"><ele>182.5</ele><time>2026-04-12T10:47:18Z</time></trkpt><trkpt lat="38.902065487942664" lon="16.58638550728974"><ele>179.0</ele><time>2026-04-12T10:47:19Z</time></trkpt><trkpt lat="38.90218408088531" lon="16.586418304537975"><ele>179.0</ele><time>2026-04-12T10:47:20Z</time></trkpt><trkpt lat="38.90235110670932" lon="16.586478228259462"><ele>179.0</ele><time>2026-04-12T10:47:21Z</time></trkpt><trkpt lat="38.90250162903283" lon="16.586532786396877"><ele>179.0</ele><time>2026-04-12T10:47:22Z</time></trkpt><trkpt lat="38.90262760282605" lon="16.586531392653274"><ele>179.25</ele><time>2026-04-12T10:47:23Z</time></trkpt><trkpt lat="38.902757682975086" lon="16.586500289336197"><ele>179.5</ele><time>2026-04-12T10:47:24Z</time></trkpt><trkpt lat="38.90289037071128" lon="16.586453878510333"><ele>179.75</ele><time>2026-04-12T10:47:25Z</time></trkpt><trkpt lat="38.903011596386605" lon="16.586386245490583"><ele>180.0</ele><time>2026-04-12T10:47:26Z</time></trkpt><trkpt lat="38.903129336069284" lon="16.586301940290205"><ele>180.0</ele><time>2026-04-12T10:47:27Z</time></trkpt><trkpt lat="38.90321427406188" lon="16.586156617086704"><ele>180.0</ele><time>2026-04-12T10:47:28Z</time></trkpt><trkpt lat="38.90332002779604" lon="16.58605508831411"><ele>180.0</ele><time>2026-04-12T10:47:29Z</time></trkpt><trkpt lat="38.903395203287126" lon="16.58590291649432"><ele>180.0</ele><time>2026-04-12T10:47:30Z</time></trkpt><trkpt lat="38.90346217440777" lon="16.585743639482956"><ele>180.75</ele><time>2026-04-12T10:47:31Z</time></trkpt><trkpt lat="38.90351403781021" lon="16.58558997035794"><ele>181.5</ele><time>2026-04-12T10:47:32Z</time></trkpt><trkpt lat="38.903562606003376" lon="16.585420830363695"><ele>182.25</ele><time>2026-04-12T10:47:33Z</time></trkpt><trkpt lat="38.90359615651917" lon="16.585247986014"><ele>183.0</ele><time>2026-04-12T10:47:34Z</time></trkpt><trkpt lat="38.903599832622454" lon="16.585060202490514"><ele>185.0</ele><time>2026-04-12T10:47:35Z</time></trkpt><trkpt lat="38.90356863633841" lon="16.584866064140037"><ele>187.0</ele><time>2026-04-12T10:47:36Z</time></trkpt><trkpt lat="38.90349804757342" lon="16.584661330611365"><ele>189.0</ele><time>2026-04-12T10:47:37Z</time></trkpt><trkpt lat="38.90344896968122" lon="16.584538837747047"><ele>191.0</ele><time>2026-04-12T10:47:38Z</time></trkpt><trkpt lat="38.903390343164695" lon="16.584378049042122"><ele>198.75</ele><time>2026-04-12T10:47:39Z</time></trkpt><trkpt lat="38.903332289806315" lon="16.58421396519644"><ele>206.5</ele><time>2026-04-12T10:47:40Z</time></trkpt><trkpt lat="38.903276509971825" lon="16.58404279605357"><ele>214.25</ele><time>2026-04-12T10:47:41.014Z</time></trkpt><trkpt lat="38.9032218342078" lon="16.58386930868673"><ele>222.0</ele><time>2026-04-12T10:47:42.017Z</time></trkpt><trkpt lat="38.903160869362644" lon="16.583717562167735"><ele>233.5</ele><time>2026-04-12T10:47:43.017Z</time></trkpt><trkpt lat="38.90308099736668" lon="16.583552394609097"><ele>245.0</ele><time>2026-04-12T10:47:44.019Z</time></trkpt><trkpt lat="38.903010394186374" lon="16.58338654313742"><ele>256.5</ele><time>2026-04-12T10:47:45.015Z</time></trkpt><trkpt lat="38.90293947056597" lon="16.58321993880907"><ele>268.0</ele><time>2026-04-12T10:47:46.022Z</time></trkpt><trkpt lat="38.90286884074481" lon="16.583056959645155"><ele>290.0</ele><time>2026-04-12T10:47:47.019Z</time></trkpt><trkpt lat="38.901832569144354" lon="16.580821466675136"><ele>254.0</ele><time>2026-04-12T10:47:50.557Z</time></trkpt><trkpt lat="38.90152623814924" lon="16.580116140596385"><ele>250.0</ele><time>2026-04-12T10:47:51.557Z</time></trkpt><trkpt lat="38.90122299432731" lon="16.579408609225716"><ele>250.0</ele><time>2026-04-12T10:47:52.557Z</time></trkpt><trkpt lat="38.90092375218843" lon="16.578701955493973"><ele>236.0</ele><time>2026-04-12T10:47:53.553Z</time></trkpt><trkpt lat="38.900622659518994" lon="16.57799190068282"><ele>230.0</ele><time>2026-04-12T10:47:54.554Z</time></trkpt><trkpt lat="38.90032276206474" lon="16.577275375697702"><ele>212.0</ele><time>2026-04-12T10:47:55.561Z</time></trkpt><trkpt lat="38.900044238532914" lon="16.57655834265295"><ele>198.0</ele><time>2026-04-12T10:47:56.554Z</time></trkpt><trkpt lat="38.89981079693457" lon="16.57581027804089"><ele>179.0</ele><time>2026-04-12T10:47:57.552Z</time></trkpt><trkpt lat="38.89960089225558" lon="16.575046281131232"><ele>147.0</ele><time>2026-04-12T10:47:58.556Z</time></trkpt><trkpt lat="38.8993742495971" lon="16.5732398530058"><ele>147.0</ele><time>2026-04-12T10:48:25.432Z</time></trkpt><trkpt lat="38.89931961150147" lon="16.573103992637694"><ele>147.0</ele><time>2026-04-12T10:48:28.559Z</time></trkpt><trkpt lat="38.899398084019616" lon="16.573885817200907"><ele>147.0</ele><time>2026-04-12T10:48:30Z</time></trkpt><trkpt lat="38.89935579074387" lon="16.573689041886606"><ele>147.0</ele><time>2026-04-12T10:48:31Z</time></trkpt><trkpt lat="38.899321877338025" lon="16.573462754606734"><ele>147.0</ele><time>2026-04-12T10:48:32Z</time></trkpt><trkpt lat="38.8992866591808" lon="16.57323127746102"><ele>147.0</ele><time>2026-04-12T10:48:33Z</time></trkpt><trkpt lat="38.89925670835486" lon="16.57299963693317"><ele>147.0</ele><time>2026-04-12T10:48:34Z</time></trkpt><trkpt lat="38.89923134029465" lon="16.572764313527845"><ele>147.0</ele><time>2026-04-12T10:48:35Z</time></trkpt><trkpt lat="38.899209560248735" lon="16.572521832563403"><ele>141.33333333333334</ele><time>2026-04-12T10:48:36Z</time></trkpt><trkpt lat="38.89918363090536" lon="16.572276821455816"><ele>135.66666666666669</ele><time>2026-04-12T10:48:37Z</time></trkpt><trkpt lat="38.89916106198764" lon="16.57202664150481"><ele>130.0</ele><time>2026-04-12T10:48:38Z</time></trkpt><trkpt lat="38.89913879498046" lon="16.571770123238274"><ele>130.33333333333334</ele><time>2026-04-12T10:48:39Z</time></trkpt><trkpt lat="38.89911263566182" lon="16.57152172462678"><ele>130.66666666666666</ele><time>2026-04-12T10:48:40Z</time></trkpt><trkpt lat="38.89909416626042" lon="16.57126882613069"><ele>131.0</ele><time>2026-04-12T10:48:41Z</time></trkpt><trkpt lat="38.89907023068848" lon="16.57101716429863"><ele>131.0</ele><time>2026-04-12T10:48:42Z</time></trkpt><trkpt lat="38.89904841693167" lon="16.570773374744896"><ele>131.0</ele><time>2026-04-12T10:48:43Z</time></trkpt><trkpt lat="38.89902621808729" lon="16.570527142429686"><ele>131.0</ele><time>2026-04-12T10:48:44Z</time></trkpt><trkpt lat="38.899005074986675" lon="16.570280109687644"><ele>132.33333333333331</ele><time>2026-04-12T10:48:45Z</time></trkpt><trkpt lat="38.89898345252895" lon="16.570033437376075"><ele>133.66666666666666</ele><time>2026-04-12T10:48:46Z</time></trkpt><trkpt lat="38.89896431835396" lon="16.569790824931175"><ele>135.0</ele><time>2026-04-12T10:48:47Z</time></trkpt><trkpt lat="38.89894584090614" lon="16.569549482437143"><ele>132.0</ele><time>2026-04-12T10:48:48Z</time></trkpt><trkpt lat="38.89892452490651" lon="16.569302206215962"><ele>129.0</ele><time>2026-04-12T10:48:49Z</time></trkpt><trkpt lat="38.89889805427542" lon="16.56905122697104"><ele>126.0</ele><time>2026-04-12T10:48:50Z</time></trkpt><trkpt lat="38.89887451771411" lon="16.568804417501113"><ele>132.0</ele><time>2026-04-12T10:48:51Z</time></trkpt><trkpt lat="38.89884628226062" lon="16.56855928797131"><ele>138.0</ele><time>2026-04-12T10:48:52Z</time></trkpt><trkpt lat="38.89881428110047" lon="16.568317946167376"><ele>144.0</ele><time>2026-04-12T10:48:53Z</time></trkpt><trkpt lat="38.89877901069643" lon="16.568077274405194"><ele>146.66666666666666</ele><time>2026-04-12T10:48:54Z</time></trkpt><trkpt lat="38.898731283547086" lon="16.56783260759864"><ele>149.33333333333331</ele><time>2026-04-12T10:48:55Z</time></trkpt><trkpt lat="38.898668107867636" lon="16.567598543643154"><ele>152.0</ele><time>2026-04-12T10:48:56Z</time></trkpt><trkpt lat="38.89859211933236" lon="16.567368602578057"><ele>152.0</ele><time>2026-04-12T10:48:57Z</time></trkpt><trkpt lat="38.89850493080152" lon="16.56714621894592"><ele>152.0</ele><time>2026-04-12T10:48:58Z</time></trkpt><trkpt lat="38.89840438984379" lon="16.566929963565574"><ele>152.0</ele><time>2026-04-12T10:48:59Z</time></trkpt><trkpt lat="38.898291133151695" lon="16.56672140173218"><ele>151.33333333333331</ele><time>2026-04-12T10:49:00Z</time></trkpt><trkpt lat="38.89817164954043" lon="16.56652250587216"><ele>150.66666666666666</ele><time>2026-04-12T10:49:01Z</time></trkpt><trkpt lat="38.89804953434166" lon="16.566329102016425"><ele>150.0</ele><time>2026-04-12T10:49:02Z</time></trkpt><trkpt lat="38.897928093224564" lon="16.566132822932442"><ele>150.0</ele><time>2026-04-12T10:49:03Z</time></trkpt><trkpt lat="38.897809575769124" lon="16.56593122587563"><ele>150.0</ele><time>2026-04-12T10:49:04Z</time></trkpt><trkpt lat="38.89768980250796" lon="16.565721431333635"><ele>150.0</ele><time>2026-04-12T10:49:05Z</time></trkpt><trkpt lat="38.89756982588776" lon="16.565507900669783"><ele>139.66666666666666</ele><time>2026-04-12T10:49:06Z</time></trkpt><trkpt lat="38.897450713363945" lon="16.565285262793292"><ele>129.33333333333331</ele><time>2026-04-12T10:49:07Z</time></trkpt><trkpt lat="38.89733261625873" lon="16.565056439738637"><ele>119.0</ele><time>2026-04-12T10:49:08Z</time></trkpt><trkpt lat="38.89721698836012" lon="16.56482023149019"><ele>119.0</ele><time>2026-04-12T10:49:09Z</time></trkpt><trkpt lat="38.89710801853671" lon="16.564581080681204"><ele>119.0</ele><time>2026-04-12T10:49:10Z</time></trkpt><trkpt lat="38.89700565215897" lon="16.5643410715031"><ele>119.0</ele><time>2026-04-12T10:49:11Z</time></trkpt><trkpt lat="38.8969079597344" lon="16.564095107978577"><ele>123.0</ele><time>2026-04-12T10:49:12Z</time></trkpt><trkpt lat="38.896814065071936" lon="16.56384319230061"><ele>127.0</ele><time>2026-04-12T10:49:13Z</time></trkpt><trkpt lat="38.896722457021546" lon="16.563586660515554"><ele>131.0</ele><time>2026-04-12T10:49:14Z</time></trkpt><trkpt lat="38.89663750480518" lon="16.563326814930015"><ele>122.66666666666666</ele><time>2026-04-12T10:49:15Z</time></trkpt><trkpt lat="38.89656060148628" lon="16.563064130246143"><ele>114.33333333333334</ele><time>2026-04-12T10:49:16Z</time></trkpt><trkpt lat="38.89648841957496" lon="16.562796980967146"><ele>106.0</ele><time>2026-04-12T10:49:17Z</time></trkpt><trkpt lat="38.89642218544329" lon="16.562525690418454"><ele>106.0</ele><time>2026-04-12T10:49:18Z</time></trkpt><trkpt lat="38.89636150799175" lon="16.5622562757689"><ele>106.0</ele><time>2026-04-12T10:49:19Z</time></trkpt><trkpt lat="38.89630243294638" lon="16.56198706629155"><ele>106.0</ele><time>2026-04-12T10:49:20Z</time></trkpt><trkpt lat="38.896247302357644" lon="16.561716307562353"><ele>107.0</ele><time>2026-04-12T10:49:21Z</time></trkpt><trkpt lat="38.896199457146885" lon="16.561444778063773"><ele>108.0</ele><time>2026-04-12T10:49:22Z</time></trkpt><trkpt lat="38.896157524913185" lon="16.561166171318025"><ele>109.0</ele><time>2026-04-12T10:49:23Z</time></trkpt><trkpt lat="38.89611838556369" lon="16.560887082552952"><ele>109.0</ele><time>2026-04-12T10:49:24Z</time></trkpt><trkpt lat="38.896074112507705" lon="16.560605179872432"><ele>109.0</ele><time>2026-04-12T10:49:25Z</time></trkpt><trkpt lat="38.896029818292654" lon="16.560333314701257"><ele>109.0</ele><time>2026-04-12T10:49:26Z</time></trkpt><trkpt lat="38.895987976146856" lon="16.560066129227515"><ele>102.66666666666667</ele><time>2026-04-12T10:49:27Z</time></trkpt><trkpt lat="38.89594654571324" lon="16.55979519475096"><ele>96.33333333333334</ele><time>2026-04-12T10:49:28Z</time></trkpt><trkpt lat="38.8959059880661" lon="16.559527119231642"><ele>90.0</ele><time>2026-04-12T10:49:29Z</time></trkpt><trkpt lat="38.89586265221888" lon="16.55925868969762"><ele>84.33333333333333</ele><time>2026-04-12T10:49:30Z</time></trkpt><trkpt lat="38.895819541957074" lon="16.558992441364488"><ele>78.66666666666666</ele><time>2026-04-12T10:49:31Z</time></trkpt><trkpt lat="38.895773358649855" lon="16.5587263879859"><ele>73.0</ele><time>2026-04-12T10:49:32Z</time></trkpt><trkpt lat="38.89573293972126" lon="16.558466096404235"><ele>73.0</ele><time>2026-04-12T10:49:33Z</time></trkpt><trkpt lat="38.8956916841867" lon="16.558207049059877"><ele>73.0</ele><time>2026-04-12T10:49:34Z</time></trkpt><trkpt lat="38.89565226116091" lon="16.557942063649023"><ele>73.0</ele><time>2026-04-12T10:49:35Z</time></trkpt><trkpt lat="38.89560925927457" lon="16.557680321363524"><ele>73.0</ele><time>2026-04-12T10:49:36Z</time></trkpt><trkpt lat="38.89556295411636" lon="16.557416004640427"><ele>73.0</ele><time>2026-04-12T10:49:37Z</time></trkpt><trkpt lat="38.89551300617472" lon="16.55716188584305"><ele>73.0</ele><time>2026-04-12T10:49:38Z</time></trkpt><trkpt lat="38.895459455934635" lon="16.556901467258978"><ele>72.66666666666666</ele><time>2026-04-12T10:49:39Z</time></trkpt><trkpt lat="38.89539505857169" lon="16.556641502714605"><ele>72.33333333333333</ele><time>2026-04-12T10:49:40Z</time></trkpt><trkpt lat="38.89532596392213" lon="16.556387653709862"><ele>72.0</ele><time>2026-04-12T10:49:41Z</time></trkpt><trkpt lat="38.89524914765329" lon="16.556139456795012"><ele>72.0</ele><time>2026-04-12T10:49:42Z</time></trkpt><trkpt lat="38.8951674440785" lon="16.555891308734815"><ele>72.0</ele><time>2026-04-12T10:49:43Z</time></trkpt><trkpt lat="38.895080754089406" lon="16.555647900513996"><ele>72.0</ele><time>2026-04-12T10:49:44Z</time></trkpt><trkpt lat="38.894991247486175" lon="16.55540862580419"><ele>70.66666666666667</ele><time>2026-04-12T10:49:45Z</time></trkpt><trkpt lat="38.89489696781435" lon="16.55517547917796"><ele>69.33333333333334</ele><time>2026-04-12T10:49:46Z</time></trkpt><trkpt lat="38.89479997076341" lon="16.554945127617923"><ele>68.0</ele><time>2026-04-12T10:49:47Z</time></trkpt><trkpt lat="38.89470197404801" lon="16.55472226168731"><ele>67.33333333333334</ele><time>2026-04-12T10:49:48Z</time></trkpt><trkpt lat="38.89460879683246" lon="16.554488013999855"><ele>66.66666666666667</ele><time>2026-04-12T10:49:49Z</time></trkpt><trkpt lat="38.89451044516723" lon="16.55427757729428"><ele>66.0</ele><time>2026-04-12T10:49:50Z</time></trkpt><trkpt lat="38.894410797633974" lon="16.554068558401426"><ele>66.0</ele><time>2026-04-12T10:49:51Z</time></trkpt><trkpt lat="38.89431595563189" lon="16.553856788053867"><ele>66.0</ele><time>2026-04-12T10:49:52Z</time></trkpt><trkpt lat="38.89422211085251" lon="16.553650574500306"><ele>66.0</ele><time>2026-04-12T10:49:53Z</time></trkpt><trkpt lat="38.89412711588794" lon="16.553445104766844"><ele>69.33333333333333</ele><time>2026-04-12T10:49:54Z</time></trkpt><trkpt lat="38.89403341434281" lon="16.553239649495087"><ele>72.66666666666666</ele><time>2026-04-12T10:49:55Z</time></trkpt><trkpt lat="38.893947829117295" lon="16.55304314932769"><ele>76.0</ele><time>2026-04-12T10:49:56Z</time></trkpt><trkpt lat="38.893862978831166" lon="16.552852603566865"><ele>81.0</ele><time>2026-04-12T10:49:57Z</time></trkpt><trkpt lat="38.89378396798456" lon="16.55267188256615"><ele>86.0</ele><time>2026-04-12T10:49:58Z</time></trkpt><trkpt lat="38.893712380016325" lon="16.552499191118915"><ele>91.0</ele><time>2026-04-12T10:49:59Z</time></trkpt><trkpt lat="38.89364938742837" lon="16.552331543975605"><ele>91.0</ele><time>2026-04-12T10:50:00Z</time></trkpt><trkpt lat="38.893593263496605" lon="16.552181136851935"><ele>91.0</ele><time>2026-04-12T10:50:01Z</time></trkpt><trkpt lat="38.8935430717055" lon="16.55203208184095"><ele>91.0</ele><time>2026-04-12T10:50:02Z</time></trkpt><trkpt lat="38.89349849961163" lon="16.551894137017825"><ele>91.0</ele><time>2026-04-12T10:50:03Z</time></trkpt><trkpt lat="38.89346590457002" lon="16.551764903746434"><ele>92.19999999999999</ele><time>2026-04-12T10:50:04Z</time></trkpt><trkpt lat="38.89344947052089" lon="16.55163591484279"><ele>93.39999999999999</ele><time>2026-04-12T10:50:05Z</time></trkpt><trkpt lat="38.893481754752486" lon="16.55150801103458"><ele>94.6</ele><time>2026-04-12T10:50:06Z</time></trkpt><trkpt lat="38.89353360657165" lon="16.551421665877836"><ele>95.8</ele><time>2026-04-12T10:50:07Z</time></trkpt><trkpt lat="38.8936221789225" lon="16.551353821110617"><ele>97.0</ele><time>2026-04-12T10:50:08Z</time></trkpt><trkpt lat="38.89370630690562" lon="16.55131260406134"><ele>97.0</ele><time>2026-04-12T10:50:09Z</time></trkpt><trkpt lat="38.89380506474711" lon="16.551294689478187"><ele>97.0</ele><time>2026-04-12T10:50:10Z</time></trkpt><trkpt lat="38.893896353888856" lon="16.55132001124754"><ele>97.0</ele><time>2026-04-12T10:50:11Z</time></trkpt><trkpt lat="38.893980088855606" lon="16.551391380011744"><ele>97.0</ele><time>2026-04-12T10:50:12Z</time></trkpt><trkpt lat="38.894041860368354" lon="16.55149658699036"><ele>97.0</ele><time>2026-04-12T10:50:13Z</time></trkpt><trkpt lat="38.894075440234346" lon="16.551625755024954"><ele>97.0</ele><time>2026-04-12T10:50:14Z</time></trkpt><trkpt lat="38.8940834851157" lon="16.55180117267938"><ele>97.0</ele><time>2026-04-12T10:50:15.021Z</time></trkpt><trkpt lat="38.89403959276433" lon="16.55197843279317"><ele>97.0</ele><time>2026-04-12T10:50:16.024Z</time></trkpt><trkpt lat="38.89398172644469" lon="16.552111549968547"><ele>97.0</ele><time>2026-04-12T10:50:17.015Z</time></trkpt><trkpt lat="38.89382974233321" lon="16.55235759279893"><ele>95.5</ele><time>2026-04-12T10:50:18.019Z</time></trkpt><trkpt lat="38.89370075802203" lon="16.55255294840944"><ele>94.0</ele><time>2026-04-12T10:50:19.024Z</time></trkpt><trkpt lat="38.89366210575122" lon="16.552383006951843"><ele>92.5</ele><time>2026-04-12T10:50:20Z</time></trkpt><trkpt lat="38.89358826783484" lon="16.55243211677662"><ele>91.0</ele><time>2026-04-12T10:50:21Z</time></trkpt><trkpt lat="38.89351881882255" lon="16.552496861706917"><ele>91.0</ele><time>2026-04-12T10:50:22Z</time></trkpt><trkpt lat="38.893442187924414" lon="16.552546200129196"><ele>91.0</ele><time>2026-04-12T10:50:23Z</time></trkpt><trkpt lat="38.893361594255786" lon="16.55256413767715"><ele>91.0</ele><time>2026-04-12T10:50:24Z</time></trkpt><trkpt lat="38.89325503794167" lon="16.552599055252333"><ele>91.0</ele><time>2026-04-12T10:50:25Z</time></trkpt><trkpt lat="38.8931913913276" lon="16.552606107558255"><ele>91.0</ele><time>2026-04-12T10:50:26Z</time></trkpt><trkpt lat="38.89312901955829" lon="16.552526742780575"><ele>91.0</ele><time>2026-04-12T10:50:27Z</time></trkpt><trkpt lat="38.89306650738491" lon="16.55253805663565"><ele>88.16666666666666</ele><time>2026-04-12T10:50:28Z</time></trkpt><trkpt lat="38.893047152201994" lon="16.552415139711115"><ele>85.33333333333333</ele><time>2026-04-12T10:50:29Z</time></trkpt><trkpt lat="38.89299065819682" lon="16.552367215258997"><ele>82.5</ele><time>2026-04-12T10:50:30Z</time></trkpt><trkpt lat="38.89298853341547" lon="16.5522550140626"><ele>79.66666666666667</ele><time>2026-04-12T10:50:31Z</time></trkpt><trkpt lat="38.892960672016834" lon="16.552176289285253"><ele>76.83333333333334</ele><time>2026-04-12T10:50:32Z</time></trkpt><trkpt lat="38.892971770836255" lon="16.55209443445091"><ele>74.0</ele><time>2026-04-12T10:50:33Z</time></trkpt><trkpt lat="38.89294304444936" lon="16.551930724418003"><ele>74.0</ele><time>2026-04-12T10:50:35Z</time></trkpt><trkpt lat="38.89293410557737" lon="16.551835244225995"><ele>74.0</ele><time>2026-04-12T10:50:36Z</time></trkpt><trkpt lat="38.8928949732184" lon="16.551741702586696"><ele>74.0</ele><time>2026-04-12T10:50:37Z</time></trkpt><trkpt lat="38.89289109006904" lon="16.551644913798217"><ele>74.0</ele><time>2026-04-12T10:50:38Z</time></trkpt><trkpt lat="38.89287849551313" lon="16.551484068182752"><ele>74.0</ele><time>2026-04-12T10:50:39Z</time></trkpt><trkpt lat="38.89287064476221" lon="16.551344026270407"><ele>76.75</ele><time>2026-04-12T10:50:40Z</time></trkpt><trkpt lat="38.89286162909637" lon="16.55119549530494"><ele>79.5</ele><time>2026-04-12T10:50:41Z</time></trkpt><trkpt lat="38.89285247760893" lon="16.551047334828755"><ele>82.25</ele><time>2026-04-12T10:50:42Z</time></trkpt><trkpt lat="38.89283836991619" lon="16.55088544524099"><ele>85.0</ele><time>2026-04-12T10:50:43Z</time></trkpt><trkpt lat="38.89283073745931" lon="16.55074780338697"><ele>85.0</ele><time>2026-04-12T10:50:44Z</time></trkpt><trkpt lat="38.89282484764933" lon="16.550596794978294"><ele>85.0</ele><time>2026-04-12T10:50:45Z</time></trkpt><trkpt lat="38.89282035484502" lon="16.550445994649586"><ele>85.0</ele><time>2026-04-12T10:50:46Z</time></trkpt><trkpt lat="38.892811324623395" lon="16.550294154407723"><ele>85.0</ele><time>2026-04-12T10:50:47Z</time></trkpt><trkpt lat="38.892802703208915" lon="16.550152914189212"><ele>84.6</ele><time>2026-04-12T10:50:48Z</time></trkpt><trkpt lat="38.89278845672542" lon="16.550024204213578"><ele>84.2</ele><time>2026-04-12T10:50:49Z</time></trkpt><trkpt lat="38.89279395542728" lon="16.549912679604418"><ele>83.80000000000001</ele><time>2026-04-12T10:50:50Z</time></trkpt><trkpt lat="38.89278607806634" lon="16.549774264645585"><ele>83.4</ele><time>2026-04-12T10:50:51Z</time></trkpt><trkpt lat="38.89278575061839" lon="16.549644426369422"><ele>83.0</ele><time>2026-04-12T10:50:52Z</time></trkpt><trkpt lat="38.892784778747135" lon="16.54950630662878"><ele>83.0</ele><time>2026-04-12T10:50:53Z</time></trkpt><trkpt lat="38.89277890930351" lon="16.54940771570654"><ele>83.0</ele><time>2026-04-12T10:50:54Z</time></trkpt><trkpt lat="38.89277499075079" lon="16.54930926646757"><ele>83.0</ele><time>2026-04-12T10:50:55Z</time></trkpt><trkpt lat="38.89276929108547" lon="16.549225949984066"><ele>83.0</ele><time>2026-04-12T10:50:56Z</time></trkpt><trkpt lat="38.89276908874093" lon="16.549125980715235"><ele>83.0</ele><time>2026-04-12T10:50:58Z</time></trkpt><trkpt lat="38.89265927596373" lon="16.549084797073856"><ele>83.0</ele><time>2026-04-12T10:51:07Z</time></trkpt><trkpt lat="38.89254245411328" lon="16.54922307472994"><ele>81.33333333333334</ele><time>2026-04-12T10:51:58Z</time></trkpt><trkpt lat="38.89252467592593" lon="16.549333208499913"><ele>79.66666666666667</ele><time>2026-04-12T10:51:59Z</time></trkpt><trkpt lat="38.89256418387173" lon="16.54943133889348"><ele>78.0</ele><time>2026-04-12T10:52:00Z</time></trkpt><trkpt lat="38.892572716323315" lon="16.54951965257896"><ele>76.33333333333333</ele><time>2026-04-12T10:52:01Z</time></trkpt><trkpt lat="38.89257781844359" lon="16.5496067172698"><ele>74.66666666666666</ele><time>2026-04-12T10:52:02Z</time></trkpt><trkpt lat="38.8925687536623" lon="16.54970745291411"><ele>73.0</ele><time>2026-04-12T10:52:03Z</time></trkpt><trkpt lat="38.89257948637354" lon="16.54981083636255"><ele>72.66666666666666</ele><time>2026-04-12T10:52:04Z</time></trkpt><trkpt lat="38.89254883273248" lon="16.549922735498097"><ele>72.33333333333333</ele><time>2026-04-12T10:52:06Z</time></trkpt><trkpt lat="38.89246156109712" lon="16.54992115374708"><ele>72.0</ele><time>2026-04-12T10:52:08Z</time></trkpt><trkpt lat="38.89238635457783" lon="16.549895571540755"><ele>71.66666666666667</ele><time>2026-04-12T10:52:09Z</time></trkpt><trkpt lat="38.89231013082134" lon="16.5498503946926"><ele>71.33333333333334</ele><time>2026-04-12T10:52:10Z</time></trkpt><trkpt lat="38.892251676253096" lon="16.549771878385734"><ele>71.0</ele><time>2026-04-12T10:52:11Z</time></trkpt><trkpt lat="38.89218141333959" lon="16.5496880317434"><ele>71.0</ele><time>2026-04-12T10:52:12Z</time></trkpt><trkpt lat="38.8921134954457" lon="16.549583151821746"><ele>71.0</ele><time>2026-04-12T10:52:13Z</time></trkpt><trkpt lat="38.89205153308339" lon="16.549470663219104"><ele>71.0</ele><time>2026-04-12T10:52:14Z</time></trkpt><trkpt lat="38.89197643853114" lon="16.549363840724464"><ele>71.0</ele><time>2026-04-12T10:52:15Z</time></trkpt><trkpt lat="38.89190466457024" lon="16.549249982120696"><ele>71.0</ele><time>2026-04-12T10:52:16Z</time></trkpt><trkpt lat="38.891831473926395" lon="16.54912041632787"><ele>71.0</ele><time>2026-04-12T10:52:17Z</time></trkpt><trkpt lat="38.8917469656692" lon="16.5489791663004"><ele>71.0</ele><time>2026-04-12T10:52:18Z</time></trkpt><trkpt lat="38.89167881443524" lon="16.548839617713703"><ele>71.0</ele><time>2026-04-12T10:52:19Z</time></trkpt><trkpt lat="38.891597902331384" lon="16.54871772267227"><ele>71.0</ele><time>2026-04-12T10:52:20Z</time></trkpt><trkpt lat="38.89150958068892" lon="16.5486184826718"><ele>70.39999999999999</ele><time>2026-04-12T10:52:21Z</time></trkpt><trkpt lat="38.89140989368233" lon="16.548551672144708"><ele>69.8</ele><time>2026-04-12T10:52:22Z</time></trkpt><trkpt lat="38.89130585101898" lon="16.5485138354933"><ele>69.19999999999999</ele><time>2026-04-12T10:52:23Z</time></trkpt><trkpt lat="38.89120672496291" lon="16.548502856177393"><ele>68.6</ele><time>2026-04-12T10:52:24Z</time></trkpt><trkpt lat="38.89110841722454" lon="16.548500400612074"><ele>68.0</ele><time>2026-04-12T10:52:25Z</time></trkpt><trkpt lat="38.89100823800165" lon="16.548488257021738"><ele>67.5</ele><time>2026-04-12T10:52:26Z</time></trkpt><trkpt lat="38.890899098588534" lon="16.548461791926794"><ele>67.0</ele><time>2026-04-12T10:52:27Z</time></trkpt><trkpt lat="38.890783028007405" lon="16.5484603692072"><ele>66.5</ele><time>2026-04-12T10:52:28Z</time></trkpt><trkpt lat="38.89066525662889" lon="16.54846760750942"><ele>66.0</ele><time>2026-04-12T10:52:29Z</time></trkpt><trkpt lat="38.89055255605765" lon="16.548446519997803"><ele>66.0</ele><time>2026-04-12T10:52:30Z</time></trkpt><trkpt lat="38.89045079590607" lon="16.548454322707297"><ele>66.0</ele><time>2026-04-12T10:52:31Z</time></trkpt><trkpt lat="38.89033720287725" lon="16.548418632758917"><ele>66.0</ele><time>2026-04-12T10:52:32Z</time></trkpt><trkpt lat="38.890223402148855" lon="16.54839304953369"><ele>66.0</ele><time>2026-04-12T10:52:33Z</time></trkpt><trkpt lat="38.890113679914215" lon="16.548358641362537"><ele>66.0</ele><time>2026-04-12T10:52:34Z</time></trkpt><trkpt lat="38.8900083382313" lon="16.548304269436283"><ele>64.8</ele><time>2026-04-12T10:52:35Z</time></trkpt><trkpt lat="38.88990291938064" lon="16.548254454634893"><ele>63.599999999999994</ele><time>2026-04-12T10:52:36Z</time></trkpt><trkpt lat="38.88979860220401" lon="16.548201572315733"><ele>62.4</ele><time>2026-04-12T10:52:37Z</time></trkpt><trkpt lat="38.88969854191677" lon="16.54813653306025"><ele>61.2</ele><time>2026-04-12T10:52:38Z</time></trkpt><trkpt lat="38.88959853762809" lon="16.54808409893392"><ele>60.0</ele><time>2026-04-12T10:52:39Z</time></trkpt><trkpt lat="38.889495990471836" lon="16.548033342134858"><ele>60.0</ele><time>2026-04-12T10:52:40Z</time></trkpt><trkpt lat="38.88939537737928" lon="16.54797908182636"><ele>60.0</ele><time>2026-04-12T10:52:41Z</time></trkpt><trkpt lat="38.88929125511585" lon="16.547922036249904"><ele>60.0</ele><time>2026-04-12T10:52:42Z</time></trkpt><trkpt lat="38.889186037361775" lon="16.547870103262365"><ele>60.0</ele><time>2026-04-12T10:52:43Z</time></trkpt><trkpt lat="38.889081817654414" lon="16.54781854752058"><ele>60.0</ele><time>2026-04-12T10:52:44Z</time></trkpt><trkpt lat="38.88897343382887" lon="16.54775338922099"><ele>59.5</ele><time>2026-04-12T10:52:45Z</time></trkpt><trkpt lat="38.88886156384056" lon="16.547694192637273"><ele>59.0</ele><time>2026-04-12T10:52:46Z</time></trkpt><trkpt lat="38.88875084429646" lon="16.547637866762013"><ele>58.5</ele><time>2026-04-12T10:52:47Z</time></trkpt><trkpt lat="38.888640119185" lon="16.547586981440606"><ele>58.0</ele><time>2026-04-12T10:52:48Z</time></trkpt><trkpt lat="38.888524836717934" lon="16.54752938751732"><ele>57.75</ele><time>2026-04-12T10:52:49Z</time></trkpt><trkpt lat="38.88841170359953" lon="16.54746767227843"><ele>57.5</ele><time>2026-04-12T10:52:50Z</time></trkpt><trkpt lat="38.88829238007721" lon="16.547404973525786"><ele>57.25</ele><time>2026-04-12T10:52:51Z</time></trkpt><trkpt lat="38.88818111679721" lon="16.5473565608953"><ele>57.0</ele><time>2026-04-12T10:52:52Z</time></trkpt><trkpt lat="38.88808101257908" lon="16.54730439930128"><ele>57.0</ele><time>2026-04-12T10:52:53Z</time></trkpt><trkpt lat="38.887972959184154" lon="16.547250006930856"><ele>57.0</ele><time>2026-04-12T10:52:54Z</time></trkpt><trkpt lat="38.88785669553184" lon="16.547187720024432"><ele>57.0</ele><time>2026-04-12T10:52:55Z</time></trkpt><trkpt lat="38.88776397640844" lon="16.547139997196656"><ele>57.0</ele><time>2026-04-12T10:52:56Z</time></trkpt><trkpt lat="38.887651755195705" lon="16.547084635013547"><ele>56.5</ele><time>2026-04-12T10:52:57Z</time></trkpt><trkpt lat="38.88754903926602" lon="16.547016714420373"><ele>56.0</ele><time>2026-04-12T10:52:58Z</time></trkpt><trkpt lat="38.88745013201057" lon="16.546929659926644"><ele>55.5</ele><time>2026-04-12T10:52:59Z</time></trkpt><trkpt lat="38.887382842982426" lon="16.546816782386458"><ele>55.0</ele><time>2026-04-12T10:53:00Z</time></trkpt><trkpt lat="38.88732055411726" lon="16.54669592894324"><ele>55.0</ele><time>2026-04-12T10:53:01Z</time></trkpt><trkpt lat="38.88726289223321" lon="16.54657358602044"><ele>55.0</ele><time>2026-04-12T10:53:02Z</time></trkpt><trkpt lat="38.88720781630732" lon="16.5464541505774"><ele>55.0</ele><time>2026-04-12T10:53:03Z</time></trkpt><trkpt lat="38.887152781277706" lon="16.54632996974841"><ele>55.0</ele><time>2026-04-12T10:53:04Z</time></trkpt><trkpt lat="38.887100625922145" lon="16.546210143898485"><ele>55.0</ele><time>2026-04-12T10:53:05Z</time></trkpt><trkpt lat="38.887040035430374" lon="16.546091082119165"><ele>56.0</ele><time>2026-04-12T10:53:06Z</time></trkpt><trkpt lat="38.88698423336924" lon="16.545973837886486"><ele>57.0</ele><time>2026-04-12T10:53:07Z</time></trkpt><trkpt lat="38.88691634518399" lon="16.545866315082616"><ele>58.0</ele><time>2026-04-12T10:53:08Z</time></trkpt><trkpt lat="38.88682395907588" lon="16.545778226470183"><ele>59.0</ele><time>2026-04-12T10:53:09Z</time></trkpt><trkpt lat="38.886725993118006" lon="16.54572690565799"><ele>60.0</ele><time>2026-04-12T10:53:10Z</time></trkpt><trkpt lat="38.886615573059835" lon="16.54570956469575"><ele>60.0</ele><time>2026-04-12T10:53:11Z</time></trkpt><trkpt lat="38.88650059016503" lon="16.545690400252198"><ele>60.0</ele><time>2026-04-12T10:53:12Z</time></trkpt><trkpt lat="38.886378610218934" lon="16.545676704933697"><ele>60.0</ele><time>2026-04-12T10:53:13Z</time></trkpt><trkpt lat="38.88628714312263" lon="16.545684090985375"><ele>60.0</ele><time>2026-04-12T10:53:14Z</time></trkpt><trkpt lat="38.88617294904662" lon="16.54568181511383"><ele>60.0</ele><time>2026-04-12T10:53:15Z</time></trkpt><trkpt lat="38.88605229935565" lon="16.545679441380386"><ele>59.0</ele><time>2026-04-12T10:53:16Z</time></trkpt><trkpt lat="38.8859191230876" lon="16.54568076823662"><ele>58.0</ele><time>2026-04-12T10:53:17Z</time></trkpt><trkpt lat="38.885777290810374" lon="16.545666505961343"><ele>57.0</ele><time>2026-04-12T10:53:18Z</time></trkpt><trkpt lat="38.88564484237323" lon="16.545634940954066"><ele>56.0</ele><time>2026-04-12T10:53:19Z</time></trkpt><trkpt lat="38.885518486982754" lon="16.545595444482544"><ele>56.0</ele><time>2026-04-12T10:53:20Z</time></trkpt><trkpt lat="38.88537075337064" lon="16.5455362816621"><ele>56.0</ele><time>2026-04-12T10:53:21Z</time></trkpt><trkpt lat="38.885242232024225" lon="16.54547810254818"><ele>56.0</ele><time>2026-04-12T10:53:22Z</time></trkpt><trkpt lat="38.8851083311093" lon="16.545406351590664"><ele>56.0</ele><time>2026-04-12T10:53:23Z</time></trkpt><trkpt lat="38.88500150918644" lon="16.545314842392546"><ele>56.5</ele><time>2026-04-12T10:53:24Z</time></trkpt><trkpt lat="38.88492104301162" lon="16.545188465386964"><ele>57.0</ele><time>2026-04-12T10:53:25Z</time></trkpt><trkpt lat="38.88483402836168" lon="16.545046682746726"><ele>57.5</ele><time>2026-04-12T10:53:26Z</time></trkpt><trkpt lat="38.884756108531995" lon="16.544903220668967"><ele>58.0</ele><time>2026-04-12T10:53:27Z</time></trkpt><trkpt lat="38.884660179220496" lon="16.544740531535318"><ele>58.0</ele><time>2026-04-12T10:53:28Z</time></trkpt><trkpt lat="38.88456471102707" lon="16.54457973047929"><ele>58.0</ele><time>2026-04-12T10:53:29Z</time></trkpt><trkpt lat="38.88446664527051" lon="16.544406050237487"><ele>58.0</ele><time>2026-04-12T10:53:30Z</time></trkpt><trkpt lat="38.884372406217715" lon="16.54424179532385"><ele>56.666666666666664</ele><time>2026-04-12T10:53:31Z</time></trkpt><trkpt lat="38.884278297320485" lon="16.544081264594706"><ele>55.33333333333333</ele><time>2026-04-12T10:53:32Z</time></trkpt><trkpt lat="38.88418059342941" lon="16.543925265918165"><ele>54.0</ele><time>2026-04-12T10:53:33Z</time></trkpt><trkpt lat="38.884084562761025" lon="16.543768314382923"><ele>55.0</ele><time>2026-04-12T10:53:34Z</time></trkpt><trkpt lat="38.88399748073014" lon="16.543604790504187"><ele>56.0</ele><time>2026-04-12T10:53:35Z</time></trkpt><trkpt lat="38.88390481791271" lon="16.54344157599315"><ele>57.0</ele><time>2026-04-12T10:53:36Z</time></trkpt><trkpt lat="38.88381182885832" lon="16.54328136576434"><ele>57.0</ele><time>2026-04-12T10:53:37Z</time></trkpt><trkpt lat="38.883718508381236" lon="16.543118749799024"><ele>57.0</ele><time>2026-04-12T10:53:38Z</time></trkpt><trkpt lat="38.8836259150156" lon="16.542961226313473"><ele>57.0</ele><time>2026-04-12T10:53:39Z</time></trkpt><trkpt lat="38.88354084683738" lon="16.542812081250503"><ele>56.25</ele><time>2026-04-12T10:53:40Z</time></trkpt><trkpt lat="38.88346987475251" lon="16.542653430295537"><ele>55.5</ele><time>2026-04-12T10:53:41Z</time></trkpt><trkpt lat="38.883423181330365" lon="16.54249642577762"><ele>54.75</ele><time>2026-04-12T10:53:42Z</time></trkpt><trkpt lat="38.88339712670691" lon="16.542332619755612"><ele>54.0</ele><time>2026-04-12T10:53:43Z</time></trkpt><trkpt lat="38.883381847918706" lon="16.542163364513996"><ele>54.33333333333333</ele><time>2026-04-12T10:53:44Z</time></trkpt><trkpt lat="38.883317305801725" lon="16.541908556858473"><ele>54.666666666666664</ele><time>2026-04-12T10:53:45Z</time></trkpt><trkpt lat="38.88325237848211" lon="16.54169723822798"><ele>55.0</ele><time>2026-04-12T10:53:46Z</time></trkpt><trkpt lat="38.88322649451436" lon="16.54149486060539"><ele>55.0</ele><time>2026-04-12T10:53:47Z</time></trkpt><trkpt lat="38.88319492395079" lon="16.54129134583218"><ele>55.0</ele><time>2026-04-12T10:53:48Z</time></trkpt><trkpt lat="38.88315515842527" lon="16.54109265076705"><ele>55.0</ele><time>2026-04-12T10:53:49Z</time></trkpt><trkpt lat="38.883113214407544" lon="16.540894287908216"><ele>56.666666666666664</ele><time>2026-04-12T10:53:50Z</time></trkpt><trkpt lat="38.88306908615629" lon="16.54069267803109"><ele>58.33333333333333</ele><time>2026-04-12T10:53:51Z</time></trkpt><trkpt lat="38.8830228118543" lon="16.540494271377295"><ele>60.0</ele><time>2026-04-12T10:53:52Z</time></trkpt><trkpt lat="38.88294951888702" lon="16.540304011779437"><ele>61.33333333333333</ele><time>2026-04-12T10:53:53Z</time></trkpt><trkpt lat="38.88286710450303" lon="16.5401187844618"><ele>62.666666666666664</ele><time>2026-04-12T10:53:54Z</time></trkpt><trkpt lat="38.882760648073564" lon="16.539941726935208"><ele>64.0</ele><time>2026-04-12T10:53:55Z</time></trkpt><trkpt lat="38.88264255499108" lon="16.53977476991935"><ele>61.33333333333333</ele><time>2026-04-12T10:53:56Z</time></trkpt><trkpt lat="38.88252194302709" lon="16.539613188089543"><ele>58.66666666666667</ele><time>2026-04-12T10:53:57Z</time></trkpt><trkpt lat="38.88239529815529" lon="16.539443965090253"><ele>56.0</ele><time>2026-04-12T10:53:58Z</time></trkpt><trkpt lat="38.882272867668966" lon="16.539278085535425"><ele>56.0</ele><time>2026-04-12T10:53:59Z</time></trkpt><trkpt lat="38.882123929790886" lon="16.53910029451977"><ele>56.0</ele><time>2026-04-12T10:54:00Z</time></trkpt><trkpt lat="38.882002218412126" lon="16.538948993061048"><ele>56.0</ele><time>2026-04-12T10:54:01Z</time></trkpt><trkpt lat="38.88189446975837" lon="16.538774840879665"><ele>56.333333333333336</ele><time>2026-04-12T10:54:02Z</time></trkpt><trkpt lat="38.881779455277254" lon="16.538606238931063"><ele>56.66666666666667</ele><time>2026-04-12T10:54:03Z</time></trkpt><trkpt lat="38.88166261124386" lon="16.538440961110002"><ele>57.0</ele><time>2026-04-12T10:54:04Z</time></trkpt><trkpt lat="38.88154251217928" lon="16.5382714806597"><ele>57.0</ele><time>2026-04-12T10:54:05Z</time></trkpt><trkpt lat="38.881421821843794" lon="16.538102340500636"><ele>57.0</ele><time>2026-04-12T10:54:06Z</time></trkpt><trkpt lat="38.88130309795599" lon="16.53793788639099"><ele>57.0</ele><time>2026-04-12T10:54:07Z</time></trkpt><trkpt lat="38.881186857045265" lon="16.537769197428805"><ele>56.66666666666667</ele><time>2026-04-12T10:54:08Z</time></trkpt><trkpt lat="38.88109470889321" lon="16.53756783224556"><ele>56.333333333333336</ele><time>2026-04-12T10:54:09Z</time></trkpt><trkpt lat="38.88103201291365" lon="16.53736079574326"><ele>56.0</ele><time>2026-04-12T10:54:10Z</time></trkpt><trkpt lat="38.88101356415449" lon="16.537160941703796"><ele>56.00000000000001</ele><time>2026-04-12T10:54:11Z</time></trkpt><trkpt lat="38.88098030548051" lon="16.537003489505484"><ele>56.0</ele><time>2026-04-12T10:54:12Z</time></trkpt><trkpt lat="38.88095378604305" lon="16.536924441918455"><ele>56.0</ele><time>2026-04-12T10:54:13Z</time></trkpt><trkpt lat="38.88091516186232" lon="16.536826745128852"><ele>56.0</ele><time>2026-04-12T10:54:14Z</time></trkpt><trkpt lat="38.880887537727226" lon="16.53673286833122"><ele>56.00000000000001</ele><time>2026-04-12T10:54:15Z</time></trkpt><trkpt lat="38.88086327798508" lon="16.536649410051133"><ele>56.0</ele><time>2026-04-12T10:54:16Z</time></trkpt><trkpt lat="38.8808451208565" lon="16.536511617516442"><ele>56.00000000000001</ele><time>2026-04-12T10:54:18Z</time></trkpt><trkpt lat="38.880819169771456" lon="16.53641601059295"><ele>56.0</ele><time>2026-04-12T10:54:20Z</time></trkpt><trkpt lat="38.880799904601474" lon="16.536309158157263"><ele>56.0</ele><time>2026-04-12T10:54:23Z</time></trkpt><trkpt lat="38.880756199372755" lon="16.536239827906584"><ele>56.0</ele><time>2026-04-12T10:54:33Z</time></trkpt><trkpt lat="38.88073159561914" lon="16.536155564160563"><ele>56.00000000000001</ele><time>2026-04-12T10:54:35Z</time></trkpt><trkpt lat="38.8806301878785" lon="16.536223455103155"><ele>56.0</ele><time>2026-04-12T10:54:40Z</time></trkpt><trkpt lat="38.88071376182892" lon="16.53609304014369"><ele>56.199999999999996</ele><time>2026-04-12T10:54:41Z</time></trkpt><trkpt lat="38.880671977115156" lon="16.535983030926985"><ele>56.39999999999999</ele><time>2026-04-12T10:55:00Z</time></trkpt><trkpt lat="38.88062818437062" lon="16.535855855189364"><ele>56.6</ele><time>2026-04-12T10:55:02Z</time></trkpt><trkpt lat="38.880607983901214" lon="16.53577164072366"><ele>56.8</ele><time>2026-04-12T10:55:03Z</time></trkpt><trkpt lat="38.8805793225941" lon="16.5356740424902"><ele>57.0</ele><time>2026-04-12T10:55:04Z</time></trkpt><trkpt lat="38.88054202467276" lon="16.535554534114482"><ele>57.0</ele><time>2026-04-12T10:55:05Z</time></trkpt><trkpt lat="38.88050496801751" lon="16.535426882909245"><ele>57.0</ele><time>2026-04-12T10:55:06Z</time></trkpt><trkpt lat="38.88046155451812" lon="16.53528141712898"><ele>57.0</ele><time>2026-04-12T10:55:07Z</time></trkpt><trkpt lat="38.88043013335625" lon="16.535119408950184"><ele>57.0</ele><time>2026-04-12T10:55:08Z</time></trkpt><trkpt lat="38.8804117401703" lon="16.534964302528717"><ele>57.5</ele><time>2026-04-12T10:55:09Z</time></trkpt><trkpt lat="38.880393806890275" lon="16.534805592196104"><ele>58.0</ele><time>2026-04-12T10:55:10Z</time></trkpt><trkpt lat="38.88037595896298" lon="16.53463975987111"><ele>58.5</ele><time>2026-04-12T10:55:11Z</time></trkpt><trkpt lat="38.88035493438907" lon="16.534464814626872"><ele>59.0</ele><time>2026-04-12T10:55:12Z</time></trkpt><trkpt lat="38.88033048269897" lon="16.534298621114026"><ele>59.0</ele><time>2026-04-12T10:55:13Z</time></trkpt><trkpt lat="38.88030684616387" lon="16.534129280366326"><ele>59.0</ele><time>2026-04-12T10:55:14Z</time></trkpt><trkpt lat="38.88028604647747" lon="16.533943701098316"><ele>59.0</ele><time>2026-04-12T10:55:15Z</time></trkpt><trkpt lat="38.880262104589804" lon="16.533760866904544"><ele>59.0</ele><time>2026-04-12T10:55:16Z</time></trkpt><trkpt lat="38.88023643206832" lon="16.53357962494644"><ele>59.0</ele><time>2026-04-12T10:55:17Z</time></trkpt><trkpt lat="38.88021622871231" lon="16.533397543979714"><ele>59.0</ele><time>2026-04-12T10:55:18Z</time></trkpt><trkpt lat="38.88017857673476" lon="16.53320850615545"><ele>59.0</ele><time>2026-04-12T10:55:19Z</time></trkpt><trkpt lat="38.880152630272995" lon="16.53301043201915"><ele>59.66666666666667</ele><time>2026-04-12T10:55:20Z</time></trkpt><trkpt lat="38.88011512681416" lon="16.53279570344048"><ele>60.33333333333333</ele><time>2026-04-12T10:55:21Z</time></trkpt><trkpt lat="38.880097895565434" lon="16.53262172063883"><ele>61.0</ele><time>2026-04-12T10:55:22Z</time></trkpt><trkpt lat="38.8800722125758" lon="16.532409449212402"><ele>61.0</ele><time>2026-04-12T10:55:23Z</time></trkpt><trkpt lat="38.88003676047457" lon="16.532215687595777"><ele>61.0</ele><time>2026-04-12T10:55:24Z</time></trkpt><trkpt lat="38.880016287683745" lon="16.532017175368914"><ele>61.0</ele><time>2026-04-12T10:55:25Z</time></trkpt><trkpt lat="38.879989588398004" lon="16.53181734258854"><ele>61.0</ele><time>2026-04-12T10:55:26Z</time></trkpt><trkpt lat="38.879957555515475" lon="16.531617985408268"><ele>61.0</ele><time>2026-04-12T10:55:27Z</time></trkpt><trkpt lat="38.87992182416385" lon="16.53141870793423"><ele>61.0</ele><time>2026-04-12T10:55:28Z</time></trkpt><trkpt lat="38.87988024874078" lon="16.531219382178275"><ele>61.33333333333333</ele><time>2026-04-12T10:55:29Z</time></trkpt><trkpt lat="38.87984702904698" lon="16.53100531714839"><ele>61.66666666666667</ele><time>2026-04-12T10:55:30Z</time></trkpt><trkpt lat="38.87978834591885" lon="16.53081494147017"><ele>62.0</ele><time>2026-04-12T10:55:31Z</time></trkpt><trkpt lat="38.87973400959905" lon="16.530624717743386"><ele>62.0</ele><time>2026-04-12T10:55:32Z</time></trkpt><trkpt lat="38.879673439191784" lon="16.53043146799964"><ele>62.0</ele><time>2026-04-12T10:55:33Z</time></trkpt><trkpt lat="38.87961063425515" lon="16.530258702919035"><ele>62.0</ele><time>2026-04-12T10:55:34Z</time></trkpt><trkpt lat="38.87956210362554" lon="16.530083187153746"><ele>62.66666666666667</ele><time>2026-04-12T10:55:35Z</time></trkpt><trkpt lat="38.879499115837184" lon="16.529889261186135"><ele>63.33333333333333</ele><time>2026-04-12T10:55:36Z</time></trkpt><trkpt lat="38.87942633697208" lon="16.5296930260593"><ele>64.0</ele><time>2026-04-12T10:55:37Z</time></trkpt><trkpt lat="38.87934962322636" lon="16.529496672281432"><ele>64.33333333333333</ele><time>2026-04-12T10:55:38Z</time></trkpt><trkpt lat="38.879247669274925" lon="16.52930052521681"><ele>64.66666666666667</ele><time>2026-04-12T10:55:39Z</time></trkpt><trkpt lat="38.87914891847938" lon="16.529104824505925"><ele>65.0</ele><time>2026-04-12T10:55:40Z</time></trkpt><trkpt lat="38.87906696938634" lon="16.528907570541726"><ele>65.0</ele><time>2026-04-12T10:55:41Z</time></trkpt><trkpt lat="38.87897122577527" lon="16.528697728754192"><ele>65.0</ele><time>2026-04-12T10:55:42Z</time></trkpt><trkpt lat="38.878867174042725" lon="16.5284969929584"><ele>65.0</ele><time>2026-04-12T10:55:43Z</time></trkpt><trkpt lat="38.87876779145452" lon="16.528303766540645"><ele>65.0</ele><time>2026-04-12T10:55:44Z</time></trkpt><trkpt lat="38.87867414113453" lon="16.52810115722472"><ele>65.0</ele><time>2026-04-12T10:55:45Z</time></trkpt><trkpt lat="38.87859723282378" lon="16.52788840365102"><ele>65.0</ele><time>2026-04-12T10:55:46Z</time></trkpt><trkpt lat="38.87853929406818" lon="16.52766058630318"><ele>65.33333333333334</ele><time>2026-04-12T10:55:47Z</time></trkpt><trkpt lat="38.87851348141604" lon="16.527418920970103"><ele>65.66666666666667</ele><time>2026-04-12T10:55:48Z</time></trkpt><trkpt lat="38.87850690696113" lon="16.527169354257193"><ele>66.0</ele><time>2026-04-12T10:55:49Z</time></trkpt><trkpt lat="38.878516752139156" lon="16.526928534164764"><ele>66.33333333333333</ele><time>2026-04-12T10:55:50Z</time></trkpt><trkpt lat="38.87851917117333" lon="16.52668594198297"><ele>66.66666666666666</ele><time>2026-04-12T10:55:51Z</time></trkpt><trkpt lat="38.878517959387395" lon="16.52644062047331"><ele>67.0</ele><time>2026-04-12T10:55:52Z</time></trkpt><trkpt lat="38.87851504058823" lon="16.526197602765173"><ele>67.0</ele><time>2026-04-12T10:55:53Z</time></trkpt><trkpt lat="38.8785187787209" lon="16.525952954888712"><ele>67.0</ele><time>2026-04-12T10:55:54Z</time></trkpt><trkpt lat="38.87854005440523" lon="16.52571912494598"><ele>67.0</ele><time>2026-04-12T10:55:55Z</time></trkpt><trkpt lat="38.878585920697425" lon="16.52548833155831"><ele>67.66666666666666</ele><time>2026-04-12T10:55:56Z</time></trkpt><trkpt lat="38.878653906188084" lon="16.525259888605472"><ele>68.33333333333333</ele><time>2026-04-12T10:55:57Z</time></trkpt><trkpt lat="38.87872304846485" lon="16.525029493374646"><ele>69.0</ele><time>2026-04-12T10:55:58Z</time></trkpt><trkpt lat="38.878778568955155" lon="16.52479312774679"><ele>69.33333333333333</ele><time>2026-04-12T10:55:59Z</time></trkpt><trkpt lat="38.87882076902425" lon="16.524549771850513"><ele>69.66666666666666</ele><time>2026-04-12T10:56:00Z</time></trkpt><trkpt lat="38.878830617108235" lon="16.524313784700706"><ele>70.0</ele><time>2026-04-12T10:56:01Z</time></trkpt><trkpt lat="38.87879517751359" lon="16.52407395072523"><ele>70.0</ele><time>2026-04-12T10:56:02Z</time></trkpt><trkpt lat="38.878725403669634" lon="16.52384186163783"><ele>70.0</ele><time>2026-04-12T10:56:03Z</time></trkpt><trkpt lat="38.87864388180077" lon="16.523609529406492"><ele>70.0</ele><time>2026-04-12T10:56:04Z</time></trkpt><trkpt lat="38.878570177864006" lon="16.523376019226976"><ele>70.0</ele><time>2026-04-12T10:56:05Z</time></trkpt><trkpt lat="38.878490682400155" lon="16.523141150248666"><ele>70.0</ele><time>2026-04-12T10:56:06Z</time></trkpt><trkpt lat="38.87841255313874" lon="16.52290779445303"><ele>70.0</ele><time>2026-04-12T10:56:07Z</time></trkpt><trkpt lat="38.87834294744619" lon="16.52267770563846"><ele>70.66666666666666</ele><time>2026-04-12T10:56:08Z</time></trkpt><trkpt lat="38.87826931760766" lon="16.52244145977694"><ele>71.33333333333333</ele><time>2026-04-12T10:56:09Z</time></trkpt><trkpt lat="38.87819778163501" lon="16.52221179667333"><ele>72.0</ele><time>2026-04-12T10:56:10Z</time></trkpt><trkpt lat="38.87812531714508" lon="16.521977514616488"><ele>72.33333333333333</ele><time>2026-04-12T10:56:11Z</time></trkpt><trkpt lat="38.878052284714435" lon="16.52174984956829"><ele>72.66666666666666</ele><time>2026-04-12T10:56:12Z</time></trkpt><trkpt lat="38.877985955209105" lon="16.521525973477626"><ele>73.0</ele><time>2026-04-12T10:56:13Z</time></trkpt><trkpt lat="38.87794114513114" lon="16.52131826443164"><ele>73.33333333333333</ele><time>2026-04-12T10:56:14Z</time></trkpt><trkpt lat="38.877949573281086" lon="16.521097618837686"><ele>73.66666666666667</ele><time>2026-04-12T10:56:15Z</time></trkpt><trkpt lat="38.877976108678496" lon="16.52086337194332"><ele>74.0</ele><time>2026-04-12T10:56:16Z</time></trkpt><trkpt lat="38.87800118026267" lon="16.52061907132974"><ele>74.0</ele><time>2026-04-12T10:56:17Z</time></trkpt><trkpt lat="38.878056224074136" lon="16.520375820239874"><ele>74.0</ele><time>2026-04-12T10:56:18Z</time></trkpt><trkpt lat="38.87810749255232" lon="16.520132145306995"><ele>74.0</ele><time>2026-04-12T10:56:19Z</time></trkpt><trkpt lat="38.878148148985936" lon="16.519886734374577"><ele>74.0</ele><time>2026-04-12T10:56:20Z</time></trkpt><trkpt lat="38.878189074561625" lon="16.51965170529863"><ele>74.0</ele><time>2026-04-12T10:56:21Z</time></trkpt><trkpt lat="38.878233914220694" lon="16.519418026469232"><ele>74.0</ele><time>2026-04-12T10:56:22Z</time></trkpt><trkpt lat="38.87825741315576" lon="16.51921734631933"><ele>75.33333333333334</ele><time>2026-04-12T10:56:23Z</time></trkpt><trkpt lat="38.87824758643272" lon="16.519005993998473"><ele>76.66666666666667</ele><time>2026-04-12T10:56:24Z</time></trkpt><trkpt lat="38.878187278912264" lon="16.518838891266853"><ele>78.0</ele><time>2026-04-12T10:56:25Z</time></trkpt><trkpt lat="38.878084565214586" lon="16.518712361557697"><ele>78.0</ele><time>2026-04-12T10:56:26Z</time></trkpt><trkpt lat="38.877947246953404" lon="16.518645540303538"><ele>78.0</ele><time>2026-04-12T10:56:27Z</time></trkpt><trkpt lat="38.877790024628595" lon="16.518606211316605"><ele>78.0</ele><time>2026-04-12T10:56:28Z</time></trkpt><trkpt lat="38.8776391845461" lon="16.518563944633463"><ele>77.75</ele><time>2026-04-12T10:56:29Z</time></trkpt><trkpt lat="38.87750805329984" lon="16.518508904866014"><ele>77.5</ele><time>2026-04-12T10:56:30Z</time></trkpt><trkpt lat="38.87737894021794" lon="16.518425047357585"><ele>77.25</ele><time>2026-04-12T10:56:31Z</time></trkpt><trkpt lat="38.87725617646505" lon="16.51832977876058"><ele>77.0</ele><time>2026-04-12T10:56:32Z</time></trkpt><trkpt lat="38.87713100414569" lon="16.518219500049764"><ele>77.0</ele><time>2026-04-12T10:56:33Z</time></trkpt><trkpt lat="38.87699937826321" lon="16.518118114749676"><ele>77.0</ele><time>2026-04-12T10:56:34Z</time></trkpt><trkpt lat="38.876864295259544" lon="16.518025456644498"><ele>77.0</ele><time>2026-04-12T10:56:35Z</time></trkpt><trkpt lat="38.876718774242846" lon="16.517939238523276"><ele>80.33333333333334</ele><time>2026-04-12T10:56:36Z</time></trkpt><trkpt lat="38.87656177178237" lon="16.517868319323412"><ele>83.66666666666667</ele><time>2026-04-12T10:56:37Z</time></trkpt><trkpt lat="38.876409330660124" lon="16.51779812290992"><ele>87.0</ele><time>2026-04-12T10:56:38Z</time></trkpt><trkpt lat="38.87625463344894" lon="16.517721805609522"><ele>87.0</ele><time>2026-04-12T10:56:39Z</time></trkpt><trkpt lat="38.87610505960216" lon="16.51764593265307"><ele>87.0</ele><time>2026-04-12T10:56:40Z</time></trkpt><trkpt lat="38.875962494739206" lon="16.51757332951412"><ele>87.0</ele><time>2026-04-12T10:56:41Z</time></trkpt><trkpt lat="38.87583563214065" lon="16.517530651871052"><ele>87.0</ele><time>2026-04-12T10:56:42Z</time></trkpt><trkpt lat="38.875732006538534" lon="16.517536595058814"><ele>86.19999999999999</ele><time>2026-04-12T10:56:43Z</time></trkpt><trkpt lat="38.875644637007134" lon="16.517576317326455"><ele>85.4</ele><time>2026-04-12T10:56:44Z</time></trkpt><trkpt lat="38.87556903878982" lon="16.51766158880058"><ele>84.6</ele><time>2026-04-12T10:56:45Z</time></trkpt><trkpt lat="38.87549520795846" lon="16.517747941186624"><ele>83.80000000000001</ele><time>2026-04-12T10:56:46Z</time></trkpt><trkpt lat="38.87541342568819" lon="16.517806952319482"><ele>83.0</ele><time>2026-04-12T10:56:47Z</time></trkpt><trkpt lat="38.875318022118705" lon="16.517841379289628"><ele>83.0</ele><time>2026-04-12T10:56:48Z</time></trkpt><trkpt lat="38.87521242828768" lon="16.517847407024526"><ele>83.0</ele><time>2026-04-12T10:56:49Z</time></trkpt><trkpt lat="38.87510404582449" lon="16.517817868149372"><ele>83.0</ele><time>2026-04-12T10:56:50Z</time></trkpt><trkpt lat="38.87498825722251" lon="16.517766079175512"><ele>83.0</ele><time>2026-04-12T10:56:51Z</time></trkpt><trkpt lat="38.87486794433482" lon="16.517701135913626"><ele>82.75</ele><time>2026-04-12T10:56:52Z</time></trkpt><trkpt lat="38.87474888841445" lon="16.517595545232187"><ele>82.5</ele><time>2026-04-12T10:56:53Z</time></trkpt><trkpt lat="38.874637655254475" lon="16.51746483095023"><ele>82.25</ele><time>2026-04-12T10:56:54Z</time></trkpt><trkpt lat="38.87453870137821" lon="16.517337977799745"><ele>82.0</ele><time>2026-04-12T10:56:55Z</time></trkpt><trkpt lat="38.874433917399195" lon="16.517228913938535"><ele>82.0</ele><time>2026-04-12T10:56:56Z</time></trkpt><trkpt lat="38.87432195298505" lon="16.517154949891776"><ele>82.0</ele><time>2026-04-12T10:56:57Z</time></trkpt><trkpt lat="38.87419330629003" lon="16.517146384626987"><ele>82.0</ele><time>2026-04-12T10:56:58Z</time></trkpt><trkpt lat="38.87405232282753" lon="16.517178648717106"><ele>82.0</ele><time>2026-04-12T10:56:59Z</time></trkpt><trkpt lat="38.873895615678464" lon="16.517224763176657"><ele>83.66666666666666</ele><time>2026-04-12T10:57:00Z</time></trkpt><trkpt lat="38.873759301390194" lon="16.517267764650175"><ele>85.33333333333333</ele><time>2026-04-12T10:57:01Z</time></trkpt><trkpt lat="38.87359691295089" lon="16.51727403605145"><ele>87.0</ele><time>2026-04-12T10:57:02Z</time></trkpt><trkpt lat="38.87344241080091" lon="16.51725380060816"><ele>86.75</ele><time>2026-04-12T10:57:03Z</time></trkpt><trkpt lat="38.87328222337871" lon="16.517239090277698"><ele>86.5</ele><time>2026-04-12T10:57:04Z</time></trkpt><trkpt lat="38.87315040248988" lon="16.51720488831462"><ele>86.25</ele><time>2026-04-12T10:57:05Z</time></trkpt><trkpt lat="38.873042532280806" lon="16.517140359817887"><ele>86.0</ele><time>2026-04-12T10:57:06Z</time></trkpt><trkpt lat="38.87297917807847" lon="16.51700756609454"><ele>86.0</ele><time>2026-04-12T10:57:07Z</time></trkpt><trkpt lat="38.872890704028215" lon="16.5168824221144"><ele>86.0</ele><time>2026-04-12T10:57:08Z</time></trkpt><trkpt lat="38.87279922050045" lon="16.516759376335635"><ele>86.0</ele><time>2026-04-12T10:57:09Z</time></trkpt><trkpt lat="38.872676115773736" lon="16.516702266940104"><ele>86.0</ele><time>2026-04-12T10:57:10Z</time></trkpt><trkpt lat="38.8725358884575" lon="16.516683921707905"><ele>88.66666666666667</ele><time>2026-04-12T10:57:11Z</time></trkpt><trkpt lat="38.87238356643728" lon="16.516654086987053"><ele>91.33333333333333</ele><time>2026-04-12T10:57:12Z</time></trkpt><trkpt lat="38.87222243394462" lon="16.516622639181872"><ele>94.0</ele><time>2026-04-12T10:57:13Z</time></trkpt><trkpt lat="38.87205838941302" lon="16.516581827586965"><ele>94.0</ele><time>2026-04-12T10:57:14Z</time></trkpt><trkpt lat="38.871890307504955" lon="16.516554705287383"><ele>94.0</ele><time>2026-04-12T10:57:15Z</time></trkpt><trkpt lat="38.87171648597115" lon="16.516535629795968"><ele>94.0</ele><time>2026-04-12T10:57:16Z</time></trkpt><trkpt lat="38.871550941719924" lon="16.516533078085583"><ele>96.33333333333333</ele><time>2026-04-12T10:57:17Z</time></trkpt><trkpt lat="38.87137124040398" lon="16.51651519304878"><ele>98.66666666666666</ele><time>2026-04-12T10:57:18Z</time></trkpt><trkpt lat="38.871194122225006" lon="16.516502754082186"><ele>101.0</ele><time>2026-04-12T10:57:19Z</time></trkpt><trkpt lat="38.87102221956838" lon="16.51648333636003"><ele>103.33333333333333</ele><time>2026-04-12T10:57:20Z</time></trkpt><trkpt lat="38.870845184316465" lon="16.516456547681226"><ele>105.66666666666666</ele><time>2026-04-12T10:57:21Z</time></trkpt><trkpt lat="38.87067346879293" lon="16.51640538214907"><ele>108.0</ele><time>2026-04-12T10:57:22Z</time></trkpt><trkpt lat="38.870498200230465" lon="16.51635525588531"><ele>108.0</ele><time>2026-04-12T10:57:23Z</time></trkpt><trkpt lat="38.87032322511415" lon="16.516311407279428"><ele>108.0</ele><time>2026-04-12T10:57:24Z</time></trkpt><trkpt lat="38.87015695870561" lon="16.516269206573067"><ele>108.0</ele><time>2026-04-12T10:57:25Z</time></trkpt><trkpt lat="38.86999430268726" lon="16.51622133553708"><ele>109.5</ele><time>2026-04-12T10:57:26Z</time></trkpt><trkpt lat="38.8698488640865" lon="16.516171866050446"><ele>111.0</ele><time>2026-04-12T10:57:27Z</time></trkpt><trkpt lat="38.86970950675239" lon="16.516145760516658"><ele>112.5</ele><time>2026-04-12T10:57:28Z</time></trkpt><trkpt lat="38.86956400212881" lon="16.516173933905943"><ele>114.0</ele><time>2026-04-12T10:57:29Z</time></trkpt><trkpt lat="38.86944714420865" lon="16.516247041684576"><ele>114.0</ele><time>2026-04-12T10:57:30Z</time></trkpt><trkpt lat="38.86932995331528" lon="16.516379928784747"><ele>114.0</ele><time>2026-04-12T10:57:31Z</time></trkpt><trkpt lat="38.86922690214996" lon="16.516526267958334"><ele>114.0</ele><time>2026-04-12T10:57:32Z</time></trkpt><trkpt lat="38.86913239317401" lon="16.516619434531904"><ele>114.0</ele><time>2026-04-12T10:57:33Z</time></trkpt><trkpt lat="38.868998108248036" lon="16.516670931655895"><ele>114.0</ele><time>2026-04-12T10:57:34Z</time></trkpt><trkpt lat="38.86886797137919" lon="16.516682561376474"><ele>114.0</ele><time>2026-04-12T10:57:35Z</time></trkpt><trkpt lat="38.868758299845766" lon="16.516621921992915"><ele>114.0</ele><time>2026-04-12T10:57:36Z</time></trkpt><trkpt lat="38.868672122880945" lon="16.516523025301943"><ele>114.0</ele><time>2026-04-12T10:57:37Z</time></trkpt><trkpt lat="38.868627451459965" lon="16.516423484686257"><ele>114.0</ele><time>2026-04-12T10:57:38Z</time></trkpt><trkpt lat="38.86859831916703" lon="16.516272811821874"><ele>114.0</ele><time>2026-04-12T10:57:39Z</time></trkpt><trkpt lat="38.86856239008507" lon="16.51609464801465"><ele>114.0</ele><time>2026-04-12T10:57:40Z</time></trkpt><trkpt lat="38.86853009189965" lon="16.515940345304863"><ele>114.0</ele><time>2026-04-12T10:57:41Z</time></trkpt><trkpt lat="38.8684899912761" lon="16.51579751023195"><ele>116.0</ele><time>2026-04-12T10:57:42Z</time></trkpt><trkpt lat="38.868422040692906" lon="16.515671899149314"><ele>118.0</ele><time>2026-04-12T10:57:43Z</time></trkpt><trkpt lat="38.868310126786604" lon="16.515604266386802"><ele>120.0</ele><time>2026-04-12T10:57:44Z</time></trkpt><trkpt lat="38.86818138458414" lon="16.515577499723054"><ele>122.0</ele><time>2026-04-12T10:57:45Z</time></trkpt><trkpt lat="38.868092285718205" lon="16.515531788018137"><ele>122.0</ele><time>2026-04-12T10:57:46Z</time></trkpt><trkpt lat="38.86805536438444" lon="16.51540887304805"><ele>121.99999999999999</ele><time>2026-04-12T10:57:47Z</time></trkpt><trkpt lat="38.868073822352486" lon="16.515270421584717"><ele>121.99999999999999</ele><time>2026-04-12T10:57:48Z</time></trkpt><trkpt lat="38.868057797683825" lon="16.515117510899472"><ele>122.0</ele><time>2026-04-12T10:57:49Z</time></trkpt><trkpt lat="38.86802798948948" lon="16.514980675131802"><ele>122.0</ele><time>2026-04-12T10:57:50Z</time></trkpt><trkpt lat="38.86796115446567" lon="16.514866490190755"><ele>123.75</ele><time>2026-04-12T10:57:51Z</time></trkpt><trkpt lat="38.86786117325502" lon="16.514785333045772"><ele>125.5</ele><time>2026-04-12T10:57:52Z</time></trkpt><trkpt lat="38.86774820905748" lon="16.51473081011198"><ele>127.25</ele><time>2026-04-12T10:57:53Z</time></trkpt><trkpt lat="38.867630756848975" lon="16.514677692314244"><ele>129.0</ele><time>2026-04-12T10:57:54Z</time></trkpt><trkpt lat="38.86751585193548" lon="16.514620488449612"><ele>126.4</ele><time>2026-04-12T10:57:55Z</time></trkpt><trkpt lat="38.86740911522852" lon="16.514564559678973"><ele>123.80000000000001</ele><time>2026-04-12T10:57:56Z</time></trkpt><trkpt lat="38.867316704574456" lon="16.51451981709274"><ele>121.19999999999999</ele><time>2026-04-12T10:57:57Z</time></trkpt><trkpt lat="38.867228154456775" lon="16.51448954592876"><ele>118.6</ele><time>2026-04-12T10:57:58Z</time></trkpt><trkpt lat="38.86714438630441" lon="16.514470711038843"><ele>116.0</ele><time>2026-04-12T10:57:59Z</time></trkpt><trkpt lat="38.86705742429127" lon="16.51444819191977"><ele>116.0</ele><time>2026-04-12T10:58:00Z</time></trkpt><trkpt lat="38.8669719504684" lon="16.51439177994213"><ele>116.0</ele><time>2026-04-12T10:58:01Z</time></trkpt><trkpt lat="38.86688830018258" lon="16.514284507653226"><ele>116.0</ele><time>2026-04-12T10:58:02Z</time></trkpt><trkpt lat="38.866814070700805" lon="16.514161516104714"><ele>116.0</ele><time>2026-04-12T10:58:03Z</time></trkpt><trkpt lat="38.86675135670212" lon="16.5140296541474"><ele>118.0</ele><time>2026-04-12T10:58:04Z</time></trkpt><trkpt lat="38.866693127840364" lon="16.513897771757435"><ele>120.0</ele><time>2026-04-12T10:58:05Z</time></trkpt><trkpt lat="38.86664629387196" lon="16.513781998619976"><ele>122.0</ele><time>2026-04-12T10:58:06Z</time></trkpt><trkpt lat="38.866607653164934" lon="16.51367121443762"><ele>124.0</ele><time>2026-04-12T10:58:07Z</time></trkpt><trkpt lat="38.86657345519636" lon="16.51357727108358"><ele>126.0</ele><time>2026-04-12T10:58:08Z</time></trkpt><trkpt lat="38.86654801069843" lon="16.51348903119967"><ele>126.16666666666667</ele><time>2026-04-12T10:58:09Z</time></trkpt><trkpt lat="38.86651506445205" lon="16.51340193496169"><ele>126.33333333333334</ele><time>2026-04-12T10:58:10Z</time></trkpt><trkpt lat="38.86646890932401" lon="16.513279615702544"><ele>126.5</ele><time>2026-04-12T10:58:12Z</time></trkpt><trkpt lat="38.86643222133329" lon="16.513173830296502"><ele>126.66666666666667</ele><time>2026-04-12T10:58:14Z</time></trkpt><trkpt lat="38.86640533112486" lon="16.513092318783812"><ele>126.83333333333334</ele><time>2026-04-12T10:58:16Z</time></trkpt><trkpt lat="38.866359511586936" lon="16.51299968236278"><ele>127.0</ele><time>2026-04-12T10:58:17Z</time></trkpt><trkpt lat="38.86632839725529" lon="16.512911622448467"><ele>125.83333333333334</ele><time>2026-04-12T10:58:18Z</time></trkpt><trkpt lat="38.866297523926" lon="16.512819872524112"><ele>124.66666666666667</ele><time>2026-04-12T10:58:19Z</time></trkpt><trkpt lat="38.866261869839285" lon="16.51272130414113"><ele>123.5</ele><time>2026-04-12T10:58:20Z</time></trkpt><trkpt lat="38.86622392416449" lon="16.512623164432643"><ele>122.33333333333334</ele><time>2026-04-12T10:58:21Z</time></trkpt><trkpt lat="38.86618870421477" lon="16.512532344091614"><ele>121.16666666666667</ele><time>2026-04-12T10:58:22Z</time></trkpt><trkpt lat="38.866153914079874" lon="16.51243582728346"><ele>120.0</ele><time>2026-04-12T10:58:23Z</time></trkpt><trkpt lat="38.86612440960266" lon="16.51232077218983"><ele>120.0</ele><time>2026-04-12T10:58:24Z</time></trkpt><trkpt lat="38.86610936197696" lon="16.51221906056464"><ele>120.0</ele><time>2026-04-12T10:58:25Z</time></trkpt><trkpt lat="38.866041042189686" lon="16.51210715979595"><ele>120.0</ele><time>2026-04-12T10:58:26Z</time></trkpt><trkpt lat="38.865999560447015" lon="16.511993143464125"><ele>120.0</ele><time>2026-04-12T10:58:27Z</time></trkpt><trkpt lat="38.8659580780626" lon="16.511875063060312"><ele>120.0</ele><time>2026-04-12T10:58:28Z</time></trkpt><trkpt lat="38.86590940949413" lon="16.511741808437954"><ele>123.75</ele><time>2026-04-12T10:58:29Z</time></trkpt><trkpt lat="38.8658549896121" lon="16.51160354132822"><ele>127.5</ele><time>2026-04-12T10:58:30Z</time></trkpt><trkpt lat="38.86580066052063" lon="16.51146388412166"><ele>131.25</ele><time>2026-04-12T10:58:31Z</time></trkpt><trkpt lat="38.865743870907465" lon="16.51131932325226"><ele>135.0</ele><time>2026-04-12T10:58:32Z</time></trkpt><trkpt lat="38.86569416656182" lon="16.511181610849135"><ele>135.25</ele><time>2026-04-12T10:58:33Z</time></trkpt><trkpt lat="38.865643423892664" lon="16.51103915106856"><ele>135.5</ele><time>2026-04-12T10:58:34Z</time></trkpt><trkpt lat="38.86559746501134" lon="16.51088668547787"><ele>135.75</ele><time>2026-04-12T10:58:35Z</time></trkpt><trkpt lat="38.86556260818277" lon="16.51072587706695"><ele>136.0</ele><time>2026-04-12T10:58:36Z</time></trkpt><trkpt lat="38.86554833135417" lon="16.51055101908469"><ele>139.66666666666669</ele><time>2026-04-12T10:58:37Z</time></trkpt><trkpt lat="38.86555352450144" lon="16.5103685965956"><ele>143.33333333333334</ele><time>2026-04-12T10:58:38Z</time></trkpt><trkpt lat="38.86549564077655" lon="16.51018964990839"><ele>147.0</ele><time>2026-04-12T10:58:39Z</time></trkpt><trkpt lat="38.8656447274341" lon="16.510060871210914"><ele>147.0</ele><time>2026-04-12T10:58:40Z</time></trkpt><trkpt lat="38.86574905464882" lon="16.509975911179772"><ele>147.0</ele><time>2026-04-12T10:58:41Z</time></trkpt><trkpt lat="38.865886011499455" lon="16.50994037225823"><ele>147.0</ele><time>2026-04-12T10:58:42Z</time></trkpt><trkpt lat="38.86600349525503" lon="16.50990591312486"><ele>147.0</ele><time>2026-04-12T10:58:43Z</time></trkpt><trkpt lat="38.86609104619993" lon="16.509808145552757"><ele>145.5</ele><time>2026-04-12T10:58:44Z</time></trkpt><trkpt lat="38.866133732293804" lon="16.50966470557821"><ele>144.0</ele><time>2026-04-12T10:58:45Z</time></trkpt><trkpt lat="38.866118899235225" lon="16.50948212874991"><ele>142.5</ele><time>2026-04-12T10:58:46Z</time></trkpt><trkpt lat="38.866096728471064" lon="16.509293544093115"><ele>141.0</ele><time>2026-04-12T10:58:47Z</time></trkpt><trkpt lat="38.86609649645356" lon="16.509116281233855"><ele>141.0</ele><time>2026-04-12T10:58:48Z</time></trkpt><trkpt lat="38.866117505734664" lon="16.508957325098702"><ele>141.0</ele><time>2026-04-12T10:58:49Z</time></trkpt><trkpt lat="38.86619566953452" lon="16.508830586858974"><ele>141.0</ele><time>2026-04-12T10:58:50Z</time></trkpt><trkpt lat="38.86629452875756" lon="16.50870729555321"><ele>141.0</ele><time>2026-04-12T10:58:51Z</time></trkpt><trkpt lat="38.86640565895311" lon="16.508585039483012"><ele>141.0</ele><time>2026-04-12T10:58:52Z</time></trkpt><trkpt lat="38.866537653314545" lon="16.50849384485825"><ele>141.0</ele><time>2026-04-12T10:58:53Z</time></trkpt><trkpt lat="38.866675006083405" lon="16.50839256388635"><ele>141.0</ele><time>2026-04-12T10:58:54Z</time></trkpt><trkpt lat="38.86681406174116" lon="16.508319387348624"><ele>141.0</ele><time>2026-04-12T10:58:55Z</time></trkpt><trkpt lat="38.86694493630817" lon="16.508241813108636"><ele>141.0</ele><time>2026-04-12T10:58:56Z</time></trkpt><trkpt lat="38.86705531043068" lon="16.50817114388366"><ele>141.0</ele><time>2026-04-12T10:58:57Z</time></trkpt><trkpt lat="38.86713373414054" lon="16.508064540682625"><ele>141.0</ele><time>2026-04-12T10:58:58Z</time></trkpt><trkpt lat="38.867168632867205" lon="16.50791038633253"><ele>142.0</ele><time>2026-04-12T10:58:59Z</time></trkpt><trkpt lat="38.867152761261316" lon="16.50774969143118"><ele>143.0</ele><time>2026-04-12T10:59:00Z</time></trkpt><trkpt lat="38.86708054481416" lon="16.50762918470779"><ele>144.0</ele><time>2026-04-12T10:59:01Z</time></trkpt><trkpt lat="38.86696978509709" lon="16.507548620816664"><ele>145.0</ele><time>2026-04-12T10:59:02Z</time></trkpt><trkpt lat="38.86684912902954" lon="16.507489525044665"><ele>151.5</ele><time>2026-04-12T10:59:03Z</time></trkpt><trkpt lat="38.86675747934126" lon="16.507405520813453"><ele>158.0</ele><time>2026-04-12T10:59:04Z</time></trkpt><trkpt lat="38.86671267834416" lon="16.507275998032007"><ele>164.5</ele><time>2026-04-12T10:59:05Z</time></trkpt><trkpt lat="38.866694789051635" lon="16.507118802487465"><ele>171.0</ele><time>2026-04-12T10:59:06Z</time></trkpt><trkpt lat="38.86668486607457" lon="16.50696151744376"><ele>171.0</ele><time>2026-04-12T10:59:07Z</time></trkpt><trkpt lat="38.866652121158154" lon="16.50679499999334"><ele>171.0</ele><time>2026-04-12T10:59:08Z</time></trkpt><trkpt lat="38.86657677547411" lon="16.506590392320927"><ele>171.0</ele><time>2026-04-12T10:59:09Z</time></trkpt><trkpt lat="38.86649257011505" lon="16.506359258828397"><ele>170.5</ele><time>2026-04-12T10:59:10Z</time></trkpt><trkpt lat="38.86643434947654" lon="16.506171542852258"><ele>170.0</ele><time>2026-04-12T10:59:11Z</time></trkpt><trkpt lat="38.86641707478784" lon="16.505995480558823"><ele>169.5</ele><time>2026-04-12T10:59:12Z</time></trkpt><trkpt lat="38.86645549947364" lon="16.505825371239954"><ele>169.0</ele><time>2026-04-12T10:59:13Z</time></trkpt><trkpt lat="38.86647571850695" lon="16.5056461196598"><ele>169.0</ele><time>2026-04-12T10:59:14Z</time></trkpt><trkpt lat="38.866514384690014" lon="16.505500103795757"><ele>169.0</ele><time>2026-04-12T10:59:15Z</time></trkpt><trkpt lat="38.8665559671632" lon="16.505363785076703"><ele>169.0</ele><time>2026-04-12T10:59:16Z</time></trkpt><trkpt lat="38.86664588472771" lon="16.505261731454034"><ele>169.0</ele><time>2026-04-12T10:59:17Z</time></trkpt><trkpt lat="38.86673905741431" lon="16.50512910247482"><ele>168.0</ele><time>2026-04-12T10:59:18Z</time></trkpt><trkpt lat="38.866830645451024" lon="16.504989307216434"><ele>167.0</ele><time>2026-04-12T10:59:19Z</time></trkpt><trkpt lat="38.8669328117331" lon="16.50485622871506"><ele>166.0</ele><time>2026-04-12T10:59:20Z</time></trkpt><trkpt lat="38.867036768777794" lon="16.504722579811485"><ele>165.0</ele><time>2026-04-12T10:59:21Z</time></trkpt><trkpt lat="38.867132615400905" lon="16.50457926086855"><ele>169.25</ele><time>2026-04-12T10:59:22Z</time></trkpt><trkpt lat="38.867212737329126" lon="16.504420183001706"><ele>173.5</ele><time>2026-04-12T10:59:23Z</time></trkpt><trkpt lat="38.867246522344324" lon="16.50424019794138"><ele>177.75</ele><time>2026-04-12T10:59:24Z</time></trkpt><trkpt lat="38.86724453671973" lon="16.504056031894763"><ele>182.0</ele><time>2026-04-12T10:59:25Z</time></trkpt><trkpt lat="38.86722122542317" lon="16.503888545678063"><ele>182.0</ele><time>2026-04-12T10:59:26Z</time></trkpt><trkpt lat="38.8671950845597" lon="16.503744126706096"><ele>182.0</ele><time>2026-04-12T10:59:27Z</time></trkpt><trkpt lat="38.867235755359204" lon="16.5035907862759"><ele>182.0</ele><time>2026-04-12T10:59:28Z</time></trkpt><trkpt lat="38.867284840051724" lon="16.503538338728998"><ele>182.0</ele><time>2026-04-12T10:59:29Z</time></trkpt><trkpt lat="38.86734668934568" lon="16.503555005108336"><ele>182.0</ele><time>2026-04-12T10:59:30Z</time></trkpt><trkpt lat="38.86742840305579" lon="16.503656973124265"><ele>182.0</ele><time>2026-04-12T10:59:31Z</time></trkpt><trkpt lat="38.86742495921491" lon="16.503761775744866"><ele>182.0</ele><time>2026-04-12T10:59:32Z</time></trkpt><trkpt lat="38.86740589206003" lon="16.50390563575816"><ele>182.0</ele><time>2026-04-12T10:59:33Z</time></trkpt><trkpt lat="38.86743518240341" lon="16.504034686974595"><ele>182.0</ele><time>2026-04-12T10:59:34Z</time></trkpt><trkpt lat="38.8674872636238" lon="16.504150418153866"><ele>182.0</ele><time>2026-04-12T10:59:35Z</time></trkpt><trkpt lat="38.86760543759096" lon="16.50415915038055"><ele>183.5</ele><time>2026-04-12T10:59:36Z</time></trkpt><trkpt lat="38.867722864747826" lon="16.504136237216077"><ele>185.0</ele><time>2026-04-12T10:59:37Z</time></trkpt><trkpt lat="38.86784766420423" lon="16.50401813664187"><ele>186.5</ele><time>2026-04-12T10:59:38Z</time></trkpt><trkpt lat="38.86794573480831" lon="16.503891783609035"><ele>188.0</ele><time>2026-04-12T10:59:39Z</time></trkpt><trkpt lat="38.86803567006585" lon="16.503809506695923"><ele>188.0</ele><time>2026-04-12T10:59:40Z</time></trkpt><trkpt lat="38.868146204298526" lon="16.503841416120995"><ele>188.0</ele><time>2026-04-12T10:59:41Z</time></trkpt><trkpt lat="38.86823248900579" lon="16.503941222804713"><ele>188.0</ele><time>2026-04-12T10:59:42Z</time></trkpt><trkpt lat="38.868349306501116" lon="16.503960377861418"><ele>188.0</ele><time>2026-04-12T10:59:43Z</time></trkpt><trkpt lat="38.8684627452763" lon="16.50394982355358"><ele>188.75</ele><time>2026-04-12T10:59:44Z</time></trkpt><trkpt lat="38.86856266445945" lon="16.50387859384174"><ele>189.5</ele><time>2026-04-12T10:59:45Z</time></trkpt><trkpt lat="38.86865690957497" lon="16.50373669340382"><ele>190.25</ele><time>2026-04-12T10:59:46Z</time></trkpt><trkpt lat="38.86871891250956" lon="16.50357291909593"><ele>191.0</ele><time>2026-04-12T10:59:47Z</time></trkpt><trkpt lat="38.86877535225172" lon="16.503409034859814"><ele>195.0</ele><time>2026-04-12T10:59:48Z</time></trkpt><trkpt lat="38.86887140194425" lon="16.50329403005389"><ele>199.0</ele><time>2026-04-12T10:59:49Z</time></trkpt><trkpt lat="38.868976647515595" lon="16.503216585064045"><ele>203.0</ele><time>2026-04-12T10:59:50Z</time></trkpt><trkpt lat="38.86909430066194" lon="16.503192491350937"><ele>207.0</ele><time>2026-04-12T10:59:51Z</time></trkpt><trkpt lat="38.86920658384126" lon="16.5032385042909"><ele>207.0</ele><time>2026-04-12T10:59:52Z</time></trkpt><trkpt lat="38.86927931759998" lon="16.50332527201559"><ele>207.0</ele><time>2026-04-12T10:59:53Z</time></trkpt><trkpt lat="38.869406250529266" lon="16.50344269522646"><ele>207.0</ele><time>2026-04-12T10:59:54Z</time></trkpt><trkpt lat="38.869497119822334" lon="16.503504915010147"><ele>207.0</ele><time>2026-04-12T10:59:55Z</time></trkpt><trkpt lat="38.869605505375816" lon="16.50344472171583"><ele>207.0</ele><time>2026-04-12T10:59:56Z</time></trkpt><trkpt lat="38.86970774395042" lon="16.503338603846984"><ele>207.0</ele><time>2026-04-12T10:59:57Z</time></trkpt><trkpt lat="38.869733457861614" lon="16.503216011710215"><ele>207.0</ele><time>2026-04-12T10:59:58Z</time></trkpt><trkpt lat="38.86969689810111" lon="16.5031025904918"><ele>207.0</ele><time>2026-04-12T10:59:59Z</time></trkpt><trkpt lat="38.869632574075915" lon="16.50300844406215"><ele>207.0</ele><time>2026-04-12T11:00:00Z</time></trkpt><trkpt lat="38.869495317372184" lon="16.502964461024344"><ele>207.0</ele><time>2026-04-12T11:00:01Z</time></trkpt><trkpt lat="38.869373827558" lon="16.502922698279324"><ele>207.0</ele><time>2026-04-12T11:00:02Z</time></trkpt><trkpt lat="38.86923584195852" lon="16.502884689287594"><ele>207.0</ele><time>2026-04-12T11:00:03Z</time></trkpt><trkpt lat="38.869105665337386" lon="16.50283675792833"><ele>207.0</ele><time>2026-04-12T11:00:04Z</time></trkpt><trkpt lat="38.868997711148424" lon="16.502778389766338"><ele>211.25</ele><time>2026-04-12T11:00:05Z</time></trkpt><trkpt lat="38.868913686168284" lon="16.50270163913062"><ele>215.5</ele><time>2026-04-12T11:00:06Z</time></trkpt><trkpt lat="38.8688862419557" lon="16.502572254822322"><ele>219.75</ele><time>2026-04-12T11:00:07Z</time></trkpt><trkpt lat="38.868834839710225" lon="16.50241612671396"><ele>224.0</ele><time>2026-04-12T11:00:08Z</time></trkpt><trkpt lat="38.86880670732516" lon="16.50224334306305"><ele>230.33333333333334</ele><time>2026-04-12T11:00:09Z</time></trkpt><trkpt lat="38.86881781795647" lon="16.50203216022144"><ele>236.66666666666669</ele><time>2026-04-12T11:00:10Z</time></trkpt><trkpt lat="38.86881575579676" lon="16.501852170289368"><ele>243.0</ele><time>2026-04-12T11:00:11Z</time></trkpt><trkpt lat="38.868766366403456" lon="16.501677070911903"><ele>243.0</ele><time>2026-04-12T11:00:12Z</time></trkpt><trkpt lat="38.86867840537417" lon="16.501507686460247"><ele>243.0</ele><time>2026-04-12T11:00:13Z</time></trkpt><trkpt lat="38.86857030838965" lon="16.501367877817867"><ele>243.0</ele><time>2026-04-12T11:00:14Z</time></trkpt><trkpt lat="38.86846103666432" lon="16.50126842964886"><ele>243.0</ele><time>2026-04-12T11:00:15Z</time></trkpt><trkpt lat="38.86837172566207" lon="16.501172283330977"><ele>239.0</ele><time>2026-04-12T11:00:16Z</time></trkpt><trkpt lat="38.86831320233459" lon="16.501027524079802"><ele>235.0</ele><time>2026-04-12T11:00:17Z</time></trkpt><trkpt lat="38.86830359727555" lon="16.500889097940398"><ele>231.0</ele><time>2026-04-12T11:00:18Z</time></trkpt><trkpt lat="38.86834518859595" lon="16.500741773177296"><ele>227.0</ele><time>2026-04-12T11:00:19Z</time></trkpt><trkpt lat="38.86843567184319" lon="16.500591942390084"><ele>236.0</ele><time>2026-04-12T11:00:20Z</time></trkpt><trkpt lat="38.86851422413854" lon="16.500429559512583"><ele>245.0</ele><time>2026-04-12T11:00:21Z</time></trkpt><trkpt lat="38.868569870734454" lon="16.50025521007095"><ele>254.0</ele><time>2026-04-12T11:00:22Z</time></trkpt><trkpt lat="38.868581433392414" lon="16.500061455314604"><ele>263.0</ele><time>2026-04-12T11:00:23Z</time></trkpt><trkpt lat="38.868576196451485" lon="16.499862098201827"><ele>267.0</ele><time>2026-04-12T11:00:24Z</time></trkpt><trkpt lat="38.86856462228006" lon="16.499657283823677"><ele>271.0</ele><time>2026-04-12T11:00:25Z</time></trkpt><trkpt lat="38.86854384191856" lon="16.499460633707177"><ele>275.0</ele><time>2026-04-12T11:00:26Z</time></trkpt><trkpt lat="38.868506870595816" lon="16.49925665589436"><ele>271.6666666666667</ele><time>2026-04-12T11:00:27Z</time></trkpt><trkpt lat="38.868447436113996" lon="16.499060191121"><ele>268.3333333333333</ele><time>2026-04-12T11:00:28Z</time></trkpt><trkpt lat="38.86837290520207" lon="16.49887564219492"><ele>265.0</ele><time>2026-04-12T11:00:29Z</time></trkpt><trkpt lat="38.868297900473564" lon="16.49871309767013"><ele>265.0</ele><time>2026-04-12T11:00:30Z</time></trkpt><trkpt lat="38.8682438832833" lon="16.498538887193337"><ele>265.0</ele><time>2026-04-12T11:00:31Z</time></trkpt><trkpt lat="38.868195252357125" lon="16.49835655292442"><ele>265.0</ele><time>2026-04-12T11:00:32Z</time></trkpt><trkpt lat="38.86815890089466" lon="16.49817743631562"><ele>265.0</ele><time>2026-04-12T11:00:33Z</time></trkpt><trkpt lat="38.86812021910045" lon="16.49799860496378"><ele>268.3333333333333</ele><time>2026-04-12T11:00:34Z</time></trkpt><trkpt lat="38.86807488955986" lon="16.49781993028802"><ele>271.6666666666667</ele><time>2026-04-12T11:00:35Z</time></trkpt><trkpt lat="38.86800491794867" lon="16.497634559818565"><ele>275.0</ele><time>2026-04-12T11:00:36Z</time></trkpt><trkpt lat="38.86792366999012" lon="16.497479590507844"><ele>275.0</ele><time>2026-04-12T11:00:37Z</time></trkpt><trkpt lat="38.86785191571303" lon="16.497353275902213"><ele>275.0</ele><time>2026-04-12T11:00:38Z</time></trkpt><trkpt lat="38.86781174337308" lon="16.497231387942907"><ele>275.0</ele><time>2026-04-12T11:00:39Z</time></trkpt><trkpt lat="38.86776852961112" lon="16.497148533635517"><ele>275.0</ele><time>2026-04-12T11:00:40Z</time></trkpt><trkpt lat="38.86779403303114" lon="16.497073397286062"><ele>275.0</ele><time>2026-04-12T11:00:41Z</time></trkpt><trkpt lat="38.867909763313406" lon="16.496862950799617"><ele>271.0</ele><time>2026-04-12T11:00:42Z</time></trkpt><trkpt lat="38.867978781438914" lon="16.49672686261983"><ele>267.0</ele><time>2026-04-12T11:00:43Z</time></trkpt><trkpt lat="38.86805497293232" lon="16.49657818396917"><ele>263.0</ele><time>2026-04-12T11:00:44Z</time></trkpt><trkpt lat="38.86813724668218" lon="16.496469773940095"><ele>259.0</ele><time>2026-04-12T11:00:45Z</time></trkpt><trkpt lat="38.868227718515" lon="16.496399202337344"><ele>259.0</ele><time>2026-04-12T11:00:46Z</time></trkpt><trkpt lat="38.868320971630816" lon="16.496418171484272"><ele>259.0</ele><time>2026-04-12T11:00:47Z</time></trkpt><trkpt lat="38.86840747865383" lon="16.49649575165905"><ele>259.0</ele><time>2026-04-12T11:00:48Z</time></trkpt><trkpt lat="38.86850527726887" lon="16.496565982042657"><ele>259.0</ele><time>2026-04-12T11:00:49Z</time></trkpt><trkpt lat="38.86859894509345" lon="16.49666570631139"><ele>259.0</ele><time>2026-04-12T11:00:50Z</time></trkpt><trkpt lat="38.86870942193595" lon="16.496762188029667"><ele>260.5</ele><time>2026-04-12T11:00:51Z</time></trkpt><trkpt lat="38.868824451634865" lon="16.49684069826407"><ele>262.0</ele><time>2026-04-12T11:00:52Z</time></trkpt><trkpt lat="38.86896217082679" lon="16.496850841860965"><ele>263.5</ele><time>2026-04-12T11:00:53Z</time></trkpt><trkpt lat="38.86909539817543" lon="16.49683787345015"><ele>265.0</ele><time>2026-04-12T11:00:54Z</time></trkpt><trkpt lat="38.86922530641344" lon="16.496812645220295"><ele>268.0</ele><time>2026-04-12T11:00:55Z</time></trkpt><trkpt lat="38.86935361103218" lon="16.496830629092443"><ele>271.0</ele><time>2026-04-12T11:00:56Z</time></trkpt><trkpt lat="38.86946728905168" lon="16.496872416435107"><ele>274.0</ele><time>2026-04-12T11:00:57Z</time></trkpt><trkpt lat="38.86958489297361" lon="16.496886446745297"><ele>277.0</ele><time>2026-04-12T11:00:58Z</time></trkpt><trkpt lat="38.869688453578135" lon="16.496879286244297"><ele>277.0</ele><time>2026-04-12T11:00:59Z</time></trkpt><trkpt lat="38.869796906644915" lon="16.49678693407533"><ele>277.0</ele><time>2026-04-12T11:01:00Z</time></trkpt><trkpt lat="38.86988421844737" lon="16.496654952654193"><ele>277.0</ele><time>2026-04-12T11:01:01Z</time></trkpt><trkpt lat="38.86992052009546" lon="16.496467175695518"><ele>277.0</ele><time>2026-04-12T11:01:02Z</time></trkpt><trkpt lat="38.86991326845541" lon="16.496256533655565"><ele>275.75</ele><time>2026-04-12T11:01:03Z</time></trkpt><trkpt lat="38.86991732248578" lon="16.496072544918793"><ele>274.5</ele><time>2026-04-12T11:01:04Z</time></trkpt><trkpt lat="38.869904618284515" lon="16.495875446447226"><ele>273.25</ele><time>2026-04-12T11:01:05Z</time></trkpt><trkpt lat="38.869929576336354" lon="16.495717891713515"><ele>272.0</ele><time>2026-04-12T11:01:06Z</time></trkpt><trkpt lat="38.86997606250693" lon="16.49558294527556"><ele>272.0</ele><time>2026-04-12T11:01:07Z</time></trkpt><trkpt lat="38.8700738326786" lon="16.495487973833733"><ele>272.0</ele><time>2026-04-12T11:01:08Z</time></trkpt><trkpt lat="38.87017459508469" lon="16.495398900816966"><ele>272.0</ele><time>2026-04-12T11:01:09Z</time></trkpt><trkpt lat="38.870313979952996" lon="16.4953713079582"><ele>272.0</ele><time>2026-04-12T11:01:10Z</time></trkpt><trkpt lat="38.87045664052764" lon="16.495294771093143"><ele>273.75</ele><time>2026-04-12T11:01:11Z</time></trkpt><trkpt lat="38.87058564486632" lon="16.495194868000226"><ele>275.5</ele><time>2026-04-12T11:01:12Z</time></trkpt><trkpt lat="38.87067807037767" lon="16.495087521714247"><ele>277.25</ele><time>2026-04-12T11:01:13Z</time></trkpt><trkpt lat="38.870785048406184" lon="16.49497431768524"><ele>279.0</ele><time>2026-04-12T11:01:14Z</time></trkpt><trkpt lat="38.87089010876242" lon="16.49486245344052"><ele>276.75</ele><time>2026-04-12T11:01:15Z</time></trkpt><trkpt lat="38.87099304781938" lon="16.494743123514493"><ele>274.5</ele><time>2026-04-12T11:01:16Z</time></trkpt><trkpt lat="38.871095933236354" lon="16.494626850015024"><ele>272.25</ele><time>2026-04-12T11:01:17Z</time></trkpt><trkpt lat="38.87118253667703" lon="16.494497326062977"><ele>270.0</ele><time>2026-04-12T11:01:18Z</time></trkpt><trkpt lat="38.871270615336456" lon="16.494367705571428"><ele>276.0</ele><time>2026-04-12T11:01:19Z</time></trkpt><trkpt lat="38.871344475324705" lon="16.494231573971792"><ele>282.0</ele><time>2026-04-12T11:01:20Z</time></trkpt><trkpt lat="38.87142183256532" lon="16.494095864688873"><ele>288.0</ele><time>2026-04-12T11:01:21Z</time></trkpt><trkpt lat="38.87149777230175" lon="16.493954880692158"><ele>294.0</ele><time>2026-04-12T11:01:22Z</time></trkpt><trkpt lat="38.87157065065532" lon="16.49380366311404"><ele>291.75</ele><time>2026-04-12T11:01:23Z</time></trkpt><trkpt lat="38.871675605045496" lon="16.493672276109262"><ele>289.5</ele><time>2026-04-12T11:01:24Z</time></trkpt><trkpt lat="38.87174750276212" lon="16.49356150481612"><ele>287.25</ele><time>2026-04-12T11:01:25Z</time></trkpt><trkpt lat="38.871830815017944" lon="16.493441798716844"><ele>285.0</ele><time>2026-04-12T11:01:26Z</time></trkpt><trkpt lat="38.87190189650317" lon="16.49331130746087"><ele>292.5</ele><time>2026-04-12T11:01:27Z</time></trkpt><trkpt lat="38.871962124058015" lon="16.493173053671498"><ele>300.0</ele><time>2026-04-12T11:01:28Z</time></trkpt><trkpt lat="38.872017725513174" lon="16.493022552717896"><ele>307.5</ele><time>2026-04-12T11:01:29Z</time></trkpt><trkpt lat="38.872073628023614" lon="16.492869486062432"><ele>315.0</ele><time>2026-04-12T11:01:30Z</time></trkpt><trkpt lat="38.87213275509981" lon="16.49271915375777"><ele>315.0</ele><time>2026-04-12T11:01:31Z</time></trkpt><trkpt lat="38.87219370139369" lon="16.492576918686414"><ele>315.0</ele><time>2026-04-12T11:01:32Z</time></trkpt><trkpt lat="38.87225351940743" lon="16.492433130296607"><ele>315.0</ele><time>2026-04-12T11:01:33Z</time></trkpt><trkpt lat="38.87231189812971" lon="16.492288795761052"><ele>315.0</ele><time>2026-04-12T11:01:34Z</time></trkpt><trkpt lat="38.87236974845222" lon="16.492147058717936"><ele>314.2</ele><time>2026-04-12T11:01:35Z</time></trkpt><trkpt lat="38.87244563880502" lon="16.492044077308364"><ele>313.4</ele><time>2026-04-12T11:01:36Z</time></trkpt><trkpt lat="38.872530800168086" lon="16.491991569067984"><ele>312.6</ele><time>2026-04-12T11:01:37Z</time></trkpt><trkpt lat="38.87262331284074" lon="16.49201624939825"><ele>311.8</ele><time>2026-04-12T11:01:38Z</time></trkpt><trkpt lat="38.87273880164907" lon="16.492025772914573"><ele>311.0</ele><time>2026-04-12T11:01:39Z</time></trkpt><trkpt lat="38.87286657772131" lon="16.492022755128634"><ele>311.0</ele><time>2026-04-12T11:01:40Z</time></trkpt><trkpt lat="38.87297852725832" lon="16.4919831391689"><ele>311.0</ele><time>2026-04-12T11:01:41Z</time></trkpt><trkpt lat="38.873090502969106" lon="16.491947757828193"><ele>311.0</ele><time>2026-04-12T11:01:42Z</time></trkpt><trkpt lat="38.87320891163472" lon="16.49187852598706"><ele>311.0</ele><time>2026-04-12T11:01:43Z</time></trkpt><trkpt lat="38.87330369528834" lon="16.49177259554563"><ele>311.0</ele><time>2026-04-12T11:01:44Z</time></trkpt><trkpt lat="38.87338014382208" lon="16.49163630193997"><ele>311.0</ele><time>2026-04-12T11:01:45Z</time></trkpt><trkpt lat="38.87346802492293" lon="16.491504610154564"><ele>311.0</ele><time>2026-04-12T11:01:46Z</time></trkpt><trkpt lat="38.87356821564923" lon="16.49139930551761"><ele>311.0</ele><time>2026-04-12T11:01:47Z</time></trkpt><trkpt lat="38.87367387011172" lon="16.491293484789264"><ele>309.25</ele><time>2026-04-12T11:01:48Z</time></trkpt><trkpt lat="38.87377864790386" lon="16.49122027702521"><ele>307.5</ele><time>2026-04-12T11:01:49Z</time></trkpt><trkpt lat="38.873897747461896" lon="16.491139262244413"><ele>305.75</ele><time>2026-04-12T11:01:50Z</time></trkpt><trkpt lat="38.874014492410446" lon="16.491060701758805"><ele>304.0</ele><time>2026-04-12T11:01:51Z</time></trkpt><trkpt lat="38.8741309650716" lon="16.490982743505846"><ele>304.0</ele><time>2026-04-12T11:01:52Z</time></trkpt><trkpt lat="38.874243834005085" lon="16.490921267787023"><ele>304.0</ele><time>2026-04-12T11:01:53Z</time></trkpt><trkpt lat="38.874363393792905" lon="16.49089187391083"><ele>304.0</ele><time>2026-04-12T11:01:54Z</time></trkpt><trkpt lat="38.874493509165816" lon="16.490886477993413"><ele>304.0</ele><time>2026-04-12T11:01:55Z</time></trkpt><trkpt lat="38.87463987078794" lon="16.490884364725357"><ele>304.0</ele><time>2026-04-12T11:01:56Z</time></trkpt><trkpt lat="38.87478656953464" lon="16.490864324047656"><ele>304.0</ele><time>2026-04-12T11:01:57Z</time></trkpt><trkpt lat="38.87494912383989" lon="16.490861614874564"><ele>304.0</ele><time>2026-04-12T11:01:58Z</time></trkpt><trkpt lat="38.87510969680373" lon="16.49088033353203"><ele>302.0</ele><time>2026-04-12T11:01:59Z</time></trkpt><trkpt lat="38.87526086617183" lon="16.490877464236405"><ele>300.0</ele><time>2026-04-12T11:02:00Z</time></trkpt><trkpt lat="38.87540089517717" lon="16.490856388183875"><ele>298.0</ele><time>2026-04-12T11:02:01Z</time></trkpt><trkpt lat="38.87552466661763" lon="16.490859938779348"><ele>296.0</ele><time>2026-04-12T11:02:02Z</time></trkpt><trkpt lat="38.87565754468607" lon="16.49086816816659"><ele>296.0</ele><time>2026-04-12T11:02:03Z</time></trkpt><trkpt lat="38.875787812022494" lon="16.490861890191088"><ele>296.0</ele><time>2026-04-12T11:02:04Z</time></trkpt><trkpt lat="38.875915817035384" lon="16.49085225658944"><ele>296.0</ele><time>2026-04-12T11:02:05Z</time></trkpt><trkpt lat="38.876050084355946" lon="16.490871801413046"><ele>296.0</ele><time>2026-04-12T11:02:06Z</time></trkpt><trkpt lat="38.87616848990473" lon="16.490949296665903"><ele>296.75</ele><time>2026-04-12T11:02:07Z</time></trkpt><trkpt lat="38.876264445548145" lon="16.49104811612672"><ele>297.5</ele><time>2026-04-12T11:02:08Z</time></trkpt><trkpt lat="38.876370027790884" lon="16.49115130210324"><ele>298.25</ele><time>2026-04-12T11:02:09Z</time></trkpt><trkpt lat="38.87650715050606" lon="16.491283959188937"><ele>299.0</ele><time>2026-04-12T11:02:10Z</time></trkpt><trkpt lat="38.876634204113394" lon="16.491382043021627"><ele>299.0</ele><time>2026-04-12T11:02:11Z</time></trkpt><trkpt lat="38.87674405368772" lon="16.491499287648804"><ele>299.0</ele><time>2026-04-12T11:02:12Z</time></trkpt><trkpt lat="38.87686511831771" lon="16.49161258922664"><ele>299.0</ele><time>2026-04-12T11:02:13Z</time></trkpt><trkpt lat="38.87698298929158" lon="16.4917190145813"><ele>299.0</ele><time>2026-04-12T11:02:14Z</time></trkpt><trkpt lat="38.877127055330924" lon="16.491805658509218"><ele>298.6666666666667</ele><time>2026-04-12T11:02:15Z</time></trkpt><trkpt lat="38.87727339211199" lon="16.491844543670137"><ele>298.3333333333333</ele><time>2026-04-12T11:02:16Z</time></trkpt><trkpt lat="38.877431919550915" lon="16.49184091900401"><ele>298.0</ele><time>2026-04-12T11:02:17Z</time></trkpt><trkpt lat="38.87758750655613" lon="16.491876926437318"><ele>301.0</ele><time>2026-04-12T11:02:18Z</time></trkpt><trkpt lat="38.87773838784224" lon="16.49189985094469"><ele>304.0</ele><time>2026-04-12T11:02:19Z</time></trkpt><trkpt lat="38.87788459906579" lon="16.491922483392113"><ele>307.0</ele><time>2026-04-12T11:02:20Z</time></trkpt><trkpt lat="38.87803667280526" lon="16.491945958697343"><ele>307.0</ele><time>2026-04-12T11:02:21Z</time></trkpt><trkpt lat="38.87821164724185" lon="16.49197296889948"><ele>307.0</ele><time>2026-04-12T11:02:22Z</time></trkpt><trkpt lat="38.878332039093834" lon="16.492021216283064"><ele>307.0</ele><time>2026-04-12T11:02:23Z</time></trkpt><trkpt lat="38.87848597608312" lon="16.491987349982917"><ele>308.0</ele><time>2026-04-12T11:02:24Z</time></trkpt><trkpt lat="38.87860495468794" lon="16.49198905397947"><ele>309.0</ele><time>2026-04-12T11:02:25Z</time></trkpt><trkpt lat="38.878713842264396" lon="16.491995902049588"><ele>310.0</ele><time>2026-04-12T11:02:26Z</time></trkpt><trkpt lat="38.87882405919553" lon="16.491990045776593"><ele>311.0</ele><time>2026-04-12T11:02:27Z</time></trkpt><trkpt lat="38.87893292902471" lon="16.491990706622925"><ele>312.0</ele><time>2026-04-12T11:02:28Z</time></trkpt><trkpt lat="38.87905686870803" lon="16.49199295681957"><ele>312.0</ele><time>2026-04-12T11:02:29Z</time></trkpt><trkpt lat="38.87918427153012" lon="16.492003610815047"><ele>312.0</ele><time>2026-04-12T11:02:30Z</time></trkpt><trkpt lat="38.879309461319544" lon="16.491995389299806"><ele>312.0</ele><time>2026-04-12T11:02:31Z</time></trkpt><trkpt lat="38.87941244783698" lon="16.4920129716839"><ele>312.0</ele><time>2026-04-12T11:02:32Z</time></trkpt><trkpt lat="38.879533495922175" lon="16.491997748322344"><ele>313.0</ele><time>2026-04-12T11:02:33Z</time></trkpt><trkpt lat="38.87962527408148" lon="16.4920131979783"><ele>314.0</ele><time>2026-04-12T11:02:34Z</time></trkpt><trkpt lat="38.87972382116899" lon="16.491997225006564"><ele>315.0</ele><time>2026-04-12T11:02:35Z</time></trkpt><trkpt lat="38.87981759565937" lon="16.492003737971793"><ele>316.0</ele><time>2026-04-12T11:02:36Z</time></trkpt><trkpt lat="38.87989260251311" lon="16.49200982731702"><ele>317.0</ele><time>2026-04-12T11:02:37Z</time></trkpt><trkpt lat="38.87995931266037" lon="16.492007557922772"><ele>318.0</ele><time>2026-04-12T11:02:38Z</time></trkpt><trkpt lat="38.88004966530273" lon="16.491954032095993"><ele>323.8</ele><time>2026-04-12T11:02:40Z</time></trkpt><trkpt lat="38.880112886876425" lon="16.491843471737155"><ele>329.6</ele><time>2026-04-12T11:02:43Z</time></trkpt><trkpt lat="38.88012723802013" lon="16.491759613214807"><ele>335.40000000000003</ele><time>2026-04-12T11:02:45Z</time></trkpt><trkpt lat="38.88015912278227" lon="16.491635191853856"><ele>341.20000000000005</ele><time>2026-04-12T11:02:47Z</time></trkpt><trkpt lat="38.88022988634727" lon="16.49148839111805"><ele>347.0</ele><time>2026-04-12T11:02:49Z</time></trkpt><trkpt lat="38.880278026384254" lon="16.49141286911676"><ele>347.0</ele><time>2026-04-12T11:02:50Z</time></trkpt><trkpt lat="38.880338897745446" lon="16.491340708764305"><ele>347.0</ele><time>2026-04-12T11:02:51Z</time></trkpt><trkpt lat="38.88039729930785" lon="16.49127615684975"><ele>347.0</ele><time>2026-04-12T11:02:52Z</time></trkpt><trkpt lat="38.880459585470284" lon="16.491215225134415"><ele>347.0</ele><time>2026-04-12T11:02:53Z</time></trkpt><trkpt lat="38.88052141024977" lon="16.491170504287076"><ele>347.0</ele><time>2026-04-12T11:02:54Z</time></trkpt><trkpt lat="38.88058308238345" lon="16.49110430544275"><ele>347.0</ele><time>2026-04-12T11:02:55Z</time></trkpt><trkpt lat="38.88063535253457" lon="16.491031581066412"><ele>346.0</ele><time>2026-04-12T11:02:56Z</time></trkpt><trkpt lat="38.880661334080955" lon="16.49094658409919"><ele>345.0</ele><time>2026-04-12T11:02:57Z</time></trkpt><trkpt lat="38.88063127397279" lon="16.49080075264085"><ele>344.0</ele><time>2026-04-12T11:02:58Z</time></trkpt><trkpt lat="38.880589345068906" lon="16.490733670360015"><ele>343.0</ele><time>2026-04-12T11:02:59Z</time></trkpt><trkpt lat="38.88053143485944" lon="16.490647786684004"><ele>342.0</ele><time>2026-04-12T11:03:00Z</time></trkpt><trkpt lat="38.88047239347542" lon="16.490550688476294"><ele>341.0</ele><time>2026-04-12T11:03:01Z</time></trkpt><trkpt lat="38.880449373858816" lon="16.49044062411229"><ele>341.20000000000005</ele><time>2026-04-12T11:03:02Z</time></trkpt><trkpt lat="38.880451928604764" lon="16.49033090851759"><ele>341.40000000000003</ele><time>2026-04-12T11:03:03Z</time></trkpt><trkpt lat="38.880452394625" lon="16.490225733070304"><ele>341.6</ele><time>2026-04-12T11:03:04Z</time></trkpt><trkpt lat="38.880435987356094" lon="16.490109848017415"><ele>341.8</ele><time>2026-04-12T11:03:05Z</time></trkpt><trkpt lat="38.88038013076308" lon="16.489987040337834"><ele>342.0</ele><time>2026-04-12T11:03:06Z</time></trkpt><trkpt lat="38.88034477674819" lon="16.489857980246992"><ele>342.0</ele><time>2026-04-12T11:03:07Z</time></trkpt><trkpt lat="38.88031790534604" lon="16.489737112206715"><ele>342.0</ele><time>2026-04-12T11:03:08Z</time></trkpt><trkpt lat="38.880345131331076" lon="16.489612510071353"><ele>342.0</ele><time>2026-04-12T11:03:09Z</time></trkpt><trkpt lat="38.88040070677938" lon="16.489515200425426"><ele>342.0</ele><time>2026-04-12T11:03:10Z</time></trkpt><trkpt lat="38.880461095420394" lon="16.489423597553035"><ele>342.0</ele><time>2026-04-12T11:03:11Z</time></trkpt><trkpt lat="38.880541253714114" lon="16.48936087126371"><ele>342.40000000000003</ele><time>2026-04-12T11:03:12Z</time></trkpt><trkpt lat="38.88063329856008" lon="16.489297034132367"><ele>342.8</ele><time>2026-04-12T11:03:13Z</time></trkpt><trkpt lat="38.880726819920305" lon="16.489229531842913"><ele>343.2</ele><time>2026-04-12T11:03:14Z</time></trkpt><trkpt lat="38.880795007115964" lon="16.489113618842545"><ele>343.6</ele><time>2026-04-12T11:03:15Z</time></trkpt><trkpt lat="38.880867563283125" lon="16.48900717273565"><ele>344.0</ele><time>2026-04-12T11:03:16Z</time></trkpt><trkpt lat="38.88092030817093" lon="16.48888800375763"><ele>346.5</ele><time>2026-04-12T11:03:17Z</time></trkpt><trkpt lat="38.880959864646705" lon="16.488763043995174"><ele>349.0</ele><time>2026-04-12T11:03:18Z</time></trkpt><trkpt lat="38.88090157939024" lon="16.48861603250357"><ele>351.5</ele><time>2026-04-12T11:03:19Z</time></trkpt><trkpt lat="38.880832475215215" lon="16.488469311271317"><ele>354.0</ele><time>2026-04-12T11:03:20Z</time></trkpt><trkpt lat="38.880729392484625" lon="16.48836927721734"><ele>354.0</ele><time>2026-04-12T11:03:21Z</time></trkpt><trkpt lat="38.880631210865936" lon="16.488254919730554"><ele>354.0</ele><time>2026-04-12T11:03:22Z</time></trkpt><trkpt lat="38.880548921658644" lon="16.48815021809394"><ele>354.0</ele><time>2026-04-12T11:03:23Z</time></trkpt><trkpt lat="38.88048624359186" lon="16.488049379951704"><ele>354.0</ele><time>2026-04-12T11:03:24Z</time></trkpt><trkpt lat="38.880444942692485" lon="16.487962659687412"><ele>354.0</ele><time>2026-04-12T11:03:25Z</time></trkpt><trkpt lat="38.8804286930206" lon="16.487881751023735"><ele>354.3333333333333</ele><time>2026-04-12T11:03:26Z</time></trkpt><trkpt lat="38.880434966491265" lon="16.487718619634077"><ele>354.6666666666667</ele><time>2026-04-12T11:03:28Z</time></trkpt><trkpt lat="38.880449570649176" lon="16.487629708283855"><ele>355.0</ele><time>2026-04-12T11:03:29Z</time></trkpt><trkpt lat="38.88046652441357" lon="16.487529948374934"><ele>355.33333333333337</ele><time>2026-04-12T11:03:30Z</time></trkpt><trkpt lat="38.880483534982055" lon="16.487424615778938"><ele>355.6666666666667</ele><time>2026-04-12T11:03:31Z</time></trkpt><trkpt lat="38.88049591216663" lon="16.487316089231715"><ele>356.0</ele><time>2026-04-12T11:03:32Z</time></trkpt><trkpt lat="38.88049628933715" lon="16.487195197476556"><ele>356.1666666666667</ele><time>2026-04-12T11:03:33Z</time></trkpt><trkpt lat="38.88049076139567" lon="16.487088232230885"><ele>356.33333333333337</ele><time>2026-04-12T11:03:34Z</time></trkpt><trkpt lat="38.88044919426852" lon="16.486994064995677"><ele>356.5</ele><time>2026-04-12T11:03:35Z</time></trkpt><trkpt lat="38.88042691745909" lon="16.486891317932805"><ele>356.6666666666667</ele><time>2026-04-12T11:03:36Z</time></trkpt><trkpt lat="38.88040812934037" lon="16.486800501647892"><ele>356.8333333333333</ele><time>2026-04-12T11:03:37Z</time></trkpt><trkpt lat="38.88040681152366" lon="16.486706567771435"><ele>357.0</ele><time>2026-04-12T11:03:38Z</time></trkpt><trkpt lat="38.880397707776716" lon="16.48661626385019"><ele>357.0</ele><time>2026-04-12T11:03:39Z</time></trkpt><trkpt lat="38.88038208940008" lon="16.48653315894562"><ele>357.0</ele><time>2026-04-12T11:03:40Z</time></trkpt><trkpt lat="38.880371456109586" lon="16.48638341786862"><ele>357.0</ele><time>2026-04-12T11:03:42Z</time></trkpt><trkpt lat="38.88034706945872" lon="16.486242328695138"><ele>357.0</ele><time>2026-04-12T11:03:44Z</time></trkpt><trkpt lat="38.88022051313218" lon="16.486286935695283"><ele>357.0</ele><time>2026-04-12T11:03:50Z</time></trkpt><trkpt lat="38.880118240482496" lon="16.486356521836033"><ele>356.0</ele><time>2026-04-12T11:03:52Z</time></trkpt><trkpt lat="38.880065415069694" lon="16.48640748147768"><ele>355.0</ele><time>2026-04-12T11:03:53Z</time></trkpt><trkpt lat="38.8799473460055" lon="16.486494047062347"><ele>354.0</ele><time>2026-04-12T11:03:55Z</time></trkpt><trkpt lat="38.87988209670795" lon="16.486527224868308"><ele>353.0</ele><time>2026-04-12T11:03:56Z</time></trkpt><trkpt lat="38.8798208740347" lon="16.48657989543155"><ele>352.0</ele><time>2026-04-12T11:03:57Z</time></trkpt><trkpt lat="38.87977338287187" lon="16.486643230941407"><ele>351.0</ele><time>2026-04-12T11:03:58Z</time></trkpt><trkpt lat="38.87971589343152" lon="16.486678918524394"><ele>351.0</ele><time>2026-04-12T11:03:59Z</time></trkpt><trkpt lat="38.879644261676695" lon="16.486706085884634"><ele>351.0</ele><time>2026-04-12T11:04:00Z</time></trkpt><trkpt lat="38.879530883992544" lon="16.486649936906655"><ele>351.0</ele><time>2026-04-12T11:04:01Z</time></trkpt><trkpt lat="38.879449912879046" lon="16.486649517812864"><ele>351.0</ele><time>2026-04-12T11:04:02Z</time></trkpt><trkpt lat="38.879331025469156" lon="16.486628982596123"><ele>351.0</ele><time>2026-04-12T11:04:04Z</time></trkpt><trkpt lat="38.87926462747678" lon="16.486626404638052"><ele>351.0</ele><time>2026-04-12T11:04:05Z</time></trkpt><trkpt lat="38.87919937744233" lon="16.486619571887346"><ele>351.0</ele><time>2026-04-12T11:04:06Z</time></trkpt><trkpt lat="38.879101511932255" lon="16.486626904796854"><ele>351.0</ele><time>2026-04-12T11:04:08Z</time></trkpt><trkpt lat="38.87900811342639" lon="16.48653279101099"><ele>351.0</ele><time>2026-04-12T11:04:11Z</time></trkpt><trkpt lat="38.87899322669731" lon="16.486365533416187"><ele>351.0</ele><time>2026-04-12T11:04:12Z</time></trkpt><trkpt lat="38.87897497780879" lon="16.486275138828617"><ele>351.0</ele><time>2026-04-12T11:04:13Z</time></trkpt><trkpt lat="38.878972959111096" lon="16.48618018740046"><ele>351.0</ele><time>2026-04-12T11:04:14Z</time></trkpt><trkpt lat="38.878958576883186" lon="16.486075991070766"><ele>351.0</ele><time>2026-04-12T11:04:15Z</time></trkpt><trkpt lat="38.87894913226836" lon="16.485983170971124"><ele>351.0</ele><time>2026-04-12T11:04:16Z</time></trkpt><trkpt lat="38.87893695488431" lon="16.485878546603242"><ele>351.0</ele><time>2026-04-12T11:04:17Z</time></trkpt><trkpt lat="38.878928337619406" lon="16.485770544637745"><ele>351.0</ele><time>2026-04-12T11:04:18Z</time></trkpt><trkpt lat="38.878909879609566" lon="16.48565677371022"><ele>351.0</ele><time>2026-04-12T11:04:19Z</time></trkpt><trkpt lat="38.878876255365896" lon="16.485542644202813"><ele>351.0</ele><time>2026-04-12T11:04:20Z</time></trkpt><trkpt lat="38.87882490900665" lon="16.48543812888787"><ele>351.0</ele><time>2026-04-12T11:04:21Z</time></trkpt><trkpt lat="38.87875302571212" lon="16.485352917752195"><ele>351.0</ele><time>2026-04-12T11:04:22Z</time></trkpt><trkpt lat="38.87867132346418" lon="16.485264083910035"><ele>351.0</ele><time>2026-04-12T11:04:23Z</time></trkpt><trkpt lat="38.87860125348229" lon="16.48517596461379"><ele>350.0</ele><time>2026-04-12T11:04:24Z</time></trkpt><trkpt lat="38.878540717169095" lon="16.485085996422573"><ele>349.0</ele><time>2026-04-12T11:04:25Z</time></trkpt><trkpt lat="38.878489618731564" lon="16.484974672228773"><ele>348.0</ele><time>2026-04-12T11:04:26Z</time></trkpt><trkpt lat="38.878449210824726" lon="16.484856449242198"><ele>347.0</ele><time>2026-04-12T11:04:27Z</time></trkpt><trkpt lat="38.87841709687053" lon="16.484734510444063"><ele>346.0</ele><time>2026-04-12T11:04:28Z</time></trkpt><trkpt lat="38.87840477374831" lon="16.484627209204675"><ele>348.16666666666663</ele><time>2026-04-12T11:04:29Z</time></trkpt><trkpt lat="38.8783888037702" lon="16.484516342587686"><ele>350.3333333333333</ele><time>2026-04-12T11:04:30Z</time></trkpt><trkpt lat="38.87837469203418" lon="16.484422037881064"><ele>352.5</ele><time>2026-04-12T11:04:31Z</time></trkpt><trkpt lat="38.87833154266964" lon="16.484308945325235"><ele>354.6666666666667</ele><time>2026-04-12T11:04:32Z</time></trkpt><trkpt lat="38.878268032212326" lon="16.484222031391734"><ele>356.83333333333337</ele><time>2026-04-12T11:04:33Z</time></trkpt><trkpt lat="38.87817791617249" lon="16.484195135293692"><ele>359.0</ele><time>2026-04-12T11:04:34Z</time></trkpt><trkpt lat="38.87808153996044" lon="16.484201696681396"><ele>359.0</ele><time>2026-04-12T11:04:35Z</time></trkpt><trkpt lat="38.87798500870104" lon="16.484219078936988"><ele>359.0</ele><time>2026-04-12T11:04:36Z</time></trkpt><trkpt lat="38.87788810680608" lon="16.484227225038232"><ele>359.0</ele><time>2026-04-12T11:04:37Z</time></trkpt><trkpt lat="38.877791885540006" lon="16.484226673318975"><ele>359.0</ele><time>2026-04-12T11:04:38Z</time></trkpt><trkpt lat="38.87770142434272" lon="16.484225542862838"><ele>359.0</ele><time>2026-04-12T11:04:39Z</time></trkpt><trkpt lat="38.87761353393856" lon="16.48418356180267"><ele>359.6</ele><time>2026-04-12T11:04:40Z</time></trkpt><trkpt lat="38.87754579648298" lon="16.484107947273237"><ele>360.2</ele><time>2026-04-12T11:04:41Z</time></trkpt><trkpt lat="38.87752420017754" lon="16.483984723671703"><ele>360.8</ele><time>2026-04-12T11:04:42Z</time></trkpt><trkpt lat="38.87752801910234" lon="16.483867612415263"><ele>361.40000000000003</ele><time>2026-04-12T11:04:43Z</time></trkpt><trkpt lat="38.877529548902" lon="16.483745379527488"><ele>362.0</ele><time>2026-04-12T11:04:44Z</time></trkpt><trkpt lat="38.87753737396934" lon="16.48362349087485"><ele>362.5</ele><time>2026-04-12T11:04:45Z</time></trkpt><trkpt lat="38.87753984406031" lon="16.48347993419555"><ele>363.0</ele><time>2026-04-12T11:04:46Z</time></trkpt><trkpt lat="38.877526979093226" lon="16.483320516601086"><ele>363.5</ele><time>2026-04-12T11:04:47Z</time></trkpt><trkpt lat="38.877518351723296" lon="16.48313644849435"><ele>364.0</ele><time>2026-04-12T11:04:48Z</time></trkpt><trkpt lat="38.87749744443965" lon="16.482953336811995"><ele>364.25</ele><time>2026-04-12T11:04:49Z</time></trkpt><trkpt lat="38.8774762225074" lon="16.4827612231754"><ele>364.5</ele><time>2026-04-12T11:04:50Z</time></trkpt><trkpt lat="38.877452930641624" lon="16.48257648804643"><ele>364.75</ele><time>2026-04-12T11:04:51Z</time></trkpt><trkpt lat="38.877427528340135" lon="16.482383788816694"><ele>365.0</ele><time>2026-04-12T11:04:52Z</time></trkpt><trkpt lat="38.87739198510496" lon="16.482199608234843"><ele>363.33333333333337</ele><time>2026-04-12T11:04:53Z</time></trkpt><trkpt lat="38.87738493721286" lon="16.482031794173494"><ele>361.6666666666667</ele><time>2026-04-12T11:04:54Z</time></trkpt><trkpt lat="38.87736216763204" lon="16.481854294922123"><ele>360.0</ele><time>2026-04-12T11:04:55Z</time></trkpt><trkpt lat="38.87730914338038" lon="16.481633087648728"><ele>360.0</ele><time>2026-04-12T11:04:56Z</time></trkpt><trkpt lat="38.877285477628654" lon="16.481403341312234"><ele>360.0</ele><time>2026-04-12T11:04:57Z</time></trkpt><trkpt lat="38.87726160316958" lon="16.4811826136011"><ele>360.0</ele><time>2026-04-12T11:04:58Z</time></trkpt><trkpt lat="38.87723784909371" lon="16.480960842501936"><ele>360.0</ele><time>2026-04-12T11:04:59Z</time></trkpt><trkpt lat="38.87720948295067" lon="16.480748550952427"><ele>360.0</ele><time>2026-04-12T11:05:00Z</time></trkpt><trkpt lat="38.877183856020096" lon="16.480525520767266"><ele>360.0</ele><time>2026-04-12T11:05:01Z</time></trkpt><trkpt lat="38.87715514318732" lon="16.48030115430096"><ele>360.0</ele><time>2026-04-12T11:05:02Z</time></trkpt><trkpt lat="38.87712439754293" lon="16.480069290274713"><ele>360.0</ele><time>2026-04-12T11:05:03Z</time></trkpt><trkpt lat="38.877093395218296" lon="16.479837884006194"><ele>360.0</ele><time>2026-04-12T11:05:04Z</time></trkpt><trkpt lat="38.87707090288069" lon="16.47962448799402"><ele>359.6666666666667</ele><time>2026-04-12T11:05:05Z</time></trkpt><trkpt lat="38.87703892173362" lon="16.479419182150824"><ele>359.33333333333337</ele><time>2026-04-12T11:05:06Z</time></trkpt><trkpt lat="38.876989353094096" lon="16.47920942422291"><ele>359.0</ele><time>2026-04-12T11:05:07Z</time></trkpt><trkpt lat="38.876892584715876" lon="16.47910535770045"><ele>359.0</ele><time>2026-04-12T11:05:08Z</time></trkpt><trkpt lat="38.87678626632852" lon="16.478926227683917"><ele>359.0</ele><time>2026-04-12T11:05:09Z</time></trkpt><trkpt lat="38.876658275517094" lon="16.47878017488583"><ele>359.0</ele><time>2026-04-12T11:05:10Z</time></trkpt><trkpt lat="38.87653587298276" lon="16.478630701573124"><ele>358.0</ele><time>2026-04-12T11:05:11Z</time></trkpt><trkpt lat="38.87640729699889" lon="16.478479404245054"><ele>357.0</ele><time>2026-04-12T11:05:12Z</time></trkpt><trkpt lat="38.876279346710525" lon="16.478325338223325"><ele>356.0</ele><time>2026-04-12T11:05:13Z</time></trkpt><trkpt lat="38.876150777979745" lon="16.47816909756617"><ele>356.0</ele><time>2026-04-12T11:05:14Z</time></trkpt><trkpt lat="38.87602167271292" lon="16.478007334153983"><ele>356.0</ele><time>2026-04-12T11:05:15Z</time></trkpt><trkpt lat="38.87589354470739" lon="16.477845116244712"><ele>356.0</ele><time>2026-04-12T11:05:16Z</time></trkpt><trkpt lat="38.87576377847549" lon="16.477681025618047"><ele>355.0</ele><time>2026-04-12T11:05:17Z</time></trkpt><trkpt lat="38.87562587661489" lon="16.477514106730503"><ele>354.0</ele><time>2026-04-12T11:05:18Z</time></trkpt><trkpt lat="38.87548996351455" lon="16.477346405743553"><ele>353.0</ele><time>2026-04-12T11:05:19Z</time></trkpt><trkpt lat="38.8753565463749" lon="16.47717594866532"><ele>353.0</ele><time>2026-04-12T11:05:20Z</time></trkpt><trkpt lat="38.87522209828277" lon="16.477012638982295"><ele>353.0</ele><time>2026-04-12T11:05:21Z</time></trkpt><trkpt lat="38.87508179885206" lon="16.47684902111921"><ele>353.0</ele><time>2026-04-12T11:05:22Z</time></trkpt><trkpt lat="38.874954549823926" lon="16.476685413138586"><ele>353.0</ele><time>2026-04-12T11:05:23Z</time></trkpt><trkpt lat="38.87482112118103" lon="16.47652676642364"><ele>353.0</ele><time>2026-04-12T11:05:24Z</time></trkpt><trkpt lat="38.874693571657495" lon="16.476371897770164"><ele>353.0</ele><time>2026-04-12T11:05:25Z</time></trkpt><trkpt lat="38.87456407295613" lon="16.476216689665165"><ele>352.0</ele><time>2026-04-12T11:05:26Z</time></trkpt><trkpt lat="38.87443634101467" lon="16.476062679575904"><ele>351.0</ele><time>2026-04-12T11:05:27Z</time></trkpt><trkpt lat="38.874315173552674" lon="16.475911132887713"><ele>350.0</ele><time>2026-04-12T11:05:28Z</time></trkpt><trkpt lat="38.874201632720464" lon="16.475774821681092"><ele>349.75</ele><time>2026-04-12T11:05:29Z</time></trkpt><trkpt lat="38.87409275141738" lon="16.47563620191946"><ele>349.5</ele><time>2026-04-12T11:05:30Z</time></trkpt><trkpt lat="38.87399372642491" lon="16.475500199349156"><ele>349.25</ele><time>2026-04-12T11:05:31Z</time></trkpt><trkpt lat="38.87390980736176" lon="16.475353680664348"><ele>349.0</ele><time>2026-04-12T11:05:32Z</time></trkpt><trkpt lat="38.87387135362784" lon="16.47517827991716"><ele>348.0</ele><time>2026-04-12T11:05:33Z</time></trkpt><trkpt lat="38.8738064519593" lon="16.47499785991987"><ele>347.0</ele><time>2026-04-12T11:05:34Z</time></trkpt><trkpt lat="38.87376496562256" lon="16.47479961407071"><ele>346.0</ele><time>2026-04-12T11:05:35Z</time></trkpt><trkpt lat="38.87370291120545" lon="16.474640016493186"><ele>345.8</ele><time>2026-04-12T11:05:36Z</time></trkpt><trkpt lat="38.873649155757946" lon="16.474528751637486"><ele>345.6</ele><time>2026-04-12T11:05:37Z</time></trkpt><trkpt lat="38.87356091693603" lon="16.47447263312357"><ele>345.4</ele><time>2026-04-12T11:05:38Z</time></trkpt><trkpt lat="38.87346126047436" lon="16.47447641675502"><ele>345.2</ele><time>2026-04-12T11:05:39Z</time></trkpt><trkpt lat="38.87335669313741" lon="16.474543453994354"><ele>345.0</ele><time>2026-04-12T11:05:40Z</time></trkpt><trkpt lat="38.87325865784376" lon="16.474637055135027"><ele>345.0</ele><time>2026-04-12T11:05:41Z</time></trkpt><trkpt lat="38.87320359292074" lon="16.474763591470314"><ele>345.0</ele><time>2026-04-12T11:05:42Z</time></trkpt><trkpt lat="38.87314699469027" lon="16.47487841587847"><ele>345.0</ele><time>2026-04-12T11:05:43Z</time></trkpt><trkpt lat="38.87308124514707" lon="16.47499267713087"><ele>345.0</ele><time>2026-04-12T11:05:44Z</time></trkpt><trkpt lat="38.873013892095805" lon="16.475124872897133"><ele>345.0</ele><time>2026-04-12T11:05:45Z</time></trkpt><trkpt lat="38.87294674811679" lon="16.475264080052895"><ele>345.0</ele><time>2026-04-12T11:05:46Z</time></trkpt><trkpt lat="38.87287242828221" lon="16.475398431908424"><ele>345.0</ele><time>2026-04-12T11:05:47Z</time></trkpt><trkpt lat="38.87279320683106" lon="16.475522274050206"><ele>345.0</ele><time>2026-04-12T11:05:48Z</time></trkpt><trkpt lat="38.872703458372925" lon="16.475603432500133"><ele>345.25</ele><time>2026-04-12T11:05:49Z</time></trkpt><trkpt lat="38.872613072431896" lon="16.475594053008955"><ele>345.5</ele><time>2026-04-12T11:05:50Z</time></trkpt><trkpt lat="38.87247183125544" lon="16.475655257339707"><ele>345.75</ele><time>2026-04-12T11:05:51Z</time></trkpt><trkpt lat="38.87237377333778" lon="16.47557965214174"><ele>346.0</ele><time>2026-04-12T11:05:52Z</time></trkpt><trkpt lat="38.87225591551092" lon="16.475511107162685"><ele>344.5</ele><time>2026-04-12T11:05:53Z</time></trkpt><trkpt lat="38.87213252381245" lon="16.475438581995167"><ele>343.0</ele><time>2026-04-12T11:05:54Z</time></trkpt><trkpt lat="38.8720053898157" lon="16.475375230935228"><ele>341.5</ele><time>2026-04-12T11:05:55Z</time></trkpt><trkpt lat="38.87188020539454" lon="16.475301480243328"><ele>340.0</ele><time>2026-04-12T11:05:56Z</time></trkpt><trkpt lat="38.87174943395105" lon="16.475229095124725"><ele>339.5</ele><time>2026-04-12T11:05:57Z</time></trkpt><trkpt lat="38.87162460374611" lon="16.475154345472852"><ele>339.0</ele><time>2026-04-12T11:05:58Z</time></trkpt><trkpt lat="38.8714916775858" lon="16.47508318392341"><ele>338.5</ele><time>2026-04-12T11:05:59Z</time></trkpt><trkpt lat="38.87136123094873" lon="16.475021016161115"><ele>338.0</ele><time>2026-04-12T11:06:00Z</time></trkpt><trkpt lat="38.87121012498106" lon="16.47497090227315"><ele>338.0</ele><time>2026-04-12T11:06:01Z</time></trkpt><trkpt lat="38.871068919069685" lon="16.474951565644062"><ele>338.0</ele><time>2026-04-12T11:06:02Z</time></trkpt><trkpt lat="38.870946727456335" lon="16.474941233098377"><ele>338.0</ele><time>2026-04-12T11:06:03Z</time></trkpt><trkpt lat="38.870818048631484" lon="16.474932391289872"><ele>338.0</ele><time>2026-04-12T11:06:04Z</time></trkpt><trkpt lat="38.87070129907779" lon="16.474887137103234"><ele>339.25</ele><time>2026-04-12T11:06:05Z</time></trkpt><trkpt lat="38.870611727244544" lon="16.47476628788707"><ele>340.5</ele><time>2026-04-12T11:06:06Z</time></trkpt><trkpt lat="38.870511908252226" lon="16.474650438436257"><ele>341.75</ele><time>2026-04-12T11:06:07Z</time></trkpt><trkpt lat="38.870420284493306" lon="16.474536494009584"><ele>343.0</ele><time>2026-04-12T11:06:08Z</time></trkpt><trkpt lat="38.87030127861167" lon="16.474456197371993"><ele>343.0</ele><time>2026-04-12T11:06:09Z</time></trkpt><trkpt lat="38.870166243256726" lon="16.474416588088282"><ele>343.0</ele><time>2026-04-12T11:06:10Z</time></trkpt><trkpt lat="38.87003793148261" lon="16.474361886629026"><ele>343.0</ele><time>2026-04-12T11:06:11Z</time></trkpt><trkpt lat="38.86988408980062" lon="16.47436314437569"><ele>343.0</ele><time>2026-04-12T11:06:12Z</time></trkpt><trkpt lat="38.86973477380379" lon="16.47434115858964"><ele>344.66666666666663</ele><time>2026-04-12T11:06:13Z</time></trkpt><trkpt lat="38.869578917441245" lon="16.474336603457242"><ele>346.3333333333333</ele><time>2026-04-12T11:06:14Z</time></trkpt><trkpt lat="38.869433259744575" lon="16.474309077902227"><ele>348.0</ele><time>2026-04-12T11:06:15Z</time></trkpt><trkpt lat="38.86928569624439" lon="16.47428063518959"><ele>348.3333333333333</ele><time>2026-04-12T11:06:16Z</time></trkpt><trkpt lat="38.86913907994267" lon="16.474259901027768"><ele>348.66666666666663</ele><time>2026-04-12T11:06:17Z</time></trkpt><trkpt lat="38.868994632205236" lon="16.47428323050616"><ele>349.0</ele><time>2026-04-12T11:06:18Z</time></trkpt><trkpt lat="38.86882524842613" lon="16.474285838027424"><ele>349.0</ele><time>2026-04-12T11:06:19Z</time></trkpt><trkpt lat="38.86866105613773" lon="16.47429826711143"><ele>349.0</ele><time>2026-04-12T11:06:20Z</time></trkpt><trkpt lat="38.8684979260034" lon="16.47426298698609"><ele>349.0</ele><time>2026-04-12T11:06:21Z</time></trkpt><trkpt lat="38.86833995815999" lon="16.474177070469917"><ele>348.66666666666663</ele><time>2026-04-12T11:06:22Z</time></trkpt><trkpt lat="38.86817747706778" lon="16.474088448686686"><ele>348.3333333333333</ele><time>2026-04-12T11:06:23Z</time></trkpt><trkpt lat="38.868026962741965" lon="16.474011666597917"><ele>348.0</ele><time>2026-04-12T11:06:24Z</time></trkpt><trkpt lat="38.86787757793271" lon="16.473930684495695"><ele>348.0</ele><time>2026-04-12T11:06:25Z</time></trkpt><trkpt lat="38.86772755727063" lon="16.47387413800029"><ele>348.0</ele><time>2026-04-12T11:06:26Z</time></trkpt><trkpt lat="38.86755426121909" lon="16.473830899383923"><ele>348.0</ele><time>2026-04-12T11:06:27Z</time></trkpt><trkpt lat="38.86739282393137" lon="16.473844747008012"><ele>347.75</ele><time>2026-04-12T11:06:28Z</time></trkpt><trkpt lat="38.8672351326204" lon="16.47383359806934"><ele>347.5</ele><time>2026-04-12T11:06:29Z</time></trkpt><trkpt lat="38.86709081042154" lon="16.47381722296408"><ele>347.25</ele><time>2026-04-12T11:06:30Z</time></trkpt><trkpt lat="38.86700879675784" lon="16.473773627547896"><ele>347.0</ele><time>2026-04-12T11:06:31Z</time></trkpt><trkpt lat="38.86693536050576" lon="16.47364108165473"><ele>346.25</ele><time>2026-04-12T11:06:32Z</time></trkpt><trkpt lat="38.8668554229396" lon="16.473502522685944"><ele>345.5</ele><time>2026-04-12T11:06:33Z</time></trkpt><trkpt lat="38.86675797035948" lon="16.473351754702698"><ele>344.75</ele><time>2026-04-12T11:06:34Z</time></trkpt><trkpt lat="38.866672269931556" lon="16.473201048001624"><ele>344.0</ele><time>2026-04-12T11:06:35Z</time></trkpt><trkpt lat="38.86657817712638" lon="16.47304495153483"><ele>344.0</ele><time>2026-04-12T11:06:36Z</time></trkpt><trkpt lat="38.86648204257558" lon="16.47287716141179"><ele>344.0</ele><time>2026-04-12T11:06:37Z</time></trkpt><trkpt lat="38.86637826745331" lon="16.472702005001945"><ele>344.0</ele><time>2026-04-12T11:06:38Z</time></trkpt><trkpt lat="38.866272968298844" lon="16.47253259938625"><ele>344.0</ele><time>2026-04-12T11:06:39Z</time></trkpt><trkpt lat="38.86617021420848" lon="16.472357013741266"><ele>344.0</ele><time>2026-04-12T11:06:40Z</time></trkpt><trkpt lat="38.866063441312036" lon="16.47218155954388"><ele>344.0</ele><time>2026-04-12T11:06:41Z</time></trkpt><trkpt lat="38.865957557678975" lon="16.472007862894642"><ele>345.0</ele><time>2026-04-12T11:06:42Z</time></trkpt><trkpt lat="38.86585166684147" lon="16.47183520767643"><ele>346.0</ele><time>2026-04-12T11:06:43Z</time></trkpt><trkpt lat="38.86574627314959" lon="16.47166395013314"><ele>347.0</ele><time>2026-04-12T11:06:44Z</time></trkpt><trkpt lat="38.86564414533277" lon="16.471495167104756"><ele>347.0</ele><time>2026-04-12T11:06:45Z</time></trkpt><trkpt lat="38.865545624858164" lon="16.47132137873868"><ele>347.0</ele><time>2026-04-12T11:06:46Z</time></trkpt><trkpt lat="38.86545635957057" lon="16.47114256147965"><ele>347.0</ele><time>2026-04-12T11:06:47Z</time></trkpt><trkpt lat="38.86535613579075" lon="16.47098857820274"><ele>346.5</ele><time>2026-04-12T11:06:48Z</time></trkpt><trkpt lat="38.86526362385556" lon="16.470833316439112"><ele>346.0</ele><time>2026-04-12T11:06:49Z</time></trkpt><trkpt lat="38.86517766530679" lon="16.47068309962837"><ele>345.5</ele><time>2026-04-12T11:06:50Z</time></trkpt><trkpt lat="38.86510222087765" lon="16.4705329206914"><ele>345.0</ele><time>2026-04-12T11:06:51Z</time></trkpt><trkpt lat="38.86503008856166" lon="16.4703856622766"><ele>344.0</ele><time>2026-04-12T11:06:52Z</time></trkpt><trkpt lat="38.86494156317865" lon="16.470249496686318"><ele>343.0</ele><time>2026-04-12T11:06:53Z</time></trkpt><trkpt lat="38.86482530213642" lon="16.470129528332468"><ele>342.0</ele><time>2026-04-12T11:06:54Z</time></trkpt><trkpt lat="38.86469613802546" lon="16.47003949142197"><ele>341.0</ele><time>2026-04-12T11:06:55Z</time></trkpt><trkpt lat="38.864533616613485" lon="16.469998261458"><ele>341.0</ele><time>2026-04-12T11:06:56Z</time></trkpt><trkpt lat="38.86436944585903" lon="16.469922977818"><ele>341.0</ele><time>2026-04-12T11:06:57Z</time></trkpt><trkpt lat="38.86421560628273" lon="16.469851568809442"><ele>341.0</ele><time>2026-04-12T11:06:58Z</time></trkpt><trkpt lat="38.86406005025876" lon="16.469786553232595"><ele>340.75</ele><time>2026-04-12T11:06:59Z</time></trkpt><trkpt lat="38.86390317941623" lon="16.469739483271415"><ele>340.5</ele><time>2026-04-12T11:07:00Z</time></trkpt><trkpt lat="38.86375529962244" lon="16.469720956373983"><ele>340.25</ele><time>2026-04-12T11:07:01Z</time></trkpt><trkpt lat="38.86362152661457" lon="16.469706438283264"><ele>340.0</ele><time>2026-04-12T11:07:02Z</time></trkpt><trkpt lat="38.863478120407905" lon="16.46968273640564"><ele>339.3333333333333</ele><time>2026-04-12T11:07:03Z</time></trkpt><trkpt lat="38.863334650613915" lon="16.469640793560576"><ele>338.6666666666667</ele><time>2026-04-12T11:07:04Z</time></trkpt><trkpt lat="38.86319366145946" lon="16.469563422944894"><ele>338.0</ele><time>2026-04-12T11:07:05Z</time></trkpt><trkpt lat="38.863035249433004" lon="16.46947611884666"><ele>338.0</ele><time>2026-04-12T11:07:06Z</time></trkpt><trkpt lat="38.86287694654665" lon="16.469394425779413"><ele>338.0</ele><time>2026-04-12T11:07:07Z</time></trkpt><trkpt lat="38.86271451103302" lon="16.469316820512315"><ele>338.0</ele><time>2026-04-12T11:07:08Z</time></trkpt><trkpt lat="38.86255358702844" lon="16.469241860972783"><ele>336.0</ele><time>2026-04-12T11:07:09Z</time></trkpt><trkpt lat="38.86239336451103" lon="16.469165386956877"><ele>334.0</ele><time>2026-04-12T11:07:10Z</time></trkpt><trkpt lat="38.86223515386089" lon="16.469084997428457"><ele>332.0</ele><time>2026-04-12T11:07:11Z</time></trkpt><trkpt lat="38.86208001563141" lon="16.469003389067197"><ele>332.0</ele><time>2026-04-12T11:07:12Z</time></trkpt><trkpt lat="38.86193068619047" lon="16.46892515972194"><ele>332.0</ele><time>2026-04-12T11:07:13Z</time></trkpt><trkpt lat="38.86177576020537" lon="16.468853191665023"><ele>332.0</ele><time>2026-04-12T11:07:14Z</time></trkpt><trkpt lat="38.86163235444299" lon="16.46878834846308"><ele>331.5</ele><time>2026-04-12T11:07:15Z</time></trkpt><trkpt lat="38.861509219849175" lon="16.468716458961133"><ele>331.0</ele><time>2026-04-12T11:07:16Z</time></trkpt><trkpt lat="38.861410786261146" lon="16.468605452902228"><ele>330.5</ele><time>2026-04-12T11:07:17Z</time></trkpt><trkpt lat="38.86136679580565" lon="16.468459527429857"><ele>330.0</ele><time>2026-04-12T11:07:18Z</time></trkpt><trkpt lat="38.861357886280665" lon="16.468281133137218"><ele>330.0</ele><time>2026-04-12T11:07:19Z</time></trkpt><trkpt lat="38.86138204621834" lon="16.468121363225418"><ele>330.0</ele><time>2026-04-12T11:07:20Z</time></trkpt><trkpt lat="38.861416878162224" lon="16.467957679177175"><ele>330.0</ele><time>2026-04-12T11:07:21Z</time></trkpt><trkpt lat="38.86142516522675" lon="16.46780838474343"><ele>330.0</ele><time>2026-04-12T11:07:22Z</time></trkpt><trkpt lat="38.861390622489104" lon="16.467672520065946"><ele>331.0</ele><time>2026-04-12T11:07:23Z</time></trkpt><trkpt lat="38.861311952670356" lon="16.467550132043097"><ele>332.0</ele><time>2026-04-12T11:07:24Z</time></trkpt><trkpt lat="38.86120726610012" lon="16.467444773408868"><ele>333.0</ele><time>2026-04-12T11:07:25Z</time></trkpt><trkpt lat="38.86109224204819" lon="16.46738677561695"><ele>334.0</ele><time>2026-04-12T11:07:26Z</time></trkpt><trkpt lat="38.86095477043719" lon="16.467399337966572"><ele>334.25</ele><time>2026-04-12T11:07:27Z</time></trkpt><trkpt lat="38.86082769085046" lon="16.46745989763534"><ele>334.5</ele><time>2026-04-12T11:07:28Z</time></trkpt><trkpt lat="38.86070614717651" lon="16.467552060787785"><ele>334.75</ele><time>2026-04-12T11:07:29Z</time></trkpt><trkpt lat="38.86063046473834" lon="16.46773470009524"><ele>335.0</ele><time>2026-04-12T11:07:30Z</time></trkpt><trkpt lat="38.86058321984636" lon="16.467911686256247"><ele>335.75</ele><time>2026-04-12T11:07:31Z</time></trkpt><trkpt lat="38.860569173937826" lon="16.468082097448182"><ele>336.5</ele><time>2026-04-12T11:07:32Z</time></trkpt><trkpt lat="38.86051726794542" lon="16.468213834204445"><ele>337.25</ele><time>2026-04-12T11:07:33Z</time></trkpt><trkpt lat="38.8604444631834" lon="16.46830269999298"><ele>338.0</ele><time>2026-04-12T11:07:34Z</time></trkpt><trkpt lat="38.86033251437117" lon="16.468348010880703"><ele>338.0</ele><time>2026-04-12T11:07:35Z</time></trkpt><trkpt lat="38.86019778720364" lon="16.468301039735586"><ele>338.0</ele><time>2026-04-12T11:07:36Z</time></trkpt><trkpt lat="38.86004519021848" lon="16.468288574245314"><ele>338.0</ele><time>2026-04-12T11:07:37Z</time></trkpt><trkpt lat="38.8598885699917" lon="16.46826917642288"><ele>338.0</ele><time>2026-04-12T11:07:38Z</time></trkpt><trkpt lat="38.85972604870845" lon="16.468260866622288"><ele>338.0</ele><time>2026-04-12T11:07:39Z</time></trkpt><trkpt lat="38.85955601667398" lon="16.468246223769746"><ele>338.0</ele><time>2026-04-12T11:07:40Z</time></trkpt><trkpt lat="38.859406805555395" lon="16.46824610442883"><ele>338.5</ele><time>2026-04-12T11:07:41Z</time></trkpt><trkpt lat="38.85925406563936" lon="16.468228698311556"><ele>339.0</ele><time>2026-04-12T11:07:42Z</time></trkpt><trkpt lat="38.85914903245245" lon="16.46815274439563"><ele>339.5</ele><time>2026-04-12T11:07:43Z</time></trkpt><trkpt lat="38.85908096387436" lon="16.468045501131503"><ele>340.0</ele><time>2026-04-12T11:07:44Z</time></trkpt><trkpt lat="38.85900068124091" lon="16.46787180910579"><ele>340.0</ele><time>2026-04-12T11:07:45Z</time></trkpt><trkpt lat="38.85892482581647" lon="16.467737047324647"><ele>340.0</ele><time>2026-04-12T11:07:46Z</time></trkpt><trkpt lat="38.85883326487995" lon="16.467633552995643"><ele>340.0</ele><time>2026-04-12T11:07:47Z</time></trkpt><trkpt lat="38.858713957109636" lon="16.467580175395142"><ele>340.0</ele><time>2026-04-12T11:07:48Z</time></trkpt><trkpt lat="38.85862172748705" lon="16.46755273210806"><ele>340.0</ele><time>2026-04-12T11:07:49Z</time></trkpt><trkpt lat="38.85851616112897" lon="16.46752270188078"><ele>340.0</ele><time>2026-04-12T11:07:50Z</time></trkpt><trkpt lat="38.85837768218287" lon="16.467503494725065"><ele>340.0</ele><time>2026-04-12T11:07:51Z</time></trkpt><trkpt lat="38.858272977737556" lon="16.467446552928113"><ele>340.0</ele><time>2026-04-12T11:07:52Z</time></trkpt><trkpt lat="38.858201085605536" lon="16.4673799304485"><ele>336.75</ele><time>2026-04-12T11:07:53Z</time></trkpt><trkpt lat="38.8581230464543" lon="16.467238533493422"><ele>333.5</ele><time>2026-04-12T11:07:54Z</time></trkpt><trkpt lat="38.85808260833166" lon="16.46707114549698"><ele>330.25</ele><time>2026-04-12T11:07:55Z</time></trkpt><trkpt lat="38.858047703733995" lon="16.466881581670215"><ele>327.0</ele><time>2026-04-12T11:07:56Z</time></trkpt><trkpt lat="38.8580335564578" lon="16.466678464066252"><ele>325.6666666666667</ele><time>2026-04-12T11:07:57Z</time></trkpt><trkpt lat="38.8580281586051" lon="16.466471552204176"><ele>324.33333333333337</ele><time>2026-04-12T11:07:58Z</time></trkpt><trkpt lat="38.85803037378271" lon="16.466252514722683"><ele>323.0</ele><time>2026-04-12T11:07:59Z</time></trkpt><trkpt lat="38.85804740094014" lon="16.46606134741067"><ele>321.79999999999995</ele><time>2026-04-12T11:08:00Z</time></trkpt><trkpt lat="38.85806325567888" lon="16.465884183635236"><ele>320.59999999999997</ele><time>2026-04-12T11:08:01Z</time></trkpt><trkpt lat="38.8580708644487" lon="16.46572624498915"><ele>319.4</ele><time>2026-04-12T11:08:02Z</time></trkpt><trkpt lat="38.858072120643776" lon="16.46560152572821"><ele>318.2</ele><time>2026-04-12T11:08:03Z</time></trkpt><trkpt lat="38.85802557024193" lon="16.465509339192675"><ele>317.0</ele><time>2026-04-12T11:08:04Z</time></trkpt><trkpt lat="38.85795108042135" lon="16.46543382234751"><ele>317.0</ele><time>2026-04-12T11:08:05Z</time></trkpt><trkpt lat="38.85785204946176" lon="16.46543700156584"><ele>317.0</ele><time>2026-04-12T11:08:06Z</time></trkpt><trkpt lat="38.85774009251099" lon="16.465569839101512"><ele>317.0</ele><time>2026-04-12T11:08:07Z</time></trkpt><trkpt lat="38.857699080306176" lon="16.46570306610973"><ele>317.0</ele><time>2026-04-12T11:08:08Z</time></trkpt><trkpt lat="38.85767696271481" lon="16.465893481780476"><ele>317.0</ele><time>2026-04-12T11:08:09Z</time></trkpt><trkpt lat="38.85763977372321" lon="16.46605746688862"><ele>317.0</ele><time>2026-04-12T11:08:10Z</time></trkpt><trkpt lat="38.8575902332495" lon="16.466231209343896"><ele>317.0</ele><time>2026-04-12T11:08:11Z</time></trkpt><trkpt lat="38.85751700053719" lon="16.46633815197262"><ele>317.0</ele><time>2026-04-12T11:08:12Z</time></trkpt><trkpt lat="38.85746429305389" lon="16.466423862551746"><ele>317.5</ele><time>2026-04-12T11:08:13Z</time></trkpt><trkpt lat="38.85734394576639" lon="16.466440464946228"><ele>318.0</ele><time>2026-04-12T11:08:14Z</time></trkpt><trkpt lat="38.8572122968258" lon="16.466389032866438"><ele>318.5</ele><time>2026-04-12T11:08:15Z</time></trkpt><trkpt lat="38.857083837361685" lon="16.466368543338582"><ele>319.0</ele><time>2026-04-12T11:08:16Z</time></trkpt><trkpt lat="38.85698103463072" lon="16.46635366073982"><ele>319.0</ele><time>2026-04-12T11:08:17Z</time></trkpt><trkpt lat="38.85687974083636" lon="16.466415505733895"><ele>319.0</ele><time>2026-04-12T11:08:18Z</time></trkpt><trkpt lat="38.85683966235441" lon="16.466525135398538"><ele>319.0</ele><time>2026-04-12T11:08:19Z</time></trkpt><trkpt lat="38.85682860789797" lon="16.466638172539536"><ele>319.0</ele><time>2026-04-12T11:08:20Z</time></trkpt><trkpt lat="38.85681277143543" lon="16.46673777651279"><ele>319.0</ele><time>2026-04-12T11:08:21Z</time></trkpt><trkpt lat="38.85678797218679" lon="16.466857391262963"><ele>319.8333333333333</ele><time>2026-04-12T11:08:23Z</time></trkpt><trkpt lat="38.8567039928192" lon="16.46695771016685"><ele>320.66666666666663</ele><time>2026-04-12T11:08:24Z</time></trkpt><trkpt lat="38.85665215058693" lon="16.467006087000776"><ele>321.5</ele><time>2026-04-12T11:08:25Z</time></trkpt><trkpt lat="38.856581161299985" lon="16.46702037397739"><ele>322.3333333333333</ele><time>2026-04-12T11:08:26Z</time></trkpt><trkpt lat="38.85650641683608" lon="16.467006558596232"><ele>323.1666666666667</ele><time>2026-04-12T11:08:27Z</time></trkpt><trkpt lat="38.85644157227388" lon="16.46699867379375"><ele>324.0</ele><time>2026-04-12T11:08:28Z</time></trkpt><trkpt lat="38.85632317228695" lon="16.46700255529914"><ele>324.0</ele><time>2026-04-12T11:08:30Z</time></trkpt><trkpt lat="38.8562636003409" lon="16.46703263486394"><ele>324.0</ele><time>2026-04-12T11:08:31Z</time></trkpt><trkpt lat="38.85616896090721" lon="16.467112731775078"><ele>324.0</ele><time>2026-04-12T11:08:32Z</time></trkpt><trkpt lat="38.856122464307795" lon="16.46719976261638"><ele>324.0</ele><time>2026-04-12T11:08:33Z</time></trkpt><trkpt lat="38.8560188087942" lon="16.46732985349485"><ele>324.0</ele><time>2026-04-12T11:08:34Z</time></trkpt><trkpt lat="38.855898696979935" lon="16.46744691741865"><ele>325.75</ele><time>2026-04-12T11:08:35Z</time></trkpt><trkpt lat="38.8558104308647" lon="16.467606074887822"><ele>327.5</ele><time>2026-04-12T11:08:36Z</time></trkpt><trkpt lat="38.85573901476892" lon="16.467757923356956"><ele>329.25</ele><time>2026-04-12T11:08:37Z</time></trkpt><trkpt lat="38.85565614560204" lon="16.467921487696547"><ele>331.0</ele><time>2026-04-12T11:08:38Z</time></trkpt><trkpt lat="38.855593315826134" lon="16.468107320418294"><ele>331.0</ele><time>2026-04-12T11:08:39Z</time></trkpt><trkpt lat="38.85551584104659" lon="16.468264929477005"><ele>331.0</ele><time>2026-04-12T11:08:40Z</time></trkpt><trkpt lat="38.855448717335385" lon="16.46842923691145"><ele>331.0</ele><time>2026-04-12T11:08:41Z</time></trkpt><trkpt lat="38.855380766224556" lon="16.46859771536387"><ele>331.0</ele><time>2026-04-12T11:08:42Z</time></trkpt><trkpt lat="38.8553148561472" lon="16.468758487832197"><ele>330.5</ele><time>2026-04-12T11:08:43Z</time></trkpt><trkpt lat="38.855247026535" lon="16.468915625346426"><ele>330.0</ele><time>2026-04-12T11:08:44Z</time></trkpt><trkpt lat="38.8551813642628" lon="16.469075797460306"><ele>329.5</ele><time>2026-04-12T11:08:45Z</time></trkpt><trkpt lat="38.855111863250556" lon="16.469238237337056"><ele>329.0</ele><time>2026-04-12T11:08:46Z</time></trkpt><trkpt lat="38.85504600187422" lon="16.46941352098531"><ele>332.0</ele><time>2026-04-12T11:08:47Z</time></trkpt><trkpt lat="38.85496887905996" lon="16.469578177145795"><ele>335.0</ele><time>2026-04-12T11:08:48Z</time></trkpt><trkpt lat="38.85489997767602" lon="16.46974022755115"><ele>338.0</ele><time>2026-04-12T11:08:49Z</time></trkpt><trkpt lat="38.854839579362505" lon="16.469895035419114"><ele>341.0</ele><time>2026-04-12T11:08:50Z</time></trkpt><trkpt lat="38.854767840313805" lon="16.470032730946713"><ele>341.25</ele><time>2026-04-12T11:08:51Z</time></trkpt><trkpt lat="38.85468599545421" lon="16.47015448251048"><ele>341.5</ele><time>2026-04-12T11:08:52Z</time></trkpt><trkpt lat="38.854610962780235" lon="16.470279206634835"><ele>341.75</ele><time>2026-04-12T11:08:53Z</time></trkpt><trkpt lat="38.85451181292507" lon="16.470403000577896"><ele>342.0</ele><time>2026-04-12T11:08:54Z</time></trkpt><trkpt lat="38.854417129121664" lon="16.470492444018028"><ele>342.0</ele><time>2026-04-12T11:08:55Z</time></trkpt><trkpt lat="38.85432290809158" lon="16.470592368489122"><ele>342.0</ele><time>2026-04-12T11:08:56Z</time></trkpt><trkpt lat="38.85419853731544" lon="16.47062672272919"><ele>342.0</ele><time>2026-04-12T11:08:57Z</time></trkpt><trkpt lat="38.85411222546077" lon="16.470544838110996"><ele>342.0</ele><time>2026-04-12T11:08:58Z</time></trkpt><trkpt lat="38.85403551558422" lon="16.47043393096208"><ele>342.0</ele><time>2026-04-12T11:08:59Z</time></trkpt><trkpt lat="38.85397066131016" lon="16.470284182376457"><ele>342.0</ele><time>2026-04-12T11:09:00Z</time></trkpt><trkpt lat="38.853888932823644" lon="16.47013253824183"><ele>342.0</ele><time>2026-04-12T11:09:01Z</time></trkpt><trkpt lat="38.85381032870652" lon="16.470007562329094"><ele>342.0</ele><time>2026-04-12T11:09:02Z</time></trkpt><trkpt lat="38.85370851262587" lon="16.46988164325565"><ele>342.0</ele><time>2026-04-12T11:09:03Z</time></trkpt><trkpt lat="38.85359180521392" lon="16.46978814989426"><ele>342.0</ele><time>2026-04-12T11:09:04Z</time></trkpt><trkpt lat="38.85347942833538" lon="16.469701445225127"><ele>342.0</ele><time>2026-04-12T11:09:05Z</time></trkpt><trkpt lat="38.85337056098881" lon="16.469615827126"><ele>342.0</ele><time>2026-04-12T11:09:06Z</time></trkpt><trkpt lat="38.85324669429398" lon="16.469546276271103"><ele>340.25</ele><time>2026-04-12T11:09:07Z</time></trkpt><trkpt lat="38.85312389031405" lon="16.469459327840696"><ele>338.5</ele><time>2026-04-12T11:09:08Z</time></trkpt><trkpt lat="38.85304690619233" lon="16.469392465536107"><ele>336.75</ele><time>2026-04-12T11:09:09Z</time></trkpt><trkpt lat="38.852897146697835" lon="16.469373019048827"><ele>335.0</ele><time>2026-04-12T11:09:10Z</time></trkpt><trkpt lat="38.852794855173755" lon="16.469389766943333"><ele>335.0</ele><time>2026-04-12T11:09:11Z</time></trkpt><trkpt lat="38.85268366906531" lon="16.46947731846323"><ele>335.0</ele><time>2026-04-12T11:09:12Z</time></trkpt><trkpt lat="38.85262920878485" lon="16.46963161096769"><ele>335.0</ele><time>2026-04-12T11:09:13Z</time></trkpt><trkpt lat="38.85259702569788" lon="16.469807084762277"><ele>335.0</ele><time>2026-04-12T11:09:14Z</time></trkpt><trkpt lat="38.852560398938735" lon="16.469973870782937"><ele>334.5</ele><time>2026-04-12T11:09:15Z</time></trkpt><trkpt lat="38.85252610274816" lon="16.470143049725827"><ele>334.0</ele><time>2026-04-12T11:09:16Z</time></trkpt><trkpt lat="38.85247624775122" lon="16.470297911826556"><ele>333.5</ele><time>2026-04-12T11:09:17Z</time></trkpt><trkpt lat="38.8524297271062" lon="16.470435360149114"><ele>333.0</ele><time>2026-04-12T11:09:18Z</time></trkpt><trkpt lat="38.8523616610202" lon="16.470533610315076"><ele>331.5</ele><time>2026-04-12T11:09:19Z</time></trkpt><trkpt lat="38.85226906934787" lon="16.470624228170017"><ele>330.0</ele><time>2026-04-12T11:09:20Z</time></trkpt><trkpt lat="38.85214641899872" lon="16.470663754453863"><ele>328.5</ele><time>2026-04-12T11:09:21Z</time></trkpt><trkpt lat="38.85199281768587" lon="16.470613942688452"><ele>327.0</ele><time>2026-04-12T11:09:22Z</time></trkpt><trkpt lat="38.851852974491315" lon="16.470538855132688"><ele>325.3333333333333</ele><time>2026-04-12T11:09:23Z</time></trkpt><trkpt lat="38.85170828733692" lon="16.470441099605065"><ele>323.66666666666663</ele><time>2026-04-12T11:09:24Z</time></trkpt><trkpt lat="38.85160767140292" lon="16.470286884974488"><ele>322.0</ele><time>2026-04-12T11:09:25Z</time></trkpt><trkpt lat="38.85148633902645" lon="16.47011829003236"><ele>322.0</ele><time>2026-04-12T11:09:26Z</time></trkpt><trkpt lat="38.851382874235085" lon="16.46994804836971"><ele>322.0</ele><time>2026-04-12T11:09:27Z</time></trkpt><trkpt lat="38.85127893725814" lon="16.469792773346505"><ele>322.0</ele><time>2026-04-12T11:09:28Z</time></trkpt><trkpt lat="38.8511827856604" lon="16.469625388580223"><ele>323.66666666666663</ele><time>2026-04-12T11:09:29Z</time></trkpt><trkpt lat="38.85106459228161" lon="16.46948060409987"><ele>325.3333333333333</ele><time>2026-04-12T11:09:30Z</time></trkpt><trkpt lat="38.85092712262543" lon="16.46937563511473"><ele>327.0</ele><time>2026-04-12T11:09:31Z</time></trkpt><trkpt lat="38.85079445614989" lon="16.469296284180064"><ele>323.0</ele><time>2026-04-12T11:09:32Z</time></trkpt><trkpt lat="38.85067522847073" lon="16.46917855881411"><ele>319.0</ele><time>2026-04-12T11:09:33Z</time></trkpt><trkpt lat="38.850544248493264" lon="16.46902338287445"><ele>315.0</ele><time>2026-04-12T11:09:34Z</time></trkpt><trkpt lat="38.85051543150779" lon="16.468864608708884"><ele>317.0</ele><time>2026-04-12T11:09:35Z</time></trkpt><trkpt lat="38.850487776890624" lon="16.46867752051801"><ele>319.0</ele><time>2026-04-12T11:09:36Z</time></trkpt><trkpt lat="38.85042957561336" lon="16.468467053907553"><ele>321.0</ele><time>2026-04-12T11:09:37Z</time></trkpt><trkpt lat="38.850345759125695" lon="16.468245242341553"><ele>321.0</ele><time>2026-04-12T11:09:38Z</time></trkpt><trkpt lat="38.8502967369483" lon="16.468007661806165"><ele>321.0</ele><time>2026-04-12T11:09:39Z</time></trkpt><trkpt lat="38.85023626138287" lon="16.467768090632788"><ele>321.0</ele><time>2026-04-12T11:09:40Z</time></trkpt><trkpt lat="38.85017776408036" lon="16.467538834009076"><ele>314.3333333333333</ele><time>2026-04-12T11:09:41Z</time></trkpt><trkpt lat="38.85010508283895" lon="16.467300091097936"><ele>307.66666666666663</ele><time>2026-04-12T11:09:42Z</time></trkpt><trkpt lat="38.850042139806945" lon="16.467089361773198"><ele>301.0</ele><time>2026-04-12T11:09:43Z</time></trkpt><trkpt lat="38.84999071919813" lon="16.46686540426099"><ele>300.66666666666663</ele><time>2026-04-12T11:09:44Z</time></trkpt><trkpt lat="38.84993176190176" lon="16.466638942243655"><ele>300.3333333333333</ele><time>2026-04-12T11:09:45Z</time></trkpt><trkpt lat="38.84986686822839" lon="16.466419673025143"><ele>300.0</ele><time>2026-04-12T11:09:46Z</time></trkpt><trkpt lat="38.849807638037106" lon="16.466200429066372"><ele>301.0</ele><time>2026-04-12T11:09:47Z</time></trkpt><trkpt lat="38.84974869961873" lon="16.46597795106252"><ele>302.0</ele><time>2026-04-12T11:09:48Z</time></trkpt><trkpt lat="38.84967924304216" lon="16.4657683863983"><ele>303.0</ele><time>2026-04-12T11:09:49Z</time></trkpt><trkpt lat="38.849596405133674" lon="16.465551026831797"><ele>304.3333333333333</ele><time>2026-04-12T11:09:50Z</time></trkpt><trkpt lat="38.84949223137646" lon="16.4653494609341"><ele>305.66666666666663</ele><time>2026-04-12T11:09:51Z</time></trkpt><trkpt lat="38.84938299236519" lon="16.465166220888673"><ele>307.0</ele><time>2026-04-12T11:09:52Z</time></trkpt><trkpt lat="38.849262406520616" lon="16.46499994574499"><ele>302.66666666666663</ele><time>2026-04-12T11:09:53Z</time></trkpt><trkpt lat="38.84914570802215" lon="16.46484466350901"><ele>298.3333333333333</ele><time>2026-04-12T11:09:54Z</time></trkpt><trkpt lat="38.84905150332298" lon="16.46467605436707"><ele>294.0</ele><time>2026-04-12T11:09:55Z</time></trkpt><trkpt lat="38.848974011802376" lon="16.46448596176697"><ele>294.0</ele><time>2026-04-12T11:09:56Z</time></trkpt><trkpt lat="38.8489097187484" lon="16.464282875461215"><ele>294.0</ele><time>2026-04-12T11:09:57Z</time></trkpt><trkpt lat="38.84884837055704" lon="16.464086757049554"><ele>294.0</ele><time>2026-04-12T11:09:58Z</time></trkpt><trkpt lat="38.84878537083126" lon="16.463900268247862"><ele>295.6666666666667</ele><time>2026-04-12T11:09:59Z</time></trkpt><trkpt lat="38.84873875985278" lon="16.46370977757595"><ele>297.33333333333337</ele><time>2026-04-12T11:10:00Z</time></trkpt><trkpt lat="38.84869638359237" lon="16.463510766793664"><ele>299.0</ele><time>2026-04-12T11:10:01Z</time></trkpt><trkpt lat="38.84866900548193" lon="16.463293644517385"><ele>299.0</ele><time>2026-04-12T11:10:02Z</time></trkpt><trkpt lat="38.84867906403055" lon="16.46307203750528"><ele>299.0</ele><time>2026-04-12T11:10:03Z</time></trkpt><trkpt lat="38.848683803717066" lon="16.462849654732604"><ele>299.0</ele><time>2026-04-12T11:10:04Z</time></trkpt><trkpt lat="38.84869380695544" lon="16.46262265572216"><ele>298.0</ele><time>2026-04-12T11:10:05Z</time></trkpt><trkpt lat="38.84870382905493" lon="16.462385842053088"><ele>297.0</ele><time>2026-04-12T11:10:06Z</time></trkpt><trkpt lat="38.84871514405191" lon="16.462125578355735"><ele>296.0</ele><time>2026-04-12T11:10:07Z</time></trkpt><trkpt lat="38.84872758257907" lon="16.461883329769794"><ele>294.33333333333337</ele><time>2026-04-12T11:10:08Z</time></trkpt><trkpt lat="38.8487387617445" lon="16.461661141376556"><ele>292.6666666666667</ele><time>2026-04-12T11:10:09Z</time></trkpt><trkpt lat="38.84875035236943" lon="16.461437495426377"><ele>291.0</ele><time>2026-04-12T11:10:10Z</time></trkpt><trkpt lat="38.84877473785003" lon="16.46120251354599"><ele>288.6666666666667</ele><time>2026-04-12T11:10:11Z</time></trkpt><trkpt lat="38.84882607000455" lon="16.460981622670342"><ele>286.33333333333337</ele><time>2026-04-12T11:10:12Z</time></trkpt><trkpt lat="38.84890145427333" lon="16.460775298191987"><ele>284.0</ele><time>2026-04-12T11:10:13Z</time></trkpt><trkpt lat="38.84897435421928" lon="16.460577982022194"><ele>280.6666666666667</ele><time>2026-04-12T11:10:14Z</time></trkpt><trkpt lat="38.84902200558232" lon="16.460367025802782"><ele>277.3333333333333</ele><time>2026-04-12T11:10:15Z</time></trkpt><trkpt lat="38.84905772060044" lon="16.460163342131565"><ele>274.0</ele><time>2026-04-12T11:10:16Z</time></trkpt><trkpt lat="38.84902137934184" lon="16.459950232638178"><ele>274.0</ele><time>2026-04-12T11:10:17Z</time></trkpt><trkpt lat="38.84896482498188" lon="16.459754048125923"><ele>274.0</ele><time>2026-04-12T11:10:18Z</time></trkpt><trkpt lat="38.84888930030389" lon="16.459584007552667"><ele>274.0</ele><time>2026-04-12T11:10:19Z</time></trkpt><trkpt lat="38.84886852017196" lon="16.459398304101644"><ele>272.25</ele><time>2026-04-12T11:10:20Z</time></trkpt><trkpt lat="38.84887122596103" lon="16.459226707570917"><ele>270.5</ele><time>2026-04-12T11:10:21Z</time></trkpt><trkpt lat="38.8489231107933" lon="16.459055440250175"><ele>268.75</ele><time>2026-04-12T11:10:22Z</time></trkpt><trkpt lat="38.84898687531481" lon="16.45885728629673"><ele>267.0</ele><time>2026-04-12T11:10:23Z</time></trkpt><trkpt lat="38.84905143716066" lon="16.45865665449863"><ele>265.0</ele><time>2026-04-12T11:10:24Z</time></trkpt><trkpt lat="38.849099275191236" lon="16.458446737935372"><ele>263.0</ele><time>2026-04-12T11:10:25Z</time></trkpt><trkpt lat="38.849180901548486" lon="16.458240781185"><ele>261.0</ele><time>2026-04-12T11:10:26Z</time></trkpt><trkpt lat="38.849244931689455" lon="16.458031201270707"><ele>259.6666666666667</ele><time>2026-04-12T11:10:27Z</time></trkpt><trkpt lat="38.84930924936768" lon="16.457822231945922"><ele>258.33333333333337</ele><time>2026-04-12T11:10:28Z</time></trkpt><trkpt lat="38.84937013846361" lon="16.45762587888724"><ele>257.0</ele><time>2026-04-12T11:10:29Z</time></trkpt><trkpt lat="38.849429365653144" lon="16.457434619048104"><ele>257.0</ele><time>2026-04-12T11:10:30Z</time></trkpt><trkpt lat="38.84947671826888" lon="16.457241483658855"><ele>257.0</ele><time>2026-04-12T11:10:31Z</time></trkpt><trkpt lat="38.84953579590397" lon="16.4570553956003"><ele>257.0</ele><time>2026-04-12T11:10:32Z</time></trkpt><trkpt lat="38.84959679497431" lon="16.456869248996234"><ele>259.0</ele><time>2026-04-12T11:10:33Z</time></trkpt><trkpt lat="38.84965704647819" lon="16.4566787397224"><ele>261.0</ele><time>2026-04-12T11:10:34Z</time></trkpt><trkpt lat="38.84972031601997" lon="16.456490470031003"><ele>263.0</ele><time>2026-04-12T11:10:35Z</time></trkpt><trkpt lat="38.84977478470319" lon="16.456295257296965"><ele>266.6666666666667</ele><time>2026-04-12T11:10:36Z</time></trkpt><trkpt lat="38.84984100302667" lon="16.45608752794565"><ele>270.3333333333333</ele><time>2026-04-12T11:10:37Z</time></trkpt><trkpt lat="38.84988175262574" lon="16.455898089477408"><ele>274.0</ele><time>2026-04-12T11:10:38Z</time></trkpt><trkpt lat="38.849895754975655" lon="16.455697127101352"><ele>274.0</ele><time>2026-04-12T11:10:39Z</time></trkpt><trkpt lat="38.849905442950266" lon="16.455526056383572"><ele>274.0</ele><time>2026-04-12T11:10:40Z</time></trkpt><trkpt lat="38.849923493242514" lon="16.455370043542544"><ele>274.0</ele><time>2026-04-12T11:10:41Z</time></trkpt><trkpt lat="38.84998520877798" lon="16.45524632149563"><ele>274.0</ele><time>2026-04-12T11:10:42Z</time></trkpt><trkpt lat="38.850113661360716" lon="16.45514502566476"><ele>272.25</ele><time>2026-04-12T11:10:43Z</time></trkpt><trkpt lat="38.85021821278065" lon="16.45503202883468"><ele>270.5</ele><time>2026-04-12T11:10:44Z</time></trkpt><trkpt lat="38.850321893254275" lon="16.45490612760013"><ele>268.75</ele><time>2026-04-12T11:10:45Z</time></trkpt><trkpt lat="38.85043120423399" lon="16.45479060804715"><ele>267.0</ele><time>2026-04-12T11:10:46Z</time></trkpt><trkpt lat="38.85053224770094" lon="16.45464712578385"><ele>269.25</ele><time>2026-04-12T11:10:47Z</time></trkpt><trkpt lat="38.85063971748559" lon="16.454520497112068"><ele>271.5</ele><time>2026-04-12T11:10:48Z</time></trkpt><trkpt lat="38.850749913269226" lon="16.454390441157603"><ele>273.75</ele><time>2026-04-12T11:10:49Z</time></trkpt><trkpt lat="38.850857651944075" lon="16.454258579945662"><ele>276.0</ele><time>2026-04-12T11:10:50Z</time></trkpt><trkpt lat="38.85097604148957" lon="16.454152209960583"><ele>276.0</ele><time>2026-04-12T11:10:51Z</time></trkpt><trkpt lat="38.85109729684119" lon="16.454059335605304"><ele>276.0</ele><time>2026-04-12T11:10:52Z</time></trkpt><trkpt lat="38.85120481680022" lon="16.453965726140645"><ele>276.0</ele><time>2026-04-12T11:10:53Z</time></trkpt><trkpt lat="38.851328486625555" lon="16.45389318927964"><ele>276.0</ele><time>2026-04-12T11:10:54Z</time></trkpt><trkpt lat="38.85143989497788" lon="16.45382335335747"><ele>280.0</ele><time>2026-04-12T11:10:55Z</time></trkpt><trkpt lat="38.85154063786299" lon="16.453736354049838"><ele>284.0</ele><time>2026-04-12T11:10:56Z</time></trkpt><trkpt lat="38.851624154192166" lon="16.453610817237166"><ele>288.0</ele><time>2026-04-12T11:10:57Z</time></trkpt><trkpt lat="38.85165240257895" lon="16.45345631519203"><ele>292.0</ele><time>2026-04-12T11:10:58Z</time></trkpt><trkpt lat="38.85160207265068" lon="16.453295118362746"><ele>292.0</ele><time>2026-04-12T11:10:59Z</time></trkpt><trkpt lat="38.85150583097339" lon="16.453177205679424"><ele>292.0</ele><time>2026-04-12T11:11:00Z</time></trkpt><trkpt lat="38.85138420583926" lon="16.453078138448042"><ele>292.0</ele><time>2026-04-12T11:11:01Z</time></trkpt><trkpt lat="38.851251977063264" lon="16.45300827124888"><ele>292.0</ele><time>2026-04-12T11:11:02Z</time></trkpt><trkpt lat="38.851118350692836" lon="16.45293938937928"><ele>292.0</ele><time>2026-04-12T11:11:03Z</time></trkpt><trkpt lat="38.850982730694064" lon="16.452884505114348"><ele>292.0</ele><time>2026-04-12T11:11:04Z</time></trkpt><trkpt lat="38.85083600272508" lon="16.452821667162215"><ele>292.0</ele><time>2026-04-12T11:11:05Z</time></trkpt><trkpt lat="38.850685136715676" lon="16.45275724843865"><ele>295.0</ele><time>2026-04-12T11:11:06Z</time></trkpt><trkpt lat="38.85053584381358" lon="16.452689992019724"><ele>298.0</ele><time>2026-04-12T11:11:07Z</time></trkpt><trkpt lat="38.850384354967794" lon="16.45262169657407"><ele>301.0</ele><time>2026-04-12T11:11:08Z</time></trkpt><trkpt lat="38.85025062951772" lon="16.45256048811255"><ele>301.0</ele><time>2026-04-12T11:11:09Z</time></trkpt><trkpt lat="38.85012844444585" lon="16.452512274010545"><ele>301.0</ele><time>2026-04-12T11:11:10Z</time></trkpt><trkpt lat="38.85003516627361" lon="16.45242036672109"><ele>301.0</ele><time>2026-04-12T11:11:11Z</time></trkpt><trkpt lat="38.849953084912855" lon="16.45229774989019"><ele>301.0</ele><time>2026-04-12T11:11:12Z</time></trkpt><trkpt lat="38.84990497704824" lon="16.452150596949693"><ele>304.5</ele><time>2026-04-12T11:11:13Z</time></trkpt><trkpt lat="38.84990158591349" lon="16.451975620581436"><ele>308.0</ele><time>2026-04-12T11:11:14Z</time></trkpt><trkpt lat="38.84990763210589" lon="16.45179905238382"><ele>311.5</ele><time>2026-04-12T11:11:15Z</time></trkpt><trkpt lat="38.849900235551814" lon="16.451608796950858"><ele>315.0</ele><time>2026-04-12T11:11:16Z</time></trkpt><trkpt lat="38.849901380984015" lon="16.451425737469744"><ele>315.5</ele><time>2026-04-12T11:11:17Z</time></trkpt><trkpt lat="38.849899657794865" lon="16.45124501724374"><ele>316.0</ele><time>2026-04-12T11:11:18Z</time></trkpt><trkpt lat="38.849899431652915" lon="16.451091914932285"><ele>316.5</ele><time>2026-04-12T11:11:19Z</time></trkpt><trkpt lat="38.849897975124094" lon="16.45093875851452"><ele>317.0</ele><time>2026-04-12T11:11:20Z</time></trkpt><trkpt lat="38.849879841481794" lon="16.450811872908915"><ele>317.0</ele><time>2026-04-12T11:11:21Z</time></trkpt><trkpt lat="38.84988124494873" lon="16.45069609562484"><ele>317.0</ele><time>2026-04-12T11:11:22Z</time></trkpt><trkpt lat="38.84988281774032" lon="16.45058812886383"><ele>317.0</ele><time>2026-04-12T11:11:23Z</time></trkpt><trkpt lat="38.849885005543" lon="16.450479584012175"><ele>317.0</ele><time>2026-04-12T11:11:24Z</time></trkpt><trkpt lat="38.84988181917896" lon="16.450369912952215"><ele>317.0</ele><time>2026-04-12T11:11:25Z</time></trkpt><trkpt lat="38.84987652592944" lon="16.450276863617596"><ele>317.0</ele><time>2026-04-12T11:11:27Z</time></trkpt><trkpt lat="38.849854401852205" lon="16.450122128907587"><ele>317.0</ele><time>2026-04-12T11:11:28Z</time></trkpt><trkpt lat="38.849700948997615" lon="16.450091046142227"><ele>317.0</ele><time>2026-04-12T11:11:30Z</time></trkpt><trkpt lat="38.849596893840314" lon="16.450067590080074"><ele>317.0</ele><time>2026-04-12T11:11:31Z</time></trkpt><trkpt lat="38.84948152020236" lon="16.450072264657372"><ele>317.0</ele><time>2026-04-12T11:11:32Z</time></trkpt><trkpt lat="38.84937972145563" lon="16.450077405311518"><ele>317.0</ele><time>2026-04-12T11:11:33Z</time></trkpt><trkpt lat="38.849314443348334" lon="16.450084250312266"><ele>317.0</ele><time>2026-04-12T11:11:34Z</time></trkpt><trkpt lat="38.84938529538904" lon="16.450061815344643"><ele>317.0</ele><time>2026-04-12T11:11:35Z</time></trkpt><trkpt lat="38.849312227930774" lon="16.45008692638782"><ele>317.0</ele><time>2026-04-12T11:12:40Z</time></trkpt><trkpt lat="38.84920091449882" lon="16.450094939147164"><ele>317.0</ele><time>2026-04-12T11:12:41Z</time></trkpt><trkpt lat="38.849072294862765" lon="16.450111681084508"><ele>317.0</ele><time>2026-04-12T11:12:42Z</time></trkpt><trkpt lat="38.84891723481764" lon="16.45008173531989"><ele>317.0</ele><time>2026-04-12T11:12:43Z</time></trkpt><trkpt lat="38.8487544687185" lon="16.450019671711075"><ele>317.0</ele><time>2026-04-12T11:12:44Z</time></trkpt><trkpt lat="38.848556777110396" lon="16.44992497300493"><ele>316.33333333333337</ele><time>2026-04-12T11:12:45Z</time></trkpt><trkpt lat="38.84833789408595" lon="16.44983231240363"><ele>315.6666666666667</ele><time>2026-04-12T11:12:46Z</time></trkpt><trkpt lat="38.848178505775834" lon="16.449694099898274"><ele>315.0</ele><time>2026-04-12T11:12:47Z</time></trkpt><trkpt lat="38.84803334692568" lon="16.449567852338912"><ele>314.6666666666667</ele><time>2026-04-12T11:12:48Z</time></trkpt><trkpt lat="38.84789321719986" lon="16.44941459400908"><ele>314.33333333333337</ele><time>2026-04-12T11:12:49Z</time></trkpt><trkpt lat="38.84773037241902" lon="16.44922095915041"><ele>314.0</ele><time>2026-04-12T11:12:50Z</time></trkpt><trkpt lat="38.8475511347049" lon="16.449007046532"><ele>314.0</ele><time>2026-04-12T11:12:51Z</time></trkpt><trkpt lat="38.84734789186055" lon="16.448796453818108"><ele>314.0</ele><time>2026-04-12T11:12:52Z</time></trkpt><trkpt lat="38.84719333621176" lon="16.448611187117812"><ele>313.6666666666667</ele><time>2026-04-12T11:12:53Z</time></trkpt><trkpt lat="38.847072133208954" lon="16.44846328087211"><ele>313.3333333333333</ele><time>2026-04-12T11:12:54Z</time></trkpt><trkpt lat="38.846947501506754" lon="16.44832304302414"><ele>313.0</ele><time>2026-04-12T11:12:55Z</time></trkpt><trkpt lat="38.84683380665804" lon="16.44818585691734"><ele>313.0</ele><time>2026-04-12T11:12:56Z</time></trkpt><trkpt lat="38.84672522022403" lon="16.44805624346326"><ele>313.0</ele><time>2026-04-12T11:12:57Z</time></trkpt><trkpt lat="38.84660256008097" lon="16.447914477794818"><ele>313.0</ele><time>2026-04-12T11:12:58Z</time></trkpt><trkpt lat="38.84645396396344" lon="16.447774705572293"><ele>312.66666666666663</ele><time>2026-04-12T11:12:59Z</time></trkpt><trkpt lat="38.84628967012094" lon="16.44765913354411"><ele>312.3333333333333</ele><time>2026-04-12T11:13:00Z</time></trkpt><trkpt lat="38.84610674828738" lon="16.44756418396539"><ele>312.0</ele><time>2026-04-12T11:13:01Z</time></trkpt><trkpt lat="38.84595738213674" lon="16.447450604551598"><ele>311.3333333333333</ele><time>2026-04-12T11:13:02Z</time></trkpt><trkpt lat="38.845804307829255" lon="16.44736076999544"><ele>310.66666666666663</ele><time>2026-04-12T11:13:03Z</time></trkpt><trkpt lat="38.845649654217446" lon="16.44726193756269"><ele>310.0</ele><time>2026-04-12T11:13:04Z</time></trkpt><trkpt lat="38.84549309315936" lon="16.44716756022515"><ele>310.0</ele><time>2026-04-12T11:13:05Z</time></trkpt><trkpt lat="38.845338183904644" lon="16.447080155572802"><ele>310.0</ele><time>2026-04-12T11:13:06Z</time></trkpt><trkpt lat="38.845181844615816" lon="16.44700243961322"><ele>310.0</ele><time>2026-04-12T11:13:07Z</time></trkpt><trkpt lat="38.84500529632057" lon="16.44689593765745"><ele>310.0</ele><time>2026-04-12T11:13:08Z</time></trkpt><trkpt lat="38.84486896329028" lon="16.4468613360628"><ele>310.0</ele><time>2026-04-12T11:13:09Z</time></trkpt><trkpt lat="38.8447346214086" lon="16.446809979786813"><ele>310.0</ele><time>2026-04-12T11:13:10Z</time></trkpt><trkpt lat="38.84460202934841" lon="16.44676406024305"><ele>310.0</ele><time>2026-04-12T11:13:11Z</time></trkpt><trkpt lat="38.84445475037478" lon="16.446724725577962"><ele>310.0</ele><time>2026-04-12T11:13:12Z</time></trkpt><trkpt lat="38.844296331305884" lon="16.446712492466666"><ele>310.0</ele><time>2026-04-12T11:13:13Z</time></trkpt><trkpt lat="38.84415092313158" lon="16.446678902967697"><ele>310.0</ele><time>2026-04-12T11:13:14Z</time></trkpt><trkpt lat="38.8440251299484" lon="16.44666481167494"><ele>310.0</ele><time>2026-04-12T11:13:15Z</time></trkpt><trkpt lat="38.84392392018405" lon="16.446588972450225"><ele>310.0</ele><time>2026-04-12T11:13:16Z</time></trkpt><trkpt lat="38.84383372863996" lon="16.446501070226425"><ele>310.0</ele><time>2026-04-12T11:13:17Z</time></trkpt><trkpt lat="38.84375658734947" lon="16.446400274788548"><ele>310.0</ele><time>2026-04-12T11:13:18Z</time></trkpt><trkpt lat="38.8436716320392" lon="16.446275340470418"><ele>310.0</ele><time>2026-04-12T11:13:19Z</time></trkpt><trkpt lat="38.843580826027136" lon="16.44616246239571"><ele>310.0</ele><time>2026-04-12T11:13:20Z</time></trkpt><trkpt lat="38.84350328035981" lon="16.44604225283204"><ele>310.0</ele><time>2026-04-12T11:13:21Z</time></trkpt><trkpt lat="38.84343217279919" lon="16.44592363955495"><ele>310.0</ele><time>2026-04-12T11:13:22Z</time></trkpt><trkpt lat="38.8433552791176" lon="16.445811074764638"><ele>310.0</ele><time>2026-04-12T11:13:23Z</time></trkpt><trkpt lat="38.843278746388975" lon="16.44570083920104"><ele>310.0</ele><time>2026-04-12T11:13:24Z</time></trkpt><trkpt lat="38.843195608458295" lon="16.445586647901514"><ele>310.0</ele><time>2026-04-12T11:13:25Z</time></trkpt><trkpt lat="38.84310816606213" lon="16.445444280083823"><ele>310.0</ele><time>2026-04-12T11:13:26Z</time></trkpt><trkpt lat="38.84300325802067" lon="16.445299629490652"><ele>310.0</ele><time>2026-04-12T11:13:27Z</time></trkpt><trkpt lat="38.84291488589361" lon="16.44515819213374"><ele>310.0</ele><time>2026-04-12T11:13:28Z</time></trkpt><trkpt lat="38.84283048426434" lon="16.445048658270903"><ele>310.0</ele><time>2026-04-12T11:13:29Z</time></trkpt><trkpt lat="38.84273703716577" lon="16.44490860212489"><ele>310.0</ele><time>2026-04-12T11:13:30Z</time></trkpt><trkpt lat="38.84263039300212" lon="16.444746776243274"><ele>310.0</ele><time>2026-04-12T11:13:31Z</time></trkpt><trkpt lat="38.84253438545157" lon="16.444599205781067"><ele>310.66666666666663</ele><time>2026-04-12T11:13:32Z</time></trkpt><trkpt lat="38.84244442325969" lon="16.444454870882172"><ele>311.3333333333333</ele><time>2026-04-12T11:13:33Z</time></trkpt><trkpt lat="38.842343794656436" lon="16.444306398954303"><ele>312.0</ele><time>2026-04-12T11:13:34Z</time></trkpt><trkpt lat="38.84223879758272" lon="16.44415497965257"><ele>312.0</ele><time>2026-04-12T11:13:35Z</time></trkpt><trkpt lat="38.84214375649795" lon="16.444010444345054"><ele>312.0</ele><time>2026-04-12T11:13:36Z</time></trkpt><trkpt lat="38.8420483475362" lon="16.44385973995756"><ele>312.0</ele><time>2026-04-12T11:13:37Z</time></trkpt><trkpt lat="38.84194631842248" lon="16.443710434921993"><ele>312.3333333333333</ele><time>2026-04-12T11:13:38Z</time></trkpt><trkpt lat="38.84183832786733" lon="16.443559784484837"><ele>312.66666666666663</ele><time>2026-04-12T11:13:39Z</time></trkpt><trkpt lat="38.841726044326826" lon="16.443389513377237"><ele>313.0</ele><time>2026-04-12T11:13:40Z</time></trkpt><trkpt lat="38.8416104630564" lon="16.443216718612405"><ele>313.66666666666663</ele><time>2026-04-12T11:13:41Z</time></trkpt><trkpt lat="38.841498057589014" lon="16.443055342198413"><ele>314.3333333333333</ele><time>2026-04-12T11:13:42Z</time></trkpt><trkpt lat="38.8413866293484" lon="16.442908701306877"><ele>315.0</ele><time>2026-04-12T11:13:43Z</time></trkpt><trkpt lat="38.84128204399627" lon="16.442767442874885"><ele>316.0</ele><time>2026-04-12T11:13:44Z</time></trkpt><trkpt lat="38.84117427222466" lon="16.442624067813245"><ele>317.0</ele><time>2026-04-12T11:13:45Z</time></trkpt><trkpt lat="38.841068837516104" lon="16.4424886801255"><ele>318.0</ele><time>2026-04-12T11:13:46Z</time></trkpt><trkpt lat="38.84096522115832" lon="16.442339734707165"><ele>319.0</ele><time>2026-04-12T11:13:47Z</time></trkpt><trkpt lat="38.84085749011654" lon="16.442201672041215"><ele>320.0</ele><time>2026-04-12T11:13:48Z</time></trkpt><trkpt lat="38.84072503205374" lon="16.44206527921388"><ele>321.0</ele><time>2026-04-12T11:13:49Z</time></trkpt><trkpt lat="38.84059343199518" lon="16.44192531919277"><ele>322.3333333333333</ele><time>2026-04-12T11:13:50Z</time></trkpt><trkpt lat="38.840474364167065" lon="16.441759365976715"><ele>323.66666666666663</ele><time>2026-04-12T11:13:51Z</time></trkpt><trkpt lat="38.840350893139785" lon="16.441599887891307"><ele>325.0</ele><time>2026-04-12T11:13:52Z</time></trkpt><trkpt lat="38.84021215021602" lon="16.44145027943252"><ele>327.0</ele><time>2026-04-12T11:13:53Z</time></trkpt><trkpt lat="38.84007707166987" lon="16.441292241364476"><ele>329.0</ele><time>2026-04-12T11:13:54Z</time></trkpt><trkpt lat="38.83995324359533" lon="16.441134526387902"><ele>331.0</ele><time>2026-04-12T11:13:55Z</time></trkpt><trkpt lat="38.83983157983677" lon="16.440978770088915"><ele>331.0</ele><time>2026-04-12T11:13:56Z</time></trkpt><trkpt lat="38.83970837315631" lon="16.440821150562936"><ele>331.0</ele><time>2026-04-12T11:13:57Z</time></trkpt><trkpt lat="38.83958509934095" lon="16.44066458891039"><ele>331.0</ele><time>2026-04-12T11:13:58Z</time></trkpt><trkpt lat="38.83946127976312" lon="16.440505430571584"><ele>332.0</ele><time>2026-04-12T11:13:59Z</time></trkpt><trkpt lat="38.83934461374915" lon="16.44035389282654"><ele>333.0</ele><time>2026-04-12T11:14:00Z</time></trkpt><trkpt lat="38.83922436694828" lon="16.440200424396526"><ele>334.0</ele><time>2026-04-12T11:14:01Z</time></trkpt><trkpt lat="38.8391071076097" lon="16.44005750797254"><ele>335.0</ele><time>2026-04-12T11:14:02Z</time></trkpt><trkpt lat="38.838992966496946" lon="16.439918576878853"><ele>336.0</ele><time>2026-04-12T11:14:03Z</time></trkpt><trkpt lat="38.83887639514773" lon="16.439781972227603"><ele>337.0</ele><time>2026-04-12T11:14:04Z</time></trkpt><trkpt lat="38.838757628248715" lon="16.439653468141287"><ele>337.75</ele><time>2026-04-12T11:14:05Z</time></trkpt><trkpt lat="38.838641923386334" lon="16.439539966129946"><ele>338.5</ele><time>2026-04-12T11:14:06Z</time></trkpt><trkpt lat="38.838521782528346" lon="16.439453272136408"><ele>339.25</ele><time>2026-04-12T11:14:07Z</time></trkpt><trkpt lat="38.83841210231438" lon="16.43936900650342"><ele>340.0</ele><time>2026-04-12T11:14:08Z</time></trkpt><trkpt lat="38.83827841383872" lon="16.439377266838825"><ele>340.0</ele><time>2026-04-12T11:14:09Z</time></trkpt><trkpt lat="38.838157980412156" lon="16.439457751417507"><ele>340.0</ele><time>2026-04-12T11:14:10Z</time></trkpt><trkpt lat="38.838045348480826" lon="16.439565399119"><ele>340.0</ele><time>2026-04-12T11:14:11Z</time></trkpt><trkpt lat="38.83792598293621" lon="16.439682629052715"><ele>340.0</ele><time>2026-04-12T11:14:12Z</time></trkpt><trkpt lat="38.83780445028028" lon="16.439786683292972"><ele>340.0</ele><time>2026-04-12T11:14:13Z</time></trkpt><trkpt lat="38.83769301434468" lon="16.439911443047382"><ele>340.0</ele><time>2026-04-12T11:14:14Z</time></trkpt><trkpt lat="38.83755639447409" lon="16.440030731703388"><ele>340.0</ele><time>2026-04-12T11:14:15Z</time></trkpt><trkpt lat="38.837426590280074" lon="16.440130797220533"><ele>341.3333333333333</ele><time>2026-04-12T11:14:16Z</time></trkpt><trkpt lat="38.837302639163" lon="16.44022038024526"><ele>342.6666666666667</ele><time>2026-04-12T11:14:17Z</time></trkpt><trkpt lat="38.83716969645539" lon="16.440302744553048"><ele>344.0</ele><time>2026-04-12T11:14:18Z</time></trkpt><trkpt lat="38.837000908401656" lon="16.44034373430222"><ele>344.0</ele><time>2026-04-12T11:14:19Z</time></trkpt><trkpt lat="38.83680808142507" lon="16.4404177635458"><ele>344.0</ele><time>2026-04-12T11:14:20Z</time></trkpt><trkpt lat="38.83660235757319" lon="16.44047277347206"><ele>344.0</ele><time>2026-04-12T11:14:21Z</time></trkpt><trkpt lat="38.83641517129874" lon="16.440514713893847"><ele>344.2</ele><time>2026-04-12T11:14:22Z</time></trkpt><trkpt lat="38.83626678612382" lon="16.440540718363184"><ele>344.4</ele><time>2026-04-12T11:14:23Z</time></trkpt><trkpt lat="38.83616161315805" lon="16.440572833630675"><ele>344.6</ele><time>2026-04-12T11:14:24Z</time></trkpt><trkpt lat="38.836073611648445" lon="16.440567386364904"><ele>344.8</ele><time>2026-04-12T11:14:25Z</time></trkpt><trkpt lat="38.83597707935171" lon="16.440536694012316"><ele>345.0</ele><time>2026-04-12T11:14:26Z</time></trkpt><trkpt lat="38.83590664403954" lon="16.44050171261053"><ele>347.5</ele><time>2026-04-12T11:14:27Z</time></trkpt><trkpt lat="38.83585137875057" lon="16.44038387496977"><ele>350.0</ele><time>2026-04-12T11:14:28Z</time></trkpt><trkpt lat="38.83578317036424" lon="16.44024055884061"><ele>352.5</ele><time>2026-04-12T11:14:29Z</time></trkpt><trkpt lat="38.83573207838" lon="16.440096402430836"><ele>355.0</ele><time>2026-04-12T11:14:30Z</time></trkpt><trkpt lat="38.83567526567137" lon="16.439941447427454"><ele>355.0</ele><time>2026-04-12T11:14:31Z</time></trkpt><trkpt lat="38.835620244250165" lon="16.439774787514775"><ele>355.0</ele><time>2026-04-12T11:14:32Z</time></trkpt><trkpt lat="38.835537537442136" lon="16.439608911664674"><ele>355.0</ele><time>2026-04-12T11:14:33Z</time></trkpt><trkpt lat="38.83547492458626" lon="16.439434395614068"><ele>355.0</ele><time>2026-04-12T11:14:34Z</time></trkpt><trkpt lat="38.83538882818928" lon="16.439245213873495"><ele>355.0</ele><time>2026-04-12T11:14:35Z</time></trkpt><trkpt lat="38.83533338902103" lon="16.43904010799964"><ele>355.0</ele><time>2026-04-12T11:14:36Z</time></trkpt><trkpt lat="38.83525875192164" lon="16.438853216794616"><ele>355.0</ele><time>2026-04-12T11:14:37Z</time></trkpt><trkpt lat="38.83517579547766" lon="16.438643865736942"><ele>357.75</ele><time>2026-04-12T11:14:38Z</time></trkpt><trkpt lat="38.835103389971366" lon="16.438504513387954"><ele>360.5</ele><time>2026-04-12T11:14:39Z</time></trkpt><trkpt lat="38.83504763632282" lon="16.438323272911184"><ele>363.25</ele><time>2026-04-12T11:14:40Z</time></trkpt><trkpt lat="38.834986818716146" lon="16.438156887969686"><ele>366.0</ele><time>2026-04-12T11:14:41Z</time></trkpt><trkpt lat="38.83493490576023" lon="16.43797605113865"><ele>367.3333333333333</ele><time>2026-04-12T11:14:42Z</time></trkpt><trkpt lat="38.83491787401092" lon="16.437737295733797"><ele>368.66666666666663</ele><time>2026-04-12T11:14:43Z</time></trkpt><trkpt lat="38.834909875432295" lon="16.437502420100344"><ele>370.0</ele><time>2026-04-12T11:14:44Z</time></trkpt><trkpt lat="38.83489427552808" lon="16.43726617167062"><ele>370.3333333333333</ele><time>2026-04-12T11:14:45Z</time></trkpt><trkpt lat="38.83486129270504" lon="16.43701014562461"><ele>370.6666666666667</ele><time>2026-04-12T11:14:46Z</time></trkpt><trkpt lat="38.83481547333668" lon="16.436800411819622"><ele>371.0</ele><time>2026-04-12T11:14:47Z</time></trkpt><trkpt lat="38.83473907929279" lon="16.436595403498366"><ele>371.0</ele><time>2026-04-12T11:14:48Z</time></trkpt><trkpt lat="38.83466093251052" lon="16.436368442918038"><ele>371.0</ele><time>2026-04-12T11:14:49Z</time></trkpt><trkpt lat="38.83459522015733" lon="16.43616259316192"><ele>371.0</ele><time>2026-04-12T11:14:50Z</time></trkpt><trkpt lat="38.8345493819622" lon="16.435987770848563"><ele>372.5</ele><time>2026-04-12T11:14:51Z</time></trkpt><trkpt lat="38.834488330999456" lon="16.435839911156158"><ele>374.0</ele><time>2026-04-12T11:14:52Z</time></trkpt><trkpt lat="38.83442322061833" lon="16.435710201464822"><ele>375.5</ele><time>2026-04-12T11:14:53Z</time></trkpt><trkpt lat="38.83435466105406" lon="16.435533679796407"><ele>377.0</ele><time>2026-04-12T11:14:54Z</time></trkpt><trkpt lat="38.83429941153382" lon="16.435325288792008"><ele>378.5</ele><time>2026-04-12T11:14:55Z</time></trkpt><trkpt lat="38.834248886943975" lon="16.435158733227585"><ele>380.0</ele><time>2026-04-12T11:14:56Z</time></trkpt><trkpt lat="38.834195558403565" lon="16.434992063945884"><ele>381.5</ele><time>2026-04-12T11:14:57Z</time></trkpt><trkpt lat="38.83414136708038" lon="16.434819634042515"><ele>383.0</ele><time>2026-04-12T11:14:58Z</time></trkpt><trkpt lat="38.83408921524553" lon="16.434652749123334"><ele>384.0</ele><time>2026-04-12T11:14:59Z</time></trkpt><trkpt lat="38.83403135426831" lon="16.43448629240894"><ele>385.0</ele><time>2026-04-12T11:15:00Z</time></trkpt><trkpt lat="38.833958116833955" lon="16.434309656353484"><ele>386.0</ele><time>2026-04-12T11:15:01Z</time></trkpt><trkpt lat="38.83386446544145" lon="16.434120511328754"><ele>386.0</ele><time>2026-04-12T11:15:02Z</time></trkpt><trkpt lat="38.833770255667936" lon="16.433943632659332"><ele>386.0</ele><time>2026-04-12T11:15:03Z</time></trkpt><trkpt lat="38.833691958452846" lon="16.433802582382775"><ele>386.0</ele><time>2026-04-12T11:15:04Z</time></trkpt><trkpt lat="38.83358132187225" lon="16.433683706766477"><ele>386.0</ele><time>2026-04-12T11:15:05Z</time></trkpt><trkpt lat="38.833415304720575" lon="16.433596364991953"><ele>390.3333333333333</ele><time>2026-04-12T11:15:06Z</time></trkpt><trkpt lat="38.83324994822835" lon="16.433534846083766"><ele>394.66666666666663</ele><time>2026-04-12T11:15:07Z</time></trkpt><trkpt lat="38.83310237378728" lon="16.433473430567588"><ele>399.0</ele><time>2026-04-12T11:15:08Z</time></trkpt><trkpt lat="38.832964305093064" lon="16.433394859073076"><ele>399.0</ele><time>2026-04-12T11:15:09Z</time></trkpt><trkpt lat="38.83283755215656" lon="16.433325784077113"><ele>399.0</ele><time>2026-04-12T11:15:10Z</time></trkpt><trkpt lat="38.832693687015365" lon="16.433302098541805"><ele>399.0</ele><time>2026-04-12T11:15:11Z</time></trkpt><trkpt lat="38.83255262775561" lon="16.433280935740555"><ele>399.0</ele><time>2026-04-12T11:15:12Z</time></trkpt><trkpt lat="38.83241390994134" lon="16.433287460754848"><ele>399.5</ele><time>2026-04-12T11:15:13Z</time></trkpt><trkpt lat="38.83226685472442" lon="16.43328211456199"><ele>400.0</ele><time>2026-04-12T11:15:14Z</time></trkpt><trkpt lat="38.83212530219573" lon="16.43329386452431"><ele>400.5</ele><time>2026-04-12T11:15:15Z</time></trkpt><trkpt lat="38.831980197696666" lon="16.433302865071113"><ele>401.0</ele><time>2026-04-12T11:15:16Z</time></trkpt><trkpt lat="38.83183709081172" lon="16.433318887804536"><ele>402.0</ele><time>2026-04-12T11:15:17Z</time></trkpt><trkpt lat="38.83168627335896" lon="16.43328254397495"><ele>403.0</ele><time>2026-04-12T11:15:18Z</time></trkpt><trkpt lat="38.83153232271238" lon="16.433249456547177"><ele>404.0</ele><time>2026-04-12T11:15:19Z</time></trkpt><trkpt lat="38.831381476230945" lon="16.433206593801394"><ele>404.0</ele><time>2026-04-12T11:15:20Z</time></trkpt><trkpt lat="38.83123381577747" lon="16.433142213324217"><ele>404.0</ele><time>2026-04-12T11:15:21Z</time></trkpt><trkpt lat="38.83110404631039" lon="16.433065302547394"><ele>404.0</ele><time>2026-04-12T11:15:22Z</time></trkpt><trkpt lat="38.830970796444625" lon="16.432987309038563"><ele>404.0</ele><time>2026-04-12T11:15:23Z</time></trkpt><trkpt lat="38.83085902492753" lon="16.432890354443742"><ele>405.75</ele><time>2026-04-12T11:15:24Z</time></trkpt><trkpt lat="38.83075130589599" lon="16.43280735774697"><ele>407.5</ele><time>2026-04-12T11:15:25Z</time></trkpt><trkpt lat="38.830652088879674" lon="16.432711510293295"><ele>409.25</ele><time>2026-04-12T11:15:26Z</time></trkpt><trkpt lat="38.83056971070315" lon="16.432581392695685"><ele>411.0</ele><time>2026-04-12T11:15:27Z</time></trkpt><trkpt lat="38.83051209796067" lon="16.43242842821309"><ele>411.0</ele><time>2026-04-12T11:15:28Z</time></trkpt><trkpt lat="38.830423220928324" lon="16.432293512428373"><ele>411.0</ele><time>2026-04-12T11:15:29Z</time></trkpt><trkpt lat="38.83032403060404" lon="16.43214893258301"><ele>411.0</ele><time>2026-04-12T11:15:30Z</time></trkpt><trkpt lat="38.83023440304527" lon="16.432012543907867"><ele>411.0</ele><time>2026-04-12T11:15:31Z</time></trkpt><trkpt lat="38.830137859933636" lon="16.431922299947182"><ele>412.4</ele><time>2026-04-12T11:15:32Z</time></trkpt><trkpt lat="38.83004781846748" lon="16.431856660446936"><ele>413.8</ele><time>2026-04-12T11:15:33Z</time></trkpt><trkpt lat="38.82997114433631" lon="16.431819372555417"><ele>415.2</ele><time>2026-04-12T11:15:34Z</time></trkpt><trkpt lat="38.82990171763885" lon="16.431806613340484"><ele>416.59999999999997</ele><time>2026-04-12T11:15:35Z</time></trkpt><trkpt lat="38.82979890668269" lon="16.431830388528205"><ele>418.0</ele><time>2026-04-12T11:15:37Z</time></trkpt><trkpt lat="38.82970956228655" lon="16.431848276626507"><ele>418.00000000000006</ele><time>2026-04-12T11:15:39Z</time></trkpt><trkpt lat="38.82963985579167" lon="16.431864684368694"><ele>418.0</ele><time>2026-04-12T11:15:41Z</time></trkpt><trkpt lat="38.8295675974232" lon="16.431900214160645"><ele>418.0</ele><time>2026-04-12T11:15:42Z</time></trkpt><trkpt lat="38.82964455709792" lon="16.43186237276731"><ele>418.0</ele><time>2026-04-12T11:15:43Z</time></trkpt><trkpt lat="38.82962720231192" lon="16.43177126110105"><ele>418.00000000000006</ele><time>2026-04-12T11:15:44Z</time></trkpt><trkpt lat="38.82957649165098" lon="16.431679888440883"><ele>418.0</ele><time>2026-04-12T11:15:46Z</time></trkpt><trkpt lat="38.82952240273183" lon="16.431602291576326"><ele>418.0</ele><time>2026-04-12T11:16:03.999Z</time></trkpt><trkpt lat="38.8294732905804" lon="16.431517516849794"><ele>418.0</ele><time>2026-04-12T11:16:06Z</time></trkpt><trkpt lat="38.82944003831666" lon="16.43143725276381"><ele>418.0</ele><time>2026-04-12T11:16:07Z</time></trkpt><trkpt lat="38.8293584234814" lon="16.431289998426116"><ele>418.0</ele><time>2026-04-12T11:16:09Z</time></trkpt><trkpt lat="38.82929525171423" lon="16.43121171790787"><ele>418.0</ele><time>2026-04-12T11:16:10Z</time></trkpt><trkpt lat="38.82924031283123" lon="16.431093101685867"><ele>420.25</ele><time>2026-04-12T11:16:11Z</time></trkpt><trkpt lat="38.8291508131409" lon="16.430959920270155"><ele>422.5</ele><time>2026-04-12T11:16:12Z</time></trkpt><trkpt lat="38.82908269701087" lon="16.430811551685444"><ele>424.75</ele><time>2026-04-12T11:16:13Z</time></trkpt><trkpt lat="38.82897016000617" lon="16.430704586649128"><ele>427.0</ele><time>2026-04-12T11:16:14Z</time></trkpt><trkpt lat="38.82886704513812" lon="16.43058204616288"><ele>429.0</ele><time>2026-04-12T11:16:15Z</time></trkpt><trkpt lat="38.828745993394925" lon="16.430462378846862"><ele>431.0</ele><time>2026-04-12T11:16:16Z</time></trkpt><trkpt lat="38.828605081934526" lon="16.43032776287468"><ele>433.0</ele><time>2026-04-12T11:16:17Z</time></trkpt><trkpt lat="38.82843712991332" lon="16.43023186571787"><ele>433.6666666666667</ele><time>2026-04-12T11:16:18Z</time></trkpt><trkpt lat="38.82828086437236" lon="16.43013344005983"><ele>434.33333333333337</ele><time>2026-04-12T11:16:19Z</time></trkpt><trkpt lat="38.828149238317685" lon="16.430019860028953"><ele>435.0</ele><time>2026-04-12T11:16:20Z</time></trkpt><trkpt lat="38.828023488174466" lon="16.42989857250329"><ele>435.0</ele><time>2026-04-12T11:16:21Z</time></trkpt><trkpt lat="38.82792241569969" lon="16.42975024801861"><ele>435.0</ele><time>2026-04-12T11:16:22Z</time></trkpt><trkpt lat="38.827861420242506" lon="16.429564485640437"><ele>435.0</ele><time>2026-04-12T11:16:23Z</time></trkpt><trkpt lat="38.82778811203539" lon="16.429382815367305"><ele>437.0</ele><time>2026-04-12T11:16:24Z</time></trkpt><trkpt lat="38.82770536620611" lon="16.42920519004845"><ele>439.0</ele><time>2026-04-12T11:16:25Z</time></trkpt><trkpt lat="38.82763255255212" lon="16.429010709367777"><ele>441.0</ele><time>2026-04-12T11:16:26Z</time></trkpt><trkpt lat="38.82756233139387" lon="16.42883406307926"><ele>441.5</ele><time>2026-04-12T11:16:27Z</time></trkpt><trkpt lat="38.82749049356757" lon="16.42866920219728"><ele>442.0</ele><time>2026-04-12T11:16:28Z</time></trkpt><trkpt lat="38.827421244445446" lon="16.42851229143554"><ele>442.5</ele><time>2026-04-12T11:16:29Z</time></trkpt><trkpt lat="38.827349315035235" lon="16.42839701592838"><ele>443.0</ele><time>2026-04-12T11:16:30Z</time></trkpt><trkpt lat="38.82728652402494" lon="16.428277196850715"><ele>443.0</ele><time>2026-04-12T11:16:31Z</time></trkpt><trkpt lat="38.82719059806541" lon="16.428186453212007"><ele>443.0</ele><time>2026-04-12T11:16:32Z</time></trkpt><trkpt lat="38.82709118196613" lon="16.4280955661956"><ele>443.0</ele><time>2026-04-12T11:16:33Z</time></trkpt><trkpt lat="38.82698750685379" lon="16.428016419928454"><ele>443.0</ele><time>2026-04-12T11:16:34Z</time></trkpt><trkpt lat="38.826897308071956" lon="16.427911485827764"><ele>444.25</ele><time>2026-04-12T11:16:35Z</time></trkpt><trkpt lat="38.82678232694431" lon="16.42781159210704"><ele>445.5</ele><time>2026-04-12T11:16:36Z</time></trkpt><trkpt lat="38.82668090798939" lon="16.427722374401647"><ele>446.75</ele><time>2026-04-12T11:16:37Z</time></trkpt><trkpt lat="38.826581506209905" lon="16.427643185424994"><ele>448.0</ele><time>2026-04-12T11:16:38Z</time></trkpt><trkpt lat="38.82651264681577" lon="16.427539055812186"><ele>448.0</ele><time>2026-04-12T11:16:39Z</time></trkpt><trkpt lat="38.8264371970843" lon="16.427448465013654"><ele>448.0</ele><time>2026-04-12T11:16:40Z</time></trkpt><trkpt lat="38.826372395937085" lon="16.42732445760013"><ele>448.0</ele><time>2026-04-12T11:16:41Z</time></trkpt><trkpt lat="38.82629011980781" lon="16.42721698282788"><ele>448.0</ele><time>2026-04-12T11:16:42Z</time></trkpt><trkpt lat="38.82619761665573" lon="16.427121807772693"><ele>449.25</ele><time>2026-04-12T11:16:43Z</time></trkpt><trkpt lat="38.82611252360568" lon="16.427023650992762"><ele>450.5</ele><time>2026-04-12T11:16:44Z</time></trkpt><trkpt lat="38.8260223491336" lon="16.42692169277779"><ele>451.75</ele><time>2026-04-12T11:16:45Z</time></trkpt><trkpt lat="38.82592390537159" lon="16.426828963597398"><ele>453.0</ele><time>2026-04-12T11:16:46Z</time></trkpt><trkpt lat="38.825838826835046" lon="16.426732589917112"><ele>453.0</ele><time>2026-04-12T11:16:47Z</time></trkpt><trkpt lat="38.82575072224901" lon="16.42665608507595"><ele>452.99999999999994</ele><time>2026-04-12T11:16:48Z</time></trkpt><trkpt lat="38.82564973716907" lon="16.426591598718748"><ele>452.99999999999994</ele><time>2026-04-12T11:16:49Z</time></trkpt><trkpt lat="38.82555622851193" lon="16.426508928685333"><ele>453.0</ele><time>2026-04-12T11:16:50Z</time></trkpt><trkpt lat="38.82546670542522" lon="16.426415406752536"><ele>453.0</ele><time>2026-04-12T11:16:51Z</time></trkpt><trkpt lat="38.82537813824814" lon="16.426328991036343"><ele>454.0</ele><time>2026-04-12T11:16:52Z</time></trkpt><trkpt lat="38.82528093786145" lon="16.426246786621494"><ele>455.0</ele><time>2026-04-12T11:16:53Z</time></trkpt><trkpt lat="38.82519724567676" lon="16.426146836427378"><ele>456.0</ele><time>2026-04-12T11:16:54Z</time></trkpt><trkpt lat="38.82510757120473" lon="16.4260614013182"><ele>457.0</ele><time>2026-04-12T11:16:55Z</time></trkpt><trkpt lat="38.825017114916044" lon="16.42597522140706"><ele>457.25</ele><time>2026-04-12T11:16:56Z</time></trkpt><trkpt lat="38.824919912924585" lon="16.42590013787076"><ele>457.5</ele><time>2026-04-12T11:16:57Z</time></trkpt><trkpt lat="38.82483651662607" lon="16.425816253059022"><ele>457.75</ele><time>2026-04-12T11:16:58Z</time></trkpt><trkpt lat="38.8247358914873" lon="16.425725865704678"><ele>458.0</ele><time>2026-04-12T11:16:59Z</time></trkpt><trkpt lat="38.82463660097255" lon="16.42562489661438"><ele>458.0</ele><time>2026-04-12T11:17:00Z</time></trkpt><trkpt lat="38.824544151000694" lon="16.425541826727354"><ele>458.0</ele><time>2026-04-12T11:17:01Z</time></trkpt><trkpt lat="38.8244309485341" lon="16.425438269900702"><ele>458.0</ele><time>2026-04-12T11:17:02Z</time></trkpt><trkpt lat="38.824338327255624" lon="16.425315300622156"><ele>458.0</ele><time>2026-04-12T11:17:03Z</time></trkpt><trkpt lat="38.82423140197409" lon="16.42522668825345"><ele>458.79999999999995</ele><time>2026-04-12T11:17:04Z</time></trkpt><trkpt lat="38.82413818109232" lon="16.425149632923763"><ele>459.59999999999997</ele><time>2026-04-12T11:17:05Z</time></trkpt><trkpt lat="38.82404304193684" lon="16.42506811855967"><ele>460.40000000000003</ele><time>2026-04-12T11:17:06Z</time></trkpt><trkpt lat="38.82395939458542" lon="16.425002643924348"><ele>461.20000000000005</ele><time>2026-04-12T11:17:07Z</time></trkpt><trkpt lat="38.82389773633584" lon="16.42495135910194"><ele>462.0</ele><time>2026-04-12T11:17:08Z</time></trkpt><trkpt lat="38.823837799933784" lon="16.424871879896507"><ele>462.0</ele><time>2026-04-12T11:17:09Z</time></trkpt><trkpt lat="38.823761022413706" lon="16.42480070633238"><ele>462.0</ele><time>2026-04-12T11:17:10Z</time></trkpt><trkpt lat="38.82370339135235" lon="16.42474772651765"><ele>462.0</ele><time>2026-04-12T11:17:11Z</time></trkpt><trkpt lat="38.82365021709454" lon="16.424688485035404"><ele>462.0</ele><time>2026-04-12T11:17:12Z</time></trkpt><trkpt lat="38.8236271616559" lon="16.42460774759433"><ele>462.0</ele><time>2026-04-12T11:17:14Z</time></trkpt><trkpt lat="38.82362191526013" lon="16.424467712068456"><ele>462.0</ele><time>2026-04-12T11:17:21Z</time></trkpt><trkpt lat="38.823615623730056" lon="16.424333210217462"><ele>462.66666666666663</ele><time>2026-04-12T11:17:22Z</time></trkpt><trkpt lat="38.82359882700615" lon="16.42414629603432"><ele>463.3333333333333</ele><time>2026-04-12T11:17:23Z</time></trkpt><trkpt lat="38.82360628432098" lon="16.423943269914425"><ele>464.0</ele><time>2026-04-12T11:17:24Z</time></trkpt><trkpt lat="38.823603490368" lon="16.423712627072135"><ele>465.0</ele><time>2026-04-12T11:17:25Z</time></trkpt><trkpt lat="38.82360443048766" lon="16.42347642282929"><ele>466.0</ele><time>2026-04-12T11:17:26Z</time></trkpt><trkpt lat="38.8235919108274" lon="16.423263162040136"><ele>467.0</ele><time>2026-04-12T11:17:27Z</time></trkpt><trkpt lat="38.82359078218447" lon="16.423046308010797"><ele>469.0</ele><time>2026-04-12T11:17:28Z</time></trkpt><trkpt lat="38.823610238099945" lon="16.422814972711073"><ele>471.0</ele><time>2026-04-12T11:17:29Z</time></trkpt><trkpt lat="38.82364867940151" lon="16.422572094775678"><ele>473.0</ele><time>2026-04-12T11:17:30Z</time></trkpt><trkpt lat="38.82373024377075" lon="16.422375274734758"><ele>474.3333333333333</ele><time>2026-04-12T11:17:31Z</time></trkpt><trkpt lat="38.82379628361173" lon="16.422139155892534"><ele>475.66666666666663</ele><time>2026-04-12T11:17:32Z</time></trkpt><trkpt lat="38.82386737444945" lon="16.421938583333844"><ele>477.0</ele><time>2026-04-12T11:17:33Z</time></trkpt><trkpt lat="38.823913066972345" lon="16.42175562440788"><ele>477.0</ele><time>2026-04-12T11:17:34Z</time></trkpt><trkpt lat="38.823952178348506" lon="16.421618494621544"><ele>477.0</ele><time>2026-04-12T11:17:35Z</time></trkpt><trkpt lat="38.82398288941938" lon="16.42144128395899"><ele>477.0</ele><time>2026-04-12T11:17:36Z</time></trkpt><trkpt lat="38.824013265981975" lon="16.421309099424395"><ele>477.0</ele><time>2026-04-12T11:17:37Z</time></trkpt><trkpt lat="38.824035409212826" lon="16.42119647112669"><ele>477.6666666666667</ele><time>2026-04-12T11:17:38Z</time></trkpt><trkpt lat="38.824050995688154" lon="16.42111191059764"><ele>478.33333333333337</ele><time>2026-04-12T11:17:39Z</time></trkpt><trkpt lat="38.82407261264861" lon="16.421020970943623"><ele>479.0</ele><time>2026-04-12T11:17:42Z</time></trkpt><trkpt lat="38.8240754764825" lon="16.42090796800366"><ele>479.6666666666667</ele><time>2026-04-12T11:17:45Z</time></trkpt><trkpt lat="38.82398183157153" lon="16.42082349875497"><ele>480.33333333333337</ele><time>2026-04-12T11:17:48Z</time></trkpt><trkpt lat="38.823883407223384" lon="16.420783571597624"><ele>481.0</ele><time>2026-04-12T11:17:50Z</time></trkpt><trkpt lat="38.82379553398116" lon="16.4207344926394"><ele>481.0</ele><time>2026-04-12T11:17:52Z</time></trkpt><trkpt lat="38.823726689679916" lon="16.420698392196098"><ele>481.0</ele><time>2026-04-12T11:17:55Z</time></trkpt><trkpt lat="38.82368516491891" lon="16.420624079228066"><ele>481.0</ele><time>2026-04-12T11:17:59Z</time></trkpt><trkpt lat="38.82371934686471" lon="16.420505057548098"><ele>481.0</ele><time>2026-04-12T11:20:56Z</time></trkpt><trkpt lat="38.82361783023874" lon="16.420465881446926"><ele>481.0</ele><time>2026-04-12T11:31:35Z</time></trkpt><trkpt lat="38.82349642548703" lon="16.420522574601097"><ele>481.20000000000005</ele><time>2026-04-12T11:36:19Z</time></trkpt><trkpt lat="38.82340023036904" lon="16.420515094673306"><ele>481.40000000000003</ele><time>2026-04-12T11:36:21Z</time></trkpt><trkpt lat="38.82332310549261" lon="16.420484341329175"><ele>481.6</ele><time>2026-04-12T11:36:22Z</time></trkpt><trkpt lat="38.823251870995406" lon="16.420446797171383"><ele>481.8</ele><time>2026-04-12T11:36:23Z</time></trkpt><trkpt lat="38.823143145154575" lon="16.420381802209043"><ele>482.0</ele><time>2026-04-12T11:36:25Z</time></trkpt><trkpt lat="38.82306542001959" lon="16.420342881346404"><ele>481.99999999999994</ele><time>2026-04-12T11:36:27Z</time></trkpt><trkpt lat="38.82298791551082" lon="16.42030217534295"><ele>482.0</ele><time>2026-04-12T11:36:30Z</time></trkpt><trkpt lat="38.8228929923904" lon="16.42035752814041"><ele>482.0</ele><time>2026-04-12T11:36:33Z</time></trkpt><trkpt lat="38.82289267318059" lon="16.420446194927354"><ele>482.0</ele><time>2026-04-12T11:36:35Z</time></trkpt><trkpt lat="38.82290948049991" lon="16.420532967058318"><ele>481.99999999999994</ele><time>2026-04-12T11:36:36Z</time></trkpt><trkpt lat="38.82291047710258" lon="16.420624106257392"><ele>482.0</ele><time>2026-04-12T11:36:37Z</time></trkpt><trkpt lat="38.82290693609492" lon="16.4207658347162"><ele>482.0</ele><time>2026-04-12T11:36:39Z</time></trkpt><trkpt lat="38.82285217135417" lon="16.42088339627243"><ele>482.00000000000006</ele><time>2026-04-12T11:36:41Z</time></trkpt><trkpt lat="38.82280535815008" lon="16.42098981577001"><ele>482.00000000000006</ele><time>2026-04-12T11:36:43Z</time></trkpt><trkpt lat="38.822743068610244" lon="16.42109630770824"><ele>482.0</ele><time>2026-04-12T11:36:45Z</time></trkpt><trkpt lat="38.82265703694054" lon="16.421151988918183"><ele>482.0</ele><time>2026-04-12T11:36:47Z</time></trkpt><trkpt lat="38.82258948310173" lon="16.421217129177787"><ele>481.99999999999994</ele><time>2026-04-12T11:36:49Z</time></trkpt><trkpt lat="38.82253143243062" lon="16.421276615124896"><ele>482.0</ele><time>2026-04-12T11:36:52Z</time></trkpt><trkpt lat="38.82262764834764" lon="16.42123255424169"><ele>482.0</ele><time>2026-04-12T11:37:00Z</time></trkpt><trkpt lat="38.822670089246" lon="16.42113073692195"><ele>482.0</ele><time>2026-04-12T11:37:02Z</time></trkpt><trkpt lat="38.822720846210885" lon="16.42107033684775"><ele>481.99999999999994</ele><time>2026-04-12T11:37:03Z</time></trkpt><trkpt lat="38.8227797109543" lon="16.421021551228833"><ele>482.0</ele><time>2026-04-12T11:37:04Z</time></trkpt><trkpt lat="38.82283216076999" lon="16.420957096624825"><ele>482.0</ele><time>2026-04-12T11:37:05Z</time></trkpt><trkpt lat="38.822875014210396" lon="16.42086479518544"><ele>482.00000000000006</ele><time>2026-04-12T11:37:06Z</time></trkpt><trkpt lat="38.822912860855965" lon="16.420732686811807"><ele>482.00000000000006</ele><time>2026-04-12T11:37:07Z</time></trkpt><trkpt lat="38.822933229730914" lon="16.420629777438922"><ele>482.0</ele><time>2026-04-12T11:37:08Z</time></trkpt><trkpt lat="38.82293316551174" lon="16.42053373438843"><ele>482.0</ele><time>2026-04-12T11:37:09Z</time></trkpt><trkpt lat="38.82293429218203" lon="16.420385117147582"><ele>482.66666666666663</ele><time>2026-04-12T11:37:11Z</time></trkpt><trkpt lat="38.82292224977354" lon="16.420236531054027"><ele>483.3333333333333</ele><time>2026-04-12T11:37:13Z</time></trkpt><trkpt lat="38.822905588463094" lon="16.420156228942286"><ele>484.0</ele><time>2026-04-12T11:37:14Z</time></trkpt><trkpt lat="38.82288841857993" lon="16.420076226921942"><ele>484.66666666666663</ele><time>2026-04-12T11:37:15Z</time></trkpt><trkpt lat="38.82287139542486" lon="16.419989636578357"><ele>485.3333333333333</ele><time>2026-04-12T11:37:16Z</time></trkpt><trkpt lat="38.822856449317904" lon="16.419886598347837"><ele>486.0</ele><time>2026-04-12T11:37:17Z</time></trkpt><trkpt lat="38.8228491169482" lon="16.419779521201352"><ele>486.0</ele><time>2026-04-12T11:37:18Z</time></trkpt><trkpt lat="38.822851865028255" lon="16.41968100654903"><ele>486.0</ele><time>2026-04-12T11:37:19Z</time></trkpt><trkpt lat="38.82286055316288" lon="16.41954932414353"><ele>486.0</ele><time>2026-04-12T11:37:20Z</time></trkpt><trkpt lat="38.82286875049659" lon="16.419436472263012"><ele>486.0</ele><time>2026-04-12T11:37:21Z</time></trkpt><trkpt lat="38.82287899362727" lon="16.41931849704182"><ele>486.0</ele><time>2026-04-12T11:37:22Z</time></trkpt><trkpt lat="38.822894276155914" lon="16.41919290982787"><ele>486.8</ele><time>2026-04-12T11:37:23Z</time></trkpt><trkpt lat="38.82290900428856" lon="16.41905413049154"><ele>487.6</ele><time>2026-04-12T11:37:24Z</time></trkpt><trkpt lat="38.82292011004008" lon="16.418917260478747"><ele>488.4</ele><time>2026-04-12T11:37:25Z</time></trkpt><trkpt lat="38.822930678233355" lon="16.418780114667396"><ele>489.2</ele><time>2026-04-12T11:37:26Z</time></trkpt><trkpt lat="38.822937826263995" lon="16.418641326247545"><ele>490.0</ele><time>2026-04-12T11:37:27Z</time></trkpt><trkpt lat="38.82295489084925" lon="16.418506813403802"><ele>491.2</ele><time>2026-04-12T11:37:28Z</time></trkpt><trkpt lat="38.82297265919018" lon="16.418383004759665"><ele>492.4</ele><time>2026-04-12T11:37:29Z</time></trkpt><trkpt lat="38.82300000219705" lon="16.418263030044834"><ele>493.6</ele><time>2026-04-12T11:37:30Z</time></trkpt><trkpt lat="38.82303030310082" lon="16.418146246886796"><ele>494.8</ele><time>2026-04-12T11:37:31Z</time></trkpt><trkpt lat="38.823046052052945" lon="16.418036553293337"><ele>496.0</ele><time>2026-04-12T11:37:32Z</time></trkpt><trkpt lat="38.82306235179889" lon="16.417941136090768"><ele>497.0</ele><time>2026-04-12T11:37:33Z</time></trkpt><trkpt lat="38.82307584052826" lon="16.41781205485625"><ele>498.0</ele><time>2026-04-12T11:37:34Z</time></trkpt><trkpt lat="38.82308994014348" lon="16.417678381947777"><ele>499.0</ele><time>2026-04-12T11:37:35Z</time></trkpt><trkpt lat="38.82308736782599" lon="16.417546742489034"><ele>500.0</ele><time>2026-04-12T11:37:36Z</time></trkpt><trkpt lat="38.823089983445975" lon="16.417429409381644"><ele>501.0</ele><time>2026-04-12T11:37:37Z</time></trkpt><trkpt lat="38.823106932583286" lon="16.41732743440265"><ele>501.0</ele><time>2026-04-12T11:37:38Z</time></trkpt><trkpt lat="38.82309758011654" lon="16.417215644047957"><ele>501.0</ele><time>2026-04-12T11:37:39Z</time></trkpt><trkpt lat="38.82311112421397" lon="16.417105803236172"><ele>501.0</ele><time>2026-04-12T11:37:40Z</time></trkpt><trkpt lat="38.82312080264679" lon="16.417002679317847"><ele>501.0</ele><time>2026-04-12T11:37:41Z</time></trkpt><trkpt lat="38.823126860749895" lon="16.416914130430992"><ele>501.0</ele><time>2026-04-12T11:37:42Z</time></trkpt><trkpt lat="38.82312504989777" lon="16.416806345792807"><ele>501.0</ele><time>2026-04-12T11:37:44Z</time></trkpt><trkpt lat="38.823009866076035" lon="16.416765815045657"><ele>501.4</ele><time>2026-04-12T11:37:47Z</time></trkpt><trkpt lat="38.82293730957494" lon="16.41681125214889"><ele>501.8</ele><time>2026-04-12T11:37:48Z</time></trkpt><trkpt lat="38.82284890601705" lon="16.41686945593359"><ele>502.19999999999993</ele><time>2026-04-12T11:37:49Z</time></trkpt><trkpt lat="38.82273105091084" lon="16.41691658573671"><ele>502.59999999999997</ele><time>2026-04-12T11:37:50Z</time></trkpt><trkpt lat="38.8225952567302" lon="16.416967241829155"><ele>503.0</ele><time>2026-04-12T11:37:51Z</time></trkpt><trkpt lat="38.82246080261172" lon="16.417014579923137"><ele>503.5</ele><time>2026-04-12T11:37:52Z</time></trkpt><trkpt lat="38.82234172000456" lon="16.41706130982782"><ele>504.0</ele><time>2026-04-12T11:37:53Z</time></trkpt><trkpt lat="38.82222718453042" lon="16.417110958623166"><ele>504.5</ele><time>2026-04-12T11:37:54Z</time></trkpt><trkpt lat="38.8221092228544" lon="16.417176949720986"><ele>505.0</ele><time>2026-04-12T11:37:55Z</time></trkpt><trkpt lat="38.82199736255827" lon="16.417262193811847"><ele>503.75</ele><time>2026-04-12T11:37:56Z</time></trkpt><trkpt lat="38.82189509666484" lon="16.417361542778174"><ele>502.5</ele><time>2026-04-12T11:37:57Z</time></trkpt><trkpt lat="38.821789017310365" lon="16.417470638887455"><ele>501.25</ele><time>2026-04-12T11:37:58Z</time></trkpt><trkpt lat="38.82167816110234" lon="16.417594849958608"><ele>500.0</ele><time>2026-04-12T11:37:59Z</time></trkpt><trkpt lat="38.82156321586319" lon="16.41773006503734"><ele>500.0</ele><time>2026-04-12T11:38:00Z</time></trkpt><trkpt lat="38.82144754662983" lon="16.417858926305037"><ele>500.0</ele><time>2026-04-12T11:38:01Z</time></trkpt><trkpt lat="38.821342540399584" lon="16.417976771295212"><ele>500.0</ele><time>2026-04-12T11:38:02Z</time></trkpt><trkpt lat="38.821235662883105" lon="16.418095240583213"><ele>500.0</ele><time>2026-04-12T11:38:03Z</time></trkpt><trkpt lat="38.821132439745334" lon="16.41821092873487"><ele>499.4</ele><time>2026-04-12T11:38:04Z</time></trkpt><trkpt lat="38.82104984976143" lon="16.418302733739885"><ele>498.8</ele><time>2026-04-12T11:38:05Z</time></trkpt><trkpt lat="38.82097800285194" lon="16.418381133857405"><ele>498.20000000000005</ele><time>2026-04-12T11:38:06Z</time></trkpt><trkpt lat="38.820925802893726" lon="16.418438930606897"><ele>497.6</ele><time>2026-04-12T11:38:07Z</time></trkpt><trkpt lat="38.82085189288524" lon="16.418492898303214"><ele>497.0</ele><time>2026-04-12T11:38:09Z</time></trkpt><trkpt lat="38.82080715181483" lon="16.418383980744732"><ele>497.0</ele><time>2026-04-12T11:38:13Z</time></trkpt><trkpt lat="38.82081017174041" lon="16.418295659697332"><ele>497.00000000000006</ele><time>2026-04-12T11:38:15Z</time></trkpt><trkpt lat="38.82081568130297" lon="16.418186138919815"><ele>497.00000000000006</ele><time>2026-04-12T11:38:16Z</time></trkpt><trkpt lat="38.82082638889198" lon="16.418067964009314"><ele>497.0</ele><time>2026-04-12T11:38:17Z</time></trkpt><trkpt lat="38.82084407118891" lon="16.417945660395933"><ele>497.0</ele><time>2026-04-12T11:38:18Z</time></trkpt><trkpt lat="38.82083928619859" lon="16.41780972393721"><ele>499.0</ele><time>2026-04-12T11:38:19Z</time></trkpt><trkpt lat="38.82085385589317" lon="16.417669738522125"><ele>501.00000000000006</ele><time>2026-04-12T11:38:20Z</time></trkpt><trkpt lat="38.82085147015954" lon="16.41752769195672"><ele>503.00000000000006</ele><time>2026-04-12T11:38:21Z</time></trkpt><trkpt lat="38.820840664147305" lon="16.417390966509206"><ele>505.0</ele><time>2026-04-12T11:38:22Z</time></trkpt><trkpt lat="38.82083621236429" lon="16.417262536950457"><ele>507.0</ele><time>2026-04-12T11:38:23Z</time></trkpt><trkpt lat="38.82083396819346" lon="16.417133620679866"><ele>508.40000000000003</ele><time>2026-04-12T11:38:24Z</time></trkpt><trkpt lat="38.82082870563404" lon="16.416994720264693"><ele>509.80000000000007</ele><time>2026-04-12T11:38:25Z</time></trkpt><trkpt lat="38.820823103811456" lon="16.416864182286496"><ele>511.2</ele><time>2026-04-12T11:38:26Z</time></trkpt><trkpt lat="38.820808461996556" lon="16.41675806771615"><ele>512.6</ele><time>2026-04-12T11:38:27Z</time></trkpt><trkpt lat="38.82079188854055" lon="16.41667503309758"><ele>514.0</ele><time>2026-04-12T11:38:28Z</time></trkpt><trkpt lat="38.820770880184405" lon="16.416539951025854"><ele>514.0</ele><time>2026-04-12T11:38:30Z</time></trkpt><trkpt lat="38.82057996749117" lon="16.41651318382017"><ele>514.0</ele><time>2026-04-12T11:38:32Z</time></trkpt><trkpt lat="38.82049117391448" lon="16.41649270219877"><ele>514.0</ele><time>2026-04-12T11:38:33Z</time></trkpt><trkpt lat="38.82039768471713" lon="16.416479656871193"><ele>514.0</ele><time>2026-04-12T11:38:34Z</time></trkpt><trkpt lat="38.82030576616094" lon="16.4165044496682"><ele>514.0</ele><time>2026-04-12T11:38:35Z</time></trkpt><trkpt lat="38.82020076620274" lon="16.416558480665138"><ele>514.0</ele><time>2026-04-12T11:38:36Z</time></trkpt><trkpt lat="38.82009297477497" lon="16.416623709073146"><ele>514.0</ele><time>2026-04-12T11:38:37Z</time></trkpt><trkpt lat="38.819995715073325" lon="16.41666949118178"><ele>514.0</ele><time>2026-04-12T11:38:38Z</time></trkpt><trkpt lat="38.81989324191857" lon="16.416683213229284"><ele>514.0</ele><time>2026-04-12T11:38:39Z</time></trkpt><trkpt lat="38.819787940900916" lon="16.41671699231866"><ele>517.0</ele><time>2026-04-12T11:38:40Z</time></trkpt><trkpt lat="38.81966160874516" lon="16.416761175548586"><ele>520.0</ele><time>2026-04-12T11:38:41Z</time></trkpt><trkpt lat="38.819538505618894" lon="16.416804892257648"><ele>523.0</ele><time>2026-04-12T11:38:42Z</time></trkpt><trkpt lat="38.81942779928646" lon="16.416860501017595"><ele>526.0</ele><time>2026-04-12T11:38:43Z</time></trkpt><trkpt lat="38.81934565540151" lon="16.41692569583114"><ele>527.6</ele><time>2026-04-12T11:38:44Z</time></trkpt><trkpt lat="38.81928461414389" lon="16.41697683628614"><ele>529.2</ele><time>2026-04-12T11:38:45Z</time></trkpt><trkpt lat="38.81913545702542" lon="16.41696859139595"><ele>530.8</ele><time>2026-04-12T11:38:47Z</time></trkpt><trkpt lat="38.819071325730654" lon="16.416869925531607"><ele>532.4</ele><time>2026-04-12T11:38:48Z</time></trkpt><trkpt lat="38.81898968778228" lon="16.416814373294642"><ele>534.0</ele><time>2026-04-12T11:38:49Z</time></trkpt><trkpt lat="38.81890209351385" lon="16.416753512711367"><ele>534.0</ele><time>2026-04-12T11:38:50Z</time></trkpt><trkpt lat="38.81880751275331" lon="16.41669317793871"><ele>534.0</ele><time>2026-04-12T11:38:51Z</time></trkpt><trkpt lat="38.818708717126526" lon="16.41662713338864"><ele>534.0</ele><time>2026-04-12T11:38:52Z</time></trkpt><trkpt lat="38.81859638529157" lon="16.416552658600924"><ele>534.0</ele><time>2026-04-12T11:38:53Z</time></trkpt><trkpt lat="38.81847328102005" lon="16.41648068467225"><ele>537.75</ele><time>2026-04-12T11:38:54Z</time></trkpt><trkpt lat="38.818343096189196" lon="16.41643294178277"><ele>541.5</ele><time>2026-04-12T11:38:55Z</time></trkpt><trkpt lat="38.81822989263631" lon="16.41639385233028"><ele>545.25</ele><time>2026-04-12T11:38:56Z</time></trkpt><trkpt lat="38.818122312515975" lon="16.416362549633767"><ele>549.0</ele><time>2026-04-12T11:38:57Z</time></trkpt><trkpt lat="38.81802124771874" lon="16.416331055812275"><ele>549.5</ele><time>2026-04-12T11:38:58Z</time></trkpt><trkpt lat="38.81790754114565" lon="16.41629443437281"><ele>550.0</ele><time>2026-04-12T11:38:59Z</time></trkpt><trkpt lat="38.8177824154811" lon="16.416251018523756"><ele>550.5</ele><time>2026-04-12T11:39:00Z</time></trkpt><trkpt lat="38.81765576203904" lon="16.4161932930348"><ele>551.0</ele><time>2026-04-12T11:39:01Z</time></trkpt><trkpt lat="38.81751383314765" lon="16.416105224766564"><ele>554.25</ele><time>2026-04-12T11:39:02Z</time></trkpt><trkpt lat="38.817416498872824" lon="16.415996775086988"><ele>557.5</ele><time>2026-04-12T11:39:03Z</time></trkpt><trkpt lat="38.81733596656148" lon="16.41586930638539"><ele>560.75</ele><time>2026-04-12T11:39:04Z</time></trkpt><trkpt lat="38.817247767767505" lon="16.41572919034374"><ele>564.0</ele><time>2026-04-12T11:39:05Z</time></trkpt><trkpt lat="38.81716771101904" lon="16.415601271956202"><ele>565.25</ele><time>2026-04-12T11:39:06Z</time></trkpt><trkpt lat="38.81710107052238" lon="16.415464311573476"><ele>566.5</ele><time>2026-04-12T11:39:07Z</time></trkpt><trkpt lat="38.81703131862866" lon="16.415340953330556"><ele>567.75</ele><time>2026-04-12T11:39:08Z</time></trkpt><trkpt lat="38.81697118109113" lon="16.41520107651124"><ele>569.0</ele><time>2026-04-12T11:39:09Z</time></trkpt><trkpt lat="38.816907740787" lon="16.415061576973244"><ele>569.0</ele><time>2026-04-12T11:39:10Z</time></trkpt><trkpt lat="38.81685022252985" lon="16.414922263459278"><ele>569.0</ele><time>2026-04-12T11:39:11Z</time></trkpt><trkpt lat="38.816793375636834" lon="16.41479153037303"><ele>569.0</ele><time>2026-04-12T11:39:12Z</time></trkpt><trkpt lat="38.81674539023266" lon="16.41468334307766"><ele>569.0</ele><time>2026-04-12T11:39:13Z</time></trkpt><trkpt lat="38.8167057595859" lon="16.41454500008613"><ele>573.0</ele><time>2026-04-12T11:39:14Z</time></trkpt><trkpt lat="38.816685127900826" lon="16.414405402777447"><ele>577.0</ele><time>2026-04-12T11:39:15Z</time></trkpt><trkpt lat="38.81668659428971" lon="16.414264826585843"><ele>581.0</ele><time>2026-04-12T11:39:16Z</time></trkpt><trkpt lat="38.81667060886594" lon="16.414157867180748"><ele>585.0</ele><time>2026-04-12T11:39:17Z</time></trkpt><trkpt lat="38.816632686157135" lon="16.414087503941463"><ele>589.0</ele><time>2026-04-12T11:39:18Z</time></trkpt><trkpt lat="38.81656664222755" lon="16.414035765879948"><ele>593.0</ele><time>2026-04-12T11:39:19Z</time></trkpt><trkpt lat="38.816467649288434" lon="16.414027574681956"><ele>593.0</ele><time>2026-04-12T11:39:20Z</time></trkpt><trkpt lat="38.81636243578678" lon="16.414054364007065"><ele>593.0</ele><time>2026-04-12T11:39:21Z</time></trkpt><trkpt lat="38.816249778285815" lon="16.41408925150857"><ele>593.0</ele><time>2026-04-12T11:39:22Z</time></trkpt><trkpt lat="38.81614023743057" lon="16.414088652881613"><ele>593.0</ele><time>2026-04-12T11:39:23Z</time></trkpt><trkpt lat="38.816051326329706" lon="16.41410038770413"><ele>593.0</ele><time>2026-04-12T11:39:24Z</time></trkpt><trkpt lat="38.81597090982744" lon="16.41405807279653"><ele>594.3333333333333</ele><time>2026-04-12T11:39:25Z</time></trkpt><trkpt lat="38.81592113816337" lon="16.413999464245382"><ele>595.6666666666666</ele><time>2026-04-12T11:39:26Z</time></trkpt><trkpt lat="38.81590817131059" lon="16.41390106802523"><ele>597.0</ele><time>2026-04-12T11:39:27Z</time></trkpt><trkpt lat="38.815886682367506" lon="16.413801529520164"><ele>598.3333333333334</ele><time>2026-04-12T11:39:28Z</time></trkpt><trkpt lat="38.8158662611948" lon="16.413690160393227"><ele>599.6666666666667</ele><time>2026-04-12T11:39:29Z</time></trkpt><trkpt lat="38.81583736769878" lon="16.41356046744291"><ele>601.0</ele><time>2026-04-12T11:39:30Z</time></trkpt><trkpt lat="38.815854771383485" lon="16.41340666913823"><ele>603.25</ele><time>2026-04-12T11:39:31Z</time></trkpt><trkpt lat="38.81586456734824" lon="16.413263965216867"><ele>605.5</ele><time>2026-04-12T11:39:32Z</time></trkpt><trkpt lat="38.815872463268306" lon="16.41310069161423"><ele>607.75</ele><time>2026-04-12T11:39:33Z</time></trkpt><trkpt lat="38.815864541269235" lon="16.412926259462782"><ele>610.0</ele><time>2026-04-12T11:39:34Z</time></trkpt><trkpt lat="38.81583904945679" lon="16.412761509486963"><ele>611.25</ele><time>2026-04-12T11:39:35Z</time></trkpt><trkpt lat="38.81581780452243" lon="16.4125794107857"><ele>612.5</ele><time>2026-04-12T11:39:36Z</time></trkpt><trkpt lat="38.815792602563185" lon="16.412395789963554"><ele>613.75</ele><time>2026-04-12T11:39:37Z</time></trkpt><trkpt lat="38.815765401178496" lon="16.412243436225825"><ele>615.0</ele><time>2026-04-12T11:39:38Z</time></trkpt><trkpt lat="38.81575931620144" lon="16.412122602917222"><ele>616.0</ele><time>2026-04-12T11:39:39Z</time></trkpt><trkpt lat="38.81574002736012" lon="16.41202565975557"><ele>617.0</ele><time>2026-04-12T11:39:40Z</time></trkpt><trkpt lat="38.81571364031346" lon="16.411909969687816"><ele>618.0</ele><time>2026-04-12T11:39:41Z</time></trkpt><trkpt lat="38.815692689108566" lon="16.411791236370206"><ele>619.0</ele><time>2026-04-12T11:39:42Z</time></trkpt><trkpt lat="38.81567279912132" lon="16.41168566202816"><ele>620.0</ele><time>2026-04-12T11:39:43Z</time></trkpt><trkpt lat="38.815652630984346" lon="16.41157947525052"><ele>621.0</ele><time>2026-04-12T11:39:44Z</time></trkpt><trkpt lat="38.81563339200762" lon="16.411477909379016"><ele>621.0</ele><time>2026-04-12T11:39:45Z</time></trkpt><trkpt lat="38.81561106544114" lon="16.411372333387085"><ele>621.0</ele><time>2026-04-12T11:39:46Z</time></trkpt><trkpt lat="38.81558358436034" lon="16.411246034797472"><ele>621.0</ele><time>2026-04-12T11:39:47Z</time></trkpt><trkpt lat="38.81555607190383" lon="16.411133834657868"><ele>621.0</ele><time>2026-04-12T11:39:48Z</time></trkpt><trkpt lat="38.81551717295765" lon="16.41100126838812"><ele>621.0</ele><time>2026-04-12T11:39:49Z</time></trkpt><trkpt lat="38.81546744156583" lon="16.41086379490165"><ele>621.75</ele><time>2026-04-12T11:39:50Z</time></trkpt><trkpt lat="38.8154072114547" lon="16.410714513970763"><ele>622.5</ele><time>2026-04-12T11:39:51Z</time></trkpt><trkpt lat="38.8153214721051" lon="16.41056602820025"><ele>623.25</ele><time>2026-04-12T11:39:52Z</time></trkpt><trkpt lat="38.81523027238784" lon="16.410393713234022"><ele>624.0</ele><time>2026-04-12T11:39:53Z</time></trkpt><trkpt lat="38.815158451104594" lon="16.41019753695871"><ele>626.6666666666666</ele><time>2026-04-12T11:39:54Z</time></trkpt><trkpt lat="38.815071137736254" lon="16.40999164145707"><ele>629.3333333333333</ele><time>2026-04-12T11:39:55Z</time></trkpt><trkpt lat="38.81500902954474" lon="16.409814830648457"><ele>632.0</ele><time>2026-04-12T11:39:56Z</time></trkpt><trkpt lat="38.814948437360584" lon="16.409663478631224"><ele>632.5</ele><time>2026-04-12T11:39:57Z</time></trkpt><trkpt lat="38.81488136123394" lon="16.40953655920671"><ele>633.0</ele><time>2026-04-12T11:39:58Z</time></trkpt><trkpt lat="38.81482258907676" lon="16.409417914964248"><ele>633.5</ele><time>2026-04-12T11:39:59Z</time></trkpt><trkpt lat="38.814751185416476" lon="16.409282536150712"><ele>634.0</ele><time>2026-04-12T11:40:00Z</time></trkpt><trkpt lat="38.81467988879014" lon="16.409150438330006"><ele>634.0</ele><time>2026-04-12T11:40:01Z</time></trkpt><trkpt lat="38.81461714937506" lon="16.409033937181963"><ele>634.0</ele><time>2026-04-12T11:40:02Z</time></trkpt><trkpt lat="38.81456516286323" lon="16.408928368838218"><ele>634.0</ele><time>2026-04-12T11:40:03Z</time></trkpt><trkpt lat="38.81451213820492" lon="16.40883557188491"><ele>634.0</ele><time>2026-04-12T11:40:04Z</time></trkpt><trkpt lat="38.814472749630795" lon="16.40876207625662"><ele>634.0</ele><time>2026-04-12T11:40:05Z</time></trkpt><trkpt lat="38.814472611387295" lon="16.408672196302888"><ele>634.0</ele><time>2026-04-12T11:40:06Z</time></trkpt><trkpt lat="38.81439352227285" lon="16.408602030969803"><ele>635.25</ele><time>2026-04-12T11:40:07Z</time></trkpt><trkpt lat="38.81430439982947" lon="16.408521448734756"><ele>636.5</ele><time>2026-04-12T11:40:08Z</time></trkpt><trkpt lat="38.81421260972571" lon="16.408415349236087"><ele>637.75</ele><time>2026-04-12T11:40:09Z</time></trkpt><trkpt lat="38.814123540074426" lon="16.40830922691118"><ele>639.0</ele><time>2026-04-12T11:40:10Z</time></trkpt><trkpt lat="38.814022624280916" lon="16.408199930338355"><ele>639.0</ele><time>2026-04-12T11:40:11Z</time></trkpt><trkpt lat="38.813916886908494" lon="16.40808118743504"><ele>639.0</ele><time>2026-04-12T11:40:12Z</time></trkpt><trkpt lat="38.81380202687295" lon="16.40795732928203"><ele>639.0</ele><time>2026-04-12T11:40:13Z</time></trkpt><trkpt lat="38.81368836232134" lon="16.407832838315947"><ele>639.0</ele><time>2026-04-12T11:40:14Z</time></trkpt><trkpt lat="38.813576826579585" lon="16.407708064000623"><ele>640.3333333333334</ele><time>2026-04-12T11:40:15Z</time></trkpt><trkpt lat="38.813465826134156" lon="16.407579995997267"><ele>641.6666666666667</ele><time>2026-04-12T11:40:16Z</time></trkpt><trkpt lat="38.81335397645843" lon="16.407422720840266"><ele>643.0</ele><time>2026-04-12T11:40:17Z</time></trkpt><trkpt lat="38.81323913587143" lon="16.40730725750181"><ele>643.5</ele><time>2026-04-12T11:40:18Z</time></trkpt><trkpt lat="38.81315544550748" lon="16.40715154164638"><ele>644.0</ele><time>2026-04-12T11:40:19Z</time></trkpt><trkpt lat="38.813077076202795" lon="16.406987789461667"><ele>644.5</ele><time>2026-04-12T11:40:20Z</time></trkpt><trkpt lat="38.813020378085206" lon="16.40681764564324"><ele>645.0</ele><time>2026-04-12T11:40:21Z</time></trkpt><trkpt lat="38.812959193287234" lon="16.406656363471534"><ele>645.0</ele><time>2026-04-12T11:40:22Z</time></trkpt><trkpt lat="38.81292901432822" lon="16.40648851705197"><ele>645.0</ele><time>2026-04-12T11:40:23Z</time></trkpt><trkpt lat="38.81288091203383" lon="16.406347603493405"><ele>645.0</ele><time>2026-04-12T11:40:24Z</time></trkpt><trkpt lat="38.81283189842284" lon="16.40624164292921"><ele>645.0</ele><time>2026-04-12T11:40:25Z</time></trkpt><trkpt lat="38.81276339843062" lon="16.406159551666335"><ele>645.0</ele><time>2026-04-12T11:40:26Z</time></trkpt><trkpt lat="38.812670001926875" lon="16.406097735442827"><ele>646.75</ele><time>2026-04-12T11:40:27Z</time></trkpt><trkpt lat="38.81256083847036" lon="16.406046982338182"><ele>648.5</ele><time>2026-04-12T11:40:28Z</time></trkpt><trkpt lat="38.81244371989358" lon="16.405994496249313"><ele>650.25</ele><time>2026-04-12T11:40:29Z</time></trkpt><trkpt lat="38.812335451104076" lon="16.40593667092961"><ele>652.0</ele><time>2026-04-12T11:40:30Z</time></trkpt><trkpt lat="38.812237202726415" lon="16.40587881868774"><ele>652.0</ele><time>2026-04-12T11:40:31Z</time></trkpt><trkpt lat="38.81214873227372" lon="16.405804164008913"><ele>652.0</ele><time>2026-04-12T11:40:32Z</time></trkpt><trkpt lat="38.81207162564593" lon="16.40569494286716"><ele>652.0</ele><time>2026-04-12T11:40:33Z</time></trkpt><trkpt lat="38.81199604109075" lon="16.405567684139523"><ele>652.0</ele><time>2026-04-12T11:40:34Z</time></trkpt><trkpt lat="38.81191481681855" lon="16.40542605287645"><ele>653.3333333333334</ele><time>2026-04-12T11:40:35Z</time></trkpt><trkpt lat="38.811833004179064" lon="16.405263581708134"><ele>654.6666666666666</ele><time>2026-04-12T11:40:36Z</time></trkpt><trkpt lat="38.81176011697622" lon="16.405091571891656"><ele>656.0</ele><time>2026-04-12T11:40:37Z</time></trkpt><trkpt lat="38.81168425438293" lon="16.404920831275344"><ele>656.0</ele><time>2026-04-12T11:40:38Z</time></trkpt><trkpt lat="38.811608188873876" lon="16.40475681210019"><ele>656.0</ele><time>2026-04-12T11:40:39Z</time></trkpt><trkpt lat="38.81152668058485" lon="16.40464773070853"><ele>656.0</ele><time>2026-04-12T11:40:40Z</time></trkpt><trkpt lat="38.81146388670146" lon="16.404533623893773"><ele>656.0</ele><time>2026-04-12T11:40:41Z</time></trkpt><trkpt lat="38.81143290693957" lon="16.40443322661159"><ele>657.5</ele><time>2026-04-12T11:40:42Z</time></trkpt><trkpt lat="38.8114028929119" lon="16.404313211965263"><ele>659.0</ele><time>2026-04-12T11:40:43Z</time></trkpt><trkpt lat="38.81139956003384" lon="16.404187136068302"><ele>660.5</ele><time>2026-04-12T11:40:44Z</time></trkpt><trkpt lat="38.811542881336685" lon="16.404062723364124"><ele>662.0</ele><time>2026-04-12T11:40:45Z</time></trkpt><trkpt lat="38.811565178599274" lon="16.40392750029223"><ele>663.5</ele><time>2026-04-12T11:40:46Z</time></trkpt><trkpt lat="38.81158034026967" lon="16.403764988638656"><ele>665.0</ele><time>2026-04-12T11:40:47Z</time></trkpt><trkpt lat="38.81155331399109" lon="16.403568268956956"><ele>666.5</ele><time>2026-04-12T11:40:48Z</time></trkpt><trkpt lat="38.811546182805316" lon="16.40340041658132"><ele>668.0</ele><time>2026-04-12T11:40:49Z</time></trkpt><trkpt lat="38.8115334441224" lon="16.4032441196551"><ele>668.0</ele><time>2026-04-12T11:40:50Z</time></trkpt><trkpt lat="38.81150859197123" lon="16.403077975209662"><ele>668.0</ele><time>2026-04-12T11:40:51Z</time></trkpt><trkpt lat="38.81146903603529" lon="16.402891352769657"><ele>668.0</ele><time>2026-04-12T11:40:52Z</time></trkpt><trkpt lat="38.81140916423242" lon="16.40270411127703"><ele>668.0</ele><time>2026-04-12T11:40:53Z</time></trkpt><trkpt lat="38.81135559729607" lon="16.40252899833714"><ele>670.0</ele><time>2026-04-12T11:40:54Z</time></trkpt><trkpt lat="38.811320284812865" lon="16.40238180497841"><ele>672.0</ele><time>2026-04-12T11:40:55Z</time></trkpt><trkpt lat="38.811288814403476" lon="16.40223372406046"><ele>674.0</ele><time>2026-04-12T11:40:56Z</time></trkpt><trkpt lat="38.811268020303295" lon="16.402073112167265"><ele>676.0</ele><time>2026-04-12T11:40:57Z</time></trkpt><trkpt lat="38.81125677946113" lon="16.401906618417616"><ele>676.25</ele><time>2026-04-12T11:40:58Z</time></trkpt><trkpt lat="38.81121705588341" lon="16.4017467615543"><ele>676.5</ele><time>2026-04-12T11:40:59Z</time></trkpt><trkpt lat="38.81117733221026" lon="16.40156456612096"><ele>676.75</ele><time>2026-04-12T11:41:00Z</time></trkpt><trkpt lat="38.811139376578154" lon="16.401391317103176"><ele>677.0</ele><time>2026-04-12T11:41:01Z</time></trkpt><trkpt lat="38.81110793024602" lon="16.401230458712398"><ele>677.25</ele><time>2026-04-12T11:41:02Z</time></trkpt><trkpt lat="38.81107024194541" lon="16.401075966711193"><ele>677.5</ele><time>2026-04-12T11:41:03Z</time></trkpt><trkpt lat="38.811023122563725" lon="16.40094805428968"><ele>677.75</ele><time>2026-04-12T11:41:04Z</time></trkpt><trkpt lat="38.8109934367939" lon="16.4008020713704"><ele>678.0</ele><time>2026-04-12T11:41:05Z</time></trkpt><trkpt lat="38.81095610577746" lon="16.400667562272847"><ele>679.5999999999999</ele><time>2026-04-12T11:41:06Z</time></trkpt><trkpt lat="38.810934517596884" lon="16.400534093887448"><ele>681.1999999999999</ele><time>2026-04-12T11:41:07Z</time></trkpt><trkpt lat="38.81085402052297" lon="16.40045464781102"><ele>682.8</ele><time>2026-04-12T11:41:08Z</time></trkpt><trkpt lat="38.810759572756645" lon="16.400422523657316"><ele>684.4</ele><time>2026-04-12T11:41:08.999Z</time></trkpt><trkpt lat="38.81066296421497" lon="16.400444777909993"><ele>686.0</ele><time>2026-04-12T11:41:09.999Z</time></trkpt><trkpt lat="38.81054720310849" lon="16.400518551000886"><ele>686.0</ele><time>2026-04-12T11:41:10.999Z</time></trkpt><trkpt lat="38.81044763817778" lon="16.40059738003856"><ele>686.0</ele><time>2026-04-12T11:41:11.999Z</time></trkpt><trkpt lat="38.81034130246512" lon="16.400679556742492"><ele>686.0</ele><time>2026-04-12T11:41:12.999Z</time></trkpt><trkpt lat="38.8102192396924" lon="16.400758720723864"><ele>686.0</ele><time>2026-04-12T11:41:13.999Z</time></trkpt><trkpt lat="38.81010472280645" lon="16.4008413100667"><ele>687.4</ele><time>2026-04-12T11:41:14.999Z</time></trkpt><trkpt lat="38.809997656333614" lon="16.400910860334086"><ele>688.8</ele><time>2026-04-12T11:41:15.999Z</time></trkpt><trkpt lat="38.80991232287819" lon="16.40097051407695"><ele>690.1999999999999</ele><time>2026-04-12T11:41:16.999Z</time></trkpt><trkpt lat="38.80983534226008" lon="16.401026604154282"><ele>691.5999999999999</ele><time>2026-04-12T11:41:17.999Z</time></trkpt><trkpt lat="38.80976513452366" lon="16.401074391074285"><ele>693.0</ele><time>2026-04-12T11:41:18.999Z</time></trkpt><trkpt lat="38.809694155207424" lon="16.401118922203036"><ele>693.0</ele><time>2026-04-12T11:41:19.999Z</time></trkpt><trkpt lat="38.809630514939194" lon="16.40115543813865"><ele>693.0</ele><time>2026-04-12T11:41:20.999Z</time></trkpt><trkpt lat="38.80953806886567" lon="16.40119982728444"><ele>693.0</ele><time>2026-04-12T11:41:22.999Z</time></trkpt><trkpt lat="38.80947511869084" lon="16.401233305767576"><ele>693.0</ele><time>2026-04-12T11:41:55Z</time></trkpt><trkpt lat="38.8096034910774" lon="16.40123685476933"><ele>693.0</ele><time>2026-04-12T11:42:01Z</time></trkpt><trkpt lat="38.8096765700647" lon="16.40115371386418"><ele>693.0</ele><time>2026-04-12T11:42:03Z</time></trkpt><trkpt lat="38.80974994944967" lon="16.401131239585087"><ele>693.0</ele><time>2026-04-12T11:42:04Z</time></trkpt><trkpt lat="38.809809477947674" lon="16.401091663176548"><ele>693.0</ele><time>2026-04-12T11:42:05Z</time></trkpt><trkpt lat="38.80991164367216" lon="16.401013989463465"><ele>693.0</ele><time>2026-04-12T11:42:07Z</time></trkpt><trkpt lat="38.80998363681583" lon="16.40096441669918"><ele>693.0</ele><time>2026-04-12T11:42:08Z</time></trkpt><trkpt lat="38.810075880119" lon="16.400897974443648"><ele>693.0</ele><time>2026-04-12T11:42:09Z</time></trkpt><trkpt lat="38.81018856977827" lon="16.400816771406813"><ele>691.5999999999999</ele><time>2026-04-12T11:42:10Z</time></trkpt><trkpt lat="38.81029923952913" lon="16.400752572357657"><ele>690.1999999999999</ele><time>2026-04-12T11:42:11Z</time></trkpt><trkpt lat="38.810388872700976" lon="16.400690998190516"><ele>688.8</ele><time>2026-04-12T11:42:12Z</time></trkpt><trkpt lat="38.810462381158395" lon="16.40064680003301"><ele>687.4</ele><time>2026-04-12T11:42:13Z</time></trkpt><trkpt lat="38.81055352182924" lon="16.400592026977165"><ele>686.0</ele><time>2026-04-12T11:42:15Z</time></trkpt><trkpt lat="38.81063293732285" lon="16.400543317243315"><ele>686.4</ele><time>2026-04-12T11:42:17Z</time></trkpt><trkpt lat="38.810549342504196" lon="16.400332203876275"><ele>686.8</ele><time>2026-04-12T11:42:20Z</time></trkpt><trkpt lat="38.810498672363046" lon="16.40026663176787"><ele>687.1999999999999</ele><time>2026-04-12T11:42:21Z</time></trkpt><trkpt lat="38.81044353990187" lon="16.40017748230622"><ele>687.5999999999999</ele><time>2026-04-12T11:42:22Z</time></trkpt><trkpt lat="38.81037615299503" lon="16.40011576702963"><ele>688.0</ele><time>2026-04-12T11:42:23Z</time></trkpt><trkpt lat="38.81032267669972" lon="16.40003613242627"><ele>688.0</ele><time>2026-04-12T11:42:24Z</time></trkpt><trkpt lat="38.81029018616583" lon="16.399940522359177"><ele>688.0</ele><time>2026-04-12T11:42:25Z</time></trkpt><trkpt lat="38.81024575141633" lon="16.399853449076343"><ele>688.0</ele><time>2026-04-12T11:42:26Z</time></trkpt><trkpt lat="38.81017970499462" lon="16.399758579089273"><ele>688.0</ele><time>2026-04-12T11:42:28Z</time></trkpt><trkpt lat="38.81012923291658" lon="16.399707903463828"><ele>688.0</ele><time>2026-04-12T11:42:30Z</time></trkpt><trkpt lat="38.81006707760075" lon="16.39972869487108"><ele>688.0</ele><time>2026-04-12T11:42:57Z</time></trkpt><trkpt lat="38.80994418436043" lon="16.399745614541786"><ele>692.75</ele><time>2026-04-12T11:42:58Z</time></trkpt><trkpt lat="38.809838378719874" lon="16.399594025706534"><ele>697.5</ele><time>2026-04-12T11:43:00Z</time></trkpt><trkpt lat="38.80976213266614" lon="16.399465572009838"><ele>702.25</ele><time>2026-04-12T11:43:02Z</time></trkpt><trkpt lat="38.80969844850553" lon="16.3993779612532"><ele>707.0</ele><time>2026-04-12T11:43:04Z</time></trkpt><trkpt lat="38.809646563910924" lon="16.399307587527062"><ele>707.0</ele><time>2026-04-12T11:43:05Z</time></trkpt><trkpt lat="38.80959652967921" lon="16.399225408346695"><ele>707.0</ele><time>2026-04-12T11:43:06Z</time></trkpt><trkpt lat="38.80978905244037" lon="16.39887786534918"><ele>707.0</ele><time>2026-04-12T11:43:07Z</time></trkpt><trkpt lat="38.80980279186051" lon="16.398796644146834"><ele>708.5</ele><time>2026-04-12T11:43:08Z</time></trkpt><trkpt lat="38.809813621596525" lon="16.398711602799967"><ele>710.0</ele><time>2026-04-12T11:43:09Z</time></trkpt><trkpt lat="38.80982403781325" lon="16.398606596241326"><ele>711.5</ele><time>2026-04-12T11:43:10Z</time></trkpt><trkpt lat="38.8098256498768" lon="16.398491092978453"><ele>713.0</ele><time>2026-04-12T11:43:11Z</time></trkpt><trkpt lat="38.809819592918366" lon="16.39839465953153"><ele>714.5</ele><time>2026-04-12T11:43:12Z</time></trkpt><trkpt lat="38.809800911840995" lon="16.398286693676027"><ele>716.0</ele><time>2026-04-12T11:43:13Z</time></trkpt><trkpt lat="38.809776199843235" lon="16.39819354644027"><ele>716.0</ele><time>2026-04-12T11:43:14.999Z</time></trkpt><trkpt lat="38.80977790778893" lon="16.39805395554195"><ele>716.0</ele><time>2026-04-12T11:43:31.999Z</time></trkpt><trkpt lat="38.809779663829055" lon="16.397953989314754"><ele>716.0</ele><time>2026-04-12T11:43:32.999Z</time></trkpt><trkpt lat="38.809775205769796" lon="16.397864722832637"><ele>716.0</ele><time>2026-04-12T11:43:33.999Z</time></trkpt><trkpt lat="38.80978665507483" lon="16.397771502399365"><ele>716.0</ele><time>2026-04-12T11:43:34.999Z</time></trkpt><trkpt lat="38.80980001914339" lon="16.397657911332946"><ele>716.0</ele><time>2026-04-12T11:43:35.999Z</time></trkpt><trkpt lat="38.80981640186768" lon="16.39752948302499"><ele>717.5999999999999</ele><time>2026-04-12T11:43:36.999Z</time></trkpt><trkpt lat="38.80982416807964" lon="16.397394942190978"><ele>719.2</ele><time>2026-04-12T11:43:37.999Z</time></trkpt><trkpt lat="38.809841596257414" lon="16.39730936892976"><ele>720.8</ele><time>2026-04-12T11:43:38.999Z</time></trkpt><trkpt lat="38.809808583646195" lon="16.39715566684238"><ele>722.4000000000001</ele><time>2026-04-12T11:43:40.999Z</time></trkpt><trkpt lat="38.809776506227394" lon="16.397050367381865"><ele>724.0</ele><time>2026-04-12T11:43:41.999Z</time></trkpt><trkpt lat="38.8097379435507" lon="16.39697496142924"><ele>724.4000000000001</ele><time>2026-04-12T11:43:42.999Z</time></trkpt><trkpt lat="38.80967972060047" lon="16.396893870219646"><ele>724.8</ele><time>2026-04-12T11:43:43.999Z</time></trkpt><trkpt lat="38.809626575588275" lon="16.396816833055436"><ele>725.2</ele><time>2026-04-12T11:43:44.999Z</time></trkpt><trkpt lat="38.80955909155422" lon="16.396733784848877"><ele>725.5999999999999</ele><time>2026-04-12T11:43:45.999Z</time></trkpt><trkpt lat="38.809468797833766" lon="16.396654731600687"><ele>726.0</ele><time>2026-04-12T11:43:46.999Z</time></trkpt><trkpt lat="38.80939500629339" lon="16.396604419810576"><ele>726.0</ele><time>2026-04-12T11:43:48Z</time></trkpt><trkpt lat="38.809333755431666" lon="16.396631514244966"><ele>726.0</ele><time>2026-04-12T11:44:12Z</time></trkpt><trkpt lat="38.80931840263412" lon="16.3965006035095"><ele>726.0</ele><time>2026-04-12T11:44:41Z</time></trkpt><trkpt lat="38.809274538580375" lon="16.396434413566396"><ele>726.0</ele><time>2026-04-12T11:44:43Z</time></trkpt><trkpt lat="38.809246941444584" lon="16.39634876857678"><ele>726.0</ele><time>2026-04-12T11:44:47Z</time></trkpt><trkpt lat="38.80920407603222" lon="16.396267744803108"><ele>726.0</ele><time>2026-04-12T11:44:50Z</time></trkpt><trkpt lat="38.80917331609025" lon="16.39614183397105"><ele>730.6666666666666</ele><time>2026-04-12T11:44:52Z</time></trkpt><trkpt lat="38.809174544605845" lon="16.39602129549939"><ele>735.3333333333334</ele><time>2026-04-12T11:44:54Z</time></trkpt><trkpt lat="38.80911598253824" lon="16.395973204744823"><ele>740.0</ele><time>2026-04-12T11:44:55Z</time></trkpt><trkpt lat="38.80906836406866" lon="16.395911133892547"><ele>744.6666666666667</ele><time>2026-04-12T11:44:57Z</time></trkpt><trkpt lat="38.808996905698805" lon="16.39582890795528"><ele>749.3333333333334</ele><time>2026-04-12T11:44:59Z</time></trkpt><trkpt lat="38.80897969420506" lon="16.39573267303771"><ele>754.0</ele><time>2026-04-12T11:45:01Z</time></trkpt><trkpt lat="38.80893318044192" lon="16.395660628126723"><ele>754.0</ele><time>2026-04-12T11:45:05Z</time></trkpt><trkpt lat="38.808853910149715" lon="16.39566946469194"><ele>754.0</ele><time>2026-04-12T11:45:06Z</time></trkpt><trkpt lat="38.808807733118556" lon="16.395510058580474"><ele>754.0</ele><time>2026-04-12T11:45:08Z</time></trkpt><trkpt lat="38.8087765573014" lon="16.39541519006823"><ele>754.0</ele><time>2026-04-12T11:45:09Z</time></trkpt><trkpt lat="38.808744901029485" lon="16.395319236889048"><ele>754.0</ele><time>2026-04-12T11:45:10Z</time></trkpt><trkpt lat="38.808722971811534" lon="16.395235473698516"><ele>754.0</ele><time>2026-04-12T11:45:11Z</time></trkpt><trkpt lat="38.808675888337675" lon="16.39511977057533"><ele>753.3333333333334</ele><time>2026-04-12T11:45:13Z</time></trkpt><trkpt lat="38.80863563959975" lon="16.395052216987526"><ele>752.6666666666667</ele><time>2026-04-12T11:45:15Z</time></trkpt><trkpt lat="38.8085751513512" lon="16.394981833613837"><ele>752.0</ele><time>2026-04-12T11:45:17Z</time></trkpt><trkpt lat="38.808491647431154" lon="16.39498982746141"><ele>751.3333333333334</ele><time>2026-04-12T11:45:19Z</time></trkpt><trkpt lat="38.80844681392538" lon="16.394930197750107"><ele>750.6666666666666</ele><time>2026-04-12T11:45:24Z</time></trkpt><trkpt lat="38.80835866511183" lon="16.39492698951701"><ele>750.0</ele><time>2026-04-12T11:45:25Z</time></trkpt><trkpt lat="38.808277847472354" lon="16.394937324107833"><ele>753.5</ele><time>2026-04-12T11:45:27Z</time></trkpt><trkpt lat="38.808175577828706" lon="16.394939439420316"><ele>757.0</ele><time>2026-04-12T11:45:29Z</time></trkpt><trkpt lat="38.8081112312506" lon="16.3949494242331"><ele>760.5</ele><time>2026-04-12T11:45:30Z</time></trkpt><trkpt lat="38.80802110619748" lon="16.39496725879136"><ele>764.0</ele><time>2026-04-12T11:45:32Z</time></trkpt><trkpt lat="38.80793909776716" lon="16.394962190261698"><ele>767.5</ele><time>2026-04-12T11:45:34Z</time></trkpt><trkpt lat="38.807855476229705" lon="16.39491230277735"><ele>771.0</ele><time>2026-04-12T11:45:36Z</time></trkpt><trkpt lat="38.80777981510012" lon="16.394888395266598"><ele>771.0</ele><time>2026-04-12T11:45:37Z</time></trkpt><trkpt lat="38.80770672110905" lon="16.394861005869092"><ele>771.0</ele><time>2026-04-12T11:45:38Z</time></trkpt><trkpt lat="38.80761579201671" lon="16.39480053803639"><ele>771.0</ele><time>2026-04-12T11:45:39Z</time></trkpt><trkpt lat="38.80753877918915" lon="16.394780012378014"><ele>771.0</ele><time>2026-04-12T11:45:40Z</time></trkpt><trkpt lat="38.80745946280699" lon="16.3947473757602"><ele>771.0</ele><time>2026-04-12T11:45:41Z</time></trkpt><trkpt lat="38.80738748940742" lon="16.39469865741683"><ele>771.0</ele><time>2026-04-12T11:45:42Z</time></trkpt><trkpt lat="38.80732318074776" lon="16.394677689979986"><ele>771.4</ele><time>2026-04-12T11:45:43Z</time></trkpt><trkpt lat="38.80725727835679" lon="16.39466005076966"><ele>771.8</ele><time>2026-04-12T11:45:44Z</time></trkpt><trkpt lat="38.80717434557176" lon="16.394562072771496"><ele>772.1999999999999</ele><time>2026-04-12T11:45:46Z</time></trkpt><trkpt lat="38.80704316354688" lon="16.394536643212632"><ele>772.5999999999999</ele><time>2026-04-12T11:45:48Z</time></trkpt><trkpt lat="38.806923978892826" lon="16.394583402538235"><ele>773.0</ele><time>2026-04-12T11:45:50Z</time></trkpt><trkpt lat="38.806832769432674" lon="16.39461170277342"><ele>774.5999999999999</ele><time>2026-04-12T11:45:51Z</time></trkpt><trkpt lat="38.80673836147814" lon="16.394665898893265"><ele>776.1999999999999</ele><time>2026-04-12T11:45:52Z</time></trkpt><trkpt lat="38.806666130749726" lon="16.394746480550598"><ele>777.8</ele><time>2026-04-12T11:45:53Z</time></trkpt><trkpt lat="38.80657198529014" lon="16.394781039461744"><ele>779.4</ele><time>2026-04-12T11:45:54Z</time></trkpt><trkpt lat="38.80649269621468" lon="16.394822840340545"><ele>781.0</ele><time>2026-04-12T11:45:55Z</time></trkpt><trkpt lat="38.80635975178205" lon="16.394821045309474"><ele>783.8</ele><time>2026-04-12T11:45:57Z</time></trkpt><trkpt lat="38.806286466964416" lon="16.39480171284043"><ele>786.5999999999999</ele><time>2026-04-12T11:45:58Z</time></trkpt><trkpt lat="38.80621542090043" lon="16.394836549924822"><ele>789.4</ele><time>2026-04-12T11:45:59Z</time></trkpt><trkpt lat="38.80610153884857" lon="16.394956506570153"><ele>792.2</ele><time>2026-04-12T11:46:00Z</time></trkpt><trkpt lat="38.80600873719077" lon="16.39499073629437"><ele>795.0</ele><time>2026-04-12T11:46:01Z</time></trkpt><trkpt lat="38.80592107452912" lon="16.395025078873395"><ele>796.4</ele><time>2026-04-12T11:46:02Z</time></trkpt><trkpt lat="38.805839816288724" lon="16.395037929151044"><ele>797.8</ele><time>2026-04-12T11:46:03Z</time></trkpt><trkpt lat="38.805685908736145" lon="16.395053586175177"><ele>799.2</ele><time>2026-04-12T11:46:04Z</time></trkpt><trkpt lat="38.80557490079985" lon="16.39505021448209"><ele>800.6</ele><time>2026-04-12T11:46:05Z</time></trkpt><trkpt lat="38.80547749314884" lon="16.395050578560998"><ele>802.0</ele><time>2026-04-12T11:46:06Z</time></trkpt><trkpt lat="38.805381762722945" lon="16.395063349378514"><ele>801.9999999999999</ele><time>2026-04-12T11:46:07Z</time></trkpt><trkpt lat="38.80530426588127" lon="16.395068390302075"><ele>802.0</ele><time>2026-04-12T11:46:08Z</time></trkpt><trkpt lat="38.805227420737495" lon="16.395078417446722"><ele>802.0</ele><time>2026-04-12T11:46:09Z</time></trkpt><trkpt lat="38.805160953546036" lon="16.395078660175958"><ele>802.0</ele><time>2026-04-12T11:46:10Z</time></trkpt><trkpt lat="38.80508539419421" lon="16.395039663678418"><ele>801.9999999999999</ele><time>2026-04-12T11:46:11Z</time></trkpt><trkpt lat="38.80500107468283" lon="16.395010041051506"><ele>802.0</ele><time>2026-04-12T11:46:12Z</time></trkpt><trkpt lat="38.804898150150485" lon="16.394949237004386"><ele>801.5</ele><time>2026-04-12T11:46:13Z</time></trkpt><trkpt lat="38.804768642567154" lon="16.394922112514443"><ele>801.0</ele><time>2026-04-12T11:46:14Z</time></trkpt><trkpt lat="38.804644191369725" lon="16.394890717034798"><ele>800.5</ele><time>2026-04-12T11:46:15Z</time></trkpt><trkpt lat="38.8045289670469" lon="16.394856564530393"><ele>800.0</ele><time>2026-04-12T11:46:16Z</time></trkpt><trkpt lat="38.80443161522847" lon="16.394843056568426"><ele>800.0</ele><time>2026-04-12T11:46:17Z</time></trkpt><trkpt lat="38.80433497725715" lon="16.394828482585854"><ele>800.0</ele><time>2026-04-12T11:46:18Z</time></trkpt><trkpt lat="38.80423845734692" lon="16.394814367722322"><ele>800.0</ele><time>2026-04-12T11:46:19Z</time></trkpt><trkpt lat="38.804136549616146" lon="16.394765834702085"><ele>800.0</ele><time>2026-04-12T11:46:20Z</time></trkpt><trkpt lat="38.80401745540582" lon="16.394704617296913"><ele>800.0</ele><time>2026-04-12T11:46:21Z</time></trkpt><trkpt lat="38.803891783294624" lon="16.394648466751363"><ele>797.4</ele><time>2026-04-12T11:46:22Z</time></trkpt><trkpt lat="38.803791868201984" lon="16.394613862594507"><ele>794.8</ele><time>2026-04-12T11:46:23Z</time></trkpt><trkpt lat="38.803692533638944" lon="16.394590583983188"><ele>792.2</ele><time>2026-04-12T11:46:24Z</time></trkpt><trkpt lat="38.80358937352603" lon="16.394573411447585"><ele>789.6</ele><time>2026-04-12T11:46:25Z</time></trkpt><trkpt lat="38.803466156327204" lon="16.394565802760383"><ele>787.0</ele><time>2026-04-12T11:46:26Z</time></trkpt><trkpt lat="38.80335199414111" lon="16.394559595512217"><ele>787.0</ele><time>2026-04-12T11:46:27Z</time></trkpt><trkpt lat="38.80324951922494" lon="16.394554176273097"><ele>787.0</ele><time>2026-04-12T11:46:28Z</time></trkpt><trkpt lat="38.803143528048345" lon="16.394573227078613"><ele>787.0</ele><time>2026-04-12T11:46:29Z</time></trkpt><trkpt lat="38.803050476787725" lon="16.394598442912176"><ele>787.0</ele><time>2026-04-12T11:46:30Z</time></trkpt><trkpt lat="38.80294274497021" lon="16.39466252166557"><ele>787.0</ele><time>2026-04-12T11:46:31Z</time></trkpt><trkpt lat="38.80285423246365" lon="16.39474018616135"><ele>790.75</ele><time>2026-04-12T11:46:32Z</time></trkpt><trkpt lat="38.80273788597057" lon="16.394811307934717"><ele>794.5</ele><time>2026-04-12T11:46:33Z</time></trkpt><trkpt lat="38.80257125100241" lon="16.39490897120582"><ele>798.25</ele><time>2026-04-12T11:46:34Z</time></trkpt><trkpt lat="38.80246433780748" lon="16.39500036381354"><ele>802.0</ele><time>2026-04-12T11:46:35Z</time></trkpt><trkpt lat="38.80235121361458" lon="16.39508029853829"><ele>802.0</ele><time>2026-04-12T11:46:36Z</time></trkpt><trkpt lat="38.80225121554012" lon="16.395166899192127"><ele>802.0</ele><time>2026-04-12T11:46:37Z</time></trkpt><trkpt lat="38.80216537051277" lon="16.395236203233946"><ele>802.0</ele><time>2026-04-12T11:46:38.001Z</time></trkpt><trkpt lat="38.80209855289895" lon="16.395298561523074"><ele>802.0</ele><time>2026-04-12T11:46:39.001Z</time></trkpt><trkpt lat="38.802011646446665" lon="16.395365206299786"><ele>802.0</ele><time>2026-04-12T11:46:40.001Z</time></trkpt><trkpt lat="38.801922597017054" lon="16.395465157096307"><ele>801.5</ele><time>2026-04-12T11:46:41.001Z</time></trkpt><trkpt lat="38.80182658523446" lon="16.395555374656524"><ele>801.0</ele><time>2026-04-12T11:46:42.001Z</time></trkpt><trkpt lat="38.801736631771455" lon="16.39568738487617"><ele>800.5</ele><time>2026-04-12T11:46:43.001Z</time></trkpt><trkpt lat="38.8016486229984" lon="16.395781867290573"><ele>800.0</ele><time>2026-04-12T11:46:44.001Z</time></trkpt><trkpt lat="38.80159128370785" lon="16.395859405733315"><ele>800.0</ele><time>2026-04-12T11:46:45.001Z</time></trkpt><trkpt lat="38.80155164951346" lon="16.39593345295727"><ele>800.0</ele><time>2026-04-12T11:46:46.001Z</time></trkpt><trkpt lat="38.80150904467572" lon="16.396020183116548"><ele>800.0</ele><time>2026-04-12T11:46:49.001Z</time></trkpt><trkpt lat="38.8014582439058" lon="16.39610635809224"><ele>800.0</ele><time>2026-04-12T11:46:55.001Z</time></trkpt><trkpt lat="38.80141154919691" lon="16.396216519063962"><ele>800.0</ele><time>2026-04-12T11:46:56.001Z</time></trkpt><trkpt lat="38.80132223628421" lon="16.39635708863109"><ele>802.75</ele><time>2026-04-12T11:46:57.001Z</time></trkpt><trkpt lat="38.80123171707758" lon="16.396496728125264"><ele>805.5</ele><time>2026-04-12T11:46:58.001Z</time></trkpt><trkpt lat="38.80116606423866" lon="16.396602789568163"><ele>808.25</ele><time>2026-04-12T11:46:59.001Z</time></trkpt><trkpt lat="38.801097319751264" lon="16.396715785509898"><ele>811.0</ele><time>2026-04-12T11:47:00.001Z</time></trkpt><trkpt lat="38.801025006992944" lon="16.396811030602116"><ele>810.5999999999999</ele><time>2026-04-12T11:47:01.001Z</time></trkpt><trkpt lat="38.800962592056635" lon="16.39689131538359"><ele>810.2</ele><time>2026-04-12T11:47:02.001Z</time></trkpt><trkpt lat="38.80088192360641" lon="16.396965257287672"><ele>809.8</ele><time>2026-04-12T11:47:03.001Z</time></trkpt><trkpt lat="38.800818154415865" lon="16.39707301317014"><ele>809.4000000000001</ele><time>2026-04-12T11:47:04.001Z</time></trkpt><trkpt lat="38.800706593484755" lon="16.397196515047234"><ele>809.0</ele><time>2026-04-12T11:47:06.001Z</time></trkpt><trkpt lat="38.80064983806291" lon="16.397282650288886"><ele>809.0</ele><time>2026-04-12T11:47:07.001Z</time></trkpt><trkpt lat="38.80060246014542" lon="16.397407631868933"><ele>809.0</ele><time>2026-04-12T11:47:08.001Z</time></trkpt><trkpt lat="38.80055493518299" lon="16.397522862815013"><ele>809.0</ele><time>2026-04-12T11:47:09.001Z</time></trkpt><trkpt lat="38.80051154044257" lon="16.3976466330267"><ele>809.0</ele><time>2026-04-12T11:47:10.001Z</time></trkpt><trkpt lat="38.80046891705531" lon="16.397737962266373"><ele>809.0</ele><time>2026-04-12T11:47:11.001Z</time></trkpt><trkpt lat="38.80045469591142" lon="16.397850162506693"><ele>809.0</ele><time>2026-04-12T11:47:12.001Z</time></trkpt><trkpt lat="38.800402838772094" lon="16.397978064343587"><ele>809.0</ele><time>2026-04-12T11:47:14.001Z</time></trkpt><trkpt lat="38.800352847132785" lon="16.39806459748057"><ele>809.0</ele><time>2026-04-12T11:47:15.001Z</time></trkpt><trkpt lat="38.80028188044557" lon="16.398216781851776"><ele>809.0</ele><time>2026-04-12T11:47:16.001Z</time></trkpt><trkpt lat="38.80022448376761" lon="16.398326334672262"><ele>809.0</ele><time>2026-04-12T11:47:17.001Z</time></trkpt><trkpt lat="38.80017325436973" lon="16.39844645868908"><ele>808.6666666666667</ele><time>2026-04-12T11:47:18.001Z</time></trkpt><trkpt lat="38.80011424984096" lon="16.39852844265292"><ele>808.3333333333334</ele><time>2026-04-12T11:47:19.001Z</time></trkpt><trkpt lat="38.800067421692646" lon="16.39861027639416"><ele>808.0</ele><time>2026-04-12T11:47:20.001Z</time></trkpt><trkpt lat="38.800026728829124" lon="16.398674559675037"><ele>807.6666666666667</ele><time>2026-04-12T11:47:22.001Z</time></trkpt><trkpt lat="38.79996106525902" lon="16.39868218545643"><ele>807.3333333333334</ele><time>2026-04-12T11:49:05.001Z</time></trkpt><trkpt lat="38.799887776889314" lon="16.39866511008522"><ele>807.0</ele><time>2026-04-12T11:49:07.001Z</time></trkpt><trkpt lat="38.79977827307011" lon="16.398688251958106"><ele>807.0</ele><time>2026-04-12T11:49:09.001Z</time></trkpt><trkpt lat="38.79973134447289" lon="16.398764797351532"><ele>807.0</ele><time>2026-04-12T11:49:10.001Z</time></trkpt><trkpt lat="38.799632736633534" lon="16.39893996083462"><ele>807.0</ele><time>2026-04-12T11:49:11.001Z</time></trkpt><trkpt lat="38.79955185835401" lon="16.3990146015104"><ele>807.0</ele><time>2026-04-12T11:49:12.001Z</time></trkpt><trkpt lat="38.79947484792686" lon="16.399090512086108"><ele>807.0</ele><time>2026-04-12T11:49:13.001Z</time></trkpt><trkpt lat="38.79940955367864" lon="16.399174029859836"><ele>807.6</ele><time>2026-04-12T11:49:14.001Z</time></trkpt><trkpt lat="38.79933646748916" lon="16.399263181113525"><ele>808.2</ele><time>2026-04-12T11:49:15.001Z</time></trkpt><trkpt lat="38.79926600276846" lon="16.399313437423526"><ele>808.8</ele><time>2026-04-12T11:49:16.001Z</time></trkpt><trkpt lat="38.79918981218797" lon="16.39938624521285"><ele>809.4</ele><time>2026-04-12T11:49:17.001Z</time></trkpt><trkpt lat="38.79906922151192" lon="16.39944305629377"><ele>810.0</ele><time>2026-04-12T11:49:19.001Z</time></trkpt><trkpt lat="38.798976381276596" lon="16.399480178848094"><ele>810.0</ele><time>2026-04-12T11:49:20.001Z</time></trkpt><trkpt lat="38.79887568307666" lon="16.399504225839188"><ele>810.0</ele><time>2026-04-12T11:49:21.001Z</time></trkpt><trkpt lat="38.79880113672159" lon="16.399522223475238"><ele>810.0</ele><time>2026-04-12T11:49:22.001Z</time></trkpt><trkpt lat="38.798724361334784" lon="16.399534164467937"><ele>810.0</ele><time>2026-04-12T11:49:23.001Z</time></trkpt><trkpt lat="38.79863865570008" lon="16.399597088435932"><ele>810.0</ele><time>2026-04-12T11:49:25.001Z</time></trkpt><trkpt lat="38.798574355864154" lon="16.399604052008755"><ele>810.0</ele><time>2026-04-12T11:49:30.001Z</time></trkpt><trkpt lat="38.79851961728079" lon="16.39954278937179"><ele>810.8</ele><time>2026-04-12T11:49:39Z</time></trkpt><trkpt lat="38.798423879256305" lon="16.3994807375605"><ele>811.6</ele><time>2026-04-12T11:49:41Z</time></trkpt><trkpt lat="38.79837369376932" lon="16.39958690736989"><ele>812.4000000000001</ele><time>2026-04-12T11:49:42Z</time></trkpt><trkpt lat="38.79825469253247" lon="16.399587093963937"><ele>813.2</ele><time>2026-04-12T11:49:44Z</time></trkpt><trkpt lat="38.79817284002234" lon="16.39959678882974"><ele>814.0</ele><time>2026-04-12T11:49:45Z</time></trkpt><trkpt lat="38.79809718452713" lon="16.399594843865216"><ele>814.0</ele><time>2026-04-12T11:49:46Z</time></trkpt><trkpt lat="38.79800714722332" lon="16.399591846147796"><ele>814.0</ele><time>2026-04-12T11:49:47Z</time></trkpt><trkpt lat="38.7979337404564" lon="16.399587714745234"><ele>814.0</ele><time>2026-04-12T11:49:48Z</time></trkpt><trkpt lat="38.797804511955" lon="16.399589400243908"><ele>814.0</ele><time>2026-04-12T11:49:50Z</time></trkpt><trkpt lat="38.797665209252315" lon="16.399672368766186"><ele>814.0</ele><time>2026-04-12T11:49:52Z</time></trkpt><trkpt lat="38.79757130690182" lon="16.399747435157163"><ele>816.0</ele><time>2026-04-12T11:49:54Z</time></trkpt><trkpt lat="38.79730003799538" lon="16.39899289444536"><ele>816.0</ele><time>2026-04-12T11:49:58Z</time></trkpt><trkpt lat="38.797256326143426" lon="16.398851925697212"><ele>816.0</ele><time>2026-04-12T11:50:01Z</time></trkpt><trkpt lat="38.79726447442405" lon="16.398730363783564"><ele>816.0</ele><time>2026-04-12T11:50:02Z</time></trkpt><trkpt lat="38.797279116435796" lon="16.39857536694912"><ele>816.0</ele><time>2026-04-12T11:50:03Z</time></trkpt><trkpt lat="38.79729984679864" lon="16.398402709877033"><ele>816.5999999999999</ele><time>2026-04-12T11:50:04Z</time></trkpt><trkpt lat="38.79731329645472" lon="16.39824681267823"><ele>817.2</ele><time>2026-04-12T11:50:05Z</time></trkpt><trkpt lat="38.79732573748095" lon="16.398111363975755"><ele>817.8</ele><time>2026-04-12T11:50:06Z</time></trkpt><trkpt lat="38.79733183099457" lon="16.397963471303207"><ele>818.4000000000001</ele><time>2026-04-12T11:50:07Z</time></trkpt><trkpt lat="38.79733284309587" lon="16.397842584839264"><ele>819.0</ele><time>2026-04-12T11:50:08Z</time></trkpt><trkpt lat="38.79730856793202" lon="16.39770857563504"><ele>820.25</ele><time>2026-04-12T11:50:09Z</time></trkpt><trkpt lat="38.79726106711333" lon="16.39754713897293"><ele>821.5</ele><time>2026-04-12T11:50:10Z</time></trkpt><trkpt lat="38.7972081232471" lon="16.39737128124227"><ele>822.75</ele><time>2026-04-12T11:50:11Z</time></trkpt><trkpt lat="38.79715828879145" lon="16.397206916496298"><ele>824.0</ele><time>2026-04-12T11:50:12Z</time></trkpt><trkpt lat="38.797128730708536" lon="16.3970705127279"><ele>825.6</ele><time>2026-04-12T11:50:13Z</time></trkpt><trkpt lat="38.79709743841647" lon="16.39689776224831"><ele>827.2</ele><time>2026-04-12T11:50:14Z</time></trkpt><trkpt lat="38.797083440122904" lon="16.396757640420496"><ele>828.8000000000001</ele><time>2026-04-12T11:50:15Z</time></trkpt><trkpt lat="38.7970688820596" lon="16.396637591111123"><ele>830.4000000000001</ele><time>2026-04-12T11:50:16Z</time></trkpt><trkpt lat="38.79703252964049" lon="16.396525981221238"><ele>832.0</ele><time>2026-04-12T11:50:17Z</time></trkpt><trkpt lat="38.79700981369483" lon="16.39642588841371"><ele>831.8</ele><time>2026-04-12T11:50:18Z</time></trkpt><trkpt lat="38.796975776867384" lon="16.396330165869827"><ele>831.6</ele><time>2026-04-12T11:50:19Z</time></trkpt><trkpt lat="38.796928241702616" lon="16.39623632120405"><ele>831.4</ele><time>2026-04-12T11:50:20Z</time></trkpt><trkpt lat="38.79685696885485" lon="16.39614203775913"><ele>831.1999999999999</ele><time>2026-04-12T11:50:22Z</time></trkpt><trkpt lat="38.79680659639301" lon="16.39604493362748"><ele>831.0</ele><time>2026-04-12T11:50:33Z</time></trkpt><trkpt lat="38.796722171920464" lon="16.395935785048465"><ele>830.0</ele><time>2026-04-12T11:50:35Z</time></trkpt><trkpt lat="38.796658213984195" lon="16.395897003171175"><ele>829.0</ele><time>2026-04-12T11:50:36Z</time></trkpt><trkpt lat="38.79658109913765" lon="16.39585597635153"><ele>828.0</ele><time>2026-04-12T11:50:37Z</time></trkpt><trkpt lat="38.79652277690655" lon="16.395805643639154"><ele>827.0</ele><time>2026-04-12T11:50:38Z</time></trkpt><trkpt lat="38.79643654317642" lon="16.395748070546404"><ele>826.0</ele><time>2026-04-12T11:50:39Z</time></trkpt><trkpt lat="38.79632486596981" lon="16.395671196291097"><ele>825.0</ele><time>2026-04-12T11:50:40Z</time></trkpt><trkpt lat="38.79623206483959" lon="16.395606495268503"><ele>825.0</ele><time>2026-04-12T11:50:41Z</time></trkpt><trkpt lat="38.796155121564226" lon="16.395554438615303"><ele>825.0</ele><time>2026-04-12T11:50:42Z</time></trkpt><trkpt lat="38.796089358913974" lon="16.395529530145073"><ele>825.0</ele><time>2026-04-12T11:50:43Z</time></trkpt><trkpt lat="38.796024028357785" lon="16.395507431102104"><ele>825.0</ele><time>2026-04-12T11:50:44Z</time></trkpt><trkpt lat="38.79595994714638" lon="16.395520382239674"><ele>825.0</ele><time>2026-04-12T11:50:45.001Z</time></trkpt><trkpt lat="38.79587898153739" lon="16.395484229467975"><ele>825.0</ele><time>2026-04-12T11:50:47.001Z</time></trkpt><trkpt lat="38.79578037985052" lon="16.39548101479855"><ele>824.5</ele><time>2026-04-12T11:50:49.001Z</time></trkpt><trkpt lat="38.79571622877394" lon="16.395479478436343"><ele>824.0</ele><time>2026-04-12T11:50:50.001Z</time></trkpt><trkpt lat="38.795612053775606" lon="16.395488194336508"><ele>823.5</ele><time>2026-04-12T11:50:52.001Z</time></trkpt><trkpt lat="38.795537380604834" lon="16.395501950862254"><ele>823.0</ele><time>2026-04-12T11:50:53.001Z</time></trkpt><trkpt lat="38.79546372818578" lon="16.395515280782405"><ele>822.5</ele><time>2026-04-12T11:50:54.001Z</time></trkpt><trkpt lat="38.79533518752555" lon="16.395526204650803"><ele>822.0</ele><time>2026-04-12T11:50:56.001Z</time></trkpt><trkpt lat="38.795270530634085" lon="16.395528244965725"><ele>822.0</ele><time>2026-04-12T11:50:57.001Z</time></trkpt><trkpt lat="38.79518196906342" lon="16.39554738061467"><ele>822.0</ele><time>2026-04-12T11:50:58.001Z</time></trkpt><trkpt lat="38.7950859203362" lon="16.395571153990648"><ele>822.0</ele><time>2026-04-12T11:50:59.001Z</time></trkpt><trkpt lat="38.79500624735099" lon="16.395571238532874"><ele>822.0</ele><time>2026-04-12T11:51:00.001Z</time></trkpt><trkpt lat="38.79493206527187" lon="16.39560247218408"><ele>822.0</ele><time>2026-04-12T11:51:01.001Z</time></trkpt><trkpt lat="38.79484101298633" lon="16.395622839221332"><ele>822.0</ele><time>2026-04-12T11:51:02.001Z</time></trkpt><trkpt lat="38.794706752145636" lon="16.39562760169743"><ele>820.0</ele><time>2026-04-12T11:51:04.001Z</time></trkpt><trkpt lat="38.794629304220194" lon="16.39562764278039"><ele>818.0</ele><time>2026-04-12T11:51:05.001Z</time></trkpt><trkpt lat="38.79454400665843" lon="16.39562644292918"><ele>816.0</ele><time>2026-04-12T11:51:06.001Z</time></trkpt><trkpt lat="38.79447899169749" lon="16.395636950903516"><ele>814.0</ele><time>2026-04-12T11:51:07.001Z</time></trkpt><trkpt lat="38.7944148666659" lon="16.395653876895665"><ele>812.0</ele><time>2026-04-12T11:51:08.001Z</time></trkpt><trkpt lat="38.79432853175816" lon="16.395641948274143"><ele>810.0</ele><time>2026-04-12T11:51:09.001Z</time></trkpt><trkpt lat="38.794209007971546" lon="16.395637741917938"><ele>808.3333333333334</ele><time>2026-04-12T11:51:11.001Z</time></trkpt><trkpt lat="38.79414777136645" lon="16.395618134495354"><ele>806.6666666666667</ele><time>2026-04-12T11:51:12.001Z</time></trkpt><trkpt lat="38.79403470034998" lon="16.395582926643858"><ele>805.0</ele><time>2026-04-12T11:51:14.001Z</time></trkpt><trkpt lat="38.793968040712876" lon="16.395543566987765"><ele>803.3333333333334</ele><time>2026-04-12T11:51:17.001Z</time></trkpt><trkpt lat="38.79396126960758" lon="16.395445988090962"><ele>801.6666666666667</ele><time>2026-04-12T11:51:39Z</time></trkpt><trkpt lat="38.79393590979809" lon="16.395342969014656"><ele>800.0</ele><time>2026-04-12T11:51:41Z</time></trkpt><trkpt lat="38.7939176279116" lon="16.395227789885148"><ele>798.6666666666667</ele><time>2026-04-12T11:51:43Z</time></trkpt><trkpt lat="38.793909115715685" lon="16.395106681101417"><ele>797.3333333333334</ele><time>2026-04-12T11:51:45Z</time></trkpt><trkpt lat="38.79389825629987" lon="16.394984347917575"><ele>796.0</ele><time>2026-04-12T11:51:47Z</time></trkpt><trkpt lat="38.79389241434251" lon="16.394853298829634"><ele>794.6666666666667</ele><time>2026-04-12T11:51:49Z</time></trkpt><trkpt lat="38.793904820781115" lon="16.39477334890159"><ele>793.3333333333334</ele><time>2026-04-12T11:51:50Z</time></trkpt><trkpt lat="38.793913994145186" lon="16.394679228526197"><ele>792.0</ele><time>2026-04-12T11:51:51Z</time></trkpt><trkpt lat="38.793928219505034" lon="16.394596478353485"><ele>790.8333333333334</ele><time>2026-04-12T11:51:52Z</time></trkpt><trkpt lat="38.79394617764783" lon="16.39451486335634"><ele>789.6666666666667</ele><time>2026-04-12T11:51:53Z</time></trkpt><trkpt lat="38.79398853147334" lon="16.39433955221897"><ele>788.5</ele><time>2026-04-12T11:51:55Z</time></trkpt><trkpt lat="38.7940047722208" lon="16.394260060862575"><ele>787.3333333333334</ele><time>2026-04-12T11:51:56Z</time></trkpt><trkpt lat="38.79402370772969" lon="16.394182818465985"><ele>786.1666666666667</ele><time>2026-04-12T11:51:57Z</time></trkpt><trkpt lat="38.79407860468943" lon="16.394061988651014"><ele>785.0</ele><time>2026-04-12T11:51:59Z</time></trkpt><trkpt lat="38.794120724993284" lon="16.393994361443966"><ele>785.0000000000001</ele><time>2026-04-12T11:52:00Z</time></trkpt><trkpt lat="38.794176332232624" lon="16.39393441362747"><ele>785.0</ele><time>2026-04-12T11:52:01Z</time></trkpt><trkpt lat="38.794299628748675" lon="16.393868116978172"><ele>785.0</ele><time>2026-04-12T11:52:03Z</time></trkpt><trkpt lat="38.79437520465698" lon="16.393843123387473"><ele>785.0</ele><time>2026-04-12T11:52:04Z</time></trkpt><trkpt lat="38.79445510967989" lon="16.393837731946782"><ele>785.0000000000001</ele><time>2026-04-12T11:52:05Z</time></trkpt><trkpt lat="38.794534645842354" lon="16.393799453232884"><ele>785.0</ele><time>2026-04-12T11:52:06Z</time></trkpt><trkpt lat="38.794602663417194" lon="16.393786762460625"><ele>785.2</ele><time>2026-04-12T11:52:07Z</time></trkpt><trkpt lat="38.79469430326488" lon="16.393713744472112"><ele>785.4</ele><time>2026-04-12T11:52:09Z</time></trkpt><trkpt lat="38.79475200333469" lon="16.39357568091881"><ele>785.5999999999999</ele><time>2026-04-12T11:52:11Z</time></trkpt><trkpt lat="38.794775968811855" lon="16.393473547845645"><ele>785.8</ele><time>2026-04-12T11:52:12Z</time></trkpt><trkpt lat="38.79479865737659" lon="16.393369835564137"><ele>786.0</ele><time>2026-04-12T11:52:13Z</time></trkpt><trkpt lat="38.79480958928557" lon="16.393210953729806"><ele>786.0</ele><time>2026-04-12T11:52:15Z</time></trkpt><trkpt lat="38.79480396581949" lon="16.39311654896444"><ele>786.0</ele><time>2026-04-12T11:52:16Z</time></trkpt><trkpt lat="38.79481498200106" lon="16.392973037834345"><ele>786.0</ele><time>2026-04-12T11:52:18Z</time></trkpt><trkpt lat="38.79483747908603" lon="16.39289102289289"><ele>786.0</ele><time>2026-04-12T11:52:19Z</time></trkpt><trkpt lat="38.79488127855102" lon="16.392790648797302"><ele>786.0</ele><time>2026-04-12T11:52:20Z</time></trkpt><trkpt lat="38.794927536948585" lon="16.392724853742486"><ele>786.0</ele><time>2026-04-12T11:52:21Z</time></trkpt><trkpt lat="38.7949965885282" lon="16.39264583493224"><ele>785.0</ele><time>2026-04-12T11:52:22Z</time></trkpt><trkpt lat="38.79507063846054" lon="16.392571984281666"><ele>784.0</ele><time>2026-04-12T11:52:23Z</time></trkpt><trkpt lat="38.79515290750466" lon="16.392504087750577"><ele>783.0</ele><time>2026-04-12T11:52:24Z</time></trkpt><trkpt lat="38.79523298224817" lon="16.392456156169143"><ele>782.0</ele><time>2026-04-12T11:52:25Z</time></trkpt><trkpt lat="38.79530836859588" lon="16.39241626271797"><ele>781.0</ele><time>2026-04-12T11:52:26Z</time></trkpt><trkpt lat="38.79538112345319" lon="16.3923845968788"><ele>780.0</ele><time>2026-04-12T11:52:27Z</time></trkpt><trkpt lat="38.79544588300641" lon="16.392349706950693"><ele>780.0</ele><time>2026-04-12T11:52:28Z</time></trkpt><trkpt lat="38.795506933724994" lon="16.392329970285708"><ele>780.0</ele><time>2026-04-12T11:52:29Z</time></trkpt><trkpt lat="38.795589665063446" lon="16.392325265237204"><ele>780.0</ele><time>2026-04-12T11:52:31Z</time></trkpt><trkpt lat="38.795679150361394" lon="16.39241496544756"><ele>780.0</ele><time>2026-04-12T11:52:33Z</time></trkpt><trkpt lat="38.79573961559517" lon="16.392455938484613"><ele>780.0</ele><time>2026-04-12T11:52:34Z</time></trkpt><trkpt lat="38.79580818080501" lon="16.392468835933954"><ele>780.0</ele><time>2026-04-12T11:52:35Z</time></trkpt><trkpt lat="38.79591490309399" lon="16.39247595451407"><ele>780.0</ele><time>2026-04-12T11:52:37Z</time></trkpt><trkpt lat="38.795996357193154" lon="16.392516806038202"><ele>780.0</ele><time>2026-04-12T11:52:39Z</time></trkpt><trkpt lat="38.79608544958652" lon="16.3925460969947"><ele>780.0</ele><time>2026-04-12T11:52:41Z</time></trkpt><trkpt lat="38.7961546489866" lon="16.392563047428595"><ele>780.0</ele><time>2026-04-12T11:52:42Z</time></trkpt><trkpt lat="38.796249521298876" lon="16.39257077742045"><ele>780.0</ele><time>2026-04-12T11:52:44Z</time></trkpt><trkpt lat="38.796248917603" lon="16.392486861616845"><ele>780.0</ele><time>2026-04-12T11:52:45Z</time></trkpt><trkpt lat="38.796249216393115" lon="16.39238769846537"><ele>780.1666666666666</ele><time>2026-04-12T11:52:47Z</time></trkpt><trkpt lat="38.79623738283392" lon="16.39227345271167"><ele>780.3333333333333</ele><time>2026-04-12T11:52:49Z</time></trkpt><trkpt lat="38.796228574863186" lon="16.392124500678207"><ele>780.5</ele><time>2026-04-12T11:52:51Z</time></trkpt><trkpt lat="38.796203742643634" lon="16.3920010031733"><ele>780.6666666666666</ele><time>2026-04-12T11:52:53Z</time></trkpt><trkpt lat="38.796212384823214" lon="16.391920153462944"><ele>780.8333333333333</ele><time>2026-04-12T11:52:54Z</time></trkpt><trkpt lat="38.796217829507704" lon="16.391837694455194"><ele>781.0</ele><time>2026-04-12T11:52:55Z</time></trkpt><trkpt lat="38.79623958818238" lon="16.391697050292457"><ele>778.8</ele><time>2026-04-12T11:52:57Z</time></trkpt><trkpt lat="38.79625115762602" lon="16.391580488046184"><ele>776.5999999999999</ele><time>2026-04-12T11:52:59Z</time></trkpt><trkpt lat="38.7962536450332" lon="16.391447007116366"><ele>774.4</ele><time>2026-04-12T11:53:01Z</time></trkpt><trkpt lat="38.79626816384668" lon="16.39132389505461"><ele>772.2</ele><time>2026-04-12T11:53:03Z</time></trkpt><trkpt lat="38.79629877168108" lon="16.391198352730814"><ele>770.0</ele><time>2026-04-12T11:53:05Z</time></trkpt><trkpt lat="38.79633859419121" lon="16.391097909924223"><ele>768.5000000000001</ele><time>2026-04-12T11:53:07Z</time></trkpt><trkpt lat="38.7963906595589" lon="16.39105111674381"><ele>767.0</ele><time>2026-04-12T11:53:10Z</time></trkpt><trkpt lat="38.79645256655233" lon="16.390994075912936"><ele>765.5</ele><time>2026-04-12T11:53:13Z</time></trkpt><trkpt lat="38.796537830758695" lon="16.39093559375285"><ele>764.0</ele><time>2026-04-12T11:53:15Z</time></trkpt><trkpt lat="38.79661321560891" lon="16.39091697236344"><ele>762.5</ele><time>2026-04-12T11:53:17Z</time></trkpt><trkpt lat="38.79667188391348" lon="16.390855756534894"><ele>761.0</ele><time>2026-04-12T11:53:20Z</time></trkpt><trkpt lat="38.79673602228667" lon="16.390872166768045"><ele>761.0</ele><time>2026-04-12T11:53:22Z</time></trkpt><trkpt lat="38.796809938859404" lon="16.390911433651613"><ele>761.0</ele><time>2026-04-12T11:53:24.001Z</time></trkpt><trkpt lat="38.7968702914295" lon="16.390986081785314"><ele>761.0</ele><time>2026-04-12T11:53:27.001Z</time></trkpt><trkpt lat="38.79694767306488" lon="16.39109032600634"><ele>761.0</ele><time>2026-04-12T11:53:29.001Z</time></trkpt><trkpt lat="38.79701857926077" lon="16.391168528006816"><ele>761.0</ele><time>2026-04-12T11:53:30.001Z</time></trkpt><trkpt lat="38.79708216964376" lon="16.39123249058798"><ele>761.5999999999999</ele><time>2026-04-12T11:53:31.001Z</time></trkpt><trkpt lat="38.79717253918244" lon="16.3913191574002"><ele>762.2</ele><time>2026-04-12T11:53:33.001Z</time></trkpt><trkpt lat="38.797259084440725" lon="16.39132808407558"><ele>762.8</ele><time>2026-04-12T11:53:35.001Z</time></trkpt><trkpt lat="38.79735129815963" lon="16.391358948650048"><ele>763.4000000000001</ele><time>2026-04-12T11:53:37.001Z</time></trkpt><trkpt lat="38.79743377074974" lon="16.391455079946635"><ele>764.0</ele><time>2026-04-12T11:53:39.001Z</time></trkpt><trkpt lat="38.7974655648005" lon="16.39152574457732"><ele>764.0</ele><time>2026-04-12T11:53:40.001Z</time></trkpt><trkpt lat="38.797567644884886" lon="16.391591965772445"><ele>764.0</ele><time>2026-04-12T11:53:42.001Z</time></trkpt><trkpt lat="38.797693740057554" lon="16.391645335901067"><ele>764.0</ele><time>2026-04-12T11:53:44Z</time></trkpt><trkpt lat="38.797752604458246" lon="16.391717639673505"><ele>764.0</ele><time>2026-04-12T11:53:46Z</time></trkpt><trkpt lat="38.79784869597906" lon="16.39169794541543"><ele>764.0</ele><time>2026-04-12T11:53:48Z</time></trkpt><trkpt lat="38.79792410400897" lon="16.39165325769819"><ele>763.8333333333333</ele><time>2026-04-12T11:53:52Z</time></trkpt><trkpt lat="38.79797416455387" lon="16.39160284009004"><ele>763.6666666666666</ele><time>2026-04-12T11:53:54Z</time></trkpt><trkpt lat="38.79801544582964" lon="16.39152303915347"><ele>763.5</ele><time>2026-04-12T11:53:57Z</time></trkpt><trkpt lat="38.798062289606634" lon="16.391458296835562"><ele>763.3333333333334</ele><time>2026-04-12T11:53:59Z</time></trkpt><trkpt lat="38.79813956954574" lon="16.391386813756693"><ele>763.1666666666667</ele><time>2026-04-12T11:54:01Z</time></trkpt><trkpt lat="38.79825785261584" lon="16.39136781658065"><ele>763.0</ele><time>2026-04-12T11:54:04Z</time></trkpt><trkpt lat="38.798361732922764" lon="16.391369036867413"><ele>763.0</ele><time>2026-04-12T11:54:06Z</time></trkpt><trkpt lat="38.79844622682534" lon="16.39137712917125"><ele>763.0</ele><time>2026-04-12T11:54:08Z</time></trkpt><trkpt lat="38.79854650436337" lon="16.39139923190678"><ele>763.0</ele><time>2026-04-12T11:54:10Z</time></trkpt><trkpt lat="38.7986522757686" lon="16.391419476181706"><ele>763.0</ele><time>2026-04-12T11:54:12Z</time></trkpt><trkpt lat="38.79872624742269" lon="16.3914196854428"><ele>763.0</ele><time>2026-04-12T11:54:14Z</time></trkpt><trkpt lat="38.79884526064415" lon="16.39137808771438"><ele>762.5999999999999</ele><time>2026-04-12T11:54:16Z</time></trkpt><trkpt lat="38.79895316315684" lon="16.39136079922179"><ele>762.1999999999999</ele><time>2026-04-12T11:54:18Z</time></trkpt><trkpt lat="38.79905745090242" lon="16.391364148303797"><ele>761.8</ele><time>2026-04-12T11:54:20Z</time></trkpt><trkpt lat="38.79914273338973" lon="16.391369710560202"><ele>761.4</ele><time>2026-04-12T11:54:22Z</time></trkpt><trkpt lat="38.79925564946788" lon="16.39138694742557"><ele>761.0</ele><time>2026-04-12T11:54:24Z</time></trkpt><trkpt lat="38.799330836826435" lon="16.39137860201355"><ele>758.5999999999999</ele><time>2026-04-12T11:54:26Z</time></trkpt><trkpt lat="38.79939626060544" lon="16.391387931105854"><ele>756.2</ele><time>2026-04-12T11:54:28Z</time></trkpt><trkpt lat="38.799483914184144" lon="16.39147850551226"><ele>753.8</ele><time>2026-04-12T11:54:31Z</time></trkpt><trkpt lat="38.79951884333268" lon="16.39159178324497"><ele>751.4000000000001</ele><time>2026-04-12T11:54:33Z</time></trkpt><trkpt lat="38.79953797852922" lon="16.391772628131612"><ele>749.0</ele><time>2026-04-12T11:54:35Z</time></trkpt><trkpt lat="38.79953998731141" lon="16.391886195185553"><ele>749.0</ele><time>2026-04-12T11:54:36Z</time></trkpt><trkpt lat="38.79947722942473" lon="16.39199210937803"><ele>749.0</ele><time>2026-04-12T11:54:38Z</time></trkpt><trkpt lat="38.79948854632455" lon="16.392116036439297"><ele>749.0</ele><time>2026-04-12T11:54:40Z</time></trkpt><trkpt lat="38.79950422492462" lon="16.392207669144852"><ele>749.0</ele><time>2026-04-12T11:54:44Z</time></trkpt><trkpt lat="38.79956211613728" lon="16.392246011403696"><ele>749.0</ele><time>2026-04-12T11:58:05Z</time></trkpt><trkpt lat="38.79955970193384" lon="16.392349279411672"><ele>749.0</ele><time>2026-04-12T12:00:26Z</time></trkpt><trkpt lat="38.7995832738379" lon="16.392437060810828"><ele>751.1428571428571</ele><time>2026-04-12T12:03:08Z</time></trkpt><trkpt lat="38.7995323769382" lon="16.39235495374183"><ele>753.2857142857142</ele><time>2026-04-12T12:04:04.001Z</time></trkpt><trkpt lat="38.799558135397085" lon="16.392278993018422"><ele>755.4285714285714</ele><time>2026-04-12T12:05:15Z</time></trkpt><trkpt lat="38.79958331265133" lon="16.39219474752848"><ele>757.5714285714286</ele><time>2026-04-12T12:07:18.001Z</time></trkpt><trkpt lat="38.79951883687447" lon="16.392260790175822"><ele>759.7142857142857</ele><time>2026-04-12T12:07:26.001Z</time></trkpt><trkpt lat="38.79958388106708" lon="16.39226527694616"><ele>761.8571428571429</ele><time>2026-04-12T12:07:29.001Z</time></trkpt><trkpt lat="38.79965562161311" lon="16.392257879900725"><ele>764.0</ele><time>2026-04-12T12:07:30.001Z</time></trkpt><trkpt lat="38.799562729027635" lon="16.392264638327223"><ele>761.0</ele><time>2026-04-12T12:07:37.001Z</time></trkpt><trkpt lat="38.79955374544672" lon="16.39211420865758"><ele>758.0</ele><time>2026-04-12T12:08:06.001Z</time></trkpt><trkpt lat="38.799546427420054" lon="16.392027315632408"><ele>755.0</ele><time>2026-04-12T12:08:29.001Z</time></trkpt><trkpt lat="38.7995481283711" lon="16.39189765273877"><ele>752.0</ele><time>2026-04-12T12:08:31.001Z</time></trkpt><trkpt lat="38.799545971796164" lon="16.391774501176755"><ele>749.0</ele><time>2026-04-12T12:08:33.001Z</time></trkpt><trkpt lat="38.799549017273236" lon="16.391648855253017"><ele>749.0</ele><time>2026-04-12T12:08:35.001Z</time></trkpt><trkpt lat="38.799527412295355" lon="16.391521958612586"><ele>749.0</ele><time>2026-04-12T12:08:37.001Z</time></trkpt><trkpt lat="38.799466615597105" lon="16.391419857790567"><ele>749.0</ele><time>2026-04-12T12:08:39.001Z</time></trkpt><trkpt lat="38.79940481020998" lon="16.391386549584084"><ele>749.0</ele><time>2026-04-12T12:08:41.001Z</time></trkpt><trkpt lat="38.79931930652238" lon="16.391380496902972"><ele>749.0</ele><time>2026-04-12T12:08:44.001Z</time></trkpt><trkpt lat="38.79924067314821" lon="16.39138149400432"><ele>749.0</ele><time>2026-04-12T12:08:47.001Z</time></trkpt><trkpt lat="38.79917333064735" lon="16.39138922061881"><ele>751.0</ele><time>2026-04-12T12:08:49.001Z</time></trkpt><trkpt lat="38.799095709457866" lon="16.391388655944073"><ele>753.0</ele><time>2026-04-12T12:08:51.001Z</time></trkpt><trkpt lat="38.79900687379083" lon="16.391400628444792"><ele>755.0</ele><time>2026-04-12T12:08:55.001Z</time></trkpt><trkpt lat="38.798915620631" lon="16.391413813135543"><ele>757.0</ele><time>2026-04-12T12:08:57.001Z</time></trkpt><trkpt lat="38.79882588907013" lon="16.391429703601723"><ele>759.0</ele><time>2026-04-12T12:08:59.001Z</time></trkpt><trkpt lat="38.79875809905048" lon="16.391442324327077"><ele>761.0</ele><time>2026-04-12T12:09:01.001Z</time></trkpt><trkpt lat="38.79866599179915" lon="16.39144775364903"><ele>761.0</ele><time>2026-04-12T12:09:03.001Z</time></trkpt><trkpt lat="38.79857916589745" lon="16.391423039812864"><ele>761.0</ele><time>2026-04-12T12:09:06.001Z</time></trkpt><trkpt lat="38.798509051069" lon="16.39141679850959"><ele>761.0</ele><time>2026-04-12T12:09:08.001Z</time></trkpt><trkpt lat="38.798404029335245" lon="16.391412300582314"><ele>761.0</ele><time>2026-04-12T12:09:10.001Z</time></trkpt><trkpt lat="38.79833376186759" lon="16.39142176927003"><ele>761.0</ele><time>2026-04-12T12:09:12.001Z</time></trkpt><trkpt lat="38.79827053211819" lon="16.391418128644602"><ele>761.0</ele><time>2026-04-12T12:09:14.001Z</time></trkpt><trkpt lat="38.79818384492252" lon="16.39146703462497"><ele>761.3333333333333</ele><time>2026-04-12T12:09:16.001Z</time></trkpt><trkpt lat="38.798108608498794" lon="16.391491689809143"><ele>761.6666666666666</ele><time>2026-04-12T12:09:18.001Z</time></trkpt><trkpt lat="38.79807392546266" lon="16.39156949629002"><ele>762.0</ele><time>2026-04-12T12:09:23.001Z</time></trkpt><trkpt lat="38.7979950403675" lon="16.39163932478307"><ele>762.3333333333334</ele><time>2026-04-12T12:09:28.001Z</time></trkpt><trkpt lat="38.797932836907684" lon="16.391686925556673"><ele>762.6666666666667</ele><time>2026-04-12T12:09:31.001Z</time></trkpt><trkpt lat="38.79785048352874" lon="16.39170951676749"><ele>763.0</ele><time>2026-04-12T12:09:34.001Z</time></trkpt><trkpt lat="38.797753162513644" lon="16.391688716289316"><ele>763.2</ele><time>2026-04-12T12:09:37.001Z</time></trkpt><trkpt lat="38.79766540221222" lon="16.39165111356331"><ele>763.4</ele><time>2026-04-12T12:09:39.001Z</time></trkpt><trkpt lat="38.79757452333351" lon="16.39160009250087"><ele>763.6</ele><time>2026-04-12T12:09:41.001Z</time></trkpt><trkpt lat="38.79751455975949" lon="16.391564778799484"><ele>763.8000000000001</ele><time>2026-04-12T12:09:42.001Z</time></trkpt><trkpt lat="38.79741269321884" lon="16.391467956785316"><ele>764.0</ele><time>2026-04-12T12:09:44.001Z</time></trkpt><trkpt lat="38.797324381280994" lon="16.391401810424856"><ele>761.0</ele><time>2026-04-12T12:09:46.001Z</time></trkpt><trkpt lat="38.797215057535475" lon="16.391339825450114"><ele>758.0</ele><time>2026-04-12T12:09:48.001Z</time></trkpt><trkpt lat="38.79715025754699" lon="16.3913040713215"><ele>755.0</ele><time>2026-04-12T12:09:49.001Z</time></trkpt><trkpt lat="38.7970639148728" lon="16.39120644655144"><ele>752.0</ele><time>2026-04-12T12:09:51.001Z</time></trkpt><trkpt lat="38.79701464626809" lon="16.39114574877414"><ele>749.0</ele><time>2026-04-12T12:09:52.001Z</time></trkpt><trkpt lat="38.79695404904966" lon="16.39108254747872"><ele>749.0</ele><time>2026-04-12T12:09:53.001Z</time></trkpt><trkpt lat="38.79685913277717" lon="16.390983102952777"><ele>749.0</ele><time>2026-04-12T12:09:55.001Z</time></trkpt><trkpt lat="38.796798804114054" lon="16.390940236330525"><ele>749.0</ele><time>2026-04-12T12:09:57.001Z</time></trkpt><trkpt lat="38.79673002640999" lon="16.3909181062425"><ele>749.0</ele><time>2026-04-12T12:10:01.001Z</time></trkpt><trkpt lat="38.79664187729423" lon="16.39089635565516"><ele>749.0</ele><time>2026-04-12T12:10:07.001Z</time></trkpt><trkpt lat="38.796571401056866" lon="16.39094757681651"><ele>749.0</ele><time>2026-04-12T12:10:09.001Z</time></trkpt><trkpt lat="38.79649309654003" lon="16.390992492264434"><ele>751.0</ele><time>2026-04-12T12:10:11.001Z</time></trkpt><trkpt lat="38.796396673567116" lon="16.391068849591726"><ele>753.0</ele><time>2026-04-12T12:10:13.001Z</time></trkpt><trkpt lat="38.79634251060327" lon="16.391132491751858"><ele>755.0</ele><time>2026-04-12T12:10:15.001Z</time></trkpt><trkpt lat="38.79629163665545" lon="16.391190974219217"><ele>757.0</ele><time>2026-04-12T12:10:17.001Z</time></trkpt><trkpt lat="38.796277313537644" lon="16.39127686831478"><ele>759.0</ele><time>2026-04-12T12:10:19.001Z</time></trkpt><trkpt lat="38.79625260380442" lon="16.391394187358184"><ele>761.0</ele><time>2026-04-12T12:10:21.001Z</time></trkpt><trkpt lat="38.79625285342203" lon="16.39154295297736"><ele>762.8</ele><time>2026-04-12T12:10:23.001Z</time></trkpt><trkpt lat="38.796248835386905" lon="16.39169155207774"><ele>764.5999999999999</ele><time>2026-04-12T12:10:25.001Z</time></trkpt><trkpt lat="38.7962306771058" lon="16.391841412336618"><ele>766.4</ele><time>2026-04-12T12:10:27.001Z</time></trkpt><trkpt lat="38.79621651712134" lon="16.39193244636844"><ele>768.2</ele><time>2026-04-12T12:10:28.001Z</time></trkpt><trkpt lat="38.79620397338944" lon="16.39202446850967"><ele>770.0</ele><time>2026-04-12T12:10:29.001Z</time></trkpt><trkpt lat="38.79620110823326" lon="16.392120790845027"><ele>771.6666666666667</ele><time>2026-04-12T12:10:30.001Z</time></trkpt><trkpt lat="38.796215539675046" lon="16.3922318931042"><ele>773.3333333333334</ele><time>2026-04-12T12:10:32.001Z</time></trkpt><trkpt lat="38.796258182851126" lon="16.392343641308997"><ele>775.0</ele><time>2026-04-12T12:10:34.001Z</time></trkpt><trkpt lat="38.79623053564893" lon="16.3924583939534"><ele>776.6666666666667</ele><time>2026-04-12T12:10:36.001Z</time></trkpt><trkpt lat="38.79619448858501" lon="16.39256058655265"><ele>778.3333333333334</ele><time>2026-04-12T12:10:38.001Z</time></trkpt><trkpt lat="38.796116969604164" lon="16.392560717348807"><ele>780.0</ele><time>2026-04-12T12:10:40.001Z</time></trkpt><trkpt lat="38.79599798788773" lon="16.392523160543433"><ele>780.0</ele><time>2026-04-12T12:10:42.001Z</time></trkpt><trkpt lat="38.79589840765555" lon="16.392481055408265"><ele>780.0</ele><time>2026-04-12T12:10:44.001Z</time></trkpt><trkpt lat="38.79579085011651" lon="16.392437764299842"><ele>780.0</ele><time>2026-04-12T12:10:46.001Z</time></trkpt><trkpt lat="38.79572268232137" lon="16.392424083522062"><ele>780.0</ele><time>2026-04-12T12:10:47.001Z</time></trkpt><trkpt lat="38.795653201837055" lon="16.392405127473594"><ele>780.0</ele><time>2026-04-12T12:10:48.001Z</time></trkpt><trkpt lat="38.79555163522921" lon="16.39234437793245"><ele>780.0</ele><time>2026-04-12T12:10:50.001Z</time></trkpt><trkpt lat="38.79546400384596" lon="16.392346785178844"><ele>780.0</ele><time>2026-04-12T12:10:52.001Z</time></trkpt><trkpt lat="38.79535582085097" lon="16.392413393860185"><ele>780.0</ele><time>2026-04-12T12:10:54.001Z</time></trkpt><trkpt lat="38.795268855815735" lon="16.392457087386376"><ele>780.0</ele><time>2026-04-12T12:10:55.001Z</time></trkpt><trkpt lat="38.79519976278745" lon="16.392495846454953"><ele>780.0</ele><time>2026-04-12T12:10:56.001Z</time></trkpt><trkpt lat="38.79512399118704" lon="16.392548529298335"><ele>779.1666666666666</ele><time>2026-04-12T12:10:57.001Z</time></trkpt><trkpt lat="38.79505538729256" lon="16.392604698751004"><ele>778.3333333333333</ele><time>2026-04-12T12:10:58.001Z</time></trkpt><trkpt lat="38.794993995882464" lon="16.39266879727931"><ele>777.5</ele><time>2026-04-12T12:10:59.001Z</time></trkpt><trkpt lat="38.794927667913925" lon="16.392748907564506"><ele>776.6666666666666</ele><time>2026-04-12T12:11:00.001Z</time></trkpt><trkpt lat="38.79487627260857" lon="16.39283504698517"><ele>775.8333333333333</ele><time>2026-04-12T12:11:01.001Z</time></trkpt><trkpt lat="38.794846841253985" lon="16.392912545805068"><ele>775.0</ele><time>2026-04-12T12:11:02.001Z</time></trkpt><trkpt lat="38.79481129033257" lon="16.393083438003533"><ele>776.5714285714286</ele><time>2026-04-12T12:11:04.001Z</time></trkpt><trkpt lat="38.79480736461094" lon="16.393175306429704"><ele>778.1428571428571</ele><time>2026-04-12T12:11:05.001Z</time></trkpt><trkpt lat="38.79481365937954" lon="16.393265484415107"><ele>779.7142857142858</ele><time>2026-04-12T12:11:06.001Z</time></trkpt><trkpt lat="38.79481953604084" lon="16.393346464550405"><ele>781.2857142857142</ele><time>2026-04-12T12:11:07.001Z</time></trkpt><trkpt lat="38.79480755904335" lon="16.393431502790186"><ele>782.8571428571429</ele><time>2026-04-12T12:11:08.001Z</time></trkpt><trkpt lat="38.79477959678064" lon="16.393531646864336"><ele>784.4285714285714</ele><time>2026-04-12T12:11:09.001Z</time></trkpt><trkpt lat="38.79474395080171" lon="16.393642548816832"><ele>786.0</ele><time>2026-04-12T12:11:10.001Z</time></trkpt><trkpt lat="38.794676074711184" lon="16.39375592810544"><ele>786.0</ele><time>2026-04-12T12:11:12.001Z</time></trkpt><trkpt lat="38.794575035016514" lon="16.3938148309619"><ele>786.0</ele><time>2026-04-12T12:11:14.001Z</time></trkpt><trkpt lat="38.7944548503085" lon="16.39384182912753"><ele>786.0</ele><time>2026-04-12T12:11:16.001Z</time></trkpt><trkpt lat="38.79437694375522" lon="16.39384846968021"><ele>786.0</ele><time>2026-04-12T12:11:17.001Z</time></trkpt><trkpt lat="38.79430937907135" lon="16.393888297610864"><ele>786.0</ele><time>2026-04-12T12:11:18.001Z</time></trkpt><trkpt lat="38.79424652780477" lon="16.39390740188503"><ele>785.8333333333334</ele><time>2026-04-12T12:11:19.001Z</time></trkpt><trkpt lat="38.79414252145499" lon="16.393991661439472"><ele>785.6666666666667</ele><time>2026-04-12T12:11:21.001Z</time></trkpt><trkpt lat="38.79409949757251" lon="16.394053473555253"><ele>785.5</ele><time>2026-04-12T12:11:22.001Z</time></trkpt><trkpt lat="38.79406549021951" lon="16.39413060015545"><ele>785.3333333333334</ele><time>2026-04-12T12:11:23.001Z</time></trkpt><trkpt lat="38.79402704028593" lon="16.394226876092162"><ele>785.1666666666667</ele><time>2026-04-12T12:11:24.001Z</time></trkpt><trkpt lat="38.79399756070968" lon="16.394319295254558"><ele>785.0</ele><time>2026-04-12T12:11:25.001Z</time></trkpt><trkpt lat="38.79397824684344" lon="16.394406503020292"><ele>785.0000000000001</ele><time>2026-04-12T12:11:26.001Z</time></trkpt><trkpt lat="38.793951610006005" lon="16.394491741877825"><ele>785.0</ele><time>2026-04-12T12:11:27.001Z</time></trkpt><trkpt lat="38.79393974497429" lon="16.394581690713547"><ele>785.0</ele><time>2026-04-12T12:11:28.001Z</time></trkpt><trkpt lat="38.79392746667429" lon="16.39467975409046"><ele>785.0</ele><time>2026-04-12T12:11:29.001Z</time></trkpt><trkpt lat="38.79391048854671" lon="16.394761391773727"><ele>785.0000000000001</ele><time>2026-04-12T12:11:30.001Z</time></trkpt><trkpt lat="38.79389861470894" lon="16.394899000884738"><ele>785.0</ele><time>2026-04-12T12:11:32.001Z</time></trkpt><trkpt lat="38.79390435528671" lon="16.395026471194143"><ele>786.4</ele><time>2026-04-12T12:11:34.001Z</time></trkpt><trkpt lat="38.79390835251089" lon="16.395164212263616"><ele>787.8</ele><time>2026-04-12T12:11:36.001Z</time></trkpt><trkpt lat="38.79395085102908" lon="16.395296948583255"><ele>789.2</ele><time>2026-04-12T12:11:38.001Z</time></trkpt><trkpt lat="38.79397129267871" lon="16.395442252737503"><ele>790.6</ele><time>2026-04-12T12:11:40.001Z</time></trkpt><trkpt lat="38.794011752456214" lon="16.395527793144424"><ele>792.0</ele><time>2026-04-12T12:11:43.001Z</time></trkpt><trkpt lat="38.79408367800876" lon="16.39560096985349"><ele>793.6</ele><time>2026-04-12T12:11:46.001Z</time></trkpt><trkpt lat="38.794147332382195" lon="16.39560502057063"><ele>795.2</ele><time>2026-04-12T12:12:51.001Z</time></trkpt><trkpt lat="38.794213070195354" lon="16.395612593765616"><ele>796.8</ele><time>2026-04-12T12:12:53.001Z</time></trkpt><trkpt lat="38.79430902201684" lon="16.395612486491316"><ele>798.4</ele><time>2026-04-12T12:12:55.001Z</time></trkpt><trkpt lat="38.794422361540384" lon="16.395608121834062"><ele>800.0</ele><time>2026-04-12T12:12:57.001Z</time></trkpt><trkpt lat="38.79454433164858" lon="16.395621932074935"><ele>801.6666666666667</ele><time>2026-04-12T12:12:59.001Z</time></trkpt><trkpt lat="38.79462654592256" lon="16.39561086033036"><ele>803.3333333333334</ele><time>2026-04-12T12:13:00.001Z</time></trkpt><trkpt lat="38.79471579371661" lon="16.395601968814542"><ele>805.0</ele><time>2026-04-12T12:13:01.001Z</time></trkpt><trkpt lat="38.79481181322836" lon="16.3955956619133"><ele>806.6666666666667</ele><time>2026-04-12T12:13:02.001Z</time></trkpt><trkpt lat="38.79489270396634" lon="16.395590956559683"><ele>808.3333333333334</ele><time>2026-04-12T12:13:03Z</time></trkpt><trkpt lat="38.79495695653803" lon="16.395557904275247"><ele>810.0</ele><time>2026-04-12T12:13:04Z</time></trkpt><trkpt lat="38.795022218888576" lon="16.395575697241895"><ele>810.0</ele><time>2026-04-12T12:13:05Z</time></trkpt><trkpt lat="38.795098686085176" lon="16.395557131131504"><ele>810.0</ele><time>2026-04-12T12:13:06Z</time></trkpt><trkpt lat="38.79519578834041" lon="16.39553196732201"><ele>810.0</ele><time>2026-04-12T12:13:07Z</time></trkpt><trkpt lat="38.795288105750245" lon="16.395510788152148"><ele>810.0</ele><time>2026-04-12T12:13:08Z</time></trkpt><trkpt lat="38.79536992760375" lon="16.39549556609161"><ele>810.0</ele><time>2026-04-12T12:13:09Z</time></trkpt><trkpt lat="38.795449617601236" lon="16.395489686219538"><ele>810.0</ele><time>2026-04-12T12:13:10Z</time></trkpt><trkpt lat="38.79552509514394" lon="16.39548850839101"><ele>811.0</ele><time>2026-04-12T12:13:11Z</time></trkpt><trkpt lat="38.79562404269937" lon="16.395472070097963"><ele>812.0</ele><time>2026-04-12T12:13:12Z</time></trkpt><trkpt lat="38.79570559851017" lon="16.395462378780262"><ele>813.0</ele><time>2026-04-12T12:13:13Z</time></trkpt><trkpt lat="38.79584611016566" lon="16.395459945187007"><ele>814.0</ele><time>2026-04-12T12:13:15Z</time></trkpt><trkpt lat="38.79592834866618" lon="16.395469232213383"><ele>815.0</ele><time>2026-04-12T12:13:16Z</time></trkpt><trkpt lat="38.796011530629784" lon="16.395483257837892"><ele>817.0</ele><time>2026-04-12T12:13:17Z</time></trkpt><trkpt lat="38.7960951762324" lon="16.395507059368903"><ele>819.0</ele><time>2026-04-12T12:13:18Z</time></trkpt><trkpt lat="38.796174831024906" lon="16.395542601648838"><ele>821.0</ele><time>2026-04-12T12:13:19Z</time></trkpt><trkpt lat="38.79626781688193" lon="16.395598480551264"><ele>823.0</ele><time>2026-04-12T12:13:20Z</time></trkpt><trkpt lat="38.796372362302776" lon="16.39567208483236"><ele>825.0</ele><time>2026-04-12T12:13:21Z</time></trkpt><trkpt lat="38.796477386024655" lon="16.39573737184219"><ele>825.0</ele><time>2026-04-12T12:13:22Z</time></trkpt><trkpt lat="38.79657535539989" lon="16.3957966702532"><ele>825.0</ele><time>2026-04-12T12:13:23Z</time></trkpt><trkpt lat="38.79665739829433" lon="16.395859016808508"><ele>825.0</ele><time>2026-04-12T12:13:24Z</time></trkpt><trkpt lat="38.79673976163207" lon="16.39594286069517"><ele>825.0</ele><time>2026-04-12T12:13:25Z</time></trkpt><trkpt lat="38.79681217316519" lon="16.396022314575237"><ele>825.0</ele><time>2026-04-12T12:13:26Z</time></trkpt><trkpt lat="38.79687062476363" lon="16.396101404957772"><ele>826.0</ele><time>2026-04-12T12:13:27Z</time></trkpt><trkpt lat="38.79692600217424" lon="16.396186827196846"><ele>827.0</ele><time>2026-04-12T12:13:28Z</time></trkpt><trkpt lat="38.79697128649224" lon="16.39627662846297"><ele>828.0</ele><time>2026-04-12T12:13:29Z</time></trkpt><trkpt lat="38.79700664578456" lon="16.3963579525572"><ele>829.0</ele><time>2026-04-12T12:13:30Z</time></trkpt><trkpt lat="38.797032005100995" lon="16.396444817154002"><ele>830.0</ele><time>2026-04-12T12:13:31Z</time></trkpt><trkpt lat="38.797055744843625" lon="16.396539484342128"><ele>831.0</ele><time>2026-04-12T12:13:32Z</time></trkpt><trkpt lat="38.79707560381848" lon="16.396653793932657"><ele>831.1666666666666</ele><time>2026-04-12T12:13:33Z</time></trkpt><trkpt lat="38.79708938625456" lon="16.39675529617246"><ele>831.3333333333333</ele><time>2026-04-12T12:13:34Z</time></trkpt><trkpt lat="38.79710462828052" lon="16.39685555537772"><ele>831.5</ele><time>2026-04-12T12:13:35Z</time></trkpt><trkpt lat="38.79711306031481" lon="16.39695011566481"><ele>831.6666666666666</ele><time>2026-04-12T12:13:36Z</time></trkpt><trkpt lat="38.79713490409639" lon="16.39705235000606"><ele>831.8333333333333</ele><time>2026-04-12T12:13:37Z</time></trkpt><trkpt lat="38.797156417076145" lon="16.39715878100074"><ele>832.0</ele><time>2026-04-12T12:13:38Z</time></trkpt><trkpt lat="38.797178338515344" lon="16.397272977680835"><ele>830.6666666666666</ele><time>2026-04-12T12:13:39Z</time></trkpt><trkpt lat="38.79720994581269" lon="16.397381619715226"><ele>829.3333333333333</ele><time>2026-04-12T12:13:40Z</time></trkpt><trkpt lat="38.79723759079927" lon="16.397483139813243"><ele>828.0</ele><time>2026-04-12T12:13:41Z</time></trkpt><trkpt lat="38.79725623886714" lon="16.397577599109507"><ele>826.6666666666667</ele><time>2026-04-12T12:13:42Z</time></trkpt><trkpt lat="38.79728236099008" lon="16.397668619437155"><ele>825.3333333333334</ele><time>2026-04-12T12:13:43Z</time></trkpt><trkpt lat="38.79730850981854" lon="16.397773451291233"><ele>824.0</ele><time>2026-04-12T12:13:44Z</time></trkpt><trkpt lat="38.79732751974241" lon="16.39785722945307"><ele>824.0000000000001</ele><time>2026-04-12T12:13:45Z</time></trkpt><trkpt lat="38.797335279524496" lon="16.39796172448468"><ele>824.0</ele><time>2026-04-12T12:13:46Z</time></trkpt><trkpt lat="38.7973410673318" lon="16.398071824226015"><ele>824.0</ele><time>2026-04-12T12:13:47Z</time></trkpt><trkpt lat="38.79732927331942" lon="16.398162767782157"><ele>824.0</ele><time>2026-04-12T12:13:48Z</time></trkpt><trkpt lat="38.7973162789693" lon="16.398289308912858"><ele>824.0000000000001</ele><time>2026-04-12T12:13:49Z</time></trkpt><trkpt lat="38.79730054924951" lon="16.39839251967402"><ele>824.0</ele><time>2026-04-12T12:13:50Z</time></trkpt><trkpt lat="38.79728329955412" lon="16.39850388169491"><ele>823.1666666666667</ele><time>2026-04-12T12:13:51Z</time></trkpt><trkpt lat="38.797270127644325" lon="16.398619446235116"><ele>822.3333333333334</ele><time>2026-04-12T12:13:52Z</time></trkpt><trkpt lat="38.79725993114364" lon="16.39874049269366"><ele>821.5</ele><time>2026-04-12T12:13:53Z</time></trkpt><trkpt lat="38.79726032423827" lon="16.398834444195085"><ele>820.6666666666667</ele><time>2026-04-12T12:13:54Z</time></trkpt><trkpt lat="38.79728471996574" lon="16.39895312287452"><ele>819.8333333333334</ele><time>2026-04-12T12:13:56Z</time></trkpt><trkpt lat="38.79733254123245" lon="16.399035034391797"><ele>819.0</ele><time>2026-04-12T12:13:59Z</time></trkpt><trkpt lat="38.79742086794037" lon="16.399074725047416"><ele>818.4000000000001</ele><time>2026-04-12T12:14:01.001Z</time></trkpt><trkpt lat="38.797493096142105" lon="16.399055569612894"><ele>817.8</ele><time>2026-04-12T12:14:02.001Z</time></trkpt><trkpt lat="38.797594570809025" lon="16.399039390056192"><ele>817.2</ele><time>2026-04-12T12:14:03.001Z</time></trkpt><trkpt lat="38.797696680485686" lon="16.399019101996487"><ele>816.5999999999999</ele><time>2026-04-12T12:14:04.001Z</time></trkpt><trkpt lat="38.79778997961707" lon="16.39902591047056"><ele>816.0</ele><time>2026-04-12T12:14:05.001Z</time></trkpt><trkpt lat="38.79787470363086" lon="16.399058562176492"><ele>815.5999999999999</ele><time>2026-04-12T12:14:06.001Z</time></trkpt><trkpt lat="38.79796718604481" lon="16.399121959902228"><ele>815.2</ele><time>2026-04-12T12:14:07.001Z</time></trkpt><trkpt lat="38.79806745069831" lon="16.399198655643897"><ele>814.8</ele><time>2026-04-12T12:14:08.001Z</time></trkpt><trkpt lat="38.79815955525335" lon="16.399259125524647"><ele>814.4000000000001</ele><time>2026-04-12T12:14:09.001Z</time></trkpt><trkpt lat="38.79824058414791" lon="16.399310998757116"><ele>814.0</ele><time>2026-04-12T12:14:10.001Z</time></trkpt><trkpt lat="38.79830827957912" lon="16.3993616677773"><ele>813.9999999999999</ele><time>2026-04-12T12:14:11.001Z</time></trkpt><trkpt lat="38.79837742668885" lon="16.399429055480198"><ele>814.0</ele><time>2026-04-12T12:14:13.001Z</time></trkpt><trkpt lat="38.79848062940701" lon="16.39947383886906"><ele>814.0</ele><time>2026-04-12T12:14:15.001Z</time></trkpt><trkpt lat="38.79853078031044" lon="16.39952869823266"><ele>814.0</ele><time>2026-04-12T12:14:17.001Z</time></trkpt><trkpt lat="38.79855525475205" lon="16.39961940579748"><ele>813.9999999999999</ele><time>2026-04-12T12:14:20.001Z</time></trkpt><trkpt lat="38.798564011395904" lon="16.399701349087533"><ele>814.0</ele><time>2026-04-12T12:15:54Z</time></trkpt><trkpt lat="38.798472142067325" lon="16.399728593115903"><ele>814.0</ele><time>2026-04-12T12:15:59Z</time></trkpt><trkpt lat="38.79840927254323" lon="16.399721778795055"><ele>814.0</ele><time>2026-04-12T12:16:00Z</time></trkpt><trkpt lat="38.79833566183924" lon="16.399705896663896"><ele>814.0</ele><time>2026-04-12T12:16:01Z</time></trkpt><trkpt lat="38.79822316156279" lon="16.39964501699959"><ele>814.0</ele><time>2026-04-12T12:16:02Z</time></trkpt><trkpt lat="38.798092064772284" lon="16.399658505301474"><ele>814.0</ele><time>2026-04-12T12:16:03Z</time></trkpt><trkpt lat="38.79796186392947" lon="16.39967837555807"><ele>814.75</ele><time>2026-04-12T12:16:04Z</time></trkpt><trkpt lat="38.79782761824955" lon="16.399715969616295"><ele>815.5</ele><time>2026-04-12T12:16:05Z</time></trkpt><trkpt lat="38.79768537545643" lon="16.399770974844564"><ele>816.25</ele><time>2026-04-12T12:16:06Z</time></trkpt><trkpt lat="38.797534066389545" lon="16.39984742269808"><ele>817.0</ele><time>2026-04-12T12:16:07Z</time></trkpt><trkpt lat="38.79737021738146" lon="16.399935750791705"><ele>819.3333333333333</ele><time>2026-04-12T12:16:08Z</time></trkpt><trkpt lat="38.79721251376077" lon="16.40004657560449"><ele>821.6666666666667</ele><time>2026-04-12T12:16:09Z</time></trkpt><trkpt lat="38.79704627227821" lon="16.40014833519634"><ele>824.0</ele><time>2026-04-12T12:16:10Z</time></trkpt><trkpt lat="38.796871886005334" lon="16.400233139274416"><ele>824.0</ele><time>2026-04-12T12:16:11Z</time></trkpt><trkpt lat="38.79669952262638" lon="16.40031848227311"><ele>824.0</ele><time>2026-04-12T12:16:12Z</time></trkpt><trkpt lat="38.79651221185071" lon="16.400358042206758"><ele>824.0</ele><time>2026-04-12T12:16:13Z</time></trkpt><trkpt lat="38.796332814007236" lon="16.40043946130544"><ele>827.6666666666667</ele><time>2026-04-12T12:16:14Z</time></trkpt><trkpt lat="38.796181375493056" lon="16.400514570932707"><ele>831.3333333333333</ele><time>2026-04-12T12:16:15Z</time></trkpt><trkpt lat="38.79602567681861" lon="16.400598467252404"><ele>835.0</ele><time>2026-04-12T12:16:16Z</time></trkpt><trkpt lat="38.795868440297866" lon="16.40068718721229"><ele>835.6666666666666</ele><time>2026-04-12T12:16:17Z</time></trkpt><trkpt lat="38.795707734967344" lon="16.400787727319372"><ele>836.3333333333333</ele><time>2026-04-12T12:16:18Z</time></trkpt><trkpt lat="38.79556269827126" lon="16.400927865269598"><ele>837.0</ele><time>2026-04-12T12:16:19Z</time></trkpt><trkpt lat="38.79542075093523" lon="16.40106191152211"><ele>837.0</ele><time>2026-04-12T12:16:20Z</time></trkpt><trkpt lat="38.795298273234884" lon="16.401212833867795"><ele>837.0</ele><time>2026-04-12T12:16:21Z</time></trkpt><trkpt lat="38.79518191862011" lon="16.401360799640795"><ele>837.0</ele><time>2026-04-12T12:16:22Z</time></trkpt><trkpt lat="38.79509340739022" lon="16.401484518175423"><ele>838.2</ele><time>2026-04-12T12:16:23Z</time></trkpt><trkpt lat="38.795021764903275" lon="16.40159889739309"><ele>839.4000000000001</ele><time>2026-04-12T12:16:24Z</time></trkpt><trkpt lat="38.79495662111037" lon="16.4016754441248"><ele>840.5999999999999</ele><time>2026-04-12T12:16:25Z</time></trkpt><trkpt lat="38.794845693945334" lon="16.401757971105056"><ele>841.8</ele><time>2026-04-12T12:16:27Z</time></trkpt><trkpt lat="38.79476964528648" lon="16.401766112757926"><ele>843.0</ele><time>2026-04-12T12:16:28Z</time></trkpt><trkpt lat="38.79469178312121" lon="16.401745460830917"><ele>843.0</ele><time>2026-04-12T12:16:29Z</time></trkpt><trkpt lat="38.79460369945844" lon="16.401715788009287"><ele>843.0</ele><time>2026-04-12T12:16:30Z</time></trkpt><trkpt lat="38.79450981109089" lon="16.401691401101253"><ele>843.0</ele><time>2026-04-12T12:16:31Z</time></trkpt><trkpt lat="38.79442480354056" lon="16.401597215445268"><ele>843.0</ele><time>2026-04-12T12:16:32Z</time></trkpt><trkpt lat="38.79431501371817" lon="16.4015145873276"><ele>843.0</ele><time>2026-04-12T12:16:33Z</time></trkpt><trkpt lat="38.79422677992248" lon="16.401369879934432"><ele>843.75</ele><time>2026-04-12T12:16:34Z</time></trkpt><trkpt lat="38.79416689312634" lon="16.40124426784096"><ele>844.5</ele><time>2026-04-12T12:16:35Z</time></trkpt><trkpt lat="38.79409387414486" lon="16.401115080540492"><ele>845.25</ele><time>2026-04-12T12:16:36Z</time></trkpt><trkpt lat="38.794033251919686" lon="16.401003767287513"><ele>846.0</ele><time>2026-04-12T12:16:37Z</time></trkpt><trkpt lat="38.79397382195806" lon="16.40089230876793"><ele>846.0</ele><time>2026-04-12T12:16:38Z</time></trkpt><trkpt lat="38.793913339528366" lon="16.400770106872045"><ele>846.0</ele><time>2026-04-12T12:16:39Z</time></trkpt><trkpt lat="38.79383813039513" lon="16.400658757535727"><ele>846.0</ele><time>2026-04-12T12:16:40Z</time></trkpt><trkpt lat="38.79376751299469" lon="16.400605146235176"><ele>846.0</ele><time>2026-04-12T12:16:41Z</time></trkpt><trkpt lat="38.79364411626467" lon="16.400621764218627"><ele>846.0</ele><time>2026-04-12T12:16:42Z</time></trkpt><trkpt lat="38.79353717889702" lon="16.400673445502612"><ele>844.0</ele><time>2026-04-12T12:16:43Z</time></trkpt><trkpt lat="38.793425847706494" lon="16.400765285008386"><ele>842.0</ele><time>2026-04-12T12:16:44Z</time></trkpt><trkpt lat="38.793300782390766" lon="16.400869098923284"><ele>840.0</ele><time>2026-04-12T12:16:45Z</time></trkpt><trkpt lat="38.79317668764486" lon="16.400976423332548"><ele>838.0</ele><time>2026-04-12T12:16:46Z</time></trkpt><trkpt lat="38.79306189422126" lon="16.401074397702132"><ele>838.0</ele><time>2026-04-12T12:16:47Z</time></trkpt><trkpt lat="38.79295592342708" lon="16.401163260220283"><ele>838.0</ele><time>2026-04-12T12:16:48Z</time></trkpt><trkpt lat="38.792838877912814" lon="16.401260459920437"><ele>838.0</ele><time>2026-04-12T12:16:49Z</time></trkpt><trkpt lat="38.7927095652048" lon="16.401331569030027"><ele>838.0</ele><time>2026-04-12T12:16:50Z</time></trkpt><trkpt lat="38.792586846775315" lon="16.40136578630451"><ele>838.0</ele><time>2026-04-12T12:16:51Z</time></trkpt><trkpt lat="38.79249886034049" lon="16.40134104709105"><ele>838.0</ele><time>2026-04-12T12:16:52Z</time></trkpt><trkpt lat="38.7924332355133" lon="16.40125944902478"><ele>838.0</ele><time>2026-04-12T12:16:53Z</time></trkpt><trkpt lat="38.79236366993139" lon="16.401144373707734"><ele>838.0</ele><time>2026-04-12T12:16:54Z</time></trkpt><trkpt lat="38.792293055054074" lon="16.40102781555105"><ele>838.0</ele><time>2026-04-12T12:16:55Z</time></trkpt><trkpt lat="38.79223350357615" lon="16.40091340199648"><ele>836.25</ele><time>2026-04-12T12:16:56Z</time></trkpt><trkpt lat="38.792166603520315" lon="16.40083245214647"><ele>834.5</ele><time>2026-04-12T12:16:57Z</time></trkpt><trkpt lat="38.792087869886934" lon="16.40076059653257"><ele>832.75</ele><time>2026-04-12T12:16:58Z</time></trkpt><trkpt lat="38.791934587329735" lon="16.400735808136286"><ele>831.0</ele><time>2026-04-12T12:16:59Z</time></trkpt><trkpt lat="38.791788652539374" lon="16.40076317817267"><ele>829.75</ele><time>2026-04-12T12:17:00Z</time></trkpt><trkpt lat="38.7916390914409" lon="16.400830482012054"><ele>828.5</ele><time>2026-04-12T12:17:01Z</time></trkpt><trkpt lat="38.791532484196324" lon="16.40088490589573"><ele>827.25</ele><time>2026-04-12T12:17:02Z</time></trkpt><trkpt lat="38.79139914913223" lon="16.40095241535145"><ele>826.0</ele><time>2026-04-12T12:17:03Z</time></trkpt><trkpt lat="38.79127877618592" lon="16.401021635071473"><ele>826.0</ele><time>2026-04-12T12:17:04Z</time></trkpt><trkpt lat="38.79116560550079" lon="16.401090427828837"><ele>826.0</ele><time>2026-04-12T12:17:05Z</time></trkpt><trkpt lat="38.79106294534287" lon="16.401183356550607"><ele>826.0</ele><time>2026-04-12T12:17:06Z</time></trkpt><trkpt lat="38.79100085991444" lon="16.401291806883364"><ele>826.0</ele><time>2026-04-12T12:17:07Z</time></trkpt><trkpt lat="38.790947630291555" lon="16.401353200531176"><ele>826.0</ele><time>2026-04-12T12:17:08Z</time></trkpt><trkpt lat="38.79086213010008" lon="16.40128320754529"><ele>826.0</ele><time>2026-04-12T12:17:10Z</time></trkpt><trkpt lat="38.79086363955594" lon="16.401188374207916"><ele>826.0</ele><time>2026-04-12T12:17:11Z</time></trkpt><trkpt lat="38.790950302191014" lon="16.40108282666299"><ele>826.0</ele><time>2026-04-12T12:17:12Z</time></trkpt><trkpt lat="38.791029776117725" lon="16.400961950937592"><ele>826.0</ele><time>2026-04-12T12:17:13Z</time></trkpt><trkpt lat="38.79110020450153" lon="16.40090114260256"><ele>826.0</ele><time>2026-04-12T12:17:14Z</time></trkpt><trkpt lat="38.79114577228955" lon="16.400832450199086"><ele>826.0</ele><time>2026-04-12T12:17:15Z</time></trkpt><trkpt lat="38.79117325373466" lon="16.40074625403381"><ele>826.0</ele><time>2026-04-12T12:17:16Z</time></trkpt><trkpt lat="38.791152942675794" lon="16.400624531607154"><ele>826.0</ele><time>2026-04-12T12:17:17Z</time></trkpt><trkpt lat="38.791049895573636" lon="16.40057922551041"><ele>826.0</ele><time>2026-04-12T12:17:18Z</time></trkpt><trkpt lat="38.79096714321943" lon="16.400585681948346"><ele>826.0</ele><time>2026-04-12T12:17:19Z</time></trkpt><trkpt lat="38.79091396745905" lon="16.40067943899453"><ele>823.0</ele><time>2026-04-12T12:17:20Z</time></trkpt><trkpt lat="38.790873690306825" lon="16.40080166574723"><ele>820.0</ele><time>2026-04-12T12:17:21Z</time></trkpt><trkpt lat="38.7908075316737" lon="16.400947324899974"><ele>817.0</ele><time>2026-04-12T12:17:22Z</time></trkpt><trkpt lat="38.7907116157371" lon="16.401084264033845"><ele>814.0</ele><time>2026-04-12T12:17:23Z</time></trkpt><trkpt lat="38.79057277990956" lon="16.401197578072264"><ele>814.0</ele><time>2026-04-12T12:17:24Z</time></trkpt><trkpt lat="38.790409787039145" lon="16.401293757269976"><ele>814.0</ele><time>2026-04-12T12:17:25Z</time></trkpt><trkpt lat="38.79025155135535" lon="16.401376252836677"><ele>814.0</ele><time>2026-04-12T12:17:26Z</time></trkpt><trkpt lat="38.790099827530945" lon="16.401453442322108"><ele>814.25</ele><time>2026-04-12T12:17:27Z</time></trkpt><trkpt lat="38.789961157524864" lon="16.401530484829237"><ele>814.5</ele><time>2026-04-12T12:17:28Z</time></trkpt><trkpt lat="38.78982168683861" lon="16.40161138296432"><ele>814.75</ele><time>2026-04-12T12:17:29Z</time></trkpt><trkpt lat="38.78969039765304" lon="16.401677239547865"><ele>815.0</ele><time>2026-04-12T12:17:30Z</time></trkpt><trkpt lat="38.78956546815738" lon="16.401734175796648"><ele>815.0</ele><time>2026-04-12T12:17:31Z</time></trkpt><trkpt lat="38.78944849802163" lon="16.40175875330884"><ele>815.0</ele><time>2026-04-12T12:17:32Z</time></trkpt><trkpt lat="38.78932818722069" lon="16.40173698441248"><ele>815.0</ele><time>2026-04-12T12:17:33Z</time></trkpt><trkpt lat="38.78923693919916" lon="16.40165963104599"><ele>815.0</ele><time>2026-04-12T12:17:34Z</time></trkpt><trkpt lat="38.78918398251349" lon="16.40150770163407"><ele>814.5</ele><time>2026-04-12T12:17:35Z</time></trkpt><trkpt lat="38.78911199307388" lon="16.401340182037302"><ele>814.0</ele><time>2026-04-12T12:17:36Z</time></trkpt><trkpt lat="38.78904981079334" lon="16.401170882251826"><ele>813.5</ele><time>2026-04-12T12:17:37Z</time></trkpt><trkpt lat="38.78899656633982" lon="16.401021090961734"><ele>813.0</ele><time>2026-04-12T12:17:38Z</time></trkpt><trkpt lat="38.788970438755854" lon="16.400881863982246"><ele>811.0</ele><time>2026-04-12T12:17:39Z</time></trkpt><trkpt lat="38.78892582708408" lon="16.400758893466737"><ele>809.0</ele><time>2026-04-12T12:17:40Z</time></trkpt><trkpt lat="38.7888823495958" lon="16.400651745290936"><ele>807.0</ele><time>2026-04-12T12:17:41Z</time></trkpt><trkpt lat="38.78881807422488" lon="16.400555821471336"><ele>805.0</ele><time>2026-04-12T12:17:42Z</time></trkpt><trkpt lat="38.788700285407344" lon="16.400498715287235"><ele>803.0</ele><time>2026-04-12T12:17:43Z</time></trkpt><trkpt lat="38.78857028389938" lon="16.40049754968574"><ele>802.5</ele><time>2026-04-12T12:17:44Z</time></trkpt><trkpt lat="38.78843893698951" lon="16.400540138899547"><ele>802.0</ele><time>2026-04-12T12:17:45Z</time></trkpt><trkpt lat="38.78830666403324" lon="16.40061995260838"><ele>801.5</ele><time>2026-04-12T12:17:46Z</time></trkpt><trkpt lat="38.78816438951749" lon="16.40071161081426"><ele>801.0</ele><time>2026-04-12T12:17:47Z</time></trkpt><trkpt lat="38.788038736970066" lon="16.400790204350617"><ele>801.0</ele><time>2026-04-12T12:17:48Z</time></trkpt><trkpt lat="38.787919264045605" lon="16.400859070103976"><ele>801.0</ele><time>2026-04-12T12:17:49Z</time></trkpt><trkpt lat="38.78780335018948" lon="16.40092452905818"><ele>801.0</ele><time>2026-04-12T12:17:50Z</time></trkpt><trkpt lat="38.78769919233782" lon="16.40098494068881"><ele>801.0</ele><time>2026-04-12T12:17:51Z</time></trkpt><trkpt lat="38.78760291587601" lon="16.401055877031403"><ele>799.5999999999999</ele><time>2026-04-12T12:17:52Z</time></trkpt><trkpt lat="38.78753070268322" lon="16.401105426628643"><ele>798.2</ele><time>2026-04-12T12:17:53Z</time></trkpt><trkpt lat="38.787416175050275" lon="16.401109578736996"><ele>796.8</ele><time>2026-04-12T12:17:54Z</time></trkpt><trkpt lat="38.78734945809614" lon="16.401057782117576"><ele>795.4000000000001</ele><time>2026-04-12T12:17:55Z</time></trkpt><trkpt lat="38.78730869152461" lon="16.40093378427895"><ele>794.0</ele><time>2026-04-12T12:17:56Z</time></trkpt><trkpt lat="38.78728685823971" lon="16.400804715599442"><ele>794.0</ele><time>2026-04-12T12:17:57Z</time></trkpt><trkpt lat="38.78723598819785" lon="16.40071255263414"><ele>794.0</ele><time>2026-04-12T12:17:58Z</time></trkpt><trkpt lat="38.78714318370637" lon="16.40066948596153"><ele>794.0</ele><time>2026-04-12T12:17:59Z</time></trkpt><trkpt lat="38.787026273616846" lon="16.400650162910914"><ele>794.0</ele><time>2026-04-12T12:18:00Z</time></trkpt><trkpt lat="38.78690801046592" lon="16.400680858108426"><ele>794.0</ele><time>2026-04-12T12:18:01Z</time></trkpt><trkpt lat="38.78679141029146" lon="16.40076250413886"><ele>792.75</ele><time>2026-04-12T12:18:02Z</time></trkpt><trkpt lat="38.78667480363932" lon="16.400850970459743"><ele>791.5</ele><time>2026-04-12T12:18:03Z</time></trkpt><trkpt lat="38.78657672234329" lon="16.400922919538093"><ele>790.25</ele><time>2026-04-12T12:18:04Z</time></trkpt><trkpt lat="38.7864726689347" lon="16.40096544999998"><ele>789.0</ele><time>2026-04-12T12:18:05Z</time></trkpt><trkpt lat="38.786351277845625" lon="16.40095023076113"><ele>789.0</ele><time>2026-04-12T12:18:06Z</time></trkpt><trkpt lat="38.78621537002005" lon="16.400889800292195"><ele>789.0</ele><time>2026-04-12T12:18:07Z</time></trkpt><trkpt lat="38.78607408426913" lon="16.400833885218162"><ele>789.0</ele><time>2026-04-12T12:18:08Z</time></trkpt><trkpt lat="38.78593757067258" lon="16.400773791744374"><ele>789.0</ele><time>2026-04-12T12:18:09Z</time></trkpt><trkpt lat="38.7857951531072" lon="16.40073938446708"><ele>787.25</ele><time>2026-04-12T12:18:10Z</time></trkpt><trkpt lat="38.785650580245516" lon="16.400731624619862"><ele>785.5</ele><time>2026-04-12T12:18:11Z</time></trkpt><trkpt lat="38.78551832124872" lon="16.40075404163154"><ele>783.75</ele><time>2026-04-12T12:18:12Z</time></trkpt><trkpt lat="38.78538326688539" lon="16.4007570135048"><ele>782.0</ele><time>2026-04-12T12:18:13Z</time></trkpt><trkpt lat="38.785247183383326" lon="16.40074972445225"><ele>782.25</ele><time>2026-04-12T12:18:14Z</time></trkpt><trkpt lat="38.785113163759604" lon="16.400724437279905"><ele>782.5</ele><time>2026-04-12T12:18:15Z</time></trkpt><trkpt lat="38.78498937768304" lon="16.400657769975307"><ele>782.75</ele><time>2026-04-12T12:18:16Z</time></trkpt><trkpt lat="38.78487589832801" lon="16.400530768639236"><ele>783.0</ele><time>2026-04-12T12:18:17Z</time></trkpt><trkpt lat="38.78482651523221" lon="16.400401379642258"><ele>783.75</ele><time>2026-04-12T12:18:18Z</time></trkpt><trkpt lat="38.784786726280096" lon="16.40027194560479"><ele>784.5</ele><time>2026-04-12T12:18:19Z</time></trkpt><trkpt lat="38.784780512661634" lon="16.40011468373998"><ele>785.25</ele><time>2026-04-12T12:18:20Z</time></trkpt><trkpt lat="38.78478207009293" lon="16.39995070792701"><ele>786.0</ele><time>2026-04-12T12:18:21Z</time></trkpt><trkpt lat="38.7847805294284" lon="16.399794793642958"><ele>786.5</ele><time>2026-04-12T12:18:22Z</time></trkpt><trkpt lat="38.784766155270276" lon="16.399626958170124"><ele>787.0</ele><time>2026-04-12T12:18:23Z</time></trkpt><trkpt lat="38.784729058859575" lon="16.39946517157436"><ele>787.5</ele><time>2026-04-12T12:18:24Z</time></trkpt><trkpt lat="38.78467753477916" lon="16.39930843268073"><ele>788.0</ele><time>2026-04-12T12:18:25Z</time></trkpt><trkpt lat="38.784610961269806" lon="16.399192600291048"><ele>788.0</ele><time>2026-04-12T12:18:26Z</time></trkpt><trkpt lat="38.78450720475972" lon="16.39912858802976"><ele>788.0</ele><time>2026-04-12T12:18:27Z</time></trkpt><trkpt lat="38.7843680147322" lon="16.399087307798606"><ele>788.0</ele><time>2026-04-12T12:18:28Z</time></trkpt><trkpt lat="38.78422186334382" lon="16.39906433358268"><ele>788.0</ele><time>2026-04-12T12:18:29Z</time></trkpt><trkpt lat="38.78406796792841" lon="16.3990629883103"><ele>790.75</ele><time>2026-04-12T12:18:30Z</time></trkpt><trkpt lat="38.78391827630712" lon="16.39906863360367"><ele>793.5</ele><time>2026-04-12T12:18:31Z</time></trkpt><trkpt lat="38.78377133528951" lon="16.39911098498362"><ele>796.25</ele><time>2026-04-12T12:18:32Z</time></trkpt><trkpt lat="38.783635597312845" lon="16.3991605914626"><ele>799.0</ele><time>2026-04-12T12:18:33Z</time></trkpt><trkpt lat="38.78347610658183" lon="16.399198423569132"><ele>799.75</ele><time>2026-04-12T12:18:34Z</time></trkpt><trkpt lat="38.783337908118675" lon="16.399240738498136"><ele>800.5</ele><time>2026-04-12T12:18:35Z</time></trkpt><trkpt lat="38.78320223739479" lon="16.399279275051374"><ele>801.25</ele><time>2026-04-12T12:18:36Z</time></trkpt><trkpt lat="38.783056283265104" lon="16.399302345665166"><ele>802.0</ele><time>2026-04-12T12:18:37Z</time></trkpt><trkpt lat="38.78290898202809" lon="16.399312924707363"><ele>802.0</ele><time>2026-04-12T12:18:38Z</time></trkpt><trkpt lat="38.78275135177126" lon="16.39934139495097"><ele>802.0</ele><time>2026-04-12T12:18:39Z</time></trkpt><trkpt lat="38.78259428226726" lon="16.399339863388604"><ele>802.0</ele><time>2026-04-12T12:18:40Z</time></trkpt><trkpt lat="38.78243228102528" lon="16.3993273656116"><ele>802.75</ele><time>2026-04-12T12:18:41Z</time></trkpt><trkpt lat="38.782286058583956" lon="16.39933309511021"><ele>803.5</ele><time>2026-04-12T12:18:42Z</time></trkpt><trkpt lat="38.78214481413642" lon="16.399349219151865"><ele>804.25</ele><time>2026-04-12T12:18:43Z</time></trkpt><trkpt lat="38.782006299401814" lon="16.399392622060603"><ele>805.0</ele><time>2026-04-12T12:18:44Z</time></trkpt><trkpt lat="38.781876526209544" lon="16.399435141468892"><ele>806.0</ele><time>2026-04-12T12:18:45Z</time></trkpt><trkpt lat="38.781732168143385" lon="16.39947539948646"><ele>807.0</ele><time>2026-04-12T12:18:46Z</time></trkpt><trkpt lat="38.78158602153488" lon="16.3995033609773"><ele>808.0</ele><time>2026-04-12T12:18:47Z</time></trkpt><trkpt lat="38.781426584092515" lon="16.39951144504576"><ele>808.0</ele><time>2026-04-12T12:18:48Z</time></trkpt><trkpt lat="38.78127414573592" lon="16.39949452545721"><ele>808.0</ele><time>2026-04-12T12:18:49Z</time></trkpt><trkpt lat="38.78110962621514" lon="16.39944793049441"><ele>808.0</ele><time>2026-04-12T12:18:50Z</time></trkpt><trkpt lat="38.78095167878679" lon="16.399401334896574"><ele>809.3333333333333</ele><time>2026-04-12T12:18:51Z</time></trkpt><trkpt lat="38.78079672231981" lon="16.399321975779976"><ele>810.6666666666667</ele><time>2026-04-12T12:18:52Z</time></trkpt><trkpt lat="38.78063808564064" lon="16.39921905795242"><ele>812.0</ele><time>2026-04-12T12:18:53Z</time></trkpt><trkpt lat="38.78047464634546" lon="16.399129974843333"><ele>812.0</ele><time>2026-04-12T12:18:54Z</time></trkpt><trkpt lat="38.7803071766243" lon="16.399007219796555"><ele>812.0</ele><time>2026-04-12T12:18:55Z</time></trkpt><trkpt lat="38.780140030895524" lon="16.398891385709902"><ele>812.0</ele><time>2026-04-12T12:18:56Z</time></trkpt><trkpt lat="38.77997206500212" lon="16.398778248069846"><ele>812.0</ele><time>2026-04-12T12:18:57Z</time></trkpt><trkpt lat="38.779806541169464" lon="16.398670482970914"><ele>812.0</ele><time>2026-04-12T12:18:58Z</time></trkpt><trkpt lat="38.77964884006328" lon="16.398580410431848"><ele>812.0</ele><time>2026-04-12T12:18:59Z</time></trkpt><trkpt lat="38.77949083039412" lon="16.398507306108712"><ele>815.0</ele><time>2026-04-12T12:19:00Z</time></trkpt><trkpt lat="38.77931986685079" lon="16.398468179638"><ele>818.0</ele><time>2026-04-12T12:19:01Z</time></trkpt><trkpt lat="38.77915540006166" lon="16.39849516993815"><ele>821.0</ele><time>2026-04-12T12:19:02Z</time></trkpt><trkpt lat="38.778997931198134" lon="16.39854455786299"><ele>821.0</ele><time>2026-04-12T12:19:03Z</time></trkpt><trkpt lat="38.77883675121028" lon="16.398583179797328"><ele>821.0</ele><time>2026-04-12T12:19:04Z</time></trkpt><trkpt lat="38.778688013598625" lon="16.398642609570352"><ele>821.0</ele><time>2026-04-12T12:19:05Z</time></trkpt><trkpt lat="38.778557524239886" lon="16.398673476136555"><ele>821.75</ele><time>2026-04-12T12:19:06Z</time></trkpt><trkpt lat="38.77843261792348" lon="16.398680912461067"><ele>822.5</ele><time>2026-04-12T12:19:07Z</time></trkpt><trkpt lat="38.778289018993554" lon="16.39865267849093"><ele>823.25</ele><time>2026-04-12T12:19:08Z</time></trkpt><trkpt lat="38.77813441508336" lon="16.398586234680515"><ele>824.0</ele><time>2026-04-12T12:19:09Z</time></trkpt><trkpt lat="38.77799506832951" lon="16.39848249901144"><ele>824.0</ele><time>2026-04-12T12:19:10Z</time></trkpt><trkpt lat="38.777857793141564" lon="16.398350153046273"><ele>824.0</ele><time>2026-04-12T12:19:11Z</time></trkpt><trkpt lat="38.77773405184157" lon="16.39821171493269"><ele>824.0</ele><time>2026-04-12T12:19:12Z</time></trkpt><trkpt lat="38.77760073194041" lon="16.39805160541197"><ele>823.3333333333334</ele><time>2026-04-12T12:19:13Z</time></trkpt><trkpt lat="38.777481207359386" lon="16.39792494407441"><ele>822.6666666666667</ele><time>2026-04-12T12:19:14Z</time></trkpt><trkpt lat="38.77734854632307" lon="16.39774385268729"><ele>822.0</ele><time>2026-04-12T12:19:15Z</time></trkpt><trkpt lat="38.77722999990084" lon="16.39757786656953"><ele>822.0</ele><time>2026-04-12T12:19:16Z</time></trkpt><trkpt lat="38.77712182176628" lon="16.397385396259438"><ele>822.0</ele><time>2026-04-12T12:19:17Z</time></trkpt><trkpt lat="38.77700305196882" lon="16.397224783608138"><ele>822.0</ele><time>2026-04-12T12:19:18Z</time></trkpt><trkpt lat="38.77685697016434" lon="16.397078034560163"><ele>823.6666666666667</ele><time>2026-04-12T12:19:19Z</time></trkpt><trkpt lat="38.77669202570176" lon="16.396965525636396"><ele>825.3333333333334</ele><time>2026-04-12T12:19:20Z</time></trkpt><trkpt lat="38.776524788572814" lon="16.396872469422952"><ele>827.0</ele><time>2026-04-12T12:19:21Z</time></trkpt><trkpt lat="38.77634931432792" lon="16.39678887006162"><ele>827.0</ele><time>2026-04-12T12:19:22Z</time></trkpt><trkpt lat="38.77615320710346" lon="16.396709642440236"><ele>827.0</ele><time>2026-04-12T12:19:23Z</time></trkpt><trkpt lat="38.77596238716296" lon="16.39664474491069"><ele>827.0</ele><time>2026-04-12T12:19:24Z</time></trkpt><trkpt lat="38.77578779895892" lon="16.396582926342347"><ele>827.3333333333334</ele><time>2026-04-12T12:19:25Z</time></trkpt><trkpt lat="38.7756288635253" lon="16.396525248141053"><ele>827.6666666666667</ele><time>2026-04-12T12:19:26Z</time></trkpt><trkpt lat="38.77545521361754" lon="16.39645787609243"><ele>828.0</ele><time>2026-04-12T12:19:27Z</time></trkpt><trkpt lat="38.7752910664565" lon="16.39637812739157"><ele>830.0</ele><time>2026-04-12T12:19:28Z</time></trkpt><trkpt lat="38.775153838325615" lon="16.396235716647624"><ele>832.0</ele><time>2026-04-12T12:19:29Z</time></trkpt><trkpt lat="38.775006301251004" lon="16.39610197565991"><ele>834.0</ele><time>2026-04-12T12:19:30Z</time></trkpt><trkpt lat="38.77486108194202" lon="16.395954825934425"><ele>834.0</ele><time>2026-04-12T12:19:31Z</time></trkpt><trkpt lat="38.77474015905573" lon="16.39579628741007"><ele>834.0</ele><time>2026-04-12T12:19:32Z</time></trkpt><trkpt lat="38.774609767232846" lon="16.39564957517713"><ele>834.0</ele><time>2026-04-12T12:19:33Z</time></trkpt><trkpt lat="38.774462126362735" lon="16.395503049190552"><ele>834.6666666666667</ele><time>2026-04-12T12:19:34Z</time></trkpt><trkpt lat="38.77429074899055" lon="16.39538864879846"><ele>835.3333333333334</ele><time>2026-04-12T12:19:35Z</time></trkpt><trkpt lat="38.77413127476269" lon="16.395297096022087"><ele>836.0</ele><time>2026-04-12T12:19:36Z</time></trkpt><trkpt lat="38.77396197132282" lon="16.39522232547845"><ele>836.0</ele><time>2026-04-12T12:19:37Z</time></trkpt><trkpt lat="38.77378330484846" lon="16.395171964718507"><ele>836.0</ele><time>2026-04-12T12:19:38Z</time></trkpt><trkpt lat="38.773600974036775" lon="16.395140180859293"><ele>836.0</ele><time>2026-04-12T12:19:39Z</time></trkpt><trkpt lat="38.77340897894598" lon="16.395145342886007"><ele>836.3333333333334</ele><time>2026-04-12T12:19:40Z</time></trkpt><trkpt lat="38.77322171976462" lon="16.3951693654288"><ele>836.6666666666667</ele><time>2026-04-12T12:19:41Z</time></trkpt><trkpt lat="38.773040152652314" lon="16.395168817276346"><ele>837.0</ele><time>2026-04-12T12:19:42Z</time></trkpt><trkpt lat="38.77285739406664" lon="16.3951822343526"><ele>836.6666666666667</ele><time>2026-04-12T12:19:43Z</time></trkpt><trkpt lat="38.77267031424513" lon="16.395205318449968"><ele>836.3333333333334</ele><time>2026-04-12T12:19:44Z</time></trkpt><trkpt lat="38.77249906773263" lon="16.39516828346458"><ele>836.0</ele><time>2026-04-12T12:19:45Z</time></trkpt><trkpt lat="38.772341860465794" lon="16.39512519043971"><ele>836.0</ele><time>2026-04-12T12:19:46Z</time></trkpt><trkpt lat="38.77218400876131" lon="16.395057317281445"><ele>836.0</ele><time>2026-04-12T12:19:47Z</time></trkpt><trkpt lat="38.77202483624092" lon="16.394969413991515"><ele>836.0</ele><time>2026-04-12T12:19:48Z</time></trkpt><trkpt lat="38.77186749565753" lon="16.394867281365435"><ele>835.6666666666667</ele><time>2026-04-12T12:19:49Z</time></trkpt><trkpt lat="38.771726823543204" lon="16.394746164399802"><ele>835.3333333333333</ele><time>2026-04-12T12:19:50Z</time></trkpt><trkpt lat="38.77158982341253" lon="16.394611295836082"><ele>835.0</ele><time>2026-04-12T12:19:51Z</time></trkpt><trkpt lat="38.7714547851083" lon="16.3944752951025"><ele>835.0</ele><time>2026-04-12T12:19:52Z</time></trkpt><trkpt lat="38.77130332891133" lon="16.394352947919472"><ele>835.0</ele><time>2026-04-12T12:19:53Z</time></trkpt><trkpt lat="38.77113236227276" lon="16.394280839832426"><ele>835.0</ele><time>2026-04-12T12:19:54Z</time></trkpt><trkpt lat="38.77095890941958" lon="16.394186399705376"><ele>834.3333333333333</ele><time>2026-04-12T12:19:55Z</time></trkpt><trkpt lat="38.770773657767016" lon="16.39410984423169"><ele>833.6666666666667</ele><time>2026-04-12T12:19:56Z</time></trkpt><trkpt lat="38.77059432770231" lon="16.394036323252937"><ele>833.0</ele><time>2026-04-12T12:19:57Z</time></trkpt><trkpt lat="38.77042641578119" lon="16.39396655246805"><ele>833.0</ele><time>2026-04-12T12:19:58Z</time></trkpt><trkpt lat="38.77025306627638" lon="16.393898637241573"><ele>833.0</ele><time>2026-04-12T12:19:59Z</time></trkpt><trkpt lat="38.770084303429655" lon="16.393836527159674"><ele>833.0</ele><time>2026-04-12T12:20:00Z</time></trkpt><trkpt lat="38.76992239860129" lon="16.39378703257276"><ele>833.0</ele><time>2026-04-12T12:20:01Z</time></trkpt><trkpt lat="38.769742363700686" lon="16.393742629298032"><ele>833.0</ele><time>2026-04-12T12:20:02Z</time></trkpt><trkpt lat="38.76957190547372" lon="16.393705455317892"><ele>833.0</ele><time>2026-04-12T12:20:03Z</time></trkpt><trkpt lat="38.769408366773234" lon="16.39366906106408"><ele>834.3333333333334</ele><time>2026-04-12T12:20:04Z</time></trkpt><trkpt lat="38.76924489581722" lon="16.393630095133883"><ele>835.6666666666667</ele><time>2026-04-12T12:20:05Z</time></trkpt><trkpt lat="38.76908224916557" lon="16.393589277108617"><ele>837.0</ele><time>2026-04-12T12:20:06Z</time></trkpt><trkpt lat="38.768930349081145" lon="16.393551156090112"><ele>837.0</ele><time>2026-04-12T12:20:07Z</time></trkpt><trkpt lat="38.768786082369765" lon="16.393510903763065"><ele>837.0</ele><time>2026-04-12T12:20:08Z</time></trkpt><trkpt lat="38.76864155021643" lon="16.393460266719316"><ele>837.0</ele><time>2026-04-12T12:20:09Z</time></trkpt><trkpt lat="38.76849895926902" lon="16.3933937196881"><ele>837.0</ele><time>2026-04-12T12:20:10Z</time></trkpt><trkpt lat="38.76834756049237" lon="16.393306699952458"><ele>836.3333333333333</ele><time>2026-04-12T12:20:11Z</time></trkpt><trkpt lat="38.76820182824381" lon="16.393205269865273"><ele>835.6666666666666</ele><time>2026-04-12T12:20:12Z</time></trkpt><trkpt lat="38.76806195952409" lon="16.393090882257678"><ele>835.0</ele><time>2026-04-12T12:20:13Z</time></trkpt><trkpt lat="38.76792181486866" lon="16.392988936793707"><ele>835.0</ele><time>2026-04-12T12:20:14Z</time></trkpt><trkpt lat="38.767794128650294" lon="16.39289967321344"><ele>835.0</ele><time>2026-04-12T12:20:15Z</time></trkpt><trkpt lat="38.76763435790942" lon="16.39281614193281"><ele>835.0</ele><time>2026-04-12T12:20:16Z</time></trkpt><trkpt lat="38.76748299096243" lon="16.39276500506609"><ele>839.0</ele><time>2026-04-12T12:20:17Z</time></trkpt><trkpt lat="38.767322044146084" lon="16.392718604409975"><ele>843.0</ele><time>2026-04-12T12:20:18Z</time></trkpt><trkpt lat="38.7671779185056" lon="16.392684925315187"><ele>847.0</ele><time>2026-04-12T12:20:19Z</time></trkpt><trkpt lat="38.767013643952126" lon="16.392661853929617"><ele>849.6666666666666</ele><time>2026-04-12T12:20:20Z</time></trkpt><trkpt lat="38.766858169269696" lon="16.392653229080818"><ele>852.3333333333333</ele><time>2026-04-12T12:20:21Z</time></trkpt><trkpt lat="38.76670397519362" lon="16.39266853937362"><ele>855.0</ele><time>2026-04-12T12:20:22Z</time></trkpt><trkpt lat="38.766539617576285" lon="16.39264250461864"><ele>855.0</ele><time>2026-04-12T12:20:23Z</time></trkpt><trkpt lat="38.76638526756596" lon="16.392633979084078"><ele>855.0</ele><time>2026-04-12T12:20:24Z</time></trkpt><trkpt lat="38.766217238313935" lon="16.39262114734264"><ele>855.0</ele><time>2026-04-12T12:20:25Z</time></trkpt><trkpt lat="38.766063726562315" lon="16.39260085714399"><ele>858.3333333333333</ele><time>2026-04-12T12:20:26Z</time></trkpt><trkpt lat="38.765924513089956" lon="16.392563429396944"><ele>861.6666666666666</ele><time>2026-04-12T12:20:27Z</time></trkpt><trkpt lat="38.76576358546973" lon="16.39248379359084"><ele>865.0</ele><time>2026-04-12T12:20:28Z</time></trkpt><trkpt lat="38.76561195010899" lon="16.392392625432578"><ele>865.0</ele><time>2026-04-12T12:20:29Z</time></trkpt><trkpt lat="38.76544048765169" lon="16.392328980026477"><ele>865.0</ele><time>2026-04-12T12:20:30Z</time></trkpt><trkpt lat="38.76526142137351" lon="16.392299621616008"><ele>865.0</ele><time>2026-04-12T12:20:31Z</time></trkpt><trkpt lat="38.76508467901545" lon="16.39230073628062"><ele>867.0</ele><time>2026-04-12T12:20:32Z</time></trkpt><trkpt lat="38.76491716946569" lon="16.392308874820937"><ele>869.0</ele><time>2026-04-12T12:20:33Z</time></trkpt><trkpt lat="38.76474756172297" lon="16.392320032683983"><ele>871.0</ele><time>2026-04-12T12:20:34Z</time></trkpt><trkpt lat="38.76456814935612" lon="16.392331835556902"><ele>871.0</ele><time>2026-04-12T12:20:35Z</time></trkpt><trkpt lat="38.764406365403474" lon="16.39233910023982"><ele>871.0</ele><time>2026-04-12T12:20:36Z</time></trkpt><trkpt lat="38.764263692984386" lon="16.392335241007096"><ele>871.0</ele><time>2026-04-12T12:20:37Z</time></trkpt><trkpt lat="38.76412710345075" lon="16.392306485149778"><ele>871.0</ele><time>2026-04-12T12:20:38Z</time></trkpt><trkpt lat="38.7640027490405" lon="16.392260922099748"><ele>872.75</ele><time>2026-04-12T12:20:39Z</time></trkpt><trkpt lat="38.763880496712055" lon="16.392209114368885"><ele>874.5</ele><time>2026-04-12T12:20:40Z</time></trkpt><trkpt lat="38.763765899229405" lon="16.39212563479469"><ele>876.25</ele><time>2026-04-12T12:20:41Z</time></trkpt><trkpt lat="38.7636562676152" lon="16.39203017308001"><ele>878.0</ele><time>2026-04-12T12:20:42Z</time></trkpt><trkpt lat="38.76353224794122" lon="16.391934115764933"><ele>877.6666666666667</ele><time>2026-04-12T12:20:43Z</time></trkpt><trkpt lat="38.76339737025177" lon="16.391828661642915"><ele>877.3333333333333</ele><time>2026-04-12T12:20:44Z</time></trkpt><trkpt lat="38.763277179470236" lon="16.39173653737005"><ele>877.0</ele><time>2026-04-12T12:20:45Z</time></trkpt><trkpt lat="38.76313358052801" lon="16.3916326169804"><ele>877.0</ele><time>2026-04-12T12:20:46Z</time></trkpt><trkpt lat="38.762984058248776" lon="16.391542545168942"><ele>877.0</ele><time>2026-04-12T12:20:47Z</time></trkpt><trkpt lat="38.762822797535996" lon="16.391440946027405"><ele>877.0</ele><time>2026-04-12T12:20:48Z</time></trkpt><trkpt lat="38.762648100909296" lon="16.391352581516383"><ele>875.3333333333333</ele><time>2026-04-12T12:20:49Z</time></trkpt><trkpt lat="38.762489551184174" lon="16.391240259426727"><ele>873.6666666666667</ele><time>2026-04-12T12:20:50Z</time></trkpt><trkpt lat="38.762320367234274" lon="16.391162378352185"><ele>872.0</ele><time>2026-04-12T12:20:51Z</time></trkpt><trkpt lat="38.76215661923327" lon="16.391058403468296"><ele>872.0</ele><time>2026-04-12T12:20:52Z</time></trkpt><trkpt lat="38.76197690017227" lon="16.390945812648507"><ele>872.0</ele><time>2026-04-12T12:20:53Z</time></trkpt><trkpt lat="38.76179846485961" lon="16.390849098370783"><ele>872.0</ele><time>2026-04-12T12:20:54Z</time></trkpt><trkpt lat="38.76161036124816" lon="16.39076441673475"><ele>870.0</ele><time>2026-04-12T12:20:55Z</time></trkpt><trkpt lat="38.7614179766236" lon="16.390706188170576"><ele>868.0</ele><time>2026-04-12T12:20:56Z</time></trkpt><trkpt lat="38.76122427860979" lon="16.39068087679926"><ele>866.0</ele><time>2026-04-12T12:20:57Z</time></trkpt><trkpt lat="38.76103544994334" lon="16.39067903243951"><ele>865.0</ele><time>2026-04-12T12:20:58Z</time></trkpt><trkpt lat="38.76085113090845" lon="16.390696107682793"><ele>864.0</ele><time>2026-04-12T12:20:59Z</time></trkpt><trkpt lat="38.76067411921935" lon="16.39072096998099"><ele>863.0</ele><time>2026-04-12T12:21:00Z</time></trkpt><trkpt lat="38.760466948671265" lon="16.390750050201582"><ele>863.0</ele><time>2026-04-12T12:21:01Z</time></trkpt><trkpt lat="38.76029585476861" lon="16.3907740562503"><ele>863.0</ele><time>2026-04-12T12:21:02Z</time></trkpt><trkpt lat="38.76012127558296" lon="16.390800082784235"><ele>863.0</ele><time>2026-04-12T12:21:03Z</time></trkpt><trkpt lat="38.759946401787495" lon="16.39083397501232"><ele>866.3333333333334</ele><time>2026-04-12T12:21:04Z</time></trkpt><trkpt lat="38.75977468725423" lon="16.390891233832793"><ele>869.6666666666667</ele><time>2026-04-12T12:21:05Z</time></trkpt><trkpt lat="38.75961680802619" lon="16.390954921406408"><ele>873.0</ele><time>2026-04-12T12:21:06Z</time></trkpt><trkpt lat="38.75945466304083" lon="16.39102122665398"><ele>875.6666666666667</ele><time>2026-04-12T12:21:07Z</time></trkpt><trkpt lat="38.75929563761648" lon="16.391060528033425"><ele>878.3333333333334</ele><time>2026-04-12T12:21:08Z</time></trkpt><trkpt lat="38.759135274354385" lon="16.391088920657936"><ele>881.0</ele><time>2026-04-12T12:21:09Z</time></trkpt><trkpt lat="38.758973020280564" lon="16.39111536223541"><ele>881.0</ele><time>2026-04-12T12:21:10Z</time></trkpt><trkpt lat="38.75880876955196" lon="16.39114810110023"><ele>881.0</ele><time>2026-04-12T12:21:11Z</time></trkpt><trkpt lat="38.75864456927227" lon="16.391193516799788"><ele>881.0</ele><time>2026-04-12T12:21:12Z</time></trkpt><trkpt lat="38.75849070875441" lon="16.391254736360043"><ele>883.3333333333334</ele><time>2026-04-12T12:21:13Z</time></trkpt><trkpt lat="38.75834454217646" lon="16.391329125320908"><ele>885.6666666666667</ele><time>2026-04-12T12:21:14Z</time></trkpt><trkpt lat="38.75820042468601" lon="16.391407163810477"><ele>888.0</ele><time>2026-04-12T12:21:15Z</time></trkpt><trkpt lat="38.7580583587581" lon="16.391487574022054"><ele>888.0</ele><time>2026-04-12T12:21:16Z</time></trkpt><trkpt lat="38.757907792889725" lon="16.391566273459254"><ele>888.0</ele><time>2026-04-12T12:21:17Z</time></trkpt><trkpt lat="38.7577562155782" lon="16.39164983815594"><ele>888.0</ele><time>2026-04-12T12:21:18Z</time></trkpt><trkpt lat="38.75760428523613" lon="16.3917451777972"><ele>888.6666666666667</ele><time>2026-04-12T12:21:19Z</time></trkpt><trkpt lat="38.75745388947611" lon="16.391878550740845"><ele>889.3333333333334</ele><time>2026-04-12T12:21:20Z</time></trkpt><trkpt lat="38.75730295395371" lon="16.39198643448813"><ele>890.0</ele><time>2026-04-12T12:21:21Z</time></trkpt><trkpt lat="38.757161722848835" lon="16.392112625057475"><ele>890.6666666666667</ele><time>2026-04-12T12:21:22Z</time></trkpt><trkpt lat="38.75702303190185" lon="16.392242339441516"><ele>891.3333333333333</ele><time>2026-04-12T12:21:23Z</time></trkpt><trkpt lat="38.7568807201422" lon="16.392379243012805"><ele>892.0</ele><time>2026-04-12T12:21:24Z</time></trkpt><trkpt lat="38.756724142791384" lon="16.392487777559673"><ele>892.0</ele><time>2026-04-12T12:21:25Z</time></trkpt><trkpt lat="38.75657678128573" lon="16.39260690406982"><ele>892.0</ele><time>2026-04-12T12:21:26Z</time></trkpt><trkpt lat="38.75642516537497" lon="16.392727774176898"><ele>892.0</ele><time>2026-04-12T12:21:27Z</time></trkpt><trkpt lat="38.75627213705446" lon="16.39284815631987"><ele>892.0</ele><time>2026-04-12T12:21:28Z</time></trkpt><trkpt lat="38.75611813739702" lon="16.392972702168816"><ele>892.0</ele><time>2026-04-12T12:21:29Z</time></trkpt><trkpt lat="38.75597036856706" lon="16.393110342984745"><ele>892.0</ele><time>2026-04-12T12:21:30Z</time></trkpt><trkpt lat="38.75581911025125" lon="16.39325106433749"><ele>889.6666666666666</ele><time>2026-04-12T12:21:31Z</time></trkpt><trkpt lat="38.75567302625116" lon="16.39337764865372"><ele>887.3333333333333</ele><time>2026-04-12T12:21:32Z</time></trkpt><trkpt lat="38.7555277156674" lon="16.393497912536667"><ele>885.0</ele><time>2026-04-12T12:21:33Z</time></trkpt><trkpt lat="38.75537947249" lon="16.393605834981354"><ele>885.0</ele><time>2026-04-12T12:21:34Z</time></trkpt><trkpt lat="38.75521504868893" lon="16.39370536578715"><ele>885.0</ele><time>2026-04-12T12:21:35Z</time></trkpt><trkpt lat="38.75505649598801" lon="16.39377275679323"><ele>885.0</ele><time>2026-04-12T12:21:36Z</time></trkpt><trkpt lat="38.75489773662883" lon="16.393799541583032"><ele>884.0</ele><time>2026-04-12T12:21:37Z</time></trkpt><trkpt lat="38.75474562124922" lon="16.39378274583632"><ele>883.0</ele><time>2026-04-12T12:21:38Z</time></trkpt><trkpt lat="38.754577594482676" lon="16.393737846491543"><ele>882.0</ele><time>2026-04-12T12:21:39Z</time></trkpt><trkpt lat="38.754424361351944" lon="16.39367998576595"><ele>882.3333333333333</ele><time>2026-04-12T12:21:40Z</time></trkpt><trkpt lat="38.754260228398664" lon="16.393608892212807"><ele>882.6666666666666</ele><time>2026-04-12T12:21:41Z</time></trkpt><trkpt lat="38.75409302873698" lon="16.39351418412925"><ele>883.0</ele><time>2026-04-12T12:21:42Z</time></trkpt><trkpt lat="38.75397826446393" lon="16.393410412362364"><ele>883.0</ele><time>2026-04-12T12:21:43Z</time></trkpt><trkpt lat="38.7538537770171" lon="16.39326356573655"><ele>883.0</ele><time>2026-04-12T12:21:44Z</time></trkpt><trkpt lat="38.75370187608494" lon="16.393123323189094"><ele>883.0</ele><time>2026-04-12T12:21:45Z</time></trkpt><trkpt lat="38.75355206148022" lon="16.39299872390491"><ele>881.6666666666666</ele><time>2026-04-12T12:21:46Z</time></trkpt><trkpt lat="38.75338207428035" lon="16.39286842401613"><ele>880.3333333333333</ele><time>2026-04-12T12:21:47Z</time></trkpt><trkpt lat="38.753233096783106" lon="16.3927562439006"><ele>879.0</ele><time>2026-04-12T12:21:48Z</time></trkpt><trkpt lat="38.75309145549185" lon="16.392649984467656"><ele>879.0</ele><time>2026-04-12T12:21:49Z</time></trkpt><trkpt lat="38.75295947154954" lon="16.392538040454866"><ele>879.0</ele><time>2026-04-12T12:21:50Z</time></trkpt><trkpt lat="38.752858810945185" lon="16.39243556803725"><ele>879.0</ele><time>2026-04-12T12:21:51Z</time></trkpt><trkpt lat="38.752759250797055" lon="16.39230851305454"><ele>879.0</ele><time>2026-04-12T12:21:52Z</time></trkpt><trkpt lat="38.75268771471212" lon="16.392160620421254"><ele>879.75</ele><time>2026-04-12T12:21:53Z</time></trkpt><trkpt lat="38.752644549595914" lon="16.391996697632937"><ele>880.5</ele><time>2026-04-12T12:21:54Z</time></trkpt><trkpt lat="38.7526003784921" lon="16.391797205141344"><ele>881.25</ele><time>2026-04-12T12:21:55Z</time></trkpt><trkpt lat="38.75254186865018" lon="16.39162624868167"><ele>882.0</ele><time>2026-04-12T12:21:56Z</time></trkpt><trkpt lat="38.752449283367916" lon="16.39147152803122"><ele>881.75</ele><time>2026-04-12T12:21:57Z</time></trkpt><trkpt lat="38.7524012229969" lon="16.39130727869695"><ele>881.5</ele><time>2026-04-12T12:21:58Z</time></trkpt><trkpt lat="38.752358761938076" lon="16.391150564065406"><ele>881.25</ele><time>2026-04-12T12:21:59Z</time></trkpt><trkpt lat="38.75231985323385" lon="16.390976123780884"><ele>881.0</ele><time>2026-04-12T12:22:00Z</time></trkpt><trkpt lat="38.752275967753334" lon="16.390793824258463"><ele>881.0</ele><time>2026-04-12T12:22:01Z</time></trkpt><trkpt lat="38.75222827310982" lon="16.390619009850568"><ele>881.0</ele><time>2026-04-12T12:22:02Z</time></trkpt><trkpt lat="38.752155637185766" lon="16.390444913275218"><ele>881.0</ele><time>2026-04-12T12:22:03Z</time></trkpt><trkpt lat="38.7520897545133" lon="16.390257456393883"><ele>881.3333333333334</ele><time>2026-04-12T12:22:04Z</time></trkpt><trkpt lat="38.75198780009414" lon="16.39007280300517"><ele>881.6666666666667</ele><time>2026-04-12T12:22:05Z</time></trkpt><trkpt lat="38.75189928556575" lon="16.389885954673137"><ele>882.0</ele><time>2026-04-12T12:22:06Z</time></trkpt><trkpt lat="38.75180041226576" lon="16.389710918927616"><ele>878.6666666666667</ele><time>2026-04-12T12:22:07Z</time></trkpt><trkpt lat="38.75171992732332" lon="16.38953197928484"><ele>875.3333333333334</ele><time>2026-04-12T12:22:08Z</time></trkpt><trkpt lat="38.75163375738908" lon="16.389363414094294"><ele>872.0</ele><time>2026-04-12T12:22:09Z</time></trkpt><trkpt lat="38.75153662016162" lon="16.389200321571654"><ele>872.0</ele><time>2026-04-12T12:22:10Z</time></trkpt><trkpt lat="38.75143926645973" lon="16.389071233713697"><ele>872.0</ele><time>2026-04-12T12:22:11Z</time></trkpt><trkpt lat="38.75133402064985" lon="16.388970988205504"><ele>872.0</ele><time>2026-04-12T12:22:12Z</time></trkpt><trkpt lat="38.75123914741127" lon="16.388875822430013"><ele>872.0</ele><time>2026-04-12T12:22:13Z</time></trkpt><trkpt lat="38.75116893122436" lon="16.388769300285908"><ele>872.3333333333334</ele><time>2026-04-12T12:22:14Z</time></trkpt><trkpt lat="38.75111016436703" lon="16.3886907386929"><ele>872.6666666666667</ele><time>2026-04-12T12:22:15Z</time></trkpt><trkpt lat="38.75105614801878" lon="16.388645919190505"><ele>873.0</ele><time>2026-04-12T12:22:16Z</time></trkpt><trkpt lat="38.75102013213339" lon="16.38852608324082"><ele>873.3333333333333</ele><time>2026-04-12T12:22:18Z</time></trkpt><trkpt lat="38.750993314778206" lon="16.38844034364764"><ele>873.6666666666666</ele><time>2026-04-12T12:22:40Z</time></trkpt><trkpt lat="38.75097545445292" lon="16.388286645997294"><ele>874.0</ele><time>2026-04-12T12:22:42Z</time></trkpt><trkpt lat="38.750967345100804" lon="16.388176805944703"><ele>874.0</ele><time>2026-04-12T12:22:43Z</time></trkpt><trkpt lat="38.75095979794934" lon="16.388051731583438"><ele>874.0</ele><time>2026-04-12T12:22:44Z</time></trkpt><trkpt lat="38.75094971612008" lon="16.387909660844933"><ele>874.0</ele><time>2026-04-12T12:22:45Z</time></trkpt><trkpt lat="38.75093725185705" lon="16.387760857556223"><ele>874.0</ele><time>2026-04-12T12:22:46Z</time></trkpt><trkpt lat="38.75092437255589" lon="16.38759969611423"><ele>872.5</ele><time>2026-04-12T12:22:47Z</time></trkpt><trkpt lat="38.750914456762594" lon="16.38744806669834"><ele>871.0</ele><time>2026-04-12T12:22:48Z</time></trkpt><trkpt lat="38.75090424081643" lon="16.38729821291265"><ele>869.5</ele><time>2026-04-12T12:22:49Z</time></trkpt><trkpt lat="38.75089684408605" lon="16.38715114371379"><ele>868.0</ele><time>2026-04-12T12:22:50Z</time></trkpt><trkpt lat="38.750889645732286" lon="16.387004518422636"><ele>868.0</ele><time>2026-04-12T12:22:51Z</time></trkpt><trkpt lat="38.750878423399264" lon="16.38685286315084"><ele>868.0</ele><time>2026-04-12T12:22:52Z</time></trkpt><trkpt lat="38.750867491139495" lon="16.386703530825883"><ele>868.0</ele><time>2026-04-12T12:22:53Z</time></trkpt><trkpt lat="38.750858121596956" lon="16.386558109223905"><ele>868.0</ele><time>2026-04-12T12:22:54Z</time></trkpt><trkpt lat="38.75084401452412" lon="16.38641831091765"><ele>868.4</ele><time>2026-04-12T12:22:55Z</time></trkpt><trkpt lat="38.750849270285485" lon="16.386282051432733"><ele>868.8</ele><time>2026-04-12T12:22:56Z</time></trkpt><trkpt lat="38.750824911499485" lon="16.38615143609301"><ele>869.2</ele><time>2026-04-12T12:22:57Z</time></trkpt><trkpt lat="38.75077857114468" lon="16.3860383027482"><ele>869.6</ele><time>2026-04-12T12:22:58Z</time></trkpt><trkpt lat="38.75068786063887" lon="16.385944321756945"><ele>870.0</ele><time>2026-04-12T12:22:59Z</time></trkpt><trkpt lat="38.750603563234165" lon="16.385884297898688"><ele>870.0</ele><time>2026-04-12T12:23:00Z</time></trkpt><trkpt lat="38.750512865009824" lon="16.385830912447744"><ele>870.0</ele><time>2026-04-12T12:23:01Z</time></trkpt><trkpt lat="38.75042729223675" lon="16.385776091167074"><ele>870.0</ele><time>2026-04-12T12:23:02Z</time></trkpt><trkpt lat="38.75032928674102" lon="16.38569771571846"><ele>870.0</ele><time>2026-04-12T12:23:03Z</time></trkpt><trkpt lat="38.75029004486111" lon="16.38553711672695"><ele>870.0</ele><time>2026-04-12T12:23:04Z</time></trkpt><trkpt lat="38.75029339432186" lon="16.38538069822142"><ele>868.25</ele><time>2026-04-12T12:23:05Z</time></trkpt><trkpt lat="38.750317625973295" lon="16.38520144277002"><ele>866.5</ele><time>2026-04-12T12:23:06Z</time></trkpt><trkpt lat="38.750289037686045" lon="16.385011875287642"><ele>864.75</ele><time>2026-04-12T12:23:07Z</time></trkpt><trkpt lat="38.75026972474177" lon="16.384889961864825"><ele>863.0</ele><time>2026-04-12T12:23:08Z</time></trkpt><trkpt lat="38.75026037122045" lon="16.38478465906158"><ele>863.5999999999999</ele><time>2026-04-12T12:23:09Z</time></trkpt><trkpt lat="38.750299936539875" lon="16.384661465093686"><ele>864.1999999999999</ele><time>2026-04-12T12:23:10Z</time></trkpt><trkpt lat="38.750372925743186" lon="16.384616458155254"><ele>864.8</ele><time>2026-04-12T12:23:11Z</time></trkpt><trkpt lat="38.750450624743934" lon="16.384528929287754"><ele>865.4</ele><time>2026-04-12T12:23:12Z</time></trkpt><trkpt lat="38.75052396883131" lon="16.384401570301403"><ele>866.0</ele><time>2026-04-12T12:23:13Z</time></trkpt><trkpt lat="38.75059519054155" lon="16.384241216781927"><ele>866.0</ele><time>2026-04-12T12:23:14Z</time></trkpt><trkpt lat="38.750663985145216" lon="16.384071139425277"><ele>866.0</ele><time>2026-04-12T12:23:15Z</time></trkpt><trkpt lat="38.7507318330225" lon="16.383893929000692"><ele>866.0</ele><time>2026-04-12T12:23:16Z</time></trkpt><trkpt lat="38.75079733486487" lon="16.383722846138266"><ele>866.75</ele><time>2026-04-12T12:23:17Z</time></trkpt><trkpt lat="38.75084432635716" lon="16.383554205688252"><ele>867.5</ele><time>2026-04-12T12:23:18Z</time></trkpt><trkpt lat="38.7509099022245" lon="16.383381971671973"><ele>868.25</ele><time>2026-04-12T12:23:19Z</time></trkpt><trkpt lat="38.75097790521999" lon="16.38320971458031"><ele>869.0</ele><time>2026-04-12T12:23:20Z</time></trkpt><trkpt lat="38.75104856130639" lon="16.38303494655485"><ele>871.3333333333334</ele><time>2026-04-12T12:23:21Z</time></trkpt><trkpt lat="38.75112280422143" lon="16.38285372647391"><ele>873.6666666666667</ele><time>2026-04-12T12:23:22Z</time></trkpt><trkpt lat="38.75119229803222" lon="16.38267328770271"><ele>876.0</ele><time>2026-04-12T12:23:23Z</time></trkpt><trkpt lat="38.75126789411561" lon="16.382489579295687"><ele>876.0</ele><time>2026-04-12T12:23:24Z</time></trkpt><trkpt lat="38.75132921382772" lon="16.38231755249408"><ele>876.0</ele><time>2026-04-12T12:23:25Z</time></trkpt><trkpt lat="38.75138654664856" lon="16.382160169253737"><ele>876.0</ele><time>2026-04-12T12:23:26Z</time></trkpt><trkpt lat="38.7514467723773" lon="16.382005097691277"><ele>876.0</ele><time>2026-04-12T12:23:27Z</time></trkpt><trkpt lat="38.751506777974974" lon="16.381869661379216"><ele>876.4</ele><time>2026-04-12T12:23:28Z</time></trkpt><trkpt lat="38.7515684119106" lon="16.381778517590245"><ele>876.8</ele><time>2026-04-12T12:23:29Z</time></trkpt><trkpt lat="38.751645425580506" lon="16.38175777636806"><ele>877.1999999999999</ele><time>2026-04-12T12:23:30Z</time></trkpt><trkpt lat="38.75173770540725" lon="16.381792988365827"><ele>877.5999999999999</ele><time>2026-04-12T12:23:31Z</time></trkpt><trkpt lat="38.75185676128864" lon="16.38180399354521"><ele>878.0</ele><time>2026-04-12T12:23:32Z</time></trkpt><trkpt lat="38.75201503649886" lon="16.38182468512641"><ele>879.6666666666667</ele><time>2026-04-12T12:23:33Z</time></trkpt><trkpt lat="38.752208606347246" lon="16.38184999083233"><ele>881.3333333333333</ele><time>2026-04-12T12:23:34Z</time></trkpt><trkpt lat="38.75235961833945" lon="16.38187575949926"><ele>883.0</ele><time>2026-04-12T12:23:35Z</time></trkpt><trkpt lat="38.75248753885532" lon="16.382228435376756"><ele>883.0</ele><time>2026-04-12T12:23:36Z</time></trkpt><trkpt lat="38.75265154083509" lon="16.382332508515628"><ele>883.0</ele><time>2026-04-12T12:23:37Z</time></trkpt><trkpt lat="38.752832967336936" lon="16.38241018470922"><ele>883.0</ele><time>2026-04-12T12:23:38Z</time></trkpt><trkpt lat="38.75299673459253" lon="16.382498224906342"><ele>886.0</ele><time>2026-04-12T12:23:39Z</time></trkpt><trkpt lat="38.75316026052515" lon="16.38256197778077"><ele>889.0</ele><time>2026-04-12T12:23:40Z</time></trkpt><trkpt lat="38.753330314030926" lon="16.38259872057787"><ele>892.0</ele><time>2026-04-12T12:23:41Z</time></trkpt><trkpt lat="38.75349789705958" lon="16.382620397886818"><ele>893.0</ele><time>2026-04-12T12:23:42Z</time></trkpt><trkpt lat="38.75364588147724" lon="16.382640306764333"><ele>894.0</ele><time>2026-04-12T12:23:43Z</time></trkpt><trkpt lat="38.75378143905323" lon="16.38276595296753"><ele>895.0</ele><time>2026-04-12T12:23:44Z</time></trkpt><trkpt lat="38.75391280333807" lon="16.382873403200563"><ele>895.0</ele><time>2026-04-12T12:23:45Z</time></trkpt><trkpt lat="38.75405046183118" lon="16.382910680730674"><ele>895.0</ele><time>2026-04-12T12:23:46Z</time></trkpt><trkpt lat="38.75418919243804" lon="16.382909019891823"><ele>895.0</ele><time>2026-04-12T12:23:47Z</time></trkpt><trkpt lat="38.75432668579865" lon="16.382879381045182"><ele>895.0</ele><time>2026-04-12T12:23:48Z</time></trkpt><trkpt lat="38.75444936096391" lon="16.38279054352626"><ele>895.0</ele><time>2026-04-12T12:23:49Z</time></trkpt><trkpt lat="38.75453697370689" lon="16.38265361135594"><ele>895.0</ele><time>2026-04-12T12:23:50Z</time></trkpt><trkpt lat="38.75457921969155" lon="16.382501458277634"><ele>895.0</ele><time>2026-04-12T12:23:51Z</time></trkpt><trkpt lat="38.754587275267724" lon="16.38232219261019"><ele>895.0</ele><time>2026-04-12T12:23:52Z</time></trkpt><trkpt lat="38.75457313914025" lon="16.382140377584197"><ele>895.0</ele><time>2026-04-12T12:23:53Z</time></trkpt><trkpt lat="38.754531127735156" lon="16.38197505735223"><ele>895.0</ele><time>2026-04-12T12:23:54Z</time></trkpt><trkpt lat="38.75446446561218" lon="16.38182674297079"><ele>895.0</ele><time>2026-04-12T12:23:55Z</time></trkpt><trkpt lat="38.75438725924161" lon="16.381688814523972"><ele>895.0</ele><time>2026-04-12T12:23:56Z</time></trkpt><trkpt lat="38.75431022263841" lon="16.381556002996778"><ele>897.4</ele><time>2026-04-12T12:23:57Z</time></trkpt><trkpt lat="38.754242539041556" lon="16.381433229521775"><ele>899.8</ele><time>2026-04-12T12:23:58Z</time></trkpt><trkpt lat="38.75418687747976" lon="16.381309477667536"><ele>902.2</ele><time>2026-04-12T12:23:59Z</time></trkpt><trkpt lat="38.754143999910674" lon="16.381192301609033"><ele>904.6</ele><time>2026-04-12T12:24:00Z</time></trkpt><trkpt lat="38.75414257433639" lon="16.381047606462655"><ele>907.0</ele><time>2026-04-12T12:24:01Z</time></trkpt><trkpt lat="38.75417543325049" lon="16.380901348786832"><ele>908.5</ele><time>2026-04-12T12:24:02Z</time></trkpt><trkpt lat="38.75423480351812" lon="16.380767838267687"><ele>910.0</ele><time>2026-04-12T12:24:03Z</time></trkpt><trkpt lat="38.754308743951945" lon="16.380631752434233"><ele>911.5</ele><time>2026-04-12T12:24:04Z</time></trkpt><trkpt lat="38.75439373310213" lon="16.380503175791983"><ele>913.0</ele><time>2026-04-12T12:24:05Z</time></trkpt><trkpt lat="38.75449253821153" lon="16.38041086531732"><ele>915.25</ele><time>2026-04-12T12:24:06Z</time></trkpt><trkpt lat="38.75462414021421" lon="16.380360122859596"><ele>917.5</ele><time>2026-04-12T12:24:07Z</time></trkpt><trkpt lat="38.754755317687334" lon="16.380319722994834"><ele>919.75</ele><time>2026-04-12T12:24:08Z</time></trkpt><trkpt lat="38.754897421076606" lon="16.380281523566133"><ele>922.0</ele><time>2026-04-12T12:24:09Z</time></trkpt><trkpt lat="38.75503949782642" lon="16.38022555085285"><ele>922.0</ele><time>2026-04-12T12:24:10Z</time></trkpt><trkpt lat="38.75515966939156" lon="16.380133455293073"><ele>922.0</ele><time>2026-04-12T12:24:11Z</time></trkpt><trkpt lat="38.755259912916216" lon="16.379993313723"><ele>922.0</ele><time>2026-04-12T12:24:12Z</time></trkpt><trkpt lat="38.75532870278088" lon="16.379807680125477"><ele>922.0</ele><time>2026-04-12T12:24:13Z</time></trkpt><trkpt lat="38.7553962076336" lon="16.379620351292257"><ele>922.0</ele><time>2026-04-12T12:24:14Z</time></trkpt><trkpt lat="38.75545221399269" lon="16.379426916570008"><ele>922.0</ele><time>2026-04-12T12:24:15Z</time></trkpt><trkpt lat="38.75550872534911" lon="16.379245314672403"><ele>922.0</ele><time>2026-04-12T12:24:16Z</time></trkpt><trkpt lat="38.75557310453876" lon="16.379070411184028"><ele>922.0</ele><time>2026-04-12T12:24:17Z</time></trkpt><trkpt lat="38.755629204279984" lon="16.37890275173612"><ele>922.0</ele><time>2026-04-12T12:24:18Z</time></trkpt><trkpt lat="38.75567653635552" lon="16.378717916470833"><ele>922.0</ele><time>2026-04-12T12:24:19Z</time></trkpt><trkpt lat="38.75571782926831" lon="16.37853632639657"><ele>922.0</ele><time>2026-04-12T12:24:20Z</time></trkpt><trkpt lat="38.75574410801424" lon="16.37835038291365"><ele>925.0</ele><time>2026-04-12T12:24:21Z</time></trkpt><trkpt lat="38.755770095095194" lon="16.378201665553476"><ele>928.0</ele><time>2026-04-12T12:24:22Z</time></trkpt><trkpt lat="38.75579484495522" lon="16.378061638854234"><ele>931.0</ele><time>2026-04-12T12:24:23Z</time></trkpt><trkpt lat="38.755844226123344" lon="16.377935836235114"><ele>934.0</ele><time>2026-04-12T12:24:24Z</time></trkpt><trkpt lat="38.75591731392842" lon="16.377812893225066"><ele>936.25</ele><time>2026-04-12T12:24:25Z</time></trkpt><trkpt lat="38.75601663485893" lon="16.37772911860926"><ele>938.5</ele><time>2026-04-12T12:24:26Z</time></trkpt><trkpt lat="38.7561531824007" lon="16.377688718176405"><ele>940.75</ele><time>2026-04-12T12:24:27Z</time></trkpt><trkpt lat="38.75628318481729" lon="16.37770291021964"><ele>943.0</ele><time>2026-04-12T12:24:28Z</time></trkpt><trkpt lat="38.75641479869705" lon="16.377735256946746"><ele>943.0</ele><time>2026-04-12T12:24:29Z</time></trkpt><trkpt lat="38.75654051054699" lon="16.37771452655944"><ele>943.0</ele><time>2026-04-12T12:24:30Z</time></trkpt><trkpt lat="38.75664905308113" lon="16.377607655675718"><ele>943.0</ele><time>2026-04-12T12:24:31Z</time></trkpt><trkpt lat="38.756767152468676" lon="16.37748981712448"><ele>943.0</ele><time>2026-04-12T12:24:32Z</time></trkpt><trkpt lat="38.75687772848271" lon="16.37734842927512"><ele>942.0</ele><time>2026-04-12T12:24:33Z</time></trkpt><trkpt lat="38.756974743642935" lon="16.37718863172179"><ele>941.0</ele><time>2026-04-12T12:24:34Z</time></trkpt><trkpt lat="38.75705460632771" lon="16.376971080288598"><ele>940.0</ele><time>2026-04-12T12:24:35Z</time></trkpt><trkpt lat="38.757138584395385" lon="16.376784749293705"><ele>940.0</ele><time>2026-04-12T12:24:36Z</time></trkpt><trkpt lat="38.75721685103204" lon="16.37661269511388"><ele>940.0</ele><time>2026-04-12T12:24:37Z</time></trkpt><trkpt lat="38.757296779800484" lon="16.376440421402645"><ele>940.0</ele><time>2026-04-12T12:24:38Z</time></trkpt><trkpt lat="38.75737034656272" lon="16.376280988475788"><ele>940.0</ele><time>2026-04-12T12:24:39Z</time></trkpt><trkpt lat="38.75742238338649" lon="16.37613018669306"><ele>940.0</ele><time>2026-04-12T12:24:40Z</time></trkpt><trkpt lat="38.75743270534835" lon="16.37595787573941"><ele>940.0</ele><time>2026-04-12T12:24:41Z</time></trkpt><trkpt lat="38.75741159342205" lon="16.375789372533355"><ele>940.0</ele><time>2026-04-12T12:24:42Z</time></trkpt><trkpt lat="38.75739673075113" lon="16.375628563212892"><ele>938.75</ele><time>2026-04-12T12:24:43Z</time></trkpt><trkpt lat="38.75734736544447" lon="16.375457356930152"><ele>937.5</ele><time>2026-04-12T12:24:44Z</time></trkpt><trkpt lat="38.75727629318254" lon="16.375303096656893"><ele>936.25</ele><time>2026-04-12T12:24:45Z</time></trkpt><trkpt lat="38.75715570687538" lon="16.37516311745965"><ele>935.0</ele><time>2026-04-12T12:24:46Z</time></trkpt><trkpt lat="38.75705042691036" lon="16.37506746479203"><ele>935.0</ele><time>2026-04-12T12:24:47Z</time></trkpt><trkpt lat="38.75696499565806" lon="16.374959837844195"><ele>935.0</ele><time>2026-04-12T12:24:48Z</time></trkpt><trkpt lat="38.75691728163852" lon="16.37482692625092"><ele>935.0</ele><time>2026-04-12T12:24:49Z</time></trkpt><trkpt lat="38.75690278142138" lon="16.374700632637865"><ele>935.0</ele><time>2026-04-12T12:24:50Z</time></trkpt><trkpt lat="38.75692892881178" lon="16.37457192202953"><ele>935.0</ele><time>2026-04-12T12:24:51Z</time></trkpt><trkpt lat="38.75699827027379" lon="16.3744835785665"><ele>935.0</ele><time>2026-04-12T12:24:52Z</time></trkpt><trkpt lat="38.75708871180384" lon="16.37443176420145"><ele>935.0</ele><time>2026-04-12T12:24:53Z</time></trkpt><trkpt lat="38.75719403583774" lon="16.37439443254495"><ele>935.0</ele><time>2026-04-12T12:24:54Z</time></trkpt><trkpt lat="38.757283929123034" lon="16.374293026571603"><ele>935.0</ele><time>2026-04-12T12:24:55Z</time></trkpt><trkpt lat="38.757355374329485" lon="16.374156194234995"><ele>935.0</ele><time>2026-04-12T12:24:56Z</time></trkpt><trkpt lat="38.75739228540003" lon="16.37400171448491"><ele>935.0</ele><time>2026-04-12T12:24:57Z</time></trkpt><trkpt lat="38.757409066097374" lon="16.373832145779296"><ele>935.0</ele><time>2026-04-12T12:24:58Z</time></trkpt><trkpt lat="38.75739700461115" lon="16.373675220204046"><ele>935.0</ele><time>2026-04-12T12:24:59Z</time></trkpt><trkpt lat="38.75733233433877" lon="16.37351863784745"><ele>935.25</ele><time>2026-04-12T12:25:00Z</time></trkpt><trkpt lat="38.75726233524739" lon="16.37338162168305"><ele>935.5</ele><time>2026-04-12T12:25:01Z</time></trkpt><trkpt lat="38.75720536486213" lon="16.37323946351678"><ele>935.75</ele><time>2026-04-12T12:25:02Z</time></trkpt><trkpt lat="38.75714622770356" lon="16.37310188778798"><ele>936.0</ele><time>2026-04-12T12:25:03Z</time></trkpt><trkpt lat="38.757112123500285" lon="16.37296321869975"><ele>936.5999999999999</ele><time>2026-04-12T12:25:04Z</time></trkpt><trkpt lat="38.757104591913645" lon="16.372813347611395"><ele>937.1999999999999</ele><time>2026-04-12T12:25:05Z</time></trkpt><trkpt lat="38.7571384521864" lon="16.372680408913048"><ele>937.8000000000001</ele><time>2026-04-12T12:25:06Z</time></trkpt><trkpt lat="38.757200497897955" lon="16.372591143829915"><ele>938.4000000000001</ele><time>2026-04-12T12:25:07Z</time></trkpt><trkpt lat="38.75728955572773" lon="16.372539066631912"><ele>939.0</ele><time>2026-04-12T12:25:08Z</time></trkpt><trkpt lat="38.75738773251818" lon="16.372525965833056"><ele>939.0</ele><time>2026-04-12T12:25:09Z</time></trkpt><trkpt lat="38.757466174774315" lon="16.372597660658815"><ele>939.0</ele><time>2026-04-12T12:25:10Z</time></trkpt><trkpt lat="38.7575579311295" lon="16.372731426094017"><ele>939.0</ele><time>2026-04-12T12:25:11Z</time></trkpt><trkpt lat="38.757657677871485" lon="16.37287320076962"><ele>939.0</ele><time>2026-04-12T12:25:12Z</time></trkpt><trkpt lat="38.75774267269965" lon="16.372998046791515"><ele>934.75</ele><time>2026-04-12T12:25:13Z</time></trkpt><trkpt lat="38.757834368646655" lon="16.37312602199359"><ele>930.5</ele><time>2026-04-12T12:25:14Z</time></trkpt><trkpt lat="38.75791422019897" lon="16.37324432412731"><ele>926.25</ele><time>2026-04-12T12:25:15Z</time></trkpt><trkpt lat="38.75799969791001" lon="16.37335822010324"><ele>922.0</ele><time>2026-04-12T12:25:16Z</time></trkpt><trkpt lat="38.7580965868795" lon="16.373460943130606"><ele>922.0</ele><time>2026-04-12T12:25:17Z</time></trkpt><trkpt lat="38.75819046208426" lon="16.373542152109092"><ele>922.0</ele><time>2026-04-12T12:25:18Z</time></trkpt><trkpt lat="38.75828490011562" lon="16.37357934079838"><ele>922.0</ele><time>2026-04-12T12:25:19Z</time></trkpt><trkpt lat="38.75837885957454" lon="16.373588513734507"><ele>922.0</ele><time>2026-04-12T12:25:20Z</time></trkpt><trkpt lat="38.75845603325837" lon="16.373535765125535"><ele>922.0</ele><time>2026-04-12T12:25:21Z</time></trkpt><trkpt lat="38.75851883569969" lon="16.37343306540404"><ele>921.2</ele><time>2026-04-12T12:25:22Z</time></trkpt><trkpt lat="38.75853654827817" lon="16.373301822329562"><ele>920.4000000000001</ele><time>2026-04-12T12:25:23Z</time></trkpt><trkpt lat="38.75853647301014" lon="16.37315165057744"><ele>919.5999999999999</ele><time>2026-04-12T12:25:24Z</time></trkpt><trkpt lat="38.75856259587006" lon="16.373041879308204"><ele>918.8</ele><time>2026-04-12T12:25:25Z</time></trkpt><trkpt lat="38.758624857911975" lon="16.372937128385622"><ele>918.0</ele><time>2026-04-12T12:25:26Z</time></trkpt><trkpt lat="38.758733475541995" lon="16.372902417890298"><ele>918.0</ele><time>2026-04-12T12:25:27Z</time></trkpt><trkpt lat="38.75885909311688" lon="16.37286654787332"><ele>918.0</ele><time>2026-04-12T12:25:28Z</time></trkpt><trkpt lat="38.758972398046545" lon="16.372808010919368"><ele>918.0</ele><time>2026-04-12T12:25:29Z</time></trkpt><trkpt lat="38.759072916159155" lon="16.372743528728712"><ele>918.0</ele><time>2026-04-12T12:25:30Z</time></trkpt><trkpt lat="38.75918234034486" lon="16.372712810802415"><ele>918.0</ele><time>2026-04-12T12:25:31Z</time></trkpt><trkpt lat="38.75931464073311" lon="16.372719092864074"><ele>918.0</ele><time>2026-04-12T12:25:32Z</time></trkpt><trkpt lat="38.759463245967154" lon="16.372738480531986"><ele>918.0</ele><time>2026-04-12T12:25:33Z</time></trkpt><trkpt lat="38.75960639170416" lon="16.372749841654933"><ele>918.0</ele><time>2026-04-12T12:25:34Z</time></trkpt><trkpt lat="38.75974796817797" lon="16.372743602229885"><ele>913.5</ele><time>2026-04-12T12:25:35Z</time></trkpt><trkpt lat="38.759881064425414" lon="16.372709447539044"><ele>909.0</ele><time>2026-04-12T12:25:36Z</time></trkpt><trkpt lat="38.760022041480156" lon="16.372662385056174"><ele>904.5</ele><time>2026-04-12T12:25:37Z</time></trkpt><trkpt lat="38.76016640012005" lon="16.372605365519693"><ele>900.0</ele><time>2026-04-12T12:25:38Z</time></trkpt><trkpt lat="38.760325571934224" lon="16.372561790305163"><ele>896.3333333333333</ele><time>2026-04-12T12:25:39Z</time></trkpt><trkpt lat="38.76048854934586" lon="16.37251314230587"><ele>892.6666666666666</ele><time>2026-04-12T12:25:40Z</time></trkpt><trkpt lat="38.7606397999597" lon="16.372463827366637"><ele>889.0</ele><time>2026-04-12T12:25:41Z</time></trkpt><trkpt lat="38.76078522513247" lon="16.372417331780778"><ele>889.0</ele><time>2026-04-12T12:25:42Z</time></trkpt><trkpt lat="38.760924848025724" lon="16.372366063432764"><ele>889.0</ele><time>2026-04-12T12:25:43Z</time></trkpt><trkpt lat="38.76104630426968" lon="16.372306105480526"><ele>889.0</ele><time>2026-04-12T12:25:44Z</time></trkpt><trkpt lat="38.76114727598389" lon="16.372217688817894"><ele>889.0</ele><time>2026-04-12T12:25:45Z</time></trkpt><trkpt lat="38.76120765811803" lon="16.372089720737836"><ele>886.0</ele><time>2026-04-12T12:25:46Z</time></trkpt><trkpt lat="38.76123864584379" lon="16.37193990125244"><ele>883.0</ele><time>2026-04-12T12:25:47Z</time></trkpt><trkpt lat="38.7612213921791" lon="16.37177381219996"><ele>880.0</ele><time>2026-04-12T12:25:48Z</time></trkpt><trkpt lat="38.76116237375296" lon="16.371635293960512"><ele>877.0</ele><time>2026-04-12T12:25:49Z</time></trkpt><trkpt lat="38.76113564156119" lon="16.371475330589547"><ele>875.75</ele><time>2026-04-12T12:25:50Z</time></trkpt><trkpt lat="38.76115255426268" lon="16.37130423756503"><ele>874.5</ele><time>2026-04-12T12:25:51Z</time></trkpt><trkpt lat="38.76120314353833" lon="16.371138905635174"><ele>873.25</ele><time>2026-04-12T12:25:52Z</time></trkpt><trkpt lat="38.76124587590745" lon="16.370986771972092"><ele>872.0</ele><time>2026-04-12T12:25:53Z</time></trkpt><trkpt lat="38.76128737529492" lon="16.37083725052148"><ele>872.0</ele><time>2026-04-12T12:25:54Z</time></trkpt><trkpt lat="38.761297477644085" lon="16.370672525606345"><ele>872.0</ele><time>2026-04-12T12:25:55Z</time></trkpt><trkpt lat="38.761278505347114" lon="16.370500786556537"><ele>872.0</ele><time>2026-04-12T12:25:56Z</time></trkpt><trkpt lat="38.7612441847699" lon="16.37034912782781"><ele>872.0</ele><time>2026-04-12T12:25:57Z</time></trkpt><trkpt lat="38.76125027061006" lon="16.37017644087333"><ele>872.0</ele><time>2026-04-12T12:25:58Z</time></trkpt><trkpt lat="38.761277286519196" lon="16.369994812032182"><ele>872.0</ele><time>2026-04-12T12:25:59Z</time></trkpt><trkpt lat="38.761321726541475" lon="16.369852935882363"><ele>872.0</ele><time>2026-04-12T12:26:00Z</time></trkpt><trkpt lat="38.761381619249455" lon="16.369738238393506"><ele>872.0</ele><time>2026-04-12T12:26:01Z</time></trkpt><trkpt lat="38.76149275218921" lon="16.369630671948038"><ele>873.75</ele><time>2026-04-12T12:26:02Z</time></trkpt><trkpt lat="38.7616168851504" lon="16.369543072334704"><ele>875.5</ele><time>2026-04-12T12:26:03Z</time></trkpt><trkpt lat="38.76172933952762" lon="16.369459305252057"><ele>877.25</ele><time>2026-04-12T12:26:04Z</time></trkpt><trkpt lat="38.76183255370128" lon="16.369368488642003"><ele>879.0</ele><time>2026-04-12T12:26:05Z</time></trkpt><trkpt lat="38.761885940237995" lon="16.369241867486654"><ele>873.75</ele><time>2026-04-12T12:26:06Z</time></trkpt><trkpt lat="38.76196700635286" lon="16.369122028724206"><ele>868.5</ele><time>2026-04-12T12:26:07Z</time></trkpt><trkpt lat="38.76202828396072" lon="16.368977072808747"><ele>863.25</ele><time>2026-04-12T12:26:08Z</time></trkpt><trkpt lat="38.76204002654552" lon="16.36879451505479"><ele>858.0</ele><time>2026-04-12T12:26:09Z</time></trkpt><trkpt lat="38.7619959314251" lon="16.368602308718632"><ele>858.0</ele><time>2026-04-12T12:26:10Z</time></trkpt><trkpt lat="38.761975371174614" lon="16.36839580868555"><ele>858.0</ele><time>2026-04-12T12:26:11Z</time></trkpt><trkpt lat="38.76194945508702" lon="16.368156132739863"><ele>858.0</ele><time>2026-04-12T12:26:12Z</time></trkpt><trkpt lat="38.76192485746452" lon="16.367975835386837"><ele>859.0</ele><time>2026-04-12T12:26:13Z</time></trkpt><trkpt lat="38.76189349983477" lon="16.367783485957208"><ele>860.0</ele><time>2026-04-12T12:26:14Z</time></trkpt><trkpt lat="38.7618817475956" lon="16.367592925937302"><ele>861.0</ele><time>2026-04-12T12:26:15Z</time></trkpt><trkpt lat="38.76187154384122" lon="16.367417027701826"><ele>862.0</ele><time>2026-04-12T12:26:16Z</time></trkpt><trkpt lat="38.76185655752422" lon="16.36723462117713"><ele>867.0</ele><time>2026-04-12T12:26:17Z</time></trkpt><trkpt lat="38.761837360824515" lon="16.367045085045575"><ele>872.0</ele><time>2026-04-12T12:26:18Z</time></trkpt><trkpt lat="38.76180445610269" lon="16.36684532622312"><ele>877.0</ele><time>2026-04-12T12:26:19Z</time></trkpt><trkpt lat="38.7617706679119" lon="16.366639464374302"><ele>877.0</ele><time>2026-04-12T12:26:20Z</time></trkpt><trkpt lat="38.76173337565454" lon="16.366429559245216"><ele>877.0</ele><time>2026-04-12T12:26:21Z</time></trkpt><trkpt lat="38.76169649926006" lon="16.366217669797084"><ele>877.0</ele><time>2026-04-12T12:26:22Z</time></trkpt><trkpt lat="38.761662491211546" lon="16.366013874948578"><ele>875.75</ele><time>2026-04-12T12:26:23Z</time></trkpt><trkpt lat="38.76163216735143" lon="16.365826907515405"><ele>874.5</ele><time>2026-04-12T12:26:24Z</time></trkpt><trkpt lat="38.7616028177452" lon="16.365651232380376"><ele>873.25</ele><time>2026-04-12T12:26:25Z</time></trkpt><trkpt lat="38.76157129954927" lon="16.365489230270327"><ele>872.0</ele><time>2026-04-12T12:26:26Z</time></trkpt><trkpt lat="38.76154845200027" lon="16.365338681352156"><ele>871.5</ele><time>2026-04-12T12:26:27Z</time></trkpt><trkpt lat="38.76153393151563" lon="16.365211365399418"><ele>871.0</ele><time>2026-04-12T12:26:28Z</time></trkpt><trkpt lat="38.7615567330069" lon="16.365060428236603"><ele>870.5</ele><time>2026-04-12T12:26:29Z</time></trkpt><trkpt lat="38.76162604738777" lon="16.364907598883693"><ele>870.0</ele><time>2026-04-12T12:26:30Z</time></trkpt><trkpt lat="38.761728559202176" lon="16.36476291320483"><ele>870.75</ele><time>2026-04-12T12:26:31Z</time></trkpt><trkpt lat="38.761859555465506" lon="16.364629669527552"><ele>871.5</ele><time>2026-04-12T12:26:32Z</time></trkpt><trkpt lat="38.761962823641625" lon="16.364508984341356"><ele>872.25</ele><time>2026-04-12T12:26:33Z</time></trkpt><trkpt lat="38.76205287151319" lon="16.364392990360894"><ele>873.0</ele><time>2026-04-12T12:26:34Z</time></trkpt><trkpt lat="38.76213202150174" lon="16.364291349491616"><ele>873.4</ele><time>2026-04-12T12:26:35Z</time></trkpt><trkpt lat="38.76221049296002" lon="16.36419865912439"><ele>873.8</ele><time>2026-04-12T12:26:36Z</time></trkpt><trkpt lat="38.76229147010796" lon="16.364123353984287"><ele>874.2</ele><time>2026-04-12T12:26:37Z</time></trkpt><trkpt lat="38.762370733757685" lon="16.364056311863365"><ele>874.6</ele><time>2026-04-12T12:26:38Z</time></trkpt><trkpt lat="38.76244550768505" lon="16.36400143707944"><ele>875.0</ele><time>2026-04-12T12:26:39Z</time></trkpt><trkpt lat="38.76251232235984" lon="16.363972235830342"><ele>875.0000000000001</ele><time>2026-04-12T12:26:40Z</time></trkpt><trkpt lat="38.762576266304826" lon="16.36396614751834"><ele>875.0</ele><time>2026-04-12T12:26:41Z</time></trkpt><trkpt lat="38.762673436945505" lon="16.363992685361477"><ele>875.0</ele><time>2026-04-12T12:26:43Z</time></trkpt><trkpt lat="38.76274445693428" lon="16.364003494061738"><ele>875.0</ele><time>2026-04-12T12:26:45Z</time></trkpt><trkpt lat="38.76282722693005" lon="16.3639772650684"><ele>875.0000000000001</ele><time>2026-04-12T12:26:47Z</time></trkpt><trkpt lat="38.762889830609204" lon="16.363954127659984"><ele>875.0</ele><time>2026-04-12T12:26:49Z</time></trkpt><trkpt lat="38.762958458027455" lon="16.363956501442964"><ele>875.7142857142857</ele><time>2026-04-12T12:26:51Z</time></trkpt><trkpt lat="38.76302133154277" lon="16.363967789523887"><ele>876.4285714285714</ele><time>2026-04-12T12:26:53Z</time></trkpt><trkpt lat="38.76300493745495" lon="16.36387476055278"><ele>877.1428571428571</ele><time>2026-04-12T12:27:01Z</time></trkpt><trkpt lat="38.76298555907551" lon="16.363790871497454"><ele>877.8571428571429</ele><time>2026-04-12T12:28:02Z</time></trkpt><trkpt lat="38.76299238674989" lon="16.363885556811816"><ele>878.5714285714286</ele><time>2026-04-12T12:29:47Z</time></trkpt><trkpt lat="38.76298803770326" lon="16.36377691759917"><ele>879.2857142857142</ele><time>2026-04-12T12:29:53Z</time></trkpt><trkpt lat="38.76290778166547" lon="16.363794549402797"><ele>880.0</ele><time>2026-04-12T12:29:55Z</time></trkpt><trkpt lat="38.76296420037889" lon="16.36386723774818"><ele>879.9999999999999</ele><time>2026-04-12T12:30:17Z</time></trkpt><trkpt lat="38.76292727695403" lon="16.36374581373905"><ele>880.0</ele><time>2026-04-12T12:30:54Z</time></trkpt><trkpt lat="38.76291852055933" lon="16.363842546905737"><ele>880.0</ele><time>2026-04-12T12:31:08Z</time></trkpt><trkpt lat="38.762947103925995" lon="16.36391513193215"><ele>880.0</ele><time>2026-04-12T12:31:35Z</time></trkpt><trkpt lat="38.76293926683507" lon="16.363826671964464"><ele>879.9999999999999</ele><time>2026-04-12T12:31:39Z</time></trkpt><trkpt lat="38.762960143433475" lon="16.363731482270516"><ele>880.0</ele><time>2026-04-12T12:31:49Z</time></trkpt><trkpt lat="38.76291106679278" lon="16.363801398483304"><ele>880.0</ele><time>2026-04-12T12:31:53Z</time></trkpt><trkpt lat="38.76309986229888" lon="16.363832484946"><ele>880.0</ele><time>2026-04-12T12:34:12Z</time></trkpt><trkpt lat="38.76305898244795" lon="16.363985726686145"><ele>880.0</ele><time>2026-04-12T12:34:32Z</time></trkpt><trkpt lat="38.76291194939851" lon="16.36380211589596"><ele>880.0</ele><time>2026-04-12T12:34:36Z</time></trkpt><trkpt lat="38.76307857580643" lon="16.363883226355643"><ele>880.0</ele><time>2026-04-12T12:36:07Z</time></trkpt><trkpt lat="38.763219162254025" lon="16.363969770471606"><ele>880.0</ele><time>2026-04-12T12:36:08Z</time></trkpt><trkpt lat="38.76325550834178" lon="16.36404370630648"><ele>880.0</ele><time>2026-04-12T12:36:11Z</time></trkpt><trkpt lat="38.763095684629505" lon="16.364022880238036"><ele>879.9999999999999</ele><time>2026-04-12T12:36:22Z</time></trkpt><trkpt lat="38.7630815328158" lon="16.363927794406113"><ele>880.0</ele><time>2026-04-12T12:36:25Z</time></trkpt><trkpt lat="38.76302454984578" lon="16.363967668422667"><ele>880.0</ele><time>2026-04-12T12:37:11Z</time></trkpt><trkpt lat="38.762971123645634" lon="16.36390807151062"><ele>880.0</ele><time>2026-04-12T12:37:37Z</time></trkpt><trkpt lat="38.76291379149574" lon="16.363844265438896"><ele>880.0</ele><time>2026-04-12T12:37:47Z</time></trkpt><trkpt lat="38.762915129159275" lon="16.363760454021264"><ele>879.9999999999999</ele><time>2026-04-12T12:37:51Z</time></trkpt><trkpt lat="38.76291507516713" lon="16.363851798018388"><ele>880.0</ele><time>2026-04-12T12:38:22Z</time></trkpt><trkpt lat="38.762940849369265" lon="16.36397077659773"><ele>880.0</ele><time>2026-04-12T12:38:29Z</time></trkpt><trkpt lat="38.76301630024154" lon="16.3639332408445"><ele>880.0</ele><time>2026-04-12T12:38:56Z</time></trkpt><trkpt lat="38.763085464082764" lon="16.363805486863008"><ele>880.0</ele><time>2026-04-12T12:38:58Z</time></trkpt><trkpt lat="38.76306645446288" lon="16.36371293594371"><ele>880.0</ele><time>2026-04-12T12:39:00Z</time></trkpt><trkpt lat="38.76299284361058" lon="16.36379769670432"><ele>880.0</ele><time>2026-04-12T12:39:26Z</time></trkpt><trkpt lat="38.76303386663609" lon="16.363705638658544"><ele>881.4</ele><time>2026-04-12T12:53:42Z</time></trkpt><trkpt lat="38.76309577342383" lon="16.363664396899264"><ele>882.8</ele><time>2026-04-12T12:53:49Z</time></trkpt><trkpt lat="38.76311151314429" lon="16.36382921600376"><ele>884.2</ele><time>2026-04-12T13:07:39Z</time></trkpt><trkpt lat="38.76305984226021" lon="16.36369138207914"><ele>885.6</ele><time>2026-04-12T13:07:44Z</time></trkpt><trkpt lat="38.76311151314429" lon="16.36382921600376"><ele>887.0</ele><time>2026-04-12T13:07:51Z</time></trkpt><trkpt lat="38.76311302034322" lon="16.363670612193133"><ele>887.0000000000001</ele><time>2026-04-12T13:08:18Z</time></trkpt><trkpt lat="38.76303505489029" lon="16.36374841056928"><ele>887.0</ele><time>2026-04-12T13:32:54Z</time></trkpt><trkpt lat="38.76309204221843" lon="16.36366749286714"><ele>887.0</ele><time>2026-04-12T13:35:44Z</time></trkpt><trkpt lat="38.76306368660837" lon="16.363745887251696"><ele>887.0</ele><time>2026-04-12T13:35:54.02Z</time></trkpt><trkpt lat="38.76312882145294" lon="16.36379166988249"><ele>887.0000000000001</ele><time>2026-04-12T13:36:12Z</time></trkpt><trkpt lat="38.763070691436916" lon="16.363737551577792"><ele>887.0</ele><time>2026-04-12T13:38:38Z</time></trkpt><trkpt lat="38.763014429440716" lon="16.36379345371026"><ele>886.9999999999999</ele><time>2026-04-12T13:42:18Z</time></trkpt><trkpt lat="38.762978809508645" lon="16.36386432767527"><ele>887.0</ele><time>2026-04-12T13:47:47Z</time></trkpt><trkpt lat="38.7630073385346" lon="16.363786196724423"><ele>887.0</ele><time>2026-04-12T13:50:32Z</time></trkpt><trkpt lat="38.76297199984686" lon="16.36385990030872"><ele>887.0</ele><time>2026-04-12T13:54:33Z</time></trkpt><trkpt lat="38.76303233391715" lon="16.363914922546137"><ele>887.0</ele><time>2026-04-12T14:00:27Z</time></trkpt><trkpt lat="38.76295695474" lon="16.363942439598524"><ele>886.9999999999999</ele><time>2026-04-12T14:00:34Z</time></trkpt><trkpt lat="38.76288531039449" lon="16.363942539935014"><ele>887.0</ele><time>2026-04-12T14:00:51Z</time></trkpt><trkpt lat="38.76281825419306" lon="16.363960655616456"><ele>887.0</ele><time>2026-04-12T14:01:18Z</time></trkpt><trkpt lat="38.762744432191816" lon="16.363962099066367"><ele>887.0</ele><time>2026-04-12T14:01:24Z</time></trkpt><trkpt lat="38.76268119237425" lon="16.363870750019537"><ele>887.0</ele><time>2026-04-12T14:04:57Z</time></trkpt><trkpt lat="38.762697290969825" lon="16.363770395888846"><ele>887.0</ele><time>2026-04-12T14:05:00Z</time></trkpt><trkpt lat="38.762757079171685" lon="16.36367917698977"><ele>887.0</ele><time>2026-04-12T14:05:03Z</time></trkpt><trkpt lat="38.76283964191006" lon="16.363584772490018"><ele>887.0000000000001</ele><time>2026-04-12T14:05:05Z</time></trkpt><trkpt lat="38.76287755506474" lon="16.363511719358392"><ele>887.0</ele><time>2026-04-12T14:05:06Z</time></trkpt><trkpt lat="38.76291143762495" lon="16.363428018885656"><ele>887.0</ele><time>2026-04-12T14:05:07Z</time></trkpt><trkpt lat="38.762931804061104" lon="16.36333848653108"><ele>887.0</ele><time>2026-04-12T14:05:08Z</time></trkpt><trkpt lat="38.76294053322385" lon="16.363242387599694"><ele>887.0000000000001</ele><time>2026-04-12T14:05:09Z</time></trkpt><trkpt lat="38.76294152603405" lon="16.36313862460715"><ele>887.0</ele><time>2026-04-12T14:05:10Z</time></trkpt><trkpt lat="38.7629354308767" lon="16.36301552960801"><ele>887.8</ele><time>2026-04-12T14:05:11Z</time></trkpt><trkpt lat="38.762936797061215" lon="16.362889444671186"><ele>888.6</ele><time>2026-04-12T14:05:12Z</time></trkpt><trkpt lat="38.76294268613677" lon="16.362748543286436"><ele>889.3999999999999</ele><time>2026-04-12T14:05:13Z</time></trkpt><trkpt lat="38.76295498590714" lon="16.362601433419027"><ele>890.1999999999999</ele><time>2026-04-12T14:05:14Z</time></trkpt><trkpt lat="38.762970244834726" lon="16.362460597625674"><ele>891.0</ele><time>2026-04-12T14:05:15Z</time></trkpt><trkpt lat="38.763000837216765" lon="16.362347021070914"><ele>891.0</ele><time>2026-04-12T14:05:16Z</time></trkpt><trkpt lat="38.76301588344599" lon="16.362246038586473"><ele>891.0</ele><time>2026-04-12T14:05:17Z</time></trkpt><trkpt lat="38.76306071860946" lon="16.36214654274777"><ele>891.0</ele><time>2026-04-12T14:05:18Z</time></trkpt><trkpt lat="38.76307154316527" lon="16.36205010540686"><ele>891.0</ele><time>2026-04-12T14:05:19Z</time></trkpt><trkpt lat="38.76309652814954" lon="16.361940710419834"><ele>891.0</ele><time>2026-04-12T14:05:20Z</time></trkpt><trkpt lat="38.763115139733316" lon="16.36181931840975"><ele>891.0</ele><time>2026-04-12T14:05:21Z</time></trkpt><trkpt lat="38.763160383937326" lon="16.361689889582106"><ele>890.0</ele><time>2026-04-12T14:05:22Z</time></trkpt><trkpt lat="38.763220834896735" lon="16.361571218942636"><ele>888.9999999999999</ele><time>2026-04-12T14:05:23Z</time></trkpt><trkpt lat="38.763291712954064" lon="16.361461800754665"><ele>887.9999999999999</ele><time>2026-04-12T14:05:24Z</time></trkpt><trkpt lat="38.76337757090618" lon="16.361370852632263"><ele>887.0</ele><time>2026-04-12T14:05:25Z</time></trkpt><trkpt lat="38.763452944504365" lon="16.361282512802955"><ele>886.0</ele><time>2026-04-12T14:05:26Z</time></trkpt><trkpt lat="38.76352284179228" lon="16.361195946322606"><ele>886.0</ele><time>2026-04-12T14:05:27Z</time></trkpt><trkpt lat="38.76358149773846" lon="16.361084304709152"><ele>885.9999999999999</ele><time>2026-04-12T14:05:28Z</time></trkpt><trkpt lat="38.76367040322772" lon="16.360970387062682"><ele>885.9999999999999</ele><time>2026-04-12T14:05:29Z</time></trkpt><trkpt lat="38.76374291452716" lon="16.360865373200056"><ele>886.0</ele><time>2026-04-12T14:05:30Z</time></trkpt><trkpt lat="38.76380878644535" lon="16.360759323274777"><ele>886.0</ele><time>2026-04-12T14:05:31Z</time></trkpt><trkpt lat="38.76388517657436" lon="16.360665785037696"><ele>886.0</ele><time>2026-04-12T14:05:32Z</time></trkpt><trkpt lat="38.76394948143724" lon="16.36057118152544"><ele>885.9999999999999</ele><time>2026-04-12T14:05:33Z</time></trkpt><trkpt lat="38.76401106871891" lon="16.36046577806826"><ele>885.9999999999999</ele><time>2026-04-12T14:05:34Z</time></trkpt><trkpt lat="38.76408686552242" lon="16.360363099237176"><ele>886.0</ele><time>2026-04-12T14:05:35Z</time></trkpt><trkpt lat="38.76418630297051" lon="16.36027094962668"><ele>886.0</ele><time>2026-04-12T14:05:36Z</time></trkpt><trkpt lat="38.764293300708424" lon="16.36020674176806"><ele>885.0</ele><time>2026-04-12T14:05:37Z</time></trkpt><trkpt lat="38.764414547973" lon="16.360181868388008"><ele>884.0</ele><time>2026-04-12T14:05:38Z</time></trkpt><trkpt lat="38.764537630055116" lon="16.360146311196043"><ele>883.0</ele><time>2026-04-12T14:05:39Z</time></trkpt><trkpt lat="38.76466518339354" lon="16.360108755556553"><ele>882.0</ele><time>2026-04-12T14:05:40Z</time></trkpt><trkpt lat="38.764784765552264" lon="16.360074684591638"><ele>882.0</ele><time>2026-04-12T14:05:41Z</time></trkpt><trkpt lat="38.76490131912191" lon="16.360031812510194"><ele>882.0</ele><time>2026-04-12T14:05:42Z</time></trkpt><trkpt lat="38.76502284612076" lon="16.35999856495545"><ele>882.0</ele><time>2026-04-12T14:05:43Z</time></trkpt><trkpt lat="38.76515093702578" lon="16.35995360655433"><ele>882.0</ele><time>2026-04-12T14:05:44Z</time></trkpt><trkpt lat="38.7652750646451" lon="16.35992508269527"><ele>882.0</ele><time>2026-04-12T14:05:45Z</time></trkpt><trkpt lat="38.765395353363076" lon="16.3598509617354"><ele>882.0</ele><time>2026-04-12T14:05:46Z</time></trkpt><trkpt lat="38.765511243381745" lon="16.359761144484278"><ele>882.0</ele><time>2026-04-12T14:05:47Z</time></trkpt><trkpt lat="38.76562232443245" lon="16.359644597006554"><ele>882.0</ele><time>2026-04-12T14:05:48Z</time></trkpt><trkpt lat="38.765717384800745" lon="16.359531808171457"><ele>882.0</ele><time>2026-04-12T14:05:49Z</time></trkpt><trkpt lat="38.76578352958108" lon="16.35939180662253"><ele>882.0</ele><time>2026-04-12T14:05:50Z</time></trkpt><trkpt lat="38.765828706914775" lon="16.359234717849013"><ele>882.0</ele><time>2026-04-12T14:05:51Z</time></trkpt><trkpt lat="38.76585631525428" lon="16.35906214324559"><ele>882.0</ele><time>2026-04-12T14:05:52Z</time></trkpt><trkpt lat="38.76588957350638" lon="16.358891972181375"><ele>881.0</ele><time>2026-04-12T14:05:53Z</time></trkpt><trkpt lat="38.765926819938635" lon="16.358720259488774"><ele>880.0</ele><time>2026-04-12T14:05:54Z</time></trkpt><trkpt lat="38.76596208097138" lon="16.358545931268026"><ele>879.0</ele><time>2026-04-12T14:05:55Z</time></trkpt><trkpt lat="38.76599530789705" lon="16.358372291269035"><ele>878.0</ele><time>2026-04-12T14:05:56Z</time></trkpt><trkpt lat="38.76602009199196" lon="16.35819430061989"><ele>879.25</ele><time>2026-04-12T14:05:57Z</time></trkpt><trkpt lat="38.76603428593329" lon="16.3580199527867"><ele>880.5</ele><time>2026-04-12T14:05:58Z</time></trkpt><trkpt lat="38.76602662655225" lon="16.357841515893412"><ele>881.75</ele><time>2026-04-12T14:05:59Z</time></trkpt><trkpt lat="38.76600817175689" lon="16.357664342736488"><ele>883.0</ele><time>2026-04-12T14:06:00Z</time></trkpt><trkpt lat="38.765986747569904" lon="16.357489054344196"><ele>883.0</ele><time>2026-04-12T14:06:00.999Z</time></trkpt><trkpt lat="38.76596527990952" lon="16.357317601119274"><ele>883.0</ele><time>2026-04-12T14:06:01.999Z</time></trkpt><trkpt lat="38.76595617207235" lon="16.35714214187147"><ele>883.0</ele><time>2026-04-12T14:06:02.999Z</time></trkpt><trkpt lat="38.765949643340946" lon="16.356973839839682"><ele>883.0</ele><time>2026-04-12T14:06:03.999Z</time></trkpt><trkpt lat="38.76594043334342" lon="16.356794351583787"><ele>884.25</ele><time>2026-04-12T14:06:04.999Z</time></trkpt><trkpt lat="38.76592352524951" lon="16.35661054582228"><ele>885.5</ele><time>2026-04-12T14:06:05.999Z</time></trkpt><trkpt lat="38.765908645760135" lon="16.35643347295777"><ele>886.75</ele><time>2026-04-12T14:06:06.999Z</time></trkpt><trkpt lat="38.76588931573779" lon="16.35628607874755"><ele>888.0</ele><time>2026-04-12T14:06:07.999Z</time></trkpt><trkpt lat="38.765876575424755" lon="16.35612719292772"><ele>888.0</ele><time>2026-04-12T14:06:08.999Z</time></trkpt><trkpt lat="38.76588022999997" lon="16.355953599982957"><ele>888.0</ele><time>2026-04-12T14:06:09.999Z</time></trkpt><trkpt lat="38.76589333571394" lon="16.355767569151674"><ele>888.0</ele><time>2026-04-12T14:06:10.999Z</time></trkpt><trkpt lat="38.76594726907898" lon="16.355612012636396"><ele>888.0</ele><time>2026-04-12T14:06:11.999Z</time></trkpt><trkpt lat="38.766010338628156" lon="16.355459107120165"><ele>888.5</ele><time>2026-04-12T14:06:12.999Z</time></trkpt><trkpt lat="38.7660638939898" lon="16.35529009258219"><ele>889.0</ele><time>2026-04-12T14:06:13.999Z</time></trkpt><trkpt lat="38.766139234050264" lon="16.355127374319984"><ele>889.5</ele><time>2026-04-12T14:06:14.999Z</time></trkpt><trkpt lat="38.76621476778933" lon="16.35495237772463"><ele>890.0</ele><time>2026-04-12T14:06:15.999Z</time></trkpt><trkpt lat="38.76628610417187" lon="16.354767264983646"><ele>887.0</ele><time>2026-04-12T14:06:16.999Z</time></trkpt><trkpt lat="38.76636494666622" lon="16.35459308950558"><ele>884.0</ele><time>2026-04-12T14:06:17.999Z</time></trkpt><trkpt lat="38.766438059766905" lon="16.354411413367266"><ele>881.0</ele><time>2026-04-12T14:06:18.999Z</time></trkpt><trkpt lat="38.76650990959043" lon="16.35422678705941"><ele>881.0</ele><time>2026-04-12T14:06:19.999Z</time></trkpt><trkpt lat="38.76660135253992" lon="16.354046427943025"><ele>881.0</ele><time>2026-04-12T14:06:21Z</time></trkpt><trkpt lat="38.76667245733537" lon="16.353849568638516"><ele>881.0</ele><time>2026-04-12T14:06:22Z</time></trkpt><trkpt lat="38.766745604228994" lon="16.35366109049939"><ele>877.6666666666667</ele><time>2026-04-12T14:06:23Z</time></trkpt><trkpt lat="38.76682669800576" lon="16.353469551143785"><ele>874.3333333333333</ele><time>2026-04-12T14:06:24Z</time></trkpt><trkpt lat="38.76690825879231" lon="16.35328283443131"><ele>871.0</ele><time>2026-04-12T14:06:25Z</time></trkpt><trkpt lat="38.766986584329715" lon="16.353088526777537"><ele>871.5</ele><time>2026-04-12T14:06:26Z</time></trkpt><trkpt lat="38.76704314025933" lon="16.352892580490067"><ele>872.0</ele><time>2026-04-12T14:06:27Z</time></trkpt><trkpt lat="38.767105707466435" lon="16.35271160275957"><ele>872.5</ele><time>2026-04-12T14:06:28Z</time></trkpt><trkpt lat="38.76715684446535" lon="16.35255875414568"><ele>873.0</ele><time>2026-04-12T14:06:29Z</time></trkpt><trkpt lat="38.76720197400392" lon="16.35246511292266"><ele>873.0</ele><time>2026-04-12T14:06:30Z</time></trkpt><trkpt lat="38.76725801805691" lon="16.352383662395596"><ele>873.0</ele><time>2026-04-12T14:06:31Z</time></trkpt><trkpt lat="38.76734572614865" lon="16.352355519380488"><ele>873.0</ele><time>2026-04-12T14:06:32Z</time></trkpt><trkpt lat="38.76743902202763" lon="16.352366096119553"><ele>873.0</ele><time>2026-04-12T14:06:33Z</time></trkpt><trkpt lat="38.7675135407297" lon="16.35243781322592"><ele>873.0</ele><time>2026-04-12T14:06:34Z</time></trkpt><trkpt lat="38.76759184980766" lon="16.352509462304365"><ele>873.0</ele><time>2026-04-12T14:06:35Z</time></trkpt><trkpt lat="38.76757410516173" lon="16.35262814801618"><ele>873.0</ele><time>2026-04-12T14:06:36Z</time></trkpt><trkpt lat="38.76756449577133" lon="16.35273196161284"><ele>873.0</ele><time>2026-04-12T14:06:37Z</time></trkpt><trkpt lat="38.76748399896422" lon="16.35286930982749"><ele>873.0</ele><time>2026-04-12T14:06:38Z</time></trkpt><trkpt lat="38.76744925158857" lon="16.353003118389296"><ele>873.0</ele><time>2026-04-12T14:06:39Z</time></trkpt><trkpt lat="38.7674502189549" lon="16.3531320429569"><ele>872.0</ele><time>2026-04-12T14:06:40Z</time></trkpt><trkpt lat="38.767429285065674" lon="16.35327550204502"><ele>871.0</ele><time>2026-04-12T14:06:41Z</time></trkpt><trkpt lat="38.76741530569275" lon="16.353400556466344"><ele>870.0</ele><time>2026-04-12T14:06:42Z</time></trkpt><trkpt lat="38.76738142763549" lon="16.35351356072726"><ele>869.0</ele><time>2026-04-12T14:06:43Z</time></trkpt><trkpt lat="38.767347483139226" lon="16.353606687896537"><ele>868.0</ele><time>2026-04-12T14:06:44Z</time></trkpt><trkpt lat="38.76734089241844" lon="16.35371982275639"><ele>868.0</ele><time>2026-04-12T14:06:45Z</time></trkpt><trkpt lat="38.76737148205059" lon="16.35383814305255"><ele>868.0</ele><time>2026-04-12T14:06:46Z</time></trkpt><trkpt lat="38.76743465873747" lon="16.35396468196039"><ele>868.0</ele><time>2026-04-12T14:06:47Z</time></trkpt><trkpt lat="38.76749955721674" lon="16.354079483792134"><ele>868.0</ele><time>2026-04-12T14:06:48Z</time></trkpt><trkpt lat="38.76757651898103" lon="16.35421833085659"><ele>868.25</ele><time>2026-04-12T14:06:49Z</time></trkpt><trkpt lat="38.767658210174254" lon="16.354355421947393"><ele>868.5</ele><time>2026-04-12T14:06:50Z</time></trkpt><trkpt lat="38.76772770801141" lon="16.35448987480459"><ele>868.75</ele><time>2026-04-12T14:06:51Z</time></trkpt><trkpt lat="38.76780461310169" lon="16.35459567750771"><ele>869.0</ele><time>2026-04-12T14:06:52Z</time></trkpt><trkpt lat="38.76790977649283" lon="16.354670838151822"><ele>868.8000000000001</ele><time>2026-04-12T14:06:53Z</time></trkpt><trkpt lat="38.76799114253213" lon="16.35474864377006"><ele>868.6000000000001</ele><time>2026-04-12T14:06:54Z</time></trkpt><trkpt lat="38.7680946549103" lon="16.354808929085266"><ele>868.4</ele><time>2026-04-12T14:06:55Z</time></trkpt><trkpt lat="38.76817383618282" lon="16.354792506045918"><ele>868.2</ele><time>2026-04-12T14:06:56Z</time></trkpt><trkpt lat="38.76826779885497" lon="16.35475020916647"><ele>868.0</ele><time>2026-04-12T14:06:57Z</time></trkpt><trkpt lat="38.768341912338514" lon="16.35465828370411"><ele>865.75</ele><time>2026-04-12T14:06:58Z</time></trkpt><trkpt lat="38.768398290275975" lon="16.3545036884988"><ele>863.5</ele><time>2026-04-12T14:06:59Z</time></trkpt><trkpt lat="38.768437881481645" lon="16.354363737925677"><ele>861.25</ele><time>2026-04-12T14:07:00Z</time></trkpt><trkpt lat="38.76849175863862" lon="16.354238201245554"><ele>859.0</ele><time>2026-04-12T14:07:01Z</time></trkpt><trkpt lat="38.768558555250074" lon="16.354162979711333"><ele>859.0</ele><time>2026-04-12T14:07:02Z</time></trkpt><trkpt lat="38.76863869936954" lon="16.354108333808348"><ele>859.0</ele><time>2026-04-12T14:07:03Z</time></trkpt><trkpt lat="38.768740808512405" lon="16.35404686218216"><ele>859.0</ele><time>2026-04-12T14:07:04Z</time></trkpt><trkpt lat="38.76887455120344" lon="16.353958362469726"><ele>859.0</ele><time>2026-04-12T14:07:05Z</time></trkpt><trkpt lat="38.76877302779476" lon="16.354011067092777"><ele>859.0</ele><time>2026-04-12T14:07:06Z</time></trkpt><trkpt lat="38.768885743784864" lon="16.35393410244877"><ele>859.0</ele><time>2026-04-12T14:07:07Z</time></trkpt><trkpt lat="38.76900572787353" lon="16.3538712272081"><ele>859.0</ele><time>2026-04-12T14:07:08Z</time></trkpt><trkpt lat="38.769129886705514" lon="16.35378646163446"><ele>859.0</ele><time>2026-04-12T14:07:09Z</time></trkpt><trkpt lat="38.7692291111801" lon="16.353734266638632"><ele>854.75</ele><time>2026-04-12T14:07:10Z</time></trkpt><trkpt lat="38.7693298016789" lon="16.353674890215732"><ele>850.5</ele><time>2026-04-12T14:07:11Z</time></trkpt><trkpt lat="38.76946278324479" lon="16.3536013907363"><ele>846.25</ele><time>2026-04-12T14:07:12Z</time></trkpt><trkpt lat="38.76958217140404" lon="16.353533493018492"><ele>842.0</ele><time>2026-04-12T14:07:13Z</time></trkpt><trkpt lat="38.769711233028396" lon="16.353467743438326"><ele>842.0</ele><time>2026-04-12T14:07:14Z</time></trkpt><trkpt lat="38.76983367808974" lon="16.353405257784253"><ele>842.0</ele><time>2026-04-12T14:07:15Z</time></trkpt><trkpt lat="38.76998201333939" lon="16.353347170379497"><ele>842.0</ele><time>2026-04-12T14:07:16Z</time></trkpt><trkpt lat="38.77008593245938" lon="16.35330223734258"><ele>842.0</ele><time>2026-04-12T14:07:17Z</time></trkpt><trkpt lat="38.77015234746332" lon="16.353269351140465"><ele>842.75</ele><time>2026-04-12T14:07:18Z</time></trkpt><trkpt lat="38.770262160178994" lon="16.35321761489371"><ele>843.5</ele><time>2026-04-12T14:07:19Z</time></trkpt><trkpt lat="38.77039966579177" lon="16.35314925771524"><ele>844.25</ele><time>2026-04-12T14:07:20Z</time></trkpt><trkpt lat="38.77052646412736" lon="16.3530803566333"><ele>845.0</ele><time>2026-04-12T14:07:21Z</time></trkpt><trkpt lat="38.77061330383758" lon="16.353031592778578"><ele>845.0000000000001</ele><time>2026-04-12T14:07:22Z</time></trkpt><trkpt lat="38.770681710139854" lon="16.35298819792496"><ele>845.0</ele><time>2026-04-12T14:07:23Z</time></trkpt><trkpt lat="38.77072047049999" lon="16.35292298679109"><ele>845.0</ele><time>2026-04-12T14:07:24Z</time></trkpt><trkpt lat="38.77071345222267" lon="16.35279552282867"><ele>845.0</ele><time>2026-04-12T14:07:25Z</time></trkpt><trkpt lat="38.77065907155431" lon="16.352695468920547"><ele>845.0000000000001</ele><time>2026-04-12T14:07:26Z</time></trkpt><trkpt lat="38.77057906062282" lon="16.35260554486171"><ele>845.0</ele><time>2026-04-12T14:07:27Z</time></trkpt><trkpt lat="38.77044444196783" lon="16.352551160539907"><ele>845.0</ele><time>2026-04-12T14:07:28Z</time></trkpt><trkpt lat="38.7703212083437" lon="16.352481775675777"><ele>845.0</ele><time>2026-04-12T14:07:29Z</time></trkpt><trkpt lat="38.77013994969411" lon="16.352338874759283"><ele>845.0</ele><time>2026-04-12T14:07:30Z</time></trkpt><trkpt lat="38.770044178995875" lon="16.352206619537164"><ele>840.25</ele><time>2026-04-12T14:07:31Z</time></trkpt><trkpt lat="38.76993675686047" lon="16.352103468689382"><ele>835.5</ele><time>2026-04-12T14:07:32Z</time></trkpt><trkpt lat="38.76982807024713" lon="16.352014597286185"><ele>830.75</ele><time>2026-04-12T14:07:33Z</time></trkpt><trkpt lat="38.7697478845505" lon="16.351896755225738"><ele>826.0</ele><time>2026-04-12T14:07:34Z</time></trkpt><trkpt lat="38.76970995940989" lon="16.351787444235686"><ele>826.0</ele><time>2026-04-12T14:07:35Z</time></trkpt><trkpt lat="38.76969818088479" lon="16.351651060612827"><ele>826.0</ele><time>2026-04-12T14:07:36Z</time></trkpt><trkpt lat="38.76968970988386" lon="16.351530463520266"><ele>826.0</ele><time>2026-04-12T14:07:37Z</time></trkpt><trkpt lat="38.76968420188367" lon="16.3514180629454"><ele>826.0</ele><time>2026-04-12T14:07:38Z</time></trkpt><trkpt lat="38.7696832628698" lon="16.351290504472143"><ele>826.0</ele><time>2026-04-12T14:07:39Z</time></trkpt><trkpt lat="38.76971223337546" lon="16.35115667430959"><ele>822.5999999999999</ele><time>2026-04-12T14:07:40Z</time></trkpt><trkpt lat="38.769801762134875" lon="16.351068706685524"><ele>819.2</ele><time>2026-04-12T14:07:41Z</time></trkpt><trkpt lat="38.76991629272811" lon="16.351021858930515"><ele>815.8</ele><time>2026-04-12T14:07:42Z</time></trkpt><trkpt lat="38.77001106219014" lon="16.35096810366525"><ele>812.4000000000001</ele><time>2026-04-12T14:07:43Z</time></trkpt><trkpt lat="38.770120093877715" lon="16.350943459176907"><ele>809.0</ele><time>2026-04-12T14:07:44Z</time></trkpt><trkpt lat="38.7702186292704" lon="16.35095697136105"><ele>808.5</ele><time>2026-04-12T14:07:45Z</time></trkpt><trkpt lat="38.770350813275165" lon="16.350967775296645"><ele>808.0</ele><time>2026-04-12T14:07:46Z</time></trkpt><trkpt lat="38.77048327398736" lon="16.350980057479305"><ele>807.5</ele><time>2026-04-12T14:07:47Z</time></trkpt><trkpt lat="38.770623839799065" lon="16.3509861054811"><ele>807.0</ele><time>2026-04-12T14:07:48Z</time></trkpt><trkpt lat="38.77077203557185" lon="16.350972601624076"><ele>807.0</ele><time>2026-04-12T14:07:49Z</time></trkpt><trkpt lat="38.77091491120237" lon="16.35090906660571"><ele>807.0</ele><time>2026-04-12T14:07:50Z</time></trkpt><trkpt lat="38.77106418277701" lon="16.35085331308173"><ele>807.0</ele><time>2026-04-12T14:07:51Z</time></trkpt><trkpt lat="38.771221277024395" lon="16.350792474856814"><ele>807.5</ele><time>2026-04-12T14:07:52Z</time></trkpt><trkpt lat="38.77138097935808" lon="16.350760742839903"><ele>808.0</ele><time>2026-04-12T14:07:53Z</time></trkpt><trkpt lat="38.77152522000575" lon="16.350733552717656"><ele>808.5</ele><time>2026-04-12T14:07:54Z</time></trkpt><trkpt lat="38.77166029830704" lon="16.35073526687502"><ele>809.0</ele><time>2026-04-12T14:07:55Z</time></trkpt><trkpt lat="38.77180420133187" lon="16.3507392070097"><ele>808.5</ele><time>2026-04-12T14:07:56Z</time></trkpt><trkpt lat="38.771951672988386" lon="16.35073024872499"><ele>808.0</ele><time>2026-04-12T14:07:57Z</time></trkpt><trkpt lat="38.77208447676192" lon="16.350668476767567"><ele>807.5</ele><time>2026-04-12T14:07:58Z</time></trkpt><trkpt lat="38.772189526826004" lon="16.350554107312476"><ele>807.0</ele><time>2026-04-12T14:07:59Z</time></trkpt><trkpt lat="38.772253498253285" lon="16.350386278810657"><ele>804.4000000000001</ele><time>2026-04-12T14:08:00Z</time></trkpt><trkpt lat="38.77229639486791" lon="16.35023861544833"><ele>801.8000000000001</ele><time>2026-04-12T14:08:01Z</time></trkpt><trkpt lat="38.77234010353923" lon="16.350106589164643"><ele>799.2</ele><time>2026-04-12T14:08:02Z</time></trkpt><trkpt lat="38.77238403457153" lon="16.34997778778117"><ele>796.6</ele><time>2026-04-12T14:08:03Z</time></trkpt><trkpt lat="38.772406498892714" lon="16.349854510475538"><ele>794.0</ele><time>2026-04-12T14:08:04Z</time></trkpt><trkpt lat="38.772363655964" lon="16.349734502297924"><ele>793.0</ele><time>2026-04-12T14:08:05Z</time></trkpt><trkpt lat="38.77227063088701" lon="16.349628674170468"><ele>792.0</ele><time>2026-04-12T14:08:06Z</time></trkpt><trkpt lat="38.77216669825917" lon="16.349544056796077"><ele>791.0</ele><time>2026-04-12T14:08:07Z</time></trkpt><trkpt lat="38.772076758809874" lon="16.349464117018687"><ele>790.0</ele><time>2026-04-12T14:08:08Z</time></trkpt><trkpt lat="38.77201349917212" lon="16.34937558245027"><ele>790.0</ele><time>2026-04-12T14:08:09Z</time></trkpt><trkpt lat="38.771997932763036" lon="16.34926625590601"><ele>790.0</ele><time>2026-04-12T14:08:10Z</time></trkpt><trkpt lat="38.77202154465216" lon="16.349146041494453"><ele>790.0</ele><time>2026-04-12T14:08:11Z</time></trkpt><trkpt lat="38.77208931868042" lon="16.349010252603975"><ele>790.0</ele><time>2026-04-12T14:08:12Z</time></trkpt><trkpt lat="38.772155120682974" lon="16.348870464917127"><ele>790.0</ele><time>2026-04-12T14:08:13Z</time></trkpt><trkpt lat="38.77223454290525" lon="16.34871755912751"><ele>787.25</ele><time>2026-04-12T14:08:14Z</time></trkpt><trkpt lat="38.772324581930306" lon="16.348565262400502"><ele>784.5</ele><time>2026-04-12T14:08:15Z</time></trkpt><trkpt lat="38.772411053169854" lon="16.348430834641725"><ele>781.75</ele><time>2026-04-12T14:08:16Z</time></trkpt><trkpt lat="38.77249284903531" lon="16.348302410714332"><ele>779.0</ele><time>2026-04-12T14:08:17Z</time></trkpt><trkpt lat="38.77257145851636" lon="16.348177212730185"><ele>779.0</ele><time>2026-04-12T14:08:18Z</time></trkpt><trkpt lat="38.77264047582239" lon="16.34805956136407"><ele>779.0</ele><time>2026-04-12T14:08:19Z</time></trkpt><trkpt lat="38.77271177519875" lon="16.347936851381768"><ele>779.0</ele><time>2026-04-12T14:08:20Z</time></trkpt><trkpt lat="38.77278872174772" lon="16.347792548371686"><ele>779.0</ele><time>2026-04-12T14:08:21Z</time></trkpt><trkpt lat="38.77286651584032" lon="16.347628740526172"><ele>779.25</ele><time>2026-04-12T14:08:22Z</time></trkpt><trkpt lat="38.772929177271585" lon="16.347462355589563"><ele>779.5</ele><time>2026-04-12T14:08:23Z</time></trkpt><trkpt lat="38.77299148355576" lon="16.347299901042717"><ele>779.75</ele><time>2026-04-12T14:08:24Z</time></trkpt><trkpt lat="38.77304140086526" lon="16.347146038068157"><ele>780.0</ele><time>2026-04-12T14:08:25Z</time></trkpt><trkpt lat="38.773093459023556" lon="16.346997840836774"><ele>776.5</ele><time>2026-04-12T14:08:26Z</time></trkpt><trkpt lat="38.77314668562542" lon="16.34685512379582"><ele>773.0</ele><time>2026-04-12T14:08:27Z</time></trkpt><trkpt lat="38.77320542395118" lon="16.346725102077098"><ele>769.5</ele><time>2026-04-12T14:08:28Z</time></trkpt><trkpt lat="38.773273889457236" lon="16.346606082644577"><ele>766.0</ele><time>2026-04-12T14:08:29Z</time></trkpt><trkpt lat="38.773348630649494" lon="16.34648962063277"><ele>766.0</ele><time>2026-04-12T14:08:30Z</time></trkpt><trkpt lat="38.773430848451476" lon="16.346393195728652"><ele>766.0</ele><time>2026-04-12T14:08:31Z</time></trkpt><trkpt lat="38.77352572618568" lon="16.346309493051464"><ele>766.0</ele><time>2026-04-12T14:08:32Z</time></trkpt><trkpt lat="38.7736388720591" lon="16.34624833229432"><ele>766.0</ele><time>2026-04-12T14:08:33Z</time></trkpt><trkpt lat="38.77376207522218" lon="16.34622165291813"><ele>760.5</ele><time>2026-04-12T14:08:34Z</time></trkpt><trkpt lat="38.77389238008548" lon="16.3462195216035"><ele>755.0</ele><time>2026-04-12T14:08:35Z</time></trkpt><trkpt lat="38.77402163772048" lon="16.34623240768464"><ele>749.5</ele><time>2026-04-12T14:08:36Z</time></trkpt><trkpt lat="38.77414963468904" lon="16.346257297307652"><ele>744.0</ele><time>2026-04-12T14:08:37Z</time></trkpt><trkpt lat="38.77427782122038" lon="16.346288223159952"><ele>747.0</ele><time>2026-04-12T14:08:38Z</time></trkpt><trkpt lat="38.77440580053658" lon="16.34632347114803"><ele>750.0</ele><time>2026-04-12T14:08:39Z</time></trkpt><trkpt lat="38.77452669691673" lon="16.34635098202594"><ele>753.0</ele><time>2026-04-12T14:08:40Z</time></trkpt><trkpt lat="38.77464209365182" lon="16.346395600261808"><ele>756.0</ele><time>2026-04-12T14:08:41Z</time></trkpt><trkpt lat="38.77475302149677" lon="16.34645748914904"><ele>756.0</ele><time>2026-04-12T14:08:42Z</time></trkpt><trkpt lat="38.77484834877935" lon="16.34658100683707"><ele>756.0</ele><time>2026-04-12T14:08:43Z</time></trkpt><trkpt lat="38.774960787825904" lon="16.34667089814421"><ele>756.0</ele><time>2026-04-12T14:08:44Z</time></trkpt><trkpt lat="38.77506683386862" lon="16.34676994531888"><ele>756.0</ele><time>2026-04-12T14:08:45Z</time></trkpt><trkpt lat="38.775181348602175" lon="16.346845600560556"><ele>752.5</ele><time>2026-04-12T14:08:46Z</time></trkpt><trkpt lat="38.775298364100216" lon="16.346894038659542"><ele>749.0</ele><time>2026-04-12T14:08:47Z</time></trkpt><trkpt lat="38.775423177978475" lon="16.346923705791035"><ele>745.5</ele><time>2026-04-12T14:08:48Z</time></trkpt><trkpt lat="38.77554347423263" lon="16.346956949286128"><ele>742.0</ele><time>2026-04-12T14:08:49Z</time></trkpt><trkpt lat="38.775660538404466" lon="16.346985631647726"><ele>742.0</ele><time>2026-04-12T14:08:50Z</time></trkpt><trkpt lat="38.77578177789147" lon="16.346999880978583"><ele>742.0</ele><time>2026-04-12T14:08:51Z</time></trkpt><trkpt lat="38.77589867227555" lon="16.34698577129602"><ele>742.0</ele><time>2026-04-12T14:08:52Z</time></trkpt><trkpt lat="38.77601456276284" lon="16.346912854157242"><ele>742.0</ele><time>2026-04-12T14:08:53Z</time></trkpt><trkpt lat="38.77612776052138" lon="16.34681807161418"><ele>741.0</ele><time>2026-04-12T14:08:54Z</time></trkpt><trkpt lat="38.776244015849244" lon="16.34672321102306"><ele>740.0</ele><time>2026-04-12T14:08:55Z</time></trkpt><trkpt lat="38.776367941072365" lon="16.346644294611338"><ele>739.0</ele><time>2026-04-12T14:08:56Z</time></trkpt><trkpt lat="38.77650004912317" lon="16.346606496182293"><ele>738.0</ele><time>2026-04-12T14:08:57Z</time></trkpt><trkpt lat="38.77661727605761" lon="16.34662749558252"><ele>738.0</ele><time>2026-04-12T14:08:58Z</time></trkpt><trkpt lat="38.77670595368399" lon="16.34671046874585"><ele>738.0</ele><time>2026-04-12T14:08:59Z</time></trkpt><trkpt lat="38.776725715860024" lon="16.34685077497004"><ele>738.0</ele><time>2026-04-12T14:09:00Z</time></trkpt><trkpt lat="38.77672163794368" lon="16.346998505734735"><ele>738.0</ele><time>2026-04-12T14:09:01Z</time></trkpt><trkpt lat="38.77676222269705" lon="16.34713773028106"><ele>738.5</ele><time>2026-04-12T14:09:02Z</time></trkpt><trkpt lat="38.77684457851503" lon="16.347254539572546"><ele>739.0</ele><time>2026-04-12T14:09:03Z</time></trkpt><trkpt lat="38.776935727343385" lon="16.347365303301615"><ele>739.5</ele><time>2026-04-12T14:09:04Z</time></trkpt><trkpt lat="38.77700296508688" lon="16.347446638539076"><ele>740.0</ele><time>2026-04-12T14:09:05Z</time></trkpt><trkpt lat="38.77710018897343" lon="16.34751419105321"><ele>740.0</ele><time>2026-04-12T14:09:06Z</time></trkpt><trkpt lat="38.77718749023332" lon="16.34750603028039"><ele>740.0</ele><time>2026-04-12T14:09:07Z</time></trkpt><trkpt lat="38.77729435561817" lon="16.34742642092888"><ele>740.0</ele><time>2026-04-12T14:09:08Z</time></trkpt><trkpt lat="38.77738602052805" lon="16.34734679900952"><ele>740.0</ele><time>2026-04-12T14:09:09Z</time></trkpt><trkpt lat="38.77747372949494" lon="16.347189402522044"><ele>737.6666666666666</ele><time>2026-04-12T14:09:10Z</time></trkpt><trkpt lat="38.777565042307764" lon="16.347039262981102"><ele>735.3333333333334</ele><time>2026-04-12T14:09:11Z</time></trkpt><trkpt lat="38.77766671535775" lon="16.34688399351096"><ele>733.0</ele><time>2026-04-12T14:09:12Z</time></trkpt><trkpt lat="38.777789671708284" lon="16.34676077253144"><ele>733.0</ele><time>2026-04-12T14:09:13Z</time></trkpt><trkpt lat="38.777937762030206" lon="16.346625220228724"><ele>733.0</ele><time>2026-04-12T14:09:14Z</time></trkpt><trkpt lat="38.77807562831074" lon="16.34650607990876"><ele>733.0</ele><time>2026-04-12T14:09:15Z</time></trkpt><trkpt lat="38.77821746051379" lon="16.34638944612162"><ele>730.3333333333334</ele><time>2026-04-12T14:09:16Z</time></trkpt><trkpt lat="38.77836805361986" lon="16.3462986178916"><ele>727.6666666666666</ele><time>2026-04-12T14:09:17Z</time></trkpt><trkpt lat="38.77851182036045" lon="16.346193584801217"><ele>725.0</ele><time>2026-04-12T14:09:18Z</time></trkpt><trkpt lat="38.77865358508972" lon="16.346090174224884"><ele>725.0</ele><time>2026-04-12T14:09:19Z</time></trkpt><trkpt lat="38.778793745549635" lon="16.3459781327125"><ele>725.0</ele><time>2026-04-12T14:09:20Z</time></trkpt><trkpt lat="38.778923485872" lon="16.345889046178517"><ele>725.0</ele><time>2026-04-12T14:09:21Z</time></trkpt><trkpt lat="38.77905995557971" lon="16.345801228790698"><ele>725.0</ele><time>2026-04-12T14:09:22Z</time></trkpt><trkpt lat="38.779178578257124" lon="16.345692764542484"><ele>725.0</ele><time>2026-04-12T14:09:23Z</time></trkpt><trkpt lat="38.77927392765522" lon="16.345564157474964"><ele>725.0</ele><time>2026-04-12T14:09:24Z</time></trkpt><trkpt lat="38.77934063720988" lon="16.34539872547199"><ele>725.0</ele><time>2026-04-12T14:09:25Z</time></trkpt><trkpt lat="38.77937720066089" lon="16.345213020083555"><ele>722.0</ele><time>2026-04-12T14:09:26Z</time></trkpt><trkpt lat="38.77939009917827" lon="16.345025824884825"><ele>719.0</ele><time>2026-04-12T14:09:27Z</time></trkpt><trkpt lat="38.77940048732742" lon="16.344890577200385"><ele>716.0</ele><time>2026-04-12T14:09:28Z</time></trkpt><trkpt lat="38.77942290710568" lon="16.344773156103038"><ele>713.0</ele><time>2026-04-12T14:09:29Z</time></trkpt><trkpt lat="38.77946596802722" lon="16.344694039193143"><ele>710.0</ele><time>2026-04-12T14:09:30Z</time></trkpt><trkpt lat="38.779543468423704" lon="16.34466994010413"><ele>710.0</ele><time>2026-04-12T14:09:31Z</time></trkpt><trkpt lat="38.779640946078466" lon="16.344704976193185"><ele>710.0</ele><time>2026-04-12T14:09:32Z</time></trkpt><trkpt lat="38.77970703744123" lon="16.3448106932161"><ele>710.0</ele><time>2026-04-12T14:09:33Z</time></trkpt><trkpt lat="38.77978870715507" lon="16.34488673154798"><ele>710.0</ele><time>2026-04-12T14:09:34Z</time></trkpt><trkpt lat="38.77984951189031" lon="16.344974244520298"><ele>710.0</ele><time>2026-04-12T14:09:35Z</time></trkpt><trkpt lat="38.77988480195087" lon="16.34507719328977"><ele>710.0</ele><time>2026-04-12T14:09:36Z</time></trkpt><trkpt lat="38.77993311269652" lon="16.345187181577717"><ele>710.0</ele><time>2026-04-12T14:09:37Z</time></trkpt><trkpt lat="38.779975654447384" lon="16.34528558859558"><ele>710.0</ele><time>2026-04-12T14:09:38Z</time></trkpt><trkpt lat="38.78001639869842" lon="16.34537323012151"><ele>710.0</ele><time>2026-04-12T14:09:39Z</time></trkpt><trkpt lat="38.780063535531944" lon="16.345447309013778"><ele>710.0</ele><time>2026-04-12T14:09:40Z</time></trkpt><trkpt lat="38.78013730348225" lon="16.34553488995841"><ele>710.0</ele><time>2026-04-12T14:09:41Z</time></trkpt><trkpt lat="38.78020088496245" lon="16.345567362203067"><ele>710.4</ele><time>2026-04-12T14:09:42Z</time></trkpt><trkpt lat="38.78033468104478" lon="16.345597637302514"><ele>710.8</ele><time>2026-04-12T14:09:44Z</time></trkpt><trkpt lat="38.780389890977695" lon="16.345551731574233"><ele>711.2</ele><time>2026-04-12T14:09:45Z</time></trkpt><trkpt lat="38.78043005652512" lon="16.34546961443664"><ele>711.6</ele><time>2026-04-12T14:09:46Z</time></trkpt><trkpt lat="38.78046865569505" lon="16.345388075590122"><ele>712.0</ele><time>2026-04-12T14:09:47Z</time></trkpt><trkpt lat="38.780543130328546" lon="16.345252841603582"><ele>709.0</ele><time>2026-04-12T14:09:48Z</time></trkpt><trkpt lat="38.78066121524491" lon="16.345158498268393"><ele>706.0</ele><time>2026-04-12T14:09:49Z</time></trkpt><trkpt lat="38.78079456485715" lon="16.34507082706553"><ele>703.0</ele><time>2026-04-12T14:09:50Z</time></trkpt><trkpt lat="38.78091885862237" lon="16.344990989490597"><ele>700.0</ele><time>2026-04-12T14:09:51Z</time></trkpt><trkpt lat="38.78083737618565" lon="16.34502241460093"><ele>700.0</ele><time>2026-04-12T14:09:52Z</time></trkpt><trkpt lat="38.780935040088664" lon="16.34498279101902"><ele>700.0</ele><time>2026-04-12T14:09:53Z</time></trkpt><trkpt lat="38.78102465169032" lon="16.344945109803515"><ele>700.0</ele><time>2026-04-12T14:09:54Z</time></trkpt><trkpt lat="38.78111701902883" lon="16.344920612221753"><ele>700.0</ele><time>2026-04-12T14:09:55Z</time></trkpt><trkpt lat="38.78119819698347" lon="16.3449008421951"><ele>700.0</ele><time>2026-04-12T14:09:56Z</time></trkpt><trkpt lat="38.781280544513365" lon="16.344893562652047"><ele>699.6</ele><time>2026-04-12T14:09:57Z</time></trkpt><trkpt lat="38.78136201749371" lon="16.34488391868136"><ele>699.2</ele><time>2026-04-12T14:09:58Z</time></trkpt><trkpt lat="38.78143697747148" lon="16.344861279857174"><ele>698.8</ele><time>2026-04-12T14:09:59Z</time></trkpt><trkpt lat="38.781539662826454" lon="16.344811341052537"><ele>698.4</ele><time>2026-04-12T14:10:01Z</time></trkpt><trkpt lat="38.78163156493521" lon="16.344761751359947"><ele>698.0</ele><time>2026-04-12T14:10:03Z</time></trkpt><trkpt lat="38.78173056608934" lon="16.344723983646006"><ele>698.0</ele><time>2026-04-12T14:10:05Z</time></trkpt><trkpt lat="38.781823705766485" lon="16.34471717675901"><ele>698.0</ele><time>2026-04-12T14:10:07Z</time></trkpt><trkpt lat="38.78189324713506" lon="16.34469868155559"><ele>698.0</ele><time>2026-04-12T14:10:08Z</time></trkpt><trkpt lat="38.781970713852104" lon="16.344677976871733"><ele>698.0</ele><time>2026-04-12T14:10:09Z</time></trkpt><trkpt lat="38.78213269939034" lon="16.344641079813343"><ele>698.0</ele><time>2026-04-12T14:10:11Z</time></trkpt><trkpt lat="38.782236607933456" lon="16.344607638970267"><ele>696.0</ele><time>2026-04-12T14:10:12Z</time></trkpt><trkpt lat="38.782343142870566" lon="16.344569532088006"><ele>694.0</ele><time>2026-04-12T14:10:13Z</time></trkpt><trkpt lat="38.78246109844703" lon="16.344514258502723"><ele>692.0</ele><time>2026-04-12T14:10:14Z</time></trkpt><trkpt lat="38.782581544364284" lon="16.34445075717824"><ele>690.0</ele><time>2026-04-12T14:10:15Z</time></trkpt><trkpt lat="38.782685042440484" lon="16.344349507298325"><ele>694.5</ele><time>2026-04-12T14:10:16Z</time></trkpt><trkpt lat="38.78277922488535" lon="16.344239453250864"><ele>699.0</ele><time>2026-04-12T14:10:17Z</time></trkpt><trkpt lat="38.78287438661359" lon="16.344119751391737"><ele>703.5</ele><time>2026-04-12T14:10:18Z</time></trkpt><trkpt lat="38.782980347620395" lon="16.343992516273573"><ele>708.0</ele><time>2026-04-12T14:10:19Z</time></trkpt><trkpt lat="38.78306534142294" lon="16.343889288697685"><ele>705.75</ele><time>2026-04-12T14:10:20Z</time></trkpt><trkpt lat="38.78314387004968" lon="16.34376850835948"><ele>703.5</ele><time>2026-04-12T14:10:21Z</time></trkpt><trkpt lat="38.78322708413055" lon="16.343654949794864"><ele>701.25</ele><time>2026-04-12T14:10:22Z</time></trkpt><trkpt lat="38.78331221999148" lon="16.34357050622822"><ele>699.0</ele><time>2026-04-12T14:10:23Z</time></trkpt><trkpt lat="38.78334318209999" lon="16.343409699599388"><ele>699.0</ele><time>2026-04-12T14:10:24Z</time></trkpt><trkpt lat="38.78333941437053" lon="16.343193654801922"><ele>699.0</ele><time>2026-04-12T14:10:25Z</time></trkpt><trkpt lat="38.78335461985529" lon="16.34299752691244"><ele>699.0</ele><time>2026-04-12T14:10:26Z</time></trkpt><trkpt lat="38.78335858745343" lon="16.342834938218363"><ele>699.0</ele><time>2026-04-12T14:10:27Z</time></trkpt><trkpt lat="38.78337150602257" lon="16.342654285763967"><ele>697.75</ele><time>2026-04-12T14:10:28Z</time></trkpt><trkpt lat="38.7833707866726" lon="16.34248916380903"><ele>696.5</ele><time>2026-04-12T14:10:29Z</time></trkpt><trkpt lat="38.78333793303516" lon="16.34231450383501"><ele>695.25</ele><time>2026-04-12T14:10:30Z</time></trkpt><trkpt lat="38.783287335975" lon="16.342152264376487"><ele>694.0</ele><time>2026-04-12T14:10:31Z</time></trkpt><trkpt lat="38.78323658929692" lon="16.342006196319453"><ele>694.0</ele><time>2026-04-12T14:10:32Z</time></trkpt><trkpt lat="38.78320919927862" lon="16.341827070883816"><ele>694.0</ele><time>2026-04-12T14:10:33Z</time></trkpt><trkpt lat="38.78319423442103" lon="16.341661828329553"><ele>694.0</ele><time>2026-04-12T14:10:34Z</time></trkpt><trkpt lat="38.78318282520611" lon="16.34150586606729"><ele>694.0</ele><time>2026-04-12T14:10:35Z</time></trkpt><trkpt lat="38.78316812896757" lon="16.34133558680075"><ele>692.75</ele><time>2026-04-12T14:10:36Z</time></trkpt><trkpt lat="38.783162810567134" lon="16.341166677472323"><ele>691.5</ele><time>2026-04-12T14:10:37Z</time></trkpt><trkpt lat="38.78315645915752" lon="16.340998187537398"><ele>690.25</ele><time>2026-04-12T14:10:38Z</time></trkpt><trkpt lat="38.78318173822493" lon="16.34084966673167"><ele>689.0</ele><time>2026-04-12T14:10:39Z</time></trkpt><trkpt lat="38.78322292384661" lon="16.340702132744312"><ele>689.0</ele><time>2026-04-12T14:10:40Z</time></trkpt><trkpt lat="38.78326746329535" lon="16.340559694866485"><ele>689.0</ele><time>2026-04-12T14:10:41Z</time></trkpt><trkpt lat="38.78332498794765" lon="16.34040081878136"><ele>689.0</ele><time>2026-04-12T14:10:42Z</time></trkpt><trkpt lat="38.78339475722008" lon="16.340241323141246"><ele>689.0</ele><time>2026-04-12T14:10:43Z</time></trkpt><trkpt lat="38.78346614404603" lon="16.340097460564923"><ele>688.25</ele><time>2026-04-12T14:10:44Z</time></trkpt><trkpt lat="38.783506241280506" lon="16.339958058323653"><ele>687.5</ele><time>2026-04-12T14:10:45Z</time></trkpt><trkpt lat="38.78356167696118" lon="16.33983359319646"><ele>686.75</ele><time>2026-04-12T14:10:46Z</time></trkpt><trkpt lat="38.783631783176524" lon="16.339712189491994"><ele>686.0</ele><time>2026-04-12T14:10:47Z</time></trkpt><trkpt lat="38.78374007985938" lon="16.339620177264592"><ele>684.25</ele><time>2026-04-12T14:10:48Z</time></trkpt><trkpt lat="38.78386329790808" lon="16.33953677945648"><ele>682.5</ele><time>2026-04-12T14:10:49Z</time></trkpt><trkpt lat="38.78398517004728" lon="16.339449479144367"><ele>680.75</ele><time>2026-04-12T14:10:50Z</time></trkpt><trkpt lat="38.78412579462313" lon="16.339385864733096"><ele>679.0</ele><time>2026-04-12T14:10:51Z</time></trkpt><trkpt lat="38.784289885721414" lon="16.3393821969527"><ele>677.75</ele><time>2026-04-12T14:10:52Z</time></trkpt><trkpt lat="38.78440297730226" lon="16.33938961925063"><ele>676.5</ele><time>2026-04-12T14:10:53Z</time></trkpt><trkpt lat="38.784546038657496" lon="16.33940534868887"><ele>675.25</ele><time>2026-04-12T14:10:54Z</time></trkpt><trkpt lat="38.78469742073221" lon="16.33940288876289"><ele>674.0</ele><time>2026-04-12T14:10:55Z</time></trkpt><trkpt lat="38.784855123276174" lon="16.33941934597177"><ele>674.0</ele><time>2026-04-12T14:10:56Z</time></trkpt><trkpt lat="38.785012788534104" lon="16.339436373917657"><ele>674.0</ele><time>2026-04-12T14:10:57Z</time></trkpt><trkpt lat="38.785169115123736" lon="16.339454496297833"><ele>674.0</ele><time>2026-04-12T14:10:58Z</time></trkpt><trkpt lat="38.78531994838309" lon="16.33948951612182"><ele>674.25</ele><time>2026-04-12T14:10:59Z</time></trkpt><trkpt lat="38.785468575862545" lon="16.339505131009197"><ele>674.5</ele><time>2026-04-12T14:11:00Z</time></trkpt><trkpt lat="38.785612137828906" lon="16.339520213716323"><ele>674.75</ele><time>2026-04-12T14:11:01Z</time></trkpt><trkpt lat="38.785746449108906" lon="16.339535848644488"><ele>675.0</ele><time>2026-04-12T14:11:02Z</time></trkpt><trkpt lat="38.78588377465659" lon="16.339554563652683"><ele>675.0</ele><time>2026-04-12T14:11:03Z</time></trkpt><trkpt lat="38.7860081968428" lon="16.339593693710302"><ele>675.0</ele><time>2026-04-12T14:11:04Z</time></trkpt><trkpt lat="38.786125046151284" lon="16.33966345534984"><ele>675.0</ele><time>2026-04-12T14:11:05Z</time></trkpt><trkpt lat="38.786230856610395" lon="16.339756807366513"><ele>675.0</ele><time>2026-04-12T14:11:06Z</time></trkpt><trkpt lat="38.78633555861894" lon="16.33986022916652"><ele>676.0</ele><time>2026-04-12T14:11:07Z</time></trkpt><trkpt lat="38.78644669251274" lon="16.339938474073655"><ele>677.0</ele><time>2026-04-12T14:11:08Z</time></trkpt><trkpt lat="38.786560870528014" lon="16.340014477836732"><ele>678.0</ele><time>2026-04-12T14:11:09Z</time></trkpt><trkpt lat="38.78668840945268" lon="16.3400545111026"><ele>679.0</ele><time>2026-04-12T14:11:10Z</time></trkpt><trkpt lat="38.786826803192014" lon="16.340048637201786"><ele>679.25</ele><time>2026-04-12T14:11:11Z</time></trkpt><trkpt lat="38.786959509376544" lon="16.339983443963654"><ele>679.5</ele><time>2026-04-12T14:11:12Z</time></trkpt><trkpt lat="38.78707607095448" lon="16.33987827542434"><ele>679.75</ele><time>2026-04-12T14:11:13Z</time></trkpt><trkpt lat="38.78717396108688" lon="16.3397454719385"><ele>680.0</ele><time>2026-04-12T14:11:14Z</time></trkpt><trkpt lat="38.78727478957073" lon="16.339650617239986"><ele>679.25</ele><time>2026-04-12T14:11:15Z</time></trkpt><trkpt lat="38.787390163367334" lon="16.339592063921746"><ele>678.5</ele><time>2026-04-12T14:11:16Z</time></trkpt><trkpt lat="38.787514391889765" lon="16.33958347497004"><ele>677.75</ele><time>2026-04-12T14:11:17Z</time></trkpt><trkpt lat="38.78763095300674" lon="16.339614929503547"><ele>677.0</ele><time>2026-04-12T14:11:18Z</time></trkpt><trkpt lat="38.787728230083204" lon="16.339687885286438"><ele>676.25</ele><time>2026-04-12T14:11:19Z</time></trkpt><trkpt lat="38.78782341901573" lon="16.339791283766235"><ele>675.5</ele><time>2026-04-12T14:11:20Z</time></trkpt><trkpt lat="38.78792025607556" lon="16.339909229140364"><ele>674.75</ele><time>2026-04-12T14:11:21Z</time></trkpt><trkpt lat="38.78802317641108" lon="16.34001978386557"><ele>674.0</ele><time>2026-04-12T14:11:22Z</time></trkpt><trkpt lat="38.788114661510654" lon="16.340122898206783"><ele>674.0</ele><time>2026-04-12T14:11:23Z</time></trkpt><trkpt lat="38.78818674662928" lon="16.340212941494833"><ele>674.0</ele><time>2026-04-12T14:11:24Z</time></trkpt><trkpt lat="38.78821355844186" lon="16.34034245176158"><ele>674.0</ele><time>2026-04-12T14:11:25Z</time></trkpt><trkpt lat="38.788224023089" lon="16.340473742349392"><ele>674.0</ele><time>2026-04-12T14:11:26Z</time></trkpt><trkpt lat="38.78821257949683" lon="16.340610038975235"><ele>674.0</ele><time>2026-04-12T14:11:27Z</time></trkpt><trkpt lat="38.788207373803004" lon="16.34076259721275"><ele>675.0</ele><time>2026-04-12T14:11:28Z</time></trkpt><trkpt lat="38.78820914300981" lon="16.34090501560532"><ele>676.0</ele><time>2026-04-12T14:11:29Z</time></trkpt><trkpt lat="38.78827169616619" lon="16.341044306919606"><ele>677.0</ele><time>2026-04-12T14:11:30Z</time></trkpt><trkpt lat="38.78833169212636" lon="16.341181427967417"><ele>678.0</ele><time>2026-04-12T14:11:31Z</time></trkpt><trkpt lat="38.7883993886816" lon="16.341318754039555"><ele>678.5</ele><time>2026-04-12T14:11:32Z</time></trkpt><trkpt lat="38.78846662033318" lon="16.34144382209829"><ele>679.0</ele><time>2026-04-12T14:11:33Z</time></trkpt><trkpt lat="38.78853295180377" lon="16.341571639171264"><ele>679.5</ele><time>2026-04-12T14:11:34Z</time></trkpt><trkpt lat="38.78862227341191" lon="16.341639332657294"><ele>680.0</ele><time>2026-04-12T14:11:35Z</time></trkpt><trkpt lat="38.78873310827952" lon="16.341648231309637"><ele>680.0</ele><time>2026-04-12T14:11:36Z</time></trkpt><trkpt lat="38.78883678379179" lon="16.341582072712033"><ele>680.0</ele><time>2026-04-12T14:11:37Z</time></trkpt><trkpt lat="38.78893402254192" lon="16.341492224924885"><ele>680.0</ele><time>2026-04-12T14:11:38Z</time></trkpt><trkpt lat="38.788976833308794" lon="16.341364519642077"><ele>680.0</ele><time>2026-04-12T14:11:39Z</time></trkpt><trkpt lat="38.78899550681054" lon="16.341204576677345"><ele>678.5</ele><time>2026-04-12T14:11:40Z</time></trkpt><trkpt lat="38.78899362682821" lon="16.341049475722745"><ele>677.0</ele><time>2026-04-12T14:11:41Z</time></trkpt><trkpt lat="38.78899831458952" lon="16.340850392140652"><ele>675.5</ele><time>2026-04-12T14:11:42Z</time></trkpt><trkpt lat="38.78898807170275" lon="16.340712847267355"><ele>674.0</ele><time>2026-04-12T14:11:43Z</time></trkpt><trkpt lat="38.78899030112235" lon="16.340563142508767"><ele>671.75</ele><time>2026-04-12T14:11:44Z</time></trkpt><trkpt lat="38.78899666341827" lon="16.34040933031065"><ele>669.5</ele><time>2026-04-12T14:11:45Z</time></trkpt><trkpt lat="38.78904488395541" lon="16.340266103146273"><ele>667.25</ele><time>2026-04-12T14:11:46Z</time></trkpt><trkpt lat="38.789105030627574" lon="16.34012155303218"><ele>665.0</ele><time>2026-04-12T14:11:47Z</time></trkpt><trkpt lat="38.78915164253882" lon="16.339963736065275"><ele>665.0</ele><time>2026-04-12T14:11:48Z</time></trkpt><trkpt lat="38.78921943475716" lon="16.339809603871235"><ele>665.0</ele><time>2026-04-12T14:11:49.001Z</time></trkpt><trkpt lat="38.789283846857465" lon="16.33965738407507"><ele>665.0</ele><time>2026-04-12T14:11:50.001Z</time></trkpt><trkpt lat="38.78934391609201" lon="16.339503577419862"><ele>665.0</ele><time>2026-04-12T14:11:51.001Z</time></trkpt><trkpt lat="38.78940617840754" lon="16.339345644451623"><ele>664.75</ele><time>2026-04-12T14:11:52.001Z</time></trkpt><trkpt lat="38.78947209120079" lon="16.3391883204479"><ele>664.5</ele><time>2026-04-12T14:11:53.001Z</time></trkpt><trkpt lat="38.78953649400133" lon="16.339024129824473"><ele>664.25</ele><time>2026-04-12T14:11:54.001Z</time></trkpt><trkpt lat="38.78960556361711" lon="16.338864067870173"><ele>664.0</ele><time>2026-04-12T14:11:55.001Z</time></trkpt><trkpt lat="38.789666941105196" lon="16.338674035310138"><ele>664.0</ele><time>2026-04-12T14:11:56.001Z</time></trkpt><trkpt lat="38.7897377079127" lon="16.338529369130807"><ele>664.0</ele><time>2026-04-12T14:11:57.001Z</time></trkpt><trkpt lat="38.78979974650494" lon="16.338364486107412"><ele>664.0</ele><time>2026-04-12T14:11:58.001Z</time></trkpt><trkpt lat="38.78986242018946" lon="16.338210697517503"><ele>664.0</ele><time>2026-04-12T14:11:59.001Z</time></trkpt><trkpt lat="38.78992224467158" lon="16.338062912188477"><ele>663.75</ele><time>2026-04-12T14:12:00.001Z</time></trkpt><trkpt lat="38.78998187905286" lon="16.337912104913485"><ele>663.5</ele><time>2026-04-12T14:12:01.001Z</time></trkpt><trkpt lat="38.79004094469133" lon="16.337775961412127"><ele>663.25</ele><time>2026-04-12T14:12:02.001Z</time></trkpt><trkpt lat="38.79009061203213" lon="16.33763619920437"><ele>663.0</ele><time>2026-04-12T14:12:03.001Z</time></trkpt><trkpt lat="38.7901519251797" lon="16.337527841604246"><ele>662.8</ele><time>2026-04-12T14:12:04.001Z</time></trkpt><trkpt lat="38.79021878433102" lon="16.337436735785722"><ele>662.5999999999999</ele><time>2026-04-12T14:12:05.001Z</time></trkpt><trkpt lat="38.79031487089083" lon="16.337389972815743"><ele>662.4000000000001</ele><time>2026-04-12T14:12:06.001Z</time></trkpt><trkpt lat="38.790428064494286" lon="16.3374282876579"><ele>662.2</ele><time>2026-04-12T14:12:07.001Z</time></trkpt><trkpt lat="38.79054651156936" lon="16.337447201347008"><ele>662.0</ele><time>2026-04-12T14:12:08.001Z</time></trkpt><trkpt lat="38.79066955802857" lon="16.33747732773668"><ele>662.0</ele><time>2026-04-12T14:12:09.001Z</time></trkpt><trkpt lat="38.79080204604338" lon="16.337512701280634"><ele>662.0</ele><time>2026-04-12T14:12:10.001Z</time></trkpt><trkpt lat="38.79093447426266" lon="16.337547899771035"><ele>662.0</ele><time>2026-04-12T14:12:11.001Z</time></trkpt><trkpt lat="38.79106986403584" lon="16.33758388537707"><ele>662.0</ele><time>2026-04-12T14:12:12.001Z</time></trkpt><trkpt lat="38.7912072723141" lon="16.337598947143615"><ele>661.0</ele><time>2026-04-12T14:12:13.001Z</time></trkpt><trkpt lat="38.791330175696444" lon="16.337632144295096"><ele>660.0</ele><time>2026-04-12T14:12:14.001Z</time></trkpt><trkpt lat="38.79144899135995" lon="16.337664155434318"><ele>659.0</ele><time>2026-04-12T14:12:15.001Z</time></trkpt><trkpt lat="38.79156505171423" lon="16.33771483216567"><ele>658.0</ele><time>2026-04-12T14:12:16.001Z</time></trkpt><trkpt lat="38.791679547501616" lon="16.337744940715815"><ele>658.0</ele><time>2026-04-12T14:12:17.001Z</time></trkpt><trkpt lat="38.7917877324463" lon="16.33777338978399"><ele>658.0</ele><time>2026-04-12T14:12:18.001Z</time></trkpt><trkpt lat="38.79189450051104" lon="16.33780146619097"><ele>658.0</ele><time>2026-04-12T14:12:19Z</time></trkpt><trkpt lat="38.79199523319575" lon="16.337829437397474"><ele>658.0</ele><time>2026-04-12T14:12:20Z</time></trkpt><trkpt lat="38.792071721580776" lon="16.337864494397387"><ele>658.0</ele><time>2026-04-12T14:12:21Z</time></trkpt><trkpt lat="38.79213681835395" lon="16.337920938328804"><ele>657.0</ele><time>2026-04-12T14:12:22Z</time></trkpt><trkpt lat="38.792173481225305" lon="16.337988155298707"><ele>656.0</ele><time>2026-04-12T14:12:23Z</time></trkpt><trkpt lat="38.79219467694656" lon="16.33812751750515"><ele>655.0</ele><time>2026-04-12T14:12:25Z</time></trkpt><trkpt lat="38.79221300022961" lon="16.33825356446475"><ele>654.0</ele><time>2026-04-12T14:12:27Z</time></trkpt><trkpt lat="38.79226515823903" lon="16.33837476129837"><ele>653.0</ele><time>2026-04-12T14:12:29Z</time></trkpt><trkpt lat="38.79232229119264" lon="16.338413660383804"><ele>652.0</ele><time>2026-04-12T14:12:30Z</time></trkpt><trkpt lat="38.79241526101366" lon="16.338432581204597"><ele>652.0</ele><time>2026-04-12T14:12:32Z</time></trkpt><trkpt lat="38.79248462340368" lon="16.33843705749915"><ele>652.0</ele><time>2026-04-12T14:12:33Z</time></trkpt><trkpt lat="38.79255449005742" lon="16.338405226586836"><ele>652.0</ele><time>2026-04-12T14:12:34Z</time></trkpt><trkpt lat="38.79266243249923" lon="16.338269418822804"><ele>652.0</ele><time>2026-04-12T14:12:36Z</time></trkpt><trkpt lat="38.79273566455993" lon="16.338155470003215"><ele>652.0</ele><time>2026-04-12T14:12:37Z</time></trkpt><trkpt lat="38.7928114225113" lon="16.33806908183653"><ele>650.75</ele><time>2026-04-12T14:12:38Z</time></trkpt><trkpt lat="38.7928690140336" lon="16.33795311040062"><ele>649.5</ele><time>2026-04-12T14:12:39Z</time></trkpt><trkpt lat="38.79293483564115" lon="16.337832022206012"><ele>648.25</ele><time>2026-04-12T14:12:40Z</time></trkpt><trkpt lat="38.79300648691565" lon="16.33769826478267"><ele>647.0</ele><time>2026-04-12T14:12:41Z</time></trkpt><trkpt lat="38.79306601995978" lon="16.337556933591905"><ele>647.0</ele><time>2026-04-12T14:12:42Z</time></trkpt><trkpt lat="38.79311080319549" lon="16.3373912775225"><ele>647.0</ele><time>2026-04-12T14:12:43Z</time></trkpt><trkpt lat="38.79310993680869" lon="16.337196918665175"><ele>647.0</ele><time>2026-04-12T14:12:44Z</time></trkpt><trkpt lat="38.79311552815041" lon="16.337016569123364"><ele>647.0</ele><time>2026-04-12T14:12:45Z</time></trkpt><trkpt lat="38.79312131686753" lon="16.336818728050442"><ele>646.0</ele><time>2026-04-12T14:12:46Z</time></trkpt><trkpt lat="38.793134336867254" lon="16.336633520811112"><ele>645.0</ele><time>2026-04-12T14:12:47Z</time></trkpt><trkpt lat="38.793134094105426" lon="16.336436648552397"><ele>644.0</ele><time>2026-04-12T14:12:48Z</time></trkpt><trkpt lat="38.793145333342174" lon="16.336244816361297"><ele>643.0</ele><time>2026-04-12T14:12:49Z</time></trkpt><trkpt lat="38.793152939092394" lon="16.336046377433334"><ele>641.0</ele><time>2026-04-12T14:12:50Z</time></trkpt><trkpt lat="38.793177592887" lon="16.335839021686148"><ele>639.0</ele><time>2026-04-12T14:12:51Z</time></trkpt><trkpt lat="38.793175496142155" lon="16.335652151227674"><ele>637.0</ele><time>2026-04-12T14:12:52Z</time></trkpt><trkpt lat="38.79319807847928" lon="16.335470281096978"><ele>635.5</ele><time>2026-04-12T14:12:53Z</time></trkpt><trkpt lat="38.79320854910306" lon="16.335281809877344"><ele>634.0</ele><time>2026-04-12T14:12:54Z</time></trkpt><trkpt lat="38.79321815845282" lon="16.335108820417343"><ele>632.5</ele><time>2026-04-12T14:12:55Z</time></trkpt><trkpt lat="38.79322713603866" lon="16.33494713909867"><ele>631.0</ele><time>2026-04-12T14:12:56Z</time></trkpt><trkpt lat="38.79324928628462" lon="16.334817482299435"><ele>627.4</ele><time>2026-04-12T14:12:57Z</time></trkpt><trkpt lat="38.79330073419006" lon="16.334699739358513"><ele>623.8</ele><time>2026-04-12T14:12:58Z</time></trkpt><trkpt lat="38.79339190923347" lon="16.33464601320985"><ele>620.1999999999999</ele><time>2026-04-12T14:12:59Z</time></trkpt><trkpt lat="38.793492183133594" lon="16.334594568173916"><ele>616.6</ele><time>2026-04-12T14:13:00Z</time></trkpt><trkpt lat="38.7936001533715" lon="16.33453911639495"><ele>613.0</ele><time>2026-04-12T14:13:01Z</time></trkpt><trkpt lat="38.79371490489725" lon="16.334478604293523"><ele>612.25</ele><time>2026-04-12T14:13:02Z</time></trkpt><trkpt lat="38.79383862391353" lon="16.334494482414346"><ele>611.5</ele><time>2026-04-12T14:13:03Z</time></trkpt><trkpt lat="38.79397012319551" lon="16.334535526577117"><ele>610.75</ele><time>2026-04-12T14:13:04Z</time></trkpt><trkpt lat="38.79410679745507" lon="16.334558450279637"><ele>610.0</ele><time>2026-04-12T14:13:05Z</time></trkpt><trkpt lat="38.79422286575105" lon="16.33461000018825"><ele>610.0</ele><time>2026-04-12T14:13:06Z</time></trkpt><trkpt lat="38.79430303692926" lon="16.33469432047739"><ele>610.0</ele><time>2026-04-12T14:13:07Z</time></trkpt><trkpt lat="38.794338486543715" lon="16.334813024816707"><ele>610.0</ele><time>2026-04-12T14:13:08Z</time></trkpt><trkpt lat="38.794304714837686" lon="16.334953818605463"><ele>610.0</ele><time>2026-04-12T14:13:09Z</time></trkpt><trkpt lat="38.794253299731245" lon="16.33508455404046"><ele>610.0</ele><time>2026-04-12T14:13:10Z</time></trkpt><trkpt lat="38.79420731445893" lon="16.335217954826692"><ele>613.2</ele><time>2026-04-12T14:13:11Z</time></trkpt><trkpt lat="38.79416255317318" lon="16.33534831906939"><ele>616.4</ele><time>2026-04-12T14:13:12Z</time></trkpt><trkpt lat="38.79413509195662" lon="16.335489403889053"><ele>619.6</ele><time>2026-04-12T14:13:13Z</time></trkpt><trkpt lat="38.79411918725638" lon="16.33561465779836"><ele>622.8</ele><time>2026-04-12T14:13:14Z</time></trkpt><trkpt lat="38.794147414815704" lon="16.33574369296823"><ele>626.0</ele><time>2026-04-12T14:13:15Z</time></trkpt><trkpt lat="38.79422379249802" lon="16.3358426413016"><ele>626.0</ele><time>2026-04-12T14:13:16Z</time></trkpt><trkpt lat="38.79431212832718" lon="16.335909406748637"><ele>626.0</ele><time>2026-04-12T14:13:17Z</time></trkpt><trkpt lat="38.794403097343135" lon="16.335971862487447"><ele>626.0</ele><time>2026-04-12T14:13:18Z</time></trkpt><trkpt lat="38.79450044300974" lon="16.33604258249745"><ele>626.0</ele><time>2026-04-12T14:13:19Z</time></trkpt><trkpt lat="38.79461435599023" lon="16.33609148720838"><ele>626.0</ele><time>2026-04-12T14:13:20Z</time></trkpt><trkpt lat="38.7947394096149" lon="16.33610189751703"><ele>622.0</ele><time>2026-04-12T14:13:21Z</time></trkpt><trkpt lat="38.79486611067077" lon="16.336106064543106"><ele>618.0</ele><time>2026-04-12T14:13:22Z</time></trkpt><trkpt lat="38.79500434835016" lon="16.336118417461496"><ele>614.0</ele><time>2026-04-12T14:13:23Z</time></trkpt><trkpt lat="38.79512980247959" lon="16.336140829955816"><ele>610.0</ele><time>2026-04-12T14:13:24Z</time></trkpt><trkpt lat="38.79524600937942" lon="16.336167759940686"><ele>608.5</ele><time>2026-04-12T14:13:25Z</time></trkpt><trkpt lat="38.7953663745225" lon="16.33623968494513"><ele>607.0</ele><time>2026-04-12T14:13:26Z</time></trkpt><trkpt lat="38.795464271862855" lon="16.336355023022307"><ele>605.5</ele><time>2026-04-12T14:13:27Z</time></trkpt><trkpt lat="38.79554299875075" lon="16.33646795457791"><ele>604.0</ele><time>2026-04-12T14:13:28Z</time></trkpt><trkpt lat="38.79560615183599" lon="16.33655983994443"><ele>607.25</ele><time>2026-04-12T14:13:29Z</time></trkpt><trkpt lat="38.7956924614505" lon="16.336653658718916"><ele>610.5</ele><time>2026-04-12T14:13:30Z</time></trkpt><trkpt lat="38.795803110293235" lon="16.33670328542305"><ele>613.75</ele><time>2026-04-12T14:13:31Z</time></trkpt><trkpt lat="38.79593879933079" lon="16.33671310737964"><ele>617.0</ele><time>2026-04-12T14:13:32Z</time></trkpt><trkpt lat="38.79606214656336" lon="16.33666224930414"><ele>617.0</ele><time>2026-04-12T14:13:33Z</time></trkpt><trkpt lat="38.79615279525479" lon="16.336556361326213"><ele>617.0</ele><time>2026-04-12T14:13:34Z</time></trkpt><trkpt lat="38.796219036732374" lon="16.336417673280497"><ele>617.0</ele><time>2026-04-12T14:13:35Z</time></trkpt><trkpt lat="38.7962568475206" lon="16.336257116237697"><ele>617.0</ele><time>2026-04-12T14:13:36Z</time></trkpt><trkpt lat="38.79627116265765" lon="16.33608340779945"><ele>616.25</ele><time>2026-04-12T14:13:37Z</time></trkpt><trkpt lat="38.796280624011516" lon="16.335920423401205"><ele>615.5</ele><time>2026-04-12T14:13:38Z</time></trkpt><trkpt lat="38.79629641984587" lon="16.335761266736032"><ele>614.75</ele><time>2026-04-12T14:13:39Z</time></trkpt><trkpt lat="38.79631820842381" lon="16.33560481678792"><ele>614.0</ele><time>2026-04-12T14:13:40Z</time></trkpt><trkpt lat="38.79635239703118" lon="16.335457877413656"><ele>611.0</ele><time>2026-04-12T14:13:41Z</time></trkpt><trkpt lat="38.7964058322098" lon="16.33530867845478"><ele>608.0</ele><time>2026-04-12T14:13:42Z</time></trkpt><trkpt lat="38.79649795171758" lon="16.33520442133805"><ele>605.0</ele><time>2026-04-12T14:13:43Z</time></trkpt><trkpt lat="38.796609609072675" lon="16.335112498480026"><ele>602.0</ele><time>2026-04-12T14:13:44Z</time></trkpt><trkpt lat="38.79673313995" lon="16.335049063077566"><ele>603.0</ele><time>2026-04-12T14:13:45Z</time></trkpt><trkpt lat="38.796873769583705" lon="16.335009258104805"><ele>604.0</ele><time>2026-04-12T14:13:46Z</time></trkpt><trkpt lat="38.79699758811746" lon="16.335010948085188"><ele>605.0</ele><time>2026-04-12T14:13:47Z</time></trkpt><trkpt lat="38.79711998562266" lon="16.334993053357785"><ele>606.0</ele><time>2026-04-12T14:13:48Z</time></trkpt><trkpt lat="38.79723474983789" lon="16.334945034870227"><ele>606.0</ele><time>2026-04-12T14:13:49Z</time></trkpt><trkpt lat="38.797330338994364" lon="16.334876161579995"><ele>606.0</ele><time>2026-04-12T14:13:50Z</time></trkpt><trkpt lat="38.79742945559957" lon="16.334790052239157"><ele>606.0</ele><time>2026-04-12T14:13:51Z</time></trkpt><trkpt lat="38.79750710017217" lon="16.334732965470963"><ele>606.0</ele><time>2026-04-12T14:13:52Z</time></trkpt><trkpt lat="38.79756564720404" lon="16.334645038754118"><ele>606.0</ele><time>2026-04-12T14:13:54Z</time></trkpt><trkpt lat="38.797618892761655" lon="16.33455734870181"><ele>601.0</ele><time>2026-04-12T14:13:56Z</time></trkpt><trkpt lat="38.79768847264761" lon="16.33444493942239"><ele>596.0</ele><time>2026-04-12T14:13:58Z</time></trkpt><trkpt lat="38.797723858558385" lon="16.334349820756003"><ele>591.0</ele><time>2026-04-12T14:13:59Z</time></trkpt><trkpt lat="38.79773485792224" lon="16.334210529322178"><ele>586.0</ele><time>2026-04-12T14:14:00Z</time></trkpt><trkpt lat="38.797746263868866" lon="16.33406336459608"><ele>581.0</ele><time>2026-04-12T14:14:01Z</time></trkpt><trkpt lat="38.79775452357573" lon="16.333898220120023"><ele>582.25</ele><time>2026-04-12T14:14:02Z</time></trkpt><trkpt lat="38.79776239004998" lon="16.33372705623113"><ele>583.5</ele><time>2026-04-12T14:14:03Z</time></trkpt><trkpt lat="38.79776995631257" lon="16.333548423257206"><ele>584.75</ele><time>2026-04-12T14:14:04Z</time></trkpt><trkpt lat="38.797782287401404" lon="16.333355300067826"><ele>586.0</ele><time>2026-04-12T14:14:05Z</time></trkpt><trkpt lat="38.797793916082426" lon="16.333162927911406"><ele>585.75</ele><time>2026-04-12T14:14:06Z</time></trkpt><trkpt lat="38.79781057065268" lon="16.332969727336856"><ele>585.5</ele><time>2026-04-12T14:14:07Z</time></trkpt><trkpt lat="38.7978202110979" lon="16.332778823551152"><ele>585.25</ele><time>2026-04-12T14:14:08Z</time></trkpt><trkpt lat="38.79783002954965" lon="16.332588734437717"><ele>585.0</ele><time>2026-04-12T14:14:09Z</time></trkpt><trkpt lat="38.797840430766676" lon="16.33240318445588"><ele>585.0</ele><time>2026-04-12T14:14:10Z</time></trkpt><trkpt lat="38.79784250106109" lon="16.332227258098694"><ele>585.0</ele><time>2026-04-12T14:14:11Z</time></trkpt><trkpt lat="38.79785062678711" lon="16.33207122996874"><ele>585.0</ele><time>2026-04-12T14:14:12Z</time></trkpt><trkpt lat="38.79785838326739" lon="16.3319215828092"><ele>585.0</ele><time>2026-04-12T14:14:13Z</time></trkpt><trkpt lat="38.79786421830519" lon="16.331784649365705"><ele>586.5</ele><time>2026-04-12T14:14:14Z</time></trkpt><trkpt lat="38.797867109195835" lon="16.331652439914087"><ele>588.0</ele><time>2026-04-12T14:14:15Z</time></trkpt><trkpt lat="38.79786677499602" lon="16.33151497408512"><ele>589.5</ele><time>2026-04-12T14:14:16.001Z</time></trkpt><trkpt lat="38.79787643102137" lon="16.33135952912087"><ele>591.0</ele><time>2026-04-12T14:14:17.001Z</time></trkpt><trkpt lat="38.797878570814476" lon="16.33119854092441"><ele>592.25</ele><time>2026-04-12T14:14:18.001Z</time></trkpt><trkpt lat="38.797886436461155" lon="16.331034212771165"><ele>593.5</ele><time>2026-04-12T14:14:19.001Z</time></trkpt><trkpt lat="38.79789379165357" lon="16.33086328646844"><ele>594.75</ele><time>2026-04-12T14:14:20.001Z</time></trkpt><trkpt lat="38.79790358098856" lon="16.330696465112972"><ele>596.0</ele><time>2026-04-12T14:14:21.001Z</time></trkpt><trkpt lat="38.79789651840744" lon="16.330505006649066"><ele>597.0</ele><time>2026-04-12T14:14:22.001Z</time></trkpt><trkpt lat="38.79788953517877" lon="16.330319259698857"><ele>598.0</ele><time>2026-04-12T14:14:23.001Z</time></trkpt><trkpt lat="38.79788412975263" lon="16.330123026315785"><ele>599.0</ele><time>2026-04-12T14:14:24.001Z</time></trkpt><trkpt lat="38.79788723615721" lon="16.32993295255364"><ele>600.0</ele><time>2026-04-12T14:14:25Z</time></trkpt><trkpt lat="38.79788694611511" lon="16.329743379427224"><ele>599.6666666666666</ele><time>2026-04-12T14:14:26Z</time></trkpt><trkpt lat="38.797887691634514" lon="16.329544926255807"><ele>599.3333333333333</ele><time>2026-04-12T14:14:27Z</time></trkpt><trkpt lat="38.79788719474157" lon="16.329346504549147"><ele>599.0</ele><time>2026-04-12T14:14:28Z</time></trkpt><trkpt lat="38.79788155086185" lon="16.329142855842118"><ele>599.0</ele><time>2026-04-12T14:14:29Z</time></trkpt><trkpt lat="38.7978777285477" lon="16.328939438137247"><ele>599.0</ele><time>2026-04-12T14:14:30Z</time></trkpt><trkpt lat="38.79787117070905" lon="16.328731866908356"><ele>599.0</ele><time>2026-04-12T14:14:31Z</time></trkpt><trkpt lat="38.797870232514775" lon="16.328531342058888"><ele>598.3333333333333</ele><time>2026-04-12T14:14:32Z</time></trkpt><trkpt lat="38.79786796920506" lon="16.32833598067863"><ele>597.6666666666666</ele><time>2026-04-12T14:14:33Z</time></trkpt><trkpt lat="38.79787400943296" lon="16.328143795292153"><ele>597.0</ele><time>2026-04-12T14:14:34Z</time></trkpt><trkpt lat="38.79790367902212" lon="16.32795240603719"><ele>594.6666666666666</ele><time>2026-04-12T14:14:35Z</time></trkpt><trkpt lat="38.79794019102113" lon="16.32776377166106"><ele>592.3333333333333</ele><time>2026-04-12T14:14:36Z</time></trkpt><trkpt lat="38.797984540828985" lon="16.327573301938212"><ele>590.0</ele><time>2026-04-12T14:14:37Z</time></trkpt><trkpt lat="38.79803691339936" lon="16.327389300278874"><ele>588.6666666666666</ele><time>2026-04-12T14:14:38Z</time></trkpt><trkpt lat="38.79809348963354" lon="16.327203667392542"><ele>587.3333333333334</ele><time>2026-04-12T14:14:39Z</time></trkpt><trkpt lat="38.79815142720662" lon="16.327018672475152"><ele>586.0</ele><time>2026-04-12T14:14:40Z</time></trkpt><trkpt lat="38.79820529590848" lon="16.326831368592444"><ele>586.0</ele><time>2026-04-12T14:14:41Z</time></trkpt><trkpt lat="38.79825804971921" lon="16.32664581007527"><ele>586.0</ele><time>2026-04-12T14:14:42Z</time></trkpt><trkpt lat="38.79829951586228" lon="16.326452218360807"><ele>586.0</ele><time>2026-04-12T14:14:43Z</time></trkpt><trkpt lat="38.79832294835003" lon="16.32625178687394"><ele>585.6666666666667</ele><time>2026-04-12T14:14:44Z</time></trkpt><trkpt lat="38.79832562368631" lon="16.326050748861498"><ele>585.3333333333334</ele><time>2026-04-12T14:14:45Z</time></trkpt><trkpt lat="38.79831971508206" lon="16.32584675589906"><ele>585.0</ele><time>2026-04-12T14:14:46Z</time></trkpt><trkpt lat="38.79830989753691" lon="16.32564228217498"><ele>585.3333333333334</ele><time>2026-04-12T14:14:47Z</time></trkpt><trkpt lat="38.79829974870624" lon="16.32543978933996"><ele>585.6666666666667</ele><time>2026-04-12T14:14:48Z</time></trkpt><trkpt lat="38.798289407520166" lon="16.32523748599988"><ele>586.0</ele><time>2026-04-12T14:14:49Z</time></trkpt><trkpt lat="38.79828217898659" lon="16.32504149722306"><ele>586.0</ele><time>2026-04-12T14:14:50Z</time></trkpt><trkpt lat="38.79827947188161" lon="16.32485334702872"><ele>586.0</ele><time>2026-04-12T14:14:51Z</time></trkpt><trkpt lat="38.79827385467075" lon="16.324674644551788"><ele>586.0</ele><time>2026-04-12T14:14:52Z</time></trkpt><trkpt lat="38.79826356463637" lon="16.324500395082335"><ele>586.0</ele><time>2026-04-12T14:14:53Z</time></trkpt><trkpt lat="38.79825396333061" lon="16.324328447474073"><ele>587.75</ele><time>2026-04-12T14:14:54Z</time></trkpt><trkpt lat="38.798241949174624" lon="16.32416298229736"><ele>589.5</ele><time>2026-04-12T14:14:55Z</time></trkpt><trkpt lat="38.798249523021425" lon="16.324002452356215"><ele>591.25</ele><time>2026-04-12T14:14:56Z</time></trkpt><trkpt lat="38.798249444100655" lon="16.323827649414106"><ele>593.0</ele><time>2026-04-12T14:14:57Z</time></trkpt><trkpt lat="38.79824444576206" lon="16.323635621578976"><ele>594.0</ele><time>2026-04-12T14:14:58Z</time></trkpt><trkpt lat="38.79824564325439" lon="16.323450978348777"><ele>595.0</ele><time>2026-04-12T14:14:59Z</time></trkpt><trkpt lat="38.7982637828821" lon="16.323270387110963"><ele>596.0</ele><time>2026-04-12T14:15:00Z</time></trkpt><trkpt lat="38.79831170824577" lon="16.32310088376638"><ele>597.0</ele><time>2026-04-12T14:15:01Z</time></trkpt><trkpt lat="38.79836265902662" lon="16.322939726116864"><ele>597.0</ele><time>2026-04-12T14:15:02Z</time></trkpt><trkpt lat="38.79841490195864" lon="16.322796377647396"><ele>597.0</ele><time>2026-04-12T14:15:03Z</time></trkpt><trkpt lat="38.798463105958504" lon="16.322628534824617"><ele>597.0</ele><time>2026-04-12T14:15:04Z</time></trkpt><trkpt lat="38.798510860345495" lon="16.322457826891945"><ele>597.0</ele><time>2026-04-12T14:15:05Z</time></trkpt><trkpt lat="38.798537589888205" lon="16.322275597003216"><ele>598.25</ele><time>2026-04-12T14:15:06Z</time></trkpt><trkpt lat="38.79853576945125" lon="16.322105921767083"><ele>599.5</ele><time>2026-04-12T14:15:07Z</time></trkpt><trkpt lat="38.79852429125834" lon="16.32191744519165"><ele>600.75</ele><time>2026-04-12T14:15:08Z</time></trkpt><trkpt lat="38.798519452154125" lon="16.3217422600609"><ele>602.0</ele><time>2026-04-12T14:15:09Z</time></trkpt><trkpt lat="38.79850639178862" lon="16.3215665828622"><ele>602.2</ele><time>2026-04-12T14:15:10Z</time></trkpt><trkpt lat="38.798452667283364" lon="16.321424876182792"><ele>602.4000000000001</ele><time>2026-04-12T14:15:11Z</time></trkpt><trkpt lat="38.79839329471631" lon="16.321310287039218"><ele>602.5999999999999</ele><time>2026-04-12T14:15:12Z</time></trkpt><trkpt lat="38.798306971754904" lon="16.32124026278585"><ele>602.8</ele><time>2026-04-12T14:15:13Z</time></trkpt><trkpt lat="38.798206470133536" lon="16.32116958192732"><ele>603.0</ele><time>2026-04-12T14:15:14Z</time></trkpt><trkpt lat="38.79809578925691" lon="16.32107772060447"><ele>603.8</ele><time>2026-04-12T14:15:15Z</time></trkpt><trkpt lat="38.79797632409289" lon="16.32101153879766"><ele>604.5999999999999</ele><time>2026-04-12T14:15:16Z</time></trkpt><trkpt lat="38.797903442786655" lon="16.32093404665673"><ele>605.4000000000001</ele><time>2026-04-12T14:15:17Z</time></trkpt><trkpt lat="38.797836351569465" lon="16.320836409722702"><ele>606.2</ele><time>2026-04-12T14:15:18Z</time></trkpt><trkpt lat="38.797785932524604" lon="16.32071447783744"><ele>607.0</ele><time>2026-04-12T14:15:19Z</time></trkpt><trkpt lat="38.797748231887105" lon="16.320574459271246"><ele>606.2</ele><time>2026-04-12T14:15:20Z</time></trkpt><trkpt lat="38.797733983129426" lon="16.320440540407137"><ele>605.4000000000001</ele><time>2026-04-12T14:15:21Z</time></trkpt><trkpt lat="38.79775870525873" lon="16.320314165064758"><ele>604.5999999999999</ele><time>2026-04-12T14:15:22Z</time></trkpt><trkpt lat="38.79780691748046" lon="16.320218988161812"><ele>603.8</ele><time>2026-04-12T14:15:23Z</time></trkpt><trkpt lat="38.79786723658395" lon="16.320110915564722"><ele>603.0</ele><time>2026-04-12T14:15:24Z</time></trkpt><trkpt lat="38.79792324816985" lon="16.319995790039577"><ele>603.0</ele><time>2026-04-12T14:15:25Z</time></trkpt><trkpt lat="38.79795806530036" lon="16.319860145699767"><ele>603.0</ele><time>2026-04-12T14:15:26Z</time></trkpt><trkpt lat="38.797969478185095" lon="16.319724149489367"><ele>603.0</ele><time>2026-04-12T14:15:27Z</time></trkpt><trkpt lat="38.79795095958016" lon="16.31958285965599"><ele>603.0</ele><time>2026-04-12T14:15:28Z</time></trkpt><trkpt lat="38.79791586425536" lon="16.319434132311947"><ele>603.4</ele><time>2026-04-12T14:15:29Z</time></trkpt><trkpt lat="38.79787346146462" lon="16.3192985271665"><ele>603.8</ele><time>2026-04-12T14:15:30Z</time></trkpt><trkpt lat="38.79781849876343" lon="16.319178077056797"><ele>604.2</ele><time>2026-04-12T14:15:31Z</time></trkpt><trkpt lat="38.797753514338005" lon="16.31906967061506"><ele>604.6</ele><time>2026-04-12T14:15:32Z</time></trkpt><trkpt lat="38.79770154994456" lon="16.318957906486123"><ele>605.0</ele><time>2026-04-12T14:15:33Z</time></trkpt><trkpt lat="38.797661383467" lon="16.318830892477187"><ele>603.75</ele><time>2026-04-12T14:15:34Z</time></trkpt><trkpt lat="38.7976379579772" lon="16.318688648905706"><ele>602.5</ele><time>2026-04-12T14:15:35Z</time></trkpt><trkpt lat="38.79762302200922" lon="16.318539272312325"><ele>601.25</ele><time>2026-04-12T14:15:36Z</time></trkpt><trkpt lat="38.797614604189036" lon="16.318386060095325"><ele>600.0</ele><time>2026-04-12T14:15:37Z</time></trkpt><trkpt lat="38.7975994770336" lon="16.318234241062182"><ele>600.0</ele><time>2026-04-12T14:15:38Z</time></trkpt><trkpt lat="38.797566945171866" lon="16.318081443591765"><ele>600.0</ele><time>2026-04-12T14:15:39Z</time></trkpt><trkpt lat="38.79751315315627" lon="16.317935701253727"><ele>600.0</ele><time>2026-04-12T14:15:40Z</time></trkpt><trkpt lat="38.79744265351837" lon="16.3177934566442"><ele>600.0</ele><time>2026-04-12T14:15:41Z</time></trkpt><trkpt lat="38.79736659000244" lon="16.317640749360628"><ele>601.0</ele><time>2026-04-12T14:15:42Z</time></trkpt><trkpt lat="38.797277627871686" lon="16.317485750752343"><ele>602.0</ele><time>2026-04-12T14:15:43Z</time></trkpt><trkpt lat="38.797170067497845" lon="16.317323909373002"><ele>603.0</ele><time>2026-04-12T14:15:44Z</time></trkpt><trkpt lat="38.797059005284524" lon="16.317140575355552"><ele>603.0</ele><time>2026-04-12T14:15:45Z</time></trkpt><trkpt lat="38.796915481974594" lon="16.3169718728308"><ele>603.0</ele><time>2026-04-12T14:15:46Z</time></trkpt><trkpt lat="38.79675927027427" lon="16.316822321684747"><ele>603.0</ele><time>2026-04-12T14:15:47Z</time></trkpt><trkpt lat="38.79662105686891" lon="16.3166545855895"><ele>602.3333333333334</ele><time>2026-04-12T14:15:48Z</time></trkpt><trkpt lat="38.796488827800616" lon="16.31649874315789"><ele>601.6666666666667</ele><time>2026-04-12T14:15:49Z</time></trkpt><trkpt lat="38.796364458836436" lon="16.316352881345043"><ele>601.0</ele><time>2026-04-12T14:15:50Z</time></trkpt><trkpt lat="38.796254534788524" lon="16.316226106119277"><ele>601.0</ele><time>2026-04-12T14:15:51Z</time></trkpt><trkpt lat="38.79615729498245" lon="16.316118396760373"><ele>601.0</ele><time>2026-04-12T14:15:52Z</time></trkpt><trkpt lat="38.79608776637007" lon="16.316018255477374"><ele>601.0</ele><time>2026-04-12T14:15:53Z</time></trkpt><trkpt lat="38.796052473486085" lon="16.31590364047489"><ele>601.0</ele><time>2026-04-12T14:15:54Z</time></trkpt><trkpt lat="38.796042185462156" lon="16.315771175906512"><ele>601.0</ele><time>2026-04-12T14:15:55Z</time></trkpt><trkpt lat="38.79607833584046" lon="16.31564699490488"><ele>600.0</ele><time>2026-04-12T14:15:56Z</time></trkpt><trkpt lat="38.79614361395075" lon="16.315547100933642"><ele>599.0</ele><time>2026-04-12T14:15:57Z</time></trkpt><trkpt lat="38.79621500410129" lon="16.315470319581173"><ele>598.0</ele><time>2026-04-12T14:15:58Z</time></trkpt><trkpt lat="38.79628666016872" lon="16.315391957070908"><ele>597.0</ele><time>2026-04-12T14:15:59Z</time></trkpt><trkpt lat="38.796342782597506" lon="16.315321752848188"><ele>596.0</ele><time>2026-04-12T14:16:00Z</time></trkpt><trkpt lat="38.796423011424" lon="16.315239252309595"><ele>596.0</ele><time>2026-04-12T14:16:02Z</time></trkpt><trkpt lat="38.796491651375725" lon="16.315205761696923"><ele>596.0</ele><time>2026-04-12T14:16:04Z</time></trkpt><trkpt lat="38.79652822282689" lon="16.31513664594413"><ele>596.0</ele><time>2026-04-12T14:18:19.001Z</time></trkpt><trkpt lat="38.79657209218339" lon="16.315012017433983"><ele>596.0</ele><time>2026-04-12T14:18:21.001Z</time></trkpt><trkpt lat="38.796591486404495" lon="16.31492365880905"><ele>596.0</ele><time>2026-04-12T14:18:22.001Z</time></trkpt><trkpt lat="38.79658967019013" lon="16.314821871633917"><ele>596.0</ele><time>2026-04-12T14:18:23.001Z</time></trkpt><trkpt lat="38.79657068551151" lon="16.314718334222135"><ele>596.6</ele><time>2026-04-12T14:18:24.001Z</time></trkpt><trkpt lat="38.7965335444888" lon="16.31461606197171"><ele>597.2</ele><time>2026-04-12T14:18:25.001Z</time></trkpt><trkpt lat="38.796482655622604" lon="16.314507900352424"><ele>597.8</ele><time>2026-04-12T14:18:26.001Z</time></trkpt><trkpt lat="38.79640797195819" lon="16.314400983925257"><ele>598.4</ele><time>2026-04-12T14:18:27.001Z</time></trkpt><trkpt lat="38.79635560394353" lon="16.31429608988821"><ele>599.0</ele><time>2026-04-12T14:18:28.001Z</time></trkpt><trkpt lat="38.79629485621712" lon="16.314191543432816"><ele>599.0</ele><time>2026-04-12T14:18:29.001Z</time></trkpt><trkpt lat="38.796226710717725" lon="16.314083795214245"><ele>599.0</ele><time>2026-04-12T14:18:30.001Z</time></trkpt><trkpt lat="38.79614686900738" lon="16.31397525649076"><ele>599.0</ele><time>2026-04-12T14:18:31.001Z</time></trkpt><trkpt lat="38.796057558534564" lon="16.313892554856672"><ele>599.0</ele><time>2026-04-12T14:18:32.001Z</time></trkpt><trkpt lat="38.79595670487005" lon="16.313823414370617"><ele>599.0</ele><time>2026-04-12T14:18:33.001Z</time></trkpt><trkpt lat="38.79584634320951" lon="16.31376314778123"><ele>598.5</ele><time>2026-04-12T14:18:34.001Z</time></trkpt><trkpt lat="38.795726453453774" lon="16.313716370638975"><ele>598.0</ele><time>2026-04-12T14:18:35.001Z</time></trkpt><trkpt lat="38.795606119275135" lon="16.31366351030489"><ele>597.5</ele><time>2026-04-12T14:18:36.001Z</time></trkpt><trkpt lat="38.79548416465542" lon="16.313606312169973"><ele>597.0</ele><time>2026-04-12T14:18:37Z</time></trkpt><trkpt lat="38.79535620009868" lon="16.313560574249053"><ele>597.0</ele><time>2026-04-12T14:18:38Z</time></trkpt><trkpt lat="38.79523036701541" lon="16.313509622390757"><ele>597.0</ele><time>2026-04-12T14:18:39Z</time></trkpt><trkpt lat="38.79510533331958" lon="16.313455257674374"><ele>597.0</ele><time>2026-04-12T14:18:40Z</time></trkpt><trkpt lat="38.79498201381362" lon="16.3134083578726"><ele>597.0</ele><time>2026-04-12T14:18:41Z</time></trkpt><trkpt lat="38.79485657140159" lon="16.31336618783515"><ele>595.5</ele><time>2026-04-12T14:18:42Z</time></trkpt><trkpt lat="38.79472967436044" lon="16.313319360603728"><ele>594.0</ele><time>2026-04-12T14:18:43Z</time></trkpt><trkpt lat="38.79459852163492" lon="16.31327449894606"><ele>592.5</ele><time>2026-04-12T14:18:44Z</time></trkpt><trkpt lat="38.794471400820704" lon="16.313216427257792"><ele>591.0</ele><time>2026-04-12T14:18:45Z</time></trkpt><trkpt lat="38.79432754030763" lon="16.313170739017703"><ele>590.0</ele><time>2026-04-12T14:18:46Z</time></trkpt><trkpt lat="38.79418477141535" lon="16.313136546705262"><ele>589.0</ele><time>2026-04-12T14:18:47Z</time></trkpt><trkpt lat="38.79404986261752" lon="16.3131005966135"><ele>588.0</ele><time>2026-04-12T14:18:48Z</time></trkpt><trkpt lat="38.793914396849345" lon="16.313059524427516"><ele>587.0</ele><time>2026-04-12T14:18:49Z</time></trkpt><trkpt lat="38.79378437703026" lon="16.3130233970992"><ele>588.75</ele><time>2026-04-12T14:18:50Z</time></trkpt><trkpt lat="38.79366899359196" lon="16.312987709555852"><ele>590.5</ele><time>2026-04-12T14:18:51Z</time></trkpt><trkpt lat="38.79355877345562" lon="16.312943612566716"><ele>592.25</ele><time>2026-04-12T14:18:52Z</time></trkpt><trkpt lat="38.79345302915458" lon="16.312880465215315"><ele>594.0</ele><time>2026-04-12T14:18:53Z</time></trkpt><trkpt lat="38.79337127456921" lon="16.312792835381664"><ele>594.0</ele><time>2026-04-12T14:18:54Z</time></trkpt><trkpt lat="38.79330787164145" lon="16.312670787156335"><ele>594.0</ele><time>2026-04-12T14:18:55Z</time></trkpt><trkpt lat="38.79325568313451" lon="16.312524687748123"><ele>594.0</ele><time>2026-04-12T14:18:56Z</time></trkpt><trkpt lat="38.7931916157704" lon="16.3123851965824"><ele>594.0</ele><time>2026-04-12T14:18:57Z</time></trkpt><trkpt lat="38.793128802649335" lon="16.312223688591807"><ele>597.5</ele><time>2026-04-12T14:18:58Z</time></trkpt><trkpt lat="38.79306612668261" lon="16.31205665237058"><ele>601.0</ele><time>2026-04-12T14:18:59Z</time></trkpt><trkpt lat="38.792995600605664" lon="16.311897385564716"><ele>604.5</ele><time>2026-04-12T14:19:00Z</time></trkpt><trkpt lat="38.79293295544812" lon="16.311762107320884"><ele>608.0</ele><time>2026-04-12T14:19:01Z</time></trkpt><trkpt lat="38.792870829411115" lon="16.311644760136627"><ele>608.0</ele><time>2026-04-12T14:19:02Z</time></trkpt><trkpt lat="38.79280296709972" lon="16.311539111819144"><ele>608.0</ele><time>2026-04-12T14:19:03Z</time></trkpt><trkpt lat="38.79274202658315" lon="16.3114389647871"><ele>608.0</ele><time>2026-04-12T14:19:04Z</time></trkpt><trkpt lat="38.792683909749506" lon="16.311338666345186"><ele>608.0</ele><time>2026-04-12T14:19:05Z</time></trkpt><trkpt lat="38.79264081134034" lon="16.311239603774272"><ele>608.0</ele><time>2026-04-12T14:19:06Z</time></trkpt><trkpt lat="38.79262052773458" lon="16.31113400636787"><ele>609.8</ele><time>2026-04-12T14:19:07Z</time></trkpt><trkpt lat="38.792614366241736" lon="16.31100852184465"><ele>611.5999999999999</ele><time>2026-04-12T14:19:08Z</time></trkpt><trkpt lat="38.792639039497764" lon="16.310896273087362"><ele>613.4000000000001</ele><time>2026-04-12T14:19:09Z</time></trkpt><trkpt lat="38.792673879622356" lon="16.31079930236762"><ele>615.2</ele><time>2026-04-12T14:19:10Z</time></trkpt><trkpt lat="38.7927267695062" lon="16.310697472320335"><ele>617.0</ele><time>2026-04-12T14:19:11Z</time></trkpt><trkpt lat="38.792785658297824" lon="16.310568609473858"><ele>617.4</ele><time>2026-04-12T14:19:12Z</time></trkpt><trkpt lat="38.79281682284297" lon="16.310442551494152"><ele>617.8000000000001</ele><time>2026-04-12T14:19:13Z</time></trkpt><trkpt lat="38.7928055719242" lon="16.31030827205862"><ele>618.2</ele><time>2026-04-12T14:19:14Z</time></trkpt><trkpt lat="38.792759107798744" lon="16.310187142384812"><ele>618.6</ele><time>2026-04-12T14:19:15Z</time></trkpt><trkpt lat="38.79268780616901" lon="16.310081867154594"><ele>619.0</ele><time>2026-04-12T14:19:16Z</time></trkpt><trkpt lat="38.792602787453966" lon="16.30998208087248"><ele>614.75</ele><time>2026-04-12T14:19:17Z</time></trkpt><trkpt lat="38.792520827480914" lon="16.30987093150156"><ele>610.5</ele><time>2026-04-12T14:19:18Z</time></trkpt><trkpt lat="38.792459726631925" lon="16.309722537081164"><ele>606.25</ele><time>2026-04-12T14:19:19Z</time></trkpt><trkpt lat="38.79241788206502" lon="16.309561685976572"><ele>602.0</ele><time>2026-04-12T14:19:20Z</time></trkpt><trkpt lat="38.79237811760561" lon="16.309391205210897"><ele>602.0</ele><time>2026-04-12T14:19:21Z</time></trkpt><trkpt lat="38.792332566133325" lon="16.30922289579157"><ele>602.0</ele><time>2026-04-12T14:19:22Z</time></trkpt><trkpt lat="38.79227812564849" lon="16.309058434646097"><ele>602.0</ele><time>2026-04-12T14:19:23Z</time></trkpt><trkpt lat="38.79220916900628" lon="16.30890845128442"><ele>602.0</ele><time>2026-04-12T14:19:24Z</time></trkpt><trkpt lat="38.79213229682294" lon="16.308762293064586"><ele>603.25</ele><time>2026-04-12T14:19:25Z</time></trkpt><trkpt lat="38.7920610248127" lon="16.30860893856675"><ele>604.5</ele><time>2026-04-12T14:19:26Z</time></trkpt><trkpt lat="38.791997542547236" lon="16.30844922445725"><ele>605.75</ele><time>2026-04-12T14:19:27Z</time></trkpt><trkpt lat="38.791938653239825" lon="16.308282441801836"><ele>607.0</ele><time>2026-04-12T14:19:28Z</time></trkpt><trkpt lat="38.79188766562102" lon="16.308123207953443"><ele>606.75</ele><time>2026-04-12T14:19:29Z</time></trkpt><trkpt lat="38.7918445457569" lon="16.307969023446976"><ele>606.5</ele><time>2026-04-12T14:19:30Z</time></trkpt><trkpt lat="38.791803765458546" lon="16.307817918195493"><ele>606.25</ele><time>2026-04-12T14:19:31Z</time></trkpt><trkpt lat="38.79176035729335" lon="16.307677953879573"><ele>606.0</ele><time>2026-04-12T14:19:32Z</time></trkpt><trkpt lat="38.7917245832075" lon="16.30754836979602"><ele>604.8</ele><time>2026-04-12T14:19:33Z</time></trkpt><trkpt lat="38.79169231590971" lon="16.307425987151593"><ele>603.6</ele><time>2026-04-12T14:19:34Z</time></trkpt><trkpt lat="38.791663312171714" lon="16.30731297395247"><ele>602.4</ele><time>2026-04-12T14:19:35Z</time></trkpt><trkpt lat="38.79163881180805" lon="16.30722760405445"><ele>601.2</ele><time>2026-04-12T14:19:36Z</time></trkpt><trkpt lat="38.791615149635874" lon="16.30714938262961"><ele>600.0</ele><time>2026-04-12T14:19:37Z</time></trkpt><trkpt lat="38.79157558952896" lon="16.307002664177865"><ele>600.0</ele><time>2026-04-12T14:19:39Z</time></trkpt><trkpt lat="38.79153383521943" lon="16.30688627022013"><ele>600.0</ele><time>2026-04-12T14:19:41Z</time></trkpt><trkpt lat="38.791495008058526" lon="16.30678975925565"><ele>600.0</ele><time>2026-04-12T14:19:43Z</time></trkpt><trkpt lat="38.79146553866682" lon="16.306711256043712"><ele>600.0</ele><time>2026-04-12T14:19:45Z</time></trkpt><trkpt lat="38.791420971758555" lon="16.30661252901451"><ele>600.0</ele><time>2026-04-12T14:19:48Z</time></trkpt><trkpt lat="38.791378536824865" lon="16.30652183236057"><ele>600.0</ele><time>2026-04-12T14:19:51Z</time></trkpt><trkpt lat="38.79132903349794" lon="16.306427217309643"><ele>600.2</ele><time>2026-04-12T14:19:54Z</time></trkpt><trkpt lat="38.79127957008911" lon="16.30633528232538"><ele>600.4</ele><time>2026-04-12T14:19:57Z</time></trkpt><trkpt lat="38.79122340631047" lon="16.30622925393736"><ele>600.6</ele><time>2026-04-12T14:20:00Z</time></trkpt><trkpt lat="38.79118024938439" lon="16.306153093487296"><ele>600.8</ele><time>2026-04-12T14:20:02Z</time></trkpt><trkpt lat="38.79112572852444" lon="16.30605318824879"><ele>601.0</ele><time>2026-04-12T14:20:04Z</time></trkpt><trkpt lat="38.79106573099657" lon="16.305946544144014"><ele>601.0</ele><time>2026-04-12T14:20:06Z</time></trkpt><trkpt lat="38.79103054123026" lon="16.30587417179487"><ele>601.0</ele><time>2026-04-12T14:20:07Z</time></trkpt><trkpt lat="38.79099375606965" lon="16.305801561608646"><ele>601.0</ele><time>2026-04-12T14:20:08Z</time></trkpt><trkpt lat="38.79094786993225" lon="16.30571631372349"><ele>601.0</ele><time>2026-04-12T14:20:09Z</time></trkpt><trkpt lat="38.79089211293085" lon="16.305621935350423"><ele>601.0</ele><time>2026-04-12T14:20:10Z</time></trkpt><trkpt lat="38.7908379160764" lon="16.30552783566974"><ele>601.0</ele><time>2026-04-12T14:20:11Z</time></trkpt><trkpt lat="38.79078430261019" lon="16.305436403683437"><ele>601.6666666666667</ele><time>2026-04-12T14:20:12.001Z</time></trkpt><trkpt lat="38.79074297731931" lon="16.30534974066737"><ele>602.3333333333334</ele><time>2026-04-12T14:20:13.001Z</time></trkpt><trkpt lat="38.79070262288627" lon="16.305287482111037"><ele>603.0</ele><time>2026-04-12T14:20:14.001Z</time></trkpt><trkpt lat="38.79067011667653" lon="16.305176194452162"><ele>603.6666666666666</ele><time>2026-04-12T14:20:16.001Z</time></trkpt><trkpt lat="38.79067296796727" lon="16.305051207936454"><ele>604.3333333333333</ele><time>2026-04-12T14:20:19.001Z</time></trkpt><trkpt lat="38.79071096822713" lon="16.304913636892483"><ele>605.0</ele><time>2026-04-12T14:20:21.001Z</time></trkpt><trkpt lat="38.79075263834078" lon="16.304756669306705"><ele>605.6666666666666</ele><time>2026-04-12T14:20:23.001Z</time></trkpt><trkpt lat="38.79077917719909" lon="16.30466966708761"><ele>606.3333333333333</ele><time>2026-04-12T14:20:24.001Z</time></trkpt><trkpt lat="38.79080791280063" lon="16.3045732873278"><ele>607.0</ele><time>2026-04-12T14:20:25.001Z</time></trkpt><trkpt lat="38.79083642128551" lon="16.304471607157858"><ele>607.6666666666666</ele><time>2026-04-12T14:20:26.001Z</time></trkpt><trkpt lat="38.79086714033249" lon="16.304359058889794"><ele>608.3333333333334</ele><time>2026-04-12T14:20:27.001Z</time></trkpt><trkpt lat="38.790894205195876" lon="16.30424550389452"><ele>609.0</ele><time>2026-04-12T14:20:28.001Z</time></trkpt><trkpt lat="38.790923285213715" lon="16.304134359851883"><ele>609.0</ele><time>2026-04-12T14:20:29.001Z</time></trkpt><trkpt lat="38.79095114929033" lon="16.304026366237842"><ele>609.0</ele><time>2026-04-12T14:20:30.001Z</time></trkpt><trkpt lat="38.79098069961162" lon="16.30390677848225"><ele>609.0</ele><time>2026-04-12T14:20:31.001Z</time></trkpt><trkpt lat="38.79099632836325" lon="16.303769137974317"><ele>609.0</ele><time>2026-04-12T14:20:32.001Z</time></trkpt><trkpt lat="38.791012366954085" lon="16.30361670371351"><ele>609.0</ele><time>2026-04-12T14:20:33.001Z</time></trkpt><trkpt lat="38.791021864602875" lon="16.30345488401973"><ele>605.25</ele><time>2026-04-12T14:20:34.001Z</time></trkpt><trkpt lat="38.79102682977219" lon="16.30329198935256"><ele>601.5</ele><time>2026-04-12T14:20:35.001Z</time></trkpt><trkpt lat="38.791033259859525" lon="16.30312478881755"><ele>597.75</ele><time>2026-04-12T14:20:36.001Z</time></trkpt><trkpt lat="38.79104043947596" lon="16.30295709350669"><ele>594.0</ele><time>2026-04-12T14:20:37.001Z</time></trkpt><trkpt lat="38.79104555312626" lon="16.302787893646943"><ele>593.5</ele><time>2026-04-12T14:20:38.001Z</time></trkpt><trkpt lat="38.79104798391649" lon="16.30263058838081"><ele>593.0</ele><time>2026-04-12T14:20:39.001Z</time></trkpt><trkpt lat="38.79104889798792" lon="16.30247389176509"><ele>592.5</ele><time>2026-04-12T14:20:40.001Z</time></trkpt><trkpt lat="38.791047706600935" lon="16.302320470389017"><ele>592.0</ele><time>2026-04-12T14:20:41.001Z</time></trkpt><trkpt lat="38.79105117380624" lon="16.30216258606909"><ele>591.0</ele><time>2026-04-12T14:20:42.001Z</time></trkpt><trkpt lat="38.79103524940406" lon="16.302007070199178"><ele>590.0</ele><time>2026-04-12T14:20:43Z</time></trkpt><trkpt lat="38.791025581160774" lon="16.301866106185813"><ele>589.0</ele><time>2026-04-12T14:20:44Z</time></trkpt><trkpt lat="38.79100308846221" lon="16.301728253451806"><ele>588.0</ele><time>2026-04-12T14:20:45Z</time></trkpt><trkpt lat="38.79096629953907" lon="16.30159499570085"><ele>588.8</ele><time>2026-04-12T14:20:46Z</time></trkpt><trkpt lat="38.79092388205779" lon="16.301472501880678"><ele>589.5999999999999</ele><time>2026-04-12T14:20:47Z</time></trkpt><trkpt lat="38.79087198174666" lon="16.301353072971047"><ele>590.4000000000001</ele><time>2026-04-12T14:20:48Z</time></trkpt><trkpt lat="38.79081788184632" lon="16.301231329859743"><ele>591.2</ele><time>2026-04-12T14:20:49Z</time></trkpt><trkpt lat="38.79076890074588" lon="16.301113441745255"><ele>592.0</ele><time>2026-04-12T14:20:50Z</time></trkpt><trkpt lat="38.79071996265573" lon="16.300994507136895"><ele>592.0</ele><time>2026-04-12T14:20:51Z</time></trkpt><trkpt lat="38.790674657103736" lon="16.300891407081398"><ele>592.0</ele><time>2026-04-12T14:20:52Z</time></trkpt><trkpt lat="38.79066021655469" lon="16.30076096468684"><ele>592.0</ele><time>2026-04-12T14:20:53Z</time></trkpt><trkpt lat="38.79064004516376" lon="16.300627091676798"><ele>592.0</ele><time>2026-04-12T14:20:54Z</time></trkpt><trkpt lat="38.79062687548663" lon="16.300486703793062"><ele>592.0</ele><time>2026-04-12T14:20:55Z</time></trkpt><trkpt lat="38.79060885892588" lon="16.300328043893206"><ele>590.5</ele><time>2026-04-12T14:20:56Z</time></trkpt><trkpt lat="38.790607205644825" lon="16.30016063171503"><ele>589.0</ele><time>2026-04-12T14:20:57Z</time></trkpt><trkpt lat="38.79061872129336" lon="16.29998163049462"><ele>587.5</ele><time>2026-04-12T14:20:58Z</time></trkpt><trkpt lat="38.79062608760935" lon="16.29979485429716"><ele>586.0</ele><time>2026-04-12T14:20:59Z</time></trkpt><trkpt lat="38.79061964298609" lon="16.299598890571012"><ele>585.0</ele><time>2026-04-12T14:21:00Z</time></trkpt><trkpt lat="38.790621113148454" lon="16.299406040270217"><ele>584.0</ele><time>2026-04-12T14:21:01Z</time></trkpt><trkpt lat="38.790606670923246" lon="16.29920728905801"><ele>583.0</ele><time>2026-04-12T14:21:02Z</time></trkpt><trkpt lat="38.79059161855554" lon="16.299015521240747"><ele>579.3333333333334</ele><time>2026-04-12T14:21:03Z</time></trkpt><trkpt lat="38.79057426527971" lon="16.298806731976555"><ele>575.6666666666666</ele><time>2026-04-12T14:21:04Z</time></trkpt><trkpt lat="38.790544901847575" lon="16.298612385078066"><ele>572.0</ele><time>2026-04-12T14:21:05Z</time></trkpt><trkpt lat="38.790507841984585" lon="16.298407463179036"><ele>572.0</ele><time>2026-04-12T14:21:06Z</time></trkpt><trkpt lat="38.79046453826115" lon="16.298217714110397"><ele>572.0</ele><time>2026-04-12T14:21:07Z</time></trkpt><trkpt lat="38.790420914814696" lon="16.298035618011017"><ele>572.0</ele><time>2026-04-12T14:21:08Z</time></trkpt><trkpt lat="38.79038010164572" lon="16.297845020277858"><ele>568.6666666666666</ele><time>2026-04-12T14:21:09Z</time></trkpt><trkpt lat="38.790334833936996" lon="16.297640192832933"><ele>565.3333333333334</ele><time>2026-04-12T14:21:10Z</time></trkpt><trkpt lat="38.79029591022946" lon="16.297443799090797"><ele>562.0</ele><time>2026-04-12T14:21:11Z</time></trkpt><trkpt lat="38.79025909786309" lon="16.297249534101734"><ele>561.0</ele><time>2026-04-12T14:21:12Z</time></trkpt><trkpt lat="38.79022649923654" lon="16.29706727634773"><ele>560.0</ele><time>2026-04-12T14:21:13Z</time></trkpt><trkpt lat="38.79019671575484" lon="16.29687774945563"><ele>559.0</ele><time>2026-04-12T14:21:14Z</time></trkpt><trkpt lat="38.790167216005365" lon="16.296688419757274"><ele>558.0</ele><time>2026-04-12T14:21:15Z</time></trkpt><trkpt lat="38.79013297782941" lon="16.29649845176673"><ele>558.0</ele><time>2026-04-12T14:21:16Z</time></trkpt><trkpt lat="38.790099433372916" lon="16.29631539174327"><ele>558.0</ele><time>2026-04-12T14:21:17Z</time></trkpt><trkpt lat="38.790052499915106" lon="16.29614068677893"><ele>558.0</ele><time>2026-04-12T14:21:18Z</time></trkpt><trkpt lat="38.789994156298704" lon="16.295968284523713"><ele>558.0</ele><time>2026-04-12T14:21:19Z</time></trkpt><trkpt lat="38.78992999083819" lon="16.295792512465322"><ele>558.0</ele><time>2026-04-12T14:21:20Z</time></trkpt><trkpt lat="38.789859693454744" lon="16.2956038614602"><ele>558.0</ele><time>2026-04-12T14:21:21Z</time></trkpt><trkpt lat="38.78979498579222" lon="16.29543165192935"><ele>558.0</ele><time>2026-04-12T14:21:22Z</time></trkpt><trkpt lat="38.78973808059945" lon="16.295261562344173"><ele>556.5</ele><time>2026-04-12T14:21:23Z</time></trkpt><trkpt lat="38.78972219433218" lon="16.295071405445345"><ele>555.0</ele><time>2026-04-12T14:21:24Z</time></trkpt><trkpt lat="38.78969413494458" lon="16.294905119298686"><ele>553.5</ele><time>2026-04-12T14:21:25Z</time></trkpt><trkpt lat="38.78971112493464" lon="16.294766785376353"><ele>552.0</ele><time>2026-04-12T14:21:26Z</time></trkpt><trkpt lat="38.78977844847025" lon="16.294611214452193"><ele>551.0</ele><time>2026-04-12T14:21:27Z</time></trkpt><trkpt lat="38.78986027595423" lon="16.29449309218661"><ele>550.0</ele><time>2026-04-12T14:21:28Z</time></trkpt><trkpt lat="38.78994013413039" lon="16.294343450309547"><ele>549.0</ele><time>2026-04-12T14:21:29Z</time></trkpt><trkpt lat="38.79004541165657" lon="16.294188884882526"><ele>548.0</ele><time>2026-04-12T14:21:30Z</time></trkpt><trkpt lat="38.790120678017416" lon="16.294049090772095"><ele>544.5</ele><time>2026-04-12T14:21:31Z</time></trkpt><trkpt lat="38.79019290392122" lon="16.29390150171045"><ele>541.0</ele><time>2026-04-12T14:21:32Z</time></trkpt><trkpt lat="38.79025742099774" lon="16.293738519257076"><ele>537.5</ele><time>2026-04-12T14:21:33Z</time></trkpt><trkpt lat="38.79031380674613" lon="16.293557192884833"><ele>534.0</ele><time>2026-04-12T14:21:34Z</time></trkpt><trkpt lat="38.79034937000459" lon="16.29336856883432"><ele>534.0</ele><time>2026-04-12T14:21:35Z</time></trkpt><trkpt lat="38.79037709580473" lon="16.293186868507213"><ele>534.0</ele><time>2026-04-12T14:21:36Z</time></trkpt><trkpt lat="38.79039226025002" lon="16.29300837641056"><ele>534.0</ele><time>2026-04-12T14:21:37Z</time></trkpt><trkpt lat="38.790382004658994" lon="16.292842884046312"><ele>534.0</ele><time>2026-04-12T14:21:38Z</time></trkpt><trkpt lat="38.79036251708829" lon="16.292690289951416"><ele>534.5</ele><time>2026-04-12T14:21:39Z</time></trkpt><trkpt lat="38.790313398181326" lon="16.292542927802426"><ele>535.0</ele><time>2026-04-12T14:21:40Z</time></trkpt><trkpt lat="38.79023051505018" lon="16.29241786722369"><ele>535.5</ele><time>2026-04-12T14:21:41Z</time></trkpt><trkpt lat="38.79011367592899" lon="16.29234870292384"><ele>536.0</ele><time>2026-04-12T14:21:42Z</time></trkpt><trkpt lat="38.79002387412974" lon="16.292252719881205"><ele>533.6</ele><time>2026-04-12T14:21:43Z</time></trkpt><trkpt lat="38.789967877243036" lon="16.292143119555337"><ele>531.2</ele><time>2026-04-12T14:21:44Z</time></trkpt><trkpt lat="38.78994204211404" lon="16.2920135374958"><ele>528.8</ele><time>2026-04-12T14:21:45Z</time></trkpt><trkpt lat="38.78988508672345" lon="16.291900679372386"><ele>526.4</ele><time>2026-04-12T14:21:46Z</time></trkpt><trkpt lat="38.78984080200006" lon="16.291774699322005"><ele>524.0</ele><time>2026-04-12T14:21:47Z</time></trkpt><trkpt lat="38.78980166204688" lon="16.291656155527843"><ele>524.0</ele><time>2026-04-12T14:21:48Z</time></trkpt><trkpt lat="38.7897604218179" lon="16.2915382165381"><ele>524.0</ele><time>2026-04-12T14:21:49Z</time></trkpt><trkpt lat="38.789726839543" lon="16.291427223414132"><ele>524.0</ele><time>2026-04-12T14:21:50Z</time></trkpt><trkpt lat="38.78969480613515" lon="16.291331188712157"><ele>524.0</ele><time>2026-04-12T14:21:51Z</time></trkpt><trkpt lat="38.78966929792103" lon="16.291248718900036"><ele>524.0</ele><time>2026-04-12T14:21:52Z</time></trkpt><trkpt lat="38.78967109637863" lon="16.291155487372322"><ele>524.0</ele><time>2026-04-12T14:21:54Z</time></trkpt><trkpt lat="38.78969874186626" lon="16.291080883893148"><ele>524.0</ele><time>2026-04-12T14:21:55Z</time></trkpt><trkpt lat="38.78976223306427" lon="16.291288667388528"><ele>524.0</ele><time>2026-04-12T14:21:57Z</time></trkpt><trkpt lat="38.78979886974421" lon="16.291380259458315"><ele>524.0</ele><time>2026-04-12T14:21:58Z</time></trkpt><trkpt lat="38.78985241216059" lon="16.29143672103307"><ele>524.0</ele><time>2026-04-12T14:21:59Z</time></trkpt><trkpt lat="38.78997343419192" lon="16.291460086125888"><ele>524.0</ele><time>2026-04-12T14:22:01Z</time></trkpt><trkpt lat="38.79006735958404" lon="16.291368873040955"><ele>520.0</ele><time>2026-04-12T14:22:03Z</time></trkpt><trkpt lat="38.79002953929949" lon="16.291174061444444"><ele>516.0</ele><time>2026-04-12T14:22:04Z</time></trkpt><trkpt lat="38.78999987910093" lon="16.291075992796106"><ele>512.0</ele><time>2026-04-12T14:22:05Z</time></trkpt><trkpt lat="38.789922011281796" lon="16.29096495452287"><ele>508.0</ele><time>2026-04-12T14:22:06Z</time></trkpt><trkpt lat="38.78988185123444" lon="16.290854863026393"><ele>508.0</ele><time>2026-04-12T14:22:07Z</time></trkpt><trkpt lat="38.78984383422517" lon="16.290738299185247"><ele>507.99999999999994</ele><time>2026-04-12T14:22:08Z</time></trkpt><trkpt lat="38.78980437465909" lon="16.290621111155716"><ele>507.99999999999994</ele><time>2026-04-12T14:22:09Z</time></trkpt><trkpt lat="38.789777028593385" lon="16.29050639194657"><ele>508.0</ele><time>2026-04-12T14:22:10Z</time></trkpt><trkpt lat="38.7897209289015" lon="16.290400040994783"><ele>508.0</ele><time>2026-04-12T14:22:11Z</time></trkpt><trkpt lat="38.78966754627768" lon="16.290289669538872"><ele>504.79999999999995</ele><time>2026-04-12T14:22:12Z</time></trkpt><trkpt lat="38.78961430358552" lon="16.290194080381138"><ele>501.59999999999997</ele><time>2026-04-12T14:22:13Z</time></trkpt><trkpt lat="38.789557415342344" lon="16.2900860609369"><ele>498.40000000000003</ele><time>2026-04-12T14:22:14Z</time></trkpt><trkpt lat="38.78950753577584" lon="16.28998673274239"><ele>495.20000000000005</ele><time>2026-04-12T14:22:15Z</time></trkpt><trkpt lat="38.789448886719825" lon="16.28989670438955"><ele>492.0</ele><time>2026-04-12T14:22:16Z</time></trkpt><trkpt lat="38.78938185962008" lon="16.28982806305394"><ele>492.5</ele><time>2026-04-12T14:22:17Z</time></trkpt><trkpt lat="38.789291374727185" lon="16.28974529716133"><ele>493.0</ele><time>2026-04-12T14:22:18Z</time></trkpt><trkpt lat="38.78917402703321" lon="16.289701540343"><ele>493.5</ele><time>2026-04-12T14:22:19Z</time></trkpt><trkpt lat="38.78905918797564" lon="16.289653192619934"><ele>494.0</ele><time>2026-04-12T14:22:20Z</time></trkpt><trkpt lat="38.78894989658762" lon="16.28959860103471"><ele>494.0</ele><time>2026-04-12T14:22:21Z</time></trkpt><trkpt lat="38.788846054445614" lon="16.28953724510688"><ele>494.0</ele><time>2026-04-12T14:22:22Z</time></trkpt><trkpt lat="38.788758852404705" lon="16.289460846723625"><ele>494.0</ele><time>2026-04-12T14:22:23Z</time></trkpt><trkpt lat="38.78869476813763" lon="16.28936995509489"><ele>494.0</ele><time>2026-04-12T14:22:24Z</time></trkpt><trkpt lat="38.788669692339006" lon="16.2892581253314"><ele>494.0</ele><time>2026-04-12T14:22:25Z</time></trkpt><trkpt lat="38.78868735484952" lon="16.28914440783316"><ele>494.0</ele><time>2026-04-12T14:22:26Z</time></trkpt><trkpt lat="38.788735913321425" lon="16.289047565938617"><ele>494.0</ele><time>2026-04-12T14:22:27Z</time></trkpt><trkpt lat="38.788795324568596" lon="16.288933037964384"><ele>494.0</ele><time>2026-04-12T14:22:28Z</time></trkpt><trkpt lat="38.788832188516075" lon="16.28879556513679"><ele>494.0</ele><time>2026-04-12T14:22:29Z</time></trkpt><trkpt lat="38.788839398880626" lon="16.288641954286124"><ele>494.0</ele><time>2026-04-12T14:22:30Z</time></trkpt><trkpt lat="38.78881819901204" lon="16.288486146036153"><ele>491.25</ele><time>2026-04-12T14:22:31Z</time></trkpt><trkpt lat="38.78877891047043" lon="16.28833374032477"><ele>488.5</ele><time>2026-04-12T14:22:32Z</time></trkpt><trkpt lat="38.78871588460623" lon="16.288201183269184"><ele>485.75</ele><time>2026-04-12T14:22:33Z</time></trkpt><trkpt lat="38.788658731353365" lon="16.288063635536922"><ele>483.0</ele><time>2026-04-12T14:22:34Z</time></trkpt><trkpt lat="38.788595073874966" lon="16.287933443947818"><ele>482.5</ele><time>2026-04-12T14:22:35Z</time></trkpt><trkpt lat="38.788507162453115" lon="16.287820566045827"><ele>482.0</ele><time>2026-04-12T14:22:36Z</time></trkpt><trkpt lat="38.78840282964601" lon="16.28773427803345"><ele>481.5</ele><time>2026-04-12T14:22:37Z</time></trkpt><trkpt lat="38.78829406437693" lon="16.287667380159125"><ele>481.0</ele><time>2026-04-12T14:22:38Z</time></trkpt><trkpt lat="38.78817168590314" lon="16.28761294932972"><ele>481.0</ele><time>2026-04-12T14:22:39Z</time></trkpt><trkpt lat="38.788052348978084" lon="16.287565683014055"><ele>481.0</ele><time>2026-04-12T14:22:40Z</time></trkpt><trkpt lat="38.78794404861374" lon="16.287529231078516"><ele>481.0</ele><time>2026-04-12T14:22:41Z</time></trkpt><trkpt lat="38.78786320229047" lon="16.28751678554903"><ele>481.0</ele><time>2026-04-12T14:22:42Z</time></trkpt><trkpt lat="38.78779742769076" lon="16.287501593359064"><ele>481.0</ele><time>2026-04-12T14:22:43.001Z</time></trkpt><trkpt lat="38.78771405840957" lon="16.287459581033872"><ele>481.0</ele><time>2026-04-12T14:22:45.001Z</time></trkpt><trkpt lat="38.787710776841024" lon="16.287364873899318"><ele>481.0</ele><time>2026-04-12T14:22:49Z</time></trkpt><trkpt lat="38.78775730652546" lon="16.28743836710786"><ele>481.0</ele><time>2026-04-12T14:23:05Z</time></trkpt><trkpt lat="38.7879195723478" lon="16.28745870229879"><ele>481.0</ele><time>2026-04-12T14:23:18Z</time></trkpt><trkpt lat="38.7879652533244" lon="16.287333892864144"><ele>481.0</ele><time>2026-04-12T14:26:32Z</time></trkpt><trkpt lat="38.788029894821726" lon="16.287388385555253"><ele>481.0</ele><time>2026-04-12T14:31:54Z</time></trkpt><trkpt lat="38.78812927166261" lon="16.287433843796382"><ele>481.0</ele><time>2026-04-12T14:32:02Z</time></trkpt><trkpt lat="38.78824925084673" lon="16.287468049956903"><ele>481.0</ele><time>2026-04-12T14:32:04Z</time></trkpt><trkpt lat="38.788313242590476" lon="16.287477417125565"><ele>481.0</ele><time>2026-04-12T14:32:05Z</time></trkpt><trkpt lat="38.78838533018624" lon="16.287478383082668"><ele>481.0</ele><time>2026-04-12T14:32:06Z</time></trkpt><trkpt lat="38.78852464334394" lon="16.287489982121876"><ele>479.33333333333337</ele><time>2026-04-12T14:32:08Z</time></trkpt><trkpt lat="38.78860585382296" lon="16.287503796925723"><ele>477.6666666666667</ele><time>2026-04-12T14:32:09Z</time></trkpt><trkpt lat="38.78868116899363" lon="16.287537154659717"><ele>476.0</ele><time>2026-04-12T14:32:10Z</time></trkpt><trkpt lat="38.788754232210565" lon="16.287557240079707"><ele>474.33333333333337</ele><time>2026-04-12T14:32:11Z</time></trkpt><trkpt lat="38.78882906854718" lon="16.28758325342464"><ele>472.6666666666667</ele><time>2026-04-12T14:32:12Z</time></trkpt><trkpt lat="38.78890586981589" lon="16.287607961921545"><ele>471.0</ele><time>2026-04-12T14:32:13Z</time></trkpt><trkpt lat="38.788984523821206" lon="16.287645584633882"><ele>471.0</ele><time>2026-04-12T14:32:14Z</time></trkpt><trkpt lat="38.789060455836534" lon="16.28769922872161"><ele>471.0</ele><time>2026-04-12T14:32:15Z</time></trkpt><trkpt lat="38.7891338093945" lon="16.287767569296303"><ele>471.0</ele><time>2026-04-12T14:32:16Z</time></trkpt><trkpt lat="38.789204450586844" lon="16.28785481183632"><ele>471.0</ele><time>2026-04-12T14:32:17Z</time></trkpt><trkpt lat="38.789272123742045" lon="16.28795532398821"><ele>471.0</ele><time>2026-04-12T14:32:18Z</time></trkpt><trkpt lat="38.78934095119278" lon="16.288063058264765"><ele>469.4</ele><time>2026-04-12T14:32:19Z</time></trkpt><trkpt lat="38.789406688489684" lon="16.288173635463114"><ele>467.8</ele><time>2026-04-12T14:32:20Z</time></trkpt><trkpt lat="38.78946200414024" lon="16.28828242235476"><ele>466.19999999999993</ele><time>2026-04-12T14:32:21Z</time></trkpt><trkpt lat="38.789509978191134" lon="16.28839090002318"><ele>464.59999999999997</ele><time>2026-04-12T14:32:22Z</time></trkpt><trkpt lat="38.78955749483419" lon="16.288497770715367"><ele>463.0</ele><time>2026-04-12T14:32:23Z</time></trkpt><trkpt lat="38.78961835544589" lon="16.288592579420826"><ele>463.0</ele><time>2026-04-12T14:32:24Z</time></trkpt><trkpt lat="38.78967908232971" lon="16.288678617732902"><ele>462.99999999999994</ele><time>2026-04-12T14:32:25Z</time></trkpt><trkpt lat="38.789768640829685" lon="16.288725278559124"><ele>462.99999999999994</ele><time>2026-04-12T14:32:26Z</time></trkpt><trkpt lat="38.78986202059048" lon="16.288725782740443"><ele>463.0</ele><time>2026-04-12T14:32:27Z</time></trkpt><trkpt lat="38.78995382036036" lon="16.28876448240909"><ele>463.0</ele><time>2026-04-12T14:32:28Z</time></trkpt><trkpt lat="38.790034208334404" lon="16.288824900455534"><ele>463.0</ele><time>2026-04-12T14:32:29Z</time></trkpt><trkpt lat="38.79010804458576" lon="16.28890827483965"><ele>462.99999999999994</ele><time>2026-04-12T14:32:30Z</time></trkpt><trkpt lat="38.790178216257495" lon="16.28901169113512"><ele>462.99999999999994</ele><time>2026-04-12T14:32:31Z</time></trkpt><trkpt lat="38.79024990742214" lon="16.28911530651328"><ele>463.0</ele><time>2026-04-12T14:32:32Z</time></trkpt><trkpt lat="38.79033281649294" lon="16.289214580804522"><ele>463.0</ele><time>2026-04-12T14:32:33Z</time></trkpt><trkpt lat="38.790427442522926" lon="16.28930547301906"><ele>463.0</ele><time>2026-04-12T14:32:34Z</time></trkpt><trkpt lat="38.790529428907355" lon="16.289390979809124"><ele>463.0</ele><time>2026-04-12T14:32:35Z</time></trkpt><trkpt lat="38.79064443164576" lon="16.289462916612372"><ele>463.0</ele><time>2026-04-12T14:32:36Z</time></trkpt><trkpt lat="38.790762690225904" lon="16.289522529954525"><ele>463.0</ele><time>2026-04-12T14:32:37Z</time></trkpt><trkpt lat="38.790888941703415" lon="16.289567996322322"><ele>461.0</ele><time>2026-04-12T14:32:38Z</time></trkpt><trkpt lat="38.79101119685772" lon="16.289593477172364"><ele>459.0</ele><time>2026-04-12T14:32:39Z</time></trkpt><trkpt lat="38.791131369005186" lon="16.28961606525105"><ele>457.0</ele><time>2026-04-12T14:32:40Z</time></trkpt><trkpt lat="38.791251171435725" lon="16.289609725064828"><ele>455.0</ele><time>2026-04-12T14:32:41Z</time></trkpt><trkpt lat="38.79136831194604" lon="16.289583215784223"><ele>455.0</ele><time>2026-04-12T14:32:42Z</time></trkpt><trkpt lat="38.79148214178555" lon="16.289536240434234"><ele>455.0</ele><time>2026-04-12T14:32:43Z</time></trkpt><trkpt lat="38.79159646561063" lon="16.289499981427124"><ele>455.0</ele><time>2026-04-12T14:32:44Z</time></trkpt><trkpt lat="38.791707285832175" lon="16.28953665550956"><ele>455.0</ele><time>2026-04-12T14:32:45Z</time></trkpt><trkpt lat="38.791816481921195" lon="16.28955346951592"><ele>455.25</ele><time>2026-04-12T14:32:46Z</time></trkpt><trkpt lat="38.79192497531642" lon="16.28954680362338"><ele>455.5</ele><time>2026-04-12T14:32:47Z</time></trkpt><trkpt lat="38.79203656333794" lon="16.289502995035978"><ele>455.75</ele><time>2026-04-12T14:32:48Z</time></trkpt><trkpt lat="38.79213760601361" lon="16.289412322800313"><ele>456.0</ele><time>2026-04-12T14:32:49Z</time></trkpt><trkpt lat="38.79221592980538" lon="16.289285170291333"><ele>456.0</ele><time>2026-04-12T14:32:50Z</time></trkpt><trkpt lat="38.79228252913815" lon="16.289138003682933"><ele>456.0</ele><time>2026-04-12T14:32:51Z</time></trkpt><trkpt lat="38.79233383434131" lon="16.288980477170792"><ele>456.0</ele><time>2026-04-12T14:32:52Z</time></trkpt><trkpt lat="38.79237610588713" lon="16.288838958055138"><ele>456.0</ele><time>2026-04-12T14:32:53Z</time></trkpt><trkpt lat="38.79243844920372" lon="16.288694400440228"><ele>454.25</ele><time>2026-04-12T14:32:54Z</time></trkpt><trkpt lat="38.792506959436615" lon="16.288561541840025"><ele>452.5</ele><time>2026-04-12T14:32:55Z</time></trkpt><trkpt lat="38.792600768894275" lon="16.28846644573891"><ele>450.75</ele><time>2026-04-12T14:32:56Z</time></trkpt><trkpt lat="38.792707819166125" lon="16.288414465267973"><ele>449.0</ele><time>2026-04-12T14:32:57Z</time></trkpt><trkpt lat="38.792824867396874" lon="16.28841229358569"><ele>448.5</ele><time>2026-04-12T14:32:58Z</time></trkpt><trkpt lat="38.79294730445086" lon="16.288419865208557"><ele>448.0</ele><time>2026-04-12T14:32:59Z</time></trkpt><trkpt lat="38.79307121989265" lon="16.288428433883738"><ele>447.5</ele><time>2026-04-12T14:33:00Z</time></trkpt><trkpt lat="38.7931908951166" lon="16.2884521277376"><ele>447.0</ele><time>2026-04-12T14:33:01Z</time></trkpt><trkpt lat="38.79330090537916" lon="16.288416039672516"><ele>447.0</ele><time>2026-04-12T14:33:02Z</time></trkpt><trkpt lat="38.79341560986683" lon="16.288386844755593"><ele>447.0</ele><time>2026-04-12T14:33:03Z</time></trkpt><trkpt lat="38.793528780419365" lon="16.288348005501057"><ele>447.0</ele><time>2026-04-12T14:33:04Z</time></trkpt><trkpt lat="38.793642342153774" lon="16.288339435526478"><ele>447.0</ele><time>2026-04-12T14:33:05Z</time></trkpt><trkpt lat="38.793759756955794" lon="16.288373717336725"><ele>444.0</ele><time>2026-04-12T14:33:06Z</time></trkpt><trkpt lat="38.79387062920647" lon="16.288462397272628"><ele>441.0</ele><time>2026-04-12T14:33:07Z</time></trkpt><trkpt lat="38.7939652078113" lon="16.28857900054213"><ele>438.0</ele><time>2026-04-12T14:33:08Z</time></trkpt><trkpt lat="38.79403923874474" lon="16.28871103880637"><ele>435.0</ele><time>2026-04-12T14:33:09Z</time></trkpt><trkpt lat="38.79409342857956" lon="16.28886139853959"><ele>434.75</ele><time>2026-04-12T14:33:10Z</time></trkpt><trkpt lat="38.79413096992439" lon="16.28901639840091"><ele>434.5</ele><time>2026-04-12T14:33:11Z</time></trkpt><trkpt lat="38.794160552126485" lon="16.289169800950656"><ele>434.25</ele><time>2026-04-12T14:33:12Z</time></trkpt><trkpt lat="38.79416542003547" lon="16.28933434800375"><ele>434.0</ele><time>2026-04-12T14:33:13Z</time></trkpt><trkpt lat="38.79413440691786" lon="16.289486106296195"><ele>434.0</ele><time>2026-04-12T14:33:14Z</time></trkpt><trkpt lat="38.794080001735395" lon="16.289631804570146"><ele>434.0</ele><time>2026-04-12T14:33:15Z</time></trkpt><trkpt lat="38.79401174237902" lon="16.289773751943883"><ele>434.0</ele><time>2026-04-12T14:33:16Z</time></trkpt><trkpt lat="38.79394937797579" lon="16.289907215956006"><ele>434.0</ele><time>2026-04-12T14:33:17Z</time></trkpt><trkpt lat="38.79389114125803" lon="16.290042700819345"><ele>433.8333333333333</ele><time>2026-04-12T14:33:18Z</time></trkpt><trkpt lat="38.79384341079327" lon="16.29016657552284"><ele>433.66666666666663</ele><time>2026-04-12T14:33:19Z</time></trkpt><trkpt lat="38.7938135349769" lon="16.290279097668403"><ele>433.5</ele><time>2026-04-12T14:33:20Z</time></trkpt><trkpt lat="38.79381217962066" lon="16.290382744286962"><ele>433.33333333333337</ele><time>2026-04-12T14:33:21Z</time></trkpt><trkpt lat="38.79385009172284" lon="16.29046541317216"><ele>433.1666666666667</ele><time>2026-04-12T14:33:22Z</time></trkpt><trkpt lat="38.79392227389319" lon="16.29049779314959"><ele>433.0</ele><time>2026-04-12T14:33:23Z</time></trkpt><trkpt lat="38.79400433402597" lon="16.29046342380044"><ele>433.0</ele><time>2026-04-12T14:33:24Z</time></trkpt><trkpt lat="38.79406840777345" lon="16.29038256512681"><ele>432.99999999999994</ele><time>2026-04-12T14:33:25Z</time></trkpt><trkpt lat="38.79411720312553" lon="16.29026845265075"><ele>432.99999999999994</ele><time>2026-04-12T14:33:26Z</time></trkpt><trkpt lat="38.794155595009705" lon="16.290141082335566"><ele>433.0</ele><time>2026-04-12T14:33:27Z</time></trkpt><trkpt lat="38.79420222685082" lon="16.289991679911072"><ele>433.0</ele><time>2026-04-12T14:33:28Z</time></trkpt><trkpt lat="38.79425434611714" lon="16.289834182179362"><ele>433.25</ele><time>2026-04-12T14:33:29Z</time></trkpt><trkpt lat="38.7943013640572" lon="16.28966161216217"><ele>433.5</ele><time>2026-04-12T14:33:30Z</time></trkpt><trkpt lat="38.794345963209295" lon="16.289502362911904"><ele>433.75</ele><time>2026-04-12T14:33:31Z</time></trkpt><trkpt lat="38.794381386734415" lon="16.28934124074263"><ele>434.0</ele><time>2026-04-12T14:33:32Z</time></trkpt><trkpt lat="38.79441223477767" lon="16.28917742366237"><ele>429.0</ele><time>2026-04-12T14:33:33Z</time></trkpt><trkpt lat="38.79443304172518" lon="16.289022401441084"><ele>424.0</ele><time>2026-04-12T14:33:34Z</time></trkpt><trkpt lat="38.79445124770722" lon="16.288865896300727"><ele>419.0</ele><time>2026-04-12T14:33:35Z</time></trkpt><trkpt lat="38.79446872148294" lon="16.288699695854557"><ele>414.0</ele><time>2026-04-12T14:33:36Z</time></trkpt><trkpt lat="38.79447278520548" lon="16.288536065541695"><ele>410.5</ele><time>2026-04-12T14:33:37Z</time></trkpt><trkpt lat="38.794462674413076" lon="16.288380150489566"><ele>407.0</ele><time>2026-04-12T14:33:38Z</time></trkpt><trkpt lat="38.794434589799174" lon="16.288222107735596"><ele>403.5</ele><time>2026-04-12T14:33:39Z</time></trkpt><trkpt lat="38.79440929006303" lon="16.288062263855217"><ele>400.0</ele><time>2026-04-12T14:33:40Z</time></trkpt><trkpt lat="38.794391725210346" lon="16.287932144837647"><ele>399.1666666666667</ele><time>2026-04-12T14:33:41Z</time></trkpt><trkpt lat="38.794382562283154" lon="16.287808553909535"><ele>398.33333333333337</ele><time>2026-04-12T14:33:42Z</time></trkpt><trkpt lat="38.79437698704008" lon="16.28769952192717"><ele>397.5</ele><time>2026-04-12T14:33:43Z</time></trkpt><trkpt lat="38.79437340978415" lon="16.287590352231437"><ele>396.66666666666663</ele><time>2026-04-12T14:33:44Z</time></trkpt><trkpt lat="38.794361777159565" lon="16.28749013396872"><ele>395.8333333333333</ele><time>2026-04-12T14:33:45Z</time></trkpt><trkpt lat="38.794349049522275" lon="16.28739115380735"><ele>395.0</ele><time>2026-04-12T14:33:46Z</time></trkpt><trkpt lat="38.79433317219766" lon="16.28729512288194"><ele>399.16666666666663</ele><time>2026-04-12T14:33:47Z</time></trkpt><trkpt lat="38.79431336769952" lon="16.287195556901235"><ele>403.3333333333333</ele><time>2026-04-12T14:33:48Z</time></trkpt><trkpt lat="38.79429338196794" lon="16.28709270770383"><ele>407.5</ele><time>2026-04-12T14:33:49Z</time></trkpt><trkpt lat="38.79427395070008" lon="16.286995499458158"><ele>411.66666666666663</ele><time>2026-04-12T14:33:50Z</time></trkpt><trkpt lat="38.79426758586938" lon="16.286900314021885"><ele>415.8333333333333</ele><time>2026-04-12T14:33:51Z</time></trkpt><trkpt lat="38.79425267614329" lon="16.286815697310104"><ele>420.0</ele><time>2026-04-12T14:33:52Z</time></trkpt><trkpt lat="38.79423833606861" lon="16.28672706832955"><ele>420.0</ele><time>2026-04-12T14:33:53Z</time></trkpt><trkpt lat="38.79421712592927" lon="16.286621590586527"><ele>420.0</ele><time>2026-04-12T14:33:54Z</time></trkpt><trkpt lat="38.79420335789329" lon="16.28652215017557"><ele>420.0</ele><time>2026-04-12T14:33:55Z</time></trkpt><trkpt lat="38.79418263804939" lon="16.286415129297662"><ele>420.0</ele><time>2026-04-12T14:33:56Z</time></trkpt><trkpt lat="38.794160411287365" lon="16.286310937582964"><ele>420.0</ele><time>2026-04-12T14:33:57Z</time></trkpt><trkpt lat="38.7941081294723" lon="16.286231257375224"><ele>420.0</ele><time>2026-04-12T14:33:58Z</time></trkpt><trkpt lat="38.79407014892161" lon="16.286136405166214"><ele>417.0</ele><time>2026-04-12T14:33:59Z</time></trkpt><trkpt lat="38.79403186462918" lon="16.286042599370145"><ele>414.0</ele><time>2026-04-12T14:34:00Z</time></trkpt><trkpt lat="38.793980757912735" lon="16.285974594558173"><ele>411.0</ele><time>2026-04-12T14:34:01Z</time></trkpt><trkpt lat="38.793938281020495" lon="16.285888670308314"><ele>408.0</ele><time>2026-04-12T14:34:02Z</time></trkpt><trkpt lat="38.793897821208844" lon="16.285800907830705"><ele>405.0</ele><time>2026-04-12T14:34:03Z</time></trkpt><trkpt lat="38.793878018173984" lon="16.28571326213447"><ele>402.0</ele><time>2026-04-12T14:34:04Z</time></trkpt><trkpt lat="38.79387037304106" lon="16.28562274267647"><ele>400.0</ele><time>2026-04-12T14:34:05Z</time></trkpt><trkpt lat="38.7938816007116" lon="16.28551989491141"><ele>398.0</ele><time>2026-04-12T14:34:06Z</time></trkpt><trkpt lat="38.79387077443728" lon="16.285395510370545"><ele>396.0</ele><time>2026-04-12T14:34:07Z</time></trkpt><trkpt lat="38.79385193983362" lon="16.28528267358632"><ele>394.0</ele><time>2026-04-12T14:34:08Z</time></trkpt><trkpt lat="38.793840115308" lon="16.285179114305095"><ele>392.0</ele><time>2026-04-12T14:34:09Z</time></trkpt><trkpt lat="38.79382783219759" lon="16.285095632862987"><ele>390.0</ele><time>2026-04-12T14:34:10Z</time></trkpt><trkpt lat="38.793816262216694" lon="16.285002621843994"><ele>390.0</ele><time>2026-04-12T14:34:11Z</time></trkpt><trkpt lat="38.793785986465394" lon="16.284903579692838"><ele>390.0</ele><time>2026-04-12T14:34:12Z</time></trkpt><trkpt lat="38.793746105753854" lon="16.284839057369155"><ele>390.0</ele><time>2026-04-12T14:34:13Z</time></trkpt><trkpt lat="38.79369286568735" lon="16.28477328452544"><ele>390.0</ele><time>2026-04-12T14:34:14Z</time></trkpt><trkpt lat="38.79362021252635" lon="16.284695793952974"><ele>390.0</ele><time>2026-04-12T14:34:15Z</time></trkpt><trkpt lat="38.793545100466474" lon="16.284606088525592"><ele>390.0</ele><time>2026-04-12T14:34:16Z</time></trkpt><trkpt lat="38.79345781785363" lon="16.28449113468725"><ele>392.75</ele><time>2026-04-12T14:34:17Z</time></trkpt><trkpt lat="38.79336824406878" lon="16.284379570493865"><ele>395.5</ele><time>2026-04-12T14:34:18Z</time></trkpt><trkpt lat="38.79330681161244" lon="16.284291665497342"><ele>398.25</ele><time>2026-04-12T14:34:19Z</time></trkpt><trkpt lat="38.793210153620485" lon="16.28415773875409"><ele>401.0</ele><time>2026-04-12T14:34:20Z</time></trkpt><trkpt lat="38.79313321409517" lon="16.284074739508778"><ele>400.99999999999994</ele><time>2026-04-12T14:34:21Z</time></trkpt><trkpt lat="38.79306566298402" lon="16.28401014617613"><ele>401.0</ele><time>2026-04-12T14:34:22Z</time></trkpt><trkpt lat="38.79300574409582" lon="16.283955427526948"><ele>401.0</ele><time>2026-04-12T14:34:23Z</time></trkpt><trkpt lat="38.792951942155796" lon="16.283891910804023"><ele>401.0</ele><time>2026-04-12T14:34:24Z</time></trkpt><trkpt lat="38.792897906243205" lon="16.283822579659738"><ele>400.99999999999994</ele><time>2026-04-12T14:34:25Z</time></trkpt><trkpt lat="38.79283769675499" lon="16.28376426026255"><ele>401.0</ele><time>2026-04-12T14:34:26Z</time></trkpt><trkpt lat="38.79273274015666" lon="16.283795629750973"><ele>398.16666666666663</ele><time>2026-04-12T14:34:27Z</time></trkpt><trkpt lat="38.79269979711976" lon="16.283661582361788"><ele>395.3333333333333</ele><time>2026-04-12T14:34:28Z</time></trkpt><trkpt lat="38.79268095194839" lon="16.283561832579903"><ele>392.5</ele><time>2026-04-12T14:34:29Z</time></trkpt><trkpt lat="38.79270604431734" lon="16.28345529000112"><ele>389.66666666666663</ele><time>2026-04-12T14:34:30Z</time></trkpt><trkpt lat="38.79269903187092" lon="16.28335175588416"><ele>386.8333333333333</ele><time>2026-04-12T14:34:31Z</time></trkpt><trkpt lat="38.79270639765562" lon="16.28324548084573"><ele>384.0</ele><time>2026-04-12T14:34:32Z</time></trkpt><trkpt lat="38.7927136524034" lon="16.283132456678963"><ele>382.4</ele><time>2026-04-12T14:34:33Z</time></trkpt><trkpt lat="38.7927834696431" lon="16.28303985739204"><ele>380.79999999999995</ele><time>2026-04-12T14:34:34Z</time></trkpt><trkpt lat="38.79280731683464" lon="16.282928032789034"><ele>379.20000000000005</ele><time>2026-04-12T14:34:35Z</time></trkpt><trkpt lat="38.79282618224674" lon="16.28279232360064"><ele>377.6</ele><time>2026-04-12T14:34:36Z</time></trkpt><trkpt lat="38.79281140262259" lon="16.282635329892702"><ele>376.0</ele><time>2026-04-12T14:34:37Z</time></trkpt><trkpt lat="38.792771597718" lon="16.28251593848787"><ele>376.0</ele><time>2026-04-12T14:34:38Z</time></trkpt><trkpt lat="38.79273164532278" lon="16.282435385989483"><ele>376.0</ele><time>2026-04-12T14:34:39Z</time></trkpt><trkpt lat="38.792670822182835" lon="16.282358127425923"><ele>376.0</ele><time>2026-04-12T14:34:40Z</time></trkpt><trkpt lat="38.79262516256519" lon="16.28225520016259"><ele>376.0</ele><time>2026-04-12T14:34:41Z</time></trkpt><trkpt lat="38.79256824601368" lon="16.282169911369756"><ele>376.0</ele><time>2026-04-12T14:34:42Z</time></trkpt><trkpt lat="38.792520248281484" lon="16.282083311407163"><ele>376.0</ele><time>2026-04-12T14:34:43Z</time></trkpt><trkpt lat="38.792468892796315" lon="16.282001682732155"><ele>376.66666666666663</ele><time>2026-04-12T14:34:44Z</time></trkpt><trkpt lat="38.79242802610025" lon="16.281912624088672"><ele>377.3333333333333</ele><time>2026-04-12T14:34:45Z</time></trkpt><trkpt lat="38.7923985591098" lon="16.28182745379826"><ele>378.0</ele><time>2026-04-12T14:34:46Z</time></trkpt><trkpt lat="38.79236009800472" lon="16.28173208472573"><ele>378.6666666666667</ele><time>2026-04-12T14:34:47Z</time></trkpt><trkpt lat="38.79231266225014" lon="16.281627873293502"><ele>379.33333333333337</ele><time>2026-04-12T14:34:48Z</time></trkpt><trkpt lat="38.792254858894914" lon="16.281539898524827"><ele>380.0</ele><time>2026-04-12T14:34:49Z</time></trkpt><trkpt lat="38.79220634990471" lon="16.281447361379808"><ele>377.6666666666667</ele><time>2026-04-12T14:34:50Z</time></trkpt><trkpt lat="38.79216110586107" lon="16.281360176612402"><ele>375.33333333333337</ele><time>2026-04-12T14:34:51Z</time></trkpt><trkpt lat="38.79211524742467" lon="16.281273638007693"><ele>373.0</ele><time>2026-04-12T14:34:52Z</time></trkpt><trkpt lat="38.79206914002033" lon="16.281183205091548"><ele>370.6666666666667</ele><time>2026-04-12T14:34:53Z</time></trkpt><trkpt lat="38.79202390202961" lon="16.281093498750483"><ele>368.3333333333333</ele><time>2026-04-12T14:34:54Z</time></trkpt><trkpt lat="38.7919786091783" lon="16.280997926027943"><ele>366.0</ele><time>2026-04-12T14:34:55Z</time></trkpt><trkpt lat="38.79193487396793" lon="16.280903029335402"><ele>366.0</ele><time>2026-04-12T14:34:56Z</time></trkpt><trkpt lat="38.791886484345135" lon="16.280805769882825"><ele>366.0</ele><time>2026-04-12T14:34:57Z</time></trkpt><trkpt lat="38.791836035241204" lon="16.280710122197817"><ele>366.0</ele><time>2026-04-12T14:34:58Z</time></trkpt><trkpt lat="38.79178725839814" lon="16.280612272536434"><ele>366.0</ele><time>2026-04-12T14:34:59Z</time></trkpt><trkpt lat="38.79174087789052" lon="16.280518320519402"><ele>366.0</ele><time>2026-04-12T14:35:00Z</time></trkpt><trkpt lat="38.79169480798406" lon="16.280428685396217"><ele>366.0</ele><time>2026-04-12T14:35:01Z</time></trkpt><trkpt lat="38.79165560184746" lon="16.280335193079782"><ele>366.5</ele><time>2026-04-12T14:35:02Z</time></trkpt><trkpt lat="38.7916205954449" lon="16.28024024035123"><ele>367.0</ele><time>2026-04-12T14:35:03Z</time></trkpt><trkpt lat="38.79158447720862" lon="16.28014921127758"><ele>367.5</ele><time>2026-04-12T14:35:04Z</time></trkpt><trkpt lat="38.79154874517552" lon="16.280057596233082"><ele>368.0</ele><time>2026-04-12T14:35:05Z</time></trkpt><trkpt lat="38.79150833731326" lon="16.27997139803792"><ele>368.5</ele><time>2026-04-12T14:35:06Z</time></trkpt><trkpt lat="38.79145811565983" lon="16.279879765993016"><ele>369.0</ele><time>2026-04-12T14:35:07Z</time></trkpt><trkpt lat="38.79139889112382" lon="16.27979039022065"><ele>368.6</ele><time>2026-04-12T14:35:08Z</time></trkpt><trkpt lat="38.79133058831478" lon="16.27970679814616"><ele>368.2</ele><time>2026-04-12T14:35:09Z</time></trkpt><trkpt lat="38.79124727744135" lon="16.279632761684876"><ele>367.8</ele><time>2026-04-12T14:35:10Z</time></trkpt><trkpt lat="38.791162952896926" lon="16.279563638230123"><ele>367.40000000000003</ele><time>2026-04-12T14:35:11Z</time></trkpt><trkpt lat="38.791076720017536" lon="16.279497927499122"><ele>367.0</ele><time>2026-04-12T14:35:12Z</time></trkpt><trkpt lat="38.79098835409621" lon="16.279435188096166"><ele>367.0</ele><time>2026-04-12T14:35:13Z</time></trkpt><trkpt lat="38.79090542198602" lon="16.27937466862107"><ele>367.0</ele><time>2026-04-12T14:35:14Z</time></trkpt><trkpt lat="38.790822957378325" lon="16.27930475020356"><ele>367.0</ele><time>2026-04-12T14:35:15Z</time></trkpt><trkpt lat="38.790744026175254" lon="16.27924998365408"><ele>367.0</ele><time>2026-04-12T14:35:16Z</time></trkpt><trkpt lat="38.79066584140335" lon="16.279193830912476"><ele>367.0</ele><time>2026-04-12T14:35:17Z</time></trkpt><trkpt lat="38.790593403939766" lon="16.27913011508946"><ele>367.0</ele><time>2026-04-12T14:35:18Z</time></trkpt><trkpt lat="38.79052272934476" lon="16.27906127921667"><ele>367.0</ele><time>2026-04-12T14:35:19Z</time></trkpt><trkpt lat="38.790461569314175" lon="16.27896980577774"><ele>367.0</ele><time>2026-04-12T14:35:20Z</time></trkpt><trkpt lat="38.790417505616766" lon="16.278863335601315"><ele>367.0</ele><time>2026-04-12T14:35:21Z</time></trkpt><trkpt lat="38.79039002886707" lon="16.278750347719683"><ele>367.0</ele><time>2026-04-12T14:35:22Z</time></trkpt><trkpt lat="38.79036224759562" lon="16.278633671669287"><ele>365.6</ele><time>2026-04-12T14:35:23Z</time></trkpt><trkpt lat="38.79034091286084" lon="16.278511354073103"><ele>364.20000000000005</ele><time>2026-04-12T14:35:24Z</time></trkpt><trkpt lat="38.790323566611" lon="16.278395275512263"><ele>362.8</ele><time>2026-04-12T14:35:24.999Z</time></trkpt><trkpt lat="38.7903025887946" lon="16.278275093512878"><ele>361.4</ele><time>2026-04-12T14:35:25.999Z</time></trkpt><trkpt lat="38.79028323429791" lon="16.278156714528848"><ele>360.0</ele><time>2026-04-12T14:35:26.999Z</time></trkpt><trkpt lat="38.790259982404514" lon="16.27803015373023"><ele>359.8</ele><time>2026-04-12T14:35:27.999Z</time></trkpt><trkpt lat="38.790239754638996" lon="16.277906524567022"><ele>359.6</ele><time>2026-04-12T14:35:28.999Z</time></trkpt><trkpt lat="38.790213171479856" lon="16.2777899847253"><ele>359.4</ele><time>2026-04-12T14:35:29.999Z</time></trkpt><trkpt lat="38.790183288780355" lon="16.277671843446118"><ele>359.2</ele><time>2026-04-12T14:35:30.999Z</time></trkpt><trkpt lat="38.79014767236363" lon="16.277556755839978"><ele>359.0</ele><time>2026-04-12T14:35:31.999Z</time></trkpt><trkpt lat="38.790105557971906" lon="16.277447751265868"><ele>359.0</ele><time>2026-04-12T14:35:32.999Z</time></trkpt><trkpt lat="38.79004012220696" lon="16.27734686833193"><ele>359.0</ele><time>2026-04-12T14:35:33.999Z</time></trkpt><trkpt lat="38.789966298513995" lon="16.277251159285573"><ele>359.0</ele><time>2026-04-12T14:35:34.999Z</time></trkpt><trkpt lat="38.78987795077267" lon="16.27717332757673"><ele>359.0</ele><time>2026-04-12T14:35:35.999Z</time></trkpt><trkpt lat="38.78978973789694" lon="16.277096174246534"><ele>359.0</ele><time>2026-04-12T14:35:36.999Z</time></trkpt><trkpt lat="38.78971094251019" lon="16.27701338362547"><ele>359.0</ele><time>2026-04-12T14:35:37.999Z</time></trkpt><trkpt lat="38.789631628960606" lon="16.2769429232018"><ele>359.0</ele><time>2026-04-12T14:35:38.999Z</time></trkpt><trkpt lat="38.789552750714684" lon="16.27687531151813"><ele>359.0</ele><time>2026-04-12T14:35:39.999Z</time></trkpt><trkpt lat="38.78947305980471" lon="16.27680693095726"><ele>359.0</ele><time>2026-04-12T14:35:40.999Z</time></trkpt><trkpt lat="38.789396975186186" lon="16.27673716048866"><ele>359.0</ele><time>2026-04-12T14:35:42Z</time></trkpt><trkpt lat="38.789320198070776" lon="16.276667329305294"><ele>359.0</ele><time>2026-04-12T14:35:43Z</time></trkpt><trkpt lat="38.78924730897456" lon="16.276595633728444"><ele>359.0</ele><time>2026-04-12T14:35:44Z</time></trkpt><trkpt lat="38.78918184560341" lon="16.27651907376572"><ele>359.0</ele><time>2026-04-12T14:35:45Z</time></trkpt><trkpt lat="38.789124258739406" lon="16.276427021267047"><ele>359.0</ele><time>2026-04-12T14:35:46Z</time></trkpt><trkpt lat="38.7890763045449" lon="16.276326053408013"><ele>359.0</ele><time>2026-04-12T14:35:47Z</time></trkpt><trkpt lat="38.789031715096165" lon="16.276217200176813"><ele>359.0</ele><time>2026-04-12T14:35:48Z</time></trkpt><trkpt lat="38.78898938148906" lon="16.27610570733242"><ele>359.0</ele><time>2026-04-12T14:35:49Z</time></trkpt><trkpt lat="38.78895291217636" lon="16.27598694759536"><ele>359.0</ele><time>2026-04-12T14:35:50Z</time></trkpt><trkpt lat="38.78892393480543" lon="16.27586461879368"><ele>359.0</ele><time>2026-04-12T14:35:51Z</time></trkpt><trkpt lat="38.78889891431577" lon="16.275734136185775"><ele>359.0</ele><time>2026-04-12T14:35:52Z</time></trkpt><trkpt lat="38.78887926178769" lon="16.2756005610138"><ele>359.2</ele><time>2026-04-12T14:35:53Z</time></trkpt><trkpt lat="38.7888592353526" lon="16.275466712857753"><ele>359.4</ele><time>2026-04-12T14:35:54Z</time></trkpt><trkpt lat="38.78883430701164" lon="16.27533086859284"><ele>359.6</ele><time>2026-04-12T14:35:55Z</time></trkpt><trkpt lat="38.788808635137336" lon="16.275193494349924"><ele>359.8</ele><time>2026-04-12T14:35:56Z</time></trkpt><trkpt lat="38.78878419567852" lon="16.275060393375355"><ele>360.0</ele><time>2026-04-12T14:35:57Z</time></trkpt><trkpt lat="38.78876529045397" lon="16.274940700502885"><ele>360.0</ele><time>2026-04-12T14:35:58Z</time></trkpt><trkpt lat="38.78874840798521" lon="16.274830855755678"><ele>360.0</ele><time>2026-04-12T14:35:59Z</time></trkpt><trkpt lat="38.788727011042056" lon="16.274719602301143"><ele>360.0</ele><time>2026-04-12T14:36:00Z</time></trkpt><trkpt lat="38.788707468181016" lon="16.274606281981068"><ele>360.0</ele><time>2026-04-12T14:36:01Z</time></trkpt><trkpt lat="38.78869182988672" lon="16.274478156180137"><ele>360.0</ele><time>2026-04-12T14:36:02Z</time></trkpt><trkpt lat="38.78865329961387" lon="16.27435095169281"><ele>360.4</ele><time>2026-04-12T14:36:03Z</time></trkpt><trkpt lat="38.788631434845705" lon="16.274256619715057"><ele>360.8</ele><time>2026-04-12T14:36:04Z</time></trkpt><trkpt lat="38.78859014811387" lon="16.27415003432614"><ele>361.20000000000005</ele><time>2026-04-12T14:36:05Z</time></trkpt><trkpt lat="38.78853609871613" lon="16.27405366225202"><ele>361.6</ele><time>2026-04-12T14:36:06Z</time></trkpt><trkpt lat="38.78847238237543" lon="16.27397069060597"><ele>362.0</ele><time>2026-04-12T14:36:07Z</time></trkpt><trkpt lat="38.78840114059211" lon="16.273878873039223"><ele>361.20000000000005</ele><time>2026-04-12T14:36:08Z</time></trkpt><trkpt lat="38.788330976127696" lon="16.27379913612621"><ele>360.4</ele><time>2026-04-12T14:36:09Z</time></trkpt><trkpt lat="38.788259490330674" lon="16.27371669274704"><ele>359.6</ele><time>2026-04-12T14:36:10Z</time></trkpt><trkpt lat="38.78818476505159" lon="16.2736379486081"><ele>358.79999999999995</ele><time>2026-04-12T14:36:11Z</time></trkpt><trkpt lat="38.788115599897424" lon="16.273555294953958"><ele>358.0</ele><time>2026-04-12T14:36:12Z</time></trkpt><trkpt lat="38.7880318379388" lon="16.27347300510378"><ele>358.0</ele><time>2026-04-12T14:36:13Z</time></trkpt><trkpt lat="38.787959300613885" lon="16.27339052358535"><ele>358.0</ele><time>2026-04-12T14:36:14Z</time></trkpt><trkpt lat="38.787890262800495" lon="16.2733026817638"><ele>358.0</ele><time>2026-04-12T14:36:15Z</time></trkpt><trkpt lat="38.78780866031583" lon="16.273218344228766"><ele>358.0</ele><time>2026-04-12T14:36:16Z</time></trkpt><trkpt lat="38.78773451294627" lon="16.27312801169867"><ele>358.0</ele><time>2026-04-12T14:36:17Z</time></trkpt><trkpt lat="38.787657343396354" lon="16.273033186816782"><ele>357.59999999999997</ele><time>2026-04-12T14:36:18Z</time></trkpt><trkpt lat="38.78757628941815" lon="16.27294875782334"><ele>357.2</ele><time>2026-04-12T14:36:19Z</time></trkpt><trkpt lat="38.78749590057283" lon="16.272859593580563"><ele>356.8</ele><time>2026-04-12T14:36:20Z</time></trkpt><trkpt lat="38.7874185375375" lon="16.2727658452586"><ele>356.4</ele><time>2026-04-12T14:36:21Z</time></trkpt><trkpt lat="38.78734669635956" lon="16.27267747895859"><ele>356.0</ele><time>2026-04-12T14:36:22Z</time></trkpt><trkpt lat="38.787278854976606" lon="16.27259556339231"><ele>356.0</ele><time>2026-04-12T14:36:23Z</time></trkpt><trkpt lat="38.78721258714361" lon="16.272503490870704"><ele>356.0</ele><time>2026-04-12T14:36:24Z</time></trkpt><trkpt lat="38.78715275240717" lon="16.272399644401116"><ele>356.0</ele><time>2026-04-12T14:36:25Z</time></trkpt><trkpt lat="38.78710685237763" lon="16.272284125239825"><ele>356.0</ele><time>2026-04-12T14:36:26Z</time></trkpt><trkpt lat="38.78707248460971" lon="16.272159446808153"><ele>356.0</ele><time>2026-04-12T14:36:27Z</time></trkpt><trkpt lat="38.78703765767619" lon="16.272025139271282"><ele>356.0</ele><time>2026-04-12T14:36:28Z</time></trkpt><trkpt lat="38.78701189640712" lon="16.271886211974383"><ele>356.0</ele><time>2026-04-12T14:36:29Z</time></trkpt><trkpt lat="38.78701221445357" lon="16.2717497348103"><ele>356.0</ele><time>2026-04-12T14:36:30Z</time></trkpt><trkpt lat="38.78701462836497" lon="16.27161275697696"><ele>356.0</ele><time>2026-04-12T14:36:31Z</time></trkpt><trkpt lat="38.787018434112845" lon="16.271480257602544"><ele>356.0</ele><time>2026-04-12T14:36:32Z</time></trkpt><trkpt lat="38.787031162145205" lon="16.271341943949313"><ele>355.6</ele><time>2026-04-12T14:36:33Z</time></trkpt><trkpt lat="38.78704703632907" lon="16.271201164245944"><ele>355.20000000000005</ele><time>2026-04-12T14:36:34Z</time></trkpt><trkpt lat="38.78706086379419" lon="16.271063929015344"><ele>354.79999999999995</ele><time>2026-04-12T14:36:35Z</time></trkpt><trkpt lat="38.78707800682661" lon="16.270924671995434"><ele>354.4</ele><time>2026-04-12T14:36:36Z</time></trkpt><trkpt lat="38.787095919822406" lon="16.270780013747455"><ele>354.0</ele><time>2026-04-12T14:36:37Z</time></trkpt><trkpt lat="38.78711375326198" lon="16.27064020647811"><ele>354.0</ele><time>2026-04-12T14:36:38Z</time></trkpt><trkpt lat="38.78713275325205" lon="16.27049288972154"><ele>354.0</ele><time>2026-04-12T14:36:39Z</time></trkpt><trkpt lat="38.7871511305346" lon="16.270353281156478"><ele>354.0</ele><time>2026-04-12T14:36:40Z</time></trkpt><trkpt lat="38.78717078349935" lon="16.270217756815377"><ele>354.0</ele><time>2026-04-12T14:36:41Z</time></trkpt><trkpt lat="38.787197113679824" lon="16.27009260980232"><ele>354.0</ele><time>2026-04-12T14:36:42Z</time></trkpt><trkpt lat="38.78720073252698" lon="16.26998102273486"><ele>354.0</ele><time>2026-04-12T14:36:43Z</time></trkpt><trkpt lat="38.787219636708706" lon="16.26986939438098"><ele>354.0</ele><time>2026-04-12T14:36:44Z</time></trkpt><trkpt lat="38.78723175195549" lon="16.26977860552285"><ele>354.0</ele><time>2026-04-12T14:36:45Z</time></trkpt><trkpt lat="38.78723390632966" lon="16.269679633214714"><ele>354.0</ele><time>2026-04-12T14:36:46Z</time></trkpt><trkpt lat="38.78724364611459" lon="16.269594309115803"><ele>354.0</ele><time>2026-04-12T14:36:47Z</time></trkpt><trkpt lat="38.7872562655014" lon="16.26950794009142"><ele>354.0</ele><time>2026-04-12T14:36:48Z</time></trkpt><trkpt lat="38.787276366322544" lon="16.269416968645803"><ele>354.0</ele><time>2026-04-12T14:36:49Z</time></trkpt><trkpt lat="38.787292911832644" lon="16.269322735648903"><ele>353.8333333333333</ele><time>2026-04-12T14:36:50Z</time></trkpt><trkpt lat="38.78731020927999" lon="16.269220641396817"><ele>353.6666666666667</ele><time>2026-04-12T14:36:51Z</time></trkpt><trkpt lat="38.78733801593172" lon="16.269126232614763"><ele>353.5</ele><time>2026-04-12T14:36:52Z</time></trkpt><trkpt lat="38.78736803694733" lon="16.26903364768046"><ele>353.33333333333337</ele><time>2026-04-12T14:36:53Z</time></trkpt><trkpt lat="38.78740901950239" lon="16.268915115426022"><ele>353.1666666666667</ele><time>2026-04-12T14:36:54Z</time></trkpt><trkpt lat="38.78744565810938" lon="16.268802943961887"><ele>353.0</ele><time>2026-04-12T14:36:55Z</time></trkpt><trkpt lat="38.78747849041686" lon="16.268673031803527"><ele>352.4</ele><time>2026-04-12T14:36:56Z</time></trkpt><trkpt lat="38.78751204261714" lon="16.268550433770972"><ele>351.79999999999995</ele><time>2026-04-12T14:36:57Z</time></trkpt><trkpt lat="38.78755072154497" lon="16.268424760261855"><ele>351.2</ele><time>2026-04-12T14:36:58Z</time></trkpt><trkpt lat="38.78757636846301" lon="16.268286983163506"><ele>350.6</ele><time>2026-04-12T14:36:59Z</time></trkpt><trkpt lat="38.787611958867195" lon="16.26815015227524"><ele>350.0</ele><time>2026-04-12T14:37:00Z</time></trkpt><trkpt lat="38.78763947075732" lon="16.267999750259392"><ele>349.25</ele><time>2026-04-12T14:37:01Z</time></trkpt><trkpt lat="38.78766120519309" lon="16.267844547127638"><ele>348.5</ele><time>2026-04-12T14:37:02Z</time></trkpt><trkpt lat="38.78766838693687" lon="16.267686829364102"><ele>347.75</ele><time>2026-04-12T14:37:03Z</time></trkpt><trkpt lat="38.78765517753295" lon="16.267524505752636"><ele>347.0</ele><time>2026-04-12T14:37:04Z</time></trkpt><trkpt lat="38.78762228462909" lon="16.26736748646942"><ele>347.25</ele><time>2026-04-12T14:37:05Z</time></trkpt><trkpt lat="38.78757478676136" lon="16.26721400895788"><ele>347.5</ele><time>2026-04-12T14:37:06Z</time></trkpt><trkpt lat="38.787507517289896" lon="16.267071723601134"><ele>347.75</ele><time>2026-04-12T14:37:07Z</time></trkpt><trkpt lat="38.78743547769504" lon="16.266933385414433"><ele>348.0</ele><time>2026-04-12T14:37:08Z</time></trkpt><trkpt lat="38.78736168450386" lon="16.266808297997557"><ele>348.0</ele><time>2026-04-12T14:37:09Z</time></trkpt><trkpt lat="38.7872920908228" lon="16.2666829630627"><ele>348.0</ele><time>2026-04-12T14:37:10Z</time></trkpt><trkpt lat="38.78722827324151" lon="16.26656687188653"><ele>348.0</ele><time>2026-04-12T14:37:11Z</time></trkpt><trkpt lat="38.787167047205756" lon="16.266442593135586"><ele>348.0</ele><time>2026-04-12T14:37:12Z</time></trkpt><trkpt lat="38.78710973494739" lon="16.266316142214688"><ele>348.79999999999995</ele><time>2026-04-12T14:37:13Z</time></trkpt><trkpt lat="38.78705567080089" lon="16.26618932425246"><ele>349.6</ele><time>2026-04-12T14:37:14Z</time></trkpt><trkpt lat="38.787009550515684" lon="16.266062198917677"><ele>350.4</ele><time>2026-04-12T14:37:15Z</time></trkpt><trkpt lat="38.78696037150337" lon="16.265932376491502"><ele>351.20000000000005</ele><time>2026-04-12T14:37:16Z</time></trkpt><trkpt lat="38.7869097909036" lon="16.265804844578053"><ele>352.0</ele><time>2026-04-12T14:37:17Z</time></trkpt><trkpt lat="38.78686367025681" lon="16.26567279884917"><ele>350.75</ele><time>2026-04-12T14:37:18Z</time></trkpt><trkpt lat="38.78682587224911" lon="16.265539838515707"><ele>349.5</ele><time>2026-04-12T14:37:19Z</time></trkpt><trkpt lat="38.786788032560054" lon="16.265401826379826"><ele>348.25</ele><time>2026-04-12T14:37:20Z</time></trkpt><trkpt lat="38.786758545603895" lon="16.265259646143072"><ele>347.0</ele><time>2026-04-12T14:37:21Z</time></trkpt><trkpt lat="38.78673880687759" lon="16.265108354731293"><ele>347.0</ele><time>2026-04-12T14:37:22Z</time></trkpt><trkpt lat="38.78671974620775" lon="16.264961958661512"><ele>347.0</ele><time>2026-04-12T14:37:23Z</time></trkpt><trkpt lat="38.78670455712951" lon="16.264819374351806"><ele>347.0</ele><time>2026-04-12T14:37:24Z</time></trkpt><trkpt lat="38.78669501134335" lon="16.264678632680226"><ele>347.0</ele><time>2026-04-12T14:37:25Z</time></trkpt><trkpt lat="38.78669809171269" lon="16.264545222865788"><ele>347.0</ele><time>2026-04-12T14:37:26Z</time></trkpt><trkpt lat="38.78670948446233" lon="16.264415345581963"><ele>346.20000000000005</ele><time>2026-04-12T14:37:27Z</time></trkpt><trkpt lat="38.78673271339695" lon="16.264286845863673"><ele>345.4</ele><time>2026-04-12T14:37:28Z</time></trkpt><trkpt lat="38.78676207334936" lon="16.264162936471024"><ele>344.6</ele><time>2026-04-12T14:37:29Z</time></trkpt><trkpt lat="38.78680931365376" lon="16.26403284403873"><ele>343.79999999999995</ele><time>2026-04-12T14:37:30Z</time></trkpt><trkpt lat="38.78688314961778" lon="16.263921021465332"><ele>343.0</ele><time>2026-04-12T14:37:30.999Z</time></trkpt><trkpt lat="38.786968715842626" lon="16.263820257264484"><ele>342.25</ele><time>2026-04-12T14:37:31.999Z</time></trkpt><trkpt lat="38.787062674139705" lon="16.263725466080725"><ele>341.5</ele><time>2026-04-12T14:37:32.999Z</time></trkpt><trkpt lat="38.78715624400456" lon="16.263632549084353"><ele>340.75</ele><time>2026-04-12T14:37:33.999Z</time></trkpt><trkpt lat="38.78725152832069" lon="16.263540447997336"><ele>340.0</ele><time>2026-04-12T14:37:34.999Z</time></trkpt><trkpt lat="38.78734580631825" lon="16.26345014070061"><ele>340.0</ele><time>2026-04-12T14:37:35.999Z</time></trkpt><trkpt lat="38.7874296405841" lon="16.26335829400491"><ele>340.0</ele><time>2026-04-12T14:37:36.999Z</time></trkpt><trkpt lat="38.7874965001492" lon="16.263248121901526"><ele>340.0</ele><time>2026-04-12T14:37:37.999Z</time></trkpt><trkpt lat="38.78752984598988" lon="16.263114965634248"><ele>340.0</ele><time>2026-04-12T14:37:38.999Z</time></trkpt><trkpt lat="38.7875252592368" lon="16.262968154314457"><ele>340.0</ele><time>2026-04-12T14:37:39.999Z</time></trkpt><trkpt lat="38.78749682949004" lon="16.26282733851287"><ele>338.8</ele><time>2026-04-12T14:37:40.999Z</time></trkpt><trkpt lat="38.78747180103177" lon="16.262694517483478"><ele>337.6</ele><time>2026-04-12T14:37:42Z</time></trkpt><trkpt lat="38.787457946859966" lon="16.26256345635602"><ele>336.4</ele><time>2026-04-12T14:37:43Z</time></trkpt><trkpt lat="38.78748942651803" lon="16.262436855207135"><ele>335.2</ele><time>2026-04-12T14:37:44Z</time></trkpt><trkpt lat="38.78752755303168" lon="16.262319966102535"><ele>334.0</ele><time>2026-04-12T14:37:45Z</time></trkpt><trkpt lat="38.7875680611057" lon="16.262207202520166"><ele>334.0</ele><time>2026-04-12T14:37:46Z</time></trkpt><trkpt lat="38.78761542122314" lon="16.262101058581457"><ele>334.0</ele><time>2026-04-12T14:37:47Z</time></trkpt><trkpt lat="38.78761124354172" lon="16.26195855984151"><ele>334.0</ele><time>2026-04-12T14:37:48Z</time></trkpt><trkpt lat="38.78756366873611" lon="16.261824688258802"><ele>334.0</ele><time>2026-04-12T14:37:49Z</time></trkpt><trkpt lat="38.78753089990129" lon="16.26168971175311"><ele>334.0</ele><time>2026-04-12T14:37:50Z</time></trkpt><trkpt lat="38.78749812012287" lon="16.261544939469818"><ele>333.75</ele><time>2026-04-12T14:37:51Z</time></trkpt><trkpt lat="38.78748013441084" lon="16.26138733490135"><ele>333.5</ele><time>2026-04-12T14:37:52Z</time></trkpt><trkpt lat="38.78746602035414" lon="16.26122307982292"><ele>333.25</ele><time>2026-04-12T14:37:53Z</time></trkpt><trkpt lat="38.78744357681895" lon="16.261054695192517"><ele>333.0</ele><time>2026-04-12T14:37:54Z</time></trkpt><trkpt lat="38.787409855752585" lon="16.260888194043606"><ele>333.0</ele><time>2026-04-12T14:37:55Z</time></trkpt><trkpt lat="38.78736933054779" lon="16.260732258311517"><ele>333.0</ele><time>2026-04-12T14:37:56Z</time></trkpt><trkpt lat="38.78732380473495" lon="16.26059053445861"><ele>333.0</ele><time>2026-04-12T14:37:57Z</time></trkpt><trkpt lat="38.78728263090267" lon="16.260456483813623"><ele>333.0</ele><time>2026-04-12T14:37:58Z</time></trkpt><trkpt lat="38.787241856241714" lon="16.260325002729246"><ele>333.2</ele><time>2026-04-12T14:37:59Z</time></trkpt><trkpt lat="38.78720196528659" lon="16.260193776452503"><ele>333.4</ele><time>2026-04-12T14:38:00Z</time></trkpt><trkpt lat="38.787177881588136" lon="16.260057745693185"><ele>333.59999999999997</ele><time>2026-04-12T14:38:01Z</time></trkpt><trkpt lat="38.78717964751792" lon="16.259941522285676"><ele>333.79999999999995</ele><time>2026-04-12T14:38:02Z</time></trkpt><trkpt lat="38.7872216455367" lon="16.259823970455706"><ele>334.0</ele><time>2026-04-12T14:38:03Z</time></trkpt><trkpt lat="38.78727880899309" lon="16.25973259553366"><ele>332.79999999999995</ele><time>2026-04-12T14:38:04Z</time></trkpt><trkpt lat="38.78735474339311" lon="16.25965793422184"><ele>331.59999999999997</ele><time>2026-04-12T14:38:05Z</time></trkpt><trkpt lat="38.78743792657061" lon="16.25958853465327"><ele>330.4</ele><time>2026-04-12T14:38:06Z</time></trkpt><trkpt lat="38.787514511346494" lon="16.259515196587884"><ele>329.2</ele><time>2026-04-12T14:38:07Z</time></trkpt><trkpt lat="38.78757973782273" lon="16.25943073030545"><ele>328.0</ele><time>2026-04-12T14:38:08Z</time></trkpt><trkpt lat="38.78763104247389" lon="16.25931458920898"><ele>328.0</ele><time>2026-04-12T14:38:09Z</time></trkpt><trkpt lat="38.78764916147031" lon="16.25916971157892"><ele>328.0</ele><time>2026-04-12T14:38:10Z</time></trkpt><trkpt lat="38.78761472484051" lon="16.25903725228913"><ele>328.0</ele><time>2026-04-12T14:38:11Z</time></trkpt><trkpt lat="38.78756285919491" lon="16.258914159348723"><ele>328.0</ele><time>2026-04-12T14:38:12Z</time></trkpt><trkpt lat="38.787497363194554" lon="16.25878042857604"><ele>328.75</ele><time>2026-04-12T14:38:13Z</time></trkpt><trkpt lat="38.78743830446781" lon="16.258649696709345"><ele>329.5</ele><time>2026-04-12T14:38:14Z</time></trkpt><trkpt lat="38.787383706945754" lon="16.258510258375036"><ele>330.25</ele><time>2026-04-12T14:38:15Z</time></trkpt><trkpt lat="38.78731369369756" lon="16.25837728696033"><ele>331.0</ele><time>2026-04-12T14:38:16Z</time></trkpt><trkpt lat="38.787224770784576" lon="16.258262480662847"><ele>331.0</ele><time>2026-04-12T14:38:17Z</time></trkpt><trkpt lat="38.787116502470546" lon="16.258179823177404"><ele>331.0</ele><time>2026-04-12T14:38:18Z</time></trkpt><trkpt lat="38.78699704634071" lon="16.258147553210225"><ele>331.0</ele><time>2026-04-12T14:38:19Z</time></trkpt><trkpt lat="38.78688233212957" lon="16.25811255502679"><ele>331.0</ele><time>2026-04-12T14:38:20Z</time></trkpt><trkpt lat="38.78677765367286" lon="16.258060766648313"><ele>329.75</ele><time>2026-04-12T14:38:21Z</time></trkpt><trkpt lat="38.78667829146081" lon="16.257987814549917"><ele>328.5</ele><time>2026-04-12T14:38:22Z</time></trkpt><trkpt lat="38.786585234098624" lon="16.257888670853582"><ele>327.25</ele><time>2026-04-12T14:38:23Z</time></trkpt><trkpt lat="38.78649847377564" lon="16.257785171112207"><ele>326.0</ele><time>2026-04-12T14:38:24Z</time></trkpt><trkpt lat="38.78641506536807" lon="16.257687312389244"><ele>326.0</ele><time>2026-04-12T14:38:25Z</time></trkpt><trkpt lat="38.78634982553508" lon="16.257570365628926"><ele>326.0</ele><time>2026-04-12T14:38:26Z</time></trkpt><trkpt lat="38.78628279961709" lon="16.257446182810707"><ele>326.0</ele><time>2026-04-12T14:38:27Z</time></trkpt><trkpt lat="38.78624597952125" lon="16.257295565620797"><ele>326.0</ele><time>2026-04-12T14:38:28Z</time></trkpt><trkpt lat="38.78621106210442" lon="16.257141522901257"><ele>327.5</ele><time>2026-04-12T14:38:29Z</time></trkpt><trkpt lat="38.786176033279254" lon="16.25698671640732"><ele>329.0</ele><time>2026-04-12T14:38:30Z</time></trkpt><trkpt lat="38.78614670832517" lon="16.256823061059233"><ele>330.5</ele><time>2026-04-12T14:38:31Z</time></trkpt><trkpt lat="38.78609514422247" lon="16.256670025394683"><ele>332.0</ele><time>2026-04-12T14:38:32Z</time></trkpt><trkpt lat="38.78603438639619" lon="16.256526939009223"><ele>329.25</ele><time>2026-04-12T14:38:33Z</time></trkpt><trkpt lat="38.78596763110771" lon="16.25639384942907"><ele>326.5</ele><time>2026-04-12T14:38:34Z</time></trkpt><trkpt lat="38.78589466858023" lon="16.256270209904994"><ele>323.75</ele><time>2026-04-12T14:38:35Z</time></trkpt><trkpt lat="38.78581694125479" lon="16.256149587855887"><ele>321.0</ele><time>2026-04-12T14:38:36Z</time></trkpt><trkpt lat="38.7857389760281" lon="16.256032926429683"><ele>321.0</ele><time>2026-04-12T14:38:37Z</time></trkpt><trkpt lat="38.785668923642476" lon="16.255915963291184"><ele>321.0</ele><time>2026-04-12T14:38:38Z</time></trkpt><trkpt lat="38.785603438719605" lon="16.255796341444352"><ele>321.0</ele><time>2026-04-12T14:38:39Z</time></trkpt><trkpt lat="38.7855484622761" lon="16.255676292573266"><ele>321.0</ele><time>2026-04-12T14:38:40Z</time></trkpt><trkpt lat="38.785499700413" lon="16.25555383151235"><ele>321.0</ele><time>2026-04-12T14:38:41Z</time></trkpt><trkpt lat="38.785453714967254" lon="16.25543666161113"><ele>321.4</ele><time>2026-04-12T14:38:42Z</time></trkpt><trkpt lat="38.785425412365875" lon="16.255310256186814"><ele>321.8</ele><time>2026-04-12T14:38:43Z</time></trkpt><trkpt lat="38.78543508075112" lon="16.25516824635992"><ele>322.2</ele><time>2026-04-12T14:38:44Z</time></trkpt><trkpt lat="38.785458648924156" lon="16.25502161487325"><ele>322.59999999999997</ele><time>2026-04-12T14:38:45Z</time></trkpt><trkpt lat="38.78547159487514" lon="16.254883132306908"><ele>323.0</ele><time>2026-04-12T14:38:46Z</time></trkpt><trkpt lat="38.78545077368953" lon="16.254746322313984"><ele>324.0</ele><time>2026-04-12T14:38:47Z</time></trkpt><trkpt lat="38.78540984238799" lon="16.254613074532525"><ele>325.0</ele><time>2026-04-12T14:38:48Z</time></trkpt><trkpt lat="38.78534223237242" lon="16.2544916296289"><ele>326.0</ele><time>2026-04-12T14:38:49Z</time></trkpt><trkpt lat="38.78525131003134" lon="16.254404243066006"><ele>327.0</ele><time>2026-04-12T14:38:50Z</time></trkpt><trkpt lat="38.78516113141036" lon="16.254320609087955"><ele>323.6</ele><time>2026-04-12T14:38:51Z</time></trkpt><trkpt lat="38.78506861041404" lon="16.25424261786702"><ele>320.20000000000005</ele><time>2026-04-12T14:38:52Z</time></trkpt><trkpt lat="38.78498691188899" lon="16.25415816030055"><ele>316.8</ele><time>2026-04-12T14:38:53Z</time></trkpt><trkpt lat="38.78491799146457" lon="16.25405335072787"><ele>313.4</ele><time>2026-04-12T14:38:54Z</time></trkpt><trkpt lat="38.784874878941494" lon="16.253946758620913"><ele>310.0</ele><time>2026-04-12T14:38:55Z</time></trkpt><trkpt lat="38.784830122677675" lon="16.25384089536834"><ele>310.0</ele><time>2026-04-12T14:38:56Z</time></trkpt><trkpt lat="38.78478923274826" lon="16.25374151137117"><ele>310.0</ele><time>2026-04-12T14:38:57Z</time></trkpt><trkpt lat="38.78476164953749" lon="16.253647816793425"><ele>310.0</ele><time>2026-04-12T14:38:58Z</time></trkpt><trkpt lat="38.78472950975914" lon="16.253547425538148"><ele>310.0</ele><time>2026-04-12T14:38:59Z</time></trkpt><trkpt lat="38.78469432028373" lon="16.253449514643503"><ele>310.0</ele><time>2026-04-12T14:39:00Z</time></trkpt><trkpt lat="38.784677048762916" lon="16.25335376109923"><ele>310.0</ele><time>2026-04-12T14:39:01Z</time></trkpt><trkpt lat="38.78466085814537" lon="16.253256756376025"><ele>310.0</ele><time>2026-04-12T14:39:02Z</time></trkpt><trkpt lat="38.784646322893984" lon="16.253160106212977"><ele>310.0</ele><time>2026-04-12T14:39:03Z</time></trkpt><trkpt lat="38.784647892909355" lon="16.253059258268703"><ele>310.0</ele><time>2026-04-12T14:39:04Z</time></trkpt><trkpt lat="38.784674441226116" lon="16.252956503205585"><ele>310.0</ele><time>2026-04-12T14:39:05Z</time></trkpt><trkpt lat="38.784705086646966" lon="16.252860186634162"><ele>310.0</ele><time>2026-04-12T14:39:06Z</time></trkpt><trkpt lat="38.78474653035187" lon="16.25276709201548"><ele>310.0</ele><time>2026-04-12T14:39:07Z</time></trkpt><trkpt lat="38.784786711101006" lon="16.252683745837"><ele>309.5</ele><time>2026-04-12T14:39:08Z</time></trkpt><trkpt lat="38.78480133524909" lon="16.252583643269674"><ele>309.0</ele><time>2026-04-12T14:39:09Z</time></trkpt><trkpt lat="38.78478835574369" lon="16.252477577740592"><ele>308.5</ele><time>2026-04-12T14:39:10Z</time></trkpt><trkpt lat="38.78474194854021" lon="16.252373464667482"><ele>308.0</ele><time>2026-04-12T14:39:11Z</time></trkpt><trkpt lat="38.784675142148956" lon="16.252283512061627"><ele>307.5</ele><time>2026-04-12T14:39:12Z</time></trkpt><trkpt lat="38.78460232777422" lon="16.252207267808476"><ele>307.0</ele><time>2026-04-12T14:39:13Z</time></trkpt><trkpt lat="38.78451978728991" lon="16.252116375278742"><ele>309.0</ele><time>2026-04-12T14:39:14.001Z</time></trkpt><trkpt lat="38.78444479787957" lon="16.251998396991777"><ele>311.0</ele><time>2026-04-12T14:39:15.001Z</time></trkpt><trkpt lat="38.78439270553298" lon="16.251868660178"><ele>313.0</ele><time>2026-04-12T14:39:16.001Z</time></trkpt><trkpt lat="38.78432066247323" lon="16.251757765442168"><ele>315.0</ele><time>2026-04-12T14:39:17.001Z</time></trkpt><trkpt lat="38.784199427617075" lon="16.251744242248506"><ele>312.25</ele><time>2026-04-12T14:39:18.001Z</time></trkpt><trkpt lat="38.784105869209235" lon="16.25163843247236"><ele>309.5</ele><time>2026-04-12T14:39:19.001Z</time></trkpt><trkpt lat="38.78398601864816" lon="16.25150458603846"><ele>306.75</ele><time>2026-04-12T14:39:21.001Z</time></trkpt><trkpt lat="38.78389556766818" lon="16.251402371194594"><ele>304.0</ele><time>2026-04-12T14:39:22.001Z</time></trkpt><trkpt lat="38.78380474479498" lon="16.251293380378065"><ele>304.0</ele><time>2026-04-12T14:39:23.001Z</time></trkpt><trkpt lat="38.78371467255408" lon="16.251189228728062"><ele>304.0</ele><time>2026-04-12T14:39:24.001Z</time></trkpt><trkpt lat="38.783624987747025" lon="16.25108361848023"><ele>304.0</ele><time>2026-04-12T14:39:25.001Z</time></trkpt><trkpt lat="38.783530919857064" lon="16.25097411163723"><ele>304.0</ele><time>2026-04-12T14:39:26.001Z</time></trkpt><trkpt lat="38.78344035932697" lon="16.2508575428101"><ele>301.25</ele><time>2026-04-12T14:39:27.001Z</time></trkpt><trkpt lat="38.78335518739589" lon="16.250729934389618"><ele>298.5</ele><time>2026-04-12T14:39:28.001Z</time></trkpt><trkpt lat="38.78327124788131" lon="16.250603122219566"><ele>295.75</ele><time>2026-04-12T14:39:29.001Z</time></trkpt><trkpt lat="38.78318941409691" lon="16.25047664845311"><ele>293.0</ele><time>2026-04-12T14:39:30.001Z</time></trkpt><trkpt lat="38.78309972451647" lon="16.250339424047638"><ele>293.0</ele><time>2026-04-12T14:39:31.001Z</time></trkpt><trkpt lat="38.78301068349505" lon="16.250217330145176"><ele>293.0</ele><time>2026-04-12T14:39:32.001Z</time></trkpt><trkpt lat="38.78293296853381" lon="16.250098332601908"><ele>293.0</ele><time>2026-04-12T14:39:33.001Z</time></trkpt><trkpt lat="38.7828474867949" lon="16.250002397166167"><ele>293.0</ele><time>2026-04-12T14:39:34.001Z</time></trkpt><trkpt lat="38.78274191767723" lon="16.249936073305513"><ele>289.25</ele><time>2026-04-12T14:39:35.001Z</time></trkpt><trkpt lat="38.78260261461447" lon="16.249910092394057"><ele>285.5</ele><time>2026-04-12T14:39:36.001Z</time></trkpt><trkpt lat="38.782472701405005" lon="16.2499276770863"><ele>281.75</ele><time>2026-04-12T14:39:37Z</time></trkpt><trkpt lat="38.782342612365106" lon="16.249977933750117"><ele>278.0</ele><time>2026-04-12T14:39:38Z</time></trkpt><trkpt lat="38.782210972398424" lon="16.250028350262586"><ele>278.0</ele><time>2026-04-12T14:39:39Z</time></trkpt><trkpt lat="38.78208560187823" lon="16.250041809629572"><ele>278.0</ele><time>2026-04-12T14:39:40Z</time></trkpt><trkpt lat="38.7819693845397" lon="16.249983472542844"><ele>278.0</ele><time>2026-04-12T14:39:41Z</time></trkpt><trkpt lat="38.7818635109749" lon="16.249884999506612"><ele>278.0</ele><time>2026-04-12T14:39:42Z</time></trkpt><trkpt lat="38.78178375201191" lon="16.24973993865492"><ele>276.75</ele><time>2026-04-12T14:39:43Z</time></trkpt><trkpt lat="38.78170820041017" lon="16.249587158626674"><ele>275.5</ele><time>2026-04-12T14:39:44Z</time></trkpt><trkpt lat="38.7816213635199" lon="16.249426845375538"><ele>274.25</ele><time>2026-04-12T14:39:45Z</time></trkpt><trkpt lat="38.78153236278399" lon="16.24927683199746"><ele>273.0</ele><time>2026-04-12T14:39:46Z</time></trkpt><trkpt lat="38.78144487790276" lon="16.24914795318978"><ele>273.0</ele><time>2026-04-12T14:39:47Z</time></trkpt><trkpt lat="38.781374014205056" lon="16.249003399488988"><ele>273.0</ele><time>2026-04-12T14:39:48Z</time></trkpt><trkpt lat="38.781316627294984" lon="16.248833474371054"><ele>273.0</ele><time>2026-04-12T14:39:49Z</time></trkpt><trkpt lat="38.78127982301659" lon="16.248651286310178"><ele>273.0</ele><time>2026-04-12T14:39:50Z</time></trkpt><trkpt lat="38.781265028037986" lon="16.248464044576018"><ele>273.0</ele><time>2026-04-12T14:39:51Z</time></trkpt><trkpt lat="38.781264190525285" lon="16.248271941150236"><ele>273.0</ele><time>2026-04-12T14:39:52Z</time></trkpt><trkpt lat="38.78126301303015" lon="16.248086802740723"><ele>273.0</ele><time>2026-04-12T14:39:53Z</time></trkpt><trkpt lat="38.781260436481034" lon="16.24790360796606"><ele>273.0</ele><time>2026-04-12T14:39:54Z</time></trkpt><trkpt lat="38.78124414749589" lon="16.24770311324641"><ele>272.0</ele><time>2026-04-12T14:39:55Z</time></trkpt><trkpt lat="38.78122732660704" lon="16.24750739735076"><ele>271.0</ele><time>2026-04-12T14:39:56Z</time></trkpt><trkpt lat="38.78122361536458" lon="16.24731959708976"><ele>270.0</ele><time>2026-04-12T14:39:57Z</time></trkpt><trkpt lat="38.781212025421794" lon="16.247117008769166"><ele>269.6666666666667</ele><time>2026-04-12T14:39:58Z</time></trkpt><trkpt lat="38.78120555285485" lon="16.24692594287865"><ele>269.33333333333337</ele><time>2026-04-12T14:39:59Z</time></trkpt><trkpt lat="38.78119348932228" lon="16.246732613628655"><ele>269.0</ele><time>2026-04-12T14:40:00Z</time></trkpt><trkpt lat="38.78117808795203" lon="16.246533708100866"><ele>269.0</ele><time>2026-04-12T14:40:01Z</time></trkpt><trkpt lat="38.781163409747464" lon="16.246340426360817"><ele>269.0</ele><time>2026-04-12T14:40:02Z</time></trkpt><trkpt lat="38.781155089127026" lon="16.246159729966404"><ele>269.0</ele><time>2026-04-12T14:40:03Z</time></trkpt><trkpt lat="38.78114134410825" lon="16.245975111094378"><ele>269.0</ele><time>2026-04-12T14:40:04Z</time></trkpt><trkpt lat="38.78112002944115" lon="16.24577695167463"><ele>267.75</ele><time>2026-04-12T14:40:05Z</time></trkpt><trkpt lat="38.78111493238585" lon="16.24561855976556"><ele>266.5</ele><time>2026-04-12T14:40:06Z</time></trkpt><trkpt lat="38.78108410917817" lon="16.245443749167734"><ele>265.25</ele><time>2026-04-12T14:40:07Z</time></trkpt><trkpt lat="38.78102094478505" lon="16.24526977310074"><ele>264.0</ele><time>2026-04-12T14:40:08Z</time></trkpt><trkpt lat="38.78095174449015" lon="16.24510666869975"><ele>260.5</ele><time>2026-04-12T14:40:09Z</time></trkpt><trkpt lat="38.78087540923377" lon="16.244957441948383"><ele>257.0</ele><time>2026-04-12T14:40:10Z</time></trkpt><trkpt lat="38.78080201124035" lon="16.24479110936738"><ele>253.5</ele><time>2026-04-12T14:40:11Z</time></trkpt><trkpt lat="38.780754238664" lon="16.24460482287886"><ele>250.0</ele><time>2026-04-12T14:40:12Z</time></trkpt><trkpt lat="38.78072502206004" lon="16.244417217476805"><ele>250.0</ele><time>2026-04-12T14:40:13Z</time></trkpt><trkpt lat="38.780700581382604" lon="16.244222502597438"><ele>250.0</ele><time>2026-04-12T14:40:14Z</time></trkpt><trkpt lat="38.780682022664806" lon="16.244035514602718"><ele>250.0</ele><time>2026-04-12T14:40:15Z</time></trkpt><trkpt lat="38.78065274766294" lon="16.243852000271993"><ele>250.0</ele><time>2026-04-12T14:40:16Z</time></trkpt><trkpt lat="38.78060449714967" lon="16.243672629454426"><ele>250.0</ele><time>2026-04-12T14:40:17Z</time></trkpt><trkpt lat="38.78051667310275" lon="16.243533353868973"><ele>250.0</ele><time>2026-04-12T14:40:18Z</time></trkpt><trkpt lat="38.7804194942042" lon="16.243399765230116"><ele>250.0</ele><time>2026-04-12T14:40:19Z</time></trkpt><trkpt lat="38.780334336720465" lon="16.243271127066432"><ele>250.0</ele><time>2026-04-12T14:40:20Z</time></trkpt><trkpt lat="38.78025091466449" lon="16.24314416030972"><ele>249.25</ele><time>2026-04-12T14:40:21Z</time></trkpt><trkpt lat="38.78017517216912" lon="16.24299804788541"><ele>248.5</ele><time>2026-04-12T14:40:22Z</time></trkpt><trkpt lat="38.78009928840055" lon="16.242839955826728"><ele>247.75</ele><time>2026-04-12T14:40:23Z</time></trkpt><trkpt lat="38.78003061226838" lon="16.242705599431787"><ele>247.0</ele><time>2026-04-12T14:40:24Z</time></trkpt><trkpt lat="38.77995011920565" lon="16.24257139021325"><ele>247.0</ele><time>2026-04-12T14:40:25Z</time></trkpt><trkpt lat="38.77984372689706" lon="16.24247248896414"><ele>247.0</ele><time>2026-04-12T14:40:26Z</time></trkpt><trkpt lat="38.7797280885333" lon="16.242408179145876"><ele>247.0</ele><time>2026-04-12T14:40:27Z</time></trkpt><trkpt lat="38.77961611057834" lon="16.242386249053414"><ele>247.0</ele><time>2026-04-12T14:40:28Z</time></trkpt><trkpt lat="38.779499517739886" lon="16.242401777112384"><ele>247.0</ele><time>2026-04-12T14:40:29Z</time></trkpt><trkpt lat="38.7793884955322" lon="16.242487036022375"><ele>247.0</ele><time>2026-04-12T14:40:30Z</time></trkpt><trkpt lat="38.779287610093505" lon="16.24256129077716"><ele>247.0</ele><time>2026-04-12T14:40:31Z</time></trkpt><trkpt lat="38.77920250180558" lon="16.242621971431266"><ele>247.0</ele><time>2026-04-12T14:40:32Z</time></trkpt><trkpt lat="38.77909939147597" lon="16.242626010954602"><ele>247.0</ele><time>2026-04-12T14:40:33Z</time></trkpt><trkpt lat="38.77900477270207" lon="16.242577330435157"><ele>244.39999999999998</ele><time>2026-04-12T14:40:34Z</time></trkpt><trkpt lat="38.77893250882719" lon="16.242482348552812"><ele>241.79999999999998</ele><time>2026-04-12T14:40:35Z</time></trkpt><trkpt lat="38.778898903761636" lon="16.24235997748984"><ele>239.2</ele><time>2026-04-12T14:40:36Z</time></trkpt><trkpt lat="38.77889084358143" lon="16.242219008185987"><ele>236.6</ele><time>2026-04-12T14:40:37Z</time></trkpt><trkpt lat="38.77892396438636" lon="16.242098465305858"><ele>234.0</ele><time>2026-04-12T14:40:38Z</time></trkpt><trkpt lat="38.778979131245144" lon="16.241999089009084"><ele>234.0</ele><time>2026-04-12T14:40:39Z</time></trkpt><trkpt lat="38.77904117329696" lon="16.241923144617555"><ele>234.0</ele><time>2026-04-12T14:40:40Z</time></trkpt><trkpt lat="38.779087068372746" lon="16.24185373831086"><ele>234.0</ele><time>2026-04-12T14:40:41Z</time></trkpt><trkpt lat="38.77909055927606" lon="16.241750542940892"><ele>234.0</ele><time>2026-04-12T14:40:42Z</time></trkpt><trkpt lat="38.77907253602984" lon="16.241660303335518"><ele>234.0</ele><time>2026-04-12T14:40:43Z</time></trkpt><trkpt lat="38.77900737865516" lon="16.241586758587978"><ele>234.0</ele><time>2026-04-12T14:40:44Z</time></trkpt><trkpt lat="38.7789121682065" lon="16.24155521867548"><ele>234.0</ele><time>2026-04-12T14:40:45Z</time></trkpt><trkpt lat="38.77881422741755" lon="16.241553883065393"><ele>233.99999999999997</ele><time>2026-04-12T14:40:46Z</time></trkpt><trkpt lat="38.77870309499438" lon="16.241580016194103"><ele>233.99999999999997</ele><time>2026-04-12T14:40:47Z</time></trkpt><trkpt lat="38.77859708281142" lon="16.241624376224767"><ele>234.0</ele><time>2026-04-12T14:40:48Z</time></trkpt><trkpt lat="38.77848565466711" lon="16.241692119757776"><ele>234.0</ele><time>2026-04-12T14:40:49Z</time></trkpt><trkpt lat="38.77837360330637" lon="16.241766963930285"><ele>230.25</ele><time>2026-04-12T14:40:50Z</time></trkpt><trkpt lat="38.778257090126985" lon="16.2418359561286"><ele>226.5</ele><time>2026-04-12T14:40:51Z</time></trkpt><trkpt lat="38.77813108383273" lon="16.241909387230223"><ele>222.75</ele><time>2026-04-12T14:40:52Z</time></trkpt><trkpt lat="38.77800771551104" lon="16.241975920638993"><ele>219.0</ele><time>2026-04-12T14:40:53Z</time></trkpt><trkpt lat="38.77789056991611" lon="16.24203131155801"><ele>219.0</ele><time>2026-04-12T14:40:54Z</time></trkpt><trkpt lat="38.77777557574811" lon="16.24208778696564"><ele>219.0</ele><time>2026-04-12T14:40:55Z</time></trkpt><trkpt lat="38.777663705428076" lon="16.242136088788016"><ele>219.0</ele><time>2026-04-12T14:40:56Z</time></trkpt><trkpt lat="38.77754508172589" lon="16.24214894303631"><ele>219.0</ele><time>2026-04-12T14:40:57Z</time></trkpt><trkpt lat="38.77742724836005" lon="16.24212079137556"><ele>217.75</ele><time>2026-04-12T14:40:58Z</time></trkpt><trkpt lat="38.77732196239454" lon="16.242032884341032"><ele>216.5</ele><time>2026-04-12T14:40:59Z</time></trkpt><trkpt lat="38.77724468722009" lon="16.241927011175257"><ele>215.25</ele><time>2026-04-12T14:41:00Z</time></trkpt><trkpt lat="38.77721174308071" lon="16.241791957904443"><ele>214.0</ele><time>2026-04-12T14:41:01Z</time></trkpt><trkpt lat="38.77721943806687" lon="16.241661077652736"><ele>214.0</ele><time>2026-04-12T14:41:02Z</time></trkpt><trkpt lat="38.77724760093279" lon="16.241518012545935"><ele>214.0</ele><time>2026-04-12T14:41:03.001Z</time></trkpt><trkpt lat="38.77725484543618" lon="16.24136649417234"><ele>214.0</ele><time>2026-04-12T14:41:04.001Z</time></trkpt><trkpt lat="38.7772890909222" lon="16.24122613403029"><ele>214.0</ele><time>2026-04-12T14:41:05.001Z</time></trkpt><trkpt lat="38.77735247158114" lon="16.241069222168754"><ele>212.5</ele><time>2026-04-12T14:41:06.001Z</time></trkpt><trkpt lat="38.77742196690298" lon="16.240929509878214"><ele>211.0</ele><time>2026-04-12T14:41:07.001Z</time></trkpt><trkpt lat="38.77747748324763" lon="16.240795222216352"><ele>209.5</ele><time>2026-04-12T14:41:08.001Z</time></trkpt><trkpt lat="38.77750429939716" lon="16.24062260814985"><ele>208.0</ele><time>2026-04-12T14:41:09.001Z</time></trkpt><trkpt lat="38.77749333667633" lon="16.2404731791307"><ele>208.0</ele><time>2026-04-12T14:41:10.001Z</time></trkpt><trkpt lat="38.777440129597444" lon="16.24034431508964"><ele>208.0</ele><time>2026-04-12T14:41:11.001Z</time></trkpt><trkpt lat="38.77734959910402" lon="16.24024616375906"><ele>208.0</ele><time>2026-04-12T14:41:12.001Z</time></trkpt><trkpt lat="38.777246785061344" lon="16.240168512495977"><ele>208.0</ele><time>2026-04-12T14:41:13.001Z</time></trkpt><trkpt lat="38.77713567056091" lon="16.24010693288429"><ele>208.0</ele><time>2026-04-12T14:41:14.001Z</time></trkpt><trkpt lat="38.77701962012546" lon="16.240057816608008"><ele>208.0</ele><time>2026-04-12T14:41:15.001Z</time></trkpt><trkpt lat="38.77692439526892" lon="16.239966849700334"><ele>208.0</ele><time>2026-04-12T14:41:16.001Z</time></trkpt><trkpt lat="38.77685197554118" lon="16.23987579734014"><ele>208.0</ele><time>2026-04-12T14:41:17.001Z</time></trkpt><trkpt lat="38.776782817729185" lon="16.239764257851647"><ele>209.0</ele><time>2026-04-12T14:41:18.001Z</time></trkpt><trkpt lat="38.77672839089406" lon="16.239669694123883"><ele>210.0</ele><time>2026-04-12T14:41:19.001Z</time></trkpt><trkpt lat="38.7767554989867" lon="16.239500523525138"><ele>211.0</ele><time>2026-04-12T14:41:20.001Z</time></trkpt><trkpt lat="38.776814528187664" lon="16.239388621145668"><ele>212.0</ele><time>2026-04-12T14:41:21.001Z</time></trkpt><trkpt lat="38.77685673259379" lon="16.23922563958655"><ele>212.0</ele><time>2026-04-12T14:41:22.001Z</time></trkpt><trkpt lat="38.77686179310445" lon="16.2390570614481"><ele>212.0</ele><time>2026-04-12T14:41:23.001Z</time></trkpt><trkpt lat="38.77685234868968" lon="16.238899996910792"><ele>212.0</ele><time>2026-04-12T14:41:24.001Z</time></trkpt><trkpt lat="38.776832677835145" lon="16.238728019986663"><ele>212.0</ele><time>2026-04-12T14:41:25.001Z</time></trkpt><trkpt lat="38.77681360703985" lon="16.238556731516876"><ele>207.75</ele><time>2026-04-12T14:41:26.001Z</time></trkpt><trkpt lat="38.77678669825752" lon="16.238394978367303"><ele>203.5</ele><time>2026-04-12T14:41:27.001Z</time></trkpt><trkpt lat="38.77674465446978" lon="16.238234543664564"><ele>199.25</ele><time>2026-04-12T14:41:28.001Z</time></trkpt><trkpt lat="38.77667580815013" lon="16.238080811870805"><ele>195.0</ele><time>2026-04-12T14:41:29.001Z</time></trkpt><trkpt lat="38.776597800427595" lon="16.237925343155485"><ele>195.0</ele><time>2026-04-12T14:41:30.001Z</time></trkpt><trkpt lat="38.77651807255594" lon="16.237770701678045"><ele>195.0</ele><time>2026-04-12T14:41:31.001Z</time></trkpt><trkpt lat="38.77643709291569" lon="16.23760435134976"><ele>195.0</ele><time>2026-04-12T14:41:32.001Z</time></trkpt><trkpt lat="38.77636803195691" lon="16.23743315308094"><ele>195.0</ele><time>2026-04-12T14:41:33.001Z</time></trkpt><trkpt lat="38.776311092643034" lon="16.237256428208095"><ele>195.33333333333331</ele><time>2026-04-12T14:41:34.001Z</time></trkpt><trkpt lat="38.77625799951021" lon="16.237069406153076"><ele>195.66666666666666</ele><time>2026-04-12T14:41:35.001Z</time></trkpt><trkpt lat="38.77619016377875" lon="16.23689230627808"><ele>196.0</ele><time>2026-04-12T14:41:36.001Z</time></trkpt><trkpt lat="38.776105581579216" lon="16.236722261202534"><ele>190.0</ele><time>2026-04-12T14:41:37.001Z</time></trkpt><trkpt lat="38.77599050919237" lon="16.236575176347337"><ele>184.0</ele><time>2026-04-12T14:41:38.001Z</time></trkpt><trkpt lat="38.77587781204906" lon="16.236435855982904"><ele>178.0</ele><time>2026-04-12T14:41:39.001Z</time></trkpt><trkpt lat="38.77578156008343" lon="16.23628867443305"><ele>178.0</ele><time>2026-04-12T14:41:40.001Z</time></trkpt><trkpt lat="38.77573025510102" lon="16.236117422531777"><ele>178.0</ele><time>2026-04-12T14:41:41.001Z</time></trkpt><trkpt lat="38.77567788128551" lon="16.23594615840297"><ele>178.0</ele><time>2026-04-12T14:41:42.001Z</time></trkpt><trkpt lat="38.775615253663176" lon="16.235754647340826"><ele>178.0</ele><time>2026-04-12T14:41:43Z</time></trkpt><trkpt lat="38.775550983311305" lon="16.23556673995428"><ele>178.25</ele><time>2026-04-12T14:41:44Z</time></trkpt><trkpt lat="38.7754948566162" lon="16.235353352226138"><ele>178.5</ele><time>2026-04-12T14:41:45Z</time></trkpt><trkpt lat="38.77546145446818" lon="16.235209995710207"><ele>178.75</ele><time>2026-04-12T14:41:46Z</time></trkpt><trkpt lat="38.77542584261498" lon="16.23503583472719"><ele>179.0</ele><time>2026-04-12T14:41:47Z</time></trkpt><trkpt lat="38.77539031777584" lon="16.23486684443507"><ele>179.0</ele><time>2026-04-12T14:41:48Z</time></trkpt><trkpt lat="38.77534989772507" lon="16.234697544715722"><ele>179.0</ele><time>2026-04-12T14:41:49Z</time></trkpt><trkpt lat="38.7753272689213" lon="16.234518648363196"><ele>179.0</ele><time>2026-04-12T14:41:50Z</time></trkpt><trkpt lat="38.77533028278096" lon="16.234334297932868"><ele>179.0</ele><time>2026-04-12T14:41:51Z</time></trkpt><trkpt lat="38.77534691349597" lon="16.234148795796667"><ele>178.33333333333331</ele><time>2026-04-12T14:41:52Z</time></trkpt><trkpt lat="38.77537002619615" lon="16.233957994389794"><ele>177.66666666666666</ele><time>2026-04-12T14:41:53Z</time></trkpt><trkpt lat="38.77538603851722" lon="16.233766552592666"><ele>177.0</ele><time>2026-04-12T14:41:54Z</time></trkpt><trkpt lat="38.775395563159954" lon="16.233573139862685"><ele>177.0</ele><time>2026-04-12T14:41:55Z</time></trkpt><trkpt lat="38.77539000052901" lon="16.2333778507268"><ele>177.0</ele><time>2026-04-12T14:41:56Z</time></trkpt><trkpt lat="38.77537033115058" lon="16.233180773757645"><ele>177.0</ele><time>2026-04-12T14:41:57Z</time></trkpt><trkpt lat="38.7753276259192" lon="16.23299038399093"><ele>175.0</ele><time>2026-04-12T14:41:58Z</time></trkpt><trkpt lat="38.77527615010649" lon="16.232815418789787"><ele>173.0</ele><time>2026-04-12T14:41:59Z</time></trkpt><trkpt lat="38.775223030682426" lon="16.23265100748636"><ele>171.0</ele><time>2026-04-12T14:42:00Z</time></trkpt><trkpt lat="38.775172454533454" lon="16.23248680396124"><ele>169.0</ele><time>2026-04-12T14:42:01Z</time></trkpt><trkpt lat="38.77513327749819" lon="16.232329268701495"><ele>166.75</ele><time>2026-04-12T14:42:02Z</time></trkpt><trkpt lat="38.77511817112715" lon="16.232176932624"><ele>164.5</ele><time>2026-04-12T14:42:03Z</time></trkpt><trkpt lat="38.775135481222435" lon="16.232018616267148"><ele>162.25</ele><time>2026-04-12T14:42:04Z</time></trkpt><trkpt lat="38.775184285423826" lon="16.23186881095394"><ele>160.0</ele><time>2026-04-12T14:42:05Z</time></trkpt><trkpt lat="38.77526069068322" lon="16.23172068560658"><ele>160.0</ele><time>2026-04-12T14:42:06Z</time></trkpt><trkpt lat="38.77533406397249" lon="16.231580565493147"><ele>160.0</ele><time>2026-04-12T14:42:07Z</time></trkpt><trkpt lat="38.77540679130509" lon="16.23142277207939"><ele>160.0</ele><time>2026-04-12T14:42:08Z</time></trkpt><trkpt lat="38.7754784555696" lon="16.23126047383424"><ele>160.0</ele><time>2026-04-12T14:42:09Z</time></trkpt><trkpt lat="38.775553076949194" lon="16.23108372022608"><ele>155.66666666666669</ele><time>2026-04-12T14:42:10Z</time></trkpt><trkpt lat="38.775631755052004" lon="16.230894959499764"><ele>151.33333333333334</ele><time>2026-04-12T14:42:11Z</time></trkpt><trkpt lat="38.77570472769424" lon="16.230707792161922"><ele>147.0</ele><time>2026-04-12T14:42:12Z</time></trkpt><trkpt lat="38.77578580333309" lon="16.230515103187212"><ele>148.33333333333334</ele><time>2026-04-12T14:42:13Z</time></trkpt><trkpt lat="38.77586861189891" lon="16.23032687298922"><ele>149.66666666666669</ele><time>2026-04-12T14:42:14Z</time></trkpt><trkpt lat="38.775946777863865" lon="16.230123028663364"><ele>151.0</ele><time>2026-04-12T14:42:15Z</time></trkpt><trkpt lat="38.77602924317511" lon="16.22992568334844"><ele>147.66666666666669</ele><time>2026-04-12T14:42:16Z</time></trkpt><trkpt lat="38.77611061296003" lon="16.229736279245422"><ele>144.33333333333334</ele><time>2026-04-12T14:42:17Z</time></trkpt><trkpt lat="38.77619150631775" lon="16.22954605352401"><ele>141.0</ele><time>2026-04-12T14:42:18Z</time></trkpt><trkpt lat="38.776268809270626" lon="16.229361632087763"><ele>141.0</ele><time>2026-04-12T14:42:19Z</time></trkpt><trkpt lat="38.776346357805274" lon="16.229181402529786"><ele>141.0</ele><time>2026-04-12T14:42:20Z</time></trkpt><trkpt lat="38.776421528362754" lon="16.228991378159293"><ele>141.0</ele><time>2026-04-12T14:42:21Z</time></trkpt><trkpt lat="38.77649315932178" lon="16.228798103044895"><ele>138.0</ele><time>2026-04-12T14:42:22Z</time></trkpt><trkpt lat="38.77656430146599" lon="16.22859882336579"><ele>135.0</ele><time>2026-04-12T14:42:23Z</time></trkpt><trkpt lat="38.77663405747717" lon="16.2283877546714"><ele>132.0</ele><time>2026-04-12T14:42:24Z</time></trkpt><trkpt lat="38.7766984072046" lon="16.228175165474962"><ele>133.0</ele><time>2026-04-12T14:42:25Z</time></trkpt><trkpt lat="38.77675936948425" lon="16.227958120945353"><ele>134.0</ele><time>2026-04-12T14:42:26Z</time></trkpt><trkpt lat="38.77681777644158" lon="16.227734442172533"><ele>135.0</ele><time>2026-04-12T14:42:27Z</time></trkpt><trkpt lat="38.77687088242486" lon="16.227515355279294"><ele>131.66666666666666</ele><time>2026-04-12T14:42:28Z</time></trkpt><trkpt lat="38.77692463217621" lon="16.227302472003107"><ele>128.33333333333331</ele><time>2026-04-12T14:42:29Z</time></trkpt><trkpt lat="38.776978024959" lon="16.227086976206333"><ele>125.0</ele><time>2026-04-12T14:42:30Z</time></trkpt><trkpt lat="38.77703924998322" lon="16.22687896395428"><ele>125.0</ele><time>2026-04-12T14:42:31Z</time></trkpt><trkpt lat="38.77709266344159" lon="16.226662566445135"><ele>125.0</ele><time>2026-04-12T14:42:32Z</time></trkpt><trkpt lat="38.777154025380234" lon="16.226456269741497"><ele>125.0</ele><time>2026-04-12T14:42:33Z</time></trkpt><trkpt lat="38.77721385803884" lon="16.22624344712767"><ele>122.33333333333333</ele><time>2026-04-12T14:42:34Z</time></trkpt><trkpt lat="38.7772687668269" lon="16.226036983569962"><ele>119.66666666666666</ele><time>2026-04-12T14:42:35Z</time></trkpt><trkpt lat="38.77732480301628" lon="16.225839703505066"><ele>117.0</ele><time>2026-04-12T14:42:36Z</time></trkpt><trkpt lat="38.77737880694888" lon="16.225640396594237"><ele>115.33333333333334</ele><time>2026-04-12T14:42:37Z</time></trkpt><trkpt lat="38.777430269563425" lon="16.225446121256205"><ele>113.66666666666667</ele><time>2026-04-12T14:42:38Z</time></trkpt><trkpt lat="38.77748149629881" lon="16.225254530782763"><ele>112.0</ele><time>2026-04-12T14:42:39Z</time></trkpt><trkpt lat="38.777531188701374" lon="16.225074567169795"><ele>112.0</ele><time>2026-04-12T14:42:40Z</time></trkpt><trkpt lat="38.77756944810787" lon="16.22490994776771"><ele>112.0</ele><time>2026-04-12T14:42:41Z</time></trkpt><trkpt lat="38.77758366147674" lon="16.22475776185803"><ele>112.0</ele><time>2026-04-12T14:42:42Z</time></trkpt><trkpt lat="38.777566402942064" lon="16.22460401892779"><ele>112.0</ele><time>2026-04-12T14:42:43Z</time></trkpt><trkpt lat="38.77750468033241" lon="16.22446363550338"><ele>110.25</ele><time>2026-04-12T14:42:44Z</time></trkpt><trkpt lat="38.77739383604323" lon="16.224371236330395"><ele>108.5</ele><time>2026-04-12T14:42:45Z</time></trkpt><trkpt lat="38.77729003889017" lon="16.224298809332556"><ele>106.75</ele><time>2026-04-12T14:42:46Z</time></trkpt><trkpt lat="38.777175618795184" lon="16.224249516390337"><ele>105.0</ele><time>2026-04-12T14:42:47Z</time></trkpt><trkpt lat="38.777058106150264" lon="16.224193506443214"><ele>105.0</ele><time>2026-04-12T14:42:48Z</time></trkpt><trkpt lat="38.77693868687211" lon="16.224132793146108"><ele>105.0</ele><time>2026-04-12T14:42:49Z</time></trkpt><trkpt lat="38.77681115392806" lon="16.224073125010406"><ele>105.0</ele><time>2026-04-12T14:42:50Z</time></trkpt><trkpt lat="38.776678085056595" lon="16.224025472302785"><ele>105.0</ele><time>2026-04-12T14:42:51Z</time></trkpt><trkpt lat="38.77654365765734" lon="16.224001413147136"><ele>104.25</ele><time>2026-04-12T14:42:52Z</time></trkpt><trkpt lat="38.77640911864126" lon="16.224015616266875"><ele>103.5</ele><time>2026-04-12T14:42:53Z</time></trkpt><trkpt lat="38.77627699747084" lon="16.224059880729577"><ele>102.75</ele><time>2026-04-12T14:42:54Z</time></trkpt><trkpt lat="38.77615304271714" lon="16.224130234377448"><ele>102.0</ele><time>2026-04-12T14:42:55Z</time></trkpt><trkpt lat="38.77603267494542" lon="16.224206442137675"><ele>99.0</ele><time>2026-04-12T14:42:56Z</time></trkpt><trkpt lat="38.77591841355568" lon="16.22428812005833"><ele>96.0</ele><time>2026-04-12T14:42:57Z</time></trkpt><trkpt lat="38.77581345149503" lon="16.224401004229822"><ele>93.0</ele><time>2026-04-12T14:42:58Z</time></trkpt><trkpt lat="38.775717864674" lon="16.22452277326638"><ele>90.0</ele><time>2026-04-12T14:42:59Z</time></trkpt><trkpt lat="38.77563369129936" lon="16.224659715333047"><ele>90.0</ele><time>2026-04-12T14:43:00Z</time></trkpt><trkpt lat="38.77556141906056" lon="16.22479102759114"><ele>90.0</ele><time>2026-04-12T14:43:01Z</time></trkpt><trkpt lat="38.77547959444473" lon="16.224939048386734"><ele>90.0</ele><time>2026-04-12T14:43:02Z</time></trkpt><trkpt lat="38.775462527955426" lon="16.22508523201726"><ele>90.0</ele><time>2026-04-12T14:43:03Z</time></trkpt><trkpt lat="38.77545558098695" lon="16.22523495544244"><ele>92.0</ele><time>2026-04-12T14:43:04.001Z</time></trkpt><trkpt lat="38.77549212394892" lon="16.22541151315831"><ele>94.0</ele><time>2026-04-12T14:43:05.001Z</time></trkpt><trkpt lat="38.775539943439" lon="16.225563439997053"><ele>96.0</ele><time>2026-04-12T14:43:06.001Z</time></trkpt><trkpt lat="38.775568461360166" lon="16.225710982516055"><ele>98.0</ele><time>2026-04-12T14:43:07.001Z</time></trkpt><trkpt lat="38.775586784667716" lon="16.225861489725602"><ele>98.49999999999999</ele><time>2026-04-12T14:43:08.001Z</time></trkpt><trkpt lat="38.7755716271898" lon="16.225977185429322"><ele>99.0</ele><time>2026-04-12T14:43:09.001Z</time></trkpt><trkpt lat="38.77554573452144" lon="16.226067878372085"><ele>99.5</ele><time>2026-04-12T14:43:10.001Z</time></trkpt><trkpt lat="38.775480066227516" lon="16.2260970266154"><ele>100.0</ele><time>2026-04-12T14:43:11.001Z</time></trkpt><trkpt lat="38.775369297630576" lon="16.22605991376364"><ele>100.49999999999999</ele><time>2026-04-12T14:43:13.001Z</time></trkpt><trkpt lat="38.775320650162065" lon="16.22594962931819"><ele>101.0</ele><time>2026-04-12T14:43:14.001Z</time></trkpt><trkpt lat="38.77531078715243" lon="16.225818661986683"><ele>101.0</ele><time>2026-04-12T14:43:15.001Z</time></trkpt><trkpt lat="38.77529367054725" lon="16.225682112599387"><ele>101.0</ele><time>2026-04-12T14:43:16.001Z</time></trkpt><trkpt lat="38.77527695909585" lon="16.22552876490603"><ele>101.0</ele><time>2026-04-12T14:43:17.001Z</time></trkpt><trkpt lat="38.77525872081649" lon="16.22537539999555"><ele>101.0</ele><time>2026-04-12T14:43:18.001Z</time></trkpt><trkpt lat="38.77525028587878" lon="16.22521795427743"><ele>100.25</ele><time>2026-04-12T14:43:19.001Z</time></trkpt><trkpt lat="38.77526651759723" lon="16.225057809243765"><ele>99.5</ele><time>2026-04-12T14:43:20.001Z</time></trkpt><trkpt lat="38.77528769015902" lon="16.22491664227033"><ele>98.75</ele><time>2026-04-12T14:43:21.001Z</time></trkpt><trkpt lat="38.775319149651075" lon="16.22478345621662"><ele>98.0</ele><time>2026-04-12T14:43:22.001Z</time></trkpt><trkpt lat="38.775350999313424" lon="16.22465288066021"><ele>96.4</ele><time>2026-04-12T14:43:23.001Z</time></trkpt><trkpt lat="38.77538027708219" lon="16.224530707989576"><ele>94.80000000000001</ele><time>2026-04-12T14:43:24.001Z</time></trkpt><trkpt lat="38.77540615200864" lon="16.224409392245587"><ele>93.2</ele><time>2026-04-12T14:43:25.001Z</time></trkpt><trkpt lat="38.775431968274326" lon="16.224296358417302"><ele>91.6</ele><time>2026-04-12T14:43:26.001Z</time></trkpt><trkpt lat="38.77545692737961" lon="16.224183995313176"><ele>90.0</ele><time>2026-04-12T14:43:27.001Z</time></trkpt><trkpt lat="38.77548000001804" lon="16.22407164349477"><ele>85.8</ele><time>2026-04-12T14:43:28.001Z</time></trkpt><trkpt lat="38.77550928905471" lon="16.223967591610748"><ele>81.6</ele><time>2026-04-12T14:43:29.001Z</time></trkpt><trkpt lat="38.77554371512285" lon="16.22386469970294"><ele>77.4</ele><time>2026-04-12T14:43:30.001Z</time></trkpt><trkpt lat="38.77558948010419" lon="16.223764692542076"><ele>73.2</ele><time>2026-04-12T14:43:31.001Z</time></trkpt><trkpt lat="38.775642338679745" lon="16.223653049523882"><ele>69.0</ele><time>2026-04-12T14:43:32.001Z</time></trkpt><trkpt lat="38.775706416064985" lon="16.223538105000294"><ele>69.0</ele><time>2026-04-12T14:43:33.001Z</time></trkpt><trkpt lat="38.77577815254087" lon="16.223418628031332"><ele>69.0</ele><time>2026-04-12T14:43:34.001Z</time></trkpt><trkpt lat="38.77585122473843" lon="16.223300075764516"><ele>69.0</ele><time>2026-04-12T14:43:35.001Z</time></trkpt><trkpt lat="38.775931070693346" lon="16.22317855707707"><ele>69.0</ele><time>2026-04-12T14:43:36.001Z</time></trkpt><trkpt lat="38.77601100948553" lon="16.223062004700516"><ele>70.75</ele><time>2026-04-12T14:43:37.001Z</time></trkpt><trkpt lat="38.776077355931804" lon="16.222941215415037"><ele>72.5</ele><time>2026-04-12T14:43:38.001Z</time></trkpt><trkpt lat="38.77614195339824" lon="16.222820045352567"><ele>74.25</ele><time>2026-04-12T14:43:39.001Z</time></trkpt><trkpt lat="38.77620424153449" lon="16.22270011809685"><ele>76.0</ele><time>2026-04-12T14:43:40.001Z</time></trkpt><trkpt lat="38.77626953442034" lon="16.222581311843694"><ele>76.0</ele><time>2026-04-12T14:43:41.001Z</time></trkpt><trkpt lat="38.77633833661564" lon="16.22246995852905"><ele>76.0</ele><time>2026-04-12T14:43:42.001Z</time></trkpt><trkpt lat="38.77641383347616" lon="16.222371879025612"><ele>76.0</ele><time>2026-04-12T14:43:43.001Z</time></trkpt><trkpt lat="38.77649948246937" lon="16.22227664197662"><ele>76.0</ele><time>2026-04-12T14:43:44.001Z</time></trkpt><trkpt lat="38.77659295861843" lon="16.22219252193263"><ele>76.0</ele><time>2026-04-12T14:43:45.001Z</time></trkpt><trkpt lat="38.77669372743391" lon="16.22211123485432"><ele>73.2</ele><time>2026-04-12T14:43:46.001Z</time></trkpt><trkpt lat="38.77679520984168" lon="16.222029787606925"><ele>70.39999999999999</ele><time>2026-04-12T14:43:47.001Z</time></trkpt><trkpt lat="38.77688853072777" lon="16.22195060462067"><ele>67.6</ele><time>2026-04-12T14:43:48.001Z</time></trkpt><trkpt lat="38.77697885921005" lon="16.221872393704505"><ele>64.8</ele><time>2026-04-12T14:43:49Z</time></trkpt><trkpt lat="38.77707202730679" lon="16.221800235022737"><ele>62.0</ele><time>2026-04-12T14:43:50Z</time></trkpt><trkpt lat="38.77716814925548" lon="16.2217257820513"><ele>62.0</ele><time>2026-04-12T14:43:51Z</time></trkpt><trkpt lat="38.77727237872587" lon="16.221677824831684"><ele>62.0</ele><time>2026-04-12T14:43:52Z</time></trkpt><trkpt lat="38.77738378558115" lon="16.221640424397737"><ele>62.0</ele><time>2026-04-12T14:43:53Z</time></trkpt><trkpt lat="38.7775011768087" lon="16.221636453885136"><ele>62.0</ele><time>2026-04-12T14:43:54Z</time></trkpt><trkpt lat="38.777618319556055" lon="16.221649515470382"><ele>63.50000000000001</ele><time>2026-04-12T14:43:55Z</time></trkpt><trkpt lat="38.77771446300843" lon="16.221660475872692"><ele>65.0</ele><time>2026-04-12T14:43:56Z</time></trkpt><trkpt lat="38.77779983840071" lon="16.22164691034354"><ele>66.5</ele><time>2026-04-12T14:43:57Z</time></trkpt><trkpt lat="38.77786675756023" lon="16.221606047550225"><ele>68.0</ele><time>2026-04-12T14:43:58Z</time></trkpt><trkpt lat="38.777929624207424" lon="16.221554922235548"><ele>69.5</ele><time>2026-04-12T14:43:59Z</time></trkpt><trkpt lat="38.77797191578189" lon="16.221424148948266"><ele>71.0</ele><time>2026-04-12T14:44:01Z</time></trkpt><trkpt lat="38.77788497685812" lon="16.221302327340435"><ele>66.2</ele><time>2026-04-12T14:44:03Z</time></trkpt><trkpt lat="38.777805285287016" lon="16.22128952335578"><ele>61.39999999999999</ele><time>2026-04-12T14:44:04Z</time></trkpt><trkpt lat="38.777716840623825" lon="16.22130868728618"><ele>56.6</ele><time>2026-04-12T14:44:05Z</time></trkpt><trkpt lat="38.777621369196275" lon="16.22134953899915"><ele>51.8</ele><time>2026-04-12T14:44:06Z</time></trkpt><trkpt lat="38.777521832098905" lon="16.2213703390011"><ele>47.0</ele><time>2026-04-12T14:44:07Z</time></trkpt><trkpt lat="38.77741380289129" lon="16.22135862197864"><ele>46.25</ele><time>2026-04-12T14:44:08Z</time></trkpt><trkpt lat="38.77729237709904" lon="16.221339965263713"><ele>45.5</ele><time>2026-04-12T14:44:09Z</time></trkpt><trkpt lat="38.77716849911253" lon="16.221321313340265"><ele>44.75</ele><time>2026-04-12T14:44:10Z</time></trkpt><trkpt lat="38.777044728111086" lon="16.221307473987117"><ele>44.0</ele><time>2026-04-12T14:44:11Z</time></trkpt><trkpt lat="38.77692300920697" lon="16.221299145709175"><ele>44.0</ele><time>2026-04-12T14:44:12Z</time></trkpt><trkpt lat="38.776801660927624" lon="16.221289473253307"><ele>44.0</ele><time>2026-04-12T14:44:13Z</time></trkpt><trkpt lat="38.77668400171189" lon="16.221278756096677"><ele>44.0</ele><time>2026-04-12T14:44:14Z</time></trkpt><trkpt lat="38.77656781398546" lon="16.221265111276956"><ele>44.0</ele><time>2026-04-12T14:44:15Z</time></trkpt><trkpt lat="38.77645171672144" lon="16.22125505515656"><ele>44.0</ele><time>2026-04-12T14:44:16Z</time></trkpt><trkpt lat="38.776339598454534" lon="16.221238602506336"><ele>44.0</ele><time>2026-04-12T14:44:17Z</time></trkpt><trkpt lat="38.77622960483812" lon="16.221226417839056"><ele>44.0</ele><time>2026-04-12T14:44:18Z</time></trkpt><trkpt lat="38.77612642237098" lon="16.221210754335473"><ele>44.0</ele><time>2026-04-12T14:44:19Z</time></trkpt><trkpt lat="38.776020517057354" lon="16.221194993830213"><ele>44.0</ele><time>2026-04-12T14:44:20Z</time></trkpt><trkpt lat="38.77592540370683" lon="16.22116264143084"><ele>44.0</ele><time>2026-04-12T14:44:21Z</time></trkpt><trkpt lat="38.7758298512211" lon="16.22113618973063"><ele>44.0</ele><time>2026-04-12T14:44:22Z</time></trkpt><trkpt lat="38.77573032731818" lon="16.221098189645293"><ele>44.0</ele><time>2026-04-12T14:44:23Z</time></trkpt><trkpt lat="38.77562450387702" lon="16.22105309338606"><ele>44.0</ele><time>2026-04-12T14:44:24Z</time></trkpt><trkpt lat="38.77551407454214" lon="16.22101186919806"><ele>44.0</ele><time>2026-04-12T14:44:25Z</time></trkpt><trkpt lat="38.77540061023187" lon="16.220954892000425"><ele>44.0</ele><time>2026-04-12T14:44:26Z</time></trkpt><trkpt lat="38.77528316019474" lon="16.22090305345142"><ele>44.0</ele><time>2026-04-12T14:44:27Z</time></trkpt><trkpt lat="38.77517387222252" lon="16.220854620178535"><ele>44.0</ele><time>2026-04-12T14:44:28Z</time></trkpt><trkpt lat="38.77506218620551" lon="16.22080671647034"><ele>44.0</ele><time>2026-04-12T14:44:29Z</time></trkpt><trkpt lat="38.774954132662" lon="16.22076213240931"><ele>43.400000000000006</ele><time>2026-04-12T14:44:30Z</time></trkpt><trkpt lat="38.774848767022306" lon="16.22071773708229"><ele>42.8</ele><time>2026-04-12T14:44:31Z</time></trkpt><trkpt lat="38.77474691537734" lon="16.220668786614063"><ele>42.2</ele><time>2026-04-12T14:44:32Z</time></trkpt><trkpt lat="38.77464190192612" lon="16.22062537627416"><ele>41.599999999999994</ele><time>2026-04-12T14:44:33Z</time></trkpt><trkpt lat="38.774531138470195" lon="16.220573834251717"><ele>41.0</ele><time>2026-04-12T14:44:34Z</time></trkpt><trkpt lat="38.7744188805558" lon="16.22052588414837"><ele>40.0</ele><time>2026-04-12T14:44:35Z</time></trkpt><trkpt lat="38.774307507957516" lon="16.22047996222977"><ele>39.0</ele><time>2026-04-12T14:44:36Z</time></trkpt><trkpt lat="38.774196501028975" lon="16.22043096968258"><ele>38.0</ele><time>2026-04-12T14:44:37Z</time></trkpt><trkpt lat="38.77408384948415" lon="16.220376841757354"><ele>37.0</ele><time>2026-04-12T14:44:38Z</time></trkpt><trkpt lat="38.77397314439812" lon="16.220320442522933"><ele>37.0</ele><time>2026-04-12T14:44:39Z</time></trkpt><trkpt lat="38.77386291188654" lon="16.220266308749732"><ele>37.0</ele><time>2026-04-12T14:44:40Z</time></trkpt><trkpt lat="38.773751199435026" lon="16.220212404303386"><ele>37.0</ele><time>2026-04-12T14:44:41Z</time></trkpt><trkpt lat="38.773628827905206" lon="16.220163414389408"><ele>37.0</ele><time>2026-04-12T14:44:42Z</time></trkpt><trkpt lat="38.77350119141228" lon="16.220116110749586"><ele>36.0</ele><time>2026-04-12T14:44:43Z</time></trkpt><trkpt lat="38.7733668540684" lon="16.220068485692792"><ele>35.0</ele><time>2026-04-12T14:44:44Z</time></trkpt><trkpt lat="38.77322971239013" lon="16.22002239698273"><ele>34.0</ele><time>2026-04-12T14:44:45Z</time></trkpt><trkpt lat="38.7730950056984" lon="16.219976410268327"><ele>33.0</ele><time>2026-04-12T14:44:46Z</time></trkpt><trkpt lat="38.772961883934286" lon="16.219929671919573"><ele>33.0</ele><time>2026-04-12T14:44:47Z</time></trkpt><trkpt lat="38.77282243210575" lon="16.21988937673945"><ele>33.0</ele><time>2026-04-12T14:44:48Z</time></trkpt><trkpt lat="38.77268640189209" lon="16.219840902879863"><ele>33.0</ele><time>2026-04-12T14:44:49Z</time></trkpt><trkpt lat="38.7725473698261" lon="16.219813725979833"><ele>33.0</ele><time>2026-04-12T14:44:50Z</time></trkpt><trkpt lat="38.772407645121014" lon="16.219782603540434"><ele>33.25</ele><time>2026-04-12T14:44:51Z</time></trkpt><trkpt lat="38.77228031409337" lon="16.21975884047572"><ele>33.5</ele><time>2026-04-12T14:44:52Z</time></trkpt><trkpt lat="38.772154642782354" lon="16.219729400087385"><ele>33.75</ele><time>2026-04-12T14:44:53Z</time></trkpt><trkpt lat="38.77203150270429" lon="16.219700636280276"><ele>34.0</ele><time>2026-04-12T14:44:54Z</time></trkpt><trkpt lat="38.77190716881577" lon="16.21966704193204"><ele>34.0</ele><time>2026-04-12T14:44:55Z</time></trkpt><trkpt lat="38.77177973474049" lon="16.219633792146677"><ele>34.0</ele><time>2026-04-12T14:44:56Z</time></trkpt><trkpt lat="38.77165138805292" lon="16.21959781166578"><ele>34.0</ele><time>2026-04-12T14:44:57Z</time></trkpt><trkpt lat="38.77151888310898" lon="16.219560954055922"><ele>34.0</ele><time>2026-04-12T14:44:58Z</time></trkpt><trkpt lat="38.771379275723554" lon="16.21953562702153"><ele>34.0</ele><time>2026-04-12T14:44:59Z</time></trkpt><trkpt lat="38.77124640669208" lon="16.219525390058916"><ele>34.0</ele><time>2026-04-12T14:45:00Z</time></trkpt><trkpt lat="38.77111628478146" lon="16.219519019961933"><ele>34.0</ele><time>2026-04-12T14:45:01Z</time></trkpt><trkpt lat="38.77099731078524" lon="16.21948644909085"><ele>34.0</ele><time>2026-04-12T14:45:02Z</time></trkpt><trkpt lat="38.77087796107374" lon="16.21942559082036"><ele>31.75</ele><time>2026-04-12T14:45:03.001Z</time></trkpt><trkpt lat="38.77078063745603" lon="16.219329902259467"><ele>29.5</ele><time>2026-04-12T14:45:04.001Z</time></trkpt><trkpt lat="38.77072277753758" lon="16.219190306007615"><ele>27.25</ele><time>2026-04-12T14:45:05.001Z</time></trkpt><trkpt lat="38.77069765959473" lon="16.219038329256602"><ele>25.0</ele><time>2026-04-12T14:45:06.001Z</time></trkpt><trkpt lat="38.770677168051144" lon="16.218872119132588"><ele>25.0</ele><time>2026-04-12T14:45:07.001Z</time></trkpt><trkpt lat="38.77066438392792" lon="16.21872289206978"><ele>25.0</ele><time>2026-04-12T14:45:08.001Z</time></trkpt><trkpt lat="38.770653616935405" lon="16.21858088680744"><ele>25.0</ele><time>2026-04-12T14:45:09.001Z</time></trkpt><trkpt lat="38.770638030801834" lon="16.21843896701297"><ele>25.0</ele><time>2026-04-12T14:45:10.001Z</time></trkpt><trkpt lat="38.77062780488461" lon="16.21830430068138"><ele>25.0</ele><time>2026-04-12T14:45:11.001Z</time></trkpt><trkpt lat="38.770619025980295" lon="16.21817805511577"><ele>25.500000000000004</ele><time>2026-04-12T14:45:12.001Z</time></trkpt><trkpt lat="38.770620780520794" lon="16.218063204482853"><ele>26.0</ele><time>2026-04-12T14:45:13.001Z</time></trkpt><trkpt lat="38.7706359719569" lon="16.21794994639132"><ele>26.5</ele><time>2026-04-12T14:45:14.001Z</time></trkpt><trkpt lat="38.77065147736021" lon="16.217843439750574"><ele>27.0</ele><time>2026-04-12T14:45:15.001Z</time></trkpt><trkpt lat="38.770673162913326" lon="16.217737576081344"><ele>27.500000000000004</ele><time>2026-04-12T14:45:16.001Z</time></trkpt><trkpt lat="38.77070141034126" lon="16.217627976347515"><ele>28.0</ele><time>2026-04-12T14:45:17.001Z</time></trkpt><trkpt lat="38.770739786452694" lon="16.217527089364026"><ele>28.0</ele><time>2026-04-12T14:45:18.001Z</time></trkpt><trkpt lat="38.770804784807325" lon="16.217417095822768"><ele>27.999999999999996</ele><time>2026-04-12T14:45:19.001Z</time></trkpt><trkpt lat="38.77087433795699" lon="16.217281810050398"><ele>27.999999999999996</ele><time>2026-04-12T14:45:20.001Z</time></trkpt><trkpt lat="38.77092803784353" lon="16.217180889390384"><ele>28.0</ele><time>2026-04-12T14:45:21.001Z</time></trkpt><trkpt lat="38.77100509988348" lon="16.21708360660754"><ele>28.0</ele><time>2026-04-12T14:45:22.001Z</time></trkpt><trkpt lat="38.7710903712686" lon="16.217007111972897"><ele>25.666666666666668</ele><time>2026-04-12T14:45:23.001Z</time></trkpt><trkpt lat="38.77115838414674" lon="16.216972893415107"><ele>23.333333333333336</ele><time>2026-04-12T14:45:24.001Z</time></trkpt><trkpt lat="38.77122576470096" lon="16.216928970474495"><ele>21.0</ele><time>2026-04-12T14:45:25.001Z</time></trkpt><trkpt lat="38.77129068274956" lon="16.216889046381617"><ele>18.666666666666668</ele><time>2026-04-12T14:45:26.001Z</time></trkpt><trkpt lat="38.77134768543778" lon="16.216851485621955"><ele>16.333333333333336</ele><time>2026-04-12T14:45:27.001Z</time></trkpt><trkpt lat="38.7714478824892" lon="16.216783928291747"><ele>14.0</ele><time>2026-04-12T14:45:29.001Z</time></trkpt><trkpt lat="38.77152406662847" lon="16.216706250906128"><ele>14.0</ele><time>2026-04-12T14:45:31.001Z</time></trkpt><trkpt lat="38.7715710716232" lon="16.21663875727084"><ele>13.999999999999998</ele><time>2026-04-12T14:45:33.001Z</time></trkpt><trkpt lat="38.771591630211915" lon="16.216555617063005"><ele>13.999999999999998</ele><time>2026-04-12T14:45:38.001Z</time></trkpt><trkpt lat="38.77148228236233" lon="16.216419376298923"><ele>14.0</ele><time>2026-04-12T14:45:43.001Z</time></trkpt><trkpt lat="38.771396856277704" lon="16.216345018327985"><ele>14.0</ele><time>2026-04-12T14:45:45.001Z</time></trkpt><trkpt lat="38.77134250820279" lon="16.216275318991325"><ele>13.333333333333334</ele><time>2026-04-12T14:45:47.001Z</time></trkpt><trkpt lat="38.7712917547087" lon="16.216221145857084"><ele>12.666666666666668</ele><time>2026-04-12T14:45:51.001Z</time></trkpt><trkpt lat="38.7712342071127" lon="16.216161714024622"><ele>12.0</ele><time>2026-04-12T14:45:55Z</time></trkpt><trkpt lat="38.77111819267681" lon="16.216097845356057"><ele>11.333333333333334</ele><time>2026-04-12T14:45:57Z</time></trkpt><trkpt lat="38.77105166140829" lon="16.216041877469404"><ele>10.666666666666668</ele><time>2026-04-12T14:45:58Z</time></trkpt><trkpt lat="38.77099352511131" lon="16.21600002204045"><ele>10.0</ele><time>2026-04-12T14:45:59Z</time></trkpt><trkpt lat="38.7709169717644" lon="16.21595206282622"><ele>10.0</ele><time>2026-04-12T14:46:00Z</time></trkpt><trkpt lat="38.7708341666322" lon="16.215906983172182"><ele>10.0</ele><time>2026-04-12T14:46:01Z</time></trkpt><trkpt lat="38.77074448721058" lon="16.215861786604627"><ele>10.0</ele><time>2026-04-12T14:46:02Z</time></trkpt><trkpt lat="38.77064651841843" lon="16.2158180894744"><ele>10.0</ele><time>2026-04-12T14:46:03Z</time></trkpt><trkpt lat="38.77054359599797" lon="16.215778511957126"><ele>10.0</ele><time>2026-04-12T14:46:04Z</time></trkpt><trkpt lat="38.770441639147606" lon="16.215736009807188"><ele>10.0</ele><time>2026-04-12T14:46:05Z</time></trkpt><trkpt lat="38.77033137548125" lon="16.215691802452163"><ele>10.0</ele><time>2026-04-12T14:46:06Z</time></trkpt><trkpt lat="38.77021785370266" lon="16.215640314159863"><ele>10.0</ele><time>2026-04-12T14:46:07Z</time></trkpt><trkpt lat="38.770103389278695" lon="16.215584502310037"><ele>10.0</ele><time>2026-04-12T14:46:08Z</time></trkpt><trkpt lat="38.77000088524815" lon="16.215530219272587"><ele>10.0</ele><time>2026-04-12T14:46:09Z</time></trkpt><trkpt lat="38.76990655376157" lon="16.215463402997564"><ele>10.0</ele><time>2026-04-12T14:46:10Z</time></trkpt><trkpt lat="38.76981934147907" lon="16.215399034987904"><ele>10.0</ele><time>2026-04-12T14:46:11Z</time></trkpt><trkpt lat="38.769738495975034" lon="16.215342921134113"><ele>10.0</ele><time>2026-04-12T14:46:12Z</time></trkpt><trkpt lat="38.76965523485326" lon="16.215289977100273"><ele>10.0</ele><time>2026-04-12T14:46:13Z</time></trkpt><trkpt lat="38.769567031411135" lon="16.215244069437972"><ele>10.0</ele><time>2026-04-12T14:46:14Z</time></trkpt><trkpt lat="38.76947309547733" lon="16.215208496416988"><ele>10.0</ele><time>2026-04-12T14:46:15Z</time></trkpt><trkpt lat="38.76937599606653" lon="16.215187572559884"><ele>10.0</ele><time>2026-04-12T14:46:16Z</time></trkpt><trkpt lat="38.76927339338327" lon="16.215170572218202"><ele>10.0</ele><time>2026-04-12T14:46:17Z</time></trkpt><trkpt lat="38.76916578861422" lon="16.21516283689436"><ele>10.0</ele><time>2026-04-12T14:46:18Z</time></trkpt><trkpt lat="38.76905538104888" lon="16.215158841561575"><ele>11.5</ele><time>2026-04-12T14:46:19Z</time></trkpt><trkpt lat="38.76894234553806" lon="16.215157543313605"><ele>13.0</ele><time>2026-04-12T14:46:20Z</time></trkpt><trkpt lat="38.76883247476313" lon="16.215148882962893"><ele>14.5</ele><time>2026-04-12T14:46:21Z</time></trkpt><trkpt lat="38.768721789668795" lon="16.215114456865905"><ele>16.0</ele><time>2026-04-12T14:46:22Z</time></trkpt><trkpt lat="38.76861533675141" lon="16.215053873731698"><ele>16.0</ele><time>2026-04-12T14:46:23Z</time></trkpt><trkpt lat="38.768516212021986" lon="16.214969122954223"><ele>16.0</ele><time>2026-04-12T14:46:24Z</time></trkpt><trkpt lat="38.76842074181461" lon="16.214877566216092"><ele>16.0</ele><time>2026-04-12T14:46:25Z</time></trkpt><trkpt lat="38.76832695033988" lon="16.214781277264954"><ele>16.0</ele><time>2026-04-12T14:46:26Z</time></trkpt><trkpt lat="38.76823951250712" lon="16.21469588247075"><ele>16.0</ele><time>2026-04-12T14:46:27Z</time></trkpt><trkpt lat="38.76814950130949" lon="16.21460351193354"><ele>16.0</ele><time>2026-04-12T14:46:28Z</time></trkpt><trkpt lat="38.768073349427425" lon="16.214517662868488"><ele>16.0</ele><time>2026-04-12T14:46:29Z</time></trkpt><trkpt lat="38.76798052360317" lon="16.214412849648237"><ele>16.0</ele><time>2026-04-12T14:46:30Z</time></trkpt><trkpt lat="38.76790514770777" lon="16.214295787000932"><ele>16.0</ele><time>2026-04-12T14:46:31Z</time></trkpt><trkpt lat="38.76784217240912" lon="16.214166356611937"><ele>16.0</ele><time>2026-04-12T14:46:32Z</time></trkpt><trkpt lat="38.767788999618745" lon="16.214040136531075"><ele>16.0</ele><time>2026-04-12T14:46:33Z</time></trkpt><trkpt lat="38.767740831610034" lon="16.213917614209993"><ele>16.0</ele><time>2026-04-12T14:46:34Z</time></trkpt><trkpt lat="38.7676994078283" lon="16.213798082826948"><ele>16.0</ele><time>2026-04-12T14:46:35Z</time></trkpt><trkpt lat="38.76767301369713" lon="16.21368132959787"><ele>17.0</ele><time>2026-04-12T14:46:36Z</time></trkpt><trkpt lat="38.76768111722622" lon="16.213570938287738"><ele>18.0</ele><time>2026-04-12T14:46:37Z</time></trkpt><trkpt lat="38.76772946568787" lon="16.213481992616405"><ele>19.0</ele><time>2026-04-12T14:46:38Z</time></trkpt><trkpt lat="38.767792096594135" lon="16.21341787080018"><ele>20.0</ele><time>2026-04-12T14:46:39Z</time></trkpt><trkpt lat="38.76786383942849" lon="16.2133623134029"><ele>21.0</ele><time>2026-04-12T14:46:40Z</time></trkpt><trkpt lat="38.76793174351912" lon="16.213307801110606"><ele>22.0</ele><time>2026-04-12T14:46:41Z</time></trkpt><trkpt lat="38.76801174864869" lon="16.213236939826082"><ele>24.8</ele><time>2026-04-12T14:46:42Z</time></trkpt><trkpt lat="38.76809409600659" lon="16.213155633475083"><ele>27.6</ele><time>2026-04-12T14:46:43Z</time></trkpt><trkpt lat="38.76817843960097" lon="16.213068172848097"><ele>30.400000000000002</ele><time>2026-04-12T14:46:44Z</time></trkpt><trkpt lat="38.76825957326166" lon="16.212977170014888"><ele>33.2</ele><time>2026-04-12T14:46:45Z</time></trkpt><trkpt lat="38.76833979704843" lon="16.21289926426424"><ele>36.0</ele><time>2026-04-12T14:46:46Z</time></trkpt><trkpt lat="38.768431135320114" lon="16.212839150062567"><ele>36.0</ele><time>2026-04-12T14:46:47Z</time></trkpt><trkpt lat="38.76852220031893" lon="16.212772832927566"><ele>36.0</ele><time>2026-04-12T14:46:48Z</time></trkpt><trkpt lat="38.7686110824971" lon="16.21270234118205"><ele>36.0</ele><time>2026-04-12T14:46:49Z</time></trkpt><trkpt lat="38.76870041928253" lon="16.212624941228963"><ele>36.0</ele><time>2026-04-12T14:46:50Z</time></trkpt><trkpt lat="38.76877994295475" lon="16.212538925180667"><ele>36.0</ele><time>2026-04-12T14:46:51Z</time></trkpt><trkpt lat="38.76885459008588" lon="16.21243283605083"><ele>29.5</ele><time>2026-04-12T14:46:52Z</time></trkpt><trkpt lat="38.76891957899949" lon="16.212306476048465"><ele>23.0</ele><time>2026-04-12T14:46:53Z</time></trkpt><trkpt lat="38.76897834823118" lon="16.21216708778607"><ele>16.5</ele><time>2026-04-12T14:46:54Z</time></trkpt><trkpt lat="38.76902640383532" lon="16.21201435764847"><ele>10.0</ele><time>2026-04-12T14:46:55Z</time></trkpt><trkpt lat="38.769059517290025" lon="16.211853312532167"><ele>10.0</ele><time>2026-04-12T14:46:56Z</time></trkpt><trkpt lat="38.769080889950544" lon="16.211678554967886"><ele>10.0</ele><time>2026-04-12T14:46:57Z</time></trkpt><trkpt lat="38.76908397271024" lon="16.211512939022917"><ele>10.0</ele><time>2026-04-12T14:46:58Z</time></trkpt><trkpt lat="38.76909289708446" lon="16.2113451729722"><ele>10.0</ele><time>2026-04-12T14:46:59Z</time></trkpt><trkpt lat="38.7691031941837" lon="16.211177590079373"><ele>11.0</ele><time>2026-04-12T14:47:00Z</time></trkpt><trkpt lat="38.76913463068272" lon="16.210993171059425"><ele>12.0</ele><time>2026-04-12T14:47:01Z</time></trkpt><trkpt lat="38.76913781504197" lon="16.210836460125925"><ele>13.0</ele><time>2026-04-12T14:47:02Z</time></trkpt><trkpt lat="38.76914603219976" lon="16.210672595855943"><ele>14.0</ele><time>2026-04-12T14:47:03Z</time></trkpt><trkpt lat="38.76915997486484" lon="16.210533507926733"><ele>15.0</ele><time>2026-04-12T14:47:04Z</time></trkpt><trkpt lat="38.76916775768156" lon="16.21036206924092"><ele>16.0</ele><time>2026-04-12T14:47:05Z</time></trkpt><trkpt lat="38.769171801273316" lon="16.210200517421242"><ele>17.0</ele><time>2026-04-12T14:47:06Z</time></trkpt><trkpt lat="38.769173561890206" lon="16.210041536721718"><ele>18.0</ele><time>2026-04-12T14:47:07Z</time></trkpt><trkpt lat="38.76918485208711" lon="16.209893254937356"><ele>18.5</ele><time>2026-04-12T14:47:08Z</time></trkpt><trkpt lat="38.76921698047511" lon="16.209753900597356"><ele>19.0</ele><time>2026-04-12T14:47:09Z</time></trkpt><trkpt lat="38.76924446348981" lon="16.209584143707005"><ele>19.5</ele><time>2026-04-12T14:47:10Z</time></trkpt><trkpt lat="38.76931285971932" lon="16.20945387646782"><ele>20.0</ele><time>2026-04-12T14:47:11Z</time></trkpt><trkpt lat="38.76939562099885" lon="16.209348088581184"><ele>17.75</ele><time>2026-04-12T14:47:12Z</time></trkpt><trkpt lat="38.76948653940651" lon="16.209259598931332"><ele>15.5</ele><time>2026-04-12T14:47:13Z</time></trkpt><trkpt lat="38.76957406813839" lon="16.209153715483776"><ele>13.25</ele><time>2026-04-12T14:47:14Z</time></trkpt><trkpt lat="38.769661663358605" lon="16.209060326209947"><ele>11.0</ele><time>2026-04-12T14:47:15Z</time></trkpt><trkpt lat="38.769749617412934" lon="16.208937693390165"><ele>10.0</ele><time>2026-04-12T14:47:16Z</time></trkpt><trkpt lat="38.76988191026991" lon="16.208709242515603"><ele>9.0</ele><time>2026-04-12T14:47:17Z</time></trkpt><trkpt lat="38.769976651979604" lon="16.20855176920503"><ele>8.0</ele><time>2026-04-12T14:47:18Z</time></trkpt><trkpt lat="38.77007819462465" lon="16.208427076880014"><ele>8.0</ele><time>2026-04-12T14:47:19Z</time></trkpt><trkpt lat="38.770170220566875" lon="16.20829112091723"><ele>8.0</ele><time>2026-04-12T14:47:20.001Z</time></trkpt><trkpt lat="38.77025293125836" lon="16.208149034113106"><ele>8.0</ele><time>2026-04-12T14:47:21.001Z</time></trkpt><trkpt lat="38.77033512735327" lon="16.208009332712358"><ele>8.0</ele><time>2026-04-12T14:47:22.001Z</time></trkpt><trkpt lat="38.77041135239317" lon="16.207857928533546"><ele>7.5</ele><time>2026-04-12T14:47:23.001Z</time></trkpt><trkpt lat="38.77048211067814" lon="16.207701388721972"><ele>7.0</ele><time>2026-04-12T14:47:24.001Z</time></trkpt><trkpt lat="38.770531504444854" lon="16.20751565786429"><ele>6.5</ele><time>2026-04-12T14:47:25.001Z</time></trkpt><trkpt lat="38.77057659726556" lon="16.207358536353023"><ele>6.0</ele><time>2026-04-12T14:47:26.001Z</time></trkpt><trkpt lat="38.770603183404205" lon="16.20717697913184"><ele>5.25</ele><time>2026-04-12T14:47:27.001Z</time></trkpt><trkpt lat="38.770605126466535" lon="16.206991413111624"><ele>4.5</ele><time>2026-04-12T14:47:28.001Z</time></trkpt><trkpt lat="38.77059164500456" lon="16.20681033469642"><ele>3.75</ele><time>2026-04-12T14:47:29.001Z</time></trkpt><trkpt lat="38.770563503166116" lon="16.206639209986434"><ele>3.0</ele><time>2026-04-12T14:47:30.001Z</time></trkpt><trkpt lat="38.77051867471881" lon="16.206471026981266"><ele>2.5</ele><time>2026-04-12T14:47:31.001Z</time></trkpt><trkpt lat="38.77045697578804" lon="16.206310114802925"><ele>2.0</ele><time>2026-04-12T14:47:32.001Z</time></trkpt><trkpt lat="38.77038097815304" lon="16.206161222385077"><ele>1.5</ele><time>2026-04-12T14:47:33.001Z</time></trkpt><trkpt lat="38.77029267661067" lon="16.20602296600446"><ele>1.0</ele><time>2026-04-12T14:47:34.001Z</time></trkpt><trkpt lat="38.77019506233806" lon="16.20591268716779"><ele>1.4</ele><time>2026-04-12T14:47:35.001Z</time></trkpt><trkpt lat="38.77010818277586" lon="16.2058069013785"><ele>1.8</ele><time>2026-04-12T14:47:36.001Z</time></trkpt><trkpt lat="38.770024651102155" lon="16.20571701202544"><ele>2.1999999999999997</ele><time>2026-04-12T14:47:37.001Z</time></trkpt><trkpt lat="38.76996018110894" lon="16.20564908337466"><ele>2.6</ele><time>2026-04-12T14:47:38.001Z</time></trkpt><trkpt lat="38.7699072011913" lon="16.205604258943524"><ele>3.0</ele><time>2026-04-12T14:47:39.001Z</time></trkpt><trkpt lat="38.769846557645124" lon="16.20554035516037"><ele>3.0</ele><time>2026-04-12T14:47:41.001Z</time></trkpt><trkpt lat="38.76970249467604" lon="16.205601816463805"><ele>3.0</ele><time>2026-04-12T14:47:45.001Z</time></trkpt><trkpt lat="38.76965625145286" lon="16.20568690013832"><ele>3.0</ele><time>2026-04-12T14:47:48.001Z</time></trkpt><trkpt lat="38.769614630844046" lon="16.20576347893695"><ele>3.0</ele><time>2026-04-12T14:47:54.001Z</time></trkpt><trkpt lat="38.76957306235852" lon="16.20583996404397"><ele>3.0</ele><time>2026-04-12T14:47:59.001Z</time></trkpt><trkpt lat="38.7696379136573" lon="16.2059373829217"><ele>3.2</ele><time>2026-04-12T14:49:24Z</time></trkpt><trkpt lat="38.769580038024" lon="16.20589919364375"><ele>3.4</ele><time>2026-04-12T14:56:44Z</time></trkpt><trkpt lat="38.769521082016034" lon="16.205944553003683"><ele>3.6000000000000005</ele><time>2026-04-12T14:56:49Z</time></trkpt><trkpt lat="38.769472517302894" lon="16.20605685893106"><ele>3.8000000000000003</ele><time>2026-04-12T14:57:21Z</time></trkpt><trkpt lat="38.76945124942709" lon="16.206176262363982"><ele>4.0</ele><time>2026-04-12T14:57:54.001Z</time></trkpt><trkpt lat="38.76947275797448" lon="16.206009350173435"><ele>4.0</ele><time>2026-04-12T14:58:19.445Z</time></trkpt><trkpt lat="38.769420197322646" lon="16.205892757893785"><ele>4.0</ele><time>2026-04-12T14:59:25Z</time></trkpt><trkpt lat="38.769249332060944" lon="16.206006105631445"><ele>4.0</ele><time>2026-04-12T15:00:49Z</time></trkpt><trkpt lat="38.76949613599763" lon="16.205930067284342"><ele>4.0</ele><time>2026-04-12T15:01:03Z</time></trkpt><trkpt lat="38.76953331918409" lon="16.20586291396511"><ele>3.9999999999999996</ele><time>2026-04-12T15:01:26Z</time></trkpt><trkpt lat="38.769509811776985" lon="16.205940069161166"><ele>4.0</ele><time>2026-04-12T15:05:24Z</time></trkpt><trkpt lat="38.76957901694596" lon="16.205918557562796"><ele>4.0</ele><time>2026-04-12T15:09:27Z</time></trkpt><trkpt lat="38.76964891361165" lon="16.205958001270048"><ele>3.9999999999999996</ele><time>2026-04-12T15:09:39Z</time></trkpt><trkpt lat="38.76960452323189" lon="16.205898654132458"><ele>4.0</ele><time>2026-04-12T15:10:30Z</time></trkpt><trkpt lat="38.7695415420606" lon="16.205913652619383"><ele>4.0</ele><time>2026-04-12T15:10:36Z</time></trkpt><trkpt lat="38.7694626410456" lon="16.205870375556895"><ele>4.0</ele><time>2026-04-12T15:11:19Z</time></trkpt><trkpt lat="38.769484507869386" lon="16.2059908362527"><ele>4.0</ele><time>2026-04-12T15:11:20Z</time></trkpt><trkpt lat="38.76941149387143" lon="16.206028327715135"><ele>4.0</ele><time>2026-04-12T15:11:22Z</time></trkpt><trkpt lat="38.76954154187204" lon="16.206109648803196"><ele>4.0</ele><time>2026-04-12T15:12:13Z</time></trkpt><trkpt lat="38.76948472510242" lon="16.206064122461427"><ele>4.0</ele><time>2026-04-12T15:12:31Z</time></trkpt><trkpt lat="38.769406762996745" lon="16.206031542536856"><ele>3.9999999999999996</ele><time>2026-04-12T15:12:36Z</time></trkpt><trkpt lat="38.76954123718561" lon="16.20589131166447"><ele>4.0</ele><time>2026-04-12T15:13:01Z</time></trkpt><trkpt lat="38.76960256128175" lon="16.205857115172222"><ele>4.0</ele><time>2026-04-12T15:13:15Z</time></trkpt><trkpt lat="38.769663164914604" lon="16.2058253141806"><ele>4.0</ele><time>2026-04-12T15:13:23Z</time></trkpt><trkpt lat="38.7696458703016" lon="16.205907604164192"><ele>3.9999999999999996</ele><time>2026-04-12T15:16:44Z</time></trkpt><trkpt lat="38.76970537757594" lon="16.205869360766673"><ele>4.0</ele><time>2026-04-12T15:21:12Z</time></trkpt><trkpt lat="38.76970492799956" lon="16.205760280268606"><ele>3.9999999999999996</ele><time>2026-04-12T15:21:14Z</time></trkpt><trkpt lat="38.76971482873789" lon="16.205665181518228"><ele>4.0</ele><time>2026-04-12T15:21:16Z</time></trkpt><trkpt lat="38.76976140285564" lon="16.205602274216776"><ele>4.0</ele><time>2026-04-12T15:21:20Z</time></trkpt><trkpt lat="38.7697878140852" lon="16.205513951728452"><ele>4.0</ele><time>2026-04-12T15:21:40Z</time></trkpt><trkpt lat="38.76973650810316" lon="16.205456070675158"><ele>3.9999999999999996</ele><time>2026-04-12T15:21:41Z</time></trkpt><trkpt lat="38.769636849693434" lon="16.20535454058065"><ele>4.0</ele><time>2026-04-12T15:21:43Z</time></trkpt><trkpt lat="38.769578273535245" lon="16.20530052376335"><ele>3.9999999999999996</ele><time>2026-04-12T15:21:44Z</time></trkpt><trkpt lat="38.769514414184606" lon="16.205248841861952"><ele>4.0</ele><time>2026-04-12T15:21:45Z</time></trkpt><trkpt lat="38.769444891315814" lon="16.205195477067143"><ele>4.0</ele><time>2026-04-12T15:21:46.001Z</time></trkpt><trkpt lat="38.76936981873781" lon="16.20514670040789"><ele>4.0</ele><time>2026-04-12T15:21:47.001Z</time></trkpt><trkpt lat="38.769294382063514" lon="16.205105123535343"><ele>3.9999999999999996</ele><time>2026-04-12T15:21:48Z</time></trkpt><trkpt lat="38.7692168938711" lon="16.20505840174667"><ele>4.0</ele><time>2026-04-12T15:21:49Z</time></trkpt><trkpt lat="38.76914103101807" lon="16.20500265172579"><ele>4.0</ele><time>2026-04-12T15:21:50Z</time></trkpt><trkpt lat="38.76906443187126" lon="16.2049548427758"><ele>4.0</ele><time>2026-04-12T15:21:51Z</time></trkpt><trkpt lat="38.76898759776352" lon="16.204913173854976"><ele>4.0</ele><time>2026-04-12T15:21:52Z</time></trkpt><trkpt lat="38.76890568645743" lon="16.204866627146295"><ele>4.0</ele><time>2026-04-12T15:21:53Z</time></trkpt><trkpt lat="38.768816999861386" lon="16.20481531456538"><ele>4.0</ele><time>2026-04-12T15:21:54Z</time></trkpt><trkpt lat="38.76871821358137" lon="16.204759283823346"><ele>4.0</ele><time>2026-04-12T15:21:55Z</time></trkpt><trkpt lat="38.76861235791981" lon="16.204702518304508"><ele>4.0</ele><time>2026-04-12T15:21:56Z</time></trkpt><trkpt lat="38.768502905684365" lon="16.204641810962123"><ele>4.0</ele><time>2026-04-12T15:21:57Z</time></trkpt><trkpt lat="38.76839672089133" lon="16.204582467073923"><ele>4.0</ele><time>2026-04-12T15:21:58Z</time></trkpt><trkpt lat="38.76829549449908" lon="16.204527235295252"><ele>4.2</ele><time>2026-04-12T15:21:59Z</time></trkpt><trkpt lat="38.768197481452056" lon="16.20447345936712"><ele>4.4</ele><time>2026-04-12T15:22:00Z</time></trkpt><trkpt lat="38.76810243226784" lon="16.204415490705404"><ele>4.6</ele><time>2026-04-12T15:22:01Z</time></trkpt><trkpt lat="38.76800854628504" lon="16.204355780925273"><ele>4.8</ele><time>2026-04-12T15:22:02Z</time></trkpt><trkpt lat="38.7679136090908" lon="16.204300508124078"><ele>5.0</ele><time>2026-04-12T15:22:03Z</time></trkpt><trkpt lat="38.767812035732" lon="16.20424203837885"><ele>5.0</ele><time>2026-04-12T15:22:04Z</time></trkpt><trkpt lat="38.76770878580487" lon="16.2041775139906"><ele>5.0</ele><time>2026-04-12T15:22:05Z</time></trkpt><trkpt lat="38.76760252427264" lon="16.204110514124785"><ele>5.0</ele><time>2026-04-12T15:22:06Z</time></trkpt><trkpt lat="38.76749808242401" lon="16.204045650521547"><ele>5.0</ele><time>2026-04-12T15:22:07Z</time></trkpt><trkpt lat="38.76739466375456" lon="16.203978400817444"><ele>4.75</ele><time>2026-04-12T15:22:08Z</time></trkpt><trkpt lat="38.76729315278915" lon="16.203906107784242"><ele>4.5</ele><time>2026-04-12T15:22:09Z</time></trkpt><trkpt lat="38.76719342835313" lon="16.20383262987956"><ele>4.25</ele><time>2026-04-12T15:22:10Z</time></trkpt><trkpt lat="38.76710115695391" lon="16.203752108886963"><ele>4.0</ele><time>2026-04-12T15:22:11Z</time></trkpt><trkpt lat="38.76700861151374" lon="16.20367088905459"><ele>4.0</ele><time>2026-04-12T15:22:12Z</time></trkpt><trkpt lat="38.766922384653256" lon="16.203578796108992"><ele>4.0</ele><time>2026-04-12T15:22:13Z</time></trkpt><trkpt lat="38.76682895272225" lon="16.20348680575275"><ele>4.0</ele><time>2026-04-12T15:22:14Z</time></trkpt><trkpt lat="38.76673364384096" lon="16.203390243664533"><ele>4.0</ele><time>2026-04-12T15:22:15Z</time></trkpt><trkpt lat="38.766638767713275" lon="16.203296333019452"><ele>4.0</ele><time>2026-04-12T15:22:16Z</time></trkpt><trkpt lat="38.76654149880941" lon="16.20320015070535"><ele>4.0</ele><time>2026-04-12T15:22:17Z</time></trkpt><trkpt lat="38.76644479389759" lon="16.203101889353267"><ele>4.0</ele><time>2026-04-12T15:22:18Z</time></trkpt><trkpt lat="38.76634982818197" lon="16.20300781574474"><ele>4.0</ele><time>2026-04-12T15:22:19Z</time></trkpt><trkpt lat="38.76625822226836" lon="16.20292045405245"><ele>3.75</ele><time>2026-04-12T15:22:20Z</time></trkpt><trkpt lat="38.7661671928221" lon="16.202829529726564"><ele>3.5</ele><time>2026-04-12T15:22:21Z</time></trkpt><trkpt lat="38.76607403572275" lon="16.202737523256044"><ele>3.25</ele><time>2026-04-12T15:22:22Z</time></trkpt><trkpt lat="38.7659756090556" lon="16.202638581310275"><ele>3.0</ele><time>2026-04-12T15:22:23Z</time></trkpt><trkpt lat="38.7658782497691" lon="16.20253824353018"><ele>3.0</ele><time>2026-04-12T15:22:24Z</time></trkpt><trkpt lat="38.76578064210214" lon="16.20243280136787"><ele>3.0</ele><time>2026-04-12T15:22:25Z</time></trkpt><trkpt lat="38.76567954197704" lon="16.202327372480784"><ele>3.0</ele><time>2026-04-12T15:22:26Z</time></trkpt><trkpt lat="38.76557308012148" lon="16.202219313665587"><ele>3.0</ele><time>2026-04-12T15:22:27Z</time></trkpt><trkpt lat="38.765468781743834" lon="16.20211459298458"><ele>3.25</ele><time>2026-04-12T15:22:28Z</time></trkpt><trkpt lat="38.76536110857311" lon="16.202005392248832"><ele>3.5</ele><time>2026-04-12T15:22:29Z</time></trkpt><trkpt lat="38.76525626070844" lon="16.201897518482422"><ele>3.75</ele><time>2026-04-12T15:22:30Z</time></trkpt><trkpt lat="38.76515014391863" lon="16.201786153406374"><ele>4.0</ele><time>2026-04-12T15:22:31Z</time></trkpt><trkpt lat="38.76504622811601" lon="16.201679285138365"><ele>4.5</ele><time>2026-04-12T15:22:32Z</time></trkpt><trkpt lat="38.764944061980714" lon="16.20157627908849"><ele>5.0</ele><time>2026-04-12T15:22:33Z</time></trkpt><trkpt lat="38.76484120812545" lon="16.201474134134788"><ele>5.5</ele><time>2026-04-12T15:22:34Z</time></trkpt><trkpt lat="38.76474000152113" lon="16.201372672162677"><ele>6.0</ele><time>2026-04-12T15:22:35Z</time></trkpt><trkpt lat="38.7646400030319" lon="16.201273419362874"><ele>6.0</ele><time>2026-04-12T15:22:36Z</time></trkpt><trkpt lat="38.76454188999979" lon="16.20117572292723"><ele>6.0</ele><time>2026-04-12T15:22:37Z</time></trkpt><trkpt lat="38.76444712550419" lon="16.201076323336565"><ele>6.0</ele><time>2026-04-12T15:22:38Z</time></trkpt><trkpt lat="38.764352337792566" lon="16.20097603829159"><ele>6.0</ele><time>2026-04-12T15:22:39Z</time></trkpt><trkpt lat="38.76425808055242" lon="16.2008760303748"><ele>6.0</ele><time>2026-04-12T15:22:40Z</time></trkpt><trkpt lat="38.76416584315378" lon="16.200779554160373"><ele>6.0</ele><time>2026-04-12T15:22:41Z</time></trkpt><trkpt lat="38.76408099584783" lon="16.200686130520474"><ele>6.0</ele><time>2026-04-12T15:22:42Z</time></trkpt><trkpt lat="38.76400456787572" lon="16.200595847960194"><ele>6.0</ele><time>2026-04-12T15:22:43Z</time></trkpt><trkpt lat="38.76393182967559" lon="16.200509615795074"><ele>6.0</ele><time>2026-04-12T15:22:44Z</time></trkpt><trkpt lat="38.76386210291134" lon="16.200421978294063"><ele>6.199999999999999</ele><time>2026-04-12T15:22:45Z</time></trkpt><trkpt lat="38.7637875531771" lon="16.200329825388838"><ele>6.3999999999999995</ele><time>2026-04-12T15:22:46Z</time></trkpt><trkpt lat="38.76371119733104" lon="16.200231865809204"><ele>6.6</ele><time>2026-04-12T15:22:47Z</time></trkpt><trkpt lat="38.7636320214104" lon="16.200131067406204"><ele>6.8</ele><time>2026-04-12T15:22:48Z</time></trkpt><trkpt lat="38.76355294718668" lon="16.20003095577998"><ele>7.0</ele><time>2026-04-12T15:22:49Z</time></trkpt><trkpt lat="38.76348211068498" lon="16.199955291641686"><ele>7.0</ele><time>2026-04-12T15:22:50Z</time></trkpt><trkpt lat="38.763402808548086" lon="16.19984388451385"><ele>6.999999999999999</ele><time>2026-04-12T15:22:51Z</time></trkpt><trkpt lat="38.76332709311551" lon="16.19974843466231"><ele>6.999999999999999</ele><time>2026-04-12T15:22:52Z</time></trkpt><trkpt lat="38.763252746195086" lon="16.19965051757206"><ele>7.0</ele><time>2026-04-12T15:22:53Z</time></trkpt><trkpt lat="38.76317732781584" lon="16.199554787279148"><ele>7.0</ele><time>2026-04-12T15:22:54Z</time></trkpt><trkpt lat="38.76310054955352" lon="16.199454721832826"><ele>7.0</ele><time>2026-04-12T15:22:55Z</time></trkpt><trkpt lat="38.76302850570992" lon="16.199359917590773"><ele>6.999999999999999</ele><time>2026-04-12T15:22:56Z</time></trkpt><trkpt lat="38.76295542561504" lon="16.199261394865935"><ele>6.999999999999999</ele><time>2026-04-12T15:22:57Z</time></trkpt><trkpt lat="38.76288034137259" lon="16.19916479954976"><ele>7.0</ele><time>2026-04-12T15:22:58Z</time></trkpt><trkpt lat="38.76280974173171" lon="16.199074690424915"><ele>7.0</ele><time>2026-04-12T15:22:59Z</time></trkpt><trkpt lat="38.762738699252175" lon="16.1989848415762"><ele>6.6</ele><time>2026-04-12T15:23:00Z</time></trkpt><trkpt lat="38.76266699560884" lon="16.198892776960893"><ele>6.199999999999999</ele><time>2026-04-12T15:23:01Z</time></trkpt><trkpt lat="38.76259587575598" lon="16.19880293118808"><ele>5.8</ele><time>2026-04-12T15:23:02Z</time></trkpt><trkpt lat="38.762524219168554" lon="16.198715573328784"><ele>5.4</ele><time>2026-04-12T15:23:03Z</time></trkpt><trkpt lat="38.76245406539285" lon="16.19862810149186"><ele>5.0</ele><time>2026-04-12T15:23:04Z</time></trkpt><trkpt lat="38.76238494537901" lon="16.19853680367978"><ele>5.0</ele><time>2026-04-12T15:23:05Z</time></trkpt><trkpt lat="38.76231664479227" lon="16.198448190002033"><ele>5.0</ele><time>2026-04-12T15:23:06Z</time></trkpt><trkpt lat="38.76224632233449" lon="16.198349778191442"><ele>5.0</ele><time>2026-04-12T15:23:07Z</time></trkpt><trkpt lat="38.762175461160254" lon="16.198256644329412"><ele>5.0</ele><time>2026-04-12T15:23:08Z</time></trkpt><trkpt lat="38.762102228222446" lon="16.19815987919314"><ele>5.0</ele><time>2026-04-12T15:23:09Z</time></trkpt><trkpt lat="38.76202785017052" lon="16.198062886801157"><ele>5.2</ele><time>2026-04-12T15:23:10Z</time></trkpt><trkpt lat="38.761951141958455" lon="16.19796642933428"><ele>5.4</ele><time>2026-04-12T15:23:11Z</time></trkpt><trkpt lat="38.76187665606333" lon="16.197871480826002"><ele>5.6</ele><time>2026-04-12T15:23:12Z</time></trkpt><trkpt lat="38.76180803706921" lon="16.197784076368908"><ele>5.8</ele><time>2026-04-12T15:23:13Z</time></trkpt><trkpt lat="38.761742029323074" lon="16.197700919010458"><ele>6.0</ele><time>2026-04-12T15:23:14Z</time></trkpt><trkpt lat="38.76167234968964" lon="16.197615469516926"><ele>6.0</ele><time>2026-04-12T15:23:15Z</time></trkpt><trkpt lat="38.7616038482971" lon="16.197524894627787"><ele>6.0</ele><time>2026-04-12T15:23:16Z</time></trkpt><trkpt lat="38.761531477566926" lon="16.197437296132378"><ele>6.0</ele><time>2026-04-12T15:23:17Z</time></trkpt><trkpt lat="38.761457544206706" lon="16.19734447953444"><ele>6.0</ele><time>2026-04-12T15:23:18Z</time></trkpt><trkpt lat="38.761384287509095" lon="16.19725142649048"><ele>6.0</ele><time>2026-04-12T15:23:19Z</time></trkpt><trkpt lat="38.76130896238553" lon="16.19715493807233"><ele>6.0</ele><time>2026-04-12T15:23:20Z</time></trkpt><trkpt lat="38.76123390691211" lon="16.19706092032994"><ele>6.0</ele><time>2026-04-12T15:23:21Z</time></trkpt><trkpt lat="38.76116153458287" lon="16.196974725764733"><ele>6.0</ele><time>2026-04-12T15:23:22Z</time></trkpt><trkpt lat="38.76109610473438" lon="16.196887065582157"><ele>6.0</ele><time>2026-04-12T15:23:23Z</time></trkpt><trkpt lat="38.76103080081497" lon="16.196803315181757"><ele>6.0</ele><time>2026-04-12T15:23:24Z</time></trkpt><trkpt lat="38.760964224750886" lon="16.19671840180065"><ele>6.0</ele><time>2026-04-12T15:23:25Z</time></trkpt><trkpt lat="38.760897520404285" lon="16.19663414061407"><ele>6.0</ele><time>2026-04-12T15:23:26Z</time></trkpt><trkpt lat="38.76082759838421" lon="16.196542852118313"><ele>6.0</ele><time>2026-04-12T15:23:27Z</time></trkpt><trkpt lat="38.76075829871402" lon="16.19645401533278"><ele>6.0</ele><time>2026-04-12T15:23:28Z</time></trkpt><trkpt lat="38.76067545573279" lon="16.19635938642864"><ele>6.0</ele><time>2026-04-12T15:23:29Z</time></trkpt><trkpt lat="38.7606190235791" lon="16.196280301713877"><ele>6.166666666666667</ele><time>2026-04-12T15:23:30Z</time></trkpt><trkpt lat="38.76055895154225" lon="16.19620734642728"><ele>6.333333333333334</ele><time>2026-04-12T15:23:31Z</time></trkpt><trkpt lat="38.760494454417945" lon="16.196125135576064"><ele>6.5</ele><time>2026-04-12T15:23:32Z</time></trkpt><trkpt lat="38.76042953889428" lon="16.196042331739342"><ele>6.666666666666667</ele><time>2026-04-12T15:23:33Z</time></trkpt><trkpt lat="38.76036370723591" lon="16.195960845059876"><ele>6.833333333333334</ele><time>2026-04-12T15:23:34Z</time></trkpt><trkpt lat="38.76030205775617" lon="16.195877763972522"><ele>7.0</ele><time>2026-04-12T15:23:35Z</time></trkpt><trkpt lat="38.760238588665835" lon="16.195798339218545"><ele>6.8</ele><time>2026-04-12T15:23:36Z</time></trkpt><trkpt lat="38.76017640814977" lon="16.195715748055267"><ele>6.6</ele><time>2026-04-12T15:23:37Z</time></trkpt><trkpt lat="38.760111441168775" lon="16.19562647960739"><ele>6.3999999999999995</ele><time>2026-04-12T15:23:38Z</time></trkpt><trkpt lat="38.76004148827644" lon="16.195538187021384"><ele>6.199999999999999</ele><time>2026-04-12T15:23:39Z</time></trkpt><trkpt lat="38.75996867047419" lon="16.195449380376786"><ele>6.0</ele><time>2026-04-12T15:23:40Z</time></trkpt><trkpt lat="38.759894797219836" lon="16.195357225109824"><ele>6.4</ele><time>2026-04-12T15:23:41Z</time></trkpt><trkpt lat="38.75981960318676" lon="16.1952585079686"><ele>6.8</ele><time>2026-04-12T15:23:42Z</time></trkpt><trkpt lat="38.75974433492112" lon="16.195160374291557"><ele>7.200000000000001</ele><time>2026-04-12T15:23:43Z</time></trkpt><trkpt lat="38.75966919307896" lon="16.195062024416895"><ele>7.6000000000000005</ele><time>2026-04-12T15:23:44Z</time></trkpt><trkpt lat="38.75959641917779" lon="16.194960971186962"><ele>8.0</ele><time>2026-04-12T15:23:45Z</time></trkpt><trkpt lat="38.75952681115775" lon="16.194870576480277"><ele>7.800000000000001</ele><time>2026-04-12T15:23:46Z</time></trkpt><trkpt lat="38.7594519236977" lon="16.194783623497532"><ele>7.6000000000000005</ele><time>2026-04-12T15:23:47Z</time></trkpt><trkpt lat="38.75938320499756" lon="16.194701913605538"><ele>7.3999999999999995</ele><time>2026-04-12T15:23:48Z</time></trkpt><trkpt lat="38.75931142984491" lon="16.194623189493914"><ele>7.199999999999999</ele><time>2026-04-12T15:23:49Z</time></trkpt><trkpt lat="38.75924653361807" lon="16.194522034838123"><ele>7.0</ele><time>2026-04-12T15:23:50Z</time></trkpt><trkpt lat="38.75917556204479" lon="16.194427425610744"><ele>6.8</ele><time>2026-04-12T15:23:51Z</time></trkpt><trkpt lat="38.75909750913126" lon="16.194336394369873"><ele>6.6</ele><time>2026-04-12T15:23:52Z</time></trkpt><trkpt lat="38.75902348077093" lon="16.194240677894488"><ele>6.3999999999999995</ele><time>2026-04-12T15:23:53Z</time></trkpt><trkpt lat="38.758950030165124" lon="16.194138458252112"><ele>6.199999999999999</ele><time>2026-04-12T15:23:54Z</time></trkpt><trkpt lat="38.75887459337028" lon="16.194039797313785"><ele>6.0</ele><time>2026-04-12T15:23:55Z</time></trkpt><trkpt lat="38.758798295188924" lon="16.193941993015056"><ele>6.4</ele><time>2026-04-12T15:23:56Z</time></trkpt><trkpt lat="38.758719593791554" lon="16.193845575034704"><ele>6.8</ele><time>2026-04-12T15:23:57Z</time></trkpt><trkpt lat="38.758644140087874" lon="16.19375162993987"><ele>7.200000000000001</ele><time>2026-04-12T15:23:58Z</time></trkpt><trkpt lat="38.75856807992032" lon="16.193661093505938"><ele>7.6000000000000005</ele><time>2026-04-12T15:23:59Z</time></trkpt><trkpt lat="38.75849472474817" lon="16.19355967272502"><ele>8.0</ele><time>2026-04-12T15:24:00Z</time></trkpt><trkpt lat="38.75842207927387" lon="16.193463574977933"><ele>8.0</ele><time>2026-04-12T15:24:01Z</time></trkpt><trkpt lat="38.758348874502886" lon="16.193370605572277"><ele>8.0</ele><time>2026-04-12T15:24:02Z</time></trkpt><trkpt lat="38.75827459248951" lon="16.193277400179475"><ele>8.0</ele><time>2026-04-12T15:24:03Z</time></trkpt><trkpt lat="38.75819944713306" lon="16.19318426882141"><ele>8.0</ele><time>2026-04-12T15:24:04Z</time></trkpt><trkpt lat="38.75812624262617" lon="16.193089205089866"><ele>8.0</ele><time>2026-04-12T15:24:05Z</time></trkpt><trkpt lat="38.75805346850939" lon="16.192989597981448"><ele>7.800000000000001</ele><time>2026-04-12T15:24:06Z</time></trkpt><trkpt lat="38.75797995811269" lon="16.192894755795223"><ele>7.6000000000000005</ele><time>2026-04-12T15:24:07Z</time></trkpt><trkpt lat="38.7579048062621" lon="16.19279837920179"><ele>7.3999999999999995</ele><time>2026-04-12T15:24:08Z</time></trkpt><trkpt lat="38.75782949611037" lon="16.19270232750683"><ele>7.199999999999999</ele><time>2026-04-12T15:24:09Z</time></trkpt><trkpt lat="38.75775291492219" lon="16.192605584209154"><ele>7.0</ele><time>2026-04-12T15:24:10Z</time></trkpt><trkpt lat="38.75767613669161" lon="16.19250924938681"><ele>7.0</ele><time>2026-04-12T15:24:11Z</time></trkpt><trkpt lat="38.75759855038475" lon="16.192413449224976"><ele>6.999999999999999</ele><time>2026-04-12T15:24:12Z</time></trkpt><trkpt lat="38.757520873646726" lon="16.192320471012042"><ele>6.999999999999999</ele><time>2026-04-12T15:24:13Z</time></trkpt><trkpt lat="38.757443397387696" lon="16.19222697236008"><ele>7.0</ele><time>2026-04-12T15:24:14Z</time></trkpt><trkpt lat="38.75736430712074" lon="16.192135791201824"><ele>7.0</ele><time>2026-04-12T15:24:15Z</time></trkpt><trkpt lat="38.757283623529666" lon="16.19204683481972"><ele>7.0</ele><time>2026-04-12T15:24:16Z</time></trkpt><trkpt lat="38.75720316095962" lon="16.19196617957206"><ele>6.999999999999999</ele><time>2026-04-12T15:24:17Z</time></trkpt><trkpt lat="38.757125628653284" lon="16.191885044412125"><ele>6.999999999999999</ele><time>2026-04-12T15:24:18Z</time></trkpt><trkpt lat="38.75704451943226" lon="16.191802999239066"><ele>7.0</ele><time>2026-04-12T15:24:19Z</time></trkpt><trkpt lat="38.7569618206383" lon="16.191722588847533"><ele>7.0</ele><time>2026-04-12T15:24:20Z</time></trkpt><trkpt lat="38.75688100462204" lon="16.19164057189517"><ele>6.6</ele><time>2026-04-12T15:24:21Z</time></trkpt><trkpt lat="38.756798920541634" lon="16.191559720518743"><ele>6.199999999999999</ele><time>2026-04-12T15:24:22Z</time></trkpt><trkpt lat="38.75671560603422" lon="16.191476314809073"><ele>5.8</ele><time>2026-04-12T15:24:23Z</time></trkpt><trkpt lat="38.75663204813533" lon="16.191390928158807"><ele>5.4</ele><time>2026-04-12T15:24:24Z</time></trkpt><trkpt lat="38.75654920892158" lon="16.19130687201054"><ele>5.0</ele><time>2026-04-12T15:24:25Z</time></trkpt><trkpt lat="38.756465317426006" lon="16.19122308295074"><ele>5.0</ele><time>2026-04-12T15:24:26Z</time></trkpt><trkpt lat="38.75638223766262" lon="16.191139703036995"><ele>5.0</ele><time>2026-04-12T15:24:27Z</time></trkpt><trkpt lat="38.756300277087696" lon="16.19105809906054"><ele>5.0</ele><time>2026-04-12T15:24:28Z</time></trkpt><trkpt lat="38.756220269332935" lon="16.190974886518283"><ele>5.0</ele><time>2026-04-12T15:24:29Z</time></trkpt><trkpt lat="38.756138571665865" lon="16.190889946158862"><ele>5.0</ele><time>2026-04-12T15:24:30Z</time></trkpt><trkpt lat="38.75605612688837" lon="16.19080462252817"><ele>5.0</ele><time>2026-04-12T15:24:31Z</time></trkpt><trkpt lat="38.75597337138153" lon="16.190721916160975"><ele>5.0</ele><time>2026-04-12T15:24:32Z</time></trkpt><trkpt lat="38.75589443497472" lon="16.19064420013024"><ele>5.0</ele><time>2026-04-12T15:24:33Z</time></trkpt><trkpt lat="38.75581602618697" lon="16.190570239706304"><ele>5.0</ele><time>2026-04-12T15:24:34Z</time></trkpt><trkpt lat="38.755736441764185" lon="16.19049592078578"><ele>5.0</ele><time>2026-04-12T15:24:35Z</time></trkpt><trkpt lat="38.755653791876355" lon="16.19042186092618"><ele>5.0</ele><time>2026-04-12T15:24:36Z</time></trkpt><trkpt lat="38.755568622546875" lon="16.190350288798395"><ele>5.0</ele><time>2026-04-12T15:24:37Z</time></trkpt><trkpt lat="38.755486050270726" lon="16.190282962074974"><ele>5.0</ele><time>2026-04-12T15:24:38Z</time></trkpt><trkpt lat="38.75539764686778" lon="16.19021698037106"><ele>5.0</ele><time>2026-04-12T15:24:39Z</time></trkpt><trkpt lat="38.75530511772275" lon="16.190147975975492"><ele>5.0</ele><time>2026-04-12T15:24:40Z</time></trkpt><trkpt lat="38.755208391305885" lon="16.19008132812194"><ele>5.2</ele><time>2026-04-12T15:24:41Z</time></trkpt><trkpt lat="38.755115055198544" lon="16.19001672524815"><ele>5.4</ele><time>2026-04-12T15:24:42Z</time></trkpt><trkpt lat="38.75502712158099" lon="16.189951623179688"><ele>5.6</ele><time>2026-04-12T15:24:43Z</time></trkpt><trkpt lat="38.75493994010029" lon="16.189882831905468"><ele>5.8</ele><time>2026-04-12T15:24:44Z</time></trkpt><trkpt lat="38.75485112639147" lon="16.189818782307768"><ele>6.0</ele><time>2026-04-12T15:24:45Z</time></trkpt><trkpt lat="38.754755841306014" lon="16.18976069661027"><ele>6.0</ele><time>2026-04-12T15:24:46Z</time></trkpt><trkpt lat="38.754668452423104" lon="16.189691798454987"><ele>6.0</ele><time>2026-04-12T15:24:47Z</time></trkpt><trkpt lat="38.75457871601235" lon="16.189619860989477"><ele>6.0</ele><time>2026-04-12T15:24:48Z</time></trkpt><trkpt lat="38.754484634659846" lon="16.189549808794748"><ele>6.0</ele><time>2026-04-12T15:24:49Z</time></trkpt><trkpt lat="38.75439089477162" lon="16.189480847554474"><ele>6.0</ele><time>2026-04-12T15:24:50Z</time></trkpt><trkpt lat="38.754296787457825" lon="16.189412762453163"><ele>6.0</ele><time>2026-04-12T15:24:51Z</time></trkpt><trkpt lat="38.754204208506636" lon="16.189343971934882"><ele>6.0</ele><time>2026-04-12T15:24:52Z</time></trkpt><trkpt lat="38.75411401731012" lon="16.18927522159255"><ele>6.0</ele><time>2026-04-12T15:24:53Z</time></trkpt><trkpt lat="38.754023781365305" lon="16.189205920973432"><ele>6.0</ele><time>2026-04-12T15:24:54Z</time></trkpt><trkpt lat="38.753930061209694" lon="16.18913550297162"><ele>6.0</ele><time>2026-04-12T15:24:55Z</time></trkpt><trkpt lat="38.75383575859324" lon="16.189066372765556"><ele>5.8</ele><time>2026-04-12T15:24:56Z</time></trkpt><trkpt lat="38.753744653542924" lon="16.18899943454055"><ele>5.6</ele><time>2026-04-12T15:24:57Z</time></trkpt><trkpt lat="38.75365293788681" lon="16.188927769747853"><ele>5.4</ele><time>2026-04-12T15:24:58Z</time></trkpt><trkpt lat="38.75359634813011" lon="16.188858260647024"><ele>5.2</ele><time>2026-04-12T15:24:59Z</time></trkpt><trkpt lat="38.75347941613835" lon="16.18877528677218"><ele>5.0</ele><time>2026-04-12T15:25:00Z</time></trkpt><trkpt lat="38.75339024001758" lon="16.188696987079602"><ele>5.6</ele><time>2026-04-12T15:25:01Z</time></trkpt><trkpt lat="38.75329474255193" lon="16.188616585762734"><ele>6.2</ele><time>2026-04-12T15:25:02Z</time></trkpt><trkpt lat="38.75319419200452" lon="16.18852232014713"><ele>6.800000000000001</ele><time>2026-04-12T15:25:03Z</time></trkpt><trkpt lat="38.753119064623775" lon="16.188458891365954"><ele>7.4</ele><time>2026-04-12T15:25:04Z</time></trkpt><trkpt lat="38.753043850528464" lon="16.188383194380442"><ele>8.0</ele><time>2026-04-12T15:25:05Z</time></trkpt><trkpt lat="38.75296419484866" lon="16.188313536187245"><ele>8.0</ele><time>2026-04-12T15:25:06Z</time></trkpt><trkpt lat="38.752880009991266" lon="16.18822765662572"><ele>8.0</ele><time>2026-04-12T15:25:07Z</time></trkpt><trkpt lat="38.75279744416519" lon="16.188143818390387"><ele>8.0</ele><time>2026-04-12T15:25:08Z</time></trkpt><trkpt lat="38.75270426586549" lon="16.18806075230457"><ele>8.0</ele><time>2026-04-12T15:25:09Z</time></trkpt><trkpt lat="38.75261110200675" lon="16.187979025632"><ele>8.0</ele><time>2026-04-12T15:25:10Z</time></trkpt><trkpt lat="38.752516516618876" lon="16.187896759169384"><ele>8.0</ele><time>2026-04-12T15:25:11Z</time></trkpt><trkpt lat="38.752425629526556" lon="16.187813115528414"><ele>8.0</ele><time>2026-04-12T15:25:12Z</time></trkpt><trkpt lat="38.75233668980623" lon="16.187724147949158"><ele>8.0</ele><time>2026-04-12T15:25:13Z</time></trkpt><trkpt lat="38.752257907179605" lon="16.187645998444545"><ele>8.0</ele><time>2026-04-12T15:25:14Z</time></trkpt><trkpt lat="38.75215569734597" lon="16.187551929362005"><ele>8.0</ele><time>2026-04-12T15:25:15Z</time></trkpt><trkpt lat="38.75206451974731" lon="16.187461741351058"><ele>8.0</ele><time>2026-04-12T15:25:16Z</time></trkpt><trkpt lat="38.751970662318" lon="16.18737355321905"><ele>8.0</ele><time>2026-04-12T15:25:17Z</time></trkpt><trkpt lat="38.751880101443106" lon="16.1872770432112"><ele>8.0</ele><time>2026-04-12T15:25:18Z</time></trkpt><trkpt lat="38.75179060271632" lon="16.18718309208563"><ele>7.0</ele><time>2026-04-12T15:25:19Z</time></trkpt><trkpt lat="38.75169476200514" lon="16.187083875286497"><ele>6.0</ele><time>2026-04-12T15:25:20Z</time></trkpt><trkpt lat="38.751605406504716" lon="16.186978660436885"><ele>5.0</ele><time>2026-04-12T15:25:21Z</time></trkpt><trkpt lat="38.751516281456794" lon="16.186874252146886"><ele>4.0</ele><time>2026-04-12T15:25:22Z</time></trkpt><trkpt lat="38.75142781273167" lon="16.186772765588522"><ele>4.0</ele><time>2026-04-12T15:25:23Z</time></trkpt><trkpt lat="38.751338934227235" lon="16.186680550832783"><ele>4.0</ele><time>2026-04-12T15:25:24Z</time></trkpt><trkpt lat="38.751253457680015" lon="16.18658195717456"><ele>4.0</ele><time>2026-04-12T15:25:25Z</time></trkpt><trkpt lat="38.75116716316751" lon="16.186486804777868"><ele>4.0</ele><time>2026-04-12T15:25:26Z</time></trkpt><trkpt lat="38.75108255421575" lon="16.1863954072499"><ele>4.6</ele><time>2026-04-12T15:25:27Z</time></trkpt><trkpt lat="38.75099466516485" lon="16.18631203004798"><ele>5.2</ele><time>2026-04-12T15:25:28Z</time></trkpt><trkpt lat="38.75091182910343" lon="16.186224320261836"><ele>5.799999999999999</ele><time>2026-04-12T15:25:29Z</time></trkpt><trkpt lat="38.75082700397081" lon="16.186138148720374"><ele>6.3999999999999995</ele><time>2026-04-12T15:25:30Z</time></trkpt><trkpt lat="38.750738147388745" lon="16.186056363474233"><ele>7.0</ele><time>2026-04-12T15:25:31Z</time></trkpt><trkpt lat="38.75064826211019" lon="16.185973318323114"><ele>7.0</ele><time>2026-04-12T15:25:32Z</time></trkpt><trkpt lat="38.750557527190374" lon="16.18589128886349"><ele>7.0</ele><time>2026-04-12T15:25:33Z</time></trkpt><trkpt lat="38.750466039706886" lon="16.18581206652386"><ele>7.0</ele><time>2026-04-12T15:25:34Z</time></trkpt><trkpt lat="38.75037197657488" lon="16.18573284435944"><ele>7.0</ele><time>2026-04-12T15:25:35Z</time></trkpt><trkpt lat="38.75027633890152" lon="16.185645316731648"><ele>6.25</ele><time>2026-04-12T15:25:36Z</time></trkpt><trkpt lat="38.75017671882561" lon="16.185551873321977"><ele>5.5</ele><time>2026-04-12T15:25:37Z</time></trkpt><trkpt lat="38.75007523154519" lon="16.18546546764165"><ele>4.75</ele><time>2026-04-12T15:25:38Z</time></trkpt><trkpt lat="38.749971591677834" lon="16.185372600857697"><ele>4.0</ele><time>2026-04-12T15:25:39Z</time></trkpt><trkpt lat="38.74985111277863" lon="16.18525951541537"><ele>4.0</ele><time>2026-04-12T15:25:40Z</time></trkpt><trkpt lat="38.74975898907795" lon="16.185194734348322"><ele>4.0</ele><time>2026-04-12T15:25:41Z</time></trkpt><trkpt lat="38.74965436692551" lon="16.185111978147194"><ele>4.0</ele><time>2026-04-12T15:25:42Z</time></trkpt><trkpt lat="38.74953848947845" lon="16.185045989646873"><ele>4.0</ele><time>2026-04-12T15:25:43Z</time></trkpt><trkpt lat="38.749422691172754" lon="16.18499172117474"><ele>5.4</ele><time>2026-04-12T15:25:44Z</time></trkpt><trkpt lat="38.74931374684096" lon="16.18498420036017"><ele>6.800000000000001</ele><time>2026-04-12T15:25:45Z</time></trkpt><trkpt lat="38.74921127229442" lon="16.185009792772846"><ele>8.200000000000001</ele><time>2026-04-12T15:25:46Z</time></trkpt><trkpt lat="38.74910914808426" lon="16.1850457667702"><ele>9.600000000000001</ele><time>2026-04-12T15:25:47Z</time></trkpt><trkpt lat="38.74901559689361" lon="16.185101511051315"><ele>11.0</ele><time>2026-04-12T15:25:48Z</time></trkpt><trkpt lat="38.748916509036306" lon="16.185148255253687"><ele>11.0</ele><time>2026-04-12T15:25:49Z</time></trkpt><trkpt lat="38.74880742045744" lon="16.185145128264992"><ele>11.0</ele><time>2026-04-12T15:25:50Z</time></trkpt><trkpt lat="38.7486983730138" lon="16.185107544384763"><ele>11.0</ele><time>2026-04-12T15:25:51Z</time></trkpt><trkpt lat="38.74859440468655" lon="16.18504019203343"><ele>11.0</ele><time>2026-04-12T15:25:52Z</time></trkpt><trkpt lat="38.748487584147895" lon="16.184979096193466"><ele>10.5</ele><time>2026-04-12T15:25:53Z</time></trkpt><trkpt lat="38.74837776955871" lon="16.184916287935447"><ele>10.0</ele><time>2026-04-12T15:25:54Z</time></trkpt><trkpt lat="38.74826293749192" lon="16.184872556212255"><ele>9.5</ele><time>2026-04-12T15:25:55Z</time></trkpt><trkpt lat="38.748154552756326" lon="16.184788619499397"><ele>9.0</ele><time>2026-04-12T15:25:56Z</time></trkpt><trkpt lat="38.74804189486148" lon="16.18472759300176"><ele>9.0</ele><time>2026-04-12T15:25:57Z</time></trkpt><trkpt lat="38.747952763893444" lon="16.18464370542527"><ele>9.0</ele><time>2026-04-12T15:25:58Z</time></trkpt><trkpt lat="38.74790920320626" lon="16.184544924399212"><ele>9.0</ele><time>2026-04-12T15:25:59Z</time></trkpt><trkpt lat="38.747877973201604" lon="16.184422051251907"><ele>9.0</ele><time>2026-04-12T15:25:59.999Z</time></trkpt><trkpt lat="38.74782413231533" lon="16.184289930096128"><ele>9.0</ele><time>2026-04-12T15:26:00.999Z</time></trkpt><trkpt lat="38.74778155186012" lon="16.184157607274564"><ele>9.0</ele><time>2026-04-12T15:26:01.999Z</time></trkpt><trkpt lat="38.74771899153428" lon="16.184051222413935"><ele>9.0</ele><time>2026-04-12T15:26:02.999Z</time></trkpt><trkpt lat="38.74762648931395" lon="16.183979125859267"><ele>9.0</ele><time>2026-04-12T15:26:03.999Z</time></trkpt><trkpt lat="38.74750664557958" lon="16.183950438532868"><ele>9.0</ele><time>2026-04-12T15:26:04.999Z</time></trkpt><trkpt lat="38.74737728968892" lon="16.183924019967254"><ele>10.25</ele><time>2026-04-12T15:26:05.999Z</time></trkpt><trkpt lat="38.74727628014664" lon="16.18381524095534"><ele>11.5</ele><time>2026-04-12T15:26:06.999Z</time></trkpt><trkpt lat="38.74716710156402" lon="16.183713734045973"><ele>12.75</ele><time>2026-04-12T15:26:07.999Z</time></trkpt><trkpt lat="38.74706433851272" lon="16.18362861131454"><ele>14.0</ele><time>2026-04-12T15:26:08.999Z</time></trkpt><trkpt lat="38.74694159075146" lon="16.18359094848413"><ele>17.0</ele><time>2026-04-12T15:26:09.999Z</time></trkpt><trkpt lat="38.74681668654129" lon="16.183582167706046"><ele>20.0</ele><time>2026-04-12T15:26:10.999Z</time></trkpt><trkpt lat="38.746696453416895" lon="16.183605517134648"><ele>23.0</ele><time>2026-04-12T15:26:11.999Z</time></trkpt><trkpt lat="38.746623990584666" lon="16.183545093398383"><ele>26.0</ele><time>2026-04-12T15:26:12.999Z</time></trkpt><trkpt lat="38.746497959707206" lon="16.18343150816646"><ele>26.0</ele><time>2026-04-12T15:26:13.999Z</time></trkpt><trkpt lat="38.746388426442735" lon="16.18334523731996"><ele>26.0</ele><time>2026-04-12T15:26:14.999Z</time></trkpt><trkpt lat="38.74628916809996" lon="16.183252628279575"><ele>26.0</ele><time>2026-04-12T15:26:15.999Z</time></trkpt><trkpt lat="38.7462093152569" lon="16.183138532707293"><ele>26.0</ele><time>2026-04-12T15:26:16.999Z</time></trkpt><trkpt lat="38.74615843090654" lon="16.182997713056114"><ele>23.25</ele><time>2026-04-12T15:26:17.999Z</time></trkpt><trkpt lat="38.74614200751465" lon="16.18283565403836"><ele>20.5</ele><time>2026-04-12T15:26:18.999Z</time></trkpt><trkpt lat="38.74613290631232" lon="16.182665351366357"><ele>17.75</ele><time>2026-04-12T15:26:20Z</time></trkpt><trkpt lat="38.74612363401147" lon="16.18249628126944"><ele>15.0</ele><time>2026-04-12T15:26:21Z</time></trkpt><trkpt lat="38.746104177998646" lon="16.18233374878031"><ele>13.75</ele><time>2026-04-12T15:26:22Z</time></trkpt><trkpt lat="38.74607701760592" lon="16.18215827242582"><ele>12.5</ele><time>2026-04-12T15:26:23Z</time></trkpt><trkpt lat="38.74604055396523" lon="16.181998795735975"><ele>11.25</ele><time>2026-04-12T15:26:24Z</time></trkpt><trkpt lat="38.7459865627337" lon="16.18183622355554"><ele>10.0</ele><time>2026-04-12T15:26:25Z</time></trkpt><trkpt lat="38.74591478339181" lon="16.181685387709717"><ele>13.0</ele><time>2026-04-12T15:26:26Z</time></trkpt><trkpt lat="38.745848753720544" lon="16.181547390343802"><ele>16.0</ele><time>2026-04-12T15:26:27Z</time></trkpt><trkpt lat="38.7457702263442" lon="16.181416415291974"><ele>19.0</ele><time>2026-04-12T15:26:28Z</time></trkpt><trkpt lat="38.74569903906907" lon="16.18128402780129"><ele>22.0</ele><time>2026-04-12T15:26:29Z</time></trkpt><trkpt lat="38.745636259684154" lon="16.181128829116773"><ele>22.0</ele><time>2026-04-12T15:26:30Z</time></trkpt><trkpt lat="38.74558321692681" lon="16.18096371036205"><ele>22.0</ele><time>2026-04-12T15:26:31Z</time></trkpt><trkpt lat="38.745573598665906" lon="16.180772406402703"><ele>22.0</ele><time>2026-04-12T15:26:32Z</time></trkpt><trkpt lat="38.745554173004486" lon="16.18058841607906"><ele>22.0</ele><time>2026-04-12T15:26:33Z</time></trkpt><trkpt lat="38.7455272617922" lon="16.18042879686165"><ele>20.5</ele><time>2026-04-12T15:26:34Z</time></trkpt><trkpt lat="38.74548150776365" lon="16.180266866826173"><ele>19.0</ele><time>2026-04-12T15:26:35Z</time></trkpt><trkpt lat="38.745416556556194" lon="16.18011549730471"><ele>17.5</ele><time>2026-04-12T15:26:36Z</time></trkpt><trkpt lat="38.74534465717713" lon="16.179959033740936"><ele>16.0</ele><time>2026-04-12T15:26:37Z</time></trkpt><trkpt lat="38.74525266865022" lon="16.179810854617394"><ele>17.75</ele><time>2026-04-12T15:26:38Z</time></trkpt><trkpt lat="38.74516288651339" lon="16.179665790929466"><ele>19.5</ele><time>2026-04-12T15:26:39Z</time></trkpt><trkpt lat="38.74507005020505" lon="16.17951587096723"><ele>21.25</ele><time>2026-04-12T15:26:40Z</time></trkpt><trkpt lat="38.74497636151145" lon="16.179365116221458"><ele>23.0</ele><time>2026-04-12T15:26:41Z</time></trkpt><trkpt lat="38.744861078178786" lon="16.179229087228034"><ele>23.0</ele><time>2026-04-12T15:26:42Z</time></trkpt><trkpt lat="38.74474951558955" lon="16.179089763064308"><ele>23.0</ele><time>2026-04-12T15:26:43Z</time></trkpt><trkpt lat="38.74462922267637" lon="16.178956684872052"><ele>23.0</ele><time>2026-04-12T15:26:44Z</time></trkpt><trkpt lat="38.74450519161486" lon="16.178833808209145"><ele>22.333333333333336</ele><time>2026-04-12T15:26:45Z</time></trkpt><trkpt lat="38.74438221244925" lon="16.17870736247383"><ele>21.666666666666668</ele><time>2026-04-12T15:26:46Z</time></trkpt><trkpt lat="38.744263260699114" lon="16.178588792871544"><ele>21.0</ele><time>2026-04-12T15:26:47Z</time></trkpt><trkpt lat="38.744152099853416" lon="16.178476224391986"><ele>21.0</ele><time>2026-04-12T15:26:48Z</time></trkpt><trkpt lat="38.744046736297044" lon="16.178363802141927"><ele>21.0</ele><time>2026-04-12T15:26:49Z</time></trkpt><trkpt lat="38.7439406453588" lon="16.178258553962447"><ele>21.0</ele><time>2026-04-12T15:26:50Z</time></trkpt><trkpt lat="38.74383934675576" lon="16.178157460326457"><ele>21.0</ele><time>2026-04-12T15:26:51Z</time></trkpt><trkpt lat="38.74372549517799" lon="16.178083229098426"><ele>21.200000000000003</ele><time>2026-04-12T15:26:52Z</time></trkpt><trkpt lat="38.743618451253965" lon="16.17802816263916"><ele>21.400000000000002</ele><time>2026-04-12T15:26:53Z</time></trkpt><trkpt lat="38.74350728763397" lon="16.178001082854546"><ele>21.6</ele><time>2026-04-12T15:26:54Z</time></trkpt><trkpt lat="38.74339855194791" lon="16.177993138958392"><ele>21.8</ele><time>2026-04-12T15:26:55Z</time></trkpt><trkpt lat="38.74329557140253" lon="16.177978085357015"><ele>22.0</ele><time>2026-04-12T15:26:56Z</time></trkpt><trkpt lat="38.74320964179191" lon="16.177896526588743"><ele>22.0</ele><time>2026-04-12T15:26:57Z</time></trkpt><trkpt lat="38.743109453421496" lon="16.177834014550847"><ele>22.0</ele><time>2026-04-12T15:26:58Z</time></trkpt><trkpt lat="38.743047589480405" lon="16.177714431379858"><ele>22.0</ele><time>2026-04-12T15:26:59Z</time></trkpt><trkpt lat="38.74299355555883" lon="16.17762171760335"><ele>22.0</ele><time>2026-04-12T15:27:00Z</time></trkpt><trkpt lat="38.74297732274593" lon="16.17752741160521"><ele>22.0</ele><time>2026-04-12T15:27:01Z</time></trkpt><trkpt lat="38.74298753797064" lon="16.17742889824149"><ele>22.8</ele><time>2026-04-12T15:27:02Z</time></trkpt><trkpt lat="38.742979511294806" lon="16.1773127471727"><ele>23.6</ele><time>2026-04-12T15:27:03Z</time></trkpt><trkpt lat="38.742940675201865" lon="16.177194946613245"><ele>24.400000000000002</ele><time>2026-04-12T15:27:04Z</time></trkpt><trkpt lat="38.74288524168275" lon="16.17707531942252"><ele>25.200000000000003</ele><time>2026-04-12T15:27:05Z</time></trkpt><trkpt lat="38.742802159710436" lon="16.17695690093106"><ele>26.0</ele><time>2026-04-12T15:27:06Z</time></trkpt><trkpt lat="38.74270667409431" lon="16.176834635745625"><ele>26.0</ele><time>2026-04-12T15:27:07Z</time></trkpt><trkpt lat="38.74262892740423" lon="16.17670482226023"><ele>26.0</ele><time>2026-04-12T15:27:08Z</time></trkpt><trkpt lat="38.742538572594164" lon="16.17657509387295"><ele>26.0</ele><time>2026-04-12T15:27:09Z</time></trkpt><trkpt lat="38.74244932204773" lon="16.176446950916752"><ele>26.0</ele><time>2026-04-12T15:27:10Z</time></trkpt><trkpt lat="38.742356397890845" lon="16.176313720275804"><ele>24.25</ele><time>2026-04-12T15:27:11Z</time></trkpt><trkpt lat="38.74226853662244" lon="16.176187831364164"><ele>22.5</ele><time>2026-04-12T15:27:12Z</time></trkpt><trkpt lat="38.742169588653" lon="16.17604578136359"><ele>20.75</ele><time>2026-04-12T15:27:13Z</time></trkpt><trkpt lat="38.742076222622266" lon="16.175912533733275"><ele>19.0</ele><time>2026-04-12T15:27:14Z</time></trkpt><trkpt lat="38.74198033514422" lon="16.175795621017908"><ele>16.25</ele><time>2026-04-12T15:27:15Z</time></trkpt><trkpt lat="38.741898597585184" lon="16.17566328674444"><ele>13.5</ele><time>2026-04-12T15:27:16Z</time></trkpt><trkpt lat="38.741815378907596" lon="16.17554435897674"><ele>10.75</ele><time>2026-04-12T15:27:17Z</time></trkpt><trkpt lat="38.741732088714706" lon="16.175431009481358"><ele>8.0</ele><time>2026-04-12T15:27:18Z</time></trkpt><trkpt lat="38.74165547696847" lon="16.175316943810042"><ele>11.2</ele><time>2026-04-12T15:27:19Z</time></trkpt><trkpt lat="38.74158700420576" lon="16.175214986264805"><ele>14.4</ele><time>2026-04-12T15:27:20Z</time></trkpt><trkpt lat="38.74150791331982" lon="16.175104597881624"><ele>17.599999999999998</ele><time>2026-04-12T15:27:21Z</time></trkpt><trkpt lat="38.7414318209741" lon="16.17499903231411"><ele>20.8</ele><time>2026-04-12T15:27:22Z</time></trkpt><trkpt lat="38.741357090791865" lon="16.174892496958794"><ele>24.0</ele><time>2026-04-12T15:27:23Z</time></trkpt><trkpt lat="38.741267392689636" lon="16.17480459862638"><ele>24.0</ele><time>2026-04-12T15:27:24Z</time></trkpt><trkpt lat="38.74118368624403" lon="16.174714320127524"><ele>24.0</ele><time>2026-04-12T15:27:25Z</time></trkpt><trkpt lat="38.74110482563139" lon="16.174633246811666"><ele>24.0</ele><time>2026-04-12T15:27:26Z</time></trkpt><trkpt lat="38.741038458819865" lon="16.174556266407176"><ele>24.0</ele><time>2026-04-12T15:27:27Z</time></trkpt><trkpt lat="38.74098395970195" lon="16.17448369174567"><ele>24.0</ele><time>2026-04-12T15:27:28Z</time></trkpt><trkpt lat="38.74094283301754" lon="16.174395012031678"><ele>27.4</ele><time>2026-04-12T15:27:29Z</time></trkpt><trkpt lat="38.740931964290944" lon="16.174277847687527"><ele>30.799999999999997</ele><time>2026-04-12T15:27:30Z</time></trkpt><trkpt lat="38.740918528536795" lon="16.174154211145662"><ele>34.199999999999996</ele><time>2026-04-12T15:27:31Z</time></trkpt><trkpt lat="38.74091028979582" lon="16.174019412758724"><ele>37.599999999999994</ele><time>2026-04-12T15:27:32Z</time></trkpt><trkpt lat="38.740900741522736" lon="16.173879121461137"><ele>41.0</ele><time>2026-04-12T15:27:33Z</time></trkpt><trkpt lat="38.74089097450745" lon="16.173732942431723"><ele>41.0</ele><time>2026-04-12T15:27:34Z</time></trkpt><trkpt lat="38.740882264229626" lon="16.173586117392034"><ele>41.0</ele><time>2026-04-12T15:27:35Z</time></trkpt><trkpt lat="38.74087362278385" lon="16.173440452613637"><ele>41.0</ele><time>2026-04-12T15:27:36Z</time></trkpt><trkpt lat="38.74086606054105" lon="16.173305815975844"><ele>41.0</ele><time>2026-04-12T15:27:37Z</time></trkpt><trkpt lat="38.740859455880795" lon="16.173179523384796"><ele>41.0</ele><time>2026-04-12T15:27:38Z</time></trkpt><trkpt lat="38.740852178838644" lon="16.173056092763154"><ele>40.599999999999994</ele><time>2026-04-12T15:27:39Z</time></trkpt><trkpt lat="38.740843265051545" lon="16.172936728403826"><ele>40.199999999999996</ele><time>2026-04-12T15:27:40Z</time></trkpt><trkpt lat="38.74082666022642" lon="16.172818787564005"><ele>39.8</ele><time>2026-04-12T15:27:41Z</time></trkpt><trkpt lat="38.74078788047206" lon="16.17268633631441"><ele>39.4</ele><time>2026-04-12T15:27:42Z</time></trkpt><trkpt lat="38.7407212853688" lon="16.172535834498774"><ele>39.0</ele><time>2026-04-12T15:27:43Z</time></trkpt><trkpt lat="38.74065077892896" lon="16.17238652452332"><ele>35.5</ele><time>2026-04-12T15:27:44Z</time></trkpt><trkpt lat="38.74058359308783" lon="16.172244580702824"><ele>32.0</ele><time>2026-04-12T15:27:45Z</time></trkpt><trkpt lat="38.74051814512077" lon="16.172106309367663"><ele>28.5</ele><time>2026-04-12T15:27:46Z</time></trkpt><trkpt lat="38.74045310206029" lon="16.17196802716883"><ele>25.0</ele><time>2026-04-12T15:27:47Z</time></trkpt><trkpt lat="38.74038632378265" lon="16.17183173255152"><ele>25.0</ele><time>2026-04-12T15:27:48Z</time></trkpt><trkpt lat="38.74030483769984" lon="16.17171547848738"><ele>25.0</ele><time>2026-04-12T15:27:49Z</time></trkpt><trkpt lat="38.74022087725712" lon="16.171616040588873"><ele>25.0</ele><time>2026-04-12T15:27:50Z</time></trkpt><trkpt lat="38.7401375618455" lon="16.17152216750223"><ele>25.0</ele><time>2026-04-12T15:27:51Z</time></trkpt><trkpt lat="38.74005682993301" lon="16.171431630619928"><ele>26.666666666666668</ele><time>2026-04-12T15:27:52Z</time></trkpt><trkpt lat="38.73998043008959" lon="16.171342550046184"><ele>28.333333333333336</ele><time>2026-04-12T15:27:53Z</time></trkpt><trkpt lat="38.73990494593902" lon="16.171273810523186"><ele>30.0</ele><time>2026-04-12T15:27:54Z</time></trkpt><trkpt lat="38.73982680985336" lon="16.1712334432605"><ele>31.666666666666664</ele><time>2026-04-12T15:27:55Z</time></trkpt><trkpt lat="38.739753194771204" lon="16.171206884031623"><ele>33.33333333333333</ele><time>2026-04-12T15:27:56Z</time></trkpt><trkpt lat="38.7396830667494" lon="16.171178032663537"><ele>35.0</ele><time>2026-04-12T15:27:57Z</time></trkpt><trkpt lat="38.739629288467476" lon="16.17113189433"><ele>35.0</ele><time>2026-04-12T15:27:58Z</time></trkpt><trkpt lat="38.73957660243449" lon="16.170977038752838"><ele>35.0</ele><time>2026-04-12T15:28:00Z</time></trkpt><trkpt lat="38.7395561947638" lon="16.170896446503914"><ele>35.0</ele><time>2026-04-12T15:28:01Z</time></trkpt><trkpt lat="38.739559504881996" lon="16.170801335321514"><ele>35.0</ele><time>2026-04-12T15:28:02Z</time></trkpt><trkpt lat="38.73959400290638" lon="16.17070745925134"><ele>35.0</ele><time>2026-04-12T15:28:03Z</time></trkpt><trkpt lat="38.73964101874326" lon="16.170634789635102"><ele>35.0</ele><time>2026-04-12T15:28:04Z</time></trkpt><trkpt lat="38.739687362900995" lon="16.170540674740653"><ele>33.75</ele><time>2026-04-12T15:28:05Z</time></trkpt><trkpt lat="38.73971665137514" lon="16.170426016326086"><ele>32.5</ele><time>2026-04-12T15:28:06Z</time></trkpt><trkpt lat="38.73971842254439" lon="16.170279058491836"><ele>31.25</ele><time>2026-04-12T15:28:07Z</time></trkpt><trkpt lat="38.73967050757637" lon="16.170130554741974"><ele>30.0</ele><time>2026-04-12T15:28:08Z</time></trkpt><trkpt lat="38.73962652312875" lon="16.169982908679998"><ele>25.5</ele><time>2026-04-12T15:28:09Z</time></trkpt><trkpt lat="38.73958539878316" lon="16.169844863325068"><ele>21.0</ele><time>2026-04-12T15:28:10Z</time></trkpt><trkpt lat="38.73954489213107" lon="16.169708891399267"><ele>16.5</ele><time>2026-04-12T15:28:11Z</time></trkpt><trkpt lat="38.739502825409645" lon="16.169567682418965"><ele>12.0</ele><time>2026-04-12T15:28:12Z</time></trkpt><trkpt lat="38.739463114441754" lon="16.169434381415392"><ele>12.0</ele><time>2026-04-12T15:28:13Z</time></trkpt><trkpt lat="38.7394262389182" lon="16.16931059830015"><ele>12.0</ele><time>2026-04-12T15:28:14Z</time></trkpt><trkpt lat="38.73939288616571" lon="16.169193724412587"><ele>12.0</ele><time>2026-04-12T15:28:15Z</time></trkpt><trkpt lat="38.73935263786757" lon="16.169072123967883"><ele>12.0</ele><time>2026-04-12T15:28:16Z</time></trkpt><trkpt lat="38.73928021275633" lon="16.168970611157217"><ele>12.0</ele><time>2026-04-12T15:28:17Z</time></trkpt><trkpt lat="38.739197074236536" lon="16.16886911837048"><ele>16.0</ele><time>2026-04-12T15:28:18Z</time></trkpt><trkpt lat="38.739108499537245" lon="16.16876878907495"><ele>20.0</ele><time>2026-04-12T15:28:19Z</time></trkpt><trkpt lat="38.7390314336302" lon="16.16868770912637"><ele>24.000000000000004</ele><time>2026-04-12T15:28:20Z</time></trkpt><trkpt lat="38.73895113532067" lon="16.168610548874273"><ele>28.0</ele><time>2026-04-12T15:28:21Z</time></trkpt><trkpt lat="38.73887239982877" lon="16.16856545006493"><ele>32.0</ele><time>2026-04-12T15:28:22Z</time></trkpt><trkpt lat="38.73878509267609" lon="16.16854953942448"><ele>31.999999999999996</ele><time>2026-04-12T15:28:23Z</time></trkpt><trkpt lat="38.73869449580715" lon="16.168541073900638"><ele>32.0</ele><time>2026-04-12T15:28:24Z</time></trkpt><trkpt lat="38.73862228274902" lon="16.168541255500486"><ele>32.0</ele><time>2026-04-12T15:28:25Z</time></trkpt><trkpt lat="38.73855582758067" lon="16.16853200365928"><ele>32.0</ele><time>2026-04-12T15:28:26Z</time></trkpt><trkpt lat="38.738499732732" lon="16.16846978868117"><ele>31.999999999999996</ele><time>2026-04-12T15:28:27Z</time></trkpt><trkpt lat="38.738507073452915" lon="16.16835084227151"><ele>32.0</ele><time>2026-04-12T15:28:28Z</time></trkpt><trkpt lat="38.738515330135456" lon="16.1682707253644"><ele>31.999999999999996</ele><time>2026-04-12T15:28:29Z</time></trkpt><trkpt lat="38.738552056277925" lon="16.168200122975122"><ele>32.0</ele><time>2026-04-12T15:28:30Z</time></trkpt><trkpt lat="38.7385880931137" lon="16.168126597159073"><ele>32.0</ele><time>2026-04-12T15:28:31Z</time></trkpt><trkpt lat="38.73859366911863" lon="16.168036144400393"><ele>32.0</ele><time>2026-04-12T15:28:32Z</time></trkpt><trkpt lat="38.73857848439942" lon="16.16793969613643"><ele>31.999999999999996</ele><time>2026-04-12T15:28:33Z</time></trkpt><trkpt lat="38.7385295216725" lon="16.167851936876662"><ele>32.0</ele><time>2026-04-12T15:28:34Z</time></trkpt><trkpt lat="38.73849141805538" lon="16.167755858999623"><ele>38.8</ele><time>2026-04-12T15:28:35Z</time></trkpt><trkpt lat="38.7384785725097" lon="16.167644027097847"><ele>45.6</ele><time>2026-04-12T15:28:36Z</time></trkpt><trkpt lat="38.73850133527276" lon="16.167531931695116"><ele>52.39999999999999</ele><time>2026-04-12T15:28:37Z</time></trkpt><trkpt lat="38.73851627650391" lon="16.16741017565498"><ele>59.199999999999996</ele><time>2026-04-12T15:28:38Z</time></trkpt><trkpt lat="38.73850733628039" lon="16.167289520463424"><ele>66.0</ele><time>2026-04-12T15:28:39Z</time></trkpt><trkpt lat="38.73851458154613" lon="16.167179169317812"><ele>66.0</ele><time>2026-04-12T15:28:40Z</time></trkpt><trkpt lat="38.73849462642525" lon="16.1670758432238"><ele>66.0</ele><time>2026-04-12T15:28:41Z</time></trkpt><trkpt lat="38.73845532948392" lon="16.16699559256381"><ele>66.0</ele><time>2026-04-12T15:28:42Z</time></trkpt><trkpt lat="38.73842700074302" lon="16.166901155295495"><ele>66.0</ele><time>2026-04-12T15:28:43Z</time></trkpt><trkpt lat="38.73835051844393" lon="16.166844064238767"><ele>66.0</ele><time>2026-04-12T15:28:44Z</time></trkpt><trkpt lat="38.73827126208984" lon="16.16679195271754"><ele>66.0</ele><time>2026-04-12T15:28:45Z</time></trkpt><trkpt lat="38.7381839657806" lon="16.16675894388548"><ele>66.0</ele><time>2026-04-12T15:28:46Z</time></trkpt><trkpt lat="38.73809024269177" lon="16.16673495772078"><ele>66.0</ele><time>2026-04-12T15:28:47Z</time></trkpt><trkpt lat="38.738003337750456" lon="16.16669668261234"><ele>66.0</ele><time>2026-04-12T15:28:48Z</time></trkpt><trkpt lat="38.73793157512054" lon="16.166652370067737"><ele>66.0</ele><time>2026-04-12T15:28:49Z</time></trkpt><trkpt lat="38.73787383851419" lon="16.166618781356107"><ele>66.0</ele><time>2026-04-12T15:28:50Z</time></trkpt><trkpt lat="38.737816984106075" lon="16.16650570982816"><ele>66.0</ele><time>2026-04-12T15:28:52Z</time></trkpt><trkpt lat="38.73781298104319" lon="16.16642182324494"><ele>64.2</ele><time>2026-04-12T15:28:54Z</time></trkpt><trkpt lat="38.7378202535808" lon="16.16633408615264"><ele>62.39999999999999</ele><time>2026-04-12T15:29:01Z</time></trkpt><trkpt lat="38.737844025609554" lon="16.166246300328982"><ele>60.6</ele><time>2026-04-12T15:29:09Z</time></trkpt><trkpt lat="38.73771922328802" lon="16.16613351493317"><ele>58.8</ele><time>2026-04-12T15:29:11Z</time></trkpt><trkpt lat="38.73764443018781" lon="16.166073229832655"><ele>57.0</ele><time>2026-04-12T15:29:13Z</time></trkpt><trkpt lat="38.73756608032914" lon="16.16600631461942"><ele>58.5</ele><time>2026-04-12T15:29:15Z</time></trkpt><trkpt lat="38.737497055248" lon="16.165944801634183"><ele>60.0</ele><time>2026-04-12T15:29:17Z</time></trkpt><trkpt lat="38.737423878458884" lon="16.16588062362327"><ele>61.5</ele><time>2026-04-12T15:29:20Z</time></trkpt><trkpt lat="38.7373609497969" lon="16.16582529038018"><ele>63.0</ele><time>2026-04-12T15:29:22Z</time></trkpt><trkpt lat="38.73729573285161" lon="16.165769261932283"><ele>64.5</ele><time>2026-04-12T15:29:25Z</time></trkpt><trkpt lat="38.73722097062397" lon="16.165706475213767"><ele>66.0</ele><time>2026-04-12T15:29:28Z</time></trkpt><trkpt lat="38.737162387982224" lon="16.165663355050135"><ele>66.0</ele><time>2026-04-12T15:29:30Z</time></trkpt><trkpt lat="38.737077295507895" lon="16.165615921661672"><ele>66.0</ele><time>2026-04-12T15:29:32Z</time></trkpt><trkpt lat="38.736963809963044" lon="16.165563260115693"><ele>66.0</ele><time>2026-04-12T15:29:34Z</time></trkpt><trkpt lat="38.736892607576735" lon="16.165521758460155"><ele>66.0</ele><time>2026-04-12T15:29:35Z</time></trkpt><trkpt lat="38.7368001140638" lon="16.16542831607762"><ele>66.0</ele><time>2026-04-12T15:29:37Z</time></trkpt><trkpt lat="38.73674872778459" lon="16.16536308964764"><ele>66.16666666666667</ele><time>2026-04-12T15:29:38Z</time></trkpt><trkpt lat="38.736690166939695" lon="16.165272781469135"><ele>66.33333333333333</ele><time>2026-04-12T15:29:39Z</time></trkpt><trkpt lat="38.7366254303983" lon="16.16519576585157"><ele>66.5</ele><time>2026-04-12T15:29:40Z</time></trkpt><trkpt lat="38.736560046454855" lon="16.165119805109473"><ele>66.66666666666666</ele><time>2026-04-12T15:29:41Z</time></trkpt><trkpt lat="38.736506283976695" lon="16.165045760639064"><ele>66.83333333333333</ele><time>2026-04-12T15:29:42Z</time></trkpt><trkpt lat="38.736465563348915" lon="16.16496151770462"><ele>67.0</ele><time>2026-04-12T15:29:43Z</time></trkpt><trkpt lat="38.736413877000075" lon="16.164834618292215"><ele>67.0</ele><time>2026-04-12T15:29:45.001Z</time></trkpt><trkpt lat="38.73634453793501" lon="16.16473765527451"><ele>67.0</ele><time>2026-04-12T15:29:47.001Z</time></trkpt><trkpt lat="38.73624262301081" lon="16.164665081123673"><ele>67.0</ele><time>2026-04-12T15:29:49.001Z</time></trkpt><trkpt lat="38.73617892885714" lon="16.16464522699261"><ele>67.0</ele><time>2026-04-12T15:29:50.001Z</time></trkpt><trkpt lat="38.73607183964763" lon="16.16464723603679"><ele>67.0</ele><time>2026-04-12T15:29:52.001Z</time></trkpt><trkpt lat="38.73598353241213" lon="16.164577549282406"><ele>70.0</ele><time>2026-04-12T15:29:54.001Z</time></trkpt><trkpt lat="38.73587829386413" lon="16.16452822000241"><ele>73.0</ele><time>2026-04-12T15:29:56.001Z</time></trkpt><trkpt lat="38.735773222144246" lon="16.164448247684998"><ele>76.0</ele><time>2026-04-12T15:29:58.001Z</time></trkpt><trkpt lat="38.735744416923644" lon="16.164358406560655"><ele>79.0</ele><time>2026-04-12T15:30:00.001Z</time></trkpt><trkpt lat="38.735694840281134" lon="16.16430633784195"><ele>82.0</ele><time>2026-04-12T15:30:02.001Z</time></trkpt><trkpt lat="38.73564515339789" lon="16.164254740871243"><ele>85.0</ele><time>2026-04-12T15:30:04.001Z</time></trkpt><trkpt lat="38.73559290442505" lon="16.1642004845143"><ele>85.0</ele><time>2026-04-12T15:30:06.001Z</time></trkpt><trkpt lat="38.7355253544984" lon="16.164130337854118"><ele>85.0</ele><time>2026-04-12T15:30:08.001Z</time></trkpt><trkpt lat="38.73543962084621" lon="16.164055615264353"><ele>85.0</ele><time>2026-04-12T15:30:10.001Z</time></trkpt><trkpt lat="38.73535975148133" lon="16.164005392390767"><ele>85.0</ele><time>2026-04-12T15:30:12Z</time></trkpt><trkpt lat="38.735302089944405" lon="16.163921854490116"><ele>85.0</ele><time>2026-04-12T15:30:14Z</time></trkpt><trkpt lat="38.73524300623984" lon="16.163801941686568"><ele>87.8</ele><time>2026-04-12T15:30:16Z</time></trkpt><trkpt lat="38.73519001258407" lon="16.16368824141804"><ele>90.6</ele><time>2026-04-12T15:30:18Z</time></trkpt><trkpt lat="38.735142979954546" lon="16.163549077030257"><ele>93.4</ele><time>2026-04-12T15:30:20Z</time></trkpt><trkpt lat="38.73509704904432" lon="16.163474225115134"><ele>96.2</ele><time>2026-04-12T15:30:21Z</time></trkpt><trkpt lat="38.73504849903318" lon="16.163397525273467"><ele>99.0</ele><time>2026-04-12T15:30:22Z</time></trkpt><trkpt lat="38.734997536729715" lon="16.163309438961228"><ele>99.0</ele><time>2026-04-12T15:30:23Z</time></trkpt><trkpt lat="38.73494182093436" lon="16.16320135683132"><ele>99.0</ele><time>2026-04-12T15:30:24Z</time></trkpt><trkpt lat="38.73488543076961" lon="16.163085557449318"><ele>99.0</ele><time>2026-04-12T15:30:25Z</time></trkpt><trkpt lat="38.734826804131345" lon="16.16296408374166"><ele>99.0</ele><time>2026-04-12T15:30:26Z</time></trkpt><trkpt lat="38.73477182323517" lon="16.16285016389993"><ele>99.0</ele><time>2026-04-12T15:30:27Z</time></trkpt><trkpt lat="38.73470994925922" lon="16.162724692754193"><ele>95.5</ele><time>2026-04-12T15:30:28Z</time></trkpt><trkpt lat="38.734631473038895" lon="16.162606964596453"><ele>92.0</ele><time>2026-04-12T15:30:29Z</time></trkpt><trkpt lat="38.73455873488625" lon="16.16246006611789"><ele>88.5</ele><time>2026-04-12T15:30:30Z</time></trkpt><trkpt lat="38.73449542182699" lon="16.16232425912947"><ele>85.0</ele><time>2026-04-12T15:30:31Z</time></trkpt><trkpt lat="38.734423019721014" lon="16.162205209832464"><ele>88.8</ele><time>2026-04-12T15:30:32Z</time></trkpt><trkpt lat="38.73436570269954" lon="16.162079636448304"><ele>92.6</ele><time>2026-04-12T15:30:33Z</time></trkpt><trkpt lat="38.73430381328164" lon="16.16196738850168"><ele>96.4</ele><time>2026-04-12T15:30:34Z</time></trkpt><trkpt lat="38.73425236187452" lon="16.161858733881896"><ele>100.2</ele><time>2026-04-12T15:30:35Z</time></trkpt><trkpt lat="38.73420198085837" lon="16.161774601385147"><ele>104.0</ele><time>2026-04-12T15:30:36Z</time></trkpt><trkpt lat="38.73415035389825" lon="16.16171209217056"><ele>104.0</ele><time>2026-04-12T15:30:37Z</time></trkpt><trkpt lat="38.73406396893073" lon="16.161604155300815"><ele>104.0</ele><time>2026-04-12T15:30:39Z</time></trkpt><trkpt lat="38.7339870227356" lon="16.16149767463519"><ele>104.0</ele><time>2026-04-12T15:30:41Z</time></trkpt><trkpt lat="38.733933800092366" lon="16.16140182497863"><ele>104.0</ele><time>2026-04-12T15:30:43Z</time></trkpt><trkpt lat="38.73387662783482" lon="16.1613546032063"><ele>104.0</ele><time>2026-04-12T15:30:45Z</time></trkpt><trkpt lat="38.73381776280278" lon="16.161270043619005"><ele>100.49999999999999</ele><time>2026-04-12T15:30:47Z</time></trkpt><trkpt lat="38.73376116849066" lon="16.161172438684403"><ele>97.0</ele><time>2026-04-12T15:30:49Z</time></trkpt><trkpt lat="38.733681899052435" lon="16.161146346461585"><ele>93.5</ele><time>2026-04-12T15:30:51Z</time></trkpt><trkpt lat="38.733628080993356" lon="16.161201343350484"><ele>90.0</ele><time>2026-04-12T15:30:53Z</time></trkpt><trkpt lat="38.73363248916379" lon="16.161331459819365"><ele>86.5</ele><time>2026-04-12T15:30:56Z</time></trkpt><trkpt lat="38.73367341171902" lon="16.16140940751383"><ele>83.0</ele><time>2026-04-12T15:30:58Z</time></trkpt><trkpt lat="38.73370668597213" lon="16.161478268394923"><ele>86.5</ele><time>2026-04-12T15:31:00Z</time></trkpt><trkpt lat="38.733735461776625" lon="16.16155977444594"><ele>90.0</ele><time>2026-04-12T15:31:02Z</time></trkpt><trkpt lat="38.733767543332476" lon="16.161629827955377"><ele>93.5</ele><time>2026-04-12T15:31:04Z</time></trkpt><trkpt lat="38.733809181951266" lon="16.161743060497724"><ele>97.0</ele><time>2026-04-12T15:31:13.001Z</time></trkpt><trkpt lat="38.733859211432964" lon="16.161847108531234"><ele>100.49999999999999</ele><time>2026-04-12T15:31:53.001Z</time></trkpt><trkpt lat="38.73389618654777" lon="16.161955369948913"><ele>104.0</ele><time>2026-04-12T15:31:55.001Z</time></trkpt><trkpt lat="38.73394179588936" lon="16.162084845391373"><ele>103.99999999999999</ele><time>2026-04-12T15:31:57.001Z</time></trkpt><trkpt lat="38.73397585545884" lon="16.162167172214843"><ele>104.0</ele><time>2026-04-12T15:31:58.001Z</time></trkpt><trkpt lat="38.73400950913517" lon="16.162258218040023"><ele>104.0</ele><time>2026-04-12T15:31:59.001Z</time></trkpt><trkpt lat="38.7340479944913" lon="16.162351142119288"><ele>104.0</ele><time>2026-04-12T15:32:00.001Z</time></trkpt><trkpt lat="38.734078883303475" lon="16.162449582052435"><ele>103.99999999999999</ele><time>2026-04-12T15:32:01.001Z</time></trkpt><trkpt lat="38.73409385256239" lon="16.16254857511115"><ele>104.0</ele><time>2026-04-12T15:32:02.001Z</time></trkpt><trkpt lat="38.73411389978374" lon="16.162633499388598"><ele>105.83333333333333</ele><time>2026-04-12T15:32:03.001Z</time></trkpt><trkpt lat="38.73407685535483" lon="16.16271391889033"><ele>107.66666666666666</ele><time>2026-04-12T15:32:04.001Z</time></trkpt><trkpt lat="38.73399194590793" lon="16.16274994573344"><ele>109.5</ele><time>2026-04-12T15:32:05.001Z</time></trkpt><trkpt lat="38.73393755981133" lon="16.162820728057955"><ele>111.33333333333334</ele><time>2026-04-12T15:32:06.001Z</time></trkpt><trkpt lat="38.73386890448326" lon="16.16285296855333"><ele>113.16666666666667</ele><time>2026-04-12T15:32:07.001Z</time></trkpt><trkpt lat="38.7337535733454" lon="16.162868100458397"><ele>115.0</ele><time>2026-04-12T15:32:09.001Z</time></trkpt><trkpt lat="38.73368598627631" lon="16.16292499821975"><ele>115.00000000000001</ele><time>2026-04-12T15:32:11.001Z</time></trkpt><trkpt lat="38.73361365706154" lon="16.162824045447884"><ele>115.0</ele><time>2026-04-12T15:32:13.001Z</time></trkpt><trkpt lat="38.733560598941985" lon="16.162767181783916"><ele>115.0</ele><time>2026-04-12T15:32:32Z</time></trkpt><trkpt lat="38.73351176904966" lon="16.162711630324974"><ele>115.0</ele><time>2026-04-12T15:32:34Z</time></trkpt><trkpt lat="38.73345274063347" lon="16.162660512022416"><ele>115.00000000000001</ele><time>2026-04-12T15:32:35Z</time></trkpt><trkpt lat="38.73342091862561" lon="16.16254522519232"><ele>115.0</ele><time>2026-04-12T15:32:36Z</time></trkpt><trkpt lat="38.7333753248519" lon="16.16244255870275"><ele>115.0</ele><time>2026-04-12T15:32:37Z</time></trkpt><trkpt lat="38.73332177247817" lon="16.162330542183042"><ele>115.0</ele><time>2026-04-12T15:32:38Z</time></trkpt><trkpt lat="38.73325644018626" lon="16.162201293994066"><ele>115.0</ele><time>2026-04-12T15:32:39Z</time></trkpt><trkpt lat="38.73317924753237" lon="16.162060496144615"><ele>115.0</ele><time>2026-04-12T15:32:40Z</time></trkpt><trkpt lat="38.73309059184776" lon="16.16192058322237"><ele>115.0</ele><time>2026-04-12T15:32:41Z</time></trkpt><trkpt lat="38.73300246358941" lon="16.16178606425827"><ele>115.0</ele><time>2026-04-12T15:32:42Z</time></trkpt><trkpt lat="38.73291722929784" lon="16.161664335652176"><ele>115.0</ele><time>2026-04-12T15:32:43Z</time></trkpt><trkpt lat="38.73282760647266" lon="16.161547661168733"><ele>115.0</ele><time>2026-04-12T15:32:44Z</time></trkpt><trkpt lat="38.73273345340657" lon="16.16143183644688"><ele>113.75</ele><time>2026-04-12T15:32:45Z</time></trkpt><trkpt lat="38.73263443888495" lon="16.1613169431593"><ele>112.5</ele><time>2026-04-12T15:32:46Z</time></trkpt><trkpt lat="38.732537330422474" lon="16.16119731120727"><ele>111.25</ele><time>2026-04-12T15:32:47Z</time></trkpt><trkpt lat="38.73244501174774" lon="16.161063308857127"><ele>110.0</ele><time>2026-04-12T15:32:48Z</time></trkpt><trkpt lat="38.73232451810959" lon="16.160969173470384"><ele>110.0</ele><time>2026-04-12T15:32:49Z</time></trkpt><trkpt lat="38.73221563296022" lon="16.160850547788634"><ele>110.0</ele><time>2026-04-12T15:32:50Z</time></trkpt><trkpt lat="38.73208795327248" lon="16.160759372286233"><ele>110.0</ele><time>2026-04-12T15:32:51Z</time></trkpt><trkpt lat="38.731951144402565" lon="16.160693217256426"><ele>110.0</ele><time>2026-04-12T15:32:52Z</time></trkpt><trkpt lat="38.73182145076999" lon="16.1606162552086"><ele>109.33333333333333</ele><time>2026-04-12T15:32:53Z</time></trkpt><trkpt lat="38.731687521972674" lon="16.16053815160566"><ele>108.66666666666666</ele><time>2026-04-12T15:32:54Z</time></trkpt><trkpt lat="38.73154830650272" lon="16.160454490095127"><ele>108.0</ele><time>2026-04-12T15:32:55Z</time></trkpt><trkpt lat="38.731399034993665" lon="16.16036883026145"><ele>108.0</ele><time>2026-04-12T15:32:56Z</time></trkpt><trkpt lat="38.731260551070655" lon="16.160286580920737"><ele>108.0</ele><time>2026-04-12T15:32:57Z</time></trkpt><trkpt lat="38.731118433134135" lon="16.160199281476128"><ele>108.0</ele><time>2026-04-12T15:32:58Z</time></trkpt><trkpt lat="38.73096864583683" lon="16.160120302939486"><ele>113.0</ele><time>2026-04-12T15:32:59Z</time></trkpt><trkpt lat="38.730823715574104" lon="16.160045297387864"><ele>118.0</ele><time>2026-04-12T15:33:00Z</time></trkpt><trkpt lat="38.73067866100146" lon="16.15996308886995"><ele>123.0</ele><time>2026-04-12T15:33:01Z</time></trkpt><trkpt lat="38.73053214335008" lon="16.159873992569338"><ele>122.66666666666666</ele><time>2026-04-12T15:33:02Z</time></trkpt><trkpt lat="38.73038415898079" lon="16.159789028969186"><ele>122.33333333333333</ele><time>2026-04-12T15:33:03Z</time></trkpt><trkpt lat="38.73023698784443" lon="16.159702362734663"><ele>122.0</ele><time>2026-04-12T15:33:04Z</time></trkpt><trkpt lat="38.73008458751933" lon="16.159617907549997"><ele>122.0</ele><time>2026-04-12T15:33:05Z</time></trkpt><trkpt lat="38.72993158476105" lon="16.15952637800703"><ele>122.0</ele><time>2026-04-12T15:33:06Z</time></trkpt><trkpt lat="38.72978046797867" lon="16.159431393577904"><ele>122.0</ele><time>2026-04-12T15:33:07Z</time></trkpt><trkpt lat="38.72963075897233" lon="16.1593267940268"><ele>122.0</ele><time>2026-04-12T15:33:08Z</time></trkpt><trkpt lat="38.72948505195212" lon="16.159200076430796"><ele>122.0</ele><time>2026-04-12T15:33:09Z</time></trkpt><trkpt lat="38.7293526051551" lon="16.159064268642055"><ele>122.0</ele><time>2026-04-12T15:33:10Z</time></trkpt><trkpt lat="38.729220445435224" lon="16.158918206488778"><ele>122.0</ele><time>2026-04-12T15:33:11Z</time></trkpt><trkpt lat="38.72908937208184" lon="16.15876918895032"><ele>122.0</ele><time>2026-04-12T15:33:12Z</time></trkpt><trkpt lat="38.72895742831205" lon="16.158623479333944"><ele>122.0</ele><time>2026-04-12T15:33:13Z</time></trkpt><trkpt lat="38.728821608942916" lon="16.158476763748965"><ele>122.0</ele><time>2026-04-12T15:33:14Z</time></trkpt><trkpt lat="38.7286863718968" lon="16.158322105212797"><ele>122.0</ele><time>2026-04-12T15:33:15Z</time></trkpt><trkpt lat="38.72854757494911" lon="16.15817118833767"><ele>122.0</ele><time>2026-04-12T15:33:16Z</time></trkpt><trkpt lat="38.72840901543439" lon="16.158016131522718"><ele>123.33333333333333</ele><time>2026-04-12T15:33:17Z</time></trkpt><trkpt lat="38.728266579980435" lon="16.15785773703893"><ele>124.66666666666666</ele><time>2026-04-12T15:33:18Z</time></trkpt><trkpt lat="38.72812385537891" lon="16.157694089339437"><ele>126.0</ele><time>2026-04-12T15:33:19Z</time></trkpt><trkpt lat="38.72797955827658" lon="16.157534107677325"><ele>126.0</ele><time>2026-04-12T15:33:20Z</time></trkpt><trkpt lat="38.72783403297703" lon="16.15737413400359"><ele>126.0</ele><time>2026-04-12T15:33:21Z</time></trkpt><trkpt lat="38.72769174689907" lon="16.157217196654425"><ele>126.0</ele><time>2026-04-12T15:33:22Z</time></trkpt><trkpt lat="38.727547541554586" lon="16.157069158432623"><ele>126.33333333333334</ele><time>2026-04-12T15:33:23Z</time></trkpt><trkpt lat="38.727399912380505" lon="16.15692789431207"><ele>126.66666666666667</ele><time>2026-04-12T15:33:24Z</time></trkpt><trkpt lat="38.727247170473895" lon="16.15680420841285"><ele>127.0</ele><time>2026-04-12T15:33:25Z</time></trkpt><trkpt lat="38.72709541220454" lon="16.156685132357925"><ele>127.0</ele><time>2026-04-12T15:33:26Z</time></trkpt><trkpt lat="38.726941493790676" lon="16.15657050442159"><ele>127.0</ele><time>2026-04-12T15:33:27Z</time></trkpt><trkpt lat="38.72678673271314" lon="16.156460422712225"><ele>127.0</ele><time>2026-04-12T15:33:28Z</time></trkpt><trkpt lat="38.72663521631201" lon="16.156348643278584"><ele>129.0</ele><time>2026-04-12T15:33:29Z</time></trkpt><trkpt lat="38.726487173043196" lon="16.156239637068833"><ele>131.0</ele><time>2026-04-12T15:33:30Z</time></trkpt><trkpt lat="38.72634912332674" lon="16.156140559426856"><ele>133.0</ele><time>2026-04-12T15:33:31Z</time></trkpt><trkpt lat="38.726216214412446" lon="16.15604851584763"><ele>133.0</ele><time>2026-04-12T15:33:32Z</time></trkpt><trkpt lat="38.72608261580486" lon="16.15595673882217"><ele>133.0</ele><time>2026-04-12T15:33:33Z</time></trkpt><trkpt lat="38.72594671299259" lon="16.155865494518817"><ele>133.0</ele><time>2026-04-12T15:33:34Z</time></trkpt><trkpt lat="38.72580599768647" lon="16.155771226771055"><ele>130.66666666666669</ele><time>2026-04-12T15:33:35Z</time></trkpt><trkpt lat="38.72566115120368" lon="16.155675707220823"><ele>128.33333333333334</ele><time>2026-04-12T15:33:36Z</time></trkpt><trkpt lat="38.725518648506004" lon="16.155573389562534"><ele>126.0</ele><time>2026-04-12T15:33:37Z</time></trkpt><trkpt lat="38.72537453953309" lon="16.15546732580726"><ele>128.66666666666666</ele><time>2026-04-12T15:33:38Z</time></trkpt><trkpt lat="38.725228696912765" lon="16.15536287330901"><ele>131.33333333333331</ele><time>2026-04-12T15:33:39Z</time></trkpt><trkpt lat="38.72508317405336" lon="16.155258846251556"><ele>134.0</ele><time>2026-04-12T15:33:40.001Z</time></trkpt><trkpt lat="38.724937542908314" lon="16.15515846351433"><ele>134.0</ele><time>2026-04-12T15:33:41.001Z</time></trkpt><trkpt lat="38.724789018303824" lon="16.155062339565344"><ele>134.0</ele><time>2026-04-12T15:33:42.001Z</time></trkpt><trkpt lat="38.72464321244344" lon="16.154966187317967"><ele>134.0</ele><time>2026-04-12T15:33:43.001Z</time></trkpt><trkpt lat="38.72449298256228" lon="16.15486444374884"><ele>133.0</ele><time>2026-04-12T15:33:44.001Z</time></trkpt><trkpt lat="38.724345285564084" lon="16.15476354277844"><ele>132.0</ele><time>2026-04-12T15:33:45.001Z</time></trkpt><trkpt lat="38.72420481016574" lon="16.154654957472882"><ele>131.0</ele><time>2026-04-12T15:33:46.001Z</time></trkpt><trkpt lat="38.72407005145634" lon="16.154542860597072"><ele>131.0</ele><time>2026-04-12T15:33:47.001Z</time></trkpt><trkpt lat="38.72394415787234" lon="16.154405292376506"><ele>131.0</ele><time>2026-04-12T15:33:48.001Z</time></trkpt><trkpt lat="38.72382463855089" lon="16.15426632149137"><ele>131.0</ele><time>2026-04-12T15:33:49.001Z</time></trkpt><trkpt lat="38.72373321267373" lon="16.15408697997788"><ele>132.0</ele><time>2026-04-12T15:33:50.001Z</time></trkpt><trkpt lat="38.72365250483062" lon="16.153898836426105"><ele>133.0</ele><time>2026-04-12T15:33:51.001Z</time></trkpt><trkpt lat="38.72356342763587" lon="16.153716709936894"><ele>134.0</ele><time>2026-04-12T15:33:52.001Z</time></trkpt><trkpt lat="38.72346708497264" lon="16.15354087927137"><ele>134.0</ele><time>2026-04-12T15:33:53.001Z</time></trkpt><trkpt lat="38.723356683248596" lon="16.153385314247032"><ele>134.0</ele><time>2026-04-12T15:33:54.001Z</time></trkpt><trkpt lat="38.72324009737174" lon="16.153240219866465"><ele>134.0</ele><time>2026-04-12T15:33:55.001Z</time></trkpt><trkpt lat="38.72312203917247" lon="16.153089229224065"><ele>129.0</ele><time>2026-04-12T15:33:56.001Z</time></trkpt><trkpt lat="38.72299690878754" lon="16.15291766938883"><ele>124.0</ele><time>2026-04-12T15:33:57.001Z</time></trkpt><trkpt lat="38.72290037922013" lon="16.152745656214556"><ele>119.0</ele><time>2026-04-12T15:33:58.001Z</time></trkpt><trkpt lat="38.72278333487043" lon="16.152578288771952"><ele>122.0</ele><time>2026-04-12T15:33:59.001Z</time></trkpt><trkpt lat="38.72267316026783" lon="16.152414420504677"><ele>125.0</ele><time>2026-04-12T15:34:00.001Z</time></trkpt><trkpt lat="38.722565507038816" lon="16.152257808495825"><ele>128.0</ele><time>2026-04-12T15:34:01.001Z</time></trkpt><trkpt lat="38.72245936711698" lon="16.15209517956825"><ele>128.0</ele><time>2026-04-12T15:34:02.001Z</time></trkpt><trkpt lat="38.72237211630875" lon="16.151919093588408"><ele>128.0</ele><time>2026-04-12T15:34:03.001Z</time></trkpt><trkpt lat="38.722299786265374" lon="16.15173506499606"><ele>128.0</ele><time>2026-04-12T15:34:04.001Z</time></trkpt><trkpt lat="38.72223631280655" lon="16.15154836029871"><ele>123.0</ele><time>2026-04-12T15:34:05.001Z</time></trkpt><trkpt lat="38.72217106857695" lon="16.151362611837566"><ele>118.0</ele><time>2026-04-12T15:34:06.001Z</time></trkpt><trkpt lat="38.722104577354735" lon="16.151178386817158"><ele>113.0</ele><time>2026-04-12T15:34:07.001Z</time></trkpt><trkpt lat="38.72203765984481" lon="16.150994454045037"><ele>113.0</ele><time>2026-04-12T15:34:08.001Z</time></trkpt><trkpt lat="38.72196425932935" lon="16.150816036574128"><ele>113.0</ele><time>2026-04-12T15:34:09.001Z</time></trkpt><trkpt lat="38.721872048072846" lon="16.150649932549094"><ele>113.0</ele><time>2026-04-12T15:34:10.001Z</time></trkpt><trkpt lat="38.72176546866178" lon="16.150503848296136"><ele>115.25</ele><time>2026-04-12T15:34:11.001Z</time></trkpt><trkpt lat="38.7216418473404" lon="16.15037926886395"><ele>117.5</ele><time>2026-04-12T15:34:12.001Z</time></trkpt><trkpt lat="38.72151630897562" lon="16.150280388004106"><ele>119.75</ele><time>2026-04-12T15:34:13.001Z</time></trkpt><trkpt lat="38.72138458385665" lon="16.15021317120617"><ele>122.0</ele><time>2026-04-12T15:34:14.001Z</time></trkpt><trkpt lat="38.72125381113817" lon="16.15017848573425"><ele>122.0</ele><time>2026-04-12T15:34:15.001Z</time></trkpt><trkpt lat="38.721133152286164" lon="16.15012657949745"><ele>122.0</ele><time>2026-04-12T15:34:16.001Z</time></trkpt><trkpt lat="38.72100867225477" lon="16.150051509491277"><ele>122.0</ele><time>2026-04-12T15:34:17.001Z</time></trkpt><trkpt lat="38.720893547785415" lon="16.1499778484271"><ele>122.0</ele><time>2026-04-12T15:34:18.001Z</time></trkpt><trkpt lat="38.72080257923248" lon="16.14988345410384"><ele>124.6</ele><time>2026-04-12T15:34:19.001Z</time></trkpt><trkpt lat="38.720727855091454" lon="16.149798820936915"><ele>127.19999999999999</ele><time>2026-04-12T15:34:20.001Z</time></trkpt><trkpt lat="38.72066575165145" lon="16.149712274504576"><ele>129.8</ele><time>2026-04-12T15:34:21.001Z</time></trkpt><trkpt lat="38.72061630236132" lon="16.149605731174702"><ele>132.4</ele><time>2026-04-12T15:34:22.001Z</time></trkpt><trkpt lat="38.72059726570019" lon="16.149498025140115"><ele>135.0</ele><time>2026-04-12T15:34:23.001Z</time></trkpt><trkpt lat="38.7206160336774" lon="16.149396490557066"><ele>135.0</ele><time>2026-04-12T15:34:24Z</time></trkpt><trkpt lat="38.72066952790352" lon="16.149308089530372"><ele>135.0</ele><time>2026-04-12T15:34:25Z</time></trkpt><trkpt lat="38.7207433775643" lon="16.149221929697152"><ele>135.0</ele><time>2026-04-12T15:34:26Z</time></trkpt><trkpt lat="38.72078592641533" lon="16.14913420524859"><ele>135.0</ele><time>2026-04-12T15:34:27Z</time></trkpt><trkpt lat="38.72080087164343" lon="16.149011771689466"><ele>135.0</ele><time>2026-04-12T15:34:28Z</time></trkpt><trkpt lat="38.7207911762086" lon="16.14888338545921"><ele>133.5</ele><time>2026-04-12T15:34:29Z</time></trkpt><trkpt lat="38.720750256848966" lon="16.14875781542344"><ele>132.0</ele><time>2026-04-12T15:34:30Z</time></trkpt><trkpt lat="38.720680521999604" lon="16.148645890952572"><ele>130.5</ele><time>2026-04-12T15:34:31Z</time></trkpt><trkpt lat="38.72059111400243" lon="16.148545215571346"><ele>129.0</ele><time>2026-04-12T15:34:32Z</time></trkpt><trkpt lat="38.72049834805071" lon="16.14844680681948"><ele>129.0</ele><time>2026-04-12T15:34:33Z</time></trkpt><trkpt lat="38.72040063824441" lon="16.14834551732504"><ele>129.0</ele><time>2026-04-12T15:34:34Z</time></trkpt><trkpt lat="38.720297221943184" lon="16.14824290707542"><ele>129.0</ele><time>2026-04-12T15:34:35Z</time></trkpt><trkpt lat="38.72020540479437" lon="16.148150531022598"><ele>129.0</ele><time>2026-04-12T15:34:36Z</time></trkpt><trkpt lat="38.720117326856744" lon="16.14805612686944"><ele>130.5</ele><time>2026-04-12T15:34:37Z</time></trkpt><trkpt lat="38.720025841809125" lon="16.14795859377398"><ele>132.0</ele><time>2026-04-12T15:34:38Z</time></trkpt><trkpt lat="38.719924167978" lon="16.14787022225891"><ele>133.5</ele><time>2026-04-12T15:34:39Z</time></trkpt><trkpt lat="38.71981015144191" lon="16.147775054925102"><ele>135.0</ele><time>2026-04-12T15:34:40Z</time></trkpt><trkpt lat="38.71966715344506" lon="16.14771921000285"><ele>135.0</ele><time>2026-04-12T15:34:41Z</time></trkpt><trkpt lat="38.71951278559535" lon="16.147675051872834"><ele>135.0</ele><time>2026-04-12T15:34:42Z</time></trkpt><trkpt lat="38.71936176994982" lon="16.14763509264223"><ele>135.0</ele><time>2026-04-12T15:34:43Z</time></trkpt><trkpt lat="38.719220567255945" lon="16.14758784528421"><ele>135.75</ele><time>2026-04-12T15:34:44Z</time></trkpt><trkpt lat="38.71909125424223" lon="16.14752855209394"><ele>136.5</ele><time>2026-04-12T15:34:45Z</time></trkpt><trkpt lat="38.718955311536575" lon="16.147464721819198"><ele>137.25</ele><time>2026-04-12T15:34:46Z</time></trkpt><trkpt lat="38.718840906819075" lon="16.147349333354274"><ele>138.0</ele><time>2026-04-12T15:34:47Z</time></trkpt><trkpt lat="38.71873012615951" lon="16.147217518409402"><ele>138.0</ele><time>2026-04-12T15:34:48Z</time></trkpt><trkpt lat="38.71862095775219" lon="16.1470732029404"><ele>138.0</ele><time>2026-04-12T15:34:49Z</time></trkpt><trkpt lat="38.71851420773576" lon="16.14692065964901"><ele>138.0</ele><time>2026-04-12T15:34:50Z</time></trkpt><trkpt lat="38.71840176502827" lon="16.14676341388313"><ele>141.33333333333334</ele><time>2026-04-12T15:34:51Z</time></trkpt><trkpt lat="38.71829862089796" lon="16.14660479461522"><ele>144.66666666666669</ele><time>2026-04-12T15:34:52Z</time></trkpt><trkpt lat="38.718206738837196" lon="16.146454304644024"><ele>148.0</ele><time>2026-04-12T15:34:53Z</time></trkpt><trkpt lat="38.718114603382794" lon="16.14630537908456"><ele>148.0</ele><time>2026-04-12T15:34:54Z</time></trkpt><trkpt lat="38.718029259828384" lon="16.146132642441653"><ele>148.0</ele><time>2026-04-12T15:34:55Z</time></trkpt><trkpt lat="38.71790754303343" lon="16.14596249759345"><ele>148.0</ele><time>2026-04-12T15:34:56Z</time></trkpt><trkpt lat="38.717764770248124" lon="16.145788987717086"><ele>149.0</ele><time>2026-04-12T15:34:57Z</time></trkpt><trkpt lat="38.71758887302388" lon="16.145634190504772"><ele>150.0</ele><time>2026-04-12T15:34:58Z</time></trkpt><trkpt lat="38.71742114204728" lon="16.14546208319969"><ele>151.0</ele><time>2026-04-12T15:34:59Z</time></trkpt><trkpt lat="38.717247555992735" lon="16.14530494819546"><ele>151.0</ele><time>2026-04-12T15:35:00Z</time></trkpt><trkpt lat="38.71708266824048" lon="16.14515808646386"><ele>151.0</ele><time>2026-04-12T15:35:01Z</time></trkpt><trkpt lat="38.71694093163857" lon="16.145003953657053"><ele>151.0</ele><time>2026-04-12T15:35:02Z</time></trkpt><trkpt lat="38.716796315178854" lon="16.144866821050364"><ele>152.0</ele><time>2026-04-12T15:35:03Z</time></trkpt><trkpt lat="38.716649700052656" lon="16.14472924289745"><ele>153.0</ele><time>2026-04-12T15:35:04Z</time></trkpt><trkpt lat="38.71649838305208" lon="16.14459617883146"><ele>154.0</ele><time>2026-04-12T15:35:05Z</time></trkpt><trkpt lat="38.71636166149958" lon="16.144434995239493"><ele>154.0</ele><time>2026-04-12T15:35:06Z</time></trkpt><trkpt lat="38.71624160997135" lon="16.144256983904377"><ele>154.0</ele><time>2026-04-12T15:35:07Z</time></trkpt><trkpt lat="38.716117067688714" lon="16.144106222775072"><ele>154.0</ele><time>2026-04-12T15:35:08Z</time></trkpt><trkpt lat="38.71598305498776" lon="16.14397141158506"><ele>156.66666666666669</ele><time>2026-04-12T15:35:09Z</time></trkpt><trkpt lat="38.71586234174895" lon="16.143823925394134"><ele>159.33333333333334</ele><time>2026-04-12T15:35:10Z</time></trkpt><trkpt lat="38.71574258465704" lon="16.143675863919693"><ele>162.0</ele><time>2026-04-12T15:35:11Z</time></trkpt><trkpt lat="38.71562051297852" lon="16.143526101965232"><ele>162.0</ele><time>2026-04-12T15:35:12Z</time></trkpt><trkpt lat="38.715495169537185" lon="16.143369820552632"><ele>162.0</ele><time>2026-04-12T15:35:13Z</time></trkpt><trkpt lat="38.71536848511548" lon="16.143211057584082"><ele>162.0</ele><time>2026-04-12T15:35:14Z</time></trkpt><trkpt lat="38.715238166000795" lon="16.143048680015067"><ele>162.0</ele><time>2026-04-12T15:35:15Z</time></trkpt><trkpt lat="38.71509966505057" lon="16.142890972888196"><ele>162.0</ele><time>2026-04-12T15:35:16Z</time></trkpt><trkpt lat="38.71495020141449" lon="16.14273880969292"><ele>162.0</ele><time>2026-04-12T15:35:17Z</time></trkpt><trkpt lat="38.71479182316214" lon="16.142587466444454"><ele>162.0</ele><time>2026-04-12T15:35:18Z</time></trkpt><trkpt lat="38.714621075943235" lon="16.14243932025508"><ele>162.0</ele><time>2026-04-12T15:35:19Z</time></trkpt><trkpt lat="38.71445264540368" lon="16.14229386438364"><ele>162.0</ele><time>2026-04-12T15:35:20Z</time></trkpt><trkpt lat="38.71427666573071" lon="16.142141115666316"><ele>163.0</ele><time>2026-04-12T15:35:21Z</time></trkpt><trkpt lat="38.71409849664639" lon="16.14198692741331"><ele>164.0</ele><time>2026-04-12T15:35:22Z</time></trkpt><trkpt lat="38.713918880737985" lon="16.14182905914639"><ele>165.0</ele><time>2026-04-12T15:35:23Z</time></trkpt><trkpt lat="38.71374427556171" lon="16.14167200707103"><ele>165.0</ele><time>2026-04-12T15:35:24Z</time></trkpt><trkpt lat="38.71358010739301" lon="16.141506482808175"><ele>165.0</ele><time>2026-04-12T15:35:25Z</time></trkpt><trkpt lat="38.71345190934757" lon="16.141336317599546"><ele>165.0</ele><time>2026-04-12T15:35:26Z</time></trkpt><trkpt lat="38.71331486076038" lon="16.14117898879437"><ele>165.0</ele><time>2026-04-12T15:35:27Z</time></trkpt><trkpt lat="38.71316743732584" lon="16.14102337903886"><ele>165.0</ele><time>2026-04-12T15:35:28Z</time></trkpt><trkpt lat="38.713003592771464" lon="16.14088829545785"><ele>165.0</ele><time>2026-04-12T15:35:29Z</time></trkpt><trkpt lat="38.71284890061297" lon="16.140736727245162"><ele>165.66666666666666</ele><time>2026-04-12T15:35:30Z</time></trkpt><trkpt lat="38.71269060195439" lon="16.140581805357876"><ele>166.33333333333331</ele><time>2026-04-12T15:35:31Z</time></trkpt><trkpt lat="38.71253100373477" lon="16.140429126298752"><ele>167.0</ele><time>2026-04-12T15:35:32Z</time></trkpt><trkpt lat="38.71237110641901" lon="16.140276512865245"><ele>167.0</ele><time>2026-04-12T15:35:33Z</time></trkpt><trkpt lat="38.71222207126303" lon="16.140113788704202"><ele>167.0</ele><time>2026-04-12T15:35:34Z</time></trkpt><trkpt lat="38.71205991229806" lon="16.139980081856308"><ele>167.0</ele><time>2026-04-12T15:35:35Z</time></trkpt><trkpt lat="38.71190906666298" lon="16.13981768968784"><ele>168.66666666666666</ele><time>2026-04-12T15:35:36Z</time></trkpt><trkpt lat="38.71176198832163" lon="16.13965105658418"><ele>170.33333333333334</ele><time>2026-04-12T15:35:37Z</time></trkpt><trkpt lat="38.71164379808927" lon="16.139457900946418"><ele>172.0</ele><time>2026-04-12T15:35:38Z</time></trkpt><trkpt lat="38.71150721602122" lon="16.139289769258294"><ele>172.0</ele><time>2026-04-12T15:35:39Z</time></trkpt><trkpt lat="38.71135971449761" lon="16.13914666130591"><ele>172.0</ele><time>2026-04-12T15:35:40Z</time></trkpt><trkpt lat="38.71121773427678" lon="16.138997172708876"><ele>172.0</ele><time>2026-04-12T15:35:41Z</time></trkpt><trkpt lat="38.71107240297154" lon="16.138858003702303"><ele>173.66666666666669</ele><time>2026-04-12T15:35:42Z</time></trkpt><trkpt lat="38.710922707460114" lon="16.13872543689601"><ele>175.33333333333334</ele><time>2026-04-12T15:35:43Z</time></trkpt><trkpt lat="38.71077405915037" lon="16.13859706235085"><ele>177.0</ele><time>2026-04-12T15:35:44Z</time></trkpt><trkpt lat="38.710622998873326" lon="16.13847139833966"><ele>177.0</ele><time>2026-04-12T15:35:45Z</time></trkpt><trkpt lat="38.71047729783335" lon="16.138345799846643"><ele>177.0</ele><time>2026-04-12T15:35:46Z</time></trkpt><trkpt lat="38.71033673631674" lon="16.138217345093395"><ele>177.0</ele><time>2026-04-12T15:35:47Z</time></trkpt><trkpt lat="38.710209602361736" lon="16.138073397121605"><ele>181.0</ele><time>2026-04-12T15:35:48Z</time></trkpt><trkpt lat="38.71010100185329" lon="16.137907473370344"><ele>185.0</ele><time>2026-04-12T15:35:49Z</time></trkpt><trkpt lat="38.71000553814159" lon="16.137712124202764"><ele>189.0</ele><time>2026-04-12T15:35:50Z</time></trkpt><trkpt lat="38.709923971046" lon="16.137500016591968"><ele>185.33333333333334</ele><time>2026-04-12T15:35:51Z</time></trkpt><trkpt lat="38.709847614587076" lon="16.137278020393587"><ele>181.66666666666669</ele><time>2026-04-12T15:35:52Z</time></trkpt><trkpt lat="38.70977410624459" lon="16.13705865230731"><ele>178.0</ele><time>2026-04-12T15:35:53Z</time></trkpt><trkpt lat="38.70969172779934" lon="16.13684818035939"><ele>178.0</ele><time>2026-04-12T15:35:54Z</time></trkpt><trkpt lat="38.7095929821104" lon="16.136646331194864"><ele>178.0</ele><time>2026-04-12T15:35:55Z</time></trkpt><trkpt lat="38.70948240458124" lon="16.136447382952756"><ele>178.0</ele><time>2026-04-12T15:35:56Z</time></trkpt><trkpt lat="38.709397026280364" lon="16.136236143882034"><ele>183.33333333333334</ele><time>2026-04-12T15:35:57Z</time></trkpt><trkpt lat="38.70932604258029" lon="16.136024367721813"><ele>188.66666666666669</ele><time>2026-04-12T15:35:58Z</time></trkpt><trkpt lat="38.709283833848644" lon="16.135800588457922"><ele>194.0</ele><time>2026-04-12T15:35:59Z</time></trkpt><trkpt lat="38.709242047398185" lon="16.135576672523236"><ele>194.0</ele><time>2026-04-12T15:36:00Z</time></trkpt><trkpt lat="38.70916430070726" lon="16.135371748871123"><ele>194.0</ele><time>2026-04-12T15:36:01Z</time></trkpt><trkpt lat="38.70906564083111" lon="16.135172289308503"><ele>194.0</ele><time>2026-04-12T15:36:02Z</time></trkpt><trkpt lat="38.70895934381525" lon="16.13498290004758"><ele>190.0</ele><time>2026-04-12T15:36:03Z</time></trkpt><trkpt lat="38.7088641061968" lon="16.1347901510939"><ele>186.0</ele><time>2026-04-12T15:36:04Z</time></trkpt><trkpt lat="38.70876673884942" lon="16.1346090649915"><ele>182.0</ele><time>2026-04-12T15:36:05Z</time></trkpt><trkpt lat="38.70866578304908" lon="16.134434158950903"><ele>186.0</ele><time>2026-04-12T15:36:06Z</time></trkpt><trkpt lat="38.708557357931575" lon="16.13427513306134"><ele>190.0</ele><time>2026-04-12T15:36:07Z</time></trkpt><trkpt lat="38.708437458523576" lon="16.134136233481833"><ele>194.0</ele><time>2026-04-12T15:36:08Z</time></trkpt><trkpt lat="38.70831069483057" lon="16.133999847964105"><ele>194.0</ele><time>2026-04-12T15:36:09Z</time></trkpt><trkpt lat="38.70823559565325" lon="16.133882713819016"><ele>194.0</ele><time>2026-04-12T15:36:10Z</time></trkpt><trkpt lat="38.70812387512929" lon="16.133731614301023"><ele>194.0</ele><time>2026-04-12T15:36:11Z</time></trkpt><trkpt lat="38.70799856836091" lon="16.133531278931372"><ele>194.0</ele><time>2026-04-12T15:36:12Z</time></trkpt><trkpt lat="38.707884212779376" lon="16.133346568547765"><ele>194.0</ele><time>2026-04-12T15:36:13Z</time></trkpt><trkpt lat="38.70777008582096" lon="16.133159591638453"><ele>194.0</ele><time>2026-04-12T15:36:14Z</time></trkpt><trkpt lat="38.70768626579475" lon="16.13295477788442"><ele>194.33333333333334</ele><time>2026-04-12T15:36:15Z</time></trkpt><trkpt lat="38.70759839413135" lon="16.13274606464956"><ele>194.66666666666669</ele><time>2026-04-12T15:36:16Z</time></trkpt><trkpt lat="38.707514203316215" lon="16.132540274430347"><ele>195.0</ele><time>2026-04-12T15:36:17Z</time></trkpt><trkpt lat="38.70742498432589" lon="16.132344024196765"><ele>195.0</ele><time>2026-04-12T15:36:18Z</time></trkpt><trkpt lat="38.70730839505246" lon="16.132174218308613"><ele>195.0</ele><time>2026-04-12T15:36:19Z</time></trkpt><trkpt lat="38.70718797164375" lon="16.132014664013383"><ele>195.0</ele><time>2026-04-12T15:36:20Z</time></trkpt><trkpt lat="38.707045615626775" lon="16.131871937001783"><ele>196.0</ele><time>2026-04-12T15:36:21Z</time></trkpt><trkpt lat="38.70690170678466" lon="16.131749579783705"><ele>197.0</ele><time>2026-04-12T15:36:22Z</time></trkpt><trkpt lat="38.706762153681844" lon="16.131625276551706"><ele>198.0</ele><time>2026-04-12T15:36:23Z</time></trkpt><trkpt lat="38.706617413351275" lon="16.131500130342364"><ele>198.0</ele><time>2026-04-12T15:36:24Z</time></trkpt><trkpt lat="38.70647628390754" lon="16.13136267543129"><ele>198.0</ele><time>2026-04-12T15:36:25Z</time></trkpt><trkpt lat="38.706324434927346" lon="16.131220027482428"><ele>198.0</ele><time>2026-04-12T15:36:26Z</time></trkpt><trkpt lat="38.706201189623904" lon="16.131044107180937"><ele>198.0</ele><time>2026-04-12T15:36:27Z</time></trkpt><trkpt lat="38.70608124640446" lon="16.130887792189192"><ele>198.0</ele><time>2026-04-12T15:36:28Z</time></trkpt><trkpt lat="38.705951509432815" lon="16.13071988521903"><ele>198.0</ele><time>2026-04-12T15:36:29Z</time></trkpt><trkpt lat="38.70582714337936" lon="16.13056524160393"><ele>200.66666666666669</ele><time>2026-04-12T15:36:29.999Z</time></trkpt><trkpt lat="38.70570565762292" lon="16.130402487516307"><ele>203.33333333333334</ele><time>2026-04-12T15:36:30.999Z</time></trkpt><trkpt lat="38.70557475048713" lon="16.130234224151632"><ele>206.0</ele><time>2026-04-12T15:36:31.999Z</time></trkpt><trkpt lat="38.705444233247675" lon="16.130065970497096"><ele>206.0</ele><time>2026-04-12T15:36:32.999Z</time></trkpt><trkpt lat="38.705312314321134" lon="16.129893675888493"><ele>206.0</ele><time>2026-04-12T15:36:33.999Z</time></trkpt><trkpt lat="38.70516059956631" lon="16.129740232148226"><ele>206.0</ele><time>2026-04-12T15:36:34.999Z</time></trkpt><trkpt lat="38.70504575923908" lon="16.12956301739253"><ele>205.75</ele><time>2026-04-12T15:36:35.999Z</time></trkpt><trkpt lat="38.70494910398627" lon="16.129399434063565"><ele>205.5</ele><time>2026-04-12T15:36:36.999Z</time></trkpt><trkpt lat="38.704862977345556" lon="16.129255384791378"><ele>205.25</ele><time>2026-04-12T15:36:37.999Z</time></trkpt><trkpt lat="38.70480146601369" lon="16.12910676347446"><ele>205.0</ele><time>2026-04-12T15:36:38.999Z</time></trkpt><trkpt lat="38.70472281909633" lon="16.128984190707065"><ele>205.0</ele><time>2026-04-12T15:36:39.999Z</time></trkpt><trkpt lat="38.70463498006624" lon="16.1288536078646"><ele>205.0</ele><time>2026-04-12T15:36:40.999Z</time></trkpt><trkpt lat="38.70452918902691" lon="16.128744028273033"><ele>205.0</ele><time>2026-04-12T15:36:41.999Z</time></trkpt><trkpt lat="38.70441198321385" lon="16.128681200805982"><ele>205.0</ele><time>2026-04-12T15:36:42.999Z</time></trkpt><trkpt lat="38.70430122900322" lon="16.128641175257563"><ele>208.8</ele><time>2026-04-12T15:36:43.999Z</time></trkpt><trkpt lat="38.70420600180168" lon="16.128621709183435"><ele>212.6</ele><time>2026-04-12T15:36:45Z</time></trkpt><trkpt lat="38.704119004307195" lon="16.12855609673589"><ele>216.39999999999998</ele><time>2026-04-12T15:36:46Z</time></trkpt><trkpt lat="38.704055530124016" lon="16.12842758706574"><ele>220.2</ele><time>2026-04-12T15:36:47Z</time></trkpt><trkpt lat="38.704015381188775" lon="16.12836063374545"><ele>224.0</ele><time>2026-04-12T15:36:48Z</time></trkpt><trkpt lat="38.70396846391841" lon="16.128266976877647"><ele>220.39999999999998</ele><time>2026-04-12T15:36:49Z</time></trkpt><trkpt lat="38.70391861510423" lon="16.12815957448035"><ele>216.79999999999998</ele><time>2026-04-12T15:36:50Z</time></trkpt><trkpt lat="38.70385539361215" lon="16.128059412728472"><ele>213.2</ele><time>2026-04-12T15:36:51Z</time></trkpt><trkpt lat="38.70379243837021" lon="16.127953463562328"><ele>209.60000000000002</ele><time>2026-04-12T15:36:52Z</time></trkpt><trkpt lat="38.703733579689484" lon="16.127840421922087"><ele>206.0</ele><time>2026-04-12T15:36:53Z</time></trkpt><trkpt lat="38.70366582662135" lon="16.12773529699936"><ele>206.0</ele><time>2026-04-12T15:36:54Z</time></trkpt><trkpt lat="38.70361729273346" lon="16.127609862329596"><ele>206.0</ele><time>2026-04-12T15:36:55Z</time></trkpt><trkpt lat="38.70354404038151" lon="16.12748504991322"><ele>206.0</ele><time>2026-04-12T15:36:56Z</time></trkpt><trkpt lat="38.703459158126364" lon="16.12735189849234"><ele>206.0</ele><time>2026-04-12T15:36:57Z</time></trkpt><trkpt lat="38.7033786929478" lon="16.12723768280027"><ele>210.0</ele><time>2026-04-12T15:36:58Z</time></trkpt><trkpt lat="38.70327438051505" lon="16.127123536141017"><ele>214.0</ele><time>2026-04-12T15:36:59Z</time></trkpt><trkpt lat="38.70318314333525" lon="16.12699613708782"><ele>218.0</ele><time>2026-04-12T15:37:00Z</time></trkpt><trkpt lat="38.70309879804111" lon="16.12687104376641"><ele>222.0</ele><time>2026-04-12T15:37:01Z</time></trkpt><trkpt lat="38.7030098839083" lon="16.12675359848085"><ele>222.0</ele><time>2026-04-12T15:37:02Z</time></trkpt><trkpt lat="38.70292793906676" lon="16.126636797881567"><ele>222.0</ele><time>2026-04-12T15:37:03Z</time></trkpt><trkpt lat="38.702867707042145" lon="16.126503690012587"><ele>222.0</ele><time>2026-04-12T15:37:04Z</time></trkpt><trkpt lat="38.70279420401172" lon="16.12638532580836"><ele>222.0</ele><time>2026-04-12T15:37:05Z</time></trkpt><trkpt lat="38.70274395715916" lon="16.126242445830936"><ele>224.5</ele><time>2026-04-12T15:37:06Z</time></trkpt><trkpt lat="38.702669745373456" lon="16.126103087420994"><ele>227.0</ele><time>2026-04-12T15:37:07Z</time></trkpt><trkpt lat="38.702591722093885" lon="16.12597343044526"><ele>229.5</ele><time>2026-04-12T15:37:08Z</time></trkpt><trkpt lat="38.702524402456675" lon="16.125839240223037"><ele>232.0</ele><time>2026-04-12T15:37:09Z</time></trkpt><trkpt lat="38.70245594632902" lon="16.125693729165015"><ele>232.0</ele><time>2026-04-12T15:37:10Z</time></trkpt><trkpt lat="38.702388043012164" lon="16.125542904063234"><ele>232.0</ele><time>2026-04-12T15:37:11Z</time></trkpt><trkpt lat="38.70232840320918" lon="16.1254149709178"><ele>232.0</ele><time>2026-04-12T15:37:12Z</time></trkpt><trkpt lat="38.70229181600092" lon="16.12529054356684"><ele>232.0</ele><time>2026-04-12T15:37:13Z</time></trkpt><trkpt lat="38.70228368591055" lon="16.125165395982503"><ele>232.0</ele><time>2026-04-12T15:37:14Z</time></trkpt><trkpt lat="38.702242014966195" lon="16.12504325562492"><ele>232.0</ele><time>2026-04-12T15:37:15Z</time></trkpt><trkpt lat="38.70221770871408" lon="16.12492369136378"><ele>232.0</ele><time>2026-04-12T15:37:16Z</time></trkpt><trkpt lat="38.70215739032581" lon="16.124829380302646"><ele>232.0</ele><time>2026-04-12T15:37:17Z</time></trkpt><trkpt lat="38.70210684329247" lon="16.124727593949693"><ele>232.0</ele><time>2026-04-12T15:37:18Z</time></trkpt><trkpt lat="38.70205172025055" lon="16.12465859081931"><ele>238.66666666666666</ele><time>2026-04-12T15:37:19Z</time></trkpt><trkpt lat="38.701951325396195" lon="16.124522231092886"><ele>245.33333333333331</ele><time>2026-04-12T15:37:20Z</time></trkpt><trkpt lat="38.70184638509891" lon="16.124393530466243"><ele>252.0</ele><time>2026-04-12T15:37:21Z</time></trkpt><trkpt lat="38.70172181168811" lon="16.124263453870316"><ele>252.0</ele><time>2026-04-12T15:37:22Z</time></trkpt><trkpt lat="38.70158335138966" lon="16.124150187154132"><ele>252.0</ele><time>2026-04-12T15:37:23Z</time></trkpt><trkpt lat="38.70146634801205" lon="16.12409090367888"><ele>252.0</ele><time>2026-04-12T15:37:24Z</time></trkpt><trkpt lat="38.70137784452443" lon="16.12398633136691"><ele>252.0</ele><time>2026-04-12T15:37:25Z</time></trkpt><trkpt lat="38.70129993649633" lon="16.123877333554145"><ele>251.8</ele><time>2026-04-12T15:37:26Z</time></trkpt><trkpt lat="38.70122166226599" lon="16.12377044697321"><ele>251.6</ele><time>2026-04-12T15:37:27Z</time></trkpt><trkpt lat="38.70114589404826" lon="16.123677253954266"><ele>251.40000000000003</ele><time>2026-04-12T15:37:28Z</time></trkpt><trkpt lat="38.701057864544296" lon="16.123621553047478"><ele>251.20000000000002</ele><time>2026-04-12T15:37:29Z</time></trkpt><trkpt lat="38.70096927732967" lon="16.123571506379708"><ele>251.0</ele><time>2026-04-12T15:37:30Z</time></trkpt><trkpt lat="38.700874594136465" lon="16.12353754229981"><ele>251.0</ele><time>2026-04-12T15:37:31Z</time></trkpt><trkpt lat="38.700783443044045" lon="16.12347864983431"><ele>251.00000000000003</ele><time>2026-04-12T15:37:32Z</time></trkpt><trkpt lat="38.70068752740675" lon="16.123432822348608"><ele>251.00000000000003</ele><time>2026-04-12T15:37:33Z</time></trkpt><trkpt lat="38.70058081649637" lon="16.123384723186504"><ele>251.0</ele><time>2026-04-12T15:37:34Z</time></trkpt><trkpt lat="38.70049860721807" lon="16.123320638593174"><ele>251.0</ele><time>2026-04-12T15:37:35Z</time></trkpt><trkpt lat="38.70040240272551" lon="16.123240003748624"><ele>255.25</ele><time>2026-04-12T15:37:36Z</time></trkpt><trkpt lat="38.700307379900615" lon="16.12311343252408"><ele>259.5</ele><time>2026-04-12T15:37:37Z</time></trkpt><trkpt lat="38.70020409495536" lon="16.122991723023944"><ele>263.75</ele><time>2026-04-12T15:37:38Z</time></trkpt><trkpt lat="38.70010681625641" lon="16.122875208675026"><ele>268.0</ele><time>2026-04-12T15:37:39Z</time></trkpt><trkpt lat="38.69996275857124" lon="16.12271557063786"><ele>268.0</ele><time>2026-04-12T15:37:40Z</time></trkpt><trkpt lat="38.699828867798786" lon="16.122570047400707"><ele>268.0</ele><time>2026-04-12T15:37:41Z</time></trkpt><trkpt lat="38.69970467551761" lon="16.12243089351163"><ele>268.0</ele><time>2026-04-12T15:37:42Z</time></trkpt><trkpt lat="38.699604265288365" lon="16.122302648159753"><ele>270.25</ele><time>2026-04-12T15:37:43Z</time></trkpt><trkpt lat="38.699518821737996" lon="16.122186919886264"><ele>272.5</ele><time>2026-04-12T15:37:44Z</time></trkpt><trkpt lat="38.69943676567389" lon="16.12208770474283"><ele>274.75</ele><time>2026-04-12T15:37:45Z</time></trkpt><trkpt lat="38.699342177588676" lon="16.12197663903433"><ele>277.0</ele><time>2026-04-12T15:37:46Z</time></trkpt><trkpt lat="38.6992407003848" lon="16.121871440402497"><ele>277.0</ele><time>2026-04-12T15:37:47Z</time></trkpt><trkpt lat="38.69914779644291" lon="16.121784545190717"><ele>277.0</ele><time>2026-04-12T15:37:48Z</time></trkpt><trkpt lat="38.69904302959879" lon="16.121728333086107"><ele>277.0</ele><time>2026-04-12T15:37:49Z</time></trkpt><trkpt lat="38.69894797820697" lon="16.121683444392417"><ele>277.0</ele><time>2026-04-12T15:37:50Z</time></trkpt><trkpt lat="38.69886968703314" lon="16.12164179221533"><ele>277.0</ele><time>2026-04-12T15:37:51Z</time></trkpt><trkpt lat="38.69881427921443" lon="16.121589191220792"><ele>276.8</ele><time>2026-04-12T15:37:52Z</time></trkpt><trkpt lat="38.698784088250335" lon="16.121505467791483"><ele>276.6</ele><time>2026-04-12T15:37:53Z</time></trkpt><trkpt lat="38.69878367115495" lon="16.121418869907068"><ele>276.40000000000003</ele><time>2026-04-12T15:37:54Z</time></trkpt><trkpt lat="38.69888156380436" lon="16.12129175153617"><ele>276.2</ele><time>2026-04-12T15:37:56Z</time></trkpt><trkpt lat="38.698945771481974" lon="16.121208056045685"><ele>276.0</ele><time>2026-04-12T15:37:57Z</time></trkpt><trkpt lat="38.69899321190113" lon="16.121110863089886"><ele>276.0</ele><time>2026-04-12T15:37:58Z</time></trkpt><trkpt lat="38.699057668229" lon="16.121008197971197"><ele>276.0</ele><time>2026-04-12T15:37:59Z</time></trkpt><trkpt lat="38.69911934501438" lon="16.120884230185897"><ele>276.0</ele><time>2026-04-12T15:38:00Z</time></trkpt><trkpt lat="38.69915437032376" lon="16.120737011611833"><ele>276.0</ele><time>2026-04-12T15:38:01Z</time></trkpt><trkpt lat="38.69913474521412" lon="16.120580359476836"><ele>274.5</ele><time>2026-04-12T15:38:02Z</time></trkpt><trkpt lat="38.6991026646811" lon="16.12043818703435"><ele>273.0</ele><time>2026-04-12T15:38:03Z</time></trkpt><trkpt lat="38.69906145212611" lon="16.120299580272196"><ele>271.5</ele><time>2026-04-12T15:38:04Z</time></trkpt><trkpt lat="38.69901109004997" lon="16.12017026592713"><ele>270.0</ele><time>2026-04-12T15:38:05Z</time></trkpt><trkpt lat="38.698967140760786" lon="16.120007038688847"><ele>266.3333333333333</ele><time>2026-04-12T15:38:06Z</time></trkpt><trkpt lat="38.69891043573823" lon="16.11980666512361"><ele>262.66666666666663</ele><time>2026-04-12T15:38:07Z</time></trkpt><trkpt lat="38.6988485429195" lon="16.119569601369"><ele>259.0</ele><time>2026-04-12T15:38:08Z</time></trkpt><trkpt lat="38.698784676272524" lon="16.11930612249003"><ele>255.5</ele><time>2026-04-12T15:38:09Z</time></trkpt><trkpt lat="38.69870707118726" lon="16.119030133112904"><ele>252.0</ele><time>2026-04-12T15:38:10Z</time></trkpt><trkpt lat="38.698657707671586" lon="16.11874911808877"><ele>252.0</ele><time>2026-04-12T15:38:11Z</time></trkpt><trkpt lat="38.69859429455067" lon="16.11851059595947"><ele>252.0</ele><time>2026-04-12T15:38:12Z</time></trkpt><trkpt lat="38.69851126580108" lon="16.1183253356022"><ele>252.0</ele><time>2026-04-12T15:38:13Z</time></trkpt><trkpt lat="38.69838663192139" lon="16.11813815321722"><ele>266.0</ele><time>2026-04-12T15:38:14Z</time></trkpt><trkpt lat="38.69821949750619" lon="16.117946407177197"><ele>280.0</ele><time>2026-04-12T15:38:15Z</time></trkpt><trkpt lat="38.69803671152946" lon="16.11777001639133"><ele>280.0</ele><time>2026-04-12T15:38:16Z</time></trkpt><trkpt lat="38.697885112309166" lon="16.117632717090693"><ele>280.0</ele><time>2026-04-12T15:38:17Z</time></trkpt><trkpt lat="38.69777428739486" lon="16.11749923874448"><ele>280.0</ele><time>2026-04-12T15:38:18Z</time></trkpt><trkpt lat="38.69770482386232" lon="16.11733754151243"><ele>288.66666666666663</ele><time>2026-04-12T15:38:19Z</time></trkpt><trkpt lat="38.69762611466616" lon="16.117145724114067"><ele>297.3333333333333</ele><time>2026-04-12T15:38:20Z</time></trkpt><trkpt lat="38.69752297939761" lon="16.116970566910695"><ele>306.0</ele><time>2026-04-12T15:38:21Z</time></trkpt><trkpt lat="38.697427137498536" lon="16.11684473419977"><ele>306.0</ele><time>2026-04-12T15:38:22Z</time></trkpt><trkpt lat="38.69739799030763" lon="16.11671907575763"><ele>306.0</ele><time>2026-04-12T15:38:23Z</time></trkpt><trkpt lat="38.69742245096679" lon="16.116614485593647"><ele>306.0</ele><time>2026-04-12T15:38:24.001Z</time></trkpt><trkpt lat="38.6974965571729" lon="16.116517319675623"><ele>306.0</ele><time>2026-04-12T15:38:25.001Z</time></trkpt><trkpt lat="38.697588997757784" lon="16.116339958313336"><ele>310.0</ele><time>2026-04-12T15:38:26.001Z</time></trkpt><trkpt lat="38.69764154019417" lon="16.116131301569308"><ele>314.0</ele><time>2026-04-12T15:38:27.001Z</time></trkpt><trkpt lat="38.697706482017644" lon="16.1159080533762"><ele>318.0</ele><time>2026-04-12T15:38:28.001Z</time></trkpt><trkpt lat="38.6977678592904" lon="16.11570317009561"><ele>302.0</ele><time>2026-04-12T15:38:29.001Z</time></trkpt><trkpt lat="38.697836691391906" lon="16.115517459212995"><ele>286.0</ele><time>2026-04-12T15:38:30.001Z</time></trkpt><trkpt lat="38.6978997975798" lon="16.115335289304376"><ele>270.0</ele><time>2026-04-12T15:38:31.001Z</time></trkpt><trkpt lat="38.697881768203445" lon="16.115151144363733"><ele>270.0</ele><time>2026-04-12T15:38:32.001Z</time></trkpt><trkpt lat="38.6977976802089" lon="16.114939733992962"><ele>270.0</ele><time>2026-04-12T15:38:33.001Z</time></trkpt><trkpt lat="38.697699742401745" lon="16.11474097357782"><ele>270.0</ele><time>2026-04-12T15:38:34.001Z</time></trkpt><trkpt lat="38.69756743843106" lon="16.114494502263156"><ele>287.0</ele><time>2026-04-12T15:38:35.001Z</time></trkpt><trkpt lat="38.69741462795038" lon="16.11429821497695"><ele>304.0</ele><time>2026-04-12T15:38:35.999Z</time></trkpt><trkpt lat="38.69722018845174" lon="16.11410031978488"><ele>305.0</ele><time>2026-04-12T15:38:36.999Z</time></trkpt><trkpt lat="38.69702374855029" lon="16.11396599981089"><ele>306.0</ele><time>2026-04-12T15:38:37.999Z</time></trkpt><trkpt lat="38.696861180055805" lon="16.11385620137165"><ele>307.0</ele><time>2026-04-12T15:38:38.999Z</time></trkpt><trkpt lat="38.69671144404564" lon="16.11377065447018"><ele>307.0</ele><time>2026-04-12T15:38:39.999Z</time></trkpt><trkpt lat="38.69657133720452" lon="16.113717694897435"><ele>307.0</ele><time>2026-04-12T15:38:40.999Z</time></trkpt><trkpt lat="38.696460733558084" lon="16.113689288439797"><ele>307.0</ele><time>2026-04-12T15:38:41.999Z</time></trkpt><trkpt lat="38.696385425595125" lon="16.11367387146775"><ele>307.0</ele><time>2026-04-12T15:38:42.999Z</time></trkpt><trkpt lat="38.69629085492867" lon="16.113664115673174"><ele>307.0</ele><time>2026-04-12T15:38:43.999Z</time></trkpt><trkpt lat="38.696178064753546" lon="16.113593360932192"><ele>307.0</ele><time>2026-04-12T15:38:44.999Z</time></trkpt><trkpt lat="38.69609765842074" lon="16.113486134854934"><ele>307.0</ele><time>2026-04-12T15:38:46.999Z</time></trkpt><trkpt lat="38.69604098029427" lon="16.11341647324213"><ele>307.0</ele><time>2026-04-12T15:38:48Z</time></trkpt><trkpt lat="38.69597114804425" lon="16.11332934214401"><ele>307.0</ele><time>2026-04-12T15:38:49Z</time></trkpt><trkpt lat="38.69589954939336" lon="16.113221944429764"><ele>307.0</ele><time>2026-04-12T15:38:50Z</time></trkpt><trkpt lat="38.695831860424285" lon="16.113073072639825"><ele>309.0</ele><time>2026-04-12T15:38:51Z</time></trkpt><trkpt lat="38.69576277225422" lon="16.112928050561617"><ele>311.0</ele><time>2026-04-12T15:38:52Z</time></trkpt><trkpt lat="38.69570442438187" lon="16.112775970112114"><ele>313.0</ele><time>2026-04-12T15:38:53Z</time></trkpt><trkpt lat="38.69564645969879" lon="16.11263268742303"><ele>315.0</ele><time>2026-04-12T15:38:54Z</time></trkpt><trkpt lat="38.69559711428791" lon="16.11249529439434"><ele>312.25</ele><time>2026-04-12T15:38:55Z</time></trkpt><trkpt lat="38.69553621539458" lon="16.11236165784937"><ele>309.5</ele><time>2026-04-12T15:38:56Z</time></trkpt><trkpt lat="38.695464616137585" lon="16.112231756100584"><ele>306.75</ele><time>2026-04-12T15:38:57Z</time></trkpt><trkpt lat="38.69539271373101" lon="16.112110175121494"><ele>304.0</ele><time>2026-04-12T15:38:58Z</time></trkpt><trkpt lat="38.69528733459788" lon="16.112038095808536"><ele>307.5</ele><time>2026-04-12T15:38:59Z</time></trkpt><trkpt lat="38.69517868230237" lon="16.11197788919712"><ele>311.0</ele><time>2026-04-12T15:39:00Z</time></trkpt><trkpt lat="38.69505146455249" lon="16.111936402351674"><ele>314.5</ele><time>2026-04-12T15:39:01Z</time></trkpt><trkpt lat="38.6949092933493" lon="16.111870747604076"><ele>318.0</ele><time>2026-04-12T15:39:02Z</time></trkpt><trkpt lat="38.69473787614793" lon="16.111826530770784"><ele>318.0</ele><time>2026-04-12T15:39:03Z</time></trkpt><trkpt lat="38.69454164303103" lon="16.111779674371572"><ele>318.0</ele><time>2026-04-12T15:39:04Z</time></trkpt><trkpt lat="38.69436663755299" lon="16.11173208204235"><ele>318.0</ele><time>2026-04-12T15:39:05Z</time></trkpt><trkpt lat="38.694207833389484" lon="16.11167568325378"><ele>316.75</ele><time>2026-04-12T15:39:06Z</time></trkpt><trkpt lat="38.69405842196246" lon="16.11161256928145"><ele>315.5</ele><time>2026-04-12T15:39:07Z</time></trkpt><trkpt lat="38.69392098612012" lon="16.11156612267188"><ele>314.25</ele><time>2026-04-12T15:39:08Z</time></trkpt><trkpt lat="38.69381384702431" lon="16.11149325786752"><ele>313.0</ele><time>2026-04-12T15:39:09Z</time></trkpt><trkpt lat="38.693715528112016" lon="16.11140999021334"><ele>313.0</ele><time>2026-04-12T15:39:10Z</time></trkpt><trkpt lat="38.693628346111375" lon="16.11130142901692"><ele>313.0</ele><time>2026-04-12T15:39:11Z</time></trkpt><trkpt lat="38.69355615233834" lon="16.11119469723333"><ele>313.0</ele><time>2026-04-12T15:39:12Z</time></trkpt><trkpt lat="38.69348832751779" lon="16.111086765154173"><ele>313.0</ele><time>2026-04-12T15:39:13Z</time></trkpt><trkpt lat="38.693416118069436" lon="16.11098976315776"><ele>313.0</ele><time>2026-04-12T15:39:14Z</time></trkpt><trkpt lat="38.69334205680268" lon="16.110917240960966"><ele>315.5</ele><time>2026-04-12T15:39:15Z</time></trkpt><trkpt lat="38.693263414506674" lon="16.110867124708065"><ele>318.0</ele><time>2026-04-12T15:39:16Z</time></trkpt><trkpt lat="38.693183344475415" lon="16.110841916380075"><ele>320.5</ele><time>2026-04-12T15:39:17Z</time></trkpt><trkpt lat="38.69312033216312" lon="16.11082304749303"><ele>323.0</ele><time>2026-04-12T15:39:18Z</time></trkpt><trkpt lat="38.693043462654984" lon="16.110753629419754"><ele>325.5</ele><time>2026-04-12T15:39:20Z</time></trkpt><trkpt lat="38.693042862118126" lon="16.110659875058136"><ele>328.0</ele><time>2026-04-12T15:39:21Z</time></trkpt><trkpt lat="38.693063089723914" lon="16.110576984131328"><ele>328.0</ele><time>2026-04-12T15:39:22Z</time></trkpt><trkpt lat="38.6930936087946" lon="16.110480528500293"><ele>328.0</ele><time>2026-04-12T15:39:23Z</time></trkpt><trkpt lat="38.69309603100263" lon="16.110370263229555"><ele>328.0</ele><time>2026-04-12T15:39:24Z</time></trkpt><trkpt lat="38.69308494912705" lon="16.11025612702201"><ele>328.0</ele><time>2026-04-12T15:39:25Z</time></trkpt><trkpt lat="38.693075819144006" lon="16.11012940622154"><ele>328.0</ele><time>2026-04-12T15:39:26Z</time></trkpt><trkpt lat="38.69303134993826" lon="16.11000486630778"><ele>323.5</ele><time>2026-04-12T15:39:27Z</time></trkpt><trkpt lat="38.692978696224756" lon="16.109883709275966"><ele>319.0</ele><time>2026-04-12T15:39:28Z</time></trkpt><trkpt lat="38.69290993052802" lon="16.10976740453498"><ele>314.5</ele><time>2026-04-12T15:39:29Z</time></trkpt><trkpt lat="38.69285704117019" lon="16.10961123454315"><ele>310.0</ele><time>2026-04-12T15:39:30Z</time></trkpt><trkpt lat="38.69276872022398" lon="16.109413418677082"><ele>318.0</ele><time>2026-04-12T15:39:31Z</time></trkpt><trkpt lat="38.69267897344007" lon="16.10921490077266"><ele>326.0</ele><time>2026-04-12T15:39:32Z</time></trkpt><trkpt lat="38.692585844728306" lon="16.109012714411207"><ele>334.0</ele><time>2026-04-12T15:39:33Z</time></trkpt><trkpt lat="38.69247367870245" lon="16.10877916940636"><ele>334.0</ele><time>2026-04-12T15:39:34Z</time></trkpt><trkpt lat="38.69233430965328" lon="16.108539136345353"><ele>334.0</ele><time>2026-04-12T15:39:35Z</time></trkpt><trkpt lat="38.6921799726862" lon="16.10830251415332"><ele>337.0</ele><time>2026-04-12T15:39:36Z</time></trkpt><trkpt lat="38.69207045544955" lon="16.108087722300944"><ele>340.0</ele><time>2026-04-12T15:39:37Z</time></trkpt><trkpt lat="38.69188948669918" lon="16.107870537534108"><ele>343.0</ele><time>2026-04-12T15:39:38Z</time></trkpt><trkpt lat="38.69174469255021" lon="16.107693840066545"><ele>343.0</ele><time>2026-04-12T15:39:39Z</time></trkpt><trkpt lat="38.69159312366717" lon="16.107539030839064"><ele>343.0</ele><time>2026-04-12T15:39:40Z</time></trkpt><trkpt lat="38.69141793044787" lon="16.107399603658404"><ele>343.0</ele><time>2026-04-12T15:39:41Z</time></trkpt><trkpt lat="38.6912367482099" lon="16.10728536596401"><ele>344.3333333333333</ele><time>2026-04-12T15:39:42Z</time></trkpt><trkpt lat="38.69106627034377" lon="16.107155558526465"><ele>345.6666666666667</ele><time>2026-04-12T15:39:43Z</time></trkpt><trkpt lat="38.690890359692105" lon="16.107039486912743"><ele>347.0</ele><time>2026-04-12T15:39:44Z</time></trkpt><trkpt lat="38.69069977514263" lon="16.106913732950527"><ele>347.0</ele><time>2026-04-12T15:39:45Z</time></trkpt><trkpt lat="38.69051701678891" lon="16.106793058168215"><ele>347.0</ele><time>2026-04-12T15:39:46Z</time></trkpt><trkpt lat="38.69032932365793" lon="16.106690624478695"><ele>347.0</ele><time>2026-04-12T15:39:47Z</time></trkpt><trkpt lat="38.69015346289077" lon="16.106575350336215"><ele>348.0</ele><time>2026-04-12T15:39:48Z</time></trkpt><trkpt lat="38.690001591855534" lon="16.106452563983826"><ele>349.0</ele><time>2026-04-12T15:39:49Z</time></trkpt><trkpt lat="38.68984560222032" lon="16.106374609667505"><ele>350.0</ele><time>2026-04-12T15:39:50Z</time></trkpt><trkpt lat="38.689702641997606" lon="16.106232748440796"><ele>350.0</ele><time>2026-04-12T15:39:51Z</time></trkpt><trkpt lat="38.68954603188545" lon="16.10614767988926"><ele>350.0</ele><time>2026-04-12T15:39:52Z</time></trkpt><trkpt lat="38.68939829447095" lon="16.106066623456606"><ele>350.0</ele><time>2026-04-12T15:39:53Z</time></trkpt><trkpt lat="38.68925539338807" lon="16.10596423495623"><ele>348.6666666666667</ele><time>2026-04-12T15:39:54Z</time></trkpt><trkpt lat="38.6891106676266" lon="16.105869810456724"><ele>347.3333333333333</ele><time>2026-04-12T15:39:55Z</time></trkpt><trkpt lat="38.68896976939385" lon="16.105777794375122"><ele>346.0</ele><time>2026-04-12T15:39:56Z</time></trkpt><trkpt lat="38.688822032905406" lon="16.10569773630287"><ele>346.0</ele><time>2026-04-12T15:39:57Z</time></trkpt><trkpt lat="38.68868502704301" lon="16.105600033239995"><ele>346.0</ele><time>2026-04-12T15:39:58Z</time></trkpt><trkpt lat="38.68854527869199" lon="16.10550258114426"><ele>346.0</ele><time>2026-04-12T15:39:59Z</time></trkpt><trkpt lat="38.68840741401743" lon="16.10539292936066"><ele>352.0</ele><time>2026-04-12T15:40:00Z</time></trkpt><trkpt lat="38.68826550447733" lon="16.10528248359415"><ele>358.0</ele><time>2026-04-12T15:40:01Z</time></trkpt><trkpt lat="38.68812758359052" lon="16.10514477905117"><ele>364.0</ele><time>2026-04-12T15:40:02Z</time></trkpt><trkpt lat="38.68798936922588" lon="16.105024234516137"><ele>364.3333333333333</ele><time>2026-04-12T15:40:03Z</time></trkpt><trkpt lat="38.68785647876998" lon="16.104894268737667"><ele>364.6666666666667</ele><time>2026-04-12T15:40:04Z</time></trkpt><trkpt lat="38.68772223029253" lon="16.104774590312207"><ele>365.0</ele><time>2026-04-12T15:40:05Z</time></trkpt><trkpt lat="38.68759131186485" lon="16.104667585717156"><ele>365.0</ele><time>2026-04-12T15:40:06Z</time></trkpt><trkpt lat="38.6874601006445" lon="16.104572037265363"><ele>365.0</ele><time>2026-04-12T15:40:07Z</time></trkpt><trkpt lat="38.68732907035304" lon="16.10448767056823"><ele>365.0</ele><time>2026-04-12T15:40:08Z</time></trkpt><trkpt lat="38.687198899052916" lon="16.10440704392601"><ele>365.0</ele><time>2026-04-12T15:40:09Z</time></trkpt><trkpt lat="38.68708247413502" lon="16.10433749257788"><ele>365.0</ele><time>2026-04-12T15:40:10Z</time></trkpt><trkpt lat="38.686968001089774" lon="16.104262175259116"><ele>365.0</ele><time>2026-04-12T15:40:11Z</time></trkpt><trkpt lat="38.6868520186795" lon="16.10419712201719"><ele>365.0</ele><time>2026-04-12T15:40:12Z</time></trkpt><trkpt lat="38.686743532012066" lon="16.104128185504926"><ele>365.0</ele><time>2026-04-12T15:40:13Z</time></trkpt><trkpt lat="38.68663658947678" lon="16.1040680462982"><ele>365.25</ele><time>2026-04-12T15:40:14Z</time></trkpt><trkpt lat="38.68653384251159" lon="16.104000168202543"><ele>365.5</ele><time>2026-04-12T15:40:15Z</time></trkpt><trkpt lat="38.68642036471538" lon="16.10393645450898"><ele>365.75</ele><time>2026-04-12T15:40:16Z</time></trkpt><trkpt lat="38.68631350887275" lon="16.103864157685955"><ele>366.0</ele><time>2026-04-12T15:40:17Z</time></trkpt><trkpt lat="38.686208179515056" lon="16.10379235107144"><ele>366.0</ele><time>2026-04-12T15:40:18Z</time></trkpt><trkpt lat="38.68610536922057" lon="16.103719036720026"><ele>366.0</ele><time>2026-04-12T15:40:19Z</time></trkpt><trkpt lat="38.686007591141966" lon="16.103642226686933"><ele>366.0</ele><time>2026-04-12T15:40:20Z</time></trkpt><trkpt lat="38.68591238573038" lon="16.10356356290027"><ele>366.0</ele><time>2026-04-12T15:40:21Z</time></trkpt><trkpt lat="38.68581941810424" lon="16.103469816177643"><ele>367.5</ele><time>2026-04-12T15:40:22Z</time></trkpt><trkpt lat="38.68573526081832" lon="16.1033649192892"><ele>369.0</ele><time>2026-04-12T15:40:23Z</time></trkpt><trkpt lat="38.685657237070714" lon="16.10325647291658"><ele>370.5</ele><time>2026-04-12T15:40:24Z</time></trkpt><trkpt lat="38.68557779238407" lon="16.10314378605363"><ele>372.0</ele><time>2026-04-12T15:40:25Z</time></trkpt><trkpt lat="38.68549606774328" lon="16.10302649591036"><ele>372.0</ele><time>2026-04-12T15:40:26Z</time></trkpt><trkpt lat="38.6854124520466" lon="16.102917441710606"><ele>372.0</ele><time>2026-04-12T15:40:27Z</time></trkpt><trkpt lat="38.68532931423253" lon="16.102813115792063"><ele>372.0</ele><time>2026-04-12T15:40:28Z</time></trkpt><trkpt lat="38.685245402957015" lon="16.102709748674616"><ele>372.0</ele><time>2026-04-12T15:40:29Z</time></trkpt><trkpt lat="38.68516091980584" lon="16.102605820683664"><ele>372.0</ele><time>2026-04-12T15:40:30Z</time></trkpt><trkpt lat="38.68508913253881" lon="16.102495075808708"><ele>372.0</ele><time>2026-04-12T15:40:31Z</time></trkpt><trkpt lat="38.68501029127249" lon="16.102392807483103"><ele>372.0</ele><time>2026-04-12T15:40:32Z</time></trkpt><trkpt lat="38.68493799558238" lon="16.102297647553986"><ele>372.0</ele><time>2026-04-12T15:40:33Z</time></trkpt><trkpt lat="38.684856323935406" lon="16.102230510027756"><ele>372.0</ele><time>2026-04-12T15:40:34Z</time></trkpt><trkpt lat="38.68476654093683" lon="16.102192142630184"><ele>372.0</ele><time>2026-04-12T15:40:35.001Z</time></trkpt><trkpt lat="38.68467403163713" lon="16.102168939466495"><ele>372.0</ele><time>2026-04-12T15:40:36.001Z</time></trkpt><trkpt lat="38.68458058115298" lon="16.102178982332298"><ele>372.0</ele><time>2026-04-12T15:40:37.001Z</time></trkpt><trkpt lat="38.68449218402982" lon="16.1021959312782"><ele>372.0</ele><time>2026-04-12T15:40:38.001Z</time></trkpt><trkpt lat="38.684416322860855" lon="16.102208983937565"><ele>372.0</ele><time>2026-04-12T15:40:39.001Z</time></trkpt><trkpt lat="38.684338554669466" lon="16.102231117330565"><ele>372.0</ele><time>2026-04-12T15:40:40.001Z</time></trkpt><trkpt lat="38.68427101792577" lon="16.10225788874265"><ele>372.75</ele><time>2026-04-12T15:40:41.001Z</time></trkpt><trkpt lat="38.684228294521866" lon="16.10239980890026"><ele>373.5</ele><time>2026-04-12T15:40:42.999Z</time></trkpt><trkpt lat="38.68435784021496" lon="16.10249639193167"><ele>374.25</ele><time>2026-04-12T15:40:44.999Z</time></trkpt><trkpt lat="38.68446224311972" lon="16.102476368022188"><ele>375.0</ele><time>2026-04-12T15:40:45.999Z</time></trkpt><trkpt lat="38.68456635423027" lon="16.10242567688831"><ele>374.5</ele><time>2026-04-12T15:40:46.999Z</time></trkpt><trkpt lat="38.68465513262067" lon="16.102399563414696"><ele>374.0</ele><time>2026-04-12T15:40:47.999Z</time></trkpt><trkpt lat="38.68473040559104" lon="16.10242392932234"><ele>373.5</ele><time>2026-04-12T15:40:48.999Z</time></trkpt><trkpt lat="38.68478749440205" lon="16.102507632100224"><ele>373.0</ele><time>2026-04-12T15:40:49.999Z</time></trkpt><trkpt lat="38.684824376798574" lon="16.10262183298889"><ele>372.5</ele><time>2026-04-12T15:40:50.999Z</time></trkpt><trkpt lat="38.684862580040864" lon="16.102725389960675"><ele>372.0</ele><time>2026-04-12T15:40:51.999Z</time></trkpt><trkpt lat="38.68490068183823" lon="16.10281278211309"><ele>376.3333333333333</ele><time>2026-04-12T15:40:53Z</time></trkpt><trkpt lat="38.684939361231436" lon="16.102901389632148"><ele>380.66666666666663</ele><time>2026-04-12T15:40:54Z</time></trkpt><trkpt lat="38.684985037186564" lon="16.102993288159986"><ele>385.0</ele><time>2026-04-12T15:40:55Z</time></trkpt><trkpt lat="38.68501126890784" lon="16.10307340154941"><ele>389.3333333333333</ele><time>2026-04-12T15:40:56Z</time></trkpt><trkpt lat="38.68498542201704" lon="16.103176054119526"><ele>393.66666666666663</ele><time>2026-04-12T15:40:58Z</time></trkpt><trkpt lat="38.68488048386164" lon="16.103153361544308"><ele>398.0</ele><time>2026-04-12T15:41:00Z</time></trkpt><trkpt lat="38.68483009131052" lon="16.103086494630038"><ele>397.99999999999994</ele><time>2026-04-12T15:41:01Z</time></trkpt><trkpt lat="38.684783658811085" lon="16.1030215768206"><ele>398.0</ele><time>2026-04-12T15:41:02Z</time></trkpt><trkpt lat="38.68473747088883" lon="16.102953451130915"><ele>398.0</ele><time>2026-04-12T15:41:03Z</time></trkpt><trkpt lat="38.684683427783696" lon="16.10289078641525"><ele>398.0</ele><time>2026-04-12T15:41:04Z</time></trkpt><trkpt lat="38.68461200740863" lon="16.10282849986288"><ele>397.99999999999994</ele><time>2026-04-12T15:41:05Z</time></trkpt><trkpt lat="38.6845269997708" lon="16.102767147073678"><ele>398.0</ele><time>2026-04-12T15:41:06Z</time></trkpt><trkpt lat="38.68443340820395" lon="16.102730979675616"><ele>400.25</ele><time>2026-04-12T15:41:07Z</time></trkpt><trkpt lat="38.68432133693244" lon="16.1027076474338"><ele>402.5</ele><time>2026-04-12T15:41:08Z</time></trkpt><trkpt lat="38.68420951606652" lon="16.102684969225265"><ele>404.75</ele><time>2026-04-12T15:41:09Z</time></trkpt><trkpt lat="38.68409673566026" lon="16.102650318544313"><ele>407.0</ele><time>2026-04-12T15:41:10Z</time></trkpt><trkpt lat="38.68398557764055" lon="16.10261810082436"><ele>407.0</ele><time>2026-04-12T15:41:11Z</time></trkpt><trkpt lat="38.683880217101034" lon="16.102600070599916"><ele>407.0</ele><time>2026-04-12T15:41:12Z</time></trkpt><trkpt lat="38.68377970011102" lon="16.102577168858712"><ele>407.0</ele><time>2026-04-12T15:41:13Z</time></trkpt><trkpt lat="38.68368166979012" lon="16.102552320452435"><ele>407.0</ele><time>2026-04-12T15:41:14Z</time></trkpt><trkpt lat="38.683567758618565" lon="16.102529203392162"><ele>407.0</ele><time>2026-04-12T15:41:15Z</time></trkpt><trkpt lat="38.68344959222789" lon="16.10249849371247"><ele>410.0</ele><time>2026-04-12T15:41:16Z</time></trkpt><trkpt lat="38.6833063421232" lon="16.10248880541741"><ele>413.0</ele><time>2026-04-12T15:41:17Z</time></trkpt><trkpt lat="38.68315425749171" lon="16.102497222757098"><ele>416.0</ele><time>2026-04-12T15:41:18Z</time></trkpt><trkpt lat="38.6830269308219" lon="16.10250613739565"><ele>419.0</ele><time>2026-04-12T15:41:19Z</time></trkpt><trkpt lat="38.68290612546611" lon="16.10250904977025"><ele>419.0</ele><time>2026-04-12T15:41:20Z</time></trkpt><trkpt lat="38.682775571718814" lon="16.102508746346157"><ele>419.0</ele><time>2026-04-12T15:41:21Z</time></trkpt><trkpt lat="38.68264130657815" lon="16.1025095223279"><ele>419.0</ele><time>2026-04-12T15:41:22Z</time></trkpt><trkpt lat="38.68250578763848" lon="16.102505284398436"><ele>419.0</ele><time>2026-04-12T15:41:23Z</time></trkpt><trkpt lat="38.68237898287274" lon="16.102490131450644"><ele>417.4</ele><time>2026-04-12T15:41:24Z</time></trkpt><trkpt lat="38.682260851072485" lon="16.102471867503148"><ele>415.79999999999995</ele><time>2026-04-12T15:41:25Z</time></trkpt><trkpt lat="38.68215945281013" lon="16.10246764813923"><ele>414.20000000000005</ele><time>2026-04-12T15:41:26Z</time></trkpt><trkpt lat="38.68206350627485" lon="16.102428682749654"><ele>412.6</ele><time>2026-04-12T15:41:27Z</time></trkpt><trkpt lat="38.681970749178234" lon="16.102358971607327"><ele>411.0</ele><time>2026-04-12T15:41:28Z</time></trkpt><trkpt lat="38.68189697363275" lon="16.102272369316555"><ele>413.6666666666667</ele><time>2026-04-12T15:41:29Z</time></trkpt><trkpt lat="38.68183551269021" lon="16.102179356459793"><ele>416.33333333333337</ele><time>2026-04-12T15:41:30Z</time></trkpt><trkpt lat="38.68178907360272" lon="16.102106726197324"><ele>419.0</ele><time>2026-04-12T15:41:31Z</time></trkpt><trkpt lat="38.68174221357959" lon="16.102031851860964"><ele>421.6666666666667</ele><time>2026-04-12T15:41:32Z</time></trkpt><trkpt lat="38.6816636683393" lon="16.10198486280075"><ele>424.33333333333337</ele><time>2026-04-12T15:41:33Z</time></trkpt><trkpt lat="38.68157800796113" lon="16.10197634019449"><ele>427.0</ele><time>2026-04-12T15:41:34Z</time></trkpt><trkpt lat="38.681502268834876" lon="16.102001835167748"><ele>427.00000000000006</ele><time>2026-04-12T15:41:35Z</time></trkpt><trkpt lat="38.68142201294611" lon="16.10206115879415"><ele>427.0</ele><time>2026-04-12T15:41:36Z</time></trkpt><trkpt lat="38.68134394186669" lon="16.10211938806496"><ele>427.0</ele><time>2026-04-12T15:41:37Z</time></trkpt><trkpt lat="38.68128329724785" lon="16.102200794288347"><ele>427.0</ele><time>2026-04-12T15:41:38Z</time></trkpt><trkpt lat="38.6812534122022" lon="16.102293121207534"><ele>427.00000000000006</ele><time>2026-04-12T15:41:39Z</time></trkpt><trkpt lat="38.681253020517765" lon="16.10240563735284"><ele>427.0</ele><time>2026-04-12T15:41:40Z</time></trkpt><trkpt lat="38.6812874549799" lon="16.102508337737177"><ele>429.50000000000006</ele><time>2026-04-12T15:41:41Z</time></trkpt><trkpt lat="38.681341853890835" lon="16.102593036219243"><ele>432.0</ele><time>2026-04-12T15:41:42Z</time></trkpt><trkpt lat="38.68140272731097" lon="16.102658041479756"><ele>434.5</ele><time>2026-04-12T15:41:43Z</time></trkpt><trkpt lat="38.68145884035662" lon="16.102712350513727"><ele>437.0</ele><time>2026-04-12T15:41:44Z</time></trkpt><trkpt lat="38.68150824951703" lon="16.102768204643695"><ele>439.50000000000006</ele><time>2026-04-12T15:41:45Z</time></trkpt><trkpt lat="38.68156508636203" lon="16.102894270246946"><ele>442.0</ele><time>2026-04-12T15:41:47Z</time></trkpt><trkpt lat="38.6815664559183" lon="16.10297762826392"><ele>442.00000000000006</ele><time>2026-04-12T15:41:48Z</time></trkpt><trkpt lat="38.68156049698695" lon="16.10307835779831"><ele>442.0</ele><time>2026-04-12T15:41:49Z</time></trkpt><trkpt lat="38.68153899355413" lon="16.103235685793777"><ele>442.0</ele><time>2026-04-12T15:41:51Z</time></trkpt><trkpt lat="38.681510029201526" lon="16.10331862212554"><ele>442.0</ele><time>2026-04-12T15:41:52Z</time></trkpt><trkpt lat="38.68148264849052" lon="16.103408440685378"><ele>442.00000000000006</ele><time>2026-04-12T15:41:53Z</time></trkpt><trkpt lat="38.68145036189148" lon="16.103490835729463"><ele>442.0</ele><time>2026-04-12T15:41:54Z</time></trkpt><trkpt lat="38.68132974076411" lon="16.1035564068592"><ele>443.83333333333337</ele><time>2026-04-12T15:41:56Z</time></trkpt><trkpt lat="38.68125852701411" lon="16.1035528931598"><ele>445.6666666666667</ele><time>2026-04-12T15:41:57Z</time></trkpt><trkpt lat="38.68118606531028" lon="16.10352466480841"><ele>447.5</ele><time>2026-04-12T15:41:58Z</time></trkpt><trkpt lat="38.68111081386715" lon="16.103480428164087"><ele>449.33333333333337</ele><time>2026-04-12T15:41:59Z</time></trkpt><trkpt lat="38.68103040820472" lon="16.1034289922313"><ele>451.1666666666667</ele><time>2026-04-12T15:42:00Z</time></trkpt><trkpt lat="38.68095989501577" lon="16.103377354269146"><ele>453.0</ele><time>2026-04-12T15:42:01Z</time></trkpt><trkpt lat="38.68089553121251" lon="16.103334079908247"><ele>452.79999999999995</ele><time>2026-04-12T15:42:02.001Z</time></trkpt><trkpt lat="38.68083751560328" lon="16.103291541757855"><ele>452.59999999999997</ele><time>2026-04-12T15:42:03.001Z</time></trkpt><trkpt lat="38.68076632361343" lon="16.10319192314811"><ele>452.40000000000003</ele><time>2026-04-12T15:42:05.001Z</time></trkpt><trkpt lat="38.68074020839187" lon="16.10303623248996"><ele>452.20000000000005</ele><time>2026-04-12T15:42:07.001Z</time></trkpt><trkpt lat="38.68070898620336" lon="16.102946365302135"><ele>452.0</ele><time>2026-04-12T15:42:08.001Z</time></trkpt><trkpt lat="38.680648755294115" lon="16.10285688348463"><ele>452.0</ele><time>2026-04-12T15:42:09.001Z</time></trkpt><trkpt lat="38.68056810355998" lon="16.102786351628872"><ele>452.0</ele><time>2026-04-12T15:42:10.001Z</time></trkpt><trkpt lat="38.68050305826074" lon="16.102696511913692"><ele>452.0</ele><time>2026-04-12T15:42:11.001Z</time></trkpt><trkpt lat="38.680298617619215" lon="16.102418042705622"><ele>452.5</ele><time>2026-04-12T15:42:13.001Z</time></trkpt><trkpt lat="38.680201576241934" lon="16.102322180673898"><ele>453.0</ele><time>2026-04-12T15:42:14.001Z</time></trkpt><trkpt lat="38.68006774845619" lon="16.102192395198756"><ele>453.5</ele><time>2026-04-12T15:42:15.001Z</time></trkpt><trkpt lat="38.6799349007235" lon="16.102102750218364"><ele>454.0</ele><time>2026-04-12T15:42:16.001Z</time></trkpt><trkpt lat="38.67982634379903" lon="16.10201776775355"><ele>454.0</ele><time>2026-04-12T15:42:17.001Z</time></trkpt><trkpt lat="38.679692431657756" lon="16.10196071246201"><ele>454.0</ele><time>2026-04-12T15:42:18.001Z</time></trkpt><trkpt lat="38.67954259842303" lon="16.10192449395755"><ele>454.0</ele><time>2026-04-12T15:42:19.001Z</time></trkpt><trkpt lat="38.679401192365845" lon="16.101908661319538"><ele>454.0</ele><time>2026-04-12T15:42:20.001Z</time></trkpt><trkpt lat="38.679279400863166" lon="16.101889421155633"><ele>456.1666666666667</ele><time>2026-04-12T15:42:21.001Z</time></trkpt><trkpt lat="38.679172943983744" lon="16.10187014837909"><ele>458.33333333333337</ele><time>2026-04-12T15:42:22.001Z</time></trkpt><trkpt lat="38.6790785920643" lon="16.10186900197744"><ele>460.5</ele><time>2026-04-12T15:42:23.001Z</time></trkpt><trkpt lat="38.67900867843498" lon="16.101884678821307"><ele>462.66666666666663</ele><time>2026-04-12T15:42:24.001Z</time></trkpt><trkpt lat="38.67894658784399" lon="16.101923435690196"><ele>464.8333333333333</ele><time>2026-04-12T15:42:26.001Z</time></trkpt><trkpt lat="38.67886982202086" lon="16.1020139757055"><ele>467.0</ele><time>2026-04-12T15:42:35.001Z</time></trkpt><trkpt lat="38.67881573785479" lon="16.102143180505376"><ele>466.99999999999994</ele><time>2026-04-12T15:42:37.001Z</time></trkpt><trkpt lat="38.67877465419011" lon="16.102227549676382"><ele>467.0</ele><time>2026-04-12T15:42:38.001Z</time></trkpt><trkpt lat="38.678727546965426" lon="16.10234638528243"><ele>467.0</ele><time>2026-04-12T15:42:39.001Z</time></trkpt><trkpt lat="38.67869089145917" lon="16.10245877460435"><ele>467.0</ele><time>2026-04-12T15:42:40.001Z</time></trkpt><trkpt lat="38.67864894057295" lon="16.102545774167783"><ele>466.99999999999994</ele><time>2026-04-12T15:42:41.001Z</time></trkpt><trkpt lat="38.67861294651739" lon="16.10262932568559"><ele>467.0</ele><time>2026-04-12T15:42:42.001Z</time></trkpt><trkpt lat="38.678553376951214" lon="16.102751641056862"><ele>468.8</ele><time>2026-04-12T15:42:44.001Z</time></trkpt><trkpt lat="38.67850901283127" lon="16.10282669513645"><ele>470.6</ele><time>2026-04-12T15:42:46.001Z</time></trkpt><trkpt lat="38.678458924630036" lon="16.10289332053003"><ele>472.40000000000003</ele><time>2026-04-12T15:42:48Z</time></trkpt><trkpt lat="38.678354448921255" lon="16.102853019789908"><ele>474.20000000000005</ele><time>2026-04-12T15:42:50Z</time></trkpt><trkpt lat="38.67824292976628" lon="16.10280124560459"><ele>476.0</ele><time>2026-04-12T15:42:52Z</time></trkpt><trkpt lat="38.678165583469095" lon="16.10275116408624"><ele>475.99999999999994</ele><time>2026-04-12T15:42:53Z</time></trkpt><trkpt lat="38.678099602643364" lon="16.102699043378568"><ele>476.0</ele><time>2026-04-12T15:42:54Z</time></trkpt><trkpt lat="38.6780323063425" lon="16.102654089688393"><ele>476.0</ele><time>2026-04-12T15:42:55Z</time></trkpt><trkpt lat="38.67797471472977" lon="16.102605987280537"><ele>476.0</ele><time>2026-04-12T15:42:56Z</time></trkpt><trkpt lat="38.6778608847912" lon="16.102510081042194"><ele>475.99999999999994</ele><time>2026-04-12T15:42:58Z</time></trkpt><trkpt lat="38.67779655591015" lon="16.102470536995597"><ele>476.0</ele><time>2026-04-12T15:42:59Z</time></trkpt><trkpt lat="38.67773560962761" lon="16.10243730051639"><ele>475.49999999999994</ele><time>2026-04-12T15:43:00Z</time></trkpt><trkpt lat="38.6776737636506" lon="16.102392232901956"><ele>475.0</ele><time>2026-04-12T15:43:01Z</time></trkpt><trkpt lat="38.677612153827035" lon="16.102338348490594"><ele>474.5</ele><time>2026-04-12T15:43:02Z</time></trkpt><trkpt lat="38.67754374317242" lon="16.10230490698671"><ele>474.0</ele><time>2026-04-12T15:43:03Z</time></trkpt><trkpt lat="38.677423753790244" lon="16.10221018326685"><ele>473.49999999999994</ele><time>2026-04-12T15:43:05Z</time></trkpt><trkpt lat="38.67734752955254" lon="16.102158415259005"><ele>473.0</ele><time>2026-04-12T15:43:06Z</time></trkpt><trkpt lat="38.6772653545572" lon="16.102102605783433"><ele>473.0</ele><time>2026-04-12T15:43:07Z</time></trkpt><trkpt lat="38.67717045976262" lon="16.102060104753463"><ele>472.99999999999994</ele><time>2026-04-12T15:43:08Z</time></trkpt><trkpt lat="38.67708585274777" lon="16.101991414636647"><ele>472.99999999999994</ele><time>2026-04-12T15:43:09Z</time></trkpt><trkpt lat="38.67699537959991" lon="16.10193050741988"><ele>473.0</ele><time>2026-04-12T15:43:10Z</time></trkpt><trkpt lat="38.676903158007434" lon="16.10186217937733"><ele>473.0</ele><time>2026-04-12T15:43:11Z</time></trkpt><trkpt lat="38.67680303643154" lon="16.101784849824607"><ele>472.75</ele><time>2026-04-12T15:43:12Z</time></trkpt><trkpt lat="38.67668552720362" lon="16.101702955709165"><ele>472.5</ele><time>2026-04-12T15:43:13Z</time></trkpt><trkpt lat="38.676567598060814" lon="16.10162541258621"><ele>472.25</ele><time>2026-04-12T15:43:14Z</time></trkpt><trkpt lat="38.67646067501073" lon="16.101561773103203"><ele>472.0</ele><time>2026-04-12T15:43:15Z</time></trkpt><trkpt lat="38.67636631813941" lon="16.101497401053297"><ele>471.6</ele><time>2026-04-12T15:43:16Z</time></trkpt><trkpt lat="38.67627394501362" lon="16.101432341784488"><ele>471.20000000000005</ele><time>2026-04-12T15:43:17Z</time></trkpt><trkpt lat="38.67619295394566" lon="16.101372749913725"><ele>470.8</ele><time>2026-04-12T15:43:18Z</time></trkpt><trkpt lat="38.676108109779854" lon="16.101320939882356"><ele>470.4</ele><time>2026-04-12T15:43:19Z</time></trkpt><trkpt lat="38.67603414614718" lon="16.10126572402414"><ele>470.0</ele><time>2026-04-12T15:43:20Z</time></trkpt><trkpt lat="38.67596117209683" lon="16.101216685372712"><ele>469.99999999999994</ele><time>2026-04-12T15:43:21Z</time></trkpt><trkpt lat="38.67588802850714" lon="16.101164119423743"><ele>470.0</ele><time>2026-04-12T15:43:22Z</time></trkpt><trkpt lat="38.67581678706493" lon="16.10111266427129"><ele>470.0</ele><time>2026-04-12T15:43:23Z</time></trkpt><trkpt lat="38.675743083483624" lon="16.10106469062156"><ele>470.0</ele><time>2026-04-12T15:43:24Z</time></trkpt><trkpt lat="38.675667536786186" lon="16.101015471355886"><ele>469.99999999999994</ele><time>2026-04-12T15:43:25Z</time></trkpt><trkpt lat="38.67559646841366" lon="16.10096771680919"><ele>470.0</ele><time>2026-04-12T15:43:26Z</time></trkpt><trkpt lat="38.67554005970555" lon="16.100928743073627"><ele>470.0</ele><time>2026-04-12T15:43:27Z</time></trkpt><trkpt lat="38.675427196217285" lon="16.10085084953574"><ele>470.0</ele><time>2026-04-12T15:43:29Z</time></trkpt><trkpt lat="38.67535874691353" lon="16.100793656495533"><ele>470.0</ele><time>2026-04-12T15:43:31Z</time></trkpt><trkpt lat="38.67530159988365" lon="16.10074675696907"><ele>470.0</ele><time>2026-04-12T15:43:33Z</time></trkpt><trkpt lat="38.67523621747666" lon="16.100665276837795"><ele>470.0</ele><time>2026-04-12T15:43:35Z</time></trkpt><trkpt lat="38.67524019000329" lon="16.100515811944362"><ele>470.4</ele><time>2026-04-12T15:43:37Z</time></trkpt><trkpt lat="38.675290219398136" lon="16.100364985553597"><ele>470.8</ele><time>2026-04-12T15:43:39Z</time></trkpt><trkpt lat="38.675317787249156" lon="16.10028312311769"><ele>471.20000000000005</ele><time>2026-04-12T15:43:40Z</time></trkpt><trkpt lat="38.675348673432524" lon="16.100175916110167"><ele>471.6</ele><time>2026-04-12T15:43:41Z</time></trkpt><trkpt lat="38.67538228039126" lon="16.100050612170417"><ele>472.0</ele><time>2026-04-12T15:43:42Z</time></trkpt><trkpt lat="38.675422723064855" lon="16.099964251689936"><ele>472.1666666666667</ele><time>2026-04-12T15:43:43Z</time></trkpt><trkpt lat="38.67545657896515" lon="16.09986736614354"><ele>472.33333333333337</ele><time>2026-04-12T15:43:44Z</time></trkpt><trkpt lat="38.67549275719193" lon="16.099770813673604"><ele>472.5</ele><time>2026-04-12T15:43:45Z</time></trkpt><trkpt lat="38.675526685347464" lon="16.099666829936144"><ele>472.66666666666663</ele><time>2026-04-12T15:43:46Z</time></trkpt><trkpt lat="38.67556299316452" lon="16.099563155220743"><ele>472.8333333333333</ele><time>2026-04-12T15:43:47.001Z</time></trkpt><trkpt lat="38.675600147776926" lon="16.09945439523766"><ele>473.0</ele><time>2026-04-12T15:43:48.001Z</time></trkpt><trkpt lat="38.67564143724825" lon="16.099349369867248"><ele>473.0</ele><time>2026-04-12T15:43:49.001Z</time></trkpt><trkpt lat="38.67567547210046" lon="16.099238898176175"><ele>473.0</ele><time>2026-04-12T15:43:50.001Z</time></trkpt><trkpt lat="38.67570937956703" lon="16.099090538018185"><ele>473.0</ele><time>2026-04-12T15:43:51.001Z</time></trkpt><trkpt lat="38.67577836315115" lon="16.098917443023968"><ele>473.0</ele><time>2026-04-12T15:43:52.001Z</time></trkpt><trkpt lat="38.6758427789771" lon="16.098742456730086"><ele>473.5</ele><time>2026-04-12T15:43:53.001Z</time></trkpt><trkpt lat="38.6759056033966" lon="16.098570798516757"><ele>474.0</ele><time>2026-04-12T15:43:54.001Z</time></trkpt><trkpt lat="38.67596305749609" lon="16.098398203509692"><ele>474.5</ele><time>2026-04-12T15:43:55.001Z</time></trkpt><trkpt lat="38.67600767108557" lon="16.098258660088362"><ele>475.0</ele><time>2026-04-12T15:43:56.001Z</time></trkpt><trkpt lat="38.67604866645024" lon="16.098140209798323"><ele>475.1666666666667</ele><time>2026-04-12T15:43:57.001Z</time></trkpt><trkpt lat="38.67608512335135" lon="16.09802952017766"><ele>475.33333333333337</ele><time>2026-04-12T15:43:58.001Z</time></trkpt><trkpt lat="38.676114038599906" lon="16.09792948221897"><ele>475.5</ele><time>2026-04-12T15:43:59.001Z</time></trkpt><trkpt lat="38.67614908853567" lon="16.09786176956362"><ele>475.66666666666663</ele><time>2026-04-12T15:44:00.001Z</time></trkpt><trkpt lat="38.67617346847998" lon="16.09778732787269"><ele>475.8333333333333</ele><time>2026-04-12T15:44:01.001Z</time></trkpt><trkpt lat="38.67621220309013" lon="16.097676666739314"><ele>476.0</ele><time>2026-04-12T15:44:02.001Z</time></trkpt><trkpt lat="38.67625979120781" lon="16.09755313464245"><ele>476.0</ele><time>2026-04-12T15:44:03.001Z</time></trkpt><trkpt lat="38.676307592310664" lon="16.097429559958606"><ele>476.0</ele><time>2026-04-12T15:44:04.001Z</time></trkpt><trkpt lat="38.67636045023017" lon="16.0972779752697"><ele>476.0</ele><time>2026-04-12T15:44:05.001Z</time></trkpt><trkpt lat="38.6764092496941" lon="16.097140431076756"><ele>476.0</ele><time>2026-04-12T15:44:06.001Z</time></trkpt><trkpt lat="38.67644591014422" lon="16.096994544680317"><ele>476.0</ele><time>2026-04-12T15:44:07.001Z</time></trkpt><trkpt lat="38.676500616074115" lon="16.096831517969086"><ele>476.0</ele><time>2026-04-12T15:44:08.001Z</time></trkpt><trkpt lat="38.67654862746738" lon="16.096664723094648"><ele>476.0</ele><time>2026-04-12T15:44:09.001Z</time></trkpt><trkpt lat="38.676583652360605" lon="16.09652426031452"><ele>476.0</ele><time>2026-04-12T15:44:10.001Z</time></trkpt><trkpt lat="38.67666264430948" lon="16.096380488519603"><ele>476.5</ele><time>2026-04-12T15:44:11.001Z</time></trkpt><trkpt lat="38.67671993916644" lon="16.096214158158666"><ele>477.0</ele><time>2026-04-12T15:44:12.001Z</time></trkpt><trkpt lat="38.67677890867774" lon="16.096064456516316"><ele>477.5</ele><time>2026-04-12T15:44:13.001Z</time></trkpt><trkpt lat="38.67683943767942" lon="16.09592486042105"><ele>478.0</ele><time>2026-04-12T15:44:14.001Z</time></trkpt><trkpt lat="38.676892015643396" lon="16.095806756493914"><ele>478.00000000000006</ele><time>2026-04-12T15:44:15.001Z</time></trkpt><trkpt lat="38.67693569971535" lon="16.095687998684685"><ele>478.0</ele><time>2026-04-12T15:44:16.001Z</time></trkpt><trkpt lat="38.676963513065616" lon="16.09557223209246"><ele>478.0</ele><time>2026-04-12T15:44:17.001Z</time></trkpt><trkpt lat="38.67696724158592" lon="16.095463953593853"><ele>478.0</ele><time>2026-04-12T15:44:18.001Z</time></trkpt><trkpt lat="38.6769342640996" lon="16.095377183198956"><ele>478.00000000000006</ele><time>2026-04-12T15:44:19.001Z</time></trkpt><trkpt lat="38.676892485679744" lon="16.09530905796524"><ele>478.0</ele><time>2026-04-12T15:44:20.001Z</time></trkpt><trkpt lat="38.67681077672254" lon="16.09528460336325"><ele>478.33333333333337</ele><time>2026-04-12T15:44:21.001Z</time></trkpt><trkpt lat="38.676719121999966" lon="16.09525825771911"><ele>478.6666666666667</ele><time>2026-04-12T15:44:22.001Z</time></trkpt><trkpt lat="38.67664835393294" lon="16.09521837587199"><ele>479.0</ele><time>2026-04-12T15:44:23.001Z</time></trkpt><trkpt lat="38.67657377622305" lon="16.09518472479607"><ele>479.33333333333337</ele><time>2026-04-12T15:44:24.001Z</time></trkpt><trkpt lat="38.67649129649537" lon="16.095155910919942"><ele>479.6666666666667</ele><time>2026-04-12T15:44:25.001Z</time></trkpt><trkpt lat="38.676414901488414" lon="16.09510875783639"><ele>480.0</ele><time>2026-04-12T15:44:26.001Z</time></trkpt><trkpt lat="38.67633579036619" lon="16.095060815094893"><ele>480.0</ele><time>2026-04-12T15:44:27.001Z</time></trkpt><trkpt lat="38.67626931066734" lon="16.095018981372483"><ele>480.0</ele><time>2026-04-12T15:44:28.001Z</time></trkpt><trkpt lat="38.676174797531765" lon="16.094957701828946"><ele>480.0</ele><time>2026-04-12T15:44:30.001Z</time></trkpt><trkpt lat="38.67609072184426" lon="16.094925504700605"><ele>480.0</ele><time>2026-04-12T15:44:33.001Z</time></trkpt><trkpt lat="38.67602072409247" lon="16.09491161519695"><ele>480.0</ele><time>2026-04-12T15:44:36.001Z</time></trkpt><trkpt lat="38.67604269925904" lon="16.094719714725528"><ele>480.4</ele><time>2026-04-12T15:44:37.001Z</time></trkpt><trkpt lat="38.676069703351786" lon="16.09462403260184"><ele>480.8</ele><time>2026-04-12T15:44:38.001Z</time></trkpt><trkpt lat="38.67611746485717" lon="16.09452816748484"><ele>481.20000000000005</ele><time>2026-04-12T15:44:39.001Z</time></trkpt><trkpt lat="38.67616492387858" lon="16.094422598977285"><ele>481.6</ele><time>2026-04-12T15:44:40.001Z</time></trkpt><trkpt lat="38.676210284765325" lon="16.094289420025014"><ele>482.0</ele><time>2026-04-12T15:44:41.001Z</time></trkpt><trkpt lat="38.67624476325481" lon="16.094141412572753"><ele>482.0</ele><time>2026-04-12T15:44:42.001Z</time></trkpt><trkpt lat="38.67630382632811" lon="16.09400095677317"><ele>482.0</ele><time>2026-04-12T15:44:43.001Z</time></trkpt><trkpt lat="38.67634993410926" lon="16.0938626347929"><ele>482.0</ele><time>2026-04-12T15:44:44.001Z</time></trkpt><trkpt lat="38.67639557671367" lon="16.093740746712857"><ele>482.0</ele><time>2026-04-12T15:44:45.001Z</time></trkpt><trkpt lat="38.676437942702464" lon="16.093617004738395"><ele>482.0</ele><time>2026-04-12T15:44:46.001Z</time></trkpt><trkpt lat="38.67648389180717" lon="16.093494794313802"><ele>482.00000000000006</ele><time>2026-04-12T15:44:47.001Z</time></trkpt><trkpt lat="38.676527683902165" lon="16.093371814473223"><ele>482.00000000000006</ele><time>2026-04-12T15:44:48.001Z</time></trkpt><trkpt lat="38.676562288610924" lon="16.093241981012515"><ele>482.0</ele><time>2026-04-12T15:44:49.001Z</time></trkpt><trkpt lat="38.67659864438545" lon="16.09309891191326"><ele>482.0</ele><time>2026-04-12T15:44:50.001Z</time></trkpt><trkpt lat="38.67663792895557" lon="16.092945267954093"><ele>480.75</ele><time>2026-04-12T15:44:51.001Z</time></trkpt><trkpt lat="38.676638921830495" lon="16.092772507265376"><ele>479.5</ele><time>2026-04-12T15:44:52.001Z</time></trkpt><trkpt lat="38.67661192377065" lon="16.092584826114884"><ele>478.25</ele><time>2026-04-12T15:44:53.001Z</time></trkpt><trkpt lat="38.676526465139816" lon="16.09241194159631"><ele>477.0</ele><time>2026-04-12T15:44:54Z</time></trkpt><trkpt lat="38.6764574322829" lon="16.092236119745486"><ele>477.0</ele><time>2026-04-12T15:44:55Z</time></trkpt><trkpt lat="38.67635286496336" lon="16.092108103134063"><ele>477.0</ele><time>2026-04-12T15:44:56Z</time></trkpt><trkpt lat="38.67626310866983" lon="16.09198646112698"><ele>477.0</ele><time>2026-04-12T15:44:57Z</time></trkpt><trkpt lat="38.67618733842201" lon="16.09187061003519"><ele>477.0</ele><time>2026-04-12T15:44:58Z</time></trkpt><trkpt lat="38.67611428678119" lon="16.09176453272267"><ele>477.8333333333333</ele><time>2026-04-12T15:44:59Z</time></trkpt><trkpt lat="38.67605469873091" lon="16.091669756329345"><ele>478.66666666666663</ele><time>2026-04-12T15:45:00Z</time></trkpt><trkpt lat="38.6760040171925" lon="16.091580039380094"><ele>479.5</ele><time>2026-04-12T15:45:01Z</time></trkpt><trkpt lat="38.67595799139105" lon="16.091494700944736"><ele>480.3333333333333</ele><time>2026-04-12T15:45:02Z</time></trkpt><trkpt lat="38.675906780965015" lon="16.09141508978737"><ele>481.16666666666663</ele><time>2026-04-12T15:45:03Z</time></trkpt><trkpt lat="38.675849299257074" lon="16.09133587098873"><ele>482.0</ele><time>2026-04-12T15:45:04Z</time></trkpt><trkpt lat="38.67579033727743" lon="16.09124300155379"><ele>482.3333333333333</ele><time>2026-04-12T15:45:05Z</time></trkpt><trkpt lat="38.67574267302167" lon="16.091168989843325"><ele>482.66666666666663</ele><time>2026-04-12T15:45:06Z</time></trkpt><trkpt lat="38.67569709425813" lon="16.0911006052216"><ele>483.0</ele><time>2026-04-12T15:45:07Z</time></trkpt><trkpt lat="38.67565155994183" lon="16.091031498137937"><ele>483.33333333333337</ele><time>2026-04-12T15:45:08Z</time></trkpt><trkpt lat="38.67560621441917" lon="16.09096188318605"><ele>483.6666666666667</ele><time>2026-04-12T15:45:09Z</time></trkpt><trkpt lat="38.67556435894768" lon="16.090888462370188"><ele>484.0</ele><time>2026-04-12T15:45:10Z</time></trkpt><trkpt lat="38.67549689014512" lon="16.090755384967476"><ele>483.50000000000006</ele><time>2026-04-12T15:45:12Z</time></trkpt><trkpt lat="38.675469132695206" lon="16.09067688810738"><ele>483.0</ele><time>2026-04-12T15:45:13Z</time></trkpt><trkpt lat="38.67541639541031" lon="16.09056264853945"><ele>482.5</ele><time>2026-04-12T15:45:15Z</time></trkpt><trkpt lat="38.67540079816274" lon="16.09047772501453"><ele>482.0</ele><time>2026-04-12T15:45:16Z</time></trkpt><trkpt lat="38.67528615057224" lon="16.090408787955404"><ele>481.50000000000006</ele><time>2026-04-12T15:45:18Z</time></trkpt><trkpt lat="38.67522002605055" lon="16.090369670054415"><ele>481.0</ele><time>2026-04-12T15:45:19Z</time></trkpt><trkpt lat="38.675162096423975" lon="16.09032316948925"><ele>481.0</ele><time>2026-04-12T15:45:20Z</time></trkpt><trkpt lat="38.67507680081407" lon="16.09021774267197"><ele>481.0</ele><time>2026-04-12T15:45:22Z</time></trkpt><trkpt lat="38.67503014919865" lon="16.09014588357761"><ele>481.0</ele><time>2026-04-12T15:45:23Z</time></trkpt><trkpt lat="38.67498146452915" lon="16.090056527748942"><ele>481.0</ele><time>2026-04-12T15:45:24Z</time></trkpt><trkpt lat="38.6749244178359" lon="16.08996523023542"><ele>481.0</ele><time>2026-04-12T15:45:25Z</time></trkpt><trkpt lat="38.674849650122475" lon="16.089856843108077"><ele>481.20000000000005</ele><time>2026-04-12T15:45:26Z</time></trkpt><trkpt lat="38.67479328437571" lon="16.08977320295605"><ele>481.40000000000003</ele><time>2026-04-12T15:45:27Z</time></trkpt><trkpt lat="38.67471755618794" lon="16.089660785764718"><ele>481.6</ele><time>2026-04-12T15:45:28Z</time></trkpt><trkpt lat="38.674644471204715" lon="16.089550472030922"><ele>481.8</ele><time>2026-04-12T15:45:29Z</time></trkpt><trkpt lat="38.67456347143712" lon="16.089437970898874"><ele>482.0</ele><time>2026-04-12T15:45:30Z</time></trkpt><trkpt lat="38.674480211718425" lon="16.089290109742397"><ele>482.25</ele><time>2026-04-12T15:45:31Z</time></trkpt><trkpt lat="38.67437762001905" lon="16.08915665195774"><ele>482.5</ele><time>2026-04-12T15:45:32Z</time></trkpt><trkpt lat="38.67429945013288" lon="16.089017582233662"><ele>482.75</ele><time>2026-04-12T15:45:33Z</time></trkpt><trkpt lat="38.674214098288175" lon="16.088888614096376"><ele>483.0</ele><time>2026-04-12T15:45:34Z</time></trkpt><trkpt lat="38.67413423994245" lon="16.08876944057163"><ele>482.59999999999997</ele><time>2026-04-12T15:45:35Z</time></trkpt><trkpt lat="38.67407119310459" lon="16.0886668616184"><ele>482.19999999999993</ele><time>2026-04-12T15:45:36Z</time></trkpt><trkpt lat="38.6739919617376" lon="16.088571060049077"><ele>481.8</ele><time>2026-04-12T15:45:37Z</time></trkpt><trkpt lat="38.67392292867535" lon="16.088470011887885"><ele>481.4</ele><time>2026-04-12T15:45:38Z</time></trkpt><trkpt lat="38.67385226275513" lon="16.088365023918726"><ele>481.0</ele><time>2026-04-12T15:45:39Z</time></trkpt><trkpt lat="38.67377578430081" lon="16.08825305866286"><ele>481.0</ele><time>2026-04-12T15:45:40Z</time></trkpt><trkpt lat="38.67369831232113" lon="16.08813992892677"><ele>481.0</ele><time>2026-04-12T15:45:41Z</time></trkpt><trkpt lat="38.67361490652082" lon="16.088022365755712"><ele>481.0</ele><time>2026-04-12T15:45:42Z</time></trkpt><trkpt lat="38.673530399040466" lon="16.087899755040866"><ele>481.0</ele><time>2026-04-12T15:45:43Z</time></trkpt><trkpt lat="38.673444229084474" lon="16.087776262893"><ele>481.0</ele><time>2026-04-12T15:45:44Z</time></trkpt><trkpt lat="38.67336213135428" lon="16.08766076904635"><ele>481.0</ele><time>2026-04-12T15:45:45Z</time></trkpt><trkpt lat="38.673282623249655" lon="16.08754600234738"><ele>481.0</ele><time>2026-04-12T15:45:46Z</time></trkpt><trkpt lat="38.67320603033776" lon="16.087431501472434"><ele>481.0</ele><time>2026-04-12T15:45:47.001Z</time></trkpt><trkpt lat="38.67314303862221" lon="16.087308063600258"><ele>481.0</ele><time>2026-04-12T15:45:48.001Z</time></trkpt><trkpt lat="38.67307249012562" lon="16.087204909973448"><ele>481.0</ele><time>2026-04-12T15:45:49.001Z</time></trkpt><trkpt lat="38.67298749402252" lon="16.087080335163883"><ele>481.0</ele><time>2026-04-12T15:45:50.001Z</time></trkpt><trkpt lat="38.672903997264" lon="16.08695547248362"><ele>481.0</ele><time>2026-04-12T15:45:51.001Z</time></trkpt><trkpt lat="38.672807322790874" lon="16.08683487818496"><ele>481.0</ele><time>2026-04-12T15:45:52.001Z</time></trkpt><trkpt lat="38.67272338883944" lon="16.086683183528724"><ele>481.0</ele><time>2026-04-12T15:45:53.001Z</time></trkpt><trkpt lat="38.672632094560804" lon="16.08654462105284"><ele>481.0</ele><time>2026-04-12T15:45:54.001Z</time></trkpt><trkpt lat="38.67253832415371" lon="16.086401852698742"><ele>481.0</ele><time>2026-04-12T15:45:55.001Z</time></trkpt><trkpt lat="38.672441423801885" lon="16.086256443201574"><ele>482.0</ele><time>2026-04-12T15:45:56.001Z</time></trkpt><trkpt lat="38.67234217881091" lon="16.086103323265295"><ele>483.0</ele><time>2026-04-12T15:45:57.001Z</time></trkpt><trkpt lat="38.67224373662923" lon="16.085953529979772"><ele>484.0</ele><time>2026-04-12T15:45:58.001Z</time></trkpt><trkpt lat="38.672140312569454" lon="16.085793887852915"><ele>484.25</ele><time>2026-04-12T15:45:59.001Z</time></trkpt><trkpt lat="38.67204895546994" lon="16.085644709595396"><ele>484.5</ele><time>2026-04-12T15:46:00.001Z</time></trkpt><trkpt lat="38.67195327490506" lon="16.085502039781787"><ele>484.75</ele><time>2026-04-12T15:46:01.001Z</time></trkpt><trkpt lat="38.67185490700954" lon="16.085368731240376"><ele>485.0</ele><time>2026-04-12T15:46:02.001Z</time></trkpt><trkpt lat="38.671761747432846" lon="16.08522966095682"><ele>484.75</ele><time>2026-04-12T15:46:03.001Z</time></trkpt><trkpt lat="38.67166570626879" lon="16.085088189646243"><ele>484.5</ele><time>2026-04-12T15:46:04.001Z</time></trkpt><trkpt lat="38.67157107006894" lon="16.084947985624854"><ele>484.25</ele><time>2026-04-12T15:46:05.001Z</time></trkpt><trkpt lat="38.67147891172264" lon="16.084809068995746"><ele>484.0</ele><time>2026-04-12T15:46:06.001Z</time></trkpt><trkpt lat="38.67138826366352" lon="16.084672515810702"><ele>484.0</ele><time>2026-04-12T15:46:07.001Z</time></trkpt><trkpt lat="38.671293376649196" lon="16.084537191302616"><ele>484.0</ele><time>2026-04-12T15:46:08.001Z</time></trkpt><trkpt lat="38.67119859272148" lon="16.084401779252364"><ele>484.0</ele><time>2026-04-12T15:46:09.001Z</time></trkpt><trkpt lat="38.67110165144663" lon="16.084253505327233"><ele>484.0</ele><time>2026-04-12T15:46:10.001Z</time></trkpt><trkpt lat="38.671008937664034" lon="16.08411288026619"><ele>483.75</ele><time>2026-04-12T15:46:11.001Z</time></trkpt><trkpt lat="38.67090882242422" lon="16.08398490624097"><ele>483.5</ele><time>2026-04-12T15:46:12.001Z</time></trkpt><trkpt lat="38.67080776495155" lon="16.08383536744282"><ele>483.25</ele><time>2026-04-12T15:46:13.001Z</time></trkpt><trkpt lat="38.670710009395826" lon="16.083683914214614"><ele>483.0</ele><time>2026-04-12T15:46:14.001Z</time></trkpt><trkpt lat="38.67061243858613" lon="16.083527268032565"><ele>483.0</ele><time>2026-04-12T15:46:15.001Z</time></trkpt><trkpt lat="38.67050305933343" lon="16.083382440647238"><ele>483.0</ele><time>2026-04-12T15:46:16.001Z</time></trkpt><trkpt lat="38.670399993445194" lon="16.083233288045978"><ele>483.0</ele><time>2026-04-12T15:46:17.001Z</time></trkpt><trkpt lat="38.67029555913808" lon="16.083078527684975"><ele>483.33333333333337</ele><time>2026-04-12T15:46:18.001Z</time></trkpt><trkpt lat="38.67019117800291" lon="16.082931175288124"><ele>483.6666666666667</ele><time>2026-04-12T15:46:19.001Z</time></trkpt><trkpt lat="38.67008619803705" lon="16.082773047493617"><ele>484.0</ele><time>2026-04-12T15:46:20.001Z</time></trkpt><trkpt lat="38.66998948000544" lon="16.082626195687588"><ele>484.0</ele><time>2026-04-12T15:46:21.001Z</time></trkpt><trkpt lat="38.66988687749155" lon="16.082470211527443"><ele>484.0</ele><time>2026-04-12T15:46:22.001Z</time></trkpt><trkpt lat="38.669793146702695" lon="16.08232549840238"><ele>484.0</ele><time>2026-04-12T15:46:23.001Z</time></trkpt><trkpt lat="38.6696961383567" lon="16.0821761009447"><ele>484.33333333333337</ele><time>2026-04-12T15:46:24.001Z</time></trkpt><trkpt lat="38.66959846122705" lon="16.082025743489275"><ele>484.66666666666663</ele><time>2026-04-12T15:46:25.001Z</time></trkpt><trkpt lat="38.66950639523237" lon="16.081860000243015"><ele>485.0</ele><time>2026-04-12T15:46:26.001Z</time></trkpt><trkpt lat="38.66939366110073" lon="16.08172276147437"><ele>486.3333333333333</ele><time>2026-04-12T15:46:27.001Z</time></trkpt><trkpt lat="38.6692838905808" lon="16.081577848793717"><ele>487.66666666666663</ele><time>2026-04-12T15:46:28.001Z</time></trkpt><trkpt lat="38.669180268515404" lon="16.08142723122313"><ele>489.0</ele><time>2026-04-12T15:46:29.001Z</time></trkpt><trkpt lat="38.669079758844575" lon="16.081273385325638"><ele>489.0</ele><time>2026-04-12T15:46:30.001Z</time></trkpt><trkpt lat="38.668975594160074" lon="16.081120925459803"><ele>489.0</ele><time>2026-04-12T15:46:31.001Z</time></trkpt><trkpt lat="38.66887044617969" lon="16.080972790786365"><ele>489.0</ele><time>2026-04-12T15:46:32.001Z</time></trkpt><trkpt lat="38.66874879514158" lon="16.080823470394073"><ele>488.66666666666663</ele><time>2026-04-12T15:46:33.001Z</time></trkpt><trkpt lat="38.668636623857665" lon="16.080676089786706"><ele>488.3333333333333</ele><time>2026-04-12T15:46:34.001Z</time></trkpt><trkpt lat="38.66851747957806" lon="16.08053631041239"><ele>488.0</ele><time>2026-04-12T15:46:35.001Z</time></trkpt><trkpt lat="38.66839263905169" lon="16.08040539854606"><ele>489.3333333333333</ele><time>2026-04-12T15:46:36.001Z</time></trkpt><trkpt lat="38.66826192368701" lon="16.080277476660473"><ele>490.66666666666663</ele><time>2026-04-12T15:46:37.001Z</time></trkpt><trkpt lat="38.66813427434062" lon="16.080146009524597"><ele>492.0</ele><time>2026-04-12T15:46:38.001Z</time></trkpt><trkpt lat="38.668005001513556" lon="16.080013979171532"><ele>492.0</ele><time>2026-04-12T15:46:39.001Z</time></trkpt><trkpt lat="38.66787273852312" lon="16.07989417690999"><ele>492.0</ele><time>2026-04-12T15:46:40.001Z</time></trkpt><trkpt lat="38.667744372767935" lon="16.07976904501175"><ele>492.0</ele><time>2026-04-12T15:46:41.001Z</time></trkpt><trkpt lat="38.66761435478696" lon="16.079652333030005"><ele>492.0</ele><time>2026-04-12T15:46:42.001Z</time></trkpt><trkpt lat="38.667477934729604" lon="16.079532467971262"><ele>492.0</ele><time>2026-04-12T15:46:43.001Z</time></trkpt><trkpt lat="38.66734959524519" lon="16.079395934968108"><ele>492.0</ele><time>2026-04-12T15:46:44.001Z</time></trkpt><trkpt lat="38.66723814519959" lon="16.07929441862746"><ele>492.0</ele><time>2026-04-12T15:46:45.001Z</time></trkpt><trkpt lat="38.66712927805041" lon="16.079180489431074"><ele>492.0</ele><time>2026-04-12T15:46:46.001Z</time></trkpt><trkpt lat="38.667015567778215" lon="16.079092398663313"><ele>492.0</ele><time>2026-04-12T15:46:47.001Z</time></trkpt><trkpt lat="38.66690456813065" lon="16.078971354102883"><ele>492.0</ele><time>2026-04-12T15:46:48.001Z</time></trkpt><trkpt lat="38.66678578864864" lon="16.078843851951106"><ele>493.25</ele><time>2026-04-12T15:46:49.001Z</time></trkpt><trkpt lat="38.66663584500746" lon="16.07869627485967"><ele>494.5</ele><time>2026-04-12T15:46:50.001Z</time></trkpt><trkpt lat="38.666541679843114" lon="16.078628517098196"><ele>495.75</ele><time>2026-04-12T15:46:51.001Z</time></trkpt><trkpt lat="38.66645724375602" lon="16.078535111944678"><ele>497.0</ele><time>2026-04-12T15:46:52.001Z</time></trkpt><trkpt lat="38.66636419427671" lon="16.078443120734573"><ele>497.0</ele><time>2026-04-12T15:46:53.001Z</time></trkpt><trkpt lat="38.66623246078801" lon="16.0783082703103"><ele>497.0</ele><time>2026-04-12T15:46:54.001Z</time></trkpt><trkpt lat="38.666110486959816" lon="16.078208874906576"><ele>497.0</ele><time>2026-04-12T15:46:55.001Z</time></trkpt><trkpt lat="38.665994425828806" lon="16.078085282241823"><ele>496.66666666666663</ele><time>2026-04-12T15:46:56.001Z</time></trkpt><trkpt lat="38.66587711516073" lon="16.077969204256103"><ele>496.33333333333337</ele><time>2026-04-12T15:46:57.001Z</time></trkpt><trkpt lat="38.665759024642824" lon="16.07785686229993"><ele>496.0</ele><time>2026-04-12T15:46:58.001Z</time></trkpt><trkpt lat="38.665635007146584" lon="16.077733680509677"><ele>496.0</ele><time>2026-04-12T15:46:59.001Z</time></trkpt><trkpt lat="38.665513906248634" lon="16.0776080266629"><ele>496.0</ele><time>2026-04-12T15:47:00Z</time></trkpt><trkpt lat="38.66538955831995" lon="16.07748670362682"><ele>496.0</ele><time>2026-04-12T15:47:01Z</time></trkpt><trkpt lat="38.66526687880443" lon="16.077347501970813"><ele>496.25</ele><time>2026-04-12T15:47:02Z</time></trkpt><trkpt lat="38.665146989536616" lon="16.077230386979156"><ele>496.5</ele><time>2026-04-12T15:47:03Z</time></trkpt><trkpt lat="38.66502439748738" lon="16.07711816469749"><ele>496.75</ele><time>2026-04-12T15:47:04Z</time></trkpt><trkpt lat="38.66490651529848" lon="16.077004306789476"><ele>497.0</ele><time>2026-04-12T15:47:05Z</time></trkpt><trkpt lat="38.664784960714364" lon="16.076889406665337"><ele>497.0</ele><time>2026-04-12T15:47:06Z</time></trkpt><trkpt lat="38.66466301759819" lon="16.07677415122178"><ele>497.0</ele><time>2026-04-12T15:47:07Z</time></trkpt><trkpt lat="38.66453215775481" lon="16.076657340499413"><ele>497.0</ele><time>2026-04-12T15:47:08Z</time></trkpt><trkpt lat="38.66440548939581" lon="16.076536526492433"><ele>498.66666666666663</ele><time>2026-04-12T15:47:09Z</time></trkpt><trkpt lat="38.664279767267445" lon="16.07641734913801"><ele>500.33333333333337</ele><time>2026-04-12T15:47:10Z</time></trkpt><trkpt lat="38.66415777017577" lon="16.076297136570442"><ele>502.0</ele><time>2026-04-12T15:47:11Z</time></trkpt><trkpt lat="38.66403299622813" lon="16.076175981709454"><ele>502.0</ele><time>2026-04-12T15:47:12Z</time></trkpt><trkpt lat="38.66391574152787" lon="16.076046129173903"><ele>502.0</ele><time>2026-04-12T15:47:13Z</time></trkpt><trkpt lat="38.66381020138312" lon="16.075961022083675"><ele>502.0</ele><time>2026-04-12T15:47:14Z</time></trkpt><trkpt lat="38.66370135202567" lon="16.07586686185978"><ele>502.0</ele><time>2026-04-12T15:47:15Z</time></trkpt><trkpt lat="38.66360950554505" lon="16.075754864591826"><ele>501.75</ele><time>2026-04-12T15:47:16Z</time></trkpt><trkpt lat="38.66351604616983" lon="16.07565937330668"><ele>501.5</ele><time>2026-04-12T15:47:17Z</time></trkpt><trkpt lat="38.663384508123414" lon="16.07550852469835"><ele>501.25</ele><time>2026-04-12T15:47:18Z</time></trkpt><trkpt lat="38.66329063126908" lon="16.075379106081144"><ele>501.0</ele><time>2026-04-12T15:47:19Z</time></trkpt><trkpt lat="38.66320354964084" lon="16.07524662116088"><ele>501.0</ele><time>2026-04-12T15:47:20Z</time></trkpt><trkpt lat="38.66313439114323" lon="16.075107202962897"><ele>501.0</ele><time>2026-04-12T15:47:21Z</time></trkpt><trkpt lat="38.663073920941734" lon="16.074972378126084"><ele>501.0</ele><time>2026-04-12T15:47:22Z</time></trkpt><trkpt lat="38.663021706533" lon="16.074845168972043"><ele>501.0</ele><time>2026-04-12T15:47:23Z</time></trkpt><trkpt lat="38.662975329249285" lon="16.074712971682388"><ele>501.25</ele><time>2026-04-12T15:47:24Z</time></trkpt><trkpt lat="38.662924496234226" lon="16.074568938727364"><ele>501.5</ele><time>2026-04-12T15:47:25Z</time></trkpt><trkpt lat="38.662870274789036" lon="16.07441449957845"><ele>501.75</ele><time>2026-04-12T15:47:26Z</time></trkpt><trkpt lat="38.66281481470549" lon="16.07424697588366"><ele>502.0</ele><time>2026-04-12T15:47:27Z</time></trkpt><trkpt lat="38.66275864424416" lon="16.074068781075336"><ele>501.0</ele><time>2026-04-12T15:47:28Z</time></trkpt><trkpt lat="38.66270263356634" lon="16.073884659028902"><ele>500.0</ele><time>2026-04-12T15:47:29Z</time></trkpt><trkpt lat="38.66264289136305" lon="16.073697900045925"><ele>499.0</ele><time>2026-04-12T15:47:30Z</time></trkpt><trkpt lat="38.66258515539098" lon="16.07351835244319"><ele>499.0</ele><time>2026-04-12T15:47:31Z</time></trkpt><trkpt lat="38.66253154153305" lon="16.073330812897026"><ele>499.0</ele><time>2026-04-12T15:47:32Z</time></trkpt><trkpt lat="38.662475951888624" lon="16.073140136256256"><ele>499.0</ele><time>2026-04-12T15:47:33Z</time></trkpt><trkpt lat="38.66241947807226" lon="16.072951567981157"><ele>499.0</ele><time>2026-04-12T15:47:34Z</time></trkpt><trkpt lat="38.66236637833839" lon="16.072758397586476"><ele>499.0</ele><time>2026-04-12T15:47:35Z</time></trkpt><trkpt lat="38.66230988889821" lon="16.072560033256618"><ele>499.0</ele><time>2026-04-12T15:47:36Z</time></trkpt><trkpt lat="38.66225899828836" lon="16.072370731752397"><ele>498.6666666666667</ele><time>2026-04-12T15:47:37Z</time></trkpt><trkpt lat="38.66220595450614" lon="16.07218307823643"><ele>498.33333333333337</ele><time>2026-04-12T15:47:38Z</time></trkpt><trkpt lat="38.66214981051453" lon="16.071995084531398"><ele>498.0</ele><time>2026-04-12T15:47:39Z</time></trkpt><trkpt lat="38.66209711998919" lon="16.071814941764675"><ele>498.0</ele><time>2026-04-12T15:47:40Z</time></trkpt><trkpt lat="38.662041413213636" lon="16.07163279211284"><ele>498.0</ele><time>2026-04-12T15:47:41Z</time></trkpt><trkpt lat="38.6619849387652" lon="16.07144845236839"><ele>498.0</ele><time>2026-04-12T15:47:42Z</time></trkpt><trkpt lat="38.66192646650377" lon="16.07126951138706"><ele>497.33333333333337</ele><time>2026-04-12T15:47:43Z</time></trkpt><trkpt lat="38.6618711592379" lon="16.071093148764803"><ele>496.6666666666667</ele><time>2026-04-12T15:47:44Z</time></trkpt><trkpt lat="38.661817952480156" lon="16.070911501807046"><ele>496.0</ele><time>2026-04-12T15:47:45Z</time></trkpt><trkpt lat="38.66176116779142" lon="16.070730926662947"><ele>495.6666666666667</ele><time>2026-04-12T15:47:46Z</time></trkpt><trkpt lat="38.661700120448835" lon="16.070543428691234"><ele>495.33333333333337</ele><time>2026-04-12T15:47:47.001Z</time></trkpt><trkpt lat="38.661634771941536" lon="16.07036546503617"><ele>495.0</ele><time>2026-04-12T15:47:48.001Z</time></trkpt><trkpt lat="38.66156862362684" lon="16.070189453561195"><ele>495.0</ele><time>2026-04-12T15:47:49.001Z</time></trkpt><trkpt lat="38.66150306274386" lon="16.070016242764435"><ele>495.0</ele><time>2026-04-12T15:47:50.001Z</time></trkpt><trkpt lat="38.66144591279473" lon="16.069855276025553"><ele>495.0</ele><time>2026-04-12T15:47:51.001Z</time></trkpt><trkpt lat="38.661391045511195" lon="16.069689569406613"><ele>495.0</ele><time>2026-04-12T15:47:52.001Z</time></trkpt><trkpt lat="38.66132309240953" lon="16.069525447549236"><ele>495.0</ele><time>2026-04-12T15:47:53.001Z</time></trkpt><trkpt lat="38.66126285460287" lon="16.069326885935293"><ele>495.0</ele><time>2026-04-12T15:47:54.001Z</time></trkpt><trkpt lat="38.66120186659877" lon="16.069148601028047"><ele>495.0</ele><time>2026-04-12T15:47:55.001Z</time></trkpt><trkpt lat="38.6611417988597" lon="16.06896479115256"><ele>496.33333333333337</ele><time>2026-04-12T15:47:56.001Z</time></trkpt><trkpt lat="38.66107724574478" lon="16.068775892423304"><ele>497.6666666666667</ele><time>2026-04-12T15:47:57.001Z</time></trkpt><trkpt lat="38.66100970661812" lon="16.068593879516637"><ele>499.0</ele><time>2026-04-12T15:47:58.001Z</time></trkpt><trkpt lat="38.660938809362634" lon="16.06841478089545"><ele>499.0</ele><time>2026-04-12T15:47:59.001Z</time></trkpt><trkpt lat="38.66087803672333" lon="16.068250093438884"><ele>499.0</ele><time>2026-04-12T15:48:00.001Z</time></trkpt><trkpt lat="38.66080604720608" lon="16.06807452224029"><ele>499.0</ele><time>2026-04-12T15:48:01.001Z</time></trkpt><trkpt lat="38.660736780357325" lon="16.067889455122113"><ele>499.0</ele><time>2026-04-12T15:48:02.001Z</time></trkpt><trkpt lat="38.66068470087581" lon="16.067691312363852"><ele>499.0</ele><time>2026-04-12T15:48:03.001Z</time></trkpt><trkpt lat="38.66062635970775" lon="16.06749506710311"><ele>499.0</ele><time>2026-04-12T15:48:04.001Z</time></trkpt><trkpt lat="38.660555255365466" lon="16.06730203302809"><ele>499.0</ele><time>2026-04-12T15:48:05.001Z</time></trkpt><trkpt lat="38.66048250582307" lon="16.06711715734942"><ele>499.0</ele><time>2026-04-12T15:48:06.001Z</time></trkpt><trkpt lat="38.6604099700589" lon="16.066937147798587"><ele>499.0</ele><time>2026-04-12T15:48:07.001Z</time></trkpt><trkpt lat="38.6603454152236" lon="16.066757024006172"><ele>498.5</ele><time>2026-04-12T15:48:08.001Z</time></trkpt><trkpt lat="38.660283415125974" lon="16.066579297381836"><ele>498.0</ele><time>2026-04-12T15:48:09.001Z</time></trkpt><trkpt lat="38.66022208028693" lon="16.066412395498354"><ele>497.5</ele><time>2026-04-12T15:48:10.001Z</time></trkpt><trkpt lat="38.66015894681388" lon="16.066241895737186"><ele>497.0</ele><time>2026-04-12T15:48:11.001Z</time></trkpt><trkpt lat="38.66009973345265" lon="16.066081115754873"><ele>498.0</ele><time>2026-04-12T15:48:12.001Z</time></trkpt><trkpt lat="38.66003720418383" lon="16.065910097253333"><ele>499.0</ele><time>2026-04-12T15:48:13.001Z</time></trkpt><trkpt lat="38.65997822325084" lon="16.065747384955905"><ele>500.0</ele><time>2026-04-12T15:48:14.001Z</time></trkpt><trkpt lat="38.65991582889086" lon="16.06557274371522"><ele>501.0</ele><time>2026-04-12T15:48:15.001Z</time></trkpt><trkpt lat="38.65985452502641" lon="16.06539444436752"><ele>501.0</ele><time>2026-04-12T15:48:16.001Z</time></trkpt><trkpt lat="38.65979854088589" lon="16.065218718536638"><ele>501.0</ele><time>2026-04-12T15:48:17.001Z</time></trkpt><trkpt lat="38.65974169265305" lon="16.065043650268418"><ele>501.0</ele><time>2026-04-12T15:48:18.001Z</time></trkpt><trkpt lat="38.65968954674067" lon="16.064892554415724"><ele>501.0</ele><time>2026-04-12T15:48:19.001Z</time></trkpt><trkpt lat="38.65964516144934" lon="16.06475065476921"><ele>501.0</ele><time>2026-04-12T15:48:20.001Z</time></trkpt><trkpt lat="38.65960411051545" lon="16.064634520737783"><ele>501.0</ele><time>2026-04-12T15:48:21.001Z</time></trkpt><trkpt lat="38.65956460333208" lon="16.064522754240443"><ele>501.0</ele><time>2026-04-12T15:48:22.001Z</time></trkpt><trkpt lat="38.65952195248436" lon="16.064402094256987"><ele>501.0</ele><time>2026-04-12T15:48:23.001Z</time></trkpt><trkpt lat="38.65946954501553" lon="16.06425382963591"><ele>501.0</ele><time>2026-04-12T15:48:24.001Z</time></trkpt><trkpt lat="38.65941228363787" lon="16.064095382445082"><ele>502.75</ele><time>2026-04-12T15:48:25.001Z</time></trkpt><trkpt lat="38.65935506954017" lon="16.06393357375658"><ele>504.5</ele><time>2026-04-12T15:48:26.001Z</time></trkpt><trkpt lat="38.65930646860567" lon="16.06379600468723"><ele>506.25</ele><time>2026-04-12T15:48:27.001Z</time></trkpt><trkpt lat="38.65925793879036" lon="16.063658651865747"><ele>508.0</ele><time>2026-04-12T15:48:28.001Z</time></trkpt><trkpt lat="38.65920347517638" lon="16.063502340366284"><ele>508.0</ele><time>2026-04-12T15:48:29.001Z</time></trkpt><trkpt lat="38.65915281712574" lon="16.063358282019767"><ele>508.0</ele><time>2026-04-12T15:48:30.001Z</time></trkpt><trkpt lat="38.659107809391486" lon="16.063230291483894"><ele>508.0</ele><time>2026-04-12T15:48:31.001Z</time></trkpt><trkpt lat="38.659055294458284" lon="16.06308095286628"><ele>508.0</ele><time>2026-04-12T15:48:32.001Z</time></trkpt><trkpt lat="38.658994831801785" lon="16.062909012749778"><ele>507.0</ele><time>2026-04-12T15:48:33.001Z</time></trkpt><trkpt lat="38.6589349030269" lon="16.062738590980054"><ele>506.0</ele><time>2026-04-12T15:48:34.001Z</time></trkpt><trkpt lat="38.65887784356734" lon="16.062577679856958"><ele>505.0</ele><time>2026-04-12T15:48:35.001Z</time></trkpt><trkpt lat="38.65880942949702" lon="16.062435965870336"><ele>504.0</ele><time>2026-04-12T15:48:36.001Z</time></trkpt><trkpt lat="38.65876829284668" lon="16.06226999617156"><ele>504.75</ele><time>2026-04-12T15:48:37.001Z</time></trkpt><trkpt lat="38.658712047112786" lon="16.06211202419593"><ele>505.5</ele><time>2026-04-12T15:48:38.001Z</time></trkpt><trkpt lat="38.658637146462084" lon="16.061946325143833"><ele>506.25</ele><time>2026-04-12T15:48:39.001Z</time></trkpt><trkpt lat="38.65859386717937" lon="16.061772511547506"><ele>507.0</ele><time>2026-04-12T15:48:40.001Z</time></trkpt><trkpt lat="38.65852740663792" lon="16.061600633031222"><ele>507.0</ele><time>2026-04-12T15:48:41.001Z</time></trkpt><trkpt lat="38.658448829329195" lon="16.06142555972646"><ele>507.0</ele><time>2026-04-12T15:48:42.001Z</time></trkpt><trkpt lat="38.65835579491356" lon="16.06126816046945"><ele>507.0</ele><time>2026-04-12T15:48:43.001Z</time></trkpt><trkpt lat="38.658261688108034" lon="16.06112325535569"><ele>507.0</ele><time>2026-04-12T15:48:44.001Z</time></trkpt><trkpt lat="38.65817009649481" lon="16.060985184409986"><ele>507.0</ele><time>2026-04-12T15:48:45.001Z</time></trkpt><trkpt lat="38.65808344158207" lon="16.060855344008413"><ele>507.0</ele><time>2026-04-12T15:48:46.001Z</time></trkpt><trkpt lat="38.657996053679895" lon="16.060724404314048"><ele>507.0</ele><time>2026-04-12T15:48:47.001Z</time></trkpt><trkpt lat="38.65790676748994" lon="16.06058839845079"><ele>505.66666666666663</ele><time>2026-04-12T15:48:48.001Z</time></trkpt><trkpt lat="38.65781282187278" lon="16.06044499314598"><ele>504.3333333333333</ele><time>2026-04-12T15:48:49.001Z</time></trkpt><trkpt lat="38.65771070473096" lon="16.060288078126657"><ele>503.0</ele><time>2026-04-12T15:48:50.001Z</time></trkpt><trkpt lat="38.65760957048537" lon="16.060136196165157"><ele>505.0</ele><time>2026-04-12T15:48:51.001Z</time></trkpt><trkpt lat="38.657513537173855" lon="16.059992478782224"><ele>507.0</ele><time>2026-04-12T15:48:52.001Z</time></trkpt><trkpt lat="38.6574158721748" lon="16.05984660279155"><ele>509.0</ele><time>2026-04-12T15:48:53.001Z</time></trkpt><trkpt lat="38.6573176097693" lon="16.05969983460007"><ele>511.0</ele><time>2026-04-12T15:48:54.001Z</time></trkpt><trkpt lat="38.65722245015193" lon="16.059556281629916"><ele>511.0</ele><time>2026-04-12T15:48:55.001Z</time></trkpt><trkpt lat="38.65712343750525" lon="16.059423529989086"><ele>511.0</ele><time>2026-04-12T15:48:56.001Z</time></trkpt><trkpt lat="38.65700814675013" lon="16.059299266468976"><ele>511.0</ele><time>2026-04-12T15:48:57.001Z</time></trkpt><trkpt lat="38.656876174511126" lon="16.059186955315973"><ele>512.25</ele><time>2026-04-12T15:48:58.001Z</time></trkpt><trkpt lat="38.65673779152442" lon="16.059107024128473"><ele>513.5</ele><time>2026-04-12T15:48:59.001Z</time></trkpt><trkpt lat="38.656613424342076" lon="16.059039418981076"><ele>514.75</ele><time>2026-04-12T15:49:00.001Z</time></trkpt><trkpt lat="38.65649621828424" lon="16.058980045368422"><ele>516.0</ele><time>2026-04-12T15:49:01.001Z</time></trkpt><trkpt lat="38.65636587390844" lon="16.058925599567832"><ele>516.0</ele><time>2026-04-12T15:49:02.001Z</time></trkpt><trkpt lat="38.656217996171605" lon="16.058869197517065"><ele>516.0</ele><time>2026-04-12T15:49:03.001Z</time></trkpt><trkpt lat="38.656063883446116" lon="16.058803099991852"><ele>516.0</ele><time>2026-04-12T15:49:04.001Z</time></trkpt><trkpt lat="38.655908172174016" lon="16.05871574749658"><ele>517.0</ele><time>2026-04-12T15:49:05.001Z</time></trkpt><trkpt lat="38.6557526966003" lon="16.058627652017872"><ele>518.0</ele><time>2026-04-12T15:49:06.001Z</time></trkpt><trkpt lat="38.65561652696917" lon="16.05852697145949"><ele>519.0</ele><time>2026-04-12T15:49:07.001Z</time></trkpt><trkpt lat="38.655479237786395" lon="16.05841946446433"><ele>519.0</ele><time>2026-04-12T15:49:08.001Z</time></trkpt><trkpt lat="38.65534447709227" lon="16.058305555573174"><ele>519.0</ele><time>2026-04-12T15:49:09.001Z</time></trkpt><trkpt lat="38.65520345084515" lon="16.05819478847308"><ele>519.0</ele><time>2026-04-12T15:49:10.001Z</time></trkpt><trkpt lat="38.655065140420994" lon="16.0580829961175"><ele>518.0</ele><time>2026-04-12T15:49:11.001Z</time></trkpt><trkpt lat="38.65492469270239" lon="16.057973532223805"><ele>517.0</ele><time>2026-04-12T15:49:12Z</time></trkpt><trkpt lat="38.65478457381131" lon="16.057861136992514"><ele>516.0</ele><time>2026-04-12T15:49:13Z</time></trkpt><trkpt lat="38.65465201792017" lon="16.057732632943466"><ele>516.0</ele><time>2026-04-12T15:49:14Z</time></trkpt><trkpt lat="38.65450376776568" lon="16.057636283631282"><ele>516.0</ele><time>2026-04-12T15:49:15Z</time></trkpt><trkpt lat="38.654361356591586" lon="16.057525360563282"><ele>516.0</ele><time>2026-04-12T15:49:16Z</time></trkpt><trkpt lat="38.65422814291217" lon="16.05741608005425"><ele>515.3333333333334</ele><time>2026-04-12T15:49:17Z</time></trkpt><trkpt lat="38.654094974857735" lon="16.05730993115117"><ele>514.6666666666667</ele><time>2026-04-12T15:49:18Z</time></trkpt><trkpt lat="38.6539656193562" lon="16.057206243815994"><ele>514.0</ele><time>2026-04-12T15:49:19Z</time></trkpt><trkpt lat="38.65383744791433" lon="16.05710311592056"><ele>514.0</ele><time>2026-04-12T15:49:20Z</time></trkpt><trkpt lat="38.653711464579295" lon="16.057002375056804"><ele>514.0</ele><time>2026-04-12T15:49:21Z</time></trkpt><trkpt lat="38.65359296950756" lon="16.056884627794705"><ele>514.0</ele><time>2026-04-12T15:49:22Z</time></trkpt><trkpt lat="38.65346275475355" lon="16.05679079225124"><ele>514.0</ele><time>2026-04-12T15:49:23Z</time></trkpt><trkpt lat="38.65334598328153" lon="16.056690168291176"><ele>513.75</ele><time>2026-04-12T15:49:24Z</time></trkpt><trkpt lat="38.653241401519765" lon="16.056575689807488"><ele>513.5</ele><time>2026-04-12T15:49:25Z</time></trkpt><trkpt lat="38.65315105144111" lon="16.056469117174238"><ele>513.25</ele><time>2026-04-12T15:49:26Z</time></trkpt><trkpt lat="38.65306869107659" lon="16.056359282351572"><ele>513.0</ele><time>2026-04-12T15:49:27Z</time></trkpt><trkpt lat="38.652992103977915" lon="16.05626123000986"><ele>513.0</ele><time>2026-04-12T15:49:28Z</time></trkpt><trkpt lat="38.652916475990125" lon="16.05616365484656"><ele>513.0</ele><time>2026-04-12T15:49:29Z</time></trkpt><trkpt lat="38.65285028915593" lon="16.056074199769753"><ele>513.0</ele><time>2026-04-12T15:49:30Z</time></trkpt><trkpt lat="38.65279004780572" lon="16.055988913492993"><ele>513.0</ele><time>2026-04-12T15:49:31Z</time></trkpt><trkpt lat="38.65274603493685" lon="16.055917066888153"><ele>513.0</ele><time>2026-04-12T15:49:32Z</time></trkpt><trkpt lat="38.652699924355325" lon="16.055853462643164"><ele>513.0</ele><time>2026-04-12T15:49:34Z</time></trkpt><trkpt lat="38.65263669626968" lon="16.055810515273087"><ele>513.1999999999999</ele><time>2026-04-12T15:49:44Z</time></trkpt><trkpt lat="38.65260394231424" lon="16.05571167061095"><ele>513.4</ele><time>2026-04-12T15:49:47Z</time></trkpt><trkpt lat="38.652584675213" lon="16.055632848037472"><ele>513.5999999999999</ele><time>2026-04-12T15:49:49Z</time></trkpt><trkpt lat="38.65255359536388" lon="16.05550722030788"><ele>513.8</ele><time>2026-04-12T15:49:51Z</time></trkpt><trkpt lat="38.652478717409956" lon="16.05541013786447"><ele>514.0</ele><time>2026-04-12T15:49:53Z</time></trkpt><trkpt lat="38.6523731662865" lon="16.055333842179728"><ele>514.0</ele><time>2026-04-12T15:49:55Z</time></trkpt><trkpt lat="38.65229898234644" lon="16.055306114874835"><ele>514.0</ele><time>2026-04-12T15:49:56Z</time></trkpt><trkpt lat="38.65223359228823" lon="16.055327607179937"><ele>514.0</ele><time>2026-04-12T15:49:57Z</time></trkpt><trkpt lat="38.65216761905059" lon="16.05531619156611"><ele>514.0</ele><time>2026-04-12T15:49:58Z</time></trkpt><trkpt lat="38.652086709728025" lon="16.055357316141265"><ele>514.0</ele><time>2026-04-12T15:49:59Z</time></trkpt><trkpt lat="38.6520196699102" lon="16.05533497149968"><ele>514.0</ele><time>2026-04-12T15:50:00Z</time></trkpt><trkpt lat="38.65195203186192" lon="16.05532163868887"><ele>514.0</ele><time>2026-04-12T15:50:01Z</time></trkpt><trkpt lat="38.651882499857116" lon="16.055312698978373"><ele>513.7142857142857</ele><time>2026-04-12T15:50:02Z</time></trkpt><trkpt lat="38.651810144891186" lon="16.055306567007808"><ele>513.4285714285714</ele><time>2026-04-12T15:50:03Z</time></trkpt><trkpt lat="38.651738843796416" lon="16.0553032302595"><ele>513.1428571428571</ele><time>2026-04-12T15:50:04Z</time></trkpt><trkpt lat="38.65166673898266" lon="16.055288493836102"><ele>512.8571428571429</ele><time>2026-04-12T15:50:05Z</time></trkpt><trkpt lat="38.65159588147216" lon="16.05530560169941"><ele>512.5714285714286</ele><time>2026-04-12T15:50:06Z</time></trkpt><trkpt lat="38.65152570854996" lon="16.055322116802884"><ele>512.2857142857142</ele><time>2026-04-12T15:50:07Z</time></trkpt><trkpt lat="38.651460065692916" lon="16.055350149344346"><ele>512.0</ele><time>2026-04-12T15:50:08Z</time></trkpt><trkpt lat="38.651373920980255" lon="16.05533229974299"><ele>511.99999999999994</ele><time>2026-04-12T15:50:09Z</time></trkpt><trkpt lat="38.65129199287574" lon="16.05534275058432"><ele>512.0</ele><time>2026-04-12T15:50:10Z</time></trkpt><trkpt lat="38.65120907774579" lon="16.05535832924401"><ele>512.0</ele><time>2026-04-12T15:50:11Z</time></trkpt><trkpt lat="38.65112019021612" lon="16.055385752814075"><ele>512.0</ele><time>2026-04-12T15:50:12.001Z</time></trkpt><trkpt lat="38.65102650868553" lon="16.055402190513426"><ele>511.99999999999994</ele><time>2026-04-12T15:50:13.001Z</time></trkpt><trkpt lat="38.65093110353261" lon="16.055411239578902"><ele>512.0</ele><time>2026-04-12T15:50:14.001Z</time></trkpt><trkpt lat="38.65082961032883" lon="16.055424869447908"><ele>511.8</ele><time>2026-04-12T15:50:15.001Z</time></trkpt><trkpt lat="38.65072339812202" lon="16.055439788923284"><ele>511.6</ele><time>2026-04-12T15:50:16.001Z</time></trkpt><trkpt lat="38.65059862519565" lon="16.05543347321122"><ele>511.40000000000003</ele><time>2026-04-12T15:50:17.001Z</time></trkpt><trkpt lat="38.65050977968447" lon="16.055439675860043"><ele>511.20000000000005</ele><time>2026-04-12T15:50:18.001Z</time></trkpt><trkpt lat="38.650399568619974" lon="16.055449157237696"><ele>511.0</ele><time>2026-04-12T15:50:19.001Z</time></trkpt><trkpt lat="38.65027966691611" lon="16.055459446241997"><ele>511.5</ele><time>2026-04-12T15:50:20.001Z</time></trkpt><trkpt lat="38.650161472988444" lon="16.05546416854366"><ele>512.0</ele><time>2026-04-12T15:50:21.001Z</time></trkpt><trkpt lat="38.6500375832569" lon="16.05547215193978"><ele>512.5</ele><time>2026-04-12T15:50:22.001Z</time></trkpt><trkpt lat="38.64991493595133" lon="16.05547925530442"><ele>513.0</ele><time>2026-04-12T15:50:23.001Z</time></trkpt><trkpt lat="38.649791013786825" lon="16.055489534277076"><ele>513.0</ele><time>2026-04-12T15:50:24.001Z</time></trkpt><trkpt lat="38.649665944753664" lon="16.055501779760117"><ele>513.0</ele><time>2026-04-12T15:50:25.001Z</time></trkpt><trkpt lat="38.64954500799141" lon="16.05550834295365"><ele>513.0</ele><time>2026-04-12T15:50:26.001Z</time></trkpt><trkpt lat="38.64942212717851" lon="16.05553061110844"><ele>513.0</ele><time>2026-04-12T15:50:27.001Z</time></trkpt><trkpt lat="38.64931446647158" lon="16.055533682947587"><ele>513.0</ele><time>2026-04-12T15:50:28.001Z</time></trkpt><trkpt lat="38.64917830429524" lon="16.05553379953673"><ele>513.0</ele><time>2026-04-12T15:50:29.001Z</time></trkpt><trkpt lat="38.64905135234236" lon="16.055533987638466"><ele>513.0</ele><time>2026-04-12T15:50:30.001Z</time></trkpt><trkpt lat="38.64892523000905" lon="16.0555253890265"><ele>513.0</ele><time>2026-04-12T15:50:31.001Z</time></trkpt><trkpt lat="38.648803025734296" lon="16.055489655387678"><ele>513.0</ele><time>2026-04-12T15:50:32.001Z</time></trkpt><trkpt lat="38.64868350977703" lon="16.055454494281648"><ele>513.0</ele><time>2026-04-12T15:50:33.001Z</time></trkpt><trkpt lat="38.64857169653677" lon="16.05542226670261"><ele>513.0</ele><time>2026-04-12T15:50:34.001Z</time></trkpt><trkpt lat="38.648452081406674" lon="16.055350738465915"><ele>513.0</ele><time>2026-04-12T15:50:35.001Z</time></trkpt><trkpt lat="38.64834282083444" lon="16.0553101925607"><ele>513.5</ele><time>2026-04-12T15:50:36.001Z</time></trkpt><trkpt lat="38.648222022861304" lon="16.055268073704926"><ele>514.0</ele><time>2026-04-12T15:50:37.001Z</time></trkpt><trkpt lat="38.64811378496661" lon="16.055207828006385"><ele>514.5</ele><time>2026-04-12T15:50:38.001Z</time></trkpt><trkpt lat="38.647996613198444" lon="16.055151834356394"><ele>515.0</ele><time>2026-04-12T15:50:39.001Z</time></trkpt><trkpt lat="38.64787144541449" lon="16.055099561523296"><ele>514.75</ele><time>2026-04-12T15:50:40.001Z</time></trkpt><trkpt lat="38.647751450444446" lon="16.055045016590306"><ele>514.5</ele><time>2026-04-12T15:50:41.001Z</time></trkpt><trkpt lat="38.64762508201965" lon="16.054996927409142"><ele>514.25</ele><time>2026-04-12T15:50:42.001Z</time></trkpt><trkpt lat="38.64750186371929" lon="16.05494057765338"><ele>514.0</ele><time>2026-04-12T15:50:43.001Z</time></trkpt><trkpt lat="38.64737544594331" lon="16.05488890167447"><ele>513.75</ele><time>2026-04-12T15:50:44.001Z</time></trkpt><trkpt lat="38.64724545644893" lon="16.054840188850054"><ele>513.5</ele><time>2026-04-12T15:50:45.001Z</time></trkpt><trkpt lat="38.64711746494797" lon="16.054778261977038"><ele>513.25</ele><time>2026-04-12T15:50:46.001Z</time></trkpt><trkpt lat="38.646987709631816" lon="16.054718397573698"><ele>513.0</ele><time>2026-04-12T15:50:47.001Z</time></trkpt><trkpt lat="38.64685660420882" lon="16.054665023628445"><ele>513.5</ele><time>2026-04-12T15:50:48.001Z</time></trkpt><trkpt lat="38.646725668515685" lon="16.054596085130427"><ele>514.0</ele><time>2026-04-12T15:50:49.001Z</time></trkpt><trkpt lat="38.64659272574238" lon="16.054535759808516"><ele>514.5</ele><time>2026-04-12T15:50:50.001Z</time></trkpt><trkpt lat="38.64645470833103" lon="16.0544770735795"><ele>515.0</ele><time>2026-04-12T15:50:51.001Z</time></trkpt><trkpt lat="38.64631772433352" lon="16.05440166593847"><ele>515.0</ele><time>2026-04-12T15:50:52.001Z</time></trkpt><trkpt lat="38.64617421939967" lon="16.05433710315544"><ele>515.0</ele><time>2026-04-12T15:50:53.001Z</time></trkpt><trkpt lat="38.64603055483826" lon="16.05427422786521"><ele>515.0</ele><time>2026-04-12T15:50:54.001Z</time></trkpt><trkpt lat="38.645886843262694" lon="16.054215374496714"><ele>515.25</ele><time>2026-04-12T15:50:55.001Z</time></trkpt><trkpt lat="38.645747452281945" lon="16.05415670646347"><ele>515.5</ele><time>2026-04-12T15:50:56.001Z</time></trkpt><trkpt lat="38.64560078167929" lon="16.054095154460036"><ele>515.75</ele><time>2026-04-12T15:50:57.001Z</time></trkpt><trkpt lat="38.645465460221104" lon="16.054017374397127"><ele>516.0</ele><time>2026-04-12T15:50:58.001Z</time></trkpt><trkpt lat="38.64532246873511" lon="16.053976533628877"><ele>516.5</ele><time>2026-04-12T15:50:59.001Z</time></trkpt><trkpt lat="38.64518376184999" lon="16.053918714486052"><ele>517.0</ele><time>2026-04-12T15:51:00.001Z</time></trkpt><trkpt lat="38.645051371893" lon="16.053862456824376"><ele>517.5</ele><time>2026-04-12T15:51:01.001Z</time></trkpt><trkpt lat="38.644925777632835" lon="16.05380891573034"><ele>518.0</ele><time>2026-04-12T15:51:02.001Z</time></trkpt><trkpt lat="38.64481116155441" lon="16.05376168428443"><ele>518.0</ele><time>2026-04-12T15:51:03.001Z</time></trkpt><trkpt lat="38.64469424156691" lon="16.05370469569916"><ele>518.0</ele><time>2026-04-12T15:51:04.001Z</time></trkpt><trkpt lat="38.64457912234903" lon="16.053657463470305"><ele>518.0</ele><time>2026-04-12T15:51:05.001Z</time></trkpt><trkpt lat="38.644462908275244" lon="16.05360736813695"><ele>518.0</ele><time>2026-04-12T15:51:06.001Z</time></trkpt><trkpt lat="38.64434227556876" lon="16.05355916545075"><ele>517.5</ele><time>2026-04-12T15:51:07.001Z</time></trkpt><trkpt lat="38.64421298466918" lon="16.05350888006417"><ele>517.0</ele><time>2026-04-12T15:51:08.001Z</time></trkpt><trkpt lat="38.644082394046734" lon="16.05346174393203"><ele>516.5</ele><time>2026-04-12T15:51:09.001Z</time></trkpt><trkpt lat="38.64394657005515" lon="16.053406944934046"><ele>516.0</ele><time>2026-04-12T15:51:10.001Z</time></trkpt><trkpt lat="38.64380875670197" lon="16.053348890922987"><ele>516.0</ele><time>2026-04-12T15:51:11.001Z</time></trkpt><trkpt lat="38.643674950622085" lon="16.053295224360674"><ele>516.0</ele><time>2026-04-12T15:51:12Z</time></trkpt><trkpt lat="38.64353623631835" lon="16.053237289014525"><ele>516.0</ele><time>2026-04-12T15:51:13Z</time></trkpt><trkpt lat="38.643404905569945" lon="16.053192257670226"><ele>516.0</ele><time>2026-04-12T15:51:14Z</time></trkpt><trkpt lat="38.643275898649044" lon="16.053139788948126"><ele>516.0</ele><time>2026-04-12T15:51:15Z</time></trkpt><trkpt lat="38.64313588772446" lon="16.0530772825657"><ele>516.0</ele><time>2026-04-12T15:51:16Z</time></trkpt><trkpt lat="38.64299851479879" lon="16.0530221008142"><ele>516.0</ele><time>2026-04-12T15:51:17Z</time></trkpt><trkpt lat="38.64286897440719" lon="16.052953220767236"><ele>516.0</ele><time>2026-04-12T15:51:18Z</time></trkpt><trkpt lat="38.64274092711338" lon="16.052878708538792"><ele>516.0</ele><time>2026-04-12T15:51:19Z</time></trkpt><trkpt lat="38.64262380334604" lon="16.052783967088832"><ele>516.0</ele><time>2026-04-12T15:51:20Z</time></trkpt><trkpt lat="38.64251382342249" lon="16.052665415374413"><ele>516.0</ele><time>2026-04-12T15:51:21Z</time></trkpt><trkpt lat="38.64240971822536" lon="16.052523784650987"><ele>516.0</ele><time>2026-04-12T15:51:22Z</time></trkpt><trkpt lat="38.64231751373545" lon="16.052367158379962"><ele>516.3333333333334</ele><time>2026-04-12T15:51:23Z</time></trkpt><trkpt lat="38.642217528783085" lon="16.052219359417933"><ele>516.6666666666667</ele><time>2026-04-12T15:51:24Z</time></trkpt><trkpt lat="38.6421238257243" lon="16.052062758942075"><ele>517.0</ele><time>2026-04-12T15:51:25Z</time></trkpt><trkpt lat="38.64201151920576" lon="16.051908698596613"><ele>515.0</ele><time>2026-04-12T15:51:26Z</time></trkpt><trkpt lat="38.64188509538557" lon="16.051783401312566"><ele>513.0</ele><time>2026-04-12T15:51:27Z</time></trkpt><trkpt lat="38.64176268775427" lon="16.05166488521662"><ele>511.0</ele><time>2026-04-12T15:51:28Z</time></trkpt><trkpt lat="38.641594071341935" lon="16.051645420474536"><ele>513.3333333333334</ele><time>2026-04-12T15:51:29Z</time></trkpt><trkpt lat="38.641438557465435" lon="16.05160866633682"><ele>515.6666666666666</ele><time>2026-04-12T15:51:30Z</time></trkpt><trkpt lat="38.64129397631977" lon="16.051574916295305"><ele>518.0</ele><time>2026-04-12T15:51:31Z</time></trkpt><trkpt lat="38.64115522809325" lon="16.051513470128082"><ele>516.75</ele><time>2026-04-12T15:51:32Z</time></trkpt><trkpt lat="38.64104286308449" lon="16.05144100410475"><ele>515.5</ele><time>2026-04-12T15:51:33Z</time></trkpt><trkpt lat="38.6409330145034" lon="16.051327786136667"><ele>514.25</ele><time>2026-04-12T15:51:34Z</time></trkpt><trkpt lat="38.640840886371684" lon="16.051200331986077"><ele>513.0</ele><time>2026-04-12T15:51:35Z</time></trkpt><trkpt lat="38.64073771623391" lon="16.051070743187804"><ele>513.0</ele><time>2026-04-12T15:51:36Z</time></trkpt><trkpt lat="38.64062939581061" lon="16.05096458776299"><ele>513.0</ele><time>2026-04-12T15:51:37Z</time></trkpt><trkpt lat="38.64050684496765" lon="16.05087849710416"><ele>513.0</ele><time>2026-04-12T15:51:38Z</time></trkpt><trkpt lat="38.64037444439822" lon="16.0508420492219"><ele>513.0</ele><time>2026-04-12T15:51:39Z</time></trkpt><trkpt lat="38.640257860836826" lon="16.050811903476344"><ele>512.0</ele><time>2026-04-12T15:51:40Z</time></trkpt><trkpt lat="38.64014581324151" lon="16.050809547129163"><ele>511.0</ele><time>2026-04-12T15:51:41Z</time></trkpt><trkpt lat="38.64004015632637" lon="16.0508541470379"><ele>510.0</ele><time>2026-04-12T15:51:42Z</time></trkpt><trkpt lat="38.63994944677467" lon="16.05094537028834"><ele>509.0</ele><time>2026-04-12T15:51:43Z</time></trkpt><trkpt lat="38.63988275493715" lon="16.05108911897587"><ele>509.0</ele><time>2026-04-12T15:51:44Z</time></trkpt><trkpt lat="38.63982328775083" lon="16.051225727271824"><ele>509.0</ele><time>2026-04-12T15:51:45Z</time></trkpt><trkpt lat="38.639756307475224" lon="16.05142160886221"><ele>509.0</ele><time>2026-04-12T15:51:46Z</time></trkpt><trkpt lat="38.63970628755277" lon="16.05152673145483"><ele>509.0</ele><time>2026-04-12T15:51:47Z</time></trkpt><trkpt lat="38.639598279336454" lon="16.051646904040833"><ele>507.5</ele><time>2026-04-12T15:51:48Z</time></trkpt><trkpt lat="38.63949396771027" lon="16.051711375611834"><ele>506.0</ele><time>2026-04-12T15:51:49Z</time></trkpt><trkpt lat="38.63937759005722" lon="16.051733447008363"><ele>504.5</ele><time>2026-04-12T15:51:50Z</time></trkpt><trkpt lat="38.639250894838845" lon="16.05173245180545"><ele>503.0</ele><time>2026-04-12T15:51:51Z</time></trkpt><trkpt lat="38.63911050924847" lon="16.05174724445554"><ele>503.0</ele><time>2026-04-12T15:51:52Z</time></trkpt><trkpt lat="38.6389604616039" lon="16.05174117506227"><ele>503.0</ele><time>2026-04-12T15:51:53Z</time></trkpt><trkpt lat="38.638808362470805" lon="16.051737269342876"><ele>503.0</ele><time>2026-04-12T15:51:54Z</time></trkpt><trkpt lat="38.638687671913715" lon="16.051735352978387"><ele>503.0</ele><time>2026-04-12T15:51:55Z</time></trkpt><trkpt lat="38.63858229034941" lon="16.0517408630309"><ele>502.25</ele><time>2026-04-12T15:51:56Z</time></trkpt><trkpt lat="38.63847704259581" lon="16.05172920794265"><ele>501.5</ele><time>2026-04-12T15:51:57Z</time></trkpt><trkpt lat="38.638386027929435" lon="16.051807422370352"><ele>500.75</ele><time>2026-04-12T15:51:58Z</time></trkpt><trkpt lat="38.63829460225884" lon="16.051924583487697"><ele>500.0</ele><time>2026-04-12T15:51:59Z</time></trkpt><trkpt lat="38.63822901742732" lon="16.052070474197617"><ele>500.0</ele><time>2026-04-12T15:52:00Z</time></trkpt><trkpt lat="38.63820637483197" lon="16.052209588378023"><ele>500.0</ele><time>2026-04-12T15:52:01Z</time></trkpt><trkpt lat="38.638255911612156" lon="16.052346064937076"><ele>500.0</ele><time>2026-04-12T15:52:02Z</time></trkpt><trkpt lat="38.63836383874073" lon="16.052437032991833"><ele>500.0</ele><time>2026-04-12T15:52:03Z</time></trkpt><trkpt lat="38.638480512211785" lon="16.05252389135199"><ele>499.4</ele><time>2026-04-12T15:52:04Z</time></trkpt><trkpt lat="38.638581213852056" lon="16.05260279149198"><ele>498.8</ele><time>2026-04-12T15:52:05Z</time></trkpt><trkpt lat="38.63866776244332" lon="16.05268573422746"><ele>498.20000000000005</ele><time>2026-04-12T15:52:06Z</time></trkpt><trkpt lat="38.63875227790331" lon="16.05276645315976"><ele>497.6</ele><time>2026-04-12T15:52:07Z</time></trkpt><trkpt lat="38.6388367924141" lon="16.052860692328682"><ele>497.0</ele><time>2026-04-12T15:52:08Z</time></trkpt><trkpt lat="38.63892072260822" lon="16.05297348102088"><ele>497.0</ele><time>2026-04-12T15:52:09Z</time></trkpt><trkpt lat="38.638995687193955" lon="16.053090618774515"><ele>497.0</ele><time>2026-04-12T15:52:10Z</time></trkpt><trkpt lat="38.63906426205829" lon="16.053211515788217"><ele>497.0</ele><time>2026-04-12T15:52:11Z</time></trkpt><trkpt lat="38.63912401114281" lon="16.05333568983641"><ele>497.0</ele><time>2026-04-12T15:52:12Z</time></trkpt><trkpt lat="38.63917246842518" lon="16.053454155708724"><ele>499.0</ele><time>2026-04-12T15:52:13Z</time></trkpt><trkpt lat="38.639194986206476" lon="16.053580120629675"><ele>501.0</ele><time>2026-04-12T15:52:14Z</time></trkpt><trkpt lat="38.63918580579479" lon="16.053718985227984"><ele>503.0</ele><time>2026-04-12T15:52:15Z</time></trkpt><trkpt lat="38.63913622047984" lon="16.053856060247053"><ele>505.0</ele><time>2026-04-12T15:52:16Z</time></trkpt><trkpt lat="38.639057290837606" lon="16.053985562677255"><ele>505.0</ele><time>2026-04-12T15:52:17Z</time></trkpt><trkpt lat="38.63897515249578" lon="16.054108012909342"><ele>505.0</ele><time>2026-04-12T15:52:18Z</time></trkpt><trkpt lat="38.63889002194606" lon="16.054219861065853"><ele>505.0</ele><time>2026-04-12T15:52:19Z</time></trkpt><trkpt lat="38.63880410112806" lon="16.054327125719606"><ele>505.0</ele><time>2026-04-12T15:52:20Z</time></trkpt><trkpt lat="38.638714631936026" lon="16.05443338624363"><ele>507.0</ele><time>2026-04-12T15:52:21Z</time></trkpt><trkpt lat="38.63861373162147" lon="16.05451551004558"><ele>509.0</ele><time>2026-04-12T15:52:22Z</time></trkpt><trkpt lat="38.638495229515364" lon="16.054612265436923"><ele>511.0</ele><time>2026-04-12T15:52:23Z</time></trkpt><trkpt lat="38.638399558631626" lon="16.054685190031552"><ele>513.0</ele><time>2026-04-12T15:52:24Z</time></trkpt><trkpt lat="38.638331790280354" lon="16.054810089145764"><ele>512.0</ele><time>2026-04-12T15:52:25Z</time></trkpt><trkpt lat="38.638293043561205" lon="16.05496595030714"><ele>511.0</ele><time>2026-04-12T15:52:26Z</time></trkpt><trkpt lat="38.638267765583684" lon="16.055114048458396"><ele>510.0</ele><time>2026-04-12T15:52:27Z</time></trkpt><trkpt lat="38.63822557202749" lon="16.05524572974725"><ele>509.0</ele><time>2026-04-12T15:52:28Z</time></trkpt><trkpt lat="38.63814817557992" lon="16.055355164462004"><ele>509.0</ele><time>2026-04-12T15:52:29Z</time></trkpt><trkpt lat="38.63804180501824" lon="16.055442672994904"><ele>509.0</ele><time>2026-04-12T15:52:30Z</time></trkpt><trkpt lat="38.63792582808869" lon="16.055530858260326"><ele>509.0</ele><time>2026-04-12T15:52:31Z</time></trkpt><trkpt lat="38.63780824758441" lon="16.055622490693203"><ele>509.0</ele><time>2026-04-12T15:52:32Z</time></trkpt><trkpt lat="38.63770651870066" lon="16.055731777719995"><ele>509.75</ele><time>2026-04-12T15:52:33.001Z</time></trkpt><trkpt lat="38.637612797259735" lon="16.05585924883856"><ele>510.5</ele><time>2026-04-12T15:52:34.001Z</time></trkpt><trkpt lat="38.6375330376525" lon="16.05599945776181"><ele>511.25</ele><time>2026-04-12T15:52:35.001Z</time></trkpt><trkpt lat="38.63745633342649" lon="16.056158385476028"><ele>512.0</ele><time>2026-04-12T15:52:36.001Z</time></trkpt><trkpt lat="38.63738039244015" lon="16.056310342966736"><ele>512.0</ele><time>2026-04-12T15:52:37.001Z</time></trkpt><trkpt lat="38.63730296080502" lon="16.056466209745594"><ele>512.0</ele><time>2026-04-12T15:52:38.001Z</time></trkpt><trkpt lat="38.63722078206768" lon="16.0566299874717"><ele>512.0</ele><time>2026-04-12T15:52:39.001Z</time></trkpt><trkpt lat="38.63717337150737" lon="16.0568099057288"><ele>512.0</ele><time>2026-04-12T15:52:40.001Z</time></trkpt><trkpt lat="38.63713001520967" lon="16.05698839012272"><ele>510.66666666666663</ele><time>2026-04-12T15:52:41.001Z</time></trkpt><trkpt lat="38.637096462188644" lon="16.057170240040954"><ele>509.33333333333337</ele><time>2026-04-12T15:52:42.001Z</time></trkpt><trkpt lat="38.637066914893516" lon="16.05735937025925"><ele>508.0</ele><time>2026-04-12T15:52:43.001Z</time></trkpt><trkpt lat="38.63704714836936" lon="16.057554951133884"><ele>508.0</ele><time>2026-04-12T15:52:44.001Z</time></trkpt><trkpt lat="38.63703174325496" lon="16.057727892997143"><ele>508.0</ele><time>2026-04-12T15:52:45.001Z</time></trkpt><trkpt lat="38.636998150280675" lon="16.057948720654345"><ele>508.0</ele><time>2026-04-12T15:52:46.001Z</time></trkpt><trkpt lat="38.6369821870356" lon="16.058095128848628"><ele>508.0</ele><time>2026-04-12T15:52:47.001Z</time></trkpt><trkpt lat="38.63696683043454" lon="16.058278292167714"><ele>507.6666666666667</ele><time>2026-04-12T15:52:48.001Z</time></trkpt><trkpt lat="38.63695301921426" lon="16.05847087647782"><ele>507.33333333333337</ele><time>2026-04-12T15:52:49.001Z</time></trkpt><trkpt lat="38.63694098620231" lon="16.058654822483575"><ele>507.0</ele><time>2026-04-12T15:52:50.001Z</time></trkpt><trkpt lat="38.63692057761659" lon="16.058853487281578"><ele>507.0</ele><time>2026-04-12T15:52:51.001Z</time></trkpt><trkpt lat="38.6368959446164" lon="16.05904631578094"><ele>507.0</ele><time>2026-04-12T15:52:52.001Z</time></trkpt><trkpt lat="38.63687697185734" lon="16.059233568728683"><ele>507.0</ele><time>2026-04-12T15:52:53.001Z</time></trkpt><trkpt lat="38.636837286920155" lon="16.059414589189444"><ele>507.0</ele><time>2026-04-12T15:52:54.001Z</time></trkpt><trkpt lat="38.63676396146804" lon="16.059597815074852"><ele>506.0</ele><time>2026-04-12T15:52:55.001Z</time></trkpt><trkpt lat="38.63665722447656" lon="16.059797266249653"><ele>505.0</ele><time>2026-04-12T15:52:56.001Z</time></trkpt><trkpt lat="38.636589334734936" lon="16.059962982519274"><ele>504.0</ele><time>2026-04-12T15:52:57.001Z</time></trkpt><trkpt lat="38.63650134939006" lon="16.06014680023969"><ele>503.66666666666663</ele><time>2026-04-12T15:52:58.001Z</time></trkpt><trkpt lat="38.636408928868306" lon="16.06032581457119"><ele>503.3333333333333</ele><time>2026-04-12T15:52:59.001Z</time></trkpt><trkpt lat="38.63631899065185" lon="16.06049482021785"><ele>503.0</ele><time>2026-04-12T15:53:00.001Z</time></trkpt><trkpt lat="38.63622935395671" lon="16.060667514400254"><ele>501.3333333333333</ele><time>2026-04-12T15:53:01.001Z</time></trkpt><trkpt lat="38.636134347688945" lon="16.060850214123157"><ele>499.66666666666663</ele><time>2026-04-12T15:53:02.001Z</time></trkpt><trkpt lat="38.63603808807858" lon="16.061042424567145"><ele>498.0</ele><time>2026-04-12T15:53:03.001Z</time></trkpt><trkpt lat="38.63593816910889" lon="16.06124131576488"><ele>498.0</ele><time>2026-04-12T15:53:04.001Z</time></trkpt><trkpt lat="38.635830204573764" lon="16.06142962956331"><ele>498.0</ele><time>2026-04-12T15:53:05.001Z</time></trkpt><trkpt lat="38.63572260191228" lon="16.061623161880412"><ele>498.0</ele><time>2026-04-12T15:53:06.001Z</time></trkpt><trkpt lat="38.6355958113068" lon="16.06182221084074"><ele>498.0</ele><time>2026-04-12T15:53:07.001Z</time></trkpt><trkpt lat="38.63545024574481" lon="16.061987475148683"><ele>498.0</ele><time>2026-04-12T15:53:08.001Z</time></trkpt><trkpt lat="38.63532663191194" lon="16.062182518582613"><ele>498.0</ele><time>2026-04-12T15:53:09.001Z</time></trkpt><trkpt lat="38.635199666500874" lon="16.062352047030522"><ele>495.66666666666663</ele><time>2026-04-12T15:53:10.001Z</time></trkpt><trkpt lat="38.63508318439909" lon="16.062516181725382"><ele>493.3333333333333</ele><time>2026-04-12T15:53:11.001Z</time></trkpt><trkpt lat="38.63500427769294" lon="16.062703710039486"><ele>491.0</ele><time>2026-04-12T15:53:12.001Z</time></trkpt><trkpt lat="38.63493181564943" lon="16.06286526921527"><ele>491.0</ele><time>2026-04-12T15:53:13.001Z</time></trkpt><trkpt lat="38.63483367485475" lon="16.063005530458252"><ele>491.0</ele><time>2026-04-12T15:53:14.001Z</time></trkpt><trkpt lat="38.6347264909906" lon="16.06315772105234"><ele>491.0</ele><time>2026-04-12T15:53:15.001Z</time></trkpt><trkpt lat="38.634591527046815" lon="16.06327964010967"><ele>488.3333333333333</ele><time>2026-04-12T15:53:16.001Z</time></trkpt><trkpt lat="38.63443881152839" lon="16.063372980353513"><ele>485.66666666666663</ele><time>2026-04-12T15:53:17.001Z</time></trkpt><trkpt lat="38.63423893251656" lon="16.06348379003778"><ele>483.0</ele><time>2026-04-12T15:53:18Z</time></trkpt><trkpt lat="38.63406095448346" lon="16.063592165060403"><ele>483.0</ele><time>2026-04-12T15:53:19Z</time></trkpt><trkpt lat="38.633917124308326" lon="16.06367912223724"><ele>483.0</ele><time>2026-04-12T15:53:20Z</time></trkpt><trkpt lat="38.6337922657443" lon="16.06375517552563"><ele>483.0</ele><time>2026-04-12T15:53:21Z</time></trkpt><trkpt lat="38.633688052372754" lon="16.063836575100165"><ele>483.0</ele><time>2026-04-12T15:53:22Z</time></trkpt><trkpt lat="38.63358964073553" lon="16.06388217287209"><ele>482.25</ele><time>2026-04-12T15:53:23Z</time></trkpt><trkpt lat="38.63347310125336" lon="16.063960149698932"><ele>481.5</ele><time>2026-04-12T15:53:24Z</time></trkpt><trkpt lat="38.63335476035247" lon="16.064040902125033"><ele>480.75</ele><time>2026-04-12T15:53:25Z</time></trkpt><trkpt lat="38.633247964310975" lon="16.06412802192685"><ele>480.0</ele><time>2026-04-12T15:53:26Z</time></trkpt><trkpt lat="38.633173290841945" lon="16.064154140915033"><ele>480.0</ele><time>2026-04-12T15:53:27Z</time></trkpt><trkpt lat="38.633101753774795" lon="16.06420942039649"><ele>480.0</ele><time>2026-04-12T15:53:28Z</time></trkpt><trkpt lat="38.63301972733731" lon="16.064216758298464"><ele>480.0</ele><time>2026-04-12T15:53:30Z</time></trkpt><trkpt lat="38.63292627937893" lon="16.06432748766603"><ele>480.0</ele><time>2026-04-12T15:53:33Z</time></trkpt><trkpt lat="38.632837525350304" lon="16.06436104492902"><ele>480.0</ele><time>2026-04-12T15:53:34Z</time></trkpt><trkpt lat="38.63275012515032" lon="16.06441316125876"><ele>479.0</ele><time>2026-04-12T15:53:35Z</time></trkpt><trkpt lat="38.63264085594373" lon="16.064473392183444"><ele>478.0</ele><time>2026-04-12T15:53:36Z</time></trkpt><trkpt lat="38.632531655273226" lon="16.064537287792504"><ele>477.0</ele><time>2026-04-12T15:53:37Z</time></trkpt><trkpt lat="38.63242701313275" lon="16.06461744413057"><ele>476.0</ele><time>2026-04-12T15:53:38Z</time></trkpt><trkpt lat="38.632350936418334" lon="16.06465267598509"><ele>475.0</ele><time>2026-04-12T15:53:39Z</time></trkpt><trkpt lat="38.63224544723764" lon="16.064706261824938"><ele>475.0</ele><time>2026-04-12T15:53:40Z</time></trkpt><trkpt lat="38.63213378314089" lon="16.064767475212207"><ele>475.0</ele><time>2026-04-12T15:53:41Z</time></trkpt><trkpt lat="38.632021170080336" lon="16.064829561774026"><ele>475.0</ele><time>2026-04-12T15:53:42Z</time></trkpt><trkpt lat="38.63190763527524" lon="16.06487985042568"><ele>475.0</ele><time>2026-04-12T15:53:43Z</time></trkpt><trkpt lat="38.631794756454575" lon="16.064932600207346"><ele>473.25</ele><time>2026-04-12T15:53:44Z</time></trkpt><trkpt lat="38.63168147155154" lon="16.06499897593451"><ele>471.5</ele><time>2026-04-12T15:53:45Z</time></trkpt><trkpt lat="38.631570409504576" lon="16.065044577266484"><ele>469.75</ele><time>2026-04-12T15:53:46Z</time></trkpt><trkpt lat="38.63144998110438" lon="16.065078830084882"><ele>468.0</ele><time>2026-04-12T15:53:47Z</time></trkpt><trkpt lat="38.6313244251236" lon="16.065109176527404"><ele>468.0</ele><time>2026-04-12T15:53:48Z</time></trkpt><trkpt lat="38.63119226461638" lon="16.065130485162918"><ele>468.0</ele><time>2026-04-12T15:53:49Z</time></trkpt><trkpt lat="38.631059000442946" lon="16.06514638427586"><ele>468.0</ele><time>2026-04-12T15:53:50Z</time></trkpt><trkpt lat="38.63093125947389" lon="16.065150529814154"><ele>468.0</ele><time>2026-04-12T15:53:51Z</time></trkpt><trkpt lat="38.6308034974623" lon="16.065161748906224"><ele>466.75</ele><time>2026-04-12T15:53:52Z</time></trkpt><trkpt lat="38.63067277506855" lon="16.06516755899703"><ele>465.5</ele><time>2026-04-12T15:53:53Z</time></trkpt><trkpt lat="38.63054402408662" lon="16.065190821675685"><ele>464.25</ele><time>2026-04-12T15:53:54Z</time></trkpt><trkpt lat="38.630408625799674" lon="16.06521442225536"><ele>463.0</ele><time>2026-04-12T15:53:55Z</time></trkpt><trkpt lat="38.63027621611382" lon="16.06526004461806"><ele>459.75</ele><time>2026-04-12T15:53:56Z</time></trkpt><trkpt lat="38.63014144711636" lon="16.065314207902194"><ele>456.5</ele><time>2026-04-12T15:53:57Z</time></trkpt><trkpt lat="38.630010478406824" lon="16.06538240225535"><ele>453.25</ele><time>2026-04-12T15:53:58Z</time></trkpt><trkpt lat="38.62987721788723" lon="16.06546282434282"><ele>450.0</ele><time>2026-04-12T15:53:59Z</time></trkpt><trkpt lat="38.62972965934843" lon="16.06555498385688"><ele>450.0</ele><time>2026-04-12T15:54:00Z</time></trkpt><trkpt lat="38.629570493004294" lon="16.06563442725238"><ele>450.0</ele><time>2026-04-12T15:54:01Z</time></trkpt><trkpt lat="38.6294222794472" lon="16.065715380998373"><ele>450.0</ele><time>2026-04-12T15:54:02Z</time></trkpt><trkpt lat="38.6292834264525" lon="16.065785253251278"><ele>447.5</ele><time>2026-04-12T15:54:03Z</time></trkpt><trkpt lat="38.62914413727429" lon="16.065861787808654"><ele>445.0</ele><time>2026-04-12T15:54:04Z</time></trkpt><trkpt lat="38.62902486465109" lon="16.065925835304842"><ele>442.5</ele><time>2026-04-12T15:54:05Z</time></trkpt><trkpt lat="38.628922383482596" lon="16.065994344718334"><ele>440.0</ele><time>2026-04-12T15:54:06Z</time></trkpt><trkpt lat="38.62883131632347" lon="16.06607904167492"><ele>440.0</ele><time>2026-04-12T15:54:07Z</time></trkpt><trkpt lat="38.628758532945305" lon="16.066183542106444"><ele>440.0</ele><time>2026-04-12T15:54:08Z</time></trkpt><trkpt lat="38.62876219825279" lon="16.066345650615922"><ele>440.0</ele><time>2026-04-12T15:54:09Z</time></trkpt><trkpt lat="38.628766740259444" lon="16.066524266751642"><ele>440.0</ele><time>2026-04-12T15:54:10Z</time></trkpt><trkpt lat="38.62881287703441" lon="16.06668089634768"><ele>442.0</ele><time>2026-04-12T15:54:11Z</time></trkpt><trkpt lat="38.62887729171577" lon="16.0668436137078"><ele>444.0</ele><time>2026-04-12T15:54:12Z</time></trkpt><trkpt lat="38.62893292437819" lon="16.067009513461606"><ele>446.0</ele><time>2026-04-12T15:54:13Z</time></trkpt><trkpt lat="38.62900627568303" lon="16.067177584848654"><ele>448.0</ele><time>2026-04-12T15:54:14Z</time></trkpt><trkpt lat="38.629087620521815" lon="16.067341828607383"><ele>445.75</ele><time>2026-04-12T15:54:15Z</time></trkpt><trkpt lat="38.62916028479505" lon="16.067497602936186"><ele>443.5</ele><time>2026-04-12T15:54:16Z</time></trkpt><trkpt lat="38.62923419257798" lon="16.06764041739539"><ele>441.25</ele><time>2026-04-12T15:54:17Z</time></trkpt><trkpt lat="38.6293025034427" lon="16.06776843572522"><ele>439.0</ele><time>2026-04-12T15:54:18Z</time></trkpt><trkpt lat="38.62935561022439" lon="16.067859918115147"><ele>439.00000000000006</ele><time>2026-04-12T15:54:19Z</time></trkpt><trkpt lat="38.62938844695846" lon="16.067948377384177"><ele>439.0</ele><time>2026-04-12T15:54:20Z</time></trkpt><trkpt lat="38.62938752007725" lon="16.068043049673392"><ele>439.0</ele><time>2026-04-12T15:54:22Z</time></trkpt><trkpt lat="38.62929793018158" lon="16.068015150316427"><ele>439.0</ele><time>2026-04-12T15:54:24Z</time></trkpt><trkpt lat="38.62923033883248" lon="16.067940726102158"><ele>439.00000000000006</ele><time>2026-04-12T15:54:25Z</time></trkpt><trkpt lat="38.62916357546902" lon="16.067864389129745"><ele>439.0</ele><time>2026-04-12T15:54:26Z</time></trkpt><trkpt lat="38.62907269618526" lon="16.067797556742168"><ele>439.0</ele><time>2026-04-12T15:54:27Z</time></trkpt><trkpt lat="38.62897306165404" lon="16.067714884204474"><ele>439.0</ele><time>2026-04-12T15:54:28Z</time></trkpt><trkpt lat="38.62886221602254" lon="16.067612558345676"><ele>439.0</ele><time>2026-04-12T15:54:29Z</time></trkpt><trkpt lat="38.62873144499223" lon="16.067499904290614"><ele>439.0</ele><time>2026-04-12T15:54:30Z</time></trkpt><trkpt lat="38.62858286819997" lon="16.06736836023742"><ele>434.6666666666667</ele><time>2026-04-12T15:54:31Z</time></trkpt><trkpt lat="38.628428923938756" lon="16.067243238042035"><ele>430.33333333333337</ele><time>2026-04-12T15:54:32Z</time></trkpt><trkpt lat="38.62828873140833" lon="16.0671279891282"><ele>426.0</ele><time>2026-04-12T15:54:33Z</time></trkpt><trkpt lat="38.62816038000697" lon="16.067025562594477"><ele>426.0</ele><time>2026-04-12T15:54:34Z</time></trkpt><trkpt lat="38.628043747558785" lon="16.06692259358892"><ele>426.0</ele><time>2026-04-12T15:54:35Z</time></trkpt><trkpt lat="38.62794674145388" lon="16.066829921729315"><ele>426.0</ele><time>2026-04-12T15:54:36Z</time></trkpt><trkpt lat="38.62787010799445" lon="16.06673738405809"><ele>426.0</ele><time>2026-04-12T15:54:37Z</time></trkpt><trkpt lat="38.62780982235133" lon="16.066651436515922"><ele>423.0</ele><time>2026-04-12T15:54:38Z</time></trkpt><trkpt lat="38.627753207221424" lon="16.06659431791161"><ele>420.0</ele><time>2026-04-12T15:54:39Z</time></trkpt><trkpt lat="38.62768860374712" lon="16.066604730371694"><ele>417.0</ele><time>2026-04-12T15:54:40Z</time></trkpt><trkpt lat="38.6276225440497" lon="16.06666622811335"><ele>414.0</ele><time>2026-04-12T15:54:41Z</time></trkpt><trkpt lat="38.627639451582134" lon="16.066778018515922"><ele>411.0</ele><time>2026-04-12T15:54:42Z</time></trkpt><trkpt lat="38.62767866975487" lon="16.066874667479492"><ele>408.0</ele><time>2026-04-12T15:54:43Z</time></trkpt><trkpt lat="38.62772284323067" lon="16.066992211527747"><ele>408.0</ele><time>2026-04-12T15:54:44Z</time></trkpt><trkpt lat="38.62777565702695" lon="16.067126113029634"><ele>408.0</ele><time>2026-04-12T15:54:45Z</time></trkpt><trkpt lat="38.627838044210925" lon="16.06728092888379"><ele>408.0</ele><time>2026-04-12T15:54:46Z</time></trkpt><trkpt lat="38.62790083780502" lon="16.067438120372948"><ele>408.0</ele><time>2026-04-12T15:54:47Z</time></trkpt><trkpt lat="38.62795438580907" lon="16.067569405860514"><ele>410.59999999999997</ele><time>2026-04-12T15:54:48Z</time></trkpt><trkpt lat="38.62800015787367" lon="16.067671542843783"><ele>413.2</ele><time>2026-04-12T15:54:49Z</time></trkpt><trkpt lat="38.62803892841944" lon="16.067759064340528"><ele>415.8</ele><time>2026-04-12T15:54:50Z</time></trkpt><trkpt lat="38.62805754168527" lon="16.067922030920403"><ele>418.4</ele><time>2026-04-12T15:54:52Z</time></trkpt><trkpt lat="38.62794950069018" lon="16.067912155778714"><ele>421.0</ele><time>2026-04-12T15:54:54Z</time></trkpt><trkpt lat="38.62789477424838" lon="16.067839053016115"><ele>421.0</ele><time>2026-04-12T15:54:55Z</time></trkpt><trkpt lat="38.62781086957844" lon="16.06772806264884"><ele>421.0</ele><time>2026-04-12T15:54:56Z</time></trkpt><trkpt lat="38.62770097644915" lon="16.067617437687247"><ele>421.0</ele><time>2026-04-12T15:54:57Z</time></trkpt><trkpt lat="38.62757109858041" lon="16.06753231383112"><ele>421.0</ele><time>2026-04-12T15:54:58Z</time></trkpt><trkpt lat="38.62744326321746" lon="16.06745089522314"><ele>417.75</ele><time>2026-04-12T15:54:59Z</time></trkpt><trkpt lat="38.62732320184784" lon="16.06739561085781"><ele>414.5</ele><time>2026-04-12T15:55:00Z</time></trkpt><trkpt lat="38.627197255125346" lon="16.06737797594495"><ele>411.25</ele><time>2026-04-12T15:55:01Z</time></trkpt><trkpt lat="38.62706823110417" lon="16.067374019320823"><ele>408.0</ele><time>2026-04-12T15:55:02Z</time></trkpt><trkpt lat="38.62694173653759" lon="16.067405505331234"><ele>405.25</ele><time>2026-04-12T15:55:03Z</time></trkpt><trkpt lat="38.62681446935472" lon="16.067467895646757"><ele>402.5</ele><time>2026-04-12T15:55:04Z</time></trkpt><trkpt lat="38.62668806738557" lon="16.067542443261033"><ele>399.75</ele><time>2026-04-12T15:55:05Z</time></trkpt><trkpt lat="38.6265475895138" lon="16.067628744236572"><ele>397.0</ele><time>2026-04-12T15:55:06.001Z</time></trkpt><trkpt lat="38.62639111268414" lon="16.067712653711407"><ele>397.0</ele><time>2026-04-12T15:55:07.001Z</time></trkpt><trkpt lat="38.62622173411919" lon="16.067802322814668"><ele>397.0</ele><time>2026-04-12T15:55:08.001Z</time></trkpt><trkpt lat="38.62605448468945" lon="16.067894025984838"><ele>397.0</ele><time>2026-04-12T15:55:09.001Z</time></trkpt><trkpt lat="38.62589811599711" lon="16.06797993268502"><ele>395.0</ele><time>2026-04-12T15:55:10.001Z</time></trkpt><trkpt lat="38.62573931904008" lon="16.068051034963567"><ele>393.0</ele><time>2026-04-12T15:55:11.001Z</time></trkpt><trkpt lat="38.62557490026798" lon="16.06813774790262"><ele>391.0</ele><time>2026-04-12T15:55:12.001Z</time></trkpt><trkpt lat="38.62541513135842" lon="16.0682222082786"><ele>390.33333333333337</ele><time>2026-04-12T15:55:13.001Z</time></trkpt><trkpt lat="38.62524961035033" lon="16.068310527809192"><ele>389.66666666666663</ele><time>2026-04-12T15:55:14.001Z</time></trkpt><trkpt lat="38.62509570220814" lon="16.06839265485869"><ele>389.0</ele><time>2026-04-12T15:55:15.001Z</time></trkpt><trkpt lat="38.624942739686986" lon="16.06849592964084"><ele>389.0</ele><time>2026-04-12T15:55:16.001Z</time></trkpt><trkpt lat="38.62477843938835" lon="16.06856194986084"><ele>389.0</ele><time>2026-04-12T15:55:17.001Z</time></trkpt><trkpt lat="38.624629754775526" lon="16.068641292040688"><ele>389.0</ele><time>2026-04-12T15:55:18.001Z</time></trkpt><trkpt lat="38.62448254483584" lon="16.068748579275784"><ele>387.3333333333333</ele><time>2026-04-12T15:55:19.001Z</time></trkpt><trkpt lat="38.62432875583126" lon="16.068824898962987"><ele>385.66666666666663</ele><time>2026-04-12T15:55:20.001Z</time></trkpt><trkpt lat="38.624174939846704" lon="16.068907378031575"><ele>384.0</ele><time>2026-04-12T15:55:21.001Z</time></trkpt><trkpt lat="38.62401981143419" lon="16.068987147051377"><ele>384.0</ele><time>2026-04-12T15:55:22.001Z</time></trkpt><trkpt lat="38.62386284043769" lon="16.06906393294182"><ele>384.0</ele><time>2026-04-12T15:55:23.001Z</time></trkpt><trkpt lat="38.62370408184392" lon="16.06914552792543"><ele>384.0</ele><time>2026-04-12T15:55:24Z</time></trkpt><trkpt lat="38.62354373165451" lon="16.069226639560704"><ele>382.0</ele><time>2026-04-12T15:55:25Z</time></trkpt><trkpt lat="38.62338123627449" lon="16.069316294199865"><ele>380.0</ele><time>2026-04-12T15:55:26Z</time></trkpt><trkpt lat="38.62321461659323" lon="16.06939927246024"><ele>378.0</ele><time>2026-04-12T15:55:27Z</time></trkpt><trkpt lat="38.623054923523554" lon="16.069502170755676"><ele>378.0</ele><time>2026-04-12T15:55:28Z</time></trkpt><trkpt lat="38.622881616329494" lon="16.069616042732402"><ele>378.0</ele><time>2026-04-12T15:55:29Z</time></trkpt><trkpt lat="38.62271267537712" lon="16.06975005897482"><ele>378.0</ele><time>2026-04-12T15:55:30Z</time></trkpt><trkpt lat="38.62255968703136" lon="16.069902582968858"><ele>377.3333333333333</ele><time>2026-04-12T15:55:31Z</time></trkpt><trkpt lat="38.622415333583064" lon="16.070056126054162"><ele>376.66666666666663</ele><time>2026-04-12T15:55:32Z</time></trkpt><trkpt lat="38.62227506432232" lon="16.070209021225587"><ele>376.0</ele><time>2026-04-12T15:55:33Z</time></trkpt><trkpt lat="38.62214161034252" lon="16.070353399893637"><ele>376.0</ele><time>2026-04-12T15:55:34Z</time></trkpt><trkpt lat="38.6219843871054" lon="16.070521630426907"><ele>376.0</ele><time>2026-04-12T15:55:35Z</time></trkpt><trkpt lat="38.62184185638213" lon="16.070665569657777"><ele>376.0</ele><time>2026-04-12T15:55:36Z</time></trkpt><trkpt lat="38.621701698230474" lon="16.070817648036293"><ele>374.0</ele><time>2026-04-12T15:55:37Z</time></trkpt><trkpt lat="38.62156467754664" lon="16.070966144428976"><ele>372.0</ele><time>2026-04-12T15:55:38Z</time></trkpt><trkpt lat="38.62142342298952" lon="16.07110675844952"><ele>370.0</ele><time>2026-04-12T15:55:39Z</time></trkpt><trkpt lat="38.621290663755964" lon="16.071250349473114"><ele>370.0</ele><time>2026-04-12T15:55:40Z</time></trkpt><trkpt lat="38.62115437059098" lon="16.07140773988368"><ele>370.0</ele><time>2026-04-12T15:55:41Z</time></trkpt><trkpt lat="38.62102850726286" lon="16.071545201554137"><ele>370.0</ele><time>2026-04-12T15:55:42Z</time></trkpt><trkpt lat="38.62088393185577" lon="16.071705603077916"><ele>368.0</ele><time>2026-04-12T15:55:43Z</time></trkpt><trkpt lat="38.62074199617699" lon="16.07184361578721"><ele>366.0</ele><time>2026-04-12T15:55:44Z</time></trkpt><trkpt lat="38.620603585916506" lon="16.07199413769177"><ele>364.0</ele><time>2026-04-12T15:55:45Z</time></trkpt><trkpt lat="38.62046568012342" lon="16.07213952579014"><ele>364.0</ele><time>2026-04-12T15:55:46Z</time></trkpt><trkpt lat="38.62032746002168" lon="16.072279911677285"><ele>364.0</ele><time>2026-04-12T15:55:47Z</time></trkpt><trkpt lat="38.62019028607757" lon="16.07242463095956"><ele>364.0</ele><time>2026-04-12T15:55:48Z</time></trkpt><trkpt lat="38.620053354631025" lon="16.07257104766999"><ele>362.66666666666663</ele><time>2026-04-12T15:55:49Z</time></trkpt><trkpt lat="38.61991816582356" lon="16.07270537753616"><ele>361.3333333333333</ele><time>2026-04-12T15:55:50Z</time></trkpt><trkpt lat="38.61976058903078" lon="16.072802017450876"><ele>360.0</ele><time>2026-04-12T15:55:51Z</time></trkpt><trkpt lat="38.619614726725864" lon="16.07291015642209"><ele>359.0</ele><time>2026-04-12T15:55:52Z</time></trkpt><trkpt lat="38.61945517436076" lon="16.072956066469757"><ele>358.0</ele><time>2026-04-12T15:55:53Z</time></trkpt><trkpt lat="38.619300570146486" lon="16.0730090127118"><ele>357.0</ele><time>2026-04-12T15:55:54Z</time></trkpt><trkpt lat="38.61914808512893" lon="16.07304470328751"><ele>357.0</ele><time>2026-04-12T15:55:55Z</time></trkpt><trkpt lat="38.61899038260192" lon="16.073067894967725"><ele>357.0</ele><time>2026-04-12T15:55:56Z</time></trkpt><trkpt lat="38.618833056909736" lon="16.073058658886605"><ele>357.0</ele><time>2026-04-12T15:55:57Z</time></trkpt><trkpt lat="38.61867340886338" lon="16.073026335029095"><ele>357.6666666666667</ele><time>2026-04-12T15:55:58Z</time></trkpt><trkpt lat="38.618507931765286" lon="16.072980042039305"><ele>358.33333333333337</ele><time>2026-04-12T15:55:59Z</time></trkpt><trkpt lat="38.61834597620782" lon="16.072926054130882"><ele>359.0</ele><time>2026-04-12T15:56:00Z</time></trkpt><trkpt lat="38.618186645371345" lon="16.072882458529772"><ele>359.0</ele><time>2026-04-12T15:56:01Z</time></trkpt><trkpt lat="38.61802456969364" lon="16.072787325895412"><ele>359.0</ele><time>2026-04-12T15:56:02Z</time></trkpt><trkpt lat="38.61786354766771" lon="16.072708586660223"><ele>359.0</ele><time>2026-04-12T15:56:03Z</time></trkpt><trkpt lat="38.617700522922796" lon="16.07262648067737"><ele>359.33333333333337</ele><time>2026-04-12T15:56:04Z</time></trkpt><trkpt lat="38.617524890054284" lon="16.072551732750302"><ele>359.6666666666667</ele><time>2026-04-12T15:56:05Z</time></trkpt><trkpt lat="38.61738049309166" lon="16.072460557372064"><ele>360.0</ele><time>2026-04-12T15:56:06Z</time></trkpt><trkpt lat="38.61722841904003" lon="16.072381338348006"><ele>360.0</ele><time>2026-04-12T15:56:07Z</time></trkpt><trkpt lat="38.61707392987961" lon="16.072302390008964"><ele>360.0</ele><time>2026-04-12T15:56:08Z</time></trkpt><trkpt lat="38.61691877586303" lon="16.072239756161576"><ele>360.0</ele><time>2026-04-12T15:56:09Z</time></trkpt><trkpt lat="38.61676355475013" lon="16.072160822805536"><ele>360.6666666666667</ele><time>2026-04-12T15:56:10Z</time></trkpt><trkpt lat="38.61661108594118" lon="16.072077753728433"><ele>361.33333333333337</ele><time>2026-04-12T15:56:11Z</time></trkpt><trkpt lat="38.61645528573327" lon="16.071989959636003"><ele>362.0</ele><time>2026-04-12T15:56:12Z</time></trkpt><trkpt lat="38.61629763938381" lon="16.07190874388754"><ele>362.0</ele><time>2026-04-12T15:56:13Z</time></trkpt><trkpt lat="38.61613705117225" lon="16.071836748811087"><ele>362.0</ele><time>2026-04-12T15:56:14Z</time></trkpt><trkpt lat="38.61598620836485" lon="16.071742160980076"><ele>362.0</ele><time>2026-04-12T15:56:15Z</time></trkpt><trkpt lat="38.61582962951702" lon="16.071647715106106"><ele>359.6666666666667</ele><time>2026-04-12T15:56:16Z</time></trkpt><trkpt lat="38.61567431777047" lon="16.071562777728293"><ele>357.3333333333333</ele><time>2026-04-12T15:56:17Z</time></trkpt><trkpt lat="38.61552124379955" lon="16.071487872201963"><ele>355.0</ele><time>2026-04-12T15:56:18Z</time></trkpt><trkpt lat="38.615369588121006" lon="16.07140833816748"><ele>356.25</ele><time>2026-04-12T15:56:19Z</time></trkpt><trkpt lat="38.61523451880171" lon="16.071338021093318"><ele>357.5</ele><time>2026-04-12T15:56:20Z</time></trkpt><trkpt lat="38.615104938270285" lon="16.07127792933495"><ele>358.75</ele><time>2026-04-12T15:56:21Z</time></trkpt><trkpt lat="38.614987586115625" lon="16.071193910334454"><ele>360.0</ele><time>2026-04-12T15:56:22Z</time></trkpt><trkpt lat="38.61485048884961" lon="16.071144949912718"><ele>360.0</ele><time>2026-04-12T15:56:23Z</time></trkpt><trkpt lat="38.61473097365768" lon="16.071059901768542"><ele>360.0</ele><time>2026-04-12T15:56:24Z</time></trkpt><trkpt lat="38.61460982995678" lon="16.07099581076501"><ele>360.0</ele><time>2026-04-12T15:56:25Z</time></trkpt><trkpt lat="38.61449305927943" lon="16.070934033300915"><ele>360.0</ele><time>2026-04-12T15:56:26Z</time></trkpt><trkpt lat="38.61437536059965" lon="16.07087176487654"><ele>359.75</ele><time>2026-04-12T15:56:27Z</time></trkpt><trkpt lat="38.61426055040738" lon="16.070811024607988"><ele>359.5</ele><time>2026-04-12T15:56:28Z</time></trkpt><trkpt lat="38.61414431006907" lon="16.070749527715737"><ele>359.25</ele><time>2026-04-12T15:56:29Z</time></trkpt><trkpt lat="38.6140273527396" lon="16.07068765150345"><ele>359.0</ele><time>2026-04-12T15:56:30Z</time></trkpt><trkpt lat="38.61390886768677" lon="16.07062496705047"><ele>359.0</ele><time>2026-04-12T15:56:31Z</time></trkpt><trkpt lat="38.61378798006629" lon="16.070561011489172"><ele>359.0</ele><time>2026-04-12T15:56:32Z</time></trkpt><trkpt lat="38.61366510301521" lon="16.07049665823679"><ele>359.0</ele><time>2026-04-12T15:56:33Z</time></trkpt><trkpt lat="38.61354220308871" lon="16.070432239660967"><ele>359.0</ele><time>2026-04-12T15:56:34Z</time></trkpt><trkpt lat="38.61342010231471" lon="16.070368239979988"><ele>359.25</ele><time>2026-04-12T15:56:35Z</time></trkpt><trkpt lat="38.613301239474815" lon="16.0703059374769"><ele>359.5</ele><time>2026-04-12T15:56:36Z</time></trkpt><trkpt lat="38.61317698144591" lon="16.07024080705717"><ele>359.75</ele><time>2026-04-12T15:56:37Z</time></trkpt><trkpt lat="38.61304557496163" lon="16.0701719297567"><ele>360.0</ele><time>2026-04-12T15:56:38Z</time></trkpt><trkpt lat="38.61290641605903" lon="16.070098988974685"><ele>361.3333333333333</ele><time>2026-04-12T15:56:39Z</time></trkpt><trkpt lat="38.61275721508591" lon="16.070020582022785"><ele>362.66666666666663</ele><time>2026-04-12T15:56:40Z</time></trkpt><trkpt lat="38.61260362163346" lon="16.06993983750434"><ele>364.0</ele><time>2026-04-12T15:56:41Z</time></trkpt><trkpt lat="38.61245211967264" lon="16.06986039977589"><ele>364.0</ele><time>2026-04-12T15:56:42Z</time></trkpt><trkpt lat="38.61230512851692" lon="16.069783489620715"><ele>364.0</ele><time>2026-04-12T15:56:43Z</time></trkpt><trkpt lat="38.61216028144266" lon="16.06970770132187"><ele>364.0</ele><time>2026-04-12T15:56:44Z</time></trkpt><trkpt lat="38.612018018516224" lon="16.06963275134336"><ele>365.0</ele><time>2026-04-12T15:56:45Z</time></trkpt><trkpt lat="38.61188018098644" lon="16.069581618515407"><ele>366.0</ele><time>2026-04-12T15:56:46Z</time></trkpt><trkpt lat="38.61174747989723" lon="16.069509581792104"><ele>367.0</ele><time>2026-04-12T15:56:47Z</time></trkpt><trkpt lat="38.6116151469799" lon="16.069439809977116"><ele>368.0</ele><time>2026-04-12T15:56:48Z</time></trkpt><trkpt lat="38.61148097224537" lon="16.069337637631907"><ele>368.0</ele><time>2026-04-12T15:56:49Z</time></trkpt><trkpt lat="38.61135858200882" lon="16.0692840598284"><ele>368.0</ele><time>2026-04-12T15:56:50Z</time></trkpt><trkpt lat="38.611235672971034" lon="16.069222805210238"><ele>368.0</ele><time>2026-04-12T15:56:51Z</time></trkpt><trkpt lat="38.611116030136664" lon="16.06915958052865"><ele>368.0</ele><time>2026-04-12T15:56:52Z</time></trkpt><trkpt lat="38.611002924950114" lon="16.069099804071644"><ele>368.4</ele><time>2026-04-12T15:56:53Z</time></trkpt><trkpt lat="38.610884315413" lon="16.069058169303922"><ele>368.79999999999995</ele><time>2026-04-12T15:56:54Z</time></trkpt><trkpt lat="38.61077327691013" lon="16.06901969210688"><ele>369.2</ele><time>2026-04-12T15:56:55Z</time></trkpt><trkpt lat="38.61066274103277" lon="16.06900956056073"><ele>369.6</ele><time>2026-04-12T15:56:56Z</time></trkpt><trkpt lat="38.61056286382916" lon="16.069000811993106"><ele>370.0</ele><time>2026-04-12T15:56:57Z</time></trkpt><trkpt lat="38.61046504163208" lon="16.068996449759023"><ele>370.0</ele><time>2026-04-12T15:56:58Z</time></trkpt><trkpt lat="38.61036873354007" lon="16.06901050511115"><ele>370.0</ele><time>2026-04-12T15:56:59Z</time></trkpt><trkpt lat="38.610280443628504" lon="16.069001632387682"><ele>370.0</ele><time>2026-04-12T15:57:00Z</time></trkpt><trkpt lat="38.610194582415026" lon="16.068999959984513"><ele>370.0</ele><time>2026-04-12T15:57:01Z</time></trkpt><trkpt lat="38.610111390253984" lon="16.068998436644893"><ele>370.0</ele><time>2026-04-12T15:57:02Z</time></trkpt><trkpt lat="38.61002463251282" lon="16.06900943263669"><ele>370.0</ele><time>2026-04-12T15:57:03Z</time></trkpt><trkpt lat="38.60995025617318" lon="16.06902064011211"><ele>369.8</ele><time>2026-04-12T15:57:04Z</time></trkpt><trkpt lat="38.609785121932795" lon="16.069013172703432"><ele>369.6</ele><time>2026-04-12T15:57:06.001Z</time></trkpt><trkpt lat="38.60970370233386" lon="16.069009571564116"><ele>369.4</ele><time>2026-04-12T15:57:07.001Z</time></trkpt><trkpt lat="38.609613056377306" lon="16.068990760418576"><ele>369.2</ele><time>2026-04-12T15:57:08.001Z</time></trkpt><trkpt lat="38.609550899932955" lon="16.069011295229636"><ele>369.0</ele><time>2026-04-12T15:57:09.001Z</time></trkpt><trkpt lat="38.60947895305832" lon="16.069020915894065"><ele>368.4</ele><time>2026-04-12T15:57:10.001Z</time></trkpt><trkpt lat="38.60940637174602" lon="16.069004151834612"><ele>367.79999999999995</ele><time>2026-04-12T15:57:11.001Z</time></trkpt><trkpt lat="38.6093326140119" lon="16.068998259614307"><ele>367.20000000000005</ele><time>2026-04-12T15:57:12.001Z</time></trkpt><trkpt lat="38.60926598524062" lon="16.069008068875718"><ele>366.6</ele><time>2026-04-12T15:57:13.001Z</time></trkpt><trkpt lat="38.60914350201116" lon="16.069004407087085"><ele>366.0</ele><time>2026-04-12T15:57:15.001Z</time></trkpt><trkpt lat="38.60906866532369" lon="16.068896811861325"><ele>366.0</ele><time>2026-04-12T15:57:17.001Z</time></trkpt><trkpt lat="38.60901365466733" lon="16.068802925918387"><ele>366.0</ele><time>2026-04-12T15:57:19.001Z</time></trkpt><trkpt lat="38.60895066638401" lon="16.06869141793801"><ele>366.0</ele><time>2026-04-12T15:57:20.001Z</time></trkpt><trkpt lat="38.608894314282864" lon="16.068601254554874"><ele>366.0</ele><time>2026-04-12T15:57:21.001Z</time></trkpt><trkpt lat="38.608830759907924" lon="16.06849937259814"><ele>366.0</ele><time>2026-04-12T15:57:22.001Z</time></trkpt><trkpt lat="38.608755023380084" lon="16.068391993545863"><ele>366.0</ele><time>2026-04-12T15:57:23.001Z</time></trkpt><trkpt lat="38.608690376973186" lon="16.06827014138384"><ele>366.0</ele><time>2026-04-12T15:57:24.001Z</time></trkpt><trkpt lat="38.60861127944816" lon="16.068140983033313"><ele>366.0</ele><time>2026-04-12T15:57:25.001Z</time></trkpt><trkpt lat="38.60853185633448" lon="16.068011293059737"><ele>366.0</ele><time>2026-04-12T15:57:26.001Z</time></trkpt><trkpt lat="38.60845853053612" lon="16.06789246397661"><ele>366.0</ele><time>2026-04-12T15:57:27.001Z</time></trkpt><trkpt lat="38.608390758466925" lon="16.06779740282448"><ele>366.0</ele><time>2026-04-12T15:57:28.001Z</time></trkpt><trkpt lat="38.60832103882606" lon="16.06767765948984"><ele>366.0</ele><time>2026-04-12T15:57:29.001Z</time></trkpt><trkpt lat="38.60828077531783" lon="16.067605412226886"><ele>366.0</ele><time>2026-04-12T15:57:30Z</time></trkpt><trkpt lat="38.608224373220494" lon="16.067545433410153"><ele>366.0</ele><time>2026-04-12T15:57:31Z</time></trkpt><trkpt lat="38.60818656407183" lon="16.06747604472511"><ele>366.0</ele><time>2026-04-12T15:57:32Z</time></trkpt><trkpt lat="38.60810902424438" lon="16.067354667858243"><ele>366.6</ele><time>2026-04-12T15:57:34Z</time></trkpt><trkpt lat="38.60806714888721" lon="16.067283832584224"><ele>367.20000000000005</ele><time>2026-04-12T15:57:35Z</time></trkpt><trkpt lat="38.60803158494644" lon="16.067204122847563"><ele>367.79999999999995</ele><time>2026-04-12T15:57:36Z</time></trkpt><trkpt lat="38.607974423985354" lon="16.067111841624282"><ele>368.4</ele><time>2026-04-12T15:57:37Z</time></trkpt><trkpt lat="38.607904143468765" lon="16.06699844146245"><ele>369.0</ele><time>2026-04-12T15:57:38Z</time></trkpt><trkpt lat="38.607833435154234" lon="16.066884327478007"><ele>368.5</ele><time>2026-04-12T15:57:39Z</time></trkpt><trkpt lat="38.60775319829105" lon="16.06675413051207"><ele>368.0</ele><time>2026-04-12T15:57:40Z</time></trkpt><trkpt lat="38.60766923352073" lon="16.066619011105132"><ele>367.5</ele><time>2026-04-12T15:57:41Z</time></trkpt><trkpt lat="38.60759121498296" lon="16.066494129218746"><ele>367.0</ele><time>2026-04-12T15:57:42Z</time></trkpt><trkpt lat="38.6075088103369" lon="16.06638386058516"><ele>367.0</ele><time>2026-04-12T15:57:43Z</time></trkpt><trkpt lat="38.60744744936285" lon="16.066284941700257"><ele>367.0</ele><time>2026-04-12T15:57:44Z</time></trkpt><trkpt lat="38.60740290699352" lon="16.066197702361812"><ele>367.0</ele><time>2026-04-12T15:57:45Z</time></trkpt><trkpt lat="38.607357410320596" lon="16.066140588665046"><ele>367.0</ele><time>2026-04-12T15:57:46Z</time></trkpt><trkpt lat="38.6072853213359" lon="16.06601565638457"><ele>367.0</ele><time>2026-04-12T15:57:48Z</time></trkpt><trkpt lat="38.60721352927755" lon="16.065899684484844"><ele>367.0</ele><time>2026-04-12T15:57:50Z</time></trkpt><trkpt lat="38.60717082468415" lon="16.065837801407294"><ele>367.0</ele><time>2026-04-12T15:57:51Z</time></trkpt><trkpt lat="38.60713067864151" lon="16.065766813840686"><ele>367.0</ele><time>2026-04-12T15:57:52Z</time></trkpt><trkpt lat="38.607081380296634" lon="16.065662269328232"><ele>367.0</ele><time>2026-04-12T15:57:53Z</time></trkpt><trkpt lat="38.6070127308784" lon="16.065573663390513"><ele>367.0</ele><time>2026-04-12T15:57:54Z</time></trkpt><trkpt lat="38.60695301049766" lon="16.065486834255736"><ele>367.0</ele><time>2026-04-12T15:57:55Z</time></trkpt><trkpt lat="38.60688488874097" lon="16.06535839234008"><ele>367.25</ele><time>2026-04-12T15:57:56Z</time></trkpt><trkpt lat="38.606801460770484" lon="16.06522414219848"><ele>367.5</ele><time>2026-04-12T15:57:57Z</time></trkpt><trkpt lat="38.60671194502135" lon="16.065078496457286"><ele>367.75</ele><time>2026-04-12T15:57:58Z</time></trkpt><trkpt lat="38.60663417733848" lon="16.06496057108766"><ele>368.0</ele><time>2026-04-12T15:57:59Z</time></trkpt><trkpt lat="38.60659273136511" lon="16.064854818312597"><ele>368.0</ele><time>2026-04-12T15:58:00Z</time></trkpt><trkpt lat="38.60655904983892" lon="16.06476859584874"><ele>368.0</ele><time>2026-04-12T15:58:01Z</time></trkpt><trkpt lat="38.606507717065014" lon="16.06470192358256"><ele>368.0</ele><time>2026-04-12T15:58:02Z</time></trkpt><trkpt lat="38.60644611648623" lon="16.064631705033705"><ele>368.0</ele><time>2026-04-12T15:58:03Z</time></trkpt><trkpt lat="38.60640342617371" lon="16.06455217770967"><ele>368.0</ele><time>2026-04-12T15:58:04Z</time></trkpt><trkpt lat="38.60630656606073" lon="16.064421163196744"><ele>368.0</ele><time>2026-04-12T15:58:06Z</time></trkpt><trkpt lat="38.60623307342565" lon="16.06430356140642"><ele>368.0</ele><time>2026-04-12T15:58:08Z</time></trkpt><trkpt lat="38.606189913407825" lon="16.06423469516177"><ele>368.0</ele><time>2026-04-12T15:58:09Z</time></trkpt><trkpt lat="38.606134024726494" lon="16.064145519034824"><ele>368.0</ele><time>2026-04-12T15:58:11Z</time></trkpt><trkpt lat="38.60609072307645" lon="16.064076426798124"><ele>368.0</ele><time>2026-04-12T15:58:13Z</time></trkpt><trkpt lat="38.60602816662607" lon="16.06397661156307"><ele>368.0</ele><time>2026-04-12T15:58:15Z</time></trkpt><trkpt lat="38.60596443792209" lon="16.06387603376071"><ele>368.0</ele><time>2026-04-12T15:58:16Z</time></trkpt><trkpt lat="38.60587710505195" lon="16.063771578495682"><ele>367.75</ele><time>2026-04-12T15:58:17Z</time></trkpt><trkpt lat="38.60581510955299" lon="16.063640426797942"><ele>367.5</ele><time>2026-04-12T15:58:18Z</time></trkpt><trkpt lat="38.605732442193926" lon="16.063502981288185"><ele>367.25</ele><time>2026-04-12T15:58:19Z</time></trkpt><trkpt lat="38.60562265377565" lon="16.063332952059334"><ele>367.0</ele><time>2026-04-12T15:58:20Z</time></trkpt><trkpt lat="38.6054858214094" lon="16.063140096503982"><ele>367.0</ele><time>2026-04-12T15:58:21Z</time></trkpt><trkpt lat="38.60535495965976" lon="16.06296411639248"><ele>367.0</ele><time>2026-04-12T15:58:22Z</time></trkpt><trkpt lat="38.60522781421399" lon="16.06281505986612"><ele>367.0</ele><time>2026-04-12T15:58:23Z</time></trkpt><trkpt lat="38.605113253639544" lon="16.06270055374614"><ele>366.75</ele><time>2026-04-12T15:58:24Z</time></trkpt><trkpt lat="38.60501543050142" lon="16.062541164178164"><ele>366.5</ele><time>2026-04-12T15:58:25Z</time></trkpt><trkpt lat="38.60489716520399" lon="16.062431261869566"><ele>366.25</ele><time>2026-04-12T15:58:26Z</time></trkpt><trkpt lat="38.60481159994444" lon="16.062319399159726"><ele>366.0</ele><time>2026-04-12T15:58:28Z</time></trkpt><trkpt lat="38.60478047910351" lon="16.062236931465012"><ele>366.0</ele><time>2026-04-12T15:58:29Z</time></trkpt><trkpt lat="38.60469562844342" lon="16.062164450753276"><ele>366.0</ele><time>2026-04-12T15:58:30Z</time></trkpt><trkpt lat="38.60461533959347" lon="16.062046812130966"><ele>366.0</ele><time>2026-04-12T15:58:31Z</time></trkpt><trkpt lat="38.60450497408245" lon="16.061906360355945"><ele>366.0</ele><time>2026-04-12T15:58:32Z</time></trkpt><trkpt lat="38.60437928927374" lon="16.06174495370683"><ele>367.0</ele><time>2026-04-12T15:58:33Z</time></trkpt><trkpt lat="38.60424354851986" lon="16.06157545948531"><ele>368.0</ele><time>2026-04-12T15:58:34Z</time></trkpt><trkpt lat="38.60410431316063" lon="16.06139553446749"><ele>369.0</ele><time>2026-04-12T15:58:35Z</time></trkpt><trkpt lat="38.60396928454386" lon="16.061221777632355"><ele>369.0</ele><time>2026-04-12T15:58:36Z</time></trkpt><trkpt lat="38.60382280777973" lon="16.06106218338277"><ele>369.0</ele><time>2026-04-12T15:58:37Z</time></trkpt><trkpt lat="38.60369469102059" lon="16.060892866506734"><ele>369.0</ele><time>2026-04-12T15:58:38Z</time></trkpt><trkpt lat="38.60358625574207" lon="16.06069420513362"><ele>369.3333333333333</ele><time>2026-04-12T15:58:39Z</time></trkpt><trkpt lat="38.60341890617817" lon="16.060498344449893"><ele>369.66666666666663</ele><time>2026-04-12T15:58:40Z</time></trkpt><trkpt lat="38.60332951744323" lon="16.060415616168367"><ele>370.0</ele><time>2026-04-12T15:58:41Z</time></trkpt><trkpt lat="38.60321306493633" lon="16.060267612823647"><ele>370.0</ele><time>2026-04-12T15:58:42Z</time></trkpt><trkpt lat="38.60310105118337" lon="16.060133334869718"><ele>370.0</ele><time>2026-04-12T15:58:43Z</time></trkpt><trkpt lat="38.603011855811125" lon="16.05998879341229"><ele>370.0</ele><time>2026-04-12T15:58:44Z</time></trkpt><trkpt lat="38.60292176116726" lon="16.059875278212033"><ele>370.0</ele><time>2026-04-12T15:58:45Z</time></trkpt><trkpt lat="38.6028180402825" lon="16.059774362887747"><ele>369.75</ele><time>2026-04-12T15:58:46Z</time></trkpt><trkpt lat="38.602738290439795" lon="16.05966679075103"><ele>369.5</ele><time>2026-04-12T15:58:47Z</time></trkpt><trkpt lat="38.60265414590027" lon="16.059568585108448"><ele>369.25</ele><time>2026-04-12T15:58:48Z</time></trkpt><trkpt lat="38.6025817434123" lon="16.059467801705065"><ele>369.0</ele><time>2026-04-12T15:58:49Z</time></trkpt><trkpt lat="38.60249441486894" lon="16.059350986628225"><ele>369.0</ele><time>2026-04-12T15:58:50Z</time></trkpt><trkpt lat="38.602415816919056" lon="16.05929028653867"><ele>369.0</ele><time>2026-04-12T15:58:51Z</time></trkpt><trkpt lat="38.60234327023857" lon="16.05921701906638"><ele>369.0</ele><time>2026-04-12T15:58:52Z</time></trkpt><trkpt lat="38.602280656450176" lon="16.059143487121023"><ele>369.0</ele><time>2026-04-12T15:58:53Z</time></trkpt><trkpt lat="38.60222009545309" lon="16.059067512756286"><ele>369.0</ele><time>2026-04-12T15:58:54Z</time></trkpt><trkpt lat="38.602146252278615" lon="16.058987041815858"><ele>369.25</ele><time>2026-04-12T15:58:55Z</time></trkpt><trkpt lat="38.60206288535602" lon="16.058894540836786"><ele>369.5</ele><time>2026-04-12T15:58:56Z</time></trkpt><trkpt lat="38.60196517141919" lon="16.058786005262807"><ele>369.75</ele><time>2026-04-12T15:58:57Z</time></trkpt><trkpt lat="38.60186065583909" lon="16.058668574777897"><ele>370.0</ele><time>2026-04-12T15:58:58Z</time></trkpt><trkpt lat="38.60173956900448" lon="16.058536421829626"><ele>369.0</ele><time>2026-04-12T15:58:59Z</time></trkpt><trkpt lat="38.60159897271608" lon="16.058388411805222"><ele>368.0</ele><time>2026-04-12T15:59:00Z</time></trkpt><trkpt lat="38.601446760643505" lon="16.05825640590048"><ele>367.0</ele><time>2026-04-12T15:59:01Z</time></trkpt><trkpt lat="38.60130461718929" lon="16.058113037178078"><ele>365.66666666666663</ele><time>2026-04-12T15:59:02Z</time></trkpt><trkpt lat="38.60115330956774" lon="16.057969162996265"><ele>364.3333333333333</ele><time>2026-04-12T15:59:03Z</time></trkpt><trkpt lat="38.60098223987736" lon="16.057827049347406"><ele>363.0</ele><time>2026-04-12T15:59:04Z</time></trkpt><trkpt lat="38.60079248246113" lon="16.057670698902072"><ele>363.0</ele><time>2026-04-12T15:59:05Z</time></trkpt><trkpt lat="38.600615208191435" lon="16.05753952850075"><ele>363.0</ele><time>2026-04-12T15:59:06Z</time></trkpt><trkpt lat="38.60042374403208" lon="16.057397816907308"><ele>363.0</ele><time>2026-04-12T15:59:07Z</time></trkpt><trkpt lat="38.600230365043046" lon="16.057253319615928"><ele>363.0</ele><time>2026-04-12T15:59:08Z</time></trkpt><trkpt lat="38.60003814067083" lon="16.057104547989347"><ele>363.0</ele><time>2026-04-12T15:59:09Z</time></trkpt><trkpt lat="38.599833647529145" lon="16.056959889964443"><ele>363.0</ele><time>2026-04-12T15:59:10Z</time></trkpt><trkpt lat="38.59964954052586" lon="16.056825294821394"><ele>363.0</ele><time>2026-04-12T15:59:11Z</time></trkpt><trkpt lat="38.59946269825533" lon="16.056675559408433"><ele>363.0</ele><time>2026-04-12T15:59:12Z</time></trkpt><trkpt lat="38.59928915925517" lon="16.056541427309355"><ele>360.0</ele><time>2026-04-12T15:59:13Z</time></trkpt><trkpt lat="38.59912634284916" lon="16.05640795203511"><ele>357.0</ele><time>2026-04-12T15:59:14Z</time></trkpt><trkpt lat="38.59896029097397" lon="16.056289296036518"><ele>354.0</ele><time>2026-04-12T15:59:15Z</time></trkpt><trkpt lat="38.59880661755672" lon="16.05616263817442"><ele>351.6666666666667</ele><time>2026-04-12T15:59:16Z</time></trkpt><trkpt lat="38.59864507685104" lon="16.05606144065075"><ele>349.33333333333337</ele><time>2026-04-12T15:59:17Z</time></trkpt><trkpt lat="38.5984678346282" lon="16.05597903049576"><ele>347.0</ele><time>2026-04-12T15:59:18Z</time></trkpt><trkpt lat="38.59828256136225" lon="16.055917374652925"><ele>347.0</ele><time>2026-04-12T15:59:19Z</time></trkpt><trkpt lat="38.598091027567605" lon="16.055859333412663"><ele>347.0</ele><time>2026-04-12T15:59:20Z</time></trkpt><trkpt lat="38.5978992485607" lon="16.05582771294628"><ele>347.0</ele><time>2026-04-12T15:59:21Z</time></trkpt><trkpt lat="38.59772392507007" lon="16.055784709002797"><ele>346.6666666666667</ele><time>2026-04-12T15:59:22Z</time></trkpt><trkpt lat="38.59755187455068" lon="16.05571968388286"><ele>346.3333333333333</ele><time>2026-04-12T15:59:23Z</time></trkpt><trkpt lat="38.597393284829295" lon="16.055681214246384"><ele>346.0</ele><time>2026-04-12T15:59:24Z</time></trkpt><trkpt lat="38.59722556176417" lon="16.055640555582155"><ele>346.0</ele><time>2026-04-12T15:59:25Z</time></trkpt><trkpt lat="38.59705469179289" lon="16.05559836871626"><ele>346.0</ele><time>2026-04-12T15:59:26Z</time></trkpt><trkpt lat="38.59689407322866" lon="16.055576750170932"><ele>346.0</ele><time>2026-04-12T15:59:27Z</time></trkpt><trkpt lat="38.59674656198161" lon="16.055528146445827"><ele>342.66666666666663</ele><time>2026-04-12T15:59:28.001Z</time></trkpt><trkpt lat="38.59659235762299" lon="16.05548176444933"><ele>339.3333333333333</ele><time>2026-04-12T15:59:29.001Z</time></trkpt><trkpt lat="38.59644457312941" lon="16.0554348682686"><ele>336.0</ele><time>2026-04-12T15:59:30.001Z</time></trkpt><trkpt lat="38.59629748208671" lon="16.05535844178144"><ele>332.6666666666667</ele><time>2026-04-12T15:59:31.001Z</time></trkpt><trkpt lat="38.59614236757878" lon="16.055320619911786"><ele>329.33333333333337</ele><time>2026-04-12T15:59:32.001Z</time></trkpt><trkpt lat="38.59598505855475" lon="16.055352948698165"><ele>326.0</ele><time>2026-04-12T15:59:33.001Z</time></trkpt><trkpt lat="38.59584230024885" lon="16.055380194241586"><ele>326.0</ele><time>2026-04-12T15:59:34.001Z</time></trkpt><trkpt lat="38.59567154098068" lon="16.055463069068658"><ele>326.0</ele><time>2026-04-12T15:59:35.001Z</time></trkpt><trkpt lat="38.59551478614787" lon="16.05554468823512"><ele>326.0</ele><time>2026-04-12T15:59:36Z</time></trkpt><trkpt lat="38.59536533559666" lon="16.055627585707416"><ele>324.75</ele><time>2026-04-12T15:59:37Z</time></trkpt><trkpt lat="38.59521885833564" lon="16.05569877890115"><ele>323.5</ele><time>2026-04-12T15:59:38Z</time></trkpt><trkpt lat="38.595083839437976" lon="16.0557662587343"><ele>322.25</ele><time>2026-04-12T15:59:39Z</time></trkpt><trkpt lat="38.59494899964537" lon="16.05583397205352"><ele>321.0</ele><time>2026-04-12T15:59:40Z</time></trkpt><trkpt lat="38.594820454061725" lon="16.05588916500537"><ele>321.0</ele><time>2026-04-12T15:59:41Z</time></trkpt><trkpt lat="38.59471379063728" lon="16.055971746471556"><ele>321.0</ele><time>2026-04-12T15:59:42Z</time></trkpt><trkpt lat="38.59462801441135" lon="16.056100581961214"><ele>321.0</ele><time>2026-04-12T15:59:43Z</time></trkpt><trkpt lat="38.59455373645347" lon="16.056238253748965"><ele>321.0</ele><time>2026-04-12T15:59:44Z</time></trkpt><trkpt lat="38.59448336648193" lon="16.056359207660307"><ele>319.75</ele><time>2026-04-12T15:59:45Z</time></trkpt><trkpt lat="38.59439721966968" lon="16.056456672564824"><ele>318.5</ele><time>2026-04-12T15:59:46Z</time></trkpt><trkpt lat="38.594296000439" lon="16.056516550025396"><ele>317.25</ele><time>2026-04-12T15:59:47Z</time></trkpt><trkpt lat="38.594174264923666" lon="16.056504694749286"><ele>316.0</ele><time>2026-04-12T15:59:48Z</time></trkpt><trkpt lat="38.59406867173438" lon="16.05650356335726"><ele>316.0</ele><time>2026-04-12T15:59:49Z</time></trkpt><trkpt lat="38.59396155120673" lon="16.056502432834613"><ele>316.0</ele><time>2026-04-12T15:59:50Z</time></trkpt><trkpt lat="38.593822297445044" lon="16.05650274886684"><ele>316.0</ele><time>2026-04-12T15:59:51Z</time></trkpt><trkpt lat="38.593690986299244" lon="16.056504491343905"><ele>316.0</ele><time>2026-04-12T15:59:52Z</time></trkpt><trkpt lat="38.59356074605128" lon="16.056505456092097"><ele>314.8</ele><time>2026-04-12T15:59:53Z</time></trkpt><trkpt lat="38.59344241176398" lon="16.056503165742367"><ele>313.6</ele><time>2026-04-12T15:59:54Z</time></trkpt><trkpt lat="38.593339009417384" lon="16.056494220056287"><ele>312.4</ele><time>2026-04-12T15:59:55Z</time></trkpt><trkpt lat="38.59325235445922" lon="16.056474734268786"><ele>311.2</ele><time>2026-04-12T15:59:56Z</time></trkpt><trkpt lat="38.59317485044521" lon="16.05644043067427"><ele>310.0</ele><time>2026-04-12T15:59:57Z</time></trkpt><trkpt lat="38.59313577857743" lon="16.05632543289351"><ele>310.0</ele><time>2026-04-12T15:59:58Z</time></trkpt><trkpt lat="38.59311016846749" lon="16.05620402296277"><ele>310.0</ele><time>2026-04-12T15:59:59Z</time></trkpt><trkpt lat="38.59309768451667" lon="16.05607254419213"><ele>310.0</ele><time>2026-04-12T16:00:00Z</time></trkpt><trkpt lat="38.593083250229846" lon="16.05593042861744"><ele>310.0</ele><time>2026-04-12T16:00:01Z</time></trkpt><trkpt lat="38.59306768017569" lon="16.05579525731887"><ele>310.0</ele><time>2026-04-12T16:00:02Z</time></trkpt><trkpt lat="38.59306262321677" lon="16.055638868924568"><ele>308.5</ele><time>2026-04-12T16:00:03Z</time></trkpt><trkpt lat="38.593056313502956" lon="16.055485095057875"><ele>307.0</ele><time>2026-04-12T16:00:04Z</time></trkpt><trkpt lat="38.59304732370801" lon="16.055335292132952"><ele>305.5</ele><time>2026-04-12T16:00:05Z</time></trkpt><trkpt lat="38.59304824239484" lon="16.055186020466095"><ele>304.0</ele><time>2026-04-12T16:00:06Z</time></trkpt><trkpt lat="38.59305017301839" lon="16.055031162074677"><ele>302.75</ele><time>2026-04-12T16:00:07Z</time></trkpt><trkpt lat="38.59304508022898" lon="16.0548670323474"><ele>301.5</ele><time>2026-04-12T16:00:08Z</time></trkpt><trkpt lat="38.59304992298793" lon="16.054698584026383"><ele>300.25</ele><time>2026-04-12T16:00:09Z</time></trkpt><trkpt lat="38.59305093829047" lon="16.054514192119804"><ele>299.0</ele><time>2026-04-12T16:00:10Z</time></trkpt><trkpt lat="38.59304615332184" lon="16.054342667234963"><ele>299.0</ele><time>2026-04-12T16:00:11Z</time></trkpt><trkpt lat="38.593034833334684" lon="16.054181822485713"><ele>299.0</ele><time>2026-04-12T16:00:12Z</time></trkpt><trkpt lat="38.593023191989" lon="16.05402364313242"><ele>299.0</ele><time>2026-04-12T16:00:13Z</time></trkpt><trkpt lat="38.592969716844706" lon="16.05388052887587"><ele>299.0</ele><time>2026-04-12T16:00:14Z</time></trkpt><trkpt lat="38.592936594515415" lon="16.053731197038317"><ele>298.75</ele><time>2026-04-12T16:00:15Z</time></trkpt><trkpt lat="38.59284301270327" lon="16.05360456025035"><ele>298.5</ele><time>2026-04-12T16:00:16Z</time></trkpt><trkpt lat="38.59274884416015" lon="16.053470519404797"><ele>298.25</ele><time>2026-04-12T16:00:17Z</time></trkpt><trkpt lat="38.59262489917251" lon="16.05340263064896"><ele>298.0</ele><time>2026-04-12T16:00:18Z</time></trkpt><trkpt lat="38.59251122020008" lon="16.05331623412837"><ele>296.5</ele><time>2026-04-12T16:00:19Z</time></trkpt><trkpt lat="38.59238300335704" lon="16.053258151097676"><ele>295.0</ele><time>2026-04-12T16:00:20Z</time></trkpt><trkpt lat="38.59225117437425" lon="16.053215692798982"><ele>293.5</ele><time>2026-04-12T16:00:21Z</time></trkpt><trkpt lat="38.592117741618544" lon="16.0532500511861"><ele>292.0</ele><time>2026-04-12T16:00:22Z</time></trkpt><trkpt lat="38.59199496642275" lon="16.053252737707712"><ele>291.25</ele><time>2026-04-12T16:00:23Z</time></trkpt><trkpt lat="38.59186454343765" lon="16.05326865448119"><ele>290.5</ele><time>2026-04-12T16:00:24Z</time></trkpt><trkpt lat="38.59173167996127" lon="16.053280481704633"><ele>289.75</ele><time>2026-04-12T16:00:25Z</time></trkpt><trkpt lat="38.59159528939171" lon="16.053293264921017"><ele>289.0</ele><time>2026-04-12T16:00:26Z</time></trkpt><trkpt lat="38.59145841132599" lon="16.053310118518617"><ele>289.0</ele><time>2026-04-12T16:00:27Z</time></trkpt><trkpt lat="38.59132251546488" lon="16.05332408724945"><ele>289.0</ele><time>2026-04-12T16:00:28Z</time></trkpt><trkpt lat="38.59117783116929" lon="16.05334760598974"><ele>289.0</ele><time>2026-04-12T16:00:29Z</time></trkpt><trkpt lat="38.591025560703386" lon="16.053346580846462"><ele>289.0</ele><time>2026-04-12T16:00:30Z</time></trkpt><trkpt lat="38.590877200448176" lon="16.05336117408712"><ele>288.0</ele><time>2026-04-12T16:00:31Z</time></trkpt><trkpt lat="38.59073953207168" lon="16.05338063811598"><ele>287.0</ele><time>2026-04-12T16:00:32Z</time></trkpt><trkpt lat="38.59060231044937" lon="16.053405002283395"><ele>286.0</ele><time>2026-04-12T16:00:33Z</time></trkpt><trkpt lat="38.590457270455694" lon="16.05339744424829"><ele>285.0</ele><time>2026-04-12T16:00:34Z</time></trkpt><trkpt lat="38.59030701823587" lon="16.053420305470585"><ele>284.6666666666667</ele><time>2026-04-12T16:00:35Z</time></trkpt><trkpt lat="38.59015443972318" lon="16.05343633373701"><ele>284.33333333333337</ele><time>2026-04-12T16:00:36Z</time></trkpt><trkpt lat="38.58999842449005" lon="16.053456586321882"><ele>284.0</ele><time>2026-04-12T16:00:37Z</time></trkpt><trkpt lat="38.58984512064803" lon="16.05347616616584"><ele>284.0</ele><time>2026-04-12T16:00:38Z</time></trkpt><trkpt lat="38.589706643024634" lon="16.053488542836586"><ele>284.0</ele><time>2026-04-12T16:00:39Z</time></trkpt><trkpt lat="38.58954038722032" lon="16.053489903530185"><ele>284.0</ele><time>2026-04-12T16:00:40Z</time></trkpt><trkpt lat="38.5893919186881" lon="16.053499914736335"><ele>283.0</ele><time>2026-04-12T16:00:41Z</time></trkpt><trkpt lat="38.58924214611181" lon="16.053512182460306"><ele>282.0</ele><time>2026-04-12T16:00:42Z</time></trkpt><trkpt lat="38.589091736773206" lon="16.053524423942683"><ele>281.0</ele><time>2026-04-12T16:00:43Z</time></trkpt><trkpt lat="38.58894294595018" lon="16.053542343670962"><ele>281.0</ele><time>2026-04-12T16:00:44Z</time></trkpt><trkpt lat="38.58879786973267" lon="16.053558150588543"><ele>281.0</ele><time>2026-04-12T16:00:45Z</time></trkpt><trkpt lat="38.58864989283754" lon="16.053576059186348"><ele>281.0</ele><time>2026-04-12T16:00:46Z</time></trkpt><trkpt lat="38.588495270187245" lon="16.053594071800248"><ele>281.0</ele><time>2026-04-12T16:00:47Z</time></trkpt><trkpt lat="38.588341265560366" lon="16.05361117999189"><ele>281.5</ele><time>2026-04-12T16:00:48Z</time></trkpt><trkpt lat="38.58819299556109" lon="16.053625146945357"><ele>282.0</ele><time>2026-04-12T16:00:49Z</time></trkpt><trkpt lat="38.58804451363098" lon="16.05364483773396"><ele>282.5</ele><time>2026-04-12T16:00:50Z</time></trkpt><trkpt lat="38.587898095892605" lon="16.05367994688458"><ele>283.0</ele><time>2026-04-12T16:00:51Z</time></trkpt><trkpt lat="38.58775212066368" lon="16.053698214130364"><ele>281.75</ele><time>2026-04-12T16:00:52Z</time></trkpt><trkpt lat="38.587618701448086" lon="16.053765459230096"><ele>280.5</ele><time>2026-04-12T16:00:53Z</time></trkpt><trkpt lat="38.58750386073613" lon="16.053886687175837"><ele>279.25</ele><time>2026-04-12T16:00:54Z</time></trkpt><trkpt lat="38.5873992033486" lon="16.05400301181828"><ele>278.0</ele><time>2026-04-12T16:00:55Z</time></trkpt><trkpt lat="38.58731646563572" lon="16.05415372684359"><ele>275.75</ele><time>2026-04-12T16:00:56Z</time></trkpt><trkpt lat="38.58725306301685" lon="16.054315520511807"><ele>273.5</ele><time>2026-04-12T16:00:57Z</time></trkpt><trkpt lat="38.5871878549888" lon="16.054473414477467"><ele>271.25</ele><time>2026-04-12T16:00:58Z</time></trkpt><trkpt lat="38.58710794008182" lon="16.05462487512022"><ele>269.0</ele><time>2026-04-12T16:00:59Z</time></trkpt><trkpt lat="38.587010492155365" lon="16.054759708976334"><ele>268.0</ele><time>2026-04-12T16:01:00Z</time></trkpt><trkpt lat="38.586894379141114" lon="16.054870785090277"><ele>267.0</ele><time>2026-04-12T16:01:01Z</time></trkpt><trkpt lat="38.586761407263594" lon="16.054954686991216"><ele>266.0</ele><time>2026-04-12T16:01:02Z</time></trkpt><trkpt lat="38.586625844458666" lon="16.055015418451067"><ele>265.0</ele><time>2026-04-12T16:01:03Z</time></trkpt><trkpt lat="38.58648706301625" lon="16.055055150198346"><ele>264.5</ele><time>2026-04-12T16:01:04Z</time></trkpt><trkpt lat="38.58634096422686" lon="16.055063060804063"><ele>264.0</ele><time>2026-04-12T16:01:05Z</time></trkpt><trkpt lat="38.586199645700376" lon="16.055049718941724"><ele>263.5</ele><time>2026-04-12T16:01:06Z</time></trkpt><trkpt lat="38.58606597251487" lon="16.05501807595356"><ele>263.0</ele><time>2026-04-12T16:01:07Z</time></trkpt><trkpt lat="38.585921116971306" lon="16.05497623799534"><ele>257.6666666666667</ele><time>2026-04-12T16:01:08Z</time></trkpt><trkpt lat="38.58577106375638" lon="16.054939835030545"><ele>252.33333333333331</ele><time>2026-04-12T16:01:09Z</time></trkpt><trkpt lat="38.58561852783451" lon="16.054879048777977"><ele>247.0</ele><time>2026-04-12T16:01:10Z</time></trkpt><trkpt lat="38.585461388167445" lon="16.05483517199326"><ele>246.33333333333331</ele><time>2026-04-12T16:01:11Z</time></trkpt><trkpt lat="38.585293366447914" lon="16.05478825668987"><ele>245.66666666666669</ele><time>2026-04-12T16:01:12Z</time></trkpt><trkpt lat="38.58512142437458" lon="16.05474036413525"><ele>245.0</ele><time>2026-04-12T16:01:13Z</time></trkpt><trkpt lat="38.58494797819151" lon="16.054692059430675"><ele>245.0</ele><time>2026-04-12T16:01:14Z</time></trkpt><trkpt lat="38.58477545172716" lon="16.054665221784365"><ele>245.0</ele><time>2026-04-12T16:01:15Z</time></trkpt><trkpt lat="38.58461980799405" lon="16.05460066413766"><ele>245.0</ele><time>2026-04-12T16:01:16Z</time></trkpt><trkpt lat="38.58446208808934" lon="16.054556738585454"><ele>245.33333333333334</ele><time>2026-04-12T16:01:17Z</time></trkpt><trkpt lat="38.58430198492343" lon="16.05451173880652"><ele>245.66666666666669</ele><time>2026-04-12T16:01:18Z</time></trkpt><trkpt lat="38.58414123199166" lon="16.05446615968279"><ele>246.0</ele><time>2026-04-12T16:01:19Z</time></trkpt><trkpt lat="38.58397476028341" lon="16.05443358832949"><ele>246.0</ele><time>2026-04-12T16:01:20Z</time></trkpt><trkpt lat="38.58381413392136" lon="16.054367001963985"><ele>246.0</ele><time>2026-04-12T16:01:21Z</time></trkpt><trkpt lat="38.58365201313596" lon="16.05429316846134"><ele>246.0</ele><time>2026-04-12T16:01:22Z</time></trkpt><trkpt lat="38.58348822679434" lon="16.0542130099546"><ele>247.0</ele><time>2026-04-12T16:01:23Z</time></trkpt><trkpt lat="38.583325193411234" lon="16.054124760969557"><ele>248.0</ele><time>2026-04-12T16:01:24Z</time></trkpt><trkpt lat="38.583165441316694" lon="16.054026009958783"><ele>249.0</ele><time>2026-04-12T16:01:25Z</time></trkpt><trkpt lat="38.58300794242044" lon="16.053921233317595"><ele>246.66666666666669</ele><time>2026-04-12T16:01:26Z</time></trkpt><trkpt lat="38.58285071767182" lon="16.05381184707378"><ele>244.33333333333334</ele><time>2026-04-12T16:01:27Z</time></trkpt><trkpt lat="38.58271096339136" lon="16.053705800530764"><ele>242.0</ele><time>2026-04-12T16:01:28Z</time></trkpt><trkpt lat="38.58259618351677" lon="16.053598292126882"><ele>242.0</ele><time>2026-04-12T16:01:29Z</time></trkpt><trkpt lat="38.582496746901114" lon="16.05350971031144"><ele>242.0</ele><time>2026-04-12T16:01:30Z</time></trkpt><trkpt lat="38.58242155802724" lon="16.053426795627665"><ele>242.0</ele><time>2026-04-12T16:01:31Z</time></trkpt><trkpt lat="38.582358115063954" lon="16.053362838593696"><ele>242.0</ele><time>2026-04-12T16:01:32Z</time></trkpt><trkpt lat="38.582303223158604" lon="16.053307066697695"><ele>242.0</ele><time>2026-04-12T16:01:33Z</time></trkpt><trkpt lat="38.58224760154804" lon="16.053234046546525"><ele>241.8</ele><time>2026-04-12T16:02:22Z</time></trkpt><trkpt lat="38.58216954316463" lon="16.05315293693771"><ele>241.6</ele><time>2026-04-12T16:02:24Z</time></trkpt><trkpt lat="38.5821141158027" lon="16.053095343024143"><ele>241.40000000000003</ele><time>2026-04-12T16:02:25Z</time></trkpt><trkpt lat="38.58205068270965" lon="16.053029430503486"><ele>241.20000000000002</ele><time>2026-04-12T16:02:26Z</time></trkpt><trkpt lat="38.58196621106263" lon="16.052942738469113"><ele>241.0</ele><time>2026-04-12T16:02:27Z</time></trkpt><trkpt lat="38.58183986723596" lon="16.052814482363523"><ele>241.0</ele><time>2026-04-12T16:02:28Z</time></trkpt><trkpt lat="38.58171138368817" lon="16.05268405403801"><ele>241.0</ele><time>2026-04-12T16:02:29Z</time></trkpt><trkpt lat="38.581597960356" lon="16.052568913999263"><ele>241.0</ele><time>2026-04-12T16:02:30Z</time></trkpt><trkpt lat="38.58147764517267" lon="16.05244616843073"><ele>241.66666666666666</ele><time>2026-04-12T16:02:31Z</time></trkpt><trkpt lat="38.58135010649329" lon="16.052315188017406"><ele>242.33333333333331</ele><time>2026-04-12T16:02:32Z</time></trkpt><trkpt lat="38.5812359216707" lon="16.052197920593564"><ele>243.0</ele><time>2026-04-12T16:02:33Z</time></trkpt><trkpt lat="38.58109366614636" lon="16.052051742528672"><ele>243.0</ele><time>2026-04-12T16:02:34Z</time></trkpt><trkpt lat="38.580968995651716" lon="16.05192359809004"><ele>243.0</ele><time>2026-04-12T16:02:35Z</time></trkpt><trkpt lat="38.580835244172874" lon="16.051810687213163"><ele>243.0</ele><time>2026-04-12T16:02:36Z</time></trkpt><trkpt lat="38.580718930373" lon="16.051680381255668"><ele>241.66666666666669</ele><time>2026-04-12T16:02:37Z</time></trkpt><trkpt lat="38.58059168261817" lon="16.051554187616563"><ele>240.33333333333334</ele><time>2026-04-12T16:02:38Z</time></trkpt><trkpt lat="38.58047170391436" lon="16.051427021839803"><ele>239.0</ele><time>2026-04-12T16:02:39Z</time></trkpt><trkpt lat="38.58035039793909" lon="16.05130660298128"><ele>241.0</ele><time>2026-04-12T16:02:40Z</time></trkpt><trkpt lat="38.58022360726682" lon="16.051172959362265"><ele>243.0</ele><time>2026-04-12T16:02:41Z</time></trkpt><trkpt lat="38.58012858791701" lon="16.05107490870105"><ele>245.0</ele><time>2026-04-12T16:02:42Z</time></trkpt><trkpt lat="38.58006659432607" lon="16.05098631880073"><ele>247.0</ele><time>2026-04-12T16:02:43Z</time></trkpt><trkpt lat="38.57998986518626" lon="16.050906813118733"><ele>247.0</ele><time>2026-04-12T16:02:44Z</time></trkpt><trkpt lat="38.579922713993234" lon="16.05083723217152"><ele>247.0</ele><time>2026-04-12T16:02:45Z</time></trkpt><trkpt lat="38.579850908340966" lon="16.05076211470087"><ele>247.0</ele><time>2026-04-12T16:02:46Z</time></trkpt><trkpt lat="38.57977867701784" lon="16.050685711700027"><ele>247.0</ele><time>2026-04-12T16:02:47Z</time></trkpt><trkpt lat="38.57969892860481" lon="16.05060135742841"><ele>247.0</ele><time>2026-04-12T16:02:48Z</time></trkpt><trkpt lat="38.57959540942796" lon="16.050491859638896"><ele>247.25</ele><time>2026-04-12T16:02:49Z</time></trkpt><trkpt lat="38.57951037616755" lon="16.050398459446164"><ele>247.5</ele><time>2026-04-12T16:02:50Z</time></trkpt><trkpt lat="38.57940145253832" lon="16.050267630910767"><ele>247.75</ele><time>2026-04-12T16:02:51Z</time></trkpt><trkpt lat="38.579298807520466" lon="16.05013115166112"><ele>248.0</ele><time>2026-04-12T16:02:52Z</time></trkpt><trkpt lat="38.5791997718766" lon="16.050013668033994"><ele>247.5</ele><time>2026-04-12T16:02:53Z</time></trkpt><trkpt lat="38.57911865348727" lon="16.049890862574482"><ele>247.0</ele><time>2026-04-12T16:02:54Z</time></trkpt><trkpt lat="38.579035857277276" lon="16.049766082384824"><ele>246.5</ele><time>2026-04-12T16:02:55Z</time></trkpt><trkpt lat="38.57895041994054" lon="16.049639551893712"><ele>246.0</ele><time>2026-04-12T16:02:56Z</time></trkpt><trkpt lat="38.57886161135635" lon="16.049506948399756"><ele>246.0</ele><time>2026-04-12T16:02:57Z</time></trkpt><trkpt lat="38.57878306124335" lon="16.049367842328422"><ele>246.0</ele><time>2026-04-12T16:02:58Z</time></trkpt><trkpt lat="38.578689062971264" lon="16.04923666345872"><ele>246.0</ele><time>2026-04-12T16:02:59Z</time></trkpt><trkpt lat="38.57859456608085" lon="16.04911632590798"><ele>246.0</ele><time>2026-04-12T16:03:00Z</time></trkpt><trkpt lat="38.57853897589925" lon="16.049000657447937"><ele>244.20000000000002</ele><time>2026-04-12T16:03:01Z</time></trkpt><trkpt lat="38.57845373068659" lon="16.04887833009376"><ele>242.40000000000003</ele><time>2026-04-12T16:03:02Z</time></trkpt><trkpt lat="38.57838511097834" lon="16.048786992423224"><ele>240.6</ele><time>2026-04-12T16:03:03Z</time></trkpt><trkpt lat="38.57832158325737" lon="16.048695328061054"><ele>238.8</ele><time>2026-04-12T16:03:04Z</time></trkpt><trkpt lat="38.57826829380601" lon="16.048597035271282"><ele>237.0</ele><time>2026-04-12T16:03:05Z</time></trkpt><trkpt lat="38.578213732578085" lon="16.04847942905059"><ele>237.0</ele><time>2026-04-12T16:03:06Z</time></trkpt><trkpt lat="38.578159235803724" lon="16.04835067339209"><ele>237.0</ele><time>2026-04-12T16:03:07Z</time></trkpt><trkpt lat="38.57810643601257" lon="16.048210882105828"><ele>237.0</ele><time>2026-04-12T16:03:08Z</time></trkpt><trkpt lat="38.57806027286099" lon="16.04806440580194"><ele>237.0</ele><time>2026-04-12T16:03:09Z</time></trkpt><trkpt lat="38.57804547447594" lon="16.047902415710013"><ele>234.75</ele><time>2026-04-12T16:03:10Z</time></trkpt><trkpt lat="38.5780201062626" lon="16.04772177220416"><ele>232.5</ele><time>2026-04-12T16:03:11Z</time></trkpt><trkpt lat="38.57798137008788" lon="16.04753674269913"><ele>230.25</ele><time>2026-04-12T16:03:12Z</time></trkpt><trkpt lat="38.57794305901114" lon="16.04735015384208"><ele>228.0</ele><time>2026-04-12T16:03:13Z</time></trkpt><trkpt lat="38.57791332968717" lon="16.04714821931829"><ele>225.33333333333331</ele><time>2026-04-12T16:03:14Z</time></trkpt><trkpt lat="38.577880426833616" lon="16.046938239781635"><ele>222.66666666666666</ele><time>2026-04-12T16:03:15Z</time></trkpt><trkpt lat="38.57784771719531" lon="16.04672465312962"><ele>220.0</ele><time>2026-04-12T16:03:16Z</time></trkpt><trkpt lat="38.57780958833611" lon="16.046503330826233"><ele>219.66666666666666</ele><time>2026-04-12T16:03:17Z</time></trkpt><trkpt lat="38.5777663761984" lon="16.046282893086598"><ele>219.33333333333331</ele><time>2026-04-12T16:03:18Z</time></trkpt><trkpt lat="38.57772247094296" lon="16.046058807920176"><ele>219.0</ele><time>2026-04-12T16:03:19Z</time></trkpt><trkpt lat="38.57768416560109" lon="16.04584019652261"><ele>219.33333333333331</ele><time>2026-04-12T16:03:20Z</time></trkpt><trkpt lat="38.577612691271334" lon="16.045630229854982"><ele>219.66666666666666</ele><time>2026-04-12T16:03:21Z</time></trkpt><trkpt lat="38.57752771402798" lon="16.045437032523413"><ele>220.0</ele><time>2026-04-12T16:03:22Z</time></trkpt><trkpt lat="38.57742790051136" lon="16.045253207875934"><ele>220.0</ele><time>2026-04-12T16:03:23Z</time></trkpt><trkpt lat="38.57731268020919" lon="16.045098529051216"><ele>220.0</ele><time>2026-04-12T16:03:24Z</time></trkpt><trkpt lat="38.577202751668786" lon="16.044925905343057"><ele>220.0</ele><time>2026-04-12T16:03:25Z</time></trkpt><trkpt lat="38.577094681110005" lon="16.04475763246012"><ele>220.66666666666666</ele><time>2026-04-12T16:03:26Z</time></trkpt><trkpt lat="38.57698490970408" lon="16.04458833413006"><ele>221.33333333333331</ele><time>2026-04-12T16:03:27Z</time></trkpt><trkpt lat="38.57688832501413" lon="16.044417722239558"><ele>222.0</ele><time>2026-04-12T16:03:28Z</time></trkpt><trkpt lat="38.57677405242422" lon="16.044265036532924"><ele>222.0</ele><time>2026-04-12T16:03:29Z</time></trkpt><trkpt lat="38.57664933083402" lon="16.044130458187258"><ele>222.0</ele><time>2026-04-12T16:03:30Z</time></trkpt><trkpt lat="38.576513467952886" lon="16.0440187386583"><ele>222.0</ele><time>2026-04-12T16:03:31Z</time></trkpt><trkpt lat="38.57636718228381" lon="16.04392655464556"><ele>220.0</ele><time>2026-04-12T16:03:32Z</time></trkpt><trkpt lat="38.5762126173219" lon="16.04383900178737"><ele>218.0</ele><time>2026-04-12T16:03:33Z</time></trkpt><trkpt lat="38.57606530376858" lon="16.043757024390054"><ele>216.0</ele><time>2026-04-12T16:03:34Z</time></trkpt><trkpt lat="38.57590691021543" lon="16.043668881121135"><ele>216.0</ele><time>2026-04-12T16:03:35Z</time></trkpt><trkpt lat="38.5757435358952" lon="16.04359977068733"><ele>216.0</ele><time>2026-04-12T16:03:36Z</time></trkpt><trkpt lat="38.57558208286195" lon="16.043502381154443"><ele>216.0</ele><time>2026-04-12T16:03:37Z</time></trkpt><trkpt lat="38.575425744028315" lon="16.0433979301428"><ele>215.0</ele><time>2026-04-12T16:03:38Z</time></trkpt><trkpt lat="38.575279162196814" lon="16.043271644902223"><ele>214.0</ele><time>2026-04-12T16:03:39Z</time></trkpt><trkpt lat="38.57515659166346" lon="16.043136786624842"><ele>213.0</ele><time>2026-04-12T16:03:40Z</time></trkpt><trkpt lat="38.57504813972298" lon="16.042974142856565"><ele>213.0</ele><time>2026-04-12T16:03:41Z</time></trkpt><trkpt lat="38.57496036273622" lon="16.042798747803293"><ele>213.0</ele><time>2026-04-12T16:03:42Z</time></trkpt><trkpt lat="38.574866947447646" lon="16.042625983033517"><ele>213.0</ele><time>2026-04-12T16:03:43Z</time></trkpt><trkpt lat="38.57477464993273" lon="16.04246567666226"><ele>211.33333333333331</ele><time>2026-04-12T16:03:44Z</time></trkpt><trkpt lat="38.57467181797865" lon="16.04231689919819"><ele>209.66666666666666</ele><time>2026-04-12T16:03:45Z</time></trkpt><trkpt lat="38.57456611118022" lon="16.04216712544741"><ele>208.0</ele><time>2026-04-12T16:03:46Z</time></trkpt><trkpt lat="38.57441516011335" lon="16.042080853851367"><ele>211.33333333333331</ele><time>2026-04-12T16:03:47Z</time></trkpt><trkpt lat="38.57426578776656" lon="16.041989765527607"><ele>214.66666666666669</ele><time>2026-04-12T16:03:48Z</time></trkpt><trkpt lat="38.57410810274367" lon="16.041909289917587"><ele>218.0</ele><time>2026-04-12T16:03:49Z</time></trkpt><trkpt lat="38.573941846736695" lon="16.04183475462138"><ele>218.0</ele><time>2026-04-12T16:03:50Z</time></trkpt><trkpt lat="38.573773839443014" lon="16.041753016397227"><ele>218.0</ele><time>2026-04-12T16:03:51Z</time></trkpt><trkpt lat="38.57360213341675" lon="16.04167297413358"><ele>218.0</ele><time>2026-04-12T16:03:52Z</time></trkpt><trkpt lat="38.57342911128575" lon="16.04159475010084"><ele>214.33333333333334</ele><time>2026-04-12T16:03:53Z</time></trkpt><trkpt lat="38.57326787670668" lon="16.041520343286233"><ele>210.66666666666669</ele><time>2026-04-12T16:03:54Z</time></trkpt><trkpt lat="38.57310705966152" lon="16.041443489138924"><ele>207.0</ele><time>2026-04-12T16:03:55Z</time></trkpt><trkpt lat="38.572950115125046" lon="16.04135337713479"><ele>209.0</ele><time>2026-04-12T16:03:56Z</time></trkpt><trkpt lat="38.57280131395185" lon="16.041247417742145"><ele>211.0</ele><time>2026-04-12T16:03:57Z</time></trkpt><trkpt lat="38.5726614287814" lon="16.041113012469282"><ele>213.0</ele><time>2026-04-12T16:03:58Z</time></trkpt><trkpt lat="38.57253281142139" lon="16.040956697740818"><ele>210.33333333333331</ele><time>2026-04-12T16:03:59Z</time></trkpt><trkpt lat="38.572428812818934" lon="16.040770981375477"><ele>207.66666666666666</ele><time>2026-04-12T16:04:00Z</time></trkpt><trkpt lat="38.5723258713744" lon="16.040584377979503"><ele>205.0</ele><time>2026-04-12T16:04:01Z</time></trkpt><trkpt lat="38.57222510148434" lon="16.040394689913917"><ele>205.0</ele><time>2026-04-12T16:04:02Z</time></trkpt><trkpt lat="38.57212417345214" lon="16.040198017714914"><ele>205.0</ele><time>2026-04-12T16:04:03Z</time></trkpt><trkpt lat="38.57202253903394" lon="16.040006280622716"><ele>205.0</ele><time>2026-04-12T16:04:04Z</time></trkpt><trkpt lat="38.57192920546878" lon="16.0398265401886"><ele>207.66666666666666</ele><time>2026-04-12T16:04:05Z</time></trkpt><trkpt lat="38.57183708816659" lon="16.039649806770324"><ele>210.33333333333331</ele><time>2026-04-12T16:04:06Z</time></trkpt><trkpt lat="38.571744120862036" lon="16.039477175832864"><ele>213.0</ele><time>2026-04-12T16:04:07Z</time></trkpt><trkpt lat="38.57161915550638" lon="16.03931015513549"><ele>213.0</ele><time>2026-04-12T16:04:08Z</time></trkpt><trkpt lat="38.57149874601985" lon="16.039166068573305"><ele>213.0</ele><time>2026-04-12T16:04:09Z</time></trkpt><trkpt lat="38.571346949662285" lon="16.039052832825195"><ele>213.0</ele><time>2026-04-12T16:04:10Z</time></trkpt><trkpt lat="38.57118706633116" lon="16.038969341742202"><ele>210.66666666666669</ele><time>2026-04-12T16:04:11Z</time></trkpt><trkpt lat="38.57103141439516" lon="16.038892812992515"><ele>208.33333333333334</ele><time>2026-04-12T16:04:12Z</time></trkpt><trkpt lat="38.57086380640471" lon="16.03885602208596"><ele>206.0</ele><time>2026-04-12T16:04:13Z</time></trkpt><trkpt lat="38.570685847649514" lon="16.038833378473434"><ele>206.0</ele><time>2026-04-12T16:04:14Z</time></trkpt><trkpt lat="38.57050739236222" lon="16.038841448253052"><ele>206.0</ele><time>2026-04-12T16:04:15Z</time></trkpt><trkpt lat="38.57032611099862" lon="16.038855775069973"><ele>206.0</ele><time>2026-04-12T16:04:16Z</time></trkpt><trkpt lat="38.57014369729688" lon="16.038861953855676"><ele>205.33333333333334</ele><time>2026-04-12T16:04:17Z</time></trkpt><trkpt lat="38.5699591273467" lon="16.038868556829307"><ele>204.66666666666669</ele><time>2026-04-12T16:04:18Z</time></trkpt><trkpt lat="38.569774801071254" lon="16.038870111655626"><ele>204.0</ele><time>2026-04-12T16:04:19Z</time></trkpt><trkpt lat="38.56958763740682" lon="16.03887606695484"><ele>204.33333333333331</ele><time>2026-04-12T16:04:20Z</time></trkpt><trkpt lat="38.569396905285274" lon="16.03887872877589"><ele>204.66666666666666</ele><time>2026-04-12T16:04:21Z</time></trkpt><trkpt lat="38.5692093765137" lon="16.038891499442695"><ele>205.0</ele><time>2026-04-12T16:04:22Z</time></trkpt><trkpt lat="38.56901793842944" lon="16.03889827293804"><ele>205.0</ele><time>2026-04-12T16:04:23Z</time></trkpt><trkpt lat="38.568827064774794" lon="16.038906055705407"><ele>205.0</ele><time>2026-04-12T16:04:24Z</time></trkpt><trkpt lat="38.56863225773401" lon="16.038918599505923"><ele>205.0</ele><time>2026-04-12T16:04:25Z</time></trkpt><trkpt lat="38.5684364136517" lon="16.038922654608186"><ele>204.0</ele><time>2026-04-12T16:04:26Z</time></trkpt><trkpt lat="38.56823949191435" lon="16.038923734866955"><ele>203.0</ele><time>2026-04-12T16:04:27Z</time></trkpt><trkpt lat="38.56804288344765" lon="16.038933568740518"><ele>202.0</ele><time>2026-04-12T16:04:28Z</time></trkpt><trkpt lat="38.56784575658131" lon="16.038943492539143"><ele>198.66666666666666</ele><time>2026-04-12T16:04:29Z</time></trkpt><trkpt lat="38.567644167054304" lon="16.03895361256694"><ele>195.33333333333331</ele><time>2026-04-12T16:04:30Z</time></trkpt><trkpt lat="38.567444021721194" lon="16.038961164946674"><ele>192.0</ele><time>2026-04-12T16:04:31Z</time></trkpt><trkpt lat="38.56724151709708" lon="16.03896301953403"><ele>192.0</ele><time>2026-04-12T16:04:32Z</time></trkpt><trkpt lat="38.567040730552165" lon="16.038969892260855"><ele>192.0</ele><time>2026-04-12T16:04:33Z</time></trkpt><trkpt lat="38.566859026165154" lon="16.03897079705905"><ele>192.0</ele><time>2026-04-12T16:04:34Z</time></trkpt><trkpt lat="38.566649774928294" lon="16.038991471746275"><ele>190.0</ele><time>2026-04-12T16:04:35Z</time></trkpt><trkpt lat="38.56644868269931" lon="16.039028140968625"><ele>188.0</ele><time>2026-04-12T16:04:36Z</time></trkpt><trkpt lat="38.56624910666046" lon="16.03907167745883"><ele>186.0</ele><time>2026-04-12T16:04:37Z</time></trkpt><trkpt lat="38.5660581938124" lon="16.039126984674077"><ele>188.33333333333331</ele><time>2026-04-12T16:04:38Z</time></trkpt><trkpt lat="38.565867692653214" lon="16.03918128289842"><ele>190.66666666666666</ele><time>2026-04-12T16:04:39Z</time></trkpt><trkpt lat="38.56568308204568" lon="16.039235118350724"><ele>193.0</ele><time>2026-04-12T16:04:40Z</time></trkpt><trkpt lat="38.56550188147899" lon="16.039272679384958"><ele>192.0</ele><time>2026-04-12T16:04:41Z</time></trkpt><trkpt lat="38.56532388081749" lon="16.039291835985843"><ele>191.0</ele><time>2026-04-12T16:04:42Z</time></trkpt><trkpt lat="38.565145357106324" lon="16.039288522021216"><ele>190.0</ele><time>2026-04-12T16:04:43Z</time></trkpt><trkpt lat="38.56496057431155" lon="16.039243892097126"><ele>190.0</ele><time>2026-04-12T16:04:44Z</time></trkpt><trkpt lat="38.56477775101541" lon="16.03917990950054"><ele>190.0</ele><time>2026-04-12T16:04:45Z</time></trkpt><trkpt lat="38.56458864424016" lon="16.03911920316515"><ele>190.0</ele><time>2026-04-12T16:04:46Z</time></trkpt><trkpt lat="38.56439725417013" lon="16.03906548735329"><ele>189.66666666666669</ele><time>2026-04-12T16:04:47Z</time></trkpt><trkpt lat="38.5642069652174" lon="16.039014413770158"><ele>189.33333333333334</ele><time>2026-04-12T16:04:48Z</time></trkpt><trkpt lat="38.5640182471501" lon="16.03896844348763"><ele>189.0</ele><time>2026-04-12T16:04:49Z</time></trkpt><trkpt lat="38.56383088676597" lon="16.03891778306454"><ele>189.0</ele><time>2026-04-12T16:04:50Z</time></trkpt><trkpt lat="38.56364335474422" lon="16.038871215824887"><ele>189.0</ele><time>2026-04-12T16:04:51Z</time></trkpt><trkpt lat="38.56345320097938" lon="16.038826161665835"><ele>189.0</ele><time>2026-04-12T16:04:52Z</time></trkpt><trkpt lat="38.563267438061295" lon="16.038758566235757"><ele>189.0</ele><time>2026-04-12T16:04:53Z</time></trkpt><trkpt lat="38.56307546300728" lon="16.03870652982867"><ele>189.0</ele><time>2026-04-12T16:04:54Z</time></trkpt><trkpt lat="38.56287866260192" lon="16.038652943258622"><ele>189.0</ele><time>2026-04-12T16:04:55Z</time></trkpt><trkpt lat="38.562684463373486" lon="16.038598333134367"><ele>189.33333333333334</ele><time>2026-04-12T16:04:56Z</time></trkpt><trkpt lat="38.56248206061444" lon="16.038541416135995"><ele>189.66666666666669</ele><time>2026-04-12T16:04:57Z</time></trkpt><trkpt lat="38.56228397711212" lon="16.03848728213269"><ele>190.0</ele><time>2026-04-12T16:04:58Z</time></trkpt><trkpt lat="38.56208506803401" lon="16.038433038287987"><ele>189.33333333333334</ele><time>2026-04-12T16:04:59Z</time></trkpt><trkpt lat="38.561883945472424" lon="16.038396255049328"><ele>188.66666666666666</ele><time>2026-04-12T16:05:00Z</time></trkpt><trkpt lat="38.56167526426494" lon="16.03833709302348"><ele>188.0</ele><time>2026-04-12T16:05:01Z</time></trkpt><trkpt lat="38.56149269453232" lon="16.03828785671148"><ele>186.0</ele><time>2026-04-12T16:05:02Z</time></trkpt><trkpt lat="38.56130880675908" lon="16.038219556460255"><ele>184.0</ele><time>2026-04-12T16:05:03Z</time></trkpt><trkpt lat="38.56111730138039" lon="16.038165946711043"><ele>182.0</ele><time>2026-04-12T16:05:04Z</time></trkpt><trkpt lat="38.56093264719387" lon="16.03811330349358"><ele>181.66666666666666</ele><time>2026-04-12T16:05:05Z</time></trkpt><trkpt lat="38.56074458022972" lon="16.038056800242064"><ele>181.33333333333334</ele><time>2026-04-12T16:05:06Z</time></trkpt><trkpt lat="38.56055319588966" lon="16.03799862036864"><ele>181.0</ele><time>2026-04-12T16:05:07Z</time></trkpt><trkpt lat="38.56036843463619" lon="16.037939590956594"><ele>182.66666666666669</ele><time>2026-04-12T16:05:08Z</time></trkpt><trkpt lat="38.56018553847186" lon="16.03787852595365"><ele>184.33333333333334</ele><time>2026-04-12T16:05:09Z</time></trkpt><trkpt lat="38.55999979679695" lon="16.037814817088325"><ele>186.0</ele><time>2026-04-12T16:05:10Z</time></trkpt><trkpt lat="38.559816499968726" lon="16.037743775689783"><ele>186.0</ele><time>2026-04-12T16:05:11Z</time></trkpt><trkpt lat="38.55962209692458" lon="16.03766711302756"><ele>186.0</ele><time>2026-04-12T16:05:12Z</time></trkpt><trkpt lat="38.55945045135681" lon="16.037599724491432"><ele>186.0</ele><time>2026-04-12T16:05:13Z</time></trkpt><trkpt lat="38.559271425259915" lon="16.037527140168798"><ele>183.66666666666666</ele><time>2026-04-12T16:05:14Z</time></trkpt><trkpt lat="38.55909051581078" lon="16.037451429003344"><ele>181.33333333333331</ele><time>2026-04-12T16:05:15Z</time></trkpt><trkpt lat="38.558910848921855" lon="16.03737623784617"><ele>179.0</ele><time>2026-04-12T16:05:16Z</time></trkpt><trkpt lat="38.558726614370094" lon="16.03729796612341"><ele>177.66666666666666</ele><time>2026-04-12T16:05:17Z</time></trkpt><trkpt lat="38.5585393061828" lon="16.037218328948608"><ele>176.33333333333334</ele><time>2026-04-12T16:05:18Z</time></trkpt><trkpt lat="38.55835431286621" lon="16.03713966201908"><ele>175.0</ele><time>2026-04-12T16:05:19Z</time></trkpt><trkpt lat="38.558168780185056" lon="16.0370607305639"><ele>175.0</ele><time>2026-04-12T16:05:20Z</time></trkpt><trkpt lat="38.557970042953876" lon="16.036976181403343"><ele>175.0</ele><time>2026-04-12T16:05:21Z</time></trkpt><trkpt lat="38.557790153441765" lon="16.036899650761715"><ele>175.0</ele><time>2026-04-12T16:05:22Z</time></trkpt><trkpt lat="38.55759613904024" lon="16.03683699675005"><ele>174.66666666666669</ele><time>2026-04-12T16:05:23Z</time></trkpt><trkpt lat="38.55740730405351" lon="16.03675647929475"><ele>174.33333333333334</ele><time>2026-04-12T16:05:24Z</time></trkpt><trkpt lat="38.55721583855012" lon="16.036676088794657"><ele>174.0</ele><time>2026-04-12T16:05:25Z</time></trkpt><trkpt lat="38.5570305991948" lon="16.03657737609175"><ele>172.33333333333334</ele><time>2026-04-12T16:05:26Z</time></trkpt><trkpt lat="38.556835541672754" lon="16.036516332592903"><ele>170.66666666666669</ele><time>2026-04-12T16:05:27Z</time></trkpt><trkpt lat="38.55665218144743" lon="16.036427132121133"><ele>169.0</ele><time>2026-04-12T16:05:28Z</time></trkpt><trkpt lat="38.556456566112274" lon="16.036354270788873"><ele>169.0</ele><time>2026-04-12T16:05:29Z</time></trkpt><trkpt lat="38.5562680416001" lon="16.036252793022065"><ele>169.0</ele><time>2026-04-12T16:05:30Z</time></trkpt><trkpt lat="38.55607592084942" lon="16.03617099320651"><ele>169.0</ele><time>2026-04-12T16:05:31Z</time></trkpt><trkpt lat="38.555885858686686" lon="16.03609006974165"><ele>169.33333333333334</ele><time>2026-04-12T16:05:32Z</time></trkpt><trkpt lat="38.555692441329846" lon="16.03602756691957"><ele>169.66666666666666</ele><time>2026-04-12T16:05:33Z</time></trkpt><trkpt lat="38.555504184674966" lon="16.03594217476953"><ele>170.0</ele><time>2026-04-12T16:05:34Z</time></trkpt><trkpt lat="38.555318479895824" lon="16.035860572855324"><ele>170.0</ele><time>2026-04-12T16:05:35Z</time></trkpt><trkpt lat="38.555133852820966" lon="16.035782577050984"><ele>170.0</ele><time>2026-04-12T16:05:36Z</time></trkpt><trkpt lat="38.55494977083568" lon="16.03571703345083"><ele>170.0</ele><time>2026-04-12T16:05:37Z</time></trkpt><trkpt lat="38.55476373555082" lon="16.035665429030505"><ele>170.0</ele><time>2026-04-12T16:05:38Z</time></trkpt><trkpt lat="38.55457928410218" lon="16.035652942575588"><ele>170.0</ele><time>2026-04-12T16:05:39Z</time></trkpt><trkpt lat="38.554393442502445" lon="16.035690023601102"><ele>170.0</ele><time>2026-04-12T16:05:40Z</time></trkpt><trkpt lat="38.55420974360136" lon="16.035759170212362"><ele>170.0</ele><time>2026-04-12T16:05:41Z</time></trkpt><trkpt lat="38.55402823632745" lon="16.03583267346189"><ele>170.0</ele><time>2026-04-12T16:05:42Z</time></trkpt><trkpt lat="38.55383812160097" lon="16.03591543727657"><ele>170.0</ele><time>2026-04-12T16:05:43Z</time></trkpt><trkpt lat="38.55364491263556" lon="16.03599599029791"><ele>170.0</ele><time>2026-04-12T16:05:44Z</time></trkpt><trkpt lat="38.55344313442692" lon="16.036050112409434"><ele>170.0</ele><time>2026-04-12T16:05:45Z</time></trkpt><trkpt lat="38.553242124593694" lon="16.036125753939885"><ele>170.0</ele><time>2026-04-12T16:05:46Z</time></trkpt><trkpt lat="38.55304461986404" lon="16.03620007650722"><ele>169.33333333333331</ele><time>2026-04-12T16:05:47Z</time></trkpt><trkpt lat="38.55284815575608" lon="16.03627400746924"><ele>168.66666666666666</ele><time>2026-04-12T16:05:48Z</time></trkpt><trkpt lat="38.552647225144504" lon="16.03634961920159"><ele>168.0</ele><time>2026-04-12T16:05:49Z</time></trkpt><trkpt lat="38.552455827795214" lon="16.036442734530183"><ele>168.0</ele><time>2026-04-12T16:05:50Z</time></trkpt><trkpt lat="38.55226496927958" lon="16.036507762167325"><ele>168.0</ele><time>2026-04-12T16:05:51Z</time></trkpt><trkpt lat="38.55207124909894" lon="16.03658637675945"><ele>168.0</ele><time>2026-04-12T16:05:52Z</time></trkpt><trkpt lat="38.551877373741846" lon="16.03665479608972"><ele>167.33333333333334</ele><time>2026-04-12T16:05:53Z</time></trkpt><trkpt lat="38.551684937814976" lon="16.036722081577665"><ele>166.66666666666669</ele><time>2026-04-12T16:05:53.999Z</time></trkpt><trkpt lat="38.551494677957784" lon="16.036795253933388"><ele>166.0</ele><time>2026-04-12T16:05:54.999Z</time></trkpt><trkpt lat="38.551296731262035" lon="16.036868411496872"><ele>165.33333333333334</ele><time>2026-04-12T16:05:55.999Z</time></trkpt><trkpt lat="38.55109978869412" lon="16.036945989218655"><ele>164.66666666666666</ele><time>2026-04-12T16:05:56.999Z</time></trkpt><trkpt lat="38.55089645291271" lon="16.037020939877454"><ele>164.0</ele><time>2026-04-12T16:05:57.999Z</time></trkpt><trkpt lat="38.5506969888079" lon="16.037101109156396"><ele>164.0</ele><time>2026-04-12T16:05:58.999Z</time></trkpt><trkpt lat="38.5504910643881" lon="16.037159280376898"><ele>164.0</ele><time>2026-04-12T16:05:59.999Z</time></trkpt><trkpt lat="38.550290455169424" lon="16.037233576925882"><ele>164.0</ele><time>2026-04-12T16:06:00.999Z</time></trkpt><trkpt lat="38.55008940629358" lon="16.03732968780507"><ele>163.0</ele><time>2026-04-12T16:06:01.999Z</time></trkpt><trkpt lat="38.549887531220854" lon="16.037398460911252"><ele>162.0</ele><time>2026-04-12T16:06:03Z</time></trkpt><trkpt lat="38.54967667296797" lon="16.037459511473116"><ele>161.0</ele><time>2026-04-12T16:06:04Z</time></trkpt><trkpt lat="38.549458380718505" lon="16.03750950104914"><ele>161.0</ele><time>2026-04-12T16:06:05Z</time></trkpt><trkpt lat="38.54923224419961" lon="16.037536262578108"><ele>161.0</ele><time>2026-04-12T16:06:06Z</time></trkpt><trkpt lat="38.54903075328465" lon="16.03757271305307"><ele>161.0</ele><time>2026-04-12T16:06:07Z</time></trkpt><trkpt lat="38.548819279833445" lon="16.037611697908666"><ele>159.0</ele><time>2026-04-12T16:06:08Z</time></trkpt><trkpt lat="38.5486087528923" lon="16.037651512340588"><ele>157.0</ele><time>2026-04-12T16:06:09Z</time></trkpt><trkpt lat="38.54840494215207" lon="16.03769005659657"><ele>155.0</ele><time>2026-04-12T16:06:10Z</time></trkpt><trkpt lat="38.54820626396019" lon="16.03772789470588"><ele>155.0</ele><time>2026-04-12T16:06:11Z</time></trkpt><trkpt lat="38.54799269551312" lon="16.037768207252633"><ele>155.0</ele><time>2026-04-12T16:06:12Z</time></trkpt><trkpt lat="38.54780429809388" lon="16.037803172952046"><ele>155.0</ele><time>2026-04-12T16:06:13Z</time></trkpt><trkpt lat="38.54761107727173" lon="16.037840642189643"><ele>154.0</ele><time>2026-04-12T16:06:14Z</time></trkpt><trkpt lat="38.547407835678364" lon="16.037882040568057"><ele>153.0</ele><time>2026-04-12T16:06:15Z</time></trkpt><trkpt lat="38.54721051197432" lon="16.037926072704504"><ele>152.0</ele><time>2026-04-12T16:06:16Z</time></trkpt><trkpt lat="38.54701388798999" lon="16.037985444323112"><ele>149.33333333333331</ele><time>2026-04-12T16:06:17Z</time></trkpt><trkpt lat="38.546840036413684" lon="16.038081640673965"><ele>146.66666666666666</ele><time>2026-04-12T16:06:18Z</time></trkpt><trkpt lat="38.546664307665154" lon="16.038162729853475"><ele>144.0</ele><time>2026-04-12T16:06:19Z</time></trkpt><trkpt lat="38.54649286920749" lon="16.038250312590634"><ele>143.33333333333334</ele><time>2026-04-12T16:06:20Z</time></trkpt><trkpt lat="38.54633129643675" lon="16.038340626459043"><ele>142.66666666666669</ele><time>2026-04-12T16:06:21Z</time></trkpt><trkpt lat="38.546173062781435" lon="16.038413610047435"><ele>142.0</ele><time>2026-04-12T16:06:22Z</time></trkpt><trkpt lat="38.546019310139954" lon="16.03844767121252"><ele>142.0</ele><time>2026-04-12T16:06:23Z</time></trkpt><trkpt lat="38.54588187882785" lon="16.038458839960423"><ele>142.0</ele><time>2026-04-12T16:06:24Z</time></trkpt><trkpt lat="38.54572515807013" lon="16.038451045954655"><ele>142.0</ele><time>2026-04-12T16:06:25Z</time></trkpt><trkpt lat="38.54555659651883" lon="16.038453570149205"><ele>139.66666666666669</ele><time>2026-04-12T16:06:26Z</time></trkpt><trkpt lat="38.54537812539011" lon="16.038427121608894"><ele>137.33333333333334</ele><time>2026-04-12T16:06:27Z</time></trkpt><trkpt lat="38.5451871415465" lon="16.03841115538013"><ele>135.0</ele><time>2026-04-12T16:06:28Z</time></trkpt><trkpt lat="38.54499634499779" lon="16.038371606590108"><ele>135.0</ele><time>2026-04-12T16:06:29Z</time></trkpt><trkpt lat="38.544812849499095" lon="16.038366615751773"><ele>135.0</ele><time>2026-04-12T16:06:30Z</time></trkpt><trkpt lat="38.54463625231774" lon="16.038399576993655"><ele>135.0</ele><time>2026-04-12T16:06:31Z</time></trkpt><trkpt lat="38.54447323008062" lon="16.038413044638908"><ele>134.33333333333334</ele><time>2026-04-12T16:06:32Z</time></trkpt><trkpt lat="38.54429615922948" lon="16.038440446188257"><ele>133.66666666666669</ele><time>2026-04-12T16:06:33Z</time></trkpt><trkpt lat="38.54414155131744" lon="16.03843702019035"><ele>133.0</ele><time>2026-04-12T16:06:34Z</time></trkpt><trkpt lat="38.5440056818405" lon="16.03843206308113"><ele>133.0</ele><time>2026-04-12T16:06:35Z</time></trkpt><trkpt lat="38.543891772098306" lon="16.038389221388318"><ele>133.0</ele><time>2026-04-12T16:06:36Z</time></trkpt><trkpt lat="38.54377464860837" lon="16.038319971127304"><ele>133.0</ele><time>2026-04-12T16:06:37Z</time></trkpt><trkpt lat="38.5436790998559" lon="16.0381969165743"><ele>133.0</ele><time>2026-04-12T16:06:38Z</time></trkpt><trkpt lat="38.543573672824806" lon="16.038041998975313"><ele>132.0</ele><time>2026-04-12T16:06:39Z</time></trkpt><trkpt lat="38.54346587588795" lon="16.0378726815165"><ele>131.0</ele><time>2026-04-12T16:06:40Z</time></trkpt><trkpt lat="38.54334021314703" lon="16.037703053992544"><ele>130.0</ele><time>2026-04-12T16:06:41Z</time></trkpt><trkpt lat="38.543219836790776" lon="16.03750983657342"><ele>129.33333333333334</ele><time>2026-04-12T16:06:42Z</time></trkpt><trkpt lat="38.54310886525497" lon="16.03729886307261"><ele>128.66666666666666</ele><time>2026-04-12T16:06:43Z</time></trkpt><trkpt lat="38.54298072698692" lon="16.03709253893768"><ele>128.0</ele><time>2026-04-12T16:06:44Z</time></trkpt><trkpt lat="38.54283222513708" lon="16.036886888493957"><ele>128.0</ele><time>2026-04-12T16:06:45Z</time></trkpt><trkpt lat="38.54269512026296" lon="16.036668143970132"><ele>128.0</ele><time>2026-04-12T16:06:46Z</time></trkpt><trkpt lat="38.5425566548804" lon="16.03645085453714"><ele>128.0</ele><time>2026-04-12T16:06:47Z</time></trkpt><trkpt lat="38.54243299578265" lon="16.036219708107918"><ele>127.66666666666666</ele><time>2026-04-12T16:06:48Z</time></trkpt><trkpt lat="38.54228826263464" lon="16.03601095815605"><ele>127.33333333333334</ele><time>2026-04-12T16:06:49Z</time></trkpt><trkpt lat="38.542153967660354" lon="16.03579393061325"><ele>127.0</ele><time>2026-04-12T16:06:50Z</time></trkpt><trkpt lat="38.54201515201739" lon="16.035578836801772"><ele>127.0</ele><time>2026-04-12T16:06:51Z</time></trkpt><trkpt lat="38.54187742162701" lon="16.03536293023119"><ele>127.0</ele><time>2026-04-12T16:06:52Z</time></trkpt><trkpt lat="38.541759690277146" lon="16.035161068866838"><ele>127.0</ele><time>2026-04-12T16:06:53Z</time></trkpt><trkpt lat="38.54162381553674" lon="16.034928468944564"><ele>127.0</ele><time>2026-04-12T16:06:54Z</time></trkpt><trkpt lat="38.5414731598103" lon="16.03472375006852"><ele>127.0</ele><time>2026-04-12T16:06:55Z</time></trkpt><trkpt lat="38.541334174111356" lon="16.034494777335368"><ele>127.0</ele><time>2026-04-12T16:06:56Z</time></trkpt><trkpt lat="38.54118660286443" lon="16.034274339392773"><ele>125.5</ele><time>2026-04-12T16:06:57Z</time></trkpt><trkpt lat="38.54104237647111" lon="16.034042349960462"><ele>124.0</ele><time>2026-04-12T16:06:58Z</time></trkpt><trkpt lat="38.540907104577634" lon="16.033797241504807"><ele>124.0</ele><time>2026-04-12T16:06:59Z</time></trkpt><trkpt lat="38.54076421081069" lon="16.03359523239688"><ele>124.0</ele><time>2026-04-12T16:07:00Z</time></trkpt><trkpt lat="38.54062670568618" lon="16.03337745055932"><ele>124.0</ele><time>2026-04-12T16:07:01Z</time></trkpt><trkpt lat="38.54049116281722" lon="16.033164453796548"><ele>123.66666666666667</ele><time>2026-04-12T16:07:02Z</time></trkpt><trkpt lat="38.540356597907135" lon="16.032945286437332"><ele>123.33333333333334</ele><time>2026-04-12T16:07:03Z</time></trkpt><trkpt lat="38.54022201582034" lon="16.032730499366856"><ele>123.0</ele><time>2026-04-12T16:07:04Z</time></trkpt><trkpt lat="38.54009034429351" lon="16.03251944920602"><ele>122.66666666666666</ele><time>2026-04-12T16:07:05Z</time></trkpt><trkpt lat="38.53995641600766" lon="16.032312881687563"><ele>122.33333333333333</ele><time>2026-04-12T16:07:06Z</time></trkpt><trkpt lat="38.53983709315759" lon="16.03209156713967"><ele>122.0</ele><time>2026-04-12T16:07:07Z</time></trkpt><trkpt lat="38.539706657196" lon="16.031882394685336"><ele>122.0</ele><time>2026-04-12T16:07:08Z</time></trkpt><trkpt lat="38.539569054230796" lon="16.03167753486766"><ele>122.0</ele><time>2026-04-12T16:07:09Z</time></trkpt><trkpt lat="38.5394359045694" lon="16.03148049985998"><ele>122.0</ele><time>2026-04-12T16:07:10Z</time></trkpt><trkpt lat="38.53932191297941" lon="16.031263855024182"><ele>121.66666666666666</ele><time>2026-04-12T16:07:11Z</time></trkpt><trkpt lat="38.53919489531076" lon="16.031059418984434"><ele>121.33333333333334</ele><time>2026-04-12T16:07:12Z</time></trkpt><trkpt lat="38.539071342048935" lon="16.03086216637716"><ele>121.0</ele><time>2026-04-12T16:07:13Z</time></trkpt><trkpt lat="38.53894817818842" lon="16.030666374351533"><ele>120.33333333333334</ele><time>2026-04-12T16:07:14Z</time></trkpt><trkpt lat="38.53882481680549" lon="16.030470268397305"><ele>119.66666666666666</ele><time>2026-04-12T16:07:15Z</time></trkpt><trkpt lat="38.538702496949085" lon="16.030275816078888"><ele>119.0</ele><time>2026-04-12T16:07:16Z</time></trkpt><trkpt lat="38.53858247936198" lon="16.030085019805824"><ele>118.66666666666666</ele><time>2026-04-12T16:07:17Z</time></trkpt><trkpt lat="38.53846594044197" lon="16.02989975369664"><ele>118.33333333333334</ele><time>2026-04-12T16:07:18Z</time></trkpt><trkpt lat="38.538346183035046" lon="16.029711142986383"><ele>118.0</ele><time>2026-04-12T16:07:19Z</time></trkpt><trkpt lat="38.538217821927084" lon="16.02953846476043"><ele>118.0</ele><time>2026-04-12T16:07:20Z</time></trkpt><trkpt lat="38.53810519414538" lon="16.029356602111424"><ele>118.0</ele><time>2026-04-12T16:07:21Z</time></trkpt><trkpt lat="38.53799368430315" lon="16.02917983576794"><ele>118.0</ele><time>2026-04-12T16:07:22Z</time></trkpt><trkpt lat="38.537877976860834" lon="16.029008732926684"><ele>115.66666666666667</ele><time>2026-04-12T16:07:23Z</time></trkpt><trkpt lat="38.53775024973318" lon="16.02884203037007"><ele>113.33333333333334</ele><time>2026-04-12T16:07:24Z</time></trkpt><trkpt lat="38.537609853232176" lon="16.02868533444883"><ele>111.0</ele><time>2026-04-12T16:07:25Z</time></trkpt><trkpt lat="38.53746013978088" lon="16.028546813504306"><ele>111.0</ele><time>2026-04-12T16:07:26Z</time></trkpt><trkpt lat="38.53730603022578" lon="16.02842269242244"><ele>111.0</ele><time>2026-04-12T16:07:27Z</time></trkpt><trkpt lat="38.53715317547555" lon="16.028310165064006"><ele>111.0</ele><time>2026-04-12T16:07:28Z</time></trkpt><trkpt lat="38.537026259047146" lon="16.028186722658184"><ele>109.0</ele><time>2026-04-12T16:07:29Z</time></trkpt><trkpt lat="38.536917619706955" lon="16.028044012043313"><ele>107.0</ele><time>2026-04-12T16:07:30Z</time></trkpt><trkpt lat="38.536824168621266" lon="16.02788130382165"><ele>105.0</ele><time>2026-04-12T16:07:31Z</time></trkpt><trkpt lat="38.536745815421526" lon="16.027731837803874"><ele>105.0</ele><time>2026-04-12T16:07:32Z</time></trkpt><trkpt lat="38.53665185750751" lon="16.027597859671527"><ele>105.0</ele><time>2026-04-12T16:07:33Z</time></trkpt><trkpt lat="38.53652545987097" lon="16.027483776689905"><ele>105.0</ele><time>2026-04-12T16:07:34Z</time></trkpt><trkpt lat="38.536378396492324" lon="16.02737383517546"><ele>102.33333333333334</ele><time>2026-04-12T16:07:35Z</time></trkpt><trkpt lat="38.53621172360093" lon="16.02728502878119"><ele>99.66666666666667</ele><time>2026-04-12T16:07:36Z</time></trkpt><trkpt lat="38.53603954943951" lon="16.027190658006575"><ele>97.0</ele><time>2026-04-12T16:07:37Z</time></trkpt><trkpt lat="38.53587799117007" lon="16.02708625929883"><ele>97.0</ele><time>2026-04-12T16:07:38Z</time></trkpt><trkpt lat="38.53572149691052" lon="16.02697905564658"><ele>97.0</ele><time>2026-04-12T16:07:39Z</time></trkpt><trkpt lat="38.53557813098147" lon="16.026847373838372"><ele>97.0</ele><time>2026-04-12T16:07:40Z</time></trkpt><trkpt lat="38.53544539583358" lon="16.026673137529798"><ele>95.0</ele><time>2026-04-12T16:07:41Z</time></trkpt><trkpt lat="38.53531238193748" lon="16.026505431688683"><ele>93.0</ele><time>2026-04-12T16:07:42Z</time></trkpt><trkpt lat="38.53517998533891" lon="16.026320914155768"><ele>91.0</ele><time>2026-04-12T16:07:43Z</time></trkpt><trkpt lat="38.53504624813292" lon="16.026132053177488"><ele>91.0</ele><time>2026-04-12T16:07:44Z</time></trkpt><trkpt lat="38.53491427349924" lon="16.02593998748752"><ele>91.0</ele><time>2026-04-12T16:07:45Z</time></trkpt><trkpt lat="38.534781399213635" lon="16.025746287089838"><ele>91.0</ele><time>2026-04-12T16:07:46Z</time></trkpt><trkpt lat="38.5346523657712" lon="16.02555182705263"><ele>87.66666666666666</ele><time>2026-04-12T16:07:47Z</time></trkpt><trkpt lat="38.53452793251371" lon="16.025360425413112"><ele>84.33333333333333</ele><time>2026-04-12T16:07:48Z</time></trkpt><trkpt lat="38.53440511066772" lon="16.025158082847526"><ele>81.0</ele><time>2026-04-12T16:07:49Z</time></trkpt><trkpt lat="38.534288680756234" lon="16.024948377770805"><ele>80.66666666666667</ele><time>2026-04-12T16:07:50Z</time></trkpt><trkpt lat="38.53417044730957" lon="16.024741515258526"><ele>80.33333333333334</ele><time>2026-04-12T16:07:51Z</time></trkpt><trkpt lat="38.53405403718353" lon="16.024535416995718"><ele>80.0</ele><time>2026-04-12T16:07:52Z</time></trkpt><trkpt lat="38.53394475489049" lon="16.024328459438426"><ele>80.0</ele><time>2026-04-12T16:07:53Z</time></trkpt><trkpt lat="38.533845116628186" lon="16.024119844321543"><ele>80.0</ele><time>2026-04-12T16:07:54Z</time></trkpt><trkpt lat="38.53376257133648" lon="16.02390379430085"><ele>80.0</ele><time>2026-04-12T16:07:55Z</time></trkpt><trkpt lat="38.53368376139058" lon="16.023685408163978"><ele>80.33333333333334</ele><time>2026-04-12T16:07:56Z</time></trkpt><trkpt lat="38.53360840519877" lon="16.023483691774356"><ele>80.66666666666667</ele><time>2026-04-12T16:07:57Z</time></trkpt><trkpt lat="38.53353457424056" lon="16.0232850487156"><ele>81.0</ele><time>2026-04-12T16:07:58Z</time></trkpt><trkpt lat="38.533467598852894" lon="16.02308222923185"><ele>81.0</ele><time>2026-04-12T16:07:59Z</time></trkpt><trkpt lat="38.53341526632787" lon="16.022870940405603"><ele>81.0</ele><time>2026-04-12T16:08:00Z</time></trkpt><trkpt lat="38.533376530216316" lon="16.022655951889014"><ele>81.0</ele><time>2026-04-12T16:08:01Z</time></trkpt><trkpt lat="38.53333475200061" lon="16.022430870565987"><ele>81.66666666666667</ele><time>2026-04-12T16:08:02Z</time></trkpt><trkpt lat="38.5332868690088" lon="16.022206060669333"><ele>82.33333333333334</ele><time>2026-04-12T16:08:03Z</time></trkpt><trkpt lat="38.53324042859702" lon="16.02197591078873"><ele>83.0</ele><time>2026-04-12T16:08:04Z</time></trkpt><trkpt lat="38.533189825579136" lon="16.021747891608022"><ele>81.66666666666667</ele><time>2026-04-12T16:08:05Z</time></trkpt><trkpt lat="38.53314583839379" lon="16.021514613907385"><ele>80.33333333333333</ele><time>2026-04-12T16:08:06Z</time></trkpt><trkpt lat="38.533107943341406" lon="16.021284416567635"><ele>79.0</ele><time>2026-04-12T16:08:07Z</time></trkpt><trkpt lat="38.53305740065168" lon="16.021036345945756"><ele>81.0</ele><time>2026-04-12T16:08:08Z</time></trkpt><trkpt lat="38.53300906028279" lon="16.02081413931881"><ele>83.0</ele><time>2026-04-12T16:08:09Z</time></trkpt><trkpt lat="38.53295514508695" lon="16.020589036924125"><ele>85.0</ele><time>2026-04-12T16:08:10Z</time></trkpt><trkpt lat="38.53287924720161" lon="16.02037571661379"><ele>85.0</ele><time>2026-04-12T16:08:11Z</time></trkpt><trkpt lat="38.532777936926124" lon="16.02018218357755"><ele>85.0</ele><time>2026-04-12T16:08:12Z</time></trkpt><trkpt lat="38.532658879885346" lon="16.020011526360385"><ele>85.0</ele><time>2026-04-12T16:08:13Z</time></trkpt><trkpt lat="38.532527845078754" lon="16.019846775900145"><ele>84.33333333333333</ele><time>2026-04-12T16:08:14Z</time></trkpt><trkpt lat="38.53238007241879" lon="16.019709232788657"><ele>83.66666666666667</ele><time>2026-04-12T16:08:15Z</time></trkpt><trkpt lat="38.532224942727126" lon="16.019588053533663"><ele>83.0</ele><time>2026-04-12T16:08:16Z</time></trkpt><trkpt lat="38.53206115851886" lon="16.01947765415537"><ele>83.33333333333334</ele><time>2026-04-12T16:08:17Z</time></trkpt><trkpt lat="38.53189683279816" lon="16.0193706969232"><ele>83.66666666666667</ele><time>2026-04-12T16:08:18Z</time></trkpt><trkpt lat="38.5317349039915" lon="16.019257959306334"><ele>84.0</ele><time>2026-04-12T16:08:19Z</time></trkpt><trkpt lat="38.53157298096705" lon="16.019140245428076"><ele>83.33333333333333</ele><time>2026-04-12T16:08:20Z</time></trkpt><trkpt lat="38.53141658142524" lon="16.01901330266054"><ele>82.66666666666666</ele><time>2026-04-12T16:08:21Z</time></trkpt><trkpt lat="38.53125825269655" lon="16.018893279404406"><ele>82.0</ele><time>2026-04-12T16:08:22Z</time></trkpt><trkpt lat="38.53108850777159" lon="16.01877844273041"><ele>82.0</ele><time>2026-04-12T16:08:23Z</time></trkpt><trkpt lat="38.53093532006674" lon="16.018632969560805"><ele>82.0</ele><time>2026-04-12T16:08:24Z</time></trkpt><trkpt lat="38.53077597627335" lon="16.018518001062517"><ele>82.0</ele><time>2026-04-12T16:08:25Z</time></trkpt><trkpt lat="38.53060407058119" lon="16.018416650983244"><ele>82.33333333333333</ele><time>2026-04-12T16:08:26Z</time></trkpt><trkpt lat="38.53045078701872" lon="16.01828407523994"><ele>82.66666666666667</ele><time>2026-04-12T16:08:27Z</time></trkpt><trkpt lat="38.530287416817124" lon="16.01816691547106"><ele>83.0</ele><time>2026-04-12T16:08:28Z</time></trkpt><trkpt lat="38.53012760282973" lon="16.018052306005934"><ele>83.33333333333334</ele><time>2026-04-12T16:08:29Z</time></trkpt><trkpt lat="38.529961656142206" lon="16.017956911545028"><ele>83.66666666666667</ele><time>2026-04-12T16:08:30Z</time></trkpt><trkpt lat="38.52980359577356" lon="16.017843159226494"><ele>84.0</ele><time>2026-04-12T16:08:31Z</time></trkpt><trkpt lat="38.529657441539456" lon="16.01773706854427"><ele>84.0</ele><time>2026-04-12T16:08:32Z</time></trkpt><trkpt lat="38.52951915265171" lon="16.017637710996873"><ele>84.0</ele><time>2026-04-12T16:08:33Z</time></trkpt><trkpt lat="38.529385308926564" lon="16.017541459281254"><ele>84.0</ele><time>2026-04-12T16:08:34Z</time></trkpt><trkpt lat="38.52924961898229" lon="16.017444851940024"><ele>84.25</ele><time>2026-04-12T16:08:35Z</time></trkpt><trkpt lat="38.52912243173923" lon="16.0173543766641"><ele>84.5</ele><time>2026-04-12T16:08:36Z</time></trkpt><trkpt lat="38.52899726562489" lon="16.017273615997624"><ele>84.75</ele><time>2026-04-12T16:08:37Z</time></trkpt><trkpt lat="38.52886608712935" lon="16.01720500787678"><ele>85.0</ele><time>2026-04-12T16:08:38Z</time></trkpt><trkpt lat="38.52872983592615" lon="16.017139607299534"><ele>84.33333333333333</ele><time>2026-04-12T16:08:39Z</time></trkpt><trkpt lat="38.52859047882144" lon="16.017069967735164"><ele>83.66666666666667</ele><time>2026-04-12T16:08:40Z</time></trkpt><trkpt lat="38.52844354309859" lon="16.016998279914436"><ele>83.0</ele><time>2026-04-12T16:08:41Z</time></trkpt><trkpt lat="38.52828870410819" lon="16.01692137424704"><ele>83.0</ele><time>2026-04-12T16:08:42Z</time></trkpt><trkpt lat="38.5281328098681" lon="16.016841429766316"><ele>83.0</ele><time>2026-04-12T16:08:43Z</time></trkpt><trkpt lat="38.52798505225557" lon="16.016766922511977"><ele>83.0</ele><time>2026-04-12T16:08:44Z</time></trkpt><trkpt lat="38.527844395848604" lon="16.01669695370125"><ele>82.75</ele><time>2026-04-12T16:08:45Z</time></trkpt><trkpt lat="38.5277026267736" lon="16.016640338802414"><ele>82.5</ele><time>2026-04-12T16:08:46Z</time></trkpt><trkpt lat="38.52756414477053" lon="16.016596362702707"><ele>82.25</ele><time>2026-04-12T16:08:47Z</time></trkpt><trkpt lat="38.527433300950115" lon="16.016567818258842"><ele>82.0</ele><time>2026-04-12T16:08:48Z</time></trkpt><trkpt lat="38.52730248456335" lon="16.0165590987666"><ele>82.0</ele><time>2026-04-12T16:08:49Z</time></trkpt><trkpt lat="38.527170842594465" lon="16.016569316653438"><ele>82.0</ele><time>2026-04-12T16:08:50Z</time></trkpt><trkpt lat="38.52704835943249" lon="16.016591045615595"><ele>82.0</ele><time>2026-04-12T16:08:51Z</time></trkpt><trkpt lat="38.52692855383212" lon="16.01658550290294"><ele>82.0</ele><time>2026-04-12T16:08:52Z</time></trkpt><trkpt lat="38.52681446969257" lon="16.016507743597113"><ele>81.5</ele><time>2026-04-12T16:08:53Z</time></trkpt><trkpt lat="38.52671388684206" lon="16.016420498675906"><ele>81.0</ele><time>2026-04-12T16:08:54Z</time></trkpt><trkpt lat="38.52660440492059" lon="16.01632199198597"><ele>80.5</ele><time>2026-04-12T16:08:55Z</time></trkpt><trkpt lat="38.526484686253" lon="16.016238501234803"><ele>80.0</ele><time>2026-04-12T16:08:56Z</time></trkpt><trkpt lat="38.526358818096725" lon="16.016150109507265"><ele>76.0</ele><time>2026-04-12T16:08:57Z</time></trkpt><trkpt lat="38.5262182987973" lon="16.01608190727317"><ele>72.0</ele><time>2026-04-12T16:08:58Z</time></trkpt><trkpt lat="38.52607692624039" lon="16.016005267233492"><ele>68.0</ele><time>2026-04-12T16:08:59Z</time></trkpt><trkpt lat="38.52593452482734" lon="16.015942858999615"><ele>68.0</ele><time>2026-04-12T16:09:00Z</time></trkpt><trkpt lat="38.52579208491739" lon="16.01589962719127"><ele>68.0</ele><time>2026-04-12T16:09:01Z</time></trkpt><trkpt lat="38.525656659743504" lon="16.01585661753321"><ele>68.0</ele><time>2026-04-12T16:09:02Z</time></trkpt><trkpt lat="38.52552388536931" lon="16.01582903264796"><ele>68.0</ele><time>2026-04-12T16:09:03Z</time></trkpt><trkpt lat="38.525399583845804" lon="16.015780854912933"><ele>67.75</ele><time>2026-04-12T16:09:04Z</time></trkpt><trkpt lat="38.52528997281955" lon="16.015704801831145"><ele>67.5</ele><time>2026-04-12T16:09:05Z</time></trkpt><trkpt lat="38.52518596955536" lon="16.015621289232822"><ele>67.25</ele><time>2026-04-12T16:09:06Z</time></trkpt><trkpt lat="38.52512040559675" lon="16.015503189547445"><ele>67.0</ele><time>2026-04-12T16:09:07Z</time></trkpt><trkpt lat="38.52505700862527" lon="16.01537519776297"><ele>67.0</ele><time>2026-04-12T16:09:08Z</time></trkpt><trkpt lat="38.52498098448257" lon="16.015234087441105"><ele>67.0</ele><time>2026-04-12T16:09:09Z</time></trkpt><trkpt lat="38.524886855284514" lon="16.015113477649237"><ele>67.0</ele><time>2026-04-12T16:09:10Z</time></trkpt><trkpt lat="38.52476698258445" lon="16.015007733047277"><ele>67.0</ele><time>2026-04-12T16:09:11Z</time></trkpt><trkpt lat="38.52464978803838" lon="16.014883923167645"><ele>66.66666666666666</ele><time>2026-04-12T16:09:12Z</time></trkpt><trkpt lat="38.52452096640905" lon="16.014765958408137"><ele>66.33333333333333</ele><time>2026-04-12T16:09:13Z</time></trkpt><trkpt lat="38.52439131224229" lon="16.014654215193342"><ele>66.0</ele><time>2026-04-12T16:09:14Z</time></trkpt><trkpt lat="38.52425712470038" lon="16.014558291376563"><ele>66.0</ele><time>2026-04-12T16:09:15Z</time></trkpt><trkpt lat="38.524116482966924" lon="16.01447992994463"><ele>66.0</ele><time>2026-04-12T16:09:16Z</time></trkpt><trkpt lat="38.52397141358355" lon="16.014406311014216"><ele>66.0</ele><time>2026-04-12T16:09:17Z</time></trkpt><trkpt lat="38.52381650010796" lon="16.014357238694306"><ele>63.33333333333333</ele><time>2026-04-12T16:09:18Z</time></trkpt><trkpt lat="38.52366063974344" lon="16.014299645961913"><ele>60.666666666666664</ele><time>2026-04-12T16:09:19Z</time></trkpt><trkpt lat="38.52350112485811" lon="16.014260399734244"><ele>58.0</ele><time>2026-04-12T16:09:20Z</time></trkpt><trkpt lat="38.523326465847724" lon="16.014257646830988"><ele>58.0</ele><time>2026-04-12T16:09:21Z</time></trkpt><trkpt lat="38.52314923591677" lon="16.0142794530121"><ele>58.0</ele><time>2026-04-12T16:09:22Z</time></trkpt><trkpt lat="38.52297146776603" lon="16.01431253653123"><ele>58.0</ele><time>2026-04-12T16:09:23Z</time></trkpt><trkpt lat="38.52280711041276" lon="16.014365999614594"><ele>56.33333333333333</ele><time>2026-04-12T16:09:24Z</time></trkpt><trkpt lat="38.522645888878245" lon="16.01440753118511"><ele>54.66666666666667</ele><time>2026-04-12T16:09:25Z</time></trkpt><trkpt lat="38.522484186565784" lon="16.014459100119023"><ele>53.0</ele><time>2026-04-12T16:09:26Z</time></trkpt><trkpt lat="38.522330065454355" lon="16.01445978372514"><ele>53.0</ele><time>2026-04-12T16:09:27Z</time></trkpt><trkpt lat="38.522181851535265" lon="16.01449440490298"><ele>53.0</ele><time>2026-04-12T16:09:28Z</time></trkpt><trkpt lat="38.52205247895036" lon="16.014429580232555"><ele>53.0</ele><time>2026-04-12T16:09:29Z</time></trkpt><trkpt lat="38.52196812172695" lon="16.014360619353013"><ele>53.0</ele><time>2026-04-12T16:09:30Z</time></trkpt><trkpt lat="38.52188307523731" lon="16.014273190791204"><ele>52.0</ele><time>2026-04-12T16:09:31Z</time></trkpt><trkpt lat="38.521805932255475" lon="16.01416281296612"><ele>51.0</ele><time>2026-04-12T16:09:32Z</time></trkpt><trkpt lat="38.52172284047303" lon="16.01403521651043"><ele>50.0</ele><time>2026-04-12T16:09:33Z</time></trkpt><trkpt lat="38.52163177497703" lon="16.013886138578048"><ele>49.0</ele><time>2026-04-12T16:09:34Z</time></trkpt><trkpt lat="38.52152821849874" lon="16.013747453411252"><ele>49.0</ele><time>2026-04-12T16:09:35Z</time></trkpt><trkpt lat="38.52142239874176" lon="16.013570462390497"><ele>49.0</ele><time>2026-04-12T16:09:36Z</time></trkpt><trkpt lat="38.52132023035617" lon="16.01338011382882"><ele>49.0</ele><time>2026-04-12T16:09:37Z</time></trkpt><trkpt lat="38.52122821888835" lon="16.013239413607785"><ele>46.33333333333333</ele><time>2026-04-12T16:09:38Z</time></trkpt><trkpt lat="38.52113724686733" lon="16.01308436081476"><ele>43.666666666666664</ele><time>2026-04-12T16:09:39Z</time></trkpt><trkpt lat="38.52103348709755" lon="16.012908700197954"><ele>41.0</ele><time>2026-04-12T16:09:40Z</time></trkpt><trkpt lat="38.52091012741555" lon="16.012726504937714"><ele>41.0</ele><time>2026-04-12T16:09:41Z</time></trkpt><trkpt lat="38.52079299256205" lon="16.012533343037813"><ele>41.0</ele><time>2026-04-12T16:09:42Z</time></trkpt><trkpt lat="38.52069305053661" lon="16.01236435561994"><ele>41.0</ele><time>2026-04-12T16:09:43Z</time></trkpt><trkpt lat="38.52059625715433" lon="16.012203580778078"><ele>40.666666666666664</ele><time>2026-04-12T16:09:44Z</time></trkpt><trkpt lat="38.52048165970708" lon="16.01201758245017"><ele>40.333333333333336</ele><time>2026-04-12T16:09:45Z</time></trkpt><trkpt lat="38.52032077408671" lon="16.01175709035757"><ele>40.0</ele><time>2026-04-12T16:09:46Z</time></trkpt><trkpt lat="38.52015863268389" lon="16.011506761470567"><ele>39.0</ele><time>2026-04-12T16:09:47Z</time></trkpt><trkpt lat="38.52001551152914" lon="16.01125703467148"><ele>38.0</ele><time>2026-04-12T16:09:48Z</time></trkpt><trkpt lat="38.5198832518485" lon="16.01106700169123"><ele>37.0</ele><time>2026-04-12T16:09:49Z</time></trkpt><trkpt lat="38.51977699679627" lon="16.010890457448664"><ele>36.0</ele><time>2026-04-12T16:09:50Z</time></trkpt><trkpt lat="38.5196693280665" lon="16.01070952421316"><ele>35.0</ele><time>2026-04-12T16:09:51Z</time></trkpt><trkpt lat="38.51955379116138" lon="16.010524021947827"><ele>34.0</ele><time>2026-04-12T16:09:52Z</time></trkpt><trkpt lat="38.51943159349266" lon="16.010334173187466"><ele>34.0</ele><time>2026-04-12T16:09:53Z</time></trkpt><trkpt lat="38.51931044860101" lon="16.01013739812566"><ele>34.0</ele><time>2026-04-12T16:09:54Z</time></trkpt><trkpt lat="38.519187140433964" lon="16.009937222331136"><ele>34.0</ele><time>2026-04-12T16:09:55Z</time></trkpt><trkpt lat="38.51906247694558" lon="16.009733410126408"><ele>34.333333333333336</ele><time>2026-04-12T16:09:56Z</time></trkpt><trkpt lat="38.51892708445431" lon="16.00951848964414"><ele>34.666666666666664</ele><time>2026-04-12T16:09:57Z</time></trkpt><trkpt lat="38.51880496129737" lon="16.009326902849818"><ele>35.0</ele><time>2026-04-12T16:09:58.001Z</time></trkpt><trkpt lat="38.51868989759436" lon="16.009138130126274"><ele>34.0</ele><time>2026-04-12T16:09:59.001Z</time></trkpt><trkpt lat="38.518582978239486" lon="16.00895418465087"><ele>33.0</ele><time>2026-04-12T16:10:00.001Z</time></trkpt><trkpt lat="38.51847337718751" lon="16.008772184612557"><ele>32.0</ele><time>2026-04-12T16:10:01.001Z</time></trkpt><trkpt lat="38.518363761530544" lon="16.008588761058704"><ele>32.0</ele><time>2026-04-12T16:10:02.001Z</time></trkpt><trkpt lat="38.518244626109706" lon="16.008399908970944"><ele>32.0</ele><time>2026-04-12T16:10:03.001Z</time></trkpt><trkpt lat="38.51812770407554" lon="16.008218772486458"><ele>32.0</ele><time>2026-04-12T16:10:04.001Z</time></trkpt><trkpt lat="38.51801543446267" lon="16.008039396991244"><ele>31.666666666666664</ele><time>2026-04-12T16:10:05.001Z</time></trkpt><trkpt lat="38.51790871204468" lon="16.00786065127775"><ele>31.333333333333336</ele><time>2026-04-12T16:10:06Z</time></trkpt><trkpt lat="38.51780205301899" lon="16.007687771302365"><ele>31.0</ele><time>2026-04-12T16:10:07Z</time></trkpt><trkpt lat="38.517698629594086" lon="16.00750443927961"><ele>30.666666666666668</ele><time>2026-04-12T16:10:08Z</time></trkpt><trkpt lat="38.517585370965755" lon="16.007331931773255"><ele>30.333333333333336</ele><time>2026-04-12T16:10:09Z</time></trkpt><trkpt lat="38.51747608462709" lon="16.007154100945765"><ele>30.0</ele><time>2026-04-12T16:10:10Z</time></trkpt><trkpt lat="38.51736096032209" lon="16.00697039820405"><ele>30.0</ele><time>2026-04-12T16:10:11Z</time></trkpt><trkpt lat="38.517257994949595" lon="16.006768601104984"><ele>30.0</ele><time>2026-04-12T16:10:12Z</time></trkpt><trkpt lat="38.517124805480925" lon="16.006582255034623"><ele>30.0</ele><time>2026-04-12T16:10:13Z</time></trkpt><trkpt lat="38.517018761938616" lon="16.006378324750443"><ele>30.333333333333336</ele><time>2026-04-12T16:10:14Z</time></trkpt><trkpt lat="38.516895472415946" lon="16.00617719452523"><ele>30.666666666666668</ele><time>2026-04-12T16:10:15Z</time></trkpt><trkpt lat="38.516781581931546" lon="16.00599139823867"><ele>31.0</ele><time>2026-04-12T16:10:16Z</time></trkpt><trkpt lat="38.51665099940587" lon="16.00580897553247"><ele>31.666666666666668</ele><time>2026-04-12T16:10:17Z</time></trkpt><trkpt lat="38.516543070838445" lon="16.005625992566912"><ele>32.333333333333336</ele><time>2026-04-12T16:10:18Z</time></trkpt><trkpt lat="38.51643996914664" lon="16.00545570475084"><ele>33.0</ele><time>2026-04-12T16:10:19Z</time></trkpt><trkpt lat="38.516341187667216" lon="16.00529463296915"><ele>33.0</ele><time>2026-04-12T16:10:20Z</time></trkpt><trkpt lat="38.51623727724146" lon="16.00513107538122"><ele>33.0</ele><time>2026-04-12T16:10:21Z</time></trkpt><trkpt lat="38.51612848154795" lon="16.00496175266737"><ele>33.0</ele><time>2026-04-12T16:10:22Z</time></trkpt><trkpt lat="38.516020584380676" lon="16.0047900950353"><ele>35.666666666666664</ele><time>2026-04-12T16:10:23Z</time></trkpt><trkpt lat="38.515906691499914" lon="16.00462754248008"><ele>38.33333333333333</ele><time>2026-04-12T16:10:24Z</time></trkpt><trkpt lat="38.51577987502826" lon="16.004473921578175"><ele>41.0</ele><time>2026-04-12T16:10:25Z</time></trkpt><trkpt lat="38.51564688375519" lon="16.004326618200654"><ele>41.0</ele><time>2026-04-12T16:10:26Z</time></trkpt><trkpt lat="38.51550623590184" lon="16.004186365215094"><ele>41.0</ele><time>2026-04-12T16:10:27Z</time></trkpt><trkpt lat="38.51536108354746" lon="16.00405000330548"><ele>41.0</ele><time>2026-04-12T16:10:28Z</time></trkpt><trkpt lat="38.51520755551509" lon="16.003911613194607"><ele>39.666666666666664</ele><time>2026-04-12T16:10:29Z</time></trkpt><trkpt lat="38.51505514459275" lon="16.003777559114383"><ele>38.333333333333336</ele><time>2026-04-12T16:10:30Z</time></trkpt><trkpt lat="38.514907897292396" lon="16.003639847978693"><ele>37.0</ele><time>2026-04-12T16:10:31Z</time></trkpt><trkpt lat="38.51475393921091" lon="16.00350626216996"><ele>37.0</ele><time>2026-04-12T16:10:32Z</time></trkpt><trkpt lat="38.51460368214378" lon="16.00336768273666"><ele>37.0</ele><time>2026-04-12T16:10:33Z</time></trkpt><trkpt lat="38.51445125632367" lon="16.003231862804892"><ele>37.0</ele><time>2026-04-12T16:10:34Z</time></trkpt><trkpt lat="38.51429966253408" lon="16.00308674050255"><ele>38.0</ele><time>2026-04-12T16:10:35Z</time></trkpt><trkpt lat="38.51413455315772" lon="16.00294140968819"><ele>39.0</ele><time>2026-04-12T16:10:36Z</time></trkpt><trkpt lat="38.51398433246092" lon="16.002805872412278"><ele>40.0</ele><time>2026-04-12T16:10:37Z</time></trkpt><trkpt lat="38.513841077077245" lon="16.00267532210188"><ele>38.66666666666667</ele><time>2026-04-12T16:10:38Z</time></trkpt><trkpt lat="38.51369244472367" lon="16.002538786330547"><ele>37.333333333333336</ele><time>2026-04-12T16:10:39Z</time></trkpt><trkpt lat="38.51354664129126" lon="16.002406488088287"><ele>36.0</ele><time>2026-04-12T16:10:40Z</time></trkpt><trkpt lat="38.51340419298406" lon="16.002283813158463"><ele>36.0</ele><time>2026-04-12T16:10:41Z</time></trkpt><trkpt lat="38.51325229726107" lon="16.00214661161656"><ele>36.0</ele><time>2026-04-12T16:10:42Z</time></trkpt><trkpt lat="38.513103942695324" lon="16.002013100072823"><ele>36.0</ele><time>2026-04-12T16:10:43Z</time></trkpt><trkpt lat="38.51296372870259" lon="16.00188348011098"><ele>35.0</ele><time>2026-04-12T16:10:44Z</time></trkpt><trkpt lat="38.512817286242274" lon="16.001753951267187"><ele>34.0</ele><time>2026-04-12T16:10:45Z</time></trkpt><trkpt lat="38.51267411061914" lon="16.001618182091764"><ele>33.0</ele><time>2026-04-12T16:10:46Z</time></trkpt><trkpt lat="38.51253101392089" lon="16.001485323894013"><ele>36.0</ele><time>2026-04-12T16:10:47Z</time></trkpt><trkpt lat="38.51238472044803" lon="16.001349959413506"><ele>39.0</ele><time>2026-04-12T16:10:48Z</time></trkpt><trkpt lat="38.51224166244834" lon="16.00121394838863"><ele>42.0</ele><time>2026-04-12T16:10:49Z</time></trkpt><trkpt lat="38.51210123513848" lon="16.001076006201718"><ele>44.0</ele><time>2026-04-12T16:10:50Z</time></trkpt><trkpt lat="38.51195417134323" lon="16.000930056863787"><ele>46.0</ele><time>2026-04-12T16:10:51Z</time></trkpt><trkpt lat="38.51181266605884" lon="16.000783705370484"><ele>48.0</ele><time>2026-04-12T16:10:52Z</time></trkpt><trkpt lat="38.511666724839586" lon="16.00063450083488"><ele>48.0</ele><time>2026-04-12T16:10:53Z</time></trkpt><trkpt lat="38.51151910477667" lon="16.00048347563094"><ele>48.0</ele><time>2026-04-12T16:10:54Z</time></trkpt><trkpt lat="38.5113724967954" lon="16.00033202967977"><ele>48.0</ele><time>2026-04-12T16:10:55Z</time></trkpt><trkpt lat="38.5112242716053" lon="16.000183056835652"><ele>42.333333333333336</ele><time>2026-04-12T16:10:56Z</time></trkpt><trkpt lat="38.51107713349306" lon="16.000036228160738"><ele>36.66666666666667</ele><time>2026-04-12T16:10:57Z</time></trkpt><trkpt lat="38.51093128647138" lon="15.999885424205177"><ele>31.0</ele><time>2026-04-12T16:10:58Z</time></trkpt><trkpt lat="38.510785671149385" lon="15.999736960491328"><ele>31.0</ele><time>2026-04-12T16:10:59Z</time></trkpt><trkpt lat="38.51063474274406" lon="15.999593139525244"><ele>31.0</ele><time>2026-04-12T16:11:00Z</time></trkpt><trkpt lat="38.51049234517503" lon="15.999448285582277"><ele>31.0</ele><time>2026-04-12T16:11:01Z</time></trkpt><trkpt lat="38.51034799989757" lon="15.999297277170468"><ele>29.666666666666668</ele><time>2026-04-12T16:11:02Z</time></trkpt><trkpt lat="38.51019608811877" lon="15.999145552349407"><ele>28.333333333333336</ele><time>2026-04-12T16:11:03Z</time></trkpt><trkpt lat="38.51005597861284" lon="15.998989174741132"><ele>27.0</ele><time>2026-04-12T16:11:04Z</time></trkpt><trkpt lat="38.5099061793343" lon="15.998832327770636"><ele>27.0</ele><time>2026-04-12T16:11:05Z</time></trkpt><trkpt lat="38.509759177229526" lon="15.998675618093307"><ele>27.0</ele><time>2026-04-12T16:11:06Z</time></trkpt><trkpt lat="38.50961043758198" lon="15.998515935057497"><ele>27.0</ele><time>2026-04-12T16:11:07Z</time></trkpt><trkpt lat="38.50945703576527" lon="15.99836124219509"><ele>27.0</ele><time>2026-04-12T16:11:08Z</time></trkpt><trkpt lat="38.50931210889675" lon="15.998208919856554"><ele>27.0</ele><time>2026-04-12T16:11:09Z</time></trkpt><trkpt lat="38.509166995284225" lon="15.998056574969938"><ele>27.0</ele><time>2026-04-12T16:11:10Z</time></trkpt><trkpt lat="38.50902699230369" lon="15.997898345200907"><ele>27.0</ele><time>2026-04-12T16:11:11Z</time></trkpt><trkpt lat="38.508890206591126" lon="15.997739587205109"><ele>27.0</ele><time>2026-04-12T16:11:12Z</time></trkpt><trkpt lat="38.5087416903876" lon="15.997581387279082"><ele>27.0</ele><time>2026-04-12T16:11:13Z</time></trkpt><trkpt lat="38.508600206649525" lon="15.997419309784478"><ele>27.0</ele><time>2026-04-12T16:11:14Z</time></trkpt><trkpt lat="38.50846258680381" lon="15.997254649807147"><ele>27.0</ele><time>2026-04-12T16:11:15Z</time></trkpt><trkpt lat="38.50832163639742" lon="15.997094412474603"><ele>27.0</ele><time>2026-04-12T16:11:16Z</time></trkpt><trkpt lat="38.50817549768441" lon="15.996926238670653"><ele>27.0</ele><time>2026-04-12T16:11:17Z</time></trkpt><trkpt lat="38.50803529207122" lon="15.996764814018837"><ele>27.0</ele><time>2026-04-12T16:11:18Z</time></trkpt><trkpt lat="38.507895128945364" lon="15.99659985733817"><ele>27.0</ele><time>2026-04-12T16:11:19Z</time></trkpt><trkpt lat="38.50775056745594" lon="15.996428256525336"><ele>26.666666666666664</ele><time>2026-04-12T16:11:20Z</time></trkpt><trkpt lat="38.507608048978845" lon="15.996264450233117"><ele>26.333333333333332</ele><time>2026-04-12T16:11:21Z</time></trkpt><trkpt lat="38.50746406170061" lon="15.99609596407523"><ele>26.0</ele><time>2026-04-12T16:11:22Z</time></trkpt><trkpt lat="38.50731921684148" lon="15.995929710716625"><ele>26.333333333333332</ele><time>2026-04-12T16:11:23Z</time></trkpt><trkpt lat="38.507171830078455" lon="15.995750139500418"><ele>26.666666666666664</ele><time>2026-04-12T16:11:24Z</time></trkpt><trkpt lat="38.50702525278855" lon="15.995587005790867"><ele>27.0</ele><time>2026-04-12T16:11:25Z</time></trkpt><trkpt lat="38.50688129127326" lon="15.995420591881272"><ele>27.0</ele><time>2026-04-12T16:11:26Z</time></trkpt><trkpt lat="38.50673626883038" lon="15.995254962235494"><ele>27.0</ele><time>2026-04-12T16:11:27Z</time></trkpt><trkpt lat="38.50658356421957" lon="15.995079542940008"><ele>27.0</ele><time>2026-04-12T16:11:28Z</time></trkpt><trkpt lat="38.50644110820489" lon="15.994919633057227"><ele>26.333333333333336</ele><time>2026-04-12T16:11:29Z</time></trkpt><trkpt lat="38.506298322260214" lon="15.994754407405717"><ele>25.666666666666668</ele><time>2026-04-12T16:11:30Z</time></trkpt><trkpt lat="38.50615315960192" lon="15.994597848461732"><ele>25.0</ele><time>2026-04-12T16:11:31Z</time></trkpt><trkpt lat="38.50601206873102" lon="15.994439770104483"><ele>25.0</ele><time>2026-04-12T16:11:32Z</time></trkpt><trkpt lat="38.50586874148127" lon="15.994276528387468"><ele>25.0</ele><time>2026-04-12T16:11:33Z</time></trkpt><trkpt lat="38.50572743087005" lon="15.994117171913679"><ele>25.0</ele><time>2026-04-12T16:11:34Z</time></trkpt><trkpt lat="38.50559076449355" lon="15.993958347986949"><ele>25.0</ele><time>2026-04-12T16:11:35Z</time></trkpt><trkpt lat="38.50545970209029" lon="15.993801637895226"><ele>25.0</ele><time>2026-04-12T16:11:36Z</time></trkpt><trkpt lat="38.5053265729605" lon="15.993647542898094"><ele>25.0</ele><time>2026-04-12T16:11:37Z</time></trkpt><trkpt lat="38.50519441325922" lon="15.993497198209978"><ele>25.333333333333336</ele><time>2026-04-12T16:11:38Z</time></trkpt><trkpt lat="38.505063352942976" lon="15.993345217259915"><ele>25.666666666666664</ele><time>2026-04-12T16:11:39Z</time></trkpt><trkpt lat="38.504931758200065" lon="15.993189939995696"><ele>26.0</ele><time>2026-04-12T16:11:40Z</time></trkpt><trkpt lat="38.50479594488284" lon="15.993035095348072"><ele>25.0</ele><time>2026-04-12T16:11:41Z</time></trkpt><trkpt lat="38.50466544922147" lon="15.992883412577015"><ele>24.0</ele><time>2026-04-12T16:11:42Z</time></trkpt><trkpt lat="38.504529395226996" lon="15.992728900050436"><ele>23.0</ele><time>2026-04-12T16:11:43Z</time></trkpt><trkpt lat="38.50439472533091" lon="15.99257067964497"><ele>23.333333333333336</ele><time>2026-04-12T16:11:44Z</time></trkpt><trkpt lat="38.50426084205382" lon="15.992412551796518"><ele>23.666666666666668</ele><time>2026-04-12T16:11:45Z</time></trkpt><trkpt lat="38.50412995542932" lon="15.99224486870352"><ele>24.0</ele><time>2026-04-12T16:11:46Z</time></trkpt><trkpt lat="38.503994570291546" lon="15.992074069389366"><ele>24.0</ele><time>2026-04-12T16:11:47Z</time></trkpt><trkpt lat="38.503863741133095" lon="15.991891199524526"><ele>24.0</ele><time>2026-04-12T16:11:48Z</time></trkpt><trkpt lat="38.50374228688613" lon="15.991702886826712"><ele>24.0</ele><time>2026-04-12T16:11:49Z</time></trkpt><trkpt lat="38.50362254420508" lon="15.991504470730495"><ele>24.0</ele><time>2026-04-12T16:11:50Z</time></trkpt><trkpt lat="38.50350628244378" lon="15.991301543288689"><ele>24.0</ele><time>2026-04-12T16:11:51Z</time></trkpt><trkpt lat="38.503391437737264" lon="15.991095493919353"><ele>24.0</ele><time>2026-04-12T16:11:52Z</time></trkpt><trkpt lat="38.503280415557676" lon="15.990878717725689"><ele>23.666666666666668</ele><time>2026-04-12T16:11:53Z</time></trkpt><trkpt lat="38.503180118142346" lon="15.990663777248011"><ele>23.333333333333336</ele><time>2026-04-12T16:11:54Z</time></trkpt><trkpt lat="38.50308819519055" lon="15.990460300237391"><ele>23.0</ele><time>2026-04-12T16:11:55Z</time></trkpt><trkpt lat="38.5030036593082" lon="15.99025412932359"><ele>23.0</ele><time>2026-04-12T16:11:56Z</time></trkpt><trkpt lat="38.5029223357751" lon="15.990043907465816"><ele>23.0</ele><time>2026-04-12T16:11:57Z</time></trkpt><trkpt lat="38.502846635241895" lon="15.989827251152352"><ele>23.0</ele><time>2026-04-12T16:11:58Z</time></trkpt><trkpt lat="38.502772423094825" lon="15.989607644727112"><ele>22.666666666666668</ele><time>2026-04-12T16:11:59Z</time></trkpt><trkpt lat="38.502711103484486" lon="15.989382392547377"><ele>22.333333333333332</ele><time>2026-04-12T16:12:00Z</time></trkpt><trkpt lat="38.50264979852973" lon="15.98916231193343"><ele>22.0</ele><time>2026-04-12T16:12:01Z</time></trkpt><trkpt lat="38.50258902454441" lon="15.988950457787903"><ele>22.0</ele><time>2026-04-12T16:12:02Z</time></trkpt><trkpt lat="38.50253280862254" lon="15.98875212327488"><ele>22.0</ele><time>2026-04-12T16:12:03Z</time></trkpt><trkpt lat="38.50248041047024" lon="15.988558629316145"><ele>22.0</ele><time>2026-04-12T16:12:04.001Z</time></trkpt><trkpt lat="38.502428310618654" lon="15.988382623805112"><ele>22.5</ele><time>2026-04-12T16:12:05.001Z</time></trkpt><trkpt lat="38.50238141153963" lon="15.988228633237059"><ele>23.0</ele><time>2026-04-12T16:12:06.001Z</time></trkpt><trkpt lat="38.50233459980703" lon="15.988079021439658"><ele>23.5</ele><time>2026-04-12T16:12:07.001Z</time></trkpt><trkpt lat="38.502305081816324" lon="15.987932411979367"><ele>24.0</ele><time>2026-04-12T16:12:08.001Z</time></trkpt><trkpt lat="38.502265463435776" lon="15.987799976472166"><ele>24.0</ele><time>2026-04-12T16:12:09.001Z</time></trkpt><trkpt lat="38.50221218742779" lon="15.987660442789066"><ele>24.0</ele><time>2026-04-12T16:12:10.001Z</time></trkpt><trkpt lat="38.50216443958802" lon="15.987552571577202"><ele>24.0</ele><time>2026-04-12T16:12:11.001Z</time></trkpt><trkpt lat="38.50210892800177" lon="15.98746213815948"><ele>24.0</ele><time>2026-04-12T16:12:12Z</time></trkpt><trkpt lat="38.50200763186798" lon="15.987448168955583"><ele>24.0</ele><time>2026-04-12T16:12:13Z</time></trkpt><trkpt lat="38.50189670811413" lon="15.987456622489901"><ele>23.75</ele><time>2026-04-12T16:12:14Z</time></trkpt><trkpt lat="38.501789670419974" lon="15.98748939374746"><ele>23.5</ele><time>2026-04-12T16:12:15Z</time></trkpt><trkpt lat="38.50168012666871" lon="15.987551778943132"><ele>23.25</ele><time>2026-04-12T16:12:16Z</time></trkpt><trkpt lat="38.50157122508004" lon="15.987623351617527"><ele>23.0</ele><time>2026-04-12T16:12:17Z</time></trkpt><trkpt lat="38.50145666347682" lon="15.98768960906298"><ele>23.0</ele><time>2026-04-12T16:12:18Z</time></trkpt><trkpt lat="38.50134382833348" lon="15.987743071186479"><ele>23.0</ele><time>2026-04-12T16:12:19Z</time></trkpt><trkpt lat="38.50120033106126" lon="15.98781037181193"><ele>23.0</ele><time>2026-04-12T16:12:20Z</time></trkpt><trkpt lat="38.501046465224775" lon="15.98787849506295"><ele>23.0</ele><time>2026-04-12T16:12:21Z</time></trkpt><trkpt lat="38.50088878138767" lon="15.987955789123014"><ele>22.75</ele><time>2026-04-12T16:12:22Z</time></trkpt><trkpt lat="38.50073856559758" lon="15.98802429042672"><ele>22.5</ele><time>2026-04-12T16:12:23Z</time></trkpt><trkpt lat="38.500610346020736" lon="15.988082158875741"><ele>22.25</ele><time>2026-04-12T16:12:24Z</time></trkpt><trkpt lat="38.50050260151818" lon="15.98813400157117"><ele>22.0</ele><time>2026-04-12T16:12:25Z</time></trkpt><trkpt lat="38.500400428713604" lon="15.988175501424262"><ele>22.0</ele><time>2026-04-12T16:12:26Z</time></trkpt><trkpt lat="38.500301312714576" lon="15.988221557561225"><ele>22.0</ele><time>2026-04-12T16:12:27Z</time></trkpt><trkpt lat="38.50020665208519" lon="15.988261289419896"><ele>22.0</ele><time>2026-04-12T16:12:28Z</time></trkpt><trkpt lat="38.500120084943205" lon="15.988292316622246"><ele>22.0</ele><time>2026-04-12T16:12:29Z</time></trkpt><trkpt lat="38.50003736261946" lon="15.988281944983186"><ele>22.0</ele><time>2026-04-12T16:12:30Z</time></trkpt><trkpt lat="38.49996810585794" lon="15.988213572278042"><ele>22.0</ele><time>2026-04-12T16:12:31Z</time></trkpt><trkpt lat="38.499893863945125" lon="15.988122344034174"><ele>22.0</ele><time>2026-04-12T16:12:32Z</time></trkpt><trkpt lat="38.49987109497303" lon="15.987988164888344"><ele>22.0</ele><time>2026-04-12T16:12:33Z</time></trkpt><trkpt lat="38.499829765301456" lon="15.987846534389009"><ele>22.0</ele><time>2026-04-12T16:12:34Z</time></trkpt><trkpt lat="38.499769230663226" lon="15.987702151546587"><ele>22.0</ele><time>2026-04-12T16:12:35Z</time></trkpt><trkpt lat="38.499726157732546" lon="15.987554521945949"><ele>22.0</ele><time>2026-04-12T16:12:36Z</time></trkpt><trkpt lat="38.49968479453748" lon="15.987429071315551"><ele>22.0</ele><time>2026-04-12T16:12:37Z</time></trkpt><trkpt lat="38.49964521742471" lon="15.98727763712114"><ele>22.0</ele><time>2026-04-12T16:12:38Z</time></trkpt><trkpt lat="38.49957446544439" lon="15.987115947869823"><ele>22.0</ele><time>2026-04-12T16:12:39Z</time></trkpt><trkpt lat="38.49947421485337" lon="15.986991871211313"><ele>22.0</ele><time>2026-04-12T16:12:40Z</time></trkpt><trkpt lat="38.49937970596171" lon="15.986852615156373"><ele>22.0</ele><time>2026-04-12T16:12:41Z</time></trkpt><trkpt lat="38.49927187484634" lon="15.986729030090187"><ele>22.0</ele><time>2026-04-12T16:12:42Z</time></trkpt><trkpt lat="38.49917549717683" lon="15.986603388879386"><ele>22.0</ele><time>2026-04-12T16:12:43Z</time></trkpt><trkpt lat="38.4990747828653" lon="15.986482720405574"><ele>22.0</ele><time>2026-04-12T16:12:44Z</time></trkpt><trkpt lat="38.498975848601575" lon="15.98636802686286"><ele>22.0</ele><time>2026-04-12T16:12:45Z</time></trkpt><trkpt lat="38.49887476996802" lon="15.986252639754062"><ele>22.0</ele><time>2026-04-12T16:12:46Z</time></trkpt><trkpt lat="38.49877653551693" lon="15.986130176352168"><ele>22.0</ele><time>2026-04-12T16:12:47Z</time></trkpt><trkpt lat="38.498670672204" lon="15.98600671966245"><ele>22.0</ele><time>2026-04-12T16:12:48Z</time></trkpt><trkpt lat="38.498561947177784" lon="15.98589355149467"><ele>22.0</ele><time>2026-04-12T16:12:49Z</time></trkpt><trkpt lat="38.49845492871119" lon="15.985779714826966"><ele>22.0</ele><time>2026-04-12T16:12:50Z</time></trkpt><trkpt lat="38.49836133211037" lon="15.985675443869772"><ele>22.0</ele><time>2026-04-12T16:12:51Z</time></trkpt><trkpt lat="38.49827439409779" lon="15.985592186372704"><ele>22.0</ele><time>2026-04-12T16:12:52Z</time></trkpt><trkpt lat="38.498194896188075" lon="15.985503931418885"><ele>22.0</ele><time>2026-04-12T16:12:53Z</time></trkpt><trkpt lat="38.498121255554295" lon="15.985421423727574"><ele>22.0</ele><time>2026-04-12T16:12:54Z</time></trkpt><trkpt lat="38.49804484504417" lon="15.985335428275771"><ele>22.0</ele><time>2026-04-12T16:12:55Z</time></trkpt><trkpt lat="38.49797824481193" lon="15.985251763633949"><ele>21.8</ele><time>2026-04-12T16:12:56Z</time></trkpt><trkpt lat="38.49790951234188" lon="15.985176645163305"><ele>21.6</ele><time>2026-04-12T16:12:57Z</time></trkpt><trkpt lat="38.49784867676162" lon="15.985100482646214"><ele>21.400000000000002</ele><time>2026-04-12T16:12:58Z</time></trkpt><trkpt lat="38.49777893548039" lon="15.98502045847503"><ele>21.200000000000003</ele><time>2026-04-12T16:12:59Z</time></trkpt><trkpt lat="38.49770404986963" lon="15.984928201112398"><ele>21.0</ele><time>2026-04-12T16:13:00Z</time></trkpt><trkpt lat="38.49761811828117" lon="15.984826118713055"><ele>21.0</ele><time>2026-04-12T16:13:01Z</time></trkpt><trkpt lat="38.49752406925791" lon="15.984718368238685"><ele>21.0</ele><time>2026-04-12T16:13:02Z</time></trkpt><trkpt lat="38.497422767478554" lon="15.984607426095605"><ele>21.0</ele><time>2026-04-12T16:13:03Z</time></trkpt><trkpt lat="38.49733806523963" lon="15.98447193036221"><ele>21.0</ele><time>2026-04-12T16:13:04Z</time></trkpt><trkpt lat="38.49724026425565" lon="15.984353154428605"><ele>21.0</ele><time>2026-04-12T16:13:05Z</time></trkpt><trkpt lat="38.49712532741086" lon="15.98424340117898"><ele>21.0</ele><time>2026-04-12T16:13:06Z</time></trkpt><trkpt lat="38.49703496683791" lon="15.98412759427006"><ele>21.0</ele><time>2026-04-12T16:13:07Z</time></trkpt><trkpt lat="38.49691368089478" lon="15.983978972126284"><ele>21.0</ele><time>2026-04-12T16:13:08Z</time></trkpt><trkpt lat="38.49678812398245" lon="15.983841565188595"><ele>22.0</ele><time>2026-04-12T16:13:09Z</time></trkpt><trkpt lat="38.49666359338415" lon="15.983678998907275"><ele>23.0</ele><time>2026-04-12T16:13:10Z</time></trkpt><trkpt lat="38.49653804323507" lon="15.983530620969098"><ele>24.0</ele><time>2026-04-12T16:13:11Z</time></trkpt><trkpt lat="38.49641923955182" lon="15.983397699784463"><ele>23.333333333333332</ele><time>2026-04-12T16:13:12Z</time></trkpt><trkpt lat="38.49630043239374" lon="15.983265202984834"><ele>22.666666666666664</ele><time>2026-04-12T16:13:13Z</time></trkpt><trkpt lat="38.49618794610293" lon="15.983130758513134"><ele>22.0</ele><time>2026-04-12T16:13:14Z</time></trkpt><trkpt lat="38.496077373978885" lon="15.983008016800587"><ele>21.75</ele><time>2026-04-12T16:13:15Z</time></trkpt><trkpt lat="38.49596572902938" lon="15.982883177410654"><ele>21.5</ele><time>2026-04-12T16:13:16Z</time></trkpt><trkpt lat="38.49586212512674" lon="15.982753578479295"><ele>21.25</ele><time>2026-04-12T16:13:17Z</time></trkpt><trkpt lat="38.49575835608695" lon="15.982631681935828"><ele>21.0</ele><time>2026-04-12T16:13:18Z</time></trkpt><trkpt lat="38.49565550475777" lon="15.982525585416308"><ele>21.0</ele><time>2026-04-12T16:13:19Z</time></trkpt><trkpt lat="38.4955765492158" lon="15.982409637317662"><ele>21.0</ele><time>2026-04-12T16:13:20Z</time></trkpt><trkpt lat="38.495487030247" lon="15.982324321251731"><ele>21.0</ele><time>2026-04-12T16:13:21Z</time></trkpt><trkpt lat="38.495407026943404" lon="15.98222648278374"><ele>21.0</ele><time>2026-04-12T16:13:22Z</time></trkpt><trkpt lat="38.49531752958586" lon="15.982129522802525"><ele>21.0</ele><time>2026-04-12T16:13:23Z</time></trkpt><trkpt lat="38.49522642488831" lon="15.982023187959825"><ele>21.0</ele><time>2026-04-12T16:13:24Z</time></trkpt><trkpt lat="38.49512829591314" lon="15.98190951088425"><ele>21.0</ele><time>2026-04-12T16:13:25Z</time></trkpt><trkpt lat="38.495024096450834" lon="15.981789216275773"><ele>21.0</ele><time>2026-04-12T16:13:26Z</time></trkpt><trkpt lat="38.49492204014722" lon="15.98167783297733"><ele>21.0</ele><time>2026-04-12T16:13:27Z</time></trkpt><trkpt lat="38.49483286188088" lon="15.981545540856638"><ele>21.0</ele><time>2026-04-12T16:13:28Z</time></trkpt><trkpt lat="38.494716237445154" lon="15.98142981980556"><ele>21.0</ele><time>2026-04-12T16:13:29Z</time></trkpt><trkpt lat="38.49460833687398" lon="15.981293696054665"><ele>21.0</ele><time>2026-04-12T16:13:30Z</time></trkpt><trkpt lat="38.4945011467889" lon="15.98115766526619"><ele>21.0</ele><time>2026-04-12T16:13:31Z</time></trkpt><trkpt lat="38.49439235173296" lon="15.981031586718304"><ele>21.0</ele><time>2026-04-12T16:13:32Z</time></trkpt><trkpt lat="38.494284737584195" lon="15.980897769534568"><ele>21.0</ele><time>2026-04-12T16:13:33Z</time></trkpt><trkpt lat="38.494169651488534" lon="15.980768841260817"><ele>21.333333333333332</ele><time>2026-04-12T16:13:34Z</time></trkpt><trkpt lat="38.49405471351459" lon="15.980642339184849"><ele>21.666666666666664</ele><time>2026-04-12T16:13:35Z</time></trkpt><trkpt lat="38.49394614271215" lon="15.980508491810983"><ele>22.0</ele><time>2026-04-12T16:13:36Z</time></trkpt><trkpt lat="38.493833236892996" lon="15.980374118811174"><ele>22.666666666666664</ele><time>2026-04-12T16:13:37Z</time></trkpt><trkpt lat="38.493717520182926" lon="15.980245716549744"><ele>23.333333333333332</ele><time>2026-04-12T16:13:38Z</time></trkpt><trkpt lat="38.49360471323689" lon="15.980114477688023"><ele>24.0</ele><time>2026-04-12T16:13:39Z</time></trkpt><trkpt lat="38.49349198077004" lon="15.979984929183699"><ele>24.0</ele><time>2026-04-12T16:13:40Z</time></trkpt><trkpt lat="38.49337764098108" lon="15.979858580622045"><ele>24.0</ele><time>2026-04-12T16:13:41.001Z</time></trkpt><trkpt lat="38.49326742610491" lon="15.979726705077216"><ele>24.0</ele><time>2026-04-12T16:13:42.001Z</time></trkpt><trkpt lat="38.493155621513786" lon="15.979595539552816"><ele>24.0</ele><time>2026-04-12T16:13:43.001Z</time></trkpt><trkpt lat="38.493044732813615" lon="15.979468041861958"><ele>24.0</ele><time>2026-04-12T16:13:44.001Z</time></trkpt><trkpt lat="38.492933696563085" lon="15.979346488730254"><ele>24.0</ele><time>2026-04-12T16:13:45.001Z</time></trkpt><trkpt lat="38.49282699250713" lon="15.97921192945865"><ele>24.0</ele><time>2026-04-12T16:13:46.001Z</time></trkpt><trkpt lat="38.492717840855924" lon="15.97908006403876"><ele>24.25</ele><time>2026-04-12T16:13:47.001Z</time></trkpt><trkpt lat="38.492602210989745" lon="15.978961599772692"><ele>24.5</ele><time>2026-04-12T16:13:48.001Z</time></trkpt><trkpt lat="38.49251398498232" lon="15.978828123011292"><ele>24.75</ele><time>2026-04-12T16:13:49.001Z</time></trkpt><trkpt lat="38.492418011362965" lon="15.978717512426547"><ele>25.0</ele><time>2026-04-12T16:13:50.001Z</time></trkpt><trkpt lat="38.49231267141994" lon="15.978610617033633"><ele>25.0</ele><time>2026-04-12T16:13:51.001Z</time></trkpt><trkpt lat="38.492210387306855" lon="15.978494649320881"><ele>25.0</ele><time>2026-04-12T16:13:52.001Z</time></trkpt><trkpt lat="38.492107998290614" lon="15.978371914918018"><ele>25.0</ele><time>2026-04-12T16:13:53.001Z</time></trkpt><trkpt lat="38.492012745450296" lon="15.978246048183781"><ele>25.0</ele><time>2026-04-12T16:13:54.001Z</time></trkpt><trkpt lat="38.491914044043696" lon="15.978122053416481"><ele>26.0</ele><time>2026-04-12T16:13:55.001Z</time></trkpt><trkpt lat="38.49181812356302" lon="15.978008285789446"><ele>27.0</ele><time>2026-04-12T16:13:56.001Z</time></trkpt><trkpt lat="38.49173693950017" lon="15.97789299987316"><ele>28.0</ele><time>2026-04-12T16:13:57.001Z</time></trkpt><trkpt lat="38.49167200168313" lon="15.977759818445055"><ele>29.0</ele><time>2026-04-12T16:13:58.001Z</time></trkpt><trkpt lat="38.49162276294097" lon="15.977614898736617"><ele>29.6</ele><time>2026-04-12T16:13:59.001Z</time></trkpt><trkpt lat="38.49158963060013" lon="15.977475316964075"><ele>30.2</ele><time>2026-04-12T16:14:00.001Z</time></trkpt><trkpt lat="38.49157660092716" lon="15.977355079460006"><ele>30.800000000000004</ele><time>2026-04-12T16:14:01.001Z</time></trkpt><trkpt lat="38.49159392330304" lon="15.977207791678492"><ele>31.400000000000002</ele><time>2026-04-12T16:14:02.001Z</time></trkpt><trkpt lat="38.49160103159806" lon="15.9770817410753"><ele>32.0</ele><time>2026-04-12T16:14:03.001Z</time></trkpt><trkpt lat="38.49162652039472" lon="15.976975663517122"><ele>32.0</ele><time>2026-04-12T16:14:04.001Z</time></trkpt><trkpt lat="38.491650821149534" lon="15.976860697542438"><ele>32.0</ele><time>2026-04-12T16:14:05.001Z</time></trkpt><trkpt lat="38.49166093895504" lon="15.976738096576703"><ele>32.0</ele><time>2026-04-12T16:14:06.001Z</time></trkpt><trkpt lat="38.49169818826556" lon="15.976620078185011"><ele>32.0</ele><time>2026-04-12T16:14:07.001Z</time></trkpt><trkpt lat="38.49173457268841" lon="15.976489956924294"><ele>32.0</ele><time>2026-04-12T16:14:08.001Z</time></trkpt><trkpt lat="38.49175086007932" lon="15.976368812427841"><ele>31.8</ele><time>2026-04-12T16:14:09.001Z</time></trkpt><trkpt lat="38.49177761637987" lon="15.976244231458859"><ele>31.6</ele><time>2026-04-12T16:14:10.001Z</time></trkpt><trkpt lat="38.491804859479764" lon="15.976119934592358"><ele>31.400000000000002</ele><time>2026-04-12T16:14:11.001Z</time></trkpt><trkpt lat="38.49183655178022" lon="15.97597799415933"><ele>31.200000000000003</ele><time>2026-04-12T16:14:12.001Z</time></trkpt><trkpt lat="38.491882448987276" lon="15.97582623670559"><ele>31.0</ele><time>2026-04-12T16:14:13.001Z</time></trkpt><trkpt lat="38.49193318649559" lon="15.975653039221632"><ele>33.333333333333336</ele><time>2026-04-12T16:14:14.001Z</time></trkpt><trkpt lat="38.491989486906775" lon="15.975462494872724"><ele>35.666666666666664</ele><time>2026-04-12T16:14:15.001Z</time></trkpt><trkpt lat="38.49204173734035" lon="15.97527265566501"><ele>38.0</ele><time>2026-04-12T16:14:16.001Z</time></trkpt><trkpt lat="38.49206313396311" lon="15.975080348717853"><ele>34.666666666666664</ele><time>2026-04-12T16:14:17.001Z</time></trkpt><trkpt lat="38.49210412703082" lon="15.974887720048985"><ele>31.333333333333336</ele><time>2026-04-12T16:14:18Z</time></trkpt><trkpt lat="38.49215379432986" lon="15.974692157874783"><ele>28.0</ele><time>2026-04-12T16:14:19Z</time></trkpt><trkpt lat="38.492200281383376" lon="15.974495944572821"><ele>28.0</ele><time>2026-04-12T16:14:20Z</time></trkpt><trkpt lat="38.492244610205425" lon="15.974311325123017"><ele>28.0</ele><time>2026-04-12T16:14:21Z</time></trkpt><trkpt lat="38.49229322589032" lon="15.974147382036994"><ele>28.0</ele><time>2026-04-12T16:14:22Z</time></trkpt><trkpt lat="38.49232595775923" lon="15.973995488644503"><ele>28.0</ele><time>2026-04-12T16:14:23Z</time></trkpt><trkpt lat="38.49234089316513" lon="15.973848816727243"><ele>28.25</ele><time>2026-04-12T16:14:24Z</time></trkpt><trkpt lat="38.492356300535214" lon="15.97371068765227"><ele>28.5</ele><time>2026-04-12T16:14:25Z</time></trkpt><trkpt lat="38.492356782338796" lon="15.973569301879115"><ele>28.75</ele><time>2026-04-12T16:14:26Z</time></trkpt><trkpt lat="38.49233083466012" lon="15.973421211978167"><ele>29.0</ele><time>2026-04-12T16:14:27Z</time></trkpt><trkpt lat="38.49228949962359" lon="15.973271038454731"><ele>29.0</ele><time>2026-04-12T16:14:28Z</time></trkpt><trkpt lat="38.49223937332231" lon="15.973119316515527"><ele>29.0</ele><time>2026-04-12T16:14:29Z</time></trkpt><trkpt lat="38.492183412863014" lon="15.972969802012553"><ele>29.0</ele><time>2026-04-12T16:14:30Z</time></trkpt><trkpt lat="38.492144631003235" lon="15.972809330384978"><ele>29.0</ele><time>2026-04-12T16:14:31Z</time></trkpt><trkpt lat="38.49208016460623" lon="15.972671813499721"><ele>30.75</ele><time>2026-04-12T16:14:32Z</time></trkpt><trkpt lat="38.49203580680063" lon="15.972534166740546"><ele>32.5</ele><time>2026-04-12T16:14:33Z</time></trkpt><trkpt lat="38.49199101632864" lon="15.972391938553914"><ele>34.25</ele><time>2026-04-12T16:14:34Z</time></trkpt><trkpt lat="38.49194700609098" lon="15.972251583134817"><ele>36.0</ele><time>2026-04-12T16:14:35Z</time></trkpt><trkpt lat="38.491904686175545" lon="15.972116444845504"><ele>36.0</ele><time>2026-04-12T16:14:36Z</time></trkpt><trkpt lat="38.49185364622145" lon="15.971987082888473"><ele>36.0</ele><time>2026-04-12T16:14:37Z</time></trkpt><trkpt lat="38.49180461285308" lon="15.971856984114565"><ele>36.0</ele><time>2026-04-12T16:14:38Z</time></trkpt><trkpt lat="38.491752426608016" lon="15.971738093598987"><ele>36.0</ele><time>2026-04-12T16:14:39Z</time></trkpt><trkpt lat="38.491711104594685" lon="15.971627270947568"><ele>36.0</ele><time>2026-04-12T16:14:40Z</time></trkpt><trkpt lat="38.491692609964204" lon="15.97151544505916"><ele>35.0</ele><time>2026-04-12T16:14:41Z</time></trkpt><trkpt lat="38.49164467390047" lon="15.971423064068546"><ele>34.0</ele><time>2026-04-12T16:14:42Z</time></trkpt><trkpt lat="38.49157107283978" lon="15.971335677218745"><ele>33.0</ele><time>2026-04-12T16:14:43Z</time></trkpt><trkpt lat="38.49148998919942" lon="15.971269917780013"><ele>32.0</ele><time>2026-04-12T16:14:44Z</time></trkpt><trkpt lat="38.491400558884045" lon="15.971226962893473"><ele>31.0</ele><time>2026-04-12T16:14:45Z</time></trkpt><trkpt lat="38.49130371164116" lon="15.971194269153964"><ele>33.0</ele><time>2026-04-12T16:14:46Z</time></trkpt><trkpt lat="38.4912302945363" lon="15.971194486265903"><ele>35.0</ele><time>2026-04-12T16:14:47Z</time></trkpt><trkpt lat="38.491138532146984" lon="15.97119267365236"><ele>37.0</ele><time>2026-04-12T16:14:48Z</time></trkpt><trkpt lat="38.491044724863364" lon="15.971189098532212"><ele>39.0</ele><time>2026-04-12T16:14:49Z</time></trkpt><trkpt lat="38.490945400391794" lon="15.971175769279261"><ele>41.0</ele><time>2026-04-12T16:14:50Z</time></trkpt><trkpt lat="38.49084651666213" lon="15.97116138944994"><ele>41.0</ele><time>2026-04-12T16:14:51Z</time></trkpt><trkpt lat="38.49074724283818" lon="15.971141349256996"><ele>41.0</ele><time>2026-04-12T16:14:52Z</time></trkpt><trkpt lat="38.490643695362635" lon="15.971128546740369"><ele>41.0</ele><time>2026-04-12T16:14:53Z</time></trkpt><trkpt lat="38.49054088119031" lon="15.971113276070618"><ele>41.0</ele><time>2026-04-12T16:14:54Z</time></trkpt><trkpt lat="38.4904423386273" lon="15.971077521927068"><ele>41.0</ele><time>2026-04-12T16:14:55Z</time></trkpt><trkpt lat="38.490344326371314" lon="15.971051280907345"><ele>41.599999999999994</ele><time>2026-04-12T16:14:56Z</time></trkpt><trkpt lat="38.49024372809396" lon="15.971022780736762"><ele>42.2</ele><time>2026-04-12T16:14:57Z</time></trkpt><trkpt lat="38.49014076632835" lon="15.97098774494264"><ele>42.8</ele><time>2026-04-12T16:14:58Z</time></trkpt><trkpt lat="38.490041942668064" lon="15.970949005478971"><ele>43.400000000000006</ele><time>2026-04-12T16:14:59Z</time></trkpt><trkpt lat="38.48994398303876" lon="15.97090924820314"><ele>44.0</ele><time>2026-04-12T16:15:00Z</time></trkpt><trkpt lat="38.48985211614431" lon="15.970872539822153"><ele>42.0</ele><time>2026-04-12T16:15:01Z</time></trkpt><trkpt lat="38.489759443198395" lon="15.97084740426135"><ele>40.0</ele><time>2026-04-12T16:15:02Z</time></trkpt><trkpt lat="38.489673560533596" lon="15.970830796055617"><ele>38.0</ele><time>2026-04-12T16:15:03Z</time></trkpt><trkpt lat="38.489595044775996" lon="15.970821438896264"><ele>36.0</ele><time>2026-04-12T16:15:04Z</time></trkpt><trkpt lat="38.489505576667035" lon="15.970818133308315"><ele>34.0</ele><time>2026-04-12T16:15:05Z</time></trkpt><trkpt lat="38.489410162379734" lon="15.97082519888199"><ele>32.0</ele><time>2026-04-12T16:15:06Z</time></trkpt><trkpt lat="38.48930308849462" lon="15.970846146797877"><ele>34.5</ele><time>2026-04-12T16:15:07Z</time></trkpt><trkpt lat="38.48919199882619" lon="15.97087183955991"><ele>37.0</ele><time>2026-04-12T16:15:08Z</time></trkpt><trkpt lat="38.48907719069928" lon="15.970910922363467"><ele>39.5</ele><time>2026-04-12T16:15:09Z</time></trkpt><trkpt lat="38.48896094627538" lon="15.970961676158339"><ele>42.0</ele><time>2026-04-12T16:15:10Z</time></trkpt><trkpt lat="38.48885674486572" lon="15.971037484278902"><ele>39.5</ele><time>2026-04-12T16:15:11Z</time></trkpt><trkpt lat="38.48875264304321" lon="15.971101509858151"><ele>37.0</ele><time>2026-04-12T16:15:12Z</time></trkpt><trkpt lat="38.48864482428662" lon="15.971165114577966"><ele>34.5</ele><time>2026-04-12T16:15:13Z</time></trkpt><trkpt lat="38.488541611082475" lon="15.971234693453239"><ele>32.0</ele><time>2026-04-12T16:15:14Z</time></trkpt><trkpt lat="38.48843649485471" lon="15.971300639617224"><ele>32.0</ele><time>2026-04-12T16:15:15Z</time></trkpt><trkpt lat="38.48833328234247" lon="15.97136511602768"><ele>32.0</ele><time>2026-04-12T16:15:16Z</time></trkpt><trkpt lat="38.48822129118522" lon="15.971424976393635"><ele>32.0</ele><time>2026-04-12T16:15:17Z</time></trkpt><trkpt lat="38.48810806570052" lon="15.971484874612369"><ele>32.0</ele><time>2026-04-12T16:15:18Z</time></trkpt><trkpt lat="38.48799210070665" lon="15.971536983124604"><ele>32.0</ele><time>2026-04-12T16:15:19Z</time></trkpt><trkpt lat="38.48788256014723" lon="15.971586318896943"><ele>32.0</ele><time>2026-04-12T16:15:20Z</time></trkpt><trkpt lat="38.48777330926672" lon="15.971638454750597"><ele>32.0</ele><time>2026-04-12T16:15:21Z</time></trkpt><trkpt lat="38.48767483233453" lon="15.971706239853983"><ele>32.0</ele><time>2026-04-12T16:15:22Z</time></trkpt><trkpt lat="38.48756613793808" lon="15.971760407917813"><ele>32.0</ele><time>2026-04-12T16:15:23Z</time></trkpt><trkpt lat="38.487456672543374" lon="15.971798144486772"><ele>32.0</ele><time>2026-04-12T16:15:24Z</time></trkpt><trkpt lat="38.48735655840358" lon="15.97186817242979"><ele>32.0</ele><time>2026-04-12T16:15:25Z</time></trkpt><trkpt lat="38.48725688287298" lon="15.971905729262353"><ele>32.0</ele><time>2026-04-12T16:15:26Z</time></trkpt><trkpt lat="38.487150703183715" lon="15.971962131487313"><ele>32.0</ele><time>2026-04-12T16:15:27Z</time></trkpt><trkpt lat="38.48702357535224" lon="15.972013825305243"><ele>29.333333333333332</ele><time>2026-04-12T16:15:28Z</time></trkpt><trkpt lat="38.486883632177594" lon="15.972097303310793"><ele>26.666666666666664</ele><time>2026-04-12T16:15:29Z</time></trkpt><trkpt lat="38.486649601451894" lon="15.972258944658666"><ele>24.0</ele><time>2026-04-12T16:15:31Z</time></trkpt><trkpt lat="38.4865165903677" lon="15.972315128156751"><ele>24.0</ele><time>2026-04-12T16:15:32Z</time></trkpt><trkpt lat="38.48638420351327" lon="15.972331176149218"><ele>24.0</ele><time>2026-04-12T16:15:33Z</time></trkpt><trkpt lat="38.48629919597865" lon="15.972371850943741"><ele>24.0</ele><time>2026-04-12T16:15:34Z</time></trkpt><trkpt lat="38.48618184080329" lon="15.972428002966222"><ele>24.0</ele><time>2026-04-12T16:15:35Z</time></trkpt><trkpt lat="38.486070322371795" lon="15.972495716346158"><ele>23.0</ele><time>2026-04-12T16:15:36Z</time></trkpt><trkpt lat="38.48593906276709" lon="15.97248294390232"><ele>22.0</ele><time>2026-04-12T16:15:37Z</time></trkpt><trkpt lat="38.48588260250426" lon="15.972525746360487"><ele>21.0</ele><time>2026-04-12T16:15:38Z</time></trkpt><trkpt lat="38.485722781967034" lon="15.972644854045074"><ele>20.0</ele><time>2026-04-12T16:15:46Z</time></trkpt><trkpt lat="38.48552828703373" lon="15.97270480824451"><ele>20.0</ele><time>2026-04-12T16:15:48Z</time></trkpt><trkpt lat="38.48540478935961" lon="15.972696975407056"><ele>20.0</ele><time>2026-04-12T16:15:49Z</time></trkpt><trkpt lat="38.48530307398412" lon="15.972685206678545"><ele>20.0</ele><time>2026-04-12T16:15:50Z</time></trkpt><trkpt lat="38.48521970087718" lon="15.972686409447766"><ele>20.0</ele><time>2026-04-12T16:15:51Z</time></trkpt><trkpt lat="38.4851281489128" lon="15.97267947135031"><ele>20.0</ele><time>2026-04-12T16:15:52Z</time></trkpt><trkpt lat="38.48502099329694" lon="15.97266762947702"><ele>20.0</ele><time>2026-04-12T16:15:53Z</time></trkpt><trkpt lat="38.48495440716636" lon="15.972616529223188"><ele>20.0</ele><time>2026-04-12T16:15:55Z</time></trkpt><trkpt lat="38.48485243819467" lon="15.972549859667824"><ele>20.0</ele><time>2026-04-12T16:15:56Z</time></trkpt><trkpt lat="38.48475254224484" lon="15.972512052559473"><ele>20.0</ele><time>2026-04-12T16:15:57Z</time></trkpt><trkpt lat="38.48465555371475" lon="15.972429246821193"><ele>20.0</ele><time>2026-04-12T16:15:58Z</time></trkpt><trkpt lat="38.48453954195442" lon="15.972358954289069"><ele>19.8</ele><time>2026-04-12T16:15:59Z</time></trkpt><trkpt lat="38.48445994890573" lon="15.972308604674177"><ele>19.6</ele><time>2026-04-12T16:16:00Z</time></trkpt><trkpt lat="38.48439935343106" lon="15.972247506543527"><ele>19.4</ele><time>2026-04-12T16:16:01Z</time></trkpt><trkpt lat="38.48432171959708" lon="15.972190080008396"><ele>19.2</ele><time>2026-04-12T16:16:03Z</time></trkpt><trkpt lat="38.48425864204779" lon="15.972143420973392"><ele>19.0</ele><time>2026-04-12T16:16:06Z</time></trkpt><trkpt lat="38.48414951560552" lon="15.97206269885621"><ele>19.0</ele><time>2026-04-12T16:16:09Z</time></trkpt><trkpt lat="38.484086887648964" lon="15.97201637233627"><ele>19.0</ele><time>2026-04-12T16:16:10Z</time></trkpt><trkpt lat="38.48401647218723" lon="15.9719642848903"><ele>19.0</ele><time>2026-04-12T16:16:11Z</time></trkpt><trkpt lat="38.48394290348371" lon="15.971910500596882"><ele>19.0</ele><time>2026-04-12T16:16:12Z</time></trkpt><trkpt lat="38.48384919397122" lon="15.971841366115937"><ele>19.0</ele><time>2026-04-12T16:16:13Z</time></trkpt><trkpt lat="38.48375905125476" lon="15.971795066570213"><ele>19.0</ele><time>2026-04-12T16:16:14Z</time></trkpt><trkpt lat="38.48366686701172" lon="15.971727211357559"><ele>19.0</ele><time>2026-04-12T16:16:15.001Z</time></trkpt><trkpt lat="38.483574479661414" lon="15.971660801749318"><ele>19.0</ele><time>2026-04-12T16:16:16.001Z</time></trkpt><trkpt lat="38.483479698820496" lon="15.971593658960012"><ele>19.0</ele><time>2026-04-12T16:16:17.001Z</time></trkpt><trkpt lat="38.48338327126923" lon="15.97152058527976"><ele>19.0</ele><time>2026-04-12T16:16:18.001Z</time></trkpt><trkpt lat="38.48328351769258" lon="15.971439964583777"><ele>19.0</ele><time>2026-04-12T16:16:19.001Z</time></trkpt><trkpt lat="38.48317078878906" lon="15.97136561674141"><ele>19.0</ele><time>2026-04-12T16:16:20.001Z</time></trkpt><trkpt lat="38.48304399449742" lon="15.971276453971877"><ele>19.0</ele><time>2026-04-12T16:16:21.001Z</time></trkpt><trkpt lat="38.482923574730094" lon="15.971188395465692"><ele>19.0</ele><time>2026-04-12T16:16:22.001Z</time></trkpt><trkpt lat="38.48280862842037" lon="15.971106223391667"><ele>19.0</ele><time>2026-04-12T16:16:23.001Z</time></trkpt><trkpt lat="38.48270366291063" lon="15.971032754879246"><ele>19.25</ele><time>2026-04-12T16:16:24Z</time></trkpt><trkpt lat="38.48259797547536" lon="15.970951642988215"><ele>19.5</ele><time>2026-04-12T16:16:25Z</time></trkpt><trkpt lat="38.48248739887535" lon="15.970877737098286"><ele>19.75</ele><time>2026-04-12T16:16:26Z</time></trkpt><trkpt lat="38.48238134838216" lon="15.970800887358056"><ele>20.0</ele><time>2026-04-12T16:16:27Z</time></trkpt><trkpt lat="38.482285156934864" lon="15.97072498453829"><ele>19.6</ele><time>2026-04-12T16:16:28Z</time></trkpt><trkpt lat="38.48219577346528" lon="15.970662487836856"><ele>19.2</ele><time>2026-04-12T16:16:29Z</time></trkpt><trkpt lat="38.48211158735808" lon="15.970605579394094"><ele>18.8</ele><time>2026-04-12T16:16:30Z</time></trkpt><trkpt lat="38.48201455521126" lon="15.970558087398251"><ele>18.4</ele><time>2026-04-12T16:16:31Z</time></trkpt><trkpt lat="38.48192133352724" lon="15.97046987218872"><ele>18.0</ele><time>2026-04-12T16:16:32Z</time></trkpt><trkpt lat="38.48182589644227" lon="15.970403266949539"><ele>17.25</ele><time>2026-04-12T16:16:33Z</time></trkpt><trkpt lat="38.48171155112107" lon="15.970324407447983"><ele>16.5</ele><time>2026-04-12T16:16:34Z</time></trkpt><trkpt lat="38.48162756039198" lon="15.97028975130221"><ele>15.75</ele><time>2026-04-12T16:16:35Z</time></trkpt><trkpt lat="38.48154051086196" lon="15.970207452644637"><ele>15.0</ele><time>2026-04-12T16:16:36Z</time></trkpt><trkpt lat="38.48141486501288" lon="15.970120158379078"><ele>15.0</ele><time>2026-04-12T16:16:37Z</time></trkpt><trkpt lat="38.481311899067" lon="15.97004862131714"><ele>15.0</ele><time>2026-04-12T16:16:38Z</time></trkpt><trkpt lat="38.4812107023827" lon="15.969977144124403"><ele>15.0</ele><time>2026-04-12T16:16:39Z</time></trkpt><trkpt lat="38.481105797793674" lon="15.969902436474984"><ele>15.0</ele><time>2026-04-12T16:16:40Z</time></trkpt><trkpt lat="38.48099383633776" lon="15.969822703251635"><ele>15.0</ele><time>2026-04-12T16:16:41Z</time></trkpt><trkpt lat="38.480883687582036" lon="15.9697427264618"><ele>15.0</ele><time>2026-04-12T16:16:42Z</time></trkpt><trkpt lat="38.48076921153884" lon="15.969658574867005"><ele>15.0</ele><time>2026-04-12T16:16:43Z</time></trkpt><trkpt lat="38.480651411346805" lon="15.969596668320463"><ele>15.0</ele><time>2026-04-12T16:16:44Z</time></trkpt><trkpt lat="38.48054213625274" lon="15.969510897189995"><ele>15.0</ele><time>2026-04-12T16:16:45Z</time></trkpt><trkpt lat="38.480433967025576" lon="15.969424943698982"><ele>15.0</ele><time>2026-04-12T16:16:46Z</time></trkpt><trkpt lat="38.48033305823424" lon="15.969341768981087"><ele>15.0</ele><time>2026-04-12T16:16:47Z</time></trkpt><trkpt lat="38.480247525757875" lon="15.969249857392628"><ele>15.0</ele><time>2026-04-12T16:16:48Z</time></trkpt><trkpt lat="38.480208531497695" lon="15.969124467824287"><ele>16.0</ele><time>2026-04-12T16:16:49Z</time></trkpt><trkpt lat="38.48018191942199" lon="15.96899437751501"><ele>17.0</ele><time>2026-04-12T16:16:50Z</time></trkpt><trkpt lat="38.48016981457489" lon="15.968853382057878"><ele>18.0</ele><time>2026-04-12T16:16:51Z</time></trkpt><trkpt lat="38.48015804079983" lon="15.968700488986155"><ele>19.0</ele><time>2026-04-12T16:16:52Z</time></trkpt><trkpt lat="38.480129445784634" lon="15.968542614979013"><ele>19.0</ele><time>2026-04-12T16:16:53Z</time></trkpt><trkpt lat="38.480121261904806" lon="15.968383080027493"><ele>19.0</ele><time>2026-04-12T16:16:54Z</time></trkpt><trkpt lat="38.48010980806851" lon="15.968223432892781"><ele>19.0</ele><time>2026-04-12T16:16:55Z</time></trkpt><trkpt lat="38.4801000975354" lon="15.968065714591843"><ele>19.0</ele><time>2026-04-12T16:16:56Z</time></trkpt><trkpt lat="38.48008831890251" lon="15.967909237603049"><ele>19.75</ele><time>2026-04-12T16:16:57Z</time></trkpt><trkpt lat="38.48006757757065" lon="15.96774664826566"><ele>20.5</ele><time>2026-04-12T16:16:58Z</time></trkpt><trkpt lat="38.48006036897575" lon="15.967578846781505"><ele>21.25</ele><time>2026-04-12T16:16:59Z</time></trkpt><trkpt lat="38.48002320912117" lon="15.967418004534048"><ele>22.0</ele><time>2026-04-12T16:17:00Z</time></trkpt><trkpt lat="38.47999870563376" lon="15.967233358328087"><ele>22.333333333333332</ele><time>2026-04-12T16:17:01Z</time></trkpt><trkpt lat="38.479947427126454" lon="15.967033285536345"><ele>22.666666666666668</ele><time>2026-04-12T16:17:02Z</time></trkpt><trkpt lat="38.47987678776123" lon="15.966816608698693"><ele>23.0</ele><time>2026-04-12T16:17:03Z</time></trkpt><trkpt lat="38.479780886228454" lon="15.966570499812432"><ele>23.0</ele><time>2026-04-12T16:17:04Z</time></trkpt><trkpt lat="38.47967215488113" lon="15.966341223022695"><ele>23.0</ele><time>2026-04-12T16:17:05Z</time></trkpt><trkpt lat="38.47955540362319" lon="15.966090491779326"><ele>23.0</ele><time>2026-04-12T16:17:06Z</time></trkpt><trkpt lat="38.479448549490925" lon="15.965835550340522"><ele>23.333333333333336</ele><time>2026-04-12T16:17:07Z</time></trkpt><trkpt lat="38.47932857725222" lon="15.965606755991343"><ele>23.666666666666668</ele><time>2026-04-12T16:17:08Z</time></trkpt><trkpt lat="38.47920919258917" lon="15.96538118837285"><ele>24.0</ele><time>2026-04-12T16:17:09Z</time></trkpt><trkpt lat="38.479099736980686" lon="15.965169802993401"><ele>24.666666666666664</ele><time>2026-04-12T16:17:10Z</time></trkpt><trkpt lat="38.47899388012848" lon="15.964954350628632"><ele>25.333333333333332</ele><time>2026-04-12T16:17:11Z</time></trkpt><trkpt lat="38.47888458318836" lon="15.964742712808327"><ele>26.0</ele><time>2026-04-12T16:17:12Z</time></trkpt><trkpt lat="38.47878806892324" lon="15.964521016208991"><ele>27.666666666666664</ele><time>2026-04-12T16:17:13Z</time></trkpt><trkpt lat="38.47870651277625" lon="15.964314172458895"><ele>29.333333333333336</ele><time>2026-04-12T16:17:14Z</time></trkpt><trkpt lat="38.4786311713208" lon="15.964123007319955"><ele>31.0</ele><time>2026-04-12T16:17:15Z</time></trkpt><trkpt lat="38.47855421776405" lon="15.963937055280207"><ele>31.0</ele><time>2026-04-12T16:17:16Z</time></trkpt><trkpt lat="38.47847726720933" lon="15.963752256928382"><ele>31.0</ele><time>2026-04-12T16:17:17Z</time></trkpt><trkpt lat="38.478400690736386" lon="15.963568187210631"><ele>31.0</ele><time>2026-04-12T16:17:18Z</time></trkpt><trkpt lat="38.47834127277761" lon="15.963375172962122"><ele>30.0</ele><time>2026-04-12T16:17:19Z</time></trkpt><trkpt lat="38.47827152860405" lon="15.963196852035153"><ele>29.0</ele><time>2026-04-12T16:17:20Z</time></trkpt><trkpt lat="38.478191453671535" lon="15.963023765566051"><ele>28.0</ele><time>2026-04-12T16:17:21Z</time></trkpt><trkpt lat="38.4781298458414" lon="15.962838691255564"><ele>28.0</ele><time>2026-04-12T16:17:22Z</time></trkpt><trkpt lat="38.47808095471906" lon="15.962645915931093"><ele>28.0</ele><time>2026-04-12T16:17:23Z</time></trkpt><trkpt lat="38.478036350416204" lon="15.96244744623814"><ele>28.0</ele><time>2026-04-12T16:17:24Z</time></trkpt><trkpt lat="38.47797616565361" lon="15.9622591233833"><ele>28.0</ele><time>2026-04-12T16:17:25Z</time></trkpt><trkpt lat="38.47792155312338" lon="15.962052130653852"><ele>28.0</ele><time>2026-04-12T16:17:26Z</time></trkpt><trkpt lat="38.47787213585721" lon="15.96184883455976"><ele>28.0</ele><time>2026-04-12T16:17:27Z</time></trkpt><trkpt lat="38.477823587821774" lon="15.961644306291648"><ele>28.0</ele><time>2026-04-12T16:17:28Z</time></trkpt><trkpt lat="38.477771630967936" lon="15.961435200825337"><ele>28.0</ele><time>2026-04-12T16:17:29Z</time></trkpt><trkpt lat="38.477720780141816" lon="15.961222080902497"><ele>28.0</ele><time>2026-04-12T16:17:30Z</time></trkpt><trkpt lat="38.477664290904514" lon="15.961005526761594"><ele>27.333333333333336</ele><time>2026-04-12T16:17:31Z</time></trkpt><trkpt lat="38.47760909967332" lon="15.960796263740823"><ele>26.666666666666664</ele><time>2026-04-12T16:17:32Z</time></trkpt><trkpt lat="38.47755185653939" lon="15.960578421063872"><ele>26.0</ele><time>2026-04-12T16:17:33Z</time></trkpt><trkpt lat="38.47750011784273" lon="15.96036844896933"><ele>26.0</ele><time>2026-04-12T16:17:34Z</time></trkpt><trkpt lat="38.47745138802055" lon="15.960169939854751"><ele>26.0</ele><time>2026-04-12T16:17:35Z</time></trkpt><trkpt lat="38.47739773861744" lon="15.959969993050946"><ele>26.0</ele><time>2026-04-12T16:17:36Z</time></trkpt><trkpt lat="38.477346107683765" lon="15.959760601087288"><ele>25.666666666666664</ele><time>2026-04-12T16:17:37Z</time></trkpt><trkpt lat="38.477296449841596" lon="15.959554440083737"><ele>25.333333333333336</ele><time>2026-04-12T16:17:38Z</time></trkpt><trkpt lat="38.477249186539936" lon="15.959343284744676"><ele>25.0</ele><time>2026-04-12T16:17:39Z</time></trkpt><trkpt lat="38.47719948210662" lon="15.95913769024079"><ele>25.0</ele><time>2026-04-12T16:17:40Z</time></trkpt><trkpt lat="38.477147215107394" lon="15.958928278577423"><ele>25.0</ele><time>2026-04-12T16:17:41Z</time></trkpt><trkpt lat="38.47709365349312" lon="15.958712235017959"><ele>25.0</ele><time>2026-04-12T16:17:42Z</time></trkpt><trkpt lat="38.47703004808538" lon="15.958463421546853"><ele>25.0</ele><time>2026-04-12T16:17:43Z</time></trkpt><trkpt lat="38.47696976512558" lon="15.958284798325149"><ele>25.0</ele><time>2026-04-12T16:17:44Z</time></trkpt><trkpt lat="38.47692151719448" lon="15.958074248729556"><ele>25.0</ele><time>2026-04-12T16:17:45Z</time></trkpt><trkpt lat="38.47686378960179" lon="15.957856803307058"><ele>25.0</ele><time>2026-04-12T16:17:46Z</time></trkpt><trkpt lat="38.476827222812794" lon="15.957644169634825"><ele>25.0</ele><time>2026-04-12T16:17:47Z</time></trkpt><trkpt lat="38.47677079737083" lon="15.957442996260959"><ele>25.0</ele><time>2026-04-12T16:17:48Z</time></trkpt><trkpt lat="38.47669622251421" lon="15.95724941422784"><ele>24.666666666666668</ele><time>2026-04-12T16:17:49Z</time></trkpt><trkpt lat="38.47662718523515" lon="15.957054299019395"><ele>24.333333333333336</ele><time>2026-04-12T16:17:50Z</time></trkpt><trkpt lat="38.47656563131246" lon="15.956840390345993"><ele>24.0</ele><time>2026-04-12T16:17:51Z</time></trkpt><trkpt lat="38.47648202095152" lon="15.95663250442089"><ele>24.0</ele><time>2026-04-12T16:17:52Z</time></trkpt><trkpt lat="38.476384143525735" lon="15.956422584176105"><ele>24.0</ele><time>2026-04-12T16:17:53Z</time></trkpt><trkpt lat="38.476277680708954" lon="15.956216535978745"><ele>24.0</ele><time>2026-04-12T16:17:54Z</time></trkpt><trkpt lat="38.47615439254685" lon="15.956018997704524"><ele>24.0</ele><time>2026-04-12T16:17:55Z</time></trkpt><trkpt lat="38.47603840840545" lon="15.955804675085258"><ele>24.0</ele><time>2026-04-12T16:17:56Z</time></trkpt><trkpt lat="38.47592670587962" lon="15.955594725437688"><ele>24.0</ele><time>2026-04-12T16:17:57Z</time></trkpt><trkpt lat="38.475811570706306" lon="15.955384845891546"><ele>24.0</ele><time>2026-04-12T16:17:58Z</time></trkpt><trkpt lat="38.475696264831925" lon="15.955175542606677"><ele>24.0</ele><time>2026-04-12T16:17:59Z</time></trkpt><trkpt lat="38.47558795612954" lon="15.954971457716528"><ele>24.0</ele><time>2026-04-12T16:18:00Z</time></trkpt><trkpt lat="38.475473057962716" lon="15.9547675384833"><ele>24.0</ele><time>2026-04-12T16:18:01Z</time></trkpt><trkpt lat="38.475362168995105" lon="15.954565384891708"><ele>24.0</ele><time>2026-04-12T16:18:02Z</time></trkpt><trkpt lat="38.47524983187627" lon="15.954360140963534"><ele>24.0</ele><time>2026-04-12T16:18:03Z</time></trkpt><trkpt lat="38.47513899913698" lon="15.954160052852506"><ele>24.0</ele><time>2026-04-12T16:18:04Z</time></trkpt><trkpt lat="38.47503146884171" lon="15.95396372921863"><ele>24.0</ele><time>2026-04-12T16:18:05Z</time></trkpt><trkpt lat="38.47491865450518" lon="15.953759261592793"><ele>24.0</ele><time>2026-04-12T16:18:06Z</time></trkpt><trkpt lat="38.474808196642414" lon="15.953560161037533"><ele>24.666666666666664</ele><time>2026-04-12T16:18:07Z</time></trkpt><trkpt lat="38.47470264741564" lon="15.953364521278797"><ele>25.333333333333332</ele><time>2026-04-12T16:18:08Z</time></trkpt><trkpt lat="38.4746041807379" lon="15.953180786784436"><ele>26.0</ele><time>2026-04-12T16:18:09Z</time></trkpt><trkpt lat="38.4745051076815" lon="15.953003382653845"><ele>27.0</ele><time>2026-04-12T16:18:10Z</time></trkpt><trkpt lat="38.47440418081066" lon="15.952822305681849"><ele>28.0</ele><time>2026-04-12T16:18:11Z</time></trkpt><trkpt lat="38.47429816741582" lon="15.952639796948139"><ele>29.0</ele><time>2026-04-12T16:18:12Z</time></trkpt><trkpt lat="38.47418990783722" lon="15.952463213248064"><ele>29.0</ele><time>2026-04-12T16:18:13Z</time></trkpt><trkpt lat="38.474070101656515" lon="15.952289896368875"><ele>29.0</ele><time>2026-04-12T16:18:14Z</time></trkpt><trkpt lat="38.47394311910227" lon="15.952124284835245"><ele>29.0</ele><time>2026-04-12T16:18:15Z</time></trkpt><trkpt lat="38.473808456907406" lon="15.951971801027119"><ele>30.0</ele><time>2026-04-12T16:18:16Z</time></trkpt><trkpt lat="38.47366987999063" lon="15.951813910094959"><ele>31.0</ele><time>2026-04-12T16:18:17Z</time></trkpt><trkpt lat="38.47353255232087" lon="15.951646756925758"><ele>32.0</ele><time>2026-04-12T16:18:18Z</time></trkpt><trkpt lat="38.473389997817826" lon="15.951481546224887"><ele>33.0</ele><time>2026-04-12T16:18:19Z</time></trkpt><trkpt lat="38.473247075866354" lon="15.951333775231312"><ele>34.0</ele><time>2026-04-12T16:18:20Z</time></trkpt><trkpt lat="38.47310540697818" lon="15.951179077311425"><ele>35.0</ele><time>2026-04-12T16:18:21Z</time></trkpt><trkpt lat="38.47297733360947" lon="15.951004746022708"><ele>35.0</ele><time>2026-04-12T16:18:22Z</time></trkpt><trkpt lat="38.472829747857226" lon="15.950862652277555"><ele>35.0</ele><time>2026-04-12T16:18:23Z</time></trkpt><trkpt lat="38.47269629103942" lon="15.950707747560708"><ele>35.0</ele><time>2026-04-12T16:18:24Z</time></trkpt><trkpt lat="38.472569863144365" lon="15.950562069617742"><ele>35.0</ele><time>2026-04-12T16:18:25Z</time></trkpt><trkpt lat="38.47244232627426" lon="15.950411356636497"><ele>35.0</ele><time>2026-04-12T16:18:26Z</time></trkpt><trkpt lat="38.47231353592376" lon="15.950259999239645"><ele>35.0</ele><time>2026-04-12T16:18:27Z</time></trkpt><trkpt lat="38.47218471488315" lon="15.950109634718977"><ele>35.33333333333333</ele><time>2026-04-12T16:18:28Z</time></trkpt><trkpt lat="38.4720564331667" lon="15.949962641944445"><ele>35.666666666666664</ele><time>2026-04-12T16:18:29Z</time></trkpt><trkpt lat="38.47193283242486" lon="15.949813236026687"><ele>36.0</ele><time>2026-04-12T16:18:30Z</time></trkpt><trkpt lat="38.471813643923205" lon="15.949656334197083"><ele>36.0</ele><time>2026-04-12T16:18:31Z</time></trkpt><trkpt lat="38.47170540754067" lon="15.949492657390119"><ele>36.0</ele><time>2026-04-12T16:18:32Z</time></trkpt><trkpt lat="38.47161052705468" lon="15.949315613737697"><ele>36.0</ele><time>2026-04-12T16:18:33Z</time></trkpt><trkpt lat="38.47152904922183" lon="15.949137296423412"><ele>36.333333333333336</ele><time>2026-04-12T16:18:34Z</time></trkpt><trkpt lat="38.471445479454204" lon="15.948958899261331"><ele>36.66666666666667</ele><time>2026-04-12T16:18:35Z</time></trkpt><trkpt lat="38.471361949044486" lon="15.9487787756633"><ele>37.0</ele><time>2026-04-12T16:18:36Z</time></trkpt><trkpt lat="38.47127909597641" lon="15.948604157475282"><ele>38.66666666666667</ele><time>2026-04-12T16:18:37Z</time></trkpt><trkpt lat="38.47120911884533" lon="15.948418641809036"><ele>40.333333333333336</ele><time>2026-04-12T16:18:38Z</time></trkpt><trkpt lat="38.47110985023914" lon="15.948247828030087"><ele>42.0</ele><time>2026-04-12T16:18:39Z</time></trkpt><trkpt lat="38.47100165351333" lon="15.948095188672886"><ele>42.333333333333336</ele><time>2026-04-12T16:18:40Z</time></trkpt><trkpt lat="38.470865953631716" lon="15.947967796438054"><ele>42.66666666666667</ele><time>2026-04-12T16:18:41Z</time></trkpt><trkpt lat="38.47074549451876" lon="15.947801997438768"><ele>43.0</ele><time>2026-04-12T16:18:42Z</time></trkpt><trkpt lat="38.4706126385052" lon="15.947652600493308"><ele>43.0</ele><time>2026-04-12T16:18:43Z</time></trkpt><trkpt lat="38.47047593617161" lon="15.947498878452947"><ele>43.0</ele><time>2026-04-12T16:18:44Z</time></trkpt><trkpt lat="38.47033989420538" lon="15.947345898933927"><ele>43.0</ele><time>2026-04-12T16:18:45Z</time></trkpt><trkpt lat="38.47020263529658" lon="15.947191550989425"><ele>43.333333333333336</ele><time>2026-04-12T16:18:46Z</time></trkpt><trkpt lat="38.4700656740401" lon="15.947037537745107"><ele>43.666666666666664</ele><time>2026-04-12T16:18:47Z</time></trkpt><trkpt lat="38.46992860663727" lon="15.946883405152345"><ele>44.0</ele><time>2026-04-12T16:18:48Z</time></trkpt><trkpt lat="38.46978930974192" lon="15.946726765507295"><ele>44.0</ele><time>2026-04-12T16:18:49Z</time></trkpt><trkpt lat="38.46963816534934" lon="15.946583848488954"><ele>44.0</ele><time>2026-04-12T16:18:50Z</time></trkpt><trkpt lat="38.46949928735269" lon="15.946423552970916"><ele>44.0</ele><time>2026-04-12T16:18:51Z</time></trkpt><trkpt lat="38.46935598158171" lon="15.946260604092021"><ele>44.33333333333333</ele><time>2026-04-12T16:18:52Z</time></trkpt><trkpt lat="38.46922537894003" lon="15.94608998221057"><ele>44.666666666666664</ele><time>2026-04-12T16:18:53Z</time></trkpt><trkpt lat="38.469087007481065" lon="15.945931915070249"><ele>45.0</ele><time>2026-04-12T16:18:54Z</time></trkpt><trkpt lat="38.46894832024739" lon="15.945773487187305"><ele>45.0</ele><time>2026-04-12T16:18:55Z</time></trkpt><trkpt lat="38.46880895068157" lon="15.945614279820695"><ele>45.0</ele><time>2026-04-12T16:18:56Z</time></trkpt><trkpt lat="38.468668657859176" lon="15.945454024840997"><ele>45.0</ele><time>2026-04-12T16:18:57Z</time></trkpt><trkpt lat="38.46853677988484" lon="15.945303385067273"><ele>43.666666666666664</ele><time>2026-04-12T16:18:58Z</time></trkpt><trkpt lat="38.46840513498261" lon="15.945153012170554"><ele>42.33333333333333</ele><time>2026-04-12T16:18:59Z</time></trkpt><trkpt lat="38.4682750314074" lon="15.945004399084802"><ele>41.0</ele><time>2026-04-12T16:19:00Z</time></trkpt><trkpt lat="38.46814648063055" lon="15.94485751106117"><ele>41.0</ele><time>2026-04-12T16:19:01Z</time></trkpt><trkpt lat="38.468009897003995" lon="15.944729208634369"><ele>41.0</ele><time>2026-04-12T16:19:02Z</time></trkpt><trkpt lat="38.46789505798623" lon="15.944569456326759"><ele>41.0</ele><time>2026-04-12T16:19:03Z</time></trkpt><trkpt lat="38.46777150111645" lon="15.944427897310403"><ele>41.0</ele><time>2026-04-12T16:19:04Z</time></trkpt><trkpt lat="38.46764488521521" lon="15.944282833556816"><ele>41.0</ele><time>2026-04-12T16:19:05Z</time></trkpt><trkpt lat="38.46751762487167" lon="15.944137031481727"><ele>41.0</ele><time>2026-04-12T16:19:06Z</time></trkpt><trkpt lat="38.46738925900684" lon="15.94398996285922"><ele>41.0</ele><time>2026-04-12T16:19:07Z</time></trkpt><trkpt lat="38.46725806776617" lon="15.94383965709107"><ele>41.0</ele><time>2026-04-12T16:19:08Z</time></trkpt><trkpt lat="38.467116854697586" lon="15.943706361332225"><ele>41.0</ele><time>2026-04-12T16:19:09Z</time></trkpt><trkpt lat="38.46698282637082" lon="15.943552398471923"><ele>41.33333333333333</ele><time>2026-04-12T16:19:10Z</time></trkpt><trkpt lat="38.46685038036394" lon="15.943398339686766"><ele>41.666666666666664</ele><time>2026-04-12T16:19:11Z</time></trkpt><trkpt lat="38.46671540240683" lon="15.94324599440243"><ele>42.0</ele><time>2026-04-12T16:19:12Z</time></trkpt><trkpt lat="38.466581227332775" lon="15.943089032369818"><ele>41.0</ele><time>2026-04-12T16:19:13Z</time></trkpt><trkpt lat="38.466443153758156" lon="15.94293496988126"><ele>40.0</ele><time>2026-04-12T16:19:14Z</time></trkpt><trkpt lat="38.466308185054245" lon="15.942782698834778"><ele>39.0</ele><time>2026-04-12T16:19:15Z</time></trkpt><trkpt lat="38.466171472868105" lon="15.942627784094691"><ele>39.0</ele><time>2026-04-12T16:19:16Z</time></trkpt><trkpt lat="38.46603781035491" lon="15.942475356892954"><ele>39.0</ele><time>2026-04-12T16:19:17Z</time></trkpt><trkpt lat="38.4659049008793" lon="15.942322982127058"><ele>39.0</ele><time>2026-04-12T16:19:18Z</time></trkpt><trkpt lat="38.46577383343339" lon="15.942170545184613"><ele>39.0</ele><time>2026-04-12T16:19:19Z</time></trkpt><trkpt lat="38.46563912827047" lon="15.942023891836525"><ele>39.0</ele><time>2026-04-12T16:19:20Z</time></trkpt><trkpt lat="38.46550709208724" lon="15.941871334304146"><ele>39.0</ele><time>2026-04-12T16:19:21Z</time></trkpt><trkpt lat="38.46537776376842" lon="15.94172993651186"><ele>39.0</ele><time>2026-04-12T16:19:22Z</time></trkpt><trkpt lat="38.46525191847621" lon="15.941576779181222"><ele>39.0</ele><time>2026-04-12T16:19:23Z</time></trkpt><trkpt lat="38.46511737572056" lon="15.941423526371054"><ele>39.0</ele><time>2026-04-12T16:19:24Z</time></trkpt><trkpt lat="38.46497308972449" lon="15.94126468501907"><ele>39.0</ele><time>2026-04-12T16:19:25Z</time></trkpt><trkpt lat="38.46482788103987" lon="15.941100878270722"><ele>39.0</ele><time>2026-04-12T16:19:26Z</time></trkpt><trkpt lat="38.4646941040492" lon="15.940921166083738"><ele>39.0</ele><time>2026-04-12T16:19:27Z</time></trkpt><trkpt lat="38.4645499240281" lon="15.940756736569233"><ele>39.333333333333336</ele><time>2026-04-12T16:19:28Z</time></trkpt><trkpt lat="38.464407127818745" lon="15.940593885218043"><ele>39.66666666666667</ele><time>2026-04-12T16:19:29Z</time></trkpt><trkpt lat="38.464264304366694" lon="15.940431002805301"><ele>40.0</ele><time>2026-04-12T16:19:30Z</time></trkpt><trkpt lat="38.46412062937504" lon="15.9402679790267"><ele>40.0</ele><time>2026-04-12T16:19:31Z</time></trkpt><trkpt lat="38.46397746327717" lon="15.940105763897979"><ele>40.0</ele><time>2026-04-12T16:19:32Z</time></trkpt><trkpt lat="38.46383538525821" lon="15.939944781673043"><ele>40.0</ele><time>2026-04-12T16:19:33Z</time></trkpt><trkpt lat="38.463690327352644" lon="15.939780422922118"><ele>40.0</ele><time>2026-04-12T16:19:34Z</time></trkpt><trkpt lat="38.46352796792027" lon="15.939643478140239"><ele>40.0</ele><time>2026-04-12T16:19:35Z</time></trkpt><trkpt lat="38.463378461737236" lon="15.939480193134424"><ele>40.0</ele><time>2026-04-12T16:19:36Z</time></trkpt><trkpt lat="38.4632254478165" lon="15.939311925489978"><ele>39.66666666666667</ele><time>2026-04-12T16:19:37Z</time></trkpt><trkpt lat="38.463068399146756" lon="15.939135403833978"><ele>39.333333333333336</ele><time>2026-04-12T16:19:38Z</time></trkpt><trkpt lat="38.46293772373683" lon="15.93892752463709"><ele>39.0</ele><time>2026-04-12T16:19:39Z</time></trkpt><trkpt lat="38.462787316803514" lon="15.938757406818988"><ele>39.0</ele><time>2026-04-12T16:19:40Z</time></trkpt><trkpt lat="38.46263765393569" lon="15.938588130597623"><ele>39.0</ele><time>2026-04-12T16:19:41Z</time></trkpt><trkpt lat="38.46249430540732" lon="15.938425996179582"><ele>39.0</ele><time>2026-04-12T16:19:42Z</time></trkpt><trkpt lat="38.462343932812146" lon="15.938255917217294"><ele>39.0</ele><time>2026-04-12T16:19:43Z</time></trkpt><trkpt lat="38.46220377114676" lon="15.938097400105237"><ele>39.0</ele><time>2026-04-12T16:19:44Z</time></trkpt><trkpt lat="38.46206055653009" lon="15.937933506823633"><ele>39.0</ele><time>2026-04-12T16:19:45Z</time></trkpt><trkpt lat="38.461913569593705" lon="15.937765296533112"><ele>39.0</ele><time>2026-04-12T16:19:46Z</time></trkpt><trkpt lat="38.46175864112406" lon="15.937587998022066"><ele>39.0</ele><time>2026-04-12T16:19:47Z</time></trkpt><trkpt lat="38.46160387963365" lon="15.93741089061698"><ele>39.0</ele><time>2026-04-12T16:19:48Z</time></trkpt><trkpt lat="38.46145219819225" lon="15.937237450616681"><ele>39.333333333333336</ele><time>2026-04-12T16:19:49Z</time></trkpt><trkpt lat="38.46129810036548" lon="15.937061254679604"><ele>39.66666666666667</ele><time>2026-04-12T16:19:50Z</time></trkpt><trkpt lat="38.46114862438614" lon="15.936890343356188"><ele>40.0</ele><time>2026-04-12T16:19:51Z</time></trkpt><trkpt lat="38.46099377224032" lon="15.93673919130496"><ele>40.0</ele><time>2026-04-12T16:19:52Z</time></trkpt><trkpt lat="38.460851658254995" lon="15.936574199797114"><ele>40.0</ele><time>2026-04-12T16:19:53Z</time></trkpt><trkpt lat="38.46072056667659" lon="15.93640090091262"><ele>40.0</ele><time>2026-04-12T16:19:54Z</time></trkpt><trkpt lat="38.46058461276421" lon="15.936246373457205"><ele>40.0</ele><time>2026-04-12T16:19:55Z</time></trkpt><trkpt lat="38.46044793825178" lon="15.936090211648581"><ele>40.0</ele><time>2026-04-12T16:19:56Z</time></trkpt><trkpt lat="38.460309839721965" lon="15.935956172224097"><ele>40.0</ele><time>2026-04-12T16:19:57Z</time></trkpt><trkpt lat="38.46017133859239" lon="15.935800613266796"><ele>40.0</ele><time>2026-04-12T16:19:58Z</time></trkpt><trkpt lat="38.46003990627043" lon="15.935624445121691"><ele>40.0</ele><time>2026-04-12T16:19:59Z</time></trkpt><trkpt lat="38.45989188340197" lon="15.935456449400661"><ele>40.0</ele><time>2026-04-12T16:20:00Z</time></trkpt><trkpt lat="38.45973789512838" lon="15.93528168336681"><ele>40.333333333333336</ele><time>2026-04-12T16:20:01Z</time></trkpt><trkpt lat="38.45958745322661" lon="15.935110959150935"><ele>40.666666666666664</ele><time>2026-04-12T16:20:02Z</time></trkpt><trkpt lat="38.45943550455177" lon="15.934939089817625"><ele>41.0</ele><time>2026-04-12T16:20:03Z</time></trkpt><trkpt lat="38.4592883386096" lon="15.934772630634907"><ele>41.33333333333333</ele><time>2026-04-12T16:20:04Z</time></trkpt><trkpt lat="38.45914242903568" lon="15.934607372481222"><ele>41.666666666666664</ele><time>2026-04-12T16:20:05Z</time></trkpt><trkpt lat="38.45899415826218" lon="15.934439199013788"><ele>42.0</ele><time>2026-04-12T16:20:06Z</time></trkpt><trkpt lat="38.45885033804415" lon="15.93427609644506"><ele>42.666666666666664</ele><time>2026-04-12T16:20:07Z</time></trkpt><trkpt lat="38.45870471707761" lon="15.934110949467087"><ele>43.33333333333333</ele><time>2026-04-12T16:20:08Z</time></trkpt><trkpt lat="38.45856332909539" lon="15.933950702089925"><ele>44.0</ele><time>2026-04-12T16:20:09Z</time></trkpt><trkpt lat="38.45841033700589" lon="15.933804847496798"><ele>44.0</ele><time>2026-04-12T16:20:10Z</time></trkpt><trkpt lat="38.45827902223133" lon="15.93363246761204"><ele>44.0</ele><time>2026-04-12T16:20:11Z</time></trkpt><trkpt lat="38.45813001149442" lon="15.933476994881321"><ele>44.0</ele><time>2026-04-12T16:20:12Z</time></trkpt><trkpt lat="38.45798599565891" lon="15.933312464785224"><ele>44.0</ele><time>2026-04-12T16:20:13Z</time></trkpt><trkpt lat="38.45784656526086" lon="15.933151120042513"><ele>44.0</ele><time>2026-04-12T16:20:14Z</time></trkpt><trkpt lat="38.45770193678116" lon="15.93298639329008"><ele>44.0</ele><time>2026-04-12T16:20:15Z</time></trkpt><trkpt lat="38.457555738111544" lon="15.932821899767944"><ele>44.0</ele><time>2026-04-12T16:20:16Z</time></trkpt><trkpt lat="38.45740697591978" lon="15.932655556637593"><ele>44.0</ele><time>2026-04-12T16:20:17Z</time></trkpt><trkpt lat="38.45725897118731" lon="15.93248955361937"><ele>44.0</ele><time>2026-04-12T16:20:18Z</time></trkpt><trkpt lat="38.457113881524705" lon="15.932323167007159"><ele>44.0</ele><time>2026-04-12T16:20:19Z</time></trkpt><trkpt lat="38.4569690998251" lon="15.932158187544124"><ele>44.0</ele><time>2026-04-12T16:20:20Z</time></trkpt><trkpt lat="38.45682637017479" lon="15.931990409030211"><ele>44.0</ele><time>2026-04-12T16:20:21Z</time></trkpt><trkpt lat="38.45668283574437" lon="15.931823132194493"><ele>44.33333333333333</ele><time>2026-04-12T16:20:22Z</time></trkpt><trkpt lat="38.45653378749605" lon="15.931657880039294"><ele>44.666666666666664</ele><time>2026-04-12T16:20:23Z</time></trkpt><trkpt lat="38.45638822782711" lon="15.931496304859035"><ele>45.0</ele><time>2026-04-12T16:20:24Z</time></trkpt><trkpt lat="38.456241089853584" lon="15.93133312019711"><ele>44.333333333333336</ele><time>2026-04-12T16:20:25Z</time></trkpt><trkpt lat="38.45609924697662" lon="15.93117083306578"><ele>43.66666666666667</ele><time>2026-04-12T16:20:26Z</time></trkpt><trkpt lat="38.45596042414043" lon="15.931008985519952"><ele>43.0</ele><time>2026-04-12T16:20:27Z</time></trkpt><trkpt lat="38.45582254182819" lon="15.930848623426858"><ele>43.0</ele><time>2026-04-12T16:20:28Z</time></trkpt><trkpt lat="38.4556830623687" lon="15.930691876805524"><ele>43.0</ele><time>2026-04-12T16:20:29Z</time></trkpt><trkpt lat="38.455539586666674" lon="15.930533831086393"><ele>43.0</ele><time>2026-04-12T16:20:30Z</time></trkpt><trkpt lat="38.455400910474864" lon="15.9303721296507"><ele>43.66666666666667</ele><time>2026-04-12T16:20:31Z</time></trkpt><trkpt lat="38.455259778442816" lon="15.930201936838069"><ele>44.333333333333336</ele><time>2026-04-12T16:20:32Z</time></trkpt><trkpt lat="38.45511326103229" lon="15.930033483581251"><ele>45.0</ele><time>2026-04-12T16:20:33Z</time></trkpt><trkpt lat="38.45495431412958" lon="15.929858376417126"><ele>45.0</ele><time>2026-04-12T16:20:34Z</time></trkpt><trkpt lat="38.45479139791646" lon="15.929683681501174"><ele>45.0</ele><time>2026-04-12T16:20:35Z</time></trkpt><trkpt lat="38.454634954962714" lon="15.929509751580396"><ele>45.0</ele><time>2026-04-12T16:20:36Z</time></trkpt><trkpt lat="38.45447987555056" lon="15.929334805657543"><ele>44.333333333333336</ele><time>2026-04-12T16:20:37Z</time></trkpt><trkpt lat="38.454326205513055" lon="15.929158526779842"><ele>43.66666666666667</ele><time>2026-04-12T16:20:38Z</time></trkpt><trkpt lat="38.454171412538116" lon="15.928985228640329"><ele>43.0</ele><time>2026-04-12T16:20:39Z</time></trkpt><trkpt lat="38.454017054351134" lon="15.928812375583375"><ele>43.0</ele><time>2026-04-12T16:20:40Z</time></trkpt><trkpt lat="38.453867313465175" lon="15.928643628267203"><ele>43.0</ele><time>2026-04-12T16:20:41Z</time></trkpt><trkpt lat="38.45371902457753" lon="15.928473042891406"><ele>43.0</ele><time>2026-04-12T16:20:42Z</time></trkpt><trkpt lat="38.453574617866956" lon="15.928307481704852"><ele>43.66666666666667</ele><time>2026-04-12T16:20:43Z</time></trkpt><trkpt lat="38.45343458240247" lon="15.92814579714709"><ele>44.333333333333336</ele><time>2026-04-12T16:20:44Z</time></trkpt><trkpt lat="38.45329866057552" lon="15.927985517584863"><ele>45.0</ele><time>2026-04-12T16:20:45Z</time></trkpt><trkpt lat="38.45315932945492" lon="15.92782783930925"><ele>45.0</ele><time>2026-04-12T16:20:46Z</time></trkpt><trkpt lat="38.45302026155367" lon="15.927668855884416"><ele>45.0</ele><time>2026-04-12T16:20:47Z</time></trkpt><trkpt lat="38.45288355357099" lon="15.927512034683454"><ele>45.0</ele><time>2026-04-12T16:20:48Z</time></trkpt><trkpt lat="38.45274292599088" lon="15.927352165115817"><ele>44.0</ele><time>2026-04-12T16:20:49Z</time></trkpt><trkpt lat="38.45260004291571" lon="15.927194925608315"><ele>43.0</ele><time>2026-04-12T16:20:50Z</time></trkpt><trkpt lat="38.4524540818714" lon="15.927033465636024"><ele>42.0</ele><time>2026-04-12T16:20:51Z</time></trkpt><trkpt lat="38.45231058468762" lon="15.926870872258588"><ele>42.0</ele><time>2026-04-12T16:20:52Z</time></trkpt><trkpt lat="38.4521582166314" lon="15.926702508884823"><ele>42.0</ele><time>2026-04-12T16:20:53Z</time></trkpt><trkpt lat="38.45200899275388" lon="15.926536757228508"><ele>42.0</ele><time>2026-04-12T16:20:54Z</time></trkpt><trkpt lat="38.45186051917384" lon="15.926365487259776"><ele>42.0</ele><time>2026-04-12T16:20:55Z</time></trkpt><trkpt lat="38.45171097142982" lon="15.926202268100267"><ele>42.0</ele><time>2026-04-12T16:20:56Z</time></trkpt><trkpt lat="38.45156234997084" lon="15.926035272463537"><ele>42.0</ele><time>2026-04-12T16:20:57Z</time></trkpt><trkpt lat="38.451413843039425" lon="15.92586701868082"><ele>42.333333333333336</ele><time>2026-04-12T16:20:58Z</time></trkpt><trkpt lat="38.45126734812251" lon="15.92569958304406"><ele>42.66666666666667</ele><time>2026-04-12T16:20:59Z</time></trkpt><trkpt lat="38.45111938791998" lon="15.925530158323541"><ele>43.0</ele><time>2026-04-12T16:21:00Z</time></trkpt><trkpt lat="38.45097130250261" lon="15.925361789087978"><ele>43.0</ele><time>2026-04-12T16:21:01Z</time></trkpt><trkpt lat="38.45082737084685" lon="15.925196793103037"><ele>43.0</ele><time>2026-04-12T16:21:02Z</time></trkpt><trkpt lat="38.45068361697406" lon="15.925032474556335"><ele>43.0</ele><time>2026-04-12T16:21:03Z</time></trkpt><trkpt lat="38.45053842351132" lon="15.92486680469663"><ele>41.66666666666667</ele><time>2026-04-12T16:21:04Z</time></trkpt><trkpt lat="38.45039841869906" lon="15.924707681828863"><ele>40.333333333333336</ele><time>2026-04-12T16:21:05Z</time></trkpt><trkpt lat="38.450261828785266" lon="15.924546673981613"><ele>39.0</ele><time>2026-04-12T16:21:06Z</time></trkpt><trkpt lat="38.45011168869805" lon="15.924387706471366"><ele>39.0</ele><time>2026-04-12T16:21:07Z</time></trkpt><trkpt lat="38.44997528215919" lon="15.924209610129266"><ele>39.0</ele><time>2026-04-12T16:21:08Z</time></trkpt><trkpt lat="38.44982610834521" lon="15.924064131908674"><ele>39.0</ele><time>2026-04-12T16:21:09Z</time></trkpt><trkpt lat="38.44968403516624" lon="15.923901173534519"><ele>39.333333333333336</ele><time>2026-04-12T16:21:10Z</time></trkpt><trkpt lat="38.44954141405158" lon="15.92373846530304"><ele>39.66666666666667</ele><time>2026-04-12T16:21:11Z</time></trkpt><trkpt lat="38.44939786586247" lon="15.923565283026797"><ele>40.0</ele><time>2026-04-12T16:21:12Z</time></trkpt><trkpt lat="38.44924811142355" lon="15.923396216739159"><ele>40.0</ele><time>2026-04-12T16:21:13Z</time></trkpt><trkpt lat="38.44909702573817" lon="15.923225194805113"><ele>40.0</ele><time>2026-04-12T16:21:14Z</time></trkpt><trkpt lat="38.448946002485094" lon="15.923057249993587"><ele>40.0</ele><time>2026-04-12T16:21:15Z</time></trkpt><trkpt lat="38.44879677399407" lon="15.922891183798832"><ele>39.66666666666667</ele><time>2026-04-12T16:21:16Z</time></trkpt><trkpt lat="38.44865487088459" lon="15.922737905444459"><ele>39.333333333333336</ele><time>2026-04-12T16:21:17Z</time></trkpt><trkpt lat="38.44852230632277" lon="15.922596253657387"><ele>39.0</ele><time>2026-04-12T16:21:18Z</time></trkpt><trkpt lat="38.44840534321745" lon="15.922440600630086"><ele>38.666666666666664</ele><time>2026-04-12T16:21:19Z</time></trkpt><trkpt lat="38.448261610841044" lon="15.922316354968"><ele>38.33333333333333</ele><time>2026-04-12T16:21:20Z</time></trkpt><trkpt lat="38.44812559477466" lon="15.922176287137823"><ele>38.0</ele><time>2026-04-12T16:21:21Z</time></trkpt><trkpt lat="38.44800089247948" lon="15.922022131879316"><ele>38.0</ele><time>2026-04-12T16:21:22Z</time></trkpt><trkpt lat="38.44786384366687" lon="15.921882044895233"><ele>38.0</ele><time>2026-04-12T16:21:23Z</time></trkpt><trkpt lat="38.4477209176287" lon="15.921736509119297"><ele>38.0</ele><time>2026-04-12T16:21:24Z</time></trkpt><trkpt lat="38.44756793247053" lon="15.921605392082064"><ele>37.0</ele><time>2026-04-12T16:21:25Z</time></trkpt><trkpt lat="38.447422285014405" lon="15.921451279896552"><ele>36.0</ele><time>2026-04-12T16:21:26Z</time></trkpt><trkpt lat="38.447291858169" lon="15.921293654399248"><ele>35.0</ele><time>2026-04-12T16:21:27Z</time></trkpt><trkpt lat="38.4471587021664" lon="15.921156217124258"><ele>35.0</ele><time>2026-04-12T16:21:28Z</time></trkpt><trkpt lat="38.447025909064116" lon="15.921020403157007"><ele>35.0</ele><time>2026-04-12T16:21:29Z</time></trkpt><trkpt lat="38.44687998612345" lon="15.920896562892528"><ele>35.0</ele><time>2026-04-12T16:21:30Z</time></trkpt><trkpt lat="38.44674103033779" lon="15.92075298077243"><ele>35.0</ele><time>2026-04-12T16:21:31Z</time></trkpt><trkpt lat="38.446597420481616" lon="15.920615239971013"><ele>35.0</ele><time>2026-04-12T16:21:32Z</time></trkpt><trkpt lat="38.44642885157931" lon="15.92048473624152"><ele>35.0</ele><time>2026-04-12T16:21:33Z</time></trkpt><trkpt lat="38.44625344535959" lon="15.920377161626527"><ele>36.33333333333333</ele><time>2026-04-12T16:21:34Z</time></trkpt><trkpt lat="38.446061947609024" lon="15.920280589016487"><ele>37.666666666666664</ele><time>2026-04-12T16:21:35Z</time></trkpt><trkpt lat="38.445877891271444" lon="15.920174185360937"><ele>39.0</ele><time>2026-04-12T16:21:36Z</time></trkpt><trkpt lat="38.44569786657092" lon="15.920069386141906"><ele>38.0</ele><time>2026-04-12T16:21:37Z</time></trkpt><trkpt lat="38.445517197767614" lon="15.919964862872968"><ele>37.0</ele><time>2026-04-12T16:21:38Z</time></trkpt><trkpt lat="38.44533781873105" lon="15.919860943571015"><ele>36.0</ele><time>2026-04-12T16:21:39Z</time></trkpt><trkpt lat="38.44517651360318" lon="15.919743654691624"><ele>36.0</ele><time>2026-04-12T16:21:40Z</time></trkpt><trkpt lat="38.44500255350077" lon="15.919664990920653"><ele>36.0</ele><time>2026-04-12T16:21:41Z</time></trkpt><trkpt lat="38.44483627481787" lon="15.91956412025479"><ele>36.0</ele><time>2026-04-12T16:21:42Z</time></trkpt><trkpt lat="38.44467075478329" lon="15.919464226167998"><ele>36.0</ele><time>2026-04-12T16:21:43Z</time></trkpt><trkpt lat="38.44450910532037" lon="15.91936824053321"><ele>36.0</ele><time>2026-04-12T16:21:44Z</time></trkpt><trkpt lat="38.44434750042256" lon="15.919273918919147"><ele>36.0</ele><time>2026-04-12T16:21:45Z</time></trkpt><trkpt lat="38.444184176128964" lon="15.919177315764125"><ele>35.666666666666664</ele><time>2026-04-12T16:21:46Z</time></trkpt><trkpt lat="38.44402085698197" lon="15.919078944573004"><ele>35.33333333333333</ele><time>2026-04-12T16:21:47Z</time></trkpt><trkpt lat="38.44385752741865" lon="15.918982068066168"><ele>35.0</ele><time>2026-04-12T16:21:48Z</time></trkpt><trkpt lat="38.44368916031667" lon="15.91888890549064"><ele>35.0</ele><time>2026-04-12T16:21:49Z</time></trkpt><trkpt lat="38.44351918551933" lon="15.918789755712837"><ele>35.0</ele><time>2026-04-12T16:21:50Z</time></trkpt><trkpt lat="38.44334288320384" lon="15.918685813613282"><ele>35.0</ele><time>2026-04-12T16:21:51Z</time></trkpt><trkpt lat="38.443164522331486" lon="15.918578666601034"><ele>35.0</ele><time>2026-04-12T16:21:52Z</time></trkpt><trkpt lat="38.44297827160207" lon="15.91847205600235"><ele>35.0</ele><time>2026-04-12T16:21:53Z</time></trkpt><trkpt lat="38.44279754109717" lon="15.918345744814948"><ele>35.0</ele><time>2026-04-12T16:21:54Z</time></trkpt><trkpt lat="38.44261128368645" lon="15.918235997921515"><ele>35.0</ele><time>2026-04-12T16:21:55Z</time></trkpt><trkpt lat="38.44241975420191" lon="15.918124248686752"><ele>35.0</ele><time>2026-04-12T16:21:56Z</time></trkpt><trkpt lat="38.44221993638533" lon="15.918007663565833"><ele>35.0</ele><time>2026-04-12T16:21:57Z</time></trkpt><trkpt lat="38.44201230846719" lon="15.917886521585686"><ele>35.0</ele><time>2026-04-12T16:21:58Z</time></trkpt><trkpt lat="38.44180810409522" lon="15.917767041346579"><ele>35.0</ele><time>2026-04-12T16:21:59Z</time></trkpt><trkpt lat="38.441612737061845" lon="15.917669947805447"><ele>35.0</ele><time>2026-04-12T16:22:00Z</time></trkpt><trkpt lat="38.44143217202574" lon="15.917561936948104"><ele>34.666666666666664</ele><time>2026-04-12T16:22:01Z</time></trkpt><trkpt lat="38.44125183738845" lon="15.91745069902704"><ele>34.333333333333336</ele><time>2026-04-12T16:22:02Z</time></trkpt><trkpt lat="38.44105705781816" lon="15.917343787526558"><ele>34.0</ele><time>2026-04-12T16:22:03Z</time></trkpt><trkpt lat="38.440869789739395" lon="15.917234380951303"><ele>34.0</ele><time>2026-04-12T16:22:04Z</time></trkpt><trkpt lat="38.44068515544884" lon="15.917127444458638"><ele>34.0</ele><time>2026-04-12T16:22:05Z</time></trkpt><trkpt lat="38.440501387144465" lon="15.917018936310775"><ele>34.0</ele><time>2026-04-12T16:22:06Z</time></trkpt><trkpt lat="38.44032293454165" lon="15.91690781770285"><ele>33.66666666666667</ele><time>2026-04-12T16:22:07Z</time></trkpt><trkpt lat="38.44014347385137" lon="15.91679916583927"><ele>33.333333333333336</ele><time>2026-04-12T16:22:08Z</time></trkpt><trkpt lat="38.43996373858927" lon="15.916699002032031"><ele>33.0</ele><time>2026-04-12T16:22:09Z</time></trkpt><trkpt lat="38.43978476517297" lon="15.916599677921276"><ele>33.0</ele><time>2026-04-12T16:22:10Z</time></trkpt><trkpt lat="38.439606764170165" lon="15.916497181291808"><ele>33.0</ele><time>2026-04-12T16:22:11Z</time></trkpt><trkpt lat="38.43943291210619" lon="15.916392983689736"><ele>33.0</ele><time>2026-04-12T16:22:12Z</time></trkpt><trkpt lat="38.43926031439382" lon="15.91628848761741"><ele>33.0</ele><time>2026-04-12T16:22:13Z</time></trkpt><trkpt lat="38.4390820750043" lon="15.916188306642193"><ele>33.0</ele><time>2026-04-12T16:22:14Z</time></trkpt><trkpt lat="38.43890549527698" lon="15.916088340263085"><ele>33.0</ele><time>2026-04-12T16:22:15Z</time></trkpt><trkpt lat="38.43873673967313" lon="15.9159658411674"><ele>34.0</ele><time>2026-04-12T16:22:16Z</time></trkpt><trkpt lat="38.438564202398425" lon="15.915864193427927"><ele>35.0</ele><time>2026-04-12T16:22:17Z</time></trkpt><trkpt lat="38.43839463335341" lon="15.91576429436981"><ele>36.0</ele><time>2026-04-12T16:22:18Z</time></trkpt><trkpt lat="38.438219124503036" lon="15.915683647206743"><ele>36.0</ele><time>2026-04-12T16:22:19Z</time></trkpt><trkpt lat="38.438048204728" lon="15.91556133918901"><ele>36.0</ele><time>2026-04-12T16:22:20Z</time></trkpt><trkpt lat="38.43787963984674" lon="15.915462942711267"><ele>36.0</ele><time>2026-04-12T16:22:21Z</time></trkpt><trkpt lat="38.4377065521607" lon="15.91536190613402"><ele>36.0</ele><time>2026-04-12T16:22:22Z</time></trkpt><trkpt lat="38.437533739149245" lon="15.915260596825043"><ele>36.0</ele><time>2026-04-12T16:22:23Z</time></trkpt><trkpt lat="38.437356581318404" lon="15.915156157910266"><ele>36.0</ele><time>2026-04-12T16:22:24Z</time></trkpt><trkpt lat="38.437179026603786" lon="15.915051485022813"><ele>35.0</ele><time>2026-04-12T16:22:25Z</time></trkpt><trkpt lat="38.43699995990986" lon="15.914945920787291"><ele>34.0</ele><time>2026-04-12T16:22:26Z</time></trkpt><trkpt lat="38.43682532776587" lon="15.914842970825877"><ele>33.0</ele><time>2026-04-12T16:22:27Z</time></trkpt><trkpt lat="38.436633753247136" lon="15.914765517060907"><ele>33.0</ele><time>2026-04-12T16:22:28Z</time></trkpt><trkpt lat="38.43645543470973" lon="15.914662387565555"><ele>33.0</ele><time>2026-04-12T16:22:29Z</time></trkpt><trkpt lat="38.436279930098465" lon="15.914553741362294"><ele>33.0</ele><time>2026-04-12T16:22:30Z</time></trkpt><trkpt lat="38.436102663734175" lon="15.914446195759842"><ele>32.666666666666664</ele><time>2026-04-12T16:22:31Z</time></trkpt><trkpt lat="38.43593347840577" lon="15.9143172831748"><ele>32.33333333333333</ele><time>2026-04-12T16:22:32Z</time></trkpt><trkpt lat="38.435755140581875" lon="15.914213735400384"><ele>32.0</ele><time>2026-04-12T16:22:33Z</time></trkpt><trkpt lat="38.43557751458753" lon="15.914110600935812"><ele>33.666666666666664</ele><time>2026-04-12T16:22:34Z</time></trkpt><trkpt lat="38.43539927548711" lon="15.914007110485244"><ele>35.333333333333336</ele><time>2026-04-12T16:22:35Z</time></trkpt><trkpt lat="38.43521981257842" lon="15.913901664750819"><ele>37.0</ele><time>2026-04-12T16:22:36Z</time></trkpt><trkpt lat="38.435045935077355" lon="15.913799491870552"><ele>37.0</ele><time>2026-04-12T16:22:37Z</time></trkpt><trkpt lat="38.434868203125724" lon="15.913695054060076"><ele>37.0</ele><time>2026-04-12T16:22:38Z</time></trkpt><trkpt lat="38.43468203604831" lon="15.913607522302337"><ele>37.0</ele><time>2026-04-12T16:22:39Z</time></trkpt><trkpt lat="38.43451165859584" lon="15.913483321948217"><ele>37.333333333333336</ele><time>2026-04-12T16:22:40Z</time></trkpt><trkpt lat="38.43432792173862" lon="15.91340512583784"><ele>37.666666666666664</ele><time>2026-04-12T16:22:41Z</time></trkpt><trkpt lat="38.434128141869" lon="15.913307236954196"><ele>38.0</ele><time>2026-04-12T16:22:42Z</time></trkpt><trkpt lat="38.433962738738956" lon="15.913209385643919"><ele>38.0</ele><time>2026-04-12T16:22:43Z</time></trkpt><trkpt lat="38.43380769783102" lon="15.913115010948697"><ele>38.0</ele><time>2026-04-12T16:22:44Z</time></trkpt><trkpt lat="38.43367828408883" lon="15.912978222395681"><ele>38.0</ele><time>2026-04-12T16:22:45Z</time></trkpt><trkpt lat="38.43355986084779" lon="15.912866512505882"><ele>36.33333333333333</ele><time>2026-04-12T16:22:46Z</time></trkpt><trkpt lat="38.43346249541921" lon="15.912723319834152"><ele>34.666666666666664</ele><time>2026-04-12T16:22:47Z</time></trkpt><trkpt lat="38.433375428384075" lon="15.912550346958138"><ele>33.0</ele><time>2026-04-12T16:22:48Z</time></trkpt><trkpt lat="38.43330302890711" lon="15.912346339797343"><ele>33.0</ele><time>2026-04-12T16:22:49Z</time></trkpt><trkpt lat="38.43324095157704" lon="15.912121542652638"><ele>33.0</ele><time>2026-04-12T16:22:50Z</time></trkpt><trkpt lat="38.43319440279143" lon="15.911894511566988"><ele>33.0</ele><time>2026-04-12T16:22:51Z</time></trkpt><trkpt lat="38.433149888340296" lon="15.911663268387693"><ele>33.333333333333336</ele><time>2026-04-12T16:22:52Z</time></trkpt><trkpt lat="38.43310374246117" lon="15.91142090700462"><ele>33.66666666666667</ele><time>2026-04-12T16:22:53Z</time></trkpt><trkpt lat="38.43304350914872" lon="15.911194578796856"><ele>34.0</ele><time>2026-04-12T16:22:54Z</time></trkpt><trkpt lat="38.43300143051406" lon="15.910962848206415"><ele>28.0</ele><time>2026-04-12T16:22:55Z</time></trkpt><trkpt lat="38.432962686318135" lon="15.910735868098433"><ele>22.0</ele><time>2026-04-12T16:22:56Z</time></trkpt><trkpt lat="38.43291788196246" lon="15.91051086321448"><ele>16.0</ele><time>2026-04-12T16:22:57Z</time></trkpt><trkpt lat="38.43287430458663" lon="15.91029815449518"><ele>16.0</ele><time>2026-04-12T16:22:58Z</time></trkpt><trkpt lat="38.432838066680226" lon="15.910090758953185"><ele>16.0</ele><time>2026-04-12T16:22:59Z</time></trkpt><trkpt lat="38.43275413070221" lon="15.909908485140102"><ele>16.0</ele><time>2026-04-12T16:23:00Z</time></trkpt><trkpt lat="38.43265000410278" lon="15.909745331948416"><ele>17.0</ele><time>2026-04-12T16:23:01Z</time></trkpt><trkpt lat="38.432527972871156" lon="15.90958355091315"><ele>18.0</ele><time>2026-04-12T16:23:02Z</time></trkpt><trkpt lat="38.43242099843192" lon="15.909426596532724"><ele>19.0</ele><time>2026-04-12T16:23:03Z</time></trkpt><trkpt lat="38.432312044156404" lon="15.909274122277163"><ele>20.666666666666664</ele><time>2026-04-12T16:23:04Z</time></trkpt><trkpt lat="38.432215730042294" lon="15.90911687388283"><ele>22.333333333333332</ele><time>2026-04-12T16:23:05Z</time></trkpt><trkpt lat="38.432118713997504" lon="15.908951488830779"><ele>24.0</ele><time>2026-04-12T16:23:06Z</time></trkpt><trkpt lat="38.43203311429672" lon="15.908800300725877"><ele>21.75</ele><time>2026-04-12T16:23:07Z</time></trkpt><trkpt lat="38.431946823307754" lon="15.908647031470528"><ele>19.5</ele><time>2026-04-12T16:23:08Z</time></trkpt><trkpt lat="38.43185852808259" lon="15.908502917791397"><ele>17.25</ele><time>2026-04-12T16:23:09Z</time></trkpt><trkpt lat="38.4317723949365" lon="15.90836008598479"><ele>15.0</ele><time>2026-04-12T16:23:10Z</time></trkpt><trkpt lat="38.43169600695148" lon="15.908217411656318"><ele>15.0</ele><time>2026-04-12T16:23:11Z</time></trkpt><trkpt lat="38.43164602051607" lon="15.908069764592042"><ele>15.0</ele><time>2026-04-12T16:23:12Z</time></trkpt><trkpt lat="38.431547281583725" lon="15.907956834737693"><ele>15.0</ele><time>2026-04-12T16:23:13Z</time></trkpt><trkpt lat="38.431422546043535" lon="15.90781685932169"><ele>15.0</ele><time>2026-04-12T16:23:14Z</time></trkpt><trkpt lat="38.43131153911805" lon="15.907687904089325"><ele>14.25</ele><time>2026-04-12T16:23:15Z</time></trkpt><trkpt lat="38.43119231306407" lon="15.907572738343326"><ele>13.5</ele><time>2026-04-12T16:23:16Z</time></trkpt><trkpt lat="38.431072236819055" lon="15.907461219650923"><ele>12.75</ele><time>2026-04-12T16:23:17Z</time></trkpt><trkpt lat="38.430957765895585" lon="15.907347250553194"><ele>12.0</ele><time>2026-04-12T16:23:18Z</time></trkpt><trkpt lat="38.430839171233686" lon="15.907242799781432"><ele>12.0</ele><time>2026-04-12T16:23:19Z</time></trkpt><trkpt lat="38.43072366168541" lon="15.907134368392196"><ele>12.0</ele><time>2026-04-12T16:23:20Z</time></trkpt><trkpt lat="38.43060941383577" lon="15.907031172633314"><ele>12.0</ele><time>2026-04-12T16:23:21Z</time></trkpt><trkpt lat="38.43049713530856" lon="15.906940349963698"><ele>12.0</ele><time>2026-04-12T16:23:22Z</time></trkpt><trkpt lat="38.430394452329736" lon="15.906845592312678"><ele>11.6</ele><time>2026-04-12T16:23:23Z</time></trkpt><trkpt lat="38.43028573271432" lon="15.906727857876472"><ele>11.2</ele><time>2026-04-12T16:23:24Z</time></trkpt><trkpt lat="38.430219138249676" lon="15.90667107501711"><ele>10.8</ele><time>2026-04-12T16:23:25Z</time></trkpt><trkpt lat="38.43016676193697" lon="15.90660701209353"><ele>10.4</ele><time>2026-04-12T16:23:26Z</time></trkpt><trkpt lat="38.43007144393941" lon="15.906527501844648"><ele>10.0</ele><time>2026-04-12T16:23:27Z</time></trkpt><trkpt lat="38.429991538938616" lon="15.906469629350239"><ele>10.0</ele><time>2026-04-12T16:23:28Z</time></trkpt><trkpt lat="38.42991030991103" lon="15.906402227823513"><ele>10.0</ele><time>2026-04-12T16:23:29Z</time></trkpt><trkpt lat="38.4298307585076" lon="15.906326548320902"><ele>10.0</ele><time>2026-04-12T16:23:30Z</time></trkpt><trkpt lat="38.42975986460908" lon="15.906261252550207"><ele>10.0</ele><time>2026-04-12T16:23:31Z</time></trkpt><trkpt lat="38.42969795776652" lon="15.906201801621329"><ele>10.0</ele><time>2026-04-12T16:23:32Z</time></trkpt><trkpt lat="38.4296456702088" lon="15.906155767941696"><ele>10.0</ele><time>2026-04-12T16:23:33Z</time></trkpt><trkpt lat="38.429549152962686" lon="15.906065259860801"><ele>9.833333333333334</ele><time>2026-04-12T16:23:35Z</time></trkpt><trkpt lat="38.429502872327426" lon="15.906005653602142"><ele>9.666666666666668</ele><time>2026-04-12T16:23:36Z</time></trkpt><trkpt lat="38.429440498690035" lon="15.905947270197531"><ele>9.5</ele><time>2026-04-12T16:23:37Z</time></trkpt><trkpt lat="38.42937664102857" lon="15.9058874977059"><ele>9.333333333333334</ele><time>2026-04-12T16:23:38Z</time></trkpt><trkpt lat="38.42930439058375" lon="15.90581986934592"><ele>9.166666666666666</ele><time>2026-04-12T16:23:39Z</time></trkpt><trkpt lat="38.42923339105955" lon="15.905753411938973"><ele>9.0</ele><time>2026-04-12T16:23:40Z</time></trkpt><trkpt lat="38.42915470961171" lon="15.905680011889931"><ele>9.4</ele><time>2026-04-12T16:23:41Z</time></trkpt><trkpt lat="38.42906715300696" lon="15.905624237648583"><ele>9.8</ele><time>2026-04-12T16:23:42Z</time></trkpt><trkpt lat="38.42898978824878" lon="15.90554383137622"><ele>10.200000000000001</ele><time>2026-04-12T16:23:43Z</time></trkpt><trkpt lat="38.428898966782036" lon="15.905458457356284"><ele>10.600000000000001</ele><time>2026-04-12T16:23:44Z</time></trkpt><trkpt lat="38.42879116610606" lon="15.905362747092648"><ele>11.0</ele><time>2026-04-12T16:23:45Z</time></trkpt><trkpt lat="38.42867442623613" lon="15.905261308273"><ele>11.25</ele><time>2026-04-12T16:23:46Z</time></trkpt><trkpt lat="38.42856383732405" lon="15.905167029442097"><ele>11.5</ele><time>2026-04-12T16:23:47Z</time></trkpt><trkpt lat="38.42846235325922" lon="15.905097530883165"><ele>11.75</ele><time>2026-04-12T16:23:48Z</time></trkpt><trkpt lat="38.428361939701226" lon="15.905049978956642"><ele>12.0</ele><time>2026-04-12T16:23:49Z</time></trkpt><trkpt lat="38.42826120203376" lon="15.905050335727006"><ele>12.0</ele><time>2026-04-12T16:23:50Z</time></trkpt><trkpt lat="38.428156211019214" lon="15.905081804532609"><ele>12.0</ele><time>2026-04-12T16:23:51Z</time></trkpt><trkpt lat="38.428054508651805" lon="15.905129570485338"><ele>12.0</ele><time>2026-04-12T16:23:52Z</time></trkpt><trkpt lat="38.427951113476" lon="15.905143690830975"><ele>12.0</ele><time>2026-04-12T16:23:53Z</time></trkpt><trkpt lat="38.42785977247876" lon="15.905167128563068"><ele>12.0</ele><time>2026-04-12T16:23:54Z</time></trkpt><trkpt lat="38.4277637416905" lon="15.905187253500165"><ele>13.399999999999999</ele><time>2026-04-12T16:23:55Z</time></trkpt><trkpt lat="38.42766196821175" lon="15.905195261195974"><ele>14.799999999999999</ele><time>2026-04-12T16:23:56Z</time></trkpt><trkpt lat="38.42755518752057" lon="15.905183809326005"><ele>16.2</ele><time>2026-04-12T16:23:57Z</time></trkpt><trkpt lat="38.42745365829226" lon="15.905162538705257"><ele>17.599999999999998</ele><time>2026-04-12T16:23:58Z</time></trkpt><trkpt lat="38.42737105263036" lon="15.90515471324839"><ele>19.0</ele><time>2026-04-12T16:23:59Z</time></trkpt><trkpt lat="38.42727408233458" lon="15.905142973336407"><ele>19.0</ele><time>2026-04-12T16:24:00Z</time></trkpt><trkpt lat="38.427189127583674" lon="15.905110190151495"><ele>19.0</ele><time>2026-04-12T16:24:01Z</time></trkpt><trkpt lat="38.42709840445717" lon="15.905097561311619"><ele>19.0</ele><time>2026-04-12T16:24:02Z</time></trkpt><trkpt lat="38.42700837079566" lon="15.905068028145655"><ele>19.0</ele><time>2026-04-12T16:24:03Z</time></trkpt><trkpt lat="38.426908739087665" lon="15.905025558807209"><ele>19.0</ele><time>2026-04-12T16:24:04Z</time></trkpt><trkpt lat="38.426793595938854" lon="15.90497174620335"><ele>20.5</ele><time>2026-04-12T16:24:05Z</time></trkpt><trkpt lat="38.426678917956764" lon="15.90491663585411"><ele>22.0</ele><time>2026-04-12T16:24:06Z</time></trkpt><trkpt lat="38.4265585818998" lon="15.904857823262343"><ele>23.5</ele><time>2026-04-12T16:24:07Z</time></trkpt><trkpt lat="38.42642290505866" lon="15.904793740856292"><ele>25.0</ele><time>2026-04-12T16:24:08Z</time></trkpt><trkpt lat="38.42629402695484" lon="15.904728749827413"><ele>26.75</ele><time>2026-04-12T16:24:09Z</time></trkpt><trkpt lat="38.426179479861545" lon="15.904671031843671"><ele>28.5</ele><time>2026-04-12T16:24:10Z</time></trkpt><trkpt lat="38.42606753280461" lon="15.904612964476902"><ele>30.25</ele><time>2026-04-12T16:24:11Z</time></trkpt><trkpt lat="38.42595702038081" lon="15.904557501110165"><ele>32.0</ele><time>2026-04-12T16:24:12Z</time></trkpt><trkpt lat="38.425853940577" lon="15.904512312428924"><ele>32.0</ele><time>2026-04-12T16:24:13Z</time></trkpt><trkpt lat="38.425752211526294" lon="15.90446492936376"><ele>32.0</ele><time>2026-04-12T16:24:14Z</time></trkpt><trkpt lat="38.42564908446182" lon="15.904419311157088"><ele>32.0</ele><time>2026-04-12T16:24:15Z</time></trkpt><trkpt lat="38.42552913397094" lon="15.90435866954217"><ele>32.0</ele><time>2026-04-12T16:24:16Z</time></trkpt><trkpt lat="38.42541144873447" lon="15.904296206556594"><ele>33.25</ele><time>2026-04-12T16:24:17Z</time></trkpt><trkpt lat="38.42530151330797" lon="15.904234685372607"><ele>34.5</ele><time>2026-04-12T16:24:18Z</time></trkpt><trkpt lat="38.42519838884152" lon="15.904168610513828"><ele>35.75</ele><time>2026-04-12T16:24:19Z</time></trkpt><trkpt lat="38.42510123670185" lon="15.904100434291149"><ele>37.0</ele><time>2026-04-12T16:24:20Z</time></trkpt><trkpt lat="38.4250053535233" lon="15.904023170582894"><ele>37.0</ele><time>2026-04-12T16:24:21Z</time></trkpt><trkpt lat="38.42491018799756" lon="15.90393669282349"><ele>37.0</ele><time>2026-04-12T16:24:22Z</time></trkpt><trkpt lat="38.424806843789824" lon="15.903847236673135"><ele>37.0</ele><time>2026-04-12T16:24:23Z</time></trkpt><trkpt lat="38.42472193673485" lon="15.903743173152153"><ele>37.0</ele><time>2026-04-12T16:24:24Z</time></trkpt><trkpt lat="38.424618485409596" lon="15.903597366500897"><ele>37.0</ele><time>2026-04-12T16:24:25Z</time></trkpt><trkpt lat="38.42450853234463" lon="15.90343801353744"><ele>37.0</ele><time>2026-04-12T16:24:26Z</time></trkpt><trkpt lat="38.42439608032861" lon="15.903247663453206"><ele>37.0</ele><time>2026-04-12T16:24:27Z</time></trkpt><trkpt lat="38.424278355297204" lon="15.90306327690401"><ele>37.333333333333336</ele><time>2026-04-12T16:24:28Z</time></trkpt><trkpt lat="38.42415304448105" lon="15.902894188102843"><ele>37.666666666666664</ele><time>2026-04-12T16:24:29Z</time></trkpt><trkpt lat="38.4240071248127" lon="15.902724108502259"><ele>38.0</ele><time>2026-04-12T16:24:30Z</time></trkpt><trkpt lat="38.4238748512434" lon="15.902504346583328"><ele>37.666666666666664</ele><time>2026-04-12T16:24:31Z</time></trkpt><trkpt lat="38.42374715485265" lon="15.90231659012902"><ele>37.333333333333336</ele><time>2026-04-12T16:24:32Z</time></trkpt><trkpt lat="38.423618797914635" lon="15.902141284369259"><ele>37.0</ele><time>2026-04-12T16:24:33Z</time></trkpt><trkpt lat="38.42351398446732" lon="15.901975947887173"><ele>37.0</ele><time>2026-04-12T16:24:34Z</time></trkpt><trkpt lat="38.42343521353279" lon="15.901863752334098"><ele>37.0</ele><time>2026-04-12T16:24:35Z</time></trkpt><trkpt lat="38.42336630681569" lon="15.901771231741348"><ele>37.0</ele><time>2026-04-12T16:24:36Z</time></trkpt><trkpt lat="38.42330733902646" lon="15.901685151938427"><ele>37.0</ele><time>2026-04-12T16:24:37Z</time></trkpt><trkpt lat="38.42325070588163" lon="15.901606108552956"><ele>37.0</ele><time>2026-04-12T16:24:38Z</time></trkpt><trkpt lat="38.42320146524949" lon="15.901540684701098"><ele>37.16666666666667</ele><time>2026-04-12T16:24:39Z</time></trkpt><trkpt lat="38.423139054822116" lon="15.901452945902445"><ele>37.333333333333336</ele><time>2026-04-12T16:24:41Z</time></trkpt><trkpt lat="38.42309495234524" lon="15.901389218832136"><ele>37.5</ele><time>2026-04-12T16:24:44Z</time></trkpt><trkpt lat="38.423048628010406" lon="15.901317927851007"><ele>37.666666666666664</ele><time>2026-04-12T16:24:53Z</time></trkpt><trkpt lat="38.42302492770412" lon="15.90121283332643"><ele>37.83333333333333</ele><time>2026-04-12T16:24:57Z</time></trkpt><trkpt lat="38.42297779329669" lon="15.901154950267959"><ele>38.0</ele><time>2026-04-12T16:26:21Z</time></trkpt><trkpt lat="38.422933068711984" lon="15.901074625217248"><ele>38.199999999999996</ele><time>2026-04-12T16:26:23Z</time></trkpt><trkpt lat="38.42287706567225" lon="15.900957362435054"><ele>38.4</ele><time>2026-04-12T16:26:25Z</time></trkpt><trkpt lat="38.42282615295191" lon="15.900879105386219"><ele>38.599999999999994</ele><time>2026-04-12T16:26:27Z</time></trkpt><trkpt lat="38.42273585203273" lon="15.90081851728355"><ele>38.8</ele><time>2026-04-12T16:26:29Z</time></trkpt><trkpt lat="38.422747756577564" lon="15.900697595750936"><ele>39.0</ele><time>2026-04-12T16:26:31Z</time></trkpt><trkpt lat="38.4226556689584" lon="15.900577386109877"><ele>39.4</ele><time>2026-04-12T16:26:33Z</time></trkpt><trkpt lat="38.42259626846573" lon="15.900496698321806"><ele>39.8</ele><time>2026-04-12T16:26:34Z</time></trkpt><trkpt lat="38.422532371694224" lon="15.90040857031777"><ele>40.199999999999996</ele><time>2026-04-12T16:26:35Z</time></trkpt><trkpt lat="38.42247233631833" lon="15.90029239389544"><ele>40.599999999999994</ele><time>2026-04-12T16:26:36Z</time></trkpt><trkpt lat="38.42241108949355" lon="15.900168625905184"><ele>41.0</ele><time>2026-04-12T16:26:37Z</time></trkpt><trkpt lat="38.422336423619896" lon="15.900044009185441"><ele>41.0</ele><time>2026-04-12T16:26:38Z</time></trkpt><trkpt lat="38.42226710309624" lon="15.899912486192717"><ele>41.0</ele><time>2026-04-12T16:26:39Z</time></trkpt><trkpt lat="38.422186811266236" lon="15.899774916926935"><ele>41.0</ele><time>2026-04-12T16:26:40Z</time></trkpt><trkpt lat="38.422116385390055" lon="15.899664900560227"><ele>41.0</ele><time>2026-04-12T16:26:41Z</time></trkpt><trkpt lat="38.422067451568886" lon="15.899550884414921"><ele>41.33333333333333</ele><time>2026-04-12T16:26:42Z</time></trkpt><trkpt lat="38.42204736103113" lon="15.8994327240085"><ele>41.666666666666664</ele><time>2026-04-12T16:26:43Z</time></trkpt><trkpt lat="38.422007172872874" lon="15.899348068885466"><ele>42.0</ele><time>2026-04-12T16:26:44Z</time></trkpt><trkpt lat="38.42196981997239" lon="15.899269386121302"><ele>42.333333333333336</ele><time>2026-04-12T16:26:45Z</time></trkpt><trkpt lat="38.42192650682662" lon="15.899178148282143"><ele>42.66666666666667</ele><time>2026-04-12T16:26:46Z</time></trkpt><trkpt lat="38.421888838243035" lon="15.89909880057748"><ele>43.0</ele><time>2026-04-12T16:26:47Z</time></trkpt><trkpt lat="38.42184890463279" lon="15.899014681608456"><ele>42.599999999999994</ele><time>2026-04-12T16:26:48Z</time></trkpt><trkpt lat="38.421799190736245" lon="15.898909960783074"><ele>42.199999999999996</ele><time>2026-04-12T16:26:49Z</time></trkpt><trkpt lat="38.42174500049478" lon="15.898795810177925"><ele>41.8</ele><time>2026-04-12T16:26:50Z</time></trkpt><trkpt lat="38.42168791824049" lon="15.898674906857337"><ele>41.4</ele><time>2026-04-12T16:26:51Z</time></trkpt><trkpt lat="38.42162742990741" lon="15.898547071542875"><ele>41.0</ele><time>2026-04-12T16:26:52Z</time></trkpt><trkpt lat="38.42156605640079" lon="15.8984173655008"><ele>41.0</ele><time>2026-04-12T16:26:53Z</time></trkpt><trkpt lat="38.42151034826085" lon="15.898304905395102"><ele>41.0</ele><time>2026-04-12T16:26:54Z</time></trkpt><trkpt lat="38.421470178794515" lon="15.898223967577684"><ele>41.0</ele><time>2026-04-12T16:26:55Z</time></trkpt><trkpt lat="38.42143272905225" lon="15.898148509777746"><ele>41.0</ele><time>2026-04-12T16:26:56Z</time></trkpt><trkpt lat="38.42138490255224" lon="15.898091531857858"><ele>41.0</ele><time>2026-04-12T16:26:57Z</time></trkpt><trkpt lat="38.42135896051555" lon="15.897998627288429"><ele>41.0</ele><time>2026-04-12T16:26:58Z</time></trkpt><trkpt lat="38.421318928919966" lon="15.897902159491712"><ele>41.199999999999996</ele><time>2026-04-12T16:26:59Z</time></trkpt><trkpt lat="38.42126827901199" lon="15.897802227691528"><ele>41.4</ele><time>2026-04-12T16:27:00Z</time></trkpt><trkpt lat="38.42122312099873" lon="15.897719668438826"><ele>41.6</ele><time>2026-04-12T16:27:01Z</time></trkpt><trkpt lat="38.421169706783914" lon="15.897614385748762"><ele>41.8</ele><time>2026-04-12T16:27:02Z</time></trkpt><trkpt lat="38.42112530191729" lon="15.897513047506505"><ele>42.0</ele><time>2026-04-12T16:27:03Z</time></trkpt><trkpt lat="38.42104832104674" lon="15.897373793902066"><ele>42.0</ele><time>2026-04-12T16:27:04Z</time></trkpt><trkpt lat="38.42097075456299" lon="15.897232741165233"><ele>42.0</ele><time>2026-04-12T16:27:05Z</time></trkpt><trkpt lat="38.42091872160085" lon="15.897095590648833"><ele>42.0</ele><time>2026-04-12T16:27:06Z</time></trkpt><trkpt lat="38.42084516575871" lon="15.896977763520605"><ele>42.0</ele><time>2026-04-12T16:27:07Z</time></trkpt><trkpt lat="38.42079090525452" lon="15.896870507014151"><ele>42.0</ele><time>2026-04-12T16:27:08Z</time></trkpt><trkpt lat="38.42073228445164" lon="15.896775576479584"><ele>42.0</ele><time>2026-04-12T16:27:09Z</time></trkpt><trkpt lat="38.42068605293674" lon="15.89668819656662"><ele>42.0</ele><time>2026-04-12T16:27:10Z</time></trkpt><trkpt lat="38.420652035194415" lon="15.896613727948987"><ele>42.0</ele><time>2026-04-12T16:27:11Z</time></trkpt><trkpt lat="38.420608386538795" lon="15.896538509510522"><ele>42.0</ele><time>2026-04-12T16:27:12Z</time></trkpt><trkpt lat="38.420568186854794" lon="15.896471499067314"><ele>42.0</ele><time>2026-04-12T16:27:13Z</time></trkpt><trkpt lat="38.42052899421057" lon="15.896387844057417"><ele>42.0</ele><time>2026-04-12T16:27:14Z</time></trkpt><trkpt lat="38.420470266201534" lon="15.896287374434477"><ele>42.0</ele><time>2026-04-12T16:27:15Z</time></trkpt><trkpt lat="38.420395847870786" lon="15.89618848440423"><ele>42.0</ele><time>2026-04-12T16:27:16Z</time></trkpt><trkpt lat="38.420321334793286" lon="15.896096448913498"><ele>42.0</ele><time>2026-04-12T16:27:17Z</time></trkpt><trkpt lat="38.42024398206792" lon="15.896007740110104"><ele>42.0</ele><time>2026-04-12T16:27:18Z</time></trkpt><trkpt lat="38.420160776516035" lon="15.895934033881266"><ele>41.75</ele><time>2026-04-12T16:27:19Z</time></trkpt><trkpt lat="38.42007994938369" lon="15.895852290460777"><ele>41.5</ele><time>2026-04-12T16:27:20Z</time></trkpt><trkpt lat="38.41998724984303" lon="15.895778654457903"><ele>41.25</ele><time>2026-04-12T16:27:21Z</time></trkpt><trkpt lat="38.419880038456796" lon="15.89569403831069"><ele>41.0</ele><time>2026-04-12T16:27:22Z</time></trkpt><trkpt lat="38.41974660352728" lon="15.895605240642416"><ele>40.75</ele><time>2026-04-12T16:27:23Z</time></trkpt><trkpt lat="38.419609003936884" lon="15.89551708827675"><ele>40.5</ele><time>2026-04-12T16:27:24Z</time></trkpt><trkpt lat="38.41948597509286" lon="15.895469583014592"><ele>40.25</ele><time>2026-04-12T16:27:25Z</time></trkpt><trkpt lat="38.41938197133422" lon="15.895418366301813"><ele>40.0</ele><time>2026-04-12T16:27:26Z</time></trkpt><trkpt lat="38.41929611113296" lon="15.895385978350538"><ele>40.0</ele><time>2026-04-12T16:27:27Z</time></trkpt><trkpt lat="38.41920055210716" lon="15.895356782717998"><ele>40.0</ele><time>2026-04-12T16:27:28Z</time></trkpt><trkpt lat="38.41910417582366" lon="15.89531391659025"><ele>40.0</ele><time>2026-04-12T16:27:29Z</time></trkpt><trkpt lat="38.41900354391986" lon="15.895277812093385"><ele>40.0</ele><time>2026-04-12T16:27:30Z</time></trkpt><trkpt lat="38.41891373586065" lon="15.895238929123474"><ele>40.0</ele><time>2026-04-12T16:27:31Z</time></trkpt><trkpt lat="38.41878880168601" lon="15.895185676160684"><ele>40.0</ele><time>2026-04-12T16:27:32Z</time></trkpt><trkpt lat="38.418677378063165" lon="15.895140276280857"><ele>40.0</ele><time>2026-04-12T16:27:33Z</time></trkpt><trkpt lat="38.418593961534775" lon="15.895115147710351"><ele>40.0</ele><time>2026-04-12T16:27:34Z</time></trkpt><trkpt lat="38.418509699003984" lon="15.895087255138877"><ele>40.0</ele><time>2026-04-12T16:27:35Z</time></trkpt><trkpt lat="38.41842988275665" lon="15.895058035707315"><ele>40.0</ele><time>2026-04-12T16:27:36Z</time></trkpt><trkpt lat="38.418357135505424" lon="15.895028998986577"><ele>40.0</ele><time>2026-04-12T16:27:37Z</time></trkpt><trkpt lat="38.41828184193004" lon="15.894998694582094"><ele>40.0</ele><time>2026-04-12T16:27:38Z</time></trkpt><trkpt lat="38.418199940069876" lon="15.894963149604857"><ele>40.0</ele><time>2026-04-12T16:27:39Z</time></trkpt><trkpt lat="38.418109573682514" lon="15.89492865700316"><ele>40.0</ele><time>2026-04-12T16:27:40Z</time></trkpt><trkpt lat="38.41801526480592" lon="15.894882487888209"><ele>40.0</ele><time>2026-04-12T16:27:41Z</time></trkpt><trkpt lat="38.417913955805666" lon="15.894835616156309"><ele>40.0</ele><time>2026-04-12T16:27:42Z</time></trkpt><trkpt lat="38.41781327527624" lon="15.894785530698712"><ele>40.6</ele><time>2026-04-12T16:27:43Z</time></trkpt><trkpt lat="38.41771081506492" lon="15.894745159086394"><ele>41.2</ele><time>2026-04-12T16:27:44Z</time></trkpt><trkpt lat="38.41760536452141" lon="15.894705882170447"><ele>41.8</ele><time>2026-04-12T16:27:45Z</time></trkpt><trkpt lat="38.417502995751235" lon="15.894672797819345"><ele>42.4</ele><time>2026-04-12T16:27:46Z</time></trkpt><trkpt lat="38.41740697617474" lon="15.894612126788607"><ele>43.0</ele><time>2026-04-12T16:27:47Z</time></trkpt><trkpt lat="38.417313200318425" lon="15.894566165249023"><ele>43.0</ele><time>2026-04-12T16:27:48Z</time></trkpt><trkpt lat="38.41723144128778" lon="15.89452845731709"><ele>43.0</ele><time>2026-04-12T16:27:49Z</time></trkpt><trkpt lat="38.41715723787093" lon="15.894489565460614"><ele>43.0</ele><time>2026-04-12T16:27:50Z</time></trkpt><trkpt lat="38.41709205430921" lon="15.894453373822065"><ele>43.0</ele><time>2026-04-12T16:27:51Z</time></trkpt><trkpt lat="38.41702988293617" lon="15.894402880788771"><ele>43.0</ele><time>2026-04-12T16:27:52Z</time></trkpt><trkpt lat="38.41695733240726" lon="15.894357241993053"><ele>43.0</ele><time>2026-04-12T16:27:53Z</time></trkpt><trkpt lat="38.416879126211455" lon="15.894305685311302"><ele>43.0</ele><time>2026-04-12T16:27:54Z</time></trkpt><trkpt lat="38.41680150571503" lon="15.894273478758741"><ele>43.0</ele><time>2026-04-12T16:27:55Z</time></trkpt><trkpt lat="38.41673221537388" lon="15.894213449088275"><ele>43.0</ele><time>2026-04-12T16:27:56Z</time></trkpt><trkpt lat="38.41666680367376" lon="15.894165919651222"><ele>43.0</ele><time>2026-04-12T16:27:57Z</time></trkpt><trkpt lat="38.41659848082962" lon="15.894103656285106"><ele>43.0</ele><time>2026-04-12T16:27:58Z</time></trkpt><trkpt lat="38.41653637447658" lon="15.894040544419545"><ele>43.0</ele><time>2026-04-12T16:27:59Z</time></trkpt><trkpt lat="38.41646040492319" lon="15.893953117486792"><ele>43.0</ele><time>2026-04-12T16:28:01Z</time></trkpt><trkpt lat="38.416381975313364" lon="15.893898462712672"><ele>43.0</ele><time>2026-04-12T16:28:03Z</time></trkpt><trkpt lat="38.41626773120696" lon="15.893808922894966"><ele>43.0</ele><time>2026-04-12T16:28:04.001Z</time></trkpt><trkpt lat="38.41615949087348" lon="15.893717479834319"><ele>43.0</ele><time>2026-04-12T16:28:05Z</time></trkpt><trkpt lat="38.416021588934015" lon="15.893586732453084"><ele>40.66666666666667</ele><time>2026-04-12T16:28:06Z</time></trkpt><trkpt lat="38.41587500410378" lon="15.89341151546718"><ele>38.333333333333336</ele><time>2026-04-12T16:28:07Z</time></trkpt><trkpt lat="38.415724849776915" lon="15.893245817260503"><ele>36.0</ele><time>2026-04-12T16:28:08Z</time></trkpt><trkpt lat="38.415594467345734" lon="15.893103814421739"><ele>31.0</ele><time>2026-04-12T16:28:09Z</time></trkpt><trkpt lat="38.415481621230406" lon="15.892981530757197"><ele>26.0</ele><time>2026-04-12T16:28:10Z</time></trkpt><trkpt lat="38.41537517793439" lon="15.8928661853701"><ele>21.0</ele><time>2026-04-12T16:28:11Z</time></trkpt><trkpt lat="38.41527744156873" lon="15.89276027511191"><ele>16.0</ele><time>2026-04-12T16:28:12Z</time></trkpt><trkpt lat="38.4151816432242" lon="15.89265646493069"><ele>18.333333333333332</ele><time>2026-04-12T16:28:13Z</time></trkpt><trkpt lat="38.41507452105802" lon="15.892540205342016"><ele>20.666666666666668</ele><time>2026-04-12T16:28:14Z</time></trkpt><trkpt lat="38.414955091184716" lon="15.892409519745046"><ele>23.0</ele><time>2026-04-12T16:28:15Z</time></trkpt><trkpt lat="38.41480762034196" lon="15.892248208560833"><ele>19.666666666666668</ele><time>2026-04-12T16:28:16Z</time></trkpt><trkpt lat="38.414648996144784" lon="15.892099274591095"><ele>16.333333333333332</ele><time>2026-04-12T16:28:17Z</time></trkpt><trkpt lat="38.41451998860404" lon="15.891934084200305"><ele>13.0</ele><time>2026-04-12T16:28:18Z</time></trkpt><trkpt lat="38.4143902569523" lon="15.891792726869143"><ele>19.666666666666664</ele><time>2026-04-12T16:28:19Z</time></trkpt><trkpt lat="38.41426579064788" lon="15.891656500125023"><ele>26.333333333333332</ele><time>2026-04-12T16:28:20Z</time></trkpt><trkpt lat="38.41414639633693" lon="15.891525824872897"><ele>33.0</ele><time>2026-04-12T16:28:21Z</time></trkpt><trkpt lat="38.41403684050396" lon="15.89140591783941"><ele>33.0</ele><time>2026-04-12T16:28:22Z</time></trkpt><trkpt lat="38.41392743331892" lon="15.891286048184563"><ele>33.0</ele><time>2026-04-12T16:28:23Z</time></trkpt><trkpt lat="38.413820501837804" lon="15.891169173981606"><ele>33.0</ele><time>2026-04-12T16:28:24Z</time></trkpt><trkpt lat="38.413690936807065" lon="15.89103102503273"><ele>38.33333333333333</ele><time>2026-04-12T16:28:25Z</time></trkpt><trkpt lat="38.41352476843866" lon="15.890879060172997"><ele>43.666666666666664</ele><time>2026-04-12T16:28:26Z</time></trkpt><trkpt lat="38.413326411519805" lon="15.890752153157031"><ele>49.0</ele><time>2026-04-12T16:28:27Z</time></trkpt><trkpt lat="38.413112889960686" lon="15.890627628786394"><ele>51.0</ele><time>2026-04-12T16:28:28Z</time></trkpt><trkpt lat="38.412880361079225" lon="15.890526539263895"><ele>53.0</ele><time>2026-04-12T16:28:29Z</time></trkpt><trkpt lat="38.41266135648391" lon="15.890433144713798"><ele>53.0</ele><time>2026-04-12T16:28:30Z</time></trkpt><trkpt lat="38.41246884697328" lon="15.890355479269225"><ele>53.0</ele><time>2026-04-12T16:28:31Z</time></trkpt><trkpt lat="38.412295749959085" lon="15.890272042932821"><ele>53.0</ele><time>2026-04-12T16:28:32Z</time></trkpt><trkpt lat="38.4121159602307" lon="15.89019407313304"><ele>54.0</ele><time>2026-04-12T16:28:33Z</time></trkpt><trkpt lat="38.411953177226586" lon="15.890117006926634"><ele>55.0</ele><time>2026-04-12T16:28:34Z</time></trkpt><trkpt lat="38.41179220036316" lon="15.890044247413927"><ele>56.0</ele><time>2026-04-12T16:28:35Z</time></trkpt><trkpt lat="38.411660461081645" lon="15.889989067162732"><ele>56.0</ele><time>2026-04-12T16:28:36Z</time></trkpt><trkpt lat="38.411520770574896" lon="15.889932342278732"><ele>56.0</ele><time>2026-04-12T16:28:37Z</time></trkpt><trkpt lat="38.41139580947632" lon="15.889869418489686"><ele>56.0</ele><time>2026-04-12T16:28:38Z</time></trkpt><trkpt lat="38.411278582641415" lon="15.88982764427134"><ele>56.0</ele><time>2026-04-12T16:28:39Z</time></trkpt><trkpt lat="38.41117803824597" lon="15.889764818908892"><ele>56.5</ele><time>2026-04-12T16:28:40Z</time></trkpt><trkpt lat="38.41104658025489" lon="15.889718425327155"><ele>57.0</ele><time>2026-04-12T16:28:41Z</time></trkpt><trkpt lat="38.410911853733175" lon="15.88965471365832"><ele>57.5</ele><time>2026-04-12T16:28:42Z</time></trkpt><trkpt lat="38.410763241363895" lon="15.889605915515096"><ele>58.0</ele><time>2026-04-12T16:28:43Z</time></trkpt><trkpt lat="38.41061157173142" lon="15.889574571485646"><ele>58.75</ele><time>2026-04-12T16:28:44Z</time></trkpt><trkpt lat="38.410452044884515" lon="15.889554372980593"><ele>59.5</ele><time>2026-04-12T16:28:45Z</time></trkpt><trkpt lat="38.410318844846074" lon="15.889549621379231"><ele>60.25</ele><time>2026-04-12T16:28:46Z</time></trkpt><trkpt lat="38.410202128937634" lon="15.889536253190782"><ele>61.0</ele><time>2026-04-12T16:28:47Z</time></trkpt><trkpt lat="38.41008581802132" lon="15.889530596891271"><ele>61.0</ele><time>2026-04-12T16:28:48Z</time></trkpt><trkpt lat="38.40996760769158" lon="15.889523054659382"><ele>61.0</ele><time>2026-04-12T16:28:49Z</time></trkpt><trkpt lat="38.40985372690573" lon="15.889508199372655"><ele>61.0</ele><time>2026-04-12T16:28:50Z</time></trkpt><trkpt lat="38.40974183447403" lon="15.889498033591012"><ele>61.0</ele><time>2026-04-12T16:28:51Z</time></trkpt><trkpt lat="38.40962732994595" lon="15.889492484218435"><ele>62.75</ele><time>2026-04-12T16:28:52Z</time></trkpt><trkpt lat="38.40951261953317" lon="15.889479595827785"><ele>64.5</ele><time>2026-04-12T16:28:53Z</time></trkpt><trkpt lat="38.4093979288566" lon="15.889465112042462"><ele>66.25</ele><time>2026-04-12T16:28:54Z</time></trkpt><trkpt lat="38.409285649439134" lon="15.88945481335216"><ele>68.0</ele><time>2026-04-12T16:28:55Z</time></trkpt><trkpt lat="38.40917157891375" lon="15.889448151350988"><ele>68.0</ele><time>2026-04-12T16:28:56Z</time></trkpt><trkpt lat="38.409055443158174" lon="15.889443027314444"><ele>68.0</ele><time>2026-04-12T16:28:57Z</time></trkpt><trkpt lat="38.408900499527554" lon="15.889465818296271"><ele>68.0</ele><time>2026-04-12T16:28:58.001Z</time></trkpt><trkpt lat="38.40876803465451" lon="15.889547145875062"><ele>68.0</ele><time>2026-04-12T16:28:59.001Z</time></trkpt><trkpt lat="38.40865630582481" lon="15.889632072883549"><ele>69.75</ele><time>2026-04-12T16:29:00Z</time></trkpt><trkpt lat="38.40854988887818" lon="15.889722311092715"><ele>71.5</ele><time>2026-04-12T16:29:01Z</time></trkpt><trkpt lat="38.408426004005214" lon="15.889815447925319"><ele>73.25</ele><time>2026-04-12T16:29:02Z</time></trkpt><trkpt lat="38.40830077982925" lon="15.8899299752684"><ele>75.0</ele><time>2026-04-12T16:29:03Z</time></trkpt><trkpt lat="38.40816077618458" lon="15.89005973650009"><ele>74.66666666666667</ele><time>2026-04-12T16:29:04Z</time></trkpt><trkpt lat="38.408006047294016" lon="15.89020314594862"><ele>74.33333333333334</ele><time>2026-04-12T16:29:05Z</time></trkpt><trkpt lat="38.40785624798135" lon="15.890341986394118"><ele>74.0</ele><time>2026-04-12T16:29:06Z</time></trkpt><trkpt lat="38.407739897621134" lon="15.890474579944394"><ele>75.75</ele><time>2026-04-12T16:29:07Z</time></trkpt><trkpt lat="38.4076131147264" lon="15.890587367643214"><ele>77.5</ele><time>2026-04-12T16:29:08Z</time></trkpt><trkpt lat="38.4074907277305" lon="15.890691318869996"><ele>79.25</ele><time>2026-04-12T16:29:09Z</time></trkpt><trkpt lat="38.407371786124244" lon="15.890799505481626"><ele>81.0</ele><time>2026-04-12T16:29:10Z</time></trkpt><trkpt lat="38.40725688645692" lon="15.89090403325492"><ele>81.75</ele><time>2026-04-12T16:29:11Z</time></trkpt><trkpt lat="38.40713386487195" lon="15.890998765148272"><ele>82.5</ele><time>2026-04-12T16:29:12Z</time></trkpt><trkpt lat="38.407007780027314" lon="15.89108526390122"><ele>83.25</ele><time>2026-04-12T16:29:13Z</time></trkpt><trkpt lat="38.40686495426905" lon="15.89113289500261"><ele>84.0</ele><time>2026-04-12T16:29:14Z</time></trkpt><trkpt lat="38.40671092643862" lon="15.891132336053436"><ele>84.0</ele><time>2026-04-12T16:29:15Z</time></trkpt><trkpt lat="38.40654388633731" lon="15.891106658244585"><ele>84.0</ele><time>2026-04-12T16:29:16Z</time></trkpt><trkpt lat="38.406397284115485" lon="15.891044879642648"><ele>84.0</ele><time>2026-04-12T16:29:17Z</time></trkpt><trkpt lat="38.4062655381555" lon="15.890991201079553"><ele>85.75</ele><time>2026-04-12T16:29:18Z</time></trkpt><trkpt lat="38.40613293655851" lon="15.890928549904759"><ele>87.5</ele><time>2026-04-12T16:29:19Z</time></trkpt><trkpt lat="38.40600149411085" lon="15.890864970721196"><ele>89.25</ele><time>2026-04-12T16:29:20Z</time></trkpt><trkpt lat="38.4058694410665" lon="15.890806577945837"><ele>91.0</ele><time>2026-04-12T16:29:21Z</time></trkpt><trkpt lat="38.40573850896067" lon="15.890747658684093"><ele>91.25</ele><time>2026-04-12T16:29:22Z</time></trkpt><trkpt lat="38.40560513496461" lon="15.8906858298741"><ele>91.5</ele><time>2026-04-12T16:29:23Z</time></trkpt><trkpt lat="38.40547079199686" lon="15.890624637823722"><ele>91.75</ele><time>2026-04-12T16:29:24Z</time></trkpt><trkpt lat="38.40533808343252" lon="15.890565360594222"><ele>92.0</ele><time>2026-04-12T16:29:25Z</time></trkpt><trkpt lat="38.4052049991982" lon="15.890503863547966"><ele>93.5</ele><time>2026-04-12T16:29:26Z</time></trkpt><trkpt lat="38.40507119012824" lon="15.890442673941799"><ele>95.0</ele><time>2026-04-12T16:29:27Z</time></trkpt><trkpt lat="38.404936433388485" lon="15.89038174749663"><ele>96.5</ele><time>2026-04-12T16:29:28Z</time></trkpt><trkpt lat="38.404803147102925" lon="15.890324939816598"><ele>98.0</ele><time>2026-04-12T16:29:29Z</time></trkpt><trkpt lat="38.40467256835401" lon="15.890284071667926"><ele>98.33333333333333</ele><time>2026-04-12T16:29:30Z</time></trkpt><trkpt lat="38.40457809640547" lon="15.890265091081833"><ele>98.66666666666666</ele><time>2026-04-12T16:29:31Z</time></trkpt><trkpt lat="38.404507394612644" lon="15.890259586294443"><ele>99.0</ele><time>2026-04-12T16:29:32Z</time></trkpt><trkpt lat="38.40442574465532" lon="15.890267104123463"><ele>99.33333333333334</ele><time>2026-04-12T16:29:34Z</time></trkpt><trkpt lat="38.40451425890347" lon="15.890265320658868"><ele>99.66666666666667</ele><time>2026-04-12T16:29:59Z</time></trkpt><trkpt lat="38.404592534533215" lon="15.890281010530087"><ele>100.0</ele><time>2026-04-12T16:30:01Z</time></trkpt><trkpt lat="38.40463071577326" lon="15.890211298569877"><ele>100.0</ele><time>2026-04-12T16:30:04Z</time></trkpt><trkpt lat="38.404663908124284" lon="15.890069113221806"><ele>100.0</ele><time>2026-04-12T16:30:07Z</time></trkpt><trkpt lat="38.40448428479808" lon="15.89017138990644"><ele>100.0</ele><time>2026-04-12T16:33:01Z</time></trkpt><trkpt lat="38.40455630428774" lon="15.89017001362104"><ele>100.0</ele><time>2026-04-12T16:33:06Z</time></trkpt><trkpt lat="38.40462423492158" lon="15.890139046312305"><ele>100.0</ele><time>2026-04-12T17:00:58Z</time></trkpt><trkpt lat="38.40461861747788" lon="15.89022843812799"><ele>100.0</ele><time>2026-04-12T17:01:00Z</time></trkpt><trkpt lat="38.404546299575244" lon="15.890268407666658"><ele>100.0</ele><time>2026-04-12T17:01:03Z</time></trkpt><trkpt lat="38.40446680255014" lon="15.89025285776895"><ele>100.0</ele><time>2026-04-12T17:01:04Z</time></trkpt><trkpt lat="38.40433477777343" lon="15.890292654926851"><ele>100.0</ele><time>2026-04-12T17:01:06Z</time></trkpt><trkpt lat="38.40423767735763" lon="15.89029099684002"><ele>100.0</ele><time>2026-04-12T17:01:07Z</time></trkpt><trkpt lat="38.40414615498948" lon="15.89029252803708"><ele>100.0</ele><time>2026-04-12T17:01:08Z</time></trkpt><trkpt lat="38.40405877758885" lon="15.890279060649622"><ele>100.0</ele><time>2026-04-12T17:01:09Z</time></trkpt><trkpt lat="38.40397576197066" lon="15.890230535176041"><ele>100.0</ele><time>2026-04-12T17:01:10Z</time></trkpt><trkpt lat="38.40389173510337" lon="15.890172574985389"><ele>100.0</ele><time>2026-04-12T17:01:11Z</time></trkpt><trkpt lat="38.40380706378048" lon="15.890116327552333"><ele>102.0</ele><time>2026-04-12T17:01:12Z</time></trkpt><trkpt lat="38.40373213087928" lon="15.890053999114846"><ele>104.0</ele><time>2026-04-12T17:01:13Z</time></trkpt><trkpt lat="38.40366205367076" lon="15.889984084394964"><ele>106.0</ele><time>2026-04-12T17:01:14Z</time></trkpt><trkpt lat="38.40358110860104" lon="15.889925134208458"><ele>108.0</ele><time>2026-04-12T17:01:15Z</time></trkpt><trkpt lat="38.403504642343805" lon="15.889862092636939"><ele>110.0</ele><time>2026-04-12T17:01:16Z</time></trkpt><trkpt lat="38.40343166520321" lon="15.88979785717591"><ele>109.99999999999999</ele><time>2026-04-12T17:01:17Z</time></trkpt><trkpt lat="38.4033555349956" lon="15.889736347414443"><ele>110.0</ele><time>2026-04-12T17:01:18Z</time></trkpt><trkpt lat="38.403291091944546" lon="15.889670406302107"><ele>110.0</ele><time>2026-04-12T17:01:19Z</time></trkpt><trkpt lat="38.40322688354421" lon="15.889605907644299"><ele>110.0</ele><time>2026-04-12T17:01:20Z</time></trkpt><trkpt lat="38.403167224778095" lon="15.889544117866208"><ele>109.99999999999999</ele><time>2026-04-12T17:01:21Z</time></trkpt><trkpt lat="38.40311027256566" lon="15.88948401767472"><ele>110.0</ele><time>2026-04-12T17:01:22Z</time></trkpt><trkpt lat="38.40305648580335" lon="15.88942148544237"><ele>109.99999999999999</ele><time>2026-04-12T17:01:23Z</time></trkpt><trkpt lat="38.40300321862348" lon="15.88936727949769"><ele>110.0</ele><time>2026-04-12T17:01:24Z</time></trkpt><trkpt lat="38.40294567816895" lon="15.889325863264219"><ele>110.0</ele><time>2026-04-12T17:01:25Z</time></trkpt><trkpt lat="38.4028627556143" lon="15.889239135720322"><ele>110.0</ele><time>2026-04-12T17:01:26Z</time></trkpt><trkpt lat="38.40280917080442" lon="15.889183273940304"><ele>109.99999999999999</ele><time>2026-04-12T17:01:27Z</time></trkpt><trkpt lat="38.402748650494" lon="15.889117967781619"><ele>110.0</ele><time>2026-04-12T17:01:28Z</time></trkpt><trkpt lat="38.402684171678516" lon="15.889048628454876"><ele>111.4</ele><time>2026-04-12T17:01:29Z</time></trkpt><trkpt lat="38.40262023747532" lon="15.888974415944947"><ele>112.8</ele><time>2026-04-12T17:01:30Z</time></trkpt><trkpt lat="38.402556395735466" lon="15.888874695055936"><ele>114.19999999999999</ele><time>2026-04-12T17:01:31Z</time></trkpt><trkpt lat="38.402463229790996" lon="15.888810475723028"><ele>115.6</ele><time>2026-04-12T17:01:32Z</time></trkpt><trkpt lat="38.40238725245961" lon="15.88871941560524"><ele>117.0</ele><time>2026-04-12T17:01:33Z</time></trkpt><trkpt lat="38.40230888756981" lon="15.88862494211995"><ele>117.0</ele><time>2026-04-12T17:01:34Z</time></trkpt><trkpt lat="38.40222397611706" lon="15.888531839726545"><ele>117.0</ele><time>2026-04-12T17:01:35Z</time></trkpt><trkpt lat="38.40213889372786" lon="15.88841347030003"><ele>117.0</ele><time>2026-04-12T17:01:36Z</time></trkpt><trkpt lat="38.40203888202754" lon="15.888305065239434"><ele>117.0</ele><time>2026-04-12T17:01:37Z</time></trkpt><trkpt lat="38.40193170274359" lon="15.888212969345082"><ele>118.75</ele><time>2026-04-12T17:01:38Z</time></trkpt><trkpt lat="38.401830326710275" lon="15.888103751212697"><ele>120.5</ele><time>2026-04-12T17:01:39Z</time></trkpt><trkpt lat="38.40173439920608" lon="15.88799139745354"><ele>122.25</ele><time>2026-04-12T17:01:40Z</time></trkpt><trkpt lat="38.40163698359231" lon="15.887876510728566"><ele>124.0</ele><time>2026-04-12T17:01:41Z</time></trkpt><trkpt lat="38.401536478608676" lon="15.887763681592462"><ele>124.0</ele><time>2026-04-12T17:01:42Z</time></trkpt><trkpt lat="38.40143477681342" lon="15.887650303439779"><ele>124.0</ele><time>2026-04-12T17:01:43Z</time></trkpt><trkpt lat="38.40133317301615" lon="15.887539327164244"><ele>124.0</ele><time>2026-04-12T17:01:44Z</time></trkpt><trkpt lat="38.401232737061264" lon="15.887431423005852"><ele>124.0</ele><time>2026-04-12T17:01:45Z</time></trkpt><trkpt lat="38.401133822388964" lon="15.887320986324317"><ele>125.5</ele><time>2026-04-12T17:01:46Z</time></trkpt><trkpt lat="38.40103309294202" lon="15.887210283465361"><ele>127.0</ele><time>2026-04-12T17:01:47Z</time></trkpt><trkpt lat="38.40093301626263" lon="15.88710092637345"><ele>128.5</ele><time>2026-04-12T17:01:48Z</time></trkpt><trkpt lat="38.40082847159297" lon="15.887001673890703"><ele>130.0</ele><time>2026-04-12T17:01:49Z</time></trkpt><trkpt lat="38.40072105926631" lon="15.88691079094855"><ele>130.0</ele><time>2026-04-12T17:01:50Z</time></trkpt><trkpt lat="38.40060356271628" lon="15.886832877646555"><ele>130.0</ele><time>2026-04-12T17:01:51Z</time></trkpt><trkpt lat="38.40048312996617" lon="15.886762225209273"><ele>130.0</ele><time>2026-04-12T17:01:52Z</time></trkpt><trkpt lat="38.40035673337183" lon="15.886696666631996"><ele>130.0</ele><time>2026-04-12T17:01:53Z</time></trkpt><trkpt lat="38.40022759498458" lon="15.886631591209252"><ele>132.0</ele><time>2026-04-12T17:01:54Z</time></trkpt><trkpt lat="38.40011028050366" lon="15.886556012010264"><ele>134.0</ele><time>2026-04-12T17:01:55Z</time></trkpt><trkpt lat="38.40000097240509" lon="15.886466162754848"><ele>136.0</ele><time>2026-04-12T17:01:56Z</time></trkpt><trkpt lat="38.39989449730327" lon="15.88636739113193"><ele>138.0</ele><time>2026-04-12T17:01:57Z</time></trkpt><trkpt lat="38.39978557871207" lon="15.88626979318699"><ele>138.0</ele><time>2026-04-12T17:01:58Z</time></trkpt><trkpt lat="38.39966807826089" lon="15.886163132273408"><ele>138.0</ele><time>2026-04-12T17:01:59Z</time></trkpt><trkpt lat="38.39955298676291" lon="15.886062757728967"><ele>138.0</ele><time>2026-04-12T17:02:00Z</time></trkpt><trkpt lat="38.39942358080858" lon="15.885985206195159"><ele>138.0</ele><time>2026-04-12T17:02:01Z</time></trkpt><trkpt lat="38.399280126876036" lon="15.885915302515643"><ele>140.33333333333334</ele><time>2026-04-12T17:02:02Z</time></trkpt><trkpt lat="38.39913745511955" lon="15.885846207684054"><ele>142.66666666666669</ele><time>2026-04-12T17:02:03Z</time></trkpt><trkpt lat="38.39899539471218" lon="15.885754642042803"><ele>145.0</ele><time>2026-04-12T17:02:04Z</time></trkpt><trkpt lat="38.39885609337194" lon="15.885666613282623"><ele>145.0</ele><time>2026-04-12T17:02:05Z</time></trkpt><trkpt lat="38.39871076455679" lon="15.885595175312416"><ele>145.0</ele><time>2026-04-12T17:02:06Z</time></trkpt><trkpt lat="38.39856549674142" lon="15.885514826581451"><ele>145.0</ele><time>2026-04-12T17:02:07Z</time></trkpt><trkpt lat="38.39842159449865" lon="15.885436998813207"><ele>145.0</ele><time>2026-04-12T17:02:08Z</time></trkpt><trkpt lat="38.398276933360854" lon="15.88536111557345"><ele>145.0</ele><time>2026-04-12T17:02:09Z</time></trkpt><trkpt lat="38.398132517833396" lon="15.885285534344037"><ele>145.0</ele><time>2026-04-12T17:02:10Z</time></trkpt><trkpt lat="38.39798845987466" lon="15.88521284783216"><ele>145.0</ele><time>2026-04-12T17:02:11Z</time></trkpt><trkpt lat="38.397847428315515" lon="15.885139188399485"><ele>145.0</ele><time>2026-04-12T17:02:12Z</time></trkpt><trkpt lat="38.39770540684463" lon="15.885063382699576"><ele>145.0</ele><time>2026-04-12T17:02:13Z</time></trkpt><trkpt lat="38.397567238421885" lon="15.884988418708753"><ele>146.75</ele><time>2026-04-12T17:02:14Z</time></trkpt><trkpt lat="38.39742849334423" lon="15.884916698648363"><ele>148.5</ele><time>2026-04-12T17:02:15Z</time></trkpt><trkpt lat="38.39729030658781" lon="15.884844890822308"><ele>150.25</ele><time>2026-04-12T17:02:16Z</time></trkpt><trkpt lat="38.39715370935552" lon="15.884776816305488"><ele>152.0</ele><time>2026-04-12T17:02:17Z</time></trkpt><trkpt lat="38.39702093364637" lon="15.884703991287282"><ele>152.5</ele><time>2026-04-12T17:02:18Z</time></trkpt><trkpt lat="38.39688985479742" lon="15.884632089315321"><ele>153.0</ele><time>2026-04-12T17:02:19Z</time></trkpt><trkpt lat="38.396751351163225" lon="15.884557719413488"><ele>153.5</ele><time>2026-04-12T17:02:20Z</time></trkpt><trkpt lat="38.39660762373191" lon="15.884481512970927"><ele>154.0</ele><time>2026-04-12T17:02:21Z</time></trkpt><trkpt lat="38.3964640427235" lon="15.884405655452829"><ele>154.66666666666669</ele><time>2026-04-12T17:02:22Z</time></trkpt><trkpt lat="38.39631510699747" lon="15.884336325332418"><ele>155.33333333333334</ele><time>2026-04-12T17:02:23Z</time></trkpt><trkpt lat="38.39616466236829" lon="15.884287004876102"><ele>156.0</ele><time>2026-04-12T17:02:24Z</time></trkpt><trkpt lat="38.39601057130979" lon="15.884257427869867"><ele>156.33333333333334</ele><time>2026-04-12T17:02:25Z</time></trkpt><trkpt lat="38.39585604880263" lon="15.884235847346996"><ele>156.66666666666669</ele><time>2026-04-12T17:02:26Z</time></trkpt><trkpt lat="38.395697563491616" lon="15.88421466866344"><ele>157.0</ele><time>2026-04-12T17:02:27Z</time></trkpt><trkpt lat="38.39553734752321" lon="15.884189418481407"><ele>157.66666666666669</ele><time>2026-04-12T17:02:28Z</time></trkpt><trkpt lat="38.395374666088536" lon="15.884164286150936"><ele>158.33333333333334</ele><time>2026-04-12T17:02:29Z</time></trkpt><trkpt lat="38.39521482606533" lon="15.884140546680985"><ele>159.0</ele><time>2026-04-12T17:02:30Z</time></trkpt><trkpt lat="38.39505279384256" lon="15.884115896374666"><ele>159.0</ele><time>2026-04-12T17:02:31Z</time></trkpt><trkpt lat="38.39488915795357" lon="15.884091399576944"><ele>159.0</ele><time>2026-04-12T17:02:32Z</time></trkpt><trkpt lat="38.39472737691434" lon="15.884063980186546"><ele>159.0</ele><time>2026-04-12T17:02:33Z</time></trkpt><trkpt lat="38.394569666016295" lon="15.88403449589773"><ele>159.33333333333334</ele><time>2026-04-12T17:02:34Z</time></trkpt><trkpt lat="38.39440958262817" lon="15.884010588678581"><ele>159.66666666666669</ele><time>2026-04-12T17:02:35Z</time></trkpt><trkpt lat="38.39425046879485" lon="15.883983298146383"><ele>160.0</ele><time>2026-04-12T17:02:36Z</time></trkpt><trkpt lat="38.394093962972605" lon="15.883957128156732"><ele>160.0</ele><time>2026-04-12T17:02:37Z</time></trkpt><trkpt lat="38.39394161954143" lon="15.883932605974024"><ele>160.0</ele><time>2026-04-12T17:02:38Z</time></trkpt><trkpt lat="38.39379345886849" lon="15.883909157346801"><ele>160.0</ele><time>2026-04-12T17:02:39Z</time></trkpt><trkpt lat="38.39363967772818" lon="15.88388894640053"><ele>160.66666666666669</ele><time>2026-04-12T17:02:40Z</time></trkpt><trkpt lat="38.39348693783875" lon="15.883865654282678"><ele>161.33333333333334</ele><time>2026-04-12T17:02:41Z</time></trkpt><trkpt lat="38.393336087481465" lon="15.88384285233426"><ele>162.0</ele><time>2026-04-12T17:02:42Z</time></trkpt><trkpt lat="38.39318678663746" lon="15.883820358798948"><ele>162.0</ele><time>2026-04-12T17:02:43Z</time></trkpt><trkpt lat="38.393040424322606" lon="15.883794674541726"><ele>162.0</ele><time>2026-04-12T17:02:44Z</time></trkpt><trkpt lat="38.39289338748817" lon="15.883770568479216"><ele>162.0</ele><time>2026-04-12T17:02:45Z</time></trkpt><trkpt lat="38.39274702048117" lon="15.883748101123267"><ele>162.0</ele><time>2026-04-12T17:02:46Z</time></trkpt><trkpt lat="38.392598917318985" lon="15.88372826490276"><ele>162.25</ele><time>2026-04-12T17:02:47Z</time></trkpt><trkpt lat="38.39245868014309" lon="15.88370143492755"><ele>162.5</ele><time>2026-04-12T17:02:48Z</time></trkpt><trkpt lat="38.39232583412647" lon="15.883670102764993"><ele>162.75</ele><time>2026-04-12T17:02:49Z</time></trkpt><trkpt lat="38.392203985024146" lon="15.883638864800941"><ele>163.0</ele><time>2026-04-12T17:02:50Z</time></trkpt><trkpt lat="38.392086339430264" lon="15.883595607310841"><ele>165.5</ele><time>2026-04-12T17:02:51Z</time></trkpt><trkpt lat="38.39197578268858" lon="15.883512188218809"><ele>168.0</ele><time>2026-04-12T17:02:52Z</time></trkpt><trkpt lat="38.39185916540056" lon="15.883395080627796"><ele>170.5</ele><time>2026-04-12T17:02:53Z</time></trkpt><trkpt lat="38.391742341638945" lon="15.883262966031285"><ele>173.0</ele><time>2026-04-12T17:02:54Z</time></trkpt><trkpt lat="38.39162807112979" lon="15.883116007856989"><ele>173.33333333333331</ele><time>2026-04-12T17:02:55Z</time></trkpt><trkpt lat="38.39151432096246" lon="15.882965260670101"><ele>173.66666666666666</ele><time>2026-04-12T17:02:56Z</time></trkpt><trkpt lat="38.391404394206944" lon="15.882820834349147"><ele>174.0</ele><time>2026-04-12T17:02:57Z</time></trkpt><trkpt lat="38.39129230498556" lon="15.882692347179642"><ele>175.33333333333334</ele><time>2026-04-12T17:02:58Z</time></trkpt><trkpt lat="38.391171393736826" lon="15.882559928757601"><ele>176.66666666666669</ele><time>2026-04-12T17:02:59Z</time></trkpt><trkpt lat="38.39103714800374" lon="15.882441611291638"><ele>178.0</ele><time>2026-04-12T17:03:00Z</time></trkpt><trkpt lat="38.3908824877736" lon="15.882347487990902"><ele>178.0</ele><time>2026-04-12T17:03:01Z</time></trkpt><trkpt lat="38.39072507043294" lon="15.882270612217306"><ele>178.0</ele><time>2026-04-12T17:03:02Z</time></trkpt><trkpt lat="38.39056200353658" lon="15.882234467968816"><ele>178.0</ele><time>2026-04-12T17:03:03Z</time></trkpt><trkpt lat="38.390376024095865" lon="15.882147973075948"><ele>181.0</ele><time>2026-04-12T17:03:04Z</time></trkpt><trkpt lat="38.39020633889791" lon="15.882074854178876"><ele>184.0</ele><time>2026-04-12T17:03:05Z</time></trkpt><trkpt lat="38.39003784014672" lon="15.881995423469418"><ele>187.0</ele><time>2026-04-12T17:03:06Z</time></trkpt><trkpt lat="38.38987244663426" lon="15.881918931451395"><ele>187.0</ele><time>2026-04-12T17:03:07Z</time></trkpt><trkpt lat="38.38970803983994" lon="15.881844959945061"><ele>187.0</ele><time>2026-04-12T17:03:08Z</time></trkpt><trkpt lat="38.38954647002483" lon="15.881777421115059"><ele>187.0</ele><time>2026-04-12T17:03:09Z</time></trkpt><trkpt lat="38.38939251299429" lon="15.881729921487391"><ele>186.0</ele><time>2026-04-12T17:03:10Z</time></trkpt><trkpt lat="38.389246377202205" lon="15.881701485407312"><ele>185.0</ele><time>2026-04-12T17:03:11Z</time></trkpt><trkpt lat="38.389115022263105" lon="15.881719356066457"><ele>184.0</ele><time>2026-04-12T17:03:12Z</time></trkpt><trkpt lat="38.38897586867494" lon="15.881766580389046"><ele>183.0</ele><time>2026-04-12T17:03:13Z</time></trkpt><trkpt lat="38.388847378525455" lon="15.88185347950576"><ele>185.5</ele><time>2026-04-12T17:03:14Z</time></trkpt><trkpt lat="38.388728864232" lon="15.88194710079818"><ele>188.0</ele><time>2026-04-12T17:03:15Z</time></trkpt><trkpt lat="38.3886190892775" lon="15.882045284714536"><ele>190.5</ele><time>2026-04-12T17:03:16Z</time></trkpt><trkpt lat="38.388513606492594" lon="15.882141566331091"><ele>193.0</ele><time>2026-04-12T17:03:17Z</time></trkpt><trkpt lat="38.38841139662732" lon="15.882227190101883"><ele>193.0</ele><time>2026-04-12T17:03:18Z</time></trkpt><trkpt lat="38.388304480940675" lon="15.882307220547293"><ele>193.0</ele><time>2026-04-12T17:03:19Z</time></trkpt><trkpt lat="38.38819400324248" lon="15.88237212161886"><ele>193.0</ele><time>2026-04-12T17:03:20Z</time></trkpt><trkpt lat="38.38807319799255" lon="15.882409739563153"><ele>193.0</ele><time>2026-04-12T17:03:21Z</time></trkpt><trkpt lat="38.38795540885161" lon="15.882367970675935"><ele>194.5</ele><time>2026-04-12T17:03:22Z</time></trkpt><trkpt lat="38.387847263823936" lon="15.882309721023958"><ele>196.0</ele><time>2026-04-12T17:03:23Z</time></trkpt><trkpt lat="38.38773008312088" lon="15.882251812834703"><ele>197.5</ele><time>2026-04-12T17:03:24Z</time></trkpt><trkpt lat="38.38761581367002" lon="15.882185525474336"><ele>199.0</ele><time>2026-04-12T17:03:25Z</time></trkpt><trkpt lat="38.3874944105859" lon="15.882121808159146"><ele>199.0</ele><time>2026-04-12T17:03:26Z</time></trkpt><trkpt lat="38.38736787408578" lon="15.88207442522045"><ele>199.0</ele><time>2026-04-12T17:03:27Z</time></trkpt><trkpt lat="38.387236318016" lon="15.88205059400003"><ele>199.0</ele><time>2026-04-12T17:03:28Z</time></trkpt><trkpt lat="38.387097471605024" lon="15.882040879237124"><ele>199.0</ele><time>2026-04-12T17:03:29Z</time></trkpt><trkpt lat="38.38695747918162" lon="15.882033902854191"><ele>200.75</ele><time>2026-04-12T17:03:30Z</time></trkpt><trkpt lat="38.386814545332555" lon="15.882026172808896"><ele>202.5</ele><time>2026-04-12T17:03:31Z</time></trkpt><trkpt lat="38.38668721925107" lon="15.882020609604114"><ele>204.25</ele><time>2026-04-12T17:03:32Z</time></trkpt><trkpt lat="38.3865594635797" lon="15.881997872417788"><ele>206.0</ele><time>2026-04-12T17:03:33Z</time></trkpt><trkpt lat="38.38643685311439" lon="15.881969572574771"><ele>206.5</ele><time>2026-04-12T17:03:34Z</time></trkpt><trkpt lat="38.386324235147775" lon="15.881934344632816"><ele>207.0</ele><time>2026-04-12T17:03:35Z</time></trkpt><trkpt lat="38.38620767720126" lon="15.881893311700681"><ele>207.5</ele><time>2026-04-12T17:03:36Z</time></trkpt><trkpt lat="38.38610320930105" lon="15.88184555766257"><ele>208.0</ele><time>2026-04-12T17:03:37Z</time></trkpt><trkpt lat="38.3860068960622" lon="15.881794320808288"><ele>207.60000000000002</ele><time>2026-04-12T17:03:38Z</time></trkpt><trkpt lat="38.38589493440417" lon="15.8817197844261"><ele>207.20000000000002</ele><time>2026-04-12T17:03:39Z</time></trkpt><trkpt lat="38.385779404522516" lon="15.881645795805671"><ele>206.8</ele><time>2026-04-12T17:03:40Z</time></trkpt><trkpt lat="38.38570757358295" lon="15.881598111303196"><ele>206.4</ele><time>2026-04-12T17:03:41Z</time></trkpt><trkpt lat="38.38560978556113" lon="15.881533193555494"><ele>206.0</ele><time>2026-04-12T17:03:42Z</time></trkpt><trkpt lat="38.38552554984172" lon="15.881461965295932"><ele>207.25</ele><time>2026-04-12T17:03:43Z</time></trkpt><trkpt lat="38.38544634318275" lon="15.881374992178873"><ele>208.5</ele><time>2026-04-12T17:03:44Z</time></trkpt><trkpt lat="38.385358321540984" lon="15.881282329826432"><ele>209.75</ele><time>2026-04-12T17:03:45Z</time></trkpt><trkpt lat="38.38527587929342" lon="15.881178829969365"><ele>211.0</ele><time>2026-04-12T17:03:46Z</time></trkpt><trkpt lat="38.385188404228174" lon="15.881071189460792"><ele>211.0</ele><time>2026-04-12T17:03:47Z</time></trkpt><trkpt lat="38.38510193826152" lon="15.880953960160925"><ele>211.0</ele><time>2026-04-12T17:03:48Z</time></trkpt><trkpt lat="38.38501647656778" lon="15.88083448184989"><ele>211.0</ele><time>2026-04-12T17:03:49Z</time></trkpt><trkpt lat="38.384932251296966" lon="15.880715241209002"><ele>211.0</ele><time>2026-04-12T17:03:50Z</time></trkpt><trkpt lat="38.384849444890854" lon="15.880595831421493"><ele>211.75</ele><time>2026-04-12T17:03:51Z</time></trkpt><trkpt lat="38.384765971362384" lon="15.88047545966304"><ele>212.5</ele><time>2026-04-12T17:03:52Z</time></trkpt><trkpt lat="38.384683228071474" lon="15.88035648860595"><ele>213.25</ele><time>2026-04-12T17:03:53Z</time></trkpt><trkpt lat="38.38459734484774" lon="15.88023387648082"><ele>214.0</ele><time>2026-04-12T17:03:54Z</time></trkpt><trkpt lat="38.384509439797895" lon="15.880108581094806"><ele>215.5</ele><time>2026-04-12T17:03:55Z</time></trkpt><trkpt lat="38.38442186178922" lon="15.879983751877235"><ele>217.0</ele><time>2026-04-12T17:03:56Z</time></trkpt><trkpt lat="38.384338027929026" lon="15.87986425940658"><ele>218.5</ele><time>2026-04-12T17:03:57Z</time></trkpt><trkpt lat="38.38424219577266" lon="15.87972766520566"><ele>220.0</ele><time>2026-04-12T17:03:58Z</time></trkpt><trkpt lat="38.38414747907315" lon="15.879592070784488"><ele>220.0</ele><time>2026-04-12T17:03:59Z</time></trkpt><trkpt lat="38.38405381047762" lon="15.87945792477309"><ele>220.0</ele><time>2026-04-12T17:04:00Z</time></trkpt><trkpt lat="38.38396228103091" lon="15.879326842393436"><ele>220.0</ele><time>2026-04-12T17:04:01Z</time></trkpt><trkpt lat="38.38385776957491" lon="15.879208502197466"><ele>220.0</ele><time>2026-04-12T17:04:02Z</time></trkpt><trkpt lat="38.38376912482711" lon="15.879077544659191"><ele>220.25</ele><time>2026-04-12T17:04:03Z</time></trkpt><trkpt lat="38.38368824687187" lon="15.878955720457313"><ele>220.5</ele><time>2026-04-12T17:04:04Z</time></trkpt><trkpt lat="38.38361783077092" lon="15.878839584056296"><ele>220.75</ele><time>2026-04-12T17:04:05Z</time></trkpt><trkpt lat="38.383545581563965" lon="15.878735949531274"><ele>221.0</ele><time>2026-04-12T17:04:06Z</time></trkpt><trkpt lat="38.3834709611141" lon="15.878628849024219"><ele>221.0</ele><time>2026-04-12T17:04:07Z</time></trkpt><trkpt lat="38.3833957791847" lon="15.878523803844333"><ele>221.00000000000003</ele><time>2026-04-12T17:04:08Z</time></trkpt><trkpt lat="38.383321579151065" lon="15.878418295952002"><ele>221.00000000000003</ele><time>2026-04-12T17:04:09Z</time></trkpt><trkpt lat="38.38324894192725" lon="15.878311224448995"><ele>221.0</ele><time>2026-04-12T17:04:10Z</time></trkpt><trkpt lat="38.38317655098219" lon="15.878203010245693"><ele>221.0</ele><time>2026-04-12T17:04:11Z</time></trkpt><trkpt lat="38.38310105894837" lon="15.878101087541408"><ele>221.20000000000002</ele><time>2026-04-12T17:04:12Z</time></trkpt><trkpt lat="38.38302431414895" lon="15.878002243969426"><ele>221.40000000000003</ele><time>2026-04-12T17:04:13Z</time></trkpt><trkpt lat="38.38294494753112" lon="15.877899279588648"><ele>221.6</ele><time>2026-04-12T17:04:14Z</time></trkpt><trkpt lat="38.3828672462575" lon="15.877795408663893"><ele>221.8</ele><time>2026-04-12T17:04:15Z</time></trkpt><trkpt lat="38.382790564979196" lon="15.87769147732497"><ele>222.0</ele><time>2026-04-12T17:04:16Z</time></trkpt><trkpt lat="38.38271611077294" lon="15.877588885068487"><ele>223.39999999999998</ele><time>2026-04-12T17:04:17Z</time></trkpt><trkpt lat="38.38264450130811" lon="15.877482546133646"><ele>224.79999999999998</ele><time>2026-04-12T17:04:18Z</time></trkpt><trkpt lat="38.382575030832584" lon="15.877372965758154"><ele>226.2</ele><time>2026-04-12T17:04:19Z</time></trkpt><trkpt lat="38.382504799195694" lon="15.877264050528327"><ele>227.6</ele><time>2026-04-12T17:04:20Z</time></trkpt><trkpt lat="38.382435086911975" lon="15.877157745060787"><ele>229.0</ele><time>2026-04-12T17:04:21Z</time></trkpt><trkpt lat="38.38236879621291" lon="15.877042512758727"><ele>229.0</ele><time>2026-04-12T17:04:22Z</time></trkpt><trkpt lat="38.382301557784615" lon="15.876931074046418"><ele>229.0</ele><time>2026-04-12T17:04:23Z</time></trkpt><trkpt lat="38.382235192505384" lon="15.876814476386217"><ele>229.0</ele><time>2026-04-12T17:04:24Z</time></trkpt><trkpt lat="38.382157162568994" lon="15.876692353601522"><ele>229.0</ele><time>2026-04-12T17:04:25Z</time></trkpt><trkpt lat="38.38207142354125" lon="15.876570249617226"><ele>229.75</ele><time>2026-04-12T17:04:26Z</time></trkpt><trkpt lat="38.38196984133168" lon="15.876461352061574"><ele>230.5</ele><time>2026-04-12T17:04:27Z</time></trkpt><trkpt lat="38.38185926780675" lon="15.876362018900954"><ele>231.25</ele><time>2026-04-12T17:04:28Z</time></trkpt><trkpt lat="38.38174398715344" lon="15.876263670209605"><ele>232.0</ele><time>2026-04-12T17:04:29Z</time></trkpt><trkpt lat="38.38163378143889" lon="15.876161080451046"><ele>232.0</ele><time>2026-04-12T17:04:30Z</time></trkpt><trkpt lat="38.381516638086225" lon="15.87606623056163"><ele>232.0</ele><time>2026-04-12T17:04:31Z</time></trkpt><trkpt lat="38.38140737151304" lon="15.875971344820563"><ele>232.0</ele><time>2026-04-12T17:04:32Z</time></trkpt><trkpt lat="38.38130567375495" lon="15.875893089069786"><ele>232.0</ele><time>2026-04-12T17:04:33Z</time></trkpt><trkpt lat="38.381205117398046" lon="15.875821486442762"><ele>233.6</ele><time>2026-04-12T17:04:34Z</time></trkpt><trkpt lat="38.381112647900174" lon="15.875742582571947"><ele>235.2</ele><time>2026-04-12T17:04:35Z</time></trkpt><trkpt lat="38.3810298392087" lon="15.875658232426574"><ele>236.8</ele><time>2026-04-12T17:04:36Z</time></trkpt><trkpt lat="38.380973758875214" lon="15.875553066880729"><ele>238.4</ele><time>2026-04-12T17:04:37Z</time></trkpt><trkpt lat="38.380909825029136" lon="15.875436012224213"><ele>240.0</ele><time>2026-04-12T17:04:38Z</time></trkpt><trkpt lat="38.38087648593394" lon="15.875306365013016"><ele>240.0</ele><time>2026-04-12T17:04:39Z</time></trkpt><trkpt lat="38.38085931654447" lon="15.875175840120015"><ele>240.0</ele><time>2026-04-12T17:04:40Z</time></trkpt><trkpt lat="38.38083500360202" lon="15.875031452794028"><ele>240.0</ele><time>2026-04-12T17:04:41Z</time></trkpt><trkpt lat="38.38080935170004" lon="15.874872532257937"><ele>240.0</ele><time>2026-04-12T17:04:42Z</time></trkpt><trkpt lat="38.380784288289064" lon="15.874708672539997"><ele>241.75</ele><time>2026-04-12T17:04:43Z</time></trkpt><trkpt lat="38.38075516762598" lon="15.874537397851418"><ele>243.5</ele><time>2026-04-12T17:04:44Z</time></trkpt><trkpt lat="38.38072122878207" lon="15.8743715504564"><ele>245.25</ele><time>2026-04-12T17:04:45Z</time></trkpt><trkpt lat="38.380688684695" lon="15.87419846777833"><ele>247.0</ele><time>2026-04-12T17:04:46Z</time></trkpt><trkpt lat="38.3806569736766" lon="15.874023948346192"><ele>247.25</ele><time>2026-04-12T17:04:47Z</time></trkpt><trkpt lat="38.38062826102173" lon="15.873845581604055"><ele>247.5</ele><time>2026-04-12T17:04:48Z</time></trkpt><trkpt lat="38.38060475612553" lon="15.873661576694902"><ele>247.75</ele><time>2026-04-12T17:04:49Z</time></trkpt><trkpt lat="38.38057501176168" lon="15.873471070406843"><ele>248.0</ele><time>2026-04-12T17:04:50Z</time></trkpt><trkpt lat="38.38053434217999" lon="15.873277707394578"><ele>251.33333333333334</ele><time>2026-04-12T17:04:51Z</time></trkpt><trkpt lat="38.380493598200154" lon="15.873086649862373"><ele>254.66666666666669</ele><time>2026-04-12T17:04:52Z</time></trkpt><trkpt lat="38.38044885008475" lon="15.872894152606717"><ele>258.0</ele><time>2026-04-12T17:04:53Z</time></trkpt><trkpt lat="38.38040245512747" lon="15.872696114994001"><ele>258.3333333333333</ele><time>2026-04-12T17:04:54Z</time></trkpt><trkpt lat="38.380354033830365" lon="15.872500372245812"><ele>258.66666666666663</ele><time>2026-04-12T17:04:55Z</time></trkpt><trkpt lat="38.38028952533459" lon="15.872313066875142"><ele>259.0</ele><time>2026-04-12T17:04:56Z</time></trkpt><trkpt lat="38.38023237438928" lon="15.872122117369711"><ele>259.0</ele><time>2026-04-12T17:04:57Z</time></trkpt><trkpt lat="38.38016985905779" lon="15.871936418288138"><ele>259.0</ele><time>2026-04-12T17:04:58Z</time></trkpt><trkpt lat="38.380097808026264" lon="15.871767031785243"><ele>259.0</ele><time>2026-04-12T17:04:59Z</time></trkpt><trkpt lat="38.380014656756906" lon="15.871607112860314"><ele>258.5</ele><time>2026-04-12T17:05:00Z</time></trkpt><trkpt lat="38.379910807733815" lon="15.871467497454221"><ele>258.0</ele><time>2026-04-12T17:05:01Z</time></trkpt><trkpt lat="38.37979993673358" lon="15.871342444268596"><ele>257.5</ele><time>2026-04-12T17:05:02Z</time></trkpt><trkpt lat="38.37967969690801" lon="15.871229176552214"><ele>257.0</ele><time>2026-04-12T17:05:03Z</time></trkpt><trkpt lat="38.379554057894936" lon="15.871123294855831"><ele>259.5</ele><time>2026-04-12T17:05:04Z</time></trkpt><trkpt lat="38.379427786300575" lon="15.871030730296384"><ele>262.0</ele><time>2026-04-12T17:05:05Z</time></trkpt><trkpt lat="38.37929576213768" lon="15.870942303612523"><ele>264.5</ele><time>2026-04-12T17:05:06Z</time></trkpt><trkpt lat="38.379162158119115" lon="15.870856574697198"><ele>267.0</ele><time>2026-04-12T17:05:07Z</time></trkpt><trkpt lat="38.37903362175029" lon="15.870765232751626"><ele>267.0</ele><time>2026-04-12T17:05:08Z</time></trkpt><trkpt lat="38.378908720599995" lon="15.870668384938151"><ele>267.0</ele><time>2026-04-12T17:05:09Z</time></trkpt><trkpt lat="38.37878348640991" lon="15.870565871437169"><ele>267.0</ele><time>2026-04-12T17:05:10Z</time></trkpt><trkpt lat="38.37866823163975" lon="15.870450193332278"><ele>267.0</ele><time>2026-04-12T17:05:11Z</time></trkpt><trkpt lat="38.37855399785083" lon="15.870317495615788"><ele>266.3333333333333</ele><time>2026-04-12T17:05:12Z</time></trkpt><trkpt lat="38.37844399357786" lon="15.870173926164348"><ele>265.66666666666663</ele><time>2026-04-12T17:05:13Z</time></trkpt><trkpt lat="38.37834160150381" lon="15.870033581476164"><ele>265.0</ele><time>2026-04-12T17:05:14Z</time></trkpt><trkpt lat="38.37823483439498" lon="15.86988662081506"><ele>265.0</ele><time>2026-04-12T17:05:15Z</time></trkpt><trkpt lat="38.378132024835004" lon="15.869746634076344"><ele>265.0</ele><time>2026-04-12T17:05:16Z</time></trkpt><trkpt lat="38.37803221685176" lon="15.869602985310873"><ele>265.0</ele><time>2026-04-12T17:05:17Z</time></trkpt><trkpt lat="38.37793443705012" lon="15.869459326909977"><ele>263.25</ele><time>2026-04-12T17:05:18Z</time></trkpt><trkpt lat="38.37783715753701" lon="15.869305050430667"><ele>261.5</ele><time>2026-04-12T17:05:19Z</time></trkpt><trkpt lat="38.37774784574762" lon="15.869152398211027"><ele>259.75</ele><time>2026-04-12T17:05:20Z</time></trkpt><trkpt lat="38.37766637740036" lon="15.869007727971546"><ele>258.0</ele><time>2026-04-12T17:05:21Z</time></trkpt><trkpt lat="38.3775885446618" lon="15.868872856476578"><ele>258.0</ele><time>2026-04-12T17:05:22Z</time></trkpt><trkpt lat="38.37750276086921" lon="15.868734770164"><ele>258.0</ele><time>2026-04-12T17:05:23Z</time></trkpt><trkpt lat="38.37741278897112" lon="15.868595406093467"><ele>258.0</ele><time>2026-04-12T17:05:24Z</time></trkpt><trkpt lat="38.37732181348843" lon="15.868448788738968"><ele>258.0</ele><time>2026-04-12T17:05:25Z</time></trkpt><trkpt lat="38.37722851869876" lon="15.868299640574062"><ele>256.3333333333333</ele><time>2026-04-12T17:05:26Z</time></trkpt><trkpt lat="38.377133454499756" lon="15.868145343367075"><ele>254.66666666666666</ele><time>2026-04-12T17:05:27Z</time></trkpt><trkpt lat="38.37704039632088" lon="15.867991013165032"><ele>253.0</ele><time>2026-04-12T17:05:28Z</time></trkpt><trkpt lat="38.37693693985758" lon="15.867834540572916"><ele>253.0</ele><time>2026-04-12T17:05:29Z</time></trkpt><trkpt lat="38.37683152162826" lon="15.867673364664766"><ele>253.0</ele><time>2026-04-12T17:05:30Z</time></trkpt><trkpt lat="38.376725640361705" lon="15.867507557294791"><ele>253.0</ele><time>2026-04-12T17:05:31Z</time></trkpt><trkpt lat="38.37661955634173" lon="15.867345351526634"><ele>254.33333333333331</ele><time>2026-04-12T17:05:32Z</time></trkpt><trkpt lat="38.376509974498006" lon="15.86718857781577"><ele>255.66666666666669</ele><time>2026-04-12T17:05:33Z</time></trkpt><trkpt lat="38.37640082311908" lon="15.867042045008809"><ele>257.0</ele><time>2026-04-12T17:05:34Z</time></trkpt><trkpt lat="38.376295029020255" lon="15.866891313943977"><ele>256.6666666666667</ele><time>2026-04-12T17:05:35Z</time></trkpt><trkpt lat="38.376193482509386" lon="15.866741433372315"><ele>256.3333333333333</ele><time>2026-04-12T17:05:36Z</time></trkpt><trkpt lat="38.3760900697552" lon="15.8665944471087"><ele>256.0</ele><time>2026-04-12T17:05:37Z</time></trkpt><trkpt lat="38.37598615424836" lon="15.866452152957397"><ele>256.0</ele><time>2026-04-12T17:05:38Z</time></trkpt><trkpt lat="38.375877381224235" lon="15.866311828791202"><ele>256.0</ele><time>2026-04-12T17:05:39Z</time></trkpt><trkpt lat="38.37576767378343" lon="15.86617179857332"><ele>256.0</ele><time>2026-04-12T17:05:40Z</time></trkpt><trkpt lat="38.37565719512416" lon="15.866037664539016"><ele>255.33333333333331</ele><time>2026-04-12T17:05:41Z</time></trkpt><trkpt lat="38.375531490073605" lon="15.865917362035798"><ele>254.66666666666669</ele><time>2026-04-12T17:05:42Z</time></trkpt><trkpt lat="38.375393944338356" lon="15.865813268257526"><ele>254.0</ele><time>2026-04-12T17:05:43Z</time></trkpt><trkpt lat="38.37525250415897" lon="15.865718105758518"><ele>254.0</ele><time>2026-04-12T17:05:44Z</time></trkpt><trkpt lat="38.37511195119738" lon="15.865625364411132"><ele>254.0</ele><time>2026-04-12T17:05:45Z</time></trkpt><trkpt lat="38.37496951537085" lon="15.865524148746726"><ele>254.0</ele><time>2026-04-12T17:05:46Z</time></trkpt><trkpt lat="38.3748306672076" lon="15.865425885410666"><ele>254.0</ele><time>2026-04-12T17:05:47Z</time></trkpt><trkpt lat="38.37468952994927" lon="15.865328306923017"><ele>254.0</ele><time>2026-04-12T17:05:48Z</time></trkpt><trkpt lat="38.374550980713934" lon="15.865230558103464"><ele>254.0</ele><time>2026-04-12T17:05:49Z</time></trkpt><trkpt lat="38.374408713694436" lon="15.865136602590924"><ele>255.66666666666669</ele><time>2026-04-12T17:05:50Z</time></trkpt><trkpt lat="38.37426627330982" lon="15.865045166837389"><ele>257.3333333333333</ele><time>2026-04-12T17:05:51Z</time></trkpt><trkpt lat="38.37412608461427" lon="15.86494968819393"><ele>259.0</ele><time>2026-04-12T17:05:52Z</time></trkpt><trkpt lat="38.373984136220315" lon="15.86485692866003"><ele>259.3333333333333</ele><time>2026-04-12T17:05:53Z</time></trkpt><trkpt lat="38.37384487247384" lon="15.864773416787148"><ele>259.6666666666667</ele><time>2026-04-12T17:05:54Z</time></trkpt><trkpt lat="38.373708833835614" lon="15.864684564997003"><ele>260.0</ele><time>2026-04-12T17:05:55Z</time></trkpt><trkpt lat="38.373577533577205" lon="15.864597844726601"><ele>260.0</ele><time>2026-04-12T17:05:56Z</time></trkpt><trkpt lat="38.373453724745055" lon="15.86451730100707"><ele>260.0</ele><time>2026-04-12T17:05:57Z</time></trkpt><trkpt lat="38.37333454530934" lon="15.864435347731211"><ele>260.0</ele><time>2026-04-12T17:05:58Z</time></trkpt><trkpt lat="38.37321773710894" lon="15.86435353593642"><ele>260.0</ele><time>2026-04-12T17:05:59Z</time></trkpt><trkpt lat="38.37309750084306" lon="15.8642683393486"><ele>260.25</ele><time>2026-04-12T17:06:00Z</time></trkpt><trkpt lat="38.372984435533674" lon="15.864195158651707"><ele>260.5</ele><time>2026-04-12T17:06:01Z</time></trkpt><trkpt lat="38.37286995179542" lon="15.864132661351789"><ele>260.75</ele><time>2026-04-12T17:06:02Z</time></trkpt><trkpt lat="38.37275407702505" lon="15.86403406664557"><ele>261.0</ele><time>2026-04-12T17:06:03Z</time></trkpt><trkpt lat="38.372626107491776" lon="15.863947184202486"><ele>261.0</ele><time>2026-04-12T17:06:04Z</time></trkpt><trkpt lat="38.37248560652594" lon="15.863871631143486"><ele>261.0</ele><time>2026-04-12T17:06:05Z</time></trkpt><trkpt lat="38.372361264682866" lon="15.863773522886929"><ele>261.0</ele><time>2026-04-12T17:06:06Z</time></trkpt><trkpt lat="38.372226180175076" lon="15.863681600238818"><ele>261.0</ele><time>2026-04-12T17:06:07Z</time></trkpt><trkpt lat="38.372082969680505" lon="15.863589398825528"><ele>261.0</ele><time>2026-04-12T17:06:08Z</time></trkpt><trkpt lat="38.37194502647589" lon="15.863497937857783"><ele>261.0</ele><time>2026-04-12T17:06:09Z</time></trkpt><trkpt lat="38.37180770856268" lon="15.863407271297719"><ele>261.6666666666667</ele><time>2026-04-12T17:06:10Z</time></trkpt><trkpt lat="38.37166543699522" lon="15.863315113288476"><ele>262.33333333333337</ele><time>2026-04-12T17:06:11Z</time></trkpt><trkpt lat="38.371525522289865" lon="15.863221881992724"><ele>263.0</ele><time>2026-04-12T17:06:12Z</time></trkpt><trkpt lat="38.371384852598425" lon="15.863124404686022"><ele>263.0</ele><time>2026-04-12T17:06:13Z</time></trkpt><trkpt lat="38.371244536861035" lon="15.863026027018776"><ele>263.0</ele><time>2026-04-12T17:06:14Z</time></trkpt><trkpt lat="38.371104528769585" lon="15.862928874610338"><ele>263.0</ele><time>2026-04-12T17:06:15Z</time></trkpt><trkpt lat="38.37097102780687" lon="15.86283279720233"><ele>263.0</ele><time>2026-04-12T17:06:16Z</time></trkpt><trkpt lat="38.37083742868868" lon="15.862733692145982"><ele>263.0</ele><time>2026-04-12T17:06:17Z</time></trkpt><trkpt lat="38.37072611186115" lon="15.862662012329897"><ele>263.0</ele><time>2026-04-12T17:06:18Z</time></trkpt><trkpt lat="38.37066174958105" lon="15.862611794286565"><ele>263.0</ele><time>2026-04-12T17:06:19Z</time></trkpt><trkpt lat="38.370569188445906" lon="15.862551522341134"><ele>263.6666666666667</ele><time>2026-04-12T17:06:21Z</time></trkpt><trkpt lat="38.37050455950488" lon="15.862522193532847"><ele>264.33333333333337</ele><time>2026-04-12T17:09:23Z</time></trkpt><trkpt lat="38.37043826810748" lon="15.862479444425263"><ele>265.0</ele><time>2026-04-12T17:09:25Z</time></trkpt><trkpt lat="38.37035888100543" lon="15.86243868661518"><ele>265.6666666666667</ele><time>2026-04-12T17:09:27Z</time></trkpt><trkpt lat="38.370261486155975" lon="15.862390657748271"><ele>266.3333333333333</ele><time>2026-04-12T17:09:29Z</time></trkpt><trkpt lat="38.37016022618428" lon="15.862324933888845"><ele>267.0</ele><time>2026-04-12T17:09:31Z</time></trkpt><trkpt lat="38.370063513271916" lon="15.862237001627372"><ele>267.0</ele><time>2026-04-12T17:09:33Z</time></trkpt><trkpt lat="38.370001421619065" lon="15.862195706436994"><ele>267.0</ele><time>2026-04-12T17:09:34Z</time></trkpt><trkpt lat="38.36993939071807" lon="15.86215445240824"><ele>267.0</ele><time>2026-04-12T17:09:35Z</time></trkpt><trkpt lat="38.36987293198542" lon="15.862108739017982"><ele>267.0</ele><time>2026-04-12T17:09:36Z</time></trkpt><trkpt lat="38.36975375733814" lon="15.862027399822955"><ele>267.0</ele><time>2026-04-12T17:09:38Z</time></trkpt><trkpt lat="38.36968696941201" lon="15.862000224226597"><ele>267.0</ele><time>2026-04-12T17:09:39Z</time></trkpt><trkpt lat="38.36962920714662" lon="15.861949913105535"><ele>267.0</ele><time>2026-04-12T17:09:40Z</time></trkpt><trkpt lat="38.36957132073502" lon="15.861907801742921"><ele>267.0</ele><time>2026-04-12T17:09:41Z</time></trkpt><trkpt lat="38.369509412018864" lon="15.861861096203794"><ele>267.0</ele><time>2026-04-12T17:09:42Z</time></trkpt><trkpt lat="38.36943957365451" lon="15.861818707131514"><ele>267.0</ele><time>2026-04-12T17:09:43Z</time></trkpt><trkpt lat="38.36935655206655" lon="15.861760467509672"><ele>267.0</ele><time>2026-04-12T17:09:44Z</time></trkpt><trkpt lat="38.369264574945724" lon="15.861670514433856"><ele>267.0</ele><time>2026-04-12T17:09:45Z</time></trkpt><trkpt lat="38.36920620347059" lon="15.86163502664548"><ele>267.0</ele><time>2026-04-12T17:09:46Z</time></trkpt><trkpt lat="38.36913892339412" lon="15.861578634310105"><ele>267.0</ele><time>2026-04-12T17:09:47Z</time></trkpt><trkpt lat="38.36907511138037" lon="15.861521641566716"><ele>267.0</ele><time>2026-04-12T17:09:48Z</time></trkpt><trkpt lat="38.36900243314342" lon="15.861464455290731"><ele>267.0</ele><time>2026-04-12T17:09:49Z</time></trkpt><trkpt lat="38.36892298508976" lon="15.861392255144352"><ele>267.0</ele><time>2026-04-12T17:09:50Z</time></trkpt><trkpt lat="38.368846650800364" lon="15.86133231428985"><ele>267.0</ele><time>2026-04-12T17:09:51Z</time></trkpt><trkpt lat="38.36877558598795" lon="15.861268037299265"><ele>267.0</ele><time>2026-04-12T17:09:52Z</time></trkpt><trkpt lat="38.3686991657293" lon="15.86120057980765"><ele>267.0</ele><time>2026-04-12T17:09:53Z</time></trkpt><trkpt lat="38.368625638729746" lon="15.861136812390706"><ele>267.0</ele><time>2026-04-12T17:09:54Z</time></trkpt><trkpt lat="38.36855548033647" lon="15.861077133913952"><ele>267.0</ele><time>2026-04-12T17:09:55Z</time></trkpt><trkpt lat="38.368475357402325" lon="15.861015865232776"><ele>267.0</ele><time>2026-04-12T17:09:56Z</time></trkpt><trkpt lat="38.3684090439822" lon="15.860937246797414"><ele>267.2</ele><time>2026-04-12T17:09:57Z</time></trkpt><trkpt lat="38.36835623093165" lon="15.860859100569826"><ele>267.4</ele><time>2026-04-12T17:09:58Z</time></trkpt><trkpt lat="38.36826888229446" lon="15.860767133506833"><ele>267.6</ele><time>2026-04-12T17:09:59Z</time></trkpt><trkpt lat="38.36818136414751" lon="15.860734617552458"><ele>267.8</ele><time>2026-04-12T17:10:00Z</time></trkpt><trkpt lat="38.368099621436684" lon="15.860675473120024"><ele>268.0</ele><time>2026-04-12T17:10:01Z</time></trkpt><trkpt lat="38.368015381715246" lon="15.860611260057505"><ele>267.2</ele><time>2026-04-12T17:10:02Z</time></trkpt><trkpt lat="38.36791591246331" lon="15.860549424921267"><ele>266.4</ele><time>2026-04-12T17:10:03Z</time></trkpt><trkpt lat="38.36783687744028" lon="15.860482865045652"><ele>265.59999999999997</ele><time>2026-04-12T17:10:04Z</time></trkpt><trkpt lat="38.36776326955281" lon="15.860393513375218"><ele>264.8</ele><time>2026-04-12T17:10:05Z</time></trkpt><trkpt lat="38.36767851198078" lon="15.86031684057038"><ele>264.0</ele><time>2026-04-12T17:10:06Z</time></trkpt><trkpt lat="38.36758238939078" lon="15.860247507511321"><ele>264.0</ele><time>2026-04-12T17:10:07Z</time></trkpt><trkpt lat="38.36748327771829" lon="15.860165088192035"><ele>264.0</ele><time>2026-04-12T17:10:08Z</time></trkpt><trkpt lat="38.36738077973395" lon="15.860072709171895"><ele>264.0</ele><time>2026-04-12T17:10:09Z</time></trkpt><trkpt lat="38.367299149968254" lon="15.86001384242613"><ele>264.0</ele><time>2026-04-12T17:10:10Z</time></trkpt><trkpt lat="38.367213814032134" lon="15.859935367909603"><ele>264.0</ele><time>2026-04-12T17:10:11Z</time></trkpt><trkpt lat="38.36712593780279" lon="15.859857880406892"><ele>263.8</ele><time>2026-04-12T17:10:12Z</time></trkpt><trkpt lat="38.36704125033468" lon="15.8597816489244"><ele>263.59999999999997</ele><time>2026-04-12T17:10:13Z</time></trkpt><trkpt lat="38.366950988347995" lon="15.859710969718488"><ele>263.4</ele><time>2026-04-12T17:10:14Z</time></trkpt><trkpt lat="38.3668721607881" lon="15.859637823232127"><ele>263.2</ele><time>2026-04-12T17:10:15Z</time></trkpt><trkpt lat="38.36679021411638" lon="15.859571056633184"><ele>263.0</ele><time>2026-04-12T17:10:16Z</time></trkpt><trkpt lat="38.36672268872096" lon="15.859508584742228"><ele>263.0</ele><time>2026-04-12T17:10:17Z</time></trkpt><trkpt lat="38.366646602037555" lon="15.859453735590789"><ele>263.0</ele><time>2026-04-12T17:10:18Z</time></trkpt><trkpt lat="38.366595531912715" lon="15.859397402750341"><ele>263.0</ele><time>2026-04-12T17:10:19Z</time></trkpt><trkpt lat="38.36650351081014" lon="15.859317924519738"><ele>263.0</ele><time>2026-04-12T17:10:21Z</time></trkpt><trkpt lat="38.3664287212725" lon="15.85924763718715"><ele>263.0</ele><time>2026-04-12T17:10:23Z</time></trkpt><trkpt lat="38.36635571218123" lon="15.859186391597827"><ele>263.0</ele><time>2026-04-12T17:10:25Z</time></trkpt><trkpt lat="38.366292677374936" lon="15.859137200137326"><ele>263.6666666666667</ele><time>2026-04-12T17:10:26Z</time></trkpt><trkpt lat="38.36623400487192" lon="15.859068134725838"><ele>264.33333333333337</ele><time>2026-04-12T17:10:27Z</time></trkpt><trkpt lat="38.366166373772685" lon="15.859005571207087"><ele>265.0</ele><time>2026-04-12T17:10:28Z</time></trkpt><trkpt lat="38.36609626657703" lon="15.858952461434354"><ele>265.6666666666667</ele><time>2026-04-12T17:10:29Z</time></trkpt><trkpt lat="38.36604306530092" lon="15.858905749696657"><ele>266.3333333333333</ele><time>2026-04-12T17:10:30Z</time></trkpt><trkpt lat="38.365983224943506" lon="15.858871933144396"><ele>267.0</ele><time>2026-04-12T17:10:31Z</time></trkpt><trkpt lat="38.36591357621004" lon="15.858831419194361"><ele>267.0</ele><time>2026-04-12T17:10:32Z</time></trkpt><trkpt lat="38.36584358473287" lon="15.8587920963976"><ele>267.0</ele><time>2026-04-12T17:10:33Z</time></trkpt><trkpt lat="38.365714390825886" lon="15.858712563270295"><ele>267.0</ele><time>2026-04-12T17:10:35Z</time></trkpt><trkpt lat="38.36566475878402" lon="15.858662355334365"><ele>267.0</ele><time>2026-04-12T17:10:36Z</time></trkpt><trkpt lat="38.36562017099813" lon="15.858602559286231"><ele>267.0</ele><time>2026-04-12T17:10:37Z</time></trkpt><trkpt lat="38.365577358423224" lon="15.858539645551572"><ele>267.0</ele><time>2026-04-12T17:10:38Z</time></trkpt><trkpt lat="38.365521790431366" lon="15.858424302014457"><ele>268.6</ele><time>2026-04-12T17:10:40Z</time></trkpt><trkpt lat="38.365437997211735" lon="15.858369276303405"><ele>270.2</ele><time>2026-04-12T17:10:42Z</time></trkpt><trkpt lat="38.36537534221879" lon="15.858333203342742"><ele>271.8</ele><time>2026-04-12T17:10:43Z</time></trkpt><trkpt lat="38.36525657192474" lon="15.858256232492863"><ele>273.4</ele><time>2026-04-12T17:10:45Z</time></trkpt><trkpt lat="38.36519104925552" lon="15.858210428706363"><ele>275.0</ele><time>2026-04-12T17:10:46Z</time></trkpt><trkpt lat="38.365108232539484" lon="15.858184157238393"><ele>275.0</ele><time>2026-04-12T17:10:48Z</time></trkpt><trkpt lat="38.36504525614577" lon="15.858127765125346"><ele>275.0</ele><time>2026-04-12T17:10:51Z</time></trkpt><trkpt lat="38.3649006335716" lon="15.858105474097098"><ele>275.0</ele><time>2026-04-12T17:10:53Z</time></trkpt><trkpt lat="38.364790423629785" lon="15.8580673831195"><ele>275.0</ele><time>2026-04-12T17:10:54Z</time></trkpt><trkpt lat="38.364638563818225" lon="15.858049121684333"><ele>276.33333333333337</ele><time>2026-04-12T17:10:55Z</time></trkpt><trkpt lat="38.364492512299414" lon="15.858044032656442"><ele>277.6666666666667</ele><time>2026-04-12T17:10:56Z</time></trkpt><trkpt lat="38.36431346609767" lon="15.858063143756649"><ele>279.0</ele><time>2026-04-12T17:10:57Z</time></trkpt><trkpt lat="38.364131052470945" lon="15.858107040634392"><ele>279.0</ele><time>2026-04-12T17:10:58Z</time></trkpt><trkpt lat="38.36397395527059" lon="15.858116521753548"><ele>279.0</ele><time>2026-04-12T17:10:59Z</time></trkpt><trkpt lat="38.36382561243059" lon="15.858114557094872"><ele>279.0</ele><time>2026-04-12T17:11:00Z</time></trkpt><trkpt lat="38.36367781623786" lon="15.85810614336759"><ele>280.75</ele><time>2026-04-12T17:11:01Z</time></trkpt><trkpt lat="38.36365704128289" lon="15.858203482680763"><ele>282.5</ele><time>2026-04-12T17:11:02Z</time></trkpt><trkpt lat="38.36352984325601" lon="15.858246019538909"><ele>284.25</ele><time>2026-04-12T17:11:03Z</time></trkpt><trkpt lat="38.363378782794676" lon="15.858273162543007"><ele>286.0</ele><time>2026-04-12T17:11:04Z</time></trkpt><trkpt lat="38.3632091724205" lon="15.858300386859684"><ele>287.66666666666663</ele><time>2026-04-12T17:11:05Z</time></trkpt><trkpt lat="38.36302427550771" lon="15.858337263230696"><ele>289.3333333333333</ele><time>2026-04-12T17:11:06Z</time></trkpt><trkpt lat="38.36283396810065" lon="15.858374647550106"><ele>291.0</ele><time>2026-04-12T17:11:07Z</time></trkpt><trkpt lat="38.36266813354405" lon="15.8584104401099"><ele>291.0</ele><time>2026-04-12T17:11:08Z</time></trkpt><trkpt lat="38.36251050469156" lon="15.858449905816416"><ele>291.0</ele><time>2026-04-12T17:11:09Z</time></trkpt><trkpt lat="38.362364786223836" lon="15.85847706000022"><ele>291.0</ele><time>2026-04-12T17:11:10Z</time></trkpt><trkpt lat="38.362230886740775" lon="15.858495857201785"><ele>291.0</ele><time>2026-04-12T17:11:11Z</time></trkpt><trkpt lat="38.36210723940035" lon="15.858516524217006"><ele>291.25</ele><time>2026-04-12T17:11:12Z</time></trkpt><trkpt lat="38.36201405455759" lon="15.858472899152707"><ele>291.5</ele><time>2026-04-12T17:11:13Z</time></trkpt><trkpt lat="38.36190765058762" lon="15.858461865621084"><ele>291.75</ele><time>2026-04-12T17:11:14Z</time></trkpt><trkpt lat="38.36175961426487" lon="15.858435393862338"><ele>292.0</ele><time>2026-04-12T17:11:15Z</time></trkpt><trkpt lat="38.36161213960496" lon="15.858406190330179"><ele>293.0</ele><time>2026-04-12T17:11:16Z</time></trkpt><trkpt lat="38.36147099359953" lon="15.85837859938764"><ele>294.0</ele><time>2026-04-12T17:11:17Z</time></trkpt><trkpt lat="38.361312933226195" lon="15.858359721248707"><ele>295.0</ele><time>2026-04-12T17:11:18Z</time></trkpt><trkpt lat="38.36118236165809" lon="15.858334444866925"><ele>296.0</ele><time>2026-04-12T17:11:19Z</time></trkpt><trkpt lat="38.361046558685004" lon="15.858296031359139"><ele>297.0</ele><time>2026-04-12T17:11:20Z</time></trkpt><trkpt lat="38.36088910214897" lon="15.858282274787609"><ele>298.0</ele><time>2026-04-12T17:11:21Z</time></trkpt><trkpt lat="38.36074603766037" lon="15.858250860089713"><ele>299.0</ele><time>2026-04-12T17:11:22Z</time></trkpt><trkpt lat="38.360648668283034" lon="15.858218025834143"><ele>300.0</ele><time>2026-04-12T17:11:23Z</time></trkpt><trkpt lat="38.36055897621779" lon="15.858181316341682"><ele>300.6</ele><time>2026-04-12T17:11:24Z</time></trkpt><trkpt lat="38.36046392176126" lon="15.858119387181445"><ele>301.2</ele><time>2026-04-12T17:11:25Z</time></trkpt><trkpt lat="38.36035990839887" lon="15.858044618845764"><ele>301.8</ele><time>2026-04-12T17:11:26Z</time></trkpt><trkpt lat="38.36026546535804" lon="15.85798728274023"><ele>302.4</ele><time>2026-04-12T17:11:27Z</time></trkpt><trkpt lat="38.36016844762746" lon="15.85797612464992"><ele>303.0</ele><time>2026-04-12T17:11:28Z</time></trkpt><trkpt lat="38.3600649647649" lon="15.858050258320155"><ele>303.0</ele><time>2026-04-12T17:11:29Z</time></trkpt><trkpt lat="38.359961160183346" lon="15.858092643851403"><ele>303.0</ele><time>2026-04-12T17:11:30Z</time></trkpt><trkpt lat="38.35984196271967" lon="15.858121196590771"><ele>303.0</ele><time>2026-04-12T17:11:31Z</time></trkpt><trkpt lat="38.35967616891208" lon="15.858107530159382"><ele>303.0</ele><time>2026-04-12T17:11:32Z</time></trkpt><trkpt lat="38.35954281952422" lon="15.858084366893843"><ele>303.8</ele><time>2026-04-12T17:11:33Z</time></trkpt><trkpt lat="38.359437775531354" lon="15.858061900070933"><ele>304.6</ele><time>2026-04-12T17:11:34Z</time></trkpt><trkpt lat="38.35933878260521" lon="15.858051913302065"><ele>305.4</ele><time>2026-04-12T17:11:35Z</time></trkpt><trkpt lat="38.35922667035051" lon="15.858036936992109"><ele>306.2</ele><time>2026-04-12T17:11:36Z</time></trkpt><trkpt lat="38.3591020425006" lon="15.858016847275296"><ele>307.0</ele><time>2026-04-12T17:11:37Z</time></trkpt><trkpt lat="38.35896301505831" lon="15.857996724584956"><ele>309.66666666666663</ele><time>2026-04-12T17:11:38Z</time></trkpt><trkpt lat="38.35880576049702" lon="15.857995809937293"><ele>312.3333333333333</ele><time>2026-04-12T17:11:39Z</time></trkpt><trkpt lat="38.35865887789813" lon="15.857999197140586"><ele>315.0</ele><time>2026-04-12T17:11:40Z</time></trkpt><trkpt lat="38.35849967018587" lon="15.857991282005552"><ele>315.0</ele><time>2026-04-12T17:11:41Z</time></trkpt><trkpt lat="38.358358708482065" lon="15.858001283780522"><ele>315.0</ele><time>2026-04-12T17:11:42Z</time></trkpt><trkpt lat="38.35820810922118" lon="15.858013509308089"><ele>315.0</ele><time>2026-04-12T17:11:43Z</time></trkpt><trkpt lat="38.35802920217503" lon="15.858024577651573"><ele>319.0</ele><time>2026-04-12T17:11:44Z</time></trkpt><trkpt lat="38.35784140756328" lon="15.858034922214644"><ele>323.0</ele><time>2026-04-12T17:11:45Z</time></trkpt><trkpt lat="38.35766404110391" lon="15.858060651490398"><ele>327.0</ele><time>2026-04-12T17:11:46Z</time></trkpt><trkpt lat="38.3574922860158" lon="15.85809610888749"><ele>327.0</ele><time>2026-04-12T17:11:47Z</time></trkpt><trkpt lat="38.35732226953281" lon="15.858140198889952"><ele>327.0</ele><time>2026-04-12T17:11:48Z</time></trkpt><trkpt lat="38.357155361287795" lon="15.85818012394955"><ele>327.0</ele><time>2026-04-12T17:11:49Z</time></trkpt><trkpt lat="38.3569799633831" lon="15.858225905740326"><ele>329.0</ele><time>2026-04-12T17:11:50Z</time></trkpt><trkpt lat="38.35681609464596" lon="15.858275661823907"><ele>331.0</ele><time>2026-04-12T17:11:51Z</time></trkpt><trkpt lat="38.35664080893376" lon="15.858325444052058"><ele>333.0</ele><time>2026-04-12T17:11:52Z</time></trkpt><trkpt lat="38.35645605026418" lon="15.858351964227639"><ele>333.3333333333333</ele><time>2026-04-12T17:11:53Z</time></trkpt><trkpt lat="38.35630676087066" lon="15.858389625791425"><ele>333.66666666666663</ele><time>2026-04-12T17:11:54Z</time></trkpt><trkpt lat="38.356125244210496" lon="15.858434549897806"><ele>334.0</ele><time>2026-04-12T17:11:55Z</time></trkpt><trkpt lat="38.35595626708166" lon="15.858474028626755"><ele>337.66666666666663</ele><time>2026-04-12T17:11:56Z</time></trkpt><trkpt lat="38.3557867763327" lon="15.858525600300487"><ele>341.3333333333333</ele><time>2026-04-12T17:11:57Z</time></trkpt><trkpt lat="38.35561814937726" lon="15.858561762461152"><ele>345.0</ele><time>2026-04-12T17:11:58Z</time></trkpt><trkpt lat="38.35544589768544" lon="15.858607329540824"><ele>345.0</ele><time>2026-04-12T17:11:59Z</time></trkpt><trkpt lat="38.35528445913553" lon="15.858637064041678"><ele>345.0</ele><time>2026-04-12T17:12:00Z</time></trkpt><trkpt lat="38.35514277155728" lon="15.858668415829644"><ele>345.0</ele><time>2026-04-12T17:12:01Z</time></trkpt><trkpt lat="38.35501095200664" lon="15.85870437140727"><ele>345.0</ele><time>2026-04-12T17:12:02Z</time></trkpt><trkpt lat="38.35488388911572" lon="15.858752405902885"><ele>345.0</ele><time>2026-04-12T17:12:03Z</time></trkpt><trkpt lat="38.35475599843343" lon="15.858817343641128"><ele>345.0</ele><time>2026-04-12T17:12:04Z</time></trkpt><trkpt lat="38.35463117449574" lon="15.858911184507233"><ele>345.0</ele><time>2026-04-12T17:12:05Z</time></trkpt><trkpt lat="38.35450816685124" lon="15.859035977001668"><ele>345.0</ele><time>2026-04-12T17:12:06Z</time></trkpt><trkpt lat="38.35439909855866" lon="15.859177213862356"><ele>345.3333333333333</ele><time>2026-04-12T17:12:07Z</time></trkpt><trkpt lat="38.354304381261684" lon="15.859322698876156"><ele>345.66666666666663</ele><time>2026-04-12T17:12:08Z</time></trkpt><trkpt lat="38.354209111408665" lon="15.859472653080664"><ele>346.0</ele><time>2026-04-12T17:12:09Z</time></trkpt><trkpt lat="38.35411326112781" lon="15.859636910231606"><ele>346.0</ele><time>2026-04-12T17:12:10Z</time></trkpt><trkpt lat="38.35399664615628" lon="15.859815155858382"><ele>346.0</ele><time>2026-04-12T17:12:11Z</time></trkpt><trkpt lat="38.35386007938551" lon="15.86000403157898"><ele>346.0</ele><time>2026-04-12T17:12:12Z</time></trkpt><trkpt lat="38.35375025933987" lon="15.860181538640095"><ele>348.0</ele><time>2026-04-12T17:12:13Z</time></trkpt><trkpt lat="38.35364634054375" lon="15.860350419724607"><ele>350.0</ele><time>2026-04-12T17:12:14Z</time></trkpt><trkpt lat="38.35354572423341" lon="15.860508594060258"><ele>352.0</ele><time>2026-04-12T17:12:15Z</time></trkpt><trkpt lat="38.353445562518644" lon="15.860669011255574"><ele>352.0</ele><time>2026-04-12T17:12:16Z</time></trkpt><trkpt lat="38.35334707759379" lon="15.860824712332692"><ele>352.0</ele><time>2026-04-12T17:12:17Z</time></trkpt><trkpt lat="38.35325238674836" lon="15.860984766337168"><ele>352.0</ele><time>2026-04-12T17:12:18Z</time></trkpt><trkpt lat="38.353145750478035" lon="15.861137364845767"><ele>353.66666666666663</ele><time>2026-04-12T17:12:19Z</time></trkpt><trkpt lat="38.35304402570994" lon="15.861293420707554"><ele>355.3333333333333</ele><time>2026-04-12T17:12:20Z</time></trkpt><trkpt lat="38.35294568064583" lon="15.861442556691957"><ele>357.0</ele><time>2026-04-12T17:12:21Z</time></trkpt><trkpt lat="38.35284690794585" lon="15.86159695416975"><ele>359.0</ele><time>2026-04-12T17:12:22Z</time></trkpt><trkpt lat="38.35274877368574" lon="15.861749652346129"><ele>361.0</ele><time>2026-04-12T17:12:23Z</time></trkpt><trkpt lat="38.35265291105397" lon="15.861906826718192"><ele>363.0</ele><time>2026-04-12T17:12:24Z</time></trkpt><trkpt lat="38.352554485983866" lon="15.862062489733315"><ele>363.0</ele><time>2026-04-12T17:12:25Z</time></trkpt><trkpt lat="38.3524645513422" lon="15.862207562685375"><ele>363.0</ele><time>2026-04-12T17:12:26Z</time></trkpt><trkpt lat="38.352372755363426" lon="15.862346991210481"><ele>363.0</ele><time>2026-04-12T17:12:27Z</time></trkpt><trkpt lat="38.35228003438021" lon="15.862477825339056"><ele>363.0</ele><time>2026-04-12T17:12:28Z</time></trkpt><trkpt lat="38.35218812187405" lon="15.86258990921646"><ele>364.79999999999995</ele><time>2026-04-12T17:12:29Z</time></trkpt><trkpt lat="38.35209202529991" lon="15.86267608641135"><ele>366.6</ele><time>2026-04-12T17:12:30Z</time></trkpt><trkpt lat="38.35199182205063" lon="15.86267720274371"><ele>368.4</ele><time>2026-04-12T17:12:31Z</time></trkpt><trkpt lat="38.35188820525423" lon="15.862652833375456"><ele>370.20000000000005</ele><time>2026-04-12T17:12:32Z</time></trkpt><trkpt lat="38.351807562200584" lon="15.862536266894569"><ele>372.0</ele><time>2026-04-12T17:12:33Z</time></trkpt><trkpt lat="38.351708584294535" lon="15.862409447043229"><ele>372.0</ele><time>2026-04-12T17:12:34Z</time></trkpt><trkpt lat="38.35164418296349" lon="15.86223790469631"><ele>372.0</ele><time>2026-04-12T17:12:35Z</time></trkpt><trkpt lat="38.351559467111976" lon="15.862068549574692"><ele>372.0</ele><time>2026-04-12T17:12:36Z</time></trkpt><trkpt lat="38.351490128702274" lon="15.861885693943067"><ele>372.6666666666667</ele><time>2026-04-12T17:12:37Z</time></trkpt><trkpt lat="38.351415892297354" lon="15.861699040141017"><ele>373.33333333333337</ele><time>2026-04-12T17:12:38Z</time></trkpt><trkpt lat="38.35132446844345" lon="15.861504457655244"><ele>374.0</ele><time>2026-04-12T17:12:39Z</time></trkpt><trkpt lat="38.35124282131751" lon="15.861321952127755"><ele>376.6666666666667</ele><time>2026-04-12T17:12:40Z</time></trkpt><trkpt lat="38.35115633998205" lon="15.861126592920284"><ele>379.3333333333333</ele><time>2026-04-12T17:12:41Z</time></trkpt><trkpt lat="38.351070900632166" lon="15.860926486267013"><ele>382.0</ele><time>2026-04-12T17:12:42Z</time></trkpt><trkpt lat="38.35098718481445" lon="15.860710035322153"><ele>383.3333333333333</ele><time>2026-04-12T17:12:43Z</time></trkpt><trkpt lat="38.35089094563133" lon="15.860497834060913"><ele>384.66666666666663</ele><time>2026-04-12T17:12:44Z</time></trkpt><trkpt lat="38.350802135711476" lon="15.860292469060013"><ele>386.0</ele><time>2026-04-12T17:12:45Z</time></trkpt><trkpt lat="38.35071850234873" lon="15.860085780045798"><ele>388.3333333333333</ele><time>2026-04-12T17:12:46Z</time></trkpt><trkpt lat="38.350626433252856" lon="15.859870854320762"><ele>390.66666666666663</ele><time>2026-04-12T17:12:47Z</time></trkpt><trkpt lat="38.350540295514314" lon="15.859660770891091"><ele>393.0</ele><time>2026-04-12T17:12:48Z</time></trkpt><trkpt lat="38.35045570499952" lon="15.859461797665649"><ele>396.66666666666663</ele><time>2026-04-12T17:12:49Z</time></trkpt><trkpt lat="38.35037436788445" lon="15.859255139100162"><ele>400.3333333333333</ele><time>2026-04-12T17:12:50Z</time></trkpt><trkpt lat="38.350293455322856" lon="15.859074816834394"><ele>404.0</ele><time>2026-04-12T17:12:51Z</time></trkpt><trkpt lat="38.350203860758604" lon="15.85890169896234"><ele>404.0</ele><time>2026-04-12T17:12:52Z</time></trkpt><trkpt lat="38.35011889852959" lon="15.85874748334013"><ele>404.0</ele><time>2026-04-12T17:12:53Z</time></trkpt><trkpt lat="38.35003830340334" lon="15.858604384279815"><ele>404.0</ele><time>2026-04-12T17:12:54Z</time></trkpt><trkpt lat="38.349960485107566" lon="15.858454149344118"><ele>404.0</ele><time>2026-04-12T17:12:55Z</time></trkpt><trkpt lat="38.34990161777926" lon="15.858282753060282"><ele>402.75</ele><time>2026-04-12T17:12:56Z</time></trkpt><trkpt lat="38.349856053324054" lon="15.858103294812317"><ele>401.5</ele><time>2026-04-12T17:12:57Z</time></trkpt><trkpt lat="38.34982811394043" lon="15.857914361335638"><ele>400.25</ele><time>2026-04-12T17:12:58Z</time></trkpt><trkpt lat="38.349831756500485" lon="15.857743290128537"><ele>399.0</ele><time>2026-04-12T17:12:59Z</time></trkpt><trkpt lat="38.34981509321814" lon="15.857509996763536"><ele>398.33333333333337</ele><time>2026-04-12T17:13:00Z</time></trkpt><trkpt lat="38.34981793808164" lon="15.85728813876592"><ele>397.6666666666667</ele><time>2026-04-12T17:13:01Z</time></trkpt><trkpt lat="38.34981172176961" lon="15.857082827920864"><ele>397.0</ele><time>2026-04-12T17:13:02Z</time></trkpt><trkpt lat="38.34980401515027" lon="15.85689171240368"><ele>397.25</ele><time>2026-04-12T17:13:03Z</time></trkpt><trkpt lat="38.34977760213076" lon="15.856707144612356"><ele>397.5</ele><time>2026-04-12T17:13:04Z</time></trkpt><trkpt lat="38.34974908163421" lon="15.856537683609252"><ele>397.75</ele><time>2026-04-12T17:13:05Z</time></trkpt><trkpt lat="38.34972839794711" lon="15.856393938387749"><ele>398.0</ele><time>2026-04-12T17:13:06Z</time></trkpt><trkpt lat="38.34971237480241" lon="15.856260727071973"><ele>399.3333333333333</ele><time>2026-04-12T17:13:07Z</time></trkpt><trkpt lat="38.34969577108498" lon="15.856145950320002"><ele>400.66666666666663</ele><time>2026-04-12T17:13:08Z</time></trkpt><trkpt lat="38.3496577483958" lon="15.856050585080181"><ele>402.0</ele><time>2026-04-12T17:13:09Z</time></trkpt><trkpt lat="38.34960762733215" lon="15.855976336431622"><ele>403.33333333333337</ele><time>2026-04-12T17:13:10Z</time></trkpt><trkpt lat="38.34953467475331" lon="15.855935317980348"><ele>404.6666666666667</ele><time>2026-04-12T17:13:11Z</time></trkpt><trkpt lat="38.34944019251549" lon="15.855934585828518"><ele>406.0</ele><time>2026-04-12T17:13:12Z</time></trkpt><trkpt lat="38.34933583750525" lon="15.855971598195083"><ele>408.0</ele><time>2026-04-12T17:13:13Z</time></trkpt><trkpt lat="38.349296172138686" lon="15.856066600705924"><ele>410.0</ele><time>2026-04-12T17:13:14Z</time></trkpt><trkpt lat="38.34926246317267" lon="15.856175056625688"><ele>412.0</ele><time>2026-04-12T17:13:15Z</time></trkpt><trkpt lat="38.34925861159387" lon="15.856314973604222"><ele>414.0</ele><time>2026-04-12T17:13:16Z</time></trkpt><trkpt lat="38.349290539050486" lon="15.85644164303822"><ele>416.0</ele><time>2026-04-12T17:13:17Z</time></trkpt><trkpt lat="38.34936085827084" lon="15.856588202654287"><ele>416.0</ele><time>2026-04-12T17:13:18Z</time></trkpt><trkpt lat="38.34943718931837" lon="15.8567256337411"><ele>416.0</ele><time>2026-04-12T17:13:19Z</time></trkpt><trkpt lat="38.34949892503527" lon="15.856853339516622"><ele>416.0</ele><time>2026-04-12T17:13:20Z</time></trkpt><trkpt lat="38.34953708777594" lon="15.856992297603991"><ele>416.0</ele><time>2026-04-12T17:13:21Z</time></trkpt><trkpt lat="38.34954171628342" lon="15.857151020181863"><ele>417.25</ele><time>2026-04-12T17:13:22Z</time></trkpt><trkpt lat="38.34951600777238" lon="15.857318265624427"><ele>418.5</ele><time>2026-04-12T17:13:23Z</time></trkpt><trkpt lat="38.34946438735206" lon="15.857482164936815"><ele>419.75</ele><time>2026-04-12T17:13:24Z</time></trkpt><trkpt lat="38.34940416453442" lon="15.857662789610327"><ele>421.0</ele><time>2026-04-12T17:13:25Z</time></trkpt><trkpt lat="38.34934393094961" lon="15.85785061565577"><ele>421.0</ele><time>2026-04-12T17:13:26Z</time></trkpt><trkpt lat="38.34928379822023" lon="15.858023780123329"><ele>421.0</ele><time>2026-04-12T17:13:27Z</time></trkpt><trkpt lat="38.34922168584212" lon="15.85818763898228"><ele>421.0</ele><time>2026-04-12T17:13:28Z</time></trkpt><trkpt lat="38.34913742065476" lon="15.85832775247553"><ele>421.0</ele><time>2026-04-12T17:13:29Z</time></trkpt><trkpt lat="38.34901745706351" lon="15.858446875902477"><ele>421.5</ele><time>2026-04-12T17:13:30Z</time></trkpt><trkpt lat="38.348906655576386" lon="15.858566725510794"><ele>422.0</ele><time>2026-04-12T17:13:31Z</time></trkpt><trkpt lat="38.34880737071307" lon="15.858699943752242"><ele>422.5</ele><time>2026-04-12T17:13:32Z</time></trkpt><trkpt lat="38.348704110935316" lon="15.858802832621624"><ele>423.0</ele><time>2026-04-12T17:13:33Z</time></trkpt><trkpt lat="38.348616639078266" lon="15.858848985619815"><ele>425.33333333333337</ele><time>2026-04-12T17:13:34Z</time></trkpt><trkpt lat="38.34848886111025" lon="15.858896883459762"><ele>427.6666666666667</ele><time>2026-04-12T17:13:35Z</time></trkpt><trkpt lat="38.34832957861079" lon="15.858928491215174"><ele>430.0</ele><time>2026-04-12T17:13:36Z</time></trkpt><trkpt lat="38.34816852521182" lon="15.85896582872958"><ele>433.33333333333337</ele><time>2026-04-12T17:13:37Z</time></trkpt><trkpt lat="38.34800264647921" lon="15.859003045395825"><ele>436.66666666666663</ele><time>2026-04-12T17:13:38Z</time></trkpt><trkpt lat="38.34783663250133" lon="15.859042352647315"><ele>440.0</ele><time>2026-04-12T17:13:39Z</time></trkpt><trkpt lat="38.34765672198885" lon="15.859084406333483"><ele>440.0</ele><time>2026-04-12T17:13:40Z</time></trkpt><trkpt lat="38.34746719167625" lon="15.859113214688094"><ele>440.0</ele><time>2026-04-12T17:13:41Z</time></trkpt><trkpt lat="38.34727376797911" lon="15.859156271570242"><ele>440.0</ele><time>2026-04-12T17:13:42Z</time></trkpt><trkpt lat="38.347080611699575" lon="15.859202876908682"><ele>441.66666666666663</ele><time>2026-04-12T17:13:43Z</time></trkpt><trkpt lat="38.346889410629004" lon="15.859243948009224"><ele>443.33333333333337</ele><time>2026-04-12T17:13:44Z</time></trkpt><trkpt lat="38.346685347738955" lon="15.85929523187876"><ele>445.0</ele><time>2026-04-12T17:13:45Z</time></trkpt><trkpt lat="38.34648602042155" lon="15.859338849242446"><ele>448.0</ele><time>2026-04-12T17:13:46Z</time></trkpt><trkpt lat="38.34629865122119" lon="15.859385619270377"><ele>451.0</ele><time>2026-04-12T17:13:47Z</time></trkpt><trkpt lat="38.34612687720279" lon="15.859423278015965"><ele>454.0</ele><time>2026-04-12T17:13:48Z</time></trkpt><trkpt lat="38.34596558525422" lon="15.859449389777765"><ele>454.0</ele><time>2026-04-12T17:13:49Z</time></trkpt><trkpt lat="38.34582060779905" lon="15.85947306670041"><ele>454.0</ele><time>2026-04-12T17:13:50Z</time></trkpt><trkpt lat="38.34566892156077" lon="15.859510214594923"><ele>454.0</ele><time>2026-04-12T17:13:51Z</time></trkpt><trkpt lat="38.34552210978283" lon="15.85952630586754"><ele>454.0</ele><time>2026-04-12T17:13:52Z</time></trkpt><trkpt lat="38.3453560652665" lon="15.859511251977304"><ele>456.6666666666667</ele><time>2026-04-12T17:13:53Z</time></trkpt><trkpt lat="38.34518650274238" lon="15.859468995758212"><ele>459.33333333333337</ele><time>2026-04-12T17:13:54Z</time></trkpt><trkpt lat="38.34502185785976" lon="15.85940950072362"><ele>462.0</ele><time>2026-04-12T17:13:55Z</time></trkpt><trkpt lat="38.34486814868033" lon="15.85935479893163"><ele>463.0</ele><time>2026-04-12T17:13:56Z</time></trkpt><trkpt lat="38.344726681363476" lon="15.859282008131746"><ele>464.0</ele><time>2026-04-12T17:13:57Z</time></trkpt><trkpt lat="38.344590471810534" lon="15.859174063813338"><ele>465.0</ele><time>2026-04-12T17:13:58Z</time></trkpt><trkpt lat="38.3444717184046" lon="15.85903405156841"><ele>465.0</ele><time>2026-04-12T17:13:59Z</time></trkpt><trkpt lat="38.34435216434203" lon="15.858877669757206"><ele>465.0</ele><time>2026-04-12T17:14:00Z</time></trkpt><trkpt lat="38.344222443752386" lon="15.858712327616644"><ele>465.0</ele><time>2026-04-12T17:14:01Z</time></trkpt><trkpt lat="38.34408470422073" lon="15.858545944288242"><ele>466.33333333333337</ele><time>2026-04-12T17:14:02Z</time></trkpt><trkpt lat="38.34395440975569" lon="15.858374499109178"><ele>467.6666666666667</ele><time>2026-04-12T17:14:03Z</time></trkpt><trkpt lat="38.343821971406435" lon="15.858211302100973"><ele>469.0</ele><time>2026-04-12T17:14:04Z</time></trkpt><trkpt lat="38.343686618914184" lon="15.858044703271357"><ele>469.0</ele><time>2026-04-12T17:14:05Z</time></trkpt><trkpt lat="38.34354984984647" lon="15.857878959317185"><ele>469.0</ele><time>2026-04-12T17:14:06Z</time></trkpt><trkpt lat="38.343416318894235" lon="15.85771095802705"><ele>469.0</ele><time>2026-04-12T17:14:07Z</time></trkpt><trkpt lat="38.34328503877526" lon="15.857553342515383"><ele>467.33333333333337</ele><time>2026-04-12T17:14:08Z</time></trkpt><trkpt lat="38.34315549625304" lon="15.857402215286507"><ele>465.66666666666663</ele><time>2026-04-12T17:14:09Z</time></trkpt><trkpt lat="38.34302970259963" lon="15.85725693868677"><ele>464.0</ele><time>2026-04-12T17:14:10Z</time></trkpt><trkpt lat="38.342909680031966" lon="15.857116650036964"><ele>467.66666666666663</ele><time>2026-04-12T17:14:11Z</time></trkpt><trkpt lat="38.34279737825271" lon="15.856967030970408"><ele>471.33333333333337</ele><time>2026-04-12T17:14:12Z</time></trkpt><trkpt lat="38.342697201759634" lon="15.856824328351134"><ele>475.0</ele><time>2026-04-12T17:14:13Z</time></trkpt><trkpt lat="38.34261087814598" lon="15.856663734782666"><ele>475.0</ele><time>2026-04-12T17:14:14Z</time></trkpt><trkpt lat="38.34253798687649" lon="15.85647679502112"><ele>475.0</ele><time>2026-04-12T17:14:15Z</time></trkpt><trkpt lat="38.34246432333807" lon="15.856292846400672"><ele>475.0</ele><time>2026-04-12T17:14:16Z</time></trkpt><trkpt lat="38.34238104261125" lon="15.856116319654989"><ele>473.33333333333337</ele><time>2026-04-12T17:14:17Z</time></trkpt><trkpt lat="38.34228175028591" lon="15.855950297511384"><ele>471.66666666666663</ele><time>2026-04-12T17:14:18Z</time></trkpt><trkpt lat="38.34216151925338" lon="15.855802893336836"><ele>470.0</ele><time>2026-04-12T17:14:19Z</time></trkpt><trkpt lat="38.34202822422423" lon="15.855652411998353"><ele>476.66666666666663</ele><time>2026-04-12T17:14:20Z</time></trkpt><trkpt lat="38.34189478044914" lon="15.855509485519518"><ele>483.33333333333337</ele><time>2026-04-12T17:14:21Z</time></trkpt><trkpt lat="38.34176012870788" lon="15.855370447192273"><ele>490.0</ele><time>2026-04-12T17:14:22Z</time></trkpt><trkpt lat="38.34162063122882" lon="15.855237782329029"><ele>492.0</ele><time>2026-04-12T17:14:23Z</time></trkpt><trkpt lat="38.34147835799836" lon="15.85511238388144"><ele>494.0</ele><time>2026-04-12T17:14:24Z</time></trkpt><trkpt lat="38.341340278840185" lon="15.854988047584733"><ele>496.0</ele><time>2026-04-12T17:14:25Z</time></trkpt><trkpt lat="38.34120770453538" lon="15.8548787716494"><ele>496.0</ele><time>2026-04-12T17:14:26Z</time></trkpt><trkpt lat="38.34106543165599" lon="15.854777394292627"><ele>496.0</ele><time>2026-04-12T17:14:27Z</time></trkpt><trkpt lat="38.34091150111752" lon="15.854695852345236"><ele>496.0</ele><time>2026-04-12T17:14:28Z</time></trkpt><trkpt lat="38.340756168914936" lon="15.854639993882357"><ele>496.0</ele><time>2026-04-12T17:14:29Z</time></trkpt><trkpt lat="38.34060397249154" lon="15.854603076708148"><ele>496.0</ele><time>2026-04-12T17:14:30Z</time></trkpt><trkpt lat="38.34045893153854" lon="15.854558703530094"><ele>496.0</ele><time>2026-04-12T17:14:31Z</time></trkpt><trkpt lat="38.340312486909234" lon="15.854500017499804"><ele>497.6666666666667</ele><time>2026-04-12T17:14:32Z</time></trkpt><trkpt lat="38.34017152392025" lon="15.854405732413644"><ele>499.33333333333337</ele><time>2026-04-12T17:14:33Z</time></trkpt><trkpt lat="38.34004221224522" lon="15.854278864884117"><ele>501.0</ele><time>2026-04-12T17:14:34Z</time></trkpt><trkpt lat="38.33990026235925" lon="15.854115925555247"><ele>501.0</ele><time>2026-04-12T17:14:35Z</time></trkpt><trkpt lat="38.33975939053984" lon="15.853969995698002"><ele>501.0</ele><time>2026-04-12T17:14:36Z</time></trkpt><trkpt lat="38.33961380114971" lon="15.853834181434776"><ele>501.0</ele><time>2026-04-12T17:14:37Z</time></trkpt><trkpt lat="38.339471513455095" lon="15.853712959682316"><ele>505.33333333333337</ele><time>2026-04-12T17:14:38Z</time></trkpt><trkpt lat="38.33931903391134" lon="15.853647275191435"><ele>509.6666666666667</ele><time>2026-04-12T17:14:39Z</time></trkpt><trkpt lat="38.33918053071616" lon="15.853580484697687"><ele>514.0</ele><time>2026-04-12T17:14:40Z</time></trkpt><trkpt lat="38.33904862494359" lon="15.853493819565175"><ele>510.6666666666667</ele><time>2026-04-12T17:14:41Z</time></trkpt><trkpt lat="38.338935379475714" lon="15.853364616885301"><ele>507.33333333333337</ele><time>2026-04-12T17:14:42Z</time></trkpt><trkpt lat="38.33885429417722" lon="15.853204555951347"><ele>504.0</ele><time>2026-04-12T17:14:43Z</time></trkpt><trkpt lat="38.33878174610216" lon="15.853035682005943"><ele>505.75</ele><time>2026-04-12T17:14:44Z</time></trkpt><trkpt lat="38.33870612468956" lon="15.852887725439311"><ele>507.5</ele><time>2026-04-12T17:14:45Z</time></trkpt><trkpt lat="38.338604558716774" lon="15.852770407528125"><ele>509.25</ele><time>2026-04-12T17:14:46Z</time></trkpt><trkpt lat="38.33848021315809" lon="15.852675611615183"><ele>511.0</ele><time>2026-04-12T17:14:47Z</time></trkpt><trkpt lat="38.3383356084003" lon="15.852598644666672"><ele>511.0</ele><time>2026-04-12T17:14:48Z</time></trkpt><trkpt lat="38.33818324563847" lon="15.852505285153915"><ele>511.0</ele><time>2026-04-12T17:14:49Z</time></trkpt><trkpt lat="38.33804326768047" lon="15.852394618651566"><ele>511.0</ele><time>2026-04-12T17:14:50Z</time></trkpt><trkpt lat="38.33788161983218" lon="15.852309173437595"><ele>517.6666666666667</ele><time>2026-04-12T17:14:51Z</time></trkpt><trkpt lat="38.33771934733844" lon="15.852201876087147"><ele>524.3333333333334</ele><time>2026-04-12T17:14:52Z</time></trkpt><trkpt lat="38.33754615618665" lon="15.852083887277459"><ele>531.0</ele><time>2026-04-12T17:14:53Z</time></trkpt><trkpt lat="38.33736825733183" lon="15.851967769811186"><ele>532.6666666666666</ele><time>2026-04-12T17:14:54Z</time></trkpt><trkpt lat="38.337192717137796" lon="15.851854720722574"><ele>534.3333333333333</ele><time>2026-04-12T17:14:55Z</time></trkpt><trkpt lat="38.33702869164624" lon="15.85174569343421"><ele>536.0</ele><time>2026-04-12T17:14:56Z</time></trkpt><trkpt lat="38.336880786150125" lon="15.851641236024681"><ele>536.0</ele><time>2026-04-12T17:14:57Z</time></trkpt><trkpt lat="38.336733069576375" lon="15.851532292897913"><ele>536.0</ele><time>2026-04-12T17:14:58Z</time></trkpt><trkpt lat="38.3365928321624" lon="15.851414439157647"><ele>536.0</ele><time>2026-04-12T17:14:59Z</time></trkpt><trkpt lat="38.336456891022515" lon="15.851286276050232"><ele>536.0</ele><time>2026-04-12T17:15:00Z</time></trkpt><trkpt lat="38.336318641775044" lon="15.851135155197138"><ele>536.0</ele><time>2026-04-12T17:15:01Z</time></trkpt><trkpt lat="38.33617049524572" lon="15.850974934656808"><ele>536.0</ele><time>2026-04-12T17:15:02Z</time></trkpt><trkpt lat="38.336013724843745" lon="15.850816163199902"><ele>536.0</ele><time>2026-04-12T17:15:03Z</time></trkpt><trkpt lat="38.335862429330575" lon="15.85067220251795"><ele>536.0</ele><time>2026-04-12T17:15:04Z</time></trkpt><trkpt lat="38.33571944737419" lon="15.850538732364688"><ele>536.0</ele><time>2026-04-12T17:15:05Z</time></trkpt><trkpt lat="38.33556883528285" lon="15.850414930626847"><ele>538.6666666666666</ele><time>2026-04-12T17:15:06Z</time></trkpt><trkpt lat="38.335416125619965" lon="15.850306439551002"><ele>541.3333333333334</ele><time>2026-04-12T17:15:07Z</time></trkpt><trkpt lat="38.33527588702615" lon="15.850205934125198"><ele>544.0</ele><time>2026-04-12T17:15:08Z</time></trkpt><trkpt lat="38.335154112834324" lon="15.850132675615383"><ele>542.6666666666667</ele><time>2026-04-12T17:15:09Z</time></trkpt><trkpt lat="38.33504491527717" lon="15.850031026037081"><ele>541.3333333333334</ele><time>2026-04-12T17:15:10Z</time></trkpt><trkpt lat="38.33491848637973" lon="15.849920934757822"><ele>540.0</ele><time>2026-04-12T17:15:11Z</time></trkpt><trkpt lat="38.33481032937157" lon="15.849758294444548"><ele>541.0</ele><time>2026-04-12T17:15:12Z</time></trkpt><trkpt lat="38.33471514800458" lon="15.849582071031062"><ele>542.0</ele><time>2026-04-12T17:15:13Z</time></trkpt><trkpt lat="38.334623569810994" lon="15.849421683692553"><ele>543.0</ele><time>2026-04-12T17:15:14Z</time></trkpt><trkpt lat="38.33452031641069" lon="15.84925976275048"><ele>543.0</ele><time>2026-04-12T17:15:15Z</time></trkpt><trkpt lat="38.33441806119058" lon="15.849089196269738"><ele>543.0</ele><time>2026-04-12T17:15:16Z</time></trkpt><trkpt lat="38.33431079874399" lon="15.848917059818074"><ele>543.0</ele><time>2026-04-12T17:15:17Z</time></trkpt><trkpt lat="38.33421301102455" lon="15.848746032403799"><ele>543.0</ele><time>2026-04-12T17:15:18Z</time></trkpt><trkpt lat="38.3341227119808" lon="15.848584630954967"><ele>543.0</ele><time>2026-04-12T17:15:19Z</time></trkpt><trkpt lat="38.3340312710174" lon="15.84842082600188"><ele>543.0</ele><time>2026-04-12T17:15:20Z</time></trkpt><trkpt lat="38.33393751751696" lon="15.848258768947808"><ele>542.5</ele><time>2026-04-12T17:15:21Z</time></trkpt><trkpt lat="38.33385096681739" lon="15.848114762301378"><ele>542.0</ele><time>2026-04-12T17:15:22Z</time></trkpt><trkpt lat="38.33377069482634" lon="15.847986864205371"><ele>541.5</ele><time>2026-04-12T17:15:23Z</time></trkpt><trkpt lat="38.333703311788476" lon="15.847869850442326"><ele>541.0</ele><time>2026-04-12T17:15:24Z</time></trkpt><trkpt lat="38.33363120169422" lon="15.84774909129025"><ele>541.75</ele><time>2026-04-12T17:15:25Z</time></trkpt><trkpt lat="38.33355548332631" lon="15.847608560952423"><ele>542.5</ele><time>2026-04-12T17:15:26Z</time></trkpt><trkpt lat="38.33346710894389" lon="15.84747550925743"><ele>543.25</ele><time>2026-04-12T17:15:27Z</time></trkpt><trkpt lat="38.333357667488556" lon="15.847351852110213"><ele>544.0</ele><time>2026-04-12T17:15:28Z</time></trkpt><trkpt lat="38.333233627802976" lon="15.847263479105301"><ele>544.0</ele><time>2026-04-12T17:15:29Z</time></trkpt><trkpt lat="38.33309082147502" lon="15.847201842992474"><ele>544.0</ele><time>2026-04-12T17:15:30Z</time></trkpt><trkpt lat="38.33294314494506" lon="15.847151423472507"><ele>544.0</ele><time>2026-04-12T17:15:31Z</time></trkpt><trkpt lat="38.33278443250177" lon="15.847093765910655"><ele>542.0</ele><time>2026-04-12T17:15:32Z</time></trkpt><trkpt lat="38.33261384623637" lon="15.84703125007526"><ele>540.0</ele><time>2026-04-12T17:15:33Z</time></trkpt><trkpt lat="38.33243869647468" lon="15.846965849313214"><ele>538.0</ele><time>2026-04-12T17:15:34Z</time></trkpt><trkpt lat="38.332266661806116" lon="15.846906361784127"><ele>538.0</ele><time>2026-04-12T17:15:35Z</time></trkpt><trkpt lat="38.33210543651318" lon="15.846848386066432"><ele>538.0</ele><time>2026-04-12T17:15:36Z</time></trkpt><trkpt lat="38.331949402624595" lon="15.84679129021201"><ele>538.0</ele><time>2026-04-12T17:15:37Z</time></trkpt><trkpt lat="38.33180285310181" lon="15.846736082910024"><ele>538.0</ele><time>2026-04-12T17:15:38Z</time></trkpt><trkpt lat="38.33167042867585" lon="15.846677049277371"><ele>538.0</ele><time>2026-04-12T17:15:39Z</time></trkpt><trkpt lat="38.33155617437446" lon="15.846602727273874"><ele>538.0</ele><time>2026-04-12T17:15:40Z</time></trkpt><trkpt lat="38.33144673769252" lon="15.846511385993068"><ele>538.0</ele><time>2026-04-12T17:15:41Z</time></trkpt><trkpt lat="38.331332904506084" lon="15.846410683149994"><ele>536.25</ele><time>2026-04-12T17:15:42Z</time></trkpt><trkpt lat="38.33122785437833" lon="15.846297985140318"><ele>534.5</ele><time>2026-04-12T17:15:43Z</time></trkpt><trkpt lat="38.331130853167565" lon="15.846205282198738"><ele>532.75</ele><time>2026-04-12T17:15:44Z</time></trkpt><trkpt lat="38.331033545148635" lon="15.846125345337448"><ele>531.0</ele><time>2026-04-12T17:15:45Z</time></trkpt><trkpt lat="38.33094228028118" lon="15.846045127125448"><ele>532.0</ele><time>2026-04-12T17:15:46Z</time></trkpt><trkpt lat="38.330846361343674" lon="15.845958461435023"><ele>533.0</ele><time>2026-04-12T17:15:47Z</time></trkpt><trkpt lat="38.33075150400402" lon="15.845864048175729"><ele>534.0</ele><time>2026-04-12T17:15:48Z</time></trkpt><trkpt lat="38.33065997485618" lon="15.845762195523859"><ele>535.0</ele><time>2026-04-12T17:15:49Z</time></trkpt><trkpt lat="38.330572719570284" lon="15.845664779650312"><ele>533.6666666666667</ele><time>2026-04-12T17:15:50Z</time></trkpt><trkpt lat="38.330489691995794" lon="15.845573331582349"><ele>532.3333333333334</ele><time>2026-04-12T17:15:51Z</time></trkpt><trkpt lat="38.330414144678414" lon="15.84550615694457"><ele>531.0</ele><time>2026-04-12T17:15:52Z</time></trkpt><trkpt lat="38.33036994045136" lon="15.845445688465297"><ele>529.6666666666666</ele><time>2026-04-12T17:15:53Z</time></trkpt><trkpt lat="38.3303146150247" lon="15.84540600816934"><ele>528.3333333333333</ele><time>2026-04-12T17:15:54Z</time></trkpt><trkpt lat="38.33022933723782" lon="15.845324566119281"><ele>527.0</ele><time>2026-04-12T17:15:56Z</time></trkpt><trkpt lat="38.33015867797644" lon="15.845255584609678"><ele>527.0</ele><time>2026-04-12T17:15:58Z</time></trkpt><trkpt lat="38.33008905547768" lon="15.845200415671036"><ele>527.0</ele><time>2026-04-12T17:16:00Z</time></trkpt><trkpt lat="38.330034086962534" lon="15.845108880929194"><ele>527.0</ele><time>2026-04-12T17:16:02Z</time></trkpt><trkpt lat="38.32996570190393" lon="15.845083026678854"><ele>527.0</ele><time>2026-04-12T17:16:05Z</time></trkpt><trkpt lat="38.329913811576056" lon="15.845035110096216"><ele>527.0</ele><time>2026-04-12T17:16:07Z</time></trkpt><trkpt lat="38.329843475368" lon="15.844965674263689"><ele>527.0</ele><time>2026-04-12T17:16:10Z</time></trkpt><trkpt lat="38.32978302796703" lon="15.844904858328999"><ele>527.3333333333333</ele><time>2026-04-12T17:16:13Z</time></trkpt><trkpt lat="38.32972448860555" lon="15.844852696116627"><ele>527.6666666666666</ele><time>2026-04-12T17:16:15Z</time></trkpt><trkpt lat="38.329679394004586" lon="15.844778025621846"><ele>528.0</ele><time>2026-04-12T17:16:18Z</time></trkpt><trkpt lat="38.329608483496045" lon="15.844747629444944"><ele>528.3333333333334</ele><time>2026-04-12T17:16:22Z</time></trkpt><trkpt lat="38.32969186829459" lon="15.844883023547947"><ele>528.6666666666667</ele><time>2026-04-12T17:16:33Z</time></trkpt><trkpt lat="38.32973189632047" lon="15.844965333242971"><ele>529.0</ele><time>2026-04-12T17:16:34Z</time></trkpt><trkpt lat="38.329767071490615" lon="15.845088115801774"><ele>528.0</ele><time>2026-04-12T17:16:35Z</time></trkpt><trkpt lat="38.33009071878144" lon="15.84515733923359"><ele>527.0</ele><time>2026-04-12T17:16:36Z</time></trkpt><trkpt lat="38.33025413412649" lon="15.845392382817497"><ele>527.0</ele><time>2026-04-12T17:16:37Z</time></trkpt><trkpt lat="38.330437879592616" lon="15.845588343336695"><ele>527.0</ele><time>2026-04-12T17:16:38Z</time></trkpt><trkpt lat="38.33060646618369" lon="15.845750389482252"><ele>527.8000000000001</ele><time>2026-04-12T17:16:39Z</time></trkpt><trkpt lat="38.33073823509565" lon="15.845866889625684"><ele>528.6</ele><time>2026-04-12T17:16:40Z</time></trkpt><trkpt lat="38.330833644810724" lon="15.845958342167238"><ele>529.4000000000001</ele><time>2026-04-12T17:16:41Z</time></trkpt><trkpt lat="38.33090443818169" lon="15.846029747435745"><ele>530.2</ele><time>2026-04-12T17:16:42Z</time></trkpt><trkpt lat="38.330960734323064" lon="15.846080646533203"><ele>531.0</ele><time>2026-04-12T17:16:43Z</time></trkpt><trkpt lat="38.331042928499464" lon="15.846161519854952"><ele>531.0</ele><time>2026-04-12T17:16:45Z</time></trkpt><trkpt lat="38.33105467311931" lon="15.846081585236021"><ele>531.0</ele><time>2026-04-12T17:16:48Z</time></trkpt><trkpt lat="38.330998514394906" lon="15.84603686987355"><ele>531.0</ele><time>2026-04-12T17:16:51Z</time></trkpt><trkpt lat="38.330938260193086" lon="15.846004863493167"><ele>531.0</ele><time>2026-04-12T17:16:52Z</time></trkpt><trkpt lat="38.3308646274622" lon="15.845952091229693"><ele>531.0</ele><time>2026-04-12T17:16:53Z</time></trkpt><trkpt lat="38.330738175187896" lon="15.845830027034534"><ele>531.0</ele><time>2026-04-12T17:16:54Z</time></trkpt><trkpt lat="38.330618926427285" lon="15.845729352959461"><ele>529.6666666666666</ele><time>2026-04-12T17:16:55Z</time></trkpt><trkpt lat="38.33047152504732" lon="15.845589035797948"><ele>528.3333333333333</ele><time>2026-04-12T17:16:56Z</time></trkpt><trkpt lat="38.33033019868919" lon="15.845447101188562"><ele>527.0</ele><time>2026-04-12T17:16:57Z</time></trkpt><trkpt lat="38.33020322016122" lon="15.845322214024335"><ele>527.0</ele><time>2026-04-12T17:16:58Z</time></trkpt><trkpt lat="38.33007702179992" lon="15.845212201970797"><ele>527.0</ele><time>2026-04-12T17:16:59Z</time></trkpt><trkpt lat="38.32996653727005" lon="15.845094646601474"><ele>527.0</ele><time>2026-04-12T17:17:00Z</time></trkpt><trkpt lat="38.3298412625145" lon="15.844974226950342"><ele>526.25</ele><time>2026-04-12T17:17:01Z</time></trkpt><trkpt lat="38.329712824279845" lon="15.844856357143767"><ele>525.5</ele><time>2026-04-12T17:17:02Z</time></trkpt><trkpt lat="38.32960004863903" lon="15.844753418155673"><ele>524.75</ele><time>2026-04-12T17:17:03Z</time></trkpt><trkpt lat="38.32950067775489" lon="15.844659116686403"><ele>524.0</ele><time>2026-04-12T17:17:04Z</time></trkpt><trkpt lat="38.32940416784509" lon="15.844570813501614"><ele>524.0</ele><time>2026-04-12T17:17:05Z</time></trkpt><trkpt lat="38.329310209001285" lon="15.844482755266785"><ele>524.0</ele><time>2026-04-12T17:17:06Z</time></trkpt><trkpt lat="38.32921042167753" lon="15.844394608300462"><ele>524.0</ele><time>2026-04-12T17:17:07Z</time></trkpt><trkpt lat="38.32911033177933" lon="15.84426916748998"><ele>524.0</ele><time>2026-04-12T17:17:08Z</time></trkpt><trkpt lat="38.32901577936339" lon="15.84413042633535"><ele>524.5</ele><time>2026-04-12T17:17:09Z</time></trkpt><trkpt lat="38.32892965067269" lon="15.843969973211008"><ele>525.0</ele><time>2026-04-12T17:17:10Z</time></trkpt><trkpt lat="38.32884937068558" lon="15.84380407593231"><ele>525.5</ele><time>2026-04-12T17:17:11Z</time></trkpt><trkpt lat="38.32879436540638" lon="15.843649269421704"><ele>526.0</ele><time>2026-04-12T17:17:12Z</time></trkpt><trkpt lat="38.32875103457619" lon="15.843495607502328"><ele>523.25</ele><time>2026-04-12T17:17:13Z</time></trkpt><trkpt lat="38.32872131116007" lon="15.84334292180717"><ele>520.5</ele><time>2026-04-12T17:17:14Z</time></trkpt><trkpt lat="38.328710348440666" lon="15.8431941231003"><ele>517.75</ele><time>2026-04-12T17:17:15Z</time></trkpt><trkpt lat="38.3287207693579" lon="15.843047508046071"><ele>515.0</ele><time>2026-04-12T17:17:16Z</time></trkpt><trkpt lat="38.328760997081446" lon="15.842897493109367"><ele>515.0</ele><time>2026-04-12T17:17:17Z</time></trkpt><trkpt lat="38.328790713208214" lon="15.842759152439813"><ele>515.0</ele><time>2026-04-12T17:17:18Z</time></trkpt><trkpt lat="38.32882922207453" lon="15.842562941475105"><ele>515.0</ele><time>2026-04-12T17:17:19Z</time></trkpt><trkpt lat="38.32886804398595" lon="15.842393187051997"><ele>515.0</ele><time>2026-04-12T17:17:20Z</time></trkpt><trkpt lat="38.32891189402247" lon="15.842224533228475"><ele>516.0</ele><time>2026-04-12T17:17:21Z</time></trkpt><trkpt lat="38.32896186027027" lon="15.842025731382174"><ele>517.0</ele><time>2026-04-12T17:17:22Z</time></trkpt><trkpt lat="38.32901398485452" lon="15.84181959834726"><ele>518.0</ele><time>2026-04-12T17:17:23Z</time></trkpt><trkpt lat="38.32906552634803" lon="15.841645035068979"><ele>518.0</ele><time>2026-04-12T17:17:24Z</time></trkpt><trkpt lat="38.329082823263946" lon="15.841462402086272"><ele>518.0</ele><time>2026-04-12T17:17:25Z</time></trkpt><trkpt lat="38.32907299487657" lon="15.84127987967499"><ele>518.0</ele><time>2026-04-12T17:17:26Z</time></trkpt><trkpt lat="38.329040947582534" lon="15.841106060342922"><ele>518.0</ele><time>2026-04-12T17:17:27Z</time></trkpt><trkpt lat="38.328964674215015" lon="15.840933362994496"><ele>515.6666666666666</ele><time>2026-04-12T17:17:28Z</time></trkpt><trkpt lat="38.32887459035121" lon="15.840782264983941"><ele>513.3333333333334</ele><time>2026-04-12T17:17:29Z</time></trkpt><trkpt lat="38.32874392060606" lon="15.84066005821227"><ele>511.0</ele><time>2026-04-12T17:17:30Z</time></trkpt><trkpt lat="38.328603187992954" lon="15.840582286181107"><ele>511.0</ele><time>2026-04-12T17:17:31Z</time></trkpt><trkpt lat="38.328450601680586" lon="15.840535934515046"><ele>511.0</ele><time>2026-04-12T17:17:32Z</time></trkpt><trkpt lat="38.32830392602046" lon="15.840505247927924"><ele>511.0</ele><time>2026-04-12T17:17:33Z</time></trkpt><trkpt lat="38.3281473353218" lon="15.84045793868837"><ele>508.33333333333337</ele><time>2026-04-12T17:17:34Z</time></trkpt><trkpt lat="38.3279716790069" lon="15.84040189677095"><ele>505.66666666666663</ele><time>2026-04-12T17:17:35Z</time></trkpt><trkpt lat="38.32778481651334" lon="15.840335307234577"><ele>503.0</ele><time>2026-04-12T17:17:36Z</time></trkpt><trkpt lat="38.32766803955108" lon="15.840302597850837"><ele>503.0</ele><time>2026-04-12T17:17:37Z</time></trkpt><trkpt lat="38.327526025546895" lon="15.840259798527043"><ele>503.0</ele><time>2026-04-12T17:17:38Z</time></trkpt><trkpt lat="38.327384022285294" lon="15.84020835207203"><ele>503.0</ele><time>2026-04-12T17:17:39Z</time></trkpt><trkpt lat="38.32723482828003" lon="15.84016100555464"><ele>503.0</ele><time>2026-04-12T17:17:40Z</time></trkpt><trkpt lat="38.327084922926105" lon="15.840112537169288"><ele>503.0</ele><time>2026-04-12T17:17:41Z</time></trkpt><trkpt lat="38.326934139564386" lon="15.840064419884097"><ele>503.0</ele><time>2026-04-12T17:17:42Z</time></trkpt><trkpt lat="38.32678061017309" lon="15.840017431922202"><ele>503.0</ele><time>2026-04-12T17:17:43Z</time></trkpt><trkpt lat="38.32662871586426" lon="15.839967594233451"><ele>503.0</ele><time>2026-04-12T17:17:44Z</time></trkpt><trkpt lat="38.32647844156812" lon="15.839921433945158"><ele>503.0</ele><time>2026-04-12T17:17:45Z</time></trkpt><trkpt lat="38.32631778169317" lon="15.839870651690026"><ele>503.0</ele><time>2026-04-12T17:17:46Z</time></trkpt><trkpt lat="38.326156112262574" lon="15.839821184673497"><ele>502.25</ele><time>2026-04-12T17:17:47Z</time></trkpt><trkpt lat="38.32600309593121" lon="15.839777844291643"><ele>501.5</ele><time>2026-04-12T17:17:48Z</time></trkpt><trkpt lat="38.32585666003156" lon="15.839748210713338"><ele>500.75</ele><time>2026-04-12T17:17:49Z</time></trkpt><trkpt lat="38.32571558909617" lon="15.839739149041657"><ele>500.0</ele><time>2026-04-12T17:17:50Z</time></trkpt><trkpt lat="38.32558810812372" lon="15.839755602630776"><ele>500.0</ele><time>2026-04-12T17:17:51Z</time></trkpt><trkpt lat="38.325451602592366" lon="15.839790406257052"><ele>500.0</ele><time>2026-04-12T17:17:52Z</time></trkpt><trkpt lat="38.32532015990394" lon="15.83983973769145"><ele>500.0</ele><time>2026-04-12T17:17:53Z</time></trkpt><trkpt lat="38.325196949385415" lon="15.839900769576962"><ele>500.0</ele><time>2026-04-12T17:17:54Z</time></trkpt><trkpt lat="38.32507788739665" lon="15.83995347743605"><ele>500.0</ele><time>2026-04-12T17:17:55Z</time></trkpt><trkpt lat="38.32494961607438" lon="15.840003685458047"><ele>500.0</ele><time>2026-04-12T17:17:56Z</time></trkpt><trkpt lat="38.3248224102912" lon="15.840048957407033"><ele>500.0</ele><time>2026-04-12T17:17:57Z</time></trkpt><trkpt lat="38.3246913517443" lon="15.840101978457566"><ele>500.0</ele><time>2026-04-12T17:17:58Z</time></trkpt><trkpt lat="38.324555406694444" lon="15.840156406395765"><ele>498.0</ele><time>2026-04-12T17:17:59Z</time></trkpt><trkpt lat="38.32441370938598" lon="15.840217665208979"><ele>496.0</ele><time>2026-04-12T17:18:00Z</time></trkpt><trkpt lat="38.32426394473319" lon="15.840277979545684"><ele>494.0</ele><time>2026-04-12T17:18:01Z</time></trkpt><trkpt lat="38.32412560606747" lon="15.840332941362998"><ele>494.0</ele><time>2026-04-12T17:18:02Z</time></trkpt><trkpt lat="38.323987926560335" lon="15.840389288606703"><ele>494.0</ele><time>2026-04-12T17:18:03Z</time></trkpt><trkpt lat="38.3238785233469" lon="15.840441597624709"><ele>494.0</ele><time>2026-04-12T17:18:04Z</time></trkpt><trkpt lat="38.323785515917436" lon="15.840476954415909"><ele>494.0</ele><time>2026-04-12T17:18:05Z</time></trkpt><trkpt lat="38.32369995707293" lon="15.84051172534038"><ele>494.0</ele><time>2026-04-12T17:18:06Z</time></trkpt><trkpt lat="38.32361606762481" lon="15.840547715925345"><ele>494.79999999999995</ele><time>2026-04-12T17:18:07Z</time></trkpt><trkpt lat="38.3235429009271" lon="15.840572910208408"><ele>495.59999999999997</ele><time>2026-04-12T17:18:08Z</time></trkpt><trkpt lat="38.32345777994955" lon="15.84060958162315"><ele>496.4</ele><time>2026-04-12T17:18:09Z</time></trkpt><trkpt lat="38.323365164225294" lon="15.840628946698944"><ele>497.2</ele><time>2026-04-12T17:18:10Z</time></trkpt><trkpt lat="38.323268993955125" lon="15.840683208345673"><ele>498.0</ele><time>2026-04-12T17:18:11Z</time></trkpt><trkpt lat="38.32316012686552" lon="15.840721915601655"><ele>499.5</ele><time>2026-04-12T17:18:12Z</time></trkpt><trkpt lat="38.32305548044528" lon="15.840765468930213"><ele>501.0</ele><time>2026-04-12T17:18:13Z</time></trkpt><trkpt lat="38.32292961856394" lon="15.840814967117192"><ele>502.5</ele><time>2026-04-12T17:18:14Z</time></trkpt><trkpt lat="38.322813078133954" lon="15.84086219318891"><ele>504.0</ele><time>2026-04-12T17:18:15Z</time></trkpt><trkpt lat="38.32269386655465" lon="15.840907694846344"><ele>504.0</ele><time>2026-04-12T17:18:16Z</time></trkpt><trkpt lat="38.322576868691044" lon="15.840957549988051"><ele>504.0</ele><time>2026-04-12T17:18:17Z</time></trkpt><trkpt lat="38.32244783604834" lon="15.841009079788755"><ele>504.0</ele><time>2026-04-12T17:18:18Z</time></trkpt><trkpt lat="38.32231649933437" lon="15.841059392518531"><ele>504.0</ele><time>2026-04-12T17:18:19Z</time></trkpt><trkpt lat="38.32217923549691" lon="15.841108687300833"><ele>503.75</ele><time>2026-04-12T17:18:20Z</time></trkpt><trkpt lat="38.32204240905043" lon="15.84115972211462"><ele>503.5</ele><time>2026-04-12T17:18:21Z</time></trkpt><trkpt lat="38.32191072074566" lon="15.841206462550595"><ele>503.25</ele><time>2026-04-12T17:18:22Z</time></trkpt><trkpt lat="38.321772294898246" lon="15.841237946789906"><ele>503.0</ele><time>2026-04-12T17:18:23Z</time></trkpt><trkpt lat="38.32163274349193" lon="15.841259105689538"><ele>503.0</ele><time>2026-04-12T17:18:24Z</time></trkpt><trkpt lat="38.32149044855945" lon="15.84126193734338"><ele>503.0</ele><time>2026-04-12T17:18:25Z</time></trkpt><trkpt lat="38.32134603361337" lon="15.841253494723802"><ele>503.0</ele><time>2026-04-12T17:18:26Z</time></trkpt><trkpt lat="38.32120304285081" lon="15.841246235152209"><ele>503.0</ele><time>2026-04-12T17:18:27Z</time></trkpt><trkpt lat="38.32104236921112" lon="15.841234461087096"><ele>504.66666666666663</ele><time>2026-04-12T17:18:28Z</time></trkpt><trkpt lat="38.320900031032934" lon="15.841224355020376"><ele>506.33333333333337</ele><time>2026-04-12T17:18:29Z</time></trkpt><trkpt lat="38.320735813408845" lon="15.841226137067862"><ele>508.0</ele><time>2026-04-12T17:18:30Z</time></trkpt><trkpt lat="38.32057644955601" lon="15.841215473445118"><ele>507.6666666666667</ele><time>2026-04-12T17:18:31Z</time></trkpt><trkpt lat="38.320408513039546" lon="15.841209281505572"><ele>507.33333333333337</ele><time>2026-04-12T17:18:32Z</time></trkpt><trkpt lat="38.32024239521389" lon="15.84120414451362"><ele>507.0</ele><time>2026-04-12T17:18:33Z</time></trkpt><trkpt lat="38.32007940403604" lon="15.841201496307814"><ele>507.0</ele><time>2026-04-12T17:18:34Z</time></trkpt><trkpt lat="38.31991566824428" lon="15.841204411694163"><ele>507.0</ele><time>2026-04-12T17:18:35Z</time></trkpt><trkpt lat="38.31975413718463" lon="15.841223608896989"><ele>507.0</ele><time>2026-04-12T17:18:36Z</time></trkpt><trkpt lat="38.31959415977182" lon="15.841269126630877"><ele>505.66666666666663</ele><time>2026-04-12T17:18:37Z</time></trkpt><trkpt lat="38.319435285701864" lon="15.841339680972364"><ele>504.3333333333333</ele><time>2026-04-12T17:18:38Z</time></trkpt><trkpt lat="38.319282560214184" lon="15.841434826728667"><ele>503.0</ele><time>2026-04-12T17:18:39Z</time></trkpt><trkpt lat="38.31913261176204" lon="15.841528984686663"><ele>503.0</ele><time>2026-04-12T17:18:40Z</time></trkpt><trkpt lat="38.31898791170065" lon="15.841631209097475"><ele>503.0</ele><time>2026-04-12T17:18:41Z</time></trkpt><trkpt lat="38.318857505179906" lon="15.84175195668488"><ele>503.0</ele><time>2026-04-12T17:18:42Z</time></trkpt><trkpt lat="38.318725491422995" lon="15.84188806037947"><ele>502.66666666666663</ele><time>2026-04-12T17:18:43Z</time></trkpt><trkpt lat="38.31861258931359" lon="15.842049142023399"><ele>502.33333333333337</ele><time>2026-04-12T17:18:44Z</time></trkpt><trkpt lat="38.318505884403564" lon="15.842213637261105"><ele>502.0</ele><time>2026-04-12T17:18:45Z</time></trkpt><trkpt lat="38.318410873658486" lon="15.842381788641909"><ele>502.0</ele><time>2026-04-12T17:18:46Z</time></trkpt><trkpt lat="38.318345232631806" lon="15.842565632225142"><ele>502.0</ele><time>2026-04-12T17:18:47Z</time></trkpt><trkpt lat="38.31830246933032" lon="15.842772332355068"><ele>502.0</ele><time>2026-04-12T17:18:48Z</time></trkpt><trkpt lat="38.31829159816733" lon="15.842983914862137"><ele>501.0</ele><time>2026-04-12T17:18:49Z</time></trkpt><trkpt lat="38.318291680301094" lon="15.843184510033804"><ele>500.0</ele><time>2026-04-12T17:18:50Z</time></trkpt><trkpt lat="38.31827904373314" lon="15.843382690837938"><ele>499.0</ele><time>2026-04-12T17:18:51Z</time></trkpt><trkpt lat="38.318238446472684" lon="15.843563230623559"><ele>499.0</ele><time>2026-04-12T17:18:52Z</time></trkpt><trkpt lat="38.31817403474883" lon="15.843736940752105"><ele>499.0</ele><time>2026-04-12T17:18:53Z</time></trkpt><trkpt lat="38.31808723948362" lon="15.843908576448637"><ele>499.0</ele><time>2026-04-12T17:18:54Z</time></trkpt><trkpt lat="38.31797985422892" lon="15.844060911029901"><ele>499.0</ele><time>2026-04-12T17:18:55Z</time></trkpt><trkpt lat="38.31783725594946" lon="15.84417639201788"><ele>499.0</ele><time>2026-04-12T17:18:56Z</time></trkpt><trkpt lat="38.317676781634304" lon="15.84427214462854"><ele>499.0</ele><time>2026-04-12T17:18:57Z</time></trkpt><trkpt lat="38.31750804014421" lon="15.844333703200173"><ele>497.6666666666667</ele><time>2026-04-12T17:18:58Z</time></trkpt><trkpt lat="38.3173145709804" lon="15.84434366195107"><ele>496.33333333333337</ele><time>2026-04-12T17:18:59Z</time></trkpt><trkpt lat="38.317120994855415" lon="15.844398192135316"><ele>495.0</ele><time>2026-04-12T17:19:00Z</time></trkpt><trkpt lat="38.31693357804609" lon="15.844428545895648"><ele>494.33333333333337</ele><time>2026-04-12T17:19:01Z</time></trkpt><trkpt lat="38.31675369059124" lon="15.844460168649258"><ele>493.6666666666667</ele><time>2026-04-12T17:19:02Z</time></trkpt><trkpt lat="38.316567928350224" lon="15.844462700216296"><ele>493.0</ele><time>2026-04-12T17:19:03Z</time></trkpt><trkpt lat="38.316385795677235" lon="15.84453815449238"><ele>492.6666666666667</ele><time>2026-04-12T17:19:04Z</time></trkpt><trkpt lat="38.31619805333746" lon="15.844575760538236"><ele>492.33333333333337</ele><time>2026-04-12T17:19:05Z</time></trkpt><trkpt lat="38.31601153243236" lon="15.84461814908098"><ele>492.0</ele><time>2026-04-12T17:19:06Z</time></trkpt><trkpt lat="38.315803016418506" lon="15.844658895442752"><ele>492.0</ele><time>2026-04-12T17:19:07Z</time></trkpt><trkpt lat="38.315594925632" lon="15.844704172442452"><ele>492.0</ele><time>2026-04-12T17:19:08Z</time></trkpt><trkpt lat="38.31538609376311" lon="15.844750502315259"><ele>492.0</ele><time>2026-04-12T17:19:09Z</time></trkpt><trkpt lat="38.31515982567964" lon="15.84479290757015"><ele>490.66666666666663</ele><time>2026-04-12T17:19:10Z</time></trkpt><trkpt lat="38.314952957397104" lon="15.844843421037707"><ele>489.3333333333333</ele><time>2026-04-12T17:19:11Z</time></trkpt><trkpt lat="38.31475808800288" lon="15.844895914668653"><ele>488.0</ele><time>2026-04-12T17:19:12Z</time></trkpt><trkpt lat="38.31455917412893" lon="15.844926321075775"><ele>487.0</ele><time>2026-04-12T17:19:13Z</time></trkpt><trkpt lat="38.31436277630833" lon="15.844967887337805"><ele>486.0</ele><time>2026-04-12T17:19:14Z</time></trkpt><trkpt lat="38.314159777734915" lon="15.845011639126714"><ele>485.0</ele><time>2026-04-12T17:19:15Z</time></trkpt><trkpt lat="38.3139601744413" lon="15.845054748809757"><ele>484.0</ele><time>2026-04-12T17:19:16Z</time></trkpt><trkpt lat="38.313760083204855" lon="15.84509796387521"><ele>483.0</ele><time>2026-04-12T17:19:17Z</time></trkpt><trkpt lat="38.313568331180356" lon="15.84515799606458"><ele>482.0</ele><time>2026-04-12T17:19:18Z</time></trkpt><trkpt lat="38.313372737222004" lon="15.845198736780484"><ele>482.0</ele><time>2026-04-12T17:19:19Z</time></trkpt><trkpt lat="38.31317074323521" lon="15.845242948241124"><ele>482.0</ele><time>2026-04-12T17:19:20Z</time></trkpt><trkpt lat="38.312972500884904" lon="15.845285340867434"><ele>482.0</ele><time>2026-04-12T17:19:21Z</time></trkpt><trkpt lat="38.31277607789611" lon="15.845308073110587"><ele>482.0</ele><time>2026-04-12T17:19:22Z</time></trkpt><trkpt lat="38.31260169491404" lon="15.845345290374809"><ele>482.0</ele><time>2026-04-12T17:19:23Z</time></trkpt><trkpt lat="38.3124394345279" lon="15.845401368171391"><ele>482.0</ele><time>2026-04-12T17:19:24Z</time></trkpt><trkpt lat="38.31227515943487" lon="15.845433785788028"><ele>482.3333333333333</ele><time>2026-04-12T17:19:25Z</time></trkpt><trkpt lat="38.31209381739697" lon="15.845472024844765"><ele>482.66666666666663</ele><time>2026-04-12T17:19:26Z</time></trkpt><trkpt lat="38.311960435097696" lon="15.845498611504347"><ele>483.0</ele><time>2026-04-12T17:19:27Z</time></trkpt><trkpt lat="38.311818614949644" lon="15.845529906560415"><ele>483.0</ele><time>2026-04-12T17:19:28Z</time></trkpt><trkpt lat="38.311684055409955" lon="15.845557071297316"><ele>483.0</ele><time>2026-04-12T17:19:29Z</time></trkpt><trkpt lat="38.31156576719456" lon="15.845582916357127"><ele>483.0</ele><time>2026-04-12T17:19:30Z</time></trkpt><trkpt lat="38.31145390248625" lon="15.845607575307021"><ele>483.0</ele><time>2026-04-12T17:19:31Z</time></trkpt><trkpt lat="38.31133786947231" lon="15.845633293441928"><ele>482.79999999999995</ele><time>2026-04-12T17:19:32Z</time></trkpt><trkpt lat="38.311228346680174" lon="15.84564167011424"><ele>482.59999999999997</ele><time>2026-04-12T17:19:33Z</time></trkpt><trkpt lat="38.31112772212491" lon="15.845631906844785"><ele>482.40000000000003</ele><time>2026-04-12T17:19:34Z</time></trkpt><trkpt lat="38.311030960958036" lon="15.845608598842933"><ele>482.20000000000005</ele><time>2026-04-12T17:19:35Z</time></trkpt><trkpt lat="38.31095706681319" lon="15.845564953057"><ele>482.0</ele><time>2026-04-12T17:19:36Z</time></trkpt><trkpt lat="38.31089513052984" lon="15.84552112802766"><ele>482.0</ele><time>2026-04-12T17:19:37Z</time></trkpt><trkpt lat="38.3107873730437" lon="15.845479596468202"><ele>482.00000000000006</ele><time>2026-04-12T17:19:39Z</time></trkpt><trkpt lat="38.310727931016" lon="15.845523770045782"><ele>482.00000000000006</ele><time>2026-04-12T17:19:41Z</time></trkpt><trkpt lat="38.31066091004267" lon="15.845431033528971"><ele>482.0</ele><time>2026-04-12T17:19:42Z</time></trkpt><trkpt lat="38.31059959402254" lon="15.845367312055327"><ele>482.0</ele><time>2026-04-12T17:19:44Z</time></trkpt><trkpt lat="38.31051223701192" lon="15.8452556406988"><ele>481.6</ele><time>2026-04-12T17:19:46Z</time></trkpt><trkpt lat="38.31044213157193" lon="15.845207122281922"><ele>481.20000000000005</ele><time>2026-04-12T17:19:47Z</time></trkpt><trkpt lat="38.31036412063103" lon="15.845127436908312"><ele>480.8</ele><time>2026-04-12T17:19:48Z</time></trkpt><trkpt lat="38.3102707039679" lon="15.845030709182314"><ele>480.4</ele><time>2026-04-12T17:19:49Z</time></trkpt><trkpt lat="38.310189905502746" lon="15.844948951241141"><ele>480.0</ele><time>2026-04-12T17:19:50Z</time></trkpt><trkpt lat="38.31012667715457" lon="15.844841804501941"><ele>480.0</ele><time>2026-04-12T17:19:51Z</time></trkpt><trkpt lat="38.31004774639101" lon="15.84471995140619"><ele>480.0</ele><time>2026-04-12T17:19:52Z</time></trkpt><trkpt lat="38.30997610717101" lon="15.844579138906527"><ele>480.0</ele><time>2026-04-12T17:19:53Z</time></trkpt><trkpt lat="38.309912024437104" lon="15.844435210610472"><ele>480.0</ele><time>2026-04-12T17:19:54Z</time></trkpt><trkpt lat="38.3098798837042" lon="15.844261104899699"><ele>480.0</ele><time>2026-04-12T17:19:55Z</time></trkpt><trkpt lat="38.30986689947784" lon="15.844072602159981"><ele>480.0</ele><time>2026-04-12T17:19:56Z</time></trkpt><trkpt lat="38.30986212272162" lon="15.843835283374027"><ele>480.0</ele><time>2026-04-12T17:19:57Z</time></trkpt><trkpt lat="38.30985086492305" lon="15.843631902750493"><ele>480.66666666666663</ele><time>2026-04-12T17:19:58Z</time></trkpt><trkpt lat="38.30985362956679" lon="15.843417110507254"><ele>481.3333333333333</ele><time>2026-04-12T17:19:59Z</time></trkpt><trkpt lat="38.309877454242574" lon="15.843226592188683"><ele>482.0</ele><time>2026-04-12T17:20:00Z</time></trkpt><trkpt lat="38.30988743708043" lon="15.842995844455055"><ele>482.0</ele><time>2026-04-12T17:20:01Z</time></trkpt><trkpt lat="38.30991793460626" lon="15.842798777089431"><ele>482.0</ele><time>2026-04-12T17:20:02Z</time></trkpt><trkpt lat="38.30994611290004" lon="15.842601882485324"><ele>482.0</ele><time>2026-04-12T17:20:03Z</time></trkpt><trkpt lat="38.30997085195846" lon="15.84242111566069"><ele>481.75</ele><time>2026-04-12T17:20:04Z</time></trkpt><trkpt lat="38.30999189895629" lon="15.842244757079163"><ele>481.5</ele><time>2026-04-12T17:20:05Z</time></trkpt><trkpt lat="38.30999615605413" lon="15.842099765061398"><ele>481.25</ele><time>2026-04-12T17:20:06Z</time></trkpt><trkpt lat="38.31002411913593" lon="15.841917928369629"><ele>481.0</ele><time>2026-04-12T17:20:07Z</time></trkpt><trkpt lat="38.31004640120061" lon="15.84174365054587"><ele>481.0</ele><time>2026-04-12T17:20:08Z</time></trkpt><trkpt lat="38.31006737573017" lon="15.841595037535182"><ele>481.0</ele><time>2026-04-12T17:20:09Z</time></trkpt><trkpt lat="38.31009573003776" lon="15.841462816181165"><ele>481.0</ele><time>2026-04-12T17:20:10Z</time></trkpt><trkpt lat="38.31012235830011" lon="15.841360407416982"><ele>481.0</ele><time>2026-04-12T17:20:11Z</time></trkpt><trkpt lat="38.310167891586325" lon="15.841277819702643"><ele>481.0</ele><time>2026-04-12T17:20:12Z</time></trkpt><trkpt lat="38.310234463274114" lon="15.841239573982278"><ele>481.0</ele><time>2026-04-12T17:20:13Z</time></trkpt><trkpt lat="38.31027893904555" lon="15.841155782694166"><ele>481.0</ele><time>2026-04-12T17:20:14Z</time></trkpt><trkpt lat="38.31027948017814" lon="15.841049188937172"><ele>481.0</ele><time>2026-04-12T17:20:15Z</time></trkpt><trkpt lat="38.31024669663947" lon="15.840936328652843"><ele>481.0</ele><time>2026-04-12T17:20:16Z</time></trkpt><trkpt lat="38.310204689900154" lon="15.840811292827373"><ele>481.0</ele><time>2026-04-12T17:20:17Z</time></trkpt><trkpt lat="38.31019563464422" lon="15.84066063378652"><ele>481.0</ele><time>2026-04-12T17:20:18Z</time></trkpt><trkpt lat="38.310220937545786" lon="15.84049225330884"><ele>481.0</ele><time>2026-04-12T17:20:19Z</time></trkpt><trkpt lat="38.3102560269256" lon="15.840312458995703"><ele>481.0</ele><time>2026-04-12T17:20:20Z</time></trkpt><trkpt lat="38.3102825131928" lon="15.84012413385187"><ele>481.0</ele><time>2026-04-12T17:20:21Z</time></trkpt><trkpt lat="38.31030994275507" lon="15.839925863299516"><ele>480.6666666666667</ele><time>2026-04-12T17:20:22Z</time></trkpt><trkpt lat="38.3103345712672" lon="15.83971937285195"><ele>480.33333333333337</ele><time>2026-04-12T17:20:23Z</time></trkpt><trkpt lat="38.310354147269706" lon="15.839498318233437"><ele>480.0</ele><time>2026-04-12T17:20:24Z</time></trkpt><trkpt lat="38.31036729276686" lon="15.839273927256798"><ele>480.0</ele><time>2026-04-12T17:20:25Z</time></trkpt><trkpt lat="38.3104146207053" lon="15.839041164115779"><ele>480.0</ele><time>2026-04-12T17:20:26Z</time></trkpt><trkpt lat="38.31044484623027" lon="15.838800944666051"><ele>480.0</ele><time>2026-04-12T17:20:27Z</time></trkpt><trkpt lat="38.31047480694899" lon="15.83854797817252"><ele>480.0</ele><time>2026-04-12T17:20:28Z</time></trkpt><trkpt lat="38.31050592395802" lon="15.83827345660615"><ele>480.0</ele><time>2026-04-12T17:20:29Z</time></trkpt><trkpt lat="38.31054006747383" lon="15.837983130571176"><ele>480.0</ele><time>2026-04-12T17:20:30Z</time></trkpt><trkpt lat="38.3105753921354" lon="15.837675521983995"><ele>477.0</ele><time>2026-04-12T17:20:31Z</time></trkpt><trkpt lat="38.31061037757018" lon="15.837363211044288"><ele>474.0</ele><time>2026-04-12T17:20:32Z</time></trkpt><trkpt lat="38.3106579677641" lon="15.837054954654478"><ele>473.66666666666663</ele><time>2026-04-12T17:20:33Z</time></trkpt><trkpt lat="38.31067762169996" lon="15.836783183225897"><ele>473.3333333333333</ele><time>2026-04-12T17:20:34Z</time></trkpt><trkpt lat="38.31070054640372" lon="15.836515691521827"><ele>473.0</ele><time>2026-04-12T17:20:35Z</time></trkpt><trkpt lat="38.31071202078929" lon="15.836261606901765"><ele>473.0</ele><time>2026-04-12T17:20:36Z</time></trkpt><trkpt lat="38.310758334568085" lon="15.83603739402127"><ele>473.0</ele><time>2026-04-12T17:20:37Z</time></trkpt><trkpt lat="38.310800687039524" lon="15.835823258788677"><ele>473.0</ele><time>2026-04-12T17:20:38Z</time></trkpt><trkpt lat="38.31085888126042" lon="15.83562737785837"><ele>472.3333333333333</ele><time>2026-04-12T17:20:39Z</time></trkpt><trkpt lat="38.310906951735575" lon="15.835446916681255"><ele>471.66666666666663</ele><time>2026-04-12T17:20:40Z</time></trkpt><trkpt lat="38.31093543319434" lon="15.83526189981732"><ele>471.0</ele><time>2026-04-12T17:20:41Z</time></trkpt><trkpt lat="38.31092161670211" lon="15.83506836934959"><ele>470.75</ele><time>2026-04-12T17:20:42Z</time></trkpt><trkpt lat="38.31086996139998" lon="15.834886283695582"><ele>470.5</ele><time>2026-04-12T17:20:43Z</time></trkpt><trkpt lat="38.31081142272708" lon="15.834741272261802"><ele>470.25</ele><time>2026-04-12T17:20:44Z</time></trkpt><trkpt lat="38.310784829199676" lon="15.834553714479839"><ele>470.0</ele><time>2026-04-12T17:20:45Z</time></trkpt><trkpt lat="38.31079679266207" lon="15.83438749823434"><ele>469.75</ele><time>2026-04-12T17:20:46Z</time></trkpt><trkpt lat="38.31082217700524" lon="15.834201836119819"><ele>469.5</ele><time>2026-04-12T17:20:47Z</time></trkpt><trkpt lat="38.310852529399476" lon="15.834012918183078"><ele>469.25</ele><time>2026-04-12T17:20:48Z</time></trkpt><trkpt lat="38.31090594931024" lon="15.833845247397306"><ele>469.0</ele><time>2026-04-12T17:20:49Z</time></trkpt><trkpt lat="38.31095057643172" lon="15.833682423113009"><ele>469.0</ele><time>2026-04-12T17:20:50Z</time></trkpt><trkpt lat="38.3109790620107" lon="15.833508204010165"><ele>469.0</ele><time>2026-04-12T17:20:51Z</time></trkpt><trkpt lat="38.310968214236674" lon="15.8333611833569"><ele>469.0</ele><time>2026-04-12T17:20:52Z</time></trkpt><trkpt lat="38.31093370605081" lon="15.833244350614896"><ele>469.0</ele><time>2026-04-12T17:20:53Z</time></trkpt><trkpt lat="38.31087864945625" lon="15.833156453249785"><ele>469.0</ele><time>2026-04-12T17:20:54Z</time></trkpt><trkpt lat="38.31080407266404" lon="15.833092661351387"><ele>469.6666666666667</ele><time>2026-04-12T17:20:55Z</time></trkpt><trkpt lat="38.31072044241784" lon="15.833054808585656"><ele>470.33333333333337</ele><time>2026-04-12T17:20:56Z</time></trkpt><trkpt lat="38.31063910427096" lon="15.833019651752569"><ele>471.0</ele><time>2026-04-12T17:20:57Z</time></trkpt><trkpt lat="38.310561616471865" lon="15.832986324130683"><ele>471.66666666666663</ele><time>2026-04-12T17:20:58Z</time></trkpt><trkpt lat="38.310474654185676" lon="15.832954019066237"><ele>472.3333333333333</ele><time>2026-04-12T17:20:59Z</time></trkpt><trkpt lat="38.31038616952638" lon="15.832911868382034"><ele>473.0</ele><time>2026-04-12T17:21:00Z</time></trkpt><trkpt lat="38.310291028301236" lon="15.83285667177392"><ele>473.0</ele><time>2026-04-12T17:21:01Z</time></trkpt><trkpt lat="38.310201240202595" lon="15.83279358226495"><ele>473.0</ele><time>2026-04-12T17:21:02Z</time></trkpt><trkpt lat="38.31009767893405" lon="15.832694944302128"><ele>473.0</ele><time>2026-04-12T17:21:03Z</time></trkpt><trkpt lat="38.3100001897371" lon="15.832600435969415"><ele>473.0</ele><time>2026-04-12T17:21:04Z</time></trkpt><trkpt lat="38.30990499215156" lon="15.83250061831234"><ele>473.0</ele><time>2026-04-12T17:21:05Z</time></trkpt><trkpt lat="38.309806213897154" lon="15.83238825256413"><ele>473.0</ele><time>2026-04-12T17:21:06Z</time></trkpt><trkpt lat="38.30970661171045" lon="15.832254910875832"><ele>473.0</ele><time>2026-04-12T17:21:07Z</time></trkpt><trkpt lat="38.30961012514039" lon="15.83211603786466"><ele>473.0</ele><time>2026-04-12T17:21:08Z</time></trkpt><trkpt lat="38.30951903520329" lon="15.831965146297708"><ele>466.3333333333333</ele><time>2026-04-12T17:21:09Z</time></trkpt><trkpt lat="38.30941180597306" lon="15.831802653203818"><ele>459.66666666666663</ele><time>2026-04-12T17:21:10Z</time></trkpt><trkpt lat="38.309298448333664" lon="15.831612220435618"><ele>453.0</ele><time>2026-04-12T17:21:11Z</time></trkpt><trkpt lat="38.3091768307283" lon="15.831417398273015"><ele>453.0</ele><time>2026-04-12T17:21:12Z</time></trkpt><trkpt lat="38.30906483361734" lon="15.831229493889213"><ele>453.0</ele><time>2026-04-12T17:21:13Z</time></trkpt><trkpt lat="38.30894175724281" lon="15.83104110490592"><ele>453.0</ele><time>2026-04-12T17:21:14Z</time></trkpt><trkpt lat="38.30882663604945" lon="15.830853459560194"><ele>458.33333333333337</ele><time>2026-04-12T17:21:15Z</time></trkpt><trkpt lat="38.308707847980244" lon="15.830657773905711"><ele>463.6666666666667</ele><time>2026-04-12T17:21:16Z</time></trkpt><trkpt lat="38.30860944710677" lon="15.830463568897667"><ele>469.0</ele><time>2026-04-12T17:21:17Z</time></trkpt><trkpt lat="38.30851693714289" lon="15.830288117700912"><ele>462.0</ele><time>2026-04-12T17:21:18Z</time></trkpt><trkpt lat="38.30842793921557" lon="15.830113869214133"><ele>455.0</ele><time>2026-04-12T17:21:19Z</time></trkpt><trkpt lat="38.30835104687577" lon="15.829947386421939"><ele>448.0</ele><time>2026-04-12T17:21:20Z</time></trkpt><trkpt lat="38.308286958538986" lon="15.82976739779871"><ele>448.0</ele><time>2026-04-12T17:21:21Z</time></trkpt><trkpt lat="38.30823753762437" lon="15.82956259057352"><ele>448.0</ele><time>2026-04-12T17:21:22Z</time></trkpt><trkpt lat="38.30820634569475" lon="15.829349370733192"><ele>448.0</ele><time>2026-04-12T17:21:23Z</time></trkpt><trkpt lat="38.30818725927871" lon="15.829140610974619"><ele>443.0</ele><time>2026-04-12T17:21:24Z</time></trkpt><trkpt lat="38.308178412158085" lon="15.82893949378352"><ele>438.0</ele><time>2026-04-12T17:21:25Z</time></trkpt><trkpt lat="38.30816899012829" lon="15.828734301633503"><ele>433.0</ele><time>2026-04-12T17:21:26Z</time></trkpt><trkpt lat="38.30813850660298" lon="15.82856118540557"><ele>430.5</ele><time>2026-04-12T17:21:27Z</time></trkpt><trkpt lat="38.30812282246586" lon="15.828412529375615"><ele>428.0</ele><time>2026-04-12T17:21:28Z</time></trkpt><trkpt lat="38.308060086043476" lon="15.828291638775308"><ele>425.5</ele><time>2026-04-12T17:21:29Z</time></trkpt><trkpt lat="38.307970050036346" lon="15.828221174121024"><ele>423.0</ele><time>2026-04-12T17:21:30Z</time></trkpt><trkpt lat="38.30784282318358" lon="15.828201024464992"><ele>423.0</ele><time>2026-04-12T17:21:31Z</time></trkpt><trkpt lat="38.30769640330928" lon="15.82822453451641"><ele>423.0</ele><time>2026-04-12T17:21:32Z</time></trkpt><trkpt lat="38.30755619820783" lon="15.828262705867504"><ele>423.0</ele><time>2026-04-12T17:21:33Z</time></trkpt><trkpt lat="38.30741272519273" lon="15.828328773414908"><ele>423.0</ele><time>2026-04-12T17:21:34Z</time></trkpt><trkpt lat="38.30728859332699" lon="15.828400124538032"><ele>426.0</ele><time>2026-04-12T17:21:35Z</time></trkpt><trkpt lat="38.30717386959738" lon="15.828464157172872"><ele>429.0</ele><time>2026-04-12T17:21:36Z</time></trkpt><trkpt lat="38.30707016085215" lon="15.828528687770445"><ele>432.0</ele><time>2026-04-12T17:21:37Z</time></trkpt><trkpt lat="38.306966977152115" lon="15.828589266677323"><ele>435.0</ele><time>2026-04-12T17:21:38Z</time></trkpt><trkpt lat="38.306864018406145" lon="15.828647545610204"><ele>435.0</ele><time>2026-04-12T17:21:39Z</time></trkpt><trkpt lat="38.30675667880432" lon="15.828709498896751"><ele>435.0</ele><time>2026-04-12T17:21:40Z</time></trkpt><trkpt lat="38.30665019934346" lon="15.828769494534098"><ele>435.0</ele><time>2026-04-12T17:21:41Z</time></trkpt><trkpt lat="38.30653441930798" lon="15.828827893436983"><ele>435.0</ele><time>2026-04-12T17:21:42Z</time></trkpt><trkpt lat="38.30641381495063" lon="15.828902172688723"><ele>425.33333333333337</ele><time>2026-04-12T17:21:43Z</time></trkpt><trkpt lat="38.3062908899025" lon="15.828989195971866"><ele>415.6666666666667</ele><time>2026-04-12T17:21:44Z</time></trkpt><trkpt lat="38.30616329078778" lon="15.829097935650987"><ele>406.0</ele><time>2026-04-12T17:21:45Z</time></trkpt><trkpt lat="38.30603124630191" lon="15.829221449217803"><ele>414.0</ele><time>2026-04-12T17:21:46Z</time></trkpt><trkpt lat="38.30590301854083" lon="15.82935321315186"><ele>422.0</ele><time>2026-04-12T17:21:47Z</time></trkpt><trkpt lat="38.30578146298555" lon="15.829476795015927"><ele>430.0</ele><time>2026-04-12T17:21:48Z</time></trkpt><trkpt lat="38.305666363863324" lon="15.829610503899174"><ele>421.6666666666667</ele><time>2026-04-12T17:21:49Z</time></trkpt><trkpt lat="38.30554420971099" lon="15.829734779586259"><ele>413.33333333333337</ele><time>2026-04-12T17:21:50Z</time></trkpt><trkpt lat="38.30542077042202" lon="15.829864225542526"><ele>405.0</ele><time>2026-04-12T17:21:51Z</time></trkpt><trkpt lat="38.30528889555361" lon="15.82999748207616"><ele>405.0</ele><time>2026-04-12T17:21:52Z</time></trkpt><trkpt lat="38.30515488786569" lon="15.830132242797697"><ele>405.0</ele><time>2026-04-12T17:21:53Z</time></trkpt><trkpt lat="38.305007108283775" lon="15.830260019344559"><ele>405.0</ele><time>2026-04-12T17:21:54Z</time></trkpt><trkpt lat="38.304857230001" lon="15.830392382091127"><ele>404.33333333333337</ele><time>2026-04-12T17:21:55Z</time></trkpt><trkpt lat="38.30470841576035" lon="15.830522217249156"><ele>403.6666666666667</ele><time>2026-04-12T17:21:56Z</time></trkpt><trkpt lat="38.30455467353093" lon="15.83065349454619"><ele>403.0</ele><time>2026-04-12T17:21:57Z</time></trkpt><trkpt lat="38.3044105549875" lon="15.830780813462933"><ele>403.0</ele><time>2026-04-12T17:21:58Z</time></trkpt><trkpt lat="38.30426012639361" lon="15.830905348569893"><ele>403.0</ele><time>2026-04-12T17:21:59Z</time></trkpt><trkpt lat="38.3041238519121" lon="15.83102395062106"><ele>403.0</ele><time>2026-04-12T17:22:00Z</time></trkpt><trkpt lat="38.303991546146754" lon="15.831149885077407"><ele>401.0</ele><time>2026-04-12T17:22:01Z</time></trkpt><trkpt lat="38.30386267596555" lon="15.83126944907072"><ele>399.0</ele><time>2026-04-12T17:22:02Z</time></trkpt><trkpt lat="38.30374062158912" lon="15.831399529988945"><ele>397.0</ele><time>2026-04-12T17:22:03Z</time></trkpt><trkpt lat="38.303625449170674" lon="15.831519936203716"><ele>397.0</ele><time>2026-04-12T17:22:04Z</time></trkpt><trkpt lat="38.30350884107678" lon="15.831633089599611"><ele>397.0</ele><time>2026-04-12T17:22:05Z</time></trkpt><trkpt lat="38.30339646659671" lon="15.83175356654104"><ele>397.0</ele><time>2026-04-12T17:22:06Z</time></trkpt><trkpt lat="38.30328386161248" lon="15.831861359566451"><ele>397.0</ele><time>2026-04-12T17:22:07Z</time></trkpt><trkpt lat="38.30317338619168" lon="15.831975218505892"><ele>396.0</ele><time>2026-04-12T17:22:08Z</time></trkpt><trkpt lat="38.30306168733072" lon="15.832097381273615"><ele>395.0</ele><time>2026-04-12T17:22:09Z</time></trkpt><trkpt lat="38.30296649873854" lon="15.832195779767018"><ele>394.0</ele><time>2026-04-12T17:22:10Z</time></trkpt><trkpt lat="38.30287744626318" lon="15.832304070093864"><ele>393.0</ele><time>2026-04-12T17:22:11Z</time></trkpt><trkpt lat="38.302768795149184" lon="15.832399702336595"><ele>393.0</ele><time>2026-04-12T17:22:12Z</time></trkpt><trkpt lat="38.30266902978028" lon="15.832497366753897"><ele>393.0</ele><time>2026-04-12T17:22:13Z</time></trkpt><trkpt lat="38.30257122842587" lon="15.83259924110147"><ele>393.0</ele><time>2026-04-12T17:22:14Z</time></trkpt><trkpt lat="38.3024766149396" lon="15.83269439463683"><ele>393.0</ele><time>2026-04-12T17:22:15Z</time></trkpt><trkpt lat="38.30236561686609" lon="15.83279831187744"><ele>391.75</ele><time>2026-04-12T17:22:16Z</time></trkpt><trkpt lat="38.30224205507058" lon="15.832904839710691"><ele>390.5</ele><time>2026-04-12T17:22:17Z</time></trkpt><trkpt lat="38.30213934523541" lon="15.83301189816404"><ele>389.25</ele><time>2026-04-12T17:22:18Z</time></trkpt><trkpt lat="38.30203496604609" lon="15.833152202056748"><ele>388.0</ele><time>2026-04-12T17:22:19Z</time></trkpt><trkpt lat="38.301902647564845" lon="15.833262037190293"><ele>388.0</ele><time>2026-04-12T17:22:20Z</time></trkpt><trkpt lat="38.30178065882934" lon="15.833384436097395"><ele>388.0</ele><time>2026-04-12T17:22:21Z</time></trkpt><trkpt lat="38.30165237691469" lon="15.833502996001478"><ele>388.0</ele><time>2026-04-12T17:22:22Z</time></trkpt><trkpt lat="38.301527029339574" lon="15.8336320293812"><ele>388.25</ele><time>2026-04-12T17:22:23Z</time></trkpt><trkpt lat="38.30141807466952" lon="15.833763021783799"><ele>388.5</ele><time>2026-04-12T17:22:24Z</time></trkpt><trkpt lat="38.30131141934592" lon="15.833856135949128"><ele>388.75</ele><time>2026-04-12T17:22:25Z</time></trkpt><trkpt lat="38.30120952870066" lon="15.833960792532315"><ele>389.0</ele><time>2026-04-12T17:22:26Z</time></trkpt><trkpt lat="38.3011124284783" lon="15.834060528518416"><ele>389.0</ele><time>2026-04-12T17:22:27Z</time></trkpt><trkpt lat="38.30102525665267" lon="15.834150066624725"><ele>389.0</ele><time>2026-04-12T17:22:28Z</time></trkpt><trkpt lat="38.30094335523653" lon="15.83423186090414"><ele>389.0</ele><time>2026-04-12T17:22:29Z</time></trkpt><trkpt lat="38.30086722809051" lon="15.834301812878286"><ele>389.0</ele><time>2026-04-12T17:22:30Z</time></trkpt><trkpt lat="38.300806547190795" lon="15.834330538750619"><ele>389.0</ele><time>2026-04-12T17:22:31Z</time></trkpt><trkpt lat="38.300728688907036" lon="15.834266793407824"><ele>389.0</ele><time>2026-04-12T17:22:32Z</time></trkpt><trkpt lat="38.30069317109063" lon="15.834132534782787"><ele>389.0</ele><time>2026-04-12T17:22:33Z</time></trkpt><trkpt lat="38.30069473750722" lon="15.833974798624471"><ele>389.0</ele><time>2026-04-12T17:22:34Z</time></trkpt><trkpt lat="38.300647772034374" lon="15.833734319438038"><ele>389.0</ele><time>2026-04-12T17:22:35Z</time></trkpt><trkpt lat="38.3005899144902" lon="15.833511105008565"><ele>390.66666666666663</ele><time>2026-04-12T17:22:36Z</time></trkpt><trkpt lat="38.300527592057136" lon="15.833317225119371"><ele>392.33333333333337</ele><time>2026-04-12T17:22:37Z</time></trkpt><trkpt lat="38.30048764399141" lon="15.833130914316309"><ele>394.0</ele><time>2026-04-12T17:22:38Z</time></trkpt><trkpt lat="38.30041868993" lon="15.832983199741772"><ele>394.0</ele><time>2026-04-12T17:22:39Z</time></trkpt><trkpt lat="38.30035767636756" lon="15.832816063054684"><ele>394.0</ele><time>2026-04-12T17:22:40Z</time></trkpt><trkpt lat="38.300308185534924" lon="15.83266221414216"><ele>394.0</ele><time>2026-04-12T17:22:41Z</time></trkpt><trkpt lat="38.300269469484775" lon="15.832519001822144"><ele>394.0</ele><time>2026-04-12T17:22:42Z</time></trkpt><trkpt lat="38.300219864326905" lon="15.832387109768217"><ele>389.5</ele><time>2026-04-12T17:22:43Z</time></trkpt><trkpt lat="38.30014247322776" lon="15.832285838552453"><ele>385.0</ele><time>2026-04-12T17:22:44Z</time></trkpt><trkpt lat="38.30004066861746" lon="15.83221352096032"><ele>380.5</ele><time>2026-04-12T17:22:45Z</time></trkpt><trkpt lat="38.29991173636237" lon="15.832185884546377"><ele>376.0</ele><time>2026-04-12T17:22:46Z</time></trkpt><trkpt lat="38.299793132910324" lon="15.83218024484712"><ele>373.75</ele><time>2026-04-12T17:22:47Z</time></trkpt><trkpt lat="38.29966364101199" lon="15.83208476845022"><ele>371.5</ele><time>2026-04-12T17:22:48Z</time></trkpt><trkpt lat="38.29956033929171" lon="15.831973867123608"><ele>369.25</ele><time>2026-04-12T17:22:49Z</time></trkpt><trkpt lat="38.299483900131065" lon="15.83183753606922"><ele>367.0</ele><time>2026-04-12T17:22:50Z</time></trkpt><trkpt lat="38.29941668475324" lon="15.831677728274363"><ele>367.0</ele><time>2026-04-12T17:22:51Z</time></trkpt><trkpt lat="38.29938141218252" lon="15.831473468661974"><ele>367.0</ele><time>2026-04-12T17:22:52Z</time></trkpt><trkpt lat="38.29938097602572" lon="15.83131182950105"><ele>367.0</ele><time>2026-04-12T17:22:53Z</time></trkpt><trkpt lat="38.299416327662996" lon="15.83113381374141"><ele>367.0</ele><time>2026-04-12T17:22:54Z</time></trkpt><trkpt lat="38.299444053732884" lon="15.830968871808366"><ele>364.5</ele><time>2026-04-12T17:22:55Z</time></trkpt><trkpt lat="38.299444388760335" lon="15.830805620120383"><ele>362.0</ele><time>2026-04-12T17:22:56Z</time></trkpt><trkpt lat="38.29941212029522" lon="15.830652325948295"><ele>359.5</ele><time>2026-04-12T17:22:57Z</time></trkpt><trkpt lat="38.299348821446884" lon="15.830518454855513"><ele>357.0</ele><time>2026-04-12T17:22:58Z</time></trkpt><trkpt lat="38.299267368587486" lon="15.830421497473951"><ele>357.0</ele><time>2026-04-12T17:22:59Z</time></trkpt><trkpt lat="38.29918178623952" lon="15.83037286571523"><ele>357.0</ele><time>2026-04-12T17:23:00Z</time></trkpt><trkpt lat="38.29907835322109" lon="15.830365312213015"><ele>357.0</ele><time>2026-04-12T17:23:01Z</time></trkpt><trkpt lat="38.298981690216955" lon="15.83041120579886"><ele>357.0</ele><time>2026-04-12T17:23:02Z</time></trkpt><trkpt lat="38.29890592174561" lon="15.830508690948877"><ele>357.0</ele><time>2026-04-12T17:23:03Z</time></trkpt><trkpt lat="38.298851323194874" lon="15.830645126073035"><ele>356.5</ele><time>2026-04-12T17:23:04Z</time></trkpt><trkpt lat="38.29881680969739" lon="15.830796984547126"><ele>356.0</ele><time>2026-04-12T17:23:05Z</time></trkpt><trkpt lat="38.29878522594742" lon="15.830936002544195"><ele>355.5</ele><time>2026-04-12T17:23:06Z</time></trkpt><trkpt lat="38.29874379867153" lon="15.831070474678265"><ele>355.0</ele><time>2026-04-12T17:23:07Z</time></trkpt><trkpt lat="38.298685271259245" lon="15.831190651097595"><ele>355.0</ele><time>2026-04-12T17:23:08Z</time></trkpt><trkpt lat="38.29858165343565" lon="15.831232248234539"><ele>355.0</ele><time>2026-04-12T17:23:09Z</time></trkpt><trkpt lat="38.29847031845527" lon="15.831285983529709"><ele>355.0</ele><time>2026-04-12T17:23:10Z</time></trkpt><trkpt lat="38.29835503579339" lon="15.831336085052325"><ele>355.0</ele><time>2026-04-12T17:23:11Z</time></trkpt><trkpt lat="38.29823339625525" lon="15.83139747244083"><ele>355.0</ele><time>2026-04-12T17:23:12Z</time></trkpt><trkpt lat="38.29811164774465" lon="15.83146891355084"><ele>355.0</ele><time>2026-04-12T17:23:13Z</time></trkpt><trkpt lat="38.298012146778156" lon="15.831551471068867"><ele>355.0</ele><time>2026-04-12T17:23:14Z</time></trkpt><trkpt lat="38.29792214764207" lon="15.831635566555104"><ele>355.0</ele><time>2026-04-12T17:23:15Z</time></trkpt><trkpt lat="38.29783857093051" lon="15.831696765267365"><ele>354.66666666666663</ele><time>2026-04-12T17:23:16Z</time></trkpt><trkpt lat="38.29774478772702" lon="15.831708968303095"><ele>354.3333333333333</ele><time>2026-04-12T17:23:17Z</time></trkpt><trkpt lat="38.29765255958378" lon="15.831674361801992"><ele>354.0</ele><time>2026-04-12T17:23:18Z</time></trkpt><trkpt lat="38.29757437942083" lon="15.831617331551595"><ele>353.6666666666667</ele><time>2026-04-12T17:23:19Z</time></trkpt><trkpt lat="38.297524913317844" lon="15.831543404791473"><ele>353.33333333333337</ele><time>2026-04-12T17:23:20Z</time></trkpt><trkpt lat="38.297518274034786" lon="15.831443902060027"><ele>353.0</ele><time>2026-04-12T17:23:21Z</time></trkpt><trkpt lat="38.297539166409706" lon="15.831317715997347"><ele>353.0</ele><time>2026-04-12T17:23:22Z</time></trkpt><trkpt lat="38.29755450865376" lon="15.831181733257566"><ele>353.0</ele><time>2026-04-12T17:23:23Z</time></trkpt><trkpt lat="38.29759025005086" lon="15.831028593220909"><ele>353.0</ele><time>2026-04-12T17:23:24Z</time></trkpt><trkpt lat="38.29761160231716" lon="15.830864431015565"><ele>353.0</ele><time>2026-04-12T17:23:25Z</time></trkpt><trkpt lat="38.29763518495702" lon="15.83068536283118"><ele>354.0</ele><time>2026-04-12T17:23:26Z</time></trkpt><trkpt lat="38.29765171352971" lon="15.830489104297403"><ele>355.0</ele><time>2026-04-12T17:23:27Z</time></trkpt><trkpt lat="38.297693257804674" lon="15.83028759734111"><ele>356.0</ele><time>2026-04-12T17:23:28Z</time></trkpt><trkpt lat="38.29775247660208" lon="15.830088034315713"><ele>356.0</ele><time>2026-04-12T17:23:29Z</time></trkpt><trkpt lat="38.297806199492236" lon="15.82989115583875"><ele>356.0</ele><time>2026-04-12T17:23:30Z</time></trkpt><trkpt lat="38.297867690163855" lon="15.829731491865331"><ele>356.0</ele><time>2026-04-12T17:23:31Z</time></trkpt><trkpt lat="38.297923452477725" lon="15.829573240134263"><ele>356.0</ele><time>2026-04-12T17:23:32Z</time></trkpt><trkpt lat="38.29798158478277" lon="15.829430067509806"><ele>353.5</ele><time>2026-04-12T17:23:33Z</time></trkpt><trkpt lat="38.29804527098735" lon="15.829278178401895"><ele>351.0</ele><time>2026-04-12T17:23:34Z</time></trkpt><trkpt lat="38.298147536208965" lon="15.829151041080111"><ele>348.5</ele><time>2026-04-12T17:23:35Z</time></trkpt><trkpt lat="38.29825836596173" lon="15.829034076644048"><ele>346.0</ele><time>2026-04-12T17:23:36Z</time></trkpt><trkpt lat="38.29837374389283" lon="15.828928229587051"><ele>346.0</ele><time>2026-04-12T17:23:37Z</time></trkpt><trkpt lat="38.298488334128" lon="15.828809331253034"><ele>346.0</ele><time>2026-04-12T17:23:38Z</time></trkpt><trkpt lat="38.2986114834689" lon="15.828706457367469"><ele>346.0</ele><time>2026-04-12T17:23:39Z</time></trkpt><trkpt lat="38.29871020897519" lon="15.82856843971954"><ele>346.0</ele><time>2026-04-12T17:23:40Z</time></trkpt><trkpt lat="38.29880060833327" lon="15.828428079838114"><ele>345.3333333333333</ele><time>2026-04-12T17:23:41Z</time></trkpt><trkpt lat="38.29890848921711" lon="15.828257828172147"><ele>344.6666666666667</ele><time>2026-04-12T17:23:42Z</time></trkpt><trkpt lat="38.2990047176425" lon="15.828106992988562"><ele>344.0</ele><time>2026-04-12T17:23:43Z</time></trkpt><trkpt lat="38.29910102234735" lon="15.827962303303211"><ele>344.0</ele><time>2026-04-12T17:23:44Z</time></trkpt><trkpt lat="38.29920575302975" lon="15.827832956743993"><ele>344.0</ele><time>2026-04-12T17:23:45Z</time></trkpt><trkpt lat="38.29931585909601" lon="15.827745332111778"><ele>344.0</ele><time>2026-04-12T17:23:46Z</time></trkpt><trkpt lat="38.29941848382123" lon="15.827642864272335"><ele>344.0</ele><time>2026-04-12T17:23:47Z</time></trkpt><trkpt lat="38.29948576518121" lon="15.827538905100543"><ele>345.25</ele><time>2026-04-12T17:23:48Z</time></trkpt><trkpt lat="38.299477550549376" lon="15.827398849836444"><ele>346.5</ele><time>2026-04-12T17:23:49Z</time></trkpt><trkpt lat="38.29943423095314" lon="15.827268778216663"><ele>347.75</ele><time>2026-04-12T17:23:50Z</time></trkpt><trkpt lat="38.299348142272684" lon="15.827171706510244"><ele>349.0</ele><time>2026-04-12T17:23:51Z</time></trkpt><trkpt lat="38.29924257082474" lon="15.827071223521871"><ele>349.0</ele><time>2026-04-12T17:23:52Z</time></trkpt><trkpt lat="38.29915160898099" lon="15.826955642664354"><ele>349.0</ele><time>2026-04-12T17:23:53Z</time></trkpt><trkpt lat="38.29911840366684" lon="15.826803566902646"><ele>349.0</ele><time>2026-04-12T17:23:54Z</time></trkpt><trkpt lat="38.29910094020016" lon="15.826654857381733"><ele>349.0</ele><time>2026-04-12T17:23:55Z</time></trkpt><trkpt lat="38.29910836177918" lon="15.826479095580735"><ele>347.25</ele><time>2026-04-12T17:23:56Z</time></trkpt><trkpt lat="38.29910668692632" lon="15.826297737703596"><ele>345.5</ele><time>2026-04-12T17:23:57Z</time></trkpt><trkpt lat="38.29910119255873" lon="15.826116401845265"><ele>343.75</ele><time>2026-04-12T17:23:58Z</time></trkpt><trkpt lat="38.29909708291709" lon="15.825952069793056"><ele>342.0</ele><time>2026-04-12T17:23:59Z</time></trkpt><trkpt lat="38.29905667792264" lon="15.825801937707741"><ele>339.5</ele><time>2026-04-12T17:24:00Z</time></trkpt><trkpt lat="38.29902801153212" lon="15.825642889312203"><ele>337.0</ele><time>2026-04-12T17:24:01Z</time></trkpt><trkpt lat="38.29898179348079" lon="15.825498359872162"><ele>334.5</ele><time>2026-04-12T17:24:02Z</time></trkpt><trkpt lat="38.298900553262136" lon="15.825372244023555"><ele>332.0</ele><time>2026-04-12T17:24:03Z</time></trkpt><trkpt lat="38.29878830909133" lon="15.825264705510925"><ele>333.5</ele><time>2026-04-12T17:24:04Z</time></trkpt><trkpt lat="38.29866865308578" lon="15.825159445815373"><ele>335.0</ele><time>2026-04-12T17:24:05Z</time></trkpt><trkpt lat="38.29854333755353" lon="15.825057536057866"><ele>336.5</ele><time>2026-04-12T17:24:06Z</time></trkpt><trkpt lat="38.29841765734903" lon="15.824958483998458"><ele>338.0</ele><time>2026-04-12T17:24:07Z</time></trkpt><trkpt lat="38.298292497092476" lon="15.824856033311926"><ele>338.0</ele><time>2026-04-12T17:24:08Z</time></trkpt><trkpt lat="38.29817120981439" lon="15.824754845434043"><ele>338.0</ele><time>2026-04-12T17:24:09Z</time></trkpt><trkpt lat="38.29804104707057" lon="15.82464892290188"><ele>338.0</ele><time>2026-04-12T17:24:10Z</time></trkpt><trkpt lat="38.29791400182913" lon="15.824526872893427"><ele>335.0</ele><time>2026-04-12T17:24:11Z</time></trkpt><trkpt lat="38.2977810143875" lon="15.824418319833875"><ele>332.0</ele><time>2026-04-12T17:24:12Z</time></trkpt><trkpt lat="38.2976428610152" lon="15.824310249641409"><ele>329.0</ele><time>2026-04-12T17:24:13Z</time></trkpt><trkpt lat="38.29750458716697" lon="15.82419867629376"><ele>329.0</ele><time>2026-04-12T17:24:14Z</time></trkpt><trkpt lat="38.297371399002145" lon="15.824078256720082"><ele>329.0</ele><time>2026-04-12T17:24:15Z</time></trkpt><trkpt lat="38.297239231883495" lon="15.823967655272943"><ele>329.0</ele><time>2026-04-12T17:24:16Z</time></trkpt><trkpt lat="38.29711432921623" lon="15.823852203064792"><ele>328.6666666666667</ele><time>2026-04-12T17:24:17Z</time></trkpt><trkpt lat="38.29698806050414" lon="15.823722389843939"><ele>328.3333333333333</ele><time>2026-04-12T17:24:18Z</time></trkpt><trkpt lat="38.29688389988357" lon="15.823574813267145"><ele>328.0</ele><time>2026-04-12T17:24:19Z</time></trkpt><trkpt lat="38.29678932501915" lon="15.82342237003955"><ele>328.0</ele><time>2026-04-12T17:24:20Z</time></trkpt><trkpt lat="38.2967076462084" lon="15.823259646443448"><ele>328.0</ele><time>2026-04-12T17:24:21Z</time></trkpt><trkpt lat="38.2966401432608" lon="15.82309300266716"><ele>328.0</ele><time>2026-04-12T17:24:22Z</time></trkpt><trkpt lat="38.296564171462705" lon="15.822912134595676"><ele>328.0</ele><time>2026-04-12T17:24:23Z</time></trkpt><trkpt lat="38.296496073344024" lon="15.822713823819177"><ele>328.0</ele><time>2026-04-12T17:24:24Z</time></trkpt><trkpt lat="38.2964325476325" lon="15.82250182162671"><ele>328.0</ele><time>2026-04-12T17:24:25Z</time></trkpt><trkpt lat="38.296365884335" lon="15.822285239298822"><ele>326.66666666666663</ele><time>2026-04-12T17:24:26Z</time></trkpt><trkpt lat="38.296303526186286" lon="15.822062909183343"><ele>325.3333333333333</ele><time>2026-04-12T17:24:27Z</time></trkpt><trkpt lat="38.29623953546235" lon="15.821844699483009"><ele>324.0</ele><time>2026-04-12T17:24:28Z</time></trkpt><trkpt lat="38.29617453964432" lon="15.82163034468887"><ele>324.0</ele><time>2026-04-12T17:24:29Z</time></trkpt><trkpt lat="38.296092409228756" lon="15.821421835997587"><ele>324.0</ele><time>2026-04-12T17:24:30Z</time></trkpt><trkpt lat="38.29599383241761" lon="15.821221117397831"><ele>324.0</ele><time>2026-04-12T17:24:31Z</time></trkpt><trkpt lat="38.295886036440116" lon="15.82102866999881"><ele>324.0</ele><time>2026-04-12T17:24:32Z</time></trkpt><trkpt lat="38.29576587952768" lon="15.820838022245631"><ele>324.0</ele><time>2026-04-12T17:24:33Z</time></trkpt><trkpt lat="38.29564441354457" lon="15.82065840642276"><ele>324.0</ele><time>2026-04-12T17:24:34Z</time></trkpt><trkpt lat="38.295495359600466" lon="15.820469703508563"><ele>324.0</ele><time>2026-04-12T17:24:35Z</time></trkpt><trkpt lat="38.29535523435374" lon="15.820275722328317"><ele>324.0</ele><time>2026-04-12T17:24:36Z</time></trkpt><trkpt lat="38.29521181235174" lon="15.820067334575308"><ele>324.0</ele><time>2026-04-12T17:24:37Z</time></trkpt><trkpt lat="38.29505962755716" lon="15.819854178180083"><ele>322.0</ele><time>2026-04-12T17:24:38Z</time></trkpt><trkpt lat="38.29490689635932" lon="15.819637582100027"><ele>320.0</ele><time>2026-04-12T17:24:39Z</time></trkpt><trkpt lat="38.294751490719584" lon="15.819409628258951"><ele>314.0</ele><time>2026-04-12T17:24:40Z</time></trkpt><trkpt lat="38.29458571706725" lon="15.819170448795969"><ele>308.0</ele><time>2026-04-12T17:24:41Z</time></trkpt><trkpt lat="38.2944223321875" lon="15.818933543542085"><ele>308.0</ele><time>2026-04-12T17:24:42Z</time></trkpt><trkpt lat="38.29426101021332" lon="15.818699683678073"><ele>308.0</ele><time>2026-04-12T17:24:43Z</time></trkpt><trkpt lat="38.29410553429538" lon="15.818483600983312"><ele>309.0</ele><time>2026-04-12T17:24:44Z</time></trkpt><trkpt lat="38.29395860600863" lon="15.818280693094875"><ele>310.0</ele><time>2026-04-12T17:24:45Z</time></trkpt><trkpt lat="38.29381737636467" lon="15.818081279162872"><ele>311.0</ele><time>2026-04-12T17:24:46Z</time></trkpt><trkpt lat="38.29368687480785" lon="15.81789683231625"><ele>311.0</ele><time>2026-04-12T17:24:47Z</time></trkpt><trkpt lat="38.29357628804903" lon="15.81774127671847"><ele>311.0</ele><time>2026-04-12T17:24:48Z</time></trkpt><trkpt lat="38.29347102507398" lon="15.817617635329434"><ele>311.0</ele><time>2026-04-12T17:24:49Z</time></trkpt><trkpt lat="38.29335298277522" lon="15.817512300636192"><ele>306.0</ele><time>2026-04-12T17:24:50Z</time></trkpt><trkpt lat="38.29319567986992" lon="15.817442529689897"><ele>301.0</ele><time>2026-04-12T17:24:51Z</time></trkpt><trkpt lat="38.29307377058547" lon="15.817344527335784"><ele>296.0</ele><time>2026-04-12T17:24:52Z</time></trkpt><trkpt lat="38.29287751352354" lon="15.817281454723519"><ele>296.0</ele><time>2026-04-12T17:24:53Z</time></trkpt><trkpt lat="38.29269444884637" lon="15.817209640781082"><ele>296.0</ele><time>2026-04-12T17:24:54Z</time></trkpt><trkpt lat="38.29254886228893" lon="15.817130284125428"><ele>296.0</ele><time>2026-04-12T17:24:55Z</time></trkpt><trkpt lat="38.29239397247296" lon="15.817041346034468"><ele>298.33333333333337</ele><time>2026-04-12T17:24:56Z</time></trkpt><trkpt lat="38.292236386450725" lon="15.816968965402774"><ele>300.6666666666667</ele><time>2026-04-12T17:24:57Z</time></trkpt><trkpt lat="38.29207371296125" lon="15.816924481789949"><ele>303.0</ele><time>2026-04-12T17:24:58Z</time></trkpt><trkpt lat="38.291913655467866" lon="15.816875903793367"><ele>294.3333333333333</ele><time>2026-04-12T17:24:59Z</time></trkpt><trkpt lat="38.29177832403159" lon="15.816794777879464"><ele>285.66666666666663</ele><time>2026-04-12T17:25:00Z</time></trkpt><trkpt lat="38.29164722739756" lon="15.816703176151044"><ele>277.0</ele><time>2026-04-12T17:25:01Z</time></trkpt><trkpt lat="38.29151907918511" lon="15.816598851297375"><ele>277.0</ele><time>2026-04-12T17:25:02Z</time></trkpt><trkpt lat="38.29142915031276" lon="15.816469792172544"><ele>277.0</ele><time>2026-04-12T17:25:03Z</time></trkpt><trkpt lat="38.29131966920915" lon="15.816353617410867"><ele>277.0</ele><time>2026-04-12T17:25:04Z</time></trkpt><trkpt lat="38.291209210513436" lon="15.816288672309433"><ele>277.0</ele><time>2026-04-12T17:25:05Z</time></trkpt><trkpt lat="38.291070454150585" lon="15.816277156590008"><ele>277.0</ele><time>2026-04-12T17:25:06Z</time></trkpt><trkpt lat="38.290922294314676" lon="15.816298206059335"><ele>277.0</ele><time>2026-04-12T17:25:07Z</time></trkpt><trkpt lat="38.2907891305972" lon="15.81637487062098"><ele>277.0</ele><time>2026-04-12T17:25:08Z</time></trkpt><trkpt lat="38.290669757540776" lon="15.816439314146708"><ele>277.0</ele><time>2026-04-12T17:25:09Z</time></trkpt><trkpt lat="38.29058939401506" lon="15.816420453779333"><ele>271.0</ele><time>2026-04-12T17:25:10Z</time></trkpt><trkpt lat="38.29049010527016" lon="15.816397760568293"><ele>265.0</ele><time>2026-04-12T17:25:11Z</time></trkpt><trkpt lat="38.29039154783802" lon="15.816409080590855"><ele>259.0</ele><time>2026-04-12T17:25:12Z</time></trkpt><trkpt lat="38.29029272787144" lon="15.816416918693026"><ele>253.0</ele><time>2026-04-12T17:25:13Z</time></trkpt><trkpt lat="38.29019490609797" lon="15.816454340532747"><ele>247.0</ele><time>2026-04-12T17:25:14Z</time></trkpt><trkpt lat="38.29013258389089" lon="15.816482788871024"><ele>247.0</ele><time>2026-04-12T17:25:15Z</time></trkpt><trkpt lat="38.290032652585964" lon="15.816634314467787"><ele>247.0</ele><time>2026-04-12T17:25:16Z</time></trkpt><trkpt lat="38.28998045389461" lon="15.816786570041433"><ele>247.0</ele><time>2026-04-12T17:25:17Z</time></trkpt><trkpt lat="38.289943208395826" lon="15.816932268797844"><ele>247.0</ele><time>2026-04-12T17:25:18Z</time></trkpt><trkpt lat="38.289895429756314" lon="15.817071083414106"><ele>245.0</ele><time>2026-04-12T17:25:19Z</time></trkpt><trkpt lat="38.28984225456976" lon="15.817210921908215"><ele>243.0</ele><time>2026-04-12T17:25:20Z</time></trkpt><trkpt lat="38.289761534192024" lon="15.817346832157341"><ele>241.0</ele><time>2026-04-12T17:25:21Z</time></trkpt><trkpt lat="38.28966816357211" lon="15.817491100955687"><ele>239.0</ele><time>2026-04-12T17:25:22Z</time></trkpt><trkpt lat="38.28957144120071" lon="15.817622518690685"><ele>249.5</ele><time>2026-04-12T17:25:23Z</time></trkpt><trkpt lat="38.28948434328931" lon="15.817750485956614"><ele>260.0</ele><time>2026-04-12T17:25:24Z</time></trkpt><trkpt lat="38.28940479163556" lon="15.817880215652494"><ele>270.5</ele><time>2026-04-12T17:25:25Z</time></trkpt><trkpt lat="38.28933747063395" lon="15.818011839821498"><ele>281.0</ele><time>2026-04-12T17:25:26Z</time></trkpt><trkpt lat="38.28927335005882" lon="15.818111598458236"><ele>281.0</ele><time>2026-04-12T17:25:27Z</time></trkpt><trkpt lat="38.28920500982863" lon="15.818164429760976"><ele>281.0</ele><time>2026-04-12T17:25:28Z</time></trkpt><trkpt lat="38.289129164931154" lon="15.81818131313338"><ele>281.0</ele><time>2026-04-12T17:25:29Z</time></trkpt><trkpt lat="38.28906784487274" lon="15.818121388067828"><ele>281.0</ele><time>2026-04-12T17:25:30Z</time></trkpt><trkpt lat="38.28900297593235" lon="15.818056060558536"><ele>281.0</ele><time>2026-04-12T17:25:31Z</time></trkpt><trkpt lat="38.28894156074397" lon="15.817941586055413"><ele>281.0</ele><time>2026-04-12T17:25:32Z</time></trkpt><trkpt lat="38.28886448478207" lon="15.81783507510995"><ele>280.0</ele><time>2026-04-12T17:25:33Z</time></trkpt><trkpt lat="38.28880673723719" lon="15.817736810424279"><ele>279.0</ele><time>2026-04-12T17:25:34Z</time></trkpt><trkpt lat="38.288743450675206" lon="15.817651941015948"><ele>278.0</ele><time>2026-04-12T17:25:35Z</time></trkpt><trkpt lat="38.288668669376804" lon="15.817564684020732"><ele>277.0</ele><time>2026-04-12T17:25:36Z</time></trkpt><trkpt lat="38.28858298167589" lon="15.817508095846952"><ele>276.0</ele><time>2026-04-12T17:25:37Z</time></trkpt><trkpt lat="38.28849419446831" lon="15.817497665695642"><ele>276.0</ele><time>2026-04-12T17:25:38Z</time></trkpt><trkpt lat="38.28839853837883" lon="15.81754303914954"><ele>276.0</ele><time>2026-04-12T17:25:39Z</time></trkpt><trkpt lat="38.28831938140565" lon="15.817635629178216"><ele>276.0</ele><time>2026-04-12T17:25:40Z</time></trkpt><trkpt lat="38.28826111309442" lon="15.817749209982656"><ele>276.0</ele><time>2026-04-12T17:25:41Z</time></trkpt><trkpt lat="38.288185506620266" lon="15.81782649084584"><ele>276.0</ele><time>2026-04-12T17:25:42Z</time></trkpt><trkpt lat="38.288084612230286" lon="15.81789481785608"><ele>272.8</ele><time>2026-04-12T17:25:43Z</time></trkpt><trkpt lat="38.287989744175206" lon="15.817982550993255"><ele>269.6</ele><time>2026-04-12T17:25:44Z</time></trkpt><trkpt lat="38.287888567913946" lon="15.818041929817895"><ele>266.4</ele><time>2026-04-12T17:25:45Z</time></trkpt><trkpt lat="38.28777835400044" lon="15.818073873890956"><ele>263.2</ele><time>2026-04-12T17:25:46Z</time></trkpt><trkpt lat="38.2876768403945" lon="15.818118766515173"><ele>260.0</ele><time>2026-04-12T17:25:47Z</time></trkpt><trkpt lat="38.28760360220183" lon="15.818146010534997"><ele>260.0</ele><time>2026-04-12T17:25:48Z</time></trkpt><trkpt lat="38.28749998725141" lon="15.818171417717615"><ele>260.0</ele><time>2026-04-12T17:25:50Z</time></trkpt><trkpt lat="38.28743220146545" lon="15.818017426009176"><ele>260.0</ele><time>2026-04-12T17:25:52Z</time></trkpt><trkpt lat="38.287411664050175" lon="15.81792841765253"><ele>260.0</ele><time>2026-04-12T17:25:53Z</time></trkpt><trkpt lat="38.28748109095889" lon="15.817791162925953"><ele>260.0</ele><time>2026-04-12T17:25:55Z</time></trkpt><trkpt lat="38.287495443729746" lon="15.817666769604779"><ele>258.0</ele><time>2026-04-12T17:25:56Z</time></trkpt><trkpt lat="38.28757657178716" lon="15.817522296426791"><ele>256.0</ele><time>2026-04-12T17:25:57Z</time></trkpt><trkpt lat="38.28763892222207" lon="15.817380717011643"><ele>254.0</ele><time>2026-04-12T17:25:58Z</time></trkpt><trkpt lat="38.28765767432023" lon="15.817237566344225"><ele>252.0</ele><time>2026-04-12T17:25:59Z</time></trkpt><trkpt lat="38.287675216264475" lon="15.817078356057703"><ele>252.0</ele><time>2026-04-12T17:26:00Z</time></trkpt><trkpt lat="38.28768167405395" lon="15.816929402408462"><ele>252.0</ele><time>2026-04-12T17:26:01Z</time></trkpt><trkpt lat="38.287675279207015" lon="15.81676997516074"><ele>252.0</ele><time>2026-04-12T17:26:02Z</time></trkpt><trkpt lat="38.28765971899516" lon="15.816620335303526"><ele>252.0</ele><time>2026-04-12T17:26:03Z</time></trkpt><trkpt lat="38.28763561594487" lon="15.816441040766646"><ele>252.0</ele><time>2026-04-12T17:26:04Z</time></trkpt><trkpt lat="38.28761653856712" lon="15.816236987792825"><ele>252.0</ele><time>2026-04-12T17:26:05Z</time></trkpt><trkpt lat="38.28760571706458" lon="15.816058734211383"><ele>252.0</ele><time>2026-04-12T17:26:06Z</time></trkpt><trkpt lat="38.287605555039825" lon="15.815886683625592"><ele>252.0</ele><time>2026-04-12T17:26:07Z</time></trkpt><trkpt lat="38.28759266328484" lon="15.815746598866244"><ele>248.5</ele><time>2026-04-12T17:26:08Z</time></trkpt><trkpt lat="38.287565887363755" lon="15.815626075332649"><ele>245.0</ele><time>2026-04-12T17:26:09Z</time></trkpt><trkpt lat="38.28752007854982" lon="15.815528280639493"><ele>241.5</ele><time>2026-04-12T17:26:10Z</time></trkpt><trkpt lat="38.287452833126004" lon="15.815465404034573"><ele>238.0</ele><time>2026-04-12T17:26:11Z</time></trkpt><trkpt lat="38.28737021614811" lon="15.815418108839095"><ele>234.5</ele><time>2026-04-12T17:26:12Z</time></trkpt><trkpt lat="38.28729287321909" lon="15.815373541760234"><ele>231.0</ele><time>2026-04-12T17:26:13Z</time></trkpt><trkpt lat="38.287218495406066" lon="15.8153162428344"><ele>239.33333333333334</ele><time>2026-04-12T17:26:14Z</time></trkpt><trkpt lat="38.287145249729086" lon="15.815258890001717"><ele>247.66666666666669</ele><time>2026-04-12T17:26:15Z</time></trkpt><trkpt lat="38.28708844680277" lon="15.81518184919859"><ele>256.0</ele><time>2026-04-12T17:26:16Z</time></trkpt><trkpt lat="38.28704381365988" lon="15.815079256395142"><ele>264.33333333333337</ele><time>2026-04-12T17:26:17Z</time></trkpt><trkpt lat="38.287041222502765" lon="15.81496187237184"><ele>272.6666666666667</ele><time>2026-04-12T17:26:18Z</time></trkpt><trkpt lat="38.2870475482923" lon="15.814845517994382"><ele>281.0</ele><time>2026-04-12T17:26:19Z</time></trkpt><trkpt lat="38.28706331412952" lon="15.814757072568883"><ele>281.0</ele><time>2026-04-12T17:26:20Z</time></trkpt><trkpt lat="38.28710712110862" lon="15.814674141332418"><ele>281.0</ele><time>2026-04-12T17:26:21Z</time></trkpt><trkpt lat="38.28715618006874" lon="15.814617131807292"><ele>281.0</ele><time>2026-04-12T17:26:22Z</time></trkpt><trkpt lat="38.28722782441222" lon="15.814510259451845"><ele>281.0</ele><time>2026-04-12T17:26:24Z</time></trkpt><trkpt lat="38.287279339557905" lon="15.814425754103068"><ele>281.0</ele><time>2026-04-12T17:26:26Z</time></trkpt><trkpt lat="38.28730605557893" lon="15.814281720490651"><ele>280.5</ele><time>2026-04-12T17:26:28Z</time></trkpt><trkpt lat="38.28729741303448" lon="15.814193998229692"><ele>280.0</ele><time>2026-04-12T17:26:29Z</time></trkpt><trkpt lat="38.28726126731671" lon="15.814038764278168"><ele>279.5</ele><time>2026-04-12T17:26:31Z</time></trkpt><trkpt lat="38.28723919841842" lon="15.813934072901512"><ele>279.0</ele><time>2026-04-12T17:26:32Z</time></trkpt><trkpt lat="38.287227154646814" lon="15.813853079354162"><ele>278.5</ele><time>2026-04-12T17:26:33Z</time></trkpt><trkpt lat="38.28720589617963" lon="15.813750361103098"><ele>278.0</ele><time>2026-04-12T17:26:34Z</time></trkpt><trkpt lat="38.28720500584991" lon="15.81360465087194"><ele>268.6666666666667</ele><time>2026-04-12T17:26:35Z</time></trkpt><trkpt lat="38.28724090394356" lon="15.81342256614267"><ele>259.3333333333333</ele><time>2026-04-12T17:26:36Z</time></trkpt><trkpt lat="38.28725172953781" lon="15.813182953553017"><ele>250.0</ele><time>2026-04-12T17:26:37Z</time></trkpt><trkpt lat="38.28725499227505" lon="15.812990010361233"><ele>250.0</ele><time>2026-04-12T17:26:38Z</time></trkpt><trkpt lat="38.28723089011685" lon="15.812842904087725"><ele>250.0</ele><time>2026-04-12T17:26:39Z</time></trkpt><trkpt lat="38.28714132056552" lon="15.812699058267428"><ele>250.0</ele><time>2026-04-12T17:26:40Z</time></trkpt><trkpt lat="38.28701816603493" lon="15.812531355436636"><ele>250.0</ele><time>2026-04-12T17:26:41Z</time></trkpt><trkpt lat="38.286867791107525" lon="15.812379403571596"><ele>235.66666666666666</ele><time>2026-04-12T17:26:42Z</time></trkpt><trkpt lat="38.28673808112079" lon="15.812234804755699"><ele>221.33333333333331</ele><time>2026-04-12T17:26:43Z</time></trkpt><trkpt lat="38.28663027344003" lon="15.812100863609192"><ele>207.0</ele><time>2026-04-12T17:26:44Z</time></trkpt><trkpt lat="38.28653427022036" lon="15.81196265718914"><ele>207.0</ele><time>2026-04-12T17:26:45Z</time></trkpt><trkpt lat="38.2864429848884" lon="15.811834445439036"><ele>207.0</ele><time>2026-04-12T17:26:46Z</time></trkpt><trkpt lat="38.28636959269071" lon="15.811725403240274"><ele>207.0</ele><time>2026-04-12T17:26:47Z</time></trkpt><trkpt lat="38.28632001355249" lon="15.811633319135307"><ele>207.0</ele><time>2026-04-12T17:26:48Z</time></trkpt><trkpt lat="38.286276560832825" lon="15.811528700527129"><ele>207.0</ele><time>2026-04-12T17:26:50Z</time></trkpt><trkpt lat="38.286202411926354" lon="15.81150486469885"><ele>208.8</ele><time>2026-04-12T17:27:18Z</time></trkpt><trkpt lat="38.28613619371435" lon="15.811386663529321"><ele>210.6</ele><time>2026-04-12T17:27:21Z</time></trkpt><trkpt lat="38.28611345953792" lon="15.81130732733762"><ele>212.40000000000003</ele><time>2026-04-12T17:27:22Z</time></trkpt><trkpt lat="38.2860937425288" lon="15.8111965630505"><ele>214.20000000000002</ele><time>2026-04-12T17:27:23Z</time></trkpt><trkpt lat="38.28611900421531" lon="15.81106780655116"><ele>216.0</ele><time>2026-04-12T17:27:24Z</time></trkpt><trkpt lat="38.28611135268766" lon="15.810945921916808"><ele>211.0</ele><time>2026-04-12T17:27:25Z</time></trkpt><trkpt lat="38.286095750862216" lon="15.810825655301496"><ele>206.00000000000003</ele><time>2026-04-12T17:27:26Z</time></trkpt><trkpt lat="38.286057909479524" lon="15.810716781917055"><ele>201.0</ele><time>2026-04-12T17:27:27Z</time></trkpt><trkpt lat="38.285990639920755" lon="15.810621416438083"><ele>196.0</ele><time>2026-04-12T17:27:28Z</time></trkpt><trkpt lat="38.28594475810799" lon="15.810536314498515"><ele>191.0</ele><time>2026-04-12T17:27:29Z</time></trkpt><trkpt lat="38.285837234036265" lon="15.810590978304436"><ele>191.0</ele><time>2026-04-12T17:27:30Z</time></trkpt><trkpt lat="38.285762516855996" lon="15.810622896136673"><ele>191.0</ele><time>2026-04-12T17:27:31Z</time></trkpt><trkpt lat="38.28566564562076" lon="15.810659974924803"><ele>191.0</ele><time>2026-04-12T17:27:32Z</time></trkpt><trkpt lat="38.28558084168497" lon="15.810698468810088"><ele>191.0</ele><time>2026-04-12T17:27:33Z</time></trkpt><trkpt lat="38.28547501998708" lon="15.810711811302184"><ele>191.0</ele><time>2026-04-12T17:27:34Z</time></trkpt><trkpt lat="38.28538986553734" lon="15.810775525330154"><ele>190.4</ele><time>2026-04-12T17:27:36Z</time></trkpt><trkpt lat="38.28530847707374" lon="15.810779075215933"><ele>189.8</ele><time>2026-04-12T17:27:37Z</time></trkpt><trkpt lat="38.28522903731151" lon="15.810738637073246"><ele>189.20000000000002</ele><time>2026-04-12T17:27:38Z</time></trkpt><trkpt lat="38.28529766918543" lon="15.81060811118011"><ele>188.60000000000002</ele><time>2026-04-12T17:27:40Z</time></trkpt><trkpt lat="38.28535509018381" lon="15.81051430581739"><ele>188.0</ele><time>2026-04-12T17:27:41Z</time></trkpt><trkpt lat="38.2854930217739" lon="15.810503251218458"><ele>188.0</ele><time>2026-04-12T17:27:43Z</time></trkpt><trkpt lat="38.28558704239517" lon="15.81046073617968"><ele>188.0</ele><time>2026-04-12T17:27:44Z</time></trkpt><trkpt lat="38.28567279354305" lon="15.810421960604081"><ele>188.0</ele><time>2026-04-12T17:27:45Z</time></trkpt><trkpt lat="38.285744674562224" lon="15.810371474283958"><ele>188.0</ele><time>2026-04-12T17:27:46Z</time></trkpt><trkpt lat="38.28581543189033" lon="15.810349669549744"><ele>188.0</ele><time>2026-04-12T17:27:47Z</time></trkpt><trkpt lat="38.285872510354864" lon="15.810313216186554"><ele>188.0</ele><time>2026-04-12T17:27:48Z</time></trkpt><trkpt lat="38.28593700630473" lon="15.8102979917271"><ele>188.5</ele><time>2026-04-12T17:27:49Z</time></trkpt><trkpt lat="38.28600063431687" lon="15.810276163708187"><ele>189.0</ele><time>2026-04-12T17:27:50Z</time></trkpt><trkpt lat="38.286078001224446" lon="15.81027059903528"><ele>189.5</ele><time>2026-04-12T17:27:51Z</time></trkpt><trkpt lat="38.28615217962681" lon="15.810299194231801"><ele>190.0</ele><time>2026-04-12T17:27:52Z</time></trkpt><trkpt lat="38.28621598712924" lon="15.810381129819799"><ele>190.5</ele><time>2026-04-12T17:27:53Z</time></trkpt><trkpt lat="38.286279358453335" lon="15.81044672345825"><ele>191.0</ele><time>2026-04-12T17:27:54Z</time></trkpt><trkpt lat="38.286330119541404" lon="15.810549135111245"><ele>191.0</ele><time>2026-04-12T17:27:55Z</time></trkpt><trkpt lat="38.286380149634695" lon="15.810662912616063"><ele>191.0</ele><time>2026-04-12T17:27:56Z</time></trkpt><trkpt lat="38.28644716861474" lon="15.810788305590386"><ele>191.0</ele><time>2026-04-12T17:27:57Z</time></trkpt><trkpt lat="38.28650601982288" lon="15.810902196640033"><ele>191.0</ele><time>2026-04-12T17:27:58Z</time></trkpt><trkpt lat="38.28656538902005" lon="15.810992579871058"><ele>191.0</ele><time>2026-04-12T17:27:59Z</time></trkpt><trkpt lat="38.28661042833301" lon="15.811098184833403"><ele>190.16666666666666</ele><time>2026-04-12T17:28:00Z</time></trkpt><trkpt lat="38.286664450063064" lon="15.81118678314764"><ele>189.33333333333331</ele><time>2026-04-12T17:28:01Z</time></trkpt><trkpt lat="38.28675672772211" lon="15.811177115584707"><ele>188.5</ele><time>2026-04-12T17:28:02Z</time></trkpt><trkpt lat="38.28681279464195" lon="15.811220116500332"><ele>187.66666666666666</ele><time>2026-04-12T17:28:03Z</time></trkpt><trkpt lat="38.286870441852315" lon="15.811272811666191"><ele>186.83333333333334</ele><time>2026-04-12T17:28:04Z</time></trkpt><trkpt lat="38.28694587576021" lon="15.811322336323204"><ele>186.0</ele><time>2026-04-12T17:28:05Z</time></trkpt><trkpt lat="38.287011494889576" lon="15.811372460505385"><ele>186.0</ele><time>2026-04-12T17:28:06Z</time></trkpt><trkpt lat="38.28708126222062" lon="15.811437363928231"><ele>186.0</ele><time>2026-04-12T17:28:07Z</time></trkpt><trkpt lat="38.28714415001507" lon="15.811498897819357"><ele>186.0</ele><time>2026-04-12T17:28:08Z</time></trkpt><trkpt lat="38.28721894834739" lon="15.811566063893704"><ele>186.0</ele><time>2026-04-12T17:28:09Z</time></trkpt><trkpt lat="38.28729824578016" lon="15.811617549392174"><ele>186.0</ele><time>2026-04-12T17:28:10Z</time></trkpt><trkpt lat="38.28740216456456" lon="15.811684342324392"><ele>184.16666666666666</ele><time>2026-04-12T17:28:12Z</time></trkpt><trkpt lat="38.28746423809048" lon="15.811738515396083"><ele>182.33333333333334</ele><time>2026-04-12T17:28:13Z</time></trkpt><trkpt lat="38.287529146074014" lon="15.811791306639778"><ele>180.5</ele><time>2026-04-12T17:28:14Z</time></trkpt><trkpt lat="38.287601301922365" lon="15.811872163828035"><ele>178.66666666666669</ele><time>2026-04-12T17:28:15Z</time></trkpt><trkpt lat="38.28767894846027" lon="15.811912418983487"><ele>176.83333333333334</ele><time>2026-04-12T17:28:16Z</time></trkpt><trkpt lat="38.28773692376603" lon="15.811979868633246"><ele>175.0</ele><time>2026-04-12T17:28:17Z</time></trkpt><trkpt lat="38.287793884650085" lon="15.812027068988263"><ele>175.0</ele><time>2026-04-12T17:28:18Z</time></trkpt><trkpt lat="38.287900274861656" lon="15.81209078312365"><ele>175.0</ele><time>2026-04-12T17:28:20Z</time></trkpt><trkpt lat="38.28799087876604" lon="15.812040327249994"><ele>175.0</ele><time>2026-04-12T17:28:22Z</time></trkpt><trkpt lat="38.2879501603759" lon="15.811898168612041"><ele>175.0</ele><time>2026-04-12T17:28:24Z</time></trkpt><trkpt lat="38.2878985779601" lon="15.811830087309415"><ele>175.0</ele><time>2026-04-12T17:28:25Z</time></trkpt><trkpt lat="38.287838460203446" lon="15.811778030919374"><ele>172.66666666666669</ele><time>2026-04-12T17:28:26Z</time></trkpt><trkpt lat="38.287793180021225" lon="15.811714508434784"><ele>170.33333333333334</ele><time>2026-04-12T17:28:27Z</time></trkpt><trkpt lat="38.287747284291974" lon="15.811643262739539"><ele>168.0</ele><time>2026-04-12T17:28:28Z</time></trkpt><trkpt lat="38.28768772962849" lon="15.811569310551937"><ele>165.66666666666666</ele><time>2026-04-12T17:28:29Z</time></trkpt><trkpt lat="38.28762345001725" lon="15.811502633904064"><ele>163.33333333333331</ele><time>2026-04-12T17:28:30Z</time></trkpt><trkpt lat="38.2875616794329" lon="15.811424232154348"><ele>161.0</ele><time>2026-04-12T17:28:31Z</time></trkpt><trkpt lat="38.287494212864246" lon="15.811336950722591"><ele>161.0</ele><time>2026-04-12T17:28:32Z</time></trkpt><trkpt lat="38.28741946229824" lon="15.8112419302529"><ele>161.0</ele><time>2026-04-12T17:28:33Z</time></trkpt><trkpt lat="38.28733532192986" lon="15.811108320439955"><ele>161.0</ele><time>2026-04-12T17:28:34Z</time></trkpt><trkpt lat="38.28723455615442" lon="15.81100322371432"><ele>161.0</ele><time>2026-04-12T17:28:35Z</time></trkpt><trkpt lat="38.287163294612405" lon="15.810881571563122"><ele>162.25</ele><time>2026-04-12T17:28:36Z</time></trkpt><trkpt lat="38.28711190455864" lon="15.810765701827728"><ele>163.5</ele><time>2026-04-12T17:28:37Z</time></trkpt><trkpt lat="38.287063074872655" lon="15.810635651241881"><ele>164.75</ele><time>2026-04-12T17:28:38Z</time></trkpt><trkpt lat="38.28701026394555" lon="15.81050042266923"><ele>166.0</ele><time>2026-04-12T17:28:39Z</time></trkpt><trkpt lat="38.28697224157393" lon="15.810353489177883"><ele>166.0</ele><time>2026-04-12T17:28:40Z</time></trkpt><trkpt lat="38.28692048074926" lon="15.810199120014154"><ele>166.0</ele><time>2026-04-12T17:28:41Z</time></trkpt><trkpt lat="38.28687806163693" lon="15.81005173457398"><ele>166.0</ele><time>2026-04-12T17:28:42Z</time></trkpt><trkpt lat="38.28683395658234" lon="15.809904018780333"><ele>166.0</ele><time>2026-04-12T17:28:43Z</time></trkpt><trkpt lat="38.286796712489334" lon="15.809755532433217"><ele>161.5</ele><time>2026-04-12T17:28:44Z</time></trkpt><trkpt lat="38.28674929515553" lon="15.809614386790635"><ele>157.0</ele><time>2026-04-12T17:28:45Z</time></trkpt><trkpt lat="38.28670723066466" lon="15.80947276707492"><ele>152.5</ele><time>2026-04-12T17:28:46Z</time></trkpt><trkpt lat="38.28668238907532" lon="15.809321658419654"><ele>148.0</ele><time>2026-04-12T17:28:47Z</time></trkpt><trkpt lat="38.2866309069573" lon="15.809183267269406"><ele>145.4</ele><time>2026-04-12T17:28:48Z</time></trkpt><trkpt lat="38.28659264685487" lon="15.809044199592686"><ele>142.8</ele><time>2026-04-12T17:28:49Z</time></trkpt><trkpt lat="38.286543488221305" lon="15.808909604726818"><ele>140.2</ele><time>2026-04-12T17:28:50Z</time></trkpt><trkpt lat="38.286500146740735" lon="15.808796887820488"><ele>137.6</ele><time>2026-04-12T17:28:51Z</time></trkpt><trkpt lat="38.286462615687824" lon="15.808695779246493"><ele>135.0</ele><time>2026-04-12T17:28:52Z</time></trkpt><trkpt lat="38.28642659235251" lon="15.808590447456204"><ele>135.0</ele><time>2026-04-12T17:28:54Z</time></trkpt><trkpt lat="38.286487799639076" lon="15.808514872101174"><ele>135.0</ele><time>2026-04-12T17:28:58Z</time></trkpt><trkpt lat="38.2865865999268" lon="15.808650902156968"><ele>135.0</ele><time>2026-04-12T17:29:00Z</time></trkpt><trkpt lat="38.28663661584414" lon="15.808761549067292"><ele>135.0</ele><time>2026-04-12T17:29:01Z</time></trkpt><trkpt lat="38.28669005125439" lon="15.808846486503612"><ele>135.0</ele><time>2026-04-12T17:29:02Z</time></trkpt><trkpt lat="38.2867435188687" lon="15.808937012556497"><ele>135.0</ele><time>2026-04-12T17:29:03Z</time></trkpt><trkpt lat="38.28678361137452" lon="15.80902226483772"><ele>135.0</ele><time>2026-04-12T17:29:04Z</time></trkpt><trkpt lat="38.28682513240286" lon="15.809107680270243"><ele>135.0</ele><time>2026-04-12T17:29:05Z</time></trkpt><trkpt lat="38.28688632387727" lon="15.809182437087648"><ele>135.0</ele><time>2026-04-12T17:29:06Z</time></trkpt><trkpt lat="38.28695589784996" lon="15.80926073333498"><ele>135.0</ele><time>2026-04-12T17:29:07Z</time></trkpt><trkpt lat="38.287028543937126" lon="15.809340186246311"><ele>135.0</ele><time>2026-04-12T17:29:08Z</time></trkpt><trkpt lat="38.28710663843021" lon="15.809415990703958"><ele>134.0</ele><time>2026-04-12T17:29:09Z</time></trkpt><trkpt lat="38.287176129218636" lon="15.809495465931708"><ele>133.0</ele><time>2026-04-12T17:29:10Z</time></trkpt><trkpt lat="38.28724237456605" lon="15.809570607874575"><ele>132.0</ele><time>2026-04-12T17:29:11Z</time></trkpt><trkpt lat="38.28730131981072" lon="15.809639281580141"><ele>131.0</ele><time>2026-04-12T17:29:12Z</time></trkpt><trkpt lat="38.287360108294834" lon="15.80971548840687"><ele>130.0</ele><time>2026-04-12T17:29:13Z</time></trkpt><trkpt lat="38.28741593903629" lon="15.809778873238102"><ele>129.0</ele><time>2026-04-12T17:29:14Z</time></trkpt><trkpt lat="38.28749645384101" lon="15.809822098705345"><ele>129.0</ele><time>2026-04-12T17:29:15Z</time></trkpt><trkpt lat="38.28756070713601" lon="15.809890986526792"><ele>129.0</ele><time>2026-04-12T17:29:16Z</time></trkpt><trkpt lat="38.287623098862184" lon="15.809955412689215"><ele>129.0</ele><time>2026-04-12T17:29:17Z</time></trkpt><trkpt lat="38.28768126135982" lon="15.810000887652688"><ele>129.0</ele><time>2026-04-12T17:29:18Z</time></trkpt><trkpt lat="38.28773495354833" lon="15.810045910201014"><ele>129.0</ele><time>2026-04-12T17:29:19Z</time></trkpt><trkpt lat="38.287785996137984" lon="15.810093864075974"><ele>129.0</ele><time>2026-04-12T17:29:20Z</time></trkpt><trkpt lat="38.287894260258696" lon="15.810199353844087"><ele>128.4</ele><time>2026-04-12T17:29:22Z</time></trkpt><trkpt lat="38.2879917611068" lon="15.81025679362749"><ele>127.80000000000001</ele><time>2026-04-12T17:29:23Z</time></trkpt><trkpt lat="38.28808709036134" lon="15.810328079086485"><ele>127.19999999999999</ele><time>2026-04-12T17:29:24Z</time></trkpt><trkpt lat="38.288174651535016" lon="15.810399443803226"><ele>126.6</ele><time>2026-04-12T17:29:25Z</time></trkpt><trkpt lat="38.28824686931253" lon="15.81044928851682"><ele>126.0</ele><time>2026-04-12T17:29:26Z</time></trkpt><trkpt lat="38.28831439267561" lon="15.81049563575199"><ele>126.0</ele><time>2026-04-12T17:29:27Z</time></trkpt><trkpt lat="38.28837730564566" lon="15.810516051175437"><ele>126.0</ele><time>2026-04-12T17:29:28Z</time></trkpt><trkpt lat="38.28847681299108" lon="15.810499870714937"><ele>126.0</ele><time>2026-04-12T17:29:30Z</time></trkpt><trkpt lat="38.28851258392587" lon="15.810360763287532"><ele>126.0</ele><time>2026-04-12T17:29:31Z</time></trkpt><trkpt lat="38.2885094879297" lon="15.81025773718943"><ele>126.0</ele><time>2026-04-12T17:29:32Z</time></trkpt><trkpt lat="38.28844285063939" lon="15.810164339191761"><ele>123.19999999999999</ele><time>2026-04-12T17:29:33Z</time></trkpt><trkpt lat="38.28837990392019" lon="15.810065703757166"><ele>120.39999999999999</ele><time>2026-04-12T17:29:34Z</time></trkpt><trkpt lat="38.288321947094616" lon="15.809967486996392"><ele>117.6</ele><time>2026-04-12T17:29:35Z</time></trkpt><trkpt lat="38.288272220145586" lon="15.809872430974357"><ele>114.8</ele><time>2026-04-12T17:29:36Z</time></trkpt><trkpt lat="38.288241000639886" lon="15.809773209699795"><ele>112.0</ele><time>2026-04-12T17:29:37Z</time></trkpt><trkpt lat="38.288196842716914" lon="15.809675341633275"><ele>112.00000000000001</ele><time>2026-04-12T17:29:38Z</time></trkpt><trkpt lat="38.28815427539775" lon="15.809579579951174"><ele>112.0</ele><time>2026-04-12T17:29:39Z</time></trkpt><trkpt lat="38.288108779216905" lon="15.809486526980889"><ele>112.0</ele><time>2026-04-12T17:29:40Z</time></trkpt><trkpt lat="38.288068545504615" lon="15.809386936480518"><ele>112.0</ele><time>2026-04-12T17:29:41Z</time></trkpt><trkpt lat="38.288008247599045" lon="15.809312384811731"><ele>112.00000000000001</ele><time>2026-04-12T17:29:42Z</time></trkpt><trkpt lat="38.287958823642775" lon="15.809241223856635"><ele>112.0</ele><time>2026-04-12T17:29:43Z</time></trkpt><trkpt lat="38.28794068970128" lon="15.809154164539247"><ele>113.00000000000001</ele><time>2026-04-12T17:29:44Z</time></trkpt><trkpt lat="38.287948121165186" lon="15.809060594396877"><ele>114.0</ele><time>2026-04-12T17:29:45Z</time></trkpt><trkpt lat="38.28798463579061" lon="15.808986160030992"><ele>115.0</ele><time>2026-04-12T17:29:46Z</time></trkpt><trkpt lat="38.28804387163214" lon="15.808918140847005"><ele>116.0</ele><time>2026-04-12T17:29:47Z</time></trkpt><trkpt lat="38.288102767667766" lon="15.808785943932318"><ele>117.00000000000001</ele><time>2026-04-12T17:29:48Z</time></trkpt><trkpt lat="38.28811099654498" lon="15.8086676516976"><ele>118.0</ele><time>2026-04-12T17:29:49Z</time></trkpt><trkpt lat="38.28809956782515" lon="15.80854568425461"><ele>115.2</ele><time>2026-04-12T17:29:50Z</time></trkpt><trkpt lat="38.288050973970606" lon="15.808450325146673"><ele>112.4</ele><time>2026-04-12T17:29:51Z</time></trkpt><trkpt lat="38.287994448924174" lon="15.808350429408275"><ele>109.60000000000001</ele><time>2026-04-12T17:29:52Z</time></trkpt><trkpt lat="38.28792470824945" lon="15.808261641707043"><ele>106.80000000000001</ele><time>2026-04-12T17:29:53Z</time></trkpt><trkpt lat="38.28785021793172" lon="15.80818976933564"><ele>104.0</ele><time>2026-04-12T17:29:54Z</time></trkpt><trkpt lat="38.28780541376099" lon="15.808077834352344"><ele>104.0</ele><time>2026-04-12T17:29:56Z</time></trkpt><trkpt lat="38.28784807871847" lon="15.80800896768973"><ele>104.0</ele><time>2026-04-12T17:29:58Z</time></trkpt><trkpt lat="38.287946483113146" lon="15.808100429337113"><ele>104.0</ele><time>2026-04-12T17:30:00Z</time></trkpt><trkpt lat="38.28797225581962" lon="15.808199807887997"><ele>104.0</ele><time>2026-04-12T17:30:01Z</time></trkpt><trkpt lat="38.288031404388974" lon="15.808292398411357"><ele>104.0</ele><time>2026-04-12T17:30:02Z</time></trkpt><trkpt lat="38.288091234932665" lon="15.808367270860755"><ele>102.2</ele><time>2026-04-12T17:30:03Z</time></trkpt><trkpt lat="38.288150071610126" lon="15.808411261138657"><ele>100.4</ele><time>2026-04-12T17:30:04Z</time></trkpt><trkpt lat="38.288267194961335" lon="15.808434450109372"><ele>98.6</ele><time>2026-04-12T17:30:06Z</time></trkpt><trkpt lat="38.28833857026381" lon="15.80838419475507"><ele>96.8</ele><time>2026-04-12T17:30:07Z</time></trkpt><trkpt lat="38.28841658080786" lon="15.808312162402775"><ele>95.0</ele><time>2026-04-12T17:30:08Z</time></trkpt><trkpt lat="38.288507884542135" lon="15.808208803724275"><ele>95.0</ele><time>2026-04-12T17:30:09Z</time></trkpt><trkpt lat="38.288590439504055" lon="15.80811144566272"><ele>95.0</ele><time>2026-04-12T17:30:10Z</time></trkpt><trkpt lat="38.288704246067624" lon="15.80804094782349"><ele>95.0</ele><time>2026-04-12T17:30:11Z</time></trkpt><trkpt lat="38.288812593106016" lon="15.807952430145482"><ele>95.0</ele><time>2026-04-12T17:30:12Z</time></trkpt><trkpt lat="38.28892922559864" lon="15.807869930356471"><ele>89.25</ele><time>2026-04-12T17:30:13Z</time></trkpt><trkpt lat="38.289038827964724" lon="15.807792179987873"><ele>83.5</ele><time>2026-04-12T17:30:14Z</time></trkpt><trkpt lat="38.28914444233505" lon="15.80771221494286"><ele>77.75</ele><time>2026-04-12T17:30:15Z</time></trkpt><trkpt lat="38.28924521905144" lon="15.807640810021965"><ele>72.0</ele><time>2026-04-12T17:30:16Z</time></trkpt><trkpt lat="38.28933845958571" lon="15.8075796693575"><ele>71.4</ele><time>2026-04-12T17:30:17Z</time></trkpt><trkpt lat="38.289438847949505" lon="15.807549370532957"><ele>70.80000000000001</ele><time>2026-04-12T17:30:18Z</time></trkpt><trkpt lat="38.28954252531048" lon="15.807553753468689"><ele>70.2</ele><time>2026-04-12T17:30:19Z</time></trkpt><trkpt lat="38.289644330042286" lon="15.807536328084796"><ele>69.60000000000001</ele><time>2026-04-12T17:30:20Z</time></trkpt><trkpt lat="38.28974188321313" lon="15.807501674323987"><ele>69.0</ele><time>2026-04-12T17:30:21Z</time></trkpt><trkpt lat="38.28981356742508" lon="15.807437095842088"><ele>69.0</ele><time>2026-04-12T17:30:22Z</time></trkpt><trkpt lat="38.28984733583938" lon="15.807345128789986"><ele>69.0</ele><time>2026-04-12T17:30:23Z</time></trkpt><trkpt lat="38.28985952261167" lon="15.807239258021507"><ele>69.0</ele><time>2026-04-12T17:30:24Z</time></trkpt><trkpt lat="38.28983833545751" lon="15.80713533846248"><ele>69.0</ele><time>2026-04-12T17:30:25Z</time></trkpt><trkpt lat="38.28978983452333" lon="15.807038997422865"><ele>69.0</ele><time>2026-04-12T17:30:26Z</time></trkpt><trkpt lat="38.28972593593435" lon="15.806977583483592"><ele>69.0</ele><time>2026-04-12T17:30:27Z</time></trkpt><trkpt lat="38.28964628529518" lon="15.806959766010547"><ele>69.0</ele><time>2026-04-12T17:30:28Z</time></trkpt><trkpt lat="38.28955425717352" lon="15.806964850737284"><ele>69.0</ele><time>2026-04-12T17:30:29Z</time></trkpt><trkpt lat="38.28945932437495" lon="15.807013500223647"><ele>69.0</ele><time>2026-04-12T17:30:30Z</time></trkpt><trkpt lat="38.2893747074344" lon="15.807080101876299"><ele>69.0</ele><time>2026-04-12T17:30:31Z</time></trkpt><trkpt lat="38.289295104022464" lon="15.807147722728823"><ele>69.0</ele><time>2026-04-12T17:30:32Z</time></trkpt><trkpt lat="38.289222873058804" lon="15.807225740339408"><ele>69.0</ele><time>2026-04-12T17:30:33Z</time></trkpt><trkpt lat="38.28917060631867" lon="15.8073265055861"><ele>69.0</ele><time>2026-04-12T17:30:34Z</time></trkpt><trkpt lat="38.28915094934387" lon="15.807426244470692"><ele>69.0</ele><time>2026-04-12T17:30:35Z</time></trkpt><trkpt lat="38.28916007869175" lon="15.807514918976013"><ele>69.0</ele><time>2026-04-12T17:30:36Z</time></trkpt><trkpt lat="38.28918844509699" lon="15.807606522472703"><ele>69.0</ele><time>2026-04-12T17:30:37Z</time></trkpt><trkpt lat="38.289222785762036" lon="15.80769714150649"><ele>69.0</ele><time>2026-04-12T17:30:38Z</time></trkpt><trkpt lat="38.289248042812346" lon="15.807785357880634"><ele>69.0</ele><time>2026-04-12T17:30:39Z</time></trkpt><trkpt lat="38.2892547848796" lon="15.807865217051171"><ele>69.0</ele><time>2026-04-12T17:30:40Z</time></trkpt><trkpt lat="38.2891910791081" lon="15.80792664094429"><ele>69.0</ele><time>2026-04-12T17:30:42Z</time></trkpt><trkpt lat="38.289099448283444" lon="15.807876203955987"><ele>69.0</ele><time>2026-04-12T17:30:44Z</time></trkpt><trkpt lat="38.28907816198268" lon="15.80776069908813"><ele>69.0</ele><time>2026-04-12T17:30:45Z</time></trkpt><trkpt lat="38.28902303540707" lon="15.807667113643822"><ele>69.0</ele><time>2026-04-12T17:30:46Z</time></trkpt><trkpt lat="38.28896131559534" lon="15.807596562798592"><ele>67.0</ele><time>2026-04-12T17:30:47Z</time></trkpt><trkpt lat="38.28883827235549" lon="15.807609165415908"><ele>65.0</ele><time>2026-04-12T17:30:48Z</time></trkpt><trkpt lat="38.28872096911009" lon="15.80760530243886"><ele>63.0</ele><time>2026-04-12T17:30:49Z</time></trkpt><trkpt lat="38.28857466301918" lon="15.80760699402636"><ele>61.0</ele><time>2026-04-12T17:30:50Z</time></trkpt><trkpt lat="38.28845782566766" lon="15.8076293744728"><ele>61.0</ele><time>2026-04-12T17:30:51Z</time></trkpt><trkpt lat="38.28833686385599" lon="15.807625354160232"><ele>61.0</ele><time>2026-04-12T17:30:52Z</time></trkpt><trkpt lat="38.28821941953961" lon="15.807624720605714"><ele>61.0</ele><time>2026-04-12T17:30:53Z</time></trkpt><trkpt lat="38.28811347893316" lon="15.807613305977977"><ele>61.0</ele><time>2026-04-12T17:30:54Z</time></trkpt><trkpt lat="38.28800528601811" lon="15.807588359003542"><ele>61.8</ele><time>2026-04-12T17:30:55Z</time></trkpt><trkpt lat="38.287900576166834" lon="15.807563418359553"><ele>62.599999999999994</ele><time>2026-04-12T17:30:56Z</time></trkpt><trkpt lat="38.2877986205721" lon="15.807549190578346"><ele>63.4</ele><time>2026-04-12T17:30:57Z</time></trkpt><trkpt lat="38.287700946928624" lon="15.807525028676581"><ele>64.2</ele><time>2026-04-12T17:30:58Z</time></trkpt><trkpt lat="38.28761127668702" lon="15.807501813228539"><ele>65.0</ele><time>2026-04-12T17:30:59Z</time></trkpt><trkpt lat="38.28752991745662" lon="15.807473991206976"><ele>65.0</ele><time>2026-04-12T17:31:00Z</time></trkpt><trkpt lat="38.28744538552086" lon="15.807459010713252"><ele>65.0</ele><time>2026-04-12T17:31:01Z</time></trkpt><trkpt lat="38.28736976553859" lon="15.807426323174656"><ele>65.0</ele><time>2026-04-12T17:31:02Z</time></trkpt><trkpt lat="38.28730063026686" lon="15.807374175285432"><ele>65.0</ele><time>2026-04-12T17:31:03Z</time></trkpt><trkpt lat="38.28725007179691" lon="15.807300181800871"><ele>65.0</ele><time>2026-04-12T17:31:04Z</time></trkpt><trkpt lat="38.287189360487005" lon="15.807233178005045"><ele>65.0</ele><time>2026-04-12T17:31:05Z</time></trkpt><trkpt lat="38.287117304870414" lon="15.807179167151377"><ele>66.83333333333334</ele><time>2026-04-12T17:31:06Z</time></trkpt><trkpt lat="38.287041840293035" lon="15.807142874880812"><ele>68.66666666666667</ele><time>2026-04-12T17:31:07Z</time></trkpt><trkpt lat="38.28695954336058" lon="15.807143604358515"><ele>70.5</ele><time>2026-04-12T17:31:08Z</time></trkpt><trkpt lat="38.28688883664198" lon="15.807142718353095"><ele>72.33333333333333</ele><time>2026-04-12T17:31:09Z</time></trkpt><trkpt lat="38.286802093511646" lon="15.807141858369642"><ele>74.16666666666666</ele><time>2026-04-12T17:31:10Z</time></trkpt><trkpt lat="38.286686921039546" lon="15.80711979719911"><ele>76.0</ele><time>2026-04-12T17:31:11Z</time></trkpt><trkpt lat="38.28659272654372" lon="15.807075661961939"><ele>76.0</ele><time>2026-04-12T17:31:12Z</time></trkpt><trkpt lat="38.28650526674779" lon="15.8070011409659"><ele>76.0</ele><time>2026-04-12T17:31:13Z</time></trkpt><trkpt lat="38.286430931173975" lon="15.80690995442833"><ele>76.0</ele><time>2026-04-12T17:31:14Z</time></trkpt><trkpt lat="38.28635710240819" lon="15.806803730009232"><ele>76.0</ele><time>2026-04-12T17:31:15Z</time></trkpt><trkpt lat="38.28629883593173" lon="15.806693734477301"><ele>76.0</ele><time>2026-04-12T17:31:16Z</time></trkpt><trkpt lat="38.28625694202943" lon="15.80656818140935"><ele>77.25</ele><time>2026-04-12T17:31:17Z</time></trkpt><trkpt lat="38.28620619419988" lon="15.806443615058264"><ele>78.5</ele><time>2026-04-12T17:31:18Z</time></trkpt><trkpt lat="38.2861479703227" lon="15.806303257957625"><ele>79.75</ele><time>2026-04-12T17:31:19Z</time></trkpt><trkpt lat="38.28608149969753" lon="15.806182456415739"><ele>81.0</ele><time>2026-04-12T17:31:20Z</time></trkpt><trkpt lat="38.28601126817267" lon="15.806071215498713"><ele>78.2</ele><time>2026-04-12T17:31:21Z</time></trkpt><trkpt lat="38.28594906222968" lon="15.80596022333704"><ele>75.39999999999999</ele><time>2026-04-12T17:31:22Z</time></trkpt><trkpt lat="38.2858856960604" lon="15.805839489075877"><ele>72.6</ele><time>2026-04-12T17:31:23Z</time></trkpt><trkpt lat="38.28583436224261" lon="15.805719037618763"><ele>69.8</ele><time>2026-04-12T17:31:24Z</time></trkpt><trkpt lat="38.28578673534943" lon="15.805592403346148"><ele>67.0</ele><time>2026-04-12T17:31:25Z</time></trkpt><trkpt lat="38.28575630873095" lon="15.805450062171506"><ele>67.0</ele><time>2026-04-12T17:31:26Z</time></trkpt><trkpt lat="38.28574268908433" lon="15.805317055168864"><ele>67.0</ele><time>2026-04-12T17:31:27Z</time></trkpt><trkpt lat="38.28573063699747" lon="15.805177804142051"><ele>67.0</ele><time>2026-04-12T17:31:28Z</time></trkpt><trkpt lat="38.2857548187929" lon="15.805057366596621"><ele>67.0</ele><time>2026-04-12T17:31:29Z</time></trkpt><trkpt lat="38.28577431665967" lon="15.804948864401185"><ele>67.0</ele><time>2026-04-12T17:31:30Z</time></trkpt><trkpt lat="38.28581219894068" lon="15.804851479252015"><ele>65.0</ele><time>2026-04-12T17:31:31Z</time></trkpt><trkpt lat="38.285817916432116" lon="15.804752271733127"><ele>63.0</ele><time>2026-04-12T17:31:32Z</time></trkpt><trkpt lat="38.28582213098709" lon="15.804653653821214"><ele>61.0</ele><time>2026-04-12T17:31:33Z</time></trkpt><trkpt lat="38.285819987759155" lon="15.804571162211344"><ele>59.0</ele><time>2026-04-12T17:31:34Z</time></trkpt><trkpt lat="38.28575748860998" lon="15.804416398798175"><ele>56.99999999999999</ele><time>2026-04-12T17:31:36Z</time></trkpt><trkpt lat="38.28570505871256" lon="15.804342507087126"><ele>55.0</ele><time>2026-04-12T17:31:37Z</time></trkpt><trkpt lat="38.2856217112075" lon="15.80429506811877"><ele>53.4</ele><time>2026-04-12T17:31:38Z</time></trkpt><trkpt lat="38.28552768939886" lon="15.804245127626048"><ele>51.8</ele><time>2026-04-12T17:31:39Z</time></trkpt><trkpt lat="38.285398655833546" lon="15.804193650374717"><ele>50.2</ele><time>2026-04-12T17:31:41Z</time></trkpt><trkpt lat="38.28533265595733" lon="15.804186228279372"><ele>48.6</ele><time>2026-04-12T17:31:42Z</time></trkpt><trkpt lat="38.28520211386197" lon="15.804213141295842"><ele>47.0</ele><time>2026-04-12T17:31:43Z</time></trkpt><trkpt lat="38.2851128514312" lon="15.80421604492579"><ele>47.0</ele><time>2026-04-12T17:31:44Z</time></trkpt><trkpt lat="38.285019227512855" lon="15.80423221939538"><ele>47.0</ele><time>2026-04-12T17:31:45Z</time></trkpt><trkpt lat="38.284915115407095" lon="15.804219937961577"><ele>47.0</ele><time>2026-04-12T17:31:46Z</time></trkpt><trkpt lat="38.28480065104371" lon="15.804199736593208"><ele>47.0</ele><time>2026-04-12T17:31:47Z</time></trkpt><trkpt lat="38.28469717212495" lon="15.804143130356698"><ele>47.0</ele><time>2026-04-12T17:31:48Z</time></trkpt><trkpt lat="38.28458145133378" lon="15.804101794864872"><ele>49.0</ele><time>2026-04-12T17:31:49Z</time></trkpt><trkpt lat="38.28447278484073" lon="15.804072223560473"><ele>51.0</ele><time>2026-04-12T17:31:50Z</time></trkpt><trkpt lat="38.284364689052055" lon="15.804045370066579"><ele>53.0</ele><time>2026-04-12T17:31:51Z</time></trkpt><trkpt lat="38.28426592922976" lon="15.804020995600542"><ele>55.0</ele><time>2026-04-12T17:31:52Z</time></trkpt><trkpt lat="38.284168570798336" lon="15.803992663106166"><ele>57.0</ele><time>2026-04-12T17:31:53Z</time></trkpt><trkpt lat="38.28406581687947" lon="15.803975038124259"><ele>57.0</ele><time>2026-04-12T17:31:54Z</time></trkpt><trkpt lat="38.28398112166346" lon="15.803931124943237"><ele>57.0</ele><time>2026-04-12T17:31:55Z</time></trkpt><trkpt lat="38.28390219451942" lon="15.803869728067422"><ele>57.0</ele><time>2026-04-12T17:31:56Z</time></trkpt><trkpt lat="38.28384027068377" lon="15.803800416088398"><ele>57.0</ele><time>2026-04-12T17:31:57Z</time></trkpt><trkpt lat="38.28378021060378" lon="15.803733257135972"><ele>57.0</ele><time>2026-04-12T17:31:58Z</time></trkpt><trkpt lat="38.283683328668026" lon="15.803638809869247"><ele>58.400000000000006</ele><time>2026-04-12T17:32:00Z</time></trkpt><trkpt lat="38.28358745393718" lon="15.803530596807112"><ele>59.800000000000004</ele><time>2026-04-12T17:32:02Z</time></trkpt><trkpt lat="38.283527121407126" lon="15.803478319960535"><ele>61.2</ele><time>2026-04-12T17:32:03Z</time></trkpt><trkpt lat="38.283465561290676" lon="15.803418389828142"><ele>62.6</ele><time>2026-04-12T17:32:04Z</time></trkpt><trkpt lat="38.28340189431681" lon="15.80334148594074"><ele>64.0</ele><time>2026-04-12T17:32:05Z</time></trkpt><trkpt lat="38.28332791983584" lon="15.803270406243803"><ele>66.5</ele><time>2026-04-12T17:32:06Z</time></trkpt><trkpt lat="38.283264838725216" lon="15.803176939351891"><ele>69.0</ele><time>2026-04-12T17:32:07Z</time></trkpt><trkpt lat="38.28315729269847" lon="15.803080082725922"><ele>71.5</ele><time>2026-04-12T17:32:08Z</time></trkpt><trkpt lat="38.28305323378718" lon="15.802979063453785"><ele>74.0</ele><time>2026-04-12T17:32:09Z</time></trkpt><trkpt lat="38.28296988486389" lon="15.802866563600565"><ele>74.0</ele><time>2026-04-12T17:32:10Z</time></trkpt><trkpt lat="38.28287863488722" lon="15.802793917060184"><ele>74.0</ele><time>2026-04-12T17:32:11Z</time></trkpt><trkpt lat="38.28282235725901" lon="15.802704891829"><ele>74.0</ele><time>2026-04-12T17:32:12Z</time></trkpt><trkpt lat="38.28275367179451" lon="15.802646609823062"><ele>74.0</ele><time>2026-04-12T17:32:13Z</time></trkpt><trkpt lat="38.282680983781745" lon="15.802573871829228"><ele>74.0</ele><time>2026-04-12T17:32:14Z</time></trkpt><trkpt lat="38.2825447070973" lon="15.802419332953642"><ele>71.2</ele><time>2026-04-12T17:32:16Z</time></trkpt><trkpt lat="38.28246954455296" lon="15.802337568387793"><ele>68.4</ele><time>2026-04-12T17:32:17Z</time></trkpt><trkpt lat="38.28240412675003" lon="15.802246317932815"><ele>65.6</ele><time>2026-04-12T17:32:18Z</time></trkpt><trkpt lat="38.28234637353333" lon="15.802137226355239"><ele>62.8</ele><time>2026-04-12T17:32:19Z</time></trkpt><trkpt lat="38.28229261830074" lon="15.802029422663445"><ele>60.0</ele><time>2026-04-12T17:32:20Z</time></trkpt><trkpt lat="38.28224980802667" lon="15.801927934415374"><ele>60.0</ele><time>2026-04-12T17:32:21Z</time></trkpt><trkpt lat="38.2821958192068" lon="15.801836779485887"><ele>60.0</ele><time>2026-04-12T17:32:22Z</time></trkpt><trkpt lat="38.28212605809706" lon="15.801770275165431"><ele>60.0</ele><time>2026-04-12T17:32:23Z</time></trkpt><trkpt lat="38.282047247431876" lon="15.801729927329646"><ele>60.0</ele><time>2026-04-12T17:32:24Z</time></trkpt><trkpt lat="38.2819743075408" lon="15.80171185680428"><ele>60.0</ele><time>2026-04-12T17:32:25Z</time></trkpt><trkpt lat="38.281909065696745" lon="15.80170445657624"><ele>60.0</ele><time>2026-04-12T17:32:26Z</time></trkpt><trkpt lat="38.281841729401705" lon="15.80168347312908"><ele>56.0</ele><time>2026-04-12T17:32:27Z</time></trkpt><trkpt lat="38.28178037803029" lon="15.801628478010143"><ele>52.0</ele><time>2026-04-12T17:32:28Z</time></trkpt><trkpt lat="38.281729491439634" lon="15.801563474223547"><ele>48.0</ele><time>2026-04-12T17:32:29Z</time></trkpt><trkpt lat="38.281678241420316" lon="15.801481162730125"><ele>44.0</ele><time>2026-04-12T17:32:30Z</time></trkpt><trkpt lat="38.28166896280457" lon="15.80137381611413"><ele>40.0</ele><time>2026-04-12T17:32:31Z</time></trkpt><trkpt lat="38.281635697248944" lon="15.801278735175623"><ele>36.0</ele><time>2026-04-12T17:32:32Z</time></trkpt><trkpt lat="38.28160184264255" lon="15.801181408097866"><ele>36.0</ele><time>2026-04-12T17:32:33Z</time></trkpt><trkpt lat="38.28156696311943" lon="15.801079984294699"><ele>36.0</ele><time>2026-04-12T17:32:34Z</time></trkpt><trkpt lat="38.28153733052194" lon="15.800992177564964"><ele>36.0</ele><time>2026-04-12T17:32:35Z</time></trkpt><trkpt lat="38.28149421768063" lon="15.80091352294168"><ele>36.0</ele><time>2026-04-12T17:32:36Z</time></trkpt><trkpt lat="38.281473596996356" lon="15.80080562329118"><ele>36.0</ele><time>2026-04-12T17:32:37Z</time></trkpt><trkpt lat="38.281437600877744" lon="15.800702692563616"><ele>36.0</ele><time>2026-04-12T17:32:38Z</time></trkpt><trkpt lat="38.28139865089007" lon="15.800591315235428"><ele>34.6</ele><time>2026-04-12T17:32:39Z</time></trkpt><trkpt lat="38.28135770546555" lon="15.800474871816888"><ele>33.2</ele><time>2026-04-12T17:32:40Z</time></trkpt><trkpt lat="38.28131277792339" lon="15.800346865066274"><ele>31.799999999999997</ele><time>2026-04-12T17:32:41Z</time></trkpt><trkpt lat="38.28126642074728" lon="15.80021410389812"><ele>30.4</ele><time>2026-04-12T17:32:42Z</time></trkpt><trkpt lat="38.28121280427143" lon="15.800088941477672"><ele>29.0</ele><time>2026-04-12T17:32:43Z</time></trkpt><trkpt lat="38.28117170926958" lon="15.799973249799656"><ele>28.75</ele><time>2026-04-12T17:32:44Z</time></trkpt><trkpt lat="38.28113036259156" lon="15.799861427053825"><ele>28.5</ele><time>2026-04-12T17:32:45Z</time></trkpt><trkpt lat="38.28107901130084" lon="15.799736900344183"><ele>28.25</ele><time>2026-04-12T17:32:46Z</time></trkpt><trkpt lat="38.281014677786715" lon="15.799608412060863"><ele>28.0</ele><time>2026-04-12T17:32:47Z</time></trkpt><trkpt lat="38.280947407073114" lon="15.799463494935406"><ele>26.75</ele><time>2026-04-12T17:32:48Z</time></trkpt><trkpt lat="38.28088565321398" lon="15.799327815813928"><ele>25.5</ele><time>2026-04-12T17:32:49Z</time></trkpt><trkpt lat="38.280822887102524" lon="15.79919263500143"><ele>24.25</ele><time>2026-04-12T17:32:50Z</time></trkpt><trkpt lat="38.28075778373902" lon="15.799057972465002"><ele>23.0</ele><time>2026-04-12T17:32:51Z</time></trkpt><trkpt lat="38.280698824656" lon="15.798926940720891"><ele>23.0</ele><time>2026-04-12T17:32:52Z</time></trkpt><trkpt lat="38.28064415302736" lon="15.798781377506264"><ele>23.0</ele><time>2026-04-12T17:32:53Z</time></trkpt><trkpt lat="38.280583854348784" lon="15.79862967658454"><ele>23.0</ele><time>2026-04-12T17:32:54Z</time></trkpt><trkpt lat="38.280529097467955" lon="15.798484869753581"><ele>23.0</ele><time>2026-04-12T17:32:55Z</time></trkpt><trkpt lat="38.28047646491471" lon="15.798336707274977"><ele>28.0</ele><time>2026-04-12T17:32:56Z</time></trkpt><trkpt lat="38.280422270437406" lon="15.798188823479459"><ele>33.0</ele><time>2026-04-12T17:32:57Z</time></trkpt><trkpt lat="38.28036754098323" lon="15.798041895300548"><ele>38.0</ele><time>2026-04-12T17:32:58Z</time></trkpt><trkpt lat="38.28030933345806" lon="15.797891499646385"><ele>43.0</ele><time>2026-04-12T17:32:59Z</time></trkpt><trkpt lat="38.28025145504095" lon="15.797739303540288"><ele>43.0</ele><time>2026-04-12T17:33:00Z</time></trkpt><trkpt lat="38.28019186436881" lon="15.797586732844914"><ele>43.0</ele><time>2026-04-12T17:33:01Z</time></trkpt><trkpt lat="38.28014106128545" lon="15.797437480055287"><ele>43.0</ele><time>2026-04-12T17:33:02Z</time></trkpt><trkpt lat="38.28008609752344" lon="15.797287714371064"><ele>43.0</ele><time>2026-04-12T17:33:03Z</time></trkpt><trkpt lat="38.280035979952686" lon="15.797141550116198"><ele>43.0</ele><time>2026-04-12T17:33:04Z</time></trkpt><trkpt lat="38.279974176369265" lon="15.796995221042181"><ele>43.0</ele><time>2026-04-12T17:33:05Z</time></trkpt><trkpt lat="38.27991863259571" lon="15.796845860520921"><ele>43.0</ele><time>2026-04-12T17:33:06Z</time></trkpt><trkpt lat="38.279865951690574" lon="15.796685387129052"><ele>43.0</ele><time>2026-04-12T17:33:07Z</time></trkpt><trkpt lat="38.27981513425151" lon="15.79652362750247"><ele>38.25</ele><time>2026-04-12T17:33:08Z</time></trkpt><trkpt lat="38.27976711655879" lon="15.79635352281395"><ele>33.5</ele><time>2026-04-12T17:33:09Z</time></trkpt><trkpt lat="38.279725359382034" lon="15.796173946879914"><ele>28.75</ele><time>2026-04-12T17:33:10Z</time></trkpt><trkpt lat="38.27969676864974" lon="15.795983885116254"><ele>24.0</ele><time>2026-04-12T17:33:11Z</time></trkpt><trkpt lat="38.279667602650065" lon="15.79580602357881"><ele>36.25</ele><time>2026-04-12T17:33:12Z</time></trkpt><trkpt lat="38.27964733269041" lon="15.795627243624772"><ele>48.5</ele><time>2026-04-12T17:33:13Z</time></trkpt><trkpt lat="38.27963217063212" lon="15.795448014654033"><ele>60.75</ele><time>2026-04-12T17:33:14Z</time></trkpt><trkpt lat="38.27961878294982" lon="15.795270137746607"><ele>73.0</ele><time>2026-04-12T17:33:15Z</time></trkpt><trkpt lat="38.279601193286545" lon="15.795088757196423"><ele>73.0</ele><time>2026-04-12T17:33:16Z</time></trkpt><trkpt lat="38.27958222131286" lon="15.794917029244669"><ele>73.0</ele><time>2026-04-12T17:33:17Z</time></trkpt><trkpt lat="38.279563828934116" lon="15.79476352859804"><ele>73.0</ele><time>2026-04-12T17:33:18Z</time></trkpt><trkpt lat="38.279547071744126" lon="15.794588377380643"><ele>73.0</ele><time>2026-04-12T17:33:19Z</time></trkpt><trkpt lat="38.279511482315286" lon="15.794425373545833"><ele>65.0</ele><time>2026-04-12T17:33:20Z</time></trkpt><trkpt lat="38.279473756830406" lon="15.794252394557633"><ele>57.0</ele><time>2026-04-12T17:33:21Z</time></trkpt><trkpt lat="38.27941564807168" lon="15.794085745188465"><ele>49.0</ele><time>2026-04-12T17:33:22Z</time></trkpt><trkpt lat="38.27935458598372" lon="15.793923350538028"><ele>41.0</ele><time>2026-04-12T17:33:23Z</time></trkpt><trkpt lat="38.27929710162585" lon="15.79375090463443"><ele>41.0</ele><time>2026-04-12T17:33:24Z</time></trkpt><trkpt lat="38.27923684235454" lon="15.793570511314794"><ele>41.0</ele><time>2026-04-12T17:33:25Z</time></trkpt><trkpt lat="38.279174444380246" lon="15.793386651434083"><ele>41.0</ele><time>2026-04-12T17:33:26Z</time></trkpt><trkpt lat="38.27911485064141" lon="15.79320105673688"><ele>37.0</ele><time>2026-04-12T17:33:27Z</time></trkpt><trkpt lat="38.279072899249776" lon="15.793006212155186"><ele>33.0</ele><time>2026-04-12T17:33:28Z</time></trkpt><trkpt lat="38.27905849562531" lon="15.79281659792707"><ele>29.0</ele><time>2026-04-12T17:33:29Z</time></trkpt><trkpt lat="38.27905758216854" lon="15.792627316568154"><ele>24.0</ele><time>2026-04-12T17:33:30Z</time></trkpt><trkpt lat="38.279057030657995" lon="15.792436090380807"><ele>19.0</ele><time>2026-04-12T17:33:31Z</time></trkpt><trkpt lat="38.279058552337176" lon="15.792241854221695"><ele>14.0</ele><time>2026-04-12T17:33:32Z</time></trkpt><trkpt lat="38.27905657039514" lon="15.7920410273672"><ele>14.0</ele><time>2026-04-12T17:33:33Z</time></trkpt><trkpt lat="38.279050433739606" lon="15.791841558762728"><ele>14.0</ele><time>2026-04-12T17:33:34Z</time></trkpt><trkpt lat="38.279035887153846" lon="15.791650918127099"><ele>14.0</ele><time>2026-04-12T17:33:35Z</time></trkpt><trkpt lat="38.27902616192226" lon="15.791463339633582"><ele>15.0</ele><time>2026-04-12T17:33:36Z</time></trkpt><trkpt lat="38.27900278168158" lon="15.791283651627705"><ele>16.0</ele><time>2026-04-12T17:33:37Z</time></trkpt><trkpt lat="38.278969519613526" lon="15.791115082063968"><ele>17.0</ele><time>2026-04-12T17:33:38Z</time></trkpt><trkpt lat="38.27892486300119" lon="15.79096952904689"><ele>18.0</ele><time>2026-04-12T17:33:39Z</time></trkpt><trkpt lat="38.27885203651024" lon="15.790815380979643"><ele>26.0</ele><time>2026-04-12T17:33:40Z</time></trkpt><trkpt lat="38.27877127674799" lon="15.790661841699656"><ele>34.0</ele><time>2026-04-12T17:33:41Z</time></trkpt><trkpt lat="38.278656993880794" lon="15.790507275326576"><ele>42.0</ele><time>2026-04-12T17:33:42Z</time></trkpt><trkpt lat="38.27854049741095" lon="15.790364757095196"><ele>42.0</ele><time>2026-04-12T17:33:43Z</time></trkpt><trkpt lat="38.27842047942285" lon="15.79022780210176"><ele>42.0</ele><time>2026-04-12T17:33:44Z</time></trkpt><trkpt lat="38.278301938270864" lon="15.790082808061594"><ele>42.0</ele><time>2026-04-12T17:33:45Z</time></trkpt><trkpt lat="38.2781712202652" lon="15.789931919880125"><ele>49.0</ele><time>2026-04-12T17:33:46Z</time></trkpt><trkpt lat="38.27803665956138" lon="15.789772838503312"><ele>56.0</ele><time>2026-04-12T17:33:47Z</time></trkpt><trkpt lat="38.277893264550315" lon="15.789612061614061"><ele>63.0</ele><time>2026-04-12T17:33:48Z</time></trkpt><trkpt lat="38.27776490911802" lon="15.78943872026876"><ele>49.0</ele><time>2026-04-12T17:33:49Z</time></trkpt><trkpt lat="38.27763081211918" lon="15.789282576197786"><ele>35.0</ele><time>2026-04-12T17:33:50Z</time></trkpt><trkpt lat="38.27750201145339" lon="15.78913259919986"><ele>21.0</ele><time>2026-04-12T17:33:51Z</time></trkpt><trkpt lat="38.27737810716596" lon="15.788987664978217"><ele>38.0</ele><time>2026-04-12T17:33:52Z</time></trkpt><trkpt lat="38.27726238723338" lon="15.788851301072949"><ele>55.0</ele><time>2026-04-12T17:33:53Z</time></trkpt><trkpt lat="38.27713934699498" lon="15.788735102643482"><ele>72.0</ele><time>2026-04-12T17:33:54Z</time></trkpt><trkpt lat="38.27704368750728" lon="15.788593898386969"><ele>64.25</ele><time>2026-04-12T17:33:55Z</time></trkpt><trkpt lat="38.27694503731136" lon="15.788476159074587"><ele>56.5</ele><time>2026-04-12T17:33:56Z</time></trkpt><trkpt lat="38.27684457954626" lon="15.788356262385383"><ele>48.75</ele><time>2026-04-12T17:33:57Z</time></trkpt><trkpt lat="38.276739525958895" lon="15.788260058490474"><ele>41.0</ele><time>2026-04-12T17:33:58Z</time></trkpt><trkpt lat="38.27666013688289" lon="15.788133364567196"><ele>41.0</ele><time>2026-04-12T17:33:59Z</time></trkpt><trkpt lat="38.27659273752508" lon="15.788026960310136"><ele>41.0</ele><time>2026-04-12T17:34:00Z</time></trkpt><trkpt lat="38.27653187896763" lon="15.787904145537873"><ele>41.0</ele><time>2026-04-12T17:34:01Z</time></trkpt><trkpt lat="38.27646151080243" lon="15.78775638524032"><ele>41.0</ele><time>2026-04-12T17:34:02Z</time></trkpt><trkpt lat="38.276385174382185" lon="15.787591133365801"><ele>48.5</ele><time>2026-04-12T17:34:03Z</time></trkpt><trkpt lat="38.27630868122212" lon="15.787424178520988"><ele>56.0</ele><time>2026-04-12T17:34:04Z</time></trkpt><trkpt lat="38.276235241762144" lon="15.787266330412145"><ele>63.5</ele><time>2026-04-12T17:34:05Z</time></trkpt><trkpt lat="38.276168854862455" lon="15.787122156976697"><ele>71.0</ele><time>2026-04-12T17:34:06Z</time></trkpt><trkpt lat="38.27610417551673" lon="15.786983298328643"><ele>71.0</ele><time>2026-04-12T17:34:07Z</time></trkpt><trkpt lat="38.27603860633875" lon="15.7868455063191"><ele>71.0</ele><time>2026-04-12T17:34:08Z</time></trkpt><trkpt lat="38.27596330911969" lon="15.786704874703847"><ele>71.0</ele><time>2026-04-12T17:34:09Z</time></trkpt><trkpt lat="38.275880411402596" lon="15.786577497243858"><ele>71.0</ele><time>2026-04-12T17:34:10Z</time></trkpt><trkpt lat="38.275780640129895" lon="15.786479246007415"><ele>76.25</ele><time>2026-04-12T17:34:11Z</time></trkpt><trkpt lat="38.27569230217086" lon="15.786383055041759"><ele>81.5</ele><time>2026-04-12T17:34:12Z</time></trkpt><trkpt lat="38.275602311569486" lon="15.786301279173781"><ele>86.75</ele><time>2026-04-12T17:34:13Z</time></trkpt><trkpt lat="38.27551354008218" lon="15.786212283978095"><ele>92.0</ele><time>2026-04-12T17:34:14Z</time></trkpt><trkpt lat="38.27542421820932" lon="15.786108704721421"><ele>80.5</ele><time>2026-04-12T17:34:15Z</time></trkpt><trkpt lat="38.27533490884475" lon="15.785979806801235"><ele>69.0</ele><time>2026-04-12T17:34:16Z</time></trkpt><trkpt lat="38.2752317475361" lon="15.785880464861298"><ele>57.5</ele><time>2026-04-12T17:34:17Z</time></trkpt><trkpt lat="38.27512234874326" lon="15.785731896536758"><ele>46.0</ele><time>2026-04-12T17:34:18Z</time></trkpt><trkpt lat="38.275023838016985" lon="15.785648984973037"><ele>46.0</ele><time>2026-04-12T17:34:19Z</time></trkpt><trkpt lat="38.274913430872374" lon="15.785538718659202"><ele>46.0</ele><time>2026-04-12T17:34:20Z</time></trkpt><trkpt lat="38.27481140081491" lon="15.785437454740244"><ele>46.0</ele><time>2026-04-12T17:34:21Z</time></trkpt><trkpt lat="38.2747152920032" lon="15.785344765415783"><ele>46.0</ele><time>2026-04-12T17:34:22Z</time></trkpt><trkpt lat="38.2746466097575" lon="15.785229590632103"><ele>49.25</ele><time>2026-04-12T17:34:23Z</time></trkpt><trkpt lat="38.27458133084702" lon="15.785114975021738"><ele>52.5</ele><time>2026-04-12T17:34:24Z</time></trkpt><trkpt lat="38.27451980834234" lon="15.784989694046637"><ele>55.75</ele><time>2026-04-12T17:34:25Z</time></trkpt><trkpt lat="38.27444941005499" lon="15.784856245880965"><ele>59.0</ele><time>2026-04-12T17:34:26Z</time></trkpt><trkpt lat="38.27435381759224" lon="15.78473496261381"><ele>59.0</ele><time>2026-04-12T17:34:27Z</time></trkpt><trkpt lat="38.274260750253596" lon="15.784612874060427"><ele>59.0</ele><time>2026-04-12T17:34:28Z</time></trkpt><trkpt lat="38.27416665808292" lon="15.784487827029066"><ele>59.0</ele><time>2026-04-12T17:34:29Z</time></trkpt><trkpt lat="38.274073696609484" lon="15.784369419896949"><ele>59.0</ele><time>2026-04-12T17:34:30Z</time></trkpt><trkpt lat="38.273980469124915" lon="15.78424018541095"><ele>65.25</ele><time>2026-04-12T17:34:31Z</time></trkpt><trkpt lat="38.27388269142921" lon="15.784117993503866"><ele>71.5</ele><time>2026-04-12T17:34:32Z</time></trkpt><trkpt lat="38.27376525784838" lon="15.784023424916478"><ele>77.75</ele><time>2026-04-12T17:34:33Z</time></trkpt><trkpt lat="38.27365951043078" lon="15.78391645205491"><ele>84.0</ele><time>2026-04-12T17:34:34Z</time></trkpt><trkpt lat="38.2735553118441" lon="15.783818609372856"><ele>84.0</ele><time>2026-04-12T17:34:35Z</time></trkpt><trkpt lat="38.27348194381617" lon="15.783701492600873"><ele>84.0</ele><time>2026-04-12T17:34:36Z</time></trkpt><trkpt lat="38.273409662865205" lon="15.783584893286031"><ele>84.0</ele><time>2026-04-12T17:34:37Z</time></trkpt><trkpt lat="38.273336787095126" lon="15.783461973537582"><ele>84.0</ele><time>2026-04-12T17:34:38Z</time></trkpt><trkpt lat="38.27326463481495" lon="15.783310654675583"><ele>85.75</ele><time>2026-04-12T17:34:39Z</time></trkpt><trkpt lat="38.27319034782043" lon="15.78316908634603"><ele>87.5</ele><time>2026-04-12T17:34:40Z</time></trkpt><trkpt lat="38.273100231710394" lon="15.783040057838303"><ele>89.25</ele><time>2026-04-12T17:34:41Z</time></trkpt><trkpt lat="38.27298693879118" lon="15.782929780039193"><ele>91.0</ele><time>2026-04-12T17:34:42Z</time></trkpt><trkpt lat="38.272887789613726" lon="15.78282696310882"><ele>91.0</ele><time>2026-04-12T17:34:43Z</time></trkpt><trkpt lat="38.272815972688456" lon="15.782731948333549"><ele>91.0</ele><time>2026-04-12T17:34:44Z</time></trkpt><trkpt lat="38.27277432668398" lon="15.782597828844821"><ele>91.0</ele><time>2026-04-12T17:34:45Z</time></trkpt><trkpt lat="38.27271458048508" lon="15.782461651619677"><ele>91.0</ele><time>2026-04-12T17:34:46Z</time></trkpt><trkpt lat="38.27264034964298" lon="15.782373962707117"><ele>91.0</ele><time>2026-04-12T17:34:47Z</time></trkpt><trkpt lat="38.27254217935055" lon="15.78227020648899"><ele>82.25</ele><time>2026-04-12T17:34:48Z</time></trkpt><trkpt lat="38.27245196584213" lon="15.782180599013508"><ele>73.5</ele><time>2026-04-12T17:34:49Z</time></trkpt><trkpt lat="38.27236875587079" lon="15.782062111463718"><ele>64.75</ele><time>2026-04-12T17:34:50Z</time></trkpt><trkpt lat="38.27229786370057" lon="15.781944121751382"><ele>56.0</ele><time>2026-04-12T17:34:51Z</time></trkpt><trkpt lat="38.27222722462974" lon="15.781845529354788"><ele>54.0</ele><time>2026-04-12T17:34:52Z</time></trkpt><trkpt lat="38.27214522553811" lon="15.781774528069954"><ele>51.99999999999999</ele><time>2026-04-12T17:34:53Z</time></trkpt><trkpt lat="38.27204557379281" lon="15.781721339872782"><ele>50.0</ele><time>2026-04-12T17:34:54Z</time></trkpt><trkpt lat="38.27194350359383" lon="15.781676814892421"><ele>48.0</ele><time>2026-04-12T17:34:55Z</time></trkpt><trkpt lat="38.27184084260605" lon="15.781646072278273"><ele>46.0</ele><time>2026-04-12T17:34:56Z</time></trkpt><trkpt lat="38.27175902876779" lon="15.781617388279725"><ele>46.0</ele><time>2026-04-12T17:34:57Z</time></trkpt><trkpt lat="38.27168468660216" lon="15.781612684729447"><ele>46.0</ele><time>2026-04-12T17:34:58Z</time></trkpt><trkpt lat="38.27161384341296" lon="15.781491972206947"><ele>46.0</ele><time>2026-04-12T17:35:00Z</time></trkpt><trkpt lat="38.27161832604686" lon="15.781385086512111"><ele>46.0</ele><time>2026-04-12T17:35:01Z</time></trkpt><trkpt lat="38.27161313294959" lon="15.781284457717847"><ele>46.0</ele><time>2026-04-12T17:35:02Z</time></trkpt><trkpt lat="38.271593867503206" lon="15.781139219192102"><ele>46.0</ele><time>2026-04-12T17:35:04Z</time></trkpt><trkpt lat="38.271544277200896" lon="15.781058604485226"><ele>46.0</ele><time>2026-04-12T17:35:05Z</time></trkpt><trkpt lat="38.27151358079044" lon="15.780976602109286"><ele>46.0</ele><time>2026-04-12T17:35:06Z</time></trkpt><trkpt lat="38.271471849317344" lon="15.780894572400404"><ele>46.0</ele><time>2026-04-12T17:35:07Z</time></trkpt><trkpt lat="38.271425744169086" lon="15.780796027207057"><ele>46.0</ele><time>2026-04-12T17:35:08Z</time></trkpt><trkpt lat="38.27137740576864" lon="15.780685048507076"><ele>46.0</ele><time>2026-04-12T17:35:09Z</time></trkpt><trkpt lat="38.27132695010156" lon="15.780577607481268"><ele>47.8</ele><time>2026-04-12T17:35:10Z</time></trkpt><trkpt lat="38.27126868379614" lon="15.780468362304214"><ele>49.599999999999994</ele><time>2026-04-12T17:35:11Z</time></trkpt><trkpt lat="38.271222218787784" lon="15.78036391751656"><ele>51.4</ele><time>2026-04-12T17:35:12Z</time></trkpt><trkpt lat="38.27115203332178" lon="15.78028244362423"><ele>53.2</ele><time>2026-04-12T17:35:13Z</time></trkpt><trkpt lat="38.27108649688384" lon="15.78019722600006"><ele>55.0</ele><time>2026-04-12T17:35:14Z</time></trkpt><trkpt lat="38.2710152149715" lon="15.780110485186436"><ele>50.83333333333333</ele><time>2026-04-12T17:35:15Z</time></trkpt><trkpt lat="38.27094970845149" lon="15.78001501245682"><ele>46.666666666666664</ele><time>2026-04-12T17:35:16Z</time></trkpt><trkpt lat="38.270894620809116" lon="15.77991145167028"><ele>42.5</ele><time>2026-04-12T17:35:17Z</time></trkpt><trkpt lat="38.27084958587862" lon="15.779817499752431"><ele>38.33333333333333</ele><time>2026-04-12T17:35:18Z</time></trkpt><trkpt lat="38.270803533030424" lon="15.779742794043928"><ele>34.166666666666664</ele><time>2026-04-12T17:35:19Z</time></trkpt><trkpt lat="38.27076006182488" lon="15.779677750235564"><ele>30.0</ele><time>2026-04-12T17:35:20Z</time></trkpt><trkpt lat="38.27069431745934" lon="15.77955616290739"><ele>30.0</ele><time>2026-04-12T17:35:22Z</time></trkpt><trkpt lat="38.27061985138737" lon="15.779434094808533"><ele>30.0</ele><time>2026-04-12T17:35:24Z</time></trkpt><trkpt lat="38.2705478379591" lon="15.779304036809673"><ele>30.0</ele><time>2026-04-12T17:35:26Z</time></trkpt><trkpt lat="38.27050803783919" lon="15.779236900669394"><ele>30.0</ele><time>2026-04-12T17:35:27Z</time></trkpt><trkpt lat="38.2704443794801" lon="15.77912364207583"><ele>30.0</ele><time>2026-04-12T17:35:29Z</time></trkpt><trkpt lat="38.27039971788219" lon="15.779034384433926"><ele>40.6</ele><time>2026-04-12T17:35:31Z</time></trkpt><trkpt lat="38.270353896673754" lon="15.77893998166252"><ele>51.2</ele><time>2026-04-12T17:35:34Z</time></trkpt><trkpt lat="38.2702973597719" lon="15.778839355888762"><ele>61.800000000000004</ele><time>2026-04-12T17:35:37Z</time></trkpt><trkpt lat="38.27026979675885" lon="15.778759046477441"><ele>72.4</ele><time>2026-04-12T17:35:39Z</time></trkpt><trkpt lat="38.270212009021115" lon="15.778616048069004"><ele>83.0</ele><time>2026-04-12T17:35:41Z</time></trkpt><trkpt lat="38.27017663155879" lon="15.778518707519815"><ele>76.0</ele><time>2026-04-12T17:35:42Z</time></trkpt><trkpt lat="38.27013655553767" lon="15.778404787497808"><ele>69.0</ele><time>2026-04-12T17:35:43Z</time></trkpt><trkpt lat="38.270090860915346" lon="15.778269592180724"><ele>62.0</ele><time>2026-04-12T17:35:44Z</time></trkpt><trkpt lat="38.270040851209245" lon="15.778120965770592"><ele>55.0</ele><time>2026-04-12T17:35:45Z</time></trkpt><trkpt lat="38.270003387763786" lon="15.778009714694962"><ele>48.0</ele><time>2026-04-12T17:35:46Z</time></trkpt><trkpt lat="38.26996438964492" lon="15.77793278555004"><ele>48.0</ele><time>2026-04-12T17:35:47Z</time></trkpt><trkpt lat="38.269924691364636" lon="15.777831736798287"><ele>48.0</ele><time>2026-04-12T17:35:48Z</time></trkpt><trkpt lat="38.269891267152026" lon="15.77771544110421"><ele>48.0</ele><time>2026-04-12T17:35:49Z</time></trkpt><trkpt lat="38.26983511532832" lon="15.777593355215858"><ele>48.0</ele><time>2026-04-12T17:35:50Z</time></trkpt><trkpt lat="38.26977347542888" lon="15.777465386239799"><ele>48.0</ele><time>2026-04-12T17:35:51Z</time></trkpt><trkpt lat="38.26970092170758" lon="15.777342596628282"><ele>46.5</ele><time>2026-04-12T17:35:52Z</time></trkpt><trkpt lat="38.26962861489807" lon="15.777228270131612"><ele>45.0</ele><time>2026-04-12T17:35:53Z</time></trkpt><trkpt lat="38.26955664796898" lon="15.777096895845105"><ele>43.5</ele><time>2026-04-12T17:35:54Z</time></trkpt><trkpt lat="38.269479233063116" lon="15.776962435281654"><ele>42.0</ele><time>2026-04-12T17:35:55Z</time></trkpt><trkpt lat="38.26938387502858" lon="15.776834916914554"><ele>42.0</ele><time>2026-04-12T17:35:56Z</time></trkpt><trkpt lat="38.269295716018654" lon="15.776722071260195"><ele>42.0</ele><time>2026-04-12T17:35:57Z</time></trkpt><trkpt lat="38.269211279418045" lon="15.776610421373112"><ele>42.0</ele><time>2026-04-12T17:35:58Z</time></trkpt><trkpt lat="38.26912117793584" lon="15.776497631486164"><ele>42.0</ele><time>2026-04-12T17:35:59Z</time></trkpt><trkpt lat="38.26903285163594" lon="15.776380954426386"><ele>42.0</ele><time>2026-04-12T17:36:00Z</time></trkpt><trkpt lat="38.26894508222773" lon="15.776272968425705"><ele>42.0</ele><time>2026-04-12T17:36:01Z</time></trkpt><trkpt lat="38.26886284353404" lon="15.7761480975708"><ele>42.0</ele><time>2026-04-12T17:36:02Z</time></trkpt><trkpt lat="38.268762880476764" lon="15.776046906567142"><ele>42.0</ele><time>2026-04-12T17:36:03Z</time></trkpt><trkpt lat="38.2686766917062" lon="15.775949130950618"><ele>43.25</ele><time>2026-04-12T17:36:04Z</time></trkpt><trkpt lat="38.268584168785935" lon="15.77585444580121"><ele>44.5</ele><time>2026-04-12T17:36:05Z</time></trkpt><trkpt lat="38.26849677904172" lon="15.775752403132664"><ele>45.75</ele><time>2026-04-12T17:36:06Z</time></trkpt><trkpt lat="38.26841339875213" lon="15.775641497346017"><ele>47.0</ele><time>2026-04-12T17:36:07Z</time></trkpt><trkpt lat="38.26832725980945" lon="15.775529354353667"><ele>47.0</ele><time>2026-04-12T17:36:08Z</time></trkpt><trkpt lat="38.26825747374272" lon="15.775397673212435"><ele>47.0</ele><time>2026-04-12T17:36:09Z</time></trkpt><trkpt lat="38.268192519760085" lon="15.775253781700188"><ele>47.0</ele><time>2026-04-12T17:36:10Z</time></trkpt><trkpt lat="38.26813434508655" lon="15.775099297442935"><ele>47.0</ele><time>2026-04-12T17:36:11Z</time></trkpt><trkpt lat="38.26809235114456" lon="15.774936929207307"><ele>58.5</ele><time>2026-04-12T17:36:12Z</time></trkpt><trkpt lat="38.268068649869086" lon="15.774773525956764"><ele>70.0</ele><time>2026-04-12T17:36:13Z</time></trkpt><trkpt lat="38.2680496568023" lon="15.77460670877952"><ele>81.5</ele><time>2026-04-12T17:36:14Z</time></trkpt><trkpt lat="38.268040978624256" lon="15.77443916967174"><ele>93.0</ele><time>2026-04-12T17:36:15Z</time></trkpt><trkpt lat="38.26802797826485" lon="15.774278315891559"><ele>93.0</ele><time>2026-04-12T17:36:16Z</time></trkpt><trkpt lat="38.26802605704896" lon="15.774118448519452"><ele>93.0</ele><time>2026-04-12T17:36:17Z</time></trkpt><trkpt lat="38.26803731781667" lon="15.773961235570132"><ele>93.0</ele><time>2026-04-12T17:36:18Z</time></trkpt><trkpt lat="38.26804897343187" lon="15.773806580063047"><ele>93.0</ele><time>2026-04-12T17:36:19Z</time></trkpt><trkpt lat="38.26804587327842" lon="15.77364520596072"><ele>88.0</ele><time>2026-04-12T17:36:20Z</time></trkpt><trkpt lat="38.26801440123341" lon="15.773477484661653"><ele>83.0</ele><time>2026-04-12T17:36:21Z</time></trkpt><trkpt lat="38.26796246025647" lon="15.77331119733488"><ele>78.0</ele><time>2026-04-12T17:36:22Z</time></trkpt><trkpt lat="38.26788356999342" lon="15.773148203361057"><ele>73.0</ele><time>2026-04-12T17:36:23Z</time></trkpt><trkpt lat="38.26778085914455" lon="15.77295989482611"><ele>73.0</ele><time>2026-04-12T17:36:24Z</time></trkpt><trkpt lat="38.267658913219094" lon="15.77274179009719"><ele>73.0</ele><time>2026-04-12T17:36:25Z</time></trkpt><trkpt lat="38.267533007422" lon="15.772495973121611"><ele>73.0</ele><time>2026-04-12T17:36:26Z</time></trkpt><trkpt lat="38.2674130113148" lon="15.772277179147759"><ele>70.66666666666666</ele><time>2026-04-12T17:36:27Z</time></trkpt><trkpt lat="38.267318051949545" lon="15.772077691760888"><ele>68.33333333333333</ele><time>2026-04-12T17:36:28Z</time></trkpt><trkpt lat="38.267225472301725" lon="15.771907760639182"><ele>66.0</ele><time>2026-04-12T17:36:29Z</time></trkpt><trkpt lat="38.26712772701261" lon="15.77175257233589"><ele>56.5</ele><time>2026-04-12T17:36:30Z</time></trkpt><trkpt lat="38.26703034524113" lon="15.771608302011659"><ele>47.0</ele><time>2026-04-12T17:36:31Z</time></trkpt><trkpt lat="38.26692596694707" lon="15.771485722836704"><ele>37.5</ele><time>2026-04-12T17:36:32Z</time></trkpt><trkpt lat="38.26682469798715" lon="15.771386509268172"><ele>28.0</ele><time>2026-04-12T17:36:33Z</time></trkpt><trkpt lat="38.266724709186555" lon="15.771300050605559"><ele>28.0</ele><time>2026-04-12T17:36:34Z</time></trkpt><trkpt lat="38.26664597908392" lon="15.77120570615125"><ele>27.999999999999996</ele><time>2026-04-12T17:36:35Z</time></trkpt><trkpt lat="38.26662020828721" lon="15.771077280032047"><ele>27.999999999999996</ele><time>2026-04-12T17:36:36Z</time></trkpt><trkpt lat="38.26656404834814" lon="15.770958290130013"><ele>28.0</ele><time>2026-04-12T17:36:37Z</time></trkpt><trkpt lat="38.26651756133635" lon="15.77080845148566"><ele>28.0</ele><time>2026-04-12T17:36:38Z</time></trkpt><trkpt lat="38.26647110612959" lon="15.770642942799089"><ele>34.75</ele><time>2026-04-12T17:36:39Z</time></trkpt><trkpt lat="38.26641150510114" lon="15.770482670168871"><ele>41.5</ele><time>2026-04-12T17:36:40Z</time></trkpt><trkpt lat="38.26634953936658" lon="15.770315260763892"><ele>48.25</ele><time>2026-04-12T17:36:41Z</time></trkpt><trkpt lat="38.266281168373744" lon="15.770145056308882"><ele>55.0</ele><time>2026-04-12T17:36:42Z</time></trkpt><trkpt lat="38.266222643754396" lon="15.769982167302098"><ele>55.0</ele><time>2026-04-12T17:36:43Z</time></trkpt><trkpt lat="38.266169856445075" lon="15.769813123051765"><ele>55.0</ele><time>2026-04-12T17:36:44Z</time></trkpt><trkpt lat="38.2661158513892" lon="15.769642047928082"><ele>55.0</ele><time>2026-04-12T17:36:45Z</time></trkpt><trkpt lat="38.26605950282045" lon="15.769462694955587"><ele>55.0</ele><time>2026-04-12T17:36:46Z</time></trkpt><trkpt lat="38.266006988409565" lon="15.769285187891448"><ele>49.666666666666664</ele><time>2026-04-12T17:36:47Z</time></trkpt><trkpt lat="38.265954158275406" lon="15.769098876870615"><ele>44.33333333333333</ele><time>2026-04-12T17:36:48Z</time></trkpt><trkpt lat="38.26590235768163" lon="15.768922482985333"><ele>39.0</ele><time>2026-04-12T17:36:49Z</time></trkpt><trkpt lat="38.26584514980554" lon="15.768746308096711"><ele>39.0</ele><time>2026-04-12T17:36:50Z</time></trkpt><trkpt lat="38.26579462221579" lon="15.768587691393934"><ele>39.0</ele><time>2026-04-12T17:36:51Z</time></trkpt><trkpt lat="38.265740718271275" lon="15.768432557970984"><ele>39.0</ele><time>2026-04-12T17:36:52Z</time></trkpt><trkpt lat="38.26566879466597" lon="15.768284405654889"><ele>39.0</ele><time>2026-04-12T17:36:53Z</time></trkpt><trkpt lat="38.26557974813527" lon="15.768135319192924"><ele>50.33333333333333</ele><time>2026-04-12T17:36:54Z</time></trkpt><trkpt lat="38.26547743848599" lon="15.767988132517834"><ele>61.666666666666664</ele><time>2026-04-12T17:36:55Z</time></trkpt><trkpt lat="38.26536468681266" lon="15.767837691879492"><ele>73.0</ele><time>2026-04-12T17:36:56Z</time></trkpt><trkpt lat="38.26525617084215" lon="15.767696426537437"><ele>61.33333333333333</ele><time>2026-04-12T17:36:57Z</time></trkpt><trkpt lat="38.26514783300567" lon="15.76755436918679"><ele>49.666666666666664</ele><time>2026-04-12T17:36:58Z</time></trkpt><trkpt lat="38.26503778463275" lon="15.767409564553175"><ele>38.0</ele><time>2026-04-12T17:36:59Z</time></trkpt><trkpt lat="38.264933264558096" lon="15.76726236859043"><ele>38.0</ele><time>2026-04-12T17:37:00Z</time></trkpt><trkpt lat="38.2648183225241" lon="15.767108550029024"><ele>38.0</ele><time>2026-04-12T17:37:01Z</time></trkpt><trkpt lat="38.26470458739449" lon="15.766953934639375"><ele>38.0</ele><time>2026-04-12T17:37:02Z</time></trkpt><trkpt lat="38.26459486500307" lon="15.76681142386587"><ele>41.666666666666664</ele><time>2026-04-12T17:37:03Z</time></trkpt><trkpt lat="38.26448515687444" lon="15.766668943877454"><ele>45.33333333333333</ele><time>2026-04-12T17:37:04Z</time></trkpt><trkpt lat="38.26437536076353" lon="15.76653795503069"><ele>49.0</ele><time>2026-04-12T17:37:05Z</time></trkpt><trkpt lat="38.26426601480436" lon="15.76640718141539"><ele>49.0</ele><time>2026-04-12T17:37:06Z</time></trkpt><trkpt lat="38.264165694990844" lon="15.76629483378632"><ele>49.0</ele><time>2026-04-12T17:37:07Z</time></trkpt><trkpt lat="38.26407089887866" lon="15.76617491176541"><ele>49.0</ele><time>2026-04-12T17:37:08Z</time></trkpt><trkpt lat="38.263986471477224" lon="15.766046412301588"><ele>49.0</ele><time>2026-04-12T17:37:09Z</time></trkpt><trkpt lat="38.26390421470503" lon="15.76591560671973"><ele>49.5</ele><time>2026-04-12T17:37:10Z</time></trkpt><trkpt lat="38.26382922665227" lon="15.765776006741552"><ele>50.0</ele><time>2026-04-12T17:37:11Z</time></trkpt><trkpt lat="38.26373020143383" lon="15.76565755676025"><ele>50.5</ele><time>2026-04-12T17:37:12Z</time></trkpt><trkpt lat="38.26364262146376" lon="15.76553873024884"><ele>51.0</ele><time>2026-04-12T17:37:13Z</time></trkpt><trkpt lat="38.26354211844962" lon="15.765442290456736"><ele>51.0</ele><time>2026-04-12T17:37:14Z</time></trkpt><trkpt lat="38.26345589623051" lon="15.765316260899157"><ele>51.0</ele><time>2026-04-12T17:37:15Z</time></trkpt><trkpt lat="38.263383898677674" lon="15.76517833029936"><ele>51.0</ele><time>2026-04-12T17:37:16Z</time></trkpt><trkpt lat="38.26332069276539" lon="15.765039910177038"><ele>51.0</ele><time>2026-04-12T17:37:17Z</time></trkpt><trkpt lat="38.263235975301" lon="15.764910345835107"><ele>57.66666666666667</ele><time>2026-04-12T17:37:18Z</time></trkpt><trkpt lat="38.263113666224946" lon="15.764785938384575"><ele>64.33333333333334</ele><time>2026-04-12T17:37:19Z</time></trkpt><trkpt lat="38.262981943333976" lon="15.764669817654177"><ele>71.0</ele><time>2026-04-12T17:37:20Z</time></trkpt><trkpt lat="38.26286807775193" lon="15.764540064912774"><ele>71.0</ele><time>2026-04-12T17:37:21Z</time></trkpt><trkpt lat="38.26276326724802" lon="15.764405545404593"><ele>71.0</ele><time>2026-04-12T17:37:22Z</time></trkpt><trkpt lat="38.262668079732464" lon="15.764276691468641"><ele>71.0</ele><time>2026-04-12T17:37:23Z</time></trkpt><trkpt lat="38.26258493292574" lon="15.764138282514942"><ele>71.0</ele><time>2026-04-12T17:37:24Z</time></trkpt><trkpt lat="38.26252394912811" lon="15.763991615009926"><ele>62.25</ele><time>2026-04-12T17:37:25Z</time></trkpt><trkpt lat="38.262463266649405" lon="15.763831431444302"><ele>53.5</ele><time>2026-04-12T17:37:26Z</time></trkpt><trkpt lat="38.262414827212744" lon="15.763690016064574"><ele>44.75</ele><time>2026-04-12T17:37:27Z</time></trkpt><trkpt lat="38.26235711973992" lon="15.763548225848302"><ele>36.0</ele><time>2026-04-12T17:37:28Z</time></trkpt><trkpt lat="38.26229080559866" lon="15.763412991783367"><ele>40.25</ele><time>2026-04-12T17:37:29Z</time></trkpt><trkpt lat="38.262209047987234" lon="15.763273655129412"><ele>44.5</ele><time>2026-04-12T17:37:30Z</time></trkpt><trkpt lat="38.26211496451327" lon="15.763148485223388"><ele>48.75</ele><time>2026-04-12T17:37:31Z</time></trkpt><trkpt lat="38.26200915287637" lon="15.763024886389958"><ele>53.0</ele><time>2026-04-12T17:37:32Z</time></trkpt><trkpt lat="38.26190964453188" lon="15.76291415784871"><ele>53.0</ele><time>2026-04-12T17:37:33Z</time></trkpt><trkpt lat="38.26181583685971" lon="15.76280762777538"><ele>53.0</ele><time>2026-04-12T17:37:34Z</time></trkpt><trkpt lat="38.26172194432593" lon="15.762687658453668"><ele>53.0</ele><time>2026-04-12T17:37:35Z</time></trkpt><trkpt lat="38.26164043253991" lon="15.762561306669479"><ele>53.0</ele><time>2026-04-12T17:37:36Z</time></trkpt><trkpt lat="38.26154707398112" lon="15.76242028677145"><ele>48.25</ele><time>2026-04-12T17:37:37Z</time></trkpt><trkpt lat="38.261471473929056" lon="15.762265795038605"><ele>43.5</ele><time>2026-04-12T17:37:38Z</time></trkpt><trkpt lat="38.26139682988364" lon="15.762113390699355"><ele>38.75</ele><time>2026-04-12T17:37:39Z</time></trkpt><trkpt lat="38.261322393109886" lon="15.761967455253812"><ele>34.0</ele><time>2026-04-12T17:37:40Z</time></trkpt><trkpt lat="38.26125198934645" lon="15.761838826530006"><ele>32.5</ele><time>2026-04-12T17:37:41Z</time></trkpt><trkpt lat="38.26117268904559" lon="15.761714442524786"><ele>31.0</ele><time>2026-04-12T17:37:42Z</time></trkpt><trkpt lat="38.261079890688386" lon="15.761597399257571"><ele>29.5</ele><time>2026-04-12T17:37:43Z</time></trkpt><trkpt lat="38.260964857775306" lon="15.761495099806945"><ele>28.0</ele><time>2026-04-12T17:37:44Z</time></trkpt><trkpt lat="38.26083710800322" lon="15.761403499359947"><ele>28.0</ele><time>2026-04-12T17:37:45Z</time></trkpt><trkpt lat="38.2607200303809" lon="15.761329513218673"><ele>27.999999999999996</ele><time>2026-04-12T17:37:46Z</time></trkpt><trkpt lat="38.26062308409444" lon="15.761259516391137"><ele>27.999999999999996</ele><time>2026-04-12T17:37:47Z</time></trkpt><trkpt lat="38.26054666318391" lon="15.761177640564387"><ele>28.0</ele><time>2026-04-12T17:37:48Z</time></trkpt><trkpt lat="38.26049860044639" lon="15.761067728520175"><ele>28.0</ele><time>2026-04-12T17:37:49Z</time></trkpt><trkpt lat="38.260461190444055" lon="15.760910510733437"><ele>35.75</ele><time>2026-04-12T17:37:50Z</time></trkpt><trkpt lat="38.26045031168363" lon="15.760764460640987"><ele>43.5</ele><time>2026-04-12T17:37:51Z</time></trkpt><trkpt lat="38.26044564429612" lon="15.760625451336995"><ele>51.25</ele><time>2026-04-12T17:37:52Z</time></trkpt><trkpt lat="38.26042393821076" lon="15.76047864214795"><ele>59.0</ele><time>2026-04-12T17:37:53Z</time></trkpt><trkpt lat="38.26037143208068" lon="15.76032314180847"><ele>54.5</ele><time>2026-04-12T17:37:54Z</time></trkpt><trkpt lat="38.26029663583523" lon="15.760166026197888"><ele>50.0</ele><time>2026-04-12T17:37:55Z</time></trkpt><trkpt lat="38.2602258941289" lon="15.760004725584235"><ele>45.5</ele><time>2026-04-12T17:37:56Z</time></trkpt><trkpt lat="38.26016108907082" lon="15.759858583166178"><ele>41.0</ele><time>2026-04-12T17:37:57Z</time></trkpt><trkpt lat="38.260105857668776" lon="15.759711856813992"><ele>41.0</ele><time>2026-04-12T17:37:58Z</time></trkpt><trkpt lat="38.26003754584599" lon="15.75955762500018"><ele>41.0</ele><time>2026-04-12T17:37:59Z</time></trkpt><trkpt lat="38.25997012877469" lon="15.759405325520307"><ele>41.0</ele><time>2026-04-12T17:38:00Z</time></trkpt><trkpt lat="38.25989221566302" lon="15.75925133047172"><ele>41.0</ele><time>2026-04-12T17:38:01Z</time></trkpt><trkpt lat="38.25980972771878" lon="15.759084595535688"><ele>49.0</ele><time>2026-04-12T17:38:02Z</time></trkpt><trkpt lat="38.259725501430935" lon="15.758920445422442"><ele>57.0</ele><time>2026-04-12T17:38:03Z</time></trkpt><trkpt lat="38.25963835057271" lon="15.758749483106405"><ele>65.0</ele><time>2026-04-12T17:38:04Z</time></trkpt><trkpt lat="38.25955011224395" lon="15.7585765704019"><ele>55.66666666666667</ele><time>2026-04-12T17:38:05Z</time></trkpt><trkpt lat="38.25945740020211" lon="15.758397641282553"><ele>46.333333333333336</ele><time>2026-04-12T17:38:06Z</time></trkpt><trkpt lat="38.25936261848695" lon="15.75821437032171"><ele>37.0</ele><time>2026-04-12T17:38:07Z</time></trkpt><trkpt lat="38.25926987317769" lon="15.758031920235878"><ele>37.0</ele><time>2026-04-12T17:38:08Z</time></trkpt><trkpt lat="38.259179358591716" lon="15.757843397348056"><ele>37.0</ele><time>2026-04-12T17:38:09Z</time></trkpt><trkpt lat="38.25909840630743" lon="15.757650532770924"><ele>37.0</ele><time>2026-04-12T17:38:10Z</time></trkpt><trkpt lat="38.25901180911345" lon="15.75745979766217"><ele>45.333333333333336</ele><time>2026-04-12T17:38:11Z</time></trkpt><trkpt lat="38.25893009691619" lon="15.757269069045012"><ele>53.66666666666667</ele><time>2026-04-12T17:38:12Z</time></trkpt><trkpt lat="38.258846190768956" lon="15.75708318001828"><ele>62.0</ele><time>2026-04-12T17:38:13Z</time></trkpt><trkpt lat="38.25875973862642" lon="15.75689037501618"><ele>55.333333333333336</ele><time>2026-04-12T17:38:14Z</time></trkpt><trkpt lat="38.258676085662856" lon="15.756698999796775"><ele>48.66666666666667</ele><time>2026-04-12T17:38:15Z</time></trkpt><trkpt lat="38.25859047863826" lon="15.756508233370552"><ele>42.0</ele><time>2026-04-12T17:38:16Z</time></trkpt><trkpt lat="38.25850432516892" lon="15.756318732775336"><ele>42.0</ele><time>2026-04-12T17:38:17Z</time></trkpt><trkpt lat="38.258416660189205" lon="15.756123579735512"><ele>42.0</ele><time>2026-04-12T17:38:18Z</time></trkpt><trkpt lat="38.25832419541677" lon="15.755923855053165"><ele>42.0</ele><time>2026-04-12T17:38:19Z</time></trkpt><trkpt lat="38.25824545009127" lon="15.755733173432613"><ele>45.0</ele><time>2026-04-12T17:38:20Z</time></trkpt><trkpt lat="38.25816224846962" lon="15.755535904974105"><ele>48.0</ele><time>2026-04-12T17:38:21Z</time></trkpt><trkpt lat="38.25807617563168" lon="15.7553374724393"><ele>51.0</ele><time>2026-04-12T17:38:22Z</time></trkpt><trkpt lat="38.25798977015303" lon="15.755147034484429"><ele>51.0</ele><time>2026-04-12T17:38:23Z</time></trkpt><trkpt lat="38.25789536180709" lon="15.754950158767"><ele>51.0</ele><time>2026-04-12T17:38:24Z</time></trkpt><trkpt lat="38.25781434595627" lon="15.75475120050434"><ele>51.0</ele><time>2026-04-12T17:38:25Z</time></trkpt><trkpt lat="38.257725091084424" lon="15.754553964135745"><ele>43.666666666666664</ele><time>2026-04-12T17:38:26Z</time></trkpt><trkpt lat="38.25764044038828" lon="15.754330336365328"><ele>36.33333333333333</ele><time>2026-04-12T17:38:27Z</time></trkpt><trkpt lat="38.25756029230596" lon="15.754135877277406"><ele>29.0</ele><time>2026-04-12T17:38:28Z</time></trkpt><trkpt lat="38.25748310280758" lon="15.75394199970474"><ele>29.0</ele><time>2026-04-12T17:38:29Z</time></trkpt><trkpt lat="38.257408180157995" lon="15.753752947789767"><ele>29.0</ele><time>2026-04-12T17:38:30Z</time></trkpt><trkpt lat="38.257337404602055" lon="15.753574406906868"><ele>29.0</ele><time>2026-04-12T17:38:31Z</time></trkpt><trkpt lat="38.25726322576921" lon="15.753389942338245"><ele>38.0</ele><time>2026-04-12T17:38:32Z</time></trkpt><trkpt lat="38.25717439703597" lon="15.753205379250563"><ele>47.0</ele><time>2026-04-12T17:38:33Z</time></trkpt><trkpt lat="38.257106054973065" lon="15.753026913598648"><ele>56.0</ele><time>2026-04-12T17:38:34Z</time></trkpt><trkpt lat="38.25704124188478" lon="15.752848207495928"><ele>51.333333333333336</ele><time>2026-04-12T17:38:35Z</time></trkpt><trkpt lat="38.256973369974936" lon="15.752663823863804"><ele>46.66666666666667</ele><time>2026-04-12T17:38:36Z</time></trkpt><trkpt lat="38.25691632169429" lon="15.752482542536724"><ele>42.0</ele><time>2026-04-12T17:38:37Z</time></trkpt><trkpt lat="38.256862046618885" lon="15.752300350007904"><ele>42.0</ele><time>2026-04-12T17:38:38Z</time></trkpt><trkpt lat="38.25681799466255" lon="15.752118212281532"><ele>42.0</ele><time>2026-04-12T17:38:39Z</time></trkpt><trkpt lat="38.25677468216581" lon="15.751944383366638"><ele>42.0</ele><time>2026-04-12T17:38:40Z</time></trkpt><trkpt lat="38.25672694437872" lon="15.751769783255604"><ele>42.0</ele><time>2026-04-12T17:38:41Z</time></trkpt><trkpt lat="38.25668493841213" lon="15.751598259160481"><ele>40.75</ele><time>2026-04-12T17:38:42Z</time></trkpt><trkpt lat="38.25665530554405" lon="15.75142238685187"><ele>39.5</ele><time>2026-04-12T17:38:43Z</time></trkpt><trkpt lat="38.25664260505909" lon="15.75123782530468"><ele>38.25</ele><time>2026-04-12T17:38:44Z</time></trkpt><trkpt lat="38.256651474340764" lon="15.751045680144326"><ele>37.0</ele><time>2026-04-12T17:38:45Z</time></trkpt><trkpt lat="38.25666833606759" lon="15.750838639065629"><ele>37.0</ele><time>2026-04-12T17:38:46Z</time></trkpt><trkpt lat="38.25669477466677" lon="15.75062787025468"><ele>37.0</ele><time>2026-04-12T17:38:47Z</time></trkpt><trkpt lat="38.25671292536687" lon="15.750424559440447"><ele>37.0</ele><time>2026-04-12T17:38:48Z</time></trkpt><trkpt lat="38.25672129210209" lon="15.7502416918505"><ele>39.0</ele><time>2026-04-12T17:38:49Z</time></trkpt><trkpt lat="38.25673207038956" lon="15.750065524726981"><ele>41.0</ele><time>2026-04-12T17:38:50Z</time></trkpt><trkpt lat="38.256728942482766" lon="15.749908951572792"><ele>43.0</ele><time>2026-04-12T17:38:51Z</time></trkpt><trkpt lat="38.25672730111855" lon="15.749753281730799"><ele>45.0</ele><time>2026-04-12T17:38:52Z</time></trkpt><trkpt lat="38.25677136627506" lon="15.749631447355137"><ele>45.0</ele><time>2026-04-12T17:38:53Z</time></trkpt><trkpt lat="38.256790034357444" lon="15.749497739098702"><ele>45.0</ele><time>2026-04-12T17:38:54Z</time></trkpt><trkpt lat="38.256820099257844" lon="15.749369550201097"><ele>45.0</ele><time>2026-04-12T17:38:55Z</time></trkpt><trkpt lat="38.256847106361576" lon="15.749240907673409"><ele>45.0</ele><time>2026-04-12T17:38:56Z</time></trkpt><trkpt lat="38.25687432099249" lon="15.749105561388092"><ele>45.0</ele><time>2026-04-12T17:38:57Z</time></trkpt><trkpt lat="38.25683806267525" lon="15.748973020993615"><ele>45.8</ele><time>2026-04-12T17:38:58Z</time></trkpt><trkpt lat="38.25681584153939" lon="15.748827800039809"><ele>46.6</ele><time>2026-04-12T17:38:59Z</time></trkpt><trkpt lat="38.256802643525766" lon="15.7486885887084"><ele>47.400000000000006</ele><time>2026-04-12T17:39:00Z</time></trkpt><trkpt lat="38.25681319167194" lon="15.748554390350485"><ele>48.2</ele><time>2026-04-12T17:39:01Z</time></trkpt><trkpt lat="38.256811339267685" lon="15.748408356231643"><ele>49.0</ele><time>2026-04-12T17:39:02Z</time></trkpt><trkpt lat="38.25680176999918" lon="15.748274612783137"><ele>47.2</ele><time>2026-04-12T17:39:03Z</time></trkpt><trkpt lat="38.25677102427129" lon="15.748128362870615"><ele>45.400000000000006</ele><time>2026-04-12T17:39:04Z</time></trkpt><trkpt lat="38.25673853734558" lon="15.747997427689278"><ele>43.6</ele><time>2026-04-12T17:39:05Z</time></trkpt><trkpt lat="38.25668961621513" lon="15.747879297609076"><ele>41.8</ele><time>2026-04-12T17:39:06Z</time></trkpt><trkpt lat="38.25661839570553" lon="15.747771750531076"><ele>40.0</ele><time>2026-04-12T17:39:07Z</time></trkpt><trkpt lat="38.25654641858254" lon="15.747663663121484"><ele>35.4</ele><time>2026-04-12T17:39:08Z</time></trkpt><trkpt lat="38.25647178162557" lon="15.747551134293625"><ele>30.8</ele><time>2026-04-12T17:39:09Z</time></trkpt><trkpt lat="38.25640560592501" lon="15.74743621227827"><ele>26.2</ele><time>2026-04-12T17:39:10Z</time></trkpt><trkpt lat="38.25633676828978" lon="15.74733274747718"><ele>21.6</ele><time>2026-04-12T17:39:11Z</time></trkpt><trkpt lat="38.256278137815166" lon="15.74721520956281"><ele>17.0</ele><time>2026-04-12T17:39:12Z</time></trkpt><trkpt lat="38.25623164670752" lon="15.747090396895784"><ele>25.25</ele><time>2026-04-12T17:39:13Z</time></trkpt><trkpt lat="38.25617369472696" lon="15.746963184781889"><ele>33.5</ele><time>2026-04-12T17:39:14Z</time></trkpt><trkpt lat="38.25610729952839" lon="15.746839216942417"><ele>41.75</ele><time>2026-04-12T17:39:15Z</time></trkpt><trkpt lat="38.25603871455248" lon="15.746717484736166"><ele>50.0</ele><time>2026-04-12T17:39:16Z</time></trkpt><trkpt lat="38.255977736131605" lon="15.746599220363672"><ele>50.0</ele><time>2026-04-12T17:39:17Z</time></trkpt><trkpt lat="38.25593206807109" lon="15.746475168253696"><ele>50.0</ele><time>2026-04-12T17:39:18Z</time></trkpt><trkpt lat="38.25590716579821" lon="15.746343885922883"><ele>50.0</ele><time>2026-04-12T17:39:19Z</time></trkpt><trkpt lat="38.255889394277055" lon="15.746201708525309"><ele>50.0</ele><time>2026-04-12T17:39:20Z</time></trkpt><trkpt lat="38.25585764342457" lon="15.74605653697091"><ele>50.0</ele><time>2026-04-12T17:39:21Z</time></trkpt><trkpt lat="38.25582327793612" lon="15.745905907194711"><ele>43.5</ele><time>2026-04-12T17:39:22Z</time></trkpt><trkpt lat="38.25577793046616" lon="15.745751500792418"><ele>37.0</ele><time>2026-04-12T17:39:23Z</time></trkpt><trkpt lat="38.25572991849649" lon="15.745595332528731"><ele>30.5</ele><time>2026-04-12T17:39:24Z</time></trkpt><trkpt lat="38.25569230039473" lon="15.745429912657915"><ele>24.0</ele><time>2026-04-12T17:39:25Z</time></trkpt><trkpt lat="38.255630410147376" lon="15.74529576545127"><ele>37.5</ele><time>2026-04-12T17:39:26Z</time></trkpt><trkpt lat="38.255560210409925" lon="15.745183191458695"><ele>51.0</ele><time>2026-04-12T17:39:27Z</time></trkpt><trkpt lat="38.255495656410226" lon="15.745078353567926"><ele>64.5</ele><time>2026-04-12T17:39:28Z</time></trkpt><trkpt lat="38.25546073463152" lon="15.744907148433187"><ele>78.0</ele><time>2026-04-12T17:39:29Z</time></trkpt><trkpt lat="38.25540949884425" lon="15.744754995903584"><ele>78.0</ele><time>2026-04-12T17:39:30Z</time></trkpt><trkpt lat="38.25531288920982" lon="15.744438089492677"><ele>78.0</ele><time>2026-04-12T17:39:32Z</time></trkpt><trkpt lat="38.255282457148844" lon="15.74428012714177"><ele>78.0</ele><time>2026-04-12T17:39:33Z</time></trkpt><trkpt lat="38.255298082363396" lon="15.744136163432302"><ele>71.25</ele><time>2026-04-12T17:39:34Z</time></trkpt><trkpt lat="38.25526472387918" lon="15.743992730449413"><ele>64.5</ele><time>2026-04-12T17:39:35Z</time></trkpt><trkpt lat="38.255238948420825" lon="15.743850882561821"><ele>57.75</ele><time>2026-04-12T17:39:36Z</time></trkpt><trkpt lat="38.25520316146778" lon="15.743715474245136"><ele>51.0</ele><time>2026-04-12T17:39:37Z</time></trkpt><trkpt lat="38.25517123056332" lon="15.743570065748527"><ele>45.0</ele><time>2026-04-12T17:39:38Z</time></trkpt><trkpt lat="38.255150810106464" lon="15.743407558059538"><ele>39.0</ele><time>2026-04-12T17:39:39Z</time></trkpt><trkpt lat="38.2551205984928" lon="15.743245652743237"><ele>33.0</ele><time>2026-04-12T17:39:40Z</time></trkpt><trkpt lat="38.25508905676397" lon="15.743091511554066"><ele>27.0</ele><time>2026-04-12T17:39:41Z</time></trkpt><trkpt lat="38.255048407964885" lon="15.742945250513344"><ele>27.0</ele><time>2026-04-12T17:39:42Z</time></trkpt><trkpt lat="38.255008250419664" lon="15.742811750584929"><ele>27.0</ele><time>2026-04-12T17:39:43Z</time></trkpt><trkpt lat="38.25497128696796" lon="15.742680191120593"><ele>27.0</ele><time>2026-04-12T17:39:44Z</time></trkpt><trkpt lat="38.25493850081263" lon="15.7425365701251"><ele>27.0</ele><time>2026-04-12T17:39:45Z</time></trkpt><trkpt lat="38.254922287916564" lon="15.742381649853996"><ele>23.25</ele><time>2026-04-12T17:39:46Z</time></trkpt><trkpt lat="38.25490441845778" lon="15.742225718388626"><ele>19.5</ele><time>2026-04-12T17:39:47Z</time></trkpt><trkpt lat="38.25489393203081" lon="15.742066402915768"><ele>15.75</ele><time>2026-04-12T17:39:48Z</time></trkpt><trkpt lat="38.25484123679418" lon="15.741920296651719"><ele>12.0</ele><time>2026-04-12T17:39:49Z</time></trkpt><trkpt lat="38.2548152722196" lon="15.741763097304284"><ele>24.75</ele><time>2026-04-12T17:39:50Z</time></trkpt><trkpt lat="38.25476176415637" lon="15.741615898253604"><ele>37.5</ele><time>2026-04-12T17:39:51Z</time></trkpt><trkpt lat="38.25471998885233" lon="15.741474088514725"><ele>50.25</ele><time>2026-04-12T17:39:52Z</time></trkpt><trkpt lat="38.25468248500059" lon="15.741327823671089"><ele>63.0</ele><time>2026-04-12T17:39:53Z</time></trkpt><trkpt lat="38.254643591824944" lon="15.741182354477335"><ele>60.8</ele><time>2026-04-12T17:39:54Z</time></trkpt><trkpt lat="38.25461430359633" lon="15.741046503797195"><ele>58.599999999999994</ele><time>2026-04-12T17:39:55Z</time></trkpt><trkpt lat="38.254583627026854" lon="15.740916773130227"><ele>56.400000000000006</ele><time>2026-04-12T17:39:56Z</time></trkpt><trkpt lat="38.25455873190569" lon="15.740782860352997"><ele>54.2</ele><time>2026-04-12T17:39:57Z</time></trkpt><trkpt lat="38.25454131800889" lon="15.740645911155775"><ele>52.0</ele><time>2026-04-12T17:39:58Z</time></trkpt><trkpt lat="38.25454519158658" lon="15.740506737134181"><ele>52.0</ele><time>2026-04-12T17:39:59Z</time></trkpt><trkpt lat="38.25450312065456" lon="15.74038066566648"><ele>52.0</ele><time>2026-04-12T17:40:00Z</time></trkpt><trkpt lat="38.25446648765863" lon="15.740256802717383"><ele>52.0</ele><time>2026-04-12T17:40:01Z</time></trkpt><trkpt lat="38.25442090531371" lon="15.740129399429726"><ele>52.0</ele><time>2026-04-12T17:40:02Z</time></trkpt><trkpt lat="38.25437431165814" lon="15.739998545749323"><ele>52.0</ele><time>2026-04-12T17:40:03Z</time></trkpt><trkpt lat="38.25432371547825" lon="15.739861872497213"><ele>46.25</ele><time>2026-04-12T17:40:04Z</time></trkpt><trkpt lat="38.254270118223175" lon="15.739715735056437"><ele>40.5</ele><time>2026-04-12T17:40:05Z</time></trkpt><trkpt lat="38.254205986161104" lon="15.739564538283274"><ele>34.75</ele><time>2026-04-12T17:40:06Z</time></trkpt><trkpt lat="38.25413640537918" lon="15.739396937001416"><ele>29.0</ele><time>2026-04-12T17:40:07Z</time></trkpt><trkpt lat="38.25406407352162" lon="15.739226910583143"><ele>24.75</ele><time>2026-04-12T17:40:08Z</time></trkpt><trkpt lat="38.25399501712175" lon="15.739073644773969"><ele>20.5</ele><time>2026-04-12T17:40:09Z</time></trkpt><trkpt lat="38.25391550749513" lon="15.738924717730471"><ele>16.25</ele><time>2026-04-12T17:40:10Z</time></trkpt><trkpt lat="38.25384202286969" lon="15.73878221550815"><ele>12.0</ele><time>2026-04-12T17:40:11Z</time></trkpt><trkpt lat="38.25377058119196" lon="15.73863194486853"><ele>16.75</ele><time>2026-04-12T17:40:12Z</time></trkpt><trkpt lat="38.25369983900507" lon="15.738486520555421"><ele>21.5</ele><time>2026-04-12T17:40:13Z</time></trkpt><trkpt lat="38.25362908049576" lon="15.738333700228724"><ele>26.25</ele><time>2026-04-12T17:40:14Z</time></trkpt><trkpt lat="38.253560596407105" lon="15.73818537697468"><ele>31.0</ele><time>2026-04-12T17:40:15Z</time></trkpt><trkpt lat="38.25349720221954" lon="15.738044755429726"><ele>31.0</ele><time>2026-04-12T17:40:16Z</time></trkpt><trkpt lat="38.253438074231816" lon="15.737914911043022"><ele>31.0</ele><time>2026-04-12T17:40:17Z</time></trkpt><trkpt lat="38.25337988274887" lon="15.737800296143849"><ele>31.0</ele><time>2026-04-12T17:40:18Z</time></trkpt><trkpt lat="38.25332937530692" lon="15.737702225060039"><ele>31.0</ele><time>2026-04-12T17:40:19Z</time></trkpt><trkpt lat="38.25327485990704" lon="15.737606987582492"><ele>31.0</ele><time>2026-04-12T17:40:20Z</time></trkpt><trkpt lat="38.25322546971429" lon="15.73750535756294"><ele>27.2</ele><time>2026-04-12T17:40:21Z</time></trkpt><trkpt lat="38.25317967057247" lon="15.737375328326031"><ele>23.400000000000002</ele><time>2026-04-12T17:40:22Z</time></trkpt><trkpt lat="38.25314512630376" lon="15.737265204266373"><ele>19.6</ele><time>2026-04-12T17:40:23Z</time></trkpt><trkpt lat="38.253110402449714" lon="15.737154224794383"><ele>15.8</ele><time>2026-04-12T17:40:24Z</time></trkpt><trkpt lat="38.253071502669826" lon="15.737049185506288"><ele>12.0</ele><time>2026-04-12T17:40:25Z</time></trkpt><trkpt lat="38.25303215944307" lon="15.736950215320817"><ele>16.0</ele><time>2026-04-12T17:40:26Z</time></trkpt><trkpt lat="38.252975993089564" lon="15.736853922036854"><ele>20.0</ele><time>2026-04-12T17:40:27Z</time></trkpt><trkpt lat="38.252904450361235" lon="15.736778559881168"><ele>24.0</ele><time>2026-04-12T17:40:28Z</time></trkpt><trkpt lat="38.25283932889203" lon="15.736732474188422"><ele>28.0</ele><time>2026-04-12T17:40:29Z</time></trkpt><trkpt lat="38.25278170040215" lon="15.736682957740532"><ele>32.0</ele><time>2026-04-12T17:40:30Z</time></trkpt><trkpt lat="38.25274579418591" lon="15.736558213870163"><ele>36.0</ele><time>2026-04-12T17:40:31Z</time></trkpt><trkpt lat="38.252727698966844" lon="15.736425243459403"><ele>36.0</ele><time>2026-04-12T17:40:32Z</time></trkpt><trkpt lat="38.25271113212266" lon="15.736278035172518"><ele>36.0</ele><time>2026-04-12T17:40:33Z</time></trkpt><trkpt lat="38.25268519348168" lon="15.736120404163069"><ele>36.0</ele><time>2026-04-12T17:40:34Z</time></trkpt><trkpt lat="38.252666255116544" lon="15.735941748469346"><ele>36.0</ele><time>2026-04-12T17:40:35Z</time></trkpt><trkpt lat="38.252649381570876" lon="15.735738788502122"><ele>33.666666666666664</ele><time>2026-04-12T17:40:36Z</time></trkpt><trkpt lat="38.252638590710134" lon="15.735520455994111"><ele>31.333333333333332</ele><time>2026-04-12T17:40:37Z</time></trkpt><trkpt lat="38.25262442216788" lon="15.735301984390762"><ele>29.0</ele><time>2026-04-12T17:40:38Z</time></trkpt><trkpt lat="38.25260245352383" lon="15.735083604863712"><ele>27.333333333333332</ele><time>2026-04-12T17:40:39Z</time></trkpt><trkpt lat="38.252573489601" lon="15.734842992682399"><ele>25.666666666666664</ele><time>2026-04-12T17:40:40Z</time></trkpt><trkpt lat="38.25255001267241" lon="15.734583760337648"><ele>24.0</ele><time>2026-04-12T17:40:41Z</time></trkpt><trkpt lat="38.252548938090825" lon="15.734332201116809"><ele>21.666666666666668</ele><time>2026-04-12T17:40:42Z</time></trkpt><trkpt lat="38.25256644721945" lon="15.734070097300652"><ele>19.333333333333336</ele><time>2026-04-12T17:40:43Z</time></trkpt><trkpt lat="38.25255393608964" lon="15.733824594277403"><ele>17.0</ele><time>2026-04-12T17:40:44Z</time></trkpt><trkpt lat="38.252525079629024" lon="15.733587692508044"><ele>16.333333333333336</ele><time>2026-04-12T17:40:45Z</time></trkpt><trkpt lat="38.25249701604686" lon="15.733346751468032"><ele>15.666666666666668</ele><time>2026-04-12T17:40:46Z</time></trkpt><trkpt lat="38.252471612522264" lon="15.733114373567322"><ele>15.0</ele><time>2026-04-12T17:40:47Z</time></trkpt><trkpt lat="38.25244848356004" lon="15.732896038719073"><ele>15.0</ele><time>2026-04-12T17:40:48Z</time></trkpt><trkpt lat="38.252373908170036" lon="15.732917497953641"><ele>15.0</ele><time>2026-04-12T17:40:49Z</time></trkpt><trkpt lat="38.25236009333398" lon="15.732719975039178"><ele>15.0</ele><time>2026-04-12T17:40:50Z</time></trkpt><trkpt lat="38.252346347094516" lon="15.732520898427405"><ele>15.0</ele><time>2026-04-12T17:40:51Z</time></trkpt><trkpt lat="38.25233572714225" lon="15.732318019431446"><ele>14.333333333333332</ele><time>2026-04-12T17:40:52Z</time></trkpt><trkpt lat="38.25232804611317" lon="15.73211561991786"><ele>13.666666666666666</ele><time>2026-04-12T17:40:53Z</time></trkpt><trkpt lat="38.25232252797316" lon="15.731914408067416"><ele>13.0</ele><time>2026-04-12T17:40:54Z</time></trkpt><trkpt lat="38.25231300945732" lon="15.731715360928828"><ele>12.0</ele><time>2026-04-12T17:40:55Z</time></trkpt><trkpt lat="38.25230312396569" lon="15.731517466846658"><ele>11.0</ele><time>2026-04-12T17:40:56Z</time></trkpt><trkpt lat="38.25229194509842" lon="15.731318891075366"><ele>10.0</ele><time>2026-04-12T17:40:57Z</time></trkpt><trkpt lat="38.252279266450685" lon="15.731123749825555"><ele>24.0</ele><time>2026-04-12T17:40:58Z</time></trkpt><trkpt lat="38.25226516760019" lon="15.730922903417367"><ele>38.0</ele><time>2026-04-12T17:40:59Z</time></trkpt><trkpt lat="38.25224779573931" lon="15.730725999079992"><ele>52.0</ele><time>2026-04-12T17:41:00Z</time></trkpt><trkpt lat="38.252242026580525" lon="15.730526175277923"><ele>52.0</ele><time>2026-04-12T17:41:01Z</time></trkpt><trkpt lat="38.25224110525467" lon="15.730320569262961"><ele>52.0</ele><time>2026-04-12T17:41:02Z</time></trkpt><trkpt lat="38.252239325826565" lon="15.730118568766422"><ele>52.0</ele><time>2026-04-12T17:41:03Z</time></trkpt><trkpt lat="38.252235886217484" lon="15.729913886554757"><ele>55.666666666666664</ele><time>2026-04-12T17:41:04Z</time></trkpt><trkpt lat="38.252239144877734" lon="15.729707608026501"><ele>59.33333333333333</ele><time>2026-04-12T17:41:05Z</time></trkpt><trkpt lat="38.25225218316298" lon="15.729502909348255"><ele>63.0</ele><time>2026-04-12T17:41:06Z</time></trkpt><trkpt lat="38.252258842003734" lon="15.729295521289204"><ele>63.0</ele><time>2026-04-12T17:41:07Z</time></trkpt><trkpt lat="38.25227125588834" lon="15.729089093999258"><ele>63.0</ele><time>2026-04-12T17:41:08Z</time></trkpt><trkpt lat="38.25228942299744" lon="15.728881230373384"><ele>63.0</ele><time>2026-04-12T17:41:09Z</time></trkpt><trkpt lat="38.25231163500871" lon="15.728674671970714"><ele>52.333333333333336</ele><time>2026-04-12T17:41:10Z</time></trkpt><trkpt lat="38.25235515263239" lon="15.728479504860214"><ele>41.66666666666667</ele><time>2026-04-12T17:41:11Z</time></trkpt><trkpt lat="38.2523923183044" lon="15.728272828800609"><ele>31.0</ele><time>2026-04-12T17:41:12Z</time></trkpt><trkpt lat="38.25245171354832" lon="15.728078811890702"><ele>31.0</ele><time>2026-04-12T17:41:13Z</time></trkpt><trkpt lat="38.2524861099609" lon="15.727887640512524"><ele>31.0</ele><time>2026-04-12T17:41:14Z</time></trkpt><trkpt lat="38.25252312442869" lon="15.727723971563885"><ele>31.0</ele><time>2026-04-12T17:41:15Z</time></trkpt><trkpt lat="38.25255555278283" lon="15.727561200291689"><ele>31.0</ele><time>2026-04-12T17:41:16Z</time></trkpt><trkpt lat="38.25257864696253" lon="15.727402247491051"><ele>31.0</ele><time>2026-04-12T17:41:17Z</time></trkpt><trkpt lat="38.252592825407206" lon="15.727230772733325"><ele>31.0</ele><time>2026-04-12T17:41:18Z</time></trkpt><trkpt lat="38.252605025160754" lon="15.727046565629463"><ele>31.0</ele><time>2026-04-12T17:41:19Z</time></trkpt><trkpt lat="38.25262571492859" lon="15.726875905317582"><ele>31.0</ele><time>2026-04-12T17:41:20Z</time></trkpt><trkpt lat="38.25266984834532" lon="15.726715959519085"><ele>32.75</ele><time>2026-04-12T17:41:21Z</time></trkpt><trkpt lat="38.252731539764824" lon="15.726551581010924"><ele>34.5</ele><time>2026-04-12T17:41:22Z</time></trkpt><trkpt lat="38.25279597124212" lon="15.726392685917322"><ele>36.25</ele><time>2026-04-12T17:41:23Z</time></trkpt><trkpt lat="38.252850835581114" lon="15.726221542126405"><ele>38.0</ele><time>2026-04-12T17:41:24Z</time></trkpt><trkpt lat="38.25289230616686" lon="15.7260448990333"><ele>45.0</ele><time>2026-04-12T17:41:25Z</time></trkpt><trkpt lat="38.25293180357872" lon="15.725860484910852"><ele>52.0</ele><time>2026-04-12T17:41:26Z</time></trkpt><trkpt lat="38.25296994007707" lon="15.725669609293323"><ele>59.0</ele><time>2026-04-12T17:41:27Z</time></trkpt><trkpt lat="38.253002892380565" lon="15.725475911031204"><ele>59.0</ele><time>2026-04-12T17:41:28Z</time></trkpt><trkpt lat="38.25303705886835" lon="15.725276672481598"><ele>59.0</ele><time>2026-04-12T17:41:29Z</time></trkpt><trkpt lat="38.253074133895126" lon="15.725076365697237"><ele>59.0</ele><time>2026-04-12T17:41:30Z</time></trkpt><trkpt lat="38.25311197411005" lon="15.72487530583053"><ele>49.66666666666667</ele><time>2026-04-12T17:41:31Z</time></trkpt><trkpt lat="38.25315174630652" lon="15.724676503830302"><ele>40.333333333333336</ele><time>2026-04-12T17:41:32Z</time></trkpt><trkpt lat="38.25319662480725" lon="15.724476247028116"><ele>31.0</ele><time>2026-04-12T17:41:33Z</time></trkpt><trkpt lat="38.253238992079275" lon="15.724275169099698"><ele>31.0</ele><time>2026-04-12T17:41:34Z</time></trkpt><trkpt lat="38.25328117824247" lon="15.724080407722463"><ele>31.0</ele><time>2026-04-12T17:41:35Z</time></trkpt><trkpt lat="38.25330910969261" lon="15.723900126907157"><ele>31.0</ele><time>2026-04-12T17:41:36Z</time></trkpt><trkpt lat="38.25333803508657" lon="15.723720619764151"><ele>31.0</ele><time>2026-04-12T17:41:37Z</time></trkpt><trkpt lat="38.25336580393227" lon="15.723559017176308"><ele>32.0</ele><time>2026-04-12T17:41:38Z</time></trkpt><trkpt lat="38.25339673261386" lon="15.723383790245581"><ele>33.0</ele><time>2026-04-12T17:41:39Z</time></trkpt><trkpt lat="38.253425081541714" lon="15.72319476360004"><ele>34.0</ele><time>2026-04-12T17:41:40Z</time></trkpt><trkpt lat="38.25345417392612" lon="15.723010841159176"><ele>35.0</ele><time>2026-04-12T17:41:41Z</time></trkpt><trkpt lat="38.25347600484143" lon="15.722822093701561"><ele>37.33333333333333</ele><time>2026-04-12T17:41:42Z</time></trkpt><trkpt lat="38.253500162632605" lon="15.722627177744215"><ele>39.666666666666664</ele><time>2026-04-12T17:41:43Z</time></trkpt><trkpt lat="38.253526768823285" lon="15.722437298516628"><ele>42.0</ele><time>2026-04-12T17:41:44Z</time></trkpt><trkpt lat="38.25354604944054" lon="15.722240675879712"><ele>42.0</ele><time>2026-04-12T17:41:45Z</time></trkpt><trkpt lat="38.25356457134142" lon="15.722052772571688"><ele>42.0</ele><time>2026-04-12T17:41:46Z</time></trkpt><trkpt lat="38.25357794241035" lon="15.721862171172864"><ele>42.0</ele><time>2026-04-12T17:41:47Z</time></trkpt><trkpt lat="38.2536085048369" lon="15.721669055371496"><ele>47.0</ele><time>2026-04-12T17:41:48Z</time></trkpt><trkpt lat="38.253639247140356" lon="15.721484402051813"><ele>52.0</ele><time>2026-04-12T17:41:49Z</time></trkpt><trkpt lat="38.25364633650743" lon="15.721297440868868"><ele>57.0</ele><time>2026-04-12T17:41:50Z</time></trkpt><trkpt lat="38.253646388698904" lon="15.721120039177077"><ele>62.0</ele><time>2026-04-12T17:41:51Z</time></trkpt><trkpt lat="38.253637907909145" lon="15.72093695015852"><ele>63.25</ele><time>2026-04-12T17:41:52Z</time></trkpt><trkpt lat="38.253607579749286" lon="15.720762157262952"><ele>64.5</ele><time>2026-04-12T17:41:53Z</time></trkpt><trkpt lat="38.25356724916567" lon="15.720575731831161"><ele>65.75</ele><time>2026-04-12T17:41:54Z</time></trkpt><trkpt lat="38.25353632854672" lon="15.720403919386428"><ele>67.0</ele><time>2026-04-12T17:41:55Z</time></trkpt><trkpt lat="38.25351755442369" lon="15.720255042421888"><ele>66.5</ele><time>2026-04-12T17:41:56Z</time></trkpt><trkpt lat="38.253486151026486" lon="15.720118355570325"><ele>66.0</ele><time>2026-04-12T17:41:57Z</time></trkpt><trkpt lat="38.253462977875685" lon="15.719985628048704"><ele>65.5</ele><time>2026-04-12T17:41:58Z</time></trkpt><trkpt lat="38.25347204981944" lon="15.719838408883685"><ele>65.0</ele><time>2026-04-12T17:41:59Z</time></trkpt><trkpt lat="38.25352641939603" lon="15.719704137977757"><ele>65.0</ele><time>2026-04-12T17:42:00Z</time></trkpt><trkpt lat="38.25357236217908" lon="15.719545459397272"><ele>65.0</ele><time>2026-04-12T17:42:01Z</time></trkpt><trkpt lat="38.25361087399698" lon="15.719383942552176"><ele>65.0</ele><time>2026-04-12T17:42:02Z</time></trkpt><trkpt lat="38.253655300894245" lon="15.71922429220898"><ele>65.0</ele><time>2026-04-12T17:42:03Z</time></trkpt><trkpt lat="38.25368055686801" lon="15.719077258023624"><ele>67.5</ele><time>2026-04-12T17:42:04Z</time></trkpt><trkpt lat="38.25368788940402" lon="15.718921023679732"><ele>70.0</ele><time>2026-04-12T17:42:05Z</time></trkpt><trkpt lat="38.25367372021552" lon="15.718758806082398"><ele>72.5</ele><time>2026-04-12T17:42:06Z</time></trkpt><trkpt lat="38.253665126869556" lon="15.718597112293747"><ele>75.0</ele><time>2026-04-12T17:42:07Z</time></trkpt><trkpt lat="38.25366485134601" lon="15.718431772978429"><ele>76.25</ele><time>2026-04-12T17:42:08Z</time></trkpt><trkpt lat="38.25369591160078" lon="15.718269279236383"><ele>77.5</ele><time>2026-04-12T17:42:09Z</time></trkpt><trkpt lat="38.25369205707235" lon="15.718110850994274"><ele>78.75</ele><time>2026-04-12T17:42:10Z</time></trkpt><trkpt lat="38.25370876136719" lon="15.717952648735256"><ele>80.0</ele><time>2026-04-12T17:42:11Z</time></trkpt><trkpt lat="38.25370250549169" lon="15.717804102326815"><ele>80.25</ele><time>2026-04-12T17:42:12Z</time></trkpt><trkpt lat="38.25371212701598" lon="15.717659006247896"><ele>80.5</ele><time>2026-04-12T17:42:13Z</time></trkpt><trkpt lat="38.25373840515322" lon="15.717538756436678"><ele>80.75</ele><time>2026-04-12T17:42:14Z</time></trkpt><trkpt lat="38.2537877210456" lon="15.717415869121387"><ele>81.0</ele><time>2026-04-12T17:42:15Z</time></trkpt><trkpt lat="38.25388581669452" lon="15.717306092587421"><ele>81.0</ele><time>2026-04-12T17:42:16Z</time></trkpt><trkpt lat="38.25395442507702" lon="15.717165767125948"><ele>81.0</ele><time>2026-04-12T17:42:17Z</time></trkpt><trkpt lat="38.25401488286411" lon="15.717029413682939"><ele>81.0</ele><time>2026-04-12T17:42:18Z</time></trkpt><trkpt lat="38.254062697142174" lon="15.716900898325648"><ele>81.0</ele><time>2026-04-12T17:42:19Z</time></trkpt><trkpt lat="38.25413282935517" lon="15.716770431488968"><ele>73.39999999999999</ele><time>2026-04-12T17:42:20Z</time></trkpt><trkpt lat="38.254190077506045" lon="15.716646429020622"><ele>65.8</ele><time>2026-04-12T17:42:21Z</time></trkpt><trkpt lat="38.25424467089232" lon="15.716535768308093"><ele>58.199999999999996</ele><time>2026-04-12T17:42:22Z</time></trkpt><trkpt lat="38.254295472251144" lon="15.716415216919788"><ele>50.599999999999994</ele><time>2026-04-12T17:42:23Z</time></trkpt><trkpt lat="38.254346935287536" lon="15.716301492076445"><ele>43.0</ele><time>2026-04-12T17:42:24Z</time></trkpt><trkpt lat="38.25440890431973" lon="15.716193074463456"><ele>43.0</ele><time>2026-04-12T17:42:25Z</time></trkpt><trkpt lat="38.254469807754525" lon="15.71608036705927"><ele>43.0</ele><time>2026-04-12T17:42:26Z</time></trkpt><trkpt lat="38.2545340088376" lon="15.715992887270348"><ele>43.0</ele><time>2026-04-12T17:42:27Z</time></trkpt><trkpt lat="38.25460870437311" lon="15.715909618312358"><ele>43.0</ele><time>2026-04-12T17:42:28Z</time></trkpt><trkpt lat="38.254722127273006" lon="15.715893453446753"><ele>43.0</ele><time>2026-04-12T17:42:29Z</time></trkpt><trkpt lat="38.254807775294736" lon="15.715822989783602"><ele>40.6</ele><time>2026-04-12T17:42:30Z</time></trkpt><trkpt lat="38.25485789650031" lon="15.71569687612884"><ele>38.199999999999996</ele><time>2026-04-12T17:42:31Z</time></trkpt><trkpt lat="38.254912196878514" lon="15.715585976381595"><ele>35.8</ele><time>2026-04-12T17:42:32Z</time></trkpt><trkpt lat="38.25496268831398" lon="15.71548971317676"><ele>33.4</ele><time>2026-04-12T17:42:33Z</time></trkpt><trkpt lat="38.255000765372166" lon="15.715395887651145"><ele>31.0</ele><time>2026-04-12T17:42:34Z</time></trkpt><trkpt lat="38.255030214327235" lon="15.715309578560323"><ele>31.333333333333336</ele><time>2026-04-12T17:42:35Z</time></trkpt><trkpt lat="38.255061875673825" lon="15.715230573778129"><ele>31.666666666666668</ele><time>2026-04-12T17:42:36Z</time></trkpt><trkpt lat="38.25510820712767" lon="15.715163482609668"><ele>32.0</ele><time>2026-04-12T17:42:37Z</time></trkpt><trkpt lat="38.25518517936115" lon="15.715131063486043"><ele>32.333333333333336</ele><time>2026-04-12T17:42:38Z</time></trkpt><trkpt lat="38.25525227324314" lon="15.71505475985643"><ele>32.666666666666664</ele><time>2026-04-12T17:42:39Z</time></trkpt><trkpt lat="38.25532370666247" lon="15.715009016965068"><ele>33.0</ele><time>2026-04-12T17:42:40Z</time></trkpt><trkpt lat="38.25539600206725" lon="15.714962660965064"><ele>33.0</ele><time>2026-04-12T17:42:41Z</time></trkpt><trkpt lat="38.25546011297946" lon="15.71492003237543"><ele>33.0</ele><time>2026-04-12T17:42:42Z</time></trkpt><trkpt lat="38.25551976922474" lon="15.714880141386589"><ele>33.0</ele><time>2026-04-12T17:42:43Z</time></trkpt><trkpt lat="38.2555889736405" lon="15.714790155892375"><ele>33.0</ele><time>2026-04-12T17:42:45Z</time></trkpt><trkpt lat="38.255560326105154" lon="15.714710957185497"><ele>33.0</ele><time>2026-04-12T17:42:46Z</time></trkpt><trkpt lat="38.255505604625334" lon="15.714663565024948"><ele>33.0</ele><time>2026-04-12T17:42:47Z</time></trkpt><trkpt lat="38.25540950833932" lon="15.714728044465772"><ele>33.0</ele><time>2026-04-12T17:42:48Z</time></trkpt><trkpt lat="38.25535659207695" lon="15.714785823721298"><ele>33.0</ele><time>2026-04-12T17:42:49Z</time></trkpt><trkpt lat="38.25529913643139" lon="15.714850922325768"><ele>33.0</ele><time>2026-04-12T17:42:50Z</time></trkpt><trkpt lat="38.25522411676558" lon="15.714913351181819"><ele>33.0</ele><time>2026-04-12T17:42:51Z</time></trkpt><trkpt lat="38.25514372262611" lon="15.714972224772925"><ele>33.0</ele><time>2026-04-12T17:42:52Z</time></trkpt><trkpt lat="38.25506911676401" lon="15.715020556737263"><ele>33.0</ele><time>2026-04-12T17:42:53Z</time></trkpt><trkpt lat="38.25499162163275" lon="15.715058322273808"><ele>33.0</ele><time>2026-04-12T17:42:54Z</time></trkpt><trkpt lat="38.254907335729946" lon="15.715083335224527"><ele>33.0</ele><time>2026-04-12T17:42:55Z</time></trkpt><trkpt lat="38.25482281426643" lon="15.715102498144045"><ele>33.0</ele><time>2026-04-12T17:42:56Z</time></trkpt><trkpt lat="38.254734734799285" lon="15.715123855823583"><ele>33.0</ele><time>2026-04-12T17:42:57Z</time></trkpt><trkpt lat="38.254663250652186" lon="15.71513585339707"><ele>33.0</ele><time>2026-04-12T17:42:58Z</time></trkpt><trkpt lat="38.25457311193498" lon="15.715150951069779"><ele>33.0</ele><time>2026-04-12T17:42:59Z</time></trkpt><trkpt lat="38.25448602455378" lon="15.715114963827526"><ele>34.75</ele><time>2026-04-12T17:43:00Z</time></trkpt><trkpt lat="38.25437527572051" lon="15.715097228905654"><ele>36.5</ele><time>2026-04-12T17:43:01Z</time></trkpt><trkpt lat="38.25427368839677" lon="15.715031613470247"><ele>38.25</ele><time>2026-04-12T17:43:02Z</time></trkpt><trkpt lat="38.254151168593246" lon="15.714960917741251"><ele>40.0</ele><time>2026-04-12T17:43:03Z</time></trkpt><trkpt lat="38.25402418320106" lon="15.714885510216185"><ele>46.75</ele><time>2026-04-12T17:43:04Z</time></trkpt><trkpt lat="38.253916207070375" lon="15.714821389656109"><ele>53.5</ele><time>2026-04-12T17:43:05Z</time></trkpt><trkpt lat="38.2538067112925" lon="15.714780166415759"><ele>60.25</ele><time>2026-04-12T17:43:06Z</time></trkpt><trkpt lat="38.25370660512438" lon="15.714720282973023"><ele>67.0</ele><time>2026-04-12T17:43:07Z</time></trkpt><trkpt lat="38.253609569120826" lon="15.714655893104789"><ele>67.0</ele><time>2026-04-12T17:43:08Z</time></trkpt><trkpt lat="38.25351465127264" lon="15.714610152222502"><ele>67.0</ele><time>2026-04-12T17:43:09Z</time></trkpt><trkpt lat="38.25342161011723" lon="15.714558779586092"><ele>67.0</ele><time>2026-04-12T17:43:10Z</time></trkpt><trkpt lat="38.253339615086375" lon="15.714460724851016"><ele>67.0</ele><time>2026-04-12T17:43:11Z</time></trkpt><trkpt lat="38.25326098557145" lon="15.714356858908237"><ele>67.0</ele><time>2026-04-12T17:43:12Z</time></trkpt><trkpt lat="38.253181057731126" lon="15.714230717520069"><ele>60.0</ele><time>2026-04-12T17:43:13Z</time></trkpt><trkpt lat="38.25311951400657" lon="15.71407554524892"><ele>53.0</ele><time>2026-04-12T17:43:14Z</time></trkpt><trkpt lat="38.25304506299564" lon="15.71391805558472"><ele>46.0</ele><time>2026-04-12T17:43:15Z</time></trkpt><trkpt lat="38.25297413981148" lon="15.71376858054629"><ele>39.0</ele><time>2026-04-12T17:43:16Z</time></trkpt><trkpt lat="38.25288822497238" lon="15.713631732894083"><ele>33.75</ele><time>2026-04-12T17:43:17Z</time></trkpt><trkpt lat="38.25282325683816" lon="15.713481206269922"><ele>28.5</ele><time>2026-04-12T17:43:18Z</time></trkpt><trkpt lat="38.25275230200363" lon="15.713338336054012"><ele>23.25</ele><time>2026-04-12T17:43:19Z</time></trkpt><trkpt lat="38.25268391151149" lon="15.713204529494227"><ele>18.0</ele><time>2026-04-12T17:43:20Z</time></trkpt><trkpt lat="38.25262099516034" lon="15.713063843394417"><ele>18.0</ele><time>2026-04-12T17:43:21Z</time></trkpt><trkpt lat="38.25255358967704" lon="15.712920571467281"><ele>18.0</ele><time>2026-04-12T17:43:22Z</time></trkpt><trkpt lat="38.2524815639981" lon="15.712765391079525"><ele>18.0</ele><time>2026-04-12T17:43:23Z</time></trkpt><trkpt lat="38.252408347733166" lon="15.712608190574372"><ele>18.0</ele><time>2026-04-12T17:43:24Z</time></trkpt><trkpt lat="38.25232660507956" lon="15.712448911979722"><ele>19.25</ele><time>2026-04-12T17:43:25Z</time></trkpt><trkpt lat="38.25225774973098" lon="15.71228811642888"><ele>20.5</ele><time>2026-04-12T17:43:26Z</time></trkpt><trkpt lat="38.25218151798287" lon="15.71213844477936"><ele>21.75</ele><time>2026-04-12T17:43:27Z</time></trkpt><trkpt lat="38.25210200630066" lon="15.711982015207926"><ele>23.0</ele><time>2026-04-12T17:43:28Z</time></trkpt><trkpt lat="38.25202898552251" lon="15.71182699137862"><ele>23.0</ele><time>2026-04-12T17:43:29Z</time></trkpt><trkpt lat="38.25194708028486" lon="15.711679859378165"><ele>23.0</ele><time>2026-04-12T17:43:30Z</time></trkpt><trkpt lat="38.25187846923105" lon="15.711541637938103"><ele>23.0</ele><time>2026-04-12T17:43:31Z</time></trkpt><trkpt lat="38.25180520285316" lon="15.711411394844381"><ele>23.0</ele><time>2026-04-12T17:43:32Z</time></trkpt><trkpt lat="38.25173673357634" lon="15.711276644930589"><ele>23.0</ele><time>2026-04-12T17:43:33Z</time></trkpt><trkpt lat="38.25167481537984" lon="15.711140535831076"><ele>23.0</ele><time>2026-04-12T17:43:34Z</time></trkpt><trkpt lat="38.2516115142518" lon="15.711017809055903"><ele>23.0</ele><time>2026-04-12T17:43:35Z</time></trkpt><trkpt lat="38.25155225965239" lon="15.71088493173553"><ele>23.0</ele><time>2026-04-12T17:43:36Z</time></trkpt><trkpt lat="38.25148315314299" lon="15.710760034499758"><ele>27.5</ele><time>2026-04-12T17:43:37Z</time></trkpt><trkpt lat="38.25140659367645" lon="15.710621621679154"><ele>32.0</ele><time>2026-04-12T17:43:38Z</time></trkpt><trkpt lat="38.2513368356795" lon="15.710494627527213"><ele>36.5</ele><time>2026-04-12T17:43:39Z</time></trkpt><trkpt lat="38.251264469238336" lon="15.710368897564475"><ele>41.0</ele><time>2026-04-12T17:43:40Z</time></trkpt><trkpt lat="38.251193275962656" lon="15.710247217393814"><ele>36.75</ele><time>2026-04-12T17:43:41Z</time></trkpt><trkpt lat="38.251125287330616" lon="15.71012246575874"><ele>32.5</ele><time>2026-04-12T17:43:42Z</time></trkpt><trkpt lat="38.25106180433855" lon="15.709995265215559"><ele>28.25</ele><time>2026-04-12T17:43:43Z</time></trkpt><trkpt lat="38.250997381877546" lon="15.709857929434065"><ele>24.0</ele><time>2026-04-12T17:43:44Z</time></trkpt><trkpt lat="38.25093395827972" lon="15.709716681596433"><ele>24.0</ele><time>2026-04-12T17:43:45Z</time></trkpt><trkpt lat="38.25086786701017" lon="15.709569492606775"><ele>24.0</ele><time>2026-04-12T17:43:46Z</time></trkpt><trkpt lat="38.2508061057669" lon="15.709431948149328"><ele>24.0</ele><time>2026-04-12T17:43:47Z</time></trkpt><trkpt lat="38.250745289035265" lon="15.709288647311393"><ele>24.0</ele><time>2026-04-12T17:43:48Z</time></trkpt><trkpt lat="38.25069471098526" lon="15.70914579498315"><ele>21.25</ele><time>2026-04-12T17:43:49Z</time></trkpt><trkpt lat="38.25064919733984" lon="15.70898709015428"><ele>18.5</ele><time>2026-04-12T17:43:50Z</time></trkpt><trkpt lat="38.250616669874915" lon="15.708836294434082"><ele>15.75</ele><time>2026-04-12T17:43:51Z</time></trkpt><trkpt lat="38.250589458676274" lon="15.708683502807634"><ele>13.0</ele><time>2026-04-12T17:43:52Z</time></trkpt><trkpt lat="38.2505586596819" lon="15.708539323060226"><ele>19.25</ele><time>2026-04-12T17:43:53Z</time></trkpt><trkpt lat="38.250541713923376" lon="15.708395062253908"><ele>25.5</ele><time>2026-04-12T17:43:54Z</time></trkpt><trkpt lat="38.25055530133811" lon="15.708255818839678"><ele>31.75</ele><time>2026-04-12T17:43:55Z</time></trkpt><trkpt lat="38.2505663394884" lon="15.70811023096388"><ele>38.0</ele><time>2026-04-12T17:43:56Z</time></trkpt><trkpt lat="38.250579286561525" lon="15.707954631701766"><ele>38.0</ele><time>2026-04-12T17:43:57Z</time></trkpt><trkpt lat="38.250591090723915" lon="15.707800069733587"><ele>38.0</ele><time>2026-04-12T17:43:58Z</time></trkpt><trkpt lat="38.2506029450042" lon="15.707638864512933"><ele>38.0</ele><time>2026-04-12T17:43:59Z</time></trkpt><trkpt lat="38.25061536174963" lon="15.70746915591669"><ele>38.0</ele><time>2026-04-12T17:44:00Z</time></trkpt><trkpt lat="38.250628086085136" lon="15.707295243200953"><ele>34.0</ele><time>2026-04-12T17:44:01Z</time></trkpt><trkpt lat="38.25064082621129" lon="15.707127294261058"><ele>30.0</ele><time>2026-04-12T17:44:02Z</time></trkpt><trkpt lat="38.250656097261725" lon="15.7069670734276"><ele>26.0</ele><time>2026-04-12T17:44:03Z</time></trkpt><trkpt lat="38.25067283886484" lon="15.706823711797277"><ele>22.0</ele><time>2026-04-12T17:44:04Z</time></trkpt><trkpt lat="38.2507216847303" lon="15.7066923793161"><ele>22.0</ele><time>2026-04-12T17:44:05Z</time></trkpt><trkpt lat="38.25080675391229" lon="15.70657903502261"><ele>22.0</ele><time>2026-04-12T17:44:06Z</time></trkpt><trkpt lat="38.25089411982326" lon="15.706460995367564"><ele>22.0</ele><time>2026-04-12T17:44:07Z</time></trkpt><trkpt lat="38.250976881165236" lon="15.706336657896419"><ele>22.0</ele><time>2026-04-12T17:44:08Z</time></trkpt><trkpt lat="38.251026426363325" lon="15.706191891676482"><ele>26.200000000000003</ele><time>2026-04-12T17:44:09Z</time></trkpt><trkpt lat="38.251081206076925" lon="15.706072609921026"><ele>30.4</ele><time>2026-04-12T17:44:10Z</time></trkpt><trkpt lat="38.25112212865235" lon="15.705956089970657"><ele>34.599999999999994</ele><time>2026-04-12T17:44:11Z</time></trkpt><trkpt lat="38.251160430706406" lon="15.705839352963803"><ele>38.8</ele><time>2026-04-12T17:44:12Z</time></trkpt><trkpt lat="38.251162286030905" lon="15.705692503570265"><ele>43.0</ele><time>2026-04-12T17:44:13Z</time></trkpt><trkpt lat="38.25115035563648" lon="15.705536158428943"><ele>43.0</ele><time>2026-04-12T17:44:14Z</time></trkpt><trkpt lat="38.251130087890196" lon="15.705381702004884"><ele>43.0</ele><time>2026-04-12T17:44:15Z</time></trkpt><trkpt lat="38.25113166858309" lon="15.705224099165218"><ele>43.0</ele><time>2026-04-12T17:44:16Z</time></trkpt><trkpt lat="38.25114030453701" lon="15.705058700137391"><ele>43.0</ele><time>2026-04-12T17:44:17Z</time></trkpt><trkpt lat="38.25114958170959" lon="15.704906189665824"><ele>47.25</ele><time>2026-04-12T17:44:18Z</time></trkpt><trkpt lat="38.251165046268476" lon="15.704754135322293"><ele>51.5</ele><time>2026-04-12T17:44:19Z</time></trkpt><trkpt lat="38.25118638687293" lon="15.704612012710188"><ele>55.75</ele><time>2026-04-12T17:44:20Z</time></trkpt><trkpt lat="38.2512376456088" lon="15.70447674159562"><ele>60.0</ele><time>2026-04-12T17:44:21Z</time></trkpt><trkpt lat="38.251296025758755" lon="15.704342704326038"><ele>64.4</ele><time>2026-04-12T17:44:22Z</time></trkpt><trkpt lat="38.251349142547056" lon="15.704213670363782"><ele>68.8</ele><time>2026-04-12T17:44:23Z</time></trkpt><trkpt lat="38.25140990426081" lon="15.704104151573382"><ele>73.19999999999999</ele><time>2026-04-12T17:44:24Z</time></trkpt><trkpt lat="38.251463871334714" lon="15.703994024347287"><ele>77.6</ele><time>2026-04-12T17:44:25Z</time></trkpt><trkpt lat="38.2515374245755" lon="15.703912421621494"><ele>82.0</ele><time>2026-04-12T17:44:26Z</time></trkpt><trkpt lat="38.251631788497164" lon="15.703875994259272"><ele>68.75</ele><time>2026-04-12T17:44:27Z</time></trkpt><trkpt lat="38.251743827615684" lon="15.70381927772046"><ele>55.5</ele><time>2026-04-12T17:44:28Z</time></trkpt><trkpt lat="38.25185709205707" lon="15.703760302234919"><ele>42.25</ele><time>2026-04-12T17:44:29Z</time></trkpt><trkpt lat="38.25197230049402" lon="15.70368944278387"><ele>29.0</ele><time>2026-04-12T17:44:30Z</time></trkpt><trkpt lat="38.25205245401844" lon="15.703596144322088"><ele>26.5</ele><time>2026-04-12T17:44:31Z</time></trkpt><trkpt lat="38.25212784262766" lon="15.703502131776114"><ele>24.0</ele><time>2026-04-12T17:44:32Z</time></trkpt><trkpt lat="38.25218730896006" lon="15.703374242534721"><ele>21.5</ele><time>2026-04-12T17:44:33Z</time></trkpt><trkpt lat="38.25223054580984" lon="15.703214138521107"><ele>19.0</ele><time>2026-04-12T17:44:34Z</time></trkpt><trkpt lat="38.25229066073362" lon="15.703058007690474"><ele>19.0</ele><time>2026-04-12T17:44:35Z</time></trkpt><trkpt lat="38.252346183934044" lon="15.702924785527872"><ele>19.0</ele><time>2026-04-12T17:44:36Z</time></trkpt><trkpt lat="38.252392273326144" lon="15.702802995916242"><ele>19.0</ele><time>2026-04-12T17:44:37Z</time></trkpt><trkpt lat="38.25245803809563" lon="15.702703209721811"><ele>19.0</ele><time>2026-04-12T17:44:38Z</time></trkpt><trkpt lat="38.252526359010346" lon="15.70260268482284"><ele>19.0</ele><time>2026-04-12T17:44:39Z</time></trkpt><trkpt lat="38.25259450780906" lon="15.702498443403217"><ele>20.799999999999997</ele><time>2026-04-12T17:44:40Z</time></trkpt><trkpt lat="38.25265960737229" lon="15.702383798132878"><ele>22.599999999999998</ele><time>2026-04-12T17:44:41Z</time></trkpt><trkpt lat="38.252694123894905" lon="15.702267521781335"><ele>24.4</ele><time>2026-04-12T17:44:42Z</time></trkpt><trkpt lat="38.25270174251338" lon="15.702156392358557"><ele>26.2</ele><time>2026-04-12T17:44:43Z</time></trkpt><trkpt lat="38.25269011042934" lon="15.702053838149197"><ele>28.0</ele><time>2026-04-12T17:44:44Z</time></trkpt><trkpt lat="38.25263735768814" lon="15.70195572372304"><ele>28.25</ele><time>2026-04-12T17:44:45Z</time></trkpt><trkpt lat="38.25256147689917" lon="15.701858970034637"><ele>28.5</ele><time>2026-04-12T17:44:46Z</time></trkpt><trkpt lat="38.252444300282825" lon="15.701769389738848"><ele>28.75</ele><time>2026-04-12T17:44:47Z</time></trkpt><trkpt lat="38.25235789351314" lon="15.701658415586028"><ele>29.0</ele><time>2026-04-12T17:44:48Z</time></trkpt><trkpt lat="38.2522985370401" lon="15.701562870374799"><ele>35.33333333333333</ele><time>2026-04-12T17:44:49Z</time></trkpt><trkpt lat="38.252249278275244" lon="15.7014513492716"><ele>41.666666666666664</ele><time>2026-04-12T17:44:50Z</time></trkpt><trkpt lat="38.25220186609837" lon="15.701337534870476"><ele>48.0</ele><time>2026-04-12T17:44:51Z</time></trkpt><trkpt lat="38.25215570902348" lon="15.701247794268461"><ele>54.33333333333333</ele><time>2026-04-12T17:44:52Z</time></trkpt><trkpt lat="38.25210170506656" lon="15.701181606014083"><ele>60.666666666666664</ele><time>2026-04-12T17:44:53Z</time></trkpt><trkpt lat="38.25203374846909" lon="15.701127699272542"><ele>67.0</ele><time>2026-04-12T17:44:54Z</time></trkpt><trkpt lat="38.25194143987587" lon="15.701101495360628"><ele>67.0</ele><time>2026-04-12T17:44:55Z</time></trkpt><trkpt lat="38.25185360971061" lon="15.70108409938859"><ele>67.0</ele><time>2026-04-12T17:44:56Z</time></trkpt><trkpt lat="38.25179317363564" lon="15.701052922758295"><ele>67.0</ele><time>2026-04-12T17:44:57Z</time></trkpt><trkpt lat="38.25172970953953" lon="15.700988969434073"><ele>67.0</ele><time>2026-04-12T17:44:58Z</time></trkpt><trkpt lat="38.251681030058535" lon="15.700891686141324"><ele>67.0</ele><time>2026-04-12T17:44:59Z</time></trkpt><trkpt lat="38.251678500340375" lon="15.700765296741503"><ele>67.0</ele><time>2026-04-12T17:45:00Z</time></trkpt><trkpt lat="38.25164552271945" lon="15.700644877818183"><ele>66.5</ele><time>2026-04-12T17:45:01Z</time></trkpt><trkpt lat="38.25162484627674" lon="15.700506433304307"><ele>66.0</ele><time>2026-04-12T17:45:02Z</time></trkpt><trkpt lat="38.25157486109224" lon="15.700365028519302"><ele>65.5</ele><time>2026-04-12T17:45:03Z</time></trkpt><trkpt lat="38.25151077198224" lon="15.70024256923679"><ele>65.0</ele><time>2026-04-12T17:45:04Z</time></trkpt><trkpt lat="38.25143260548661" lon="15.70012080135905"><ele>65.0</ele><time>2026-04-12T17:45:05Z</time></trkpt><trkpt lat="38.251353148708645" lon="15.699997337125692"><ele>65.0</ele><time>2026-04-12T17:45:06Z</time></trkpt><trkpt lat="38.251264253024935" lon="15.699883228694242"><ele>65.0</ele><time>2026-04-12T17:45:07Z</time></trkpt><trkpt lat="38.25119291831979" lon="15.699763939759027"><ele>65.0</ele><time>2026-04-12T17:45:08Z</time></trkpt><trkpt lat="38.25113236555033" lon="15.699651445564093"><ele>65.0</ele><time>2026-04-12T17:45:09Z</time></trkpt><trkpt lat="38.25109341304441" lon="15.699513547951016"><ele>65.0</ele><time>2026-04-12T17:45:10Z</time></trkpt><trkpt lat="38.251055280048234" lon="15.699360109345864"><ele>65.0</ele><time>2026-04-12T17:45:11Z</time></trkpt><trkpt lat="38.25104263385332" lon="15.699186083014284"><ele>65.0</ele><time>2026-04-12T17:45:12Z</time></trkpt><trkpt lat="38.25103121565224" lon="15.69900750513937"><ele>63.75</ele><time>2026-04-12T17:45:13Z</time></trkpt><trkpt lat="38.251029527932744" lon="15.69884047321169"><ele>62.5</ele><time>2026-04-12T17:45:14Z</time></trkpt><trkpt lat="38.25102525589376" lon="15.69868192053483"><ele>61.25</ele><time>2026-04-12T17:45:15Z</time></trkpt><trkpt lat="38.251041543167574" lon="15.698531723099402"><ele>60.0</ele><time>2026-04-12T17:45:16Z</time></trkpt><trkpt lat="38.251021509293885" lon="15.698370938494303"><ele>57.75</ele><time>2026-04-12T17:45:17Z</time></trkpt><trkpt lat="38.250990507720196" lon="15.698201375455774"><ele>55.5</ele><time>2026-04-12T17:45:18Z</time></trkpt><trkpt lat="38.25093922490756" lon="15.698050041657234"><ele>53.25</ele><time>2026-04-12T17:45:19Z</time></trkpt><trkpt lat="38.250871924333545" lon="15.697907208870687"><ele>51.0</ele><time>2026-04-12T17:45:20Z</time></trkpt><trkpt lat="38.25081072850277" lon="15.697763442154342"><ele>47.25</ele><time>2026-04-12T17:45:21Z</time></trkpt><trkpt lat="38.250752661046874" lon="15.697626442462061"><ele>43.5</ele><time>2026-04-12T17:45:22Z</time></trkpt><trkpt lat="38.2506986700135" lon="15.697490687409166"><ele>39.75</ele><time>2026-04-12T17:45:23Z</time></trkpt><trkpt lat="38.250645163871795" lon="15.69736122157454"><ele>36.0</ele><time>2026-04-12T17:45:24Z</time></trkpt><trkpt lat="38.25060484081795" lon="15.697224516874854"><ele>35.0</ele><time>2026-04-12T17:45:25Z</time></trkpt><trkpt lat="38.25058084989017" lon="15.697070135703497"><ele>34.0</ele><time>2026-04-12T17:45:26Z</time></trkpt><trkpt lat="38.25058669662464" lon="15.696904613925751"><ele>33.0</ele><time>2026-04-12T17:45:27Z</time></trkpt><trkpt lat="38.2505776305524" lon="15.696740308575128"><ele>32.0</ele><time>2026-04-12T17:45:28Z</time></trkpt><trkpt lat="38.250629955903996" lon="15.696589403323593"><ele>32.0</ele><time>2026-04-12T17:45:29Z</time></trkpt><trkpt lat="38.25064087496069" lon="15.696424910542445"><ele>32.0</ele><time>2026-04-12T17:45:30Z</time></trkpt><trkpt lat="38.250675627180755" lon="15.696265265750021"><ele>32.0</ele><time>2026-04-12T17:45:31Z</time></trkpt><trkpt lat="38.25068552018077" lon="15.696100367202211"><ele>32.0</ele><time>2026-04-12T17:45:32Z</time></trkpt><trkpt lat="38.250692562723316" lon="15.69593702533265"><ele>31.6</ele><time>2026-04-12T17:45:33Z</time></trkpt><trkpt lat="38.25070158461579" lon="15.695779296371104"><ele>31.200000000000003</ele><time>2026-04-12T17:45:34Z</time></trkpt><trkpt lat="38.25070204595286" lon="15.695637355157784"><ele>30.8</ele><time>2026-04-12T17:45:35Z</time></trkpt><trkpt lat="38.25070732652769" lon="15.69550514165674"><ele>30.4</ele><time>2026-04-12T17:45:36Z</time></trkpt><trkpt lat="38.25071399607738" lon="15.695370397560287"><ele>30.0</ele><time>2026-04-12T17:45:37Z</time></trkpt><trkpt lat="38.250729695607696" lon="15.695227482196819"><ele>30.0</ele><time>2026-04-12T17:45:38Z</time></trkpt><trkpt lat="38.2507515376947" lon="15.695078729794202"><ele>30.0</ele><time>2026-04-12T17:45:39Z</time></trkpt><trkpt lat="38.250774966317024" lon="15.69494278972466"><ele>30.0</ele><time>2026-04-12T17:45:40Z</time></trkpt><trkpt lat="38.25080202901149" lon="15.694815981212379"><ele>30.0</ele><time>2026-04-12T17:45:41Z</time></trkpt><trkpt lat="38.2507978165223" lon="15.694685037802666"><ele>30.0</ele><time>2026-04-12T17:45:42Z</time></trkpt><trkpt lat="38.25078348480338" lon="15.694535639572923"><ele>27.8</ele><time>2026-04-12T17:45:43Z</time></trkpt><trkpt lat="38.250746701200924" lon="15.694391293920646"><ele>25.6</ele><time>2026-04-12T17:45:44Z</time></trkpt><trkpt lat="38.250721038718304" lon="15.694257163370226"><ele>23.4</ele><time>2026-04-12T17:45:45Z</time></trkpt><trkpt lat="38.25066342806552" lon="15.694150136297608"><ele>21.2</ele><time>2026-04-12T17:45:46Z</time></trkpt><trkpt lat="38.250596776062594" lon="15.69403921289764"><ele>19.0</ele><time>2026-04-12T17:45:47Z</time></trkpt><trkpt lat="38.2505288909938" lon="15.693914238400868"><ele>28.799999999999997</ele><time>2026-04-12T17:45:48Z</time></trkpt><trkpt lat="38.250453066888" lon="15.693823394346126"><ele>38.599999999999994</ele><time>2026-04-12T17:45:49Z</time></trkpt><trkpt lat="38.25037132624993" lon="15.693742282297222"><ele>48.4</ele><time>2026-04-12T17:45:50Z</time></trkpt><trkpt lat="38.25030108464217" lon="15.693688441417248"><ele>58.199999999999996</ele><time>2026-04-12T17:45:51Z</time></trkpt><trkpt lat="38.25025125861136" lon="15.69363198040217"><ele>68.0</ele><time>2026-04-12T17:45:52Z</time></trkpt><trkpt lat="38.250230055259856" lon="15.693492204881563"><ele>68.0</ele><time>2026-04-12T17:45:54Z</time></trkpt><trkpt lat="38.25027510516957" lon="15.693397586442225"><ele>68.0</ele><time>2026-04-12T17:45:55Z</time></trkpt><trkpt lat="38.25036668575801" lon="15.693337348180956"><ele>68.0</ele><time>2026-04-12T17:45:56Z</time></trkpt><trkpt lat="38.25044244126765" lon="15.693253355578781"><ele>68.0</ele><time>2026-04-12T17:45:57Z</time></trkpt><trkpt lat="38.25050921303096" lon="15.693188482053085"><ele>68.0</ele><time>2026-04-12T17:45:58Z</time></trkpt><trkpt lat="38.25054966343542" lon="15.693102669829276"><ele>68.0</ele><time>2026-04-12T17:45:59Z</time></trkpt><trkpt lat="38.250565055415095" lon="15.692998460633225"><ele>68.0</ele><time>2026-04-12T17:46:00Z</time></trkpt><trkpt lat="38.2505669313127" lon="15.692858658232398"><ele>68.0</ele><time>2026-04-12T17:46:01Z</time></trkpt><trkpt lat="38.25055164253805" lon="15.69271733937242"><ele>68.0</ele><time>2026-04-12T17:46:02Z</time></trkpt><trkpt lat="38.250538372891505" lon="15.692581095018978"><ele>68.0</ele><time>2026-04-12T17:46:03Z</time></trkpt><trkpt lat="38.25049871583984" lon="15.692438063481159"><ele>69.25</ele><time>2026-04-12T17:46:04Z</time></trkpt><trkpt lat="38.25046254124202" lon="15.692302097057244"><ele>70.5</ele><time>2026-04-12T17:46:05Z</time></trkpt><trkpt lat="38.250430152027675" lon="15.692169034561319"><ele>71.75</ele><time>2026-04-12T17:46:06Z</time></trkpt><trkpt lat="38.250395867994534" lon="15.692029092503521"><ele>73.0</ele><time>2026-04-12T17:46:07Z</time></trkpt><trkpt lat="38.250363485378365" lon="15.691888165597733"><ele>69.25</ele><time>2026-04-12T17:46:08Z</time></trkpt><trkpt lat="38.25033251522106" lon="15.691747861204542"><ele>65.5</ele><time>2026-04-12T17:46:09Z</time></trkpt><trkpt lat="38.25028936238525" lon="15.691598428131352"><ele>61.75</ele><time>2026-04-12T17:46:10Z</time></trkpt><trkpt lat="38.250242858351584" lon="15.691443107892038"><ele>58.0</ele><time>2026-04-12T17:46:11Z</time></trkpt><trkpt lat="38.250202230925744" lon="15.691283281363134"><ele>58.0</ele><time>2026-04-12T17:46:12Z</time></trkpt><trkpt lat="38.25015716432085" lon="15.691150765894022"><ele>58.0</ele><time>2026-04-12T17:46:13Z</time></trkpt><trkpt lat="38.250101543306926" lon="15.691022179474132"><ele>58.0</ele><time>2026-04-12T17:46:14Z</time></trkpt><trkpt lat="38.25006809014521" lon="15.690899433091634"><ele>58.0</ele><time>2026-04-12T17:46:15Z</time></trkpt><trkpt lat="38.250025701085775" lon="15.690779857189831"><ele>58.0</ele><time>2026-04-12T17:46:16Z</time></trkpt><trkpt lat="38.24997846225792" lon="15.690661494053586"><ele>57.25</ele><time>2026-04-12T17:46:17Z</time></trkpt><trkpt lat="38.24993278127751" lon="15.690535471598242"><ele>56.5</ele><time>2026-04-12T17:46:18Z</time></trkpt><trkpt lat="38.24988939638672" lon="15.690410885502589"><ele>55.75</ele><time>2026-04-12T17:46:19Z</time></trkpt><trkpt lat="38.24981588078179" lon="15.690306776939615"><ele>55.0</ele><time>2026-04-12T17:46:20Z</time></trkpt><trkpt lat="38.24971588509592" lon="15.690209097574083"><ele>55.0</ele><time>2026-04-12T17:46:21Z</time></trkpt><trkpt lat="38.24961407195985" lon="15.690133380903692"><ele>55.0</ele><time>2026-04-12T17:46:22Z</time></trkpt><trkpt lat="38.2494988571874" lon="15.690047965455856"><ele>55.0</ele><time>2026-04-12T17:46:23Z</time></trkpt><trkpt lat="38.249386370037385" lon="15.689950933901303"><ele>55.0</ele><time>2026-04-12T17:46:24Z</time></trkpt><trkpt lat="38.24927114313983" lon="15.689849175222557"><ele>55.0</ele><time>2026-04-12T17:46:25Z</time></trkpt><trkpt lat="38.24915634210755" lon="15.689752066920493"><ele>55.0</ele><time>2026-04-12T17:46:26Z</time></trkpt><trkpt lat="38.249052995256115" lon="15.689665955712437"><ele>55.0</ele><time>2026-04-12T17:46:27Z</time></trkpt><trkpt lat="38.248955570947814" lon="15.689580579475054"><ele>55.0</ele><time>2026-04-12T17:46:28Z</time></trkpt><trkpt lat="38.24885886675562" lon="15.689499667436557"><ele>50.5</ele><time>2026-04-12T17:46:29Z</time></trkpt><trkpt lat="38.24875948219648" lon="15.689420548059038"><ele>46.0</ele><time>2026-04-12T17:46:30Z</time></trkpt><trkpt lat="38.24865664510655" lon="15.68935123830868"><ele>41.5</ele><time>2026-04-12T17:46:31Z</time></trkpt><trkpt lat="38.24854135519276" lon="15.689277971201255"><ele>37.0</ele><time>2026-04-12T17:46:32Z</time></trkpt><trkpt lat="38.2484545820368" lon="15.689221130059718"><ele>37.0</ele><time>2026-04-12T17:46:33Z</time></trkpt><trkpt lat="38.248361446323685" lon="15.689124639014679"><ele>37.0</ele><time>2026-04-12T17:46:34Z</time></trkpt><trkpt lat="38.24827101443575" lon="15.689006261760358"><ele>37.0</ele><time>2026-04-12T17:46:35Z</time></trkpt><trkpt lat="38.24819604698602" lon="15.688868659157995"><ele>37.0</ele><time>2026-04-12T17:46:36Z</time></trkpt><trkpt lat="38.248126035274105" lon="15.688720647374222"><ele>43.75</ele><time>2026-04-12T17:46:37Z</time></trkpt><trkpt lat="38.2480663368915" lon="15.688567592927667"><ele>50.5</ele><time>2026-04-12T17:46:38Z</time></trkpt><trkpt lat="38.24801996001808" lon="15.688402854680453"><ele>57.25</ele><time>2026-04-12T17:46:39Z</time></trkpt><trkpt lat="38.24797937117035" lon="15.688241070578007"><ele>64.0</ele><time>2026-04-12T17:46:40Z</time></trkpt><trkpt lat="38.24794208267397" lon="15.68809938344839"><ele>64.0</ele><time>2026-04-12T17:46:41Z</time></trkpt><trkpt lat="38.247897346677995" lon="15.687965579188095"><ele>64.0</ele><time>2026-04-12T17:46:42Z</time></trkpt><trkpt lat="38.24785114426127" lon="15.687838688068863"><ele>64.0</ele><time>2026-04-12T17:46:43Z</time></trkpt><trkpt lat="38.24779423107415" lon="15.687700627791953"><ele>64.0</ele><time>2026-04-12T17:46:44Z</time></trkpt><trkpt lat="38.247730411077434" lon="15.687576929539105"><ele>56.0</ele><time>2026-04-12T17:46:45Z</time></trkpt><trkpt lat="38.24765023888051" lon="15.687458493406973"><ele>48.0</ele><time>2026-04-12T17:46:46Z</time></trkpt><trkpt lat="38.24756373970557" lon="15.687345726009202"><ele>40.0</ele><time>2026-04-12T17:46:47Z</time></trkpt><trkpt lat="38.24748302534523" lon="15.687232954430579"><ele>32.0</ele><time>2026-04-12T17:46:48Z</time></trkpt><trkpt lat="38.24740948707344" lon="15.687128341555654"><ele>32.0</ele><time>2026-04-12T17:46:49Z</time></trkpt><trkpt lat="38.24734876697963" lon="15.687034989025458"><ele>32.0</ele><time>2026-04-12T17:46:50Z</time></trkpt><trkpt lat="38.24731815754238" lon="15.686891240419618"><ele>32.0</ele><time>2026-04-12T17:46:51Z</time></trkpt><trkpt lat="38.247279812978874" lon="15.686750625860558"><ele>32.0</ele><time>2026-04-12T17:46:52Z</time></trkpt><trkpt lat="38.247255253966756" lon="15.6865850712996"><ele>35.25</ele><time>2026-04-12T17:46:53Z</time></trkpt><trkpt lat="38.247222216569135" lon="15.686408837425756"><ele>38.5</ele><time>2026-04-12T17:46:54Z</time></trkpt><trkpt lat="38.247185138634876" lon="15.686262292133"><ele>41.75</ele><time>2026-04-12T17:46:55Z</time></trkpt><trkpt lat="38.24714978590769" lon="15.686118806931429"><ele>45.0</ele><time>2026-04-12T17:46:56Z</time></trkpt><trkpt lat="38.24714799964213" lon="15.685995694081763"><ele>50.0</ele><time>2026-04-12T17:46:57Z</time></trkpt><trkpt lat="38.247176487998786" lon="15.685862268760006"><ele>55.0</ele><time>2026-04-12T17:46:58Z</time></trkpt><trkpt lat="38.24723303688462" lon="15.6857245630273"><ele>60.0</ele><time>2026-04-12T17:46:59Z</time></trkpt><trkpt lat="38.24730288449894" lon="15.685596680509619"><ele>65.0</ele><time>2026-04-12T17:47:00Z</time></trkpt><trkpt lat="38.24736925061521" lon="15.685461437218086"><ele>56.25</ele><time>2026-04-12T17:47:01Z</time></trkpt><trkpt lat="38.24742890499647" lon="15.685303799395449"><ele>47.5</ele><time>2026-04-12T17:47:02Z</time></trkpt><trkpt lat="38.247487196074125" lon="15.685151663915454"><ele>38.75</ele><time>2026-04-12T17:47:03Z</time></trkpt><trkpt lat="38.24755028928628" lon="15.685001035937127"><ele>30.0</ele><time>2026-04-12T17:47:04Z</time></trkpt><trkpt lat="38.24760133350272" lon="15.684853624518402"><ele>30.0</ele><time>2026-04-12T17:47:05Z</time></trkpt><trkpt lat="38.247653372284745" lon="15.684703140950145"><ele>30.0</ele><time>2026-04-12T17:47:06Z</time></trkpt><trkpt lat="38.24769579477919" lon="15.684542237573329"><ele>30.0</ele><time>2026-04-12T17:47:07Z</time></trkpt><trkpt lat="38.24772646222385" lon="15.68439582760749"><ele>30.0</ele><time>2026-04-12T17:47:08Z</time></trkpt><trkpt lat="38.247760020169274" lon="15.68424524346618"><ele>30.75</ele><time>2026-04-12T17:47:09Z</time></trkpt><trkpt lat="38.247779431314974" lon="15.684083367131823"><ele>31.5</ele><time>2026-04-12T17:47:10Z</time></trkpt><trkpt lat="38.24777276566036" lon="15.68391932709027"><ele>32.25</ele><time>2026-04-12T17:47:11Z</time></trkpt><trkpt lat="38.24774830840903" lon="15.683753491074077"><ele>33.0</ele><time>2026-04-12T17:47:12Z</time></trkpt><trkpt lat="38.247722877375466" lon="15.683583280911156"><ele>33.0</ele><time>2026-04-12T17:47:13Z</time></trkpt><trkpt lat="38.2476986522215" lon="15.683412481764378"><ele>33.0</ele><time>2026-04-12T17:47:14Z</time></trkpt><trkpt lat="38.247676411997176" lon="15.683246886742944"><ele>33.0</ele><time>2026-04-12T17:47:15Z</time></trkpt><trkpt lat="38.24765675426416" lon="15.683110573255535"><ele>33.0</ele><time>2026-04-12T17:47:16Z</time></trkpt><trkpt lat="38.2476354016284" lon="15.68297103716642"><ele>33.0</ele><time>2026-04-12T17:47:17Z</time></trkpt><trkpt lat="38.247612538138036" lon="15.682828583312263"><ele>33.0</ele><time>2026-04-12T17:47:18Z</time></trkpt><trkpt lat="38.24758111508883" lon="15.682680771111425"><ele>33.0</ele><time>2026-04-12T17:47:19Z</time></trkpt><trkpt lat="38.24753060303102" lon="15.682532594939756"><ele>33.0</ele><time>2026-04-12T17:47:20Z</time></trkpt><trkpt lat="38.24746683040341" lon="15.682382919487617"><ele>31.0</ele><time>2026-04-12T17:47:21Z</time></trkpt><trkpt lat="38.24742630015663" lon="15.682243326530754"><ele>29.0</ele><time>2026-04-12T17:47:22Z</time></trkpt><trkpt lat="38.24736846945598" lon="15.682116970590274"><ele>27.0</ele><time>2026-04-12T17:47:23Z</time></trkpt><trkpt lat="38.2473539453925" lon="15.681980145572275"><ele>25.0</ele><time>2026-04-12T17:47:24Z</time></trkpt><trkpt lat="38.2473567994011" lon="15.681833201884563"><ele>23.25</ele><time>2026-04-12T17:47:25Z</time></trkpt><trkpt lat="38.24735402259963" lon="15.681669874560734"><ele>21.5</ele><time>2026-04-12T17:47:26Z</time></trkpt><trkpt lat="38.247342392065484" lon="15.681508055963096"><ele>19.75</ele><time>2026-04-12T17:47:27Z</time></trkpt><trkpt lat="38.247317391684874" lon="15.681351733543815"><ele>18.0</ele><time>2026-04-12T17:47:28Z</time></trkpt><trkpt lat="38.247285241595904" lon="15.681191500894371"><ele>29.25</ele><time>2026-04-12T17:47:29Z</time></trkpt><trkpt lat="38.24725735900105" lon="15.681025748286514"><ele>40.5</ele><time>2026-04-12T17:47:30Z</time></trkpt><trkpt lat="38.247240976943466" lon="15.680853947675171"><ele>51.75</ele><time>2026-04-12T17:47:31Z</time></trkpt><trkpt lat="38.247213390899674" lon="15.680703896689606"><ele>63.0</ele><time>2026-04-12T17:47:32Z</time></trkpt><trkpt lat="38.24718198129995" lon="15.680550193778325"><ele>63.0</ele><time>2026-04-12T17:47:33Z</time></trkpt><trkpt lat="38.24714075209678" lon="15.680399297090265"><ele>63.0</ele><time>2026-04-12T17:47:34Z</time></trkpt><trkpt lat="38.24709915742387" lon="15.680247635777507"><ele>63.0</ele><time>2026-04-12T17:47:35Z</time></trkpt><trkpt lat="38.2470610589399" lon="15.680097794688198"><ele>63.0</ele><time>2026-04-12T17:47:36Z</time></trkpt><trkpt lat="38.24702672938142" lon="15.679956526782098"><ele>60.0</ele><time>2026-04-12T17:47:37Z</time></trkpt><trkpt lat="38.246991124647124" lon="15.679829053094945"><ele>57.0</ele><time>2026-04-12T17:47:38Z</time></trkpt><trkpt lat="38.24695064550627" lon="15.67970872286251"><ele>54.0</ele><time>2026-04-12T17:47:39Z</time></trkpt><trkpt lat="38.24689810134302" lon="15.67960192176219"><ele>51.0</ele><time>2026-04-12T17:47:40Z</time></trkpt><trkpt lat="38.24683419937312" lon="15.679492983750924"><ele>48.0</ele><time>2026-04-12T17:47:41Z</time></trkpt><trkpt lat="38.24676284000537" lon="15.67935864273695"><ele>47.75</ele><time>2026-04-12T17:47:42Z</time></trkpt><trkpt lat="38.24666954828373" lon="15.679250696336545"><ele>47.5</ele><time>2026-04-12T17:47:43Z</time></trkpt><trkpt lat="38.246551235728944" lon="15.679159887818665"><ele>47.25</ele><time>2026-04-12T17:47:44Z</time></trkpt><trkpt lat="38.2464463119325" lon="15.679042427073876"><ele>47.0</ele><time>2026-04-12T17:47:45Z</time></trkpt><trkpt lat="38.24635617752109" lon="15.678943045207992"><ele>47.0</ele><time>2026-04-12T17:47:46Z</time></trkpt><trkpt lat="38.24627005686736" lon="15.678851899970327"><ele>47.0</ele><time>2026-04-12T17:47:47Z</time></trkpt><trkpt lat="38.246189120916654" lon="15.678779311200055"><ele>47.0</ele><time>2026-04-12T17:47:48Z</time></trkpt><trkpt lat="38.24609357260481" lon="15.678717074308006"><ele>47.0</ele><time>2026-04-12T17:47:49Z</time></trkpt><trkpt lat="38.24598050194345" lon="15.678690124957832"><ele>47.0</ele><time>2026-04-12T17:47:50Z</time></trkpt><trkpt lat="38.245856801494874" lon="15.678690267457712"><ele>47.0</ele><time>2026-04-12T17:47:51Z</time></trkpt><trkpt lat="38.24574225398631" lon="15.67868478007133"><ele>47.0</ele><time>2026-04-12T17:47:52Z</time></trkpt><trkpt lat="38.245630615510144" lon="15.67865900489634"><ele>47.0</ele><time>2026-04-12T17:47:53Z</time></trkpt><trkpt lat="38.24552660296081" lon="15.67861712345822"><ele>47.0</ele><time>2026-04-12T17:47:54Z</time></trkpt><trkpt lat="38.245426591694546" lon="15.678574414909317"><ele>47.0</ele><time>2026-04-12T17:47:55Z</time></trkpt><trkpt lat="38.24532275909011" lon="15.678522003037227"><ele>44.0</ele><time>2026-04-12T17:47:56Z</time></trkpt><trkpt lat="38.245221271143826" lon="15.678430497562022"><ele>41.0</ele><time>2026-04-12T17:47:57Z</time></trkpt><trkpt lat="38.24512461659508" lon="15.678329097423536"><ele>38.0</ele><time>2026-04-12T17:47:58Z</time></trkpt><trkpt lat="38.245036252004994" lon="15.678233022275789"><ele>35.0</ele><time>2026-04-12T17:47:59Z</time></trkpt><trkpt lat="38.244931365837594" lon="15.678156235262643"><ele>35.0</ele><time>2026-04-12T17:48:00Z</time></trkpt><trkpt lat="38.24483570905476" lon="15.678085959464338"><ele>35.0</ele><time>2026-04-12T17:48:01Z</time></trkpt><trkpt lat="38.24473654540925" lon="15.67802503826496"><ele>35.0</ele><time>2026-04-12T17:48:02Z</time></trkpt><trkpt lat="38.244682907322925" lon="15.677939626647579"><ele>35.0</ele><time>2026-04-12T17:48:03Z</time></trkpt><trkpt lat="38.24464216328245" lon="15.677808198727867"><ele>35.0</ele><time>2026-04-12T17:48:04Z</time></trkpt><trkpt lat="38.24465014421811" lon="15.677658628041309"><ele>40.5</ele><time>2026-04-12T17:48:05Z</time></trkpt><trkpt lat="38.24463966715477" lon="15.677493589569908"><ele>46.0</ele><time>2026-04-12T17:48:06Z</time></trkpt><trkpt lat="38.24461359716848" lon="15.677334513715824"><ele>51.5</ele><time>2026-04-12T17:48:07Z</time></trkpt><trkpt lat="38.24457752209612" lon="15.677174089376265"><ele>57.0</ele><time>2026-04-12T17:48:08Z</time></trkpt><trkpt lat="38.24454529793578" lon="15.677026974522823"><ele>53.6</ele><time>2026-04-12T17:48:09Z</time></trkpt><trkpt lat="38.24451470358825" lon="15.676885910578795"><ele>50.2</ele><time>2026-04-12T17:48:10Z</time></trkpt><trkpt lat="38.24448792567804" lon="15.6767524317131"><ele>46.8</ele><time>2026-04-12T17:48:11Z</time></trkpt><trkpt lat="38.24446119860399" lon="15.676625911489205"><ele>43.4</ele><time>2026-04-12T17:48:12Z</time></trkpt><trkpt lat="38.24442772673705" lon="15.676499186334377"><ele>40.0</ele><time>2026-04-12T17:48:13Z</time></trkpt><trkpt lat="38.24436433135862" lon="15.676380243900546"><ele>40.0</ele><time>2026-04-12T17:48:14Z</time></trkpt><trkpt lat="38.24428043704163" lon="15.676292708121178"><ele>40.0</ele><time>2026-04-12T17:48:15Z</time></trkpt><trkpt lat="38.24420067146692" lon="15.676189410678278"><ele>40.0</ele><time>2026-04-12T17:48:16Z</time></trkpt><trkpt lat="38.24411156120103" lon="15.676098714827038"><ele>40.0</ele><time>2026-04-12T17:48:17Z</time></trkpt><trkpt lat="38.24400884377224" lon="15.67599712205105"><ele>42.0</ele><time>2026-04-12T17:48:18Z</time></trkpt><trkpt lat="38.24390555958906" lon="15.675888642505246"><ele>44.0</ele><time>2026-04-12T17:48:19Z</time></trkpt><trkpt lat="38.24379930606523" lon="15.675778739085615"><ele>46.0</ele><time>2026-04-12T17:48:20Z</time></trkpt><trkpt lat="38.24369504709308" lon="15.675672840020644"><ele>48.0</ele><time>2026-04-12T17:48:21Z</time></trkpt><trkpt lat="38.243586642002086" lon="15.67557922410342"><ele>48.0</ele><time>2026-04-12T17:48:22Z</time></trkpt><trkpt lat="38.24346794946803" lon="15.67551175920564"><ele>48.0</ele><time>2026-04-12T17:48:23Z</time></trkpt><trkpt lat="38.24333475043583" lon="15.67547207023468"><ele>48.0</ele><time>2026-04-12T17:48:24Z</time></trkpt><trkpt lat="38.24320679872697" lon="15.675443336316073"><ele>48.0</ele><time>2026-04-12T17:48:25Z</time></trkpt><trkpt lat="38.24307495989555" lon="15.675421180157915"><ele>46.5</ele><time>2026-04-12T17:48:26Z</time></trkpt><trkpt lat="38.24294616368312" lon="15.67540118816016"><ele>45.0</ele><time>2026-04-12T17:48:27Z</time></trkpt><trkpt lat="38.24281439570494" lon="15.675382325941344"><ele>43.5</ele><time>2026-04-12T17:48:28Z</time></trkpt><trkpt lat="38.24270121165019" lon="15.67538223634257"><ele>42.0</ele><time>2026-04-12T17:48:29Z</time></trkpt><trkpt lat="38.24259346001032" lon="15.675362895672945"><ele>42.0</ele><time>2026-04-12T17:48:30Z</time></trkpt><trkpt lat="38.242502083500696" lon="15.675355602674289"><ele>42.0</ele><time>2026-04-12T17:48:31Z</time></trkpt><trkpt lat="38.24242211673649" lon="15.67537224304087"><ele>42.0</ele><time>2026-04-12T17:48:32Z</time></trkpt><trkpt lat="38.24234502295496" lon="15.675413222592548"><ele>42.0</ele><time>2026-04-12T17:48:33Z</time></trkpt><trkpt lat="38.242270711035864" lon="15.675465515329574"><ele>42.0</ele><time>2026-04-12T17:48:34Z</time></trkpt><trkpt lat="38.24219298708429" lon="15.67551958153906"><ele>42.0</ele><time>2026-04-12T17:48:35Z</time></trkpt><trkpt lat="38.24210663930464" lon="15.675544570127203"><ele>43.2</ele><time>2026-04-12T17:48:36Z</time></trkpt><trkpt lat="38.24201921632059" lon="15.675576265280748"><ele>44.400000000000006</ele><time>2026-04-12T17:48:37Z</time></trkpt><trkpt lat="38.24192792376945" lon="15.675580519032707"><ele>45.599999999999994</ele><time>2026-04-12T17:48:38Z</time></trkpt><trkpt lat="38.241836222567166" lon="15.675537271398087"><ele>46.8</ele><time>2026-04-12T17:48:39Z</time></trkpt><trkpt lat="38.24175585085635" lon="15.675441370496145"><ele>48.0</ele><time>2026-04-12T17:48:40Z</time></trkpt><trkpt lat="38.24165449247337" lon="15.675363036162533"><ele>44.5</ele><time>2026-04-12T17:48:41Z</time></trkpt><trkpt lat="38.24156846062584" lon="15.675259188116561"><ele>41.0</ele><time>2026-04-12T17:48:42Z</time></trkpt><trkpt lat="38.241469571021156" lon="15.675162436204"><ele>37.5</ele><time>2026-04-12T17:48:43Z</time></trkpt><trkpt lat="38.24136661046227" lon="15.675066198793893"><ele>34.0</ele><time>2026-04-12T17:48:44Z</time></trkpt><trkpt lat="38.2412782535612" lon="15.674987421352647"><ele>34.0</ele><time>2026-04-12T17:48:45Z</time></trkpt><trkpt lat="38.241182614491905" lon="15.674907472648245"><ele>34.0</ele><time>2026-04-12T17:48:46Z</time></trkpt><trkpt lat="38.241092567955484" lon="15.674838679304198"><ele>34.0</ele><time>2026-04-12T17:48:47Z</time></trkpt><trkpt lat="38.24101792801195" lon="15.674779308783553"><ele>34.0</ele><time>2026-04-12T17:48:48Z</time></trkpt><trkpt lat="38.24095054681828" lon="15.674718999847576"><ele>34.0</ele><time>2026-04-12T17:48:49Z</time></trkpt><trkpt lat="38.24089246406671" lon="15.67466185171254"><ele>34.0</ele><time>2026-04-12T17:48:50Z</time></trkpt><trkpt lat="38.24083556682058" lon="15.674605964971885"><ele>34.0</ele><time>2026-04-12T17:48:51Z</time></trkpt><trkpt lat="38.24076017374871" lon="15.674509310000705"><ele>34.0</ele><time>2026-04-12T17:48:53Z</time></trkpt><trkpt lat="38.240692631622956" lon="15.674431896483796"><ele>34.0</ele><time>2026-04-12T17:48:55Z</time></trkpt><trkpt lat="38.24064121030969" lon="15.674368488509618"><ele>34.0</ele><time>2026-04-12T17:48:58Z</time></trkpt><trkpt lat="38.24057174819788" lon="15.674305224251183"><ele>34.0</ele><time>2026-04-12T17:50:26Z</time></trkpt><trkpt lat="38.240518168823705" lon="15.674252517371386"><ele>34.0</ele><time>2026-04-12T17:50:27Z</time></trkpt><trkpt lat="38.24046244773248" lon="15.674188365475656"><ele>34.0</ele><time>2026-04-12T17:50:28Z</time></trkpt><trkpt lat="38.240390742713814" lon="15.674102630480544"><ele>34.0</ele><time>2026-04-12T17:50:29Z</time></trkpt><trkpt lat="38.240303947183854" lon="15.674005626018054"><ele>34.0</ele><time>2026-04-12T17:50:30Z</time></trkpt><trkpt lat="38.24021473524427" lon="15.67390454371654"><ele>34.0</ele><time>2026-04-12T17:50:31Z</time></trkpt><trkpt lat="38.24013338301826" lon="15.673818581219836"><ele>34.0</ele><time>2026-04-12T17:50:32Z</time></trkpt><trkpt lat="38.24006005011137" lon="15.673719390245788"><ele>34.0</ele><time>2026-04-12T17:50:33Z</time></trkpt><trkpt lat="38.239959422456685" lon="15.67363538418726"><ele>34.0</ele><time>2026-04-12T17:50:34Z</time></trkpt><trkpt lat="38.23985610571191" lon="15.67352292734861"><ele>34.0</ele><time>2026-04-12T17:50:35Z</time></trkpt><trkpt lat="38.23976461789819" lon="15.673415411886713"><ele>37.75</ele><time>2026-04-12T17:50:36Z</time></trkpt><trkpt lat="38.23967129977099" lon="15.673315761314049"><ele>41.5</ele><time>2026-04-12T17:50:37Z</time></trkpt><trkpt lat="38.23957004351913" lon="15.673214349844843"><ele>45.25</ele><time>2026-04-12T17:50:38Z</time></trkpt><trkpt lat="38.23946683848245" lon="15.67311068959732"><ele>49.0</ele><time>2026-04-12T17:50:39Z</time></trkpt><trkpt lat="38.239353924890885" lon="15.673023138582685"><ele>49.0</ele><time>2026-04-12T17:50:40Z</time></trkpt><trkpt lat="38.23924000081874" lon="15.672956313091516"><ele>49.0</ele><time>2026-04-12T17:50:41Z</time></trkpt><trkpt lat="38.23912948545253" lon="15.672889359201754"><ele>49.0</ele><time>2026-04-12T17:50:42Z</time></trkpt><trkpt lat="38.23903475829702" lon="15.67281295176167"><ele>49.0</ele><time>2026-04-12T17:50:43Z</time></trkpt><trkpt lat="38.23895433054574" lon="15.672713041114191"><ele>52.5</ele><time>2026-04-12T17:50:44Z</time></trkpt><trkpt lat="38.23888667030259" lon="15.672594582701645"><ele>56.0</ele><time>2026-04-12T17:50:45Z</time></trkpt><trkpt lat="38.23883184799501" lon="15.672416971848007"><ele>59.5</ele><time>2026-04-12T17:50:46Z</time></trkpt><trkpt lat="38.23874707117921" lon="15.672233115418678"><ele>63.0</ele><time>2026-04-12T17:50:47Z</time></trkpt><trkpt lat="38.238672195855784" lon="15.67202203013678"><ele>57.666666666666664</ele><time>2026-04-12T17:50:48Z</time></trkpt><trkpt lat="38.23860859594929" lon="15.671835254722602"><ele>52.33333333333333</ele><time>2026-04-12T17:50:49Z</time></trkpt><trkpt lat="38.23855217922339" lon="15.671645869757523"><ele>47.0</ele><time>2026-04-12T17:50:50Z</time></trkpt><trkpt lat="38.23849272652988" lon="15.671426992340272"><ele>47.0</ele><time>2026-04-12T17:50:51Z</time></trkpt><trkpt lat="38.23843470180831" lon="15.67121005109334"><ele>47.0</ele><time>2026-04-12T17:50:52Z</time></trkpt><trkpt lat="38.23837488789213" lon="15.670999893653802"><ele>47.0</ele><time>2026-04-12T17:50:53Z</time></trkpt><trkpt lat="38.238315424262446" lon="15.67080286185501"><ele>45.33333333333333</ele><time>2026-04-12T17:50:54Z</time></trkpt><trkpt lat="38.23824363421522" lon="15.67061602965081"><ele>43.666666666666664</ele><time>2026-04-12T17:50:55Z</time></trkpt><trkpt lat="38.23816623378706" lon="15.670447912188417"><ele>42.0</ele><time>2026-04-12T17:50:56Z</time></trkpt><trkpt lat="38.238083807770984" lon="15.67028886294216"><ele>40.333333333333336</ele><time>2026-04-12T17:50:57Z</time></trkpt><trkpt lat="38.23800851330365" lon="15.670130652852865"><ele>38.66666666666667</ele><time>2026-04-12T17:50:58Z</time></trkpt><trkpt lat="38.23794324125165" lon="15.669948897898479"><ele>37.0</ele><time>2026-04-12T17:50:59Z</time></trkpt><trkpt lat="38.23789009973351" lon="15.669752521068315"><ele>37.0</ele><time>2026-04-12T17:51:00Z</time></trkpt><trkpt lat="38.23784025939056" lon="15.669545862931528"><ele>37.0</ele><time>2026-04-12T17:51:01Z</time></trkpt><trkpt lat="38.237792394833015" lon="15.66933193890345"><ele>37.0</ele><time>2026-04-12T17:51:02Z</time></trkpt><trkpt lat="38.237748197113326" lon="15.669113273789803"><ele>36.66666666666667</ele><time>2026-04-12T17:51:03Z</time></trkpt><trkpt lat="38.23771939954322" lon="15.66888832023248"><ele>36.333333333333336</ele><time>2026-04-12T17:51:04Z</time></trkpt><trkpt lat="38.2376598021877" lon="15.668670836041365"><ele>36.0</ele><time>2026-04-12T17:51:05Z</time></trkpt><trkpt lat="38.23761481940422" lon="15.668466171084887"><ele>33.666666666666664</ele><time>2026-04-12T17:51:06Z</time></trkpt><trkpt lat="38.23756324684494" lon="15.668256734804153"><ele>31.333333333333332</ele><time>2026-04-12T17:51:07Z</time></trkpt><trkpt lat="38.23749563836277" lon="15.668039818273474"><ele>29.0</ele><time>2026-04-12T17:51:08Z</time></trkpt><trkpt lat="38.23741415673312" lon="15.667830112198045"><ele>26.0</ele><time>2026-04-12T17:51:09Z</time></trkpt><trkpt lat="38.23734629116482" lon="15.667643726392226"><ele>23.0</ele><time>2026-04-12T17:51:10Z</time></trkpt><trkpt lat="38.237287350668936" lon="15.667463975729857"><ele>20.0</ele><time>2026-04-12T17:51:11Z</time></trkpt><trkpt lat="38.23724844972143" lon="15.66728948289656"><ele>28.0</ele><time>2026-04-12T17:51:12Z</time></trkpt><trkpt lat="38.23724185766286" lon="15.66712364153672"><ele>36.0</ele><time>2026-04-12T17:51:13Z</time></trkpt><trkpt lat="38.23726918442423" lon="15.66694089505623"><ele>44.0</ele><time>2026-04-12T17:51:14Z</time></trkpt><trkpt lat="38.237285973829415" lon="15.666760468378678"><ele>52.0</ele><time>2026-04-12T17:51:15Z</time></trkpt><trkpt lat="38.237256062746354" lon="15.66657537194543"><ele>52.666666666666664</ele><time>2026-04-12T17:51:16Z</time></trkpt><trkpt lat="38.237205442372236" lon="15.66638814570964"><ele>53.33333333333333</ele><time>2026-04-12T17:51:17Z</time></trkpt><trkpt lat="38.237156784317364" lon="15.666196032439268"><ele>54.0</ele><time>2026-04-12T17:51:18Z</time></trkpt><trkpt lat="38.23710238717814" lon="15.665996436579334"><ele>54.0</ele><time>2026-04-12T17:51:19Z</time></trkpt><trkpt lat="38.23706089585092" lon="15.665782418294407"><ele>54.0</ele><time>2026-04-12T17:51:20Z</time></trkpt><trkpt lat="38.23700508047633" lon="15.6655822823878"><ele>54.0</ele><time>2026-04-12T17:51:21Z</time></trkpt><trkpt lat="38.2369366632141" lon="15.665399050246567"><ele>51.5</ele><time>2026-04-12T17:51:22Z</time></trkpt><trkpt lat="38.23688398345867" lon="15.665217502318013"><ele>49.0</ele><time>2026-04-12T17:51:23Z</time></trkpt><trkpt lat="38.2368264743171" lon="15.665038427048973"><ele>46.5</ele><time>2026-04-12T17:51:24Z</time></trkpt><trkpt lat="38.23677758181697" lon="15.664867357253891"><ele>44.0</ele><time>2026-04-12T17:51:25Z</time></trkpt><trkpt lat="38.23672554601019" lon="15.6646937770289"><ele>44.0</ele><time>2026-04-12T17:51:26Z</time></trkpt><trkpt lat="38.236676012957034" lon="15.664529688484823"><ele>44.0</ele><time>2026-04-12T17:51:27Z</time></trkpt><trkpt lat="38.23661993273093" lon="15.664374847789825"><ele>44.0</ele><time>2026-04-12T17:51:28Z</time></trkpt><trkpt lat="38.23657319358935" lon="15.66422268465019"><ele>44.0</ele><time>2026-04-12T17:51:29Z</time></trkpt><trkpt lat="38.23649220403226" lon="15.66409056515405"><ele>43.75</ele><time>2026-04-12T17:51:30Z</time></trkpt><trkpt lat="38.2363916791835" lon="15.663991297593736"><ele>43.5</ele><time>2026-04-12T17:51:31Z</time></trkpt><trkpt lat="38.236294993491825" lon="15.663881895938598"><ele>43.25</ele><time>2026-04-12T17:51:32Z</time></trkpt><trkpt lat="38.23619007603923" lon="15.663793765779397"><ele>43.0</ele><time>2026-04-12T17:51:33Z</time></trkpt><trkpt lat="38.23607636675925" lon="15.663725907023933"><ele>43.0</ele><time>2026-04-12T17:51:34Z</time></trkpt><trkpt lat="38.23595567124065" lon="15.66362709332121"><ele>43.0</ele><time>2026-04-12T17:51:35Z</time></trkpt><trkpt lat="38.23582697528372" lon="15.663544664955921"><ele>43.0</ele><time>2026-04-12T17:51:36Z</time></trkpt><trkpt lat="38.235697990494735" lon="15.663463361904459"><ele>43.0</ele><time>2026-04-12T17:51:37Z</time></trkpt><trkpt lat="38.235571422078245" lon="15.663405740578273"><ele>43.25</ele><time>2026-04-12T17:51:38Z</time></trkpt><trkpt lat="38.235454805914934" lon="15.663324852177096"><ele>43.5</ele><time>2026-04-12T17:51:39Z</time></trkpt><trkpt lat="38.23533814360346" lon="15.663234269055655"><ele>43.75</ele><time>2026-04-12T17:51:40Z</time></trkpt><trkpt lat="38.23522681356642" lon="15.663160927517811"><ele>44.0</ele><time>2026-04-12T17:51:41Z</time></trkpt><trkpt lat="38.235123433218654" lon="15.663103624271258"><ele>44.0</ele><time>2026-04-12T17:51:42Z</time></trkpt><trkpt lat="38.235042333760894" lon="15.66303117542084"><ele>44.0</ele><time>2026-04-12T17:51:43Z</time></trkpt><trkpt lat="38.23496996974552" lon="15.662959675587054"><ele>44.0</ele><time>2026-04-12T17:51:44Z</time></trkpt><trkpt lat="38.234911846301664" lon="15.66285578025597"><ele>44.0</ele><time>2026-04-12T17:51:45Z</time></trkpt><trkpt lat="38.23485671173105" lon="15.662754224668355"><ele>44.0</ele><time>2026-04-12T17:51:46Z</time></trkpt><trkpt lat="38.234778816182946" lon="15.662646597274492"><ele>44.75</ele><time>2026-04-12T17:51:47Z</time></trkpt><trkpt lat="38.23470854723472" lon="15.662525023962798"><ele>45.5</ele><time>2026-04-12T17:51:48Z</time></trkpt><trkpt lat="38.23463619954891" lon="15.662388532226558"><ele>46.25</ele><time>2026-04-12T17:51:49Z</time></trkpt><trkpt lat="38.2345565219255" lon="15.66224964556398"><ele>47.0</ele><time>2026-04-12T17:51:50Z</time></trkpt><trkpt lat="38.23447776844036" lon="15.66212789657394"><ele>47.0</ele><time>2026-04-12T17:51:51Z</time></trkpt><trkpt lat="38.234411983457726" lon="15.662009300690459"><ele>47.0</ele><time>2026-04-12T17:51:52Z</time></trkpt><trkpt lat="38.234331962938754" lon="15.6619060214576"><ele>47.0</ele><time>2026-04-12T17:51:53Z</time></trkpt><trkpt lat="38.23426166865082" lon="15.661776518609294"><ele>47.0</ele><time>2026-04-12T17:51:54Z</time></trkpt><trkpt lat="38.23416370667931" lon="15.661642347133773"><ele>47.25</ele><time>2026-04-12T17:51:55Z</time></trkpt><trkpt lat="38.23407670862317" lon="15.661480620006447"><ele>47.5</ele><time>2026-04-12T17:51:56Z</time></trkpt><trkpt lat="38.234007254836065" lon="15.661325197318718"><ele>47.75</ele><time>2026-04-12T17:51:57Z</time></trkpt><trkpt lat="38.23394625752168" lon="15.66119173940149"><ele>48.0</ele><time>2026-04-12T17:51:58Z</time></trkpt><trkpt lat="38.23388359055234" lon="15.661074064052663"><ele>48.0</ele><time>2026-04-12T17:51:59Z</time></trkpt><trkpt lat="38.233843739199955" lon="15.6609481164144"><ele>48.0</ele><time>2026-04-12T17:52:00Z</time></trkpt><trkpt lat="38.23377530649046" lon="15.660800743198035"><ele>48.0</ele><time>2026-04-12T17:52:01Z</time></trkpt><trkpt lat="38.23370804979909" lon="15.66064483676163"><ele>48.0</ele><time>2026-04-12T17:52:02Z</time></trkpt><trkpt lat="38.23364524667282" lon="15.660488244720089"><ele>48.0</ele><time>2026-04-12T17:52:03Z</time></trkpt><trkpt lat="38.23357147922796" lon="15.660319588237785"><ele>48.0</ele><time>2026-04-12T17:52:04Z</time></trkpt><trkpt lat="38.23350181352472" lon="15.66015890089662"><ele>48.0</ele><time>2026-04-12T17:52:05Z</time></trkpt><trkpt lat="38.233437909518166" lon="15.659991327774526"><ele>48.0</ele><time>2026-04-12T17:52:06Z</time></trkpt><trkpt lat="38.233376423114336" lon="15.659820189972795"><ele>46.666666666666664</ele><time>2026-04-12T17:52:07Z</time></trkpt><trkpt lat="38.23331564782541" lon="15.659649195739231"><ele>45.33333333333333</ele><time>2026-04-12T17:52:08Z</time></trkpt><trkpt lat="38.233249934782336" lon="15.659475029795303"><ele>44.0</ele><time>2026-04-12T17:52:09Z</time></trkpt><trkpt lat="38.23319233696957" lon="15.659293437916547"><ele>45.0</ele><time>2026-04-12T17:52:10Z</time></trkpt><trkpt lat="38.23313143515837" lon="15.659126700282588"><ele>46.0</ele><time>2026-04-12T17:52:11Z</time></trkpt><trkpt lat="38.23306574546909" lon="15.658939650479843"><ele>47.0</ele><time>2026-04-12T17:52:12Z</time></trkpt><trkpt lat="38.23301388457107" lon="15.658775604862294"><ele>48.0</ele><time>2026-04-12T17:52:13Z</time></trkpt><trkpt lat="38.232953535975454" lon="15.65860943168105"><ele>48.0</ele><time>2026-04-12T17:52:14Z</time></trkpt><trkpt lat="38.23290094526642" lon="15.658437475753765"><ele>48.0</ele><time>2026-04-12T17:52:15Z</time></trkpt><trkpt lat="38.23284974963831" lon="15.65827147018471"><ele>48.0</ele><time>2026-04-12T17:52:16Z</time></trkpt><trkpt lat="38.232803519417224" lon="15.658096833096055"><ele>48.0</ele><time>2026-04-12T17:52:17Z</time></trkpt><trkpt lat="38.23277296050136" lon="15.657917724869128"><ele>46.25</ele><time>2026-04-12T17:52:18Z</time></trkpt><trkpt lat="38.23274324896279" lon="15.657735068889208"><ele>44.5</ele><time>2026-04-12T17:52:19Z</time></trkpt><trkpt lat="38.232716326371964" lon="15.657545012039321"><ele>42.75</ele><time>2026-04-12T17:52:20Z</time></trkpt><trkpt lat="38.232701821978324" lon="15.657354159886937"><ele>41.0</ele><time>2026-04-12T17:52:21Z</time></trkpt><trkpt lat="38.232694828804426" lon="15.657160932897597"><ele>41.0</ele><time>2026-04-12T17:52:22Z</time></trkpt><trkpt lat="38.232689721164874" lon="15.656969422950851"><ele>41.0</ele><time>2026-04-12T17:52:23Z</time></trkpt><trkpt lat="38.23268329436039" lon="15.656796563013929"><ele>41.0</ele><time>2026-04-12T17:52:24Z</time></trkpt><trkpt lat="38.232679950955244" lon="15.656635539929507"><ele>41.0</ele><time>2026-04-12T17:52:25Z</time></trkpt><trkpt lat="38.23266770593332" lon="15.656464958827673"><ele>40.75</ele><time>2026-04-12T17:52:26Z</time></trkpt><trkpt lat="38.23265851689841" lon="15.656296758051226"><ele>40.5</ele><time>2026-04-12T17:52:27Z</time></trkpt><trkpt lat="38.23264450014893" lon="15.656128583587533"><ele>40.25</ele><time>2026-04-12T17:52:28Z</time></trkpt><trkpt lat="38.2326309919733" lon="15.655963923694213"><ele>40.0</ele><time>2026-04-12T17:52:29Z</time></trkpt><trkpt lat="38.2326221952603" lon="15.655799314314455"><ele>40.0</ele><time>2026-04-12T17:52:30Z</time></trkpt><trkpt lat="38.23261979315401" lon="15.65563054570696"><ele>40.0</ele><time>2026-04-12T17:52:31Z</time></trkpt><trkpt lat="38.23262495707283" lon="15.655452098740243"><ele>40.0</ele><time>2026-04-12T17:52:32Z</time></trkpt><trkpt lat="38.23263308487578" lon="15.655269298696195"><ele>40.0</ele><time>2026-04-12T17:52:33Z</time></trkpt><trkpt lat="38.232640342412985" lon="15.65508765681042"><ele>40.0</ele><time>2026-04-12T17:52:34Z</time></trkpt><trkpt lat="38.23264322770143" lon="15.654922840633432"><ele>40.0</ele><time>2026-04-12T17:52:35Z</time></trkpt><trkpt lat="38.23264170342099" lon="15.654759548939634"><ele>40.0</ele><time>2026-04-12T17:52:36Z</time></trkpt><trkpt lat="38.23263452505138" lon="15.654613108520305"><ele>40.0</ele><time>2026-04-12T17:52:37Z</time></trkpt><trkpt lat="38.232618205514896" lon="15.654472982940153"><ele>40.0</ele><time>2026-04-12T17:52:38Z</time></trkpt><trkpt lat="38.232601401741405" lon="15.654338266394399"><ele>40.0</ele><time>2026-04-12T17:52:39Z</time></trkpt><trkpt lat="38.23260451509675" lon="15.654197026919196"><ele>40.0</ele><time>2026-04-12T17:52:40Z</time></trkpt><trkpt lat="38.23265672092384" lon="15.654061085739077"><ele>40.0</ele><time>2026-04-12T17:52:41Z</time></trkpt><trkpt lat="38.23269349370395" lon="15.653903746704373"><ele>40.0</ele><time>2026-04-12T17:52:42Z</time></trkpt><trkpt lat="38.232762319069664" lon="15.653758988798554"><ele>40.0</ele><time>2026-04-12T17:52:43Z</time></trkpt><trkpt lat="38.232822497683465" lon="15.65361502018326"><ele>40.0</ele><time>2026-04-12T17:52:44Z</time></trkpt><trkpt lat="38.23287545145125" lon="15.653471072427804"><ele>40.0</ele><time>2026-04-12T17:52:45Z</time></trkpt><trkpt lat="38.23292609910518" lon="15.653320916318826"><ele>40.25</ele><time>2026-04-12T17:52:46Z</time></trkpt><trkpt lat="38.23296562618432" lon="15.65316884536019"><ele>40.5</ele><time>2026-04-12T17:52:47Z</time></trkpt><trkpt lat="38.232993647459274" lon="15.653016036685823"><ele>40.75</ele><time>2026-04-12T17:52:48Z</time></trkpt><trkpt lat="38.233000486801046" lon="15.652853287962945"><ele>41.0</ele><time>2026-04-12T17:52:49Z</time></trkpt><trkpt lat="38.23298820590826" lon="15.652671749163837"><ele>42.0</ele><time>2026-04-12T17:52:50Z</time></trkpt><trkpt lat="38.23296374401224" lon="15.65248705674004"><ele>43.0</ele><time>2026-04-12T17:52:51Z</time></trkpt><trkpt lat="38.23294180920172" lon="15.652312065114087"><ele>44.0</ele><time>2026-04-12T17:52:52Z</time></trkpt><trkpt lat="38.23292320683096" lon="15.652137228554713"><ele>45.0</ele><time>2026-04-12T17:52:53Z</time></trkpt><trkpt lat="38.2329135735683" lon="15.651958641796433"><ele>45.0</ele><time>2026-04-12T17:52:54Z</time></trkpt><trkpt lat="38.232921289024894" lon="15.651782852744649"><ele>45.0</ele><time>2026-04-12T17:52:55Z</time></trkpt><trkpt lat="38.232969903214986" lon="15.651609309023346"><ele>45.0</ele><time>2026-04-12T17:52:56Z</time></trkpt><trkpt lat="38.2329942245926" lon="15.651435062121923"><ele>45.0</ele><time>2026-04-12T17:52:57Z</time></trkpt><trkpt lat="38.23303963680365" lon="15.65127370258948"><ele>44.0</ele><time>2026-04-12T17:52:58Z</time></trkpt><trkpt lat="38.23308297044974" lon="15.651123697876182"><ele>43.0</ele><time>2026-04-12T17:52:59Z</time></trkpt><trkpt lat="38.23312716613399" lon="15.650980845531208"><ele>42.0</ele><time>2026-04-12T17:53:00Z</time></trkpt><trkpt lat="38.23316397735083" lon="15.650848338280241"><ele>41.0</ele><time>2026-04-12T17:53:01Z</time></trkpt><trkpt lat="38.23318652938393" lon="15.650712379412496"><ele>39.5</ele><time>2026-04-12T17:53:02Z</time></trkpt><trkpt lat="38.233183990003376" lon="15.65055811500113"><ele>38.0</ele><time>2026-04-12T17:53:03Z</time></trkpt><trkpt lat="38.23314915576066" lon="15.650400398040986"><ele>36.5</ele><time>2026-04-12T17:53:04Z</time></trkpt><trkpt lat="38.23309524831877" lon="15.650241704954404"><ele>35.0</ele><time>2026-04-12T17:53:05Z</time></trkpt><trkpt lat="38.23303049769414" lon="15.65008369461492"><ele>35.0</ele><time>2026-04-12T17:53:06Z</time></trkpt><trkpt lat="38.232964682872165" lon="15.649927799928424"><ele>35.0</ele><time>2026-04-12T17:53:07Z</time></trkpt><trkpt lat="38.232896190064785" lon="15.649776283055656"><ele>35.0</ele><time>2026-04-12T17:53:08Z</time></trkpt><trkpt lat="38.23283104996235" lon="15.649630702170917"><ele>35.0</ele><time>2026-04-12T17:53:09Z</time></trkpt><trkpt lat="38.23276905586874" lon="15.649480659961155"><ele>34.25</ele><time>2026-04-12T17:53:10Z</time></trkpt><trkpt lat="38.232716002141785" lon="15.649325694590388"><ele>33.5</ele><time>2026-04-12T17:53:11Z</time></trkpt><trkpt lat="38.23266821628103" lon="15.649157515819315"><ele>32.75</ele><time>2026-04-12T17:53:12Z</time></trkpt><trkpt lat="38.23263221225402" lon="15.648990691554628"><ele>32.0</ele><time>2026-04-12T17:53:13Z</time></trkpt><trkpt lat="38.232605100188216" lon="15.648813698996817"><ele>32.0</ele><time>2026-04-12T17:53:14Z</time></trkpt><trkpt lat="38.232586442832734" lon="15.648648454440526"><ele>32.0</ele><time>2026-04-12T17:53:15Z</time></trkpt><trkpt lat="38.23256352482958" lon="15.648472494752536"><ele>32.0</ele><time>2026-04-12T17:53:16Z</time></trkpt><trkpt lat="38.232543389645336" lon="15.648309646299095"><ele>32.0</ele><time>2026-04-12T17:53:17Z</time></trkpt><trkpt lat="38.232527470760374" lon="15.648150221984725"><ele>32.0</ele><time>2026-04-12T17:53:18Z</time></trkpt><trkpt lat="38.23251734113591" lon="15.647986358958887"><ele>32.0</ele><time>2026-04-12T17:53:19Z</time></trkpt><trkpt lat="38.232517527519356" lon="15.647814460232325"><ele>32.0</ele><time>2026-04-12T17:53:20Z</time></trkpt><trkpt lat="38.23252305865481" lon="15.647641759698736"><ele>32.0</ele><time>2026-04-12T17:53:21Z</time></trkpt><trkpt lat="38.23254432368119" lon="15.647468069922951"><ele>32.0</ele><time>2026-04-12T17:53:22Z</time></trkpt><trkpt lat="38.232551159144016" lon="15.647289501506505"><ele>32.0</ele><time>2026-04-12T17:53:23Z</time></trkpt><trkpt lat="38.232539835221615" lon="15.647107320894706"><ele>32.0</ele><time>2026-04-12T17:53:24Z</time></trkpt><trkpt lat="38.23254568621118" lon="15.646916183964736"><ele>32.0</ele><time>2026-04-12T17:53:25Z</time></trkpt><trkpt lat="38.23255005305491" lon="15.646722824248897"><ele>32.33333333333333</ele><time>2026-04-12T17:53:26Z</time></trkpt><trkpt lat="38.232560511265376" lon="15.646522743424999"><ele>32.666666666666664</ele><time>2026-04-12T17:53:27Z</time></trkpt><trkpt lat="38.23257266096352" lon="15.646319858136927"><ele>33.0</ele><time>2026-04-12T17:53:28Z</time></trkpt><trkpt lat="38.23259941332931" lon="15.646122575116523"><ele>33.0</ele><time>2026-04-12T17:53:29Z</time></trkpt><trkpt lat="38.23262240399493" lon="15.64593706558484"><ele>33.0</ele><time>2026-04-12T17:53:30Z</time></trkpt><trkpt lat="38.232610382995915" lon="15.645758386889746"><ele>33.0</ele><time>2026-04-12T17:53:31Z</time></trkpt><trkpt lat="38.232584068500046" lon="15.64558770767334"><ele>33.0</ele><time>2026-04-12T17:53:32Z</time></trkpt><trkpt lat="38.23254560621342" lon="15.645412555251829"><ele>31.0</ele><time>2026-04-12T17:53:33Z</time></trkpt><trkpt lat="38.23252097737613" lon="15.64524746157253"><ele>29.0</ele><time>2026-04-12T17:53:34Z</time></trkpt><trkpt lat="38.232477720844145" lon="15.645084591971667"><ele>27.0</ele><time>2026-04-12T17:53:35Z</time></trkpt><trkpt lat="38.23241176743401" lon="15.644933160872789"><ele>25.0</ele><time>2026-04-12T17:53:36Z</time></trkpt><trkpt lat="38.23232668855605" lon="15.644794014408081"><ele>28.0</ele><time>2026-04-12T17:53:37Z</time></trkpt><trkpt lat="38.23224669381123" lon="15.644643751533897"><ele>31.0</ele><time>2026-04-12T17:53:38Z</time></trkpt><trkpt lat="38.23216280108183" lon="15.64449833806715"><ele>34.0</ele><time>2026-04-12T17:53:39Z</time></trkpt><trkpt lat="38.23208050819235" lon="15.644347833042145"><ele>37.0</ele><time>2026-04-12T17:53:40Z</time></trkpt><trkpt lat="38.23199642715289" lon="15.644205271547765"><ele>37.0</ele><time>2026-04-12T17:53:41Z</time></trkpt><trkpt lat="38.23191213735336" lon="15.644052376968492"><ele>37.0</ele><time>2026-04-12T17:53:42Z</time></trkpt><trkpt lat="38.23183807535736" lon="15.643912007164321"><ele>37.0</ele><time>2026-04-12T17:53:43Z</time></trkpt><trkpt lat="38.231758284188594" lon="15.643768769817749"><ele>37.0</ele><time>2026-04-12T17:53:44Z</time></trkpt><trkpt lat="38.231678758174084" lon="15.643623283641082"><ele>37.25</ele><time>2026-04-12T17:53:45Z</time></trkpt><trkpt lat="38.23160603419271" lon="15.643479870300544"><ele>37.5</ele><time>2026-04-12T17:53:46Z</time></trkpt><trkpt lat="38.23152526322766" lon="15.643344187779642"><ele>37.75</ele><time>2026-04-12T17:53:47Z</time></trkpt><trkpt lat="38.23143020454077" lon="15.643219945277561"><ele>38.0</ele><time>2026-04-12T17:53:48Z</time></trkpt><trkpt lat="38.23131723215632" lon="15.643110441463488"><ele>38.0</ele><time>2026-04-12T17:53:49Z</time></trkpt><trkpt lat="38.231202340820516" lon="15.643005507226606"><ele>38.0</ele><time>2026-04-12T17:53:50Z</time></trkpt><trkpt lat="38.23109199353581" lon="15.642899007803994"><ele>38.0</ele><time>2026-04-12T17:53:51Z</time></trkpt><trkpt lat="38.23098167431062" lon="15.642795508003285"><ele>38.0</ele><time>2026-04-12T17:53:52Z</time></trkpt><trkpt lat="38.23087934595278" lon="15.642679405547732"><ele>37.75</ele><time>2026-04-12T17:53:53Z</time></trkpt><trkpt lat="38.230767061010184" lon="15.642576371463697"><ele>37.5</ele><time>2026-04-12T17:53:54Z</time></trkpt><trkpt lat="38.23065567092314" lon="15.64247415850893"><ele>37.25</ele><time>2026-04-12T17:53:55Z</time></trkpt><trkpt lat="38.23054333117955" lon="15.642371074077838"><ele>37.0</ele><time>2026-04-12T17:53:56Z</time></trkpt><trkpt lat="38.23043421891231" lon="15.64227631775062"><ele>37.0</ele><time>2026-04-12T17:53:57Z</time></trkpt><trkpt lat="38.23033056332541" lon="15.642193634576616"><ele>37.0</ele><time>2026-04-12T17:53:58Z</time></trkpt><trkpt lat="38.23021752532494" lon="15.642129098129253"><ele>37.0</ele><time>2026-04-12T17:53:59Z</time></trkpt><trkpt lat="38.230097560662465" lon="15.642114309082896"><ele>37.0</ele><time>2026-04-12T17:54:00Z</time></trkpt><trkpt lat="38.22997598931432" lon="15.64209817964007"><ele>37.0</ele><time>2026-04-12T17:54:01Z</time></trkpt><trkpt lat="38.22985536214447" lon="15.6420766726281"><ele>37.0</ele><time>2026-04-12T17:54:02Z</time></trkpt><trkpt lat="38.229732513587464" lon="15.64205102859478"><ele>37.0</ele><time>2026-04-12T17:54:03Z</time></trkpt><trkpt lat="38.22961973758036" lon="15.641986339843106"><ele>37.0</ele><time>2026-04-12T17:54:04Z</time></trkpt><trkpt lat="38.22950198571447" lon="15.64190943331957"><ele>36.25</ele><time>2026-04-12T17:54:05Z</time></trkpt><trkpt lat="38.22939140221321" lon="15.641828421335225"><ele>35.5</ele><time>2026-04-12T17:54:06Z</time></trkpt><trkpt lat="38.229285303811096" lon="15.641747323530582"><ele>34.75</ele><time>2026-04-12T17:54:07Z</time></trkpt><trkpt lat="38.229181903486094" lon="15.641664039431014"><ele>34.0</ele><time>2026-04-12T17:54:08Z</time></trkpt><trkpt lat="38.22907998921056" lon="15.641577457556396"><ele>35.75</ele><time>2026-04-12T17:54:09Z</time></trkpt><trkpt lat="38.228973500112794" lon="15.64148419857625"><ele>37.5</ele><time>2026-04-12T17:54:10Z</time></trkpt><trkpt lat="38.22886701000919" lon="15.641386474058827"><ele>39.25</ele><time>2026-04-12T17:54:11Z</time></trkpt><trkpt lat="38.228754535061434" lon="15.641296475348646"><ele>41.0</ele><time>2026-04-12T17:54:12Z</time></trkpt><trkpt lat="38.22865005211607" lon="15.641195646282865"><ele>39.25</ele><time>2026-04-12T17:54:13Z</time></trkpt><trkpt lat="38.228546222029465" lon="15.641094952678223"><ele>37.5</ele><time>2026-04-12T17:54:14Z</time></trkpt><trkpt lat="38.22843085440782" lon="15.641001609048082"><ele>35.75</ele><time>2026-04-12T17:54:15Z</time></trkpt><trkpt lat="38.228325891339146" lon="15.64089882199952"><ele>34.0</ele><time>2026-04-12T17:54:16Z</time></trkpt><trkpt lat="38.22821445233142" lon="15.640799673112912"><ele>35.25</ele><time>2026-04-12T17:54:17Z</time></trkpt><trkpt lat="38.22810305569929" lon="15.640705737385037"><ele>36.5</ele><time>2026-04-12T17:54:18Z</time></trkpt><trkpt lat="38.22799693856164" lon="15.640617819151371"><ele>37.75</ele><time>2026-04-12T17:54:19Z</time></trkpt><trkpt lat="38.2279060200935" lon="15.640512038869193"><ele>39.0</ele><time>2026-04-12T17:54:20Z</time></trkpt><trkpt lat="38.22780233734921" lon="15.640409932840523"><ele>39.0</ele><time>2026-04-12T17:54:21Z</time></trkpt><trkpt lat="38.22768805876392" lon="15.64030510608164"><ele>39.0</ele><time>2026-04-12T17:54:22Z</time></trkpt><trkpt lat="38.22756482077968" lon="15.640214446076204"><ele>39.0</ele><time>2026-04-12T17:54:23Z</time></trkpt><trkpt lat="38.2274562090238" lon="15.640097817498983"><ele>39.0</ele><time>2026-04-12T17:54:24Z</time></trkpt><trkpt lat="38.227345595841044" lon="15.639985321818498"><ele>40.25</ele><time>2026-04-12T17:54:25Z</time></trkpt><trkpt lat="38.22722071900188" lon="15.639880221070207"><ele>41.5</ele><time>2026-04-12T17:54:26Z</time></trkpt><trkpt lat="38.227103348851514" lon="15.639772434105065"><ele>42.75</ele><time>2026-04-12T17:54:27Z</time></trkpt><trkpt lat="38.22698655135766" lon="15.63966248983457"><ele>44.0</ele><time>2026-04-12T17:54:28Z</time></trkpt><trkpt lat="38.226875192574916" lon="15.639562314694585"><ele>44.0</ele><time>2026-04-12T17:54:29Z</time></trkpt><trkpt lat="38.226775786670906" lon="15.639468877305873"><ele>44.0</ele><time>2026-04-12T17:54:30Z</time></trkpt><trkpt lat="38.22667901626039" lon="15.63937518551887"><ele>44.0</ele><time>2026-04-12T17:54:31Z</time></trkpt><trkpt lat="38.22656909067299" lon="15.639270523742793"><ele>44.0</ele><time>2026-04-12T17:54:32Z</time></trkpt><trkpt lat="38.22646634922551" lon="15.639174793500816"><ele>44.0</ele><time>2026-04-12T17:54:33Z</time></trkpt><trkpt lat="38.226371881311266" lon="15.639084085481928"><ele>44.0</ele><time>2026-04-12T17:54:34Z</time></trkpt><trkpt lat="38.226277401754196" lon="15.638995944208522"><ele>44.0</ele><time>2026-04-12T17:54:35Z</time></trkpt><trkpt lat="38.22618405561279" lon="15.638905430241243"><ele>44.0</ele><time>2026-04-12T17:54:36Z</time></trkpt><trkpt lat="38.22609358801286" lon="15.638815837268991"><ele>44.0</ele><time>2026-04-12T17:54:37Z</time></trkpt><trkpt lat="38.22599115347121" lon="15.638727579779985"><ele>44.0</ele><time>2026-04-12T17:54:38Z</time></trkpt><trkpt lat="38.22590546237995" lon="15.638630297176107"><ele>44.0</ele><time>2026-04-12T17:54:39Z</time></trkpt><trkpt lat="38.22580494725531" lon="15.638540447195648"><ele>44.0</ele><time>2026-04-12T17:54:40Z</time></trkpt><trkpt lat="38.22570476909235" lon="15.638459403906928"><ele>41.5</ele><time>2026-04-12T17:54:41Z</time></trkpt><trkpt lat="38.22559573643083" lon="15.638373931670445"><ele>39.0</ele><time>2026-04-12T17:54:42Z</time></trkpt><trkpt lat="38.225486583667184" lon="15.638303815134996"><ele>36.5</ele><time>2026-04-12T17:54:43Z</time></trkpt><trkpt lat="38.22535752961691" lon="15.63823687728981"><ele>34.0</ele><time>2026-04-12T17:54:44Z</time></trkpt><trkpt lat="38.22522685723983" lon="15.638194628355865"><ele>34.0</ele><time>2026-04-12T17:54:45Z</time></trkpt><trkpt lat="38.22509565545707" lon="15.638162597943625"><ele>34.0</ele><time>2026-04-12T17:54:46Z</time></trkpt><trkpt lat="38.22495715868497" lon="15.638166220431405"><ele>34.0</ele><time>2026-04-12T17:54:47Z</time></trkpt><trkpt lat="38.22482915642461" lon="15.63816837863117"><ele>34.0</ele><time>2026-04-12T17:54:48Z</time></trkpt><trkpt lat="38.224701891625514" lon="15.638207680741015"><ele>33.25</ele><time>2026-04-12T17:54:49Z</time></trkpt><trkpt lat="38.224586515685246" lon="15.638262763818393"><ele>32.5</ele><time>2026-04-12T17:54:50Z</time></trkpt><trkpt lat="38.2244808335088" lon="15.638321549148486"><ele>31.75</ele><time>2026-04-12T17:54:51Z</time></trkpt><trkpt lat="38.22436705840939" lon="15.638368228151965"><ele>31.0</ele><time>2026-04-12T17:54:52Z</time></trkpt><trkpt lat="38.224250985077646" lon="15.638417497853615"><ele>31.0</ele><time>2026-04-12T17:54:53Z</time></trkpt><trkpt lat="38.2241328317755" lon="15.638465140766664"><ele>31.0</ele><time>2026-04-12T17:54:54Z</time></trkpt><trkpt lat="38.22401986951182" lon="15.638484806223776"><ele>31.0</ele><time>2026-04-12T17:54:55Z</time></trkpt><trkpt lat="38.22391512504464" lon="15.638490428026914"><ele>31.0</ele><time>2026-04-12T17:54:56Z</time></trkpt><trkpt lat="38.223816903928046" lon="15.63849819181992"><ele>31.0</ele><time>2026-04-12T17:54:57Z</time></trkpt><trkpt lat="38.22370477756655" lon="15.638491609010327"><ele>31.0</ele><time>2026-04-12T17:54:58Z</time></trkpt><trkpt lat="38.22359823199143" lon="15.638479475084571"><ele>31.0</ele><time>2026-04-12T17:54:59Z</time></trkpt><trkpt lat="38.22348604545204" lon="15.638459635159656"><ele>31.0</ele><time>2026-04-12T17:55:00Z</time></trkpt><trkpt lat="38.22338095600571" lon="15.63844982679771"><ele>31.0</ele><time>2026-04-12T17:55:01Z</time></trkpt><trkpt lat="38.223274020315245" lon="15.63843486241681"><ele>31.0</ele><time>2026-04-12T17:55:02Z</time></trkpt><trkpt lat="38.22317547843426" lon="15.638420828516232"><ele>31.6</ele><time>2026-04-12T17:55:03Z</time></trkpt><trkpt lat="38.22307222215811" lon="15.638391012536983"><ele>32.2</ele><time>2026-04-12T17:55:04Z</time></trkpt><trkpt lat="38.22297310810428" lon="15.63837938242715"><ele>32.8</ele><time>2026-04-12T17:55:05Z</time></trkpt><trkpt lat="38.22288454726188" lon="15.638373783746179"><ele>33.4</ele><time>2026-04-12T17:55:06Z</time></trkpt><trkpt lat="38.222809908149195" lon="15.638363209878268"><ele>34.0</ele><time>2026-04-12T17:55:07Z</time></trkpt><trkpt lat="38.22272967106267" lon="15.638348843205348"><ele>34.0</ele><time>2026-04-12T17:55:08Z</time></trkpt><trkpt lat="38.22264622288314" lon="15.638316562876806"><ele>34.0</ele><time>2026-04-12T17:55:09Z</time></trkpt><trkpt lat="38.2225510164152" lon="15.638308656407034"><ele>34.0</ele><time>2026-04-12T17:55:10Z</time></trkpt><trkpt lat="38.222450766330205" lon="15.638302330785287"><ele>34.0</ele><time>2026-04-12T17:55:11Z</time></trkpt><trkpt lat="38.22234617403061" lon="15.638282078622323"><ele>34.0</ele><time>2026-04-12T17:55:12Z</time></trkpt><trkpt lat="38.22224374736074" lon="15.63825851913271"><ele>33.833333333333336</ele><time>2026-04-12T17:55:13Z</time></trkpt><trkpt lat="38.22213890436931" lon="15.638247312339823"><ele>33.66666666666667</ele><time>2026-04-12T17:55:14Z</time></trkpt><trkpt lat="38.22204587739298" lon="15.638239007427874"><ele>33.5</ele><time>2026-04-12T17:55:15Z</time></trkpt><trkpt lat="38.221962413773895" lon="15.638227374158006"><ele>33.333333333333336</ele><time>2026-04-12T17:55:16Z</time></trkpt><trkpt lat="38.22188381385947" lon="15.638215561320308"><ele>33.166666666666664</ele><time>2026-04-12T17:55:17Z</time></trkpt><trkpt lat="38.22180224410081" lon="15.638199142556239"><ele>33.0</ele><time>2026-04-12T17:55:18Z</time></trkpt><trkpt lat="38.2217135725187" lon="15.638195233227359"><ele>33.0</ele><time>2026-04-12T17:55:19Z</time></trkpt><trkpt lat="38.22162283856576" lon="15.638164438623843"><ele>33.0</ele><time>2026-04-12T17:55:20Z</time></trkpt><trkpt lat="38.22152961643991" lon="15.638153186299235"><ele>33.0</ele><time>2026-04-12T17:55:21Z</time></trkpt><trkpt lat="38.22143716108289" lon="15.638142026520656"><ele>33.0</ele><time>2026-04-12T17:55:22Z</time></trkpt><trkpt lat="38.22134902506614" lon="15.638131388074983"><ele>33.0</ele><time>2026-04-12T17:55:23Z</time></trkpt><trkpt lat="38.2212762371232" lon="15.63812373303236"><ele>33.0</ele><time>2026-04-12T17:55:24Z</time></trkpt><trkpt lat="38.22121131886564" lon="15.638116390459718"><ele>32.42857142857143</ele><time>2026-04-12T17:55:25Z</time></trkpt><trkpt lat="38.22114531603964" lon="15.638108925216223"><ele>31.85714285714286</ele><time>2026-04-12T17:55:26Z</time></trkpt><trkpt lat="38.22108144989143" lon="15.638101701639881"><ele>31.28571428571429</ele><time>2026-04-12T17:55:27Z</time></trkpt><trkpt lat="38.22101387323769" lon="15.638094058361137"><ele>30.714285714285715</ele><time>2026-04-12T17:55:28Z</time></trkpt><trkpt lat="38.22094585080327" lon="15.638086832330002"><ele>30.142857142857146</ele><time>2026-04-12T17:55:29Z</time></trkpt><trkpt lat="38.22088071545365" lon="15.638079847738384"><ele>29.571428571428577</ele><time>2026-04-12T17:55:30Z</time></trkpt><trkpt lat="38.22080841730541" lon="15.638072168600345"><ele>29.000000000000004</ele><time>2026-04-12T17:55:31Z</time></trkpt><trkpt lat="38.22073819108713" lon="15.638065550645198"><ele>28.999999999999996</ele><time>2026-04-12T17:55:32Z</time></trkpt><trkpt lat="38.22067157530796" lon="15.638057158889906"><ele>29.0</ele><time>2026-04-12T17:55:33Z</time></trkpt><trkpt lat="38.22054881830115" lon="15.638044279289772"><ele>29.0</ele><time>2026-04-12T17:55:35Z</time></trkpt><trkpt lat="38.22048283795589" lon="15.638037352966686"><ele>29.0</ele><time>2026-04-12T17:55:36Z</time></trkpt><trkpt lat="38.22040561569927" lon="15.638029514066433"><ele>28.999999999999996</ele><time>2026-04-12T17:55:37Z</time></trkpt><trkpt lat="38.220321464862685" lon="15.638020971842835"><ele>29.0</ele><time>2026-04-12T17:55:38Z</time></trkpt><trkpt lat="38.220217344969505" lon="15.638011117850471"><ele>28.6</ele><time>2026-04-12T17:55:39Z</time></trkpt><trkpt lat="38.22009935987306" lon="15.63800074872818"><ele>28.2</ele><time>2026-04-12T17:55:40Z</time></trkpt><trkpt lat="38.21999289776624" lon="15.637991392297234"><ele>27.800000000000004</ele><time>2026-04-12T17:55:41Z</time></trkpt><trkpt lat="38.219892035005074" lon="15.637982690211409"><ele>27.400000000000002</ele><time>2026-04-12T17:55:42Z</time></trkpt><trkpt lat="38.21978903809189" lon="15.637973762825292"><ele>27.0</ele><time>2026-04-12T17:55:43Z</time></trkpt><trkpt lat="38.219677173585204" lon="15.637962024167273"><ele>27.0</ele><time>2026-04-12T17:55:44Z</time></trkpt><trkpt lat="38.21955559514949" lon="15.637949929490567"><ele>27.0</ele><time>2026-04-12T17:55:45Z</time></trkpt><trkpt lat="38.21942821595524" lon="15.63798104801962"><ele>27.0</ele><time>2026-04-12T17:55:46Z</time></trkpt><trkpt lat="38.21930107242558" lon="15.637986952379157"><ele>27.0</ele><time>2026-04-12T17:55:47Z</time></trkpt><trkpt lat="38.21918495404896" lon="15.638002870172937"><ele>27.0</ele><time>2026-04-12T17:55:48Z</time></trkpt><trkpt lat="38.2190675475975" lon="15.638017875173505"><ele>27.0</ele><time>2026-04-12T17:55:49Z</time></trkpt><trkpt lat="38.21894755980899" lon="15.638010349617966"><ele>27.0</ele><time>2026-04-12T17:55:50Z</time></trkpt><trkpt lat="38.218826760696594" lon="15.638026688515392"><ele>27.0</ele><time>2026-04-12T17:55:51Z</time></trkpt><trkpt lat="38.21870548954656" lon="15.63804308995943"><ele>26.5</ele><time>2026-04-12T17:55:52Z</time></trkpt><trkpt lat="38.2185827480066" lon="15.638059960553626"><ele>26.0</ele><time>2026-04-12T17:55:53Z</time></trkpt><trkpt lat="38.218462395541785" lon="15.638076462890181"><ele>25.5</ele><time>2026-04-12T17:55:54Z</time></trkpt><trkpt lat="38.21834697945551" lon="15.638092288375432"><ele>25.0</ele><time>2026-04-12T17:55:55Z</time></trkpt><trkpt lat="38.21824197906828" lon="15.63810668571592"><ele>25.0</ele><time>2026-04-12T17:55:56Z</time></trkpt><trkpt lat="38.218137933390054" lon="15.638121018683167"><ele>25.0</ele><time>2026-04-12T17:55:57Z</time></trkpt><trkpt lat="38.21802670437129" lon="15.63815758598981"><ele>25.0</ele><time>2026-04-12T17:55:58Z</time></trkpt><trkpt lat="38.21791009482688" lon="15.638165974690631"><ele>25.0</ele><time>2026-04-12T17:55:59Z</time></trkpt><trkpt lat="38.217800598224336" lon="15.63817802411081"><ele>25.0</ele><time>2026-04-12T17:56:00Z</time></trkpt><trkpt lat="38.21770814688954" lon="15.638191148796635"><ele>25.000000000000004</ele><time>2026-04-12T17:56:01Z</time></trkpt><trkpt lat="38.21763034136238" lon="15.638199337784615"><ele>25.0</ele><time>2026-04-12T17:56:02Z</time></trkpt><trkpt lat="38.21756095026147" lon="15.63821422237539"><ele>25.0</ele><time>2026-04-12T17:56:03Z</time></trkpt><trkpt lat="38.21748761727163" lon="15.638224579705197"><ele>25.0</ele><time>2026-04-12T17:56:04Z</time></trkpt><trkpt lat="38.21740499162919" lon="15.63822844168007"><ele>25.000000000000004</ele><time>2026-04-12T17:56:05Z</time></trkpt><trkpt lat="38.21731934685731" lon="15.638244929082083"><ele>25.0</ele><time>2026-04-12T17:56:06Z</time></trkpt><trkpt lat="38.217230108808906" lon="15.638262154450873"><ele>25.0</ele><time>2026-04-12T17:56:07Z</time></trkpt><trkpt lat="38.21713978058084" lon="15.638269521707295"><ele>25.0</ele><time>2026-04-12T17:56:08Z</time></trkpt><trkpt lat="38.21704905071845" lon="15.638282538516444"><ele>25.0</ele><time>2026-04-12T17:56:09Z</time></trkpt><trkpt lat="38.21695101097988" lon="15.638268024069644"><ele>25.0</ele><time>2026-04-12T17:56:10Z</time></trkpt><trkpt lat="38.21685005992582" lon="15.638274565397797"><ele>25.0</ele><time>2026-04-12T17:56:11Z</time></trkpt><trkpt lat="38.21675412948675" lon="15.638281899272545"><ele>25.0</ele><time>2026-04-12T17:56:12Z</time></trkpt><trkpt lat="38.21665692930835" lon="15.638287399971158"><ele>25.0</ele><time>2026-04-12T17:56:13Z</time></trkpt><trkpt lat="38.216557671196185" lon="15.63829281131825"><ele>25.0</ele><time>2026-04-12T17:56:14Z</time></trkpt><trkpt lat="38.21646648684695" lon="15.638295065305579"><ele>25.0</ele><time>2026-04-12T17:56:15Z</time></trkpt><trkpt lat="38.216378491902" lon="15.638296900447765"><ele>25.0</ele><time>2026-04-12T17:56:16Z</time></trkpt><trkpt lat="38.216283185877344" lon="15.638296613864975"><ele>25.2</ele><time>2026-04-12T17:56:17Z</time></trkpt><trkpt lat="38.216182448157504" lon="15.638293913594405"><ele>25.4</ele><time>2026-04-12T17:56:18Z</time></trkpt><trkpt lat="38.21608050883534" lon="15.638288663639749"><ele>25.6</ele><time>2026-04-12T17:56:19Z</time></trkpt><trkpt lat="38.215968525873066" lon="15.638280667363121"><ele>25.8</ele><time>2026-04-12T17:56:20Z</time></trkpt><trkpt lat="38.215852108492165" lon="15.638272354440979"><ele>26.0</ele><time>2026-04-12T17:56:21Z</time></trkpt><trkpt lat="38.21573369478329" lon="15.638263897716408"><ele>25.5</ele><time>2026-04-12T17:56:22Z</time></trkpt><trkpt lat="38.21560086201883" lon="15.638254429377492"><ele>25.0</ele><time>2026-04-12T17:56:23Z</time></trkpt><trkpt lat="38.21547081142777" lon="15.638247152440172"><ele>24.5</ele><time>2026-04-12T17:56:24Z</time></trkpt><trkpt lat="38.21534906802231" lon="15.638240340331055"><ele>24.0</ele><time>2026-04-12T17:56:25Z</time></trkpt><trkpt lat="38.21522847239088" lon="15.638247051474087"><ele>24.0</ele><time>2026-04-12T17:56:26Z</time></trkpt><trkpt lat="38.21510867891844" lon="15.638222183919165"><ele>24.0</ele><time>2026-04-12T17:56:27Z</time></trkpt><trkpt lat="38.21498449830348" lon="15.638194119848071"><ele>24.0</ele><time>2026-04-12T17:56:28Z</time></trkpt><trkpt lat="38.21485873743826" lon="15.638167582040273"><ele>24.0</ele><time>2026-04-12T17:56:29Z</time></trkpt><trkpt lat="38.2147276480584" lon="15.638101137423003"><ele>24.25</ele><time>2026-04-12T17:56:30Z</time></trkpt><trkpt lat="38.214592477019934" lon="15.638060145622692"><ele>24.5</ele><time>2026-04-12T17:56:31Z</time></trkpt><trkpt lat="38.21445592219482" lon="15.638018734189565"><ele>24.75</ele><time>2026-04-12T17:56:32Z</time></trkpt><trkpt lat="38.21432043502077" lon="15.637977646517362"><ele>25.0</ele><time>2026-04-12T17:56:33Z</time></trkpt><trkpt lat="38.214186054056704" lon="15.637936112417535"><ele>25.0</ele><time>2026-04-12T17:56:34Z</time></trkpt><trkpt lat="38.214057518731515" lon="15.637915448691732"><ele>25.0</ele><time>2026-04-12T17:56:35Z</time></trkpt><trkpt lat="38.21393411191764" lon="15.637861893352508"><ele>25.0</ele><time>2026-04-12T17:56:36Z</time></trkpt><trkpt lat="38.21380042639446" lon="15.637829350819473"><ele>25.0</ele><time>2026-04-12T17:56:37Z</time></trkpt><trkpt lat="38.21366460665012" lon="15.637786547935907"><ele>23.25</ele><time>2026-04-12T17:56:38Z</time></trkpt><trkpt lat="38.21353097938967" lon="15.63774259589135"><ele>21.5</ele><time>2026-04-12T17:56:39Z</time></trkpt><trkpt lat="38.21339911771764" lon="15.637702946329433"><ele>19.75</ele><time>2026-04-12T17:56:40Z</time></trkpt><trkpt lat="38.213272497335836" lon="15.637657757190217"><ele>18.0</ele><time>2026-04-12T17:56:41Z</time></trkpt><trkpt lat="38.21314543623746" lon="15.63762796093983"><ele>18.0</ele><time>2026-04-12T17:56:42Z</time></trkpt><trkpt lat="38.21302183223937" lon="15.637591918552097"><ele>18.0</ele><time>2026-04-12T17:56:43Z</time></trkpt><trkpt lat="38.212907700023706" lon="15.637544676405135"><ele>18.0</ele><time>2026-04-12T17:56:44Z</time></trkpt><trkpt lat="38.212798376377926" lon="15.637498209102507"><ele>18.0</ele><time>2026-04-12T17:56:45Z</time></trkpt><trkpt lat="38.21268844192271" lon="15.637458026842697"><ele>18.0</ele><time>2026-04-12T17:56:46Z</time></trkpt><trkpt lat="38.212579232620286" lon="15.637399629667277"><ele>18.0</ele><time>2026-04-12T17:56:47Z</time></trkpt><trkpt lat="38.21247631225239" lon="15.637342770184063"><ele>18.0</ele><time>2026-04-12T17:56:48Z</time></trkpt><trkpt lat="38.21238730587821" lon="15.637273733977977"><ele>18.0</ele><time>2026-04-12T17:56:49Z</time></trkpt><trkpt lat="38.21229311140981" lon="15.637187472372485"><ele>19.0</ele><time>2026-04-12T17:56:50Z</time></trkpt><trkpt lat="38.21219201216812" lon="15.637131141869995"><ele>20.0</ele><time>2026-04-12T17:56:51Z</time></trkpt><trkpt lat="38.21209708998655" lon="15.637061805113282"><ele>21.0</ele><time>2026-04-12T17:56:52Z</time></trkpt><trkpt lat="38.21199140563644" lon="15.637014344393211"><ele>22.0</ele><time>2026-04-12T17:56:53Z</time></trkpt><trkpt lat="38.21187372330549" lon="15.636965469027885"><ele>21.0</ele><time>2026-04-12T17:56:54Z</time></trkpt><trkpt lat="38.2117571774612" lon="15.636922300184544"><ele>20.0</ele><time>2026-04-12T17:56:55Z</time></trkpt><trkpt lat="38.211641838951465" lon="15.636878355978498"><ele>19.0</ele><time>2026-04-12T17:56:56Z</time></trkpt><trkpt lat="38.21152302041406" lon="15.63682148326239"><ele>18.0</ele><time>2026-04-12T17:56:57Z</time></trkpt><trkpt lat="38.211400059306015" lon="15.63678747070536"><ele>18.0</ele><time>2026-04-12T17:56:58Z</time></trkpt><trkpt lat="38.21128159112889" lon="15.636749416258622"><ele>18.0</ele><time>2026-04-12T17:56:59Z</time></trkpt><trkpt lat="38.21117045487524" lon="15.636713599065478"><ele>18.0</ele><time>2026-04-12T17:57:00Z</time></trkpt><trkpt lat="38.21108280519704" lon="15.636683051340821"><ele>18.0</ele><time>2026-04-12T17:57:01Z</time></trkpt><trkpt lat="38.2110162489182" lon="15.636656067706092"><ele>18.0</ele><time>2026-04-12T17:57:02Z</time></trkpt><trkpt lat="38.21088646307543" lon="15.636605433010079"><ele>18.0</ele><time>2026-04-12T17:57:04Z</time></trkpt><trkpt lat="38.21078412732069" lon="15.636565076035215"><ele>18.0</ele><time>2026-04-12T17:57:05Z</time></trkpt><trkpt lat="38.210671956173414" lon="15.636512078582566"><ele>18.0</ele><time>2026-04-12T17:57:06Z</time></trkpt><trkpt lat="38.210540708569496" lon="15.636451393990509"><ele>18.0</ele><time>2026-04-12T17:57:07Z</time></trkpt><trkpt lat="38.21039866433431" lon="15.636372125118283"><ele>19.0</ele><time>2026-04-12T17:57:08Z</time></trkpt><trkpt lat="38.21022575486504" lon="15.636322307469987"><ele>20.0</ele><time>2026-04-12T17:57:09Z</time></trkpt><trkpt lat="38.210050231647266" lon="15.636255216706038"><ele>21.0</ele><time>2026-04-12T17:57:10Z</time></trkpt><trkpt lat="38.209889113989234" lon="15.636191718735004"><ele>20.75</ele><time>2026-04-12T17:57:11Z</time></trkpt><trkpt lat="38.209741862723995" lon="15.636152411560303"><ele>20.5</ele><time>2026-04-12T17:57:12Z</time></trkpt><trkpt lat="38.209616115279026" lon="15.636090721747797"><ele>20.25</ele><time>2026-04-12T17:57:13Z</time></trkpt><trkpt lat="38.209482641793585" lon="15.636041578506147"><ele>20.0</ele><time>2026-04-12T17:57:14Z</time></trkpt><trkpt lat="38.20933802517881" lon="15.635989670770103"><ele>18.25</ele><time>2026-04-12T17:57:15Z</time></trkpt><trkpt lat="38.20920178369341" lon="15.63594331764159"><ele>16.5</ele><time>2026-04-12T17:57:16Z</time></trkpt><trkpt lat="38.209065107818994" lon="15.635905332015897"><ele>14.75</ele><time>2026-04-12T17:57:17Z</time></trkpt><trkpt lat="38.208958791492" lon="15.635880051314567"><ele>13.0</ele><time>2026-04-12T17:57:18Z</time></trkpt><trkpt lat="38.208892416791166" lon="15.635868441955902"><ele>13.0</ele><time>2026-04-12T17:57:19Z</time></trkpt><trkpt lat="38.20881702512387" lon="15.635873296628947"><ele>13.0</ele><time>2026-04-12T17:57:21Z</time></trkpt><trkpt lat="38.20870512517732" lon="15.635855585046396"><ele>13.0</ele><time>2026-04-12T17:57:27Z</time></trkpt><trkpt lat="38.20859343199367" lon="15.63584392675647"><ele>13.0</ele><time>2026-04-12T17:57:28Z</time></trkpt><trkpt lat="38.20844235485001" lon="15.635801903647803"><ele>13.0</ele><time>2026-04-12T17:57:29Z</time></trkpt><trkpt lat="38.20825602921252" lon="15.63577548741475"><ele>13.0</ele><time>2026-04-12T17:57:30Z</time></trkpt><trkpt lat="38.208081639451215" lon="15.635771491862839"><ele>13.0</ele><time>2026-04-12T17:57:31Z</time></trkpt><trkpt lat="38.20795098217826" lon="15.635739577195523"><ele>13.333333333333332</ele><time>2026-04-12T17:57:32Z</time></trkpt><trkpt lat="38.20781650480247" lon="15.635749904979123"><ele>13.666666666666668</ele><time>2026-04-12T17:57:33Z</time></trkpt><trkpt lat="38.207660220357056" lon="15.635849378006185"><ele>14.0</ele><time>2026-04-12T17:57:34Z</time></trkpt><trkpt lat="38.20750466367212" lon="15.63593877686148"><ele>14.0</ele><time>2026-04-12T17:57:35Z</time></trkpt><trkpt lat="38.20734827931258" lon="15.635970450437016"><ele>14.0</ele><time>2026-04-12T17:57:36Z</time></trkpt><trkpt lat="38.20719863591551" lon="15.63599158131475"><ele>14.0</ele><time>2026-04-12T17:57:37Z</time></trkpt><trkpt lat="38.20705323185722" lon="15.6359742116789"><ele>13.666666666666668</ele><time>2026-04-12T17:57:38Z</time></trkpt><trkpt lat="38.206903085957435" lon="15.635952624563702"><ele>13.333333333333332</ele><time>2026-04-12T17:57:39Z</time></trkpt><trkpt lat="38.206758057739776" lon="15.635929346232185"><ele>13.0</ele><time>2026-04-12T17:57:40Z</time></trkpt><trkpt lat="38.206603138305056" lon="15.635901107818714"><ele>12.666666666666666</ele><time>2026-04-12T17:57:41Z</time></trkpt><trkpt lat="38.20645041763176" lon="15.63587281097468"><ele>12.333333333333332</ele><time>2026-04-12T17:57:42Z</time></trkpt><trkpt lat="38.2062818038066" lon="15.635845512724815"><ele>12.0</ele><time>2026-04-12T17:57:43Z</time></trkpt><trkpt lat="38.2061100270824" lon="15.63582844133425"><ele>12.0</ele><time>2026-04-12T17:57:44Z</time></trkpt><trkpt lat="38.205920338950904" lon="15.635819008230428"><ele>12.0</ele><time>2026-04-12T17:57:45Z</time></trkpt><trkpt lat="38.20571237829544" lon="15.635810973572937"><ele>12.0</ele><time>2026-04-12T17:57:46Z</time></trkpt><trkpt lat="38.20548072753424" lon="15.635797152563343"><ele>10.666666666666666</ele><time>2026-04-12T17:57:47Z</time></trkpt><trkpt lat="38.205251826618806" lon="15.635781777417062"><ele>9.333333333333332</ele><time>2026-04-12T17:57:48Z</time></trkpt><trkpt lat="38.20505090584268" lon="15.635771903703228"><ele>8.0</ele><time>2026-04-12T17:57:49Z</time></trkpt><trkpt lat="38.204870952689404" lon="15.635766097203474"><ele>8.25</ele><time>2026-04-12T17:57:50Z</time></trkpt><trkpt lat="38.20471463914064" lon="15.635763073618705"><ele>8.5</ele><time>2026-04-12T17:57:51Z</time></trkpt><trkpt lat="38.20457172190822" lon="15.63576030915367"><ele>8.75</ele><time>2026-04-12T17:57:52Z</time></trkpt><trkpt lat="38.20443702518269" lon="15.635759625025258"><ele>9.0</ele><time>2026-04-12T17:57:53Z</time></trkpt><trkpt lat="38.20431282221121" lon="15.635758590418781"><ele>9.0</ele><time>2026-04-12T17:57:54Z</time></trkpt><trkpt lat="38.204188276003705" lon="15.635757554376934"><ele>9.0</ele><time>2026-04-12T17:57:55Z</time></trkpt><trkpt lat="38.20406628116588" lon="15.63575619241469"><ele>9.0</ele><time>2026-04-12T17:57:56Z</time></trkpt><trkpt lat="38.203925558198655" lon="15.635800825882916"><ele>9.0</ele><time>2026-04-12T17:57:57Z</time></trkpt><trkpt lat="38.20376016857101" lon="15.63580144959143"><ele>9.666666666666666</ele><time>2026-04-12T17:57:58Z</time></trkpt><trkpt lat="38.20357602739187" lon="15.635790158897567"><ele>10.333333333333332</ele><time>2026-04-12T17:57:59Z</time></trkpt><trkpt lat="38.20340458579697" lon="15.635771115916867"><ele>11.0</ele><time>2026-04-12T17:58:00Z</time></trkpt><trkpt lat="38.203259346122366" lon="15.635692780809649"><ele>11.333333333333332</ele><time>2026-04-12T17:58:01Z</time></trkpt><trkpt lat="38.203096151185775" lon="15.635667249688185"><ele>11.666666666666666</ele><time>2026-04-12T17:58:02Z</time></trkpt><trkpt lat="38.202894288891784" lon="15.635634505438809"><ele>12.0</ele><time>2026-04-12T17:58:03Z</time></trkpt><trkpt lat="38.20266765669605" lon="15.63560178521078"><ele>12.0</ele><time>2026-04-12T17:58:04Z</time></trkpt><trkpt lat="38.20246262474194" lon="15.635580603255427"><ele>12.0</ele><time>2026-04-12T17:58:05Z</time></trkpt><trkpt lat="38.20226872146029" lon="15.635559919295092"><ele>12.0</ele><time>2026-04-12T17:58:06Z</time></trkpt><trkpt lat="38.20203237617969" lon="15.635542939199546"><ele>10.5</ele><time>2026-04-12T17:58:07Z</time></trkpt><trkpt lat="38.20177289658693" lon="15.635545628803804"><ele>9.0</ele><time>2026-04-12T17:58:08Z</time></trkpt><trkpt lat="38.201499132572884" lon="15.635568721489799"><ele>10.0</ele><time>2026-04-12T17:58:09Z</time></trkpt><trkpt lat="38.20122840995271" lon="15.63560978849591"><ele>11.0</ele><time>2026-04-12T17:58:10Z</time></trkpt><trkpt lat="38.20097988085776" lon="15.63559607859798"><ele>11.0</ele><time>2026-04-12T17:58:11Z</time></trkpt><trkpt lat="38.20074351713303" lon="15.635596078598947"><ele>11.0</ele><time>2026-04-12T17:58:12Z</time></trkpt><trkpt lat="38.200539867029136" lon="15.635594603283026"><ele>11.0</ele><time>2026-04-12T17:58:13Z</time></trkpt><trkpt lat="38.20035493810913" lon="15.635593218241707"><ele>11.333333333333332</ele><time>2026-04-12T17:58:14Z</time></trkpt><trkpt lat="38.200205866625" lon="15.635592311601659"><ele>11.666666666666666</ele><time>2026-04-12T17:58:15Z</time></trkpt><trkpt lat="38.20004876666272" lon="15.635611520348043"><ele>12.0</ele><time>2026-04-12T17:58:16Z</time></trkpt><trkpt lat="38.19989996240552" lon="15.635656300417507"><ele>11.666666666666666</ele><time>2026-04-12T17:58:17Z</time></trkpt><trkpt lat="38.199739413806725" lon="15.635657465392157"><ele>11.333333333333332</ele><time>2026-04-12T17:58:18Z</time></trkpt><trkpt lat="38.19956801112398" lon="15.63566506958836"><ele>11.0</ele><time>2026-04-12T17:58:19Z</time></trkpt><trkpt lat="38.19938626538954" lon="15.635670267686704"><ele>11.0</ele><time>2026-04-12T17:58:20Z</time></trkpt><trkpt lat="38.19920075293891" lon="15.635674965270706"><ele>11.0</ele><time>2026-04-12T17:58:21Z</time></trkpt><trkpt lat="38.199017768277095" lon="15.635679321387888"><ele>11.0</ele><time>2026-04-12T17:58:22Z</time></trkpt><trkpt lat="38.19884109397908" lon="15.635683525888027"><ele>10.333333333333332</ele><time>2026-04-12T17:58:23Z</time></trkpt><trkpt lat="38.19866742326975" lon="15.635687551096808"><ele>9.666666666666666</ele><time>2026-04-12T17:58:24Z</time></trkpt><trkpt lat="38.19849121954663" lon="15.635690542668419"><ele>9.0</ele><time>2026-04-12T17:58:25Z</time></trkpt><trkpt lat="38.19830357729004" lon="15.63569372844711"><ele>8.666666666666666</ele><time>2026-04-12T17:58:26Z</time></trkpt><trkpt lat="38.19811195881633" lon="15.635697080364876"><ele>8.333333333333332</ele><time>2026-04-12T17:58:27Z</time></trkpt><trkpt lat="38.19791882781137" lon="15.635700549612768"><ele>8.0</ele><time>2026-04-12T17:58:28Z</time></trkpt><trkpt lat="38.19772744130268" lon="15.635703987524114"><ele>8.0</ele><time>2026-04-12T17:58:29Z</time></trkpt><trkpt lat="38.19753538625581" lon="15.635707498640986"><ele>8.0</ele><time>2026-04-12T17:58:30Z</time></trkpt><trkpt lat="38.19734224001386" lon="15.635715798886427"><ele>8.0</ele><time>2026-04-12T17:58:31Z</time></trkpt><trkpt lat="38.1971365443836" lon="15.635744560578324"><ele>8.666666666666666</ele><time>2026-04-12T17:58:32Z</time></trkpt><trkpt lat="38.19691570660509" lon="15.635786000098417"><ele>9.333333333333334</ele><time>2026-04-12T17:58:33Z</time></trkpt><trkpt lat="38.196712059847776" lon="15.63582364447344"><ele>10.0</ele><time>2026-04-12T17:58:34Z</time></trkpt><trkpt lat="38.19653070106052" lon="15.635850910790094"><ele>10.333333333333334</ele><time>2026-04-12T17:58:35Z</time></trkpt><trkpt lat="38.19636502228163" lon="15.635867443226573"><ele>10.666666666666666</ele><time>2026-04-12T17:58:36Z</time></trkpt><trkpt lat="38.196215028867975" lon="15.635855443746278"><ele>11.0</ele><time>2026-04-12T17:58:37Z</time></trkpt><trkpt lat="38.196070709675766" lon="15.635815238012057"><ele>11.0</ele><time>2026-04-12T17:58:38Z</time></trkpt><trkpt lat="38.1959170961785" lon="15.635759506062604"><ele>11.0</ele><time>2026-04-12T17:58:39Z</time></trkpt><trkpt lat="38.195758468092194" lon="15.6357366408445"><ele>11.0</ele><time>2026-04-12T17:58:40Z</time></trkpt><trkpt lat="38.19560145927107" lon="15.63575534257716"><ele>10.75</ele><time>2026-04-12T17:58:41Z</time></trkpt><trkpt lat="38.195467559639084" lon="15.63575081449056"><ele>10.5</ele><time>2026-04-12T17:58:42Z</time></trkpt><trkpt lat="38.19530732075901" lon="15.63576989531275"><ele>10.25</ele><time>2026-04-12T17:58:43Z</time></trkpt><trkpt lat="38.19515934492174" lon="15.635756048245426"><ele>10.0</ele><time>2026-04-12T17:58:44Z</time></trkpt><trkpt lat="38.19501114608694" lon="15.63576289685101"><ele>10.0</ele><time>2026-04-12T17:58:45Z</time></trkpt><trkpt lat="38.19486316870943" lon="15.635770455341799"><ele>10.0</ele><time>2026-04-12T17:58:46Z</time></trkpt><trkpt lat="38.19472033240573" lon="15.635777751226556"><ele>10.0</ele><time>2026-04-12T17:58:47Z</time></trkpt><trkpt lat="38.19457976613367" lon="15.63579428693772"><ele>10.0</ele><time>2026-04-12T17:58:48Z</time></trkpt><trkpt lat="38.19444862915424" lon="15.63582473037033"><ele>10.0</ele><time>2026-04-12T17:58:49Z</time></trkpt><trkpt lat="38.19429858283557" lon="15.635894135245326"><ele>10.0</ele><time>2026-04-12T17:58:50Z</time></trkpt><trkpt lat="38.19420408481971" lon="15.635934305017704"><ele>10.0</ele><time>2026-04-12T17:58:51Z</time></trkpt><trkpt lat="38.194092599414276" lon="15.635979003576114"><ele>10.0</ele><time>2026-04-12T17:58:52Z</time></trkpt><trkpt lat="38.19399261079643" lon="15.63602659370282"><ele>10.0</ele><time>2026-04-12T17:58:53Z</time></trkpt><trkpt lat="38.1939085368734" lon="15.63606454145594"><ele>10.0</ele><time>2026-04-12T17:58:54Z</time></trkpt><trkpt lat="38.19382576635649" lon="15.63610217657568"><ele>10.0</ele><time>2026-04-12T17:58:55Z</time></trkpt><trkpt lat="38.19374782468584" lon="15.636133299030979"><ele>10.0</ele><time>2026-04-12T17:58:56Z</time></trkpt><trkpt lat="38.19368208026923" lon="15.636165103474335"><ele>10.0</ele><time>2026-04-12T17:58:57Z</time></trkpt><trkpt lat="38.193612737258505" lon="15.636197907181318"><ele>10.0</ele><time>2026-04-12T17:58:58Z</time></trkpt><trkpt lat="38.193540957264496" lon="15.63621648726909"><ele>10.5</ele><time>2026-04-12T17:58:59Z</time></trkpt><trkpt lat="38.193472872310416" lon="15.6362479013547"><ele>11.0</ele><time>2026-04-12T17:59:00Z</time></trkpt><trkpt lat="38.193413297821074" lon="15.636294954471937"><ele>11.5</ele><time>2026-04-12T17:59:01Z</time></trkpt><trkpt lat="38.19334317114143" lon="15.636325998838492"><ele>12.0</ele><time>2026-04-12T17:59:02Z</time></trkpt><trkpt lat="38.19326401244941" lon="15.636361938998212"><ele>12.499999999999998</ele><time>2026-04-12T17:59:03Z</time></trkpt><trkpt lat="38.193186874232914" lon="15.636418303487396"><ele>13.0</ele><time>2026-04-12T17:59:04Z</time></trkpt><trkpt lat="38.19310115709682" lon="15.63649345180123"><ele>13.0</ele><time>2026-04-12T17:59:05Z</time></trkpt><trkpt lat="38.193020176563884" lon="15.636573485554829"><ele>13.0</ele><time>2026-04-12T17:59:06Z</time></trkpt><trkpt lat="38.19293570317373" lon="15.63664760310361"><ele>13.0</ele><time>2026-04-12T17:59:07Z</time></trkpt><trkpt lat="38.19285755039101" lon="15.636740731926718"><ele>13.0</ele><time>2026-04-12T17:59:08Z</time></trkpt><trkpt lat="38.192779462373615" lon="15.6368147963315"><ele>13.0</ele><time>2026-04-12T17:59:09Z</time></trkpt><trkpt lat="38.192697677851655" lon="15.636887244456243"><ele>12.999999999999998</ele><time>2026-04-12T17:59:10Z</time></trkpt><trkpt lat="38.192621664676594" lon="15.636952645206124"><ele>13.0</ele><time>2026-04-12T17:59:11Z</time></trkpt><trkpt lat="38.19255646544148" lon="15.637015347993136"><ele>13.0</ele><time>2026-04-12T17:59:12Z</time></trkpt><trkpt lat="38.19248865291537" lon="15.63707967219159"><ele>13.0</ele><time>2026-04-12T17:59:13Z</time></trkpt><trkpt lat="38.1924204813463" lon="15.637149590167557"><ele>12.999999999999998</ele><time>2026-04-12T17:59:14Z</time></trkpt><trkpt lat="38.192355387111874" lon="15.637225524577097"><ele>13.0</ele><time>2026-04-12T17:59:15Z</time></trkpt><trkpt lat="38.192293606556724" lon="15.637306917052687"><ele>13.25</ele><time>2026-04-12T17:59:16Z</time></trkpt><trkpt lat="38.192233147233274" lon="15.637401315058117"><ele>13.5</ele><time>2026-04-12T17:59:17Z</time></trkpt><trkpt lat="38.19217740347738" lon="15.63751783688093"><ele>13.75</ele><time>2026-04-12T17:59:18Z</time></trkpt><trkpt lat="38.19209674716087" lon="15.637673451374903"><ele>14.0</ele><time>2026-04-12T17:59:19Z</time></trkpt><trkpt lat="38.19202086319295" lon="15.63784846769521"><ele>15.5</ele><time>2026-04-12T17:59:20Z</time></trkpt><trkpt lat="38.19195753299231" lon="15.637995210052182"><ele>17.0</ele><time>2026-04-12T17:59:21Z</time></trkpt><trkpt lat="38.19188509360813" lon="15.638171288612506"><ele>18.5</ele><time>2026-04-12T17:59:22Z</time></trkpt><trkpt lat="38.1918349700489" lon="15.638321560636882"><ele>20.0</ele><time>2026-04-12T17:59:23Z</time></trkpt><trkpt lat="38.1917882256904" lon="15.638416501173662"><ele>20.0</ele><time>2026-04-12T17:59:24Z</time></trkpt><trkpt lat="38.19176379690837" lon="15.63849539489741"><ele>20.0</ele><time>2026-04-12T17:59:25Z</time></trkpt><trkpt lat="38.19175570604151" lon="15.638578684186818"><ele>20.0</ele><time>2026-04-12T17:59:26Z</time></trkpt><trkpt lat="38.19174421819264" lon="15.638667990228258"><ele>20.0</ele><time>2026-04-12T17:59:27Z</time></trkpt><trkpt lat="38.19173658600458" lon="15.63875209322723"><ele>20.0</ele><time>2026-04-12T17:59:28Z</time></trkpt><trkpt lat="38.191741064677906" lon="15.638873060841775"><ele>20.0</ele><time>2026-04-12T17:59:30Z</time></trkpt><trkpt lat="38.19173228115707" lon="15.638987254380238"><ele>20.6</ele><time>2026-04-12T17:59:31Z</time></trkpt><trkpt lat="38.19173187181722" lon="15.639124161530644"><ele>21.2</ele><time>2026-04-12T17:59:32Z</time></trkpt><trkpt lat="38.19172715583729" lon="15.63923642827319"><ele>21.799999999999997</ele><time>2026-04-12T17:59:33Z</time></trkpt><trkpt lat="38.19172220617109" lon="15.639340830762285"><ele>22.4</ele><time>2026-04-12T17:59:34Z</time></trkpt><trkpt lat="38.191726578345836" lon="15.639456414097962"><ele>23.0</ele><time>2026-04-12T17:59:35Z</time></trkpt><trkpt lat="38.191729517121374" lon="15.639607163554842"><ele>23.25</ele><time>2026-04-12T17:59:37Z</time></trkpt><trkpt lat="38.19172036970536" lon="15.639712996713218"><ele>23.5</ele><time>2026-04-12T17:59:38Z</time></trkpt><trkpt lat="38.19171806185624" lon="15.639896897872566"><ele>23.75</ele><time>2026-04-12T17:59:39Z</time></trkpt><trkpt lat="38.1917154532478" lon="15.640094955239347"><ele>24.0</ele><time>2026-04-12T17:59:40Z</time></trkpt><trkpt lat="38.191711131433415" lon="15.640286742176718"><ele>24.25</ele><time>2026-04-12T17:59:41Z</time></trkpt><trkpt lat="38.1917189065821" lon="15.640463957130729"><ele>24.5</ele><time>2026-04-12T17:59:42Z</time></trkpt><trkpt lat="38.19167527820974" lon="15.64060581250203"><ele>24.75</ele><time>2026-04-12T17:59:43Z</time></trkpt><trkpt lat="38.1916426577517" lon="15.6407306437868"><ele>25.0</ele><time>2026-04-12T17:59:44Z</time></trkpt><trkpt lat="38.19158573529138" lon="15.640826576389877"><ele>25.000000000000004</ele><time>2026-04-12T17:59:45Z</time></trkpt><trkpt lat="38.191530822229694" lon="15.640918550192666"><ele>25.0</ele><time>2026-04-12T17:59:46Z</time></trkpt><trkpt lat="38.19148222276855" lon="15.640991753761462"><ele>25.0</ele><time>2026-04-12T17:59:47Z</time></trkpt><trkpt lat="38.1914295018976" lon="15.641068092964934"><ele>25.0</ele><time>2026-04-12T17:59:48Z</time></trkpt><trkpt lat="38.19137024996517" lon="15.641155231842376"><ele>25.000000000000004</ele><time>2026-04-12T17:59:49Z</time></trkpt><trkpt lat="38.191300169706345" lon="15.641258295839933"><ele>25.0</ele><time>2026-04-12T17:59:50Z</time></trkpt><trkpt lat="38.191222439456105" lon="15.641372609855644"><ele>23.8</ele><time>2026-04-12T17:59:51Z</time></trkpt><trkpt lat="38.19115427132643" lon="15.641472885324891"><ele>22.6</ele><time>2026-04-12T17:59:52Z</time></trkpt><trkpt lat="38.191103922247386" lon="15.6415704159878"><ele>21.4</ele><time>2026-04-12T17:59:53Z</time></trkpt><trkpt lat="38.19104996745237" lon="15.641650014440641"><ele>20.2</ele><time>2026-04-12T17:59:54Z</time></trkpt><trkpt lat="38.190989525472304" lon="15.641736751509752"><ele>19.0</ele><time>2026-04-12T17:59:55Z</time></trkpt><trkpt lat="38.19090739251295" lon="15.641809329243042"><ele>19.0</ele><time>2026-04-12T17:59:56Z</time></trkpt><trkpt lat="38.190813954068716" lon="15.641897913715237"><ele>19.0</ele><time>2026-04-12T17:59:57Z</time></trkpt><trkpt lat="38.190696307855006" lon="15.64197591502822"><ele>19.0</ele><time>2026-04-12T17:59:58Z</time></trkpt><trkpt lat="38.19053848081584" lon="15.642059156340178"><ele>19.0</ele><time>2026-04-12T17:59:59Z</time></trkpt><trkpt lat="38.19034538447139" lon="15.642149438550257"><ele>19.0</ele><time>2026-04-12T18:00:00Z</time></trkpt><trkpt lat="38.190144966979" lon="15.642262992332329"><ele>19.0</ele><time>2026-04-12T18:00:01Z</time></trkpt><trkpt lat="38.18994535330749" lon="15.642358090635076"><ele>19.0</ele><time>2026-04-12T18:00:02Z</time></trkpt><trkpt lat="38.18976833795875" lon="15.642438376481955"><ele>19.0</ele><time>2026-04-12T18:00:03Z</time></trkpt><trkpt lat="38.18961730294349" lon="15.642506505108843"><ele>19.0</ele><time>2026-04-12T18:00:04Z</time></trkpt><trkpt lat="38.1894885369046" lon="15.642570840787839"><ele>19.0</ele><time>2026-04-12T18:00:05Z</time></trkpt><trkpt lat="38.18937618009793" lon="15.642623042575817"><ele>19.0</ele><time>2026-04-12T18:00:06Z</time></trkpt><trkpt lat="38.18926321311738" lon="15.64267647662908"><ele>19.0</ele><time>2026-04-12T18:00:07Z</time></trkpt><trkpt lat="38.189150203051334" lon="15.642737711839878"><ele>19.0</ele><time>2026-04-12T18:00:08Z</time></trkpt><trkpt lat="38.189028166068944" lon="15.642797927493644"><ele>19.0</ele><time>2026-04-12T18:00:09Z</time></trkpt><trkpt lat="38.18890865307349" lon="15.642857957032074"><ele>19.0</ele><time>2026-04-12T18:00:10Z</time></trkpt><trkpt lat="38.18879704994914" lon="15.64291488005131"><ele>19.2</ele><time>2026-04-12T18:00:11Z</time></trkpt><trkpt lat="38.18869301624743" lon="15.642977131573456"><ele>19.4</ele><time>2026-04-12T18:00:12Z</time></trkpt><trkpt lat="38.188586015525665" lon="15.643025202617137"><ele>19.6</ele><time>2026-04-12T18:00:13Z</time></trkpt><trkpt lat="38.188494860263674" lon="15.643073428106634"><ele>19.8</ele><time>2026-04-12T18:00:14Z</time></trkpt><trkpt lat="38.18842315681667" lon="15.643104988344113"><ele>20.0</ele><time>2026-04-12T18:00:15Z</time></trkpt><trkpt lat="38.18831577347163" lon="15.643163518370601"><ele>20.0</ele><time>2026-04-12T18:00:17Z</time></trkpt><trkpt lat="38.18823945732799" lon="15.643184187770228"><ele>20.0</ele><time>2026-04-12T18:00:19Z</time></trkpt><trkpt lat="38.18818014670242" lon="15.643213588722194"><ele>20.0</ele><time>2026-04-12T18:00:20Z</time></trkpt><trkpt lat="38.18808915256834" lon="15.64325869550851"><ele>20.0</ele><time>2026-04-12T18:00:21Z</time></trkpt><trkpt lat="38.188006339933054" lon="15.643299746624717"><ele>20.0</ele><time>2026-04-12T18:00:22Z</time></trkpt><trkpt lat="38.18791309370492" lon="15.643345969805033"><ele>20.0</ele><time>2026-04-12T18:00:23Z</time></trkpt><trkpt lat="38.187816126972635" lon="15.643394037277684"><ele>20.2</ele><time>2026-04-12T18:00:24Z</time></trkpt><trkpt lat="38.18772175164276" lon="15.643440845455538"><ele>20.4</ele><time>2026-04-12T18:00:25Z</time></trkpt><trkpt lat="38.187623873814076" lon="15.643489390979049"><ele>20.6</ele><time>2026-04-12T18:00:26Z</time></trkpt><trkpt lat="38.18752037377281" lon="15.643540725029373"><ele>20.8</ele><time>2026-04-12T18:00:27Z</time></trkpt><trkpt lat="38.18741735285916" lon="15.643591821071466"><ele>21.0</ele><time>2026-04-12T18:00:28Z</time></trkpt><trkpt lat="38.187311232971126" lon="15.643644799240674"><ele>21.0</ele><time>2026-04-12T18:00:29Z</time></trkpt><trkpt lat="38.18720519224598" lon="15.643697672093854"><ele>21.0</ele><time>2026-04-12T18:00:30Z</time></trkpt><trkpt lat="38.187091668375366" lon="15.643754276047101"><ele>21.0</ele><time>2026-04-12T18:00:31Z</time></trkpt><trkpt lat="38.186984613851585" lon="15.643807653674363"><ele>21.0</ele><time>2026-04-12T18:00:32Z</time></trkpt><trkpt lat="38.18687368481265" lon="15.643862242391087"><ele>21.0</ele><time>2026-04-12T18:00:33Z</time></trkpt><trkpt lat="38.186760707115496" lon="15.643918103360049"><ele>21.0</ele><time>2026-04-12T18:00:34Z</time></trkpt><trkpt lat="38.18663831707598" lon="15.643978618214215"><ele>21.0</ele><time>2026-04-12T18:00:35Z</time></trkpt><trkpt lat="38.18652556581345" lon="15.644055920403614"><ele>21.0</ele><time>2026-04-12T18:00:36Z</time></trkpt><trkpt lat="38.18641612370886" lon="15.644088878212795"><ele>20.0</ele><time>2026-04-12T18:00:37Z</time></trkpt><trkpt lat="38.1863027682369" lon="15.644144558491341"><ele>19.0</ele><time>2026-04-12T18:00:38Z</time></trkpt><trkpt lat="38.18618939226152" lon="15.644200740570328"><ele>18.0</ele><time>2026-04-12T18:00:39Z</time></trkpt><trkpt lat="38.18608568359781" lon="15.644254111539702"><ele>17.0</ele><time>2026-04-12T18:00:40Z</time></trkpt><trkpt lat="38.18599526407258" lon="15.6443012080447"><ele>17.0</ele><time>2026-04-12T18:00:41Z</time></trkpt><trkpt lat="38.18590454882328" lon="15.644347869534592"><ele>17.0</ele><time>2026-04-12T18:00:42Z</time></trkpt><trkpt lat="38.18582619793926" lon="15.644385394850476"><ele>17.0</ele><time>2026-04-12T18:00:43Z</time></trkpt><trkpt lat="38.185735000457896" lon="15.64442974672329"><ele>17.0</ele><time>2026-04-12T18:00:44Z</time></trkpt><trkpt lat="38.185644731785445" lon="15.644473646910415"><ele>17.0</ele><time>2026-04-12T18:00:45Z</time></trkpt><trkpt lat="38.18555291319005" lon="15.644518175206587"><ele>17.0</ele><time>2026-04-12T18:00:46Z</time></trkpt><trkpt lat="38.18546034075598" lon="15.644562368427481"><ele>17.0</ele><time>2026-04-12T18:00:47Z</time></trkpt><trkpt lat="38.18535735816339" lon="15.64461153311476"><ele>17.0</ele><time>2026-04-12T18:00:48Z</time></trkpt><trkpt lat="38.18524695316814" lon="15.644669093052883"><ele>17.0</ele><time>2026-04-12T18:00:49Z</time></trkpt><trkpt lat="38.18513341231094" lon="15.644726277180375"><ele>17.0</ele><time>2026-04-12T18:00:50Z</time></trkpt><trkpt lat="38.18502985193588" lon="15.644779392202922"><ele>17.0</ele><time>2026-04-12T18:00:51Z</time></trkpt><trkpt lat="38.18493001848907" lon="15.644829575474873"><ele>17.0</ele><time>2026-04-12T18:00:52Z</time></trkpt><trkpt lat="38.18482778426693" lon="15.644879913318624"><ele>17.0</ele><time>2026-04-12T18:00:53Z</time></trkpt><trkpt lat="38.18472165124666" lon="15.644932170793457"><ele>17.0</ele><time>2026-04-12T18:00:54Z</time></trkpt><trkpt lat="38.18460853247813" lon="15.64498801364383"><ele>17.25</ele><time>2026-04-12T18:00:55Z</time></trkpt><trkpt lat="38.18448938683903" lon="15.645048761137643"><ele>17.5</ele><time>2026-04-12T18:00:56Z</time></trkpt><trkpt lat="38.184368238326435" lon="15.645110189824168"><ele>17.75</ele><time>2026-04-12T18:00:57Z</time></trkpt><trkpt lat="38.18425321413125" lon="15.645167732886431"><ele>18.0</ele><time>2026-04-12T18:00:58Z</time></trkpt><trkpt lat="38.18415317882356" lon="15.645217777395942"><ele>18.0</ele><time>2026-04-12T18:00:59Z</time></trkpt><trkpt lat="38.18405748796129" lon="15.645265648588554"><ele>18.0</ele><time>2026-04-12T18:01:00Z</time></trkpt><trkpt lat="38.18396588340155" lon="15.645311475532788"><ele>18.0</ele><time>2026-04-12T18:01:01Z</time></trkpt><trkpt lat="38.183872486724376" lon="15.645358198957647"><ele>18.0</ele><time>2026-04-12T18:01:02Z</time></trkpt><trkpt lat="38.18377624571438" lon="15.645407771086742"><ele>18.0</ele><time>2026-04-12T18:01:03Z</time></trkpt><trkpt lat="38.18368322867274" lon="15.645456203836726"><ele>19.4</ele><time>2026-04-12T18:01:04Z</time></trkpt><trkpt lat="38.183592920421965" lon="15.645506051756794"><ele>20.8</ele><time>2026-04-12T18:01:05Z</time></trkpt><trkpt lat="38.18350414147671" lon="15.645556208640171"><ele>22.2</ele><time>2026-04-12T18:01:06Z</time></trkpt><trkpt lat="38.18342691793894" lon="15.645604930392413"><ele>23.6</ele><time>2026-04-12T18:01:07Z</time></trkpt><trkpt lat="38.183352542533" lon="15.64565315599645"><ele>25.0</ele><time>2026-04-12T18:01:08Z</time></trkpt><trkpt lat="38.18329023803484" lon="15.645735981912962"><ele>25.0</ele><time>2026-04-12T18:01:09Z</time></trkpt><trkpt lat="38.18323327732814" lon="15.645812325417436"><ele>25.0</ele><time>2026-04-12T18:01:10Z</time></trkpt><trkpt lat="38.183157161862816" lon="15.645867660620448"><ele>25.0</ele><time>2026-04-12T18:01:11Z</time></trkpt><trkpt lat="38.183088320172224" lon="15.64593825664322"><ele>25.0</ele><time>2026-04-12T18:01:12Z</time></trkpt><trkpt lat="38.18300034198485" lon="15.646028475341858"><ele>25.0</ele><time>2026-04-12T18:01:13Z</time></trkpt><trkpt lat="38.182892569483" lon="15.64614585044671"><ele>25.25</ele><time>2026-04-12T18:01:14Z</time></trkpt><trkpt lat="38.18278608133725" lon="15.64626097271713"><ele>25.5</ele><time>2026-04-12T18:01:15Z</time></trkpt><trkpt lat="38.18267848597225" lon="15.646379001945267"><ele>25.75</ele><time>2026-04-12T18:01:16Z</time></trkpt><trkpt lat="38.182578046158255" lon="15.646501720596211"><ele>26.0</ele><time>2026-04-12T18:01:17Z</time></trkpt><trkpt lat="38.18248276939015" lon="15.64660421156392"><ele>26.0</ele><time>2026-04-12T18:01:18Z</time></trkpt><trkpt lat="38.18239704668908" lon="15.646693979166155"><ele>26.0</ele><time>2026-04-12T18:01:19Z</time></trkpt><trkpt lat="38.1823008833569" lon="15.646755248293783"><ele>26.0</ele><time>2026-04-12T18:01:20Z</time></trkpt><trkpt lat="38.1822069809792" lon="15.646818015378587"><ele>26.0</ele><time>2026-04-12T18:01:21Z</time></trkpt><trkpt lat="38.18211464575034" lon="15.646875354419144"><ele>26.0</ele><time>2026-04-12T18:01:22Z</time></trkpt><trkpt lat="38.182026051124055" lon="15.646922493489669"><ele>26.4</ele><time>2026-04-12T18:01:23Z</time></trkpt><trkpt lat="38.18192792913933" lon="15.64698108895874"><ele>26.8</ele><time>2026-04-12T18:01:24Z</time></trkpt><trkpt lat="38.181828136914504" lon="15.647037759269413"><ele>27.199999999999996</ele><time>2026-04-12T18:01:25Z</time></trkpt><trkpt lat="38.18172490229842" lon="15.64709468184317"><ele>27.599999999999998</ele><time>2026-04-12T18:01:26Z</time></trkpt><trkpt lat="38.18163396117063" lon="15.647146735287135"><ele>28.0</ele><time>2026-04-12T18:01:27Z</time></trkpt><trkpt lat="38.181563636353566" lon="15.647185338321872"><ele>27.799999999999997</ele><time>2026-04-12T18:01:28Z</time></trkpt><trkpt lat="38.18146052775331" lon="15.647229408385057"><ele>27.599999999999998</ele><time>2026-04-12T18:01:30Z</time></trkpt><trkpt lat="38.181370633534705" lon="15.647278905590852"><ele>27.400000000000002</ele><time>2026-04-12T18:01:32Z</time></trkpt><trkpt lat="38.181271072474686" lon="15.647337905006315"><ele>27.200000000000003</ele><time>2026-04-12T18:01:34Z</time></trkpt><trkpt lat="38.18115213307774" lon="15.647383594580537"><ele>27.0</ele><time>2026-04-12T18:01:36Z</time></trkpt><trkpt lat="38.18105284523319" lon="15.647462677673234"><ele>27.0</ele><time>2026-04-12T18:01:38Z</time></trkpt><trkpt lat="38.18094586835433" lon="15.647520564075215"><ele>27.0</ele><time>2026-04-12T18:01:40Z</time></trkpt><trkpt lat="38.18087872564514" lon="15.6475576033871"><ele>27.0</ele><time>2026-04-12T18:01:41Z</time></trkpt><trkpt lat="38.18081018334774" lon="15.647592588766269"><ele>27.0</ele><time>2026-04-12T18:01:42Z</time></trkpt><trkpt lat="38.18074321876473" lon="15.64763717865503"><ele>27.0</ele><time>2026-04-12T18:01:43Z</time></trkpt><trkpt lat="38.180673825823945" lon="15.647672599205785"><ele>27.0</ele><time>2026-04-12T18:01:44Z</time></trkpt><trkpt lat="38.18061134461136" lon="15.647704149339576"><ele>26.8</ele><time>2026-04-12T18:01:45Z</time></trkpt><trkpt lat="38.180505308563966" lon="15.647757085801985"><ele>26.6</ele><time>2026-04-12T18:01:47Z</time></trkpt><trkpt lat="38.180391749708505" lon="15.6478113341452"><ele>26.400000000000002</ele><time>2026-04-12T18:01:49Z</time></trkpt><trkpt lat="38.18031435085362" lon="15.647850157961969"><ele>26.200000000000003</ele><time>2026-04-12T18:01:50Z</time></trkpt><trkpt lat="38.18022018614035" lon="15.64789107974323"><ele>26.0</ele><time>2026-04-12T18:01:51Z</time></trkpt><trkpt lat="38.18012196883353" lon="15.647938058450336"><ele>26.0</ele><time>2026-04-12T18:01:52Z</time></trkpt><trkpt lat="38.180013904737145" lon="15.647987259067039"><ele>26.0</ele><time>2026-04-12T18:01:53Z</time></trkpt><trkpt lat="38.179916075548455" lon="15.648030155389417"><ele>26.0</ele><time>2026-04-12T18:01:54Z</time></trkpt><trkpt lat="38.1797948464371" lon="15.648080641584185"><ele>26.0</ele><time>2026-04-12T18:01:55Z</time></trkpt><trkpt lat="38.17965447233621" lon="15.648124523322076"><ele>25.25</ele><time>2026-04-12T18:01:56Z</time></trkpt><trkpt lat="38.17952024992741" lon="15.648168546306357"><ele>24.5</ele><time>2026-04-12T18:01:57Z</time></trkpt><trkpt lat="38.17939806998762" lon="15.648211265624097"><ele>23.75</ele><time>2026-04-12T18:01:58Z</time></trkpt><trkpt lat="38.179283986739925" lon="15.64824964032127"><ele>23.0</ele><time>2026-04-12T18:01:59Z</time></trkpt><trkpt lat="38.17918034573967" lon="15.648291770053545"><ele>23.0</ele><time>2026-04-12T18:02:00Z</time></trkpt><trkpt lat="38.17908613862931" lon="15.648329058564483"><ele>23.0</ele><time>2026-04-12T18:02:01Z</time></trkpt><trkpt lat="38.17899050813473" lon="15.648376169003585"><ele>23.0</ele><time>2026-04-12T18:02:02Z</time></trkpt><trkpt lat="38.178884931576704" lon="15.648402821431525"><ele>23.0</ele><time>2026-04-12T18:02:03Z</time></trkpt><trkpt lat="38.17878538891454" lon="15.648447567989285"><ele>23.0</ele><time>2026-04-12T18:02:04Z</time></trkpt><trkpt lat="38.17868250336721" lon="15.648490557571392"><ele>23.25</ele><time>2026-04-12T18:02:05Z</time></trkpt><trkpt lat="38.17858976770417" lon="15.648525435429535"><ele>23.5</ele><time>2026-04-12T18:02:06Z</time></trkpt><trkpt lat="38.17846877111447" lon="15.648570299924216"><ele>23.75</ele><time>2026-04-12T18:02:07Z</time></trkpt><trkpt lat="38.1783426779302" lon="15.648621982761448"><ele>24.0</ele><time>2026-04-12T18:02:08Z</time></trkpt><trkpt lat="38.178246847817675" lon="15.64866365742895"><ele>24.2</ele><time>2026-04-12T18:02:09Z</time></trkpt><trkpt lat="38.178175548106" lon="15.648679074366346"><ele>24.4</ele><time>2026-04-12T18:02:10Z</time></trkpt><trkpt lat="38.17811176472806" lon="15.648715484770458"><ele>24.6</ele><time>2026-04-12T18:02:11Z</time></trkpt><trkpt lat="38.178018231359445" lon="15.648722679661594"><ele>24.8</ele><time>2026-04-12T18:02:12Z</time></trkpt><trkpt lat="38.1778824067812" lon="15.648764252983513"><ele>25.0</ele><time>2026-04-12T18:02:13Z</time></trkpt><trkpt lat="38.177734526166404" lon="15.648833377428838"><ele>25.0</ele><time>2026-04-12T18:02:14Z</time></trkpt><trkpt lat="38.17755583291594" lon="15.64888332950533"><ele>25.0</ele><time>2026-04-12T18:02:15Z</time></trkpt><trkpt lat="38.177378078423565" lon="15.648953790862935"><ele>25.0</ele><time>2026-04-12T18:02:16Z</time></trkpt><trkpt lat="38.1771941761757" lon="15.649041883921914"><ele>24.0</ele><time>2026-04-12T18:02:17Z</time></trkpt><trkpt lat="38.176990589314286" lon="15.649149158129909"><ele>23.0</ele><time>2026-04-12T18:02:18Z</time></trkpt><trkpt lat="38.17677943580635" lon="15.649261172070856"><ele>22.0</ele><time>2026-04-12T18:02:19Z</time></trkpt><trkpt lat="38.1765960128438" lon="15.64937120998871"><ele>21.666666666666664</ele><time>2026-04-12T18:02:20Z</time></trkpt><trkpt lat="38.176427527000094" lon="15.649453289977439"><ele>21.333333333333332</ele><time>2026-04-12T18:02:21Z</time></trkpt><trkpt lat="38.17629054231649" lon="15.64950621217688"><ele>21.0</ele><time>2026-04-12T18:02:22Z</time></trkpt><trkpt lat="38.17613871156792" lon="15.649540653747707"><ele>24.333333333333336</ele><time>2026-04-12T18:02:23Z</time></trkpt><trkpt lat="38.175951206000526" lon="15.649587019884464"><ele>27.666666666666668</ele><time>2026-04-12T18:02:24Z</time></trkpt><trkpt lat="38.17576484326631" lon="15.649623093812103"><ele>31.0</ele><time>2026-04-12T18:02:25Z</time></trkpt><trkpt lat="38.17555448122214" lon="15.649658262608842"><ele>31.0</ele><time>2026-04-12T18:02:26Z</time></trkpt><trkpt lat="38.17536315216635" lon="15.649704546388364"><ele>31.0</ele><time>2026-04-12T18:02:27Z</time></trkpt><trkpt lat="38.17514975296569" lon="15.649732438166614"><ele>31.0</ele><time>2026-04-12T18:02:28Z</time></trkpt><trkpt lat="38.17494512147769" lon="15.649751159264397"><ele>31.333333333333336</ele><time>2026-04-12T18:02:29Z</time></trkpt><trkpt lat="38.17476002867253" lon="15.649772798503657"><ele>31.666666666666664</ele><time>2026-04-12T18:02:30Z</time></trkpt><trkpt lat="38.17458477331917" lon="15.649808773555618"><ele>32.0</ele><time>2026-04-12T18:02:31Z</time></trkpt><trkpt lat="38.174437358750275" lon="15.64985484079277"><ele>32.0</ele><time>2026-04-12T18:02:32Z</time></trkpt><trkpt lat="38.17430418684858" lon="15.649906474850502"><ele>32.0</ele><time>2026-04-12T18:02:33Z</time></trkpt><trkpt lat="38.17415417477852" lon="15.64998216852075"><ele>32.0</ele><time>2026-04-12T18:02:34Z</time></trkpt><trkpt lat="38.17402324977813" lon="15.65007045756937"><ele>32.0</ele><time>2026-04-12T18:02:35Z</time></trkpt><trkpt lat="38.173887063703056" lon="15.65016715771618"><ele>30.5</ele><time>2026-04-12T18:02:36Z</time></trkpt><trkpt lat="38.173751546446006" lon="15.650271368401308"><ele>29.0</ele><time>2026-04-12T18:02:37Z</time></trkpt><trkpt lat="38.17348153560424" lon="15.650496246873203"><ele>29.0</ele><time>2026-04-12T18:02:39Z</time></trkpt><trkpt lat="38.173337660243824" lon="15.650605170735346"><ele>29.0</ele><time>2026-04-12T18:02:40Z</time></trkpt><trkpt lat="38.17319822051771" lon="15.650708584459887"><ele>29.0</ele><time>2026-04-12T18:02:41Z</time></trkpt><trkpt lat="38.17307314218834" lon="15.65080160664483"><ele>28.75</ele><time>2026-04-12T18:02:42Z</time></trkpt><trkpt lat="38.172952652019845" lon="15.650886810218779"><ele>28.5</ele><time>2026-04-12T18:02:43Z</time></trkpt><trkpt lat="38.17283736012656" lon="15.650972493497951"><ele>28.25</ele><time>2026-04-12T18:02:44Z</time></trkpt><trkpt lat="38.172716653529854" lon="15.651062667517603"><ele>28.0</ele><time>2026-04-12T18:02:45Z</time></trkpt><trkpt lat="38.172568922100204" lon="15.651149099865624"><ele>28.0</ele><time>2026-04-12T18:02:46Z</time></trkpt><trkpt lat="38.17243420789649" lon="15.651187180280917"><ele>28.0</ele><time>2026-04-12T18:02:47Z</time></trkpt><trkpt lat="38.17229024653771" lon="15.651192546565227"><ele>28.0</ele><time>2026-04-12T18:02:48Z</time></trkpt><trkpt lat="38.17215310589702" lon="15.651143316305053"><ele>28.0</ele><time>2026-04-12T18:02:49Z</time></trkpt><trkpt lat="38.17202202132503" lon="15.651108897189056"><ele>27.799999999999997</ele><time>2026-04-12T18:02:50Z</time></trkpt><trkpt lat="38.17189599316792" lon="15.651075805835791"><ele>27.599999999999998</ele><time>2026-04-12T18:02:51Z</time></trkpt><trkpt lat="38.17179801304681" lon="15.651054412405424"><ele>27.400000000000002</ele><time>2026-04-12T18:02:52Z</time></trkpt><trkpt lat="38.171713479869396" lon="15.651039122038373"><ele>27.200000000000003</ele><time>2026-04-12T18:02:53Z</time></trkpt><trkpt lat="38.17162996790505" lon="15.651040339341511"><ele>27.0</ele><time>2026-04-12T18:02:54Z</time></trkpt><trkpt lat="38.1715461068205" lon="15.651036866155389"><ele>26.333333333333332</ele><time>2026-04-12T18:02:55Z</time></trkpt><trkpt lat="38.17146619738297" lon="15.65103257216299"><ele>25.666666666666668</ele><time>2026-04-12T18:02:56Z</time></trkpt><trkpt lat="38.17137467054593" lon="15.651012587105479"><ele>25.0</ele><time>2026-04-12T18:02:57Z</time></trkpt><trkpt lat="38.171293037078016" lon="15.651069333873146"><ele>24.333333333333336</ele><time>2026-04-12T18:02:58Z</time></trkpt><trkpt lat="38.17122127241747" lon="15.651057131119966"><ele>23.666666666666668</ele><time>2026-04-12T18:02:59Z</time></trkpt><trkpt lat="38.17115387773785" lon="15.651048140205363"><ele>23.0</ele><time>2026-04-12T18:03:00Z</time></trkpt><trkpt lat="38.171053596560746" lon="15.651032690535656"><ele>23.0</ele><time>2026-04-12T18:03:02Z</time></trkpt><trkpt lat="38.170984663920244" lon="15.651018837494885"><ele>23.0</ele><time>2026-04-12T18:03:04Z</time></trkpt><trkpt lat="38.17092284015211" lon="15.650997347959837"><ele>23.0</ele><time>2026-04-12T18:11:39Z</time></trkpt><trkpt lat="38.17081315033261" lon="15.651088540078984"><ele>23.0</ele><time>2026-04-12T18:34:44Z</time></trkpt><trkpt lat="38.17075419659885" lon="15.651131553516437"><ele>23.0</ele><time>2026-04-12T18:34:45Z</time></trkpt><trkpt lat="38.170687202303235" lon="15.651183790656567"><ele>23.0</ele><time>2026-04-12T18:34:46Z</time></trkpt><trkpt lat="38.17060343759735" lon="15.651258541089733"><ele>23.0</ele><time>2026-04-12T18:34:47Z</time></trkpt><trkpt lat="38.17052209014044" lon="15.651352153250015"><ele>23.0</ele><time>2026-04-12T18:34:48Z</time></trkpt><trkpt lat="38.17047899280893" lon="15.651439432119135"><ele>23.0</ele><time>2026-04-12T18:34:49Z</time></trkpt><trkpt lat="38.170461079924806" lon="15.651529727983004"><ele>23.0</ele><time>2026-04-12T18:34:50Z</time></trkpt><trkpt lat="38.170460215056686" lon="15.65164090053721"><ele>23.0</ele><time>2026-04-12T18:34:51Z</time></trkpt><trkpt lat="38.17048332819809" lon="15.651746133036616"><ele>23.0</ele><time>2026-04-12T18:34:52Z</time></trkpt><trkpt lat="38.17053064208343" lon="15.651834577413325"><ele>23.0</ele><time>2026-04-12T18:34:53Z</time></trkpt><trkpt lat="38.17059120009772" lon="15.651899108348639"><ele>23.0</ele><time>2026-04-12T18:34:54Z</time></trkpt><trkpt lat="38.170663727291206" lon="15.651941151843765"><ele>23.0</ele><time>2026-04-12T18:34:55Z</time></trkpt><trkpt lat="38.17074751455395" lon="15.65195868929754"><ele>23.0</ele><time>2026-04-12T18:34:56Z</time></trkpt><trkpt lat="38.170839944313286" lon="15.651955676951712"><ele>23.0</ele><time>2026-04-12T18:34:57Z</time></trkpt><trkpt lat="38.17095854009958" lon="15.651944116854255"><ele>23.5</ele><time>2026-04-12T18:34:58Z</time></trkpt><trkpt lat="38.17110291235354" lon="15.651951109320402"><ele>24.0</ele><time>2026-04-12T18:34:59Z</time></trkpt><trkpt lat="38.17123709489129" lon="15.65197924154123"><ele>24.5</ele><time>2026-04-12T18:35:00Z</time></trkpt><trkpt lat="38.171339790203476" lon="15.6520324330475"><ele>25.0</ele><time>2026-04-12T18:35:01Z</time></trkpt><trkpt lat="38.171447444281874" lon="15.652053255014122"><ele>25.25</ele><time>2026-04-12T18:35:02Z</time></trkpt><trkpt lat="38.17152008435148" lon="15.652244441740235"><ele>25.5</ele><time>2026-04-12T18:35:03Z</time></trkpt><trkpt lat="38.17158424346095" lon="15.65237663854848"><ele>25.75</ele><time>2026-04-12T18:35:04Z</time></trkpt><trkpt lat="38.17164495523921" lon="15.652522571926841"><ele>26.0</ele><time>2026-04-12T18:35:05Z</time></trkpt><trkpt lat="38.171694281135466" lon="15.652690245426074"><ele>26.75</ele><time>2026-04-12T18:35:06Z</time></trkpt><trkpt lat="38.171745161276704" lon="15.65286326820079"><ele>27.5</ele><time>2026-04-12T18:35:07Z</time></trkpt><trkpt lat="38.17178790852329" lon="15.65301753325547"><ele>28.25</ele><time>2026-04-12T18:35:08Z</time></trkpt><trkpt lat="38.17183540064773" lon="15.653176059553417"><ele>29.0</ele><time>2026-04-12T18:35:09Z</time></trkpt><trkpt lat="38.17187567800771" lon="15.653330901749126"><ele>29.0</ele><time>2026-04-12T18:35:10Z</time></trkpt><trkpt lat="38.17191215881868" lon="15.653472530593552"><ele>29.0</ele><time>2026-04-12T18:35:11Z</time></trkpt><trkpt lat="38.17194151264938" lon="15.653604406340142"><ele>29.0</ele><time>2026-04-12T18:35:12Z</time></trkpt><trkpt lat="38.17196849112038" lon="15.653727281506656"><ele>29.0</ele><time>2026-04-12T18:35:13Z</time></trkpt><trkpt lat="38.17198315215752" lon="15.6538419027692"><ele>29.0</ele><time>2026-04-12T18:35:14Z</time></trkpt><trkpt lat="38.171979355800026" lon="15.653935862993743"><ele>29.142857142857146</ele><time>2026-04-12T18:35:15Z</time></trkpt><trkpt lat="38.1719696141497" lon="15.654031606494812"><ele>29.285714285714285</ele><time>2026-04-12T18:35:16Z</time></trkpt><trkpt lat="38.171954875988085" lon="15.654114529450455"><ele>29.42857142857143</ele><time>2026-04-12T18:35:17Z</time></trkpt><trkpt lat="38.17193664711252" lon="15.654202503008602"><ele>29.571428571428573</ele><time>2026-04-12T18:35:18Z</time></trkpt><trkpt lat="38.17191025940468" lon="15.654290339758601"><ele>29.714285714285715</ele><time>2026-04-12T18:35:19Z</time></trkpt><trkpt lat="38.1718730060482" lon="15.654371764428195"><ele>29.857142857142858</ele><time>2026-04-12T18:35:20Z</time></trkpt><trkpt lat="38.1718312815107" lon="15.654450705207559"><ele>30.0</ele><time>2026-04-12T18:35:21Z</time></trkpt><trkpt lat="38.17178366431716" lon="15.654520822661617"><ele>30.4</ele><time>2026-04-12T18:35:22Z</time></trkpt><trkpt lat="38.17172203841357" lon="15.654575411797673"><ele>30.8</ele><time>2026-04-12T18:35:23Z</time></trkpt><trkpt lat="38.17164931641862" lon="15.654642788859993"><ele>31.200000000000003</ele><time>2026-04-12T18:35:24Z</time></trkpt><trkpt lat="38.17156907855842" lon="15.65469687575085"><ele>31.6</ele><time>2026-04-12T18:35:25Z</time></trkpt><trkpt lat="38.171460322756964" lon="15.65475568235596"><ele>32.0</ele><time>2026-04-12T18:35:26Z</time></trkpt><trkpt lat="38.17132718137651" lon="15.654830650956702"><ele>32.0</ele><time>2026-04-12T18:35:27Z</time></trkpt><trkpt lat="38.171165293711134" lon="15.654912541059838"><ele>32.0</ele><time>2026-04-12T18:35:28Z</time></trkpt><trkpt lat="38.170989836453494" lon="15.65499858200505"><ele>32.0</ele><time>2026-04-12T18:35:29Z</time></trkpt><trkpt lat="38.17084713548067" lon="15.655069439124336"><ele>32.0</ele><time>2026-04-12T18:35:30Z</time></trkpt><trkpt lat="38.170717778094726" lon="15.655139900123983"><ele>32.0</ele><time>2026-04-12T18:35:31Z</time></trkpt><trkpt lat="38.17058336588784" lon="15.655222900275747"><ele>32.0</ele><time>2026-04-12T18:35:32Z</time></trkpt><trkpt lat="38.17041843998443" lon="15.655319938258978"><ele>31.666666666666664</ele><time>2026-04-12T18:35:33Z</time></trkpt><trkpt lat="38.17023031721403" lon="15.655420443484408"><ele>31.333333333333336</ele><time>2026-04-12T18:35:34Z</time></trkpt><trkpt lat="38.170031668264976" lon="15.655540635161236"><ele>31.0</ele><time>2026-04-12T18:35:35Z</time></trkpt><trkpt lat="38.16982080932483" lon="15.655668839575915"><ele>31.0</ele><time>2026-04-12T18:35:36Z</time></trkpt><trkpt lat="38.169594112944" lon="15.655785329214352"><ele>31.0</ele><time>2026-04-12T18:35:37Z</time></trkpt><trkpt lat="38.16936626884107" lon="15.655912644891716"><ele>31.0</ele><time>2026-04-12T18:35:38Z</time></trkpt><trkpt lat="38.16912586053806" lon="15.656040574724218"><ele>31.0</ele><time>2026-04-12T18:35:39Z</time></trkpt><trkpt lat="38.168886072554805" lon="15.656179391945791"><ele>31.5</ele><time>2026-04-12T18:35:40Z</time></trkpt><trkpt lat="38.16865526413394" lon="15.656319432233127"><ele>32.0</ele><time>2026-04-12T18:35:41Z</time></trkpt><trkpt lat="38.16842351012104" lon="15.65646451953735"><ele>30.0</ele><time>2026-04-12T18:35:42Z</time></trkpt><trkpt lat="38.16819201679856" lon="15.656621851166527"><ele>28.0</ele><time>2026-04-12T18:35:43Z</time></trkpt><trkpt lat="38.16796452519444" lon="15.656793309607307"><ele>29.5</ele><time>2026-04-12T18:35:44Z</time></trkpt><trkpt lat="38.1677424681656" lon="15.65696944629333"><ele>31.0</ele><time>2026-04-12T18:35:45Z</time></trkpt><trkpt lat="38.16752433929275" lon="15.657147917105965"><ele>29.5</ele><time>2026-04-12T18:35:46Z</time></trkpt><trkpt lat="38.167309466313824" lon="15.657338479060884"><ele>28.0</ele><time>2026-04-12T18:35:47Z</time></trkpt><trkpt lat="38.16709352275493" lon="15.65753887945348"><ele>28.0</ele><time>2026-04-12T18:35:48Z</time></trkpt><trkpt lat="38.16688549446939" lon="15.657741275399495"><ele>28.0</ele><time>2026-04-12T18:35:49Z</time></trkpt><trkpt lat="38.1666783083959" lon="15.657941917493254"><ele>28.5</ele><time>2026-04-12T18:35:50Z</time></trkpt><trkpt lat="38.16646731767105" lon="15.658142975177256"><ele>29.0</ele><time>2026-04-12T18:35:51Z</time></trkpt><trkpt lat="38.16625288550551" lon="15.658346573203577"><ele>29.0</ele><time>2026-04-12T18:35:52Z</time></trkpt><trkpt lat="38.166037808891666" lon="15.658547069344799"><ele>29.0</ele><time>2026-04-12T18:35:53Z</time></trkpt><trkpt lat="38.16582890685966" lon="15.658749103251058"><ele>29.0</ele><time>2026-04-12T18:35:54Z</time></trkpt><trkpt lat="38.16561804795027" lon="15.658954300008098"><ele>29.0</ele><time>2026-04-12T18:35:55Z</time></trkpt><trkpt lat="38.165404076760026" lon="15.659158044437094"><ele>29.0</ele><time>2026-04-12T18:35:56Z</time></trkpt><trkpt lat="38.16519326424995" lon="15.659355943538882"><ele>29.0</ele><time>2026-04-12T18:35:57Z</time></trkpt><trkpt lat="38.16498043718711" lon="15.659555753631095"><ele>30.0</ele><time>2026-04-12T18:35:58Z</time></trkpt><trkpt lat="38.164764614984094" lon="15.659761941674748"><ele>31.0</ele><time>2026-04-12T18:35:59Z</time></trkpt><trkpt lat="38.164553014212345" lon="15.659963542367874"><ele>31.0</ele><time>2026-04-12T18:36:00Z</time></trkpt><trkpt lat="38.164345197025774" lon="15.660157056421479"><ele>31.0</ele><time>2026-04-12T18:36:01Z</time></trkpt><trkpt lat="38.164140043995175" lon="15.660352517173738"><ele>34.5</ele><time>2026-04-12T18:36:02Z</time></trkpt><trkpt lat="38.16392977218179" lon="15.660553723461334"><ele>38.0</ele><time>2026-04-12T18:36:03Z</time></trkpt><trkpt lat="38.16371472480069" lon="15.660759259535347"><ele>38.0</ele><time>2026-04-12T18:36:04Z</time></trkpt><trkpt lat="38.16349606311475" lon="15.66096805696195"><ele>38.0</ele><time>2026-04-12T18:36:05Z</time></trkpt><trkpt lat="38.16327518430206" lon="15.661177161929666"><ele>40.5</ele><time>2026-04-12T18:36:06Z</time></trkpt><trkpt lat="38.163054044776416" lon="15.661388269651841"><ele>43.0</ele><time>2026-04-12T18:36:07Z</time></trkpt><trkpt lat="38.16282973465054" lon="15.66159886784705"><ele>43.0</ele><time>2026-04-12T18:36:08Z</time></trkpt><trkpt lat="38.16260840205311" lon="15.661808340887552"><ele>43.0</ele><time>2026-04-12T18:36:09Z</time></trkpt><trkpt lat="38.16238749510645" lon="15.662017532794108"><ele>45.5</ele><time>2026-04-12T18:36:10Z</time></trkpt><trkpt lat="38.1621689050537" lon="15.662228213807113"><ele>48.0</ele><time>2026-04-12T18:36:11Z</time></trkpt><trkpt lat="38.16194887425248" lon="15.66244272621213"><ele>48.0</ele><time>2026-04-12T18:36:12Z</time></trkpt><trkpt lat="38.1617274771951" lon="15.662657767646175"><ele>48.0</ele><time>2026-04-12T18:36:13Z</time></trkpt><trkpt lat="38.161501349780515" lon="15.662876884241815"><ele>49.5</ele><time>2026-04-12T18:36:14Z</time></trkpt><trkpt lat="38.161288247138685" lon="15.66308961266917"><ele>51.0</ele><time>2026-04-12T18:36:15Z</time></trkpt><trkpt lat="38.16107800410332" lon="15.663292122159108"><ele>51.0</ele><time>2026-04-12T18:36:16Z</time></trkpt><trkpt lat="38.16087008242091" lon="15.663489177982667"><ele>51.0</ele><time>2026-04-12T18:36:17Z</time></trkpt><trkpt lat="38.16066068704439" lon="15.663688070716592"><ele>52.5</ele><time>2026-04-12T18:36:18Z</time></trkpt><trkpt lat="38.1604503702397" lon="15.66388782507669"><ele>54.0</ele><time>2026-04-12T18:36:19Z</time></trkpt><trkpt lat="38.16023682243227" lon="15.664094155737331"><ele>54.0</ele><time>2026-04-12T18:36:20Z</time></trkpt><trkpt lat="38.16001775274161" lon="15.664306650909666"><ele>54.0</ele><time>2026-04-12T18:36:21Z</time></trkpt><trkpt lat="38.159803888951764" lon="15.664511628660124"><ele>53.0</ele><time>2026-04-12T18:36:22Z</time></trkpt><trkpt lat="38.15959473054378" lon="15.664710421742683"><ele>52.0</ele><time>2026-04-12T18:36:23Z</time></trkpt><trkpt lat="38.159385831281654" lon="15.66491313830738"><ele>52.0</ele><time>2026-04-12T18:36:24Z</time></trkpt><trkpt lat="38.159169407501345" lon="15.665122744806139"><ele>52.0</ele><time>2026-04-12T18:36:25Z</time></trkpt><trkpt lat="38.15896250494798" lon="15.66531729850399"><ele>53.5</ele><time>2026-04-12T18:36:26Z</time></trkpt><trkpt lat="38.158754260837625" lon="15.66551117643353"><ele>55.0</ele><time>2026-04-12T18:36:27Z</time></trkpt><trkpt lat="38.1585408752016" lon="15.6656968910662"><ele>55.0</ele><time>2026-04-12T18:36:28Z</time></trkpt><trkpt lat="38.15831628812403" lon="15.665874860391337"><ele>55.0</ele><time>2026-04-12T18:36:29Z</time></trkpt><trkpt lat="38.15808575466819" lon="15.666036421236887"><ele>57.0</ele><time>2026-04-12T18:36:30Z</time></trkpt><trkpt lat="38.15785087806573" lon="15.666181265263189"><ele>59.0</ele><time>2026-04-12T18:36:31Z</time></trkpt><trkpt lat="38.157611799745986" lon="15.666314823843269"><ele>59.0</ele><time>2026-04-12T18:36:32Z</time></trkpt><trkpt lat="38.15737275218011" lon="15.666437353605009"><ele>59.0</ele><time>2026-04-12T18:36:33Z</time></trkpt><trkpt lat="38.15712198076393" lon="15.666545780573754"><ele>58.5</ele><time>2026-04-12T18:36:34Z</time></trkpt><trkpt lat="38.15686425432209" lon="15.666651878475093"><ele>58.0</ele><time>2026-04-12T18:36:35Z</time></trkpt><trkpt lat="38.156593099142846" lon="15.666750052351164"><ele>56.5</ele><time>2026-04-12T18:36:36Z</time></trkpt><trkpt lat="38.15631737656061" lon="15.666838694143696"><ele>55.0</ele><time>2026-04-12T18:36:37Z</time></trkpt><trkpt lat="38.15605341239749" lon="15.666925344759983"><ele>58.0</ele><time>2026-04-12T18:36:38Z</time></trkpt><trkpt lat="38.15579633879734" lon="15.667010984932217"><ele>61.0</ele><time>2026-04-12T18:36:39Z</time></trkpt><trkpt lat="38.155542490330056" lon="15.667092672532458"><ele>63.0</ele><time>2026-04-12T18:36:40Z</time></trkpt><trkpt lat="38.155285271553936" lon="15.667173598113342"><ele>65.0</ele><time>2026-04-12T18:36:41Z</time></trkpt><trkpt lat="38.15503414571559" lon="15.667254287428753"><ele>64.0</ele><time>2026-04-12T18:36:42Z</time></trkpt><trkpt lat="38.15478031847199" lon="15.667335092187727"><ele>63.0</ele><time>2026-04-12T18:36:43Z</time></trkpt><trkpt lat="38.154528515383795" lon="15.667415343523638"><ele>63.0</ele><time>2026-04-12T18:36:44Z</time></trkpt><trkpt lat="38.154277044013845" lon="15.667498217739919"><ele>63.0</ele><time>2026-04-12T18:36:45Z</time></trkpt><trkpt lat="38.15402587953856" lon="15.66757977459528"><ele>63.5</ele><time>2026-04-12T18:36:46Z</time></trkpt><trkpt lat="38.1537743821729" lon="15.66765926298661"><ele>64.0</ele><time>2026-04-12T18:36:47Z</time></trkpt><trkpt lat="38.15352512958845" lon="15.667728312004202"><ele>71.0</ele><time>2026-04-12T18:36:48Z</time></trkpt><trkpt lat="38.1532779140587" lon="15.667798905685391"><ele>78.0</ele><time>2026-04-12T18:36:49Z</time></trkpt><trkpt lat="38.15303360605702" lon="15.667872532884285"><ele>78.0</ele><time>2026-04-12T18:36:50Z</time></trkpt><trkpt lat="38.15279450032432" lon="15.667945967978493"><ele>78.0</ele><time>2026-04-12T18:36:51Z</time></trkpt><trkpt lat="38.15254790036124" lon="15.668015358655344"><ele>77.5</ele><time>2026-04-12T18:36:52Z</time></trkpt><trkpt lat="38.152299536171604" lon="15.668083675640798"><ele>77.0</ele><time>2026-04-12T18:36:53Z</time></trkpt><trkpt lat="38.152045102976835" lon="15.668140286266432"><ele>77.0</ele><time>2026-04-12T18:36:54Z</time></trkpt><trkpt lat="38.15178985716862" lon="15.668188055371893"><ele>77.0</ele><time>2026-04-12T18:36:55Z</time></trkpt><trkpt lat="38.151536775691895" lon="15.66822350737961"><ele>77.0</ele><time>2026-04-12T18:36:56Z</time></trkpt><trkpt lat="38.15128167760833" lon="15.668250481305916"><ele>77.0</ele><time>2026-04-12T18:36:57Z</time></trkpt><trkpt lat="38.151024532122804" lon="15.66826683163766"><ele>77.0</ele><time>2026-04-12T18:36:58Z</time></trkpt><trkpt lat="38.15076749752108" lon="15.668276232689111"><ele>77.0</ele><time>2026-04-12T18:36:59Z</time></trkpt><trkpt lat="38.150509275305666" lon="15.668275817928581"><ele>76.0</ele><time>2026-04-12T18:37:00Z</time></trkpt><trkpt lat="38.15025443448135" lon="15.668267354236285"><ele>75.0</ele><time>2026-04-12T18:37:01Z</time></trkpt><trkpt lat="38.15000408385293" lon="15.668243884823774"><ele>80.0</ele><time>2026-04-12T18:37:02Z</time></trkpt><trkpt lat="38.149753345535416" lon="15.668217230343867"><ele>85.0</ele><time>2026-04-12T18:37:03Z</time></trkpt><trkpt lat="38.14950650214531" lon="15.66818879562339"><ele>85.0</ele><time>2026-04-12T18:37:04Z</time></trkpt><trkpt lat="38.14925765364347" lon="15.668158677808284"><ele>85.0</ele><time>2026-04-12T18:37:05Z</time></trkpt><trkpt lat="38.149003543118596" lon="15.66812692793613"><ele>88.0</ele><time>2026-04-12T18:37:06Z</time></trkpt><trkpt lat="38.14874613119145" lon="15.668094386525867"><ele>91.0</ele><time>2026-04-12T18:37:07Z</time></trkpt><trkpt lat="38.148489098548" lon="15.668059798282252"><ele>91.0</ele><time>2026-04-12T18:37:08Z</time></trkpt><trkpt lat="38.14823171847315" lon="15.668026742579036"><ele>91.0</ele><time>2026-04-12T18:37:09Z</time></trkpt><trkpt lat="38.1479802680561" lon="15.66799363155057"><ele>94.5</ele><time>2026-04-12T18:37:10Z</time></trkpt><trkpt lat="38.147734776612715" lon="15.667966982274026"><ele>98.0</ele><time>2026-04-12T18:37:11Z</time></trkpt><trkpt lat="38.147481320942745" lon="15.667941227302366"><ele>103.5</ele><time>2026-04-12T18:37:12Z</time></trkpt><trkpt lat="38.14722234565142" lon="15.667911797654945"><ele>109.0</ele><time>2026-04-12T18:37:13Z</time></trkpt><trkpt lat="38.146967285360766" lon="15.667882215936237"><ele>109.0</ele><time>2026-04-12T18:37:14Z</time></trkpt><trkpt lat="38.14671946242357" lon="15.667854565647579"><ele>109.0</ele><time>2026-04-12T18:37:15Z</time></trkpt><trkpt lat="38.14647496993225" lon="15.667823256135323"><ele>111.5</ele><time>2026-04-12T18:37:16Z</time></trkpt><trkpt lat="38.14622597396849" lon="15.667779183282681"><ele>114.0</ele><time>2026-04-12T18:37:17.016Z</time></trkpt><trkpt lat="38.14597759017423" lon="15.667715908001588"><ele>104.0</ele><time>2026-04-12T18:37:18.019Z</time></trkpt><trkpt lat="38.14572870058416" lon="15.66763543570699"><ele>94.0</ele><time>2026-04-12T18:37:19.016Z</time></trkpt><trkpt lat="38.145479618949544" lon="15.667534677320843"><ele>92.0</ele><time>2026-04-12T18:37:20.019Z</time></trkpt><trkpt lat="38.14524327054574" lon="15.66742757617582"><ele>90.0</ele><time>2026-04-12T18:37:21Z</time></trkpt><trkpt lat="38.14509929940246" lon="15.667330258354594"><ele>88.0</ele><time>2026-04-12T18:37:22Z</time></trkpt><trkpt lat="38.14491141345212" lon="15.667177941748164"><ele>78.5</ele><time>2026-04-12T18:37:23Z</time></trkpt><trkpt lat="38.14472156009386" lon="15.667002410705912"><ele>69.0</ele><time>2026-04-12T18:37:24Z</time></trkpt><trkpt lat="38.14453754101309" lon="15.66680530629903"><ele>69.0</ele><time>2026-04-12T18:37:25Z</time></trkpt><trkpt lat="38.144361456070776" lon="15.666591665108404"><ele>69.0</ele><time>2026-04-12T18:37:26Z</time></trkpt><trkpt lat="38.14418902192124" lon="15.666359850089657"><ele>64.5</ele><time>2026-04-12T18:37:27Z</time></trkpt><trkpt lat="38.144018159212855" lon="15.666106276787449"><ele>60.0</ele><time>2026-04-12T18:37:28Z</time></trkpt><trkpt lat="38.14385923401526" lon="15.665836677926725"><ele>60.0</ele><time>2026-04-12T18:37:29Z</time></trkpt><trkpt lat="38.14370554999299" lon="15.665562231853862"><ele>60.0</ele><time>2026-04-12T18:37:30Z</time></trkpt><trkpt lat="38.14354547754173" lon="15.665289035078182"><ele>62.5</ele><time>2026-04-12T18:37:31Z</time></trkpt><trkpt lat="38.14338919675848" lon="15.66501587517113"><ele>65.0</ele><time>2026-04-12T18:37:32Z</time></trkpt><trkpt lat="38.14323392223806" lon="15.664745605069966"><ele>70.5</ele><time>2026-04-12T18:37:33Z</time></trkpt><trkpt lat="38.14307088473322" lon="15.664479426712958"><ele>76.0</ele><time>2026-04-12T18:37:34Z</time></trkpt><trkpt lat="38.14289996352254" lon="15.66422193939861"><ele>78.0</ele><time>2026-04-12T18:37:35Z</time></trkpt><trkpt lat="38.142721289953926" lon="15.66396519216398"><ele>80.0</ele><time>2026-04-12T18:37:36Z</time></trkpt><trkpt lat="38.14253517289043" lon="15.663709441582789"><ele>82.0</ele><time>2026-04-12T18:37:37Z</time></trkpt><trkpt lat="38.14234133987583" lon="15.66346280875526"><ele>84.0</ele><time>2026-04-12T18:37:38Z</time></trkpt><trkpt lat="38.14214259242698" lon="15.663231783230373"><ele>84.0</ele><time>2026-04-12T18:37:39Z</time></trkpt><trkpt lat="38.14193850694507" lon="15.663015063886132"><ele>84.0</ele><time>2026-04-12T18:37:40Z</time></trkpt><trkpt lat="38.14173030269842" lon="15.66280701859971"><ele>79.5</ele><time>2026-04-12T18:37:41Z</time></trkpt><trkpt lat="38.14150510624165" lon="15.662621763923807"><ele>75.0</ele><time>2026-04-12T18:37:42Z</time></trkpt><trkpt lat="38.14128706044195" lon="15.662449946249057"><ele>75.0</ele><time>2026-04-12T18:37:43Z</time></trkpt><trkpt lat="38.141064542070175" lon="15.662280413113695"><ele>75.0</ele><time>2026-04-12T18:37:44Z</time></trkpt><trkpt lat="38.1408428720024" lon="15.662098033807633"><ele>74.5</ele><time>2026-04-12T18:37:45Z</time></trkpt><trkpt lat="38.14060863933882" lon="15.661938288374055"><ele>74.0</ele><time>2026-04-12T18:37:46Z</time></trkpt><trkpt lat="38.140364002033486" lon="15.66179091966891"><ele>74.0</ele><time>2026-04-12T18:37:47Z</time></trkpt><trkpt lat="38.140113131497" lon="15.661649847035878"><ele>74.0</ele><time>2026-04-12T18:37:48Z</time></trkpt><trkpt lat="38.13985534651723" lon="15.661517579914719"><ele>72.0</ele><time>2026-04-12T18:37:49Z</time></trkpt><trkpt lat="38.13959440187335" lon="15.661386467074932"><ele>70.0</ele><time>2026-04-12T18:37:50Z</time></trkpt><trkpt lat="38.139336294425256" lon="15.6612542965214"><ele>68.0</ele><time>2026-04-12T18:37:51Z</time></trkpt><trkpt lat="38.13907781790283" lon="15.661114690182524"><ele>66.0</ele><time>2026-04-12T18:37:52Z</time></trkpt><trkpt lat="38.138821517193115" lon="15.660979110108245"><ele>66.0</ele><time>2026-04-12T18:37:53Z</time></trkpt><trkpt lat="38.1385649618139" lon="15.660845596370065"><ele>66.0</ele><time>2026-04-12T18:37:54Z</time></trkpt><trkpt lat="38.138313934154304" lon="15.660709226227464"><ele>72.5</ele><time>2026-04-12T18:37:55Z</time></trkpt><trkpt lat="38.138064171408104" lon="15.660574966153401"><ele>79.0</ele><time>2026-04-12T18:37:56Z</time></trkpt><trkpt lat="38.137818949436834" lon="15.66044297716934"><ele>79.0</ele><time>2026-04-12T18:37:57Z</time></trkpt><trkpt lat="38.137575225334324" lon="15.66031122478141"><ele>79.0</ele><time>2026-04-12T18:37:58Z</time></trkpt><trkpt lat="38.13733078968179" lon="15.66017488236333"><ele>73.5</ele><time>2026-04-12T18:37:59Z</time></trkpt><trkpt lat="38.13708728681406" lon="15.660042193529284"><ele>68.0</ele><time>2026-04-12T18:38:00Z</time></trkpt><trkpt lat="38.13685343640867" lon="15.659916102238492"><ele>68.0</ele><time>2026-04-12T18:38:01Z</time></trkpt><trkpt lat="38.13662711725398" lon="15.659790428117786"><ele>68.0</ele><time>2026-04-12T18:38:02Z</time></trkpt><trkpt lat="38.13638939318101" lon="15.659660342632733"><ele>69.0</ele><time>2026-04-12T18:38:03Z</time></trkpt><trkpt lat="38.13614693003782" lon="15.659525573174136"><ele>70.0</ele><time>2026-04-12T18:38:04Z</time></trkpt><trkpt lat="38.135913129281754" lon="15.659396656647647"><ele>60.0</ele><time>2026-04-12T18:38:05Z</time></trkpt><trkpt lat="38.135681386048" lon="15.65927016659474"><ele>50.0</ele><time>2026-04-12T18:38:06.018Z</time></trkpt><trkpt lat="38.13546681161735" lon="15.659154266336916"><ele>50.0</ele><time>2026-04-12T18:38:07.018Z</time></trkpt><trkpt lat="38.13526840966946" lon="15.659049025529344"><ele>50.0</ele><time>2026-04-12T18:38:08Z</time></trkpt><trkpt lat="38.135058036687106" lon="15.658939174951588"><ele>50.0</ele><time>2026-04-12T18:38:09Z</time></trkpt><trkpt lat="38.13484241555769" lon="15.658820821853993"><ele>47.66666666666667</ele><time>2026-04-12T18:38:10Z</time></trkpt><trkpt lat="38.13465865158348" lon="15.658721622651766"><ele>45.333333333333336</ele><time>2026-04-12T18:38:11Z</time></trkpt><trkpt lat="38.13448555827144" lon="15.65862398954767"><ele>43.0</ele><time>2026-04-12T18:38:12Z</time></trkpt><trkpt lat="38.13431681675801" lon="15.658529469252324"><ele>39.333333333333336</ele><time>2026-04-12T18:38:13Z</time></trkpt><trkpt lat="38.134154449546166" lon="15.6584359154077"><ele>35.666666666666664</ele><time>2026-04-12T18:38:14Z</time></trkpt><trkpt lat="38.13400125928328" lon="15.658349481906006"><ele>32.0</ele><time>2026-04-12T18:38:15Z</time></trkpt><trkpt lat="38.13385409827892" lon="15.658270409843128"><ele>41.33333333333333</ele><time>2026-04-12T18:38:16Z</time></trkpt><trkpt lat="38.13371237478724" lon="15.658192681761212"><ele>50.666666666666664</ele><time>2026-04-12T18:38:17Z</time></trkpt><trkpt lat="38.13356989624003" lon="15.658109451479485"><ele>60.0</ele><time>2026-04-12T18:38:18Z</time></trkpt><trkpt lat="38.13342765869897" lon="15.658019673229289"><ele>60.0</ele><time>2026-04-12T18:38:19Z</time></trkpt><trkpt lat="38.13328285548828" lon="15.657924071645859"><ele>60.0</ele><time>2026-04-12T18:38:20Z</time></trkpt><trkpt lat="38.13312671503916" lon="15.657851760172385"><ele>60.0</ele><time>2026-04-12T18:38:21Z</time></trkpt><trkpt lat="38.13299658645455" lon="15.657702414289187"><ele>56.33333333333333</ele><time>2026-04-12T18:38:22Z</time></trkpt><trkpt lat="38.13286404550515" lon="15.657570138309165"><ele>52.666666666666664</ele><time>2026-04-12T18:38:23Z</time></trkpt><trkpt lat="38.1327446386177" lon="15.657441292443739"><ele>49.0</ele><time>2026-04-12T18:38:24Z</time></trkpt><trkpt lat="38.13263378293501" lon="15.657319850508523"><ele>49.0</ele><time>2026-04-12T18:38:25Z</time></trkpt><trkpt lat="38.132529259277945" lon="15.657213621697649"><ele>49.0</ele><time>2026-04-12T18:38:26Z</time></trkpt><trkpt lat="38.13243009259219" lon="15.657126636613782"><ele>49.0</ele><time>2026-04-12T18:38:27Z</time></trkpt><trkpt lat="38.13232023687687" lon="15.657056866670882"><ele>49.0</ele><time>2026-04-12T18:38:28Z</time></trkpt><trkpt lat="38.13219913803606" lon="15.65701556525586"><ele>49.75</ele><time>2026-04-12T18:38:29Z</time></trkpt><trkpt lat="38.13207505304919" lon="15.657012723305211"><ele>50.5</ele><time>2026-04-12T18:38:30Z</time></trkpt><trkpt lat="38.131947656709514" lon="15.657034322165526"><ele>51.25</ele><time>2026-04-12T18:38:31Z</time></trkpt><trkpt lat="38.13183335405251" lon="15.657090342569711"><ele>52.0</ele><time>2026-04-12T18:38:32Z</time></trkpt><trkpt lat="38.13171780021408" lon="15.657175218828792"><ele>52.0</ele><time>2026-04-12T18:38:33Z</time></trkpt><trkpt lat="38.13158617340249" lon="15.6572753130142"><ele>52.0</ele><time>2026-04-12T18:38:34Z</time></trkpt><trkpt lat="38.13143151777114" lon="15.657369737604048"><ele>52.0</ele><time>2026-04-12T18:38:35Z</time></trkpt><trkpt lat="38.131258075667155" lon="15.65748065354722"><ele>55.666666666666664</ele><time>2026-04-12T18:38:36Z</time></trkpt><trkpt lat="38.13107034602272" lon="15.657601707391882"><ele>59.33333333333333</ele><time>2026-04-12T18:38:37Z</time></trkpt><trkpt lat="38.13086313702005" lon="15.657737889892408"><ele>63.0</ele><time>2026-04-12T18:38:38Z</time></trkpt><trkpt lat="38.13064976783209" lon="15.657876688840357"><ele>68.0</ele><time>2026-04-12T18:38:39Z</time></trkpt><trkpt lat="38.13042845083359" lon="15.658022695683613"><ele>73.0</ele><time>2026-04-12T18:38:40Z</time></trkpt><trkpt lat="38.13019870456502" lon="15.658171238553686"><ele>73.0</ele><time>2026-04-12T18:38:41Z</time></trkpt><trkpt lat="38.1299643954748" lon="15.65832027762553"><ele>73.0</ele><time>2026-04-12T18:38:42Z</time></trkpt><trkpt lat="38.12973195506444" lon="15.658471615083124"><ele>77.0</ele><time>2026-04-12T18:38:43Z</time></trkpt><trkpt lat="38.12950123960519" lon="15.658623644855169"><ele>81.0</ele><time>2026-04-12T18:38:44Z</time></trkpt><trkpt lat="38.1292674813891" lon="15.65877460359094"><ele>78.5</ele><time>2026-04-12T18:38:45Z</time></trkpt><trkpt lat="38.12904068087796" lon="15.658921822229443"><ele>76.0</ele><time>2026-04-12T18:38:46Z</time></trkpt><trkpt lat="38.12881440731705" lon="15.659069649039278"><ele>76.0</ele><time>2026-04-12T18:38:47Z</time></trkpt><trkpt lat="38.12858746249359" lon="15.659217138883985"><ele>76.0</ele><time>2026-04-12T18:38:48Z</time></trkpt><trkpt lat="38.128362972209885" lon="15.659364226558452"><ele>79.0</ele><time>2026-04-12T18:38:49Z</time></trkpt><trkpt lat="38.12813466484541" lon="15.6595093211808"><ele>82.0</ele><time>2026-04-12T18:38:50Z</time></trkpt><trkpt lat="38.12790697206039" lon="15.659659286581602"><ele>82.0</ele><time>2026-04-12T18:38:51Z</time></trkpt><trkpt lat="38.12767619641661" lon="15.659808007840246"><ele>82.0</ele><time>2026-04-12T18:38:52Z</time></trkpt><trkpt lat="38.12744946664828" lon="15.659955260940173"><ele>75.5</ele><time>2026-04-12T18:38:53Z</time></trkpt><trkpt lat="38.127226716113405" lon="15.66009752184244"><ele>69.0</ele><time>2026-04-12T18:38:54Z</time></trkpt><trkpt lat="38.12701226009045" lon="15.660241459580607"><ele>73.5</ele><time>2026-04-12T18:38:55Z</time></trkpt><trkpt lat="38.1268000041296" lon="15.66039026986827"><ele>78.0</ele><time>2026-04-12T18:38:56Z</time></trkpt><trkpt lat="38.1265896454291" lon="15.660547214524932"><ele>75.0</ele><time>2026-04-12T18:38:57Z</time></trkpt><trkpt lat="38.12638900645585" lon="15.6607207183996"><ele>72.0</ele><time>2026-04-12T18:38:58Z</time></trkpt><trkpt lat="38.126191992383404" lon="15.660920998643244"><ele>77.0</ele><time>2026-04-12T18:38:59Z</time></trkpt><trkpt lat="38.12600105490881" lon="15.661133801790076"><ele>82.0</ele><time>2026-04-12T18:39:00Z</time></trkpt><trkpt lat="38.12582260216891" lon="15.661370887846632"><ele>73.5</ele><time>2026-04-12T18:39:01Z</time></trkpt><trkpt lat="38.125649873399134" lon="15.661625150582665"><ele>65.0</ele><time>2026-04-12T18:39:02Z</time></trkpt><trkpt lat="38.1254796060439" lon="15.66189756933432"><ele>69.5</ele><time>2026-04-12T18:39:03Z</time></trkpt><trkpt lat="38.12532138054673" lon="15.662162955170972"><ele>74.0</ele><time>2026-04-12T18:39:04Z</time></trkpt><trkpt lat="38.1251686925098" lon="15.662411458644518"><ele>74.0</ele><time>2026-04-12T18:39:05Z</time></trkpt><trkpt lat="38.125009454235574" lon="15.662652375696565"><ele>74.0</ele><time>2026-04-12T18:39:06Z</time></trkpt><trkpt lat="38.124840600018665" lon="15.662861753721986"><ele>74.0</ele><time>2026-04-12T18:39:07Z</time></trkpt><trkpt lat="38.12465159266579" lon="15.663063150287206"><ele>74.0</ele><time>2026-04-12T18:39:08Z</time></trkpt><trkpt lat="38.12444537927388" lon="15.663256903159615"><ele>74.0</ele><time>2026-04-12T18:39:09Z</time></trkpt><trkpt lat="38.1242317146015" lon="15.66342703474125"><ele>74.0</ele><time>2026-04-12T18:39:10Z</time></trkpt><trkpt lat="38.124009357330934" lon="15.663566296285541"><ele>67.5</ele><time>2026-04-12T18:39:11Z</time></trkpt><trkpt lat="38.1237732826188" lon="15.66367937699526"><ele>61.0</ele><time>2026-04-12T18:39:12Z</time></trkpt><trkpt lat="38.123532869317835" lon="15.663764824193622"><ele>61.0</ele><time>2026-04-12T18:39:13Z</time></trkpt><trkpt lat="38.123279508791704" lon="15.663822928110022"><ele>61.0</ele><time>2026-04-12T18:39:14Z</time></trkpt><trkpt lat="38.123030788231254" lon="15.66389128787002"><ele>61.0</ele><time>2026-04-12T18:39:15Z</time></trkpt><trkpt lat="38.12276774199332" lon="15.663876631907987"><ele>61.0</ele><time>2026-04-12T18:39:16Z</time></trkpt><trkpt lat="38.122511375457684" lon="15.663865250398704"><ele>68.5</ele><time>2026-04-12T18:39:17Z</time></trkpt><trkpt lat="38.122259483361454" lon="15.663821977342339"><ele>76.0</ele><time>2026-04-12T18:39:18Z</time></trkpt><trkpt lat="38.12200813953393" lon="15.663755843126479"><ele>76.0</ele><time>2026-04-12T18:39:19Z</time></trkpt><trkpt lat="38.12175669839353" lon="15.663667845565037"><ele>76.0</ele><time>2026-04-12T18:39:20Z</time></trkpt><trkpt lat="38.12150517647416" lon="15.663554576533159"><ele>86.0</ele><time>2026-04-12T18:39:21Z</time></trkpt><trkpt lat="38.121257024193426" lon="15.663424798147693"><ele>96.0</ele><time>2026-04-12T18:39:22Z</time></trkpt><trkpt lat="38.12100480303455" lon="15.663287721441996"><ele>96.0</ele><time>2026-04-12T18:39:23Z</time></trkpt><trkpt lat="38.12073810641552" lon="15.66314567177422"><ele>96.0</ele><time>2026-04-12T18:39:24Z</time></trkpt><trkpt lat="38.12048925552169" lon="15.663018462575657"><ele>95.5</ele><time>2026-04-12T18:39:25Z</time></trkpt><trkpt lat="38.120252190815" lon="15.662909282119644"><ele>95.0</ele><time>2026-04-12T18:39:26Z</time></trkpt><trkpt lat="38.12003503813382" lon="15.662821258121506"><ele>91.66666666666667</ele><time>2026-04-12T18:39:27Z</time></trkpt><trkpt lat="38.11983317067961" lon="15.662753147697966"><ele>88.33333333333333</ele><time>2026-04-12T18:39:28Z</time></trkpt><trkpt lat="38.11963492948166" lon="15.662694228430725"><ele>85.0</ele><time>2026-04-12T18:39:29Z</time></trkpt><trkpt lat="38.119446534887246" lon="15.662647715974822"><ele>85.0</ele><time>2026-04-12T18:39:30Z</time></trkpt><trkpt lat="38.11926365300124" lon="15.662611226105692"><ele>85.0</ele><time>2026-04-12T18:39:31Z</time></trkpt><trkpt lat="38.11908694462095" lon="15.662586694304212"><ele>85.0</ele><time>2026-04-12T18:39:32Z</time></trkpt><trkpt lat="38.11892325977438" lon="15.662571928949854"><ele>85.66666666666666</ele><time>2026-04-12T18:39:33Z</time></trkpt><trkpt lat="38.11876375073961" lon="15.662563508781977"><ele>86.33333333333333</ele><time>2026-04-12T18:39:34Z</time></trkpt><trkpt lat="38.11859656486451" lon="15.66255632937755"><ele>87.0</ele><time>2026-04-12T18:39:35Z</time></trkpt><trkpt lat="38.11842031972708" lon="15.662552755098185"><ele>87.0</ele><time>2026-04-12T18:39:36Z</time></trkpt><trkpt lat="38.11825215334874" lon="15.66255442510118"><ele>87.0</ele><time>2026-04-12T18:39:37Z</time></trkpt><trkpt lat="38.118094668388835" lon="15.66256219986324"><ele>87.0</ele><time>2026-04-12T18:39:38Z</time></trkpt><trkpt lat="38.117928130776086" lon="15.662558797567337"><ele>86.33333333333333</ele><time>2026-04-12T18:39:39Z</time></trkpt><trkpt lat="38.117759842415595" lon="15.662541025611558"><ele>85.66666666666666</ele><time>2026-04-12T18:39:40Z</time></trkpt><trkpt lat="38.117607004035705" lon="15.662520092786854"><ele>85.0</ele><time>2026-04-12T18:39:41Z</time></trkpt><trkpt lat="38.11746917256796" lon="15.662503013356355"><ele>85.5</ele><time>2026-04-12T18:39:42Z</time></trkpt><trkpt lat="38.11734423942965" lon="15.662490314128412"><ele>86.0</ele><time>2026-04-12T18:39:43Z</time></trkpt><trkpt lat="38.117224822344646" lon="15.66248531835737"><ele>86.5</ele><time>2026-04-12T18:39:44Z</time></trkpt><trkpt lat="38.11710681335169" lon="15.662487758879497"><ele>87.0</ele><time>2026-04-12T18:39:45Z</time></trkpt><trkpt lat="38.116997926521975" lon="15.662494846743355"><ele>87.0</ele><time>2026-04-12T18:39:46Z</time></trkpt><trkpt lat="38.116892921219" lon="15.662500588543491"><ele>87.0</ele><time>2026-04-12T18:39:47Z</time></trkpt><trkpt lat="38.11680344871297" lon="15.662508851768255"><ele>87.0</ele><time>2026-04-12T18:39:48Z</time></trkpt><trkpt lat="38.11672673036066" lon="15.662513669481037"><ele>87.0</ele><time>2026-04-12T18:39:49Z</time></trkpt><trkpt lat="38.116656686031185" lon="15.662518268755"><ele>87.0</ele><time>2026-04-12T18:39:50Z</time></trkpt><trkpt lat="38.116543857212235" lon="15.662536534429778"><ele>87.0</ele><time>2026-04-12T18:39:52Z</time></trkpt><trkpt lat="38.11647241264104" lon="15.662610282710535"><ele>87.0</ele><time>2026-04-12T18:39:54Z</time></trkpt><trkpt lat="38.11643662817261" lon="15.66275788262195"><ele>87.0</ele><time>2026-04-12T18:39:56Z</time></trkpt><trkpt lat="38.11644314691036" lon="15.662893317418527"><ele>87.0</ele><time>2026-04-12T18:39:58Z</time></trkpt><trkpt lat="38.1164021228452" lon="15.663042615949186"><ele>87.0</ele><time>2026-04-12T18:40:00Z</time></trkpt><trkpt lat="38.116274104243914" lon="15.66311758359656"><ele>88.25</ele><time>2026-04-12T18:40:02Z</time></trkpt><trkpt lat="38.116136639824525" lon="15.663145132400835"><ele>89.5</ele><time>2026-04-12T18:40:03Z</time></trkpt><trkpt lat="38.11596875901396" lon="15.66317806418455"><ele>90.75</ele><time>2026-04-12T18:40:04Z</time></trkpt><trkpt lat="38.115837153303204" lon="15.663199307940047"><ele>92.0</ele><time>2026-04-12T18:40:05Z</time></trkpt><trkpt lat="38.11575103172705" lon="15.663200136608703"><ele>91.8</ele><time>2026-04-12T18:40:06Z</time></trkpt><trkpt lat="38.115681479163456" lon="15.66318486666593"><ele>91.6</ele><time>2026-04-12T18:40:07Z</time></trkpt><trkpt lat="38.115609257212334" lon="15.663203110612534"><ele>91.39999999999999</ele><time>2026-04-12T18:40:09Z</time></trkpt><trkpt lat="38.11555718303767" lon="15.663330448908972"><ele>91.19999999999999</ele><time>2026-04-12T18:40:11Z</time></trkpt><trkpt lat="38.11554595391759" lon="15.663464063583923"><ele>91.0</ele><time>2026-04-12T18:40:12Z</time></trkpt><trkpt lat="38.11552079160723" lon="15.663631316971907"><ele>93.0</ele><time>2026-04-12T18:40:13Z</time></trkpt><trkpt lat="38.11546495351853" lon="15.663836995986554"><ele>95.0</ele><time>2026-04-12T18:40:14Z</time></trkpt><trkpt lat="38.115392531030956" lon="15.66405624673306"><ele>97.0</ele><time>2026-04-12T18:40:15Z</time></trkpt><trkpt lat="38.1153217457239" lon="15.664273751960923"><ele>99.66666666666667</ele><time>2026-04-12T18:40:16Z</time></trkpt><trkpt lat="38.115248591648836" lon="15.66452566320994"><ele>102.33333333333334</ele><time>2026-04-12T18:40:17Z</time></trkpt><trkpt lat="38.115174658125234" lon="15.664784326048041"><ele>105.0</ele><time>2026-04-12T18:40:18Z</time></trkpt><trkpt lat="38.11509503309768" lon="15.665040251301152"><ele>107.66666666666666</ele><time>2026-04-12T18:40:19Z</time></trkpt><trkpt lat="38.115018248873035" lon="15.6652807837621"><ele>110.33333333333333</ele><time>2026-04-12T18:40:20Z</time></trkpt><trkpt lat="38.11491165113971" lon="15.66550155291871"><ele>113.0</ele><time>2026-04-12T18:40:21Z</time></trkpt><trkpt lat="38.114848386376174" lon="15.665699249760564"><ele>113.0</ele><time>2026-04-12T18:40:22Z</time></trkpt><trkpt lat="38.114790217989835" lon="15.665873703525332"><ele>113.0</ele><time>2026-04-12T18:40:23Z</time></trkpt><trkpt lat="38.11473077235884" lon="15.666022274738427"><ele>113.0</ele><time>2026-04-12T18:40:24Z</time></trkpt><trkpt lat="38.1146689133603" lon="15.666154405533584"><ele>113.0</ele><time>2026-04-12T18:40:25Z</time></trkpt><trkpt lat="38.11461369868521" lon="15.666274174311472"><ele>114.49999999999999</ele><time>2026-04-12T18:40:26Z</time></trkpt><trkpt lat="38.11456562969694" lon="15.666382648874452"><ele>116.0</ele><time>2026-04-12T18:40:27Z</time></trkpt><trkpt lat="38.114527793884136" lon="15.666482533387699"><ele>117.5</ele><time>2026-04-12T18:40:28Z</time></trkpt><trkpt lat="38.11449875952366" lon="15.666585723647122"><ele>119.0</ele><time>2026-04-12T18:40:29Z</time></trkpt><trkpt lat="38.11447870632807" lon="15.666681681143354"><ele>120.49999999999999</ele><time>2026-04-12T18:40:30Z</time></trkpt><trkpt lat="38.1144615397961" lon="15.666769520257912"><ele>122.0</ele><time>2026-04-12T18:40:31Z</time></trkpt><trkpt lat="38.114439967751856" lon="15.666902144457437"><ele>124.39999999999999</ele><time>2026-04-12T18:40:33Z</time></trkpt><trkpt lat="38.11442809689961" lon="15.667043107957747"><ele>126.79999999999998</ele><time>2026-04-12T18:40:35Z</time></trkpt><trkpt lat="38.11444396222065" lon="15.667157697543704"><ele>129.2</ele><time>2026-04-12T18:40:37Z</time></trkpt><trkpt lat="38.11434652891764" lon="15.667233854572995"><ele>131.6</ele><time>2026-04-12T18:40:39Z</time></trkpt><trkpt lat="38.11426980781964" lon="15.667228074189007"><ele>134.0</ele><time>2026-04-12T18:40:40Z</time></trkpt><trkpt lat="38.11419181565673" lon="15.667205515584476"><ele>134.0</ele><time>2026-04-12T18:40:41Z</time></trkpt><trkpt lat="38.1141050722556" lon="15.667053410696003"><ele>134.0</ele><time>2026-04-12T18:40:42Z</time></trkpt><trkpt lat="38.11399882818369" lon="15.666896932195428"><ele>134.0</ele><time>2026-04-12T18:40:43Z</time></trkpt><trkpt lat="38.11388161696179" lon="15.666797762158772"><ele>131.2</ele><time>2026-04-12T18:40:44Z</time></trkpt><trkpt lat="38.113764564198334" lon="15.666746754056643"><ele>128.4</ele><time>2026-04-12T18:40:45Z</time></trkpt><trkpt lat="38.11365702056721" lon="15.666713872228065"><ele>125.6</ele><time>2026-04-12T18:40:46Z</time></trkpt><trkpt lat="38.113554089658955" lon="15.666705352650995"><ele>122.8</ele><time>2026-04-12T18:40:47Z</time></trkpt><trkpt lat="38.11345127143732" lon="15.666744252803811"><ele>120.0</ele><time>2026-04-12T18:40:48Z</time></trkpt><trkpt lat="38.11334672270392" lon="15.66684939172152"><ele>123.0</ele><time>2026-04-12T18:40:49Z</time></trkpt><trkpt lat="38.113238720824036" lon="15.667011760470874"><ele>126.0</ele><time>2026-04-12T18:40:50Z</time></trkpt><trkpt lat="38.11314319708817" lon="15.667134960714993"><ele>129.0</ele><time>2026-04-12T18:40:51Z</time></trkpt><trkpt lat="38.11306689851098" lon="15.667224965500322"><ele>132.0</ele><time>2026-04-12T18:40:52Z</time></trkpt><trkpt lat="38.112982021725884" lon="15.667277415841893"><ele>132.0</ele><time>2026-04-12T18:40:53Z</time></trkpt><trkpt lat="38.1128819860663" lon="15.667247128430814"><ele>132.0</ele><time>2026-04-12T18:40:54Z</time></trkpt><trkpt lat="38.11277151177786" lon="15.66716757134393"><ele>132.0</ele><time>2026-04-12T18:40:55Z</time></trkpt><trkpt lat="38.11264253908001" lon="15.667073800736217"><ele>132.0</ele><time>2026-04-12T18:40:56Z</time></trkpt><trkpt lat="38.112511099019414" lon="15.667053823783492"><ele>132.0</ele><time>2026-04-12T18:40:57Z</time></trkpt><trkpt lat="38.11235662782582" lon="15.667073961628512"><ele>132.0</ele><time>2026-04-12T18:40:58Z</time></trkpt><trkpt lat="38.11223870173605" lon="15.667097380273946"><ele>132.0</ele><time>2026-04-12T18:40:59Z</time></trkpt><trkpt lat="38.112131727196974" lon="15.667132581086596"><ele>132.0</ele><time>2026-04-12T18:41:00Z</time></trkpt><trkpt lat="38.11204153217138" lon="15.667217804133326"><ele>132.0</ele><time>2026-04-12T18:41:01Z</time></trkpt><trkpt lat="38.11197571304422" lon="15.667364553585912"><ele>132.0</ele><time>2026-04-12T18:41:02Z</time></trkpt><trkpt lat="38.11192116943316" lon="15.667508622765954"><ele>132.0</ele><time>2026-04-12T18:41:03Z</time></trkpt><trkpt lat="38.111873073301965" lon="15.667613447062465"><ele>132.0</ele><time>2026-04-12T18:41:04Z</time></trkpt><trkpt lat="38.11181247743439" lon="15.667674903822174"><ele>132.0</ele><time>2026-04-12T18:41:05Z</time></trkpt><trkpt lat="38.111715726038774" lon="15.667700292190153"><ele>132.0</ele><time>2026-04-12T18:41:06Z</time></trkpt><trkpt lat="38.11157882353416" lon="15.667721055919877"><ele>132.0</ele><time>2026-04-12T18:41:07Z</time></trkpt><trkpt lat="38.111452514662936" lon="15.667707128950918"><ele>132.0</ele><time>2026-04-12T18:41:08Z</time></trkpt><trkpt lat="38.11132094366726" lon="15.667738023262242"><ele>132.0</ele><time>2026-04-12T18:41:09Z</time></trkpt><trkpt lat="38.11120329805618" lon="15.667875051245872"><ele>134.75</ele><time>2026-04-12T18:41:10Z</time></trkpt><trkpt lat="38.111048904316775" lon="15.667959669740423"><ele>137.5</ele><time>2026-04-12T18:41:11Z</time></trkpt><trkpt lat="38.11092923299853" lon="15.668022210171554"><ele>140.25</ele><time>2026-04-12T18:41:12Z</time></trkpt><trkpt lat="38.11081322097749" lon="15.66806111711783"><ele>143.0</ele><time>2026-04-12T18:41:13Z</time></trkpt><trkpt lat="38.110716253400135" lon="15.668076976306224"><ele>144.4</ele><time>2026-04-12T18:41:14Z</time></trkpt><trkpt lat="38.110619893923264" lon="15.668094560479396"><ele>145.8</ele><time>2026-04-12T18:41:15Z</time></trkpt><trkpt lat="38.11054420030962" lon="15.668117514088815"><ele>147.2</ele><time>2026-04-12T18:41:16Z</time></trkpt><trkpt lat="38.110449013039315" lon="15.668074068522067"><ele>148.6</ele><time>2026-04-12T18:41:18Z</time></trkpt><trkpt lat="38.11040330503022" lon="15.668277968246018"><ele>150.0</ele><time>2026-04-12T18:41:19Z</time></trkpt><trkpt lat="38.11038260274499" lon="15.668418144020013"><ele>150.0</ele><time>2026-04-12T18:41:20Z</time></trkpt><trkpt lat="38.11036167426125" lon="15.668548390476209"><ele>150.0</ele><time>2026-04-12T18:41:21Z</time></trkpt><trkpt lat="38.11030170159648" lon="15.66868752235679"><ele>150.0</ele><time>2026-04-12T18:41:23Z</time></trkpt><trkpt lat="38.11020214942742" lon="15.668688040459488"><ele>150.0</ele><time>2026-04-12T18:41:24Z</time></trkpt><trkpt lat="38.1101287726721" lon="15.668721514015743"><ele>150.0</ele><time>2026-04-12T18:41:25Z</time></trkpt><trkpt lat="38.11010787129502" lon="15.66888949841174"><ele>151.0</ele><time>2026-04-12T18:41:26Z</time></trkpt><trkpt lat="38.11012233338739" lon="15.669039451959488"><ele>152.0</ele><time>2026-04-12T18:41:27Z</time></trkpt><trkpt lat="38.11014400801173" lon="15.669227245932419"><ele>153.0</ele><time>2026-04-12T18:41:28Z</time></trkpt><trkpt lat="38.110168399988574" lon="15.66943858365731"><ele>154.0</ele><time>2026-04-12T18:41:29Z</time></trkpt><trkpt lat="38.11021462783838" lon="15.669658855443664"><ele>155.75</ele><time>2026-04-12T18:41:30Z</time></trkpt><trkpt lat="38.110234271519055" lon="15.669849766431092"><ele>157.5</ele><time>2026-04-12T18:41:31Z</time></trkpt><trkpt lat="38.11025278827973" lon="15.669999617822644"><ele>159.25</ele><time>2026-04-12T18:41:32Z</time></trkpt><trkpt lat="38.11024492059456" lon="15.670120624598727"><ele>161.0</ele><time>2026-04-12T18:41:33Z</time></trkpt><trkpt lat="38.110206505834036" lon="15.670223658258195"><ele>162.4</ele><time>2026-04-12T18:41:34Z</time></trkpt><trkpt lat="38.11014584643363" lon="15.670288184470786"><ele>163.8</ele><time>2026-04-12T18:41:35Z</time></trkpt><trkpt lat="38.110036033448964" lon="15.67031374898354"><ele>165.20000000000002</ele><time>2026-04-12T18:41:36Z</time></trkpt><trkpt lat="38.109963527803586" lon="15.670377946331303"><ele>166.60000000000002</ele><time>2026-04-12T18:41:37Z</time></trkpt><trkpt lat="38.109905588206985" lon="15.670415589585009"><ele>168.0</ele><time>2026-04-12T18:41:38Z</time></trkpt><trkpt lat="38.10984658279505" lon="15.670541425543824"><ele>168.0</ele><time>2026-04-12T18:41:39Z</time></trkpt><trkpt lat="38.10993227926513" lon="15.670751861757452"><ele>168.0</ele><time>2026-04-12T18:41:40Z</time></trkpt><trkpt lat="38.10996452356941" lon="15.670955784729248"><ele>168.0</ele><time>2026-04-12T18:41:41Z</time></trkpt><trkpt lat="38.11000779601264" lon="15.671162796290824"><ele>170.75</ele><time>2026-04-12T18:41:42Z</time></trkpt><trkpt lat="38.11004035300018" lon="15.671319969718574"><ele>173.5</ele><time>2026-04-12T18:41:43Z</time></trkpt><trkpt lat="38.11009265908062" lon="15.671439756490832"><ele>176.25</ele><time>2026-04-12T18:41:44Z</time></trkpt><trkpt lat="38.11017910871826" lon="15.671542336940439"><ele>179.0</ele><time>2026-04-12T18:41:45Z</time></trkpt><trkpt lat="38.11027886235907" lon="15.67161122470958"><ele>179.0</ele><time>2026-04-12T18:41:46Z</time></trkpt><trkpt lat="38.11036083805539" lon="15.671659806531824"><ele>179.0</ele><time>2026-04-12T18:41:47Z</time></trkpt><trkpt lat="38.110373188560224" lon="15.671782369900995"><ele>179.0</ele><time>2026-04-12T18:41:49Z</time></trkpt><trkpt lat="38.11031166740963" lon="15.671851308783852"><ele>179.0</ele><time>2026-04-12T18:41:50Z</time></trkpt><trkpt lat="38.11027126769333" lon="15.671952181920133"><ele>179.0</ele><time>2026-04-12T18:41:51Z</time></trkpt><trkpt lat="38.11028471022657" lon="15.672071342689362"><ele>180.25</ele><time>2026-04-12T18:41:52Z</time></trkpt><trkpt lat="38.110361736924325" lon="15.672189855611157"><ele>181.5</ele><time>2026-04-12T18:41:53Z</time></trkpt><trkpt lat="38.11045943083424" lon="15.672319038901861"><ele>182.75</ele><time>2026-04-12T18:41:54Z</time></trkpt><trkpt lat="38.110548625869406" lon="15.672460818199923"><ele>184.0</ele><time>2026-04-12T18:41:55Z</time></trkpt><trkpt lat="38.1106027949821" lon="15.672572451118013"><ele>184.0</ele><time>2026-04-12T18:41:56Z</time></trkpt><trkpt lat="38.1106320211715" lon="15.672667492028365"><ele>184.0</ele><time>2026-04-12T18:41:57Z</time></trkpt><trkpt lat="38.110653327789564" lon="15.672793668897425"><ele>184.0</ele><time>2026-04-12T18:41:58Z</time></trkpt><trkpt lat="38.11067067370099" lon="15.672964179479004"><ele>184.0</ele><time>2026-04-12T18:41:59Z</time></trkpt><trkpt lat="38.11068550444675" lon="15.673109972506262"><ele>184.0</ele><time>2026-04-12T18:42:00Z</time></trkpt><trkpt lat="38.11069271109975" lon="15.673219056763369"><ele>186.0</ele><time>2026-04-12T18:42:01Z</time></trkpt><trkpt lat="38.11069534915562" lon="15.673301022980619"><ele>188.0</ele><time>2026-04-12T18:42:02Z</time></trkpt><trkpt lat="38.11062774536096" lon="15.673374216543934"><ele>190.0</ele><time>2026-04-12T18:42:05Z</time></trkpt><trkpt lat="38.11054533252016" lon="15.67335568663828"><ele>192.0</ele><time>2026-04-12T18:42:06Z</time></trkpt><trkpt lat="38.11044825092816" lon="15.673340502953554"><ele>194.0</ele><time>2026-04-12T18:42:07Z</time></trkpt><trkpt lat="38.11031469291665" lon="15.673375414179583"><ele>194.0</ele><time>2026-04-12T18:42:08Z</time></trkpt><trkpt lat="38.11016979874921" lon="15.673433133832592"><ele>194.0</ele><time>2026-04-12T18:42:09Z</time></trkpt><trkpt lat="38.109996802061616" lon="15.67349409767527"><ele>194.0</ele><time>2026-04-12T18:42:10Z</time></trkpt><trkpt lat="38.109859257195964" lon="15.673529817882748"><ele>194.6</ele><time>2026-04-12T18:42:11Z</time></trkpt><trkpt lat="38.10974046006835" lon="15.673539181900894"><ele>195.2</ele><time>2026-04-12T18:42:12Z</time></trkpt><trkpt lat="38.109633881591556" lon="15.673593408562224"><ele>195.79999999999998</ele><time>2026-04-12T18:42:13Z</time></trkpt><trkpt lat="38.10954680638859" lon="15.67361809899462"><ele>196.39999999999998</ele><time>2026-04-12T18:42:14Z</time></trkpt><trkpt lat="38.10947243731683" lon="15.67361216507436"><ele>197.0</ele><time>2026-04-12T18:42:15Z</time></trkpt><trkpt lat="38.10935686397528" lon="15.673576390124625"><ele>197.00000000000003</ele><time>2026-04-12T18:42:17Z</time></trkpt><trkpt lat="38.1092787655952" lon="15.67353309668274"><ele>197.0</ele><time>2026-04-12T18:42:19Z</time></trkpt><trkpt lat="38.10921365382923" lon="15.673561787624223"><ele>197.0</ele><time>2026-04-12T18:42:54Z</time></trkpt><trkpt lat="38.1091463546327" lon="15.673664224644442"><ele>197.0</ele><time>2026-04-12T18:42:57Z</time></trkpt><trkpt lat="38.10912446558266" lon="15.673770571271252"><ele>197.00000000000003</ele><time>2026-04-12T18:42:58Z</time></trkpt><trkpt lat="38.1091110470197" lon="15.67388600016416"><ele>197.0</ele><time>2026-04-12T18:42:59Z</time></trkpt><trkpt lat="38.10909819879592" lon="15.674034561298328"><ele>197.0</ele><time>2026-04-12T18:43:00Z</time></trkpt><trkpt lat="38.109096295523194" lon="15.6741366637087"><ele>197.0</ele><time>2026-04-12T18:43:01Z</time></trkpt><trkpt lat="38.1090859270792" lon="15.674243487103379"><ele>197.0</ele><time>2026-04-12T18:43:02Z</time></trkpt><trkpt lat="38.109081125966874" lon="15.674367667958117"><ele>197.0</ele><time>2026-04-12T18:43:03Z</time></trkpt><trkpt lat="38.10909588616463" lon="15.67450473890166"><ele>197.0</ele><time>2026-04-12T18:43:04Z</time></trkpt><trkpt lat="38.109178957995354" lon="15.674542979235085"><ele>197.00000000000003</ele><time>2026-04-12T18:43:06Z</time></trkpt><trkpt lat="38.1092497171967" lon="15.674488196876986"><ele>197.0</ele><time>2026-04-12T18:43:08Z</time></trkpt><trkpt lat="38.10934355786195" lon="15.674442126305847"><ele>197.0</ele><time>2026-04-12T18:43:10Z</time></trkpt><trkpt lat="38.10939959941746" lon="15.674390421365372"><ele>197.0</ele><time>2026-04-12T18:53:04Z</time></trkpt><trkpt lat="38.10937612716932" lon="15.674281212319505"><ele>197.00000000000003</ele><time>2026-04-12T18:53:05Z</time></trkpt><trkpt lat="38.10934285690067" lon="15.67435754187016"><ele>197.0</ele><time>2026-04-12T18:53:13Z</time></trkpt><trkpt lat="38.1093186078583" lon="15.67444841873053"><ele>197.00000000000003</ele><time>2026-04-12T18:53:18.01Z</time></trkpt><trkpt lat="38.109396242632116" lon="15.674325219506478"><ele>197.0</ele><time>2026-04-12T19:00:29.016Z</time></trkpt><trkpt lat="38.109441393809185" lon="15.674386361134466"><ele>197.0</ele><time>2026-04-12T19:00:55Z</time></trkpt><trkpt lat="38.109469780087316" lon="15.674472542441864"><ele>197.0</ele><time>2026-04-12T19:00:58Z</time></trkpt><trkpt lat="38.10951816054407" lon="15.674538535132921"><ele>197.00000000000003</ele><time>2026-04-12T19:01:03Z</time></trkpt><trkpt lat="38.10946381465247" lon="15.674591926776165"><ele>197.0</ele><time>2026-04-12T19:01:08Z</time></trkpt><trkpt lat="38.10940516145824" lon="15.674641965476836"><ele>199.0</ele><time>2026-04-12T19:01:15Z</time></trkpt><trkpt lat="38.10939612424589" lon="15.67473884599807"><ele>201.0</ele><time>2026-04-12T19:01:27Z</time></trkpt><trkpt lat="38.109378818693195" lon="15.674438462658314"><ele>203.0</ele><time>2026-04-12T19:02:18.031Z</time></trkpt><trkpt lat="38.109318823959654" lon="15.674484052176075"><ele>205.0</ele><time>2026-04-12T19:02:29.93Z</time></trkpt><trkpt lat="38.10911951278027" lon="15.67462722388072"><ele>205.0</ele><time>2026-04-12T19:02:36.373Z</time></trkpt><trkpt lat="38.10937539361392" lon="15.674460495104624"><ele>205.0</ele><time>2026-04-12T19:02:44.216Z</time></trkpt><trkpt lat="38.10929311253502" lon="15.674582057072394"><ele>205.0</ele><time>2026-04-12T19:03:08.773Z</time></trkpt><trkpt lat="38.10941457387845" lon="15.674594088715475"><ele>205.0</ele><time>2026-04-12T19:35:53.001Z</time></trkpt><trkpt lat="38.109500426744525" lon="15.674750865555517"><ele>205.0</ele><time>2026-04-12T19:35:56.001Z</time></trkpt><trkpt lat="38.109557884639734" lon="15.674857408987515"><ele>205.0</ele><time>2026-04-12T19:36:14.001Z</time></trkpt><trkpt lat="38.10936832804071" lon="15.674621276572042"><ele>205.0</ele><time>2026-04-12T19:36:25Z</time></trkpt><trkpt lat="38.10937084261167" lon="15.674517676248847"><ele>205.0</ele><time>2026-04-12T19:36:26Z</time></trkpt><trkpt lat="38.109596310147" lon="15.674791036270376"><ele>205.0</ele><time>2026-04-12T19:36:28Z</time></trkpt><trkpt lat="38.10937084261167" lon="15.674517676248847"><ele>205.0</ele><time>2026-04-12T19:36:36Z</time></trkpt><trkpt lat="38.109523545210806" lon="15.674720750108639"><ele>205.0</ele><time>2026-04-12T19:36:38Z</time></trkpt><trkpt lat="38.10943568158905" lon="15.67463425714656"><ele>205.0</ele><time>2026-04-12T19:37:12Z</time></trkpt><trkpt lat="38.10936152962945" lon="15.67460794923725"><ele>205.0</ele><time>2026-04-12T19:37:17Z</time></trkpt><trkpt lat="38.10928249072157" lon="15.674550963298856"><ele>204.99999999999997</ele><time>2026-04-12T19:37:21Z</time></trkpt><trkpt lat="38.109275419058285" lon="15.674470248048113"><ele>205.0</ele><time>2026-04-12T19:37:31Z</time></trkpt><trkpt lat="38.109349053774714" lon="15.674579689552836"><ele>205.0</ele><time>2026-04-12T19:37:49.001Z</time></trkpt><trkpt lat="38.10936771836732" lon="15.674672416217836"><ele>205.0</ele><time>2026-04-12T19:38:02.001Z</time></trkpt><trkpt lat="38.1092969150954" lon="15.674650738210069"><ele>204.99999999999997</ele><time>2026-04-12T19:41:25Z</time></trkpt><trkpt lat="38.10923514191805" lon="15.674591013118725"><ele>205.0</ele><time>2026-04-12T19:41:27Z</time></trkpt><trkpt lat="38.10930882752684" lon="15.674599203628446"><ele>205.0</ele><time>2026-04-12T19:41:36.001Z</time></trkpt><trkpt lat="38.10928964997855" lon="15.674502689947985"><ele>205.0</ele><time>2026-04-12T19:41:42.001Z</time></trkpt><trkpt lat="38.10937544695583" lon="15.67455829705548"><ele>205.0</ele><time>2026-04-12T19:50:07.001Z</time></trkpt><trkpt lat="38.10928036796917" lon="15.674546773176377"><ele>205.0</ele><time>2026-04-12T19:50:08.001Z</time></trkpt><trkpt lat="38.10955666940498" lon="15.674664778649504"><ele>205.0</ele><time>2026-04-12T19:51:12Z</time></trkpt><trkpt lat="38.10934642223765" lon="15.674567028630806"><ele>205.0</ele><time>2026-04-12T19:51:14Z</time></trkpt><trkpt lat="38.10941372510062" lon="15.674646570312493"><ele>205.0</ele><time>2026-04-12T19:51:39Z</time></trkpt><trkpt lat="38.10930410096041" lon="15.674579810172803"><ele>205.0</ele><time>2026-04-12T19:52:04.001Z</time></trkpt><trkpt lat="38.10939272702102" lon="15.674582397078852"><ele>205.0</ele><time>2026-04-12T19:52:57Z</time></trkpt><trkpt lat="38.10932411797582" lon="15.674544838678008"><ele>205.0</ele><time>2026-04-12T19:55:08Z</time></trkpt><trkpt lat="38.109279051828246" lon="15.674606979165102"><ele>205.0</ele><time>2026-04-12T19:57:10.017Z</time></trkpt><trkpt lat="38.10926620918251" lon="15.674521903376162"><ele>205.0</ele><time>2026-04-12T19:57:27Z</time></trkpt><trkpt lat="38.109279051828246" lon="15.674606979165102"><ele>205.0</ele><time>2026-04-12T19:59:48.022Z</time></trkpt><trkpt lat="38.10929136804931" lon="15.674528366382745"><ele>205.0</ele><time>2026-04-12T20:00:14.017Z</time></trkpt><trkpt lat="38.109279051828246" lon="15.674606979165102"><ele>205.0</ele><time>2026-04-12T20:05:52Z</time></trkpt><trkpt lat="38.109343102261484" lon="15.674630605457883"><ele>205.0</ele><time>2026-04-12T20:05:56Z</time></trkpt><trkpt lat="38.10929199796798" lon="15.674581217651163"><ele>205.0</ele><time>2026-04-12T20:07:59Z</time></trkpt><trkpt lat="38.10925218212421" lon="15.674472428949063"><ele>205.0</ele><time>2026-04-12T20:09:33.001Z</time></trkpt><trkpt lat="38.109274116959014" lon="15.674548535297298"><ele>205.0</ele><time>2026-04-12T20:09:50.002Z</time></trkpt><trkpt lat="38.10931581213964" lon="15.674613931752408"><ele>205.0</ele><time>2026-04-12T20:09:53.002Z</time></trkpt><trkpt lat="38.10938081107254" lon="15.674674630168102"><ele>205.0</ele><time>2026-04-12T20:09:56.002Z</time></trkpt><trkpt lat="38.10943548861973" lon="15.674607888416578"><ele>205.0</ele><time>2026-04-12T20:10:02.002Z</time></trkpt><trkpt lat="38.109405186559016" lon="15.674408195911983"><ele>204.99999999999997</ele><time>2026-04-12T20:10:05.001Z</time></trkpt><trkpt lat="38.109385084173006" lon="15.674331716795429"><ele>205.0</ele><time>2026-04-12T20:10:07.001Z</time></trkpt><trkpt lat="38.10934969641684" lon="15.674261250078093"><ele>205.0</ele><time>2026-04-12T20:10:10.001Z</time></trkpt><trkpt lat="38.10934448660817" lon="15.674426505397024"><ele>205.0</ele><time>2026-04-12T20:11:30.001Z</time></trkpt><trkpt lat="38.109310762604174" lon="15.674558867282565"><ele>204.99999999999997</ele><time>2026-04-12T20:12:29.001Z</time></trkpt><trkpt lat="38.10937211078013" lon="15.674588741707723"><ele>205.0</ele><time>2026-04-12T20:39:14.001Z</time></trkpt><trkpt lat="38.109382360207576" lon="15.674506258049583"><ele>205.0</ele><time>2026-04-12T20:43:11.001Z</time></trkpt><trkpt lat="38.109310100077806" lon="15.674540606475016"><ele>205.0</ele><time>2026-04-12T20:43:17.001Z</time></trkpt><trkpt lat="38.1092320645046" lon="15.67471371260901"><ele>205.0</ele><time>2026-04-13T04:10:43Z</time></trkpt><trkpt lat="38.10927959336878" lon="15.674604679003442"><ele>205.0</ele><time>2026-04-13T04:13:28Z</time></trkpt><trkpt lat="38.10925764977735" lon="15.674680887164135"><ele>205.0</ele><time>2026-04-13T04:13:38Z</time></trkpt><trkpt lat="38.109305758089214" lon="15.6747961830871"><ele>204.99999999999997</ele><time>2026-04-13T04:14:53Z</time></trkpt><trkpt lat="38.10932045054786" lon="15.674717310784159"><ele>205.0</ele><time>2026-04-13T04:15:37Z</time></trkpt><trkpt lat="38.109307248492385" lon="15.674592493979722"><ele>205.0</ele><time>2026-04-13T04:17:02Z</time></trkpt><trkpt lat="38.10926793012599" lon="15.674662304879684"><ele>205.0</ele><time>2026-04-13T04:17:10Z</time></trkpt><trkpt lat="38.10929300574224" lon="15.674573104643477"><ele>204.99999999999997</ele><time>2026-04-13T04:17:37Z</time></trkpt><trkpt lat="38.10932413066756" lon="15.674651439410027"><ele>205.0</ele><time>2026-04-13T04:20:54Z</time></trkpt><trkpt lat="38.10933938522537" lon="15.674766574638115"><ele>205.0</ele><time>2026-04-13T04:22:14.999Z</time></trkpt><trkpt lat="38.109252133308146" lon="15.674809683482176"><ele>205.0</ele><time>2026-04-13T04:26:15.001Z</time></trkpt><trkpt lat="38.10930797186851" lon="15.674727527465523"><ele>205.0</ele><time>2026-04-13T04:29:14Z</time></trkpt><trkpt lat="38.10930280732075" lon="15.674606530325123"><ele>205.0</ele><time>2026-04-13T04:29:56.001Z</time></trkpt><trkpt lat="38.109339890108124" lon="15.67476693252119"><ele>205.0</ele><time>2026-04-13T04:31:25Z</time></trkpt><trkpt lat="38.10933264097401" lon="15.674674855157111"><ele>204.99999999999997</ele><time>2026-04-13T04:31:39Z</time></trkpt><trkpt lat="38.10925988116572" lon="15.67463395562839"><ele>205.0</ele><time>2026-04-13T05:20:34.001Z</time></trkpt><trkpt lat="38.1092742760985" lon="15.674716797971248"><ele>205.0</ele><time>2026-04-13T05:20:55.001Z</time></trkpt><trkpt lat="38.109271885201" lon="15.674632837442594"><ele>205.0</ele><time>2026-04-13T05:32:14.016Z</time></trkpt><trkpt lat="38.10934559271239" lon="15.674554002655652"><ele>204.99999999999997</ele><time>2026-04-13T05:32:30.001Z</time></trkpt><trkpt lat="38.10931886950417" lon="15.674470508922383"><ele>205.0</ele><time>2026-04-13T05:32:39.001Z</time></trkpt><trkpt lat="38.109278990612125" lon="15.674547813245992"><ele>205.0</ele><time>2026-04-13T05:34:04Z</time></trkpt><trkpt lat="38.109281631065926" lon="15.67466898291877"><ele>205.0</ele><time>2026-04-13T05:36:15Z</time></trkpt><trkpt lat="38.109229597511515" lon="15.674724370422497"><ele>205.0</ele><time>2026-04-13T05:36:50.001Z</time></trkpt><trkpt lat="38.109278861569344" lon="15.674664791381108"><ele>205.0</ele><time>2026-04-13T05:37:29.001Z</time></trkpt><trkpt lat="38.10926387011527" lon="15.67458350237953"><ele>205.0</ele><time>2026-04-13T05:50:39Z</time></trkpt><trkpt lat="38.10931953590901" lon="15.674543636089764"><ele>205.0</ele><time>2026-04-13T05:50:50Z</time></trkpt><trkpt lat="38.10938045062576" lon="15.674579569501537"><ele>205.0</ele><time>2026-04-13T05:56:46.001Z</time></trkpt><trkpt lat="38.10947256630749" lon="15.674648438082102"><ele>204.99999999999997</ele><time>2026-04-13T06:00:39.003Z</time></trkpt><trkpt lat="38.10956327349537" lon="15.674573434069634"><ele>205.0</ele><time>2026-04-13T06:00:44.001Z</time></trkpt><trkpt lat="38.109533402968914" lon="15.674502015403739"><ele>205.0</ele><time>2026-04-13T06:00:47.001Z</time></trkpt><trkpt lat="38.1094838978169" lon="15.674435420155291"><ele>205.0</ele><time>2026-04-13T06:00:52Z</time></trkpt><trkpt lat="38.109415729315444" lon="15.674394167966671"><ele>204.99999999999997</ele><time>2026-04-13T06:00:56Z</time></trkpt><trkpt lat="38.109342134084095" lon="15.67433392944193"><ele>205.0</ele><time>2026-04-13T06:01:03Z</time></trkpt><trkpt lat="38.109293111885094" lon="15.674267456240178"><ele>204.99999999999997</ele><time>2026-04-13T06:01:11Z</time></trkpt><trkpt lat="38.10925200044404" lon="15.674336000840809"><ele>205.0</ele><time>2026-04-13T06:01:18Z</time></trkpt><trkpt lat="38.109188820779444" lon="15.674391413289435"><ele>205.0</ele><time>2026-04-13T06:01:20Z</time></trkpt><trkpt lat="38.109132002840276" lon="15.674473861814143"><ele>205.0</ele><time>2026-04-13T06:01:22Z</time></trkpt><trkpt lat="38.1090699" lon="15.6743699"><ele>204.99999999999997</ele><time>2026-04-13T06:01:26.099Z</time></trkpt><trkpt lat="38.10911873971003" lon="15.674312361023865"><ele>205.0</ele><time>2026-04-13T06:01:27.358Z</time></trkpt><trkpt lat="38.10911606634011" lon="15.674219899999999"><ele>203.0</ele><time>2026-04-13T06:01:28.424Z</time></trkpt><trkpt lat="38.10914731273115" lon="15.674039526962384"><ele>201.0</ele><time>2026-04-13T06:01:30.984Z</time></trkpt><trkpt lat="38.10916259543536" lon="15.673842671091728"><ele>199.0</ele><time>2026-04-13T06:01:33.565Z</time></trkpt><trkpt lat="38.10917620310121" lon="15.673747009988285"><ele>197.0</ele><time>2026-04-13T06:01:35.592Z</time></trkpt><trkpt lat="38.10920750983043" lon="15.673614644243868"><ele>195.25</ele><time>2026-04-13T06:01:36.515Z</time></trkpt><trkpt lat="38.10923162303633" lon="15.673518167681435"><ele>193.5</ele><time>2026-04-13T06:01:39.533Z</time></trkpt><trkpt lat="38.10910711602941" lon="15.673384000237997"><ele>191.75</ele><time>2026-04-13T06:01:40.447Z</time></trkpt><trkpt lat="38.109017186097454" lon="15.673295769682628"><ele>190.0</ele><time>2026-04-13T06:01:43.396Z</time></trkpt><trkpt lat="38.108911809860935" lon="15.673178034259264"><ele>190.0</ele><time>2026-04-13T06:01:46.395Z</time></trkpt><trkpt lat="38.108840059377044" lon="15.673078778955288"><ele>190.0</ele><time>2026-04-13T06:01:48.556Z</time></trkpt><trkpt lat="38.10879287708205" lon="15.673018874278402"><ele>190.0</ele><time>2026-04-13T06:01:50.415Z</time></trkpt><trkpt lat="38.10874457942037" lon="15.67293701946027"><ele>190.0</ele><time>2026-04-13T06:01:53.954Z</time></trkpt><trkpt lat="38.1088161" lon="15.6728297"><ele>190.0</ele><time>2026-04-13T06:02:02.806Z</time></trkpt><trkpt lat="38.108886999999996" lon="15.672763000000002"><ele>189.2</ele><time>2026-04-13T06:02:03.939Z</time></trkpt><trkpt lat="38.1089675" lon="15.672694000000002"><ele>188.4</ele><time>2026-04-13T06:02:05.171Z</time></trkpt><trkpt lat="38.1090572" lon="15.672611900000001"><ele>187.60000000000002</ele><time>2026-04-13T06:02:06.344Z</time></trkpt><trkpt lat="38.1091383" lon="15.672533800000002"><ele>186.8</ele><time>2026-04-13T06:02:07.309Z</time></trkpt><trkpt lat="38.1092156" lon="15.6724593"><ele>186.0</ele><time>2026-04-13T06:02:08.438Z</time></trkpt><trkpt lat="38.109305899999995" lon="15.6723694"><ele>186.0</ele><time>2026-04-13T06:02:09.337Z</time></trkpt><trkpt lat="38.10935969999999" lon="15.6723157"><ele>186.0</ele><time>2026-04-13T06:02:10.18Z</time></trkpt><trkpt lat="38.1094735" lon="15.6721733"><ele>186.0</ele><time>2026-04-13T06:02:11.336Z</time></trkpt><trkpt lat="38.1095386" lon="15.6720441"><ele>186.0</ele><time>2026-04-13T06:02:12.56Z</time></trkpt><trkpt lat="38.1095578" lon="15.671839800000003"><ele>184.60000000000002</ele><time>2026-04-13T06:02:14.328Z</time></trkpt><trkpt lat="38.1095547" lon="15.6716863"><ele>183.2</ele><time>2026-04-13T06:02:15.276Z</time></trkpt><trkpt lat="38.1095402" lon="15.671587299999999"><ele>181.8</ele><time>2026-04-13T06:02:16.144Z</time></trkpt><trkpt lat="38.10950450000001" lon="15.671456599999999"><ele>180.39999999999998</ele><time>2026-04-13T06:02:17.064Z</time></trkpt><trkpt lat="38.109453" lon="15.671375599999998"><ele>179.0</ele><time>2026-04-13T06:02:17.988Z</time></trkpt><trkpt lat="38.10938949999999" lon="15.6713208"><ele>179.0</ele><time>2026-04-13T06:02:18.908Z</time></trkpt><trkpt lat="38.1092779" lon="15.671291499999999"><ele>179.0</ele><time>2026-04-13T06:02:19.806Z</time></trkpt><trkpt lat="38.1091887" lon="15.671272500000002"><ele>179.0</ele><time>2026-04-13T06:02:20.728Z</time></trkpt><trkpt lat="38.109099" lon="15.671259899999999"><ele>179.0</ele><time>2026-04-13T06:02:21.752Z</time></trkpt><trkpt lat="38.109009300000004" lon="15.671247300000001"><ele>179.0</ele><time>2026-04-13T06:02:22.902Z</time></trkpt><trkpt lat="38.1089187" lon="15.671216299999998"><ele>179.39999999999998</ele><time>2026-04-13T06:02:23.751Z</time></trkpt><trkpt lat="38.108829199999995" lon="15.671172000000002"><ele>179.8</ele><time>2026-04-13T06:02:24.643Z</time></trkpt><trkpt lat="38.1087558" lon="15.6711302"><ele>180.2</ele><time>2026-04-13T06:02:25.548Z</time></trkpt><trkpt lat="38.10864" lon="15.671049400000001"><ele>180.60000000000002</ele><time>2026-04-13T06:02:26.793Z</time></trkpt><trkpt lat="38.1085683" lon="15.670993"><ele>181.0</ele><time>2026-04-13T06:02:27.715Z</time></trkpt><trkpt lat="38.1084998" lon="15.670929799999998"><ele>178.75</ele><time>2026-04-13T06:02:28.562Z</time></trkpt><trkpt lat="38.1084307" lon="15.6708589"><ele>176.5</ele><time>2026-04-13T06:02:29.588Z</time></trkpt><trkpt lat="38.1083019" lon="15.6706776"><ele>174.25</ele><time>2026-04-13T06:02:30.764Z</time></trkpt><trkpt lat="38.108246799999996" lon="15.670592600000003"><ele>172.0</ele><time>2026-04-13T06:02:31.614Z</time></trkpt><trkpt lat="38.1081725" lon="15.670477100000001"><ele>171.8</ele><time>2026-04-13T06:02:32.81Z</time></trkpt><trkpt lat="38.1081138" lon="15.6703858"><ele>171.6</ele><time>2026-04-13T06:02:33.712Z</time></trkpt><trkpt lat="38.10806289999999" lon="15.6703066"><ele>171.4</ele><time>2026-04-13T06:02:34.985Z</time></trkpt><trkpt lat="38.108008000000005" lon="15.6702213"><ele>171.20000000000002</ele><time>2026-04-13T06:02:36.691Z</time></trkpt><trkpt lat="38.107946000000005" lon="15.6701236"><ele>171.0</ele><time>2026-04-13T06:02:38.749Z</time></trkpt><trkpt lat="38.1078761" lon="15.6700134"><ele>169.83333333333334</ele><time>2026-04-13T06:02:41.206Z</time></trkpt><trkpt lat="38.1078257" lon="15.6699338"><ele>168.66666666666666</ele><time>2026-04-13T06:02:44.073Z</time></trkpt><trkpt lat="38.10778069999999" lon="15.669868799999998"><ele>167.5</ele><time>2026-04-13T06:02:46.153Z</time></trkpt><trkpt lat="38.107697599999995" lon="15.6698184"><ele>166.33333333333331</ele><time>2026-04-13T06:02:48.33Z</time></trkpt><trkpt lat="38.1075792" lon="15.6697937"><ele>165.16666666666666</ele><time>2026-04-13T06:02:50.55Z</time></trkpt><trkpt lat="38.1075096" lon="15.6697888"><ele>164.0</ele><time>2026-04-13T06:02:52.905Z</time></trkpt><trkpt lat="38.1074281" lon="15.6697798"><ele>164.0</ele><time>2026-04-13T06:02:54.953Z</time></trkpt><trkpt lat="38.1074281" lon="15.6698997"><ele>164.0</ele><time>2026-04-13T06:02:57.96Z</time></trkpt><trkpt lat="38.1074281" lon="15.669979799999998"><ele>164.0</ele><time>2026-04-13T06:02:59.128Z</time></trkpt><trkpt lat="38.10742929999999" lon="15.6700681"><ele>164.0</ele><time>2026-04-13T06:03:11.141Z</time></trkpt><trkpt lat="38.1074401" lon="15.670157200000002"><ele>164.0</ele><time>2026-04-13T06:03:14.181Z</time></trkpt><trkpt lat="38.107459299999995" lon="15.6702743"><ele>164.0</ele><time>2026-04-13T06:03:17.283Z</time></trkpt><trkpt lat="38.10738643607765" lon="15.670286765115707"><ele>164.0</ele><time>2026-04-13T06:03:20.259Z</time></trkpt><trkpt lat="38.107459299999995" lon="15.6702743"><ele>164.0</ele><time>2026-04-13T06:03:59.261Z</time></trkpt><trkpt lat="38.107484799999995" lon="15.6703636"><ele>164.0</ele><time>2026-04-13T06:04:01.206Z</time></trkpt><trkpt lat="38.1075053" lon="15.6704433"><ele>164.0</ele><time>2026-04-13T06:04:03.334Z</time></trkpt><trkpt lat="38.107541499999996" lon="15.6705484"><ele>164.0</ele><time>2026-04-13T06:04:06.121Z</time></trkpt><trkpt lat="38.107613300000004" lon="15.670656000000001"><ele>164.0</ele><time>2026-04-13T06:04:08.246Z</time></trkpt><trkpt lat="38.1077143" lon="15.6708046"><ele>165.39999999999998</ele><time>2026-04-13T06:04:09.91Z</time></trkpt><trkpt lat="38.107777000000006" lon="15.6708914"><ele>166.8</ele><time>2026-04-13T06:04:10.808Z</time></trkpt><trkpt lat="38.107827199999996" lon="15.6709611"><ele>168.2</ele><time>2026-04-13T06:04:11.662Z</time></trkpt><trkpt lat="38.1078943" lon="15.6710554"><ele>169.60000000000002</ele><time>2026-04-13T06:04:12.522Z</time></trkpt><trkpt lat="38.107983" lon="15.6711975"><ele>171.0</ele><time>2026-04-13T06:04:13.801Z</time></trkpt><trkpt lat="38.1080345" lon="15.671295899999999"><ele>172.25</ele><time>2026-04-13T06:04:15.625Z</time></trkpt><trkpt lat="38.108126399999996" lon="15.671475200000003"><ele>173.5</ele><time>2026-04-13T06:04:17.693Z</time></trkpt><trkpt lat="38.1082071" lon="15.671655200000004"><ele>174.75</ele><time>2026-04-13T06:04:19.818Z</time></trkpt><trkpt lat="38.1082393" lon="15.671733400000003"><ele>176.0</ele><time>2026-04-13T06:04:20.717Z</time></trkpt><trkpt lat="38.108306400000004" lon="15.6719159"><ele>178.0</ele><time>2026-04-13T06:04:22.746Z</time></trkpt><trkpt lat="38.1083467" lon="15.672025699999999"><ele>180.0</ele><time>2026-04-13T06:04:23.873Z</time></trkpt><trkpt lat="38.108379199999995" lon="15.672114299999999"><ele>182.0</ele><time>2026-04-13T06:04:25.066Z</time></trkpt><trkpt lat="38.108427500000005" lon="15.6722249"><ele>184.0</ele><time>2026-04-13T06:04:25.911Z</time></trkpt><trkpt lat="38.108491799999996" lon="15.672378299999998"><ele>186.0</ele><time>2026-04-13T06:04:27.963Z</time></trkpt><trkpt lat="38.1085408" lon="15.672479"><ele>186.0</ele><time>2026-04-13T06:04:29.136Z</time></trkpt><trkpt lat="38.108590899999996" lon="15.672582699999998"><ele>186.0</ele><time>2026-04-13T06:04:30.317Z</time></trkpt><trkpt lat="38.1086501" lon="15.672733999999998"><ele>186.0</ele><time>2026-04-13T06:04:32.526Z</time></trkpt><trkpt lat="38.108689" lon="15.6728446"><ele>186.0</ele><time>2026-04-13T06:04:34.761Z</time></trkpt><trkpt lat="38.1087513" lon="15.6730384"><ele>186.60000000000002</ele><time>2026-04-13T06:04:38.666Z</time></trkpt><trkpt lat="38.108799999999995" lon="15.673119699999999"><ele>187.2</ele><time>2026-04-13T06:04:40.48Z</time></trkpt><trkpt lat="38.1088946" lon="15.6732332"><ele>187.8</ele><time>2026-04-13T06:04:42.944Z</time></trkpt><trkpt lat="38.108950199999995" lon="15.6732992"><ele>188.39999999999998</ele><time>2026-04-13T06:04:43.906Z</time></trkpt><trkpt lat="38.109039300000006" lon="15.673391"><ele>189.0</ele><time>2026-04-13T06:04:46.032Z</time></trkpt><trkpt lat="38.1090898" lon="15.673439900000002"><ele>189.0</ele><time>2026-04-13T06:04:47.9Z</time></trkpt><trkpt lat="38.10916019999999" lon="15.673499000000001"><ele>189.0</ele><time>2026-04-13T06:04:51.153Z</time></trkpt><trkpt lat="38.1091429237917" lon="15.67370138772561"><ele>189.0</ele><time>2026-04-13T06:04:58.581Z</time></trkpt><trkpt lat="38.10912805447495" lon="15.673780429365435"><ele>189.0</ele><time>2026-04-13T06:04:59.573Z</time></trkpt><trkpt lat="38.1090993143576" lon="15.674173457322226"><ele>190.33333333333334</ele><time>2026-04-13T06:05:05.82Z</time></trkpt><trkpt lat="38.10909727934732" lon="15.674317233536351"><ele>191.66666666666669</ele><time>2026-04-13T06:05:07.898Z</time></trkpt><trkpt lat="38.10909130626805" lon="15.674427010872328"><ele>193.0</ele><time>2026-04-13T06:05:09.612Z</time></trkpt><trkpt lat="38.1091099" lon="15.6745199"><ele>194.33333333333334</ele><time>2026-04-13T06:05:11.554Z</time></trkpt><trkpt lat="38.10915990000001" lon="15.674589899999999"><ele>195.66666666666669</ele><time>2026-04-13T06:05:13.045Z</time></trkpt><trkpt lat="38.10921061547663" lon="15.67468245123795"><ele>197.0</ele><time>2026-04-13T06:05:14.928Z</time></trkpt><trkpt lat="38.10930640585528" lon="15.674722492939862"><ele>197.00000000000003</ele><time>2026-04-13T06:05:16.683Z</time></trkpt><trkpt lat="38.109399176130616" lon="15.67467904491643"><ele>197.0</ele><time>2026-04-13T06:05:18.801Z</time></trkpt><trkpt lat="38.10946456477466" lon="15.674631387915575"><ele>197.0</ele><time>2026-04-13T06:05:20.525Z</time></trkpt><trkpt lat="38.10948990000001" lon="15.6745499"><ele>197.0</ele><time>2026-04-13T06:05:22.667Z</time></trkpt><trkpt lat="38.1094799" lon="15.6744599"><ele>197.00000000000003</ele><time>2026-04-13T06:05:24.512Z</time></trkpt><trkpt lat="38.10942531152987" lon="15.674352460246899"><ele>197.0</ele><time>2026-04-13T06:05:26.892Z</time></trkpt><trkpt lat="38.10935223035798" lon="15.674364848817772"><ele>197.0</ele><time>2026-04-13T06:05:28.758Z</time></trkpt><trkpt lat="38.10934404823045" lon="15.674453792778866"><ele>197.0</ele><time>2026-04-13T06:05:43Z</time></trkpt><trkpt lat="38.10936803973483" lon="15.674346147445204"><ele>197.0</ele><time>2026-04-13T06:05:51Z</time></trkpt><trkpt lat="38.10938697777528" lon="15.674592694282229"><ele>197.0</ele><time>2026-04-13T06:06:20.001Z</time></trkpt><trkpt lat="38.109503704674914" lon="15.674626124399516"><ele>197.0</ele><time>2026-04-13T06:06:29.001Z</time></trkpt><trkpt lat="38.10933145063803" lon="15.674411111679085"><ele>197.0</ele><time>2026-04-13T06:06:59.001Z</time></trkpt><trkpt lat="38.10959158003168" lon="15.674660336240823"><ele>197.0</ele><time>2026-04-13T06:07:38Z</time></trkpt><trkpt lat="38.10938737553577" lon="15.674395421248203"><ele>197.0</ele><time>2026-04-13T06:08:32.029Z</time></trkpt><trkpt lat="38.10942238512958" lon="15.674252031355792"><ele>197.0</ele><time>2026-04-13T06:09:45Z</time></trkpt><trkpt lat="38.10946135495441" lon="15.674334105963387"><ele>197.00000000000003</ele><time>2026-04-13T06:09:47Z</time></trkpt><trkpt lat="38.109473672436216" lon="15.67442116781593"><ele>197.0</ele><time>2026-04-13T06:09:49Z</time></trkpt><trkpt lat="38.10951076484461" lon="15.674498364400337"><ele>197.0</ele><time>2026-04-13T06:09:52Z</time></trkpt><trkpt lat="38.1094708702107" lon="15.674580358412666"><ele>197.0</ele><time>2026-04-13T06:09:58Z</time></trkpt><trkpt lat="38.109417919883796" lon="15.674632813781683"><ele>197.00000000000003</ele><time>2026-04-13T06:10:01Z</time></trkpt><trkpt lat="38.109365291495415" lon="15.674682226846514"><ele>197.0</ele><time>2026-04-13T06:10:07Z</time></trkpt><trkpt lat="38.10935330886227" lon="15.674467117997306"><ele>205.0</ele><time>2026-04-13T06:11:11.507Z</time></trkpt><trkpt lat="38.10929396057054" lon="15.674585406745415"><ele>205.0</ele><time>2026-04-13T06:11:49.022Z</time></trkpt><trkpt lat="38.1092891351607" lon="15.674669779280357"><ele>205.0</ele><time>2026-04-13T06:15:16Z</time></trkpt></trkseg></trk></gpx>